﻿_id	timestamp	temperature	humidity
1	2023-01-30T11:59:59	17.5	36
2	2023-01-30T12:00:45	17.5	36
3	2023-01-30T12:08:44	18.2	34
4	2023-01-30T12:18:43	18	29.5
5	2023-01-30T12:28:43	12.1	46.5
6	2023-01-30T12:38:43	4.6	81.5
7	2023-01-30T12:48:43	3	89
8	2023-01-30T12:58:43	2.2	93
9	2023-01-30T13:08:43	1.9	94.5
10	2023-01-30T13:18:43	1.8	95.5
11	2023-01-30T13:28:43	1.8	96.5
12	2023-01-30T13:38:43	1.8	96.5
13	2023-01-30T13:48:43	1.7	97
14	2023-01-30T13:58:43	1.7	97.5
15	2023-01-30T14:08:43	1.8	97.5
16	2023-01-30T14:28:43	1.8	98
17	2023-01-30T14:38:43	1.9	98
18	2023-01-30T14:48:43	2	98.5
19	2023-01-30T14:58:43	2.1	98.5
20	2023-01-30T15:08:43	2.1	98
21	2023-01-30T15:18:43	2.2	98.5
22	2023-01-30T15:28:43	2.3	98
23	2023-01-30T15:38:43	2.4	98
24	2023-01-30T15:48:43	2.4	98
25	2023-01-30T15:58:43	2.4	98
26	2023-01-30T16:08:43	2.2	98
27	2023-01-30T16:18:43	2.2	97.5
28	2023-01-30T16:28:43	2.2	98
29	2023-01-30T16:38:43	2.1	98
30	2023-01-30T16:48:43	2.3	98.5
31	2023-01-30T16:58:43	2.3	98.5
32	2023-01-30T17:08:43	2.4	98.5
33	2023-01-30T17:18:43	2.4	98
34	2023-01-30T17:28:43	2.4	98
35	2023-01-30T17:38:43	2.5	97.5
36	2023-01-30T17:48:43	2.7	97.5
37	2023-01-30T17:58:43	2.8	97.5
38	2023-01-30T18:08:43	3	97.5
39	2023-01-30T18:18:43	3	97
40	2023-01-30T18:28:43	3.2	97
41	2023-01-30T18:38:43	3.2	97
42	2023-01-30T18:48:43	3.3	96
43	2023-01-30T18:58:43	3.4	96
44	2023-01-30T19:08:43	3.3	96
45	2023-01-30T19:18:43	3.5	96
46	2023-01-30T19:28:43	3.5	96
47	2023-01-30T19:38:43	3.5	95.5
48	2023-01-30T19:48:43	3.5	95.5
49	2023-01-30T19:58:43	3.5	95.5
50	2023-01-30T20:08:43	3.5	95
51	2023-01-30T20:18:43	3.5	93
52	2023-01-30T20:28:43	3.5	92
53	2023-01-30T20:38:43	3.4	91.5
54	2023-01-30T20:48:43	3.5	89.5
55	2023-01-30T20:58:43	3.5	89.5
56	2023-01-30T21:08:43	3.6	88.5
57	2023-01-30T21:18:43	3.5	88.5
58	2023-01-30T21:28:43	3.5	88.5
59	2023-01-30T21:38:43	3.5	88.5
60	2023-01-30T21:48:43	3.5	88.5
61	2023-01-30T21:58:43	3.5	88.5
62	2023-01-30T22:08:43	3.6	88
63	2023-01-30T22:18:43	3.5	88
64	2023-01-30T22:28:43	3.5	88.5
65	2023-01-30T22:38:43	3.4	89
66	2023-01-30T22:48:43	3.4	88.5
67	2023-01-30T22:58:43	3.6	88
68	2023-01-30T23:08:43	3.6	88
69	2023-01-30T23:18:43	3.6	88
70	2023-01-30T23:28:43	3.5	87
71	2023-01-30T23:38:43	3.6	86.5
72	2023-01-30T23:48:43	3.5	86
73	2023-01-30T23:58:43	3.5	85.5
74	2023-01-31T00:08:43	3.5	85.5
75	2023-01-31T00:18:43	3.5	86
76	2023-01-31T00:28:43	3.6	85.5
77	2023-01-31T00:38:43	3.5	85.5
78	2023-01-31T00:48:43	3.2	86
79	2023-01-31T00:58:43	3.2	86.5
80	2023-01-31T01:08:43	2.9	87.5
81	2023-01-31T01:18:43	2.7	88.5
82	2023-01-31T01:28:43	2.6	89
83	2023-01-31T01:38:43	2.6	89
84	2023-01-31T01:48:43	2.4	89.5
85	2023-01-31T01:58:43	2.3	90
86	2023-01-31T02:08:43	2.2	90
87	2023-01-31T02:18:43	2.4	90
88	2023-01-31T02:28:43	2.4	90
89	2023-01-31T02:38:43	2.5	90
90	2023-01-31T02:48:43	2.5	89.5
91	2023-01-31T02:58:43	2.6	89.5
92	2023-01-31T03:08:43	2.6	89.5
93	2023-01-31T03:18:43	2.8	89.5
94	2023-01-31T03:28:43	2.8	89
95	2023-01-31T03:38:43	2.9	89
96	2023-01-31T03:48:43	2.9	89
97	2023-01-31T03:58:43	2.9	89
98	2023-01-31T04:08:43	2.7	89
99	2023-01-31T04:18:43	2.7	89.5
100	2023-01-31T04:28:43	2.6	89.5
101	2023-01-31T04:38:43	2.4	90.5
102	2023-01-31T04:48:43	2	91.5
103	2023-01-31T04:58:43	1.7	92.5
104	2023-01-31T05:08:43	1.6	93
105	2023-01-31T05:18:43	1.5	93.5
106	2023-01-31T05:28:43	1.9	93
107	2023-01-31T05:38:43	2.1	92.5
108	2023-01-31T05:48:43	2.2	92
109	2023-01-31T05:58:43	2.3	91.5
110	2023-01-31T06:08:43	2.5	91
111	2023-01-31T06:18:43	2.6	91
112	2023-01-31T06:28:43	2.5	91
113	2023-01-31T06:38:43	2.5	90.5
114	2023-01-31T06:48:43	2.6	90
115	2023-01-31T06:58:43	2.6	89
116	2023-01-31T07:08:43	2.7	88
117	2023-01-31T07:18:43	2.7	87
118	2023-01-31T07:28:43	2.6	87
119	2023-01-31T07:38:43	2.2	88
120	2023-01-31T07:48:43	2	89
121	2023-01-31T07:59:01	2.1	88.5
122	2023-01-31T08:08:43	2.3	87.5
123	2023-01-31T08:18:43	2.4	87
124	2023-01-31T08:28:43	2.5	86.5
125	2023-01-31T08:38:43	2.6	86.5
126	2023-01-31T08:48:43	2.8	85.5
127	2023-01-31T08:58:43	2.9	84.5
128	2023-01-31T09:08:43	3.2	83
129	2023-01-31T09:18:43	3.4	82
130	2023-01-31T09:28:43	3.5	82.5
131	2023-01-31T09:38:43	3.4	82.5
132	2023-01-31T09:48:43	3.5	81.5
133	2023-01-31T09:58:43	3.6	81
134	2023-01-31T10:08:43	4.1	80.5
135	2023-01-31T10:18:43	4	78.5
136	2023-01-31T10:28:43	4.1	79
137	2023-01-31T10:38:43	4.4	78
138	2023-01-31T10:48:43	4.5	77
139	2023-01-31T10:58:43	5.1	75
140	2023-01-31T11:08:43	5.3	73.5
141	2023-01-31T11:18:43	5.6	71.5
142	2023-01-31T11:28:43	5.6	72
143	2023-01-31T11:38:43	5.6	70.5
144	2023-01-31T11:48:43	5.6	70
145	2023-01-31T11:58:43	5.3	71
146	2023-01-31T12:08:43	5.1	72
147	2023-01-31T12:18:43	5.4	71
148	2023-01-31T12:28:43	5.7	67.5
149	2023-01-31T12:38:43	5.5	67.5
150	2023-01-31T12:48:43	5.6	66.5
151	2023-01-31T12:58:43	5.6	66.5
152	2023-01-31T13:08:43	5.6	66
153	2023-01-31T13:18:43	5.8	66
154	2023-01-31T13:28:43	5.8	65.5
155	2023-01-31T13:38:43	5.7	65.5
156	2023-01-31T13:48:43	5.7	66
157	2023-01-31T13:58:43	5.8	66
158	2023-01-31T14:08:43	5.8	66.5
159	2023-01-31T14:18:43	5.6	67
160	2023-01-31T14:28:43	5.8	67
161	2023-01-31T14:38:43	5.9	67
162	2023-01-31T14:48:43	5.9	66.5
163	2023-01-31T14:58:43	5.9	66.5
164	2023-01-31T15:08:43	6	67
165	2023-01-31T15:18:43	6	67
166	2023-01-31T15:28:43	6	67
167	2023-01-31T15:38:43	5.9	67.5
168	2023-01-31T15:48:43	5.7	67.5
169	2023-01-31T15:58:43	5.7	68
170	2023-01-31T16:08:43	5.6	68
171	2023-01-31T16:18:43	5.6	67.5
172	2023-01-31T16:28:43	5.6	67.5
173	2023-01-31T16:38:43	5.6	67.5
174	2023-01-31T16:48:43	5.7	68
175	2023-01-31T16:58:43	5.6	68.5
176	2023-01-31T17:08:43	5.6	68.5
177	2023-01-31T17:18:43	5.7	68.5
178	2023-01-31T17:28:43	5.7	68
179	2023-01-31T17:38:43	5.6	68.5
180	2023-01-31T17:48:43	5.6	69.5
181	2023-01-31T17:58:43	5.5	70
182	2023-01-31T18:08:42	5.8	70
183	2023-01-31T18:18:43	5.6	70.5
184	2023-01-31T18:28:43	5.6	71.5
185	2023-01-31T18:38:47	5.6	71
186	2023-01-31T18:48:42	5.7	71
187	2023-01-31T18:58:42	5.6	71.5
188	2023-01-31T19:08:43	5.6	71.5
189	2023-01-31T19:18:42	5.7	72
190	2023-01-31T19:28:42	5.8	73.5
191	2023-01-31T19:38:42	5.2	84
192	2023-01-31T19:48:42	5.1	89.5
193	2023-01-31T19:58:42	5	89
194	2023-01-31T20:08:42	5.1	90
195	2023-01-31T20:18:43	4.8	90
196	2023-01-31T20:28:42	4.5	92.5
197	2023-01-31T20:38:42	4.4	95.5
198	2023-01-31T20:48:42	4.4	95.5
199	2023-01-31T20:58:42	4.4	96
200	2023-01-31T21:08:42	4.3	96
201	2023-01-31T21:18:42	4.3	96.5
202	2023-01-31T21:28:42	4.3	96.5
203	2023-01-31T21:38:42	4.4	96
204	2023-01-31T21:48:42	4.6	95
205	2023-01-31T21:58:42	4.6	95
206	2023-01-31T22:08:42	4.6	94
207	2023-01-31T22:18:42	4.7	93.5
208	2023-01-31T22:28:42	4.7	93
209	2023-01-31T22:38:42	4.8	92.5
210	2023-01-31T22:48:42	4.8	93
211	2023-01-31T22:58:42	4.8	91.5
212	2023-01-31T23:08:42	4.3	97.5
213	2023-01-31T23:18:42	4.3	98
214	2023-01-31T23:28:42	4.2	98.5
215	2023-01-31T23:38:42	4.3	98.5
216	2023-01-31T23:48:42	4.4	98.5
217	2023-01-31T23:58:42	4.4	98.5
218	2023-02-01T00:08:42	4.4	98
219	2023-02-01T00:18:42	4.7	98
220	2023-02-01T00:28:42	4.8	97
221	2023-02-01T00:38:42	4.8	96.5
222	2023-02-01T00:48:42	4.9	96
223	2023-02-01T00:58:42	4.8	94.5
224	2023-02-01T01:08:42	4.8	94
225	2023-02-01T01:18:42	4.9	92.5
226	2023-02-01T01:28:42	5.1	91.5
227	2023-02-01T01:38:42	5	89
228	2023-02-01T01:48:42	5.2	86
229	2023-02-01T01:58:42	5.1	90
230	2023-02-01T02:08:42	5	90
231	2023-02-01T02:18:42	5.1	87.5
232	2023-02-01T02:28:42	5.2	85.5
233	2023-02-01T02:38:42	5.3	85.5
234	2023-02-01T02:48:42	5.3	86
235	2023-02-01T02:58:42	5.2	84.5
236	2023-02-01T03:08:42	5.3	84.5
237	2023-02-01T03:18:42	4.7	97
238	2023-02-01T03:28:42	4.5	98
239	2023-02-01T03:38:42	4.5	98
240	2023-02-01T03:48:42	4.6	97.5
241	2023-02-01T03:58:42	4.5	97
242	2023-02-01T04:08:42	4.7	96.5
243	2023-02-01T04:18:42	4.5	98.5
244	2023-02-01T04:28:42	4.4	98.5
245	2023-02-01T04:38:42	4.4	99
246	2023-02-01T04:48:43	4.4	99
247	2023-02-01T04:58:43	4.4	99.5
248	2023-02-01T05:08:42	4.4	99.5
249	2023-02-01T05:18:42	4.2	99.5
250	2023-02-01T05:28:42	4.4	100
251	2023-02-01T05:38:42	4.3	100
252	2023-02-01T05:48:42	4.3	100
253	2023-02-01T05:58:42	4.2	100
254	2023-02-01T06:08:42	4.3	100
255	2023-02-01T06:18:42	4.3	100
256	2023-02-01T06:28:42	4.4	100
257	2023-02-01T06:38:42	4.5	100
258	2023-02-01T06:48:42	4.4	100
259	2023-02-01T06:58:42	4.6	100
260	2023-02-01T07:08:42	4.6	100
261	2023-02-01T07:18:42	4.6	100
262	2023-02-01T07:28:42	4.6	100
263	2023-02-01T07:38:42	4.6	100
264	2023-02-01T07:48:42	4.5	100
265	2023-02-01T07:58:42	4.6	100
266	2023-02-01T08:08:42	4.7	100
267	2023-02-01T08:18:42	4.8	99.5
268	2023-02-01T08:28:42	4.6	100
269	2023-02-01T08:38:42	4.7	100
270	2023-02-01T08:48:42	4.7	100
271	2023-02-01T08:58:42	4.8	100
272	2023-02-01T09:08:42	4.8	100
273	2023-02-01T09:18:42	5.1	100
274	2023-02-01T09:28:42	5.2	99.5
275	2023-02-01T09:38:42	5.5	98.5
276	2023-02-01T09:48:42	5.5	98
277	2023-02-01T09:58:42	5.5	97.5
278	2023-02-01T10:08:42	5.6	97.5
279	2023-02-01T10:18:42	5.7	97.5
280	2023-02-01T10:28:42	5.8	97
281	2023-02-01T10:38:42	5.8	97
282	2023-02-01T10:48:42	5.9	96.5
283	2023-02-01T10:58:42	6	96
284	2023-02-01T11:08:42	6	95.5
285	2023-02-01T11:18:42	6	95
286	2023-02-01T11:28:42	5.8	94
287	2023-02-01T11:38:42	6	94.5
288	2023-02-01T11:48:42	6	94.5
289	2023-02-01T11:58:42	6	95.5
290	2023-02-01T12:08:42	6.2	94.5
291	2023-02-01T12:18:42	6.2	93.5
292	2023-02-01T12:28:42	5	99
293	2023-02-01T12:38:42	5.3	100
294	2023-02-01T12:48:42	5.1	100
295	2023-02-01T12:58:42	5.1	100
296	2023-02-01T13:08:42	5.2	100
297	2023-02-01T13:18:42	5.2	100
298	2023-02-01T13:28:42	5.2	100
299	2023-02-01T13:38:42	5.2	100
300	2023-02-01T13:48:42	5.2	100
301	2023-02-01T13:58:42	5.4	100
302	2023-02-01T14:08:42	5.4	100
303	2023-02-01T14:18:42	5.4	100
304	2023-02-01T14:28:42	5.6	99.5
305	2023-02-01T14:38:42	5.8	99
306	2023-02-01T14:48:42	5.9	98.5
307	2023-02-01T14:58:42	6	98.5
308	2023-02-01T15:08:42	6	98
309	2023-02-01T15:18:42	6.2	97
310	2023-02-01T15:28:42	6.3	96
311	2023-02-01T15:38:42	6.3	96
312	2023-02-01T15:48:42	6.2	93.5
313	2023-02-01T15:58:42	6.3	94.5
314	2023-02-01T16:08:42	6.1	94
315	2023-02-01T16:18:42	6.2	93
316	2023-02-01T16:28:42	6.1	94.5
317	2023-02-01T16:38:42	6.2	94
318	2023-02-01T16:48:42	6.1	93.5
319	2023-02-01T16:58:42	6.2	93
320	2023-02-01T17:08:42	6	93
321	2023-02-01T17:18:42	5.9	94
322	2023-02-01T17:28:42	5.7	94.5
323	2023-02-01T17:38:42	5.6	95
324	2023-02-01T17:48:42	5.6	95
325	2023-02-01T17:58:42	5.7	94
326	2023-02-01T18:08:42	5.8	95
327	2023-02-01T18:18:42	5.9	93
328	2023-02-01T18:28:42	5.9	94
329	2023-02-01T18:38:42	6	91.5
330	2023-02-01T18:48:42	6.1	91.5
331	2023-02-01T18:58:42	6.2	91.5
332	2023-02-01T19:08:42	6	92.5
333	2023-02-01T19:18:42	6	92
334	2023-02-01T19:28:42	6	93
335	2023-02-01T19:38:42	6.1	91.5
336	2023-02-01T19:48:42	6.1	91
337	2023-02-01T19:58:42	6.2	90
338	2023-02-01T20:08:42	6.2	91
339	2023-02-01T20:18:42	6.3	90.5
340	2023-02-01T20:28:42	6.3	90.5
341	2023-02-01T20:38:42	6.3	90.5
342	2023-02-01T20:48:42	6.3	91
343	2023-02-01T20:58:42	6.3	89
344	2023-02-01T21:08:41	6.3	78
345	2023-02-01T21:18:42	6.2	77
346	2023-02-01T21:28:41	6.4	76.5
347	2023-02-01T21:38:41	6.3	79
348	2023-02-01T21:49:01	6	87
349	2023-02-01T21:58:41	5.8	85
350	2023-02-01T22:08:41	5.9	83
351	2023-02-01T22:18:41	6	80.5
352	2023-02-01T22:28:41	6.1	81.5
353	2023-02-01T22:38:41	5.2	97
354	2023-02-01T22:48:41	5.1	97
355	2023-02-01T22:58:41	5.1	97
356	2023-02-01T23:08:41	5.1	96
357	2023-02-01T23:18:41	5.1	94
358	2023-02-01T23:28:41	5.2	91.5
359	2023-02-01T23:38:41	5.2	90
360	2023-02-01T23:48:41	5.4	88
361	2023-02-01T23:58:41	5.3	92.5
362	2023-02-02T00:08:41	5	97.5
363	2023-02-02T00:18:41	5	98
364	2023-02-02T00:28:42	5	99
365	2023-02-02T00:38:41	5	99
366	2023-02-02T00:48:41	5	99.5
367	2023-02-02T00:58:41	5	99.5
368	2023-02-02T01:08:41	5	99.5
369	2023-02-02T01:18:41	5.1	99
370	2023-02-02T01:28:41	5.1	99
371	2023-02-02T01:38:41	5.1	99
372	2023-02-02T01:48:41	5.3	98.5
373	2023-02-02T01:58:41	5.3	98
374	2023-02-02T02:08:41	5.3	98
375	2023-02-02T02:18:41	5.4	97
376	2023-02-02T02:28:41	5.4	97
377	2023-02-02T02:38:41	5.4	96
378	2023-02-02T02:48:41	5.5	97
379	2023-02-02T02:58:41	5.6	96.5
380	2023-02-02T03:08:41	5.5	96
381	2023-02-02T03:18:41	5.5	95.5
382	2023-02-02T03:28:41	5.5	95
383	2023-02-02T03:38:41	5.6	95.5
384	2023-02-02T03:48:41	5.7	95
385	2023-02-02T03:58:41	5.6	95.5
386	2023-02-02T04:08:41	5.7	95
387	2023-02-02T04:18:41	5.7	95
388	2023-02-02T04:28:41	5.6	95
389	2023-02-02T04:38:41	5.7	95.5
390	2023-02-02T04:48:41	5.5	95.5
391	2023-02-02T04:58:41	5.6	95.5
392	2023-02-02T05:08:41	5.6	95
393	2023-02-02T05:18:41	5.6	95.5
394	2023-02-02T05:28:41	5.6	95
395	2023-02-02T05:38:41	5.6	94.5
396	2023-02-02T05:48:41	5.7	95
397	2023-02-02T05:58:41	5.6	95
398	2023-02-02T06:08:41	5.6	95
399	2023-02-02T06:18:41	5.6	94.5
400	2023-02-02T06:28:41	5.7	93
401	2023-02-02T06:38:41	5.6	89
402	2023-02-02T06:48:41	5.6	88.5
403	2023-02-02T06:58:41	5.7	88.5
404	2023-02-02T07:08:41	5.8	87.5
405	2023-02-02T07:18:41	5.9	87
406	2023-02-02T07:28:41	6	86.5
407	2023-02-02T07:38:41	6.1	85.5
408	2023-02-02T07:48:41	6.2	85
409	2023-02-02T07:58:41	6.3	84.5
410	2023-02-02T08:08:41	6.3	84.5
411	2023-02-02T08:18:41	6.3	84
412	2023-02-02T08:28:41	6.2	84
413	2023-02-02T08:38:41	6.3	84
414	2023-02-02T08:48:41	6.2	83.5
415	2023-02-02T08:58:41	6.3	83
416	2023-02-02T09:08:41	6.3	83.5
417	2023-02-02T09:18:41	6.3	83
418	2023-02-02T09:28:41	6.4	83
419	2023-02-02T09:38:41	6.5	83
420	2023-02-02T09:48:41	6.6	83
421	2023-02-02T09:58:41	6.6	83
422	2023-02-02T10:08:41	6.8	82.5
423	2023-02-02T10:18:41	7.2	82
424	2023-02-02T10:28:41	7.2	81.5
425	2023-02-02T10:38:41	7.3	81
426	2023-02-02T10:48:41	7.7	80.5
427	2023-02-02T10:58:41	8	79.5
428	2023-02-02T11:08:41	7.8	80
429	2023-02-02T11:18:41	7.9	80
430	2023-02-02T11:28:41	8	79.5
431	2023-02-02T11:38:41	8	78.5
432	2023-02-02T11:48:41	7.9	78.5
433	2023-02-02T11:58:41	8	79
434	2023-02-02T12:08:41	7.9	79
435	2023-02-02T12:18:41	7.9	79
436	2023-02-02T12:28:41	7.9	79
437	2023-02-02T12:38:41	7.9	78.5
438	2023-02-02T12:48:41	7.9	78
439	2023-02-02T12:58:41	7.9	78.5
440	2023-02-02T13:08:41	8	78
441	2023-02-02T13:18:41	7.9	78
442	2023-02-02T13:28:41	8	77.5
443	2023-02-02T13:38:41	7.8	77.5
444	2023-02-02T13:48:41	7.8	77
445	2023-02-02T13:58:41	7.9	77
446	2023-02-02T14:08:41	7.9	76.5
447	2023-02-02T14:18:41	7.8	76
448	2023-02-02T14:28:41	8	76
449	2023-02-02T14:38:41	8	75.5
450	2023-02-02T14:48:41	8	75.5
451	2023-02-02T14:58:41	8	75
452	2023-02-02T15:08:41	8	75
453	2023-02-02T15:18:41	8	75
454	2023-02-02T15:28:41	8	75.5
455	2023-02-02T15:38:41	7.9	75.5
456	2023-02-02T15:48:41	7.9	76
457	2023-02-02T15:58:41	7.9	77
458	2023-02-02T16:08:41	7.8	77.5
459	2023-02-02T16:18:41	7.7	78
460	2023-02-02T16:28:41	7.7	78
461	2023-02-02T16:38:41	7.7	77.5
462	2023-02-02T16:48:41	7.7	77.5
463	2023-02-02T16:58:41	7.7	77.5
464	2023-02-02T17:08:41	7.7	77.5
465	2023-02-02T17:18:41	7.6	76.5
466	2023-02-02T17:28:41	7.5	76
467	2023-02-02T17:38:41	7.7	76
468	2023-02-02T17:48:41	7.6	77
469	2023-02-02T17:58:41	7.6	77
470	2023-02-02T18:08:41	7.5	77.5
471	2023-02-02T18:18:41	7.5	77
472	2023-02-02T18:28:41	7.6	77
473	2023-02-02T18:38:41	7.5	77
474	2023-02-02T18:48:41	7.5	78
475	2023-02-02T18:58:41	7.5	78.5
476	2023-02-02T19:08:41	7.4	79
477	2023-02-02T19:18:41	7.5	78.5
478	2023-02-02T19:28:41	7.4	78.5
479	2023-02-02T19:38:41	7.4	78.5
480	2023-02-02T19:48:40	7.4	78.5
481	2023-02-02T19:58:40	7.3	78
482	2023-02-02T20:08:40	7.3	78
483	2023-02-02T20:18:40	7.4	77.5
484	2023-02-02T20:28:40	7.3	77.5
485	2023-02-02T20:38:40	7.3	77.5
486	2023-02-02T20:48:40	7.3	77.5
487	2023-02-02T20:58:40	7.2	77.5
488	2023-02-02T21:08:40	7.2	77.5
489	2023-02-02T21:18:40	7.3	78
490	2023-02-02T21:28:40	7.2	84.5
491	2023-02-02T21:38:40	6.8	88.5
492	2023-02-02T21:48:40	6.8	87
493	2023-02-02T21:58:40	6.8	82.5
494	2023-02-02T22:08:40	7.1	81
495	2023-02-02T22:18:40	6.9	84
496	2023-02-02T22:28:40	6.7	92
497	2023-02-02T22:38:40	6.3	95.5
498	2023-02-02T22:48:40	6.2	96
499	2023-02-02T22:58:40	6.3	95.5
500	2023-02-02T23:08:40	6.3	94
501	2023-02-02T23:18:40	6.4	91
502	2023-02-02T23:28:40	6.5	86.5
503	2023-02-02T23:38:40	6.8	85.5
504	2023-02-02T23:48:40	6.9	83
505	2023-02-02T23:58:40	7	82
506	2023-02-03T00:08:40	7.1	81.5
507	2023-02-03T00:18:40	7.1	81
508	2023-02-03T00:28:40	7	81.5
509	2023-02-03T00:38:40	7	81.5
510	2023-02-03T00:48:40	7	81.5
511	2023-02-03T00:58:40	7.1	81
512	2023-02-03T01:08:40	7.1	81
513	2023-02-03T01:18:40	7	80.5
514	2023-02-03T01:28:40	6.9	82.5
515	2023-02-03T01:38:40	6.7	90
516	2023-02-03T01:48:40	6.6	89
517	2023-02-03T01:58:40	6.5	88
518	2023-02-03T02:08:40	6	96
519	2023-02-03T02:18:40	5.8	97.5
520	2023-02-03T02:28:41	5.7	98
521	2023-02-03T02:38:40	5.8	98.5
522	2023-02-03T02:48:40	5.9	98
523	2023-02-03T02:58:40	6	97.5
524	2023-02-03T03:08:40	6.1	97
525	2023-02-03T03:18:40	6.2	96
526	2023-02-03T03:28:40	6.3	92
527	2023-02-03T03:38:40	6.3	91.5
528	2023-02-03T03:48:40	6.3	91.5
529	2023-02-03T03:58:41	6.4	89.5
530	2023-02-03T04:08:40	6.4	85.5
531	2023-02-03T04:18:40	6.7	86
532	2023-02-03T04:28:40	6.4	89
533	2023-02-03T04:38:40	6.1	91.5
534	2023-02-03T04:48:40	6.1	90.5
535	2023-02-03T04:58:40	6.2	87.5
536	2023-02-03T05:08:40	6.3	85.5
537	2023-02-03T05:18:40	6.6	84
538	2023-02-03T05:28:40	6.7	84
539	2023-02-03T05:38:40	6.6	83.5
540	2023-02-03T05:48:40	6.8	83
541	2023-02-03T05:58:40	6.8	82.5
542	2023-02-03T06:08:40	6.7	82.5
543	2023-02-03T06:18:40	6.6	86.5
544	2023-02-03T06:28:40	6.3	90
545	2023-02-03T06:38:40	6.2	88.5
546	2023-02-03T06:48:40	6.2	88
547	2023-02-03T06:58:40	6.3	87.5
548	2023-02-03T07:08:40	6	90.5
549	2023-02-03T07:18:40	6.1	88.5
550	2023-02-03T07:28:40	6	93
551	2023-02-03T07:38:40	6	97
552	2023-02-03T07:48:40	6.1	97
553	2023-02-03T07:58:40	6.5	95.5
554	2023-02-03T08:08:40	6.6	94.5
555	2023-02-03T08:18:40	6.8	89.5
556	2023-02-03T08:28:40	6.8	87.5
557	2023-02-03T08:38:40	6.9	87.5
558	2023-02-03T08:48:40	6.9	86.5
559	2023-02-03T08:58:40	7	88.5
560	2023-02-03T09:08:40	7	84.5
561	2023-02-03T09:18:40	7.1	85
562	2023-02-03T09:28:40	7.3	85
563	2023-02-03T09:38:40	6.8	96
564	2023-02-03T09:48:59	6.6	97.5
565	2023-02-03T09:58:40	6.7	98
566	2023-02-03T10:08:40	6.8	97
567	2023-02-03T10:18:40	6.7	97
568	2023-02-03T10:28:40	6.9	97
569	2023-02-03T10:38:40	7	96.5
570	2023-02-03T10:48:40	7.1	95.5
571	2023-02-03T10:58:40	7.3	94.5
572	2023-02-03T11:08:40	7.1	96
573	2023-02-03T11:18:40	7	96.5
574	2023-02-03T11:28:40	7.1	95
575	2023-02-03T11:38:40	7.5	94.5
576	2023-02-03T11:48:40	7.4	94
577	2023-02-03T11:58:40	7.8	92
578	2023-02-03T12:08:40	7.9	89
579	2023-02-03T12:18:40	8.1	81.5
580	2023-02-03T12:28:40	8.2	80.5
581	2023-02-03T12:38:40	8.2	80
582	2023-02-03T12:48:40	8.4	80
583	2023-02-03T12:58:40	8.6	78
584	2023-02-03T13:08:40	8.8	76.5
585	2023-02-03T13:18:40	9.1	76
586	2023-02-03T13:28:40	9	77.5
587	2023-02-03T13:38:40	9	76.5
588	2023-02-03T13:48:40	9	76.5
589	2023-02-03T13:58:40	8.9	77
590	2023-02-03T14:08:40	9	80
591	2023-02-03T14:18:40	8.9	77.5
592	2023-02-03T14:28:40	8.9	77.5
593	2023-02-03T14:38:40	8.9	78
594	2023-02-03T14:48:40	8.8	78.5
595	2023-02-03T14:58:40	8.9	78.5
596	2023-02-03T15:08:40	8.8	78
597	2023-02-03T15:18:40	8.8	77.5
598	2023-02-03T15:28:40	8.8	77.5
599	2023-02-03T15:38:40	8.8	78
600	2023-02-03T15:48:40	8.6	78.5
601	2023-02-03T15:58:40	8.7	79
602	2023-02-03T16:08:40	8.7	79.5
603	2023-02-03T16:18:40	8.6	79.5
604	2023-02-03T16:28:40	8.5	80
605	2023-02-03T16:38:40	8.6	80.5
606	2023-02-03T16:48:39	8.5	80.5
607	2023-02-03T16:58:40	8.4	81.5
608	2023-02-03T17:08:39	8.5	81.5
609	2023-02-03T17:18:39	8.4	82
610	2023-02-03T17:28:39	8.5	82
611	2023-02-03T17:38:39	8.5	81.5
612	2023-02-03T17:48:39	8.4	83.5
613	2023-02-03T17:58:39	8.4	82
614	2023-02-03T18:08:39	8.4	84
615	2023-02-03T18:18:39	8.5	83
616	2023-02-03T18:28:39	8.4	84.5
617	2023-02-03T18:38:39	8.4	83.5
618	2023-02-03T18:48:40	8.4	83
619	2023-02-03T18:58:39	8.4	83
620	2023-02-03T19:08:39	8.3	83
621	2023-02-03T19:18:39	8.4	84.5
622	2023-02-03T19:28:39	8.5	83
623	2023-02-03T19:38:39	8.3	87.5
624	2023-02-03T19:48:40	8.1	90.5
625	2023-02-03T19:58:39	7.8	96
626	2023-02-03T20:08:39	7.5	97.5
627	2023-02-03T20:18:39	7.4	98.5
628	2023-02-03T20:28:39	7.4	99
629	2023-02-03T20:38:39	7.3	99
630	2023-02-03T20:48:39	7.3	99.5
631	2023-02-03T20:58:39	7.3	99.5
632	2023-02-03T21:08:39	7.3	99.5
633	2023-02-03T21:18:39	7.2	100
634	2023-02-03T21:28:39	7.1	100
635	2023-02-03T21:38:39	7.1	100
636	2023-02-03T21:48:39	7.1	100
637	2023-02-03T21:58:39	7	100
638	2023-02-03T22:08:39	7	100
639	2023-02-03T22:18:39	7.1	100
640	2023-02-03T22:28:39	7	100
641	2023-02-03T22:38:39	7.1	100
642	2023-02-03T22:48:39	7.1	100
643	2023-02-03T22:58:39	7.2	100
644	2023-02-03T23:08:39	7.2	100
645	2023-02-03T23:18:39	7.2	100
646	2023-02-03T23:28:39	7.2	100
647	2023-02-03T23:38:39	7.2	100
648	2023-02-03T23:48:39	7.2	100
649	2023-02-03T23:58:39	7.3	100
650	2023-02-04T00:08:39	7.2	100
651	2023-02-04T00:18:39	7.1	100
652	2023-02-04T00:28:39	7.1	100
653	2023-02-04T00:38:39	7.2	100
654	2023-02-04T00:48:39	7.2	100
655	2023-02-04T00:58:39	7.2	100
656	2023-02-04T01:08:39	7.1	100
657	2023-02-04T01:18:39	7.1	100
658	2023-02-04T01:28:39	7.1	100
659	2023-02-04T01:38:39	7.1	100
660	2023-02-04T01:48:39	7.1	100
661	2023-02-04T01:58:39	7.1	100
662	2023-02-04T02:08:39	7	100
663	2023-02-04T02:18:39	7	100
664	2023-02-04T02:28:39	7.1	100
665	2023-02-04T02:38:39	7.2	100
666	2023-02-04T02:48:39	7.1	100
667	2023-02-04T02:58:39	7.2	100
668	2023-02-04T03:08:39	7.2	100
669	2023-02-04T03:18:39	7.2	100
670	2023-02-04T03:28:39	7.4	100
671	2023-02-04T03:38:39	7.3	100
672	2023-02-04T03:48:39	7.4	100
673	2023-02-04T03:58:39	7.5	100
674	2023-02-04T04:08:39	7.4	100
675	2023-02-04T04:18:39	7.3	100
676	2023-02-04T04:28:39	7.2	100
677	2023-02-04T04:38:39	7.3	100
678	2023-02-04T04:48:39	7.2	100
679	2023-02-04T04:58:39	7.1	100
680	2023-02-04T05:08:39	7	100
681	2023-02-04T05:18:39	7.1	100
682	2023-02-04T05:28:39	6.9	100
683	2023-02-04T05:38:39	6.8	100
684	2023-02-04T05:48:39	6.7	100
685	2023-02-04T05:58:39	6.8	100
686	2023-02-04T06:08:39	6.5	100
687	2023-02-04T06:18:39	6.7	100
688	2023-02-04T06:28:39	6.5	100
689	2023-02-04T06:38:39	6.5	100
690	2023-02-04T06:48:39	6.6	100
691	2023-02-04T06:58:39	6.7	100
692	2023-02-04T07:08:39	6.6	100
693	2023-02-04T07:18:39	6.7	100
694	2023-02-04T07:28:39	6.5	100
695	2023-02-04T07:38:39	6.5	100
696	2023-02-04T07:48:39	6.6	100
697	2023-02-04T07:58:39	6.6	100
698	2023-02-04T08:08:39	6.9	100
699	2023-02-04T08:18:39	6.9	100
700	2023-02-04T08:28:39	7.1	100
701	2023-02-04T08:38:39	7.4	100
702	2023-02-04T08:48:39	7.7	100
703	2023-02-04T08:58:39	7.8	100
704	2023-02-04T09:08:39	7.9	100
705	2023-02-04T09:18:39	8	100
706	2023-02-04T09:28:39	8.6	100
707	2023-02-04T09:38:39	8.4	100
708	2023-02-04T09:48:39	8.4	100
709	2023-02-04T09:58:39	8.9	100
710	2023-02-04T10:08:39	8.9	100
711	2023-02-04T10:18:39	9.1	100
712	2023-02-04T10:28:39	9.3	100
713	2023-02-04T10:38:39	8.8	100
714	2023-02-04T10:48:39	8.7	100
715	2023-02-04T10:58:39	8.9	100
716	2023-02-04T11:08:39	9	100
717	2023-02-04T11:18:39	8.6	100
718	2023-02-04T11:28:39	8.8	100
719	2023-02-04T11:38:39	9.4	100
720	2023-02-04T11:48:39	10.3	100
721	2023-02-04T11:58:39	11.2	100
722	2023-02-04T12:08:39	16.5	100
723	2023-02-04T12:18:39	12.8	100
724	2023-02-04T12:28:39	18.1	100
725	2023-02-04T12:38:39	17.5	99.5
726	2023-02-04T12:48:39	18.5	97.5
727	2023-02-04T12:58:38	20.7	97.5
728	2023-02-04T13:08:38	18.5	87
729	2023-02-04T13:18:38	14.1	59
730	2023-02-04T13:28:38	13.4	62.5
731	2023-02-04T13:38:38	15.4	52.5
732	2023-02-04T13:48:38	14.4	49
733	2023-02-04T13:58:38	12.3	60.5
734	2023-02-04T14:08:38	16.6	46
735	2023-02-04T14:18:38	17.6	39.5
736	2023-02-04T14:28:38	21	43
737	2023-02-04T14:38:38	16.9	38
738	2023-02-04T14:48:38	13.6	43.5
739	2023-02-04T14:58:38	12.1	48.5
740	2023-02-04T15:08:38	11.3	54.5
741	2023-02-04T15:18:38	10.6	59
742	2023-02-04T15:28:38	11.8	65.5
743	2023-02-04T15:38:38	11.9	62.5
744	2023-02-04T15:48:38	11.4	70
745	2023-02-04T15:58:38	10.9	66.5
746	2023-02-04T16:08:38	9.9	68.5
747	2023-02-04T16:18:38	9.2	73.5
748	2023-02-04T16:28:38	8	68
749	2023-02-04T16:38:38	7.4	74.5
750	2023-02-04T16:48:38	7	74
751	2023-02-04T16:58:38	6.6	75.5
752	2023-02-04T17:08:38	6	78
753	2023-02-04T17:18:38	5.7	79
754	2023-02-04T17:28:38	5.6	79.5
755	2023-02-04T17:38:38	5.2	80
756	2023-02-04T17:48:38	4.9	81.5
757	2023-02-04T17:58:38	4.7	84
758	2023-02-04T18:08:38	4.7	84
759	2023-02-04T18:18:38	4.7	86.5
760	2023-02-04T18:28:38	4.9	82
761	2023-02-04T18:38:38	5.1	81.5
762	2023-02-04T18:48:38	4.8	83.5
763	2023-02-04T18:58:38	4.7	85
764	2023-02-04T19:08:38	4.7	83.5
765	2023-02-04T19:18:38	4.6	84.5
766	2023-02-04T19:28:38	4.3	86
767	2023-02-04T19:38:38	4.2	87.5
768	2023-02-04T19:48:38	4.2	86.5
769	2023-02-04T19:58:38	4.5	87.5
770	2023-02-04T20:08:38	4.6	85
771	2023-02-04T20:18:38	4.5	84
772	2023-02-04T20:28:38	4.1	86
773	2023-02-04T20:38:38	3.8	86.5
774	2023-02-04T20:48:38	3.9	90
775	2023-02-04T20:58:38	4	86.5
776	2023-02-04T21:08:38	4.2	88
777	2023-02-04T21:18:38	4.5	86
778	2023-02-04T21:28:38	4.2	85
779	2023-02-04T21:38:38	4.3	85.5
780	2023-02-04T21:48:38	4.4	85.5
781	2023-02-04T21:58:38	4.2	86
782	2023-02-04T22:08:38	3.8	87.5
783	2023-02-04T22:18:38	3.8	90.5
784	2023-02-04T22:28:38	3.7	89
785	2023-02-04T22:38:38	3.6	87.5
786	2023-02-04T22:48:38	3.2	88.5
787	2023-02-04T22:58:38	3	90
788	2023-02-04T23:08:38	3	91
789	2023-02-04T23:18:38	3.1	89
790	2023-02-04T23:28:38	3.3	88.5
791	2023-02-04T23:38:38	3.4	90.5
792	2023-02-04T23:48:38	3.4	88
793	2023-02-04T23:58:38	3.4	88
794	2023-02-05T00:08:38	3.5	88.5
795	2023-02-05T00:18:38	3.5	86.5
796	2023-02-05T00:28:38	3.6	87.5
797	2023-02-05T00:38:38	3.9	90
798	2023-02-05T00:48:38	3.9	89.5
799	2023-02-05T00:58:38	3.7	87
800	2023-02-05T01:08:38	3.8	87
801	2023-02-05T01:18:38	3.7	87
802	2023-02-05T01:28:38	3.7	87
803	2023-02-05T01:38:38	3.5	87.5
804	2023-02-05T01:48:38	3.2	89
805	2023-02-05T01:58:38	3.1	89.5
806	2023-02-05T02:08:38	3.2	88.5
807	2023-02-05T02:18:38	3.2	88
808	2023-02-05T02:28:38	3	91.5
809	2023-02-05T02:38:38	3.2	89.5
810	2023-02-05T02:48:38	3.1	88.5
811	2023-02-05T02:58:38	3.2	88.5
812	2023-02-05T03:08:38	3.4	88.5
813	2023-02-05T03:18:38	3.5	88
814	2023-02-05T03:28:38	3.7	88.5
815	2023-02-05T03:38:38	3.7	89.5
816	2023-02-05T03:48:38	3.6	87.5
817	2023-02-05T03:58:38	3.9	90
818	2023-02-05T04:08:38	3.7	88
819	2023-02-05T04:18:38	3.8	88.5
820	2023-02-05T04:28:38	4	90.5
821	2023-02-05T04:38:38	3.9	90
822	2023-02-05T04:48:38	3.9	88
823	2023-02-05T04:58:38	4.1	88.5
824	2023-02-05T05:08:38	4.3	90.5
825	2023-02-05T05:18:38	4.2	90
826	2023-02-05T05:28:38	4.1	89
827	2023-02-05T05:38:38	4.1	88.5
828	2023-02-05T05:48:38	4.1	87
829	2023-02-05T05:58:38	4.1	87.5
830	2023-02-05T06:08:38	4.2	87
831	2023-02-05T06:18:38	4.4	89
832	2023-02-05T06:28:38	4.3	87
833	2023-02-05T06:38:38	4.2	90
834	2023-02-05T06:48:38	4.2	89
835	2023-02-05T06:58:38	4.2	90.5
836	2023-02-05T07:08:38	4.3	90
837	2023-02-05T07:18:38	4.1	94
838	2023-02-05T07:28:38	3.9	97
839	2023-02-05T07:38:38	3.8	97.5
840	2023-02-05T07:48:38	3.9	98
841	2023-02-05T07:58:38	4.2	98
842	2023-02-05T08:08:38	4.1	98
843	2023-02-05T08:18:38	4.1	98
844	2023-02-05T08:28:38	4.2	98.5
845	2023-02-05T08:38:38	4.3	99
846	2023-02-05T08:48:38	4.4	99
847	2023-02-05T08:58:38	4.5	99.5
848	2023-02-05T09:08:38	4.7	99
849	2023-02-05T09:18:38	4.7	99.5
850	2023-02-05T09:28:38	4.7	99
851	2023-02-05T09:38:38	4.7	99
852	2023-02-05T09:48:38	4.8	99
853	2023-02-05T09:58:38	4.7	98.5
854	2023-02-05T10:08:38	4.9	98.5
855	2023-02-05T10:18:38	4.9	98.5
856	2023-02-05T10:28:38	4.8	98.5
857	2023-02-05T10:38:38	4.8	98.5
858	2023-02-05T10:48:38	4.6	99.5
859	2023-02-05T10:58:38	4.6	100
860	2023-02-05T11:08:38	4.6	100
861	2023-02-05T11:18:38	4.5	100
862	2023-02-05T11:28:38	4.5	100
863	2023-02-05T11:38:38	4.4	100
864	2023-02-05T11:48:38	4.6	100
865	2023-02-05T11:58:38	4.6	100
866	2023-02-05T12:08:38	4.6	100
867	2023-02-05T12:18:38	4.6	100
868	2023-02-05T12:28:38	4.8	100
869	2023-02-05T12:38:38	4.7	100
870	2023-02-05T12:48:38	4.7	100
871	2023-02-05T12:58:38	4.8	100
872	2023-02-05T13:08:38	5.1	100
873	2023-02-05T13:18:38	5.1	100
874	2023-02-05T13:28:38	5.2	100
875	2023-02-05T13:38:38	5.3	100
876	2023-02-05T13:48:38	5.4	100
877	2023-02-05T13:58:38	5.4	100
878	2023-02-05T14:08:38	5.4	100
879	2023-02-05T14:18:38	5.4	100
880	2023-02-05T14:28:38	5.8	100
881	2023-02-05T14:38:38	5.6	100
882	2023-02-05T14:48:38	5.6	100
883	2023-02-05T14:58:37	5.6	100
884	2023-02-05T15:08:37	5.6	100
885	2023-02-05T15:18:37	5.6	100
886	2023-02-05T15:28:37	5.8	100
887	2023-02-05T15:38:37	5.7	100
888	2023-02-05T15:48:37	5.7	100
889	2023-02-05T15:58:37	5.8	100
890	2023-02-05T16:08:37	5.8	100
891	2023-02-05T16:18:37	5.6	100
892	2023-02-05T16:28:37	5.6	100
893	2023-02-05T16:38:37	5.7	100
894	2023-02-05T16:48:37	5.7	100
895	2023-02-05T16:58:37	5.6	100
896	2023-02-05T17:08:37	5.5	100
897	2023-02-05T17:18:37	5.6	100
898	2023-02-05T17:28:37	5.6	100
899	2023-02-05T17:38:37	5.5	100
900	2023-02-05T17:48:37	5.6	100
901	2023-02-05T17:58:37	5.6	100
902	2023-02-05T18:08:37	5.7	100
903	2023-02-05T18:18:37	5.5	100
904	2023-02-05T18:28:37	5.5	100
905	2023-02-05T18:38:37	5.6	100
906	2023-02-05T18:48:37	5.4	100
907	2023-02-05T18:58:37	5.4	100
908	2023-02-05T19:08:37	5.4	100
909	2023-02-05T19:18:37	5.3	100
910	2023-02-05T19:28:37	5.3	100
911	2023-02-05T19:38:37	5.2	100
912	2023-02-05T19:48:37	5.1	100
913	2023-02-05T19:58:37	5.1	100
914	2023-02-05T20:08:37	5.2	100
915	2023-02-05T20:18:37	5.1	100
916	2023-02-05T20:28:37	5.2	100
917	2023-02-05T20:38:37	5.1	100
918	2023-02-05T20:48:37	5.1	100
919	2023-02-05T20:58:37	5.1	100
920	2023-02-05T21:08:37	5.1	100
921	2023-02-05T21:18:37	5.1	100
922	2023-02-05T21:28:37	5	100
923	2023-02-05T21:38:37	5	100
924	2023-02-05T21:48:37	4.8	100
925	2023-02-05T21:58:37	4.7	100
926	2023-02-05T22:08:37	4.4	100
927	2023-02-05T22:18:37	4.4	100
928	2023-02-05T22:28:37	4.2	100
929	2023-02-05T22:38:37	4.2	100
930	2023-02-05T22:48:37	4.2	100
931	2023-02-05T22:58:37	4.1	100
932	2023-02-05T23:08:37	3.9	100
933	2023-02-05T23:18:37	4	100
934	2023-02-05T23:28:37	3.9	100
935	2023-02-05T23:38:37	3.9	100
936	2023-02-05T23:48:37	3.8	100
937	2023-02-05T23:58:37	3.8	100
938	2023-02-06T00:08:37	3.6	100
939	2023-02-06T00:18:37	3.7	100
940	2023-02-06T00:28:37	3.6	100
941	2023-02-06T00:38:37	3.6	100
942	2023-02-06T00:48:37	3.5	100
943	2023-02-06T00:58:37	3.4	100
944	2023-02-06T01:08:37	3.4	100
945	2023-02-06T01:18:37	3.4	100
946	2023-02-06T01:28:37	3.1	100
947	2023-02-06T01:38:37	2.7	100
948	2023-02-06T01:48:37	2.5	100
949	2023-02-06T01:58:37	2.6	100
950	2023-02-06T02:08:37	2.8	100
951	2023-02-06T02:18:37	2.8	100
952	2023-02-06T02:28:37	2.9	100
953	2023-02-06T02:38:37	2.9	100
954	2023-02-06T02:48:37	2.9	100
955	2023-02-06T02:58:37	3	100
956	2023-02-06T03:08:37	3.2	100
957	2023-02-06T03:18:37	3.1	100
958	2023-02-06T03:28:37	3.3	100
959	2023-02-06T03:38:37	3.4	100
960	2023-02-06T03:48:37	3.3	100
961	2023-02-06T03:58:37	3.3	100
962	2023-02-06T04:08:37	3.2	100
963	2023-02-06T04:18:37	3.2	100
964	2023-02-06T04:28:37	3.3	100
965	2023-02-06T04:38:37	3.3	100
966	2023-02-06T04:48:37	3.3	100
967	2023-02-06T04:58:37	3.3	100
968	2023-02-06T05:08:37	3.2	100
969	2023-02-06T05:18:37	3.3	100
970	2023-02-06T05:28:37	3.3	100
971	2023-02-06T05:38:37	3.3	100
972	2023-02-06T05:48:37	3.2	100
973	2023-02-06T05:58:37	3.2	100
974	2023-02-06T06:08:37	3.1	100
975	2023-02-06T06:18:37	3.1	100
976	2023-02-06T06:28:37	3.2	100
977	2023-02-06T06:38:37	3.1	100
978	2023-02-06T06:48:37	3.2	100
979	2023-02-06T06:58:37	3.2	100
980	2023-02-06T07:08:37	3	100
981	2023-02-06T07:18:37	3	100
982	2023-02-06T07:28:37	3.1	100
983	2023-02-06T07:38:37	3.1	100
984	2023-02-06T07:48:37	3.2	100
985	2023-02-06T07:58:37	3.2	100
986	2023-02-06T08:08:37	3.1	100
987	2023-02-06T08:18:37	3.1	100
988	2023-02-06T08:28:37	3.4	100
989	2023-02-06T08:38:37	3.8	100
990	2023-02-06T08:48:37	3.9	100
991	2023-02-06T08:58:37	4	100
992	2023-02-06T09:08:37	4	100
993	2023-02-06T09:18:37	3.6	100
994	2023-02-06T09:28:37	3.4	100
995	2023-02-06T09:38:37	3.4	100
996	2023-02-06T09:48:37	3.6	100
997	2023-02-06T09:58:37	4	100
998	2023-02-06T10:08:37	4.7	100
999	2023-02-06T10:18:37	5.1	100
1000	2023-02-06T10:28:37	5.5	100
1001	2023-02-06T10:38:37	5.4	100
1002	2023-02-06T10:48:37	5.5	100
1003	2023-02-06T10:58:37	5.3	100
1004	2023-02-06T11:08:37	5.2	100
1005	2023-02-06T11:18:37	5.1	100
1006	2023-02-06T11:28:54	5.1	100
1007	2023-02-06T11:38:37	5.2	100
1008	2023-02-06T11:48:37	5.5	100
1009	2023-02-06T11:58:37	5.4	100
1010	2023-02-06T12:08:37	5.5	100
1011	2023-02-06T12:18:37	5.4	100
1012	2023-02-06T12:28:37	5.2	100
1013	2023-02-06T12:38:37	5.4	100
1014	2023-02-06T12:48:37	5.3	100
1015	2023-02-06T12:58:37	5.4	100
1016	2023-02-06T13:08:37	5.8	100
1017	2023-02-06T13:18:37	6	100
1018	2023-02-06T13:28:37	6.2	100
1019	2023-02-06T13:38:37	6.5	100
1020	2023-02-06T13:48:37	7.9	100
1021	2023-02-06T13:58:37	6.8	100
1022	2023-02-06T14:08:37	6.6	100
1023	2023-02-06T14:18:37	6.6	100
1024	2023-02-06T14:28:37	9.5	100
1025	2023-02-06T14:38:37	7.2	100
1026	2023-02-06T14:48:37	6.6	100
1027	2023-02-06T14:58:37	6.3	100
1028	2023-02-06T15:08:37	6.3	100
1029	2023-02-06T15:18:37	6.2	100
1030	2023-02-06T15:28:37	5.9	100
1031	2023-02-06T15:38:37	6	100
1032	2023-02-06T15:48:37	5.5	99.5
1033	2023-02-06T15:58:37	5	100
1034	2023-02-06T16:08:37	4.7	99.5
1035	2023-02-06T16:18:37	4.6	99
1036	2023-02-06T16:28:37	4.6	99.5
1037	2023-02-06T16:38:37	4.1	99.5
1038	2023-02-06T16:48:37	3.7	99.5
1039	2023-02-06T16:58:37	3.5	99.5
1040	2023-02-06T17:08:37	3.7	100
1041	2023-02-06T17:18:37	3.8	100
1042	2023-02-06T17:28:37	3.9	100
1043	2023-02-06T17:38:37	3.9	100
1044	2023-02-06T17:48:37	4	100
1045	2023-02-06T17:58:37	3.9	100
1046	2023-02-06T18:08:37	3.8	99.5
1047	2023-02-06T18:18:37	3.3	100
1048	2023-02-06T18:28:37	3.3	100
1049	2023-02-06T18:38:37	3.4	100
1050	2023-02-06T18:48:37	3.4	100
1051	2023-02-06T18:58:37	3.5	100
1052	2023-02-06T19:08:37	3.6	99
1053	2023-02-06T19:18:37	3.5	94
1054	2023-02-06T19:28:37	3.5	88
1055	2023-02-06T19:38:37	3.5	87
1056	2023-02-06T19:48:37	3.6	87.5
1057	2023-02-06T19:58:37	3.5	85.5
1058	2023-02-06T20:08:37	3.5	85.5
1059	2023-02-06T20:18:37	3.5	83.5
1060	2023-02-06T20:28:37	3.7	84.5
1061	2023-02-06T20:38:37	3.5	83
1062	2023-02-06T20:48:37	3.4	85
1063	2023-02-06T20:58:37	3.5	85.5
1064	2023-02-06T21:08:37	3.4	81
1065	2023-02-06T21:18:37	2.6	82.5
1066	2023-02-06T21:28:37	3	82.5
1067	2023-02-06T21:38:37	2.9	83
1068	2023-02-06T21:48:37	2.9	82.5
1069	2023-02-06T21:58:37	2.8	82.5
1070	2023-02-06T22:08:37	2.9	82
1071	2023-02-06T22:18:37	3	80.5
1072	2023-02-06T22:28:37	3	82
1073	2023-02-06T22:38:37	2.3	83
1074	2023-02-06T22:48:37	2	85
1075	2023-02-06T22:58:37	1.4	87.5
1076	2023-02-06T23:08:37	1.2	88.5
1077	2023-02-06T23:18:37	1.1	88.5
1078	2023-02-06T23:28:37	1.2	89.5
1079	2023-02-06T23:38:37	1.1	89
1080	2023-02-06T23:48:37	1	90.5
1081	2023-02-06T23:58:37	0.8	90
1082	2023-02-07T00:08:37	0.5	89.5
1083	2023-02-07T00:18:37	0.4	92.5
1084	2023-02-07T00:28:37	0.3	92.5
1085	2023-02-07T00:38:37	0.3	92
1086	2023-02-07T00:48:37	0.3	92.5
1087	2023-02-07T00:58:37	0.2	93
1088	2023-02-07T01:08:37	0.3	92
1089	2023-02-07T01:18:37	0	92.5
1090	2023-02-07T01:28:37	0	91.5
1091	2023-02-07T01:38:37	-0.1	89
1092	2023-02-07T01:48:37	0	86.5
1093	2023-02-07T01:58:36	0	86.5
1094	2023-02-07T02:08:37	-0.2	84.5
1095	2023-02-07T02:18:36	-0.2	85
1096	2023-02-07T02:28:37	-0.4	84.5
1097	2023-02-07T02:38:36	-0.5	85.5
1098	2023-02-07T02:48:36	-0.4	85
1099	2023-02-07T02:58:37	-0.6	85
1100	2023-02-07T03:08:36	-0.7	85
1101	2023-02-07T03:18:36	-0.6	85.5
1102	2023-02-07T03:28:37	-0.9	85
1103	2023-02-07T03:38:36	-0.8	85.5
1104	2023-02-07T03:48:37	-0.8	85
1105	2023-02-07T03:58:36	-1	84.5
1106	2023-02-07T04:08:36	-1.1	85.5
1107	2023-02-07T04:18:37	-1.2	85
1108	2023-02-07T04:28:36	-1.3	85.5
1109	2023-02-07T04:38:36	-1.4	85
1110	2023-02-07T04:48:37	-1.4	85.5
1111	2023-02-07T04:58:37	-1.6	85.5
1112	2023-02-07T05:08:37	-1.5	85.5
1113	2023-02-07T05:18:37	-1.6	85.5
1114	2023-02-07T05:28:37	-1.5	86
1115	2023-02-07T05:38:37	-1.5	85.5
1116	2023-02-07T05:48:37	-1.7	85.5
1117	2023-02-07T05:58:37	-1.7	86
1118	2023-02-07T06:08:37	-1.7	85.5
1119	2023-02-07T06:18:37	-1.6	86.5
1120	2023-02-07T06:28:37	-1.5	86.5
1121	2023-02-07T06:38:37	-1.5	85.5
1122	2023-02-07T06:48:37	-1.7	85
1123	2023-02-07T06:58:37	-1.8	86
1124	2023-02-07T07:08:37	-2	86.5
1125	2023-02-07T07:18:37	-2	86
1126	2023-02-07T07:28:37	-1.9	85.5
1127	2023-02-07T07:38:37	-1.9	85
1128	2023-02-07T07:48:37	-1.7	84
1129	2023-02-07T07:58:37	-1.7	84.5
1130	2023-02-07T08:08:56	-1.4	83.5
1131	2023-02-07T08:18:37	-1.3	82.5
1132	2023-02-07T08:28:37	-1.3	83
1133	2023-02-07T08:38:37	-1.1	82
1134	2023-02-07T08:48:37	-0.9	80
1135	2023-02-07T08:58:37	-0.7	79
1136	2023-02-07T09:08:37	-0.6	78
1137	2023-02-07T09:18:37	-0.3	77
1138	2023-02-07T09:28:37	-0.2	74.5
1139	2023-02-07T09:38:37	0	74.5
1140	2023-02-07T09:48:37	0.1	74.5
1141	2023-02-07T09:58:37	0.1	73
1142	2023-02-07T10:08:37	0.5	72
1143	2023-02-07T10:18:37	0.6	72.5
1144	2023-02-07T10:28:37	0.7	71.5
1145	2023-02-07T10:38:37	1	69.5
1146	2023-02-07T10:48:37	1.1	68.5
1147	2023-02-07T10:58:37	1.3	68.5
1148	2023-02-07T11:08:37	1.7	66.5
1149	2023-02-07T11:18:37	1.8	66.5
1150	2023-02-07T11:28:37	2.1	65
1151	2023-02-07T11:38:37	2.4	63.5
1152	2023-02-07T11:48:37	2.6	65
1153	2023-02-07T11:58:37	3.2	64.5
1154	2023-02-07T12:08:37	11	38.5
1155	2023-02-07T12:18:37	14.1	31
1156	2023-02-07T12:28:37	14.3	34
1157	2023-02-07T12:38:37	15.6	31
1158	2023-02-07T12:48:37	17.2	29
1159	2023-02-07T12:58:36	17.3	27
1160	2023-02-07T13:08:36	19.9	23
1161	2023-02-07T13:18:36	19.8	23.5
1162	2023-02-07T13:28:36	19.2	22
1163	2023-02-07T13:38:36	18.7	24.5
1164	2023-02-07T13:48:36	17.4	24
1165	2023-02-07T13:58:36	17.2	24
1166	2023-02-07T14:08:36	18.6	22
1167	2023-02-07T14:18:36	18.6	22
1168	2023-02-07T14:28:36	18.2	21.5
1169	2023-02-07T14:38:36	17.8	22
1170	2023-02-07T14:48:36	16.6	23
1171	2023-02-07T14:58:36	16	24.5
1172	2023-02-07T15:08:36	15.2	24.5
1173	2023-02-07T15:18:36	13.7	28
1174	2023-02-07T15:28:36	12.4	28.5
1175	2023-02-07T15:38:36	10.8	31.5
1176	2023-02-07T15:48:36	10	34
1177	2023-02-07T15:58:36	9.6	34
1178	2023-02-07T16:08:36	8.3	39
1179	2023-02-07T16:18:36	6.9	41.5
1180	2023-02-07T16:28:36	5.7	44.5
1181	2023-02-07T16:38:37	5	48.5
1182	2023-02-07T16:48:36	4.3	48.5
1183	2023-02-07T16:58:36	3.7	49.5
1184	2023-02-07T17:08:36	3	51
1185	2023-02-07T17:18:36	2.7	54
1186	2023-02-07T17:28:36	2.4	55.5
1187	2023-02-07T17:38:36	2	56.5
1188	2023-02-07T17:48:36	1.8	57.5
1189	2023-02-07T17:58:36	1.6	57.5
1190	2023-02-07T18:08:36	1.3	58
1191	2023-02-07T18:18:36	1.1	59.5
1192	2023-02-07T18:28:36	1.2	59.5
1193	2023-02-07T18:38:36	1.1	59
1194	2023-02-07T18:48:36	1.1	59.5
1195	2023-02-07T18:58:36	0.9	61
1196	2023-02-07T19:08:36	0.8	60.5
1197	2023-02-07T19:18:36	0.7	61
1198	2023-02-07T19:28:36	0.5	61
1199	2023-02-07T19:38:36	0.4	60.5
1200	2023-02-07T19:48:36	0.5	61
1201	2023-02-07T19:58:36	0.3	61
1202	2023-02-07T20:08:36	0.1	60.5
1203	2023-02-07T20:18:36	0.1	61.5
1204	2023-02-07T20:28:36	0.2	63.5
1205	2023-02-07T20:38:36	0.2	62
1206	2023-02-07T20:48:36	0.1	63
1207	2023-02-07T20:58:36	0	63.5
1208	2023-02-07T21:08:36	0	64
1209	2023-02-07T21:18:36	0	63.5
1210	2023-02-07T21:28:36	0	64.5
1211	2023-02-07T21:38:36	-0.1	64.5
1212	2023-02-07T21:48:36	-0.2	65.5
1213	2023-02-07T21:58:36	-0.2	65
1214	2023-02-07T22:08:36	-0.4	65.5
1215	2023-02-07T22:18:36	-0.3	66
1216	2023-02-07T22:28:36	-0.6	66.5
1217	2023-02-07T22:38:36	-0.8	67.5
1218	2023-02-07T22:48:36	-0.7	68
1219	2023-02-07T22:58:36	-0.8	67.5
1220	2023-02-07T23:08:36	-0.8	68
1221	2023-02-07T23:18:36	-0.8	67
1222	2023-02-07T23:28:36	-0.9	65
1223	2023-02-07T23:38:36	-0.9	64.5
1224	2023-02-07T23:48:36	-0.9	64
1225	2023-02-07T23:58:36	-0.7	62.5
1226	2023-02-08T00:08:36	-0.9	63
1227	2023-02-08T00:18:36	-0.9	63
1228	2023-02-08T00:28:36	-1	64
1229	2023-02-08T00:38:36	-1.2	64.5
1230	2023-02-08T00:48:37	-1.3	65
1231	2023-02-08T00:58:36	-1.5	65.5
1232	2023-02-08T01:08:36	-1.4	65.5
1233	2023-02-08T01:18:36	-1.6	66.5
1234	2023-02-08T01:28:36	-1.7	67
1235	2023-02-08T01:38:36	-1.5	67.5
1236	2023-02-08T01:48:36	-1.7	67
1237	2023-02-08T01:58:36	-1.7	67
1238	2023-02-08T02:08:36	-1.8	68
1239	2023-02-08T02:18:36	-1.8	68.5
1240	2023-02-08T02:28:36	-1.8	69.5
1241	2023-02-08T02:38:36	-1.8	70
1242	2023-02-08T02:48:36	-1.9	70
1243	2023-02-08T02:58:36	-2	70.5
1244	2023-02-08T03:08:36	-2	70.5
1245	2023-02-08T03:18:36	-2.2	72.5
1246	2023-02-08T03:28:36	-2.2	73
1247	2023-02-08T03:38:36	-2.3	73
1248	2023-02-08T03:48:36	-2.3	73.5
1249	2023-02-08T03:58:36	-2.2	72.5
1250	2023-02-08T04:08:36	-2.2	74.5
1251	2023-02-08T04:18:36	-2.5	74.5
1252	2023-02-08T04:28:36	-2.5	75.5
1253	2023-02-08T04:38:36	-2.9	75.5
1254	2023-02-08T04:48:36	-2.8	77
1255	2023-02-08T04:58:36	-2.9	77
1256	2023-02-08T05:08:36	-2.9	76.5
1257	2023-02-08T05:18:36	-2.9	76.5
1258	2023-02-08T05:28:36	-3.1	77.5
1259	2023-02-08T05:38:36	-3.2	78
1260	2023-02-08T05:48:36	-3.3	79.5
1261	2023-02-08T05:58:36	-3.2	79
1262	2023-02-08T06:08:36	-3.2	78.5
1263	2023-02-08T06:18:36	-3.3	79
1264	2023-02-08T06:28:36	-3.1	79
1265	2023-02-08T06:38:36	-3.2	78.5
1266	2023-02-08T06:48:36	-3.1	79
1267	2023-02-08T06:58:36	-3.2	79
1268	2023-02-08T07:08:36	-3.2	79
1269	2023-02-08T07:18:36	-3.3	78.5
1270	2023-02-08T07:28:36	-3.2	79
1271	2023-02-08T07:38:36	-3.2	78
1272	2023-02-08T07:48:36	-2.9	78.5
1273	2023-02-08T07:58:36	-2.7	77
1274	2023-02-08T08:08:36	-2.5	75.5
1275	2023-02-08T08:18:36	-2.3	74.5
1276	2023-02-08T08:28:36	-2	73
1277	2023-02-08T08:38:36	-1.8	73
1278	2023-02-08T08:48:36	-1.6	70.5
1279	2023-02-08T08:58:36	-1.3	69
1280	2023-02-08T09:08:36	-0.9	67
1281	2023-02-08T09:18:36	-0.7	64.5
1282	2023-02-08T09:28:36	-0.6	63
1283	2023-02-08T09:38:36	-0.4	61.5
1284	2023-02-08T09:48:36	0	59
1285	2023-02-08T09:58:36	0.2	56.5
1286	2023-02-08T10:08:36	0.3	55.5
1287	2023-02-08T10:18:36	0.7	54.5
1288	2023-02-08T10:28:36	0.2	57.5
1289	2023-02-08T10:38:36	0.1	58
1290	2023-02-08T10:48:36	0.3	57
1291	2023-02-08T10:58:36	0.4	56.5
1292	2023-02-08T11:08:36	0.6	55
1293	2023-02-08T11:18:36	0.8	54
1294	2023-02-08T11:28:36	1.2	54
1295	2023-02-08T11:38:36	2.7	49.5
1296	2023-02-08T11:48:36	2.4	50
1297	2023-02-08T11:58:36	2.6	50.5
1298	2023-02-08T12:08:36	4.9	43.5
1299	2023-02-08T12:18:36	7.1	38.5
1300	2023-02-08T12:28:36	8.6	35.5
1301	2023-02-08T12:38:36	10.2	30.5
1302	2023-02-08T12:48:36	11.2	29
1303	2023-02-08T12:58:36	12.1	28
1304	2023-02-08T13:08:36	13.1	26.5
1305	2023-02-08T13:18:36	13.5	25
1306	2023-02-08T13:28:36	14.1	24.5
1307	2023-02-08T13:38:36	14.7	23.5
1308	2023-02-08T13:48:58	14.9	22.5
1309	2023-02-08T13:58:36	15.7	23.5
1310	2023-02-08T14:08:36	16.3	22.5
1311	2023-02-08T14:18:36	16.4	20.5
1312	2023-02-08T14:28:36	17	21.5
1313	2023-02-08T14:38:36	16.7	22.5
1314	2023-02-08T14:48:36	17.2	23
1315	2023-02-08T14:58:36	16.7	22.5
1316	2023-02-08T15:08:36	16.2	23.5
1317	2023-02-08T15:18:36	15.3	24.5
1318	2023-02-08T15:28:36	13.1	28
1319	2023-02-08T15:38:36	10.7	32.5
1320	2023-02-08T15:48:36	10.4	34
1321	2023-02-08T15:58:36	9.5	35
1322	2023-02-08T16:08:36	9	35.5
1323	2023-02-08T16:18:36	7.8	38
1324	2023-02-08T16:28:36	6.1	44
1325	2023-02-08T16:48:36	4.5	49.5
1326	2023-02-08T16:58:36	4.2	50.5
1327	2023-02-08T17:08:36	3.8	51.5
1328	2023-02-08T17:18:36	3.5	52.5
1329	2023-02-08T17:28:36	3	51.5
1330	2023-02-08T17:38:36	2.8	51.5
1331	2023-02-08T17:48:36	2.4	52
1332	2023-02-08T17:58:36	2.2	53.5
1333	2023-02-08T18:08:36	2	55
1334	2023-02-08T18:18:36	1.8	55
1335	2023-02-08T18:28:36	1.6	55.5
1336	2023-02-08T18:38:36	1.4	56
1337	2023-02-08T18:48:36	1.1	57.5
1338	2023-02-08T18:58:36	0.9	59
1339	2023-02-08T19:08:36	0.6	61
1340	2023-02-08T19:18:36	0.3	62
1341	2023-02-08T19:28:36	0.1	63.5
1342	2023-02-08T19:38:36	0	64.5
1343	2023-02-08T19:48:36	-0.2	64.5
1344	2023-02-08T19:58:36	-0.4	65.5
1345	2023-02-08T20:08:36	-0.5	65.5
1346	2023-02-08T20:18:36	-0.4	64
1347	2023-02-08T20:28:36	-0.4	63.5
1348	2023-02-08T20:38:36	-0.7	65
1349	2023-02-08T20:48:36	-0.8	64.5
1350	2023-02-08T20:58:36	-0.8	65
1351	2023-02-08T21:08:36	-0.9	65.5
1352	2023-02-08T21:18:36	-1	66.5
1353	2023-02-08T21:28:36	-1.1	66.5
1354	2023-02-08T21:38:36	-1.3	67
1355	2023-02-08T21:48:36	-1.3	67
1356	2023-02-08T21:58:36	-1.4	67.5
1357	2023-02-08T22:08:36	-1.5	68.5
1358	2023-02-08T22:18:36	-1.5	68
1359	2023-02-08T22:28:36	-1.9	71
1360	2023-02-08T22:38:36	-1.8	70.5
1361	2023-02-08T22:48:36	-2.2	73
1362	2023-02-08T22:58:36	-2.2	73
1363	2023-02-08T23:08:36	-2	71
1364	2023-02-08T23:18:36	-2.1	71
1365	2023-02-08T23:28:36	-2.5	73.5
1366	2023-02-08T23:38:36	-2.5	73
1367	2023-02-08T23:48:36	-2.6	74.5
1368	2023-02-08T23:58:36	-2.9	76
1369	2023-02-09T00:08:36	-3.1	78
1370	2023-02-09T00:18:36	-3.4	79.5
1371	2023-02-09T00:28:36	-3.4	80
1372	2023-02-09T00:38:36	-3.6	81.5
1373	2023-02-09T00:48:36	-3.7	82.5
1374	2023-02-09T00:58:36	-4	84
1375	2023-02-09T01:08:36	-4	85
1376	2023-02-09T01:18:36	-4.1	85
1377	2023-02-09T01:28:36	-4.1	86
1378	2023-02-09T01:38:36	-4.2	86.5
1379	2023-02-09T01:48:36	-4.4	87.5
1380	2023-02-09T01:58:36	-4.4	88.5
1381	2023-02-09T02:08:36	-4.5	88.5
1382	2023-02-09T02:18:36	-4.7	89.5
1383	2023-02-09T02:28:36	-4.7	90.5
1384	2023-02-09T02:38:36	-4.9	91
1385	2023-02-09T02:48:36	-5	91.5
1386	2023-02-09T02:58:36	-5.2	92
1387	2023-02-09T03:08:36	-5.2	92
1388	2023-02-09T03:18:36	-5.3	92.5
1389	2023-02-09T03:28:36	-5.3	93
1390	2023-02-09T03:38:36	-5.5	93
1391	2023-02-09T03:48:36	-5.4	92.5
1392	2023-02-09T03:58:36	-5.5	92.5
1393	2023-02-09T04:08:36	-5.5	92
1394	2023-02-09T04:18:36	-5.5	92.5
1395	2023-02-09T04:28:36	-5.7	93
1396	2023-02-09T04:38:36	-5.8	93.5
1397	2023-02-09T04:48:36	-5.9	94
1398	2023-02-09T04:58:36	-5.8	94
1399	2023-02-09T05:08:36	-5.9	94.5
1400	2023-02-09T05:18:36	-5.9	94
1401	2023-02-09T05:28:36	-5.9	94
1402	2023-02-09T05:38:36	-6.2	94
1403	2023-02-09T05:48:36	-6.3	94.5
1404	2023-02-09T05:58:36	-6.3	95
1405	2023-02-09T06:08:36	-6.4	95.5
1406	2023-02-09T06:18:36	-6.3	95.5
1407	2023-02-09T06:28:36	-6.3	95.5
1408	2023-02-09T06:38:36	-6.4	95.5
1409	2023-02-09T06:48:36	-6.7	96
1410	2023-02-09T06:58:36	-6.8	96.5
1411	2023-02-09T07:08:36	-6.7	97
1412	2023-02-09T07:18:36	-6.8	97
1413	2023-02-09T07:28:36	-6.6	97
1414	2023-02-09T07:38:36	-6.5	97.5
1415	2023-02-09T07:48:36	-6.4	98
1416	2023-02-09T07:58:36	-6	98
1417	2023-02-09T08:08:36	-5.9	98
1418	2023-02-09T08:18:36	-5.6	98
1419	2023-02-09T08:28:36	-5.4	98
1420	2023-02-09T08:38:36	-5.2	98
1421	2023-02-09T08:48:36	-5	97.5
1422	2023-02-09T08:58:36	-4.8	97
1423	2023-02-09T09:08:36	-4.4	96
1424	2023-02-09T09:18:36	-4.1	95
1425	2023-02-09T09:28:36	-3.8	93.5
1426	2023-02-09T09:38:36	-3.4	92
1427	2023-02-09T09:48:36	-3.3	89.5
1428	2023-02-09T09:58:36	-3.1	89
1429	2023-02-09T10:08:36	-2.4	87
1430	2023-02-09T10:18:36	-2.2	86
1431	2023-02-09T10:28:36	-1.3	82
1432	2023-02-09T10:38:36	-0.7	76.5
1433	2023-02-09T10:48:36	-0.3	75
1434	2023-02-09T10:58:36	0.1	70.5
1435	2023-02-09T11:08:36	0.4	70
1436	2023-02-09T11:18:36	0.6	70
1437	2023-02-09T11:28:36	1	67.5
1438	2023-02-09T11:38:36	2.3	62
1439	2023-02-09T11:48:36	2	63
1440	2023-02-09T11:58:36	2.2	61.5
1441	2023-02-09T12:08:36	4.2	55.5
1442	2023-02-09T12:18:36	5.8	48.5
1443	2023-02-09T12:28:36	6.6	46
1444	2023-02-09T12:38:36	7.5	43
1445	2023-02-09T12:48:36	8.1	41.5
1446	2023-02-09T12:58:36	9.3	40.5
1447	2023-02-09T13:08:36	10.6	37.5
1448	2023-02-09T13:18:36	10.2	35.5
1449	2023-02-09T13:28:36	10.6	34.5
1450	2023-02-09T13:38:36	11.6	32.5
1451	2023-02-09T13:48:36	11.9	32.5
1452	2023-02-09T13:58:36	11.6	31.5
1453	2023-02-09T14:08:36	11.9	31.5
1454	2023-02-09T14:18:36	11.7	31
1455	2023-02-09T14:28:36	12.3	30
1456	2023-02-09T14:38:36	12.1	30
1457	2023-02-09T14:48:36	12.6	29
1458	2023-02-09T14:58:36	12.7	28
1459	2023-02-09T15:08:36	11.9	28.5
1460	2023-02-09T15:18:36	11.4	30
1461	2023-02-09T15:28:36	11.7	30.5
1462	2023-02-09T15:38:36	9.4	35
1463	2023-02-09T15:48:36	8.3	37
1464	2023-02-09T15:58:36	8	39
1465	2023-02-09T16:08:36	7.7	39.5
1466	2023-02-09T16:18:36	7.1	42.5
1467	2023-02-09T16:28:36	5.7	47.5
1468	2023-02-09T16:38:36	4.9	52.5
1469	2023-02-09T16:48:36	4	55.5
1470	2023-02-09T16:58:36	3.4	58
1471	2023-02-09T17:08:36	3.1	60
1472	2023-02-09T17:18:36	2.6	61
1473	2023-02-09T17:28:36	2.6	63
1474	2023-02-09T17:38:36	2.3	63.5
1475	2023-02-09T17:48:36	1.9	64.5
1476	2023-02-09T17:58:36	1.5	64.5
1477	2023-02-09T18:08:36	1.2	66.5
1478	2023-02-09T18:18:36	0.7	67.5
1479	2023-02-09T18:28:36	0.6	69
1480	2023-02-09T18:38:36	0.3	70
1481	2023-02-09T18:48:36	0.3	70.5
1482	2023-02-09T18:58:36	0	72.5
1483	2023-02-09T19:08:36	0	73
1484	2023-02-09T19:18:36	-0.4	73
1485	2023-02-09T19:28:36	-0.4	74.5
1486	2023-02-09T19:38:36	-0.8	76
1487	2023-02-09T19:48:36	-0.9	77.5
1488	2023-02-09T19:58:36	-1.1	76.5
1489	2023-02-09T20:08:36	-1.3	78
1490	2023-02-09T20:18:36	-1.3	78
1491	2023-02-09T20:28:36	-1.4	79
1492	2023-02-09T20:38:36	-1.4	79.5
1493	2023-02-09T20:48:36	-1.5	79.5
1494	2023-02-09T20:58:36	-1.6	79.5
1495	2023-02-09T21:08:36	-1.8	80
1496	2023-02-09T21:18:36	-1.9	81
1497	2023-02-09T21:28:36	-2.1	82
1498	2023-02-09T21:38:52	-2.2	82
1499	2023-02-09T21:48:36	-2.3	83.5
1500	2023-02-09T21:58:36	-2.5	84.5
1501	2023-02-09T22:08:36	-2.7	84.5
1502	2023-02-09T22:18:36	-2.8	85
1503	2023-02-09T22:28:36	-2.9	85.5
1504	2023-02-09T22:38:36	-3.2	87
1505	2023-02-09T22:48:36	-3.3	88
1506	2023-02-09T22:58:36	-3.5	87.5
1507	2023-02-09T23:08:36	-3.5	88
1508	2023-02-09T23:18:36	-3.6	89
1509	2023-02-09T23:28:36	-3.7	90
1510	2023-02-09T23:38:36	-3.9	90
1511	2023-02-09T23:48:36	-3.9	89.5
1512	2023-02-09T23:58:36	-4	91
1513	2023-02-10T00:08:36	-4	91.5
1514	2023-02-10T00:18:36	-4.1	92
1515	2023-02-10T00:28:36	-4.1	92
1516	2023-02-10T00:38:36	-4.1	92.5
1517	2023-02-10T00:48:36	-4.2	92.5
1518	2023-02-10T00:58:36	-4.3	92.5
1519	2023-02-10T01:08:36	-4.3	92.5
1520	2023-02-10T01:18:36	-4.4	92.5
1521	2023-02-10T01:28:36	-4.4	92.5
1522	2023-02-10T01:38:36	-4.4	93
1523	2023-02-10T01:48:36	-4.4	93
1524	2023-02-10T01:58:36	-4.6	92.5
1525	2023-02-10T02:08:36	-4.5	93
1526	2023-02-10T02:18:36	-4.3	93
1527	2023-02-10T02:28:36	-4.3	93
1528	2023-02-10T02:38:36	-4.5	93
1529	2023-02-10T02:48:36	-4.6	93.5
1530	2023-02-10T02:58:36	-4.8	94
1531	2023-02-10T03:08:36	-4.9	94.5
1532	2023-02-10T03:18:36	-5	94.5
1533	2023-02-10T03:28:36	-5.1	95
1534	2023-02-10T03:38:36	-5.2	95
1535	2023-02-10T03:48:36	-4.9	95.5
1536	2023-02-10T03:58:36	-4.9	95.5
1537	2023-02-10T04:08:36	-4.7	96
1538	2023-02-10T04:18:36	-4.7	96
1539	2023-02-10T04:28:36	-5	96
1540	2023-02-10T04:38:36	-5.1	96
1541	2023-02-10T04:48:36	-5.3	96
1542	2023-02-10T04:58:36	-5.5	96.5
1543	2023-02-10T05:08:36	-5.5	96.5
1544	2023-02-10T05:18:36	-5.6	97
1545	2023-02-10T05:28:36	-5.6	97
1546	2023-02-10T05:38:36	-4.9	97.5
1547	2023-02-10T05:48:36	-5.4	97
1548	2023-02-10T05:58:36	-5.4	97.5
1549	2023-02-10T06:08:36	-5.6	97.5
1550	2023-02-10T06:18:36	-5.8	97.5
1551	2023-02-10T06:28:36	-5.6	98
1552	2023-02-10T06:38:36	-5.3	98
1553	2023-02-10T06:48:36	-5.1	98
1554	2023-02-10T06:58:36	-5.4	98
1555	2023-02-10T07:08:36	-5.5	98
1556	2023-02-10T07:18:36	-5.6	98.5
1557	2023-02-10T07:28:36	-5.1	98.5
1558	2023-02-10T07:38:36	-5.2	98.5
1559	2023-02-10T07:48:36	-5.1	98.5
1560	2023-02-10T07:58:36	-5.1	99
1561	2023-02-10T08:08:36	-4.8	99
1562	2023-02-10T08:18:36	-4.3	99
1563	2023-02-10T08:28:36	-3.7	99
1564	2023-02-10T08:38:36	-3.2	98.5
1565	2023-02-10T08:48:36	-2.8	97
1566	2023-02-10T08:58:36	-2.6	95
1567	2023-02-10T09:08:36	-2.4	93.5
1568	2023-02-10T09:18:36	-2.1	93
1569	2023-02-10T09:28:36	-1.6	90.5
1570	2023-02-10T09:38:36	-1.3	89
1571	2023-02-10T09:48:36	-0.9	88
1572	2023-02-10T09:58:36	-0.4	87
1573	2023-02-10T10:08:36	0.2	80
1574	2023-02-10T10:18:36	0.6	79
1575	2023-02-10T10:28:36	1.1	77.5
1576	2023-02-10T10:38:36	1.4	77
1577	2023-02-10T10:48:36	1.7	77
1578	2023-02-10T10:58:36	1.9	74.5
1579	2023-02-10T11:08:36	2.3	73.5
1580	2023-02-10T11:18:36	2.6	71.5
1581	2023-02-10T11:28:36	3	70
1582	2023-02-10T11:38:36	4.2	63.5
1583	2023-02-10T11:48:36	4.2	63.5
1584	2023-02-10T11:58:36	4.3	63
1585	2023-02-10T12:08:36	6.1	55.5
1586	2023-02-10T12:18:36	7.4	49
1587	2023-02-10T12:28:36	8.2	46
1588	2023-02-10T12:38:36	9.7	41.5
1589	2023-02-10T12:48:36	10.5	37.5
1590	2023-02-10T12:58:36	10.8	38
1591	2023-02-10T13:08:36	11.2	36.5
1592	2023-02-10T13:18:36	11.8	35
1593	2023-02-10T13:28:36	12.3	34.5
1594	2023-02-10T13:38:36	12.5	31
1595	2023-02-10T13:48:36	13.2	31
1596	2023-02-10T13:58:36	11.9	32.5
1597	2023-02-10T14:08:36	13.1	30.5
1598	2023-02-10T14:18:36	13.2	30
1599	2023-02-10T14:28:36	12.8	31
1600	2023-02-10T14:38:36	12.4	32.5
1601	2023-02-10T14:48:36	13.8	30.5
1602	2023-02-10T14:58:36	12.5	32
1603	2023-02-10T15:18:36	10.3	36.5
1604	2023-02-10T15:28:36	10.2	37.5
1605	2023-02-10T15:38:36	9.6	38.5
1606	2023-02-10T15:48:36	8.6	40.5
1607	2023-02-10T15:58:36	8.6	42
1608	2023-02-10T16:08:36	7.3	44
1609	2023-02-10T16:18:36	6.8	47
1610	2023-02-10T16:28:36	6.4	49.5
1611	2023-02-10T16:38:36	5.7	53.5
1612	2023-02-10T16:48:36	5	57
1613	2023-02-10T16:58:36	4	58
1614	2023-02-10T17:08:36	4	60.5
1615	2023-02-10T17:18:36	3.7	62
1616	2023-02-10T17:28:36	3.4	64
1617	2023-02-10T17:38:36	2.9	65
1618	2023-02-10T17:48:36	2.8	65
1619	2023-02-10T17:58:36	2.8	66.5
1620	2023-02-10T18:08:36	2.6	67
1621	2023-02-10T18:18:36	2.2	68
1622	2023-02-10T18:28:36	1.9	69.5
1623	2023-02-10T18:38:36	1.8	69
1624	2023-02-10T18:48:36	1.4	70.5
1625	2023-02-10T18:58:36	1.2	71.5
1626	2023-02-10T19:08:36	0.9	72.5
1627	2023-02-10T19:18:36	0.8	73.5
1628	2023-02-10T19:28:36	0.6	75
1629	2023-02-10T19:38:36	0.4	75.5
1630	2023-02-10T19:48:36	0.3	75.5
1631	2023-02-10T19:58:36	0.2	77
1632	2023-02-10T20:08:36	0	78.5
1633	2023-02-10T20:18:36	-0.1	78.5
1634	2023-02-10T20:28:36	-0.2	79
1635	2023-02-10T20:38:36	-0.5	79
1636	2023-02-10T20:48:36	-0.4	80.5
1637	2023-02-10T20:58:36	-0.5	81
1638	2023-02-10T21:08:36	-0.7	82.5
1639	2023-02-10T21:18:36	-0.9	82.5
1640	2023-02-10T21:28:36	-1	83.5
1641	2023-02-10T21:38:36	-1.2	84
1642	2023-02-10T21:48:36	-1.2	84
1643	2023-02-10T21:58:36	-1.3	85
1644	2023-02-10T22:08:36	-1.4	85.5
1645	2023-02-10T22:18:36	-1.6	86
1646	2023-02-10T22:28:36	-1.6	86.5
1647	2023-02-10T22:38:36	-1.8	87
1648	2023-02-10T22:48:36	-1.9	87.5
1649	2023-02-10T22:58:36	-1.9	87.5
1650	2023-02-10T23:08:36	-2	88.5
1651	2023-02-10T23:18:36	-2.1	88
1652	2023-02-10T23:28:36	-2.3	88.5
1653	2023-02-10T23:38:36	-2.3	88.5
1654	2023-02-10T23:48:36	-2.2	89.5
1655	2023-02-10T23:58:36	-2.4	90
1656	2023-02-11T00:08:36	-2.4	89.5
1657	2023-02-11T00:18:36	-2.4	89.5
1658	2023-02-11T00:28:36	-2.4	89.5
1659	2023-02-11T00:38:36	-2.4	89.5
1660	2023-02-11T00:48:36	-2.2	90
1661	2023-02-11T00:58:36	-1.9	89
1662	2023-02-11T01:08:36	-2	88
1663	2023-02-11T01:18:36	-1.9	88
1664	2023-02-11T01:28:36	-1.5	87
1665	2023-02-11T01:38:36	-1	85
1666	2023-02-11T01:48:36	-1	84.5
1667	2023-02-11T01:58:36	-0.8	85
1668	2023-02-11T02:08:36	-0.8	84.5
1669	2023-02-11T02:18:36	-0.8	85.5
1670	2023-02-11T02:28:36	-1	86
1671	2023-02-11T02:38:36	-1.3	87.5
1672	2023-02-11T02:48:36	-1.1	87.5
1673	2023-02-11T02:58:36	-0.9	86
1674	2023-02-11T03:08:36	-1.5	88
1675	2023-02-11T03:18:36	-1.6	89.5
1676	2023-02-11T03:28:36	-1.5	89.5
1677	2023-02-11T03:38:36	-1.3	89.5
1678	2023-02-11T03:48:36	-0.8	87
1679	2023-02-11T03:58:36	-0.9	87
1680	2023-02-11T04:08:36	-0.8	87
1681	2023-02-11T04:18:36	-0.7	86
1682	2023-02-11T04:28:36	-0.6	86
1683	2023-02-11T04:38:36	-0.6	86.5
1684	2023-02-11T04:48:36	-0.5	86.5
1685	2023-02-11T04:58:36	-0.7	87
1686	2023-02-11T05:08:36	-0.4	86.5
1687	2023-02-11T05:18:36	-0.5	86.5
1688	2023-02-11T05:28:36	-0.5	86.5
1689	2023-02-11T05:38:36	-0.3	86.5
1690	2023-02-11T05:48:36	-0.4	87.5
1691	2023-02-11T05:58:36	-0.1	87
1692	2023-02-11T06:08:36	-0.3	87.5
1693	2023-02-11T06:18:36	-0.4	87
1694	2023-02-11T06:28:36	-0.7	88
1695	2023-02-11T06:38:36	-0.6	88
1696	2023-02-11T06:48:36	-0.6	88.5
1697	2023-02-11T06:58:36	-0.6	88
1698	2023-02-11T07:08:36	-0.4	87.5
1699	2023-02-11T07:18:36	-0.1	86.5
1700	2023-02-11T07:28:36	0	86
1701	2023-02-11T07:38:36	0.2	85.5
1702	2023-02-11T07:48:36	0.2	85.5
1703	2023-02-11T07:58:36	0.3	85.5
1704	2023-02-11T08:08:36	0.2	85.5
1705	2023-02-11T08:18:36	0.3	84.5
1706	2023-02-11T08:28:36	0.3	84
1707	2023-02-11T08:38:36	0.1	85
1708	2023-02-11T08:48:36	0.2	84.5
1709	2023-02-11T08:58:36	0.4	83
1710	2023-02-11T09:08:36	0.6	81.5
1711	2023-02-11T09:18:36	0.9	81
1712	2023-02-11T09:28:36	1.4	80
1713	2023-02-11T09:38:36	1.9	78
1714	2023-02-11T09:48:36	2.6	75.5
1715	2023-02-11T09:58:36	3.1	73
1716	2023-02-11T10:08:36	4.4	68
1717	2023-02-11T10:18:36	5.1	64.5
1718	2023-02-11T10:28:36	5.7	62.5
1719	2023-02-11T10:38:36	5.6	62.5
1720	2023-02-11T10:48:36	5.3	62
1721	2023-02-11T10:58:36	5.4	62
1722	2023-02-11T11:08:36	5.5	62
1723	2023-02-11T11:18:36	5.7	62.5
1724	2023-02-11T11:28:36	6.4	61.5
1725	2023-02-11T11:38:36	7.6	57.5
1726	2023-02-11T11:48:36	7.4	58.5
1727	2023-02-11T11:58:36	7.6	59
1728	2023-02-11T12:08:36	9.1	54
1729	2023-02-11T12:18:36	10.3	50
1730	2023-02-11T12:28:36	10.8	49
1731	2023-02-11T12:38:36	11.5	47
1732	2023-02-11T12:48:36	12.3	44.5
1733	2023-02-11T12:58:36	12.8	43.5
1734	2023-02-11T13:08:36	13.4	42.5
1735	2023-02-11T13:18:36	14.3	39.5
1736	2023-02-11T13:28:36	14.6	39.5
1737	2023-02-11T13:38:36	14.5	40
1738	2023-02-11T13:48:36	15.1	38.5
1739	2023-02-11T13:58:36	15.2	38.5
1740	2023-02-11T14:08:36	15	38.5
1741	2023-02-11T14:18:36	13.6	42
1742	2023-02-11T14:28:35	15.2	38.5
1743	2023-02-11T14:38:35	14.4	40
1744	2023-02-11T14:48:35	14	42
1745	2023-02-11T14:58:35	12.5	45.5
1746	2023-02-11T15:08:35	11.4	49
1747	2023-02-11T15:18:35	11	51
1748	2023-02-11T15:28:35	11	51.5
1749	2023-02-11T15:38:35	10.6	53
1750	2023-02-11T15:48:35	10.9	52.5
1751	2023-02-11T15:58:35	10.4	53
1752	2023-02-11T16:08:35	10.4	55
1753	2023-02-11T16:18:35	10.6	58.5
1754	2023-02-11T16:28:35	10.7	55.5
1755	2023-02-11T16:38:35	10.6	57.5
1756	2023-02-11T16:48:35	10.3	60.5
1757	2023-02-11T16:58:35	10.1	59
1758	2023-02-11T17:08:35	9.8	60
1759	2023-02-11T17:18:35	9.6	61
1760	2023-02-11T17:28:35	9.8	62
1761	2023-02-11T17:38:35	9.9	63.5
1762	2023-02-11T17:48:35	9.9	60
1763	2023-02-11T17:58:35	9.6	61.5
1764	2023-02-11T18:08:35	9.2	62
1765	2023-02-11T18:18:35	9	63.5
1766	2023-02-11T18:28:35	8.9	64
1767	2023-02-11T18:38:35	9.3	67
1768	2023-02-11T18:48:35	9.2	64.5
1769	2023-02-11T18:58:35	9.4	65
1770	2023-02-11T19:08:35	9.4	65.5
1771	2023-02-11T19:18:35	9.2	63
1772	2023-02-11T19:28:35	9.1	67
1773	2023-02-11T19:38:35	9.2	65
1774	2023-02-11T19:48:35	9	65.5
1775	2023-02-11T19:58:35	8.4	67
1776	2023-02-11T20:08:35	8.2	68.5
1777	2023-02-11T20:18:35	8.4	68
1778	2023-02-11T20:28:35	8.6	68
1779	2023-02-11T20:38:35	8.6	66.5
1780	2023-02-11T20:48:35	7.7	67.5
1781	2023-02-11T20:58:35	7.8	68
1782	2023-02-11T21:08:35	8.2	68
1783	2023-02-11T21:18:35	8.2	67.5
1784	2023-02-11T21:28:35	8.2	69
1785	2023-02-11T21:38:35	8.1	68
1786	2023-02-11T21:48:35	8.1	69.5
1787	2023-02-11T21:58:35	8	68.5
1788	2023-02-11T22:08:35	7.9	69
1789	2023-02-11T22:18:35	7.9	70.5
1790	2023-02-11T22:28:35	7.9	69.5
1791	2023-02-11T22:38:35	8	69.5
1792	2023-02-11T22:48:35	7.8	69.5
1793	2023-02-11T22:58:35	7.7	71
1794	2023-02-11T23:08:35	7.9	70
1795	2023-02-11T23:18:35	7.7	71
1796	2023-02-11T23:28:35	7.7	71.5
1797	2023-02-11T23:38:35	7.6	70.5
1798	2023-02-11T23:48:35	7.3	72.5
1799	2023-02-11T23:58:35	7.5	72
1800	2023-02-12T00:08:35	7.6	73
1801	2023-02-12T00:18:35	7.6	72.5
1802	2023-02-12T00:28:35	7.5	72.5
1803	2023-02-12T00:38:35	7.6	72
1804	2023-02-12T00:48:35	7.5	72
1805	2023-02-12T00:58:35	7.5	71
1806	2023-02-12T01:08:35	7.5	73.5
1807	2023-02-12T01:18:35	7.4	73
1808	2023-02-12T01:28:35	7.4	72
1809	2023-02-12T01:38:35	7.3	72.5
1810	2023-02-12T01:48:35	7.3	73
1811	2023-02-12T01:58:35	7.1	72
1812	2023-02-12T02:08:35	7.2	72
1813	2023-02-12T02:18:35	7.2	72
1814	2023-02-12T02:28:35	7	72.5
1815	2023-02-12T02:38:35	6.9	72.5
1816	2023-02-12T02:48:35	6.9	72.5
1817	2023-02-12T02:58:35	7	72.5
1818	2023-02-12T03:08:35	6.8	73
1819	2023-02-12T03:18:35	6.8	72.5
1820	2023-02-12T03:28:35	6.8	73
1821	2023-02-12T03:38:35	6.9	73
1822	2023-02-12T03:48:35	6.9	74
1823	2023-02-12T03:58:35	7	73
1824	2023-02-12T04:08:35	6.9	73.5
1825	2023-02-12T04:18:35	6.9	73.5
1826	2023-02-12T04:28:35	6.8	73.5
1827	2023-02-12T04:38:35	6.8	73.5
1828	2023-02-12T04:48:35	6.9	73
1829	2023-02-12T04:58:35	6.8	73.5
1830	2023-02-12T05:08:35	6.8	73.5
1831	2023-02-12T05:18:35	6.7	73.5
1832	2023-02-12T05:28:35	6.8	73.5
1833	2023-02-12T05:38:35	6.9	73.5
1834	2023-02-12T05:48:35	6.7	73.5
1835	2023-02-12T05:58:35	6.8	74
1836	2023-02-12T06:08:35	6.8	73.5
1837	2023-02-12T06:18:35	6.9	74
1838	2023-02-12T06:28:35	6.9	73.5
1839	2023-02-12T06:38:35	6.9	74.5
1840	2023-02-12T06:48:35	6.8	74
1841	2023-02-12T06:58:35	6.8	74.5
1842	2023-02-12T07:08:35	6.7	75
1843	2023-02-12T07:18:35	6.6	75
1844	2023-02-12T07:28:35	6.6	75
1845	2023-02-12T07:38:35	6.7	75.5
1846	2023-02-12T07:48:35	6.5	75.5
1847	2023-02-12T07:58:35	6.5	76
1848	2023-02-12T08:08:35	6.5	76.5
1849	2023-02-12T08:18:35	6.5	77
1850	2023-02-12T08:28:35	6.6	77.5
1851	2023-02-12T08:38:35	6.9	77.5
1852	2023-02-12T08:48:35	7.1	77
1853	2023-02-12T08:58:35	7.4	76.5
1854	2023-02-12T09:08:35	7.7	75.5
1855	2023-02-12T09:18:35	8	75
1856	2023-02-12T09:28:35	8.2	75
1857	2023-02-12T09:38:35	8.2	75
1858	2023-02-12T09:48:35	8.3	75
1859	2023-02-12T09:58:35	8.5	74
1860	2023-02-12T10:08:35	9	72
1861	2023-02-12T10:18:35	9.2	71.5
1862	2023-02-12T10:28:35	9.5	69.5
1863	2023-02-12T10:38:35	9.7	69.5
1864	2023-02-12T10:48:35	9.7	69
1865	2023-02-12T10:58:34	9.9	68
1866	2023-02-12T11:08:35	10.2	68.5
1867	2023-02-12T11:18:35	10.5	68
1868	2023-02-12T11:28:34	10.8	66
1869	2023-02-12T11:38:34	10.9	65.5
1870	2023-02-12T11:48:34	10.9	65.5
1871	2023-02-12T11:58:34	10.9	65
1872	2023-02-12T12:08:34	11.1	63.5
1873	2023-02-12T12:18:34	11.9	62.5
1874	2023-02-12T12:28:34	13.3	57
1875	2023-02-12T12:38:34	14.2	54.5
1876	2023-02-12T12:48:34	14.8	52
1877	2023-02-12T12:58:34	15.6	51
1878	2023-02-12T13:08:35	15.9	48.5
1879	2023-02-12T13:18:34	16.1	48
1880	2023-02-12T13:28:34	16.6	47
1881	2023-02-12T13:38:34	17	46
1882	2023-02-12T13:48:34	17.4	44
1883	2023-02-12T13:58:34	17.4	43.5
1884	2023-02-12T14:08:34	17.8	43
1885	2023-02-12T14:18:34	17.7	43
1886	2023-02-12T14:28:34	18	42.5
1887	2023-02-12T14:38:34	18.1	42.5
1888	2023-02-12T14:48:34	18.1	42
1889	2023-02-12T14:58:34	18.1	41.5
1890	2023-02-12T15:08:34	18.3	42
1891	2023-02-12T15:18:34	18.4	42.5
1892	2023-02-12T15:28:34	18.5	42
1893	2023-02-12T15:38:34	16.9	45.5
1894	2023-02-12T15:48:34	16.7	47
1895	2023-02-12T15:58:34	16	47.5
1896	2023-02-12T16:08:34	16.1	47.5
1897	2023-02-12T16:18:34	16	48
1898	2023-02-12T16:28:34	15.2	50
1899	2023-02-12T16:38:34	14	52.5
1900	2023-02-12T16:48:34	13.5	54.5
1901	2023-02-12T16:58:34	12.7	56
1902	2023-02-12T17:08:34	12.4	57.5
1903	2023-02-12T17:18:34	12	58
1904	2023-02-12T17:28:34	11.8	59.5
1905	2023-02-12T17:38:34	11.4	60.5
1906	2023-02-12T17:48:34	11.1	61
1907	2023-02-12T17:58:34	10.6	63
1908	2023-02-12T18:08:34	10.3	63.5
1909	2023-02-12T18:18:34	10.3	64.5
1910	2023-02-12T18:28:34	10.1	65
1911	2023-02-12T18:38:34	9.8	66
1912	2023-02-12T18:48:34	9.6	66.5
1913	2023-02-12T18:58:34	9.2	67.5
1914	2023-02-12T19:08:34	9	69
1915	2023-02-12T19:18:34	8.8	69.5
1916	2023-02-12T19:28:34	8.7	69.5
1917	2023-02-12T19:38:34	8.7	70
1918	2023-02-12T19:48:34	8.5	70
1919	2023-02-12T19:58:34	8.2	70.5
1920	2023-02-12T20:08:34	8	72
1921	2023-02-12T20:18:34	7.8	73
1922	2023-02-12T20:28:34	7.6	73.5
1923	2023-02-12T20:38:34	7.3	73.5
1924	2023-02-12T20:48:34	7.4	73.5
1925	2023-02-12T20:58:34	7.3	73.5
1926	2023-02-12T21:08:34	7	74
1927	2023-02-12T21:18:34	6.9	74.5
1928	2023-02-12T21:28:34	6.6	74.5
1929	2023-02-12T21:38:34	6.5	75.5
1930	2023-02-12T21:48:34	6.2	76
1931	2023-02-12T21:58:34	6.2	76
1932	2023-02-12T22:08:34	6.2	76.5
1933	2023-02-12T22:18:34	6.1	76
1934	2023-02-12T22:28:34	5.9	76.5
1935	2023-02-12T22:38:34	5.9	77
1936	2023-02-12T22:48:34	5.7	77
1937	2023-02-12T22:58:34	5.6	77.5
1938	2023-02-12T23:08:34	5.5	78
1939	2023-02-12T23:18:34	5.5	78
1940	2023-02-12T23:28:34	5.5	78
1941	2023-02-12T23:38:34	5.4	78
1942	2023-02-12T23:48:34	5.4	78
1943	2023-02-12T23:58:34	5.3	78
1944	2023-02-13T00:08:34	5.3	78.5
1945	2023-02-13T00:18:34	5.2	78
1946	2023-02-13T00:28:34	5.3	78.5
1947	2023-02-13T00:38:34	5.2	78.5
1948	2023-02-13T00:48:34	5	78
1949	2023-02-13T00:58:34	5	78.5
1950	2023-02-13T01:08:34	4.8	78.5
1951	2023-02-13T01:18:34	4.8	79.5
1952	2023-02-13T01:28:34	4.7	79.5
1953	2023-02-13T01:38:34	4.7	80
1954	2023-02-13T01:48:34	4.4	78.5
1955	2023-02-13T01:58:34	4.3	79
1956	2023-02-13T02:08:34	4.2	80
1957	2023-02-13T02:18:34	4	80
1958	2023-02-13T02:28:34	3.9	80.5
1959	2023-02-13T02:38:34	3.9	80
1960	2023-02-13T02:48:34	3.8	79.5
1961	2023-02-13T02:58:34	3.7	80
1962	2023-02-13T03:08:34	3.6	81
1963	2023-02-13T03:18:34	3.6	79.5
1964	2023-02-13T03:28:34	3.3	80
1965	2023-02-13T03:38:34	3.3	80.5
1966	2023-02-13T03:48:34	3.1	80.5
1967	2023-02-13T03:58:34	2.7	82.5
1968	2023-02-13T04:08:34	2.9	80.5
1969	2023-02-13T04:18:34	2.9	80.5
1970	2023-02-13T04:28:34	2.9	79.5
1971	2023-02-13T04:38:34	2.4	81.5
1972	2023-02-13T04:48:34	2.4	80.5
1973	2023-02-13T04:58:34	2.2	80
1974	2023-02-13T05:08:34	2.4	80
1975	2023-02-13T05:18:34	2.2	79.5
1976	2023-02-13T05:28:34	1.9	79.5
1977	2023-02-13T05:38:34	1.4	81
1978	2023-02-13T05:48:34	1.6	81
1979	2023-02-13T05:58:34	1.8	81
1980	2023-02-13T06:08:34	1.7	82.5
1981	2023-02-13T06:18:34	1.7	82.5
1982	2023-02-13T06:28:34	1	80.5
1983	2023-02-13T06:38:34	0.6	84
1984	2023-02-13T06:48:34	0.8	87
1985	2023-02-13T06:58:34	1.5	84
1986	2023-02-13T07:08:34	0.8	87
1987	2023-02-13T07:18:34	0.7	89.5
1988	2023-02-13T07:28:34	1.2	89
1989	2023-02-13T07:38:34	1.1	88
1990	2023-02-13T07:48:34	0.6	92.5
1991	2023-02-13T07:58:34	0.9	92
1992	2023-02-13T08:08:34	1	92
1993	2023-02-13T08:18:34	1	93
1994	2023-02-13T08:28:34	1.1	93.5
1995	2023-02-13T08:38:34	1.7	93.5
1996	2023-02-13T08:48:34	1.9	92
1997	2023-02-13T08:58:34	1.7	93.5
1998	2023-02-13T09:08:34	1.6	94.5
1999	2023-02-13T09:18:34	1.8	94.5
2000	2023-02-13T09:28:34	1.9	94
2001	2023-02-13T09:38:34	2.3	92.5
2002	2023-02-13T09:48:34	2.6	90.5
2003	2023-02-13T09:58:34	2.6	91.5
2004	2023-02-13T10:08:34	3	90.5
2005	2023-02-13T10:18:34	3.2	89.5
2006	2023-02-13T10:28:34	3.3	89
2007	2023-02-13T10:38:34	3.6	86.5
2008	2023-02-13T10:48:34	3.7	86
2009	2023-02-13T10:58:34	3.9	85
2010	2023-02-13T11:08:34	4.1	85.5
2011	2023-02-13T11:18:34	4.2	85.5
2012	2023-02-13T11:28:34	4.4	85.5
2013	2023-02-13T11:38:34	4.6	85
2014	2023-02-13T11:48:33	5.2	82.5
2015	2023-02-13T11:58:33	4.9	83
2016	2023-02-13T12:08:33	5.3	82
2017	2023-02-13T12:18:33	6.3	79
2018	2023-02-13T12:28:33	7.7	72.5
2019	2023-02-13T12:38:33	8.7	68
2020	2023-02-13T12:48:33	9.2	66.5
2021	2023-02-13T12:58:33	9.7	65
2022	2023-02-13T13:08:33	10.2	63
2023	2023-02-13T13:18:33	10.3	61
2024	2023-02-13T13:28:33	10.8	61.5
2025	2023-02-13T13:38:33	11.1	58
2026	2023-02-13T13:48:33	11.5	58.5
2027	2023-02-13T13:58:33	11.9	55.5
2028	2023-02-13T14:08:33	11.9	56.5
2029	2023-02-13T14:18:33	11	58.5
2030	2023-02-13T14:28:33	12.4	54
2031	2023-02-13T14:38:33	12.3	54.5
2032	2023-02-13T14:48:33	12.9	53.5
2033	2023-02-13T14:58:33	13.3	51
2034	2023-02-13T15:08:33	14.2	49
2035	2023-02-13T15:18:33	14.5	48.5
2036	2023-02-13T15:28:33	13.9	49.5
2037	2023-02-13T15:38:33	13.8	49.5
2038	2023-02-13T15:48:33	13.3	50.5
2039	2023-02-13T15:58:33	13.3	50.5
2040	2023-02-13T16:08:33	12.5	54
2041	2023-02-13T16:18:33	12	54.5
2042	2023-02-13T16:28:33	11.7	56
2043	2023-02-13T16:38:33	11.1	58
2044	2023-02-13T16:48:33	11	58
2045	2023-02-13T16:58:33	10.7	58.5
2046	2023-02-13T17:08:33	10.1	58
2047	2023-02-13T17:18:33	8.3	64.5
2048	2023-02-13T17:28:33	8.3	64
2049	2023-02-13T17:38:33	8.7	63
2050	2023-02-13T17:48:33	8.8	62.5
2051	2023-02-13T17:58:33	8	65.5
2052	2023-02-13T18:08:33	7.9	65
2053	2023-02-13T18:18:33	7.7	65
2054	2023-02-13T18:28:33	7.8	65
2055	2023-02-13T18:38:33	7.7	68
2056	2023-02-13T18:48:33	7.5	65
2057	2023-02-13T18:58:33	7.1	66.5
2058	2023-02-13T19:08:33	7	65
2059	2023-02-13T19:18:33	6.9	67
2060	2023-02-13T19:28:33	6.6	64.5
2061	2023-02-13T19:38:33	5.6	67
2062	2023-02-13T19:48:33	5.4	68.5
2063	2023-02-13T19:58:33	4.8	72
2064	2023-02-13T20:08:33	5.5	68.5
2065	2023-02-13T20:18:33	5.5	67.5
2066	2023-02-13T20:28:33	5	68
2067	2023-02-13T20:38:33	4.4	70.5
2068	2023-02-13T20:48:33	4.2	73
2069	2023-02-13T20:58:33	4.6	75
2070	2023-02-13T21:08:33	4.2	76
2071	2023-02-13T21:18:33	4.4	75.5
2072	2023-02-13T21:28:33	3.7	77
2073	2023-02-13T21:38:33	3.1	81.5
2074	2023-02-13T21:48:33	3.3	80.5
2075	2023-02-13T21:58:33	3	82.5
2076	2023-02-13T22:08:33	3.2	81
2077	2023-02-13T22:18:33	3.2	82
2078	2023-02-13T22:28:33	3	82
2079	2023-02-13T22:38:33	3.6	81
2080	2023-02-13T22:48:33	3.8	79.5
2081	2023-02-13T22:58:33	3.3	81
2082	2023-02-13T23:08:33	3.7	81
2083	2023-02-13T23:18:33	3.9	80
2084	2023-02-13T23:28:33	3.8	80
2085	2023-02-13T23:38:33	3.9	80.5
2086	2023-02-13T23:48:33	3.6	81
2087	2023-02-13T23:58:33	4	80
2088	2023-02-14T00:08:33	3.6	81.5
2089	2023-02-14T00:18:33	4	80.5
2090	2023-02-14T00:28:33	3.8	80.5
2091	2023-02-14T00:38:33	3.5	82
2092	2023-02-14T00:48:33	3.8	81.5
2093	2023-02-14T00:58:33	3.2	83
2094	2023-02-14T01:08:33	3.2	84
2095	2023-02-14T01:18:33	3.5	82.5
2096	2023-02-14T01:28:33	3.7	82
2097	2023-02-14T01:38:33	3.9	81.5
2098	2023-02-14T01:48:33	3.2	82.5
2099	2023-02-14T01:58:33	3.2	83.5
2100	2023-02-14T02:08:33	3.6	82.5
2101	2023-02-14T02:18:33	3.6	82
2102	2023-02-14T02:28:33	3.6	82
2103	2023-02-14T02:38:33	3.5	82
2104	2023-02-14T02:48:33	3.5	81
2105	2023-02-14T02:58:33	3.4	81.5
2106	2023-02-14T03:08:33	3.4	81.5
2107	2023-02-14T03:18:33	3.3	81
2108	2023-02-14T03:28:33	3.2	79.5
2109	2023-02-14T03:38:33	3.3	79.5
2110	2023-02-14T03:48:33	3.2	79.5
2111	2023-02-14T03:58:33	3.2	79.5
2112	2023-02-14T04:08:33	3.3	79.5
2113	2023-02-14T04:18:33	3.2	79
2114	2023-02-14T04:28:33	3.1	79
2115	2023-02-14T04:38:33	3.1	79
2116	2023-02-14T04:48:33	3	79
2117	2023-02-14T04:58:33	3.1	79
2118	2023-02-14T05:08:33	2.9	79
2119	2023-02-14T05:18:33	2.9	78.5
2120	2023-02-14T05:28:33	2.7	78
2121	2023-02-14T05:38:33	2.7	78
2122	2023-02-14T05:48:33	2.5	77.5
2123	2023-02-14T05:58:33	2.2	79
2124	2023-02-14T06:08:33	2.4	79
2125	2023-02-14T06:18:33	2.4	79
2126	2023-02-14T06:28:33	2.3	79
2127	2023-02-14T06:38:33	1.9	80
2128	2023-02-14T06:48:33	2.1	80
2129	2023-02-14T06:58:33	2	79
2130	2023-02-14T07:08:33	2	81
2131	2023-02-14T07:18:33	2.1	80.5
2132	2023-02-14T07:28:33	2.3	80.5
2133	2023-02-14T07:38:33	2.3	80
2134	2023-02-14T07:48:33	2.1	80.5
2135	2023-02-14T07:58:33	2.1	80.5
2136	2023-02-14T08:08:33	2.3	80
2137	2023-02-14T08:18:33	2.3	80
2138	2023-02-14T08:28:33	2.2	79.5
2139	2023-02-14T08:38:33	2.1	81
2140	2023-02-14T08:48:33	1.7	81.5
2141	2023-02-14T08:58:33	2.2	81.5
2142	2023-02-14T09:08:33	2.1	80.5
2143	2023-02-14T09:18:33	2	81
2144	2023-02-14T09:28:33	1.9	82
2145	2023-02-14T09:38:33	2.4	81
2146	2023-02-14T09:48:33	2.2	81
2147	2023-02-14T09:58:33	2.7	80
2148	2023-02-14T10:08:33	3	79.5
2149	2023-02-14T10:18:33	3	79
2150	2023-02-14T10:28:33	3.1	79.5
2151	2023-02-14T10:38:33	3.1	77.5
2152	2023-02-14T10:48:33	3.5	77
2153	2023-02-14T10:58:33	3.5	77.5
2154	2023-02-14T11:08:33	3.8	77
2155	2023-02-14T11:18:33	3.9	76
2156	2023-02-14T11:28:33	4.2	75.5
2157	2023-02-14T11:38:33	4.1	74
2158	2023-02-14T11:48:33	4.3	75.5
2159	2023-02-14T11:58:33	4.5	75
2160	2023-02-14T12:08:33	4.9	74.5
2161	2023-02-14T12:18:33	4.9	75
2162	2023-02-14T12:28:33	4.9	74
2163	2023-02-14T12:38:33	5.2	73.5
2164	2023-02-14T12:48:33	5.3	73.5
2165	2023-02-14T12:58:33	5.8	72.5
2166	2023-02-14T13:08:33	5.6	72.5
2167	2023-02-14T13:18:33	6.1	70
2168	2023-02-14T13:28:33	6.2	71
2169	2023-02-14T13:38:33	7.1	67.5
2170	2023-02-14T13:48:33	7.8	65.5
2171	2023-02-14T13:58:33	9.1	62
2172	2023-02-14T14:08:33	10.1	57
2173	2023-02-14T14:18:33	10.6	55
2174	2023-02-14T14:28:33	11.7	54.5
2175	2023-02-14T14:38:33	12	52
2176	2023-02-14T14:48:33	12.9	49
2177	2023-02-14T14:58:33	12.6	51
2178	2023-02-14T15:08:33	13.2	47.5
2179	2023-02-14T15:18:33	14.3	47.5
2180	2023-02-14T15:28:32	11.9	51
2181	2023-02-14T15:38:32	10.3	56
2182	2023-02-14T15:48:32	9.4	60
2183	2023-02-14T15:58:32	9.3	59.5
2184	2023-02-14T16:08:32	8.8	62
2185	2023-02-14T16:18:32	7.9	63.5
2186	2023-02-14T16:28:32	7	66.5
2187	2023-02-14T16:38:32	6.2	70
2188	2023-02-14T16:48:32	6.8	68
2189	2023-02-14T16:58:32	6.4	68.5
2190	2023-02-14T17:08:32	5.8	70.5
2191	2023-02-14T17:18:32	5.7	70.5
2192	2023-02-14T17:28:32	4.8	73.5
2193	2023-02-14T17:38:32	4.7	73.5
2194	2023-02-14T17:48:32	5	71
2195	2023-02-14T17:58:32	5.5	68.5
2196	2023-02-14T18:08:32	5.5	69.5
2197	2023-02-14T18:18:32	5.4	71.5
2198	2023-02-14T18:28:32	5.1	68
2199	2023-02-14T18:38:32	4.4	71
2200	2023-02-14T18:48:32	4.7	69.5
2201	2023-02-14T18:58:32	4.7	69.5
2202	2023-02-14T19:08:32	4.4	70
2203	2023-02-14T19:18:32	4.5	71
2204	2023-02-14T19:28:32	4.5	72.5
2205	2023-02-14T19:38:32	4.7	73
2206	2023-02-14T19:48:32	4.8	75
2207	2023-02-14T19:58:32	4.8	75
2208	2023-02-14T20:08:32	4.8	75.5
2209	2023-02-14T20:18:32	5	75.5
2210	2023-02-14T20:28:32	4.9	75.5
2211	2023-02-14T20:38:32	4.9	76
2212	2023-02-14T20:48:32	4.7	76.5
2213	2023-02-14T20:58:32	4.7	77
2214	2023-02-14T21:08:32	4.6	77
2215	2023-02-14T21:18:32	4.8	77
2216	2023-02-14T21:28:32	4.6	77.5
2217	2023-02-14T21:38:32	4.7	77.5
2218	2023-02-14T21:48:32	4.6	77.5
2219	2023-02-14T21:58:32	4.7	77.5
2220	2023-02-14T22:08:32	4.2	78.5
2221	2023-02-14T22:18:32	3.9	80.5
2222	2023-02-14T22:28:32	4.1	79.5
2223	2023-02-14T22:38:32	4	80.5
2224	2023-02-14T22:48:32	3.4	82
2225	2023-02-14T22:58:32	3.2	83
2226	2023-02-14T23:08:32	3.1	83.5
2227	2023-02-14T23:18:32	3.2	84
2228	2023-02-14T23:28:32	3.3	83.5
2229	2023-02-14T23:38:33	3.2	84.5
2230	2023-02-14T23:48:32	3.3	83.5
2231	2023-02-14T23:58:32	3.2	84.5
2232	2023-02-15T00:08:32	2.9	85
2233	2023-02-15T00:18:32	3	85
2234	2023-02-15T00:28:32	2.6	85.5
2235	2023-02-15T00:38:32	2.5	86.5
2236	2023-02-15T00:48:32	2.4	86
2237	2023-02-15T00:58:32	2.3	86.5
2238	2023-02-15T01:08:32	2.3	86
2239	2023-02-15T01:18:32	2.4	87
2240	2023-02-15T01:28:32	2.7	85
2241	2023-02-15T01:38:32	2.9	84
2242	2023-02-15T01:48:32	3.1	83.5
2243	2023-02-15T01:58:32	3.1	83
2244	2023-02-15T02:08:32	3.1	82
2245	2023-02-15T02:18:32	3.2	82
2246	2023-02-15T02:28:32	2.9	82.5
2247	2023-02-15T02:38:32	2.8	84
2248	2023-02-15T02:48:32	2.5	84.5
2249	2023-02-15T02:58:32	2.8	83
2250	2023-02-15T03:08:32	2.8	83.5
2251	2023-02-15T03:18:32	3	82
2252	2023-02-15T03:28:32	3	81.5
2253	2023-02-15T03:38:32	2.6	80
2254	2023-02-15T03:48:32	2.6	81
2255	2023-02-15T03:58:32	2.7	79.5
2256	2023-02-15T04:08:32	2.5	81.5
2257	2023-02-15T04:18:32	2.6	82
2258	2023-02-15T04:28:32	2.9	81.5
2259	2023-02-15T04:38:32	2.5	82
2260	2023-02-15T04:48:32	2.3	83.5
2261	2023-02-15T04:58:32	2.1	83
2262	2023-02-15T05:08:32	2	84.5
2263	2023-02-15T05:18:32	2	84
2264	2023-02-15T05:28:32	2.3	84
2265	2023-02-15T05:38:32	2.3	83.5
2266	2023-02-15T05:48:32	2.5	83
2267	2023-02-15T05:58:32	2.5	83.5
2268	2023-02-15T06:08:32	2.6	83.5
2269	2023-02-15T06:18:32	2.5	83
2270	2023-02-15T06:28:32	2.5	84
2271	2023-02-15T06:38:32	2	86
2272	2023-02-15T06:48:32	2	85.5
2273	2023-02-15T06:58:32	2.1	86
2274	2023-02-15T07:08:32	1.4	88
2275	2023-02-15T07:18:32	1.4	88
2276	2023-02-15T07:28:32	1.1	88.5
2277	2023-02-15T07:38:32	1.4	88.5
2278	2023-02-15T07:48:32	1.5	87
2279	2023-02-15T07:58:32	1.6	87
2280	2023-02-15T08:08:32	1.8	85.5
2281	2023-02-15T08:18:32	1.8	86
2282	2023-02-15T08:28:32	2.1	86
2283	2023-02-15T08:38:32	2.2	85
2284	2023-02-15T08:48:32	2.1	83.5
2285	2023-02-15T08:58:32	2.1	84.5
2286	2023-02-15T09:08:32	2.4	83
2287	2023-02-15T09:18:32	2.7	81
2288	2023-02-15T09:28:32	2.6	81.5
2289	2023-02-15T09:38:32	3	80
2290	2023-02-15T09:48:32	3.1	80.5
2291	2023-02-15T09:58:50	3.2	79
2292	2023-02-15T10:08:32	3.2	80
2293	2023-02-15T10:18:32	2.8	80.5
2294	2023-02-15T10:28:32	2.5	83
2295	2023-02-15T10:38:32	2.9	81.5
2296	2023-02-15T10:48:32	2.9	81.5
2297	2023-02-15T10:58:32	2.9	83
2298	2023-02-15T11:08:32	3.6	81
2299	2023-02-15T11:18:32	3.6	79.5
2300	2023-02-15T11:28:32	3.8	79
2301	2023-02-15T11:38:32	4	79.5
2302	2023-02-15T11:48:32	4.4	78
2303	2023-02-15T11:58:32	4.7	76
2304	2023-02-15T12:08:32	4.9	77.5
2305	2023-02-15T12:18:32	4.5	77.5
2306	2023-02-15T12:28:32	4.5	77.5
2307	2023-02-15T12:38:32	5.3	76.5
2308	2023-02-15T12:48:32	5.4	74
2309	2023-02-15T12:58:32	5.5	74.5
2310	2023-02-15T13:08:32	5.4	73.5
2311	2023-02-15T13:18:32	5.8	74
2312	2023-02-15T13:28:32	6.6	70.5
2313	2023-02-15T13:38:51	7.9	66
2314	2023-02-15T13:48:32	8.4	63.5
2315	2023-02-15T13:58:32	9.7	62.5
2316	2023-02-15T14:08:49	10.3	56
2317	2023-02-15T14:18:32	11.9	54.5
2318	2023-02-15T14:28:32	12.1	51.5
2319	2023-02-15T14:38:32	11.7	51
2320	2023-02-15T14:48:32	12	51
2321	2023-02-15T14:58:32	11.1	53.5
2322	2023-02-15T15:08:32	11.2	54
2323	2023-02-15T15:18:32	10.5	54.5
2324	2023-02-15T15:28:32	10.3	56.5
2325	2023-02-15T15:38:32	9.8	57.5
2326	2023-02-15T15:48:32	9.9	58.5
2327	2023-02-15T15:58:32	9.2	60
2328	2023-02-15T16:08:32	8.7	61.5
2329	2023-02-15T16:18:32	7.2	67
2330	2023-02-15T16:28:32	6.6	69.5
2331	2023-02-15T16:38:32	6.7	69
2332	2023-02-15T16:48:32	6.4	70.5
2333	2023-02-15T16:58:32	6.4	71
2334	2023-02-15T17:08:32	6.8	68.5
2335	2023-02-15T17:18:32	6.8	67
2336	2023-02-15T17:28:32	6.6	68
2337	2023-02-15T17:38:32	6.5	67
2338	2023-02-15T17:48:32	6.3	68.5
2339	2023-02-15T17:58:32	6	68
2340	2023-02-15T18:08:32	5.8	68.5
2341	2023-02-15T18:18:32	4.8	69.5
2342	2023-02-15T18:28:32	4.8	71
2343	2023-02-15T18:38:32	5.1	70.5
2344	2023-02-15T18:48:32	4.6	71
2345	2023-02-15T18:58:32	4.7	72
2346	2023-02-15T19:08:32	4.7	71.5
2347	2023-02-15T19:18:32	4.4	69.5
2348	2023-02-15T19:28:32	3.9	71
2349	2023-02-15T19:38:32	3.9	72
2350	2023-02-15T19:48:32	3.7	72.5
2351	2023-02-15T19:58:32	2.9	78
2352	2023-02-15T20:08:32	3.5	76
2353	2023-02-15T20:18:32	2.9	79
2354	2023-02-15T20:28:32	2.5	83
2355	2023-02-15T20:38:32	2.5	83.5
2356	2023-02-15T20:48:32	2.3	83.5
2357	2023-02-15T20:58:32	1.7	86.5
2358	2023-02-15T21:08:32	1.7	88
2359	2023-02-15T21:18:32	1.8	88
2360	2023-02-15T21:28:32	2	88
2361	2023-02-15T21:38:32	1.8	89
2362	2023-02-15T21:48:32	1.4	91
2363	2023-02-15T21:58:32	1.2	91.5
2364	2023-02-15T22:08:32	1.4	90.5
2365	2023-02-15T22:18:32	1.6	88.5
2366	2023-02-15T22:28:32	1.4	89
2367	2023-02-15T22:38:32	1.8	87
2368	2023-02-15T22:48:32	1.8	87
2369	2023-02-15T22:58:32	1.8	86
2370	2023-02-15T23:08:32	2	86
2371	2023-02-15T23:18:32	1.6	88
2372	2023-02-15T23:28:32	1.7	88
2373	2023-02-15T23:38:32	1	91
2374	2023-02-15T23:48:32	1.2	90.5
2375	2023-02-15T23:58:32	1.1	89
2376	2023-02-16T00:08:32	1	90
2377	2023-02-16T00:18:32	0.7	90.5
2378	2023-02-16T00:28:32	0.9	89.5
2379	2023-02-16T00:38:32	1.2	88.5
2380	2023-02-16T00:48:32	0.8	89
2381	2023-02-16T00:58:32	1	88.5
2382	2023-02-16T01:08:32	0.7	89.5
2383	2023-02-16T01:18:31	0.9	88.5
2384	2023-02-16T01:28:32	0.8	88.5
2385	2023-02-16T01:38:32	0.6	90.5
2386	2023-02-16T01:48:31	0.5	91
2387	2023-02-16T01:58:31	0.6	90.5
2388	2023-02-16T02:08:32	0.6	90
2389	2023-02-16T02:18:31	0.4	89.5
2390	2023-02-16T02:28:31	0.3	90
2391	2023-02-16T02:38:31	0.3	89
2392	2023-02-16T02:48:31	0	90.5
2393	2023-02-16T02:58:31	0.2	90
2394	2023-02-16T03:08:31	0.3	90.5
2395	2023-02-16T03:18:31	0.1	91
2396	2023-02-16T03:28:31	0.3	90.5
2397	2023-02-16T03:38:31	0.3	90
2398	2023-02-16T03:48:32	0.5	89
2399	2023-02-16T03:58:31	0.4	89
2400	2023-02-16T04:08:31	0.2	89.5
2401	2023-02-16T04:18:31	0.2	89.5
2402	2023-02-16T04:28:32	0.4	89.5
2403	2023-02-16T04:38:32	0.2	90
2404	2023-02-16T04:48:32	0.1	89.5
2405	2023-02-16T04:58:31	0	89.5
2406	2023-02-16T05:08:31	-0.1	90
2407	2023-02-16T05:18:31	-0.3	90
2408	2023-02-16T05:28:31	-0.3	90
2409	2023-02-16T05:38:32	-0.4	91
2410	2023-02-16T05:48:31	-0.3	89.5
2411	2023-02-16T05:58:32	-0.5	89
2412	2023-02-16T06:08:31	-0.5	90.5
2413	2023-02-16T06:18:32	-0.5	90
2414	2023-02-16T06:28:31	-0.7	91
2415	2023-02-16T06:38:32	-0.6	91
2416	2023-02-16T06:48:32	-0.7	90.5
2417	2023-02-16T06:58:31	-0.7	91
2418	2023-02-16T07:08:31	-0.5	90
2419	2023-02-16T07:18:31	-0.7	89.5
2420	2023-02-16T07:28:32	-0.7	89
2421	2023-02-16T07:38:31	-0.2	89
2422	2023-02-16T07:48:31	-0.3	90
2423	2023-02-16T07:58:32	-0.1	91.5
2424	2023-02-16T08:08:32	0	91.5
2425	2023-02-16T08:28:31	0.3	91.5
2426	2023-02-16T08:38:31	0.5	91.5
2427	2023-02-16T08:48:31	1	91
2428	2023-02-16T08:58:31	1	90.5
2429	2023-02-16T09:08:31	1.2	90.5
2430	2023-02-16T09:18:31	1.4	90.5
2431	2023-02-16T09:28:32	1.8	91
2432	2023-02-16T09:38:31	2	90.5
2433	2023-02-16T09:48:32	2.4	90
2434	2023-02-16T09:58:31	2.7	90
2435	2023-02-16T10:08:31	3.1	89
2436	2023-02-16T10:18:32	3.7	87.5
2437	2023-02-16T10:28:31	4.2	86.5
2438	2023-02-16T10:38:31	4.7	85.5
2439	2023-02-16T10:48:31	5.1	84.5
2440	2023-02-16T10:58:31	5.9	79.5
2441	2023-02-16T11:08:31	6.6	77.5
2442	2023-02-16T11:18:31	7.1	74
2443	2023-02-16T11:28:31	7.7	71
2444	2023-02-16T11:38:31	8.2	69
2445	2023-02-16T11:48:31	8.4	68
2446	2023-02-16T11:58:31	9.2	65
2447	2023-02-16T12:08:31	9.5	66
2448	2023-02-16T12:18:31	10	63.5
2449	2023-02-16T12:28:31	10.4	62.5
2450	2023-02-16T12:38:31	10.6	60.5
2451	2023-02-16T12:48:31	10.7	61
2452	2023-02-16T12:58:31	11.8	59.5
2453	2023-02-16T13:08:31	13	55
2454	2023-02-16T13:18:31	14	51.5
2455	2023-02-16T13:28:31	14.4	50.5
2456	2023-02-16T13:38:31	14.3	50.5
2457	2023-02-16T13:48:31	14.4	48.5
2458	2023-02-16T13:58:31	14.2	49.5
2459	2023-02-16T14:08:31	14.1	47.5
2460	2023-02-16T14:18:31	14.3	42
2461	2023-02-16T14:28:31	14.3	42
2462	2023-02-16T14:38:31	14.2	43.5
2463	2023-02-16T14:48:31	14.1	43.5
2464	2023-02-16T14:58:31	13.9	45
2465	2023-02-16T15:08:31	13.7	46.5
2466	2023-02-16T15:18:31	13.7	47.5
2467	2023-02-16T15:28:31	13.5	48.5
2468	2023-02-16T15:38:31	13.3	49
2469	2023-02-16T15:48:31	13.1	50
2470	2023-02-16T15:58:31	13.2	50
2471	2023-02-16T16:08:31	13.1	50
2472	2023-02-16T16:18:32	12.9	50
2473	2023-02-16T16:28:31	12.8	50.5
2474	2023-02-16T16:38:31	12.7	51
2475	2023-02-16T16:48:31	12.5	51
2476	2023-02-16T16:58:31	12.5	51
2477	2023-02-16T17:08:31	12.3	54
2478	2023-02-16T17:18:31	12	57
2479	2023-02-16T17:28:31	11.6	59.5
2480	2023-02-16T17:38:31	11.4	60.5
2481	2023-02-16T17:48:31	11.3	62
2482	2023-02-16T17:58:31	11.2	60
2483	2023-02-16T18:08:31	11.2	61
2484	2023-02-16T18:18:31	11.1	61.5
2485	2023-02-16T18:28:31	11.1	62
2486	2023-02-16T18:38:31	11	60.5
2487	2023-02-16T18:48:31	11	59
2488	2023-02-16T18:58:31	11.2	56.5
2489	2023-02-16T19:08:31	11.3	55.5
2490	2023-02-16T19:18:31	11.6	53.5
2491	2023-02-16T19:28:31	11.8	52.5
2492	2023-02-16T19:38:31	12	51.5
2493	2023-02-16T19:48:31	12.3	50.5
2494	2023-02-16T19:58:31	12.3	49.5
2495	2023-02-16T20:08:31	12.5	49
2496	2023-02-16T20:18:31	12.4	49.5
2497	2023-02-16T20:28:31	12.4	50.5
2498	2023-02-16T20:38:31	12.3	50
2499	2023-02-16T20:48:31	12.2	51
2500	2023-02-16T20:58:31	12.1	51.5
2501	2023-02-16T21:08:31	12.1	51
2502	2023-02-16T21:18:31	12	51.5
2503	2023-02-16T21:28:31	12	50.5
2504	2023-02-16T21:38:31	12.1	50
2505	2023-02-16T21:48:31	12.2	50
2506	2023-02-16T21:58:31	12.1	50
2507	2023-02-16T22:08:31	12.1	50.5
2508	2023-02-16T22:18:31	12.1	50
2509	2023-02-16T22:28:31	12	50
2510	2023-02-16T22:38:31	12.1	50
2511	2023-02-16T22:48:31	12.1	50
2512	2023-02-16T22:58:31	12.2	50
2513	2023-02-16T23:08:31	12.1	50
2514	2023-02-16T23:18:31	12.2	50
2515	2023-02-16T23:28:31	12.1	50
2516	2023-02-16T23:38:31	12.1	49.5
2517	2023-02-16T23:48:31	12.2	50
2518	2023-02-16T23:58:31	12.1	50.5
2519	2023-02-17T00:08:31	12.2	50
2520	2023-02-17T00:18:31	12.1	50
2521	2023-02-17T00:28:31	12	50
2522	2023-02-17T00:38:31	12.2	50
2523	2023-02-17T00:48:31	12.1	50
2524	2023-02-17T00:58:30	12.1	50.5
2525	2023-02-17T01:08:30	12.1	50
2526	2023-02-17T01:18:30	12.2	50
2527	2023-02-17T01:28:30	12.3	49.5
2528	2023-02-17T01:38:30	12.2	49.5
2529	2023-02-17T01:48:30	12.1	50.5
2530	2023-02-17T01:58:30	12	51
2531	2023-02-17T02:08:30	11.9	52
2532	2023-02-17T02:18:30	12	52
2533	2023-02-17T02:28:30	12	52.5
2534	2023-02-17T02:38:30	11.9	52.5
2535	2023-02-17T02:48:30	11.7	53.5
2536	2023-02-17T02:58:30	11.6	53.5
2537	2023-02-17T03:08:30	11.5	56.5
2538	2023-02-17T03:18:30	11.5	59.5
2539	2023-02-17T03:28:30	11.4	59.5
2540	2023-02-17T03:38:30	11.2	63
2541	2023-02-17T03:48:30	10.9	64.5
2542	2023-02-17T03:58:30	10.8	63
2543	2023-02-17T04:08:30	10.8	62
2544	2023-02-17T04:18:30	10.8	61.5
2545	2023-02-17T04:28:30	10.8	61
2546	2023-02-17T04:38:30	10.9	61.5
2547	2023-02-17T04:48:30	11.2	61
2548	2023-02-17T05:08:30	11.4	64.5
2549	2023-02-17T05:18:30	11.3	64
2550	2023-02-17T05:28:30	11.2	63.5
2551	2023-02-17T05:38:30	11	64.5
2552	2023-02-17T05:48:30	10.9	66.5
2553	2023-02-17T05:58:30	10.7	67.5
2554	2023-02-17T06:08:30	10.8	67
2555	2023-02-17T06:18:30	10.8	67
2556	2023-02-17T06:28:30	10.8	68.5
2557	2023-02-17T06:38:30	10.8	68.5
2558	2023-02-17T06:48:30	10.9	67.5
2559	2023-02-17T06:58:30	10.9	68
2560	2023-02-17T07:08:30	11.2	65
2561	2023-02-17T07:18:30	11.2	63.5
2562	2023-02-17T07:28:30	11.1	62.5
2563	2023-02-17T07:38:30	11.2	62.5
2564	2023-02-17T07:48:30	11.3	63
2565	2023-02-17T07:58:30	11.3	64
2566	2023-02-17T08:08:30	11.5	65.5
2567	2023-02-17T08:18:30	11.4	66.5
2568	2023-02-17T08:28:30	11.5	67
2569	2023-02-17T08:38:30	11.3	71.5
2570	2023-02-17T08:48:30	11.1	73.5
2571	2023-02-17T08:58:30	11.1	73.5
2572	2023-02-17T09:08:30	11.2	74
2573	2023-02-17T09:18:30	11.2	73.5
2574	2023-02-17T09:28:30	11.5	72
2575	2023-02-17T09:38:30	11.5	71.5
2576	2023-02-17T09:48:30	11.7	71
2577	2023-02-17T09:58:30	12	69.5
2578	2023-02-17T10:08:30	12.3	69
2579	2023-02-17T10:18:30	12.3	69
2580	2023-02-17T10:28:30	12.5	68.5
2581	2023-02-17T10:38:30	12.7	68
2582	2023-02-17T10:48:30	12.8	67.5
2583	2023-02-17T10:58:30	12.7	68.5
2584	2023-02-17T11:08:30	12.8	68
2585	2023-02-17T11:18:30	12.8	68
2586	2023-02-17T11:28:30	12.8	69
2587	2023-02-17T11:38:30	12.7	69.5
2588	2023-02-17T11:48:30	12.6	70.5
2589	2023-02-17T11:58:30	12.5	71
2590	2023-02-17T12:08:30	12.5	71.5
2591	2023-02-17T12:18:30	12.6	71.5
2592	2023-02-17T12:28:30	12.7	71.5
2593	2023-02-17T12:38:30	12.6	72
2594	2023-02-17T12:48:30	12.7	71.5
2595	2023-02-17T12:58:30	13	70.5
2596	2023-02-17T13:08:30	13.3	69.5
2597	2023-02-17T13:18:30	13.3	69
2598	2023-02-17T13:28:30	13.3	69.5
2599	2023-02-17T13:38:30	13.3	69
2600	2023-02-17T13:48:30	13.4	69
2601	2023-02-17T13:58:30	13.4	70
2602	2023-02-17T14:08:30	13.2	70.5
2603	2023-02-17T14:18:30	13.2	70
2604	2023-02-17T14:28:30	13.3	69.5
2605	2023-02-17T14:38:30	13.3	69.5
2606	2023-02-17T14:48:30	13.3	69
2607	2023-02-17T14:58:30	13.4	69.5
2608	2023-02-17T15:08:30	13.4	69.5
2609	2023-02-17T15:18:30	13.4	69.5
2610	2023-02-17T15:28:30	13.5	69.5
2611	2023-02-17T15:38:30	13.6	70
2612	2023-02-17T15:48:30	13.5	70
2613	2023-02-17T15:58:30	13.6	70
2614	2023-02-17T16:18:29	13.6	70
2615	2023-02-17T16:28:30	13.5	70
2616	2023-02-17T16:38:29	13.5	71
2617	2023-02-17T16:48:29	13.3	72
2618	2023-02-17T17:08:29	13.2	73
2619	2023-02-17T17:18:29	13.1	73
2620	2023-02-17T17:28:29	13.3	73
2621	2023-02-17T17:38:29	13.2	73.5
2622	2023-02-17T17:48:29	13.2	74
2623	2023-02-17T17:58:29	13.1	74.5
2624	2023-02-17T18:08:29	13.2	74
2625	2023-02-17T18:18:29	13.1	74
2626	2023-02-17T18:28:29	13	76
2627	2023-02-17T18:38:29	12.7	76.5
2628	2023-02-17T18:58:29	12.9	76
2629	2023-02-17T19:08:29	12.8	76.5
2630	2023-02-17T19:18:29	12.7	75.5
2631	2023-02-17T19:28:29	12.7	76
2632	2023-02-17T19:38:29	12.2	80.5
2633	2023-02-17T19:48:29	11.6	85.5
2634	2023-02-17T19:58:29	11.2	87
2635	2023-02-17T20:08:29	11.2	87
2636	2023-02-17T20:18:29	11.3	86
2637	2023-02-17T20:28:29	11.5	84
2638	2023-02-17T20:38:29	11.6	83.5
2639	2023-02-17T20:48:29	11.7	83
2640	2023-02-17T21:08:29	12.1	80
2641	2023-02-17T21:18:29	12.3	78
2642	2023-02-17T21:28:29	12.6	76
2643	2023-02-17T21:38:29	12.7	75.5
2644	2023-02-17T21:48:29	12.8	75
2645	2023-02-17T21:58:29	12.7	75
2646	2023-02-17T22:08:29	12.8	74.5
2647	2023-02-17T22:18:29	12.9	74
2648	2023-02-17T22:28:29	12.9	74
2649	2023-02-17T22:38:29	12.9	74
2650	2023-02-17T22:48:29	12.9	74.5
2651	2023-02-17T22:58:29	12.9	74
2652	2023-02-17T23:08:29	12.9	73.5
2653	2023-02-17T23:18:29	12.9	73.5
2654	2023-02-17T23:28:29	13	73
2655	2023-02-17T23:38:29	13	73
2656	2023-02-17T23:48:29	13	72.5
2657	2023-02-17T23:58:29	12.9	72.5
2658	2023-02-18T00:08:29	13	72.5
2659	2023-02-18T00:18:29	13.1	72.5
2660	2023-02-18T00:28:29	13.1	72
2661	2023-02-18T00:38:29	13.1	72
2662	2023-02-18T00:48:29	13	72.5
2663	2023-02-18T00:58:29	13.1	72
2664	2023-02-18T01:08:29	13	72
2665	2023-02-18T01:18:29	13.1	71.5
2666	2023-02-18T01:28:29	13.1	71.5
2667	2023-02-18T01:38:29	13	72
2668	2023-02-18T01:48:29	12.9	72.5
2669	2023-02-18T01:58:29	12.9	73
2670	2023-02-18T02:08:29	12.8	74
2671	2023-02-18T02:18:29	12.7	74.5
2672	2023-02-18T02:28:29	12.7	74.5
2673	2023-02-18T02:38:29	12.6	75
2674	2023-02-18T02:48:29	12.4	76
2675	2023-02-18T02:58:29	12.4	76
2676	2023-02-18T03:08:29	12.4	76
2677	2023-02-18T03:18:29	12.5	75.5
2678	2023-02-18T03:28:29	12.5	75.5
2679	2023-02-18T03:38:29	12.4	75.5
2680	2023-02-18T03:48:29	12.5	75.5
2681	2023-02-18T03:58:29	12.4	75.5
2682	2023-02-18T04:08:29	12.3	76.5
2683	2023-02-18T04:18:29	12.3	77
2684	2023-02-18T04:28:29	12.3	77
2685	2023-02-18T04:38:29	12.3	77.5
2686	2023-02-18T04:48:29	12.2	77.5
2687	2023-02-18T04:58:29	12.2	78
2688	2023-02-18T05:08:29	12.3	78
2689	2023-02-18T05:18:29	12.2	78
2690	2023-02-18T05:28:29	12.2	78
2691	2023-02-18T05:38:29	12.2	77.5
2692	2023-02-18T05:48:29	12.3	77
2693	2023-02-18T05:58:29	12.3	77
2694	2023-02-18T06:08:29	12.4	77
2695	2023-02-18T06:18:29	12.2	77
2696	2023-02-18T06:28:28	12.3	76
2697	2023-02-18T06:38:28	12.4	75.5
2698	2023-02-18T06:48:28	12.6	74.5
2699	2023-02-18T06:58:28	12.7	73.5
2700	2023-02-18T07:08:28	12.7	73
2701	2023-02-18T07:18:28	12.9	72
2702	2023-02-18T07:28:28	13	71.5
2703	2023-02-18T07:38:28	13	70.5
2704	2023-02-18T07:48:28	13.2	70.5
2705	2023-02-18T07:58:28	13.1	70
2706	2023-02-18T08:08:28	13.3	70.5
2707	2023-02-18T08:18:28	13.3	70.5
2708	2023-02-18T08:28:28	13.3	70.5
2709	2023-02-18T08:38:28	13.4	69.5
2710	2023-02-18T08:48:28	13.4	70
2711	2023-02-18T08:58:28	13.4	71
2712	2023-02-18T09:08:28	13.3	71
2713	2023-02-18T09:18:28	13.4	71
2714	2023-02-18T09:28:28	13.5	70.5
2715	2023-02-18T09:38:28	13.6	69.5
2716	2023-02-18T09:48:28	13.8	68.5
2717	2023-02-18T09:58:28	13.9	69
2718	2023-02-18T10:08:28	13.8	68.5
2719	2023-02-18T10:18:28	13.9	69
2720	2023-02-18T10:28:28	13.8	68.5
2721	2023-02-18T10:38:28	14	68
2722	2023-02-18T10:48:28	13.8	68.5
2723	2023-02-18T10:58:28	14	68.5
2724	2023-02-18T11:08:28	14.1	68
2725	2023-02-18T11:18:28	14.3	67
2726	2023-02-18T11:28:28	14.4	66
2727	2023-02-18T11:38:28	14.5	65.5
2728	2023-02-18T11:48:28	14.6	65
2729	2023-02-18T11:58:28	14.7	64.5
2730	2023-02-18T12:08:28	14.7	64.5
2731	2023-02-18T12:18:28	14.8	64.5
2732	2023-02-18T12:28:28	14.7	64.5
2733	2023-02-18T12:38:28	14.9	61.5
2734	2023-02-18T12:48:28	15	61
2735	2023-02-18T12:58:28	15.1	61
2736	2023-02-18T13:08:28	14.9	61.5
2737	2023-02-18T13:18:28	14.8	61.5
2738	2023-02-18T13:28:28	14.9	63
2739	2023-02-18T13:38:28	14.9	60.5
2740	2023-02-18T13:48:28	15.9	56.5
2741	2023-02-18T13:58:28	15.6	57.5
2742	2023-02-18T14:08:28	15.5	57
2743	2023-02-18T14:18:28	15.6	56
2744	2023-02-18T14:28:28	15.3	55
2745	2023-02-18T14:38:28	15.1	55.5
2746	2023-02-18T14:48:28	14.8	56.5
2747	2023-02-18T14:58:28	14.6	57.5
2748	2023-02-18T15:08:28	14.5	58
2749	2023-02-18T15:18:28	14.4	58
2750	2023-02-18T15:28:28	14.4	57.5
2751	2023-02-18T15:38:28	14.1	58
2752	2023-02-18T15:48:28	14	60
2753	2023-02-18T15:58:28	13.8	61
2754	2023-02-18T16:08:28	13.6	62
2755	2023-02-18T16:18:28	13.5	62.5
2756	2023-02-18T16:28:28	13.3	63
2757	2023-02-18T16:38:28	13.3	63.5
2758	2023-02-18T16:48:28	13.1	64
2759	2023-02-18T16:58:28	13	64.5
2760	2023-02-18T17:08:28	12.8	65
2761	2023-02-18T17:18:28	12.8	65.5
2762	2023-02-18T17:28:28	12.6	66
2763	2023-02-18T17:38:28	12.4	66
2764	2023-02-18T17:48:28	12.4	66.5
2765	2023-02-18T17:58:28	12.4	67
2766	2023-02-18T18:08:28	12.4	67.5
2767	2023-02-18T18:18:28	12.2	68
2768	2023-02-18T18:28:28	12.2	68.5
2769	2023-02-18T18:38:28	11.9	69.5
2770	2023-02-18T19:08:28	11.7	70
2771	2023-02-18T19:18:28	11.6	70.5
2772	2023-02-18T19:28:28	11.5	71.5
2773	2023-02-18T19:38:27	11.3	72
2774	2023-02-18T19:48:28	11.2	73
2775	2023-02-18T19:58:28	11	74
2776	2023-02-18T20:08:27	11	74.5
2777	2023-02-18T20:18:27	11	75
2778	2023-02-18T20:28:27	10.9	76
2779	2023-02-18T20:38:27	10.6	76
2780	2023-02-18T20:48:27	10.6	77
2781	2023-02-18T20:58:27	10.6	77
2782	2023-02-18T21:08:27	10.5	77.5
2783	2023-02-18T21:18:27	10.5	79.5
2784	2023-02-18T21:38:27	10.3	80.5
2785	2023-02-18T21:48:27	10.2	81
2786	2023-02-18T21:58:27	10.1	80.5
2787	2023-02-18T22:08:27	10.2	79
2788	2023-02-18T22:18:27	9.8	82.5
2789	2023-02-18T22:28:27	9.8	81
2790	2023-02-18T22:38:27	10	79.5
2791	2023-02-18T22:48:27	10.1	79
2792	2023-02-18T22:58:27	10.1	79.5
2793	2023-02-18T23:08:27	10.1	80
2794	2023-02-18T23:18:27	10.1	80
2795	2023-02-18T23:28:27	10.1	80.5
2796	2023-02-18T23:38:27	9.9	82
2797	2023-02-18T23:48:27	9.7	84
2798	2023-02-18T23:58:27	9.5	85
2799	2023-02-19T00:08:27	9.3	87.5
2800	2023-02-19T00:18:27	9	91
2801	2023-02-19T00:28:27	8.9	92.5
2802	2023-02-19T00:38:27	8.8	93.5
2803	2023-02-19T00:48:27	8.7	94.5
2804	2023-02-19T00:58:27	8.7	95
2805	2023-02-19T01:08:27	8.6	95.5
2806	2023-02-19T01:18:27	8.6	95.5
2807	2023-02-19T01:28:27	8.6	95.5
2808	2023-02-19T01:38:27	8.6	95.5
2809	2023-02-19T01:48:27	8.5	96
2810	2023-02-19T01:58:27	8.4	96.5
2811	2023-02-19T02:08:27	8.4	96.5
2812	2023-02-19T02:18:27	8.4	96.5
2813	2023-02-19T02:28:27	8.4	96.5
2814	2023-02-19T02:38:27	8.5	96.5
2815	2023-02-19T02:48:27	8.4	96
2816	2023-02-19T02:58:27	8.4	95.5
2817	2023-02-19T03:08:27	8.4	95.5
2818	2023-02-19T03:18:27	8.4	95
2819	2023-02-19T03:28:27	8.4	94.5
2820	2023-02-19T03:38:27	8.4	94.5
2821	2023-02-19T03:48:27	8.5	93
2822	2023-02-19T03:58:27	8.5	92
2823	2023-02-19T04:08:27	8.5	92.5
2824	2023-02-19T04:18:27	8.5	93
2825	2023-02-19T04:28:27	8.4	93.5
2826	2023-02-19T04:38:27	8.5	93.5
2827	2023-02-19T04:48:27	8.4	94.5
2828	2023-02-19T04:58:27	8.4	95.5
2829	2023-02-19T05:08:27	8.3	96
2830	2023-02-19T05:18:27	8.3	96.5
2831	2023-02-19T05:28:27	8.3	97
2832	2023-02-19T05:38:27	8.2	96.5
2833	2023-02-19T05:48:27	8.2	96.5
2834	2023-02-19T05:58:27	8.3	96
2835	2023-02-19T06:08:27	8.4	95.5
2836	2023-02-19T06:18:27	8.3	95
2837	2023-02-19T06:28:27	8.4	96
2838	2023-02-19T06:38:27	8.2	96
2839	2023-02-19T06:48:27	8.3	96
2840	2023-02-19T06:58:27	8.3	95.5
2841	2023-02-19T07:08:27	8.4	94
2842	2023-02-19T07:18:27	8.4	93.5
2843	2023-02-19T07:28:27	8.4	93
2844	2023-02-19T07:38:27	8.7	92
2845	2023-02-19T07:48:27	8.4	94
2846	2023-02-19T07:58:27	8.4	94.5
2847	2023-02-19T08:08:27	8.5	94
2848	2023-02-19T08:18:27	8.5	93
2849	2023-02-19T08:28:27	8.5	92.5
2850	2023-02-19T08:38:27	8.7	91.5
2851	2023-02-19T08:48:27	8.9	90.5
2852	2023-02-19T08:58:27	9.1	90
2853	2023-02-19T09:08:27	9.1	89.5
2854	2023-02-19T09:18:27	9.3	88
2855	2023-02-19T09:28:27	9.3	87.5
2856	2023-02-19T09:38:27	9.2	87.5
2857	2023-02-19T09:48:27	9.4	87.5
2858	2023-02-19T09:58:27	9.4	87.5
2859	2023-02-19T10:08:27	9.5	87
2860	2023-02-19T10:18:27	9.6	86.5
2861	2023-02-19T10:28:27	9.5	86.5
2862	2023-02-19T10:38:27	9.6	85.5
2863	2023-02-19T10:48:27	9.9	83.5
2864	2023-02-19T10:58:27	10.1	83
2865	2023-02-19T11:08:27	10.3	81
2866	2023-02-19T11:18:27	10.5	78.5
2867	2023-02-19T11:28:27	10.7	77
2868	2023-02-19T11:38:27	11.1	74.5
2869	2023-02-19T11:48:27	11.2	75
2870	2023-02-19T12:08:27	11.2	72.5
2871	2023-02-19T12:18:27	11.3	72
2872	2023-02-19T12:28:27	11.5	72
2873	2023-02-19T12:38:27	11.7	70.5
2874	2023-02-19T12:48:27	11.8	68
2875	2023-02-19T12:58:27	11.8	67.5
2876	2023-02-19T13:08:27	11.9	66.5
2877	2023-02-19T13:18:27	11.9	65.5
2878	2023-02-19T13:28:27	12	65
2879	2023-02-19T13:38:27	11.7	66
2880	2023-02-19T13:48:27	11.8	67.5
2881	2023-02-19T13:58:27	11.6	68.5
2882	2023-02-19T14:08:26	11.7	69.5
2883	2023-02-19T14:18:26	11.6	69
2884	2023-02-19T14:28:26	11.6	69
2885	2023-02-19T14:38:26	11.7	69
2886	2023-02-19T14:48:26	11.4	68
2887	2023-02-19T14:58:26	11.4	70.5
2888	2023-02-19T15:08:26	11.1	72
2889	2023-02-19T15:18:26	11	72.5
2890	2023-02-19T15:28:26	10.9	73.5
2891	2023-02-19T15:38:26	10.9	74.5
2892	2023-02-19T15:48:26	10.7	74
2893	2023-02-19T15:58:26	10.7	75
2894	2023-02-19T16:08:26	10.6	74
2895	2023-02-19T16:18:26	10.6	73.5
2896	2023-02-19T16:28:26	10.6	74.5
2897	2023-02-19T16:38:26	10.5	74
2898	2023-02-19T16:48:26	10.4	72.5
2899	2023-02-19T16:58:26	10.4	73
2900	2023-02-19T17:08:26	10.3	74
2901	2023-02-19T17:18:26	10.2	74.5
2902	2023-02-19T17:28:26	10.2	74
2903	2023-02-19T17:38:26	10.1	74.5
2904	2023-02-19T17:48:26	10.1	74.5
2905	2023-02-19T17:58:26	10.1	75
2906	2023-02-19T18:08:26	10	75
2907	2023-02-19T18:18:26	9.9	75
2908	2023-02-19T18:28:26	10	75.5
2909	2023-02-19T18:38:26	9.9	75.5
2910	2023-02-19T18:48:26	10	75
2911	2023-02-19T18:58:26	9.9	75
2912	2023-02-19T19:08:26	10	74
2913	2023-02-19T19:18:26	10	74.5
2914	2023-02-19T19:28:26	9.8	75
2915	2023-02-19T19:38:26	9.7	76
2916	2023-02-19T19:48:26	9.7	75.5
2917	2023-02-19T19:58:26	9.7	75.5
2918	2023-02-19T20:08:26	9.7	75
2919	2023-02-19T20:18:26	9.7	75.5
2920	2023-02-19T20:28:26	9.7	75.5
2921	2023-02-19T20:38:26	9.7	76.5
2922	2023-02-19T20:48:26	9.7	77.5
2923	2023-02-19T20:58:26	9.5	78
2924	2023-02-19T21:08:26	9.5	78
2925	2023-02-19T21:18:26	9.5	78.5
2926	2023-02-19T21:28:26	9.4	77.5
2927	2023-02-19T21:38:26	9.5	77
2928	2023-02-19T21:48:26	9.5	76.5
2929	2023-02-19T21:58:26	9.4	76.5
2930	2023-02-19T22:08:26	9.5	76
2931	2023-02-19T22:18:26	9.5	76.5
2932	2023-02-19T22:28:26	9.4	76.5
2933	2023-02-19T22:38:26	9.3	76.5
2934	2023-02-19T22:48:26	9.4	76.5
2935	2023-02-19T22:58:26	9.4	76.5
2936	2023-02-19T23:08:26	9.2	76.5
2937	2023-02-19T23:18:26	9	77
2938	2023-02-19T23:28:26	8.7	78.5
2939	2023-02-19T23:38:26	8.5	79
2940	2023-02-19T23:48:26	8.4	79.5
2941	2023-02-19T23:58:26	8.3	80
2942	2023-02-20T00:08:26	8.2	80.5
2943	2023-02-20T00:18:26	8.1	80.5
2944	2023-02-20T00:28:26	8.1	80.5
2945	2023-02-20T00:38:26	8	80.5
2946	2023-02-20T00:48:26	7.9	81
2947	2023-02-20T00:58:26	7.7	81.5
2948	2023-02-20T01:08:26	7.7	81.5
2949	2023-02-20T01:18:26	7.6	81.5
2950	2023-02-20T01:28:26	7.5	81.5
2951	2023-02-20T01:38:26	7.5	81
2952	2023-02-20T01:58:26	7.5	81
2953	2023-02-20T02:08:26	7.4	81.5
2954	2023-02-20T02:18:26	7.4	81
2955	2023-02-20T02:28:26	7.2	81.5
2956	2023-02-20T02:38:26	7.3	81.5
2957	2023-02-20T02:48:26	7.2	82
2958	2023-02-20T02:58:26	6.9	82.5
2959	2023-02-20T03:08:26	6.7	83
2960	2023-02-20T03:18:26	6.7	83.5
2961	2023-02-20T03:28:26	6.7	83.5
2962	2023-02-20T03:38:26	6.7	83.5
2963	2023-02-20T03:48:26	6.7	83.5
2964	2023-02-20T03:58:26	6.6	84
2965	2023-02-20T04:08:26	6.7	84
2966	2023-02-20T04:18:26	6.6	84
2967	2023-02-20T04:28:26	6.6	84
2968	2023-02-20T04:38:26	6.7	84
2969	2023-02-20T04:48:26	6.7	83.5
2970	2023-02-20T04:58:26	6.6	84
2971	2023-02-20T05:08:26	6.3	85
2972	2023-02-20T05:18:26	6.2	85.5
2973	2023-02-20T05:28:26	6	86
2974	2023-02-20T05:38:26	6	86
2975	2023-02-20T05:48:26	5.8	87
2976	2023-02-20T05:58:26	5.6	87
2977	2023-02-20T06:08:26	5.3	87.5
2978	2023-02-20T06:18:26	5.1	88
2979	2023-02-20T06:28:26	5.3	88.5
2980	2023-02-20T06:38:26	5.4	87.5
2981	2023-02-20T06:48:26	5.5	87
2982	2023-02-20T06:58:26	5.8	86.5
2983	2023-02-20T07:08:26	5.7	86
2984	2023-02-20T07:18:26	5.9	86
2985	2023-02-20T07:28:26	6	86
2986	2023-02-20T07:38:26	6.2	85.5
2987	2023-02-20T07:48:26	6.5	84
2988	2023-02-20T07:58:26	7	82.5
2989	2023-02-20T08:08:26	7	81
2990	2023-02-20T08:18:26	7.5	79.5
2991	2023-02-20T08:28:26	7.8	78.5
2992	2023-02-20T08:38:26	8	77
2993	2023-02-20T08:48:25	8.3	76
2994	2023-02-20T08:58:26	8.7	75
2995	2023-02-20T09:08:26	9.2	73
2996	2023-02-20T09:18:26	9.4	71
2997	2023-02-20T09:28:25	9.6	69.5
2998	2023-02-20T09:38:25	9.8	69
2999	2023-02-20T09:48:25	10.2	68
3000	2023-02-20T09:58:25	10.4	66.5
3001	2023-02-20T10:08:25	10.6	65.5
3002	2023-02-20T10:18:25	10.9	64.5
3003	2023-02-20T10:28:25	11	63.5
3004	2023-02-20T10:38:25	11.2	62.5
3005	2023-02-20T10:48:25	11.4	63.5
3006	2023-02-20T10:58:25	11.7	61.5
3007	2023-02-20T11:08:25	11.7	61
3008	2023-02-20T11:18:25	11.9	60.5
3009	2023-02-20T11:28:25	12.1	59.5
3010	2023-02-20T11:38:25	12.3	58.5
3011	2023-02-20T11:48:26	12.4	58
3012	2023-02-20T11:58:26	12.4	57.5
3013	2023-02-20T12:08:25	12.7	57
3014	2023-02-20T12:18:26	13.2	54
3015	2023-02-20T12:28:25	13.8	52.5
3016	2023-02-20T12:38:25	15.7	46.5
3017	2023-02-20T12:48:25	16.8	44
3018	2023-02-20T12:58:25	17.2	42
3019	2023-02-20T13:08:25	17.4	42
3020	2023-02-20T13:18:25	18.1	40
3021	2023-02-20T13:28:25	18.2	39.5
3022	2023-02-20T13:38:25	18	40
3023	2023-02-20T13:48:26	18.3	39
3024	2023-02-20T13:58:25	18.7	38.5
3025	2023-02-20T14:08:25	18.9	39
3026	2023-02-20T14:28:25	18.8	38
3027	2023-02-20T14:38:25	19.1	37.5
3028	2023-02-20T14:48:25	18.7	37.5
3029	2023-02-20T14:58:25	19	38
3030	2023-02-20T15:08:25	18.9	38
3031	2023-02-20T15:18:25	19	38.5
3032	2023-02-20T15:28:25	18.9	38
3033	2023-02-20T15:38:25	18.6	39.5
3034	2023-02-20T15:48:25	17.9	40.5
3035	2023-02-20T15:58:25	17.7	41.5
3036	2023-02-20T16:08:25	17.4	42
3037	2023-02-20T16:18:25	17.1	43
3038	2023-02-20T16:28:25	16.1	46
3039	2023-02-20T16:38:25	15.3	47.5
3040	2023-02-20T16:48:25	14.4	50.5
3041	2023-02-20T16:58:25	14	52
3042	2023-02-20T17:08:25	13.5	53.5
3043	2023-02-20T17:18:25	13.3	54.5
3044	2023-02-20T17:28:25	12.9	56
3045	2023-02-20T17:38:25	12.7	56
3046	2023-02-20T17:48:25	12.5	56.5
3047	2023-02-20T17:58:25	12.2	57.5
3048	2023-02-20T18:08:25	11.9	58.5
3049	2023-02-20T18:18:44	11.6	59.5
3050	2023-02-20T18:28:25	11.4	60.5
3051	2023-02-20T18:38:25	11.3	61
3052	2023-02-20T18:48:25	11	61.5
3053	2023-02-20T18:58:25	11	61.5
3054	2023-02-20T19:08:25	10.9	61.5
3055	2023-02-20T19:18:25	11.1	60.5
3056	2023-02-20T19:28:25	11	59.5
3057	2023-02-20T19:38:25	11	58.5
3058	2023-02-20T19:48:25	10.6	60
3059	2023-02-20T19:58:25	10.5	63.5
3060	2023-02-20T20:18:25	9.8	64
3061	2023-02-20T20:28:25	9.5	64.5
3062	2023-02-20T20:38:25	9	65.5
3063	2023-02-20T20:48:25	8.9	65.5
3064	2023-02-20T20:58:25	8.3	67
3065	2023-02-20T21:08:25	8.5	67.5
3066	2023-02-20T21:18:25	8.3	68
3067	2023-02-20T21:28:25	8.2	69
3068	2023-02-20T21:38:25	7.9	71
3069	2023-02-20T21:48:25	8.1	69
3070	2023-02-20T21:58:25	8.2	68
3071	2023-02-20T22:08:25	8.6	66.5
3072	2023-02-20T22:18:25	9	65.5
3073	2023-02-20T22:28:25	9.2	65
3074	2023-02-20T22:48:25	9	65.5
3075	2023-02-20T22:58:25	8.7	66.5
3076	2023-02-20T23:08:25	8.3	69
3077	2023-02-20T23:18:25	8	69
3078	2023-02-20T23:28:25	7.7	70.5
3079	2023-02-20T23:38:25	7.4	71.5
3080	2023-02-20T23:48:25	7	72
3081	2023-02-20T23:58:25	6.7	74
3082	2023-02-21T00:08:25	6.3	74
3083	2023-02-21T00:18:24	6.1	75
3084	2023-02-21T00:28:24	6	76
3085	2023-02-21T00:38:24	5.9	76.5
3086	2023-02-21T00:48:24	5.8	77.5
3087	2023-02-21T00:58:24	5.7	77.5
3088	2023-02-21T01:08:24	5.7	78
3089	2023-02-21T01:18:24	5.6	79
3090	2023-02-21T01:28:24	5.7	78
3091	2023-02-21T01:38:24	5.8	77.5
3092	2023-02-21T01:48:24	5.4	79
3093	2023-02-21T01:58:46	5.5	78
3094	2023-02-21T02:08:24	5.4	79
3095	2023-02-21T02:18:24	5.2	78.5
3096	2023-02-21T02:28:24	4.9	80
3097	2023-02-21T02:38:24	4.9	80.5
3098	2023-02-21T02:48:24	4.7	81
3099	2023-02-21T02:58:24	4.6	81
3100	2023-02-21T03:08:24	4.5	81
3101	2023-02-21T03:18:24	4.4	82
3102	2023-02-21T03:28:24	4.4	81.5
3103	2023-02-21T03:38:24	4.4	81.5
3104	2023-02-21T03:48:24	4.2	82
3105	2023-02-21T03:58:24	4.2	82
3106	2023-02-21T04:08:24	4.1	82.5
3107	2023-02-21T04:18:24	3.9	82.5
3108	2023-02-21T04:28:24	4.1	82.5
3109	2023-02-21T04:38:24	3.8	82.5
3110	2023-02-21T04:48:24	3.6	84
3111	2023-02-21T04:58:24	3.5	83.5
3112	2023-02-21T05:08:24	3.4	83.5
3113	2023-02-21T05:18:24	3.1	84
3114	2023-02-21T05:28:24	3.1	85
3115	2023-02-21T05:38:24	3	84.5
3116	2023-02-21T05:48:24	2.9	85
3117	2023-02-21T05:58:24	2.8	86
3118	2023-02-21T06:08:24	2.8	84.5
3119	2023-02-21T06:18:24	2.5	86
3120	2023-02-21T06:28:24	2.7	86.5
3121	2023-02-21T06:38:24	2.6	86.5
3122	2023-02-21T06:48:24	2.7	86
3123	2023-02-21T06:58:24	2.6	86
3124	2023-02-21T07:08:24	2.7	86.5
3125	2023-02-21T07:18:24	2.7	86.5
3126	2023-02-21T07:28:24	2.9	87.5
3127	2023-02-21T07:38:24	3	87.5
3128	2023-02-21T07:48:24	3.4	87.5
3129	2023-02-21T07:58:24	3.8	87
3130	2023-02-21T08:08:24	4.5	84
3131	2023-02-21T08:18:24	4.9	83.5
3132	2023-02-21T08:28:24	5.3	82.5
3133	2023-02-21T08:38:24	5.8	81
3134	2023-02-21T08:48:24	6.5	79
3135	2023-02-21T08:58:24	6.9	76.5
3136	2023-02-21T09:08:24	7.2	75
3137	2023-02-21T09:18:24	7.6	74
3138	2023-02-21T09:28:24	8	73
3139	2023-02-21T09:38:24	8.3	71.5
3140	2023-02-21T09:58:24	9.2	68
3141	2023-02-21T10:08:24	9.3	66.5
3142	2023-02-21T10:18:24	9.7	66
3143	2023-02-21T10:28:24	10.1	62.5
3144	2023-02-21T10:38:24	10.4	61
3145	2023-02-21T10:48:24	10.8	60
3146	2023-02-21T10:58:24	10.9	58.5
3147	2023-02-21T11:08:24	11.3	57
3148	2023-02-21T11:18:24	11.5	56.5
3149	2023-02-21T11:28:24	11.8	57
3150	2023-02-21T11:38:24	12	56.5
3151	2023-02-21T11:48:24	12.5	54
3152	2023-02-21T11:58:24	12.7	54
3153	2023-02-21T12:08:24	12.8	54
3154	2023-02-21T12:18:24	13.2	52.5
3155	2023-02-21T12:28:24	14	49
3156	2023-02-21T12:38:24	17.7	39.5
3157	2023-02-21T12:48:24	19.4	35
3158	2023-02-21T12:58:24	21	34
3159	2023-02-21T13:08:24	21.8	30
3160	2023-02-21T13:18:24	22.5	31
3161	2023-02-21T13:28:24	23.8	29
3162	2023-02-21T13:38:24	24.2	26.5
3163	2023-02-21T13:48:24	24.9	25.5
3164	2023-02-21T13:58:24	25.2	24
3165	2023-02-21T14:08:24	26.3	24.5
3166	2023-02-21T14:18:24	26.6	25
3167	2023-02-21T14:28:24	27.4	23.5
3168	2023-02-21T14:38:24	27.5	23
3169	2023-02-21T14:48:24	28	22.5
3170	2023-02-21T14:58:24	27.7	23.5
3171	2023-02-21T15:08:24	27.9	24
3172	2023-02-21T15:18:24	27.8	23
3173	2023-02-21T15:28:24	27.7	24
3174	2023-02-21T15:38:24	26.8	23.5
3175	2023-02-21T15:48:24	26.8	27.5
3176	2023-02-21T15:58:24	26	28.5
3177	2023-02-21T16:08:24	25	29.5
3178	2023-02-21T16:18:24	23.8	32.5
3179	2023-02-21T16:28:24	23.9	32
3180	2023-02-21T16:38:24	22.3	34.5
3181	2023-02-21T16:48:24	21.2	37
3182	2023-02-21T16:58:24	20.1	40.5
3183	2023-02-21T17:08:24	19.1	42
3184	2023-02-21T17:18:24	18.5	43.5
3185	2023-02-21T17:28:24	17.7	44
3186	2023-02-21T17:38:24	17.2	46.5
3187	2023-02-21T17:48:24	16.7	46.5
3188	2023-02-21T17:58:24	16.5	48.5
3189	2023-02-21T18:08:24	15.8	48
3190	2023-02-21T18:18:24	15.7	50
3191	2023-02-21T18:28:24	15.2	50
3192	2023-02-21T18:38:23	14.8	50
3193	2023-02-21T18:48:23	14.5	51.5
3194	2023-02-21T19:08:23	13.5	52.5
3195	2023-02-21T19:18:23	13.2	54.5
3196	2023-02-21T19:28:23	12.8	57
3197	2023-02-21T19:38:23	12.6	55.5
3198	2023-02-21T19:48:23	12	56
3199	2023-02-21T19:58:23	11.8	59
3200	2023-02-21T20:08:23	11.3	58.5
3201	2023-02-21T20:18:23	11.2	59.5
3202	2023-02-21T20:28:23	10.8	59.5
3203	2023-02-21T20:38:23	10.5	59.5
3204	2023-02-21T20:48:23	10	60.5
3205	2023-02-21T20:58:23	9.7	63.5
3206	2023-02-21T21:08:23	9.8	62.5
3207	2023-02-21T21:18:23	9.4	65
3208	2023-02-21T21:28:23	9.5	64
3209	2023-02-21T21:38:23	9	64
3210	2023-02-21T21:48:23	8.1	66
3211	2023-02-21T21:58:23	7.6	68.5
3212	2023-02-21T22:08:23	7.9	68.5
3213	2023-02-21T22:18:23	7.8	67.5
3214	2023-02-21T22:28:23	7.7	69.5
3215	2023-02-21T22:38:23	8	69.5
3216	2023-02-21T22:48:23	8	69.5
3217	2023-02-21T22:58:23	7.7	70.5
3218	2023-02-21T23:08:23	7.5	69.5
3219	2023-02-21T23:18:23	7.3	70.5
3220	2023-02-21T23:28:23	7.1	71.5
3221	2023-02-21T23:38:23	6.8	71
3222	2023-02-21T23:48:23	6.2	73
3223	2023-02-21T23:58:23	6.2	74
3224	2023-02-22T00:08:23	5.7	74
3225	2023-02-22T00:18:23	5.5	76
3226	2023-02-22T00:28:23	5.6	76
3227	2023-02-22T00:38:23	5.5	76.5
3228	2023-02-22T00:48:23	5.5	78
3229	2023-02-22T00:58:23	5.3	77
3230	2023-02-22T01:08:23	5.5	77
3231	2023-02-22T01:18:23	5.4	77.5
3232	2023-02-22T01:28:23	5.2	78
3233	2023-02-22T01:38:23	5	79
3234	2023-02-22T01:48:23	5.2	78.5
3235	2023-02-22T01:58:23	5.1	78.5
3236	2023-02-22T02:08:23	4.8	79
3237	2023-02-22T02:18:23	4.7	79.5
3238	2023-02-22T02:28:23	4.5	79
3239	2023-02-22T02:38:23	4.3	81
3240	2023-02-22T02:48:23	4.5	80.5
3241	2023-02-22T02:58:23	4.3	80.5
3242	2023-02-22T03:08:23	4.2	80
3243	2023-02-22T03:18:23	4.1	80.5
3244	2023-02-22T03:28:23	4.1	80.5
3245	2023-02-22T03:38:23	4.2	81
3246	2023-02-22T03:48:23	3.9	81.5
3247	2023-02-22T03:58:23	3.8	82
3248	2023-02-22T04:08:23	3.7	82
3249	2023-02-22T04:18:23	3.5	82.5
3250	2023-02-22T04:28:23	3.5	83.5
3251	2023-02-22T04:38:23	3.4	84
3252	2023-02-22T04:48:23	3.3	84.5
3253	2023-02-22T04:58:23	3.3	84.5
3254	2023-02-22T05:08:23	3.1	85
3255	2023-02-22T05:18:23	3.1	84.5
3256	2023-02-22T05:28:23	3.1	84
3257	2023-02-22T05:38:23	2.9	84.5
3258	2023-02-22T05:48:23	2.9	84.5
3259	2023-02-22T05:58:23	3.1	84.5
3260	2023-02-22T06:08:23	2.9	83.5
3261	2023-02-22T06:18:23	2.8	84
3262	2023-02-22T06:28:23	2.7	86
3263	2023-02-22T06:38:23	2.7	86
3264	2023-02-22T06:48:23	2.8	86
3265	2023-02-22T06:58:23	2.9	86
3266	2023-02-22T07:08:23	3.2	85
3267	2023-02-22T07:18:23	3.2	85.5
3268	2023-02-22T07:28:23	3.4	85.5
3269	2023-02-22T07:38:23	3.6	85.5
3270	2023-02-22T07:48:23	3.8	85.5
3271	2023-02-22T07:58:23	4	85.5
3272	2023-02-22T08:08:23	4.4	86.5
3273	2023-02-22T08:18:23	4.6	86
3274	2023-02-22T08:28:23	4.8	85
3275	2023-02-22T08:38:23	5.2	84.5
3276	2023-02-22T08:48:23	5.4	84
3277	2023-02-22T08:58:23	5.6	84
3278	2023-02-22T09:08:23	6	84
3279	2023-02-22T09:18:23	6.2	83
3280	2023-02-22T09:28:23	6.6	81.5
3281	2023-02-22T09:38:23	6.9	80.5
3282	2023-02-22T09:48:23	7.3	79.5
3283	2023-02-22T09:58:23	7.6	79
3284	2023-02-22T10:08:23	8.2	75
3285	2023-02-22T10:18:23	8.6	73
3286	2023-02-22T10:28:23	9	71
3287	2023-02-22T10:38:23	9.3	72
3288	2023-02-22T10:48:23	9.4	71
3289	2023-02-22T10:58:23	9.7	69.5
3290	2023-02-22T11:08:23	9.8	69
3291	2023-02-22T11:18:23	10	68.5
3292	2023-02-22T11:28:23	10.1	66.5
3293	2023-02-22T11:38:23	10.6	65
3294	2023-02-22T11:48:23	11.1	62
3295	2023-02-22T11:58:23	11.7	57.5
3296	2023-02-22T12:08:23	12.1	57.5
3297	2023-02-22T12:18:23	12.8	55.5
3298	2023-02-22T12:28:23	13.3	52.5
3299	2023-02-22T12:38:23	16.4	44
3300	2023-02-22T12:48:23	16.5	42.5
3301	2023-02-22T12:58:23	16	44
3302	2023-02-22T13:08:23	15.9	45
3303	2023-02-22T13:18:23	15.7	45
3304	2023-02-22T13:28:23	15.6	46.5
3305	2023-02-22T13:38:23	15.8	46
3306	2023-02-22T13:48:23	15.8	46.5
3307	2023-02-22T13:58:23	15.7	47.5
3308	2023-02-22T14:08:23	15	49.5
3309	2023-02-22T14:18:23	14.9	51
3310	2023-02-22T14:28:23	15	51.5
3311	2023-02-22T14:38:23	14.8	52
3312	2023-02-22T14:48:23	14.8	53
3313	2023-02-22T14:58:23	14.7	54
3314	2023-02-22T15:08:23	14.6	55
3315	2023-02-22T15:18:23	14.6	54.5
3316	2023-02-22T15:28:23	15	52.5
3317	2023-02-22T15:38:22	14.9	53.5
3318	2023-02-22T15:48:22	14.5	53.5
3319	2023-02-22T15:58:22	14.2	54.5
3320	2023-02-22T16:08:22	13.8	55.5
3321	2023-02-22T16:18:22	13.6	56.5
3322	2023-02-22T16:28:22	13.3	58
3323	2023-02-22T16:38:22	13	58.5
3324	2023-02-22T16:48:22	12.9	59
3325	2023-02-22T16:58:22	12.7	61
3326	2023-02-22T17:08:22	12.5	63
3327	2023-02-22T17:18:22	12.2	64.5
3328	2023-02-22T17:28:22	12	64.5
3329	2023-02-22T17:38:22	11.8	65.5
3330	2023-02-22T17:48:22	11.6	66
3331	2023-02-22T17:58:22	11.6	66.5
3332	2023-02-22T18:08:22	11.2	67.5
3333	2023-02-22T18:18:22	11.3	67.5
3334	2023-02-22T18:28:22	11.2	68.5
3335	2023-02-22T18:38:22	11.1	69.5
3336	2023-02-22T18:48:22	11.1	70.5
3337	2023-02-22T18:58:22	11.1	71
3338	2023-02-22T19:08:22	11	72
3339	2023-02-22T19:18:22	10.8	73
3340	2023-02-22T19:28:22	10.8	73
3341	2023-02-22T19:38:22	10.8	73.5
3342	2023-02-22T19:48:22	10.6	74
3343	2023-02-22T19:58:22	10.7	74
3344	2023-02-22T20:08:22	10.9	74
3345	2023-02-22T20:18:22	10.9	73.5
3346	2023-02-22T20:28:22	11.1	74
3347	2023-02-22T20:38:22	11.1	74.5
3348	2023-02-22T20:48:22	11.1	75
3349	2023-02-22T20:58:22	11.1	76.5
3350	2023-02-22T21:08:22	11.1	78
3351	2023-02-22T21:18:22	10.9	79
3352	2023-02-22T21:28:22	10.8	79.5
3353	2023-02-22T21:38:22	10.9	80
3354	2023-02-22T21:48:22	10.8	80.5
3355	2023-02-22T21:58:22	10.8	81
3356	2023-02-22T22:08:22	10.7	81.5
3357	2023-02-22T22:18:22	10.7	82.5
3358	2023-02-22T22:28:22	10.7	83
3359	2023-02-22T22:38:22	10.6	83
3360	2023-02-22T22:48:22	10.7	83
3361	2023-02-22T22:58:22	10.5	84
3362	2023-02-22T23:08:22	10.5	85
3363	2023-02-22T23:18:22	10.5	85
3364	2023-02-22T23:28:22	10.4	86.5
3365	2023-02-22T23:38:22	10.4	87
3366	2023-02-22T23:48:22	10.5	87
3367	2023-02-22T23:58:22	10.4	87.5
3368	2023-02-23T00:08:22	10.6	86.5
3369	2023-02-23T00:18:22	10.6	87
3370	2023-02-23T00:28:22	10.5	87
3371	2023-02-23T00:38:22	10.4	88
3372	2023-02-23T00:48:22	10.5	88.5
3373	2023-02-23T00:58:22	10.4	88.5
3374	2023-02-23T01:08:22	10.3	88.5
3375	2023-02-23T01:18:22	10.3	88.5
3376	2023-02-23T01:28:22	10.5	88.5
3377	2023-02-23T01:38:22	10.4	88
3378	2023-02-23T01:48:22	10.4	88.5
3379	2023-02-23T01:58:22	10.2	89
3380	2023-02-23T02:08:22	10.3	89
3381	2023-02-23T02:18:22	10.2	89.5
3382	2023-02-23T02:28:22	10.1	89.5
3383	2023-02-23T02:38:22	10.1	89.5
3384	2023-02-23T02:48:22	10	89.5
3385	2023-02-23T02:58:22	10.1	89.5
3386	2023-02-23T03:08:22	10.1	89.5
3387	2023-02-23T03:18:22	10	89.5
3388	2023-02-23T03:28:22	10	89.5
3389	2023-02-23T03:38:22	10	90
3390	2023-02-23T03:48:22	10	90
3391	2023-02-23T03:58:22	9.8	91
3392	2023-02-23T04:08:22	9.7	92
3393	2023-02-23T04:18:22	9.7	92
3394	2023-02-23T04:28:22	9.7	92
3395	2023-02-23T04:38:22	9.7	92
3396	2023-02-23T04:48:22	9.5	92.5
3397	2023-02-23T04:58:22	9.8	92
3398	2023-02-23T05:08:22	9.8	91.5
3399	2023-02-23T05:18:22	9.8	91.5
3400	2023-02-23T05:28:22	9.9	91.5
3401	2023-02-23T05:38:22	9.9	91
3402	2023-02-23T05:48:22	9.9	91
3403	2023-02-23T05:58:22	9.9	90
3404	2023-02-23T06:08:22	9.9	90.5
3405	2023-02-23T06:18:22	9.8	90.5
3406	2023-02-23T06:28:22	10	90.5
3407	2023-02-23T06:38:22	9.8	91
3408	2023-02-23T06:48:22	9.8	91
3409	2023-02-23T06:58:22	9.8	91.5
3410	2023-02-23T07:08:21	9.8	91.5
3411	2023-02-23T07:18:22	10	91.5
3412	2023-02-23T07:28:21	9.9	91.5
3413	2023-02-23T07:38:21	9.9	91
3414	2023-02-23T07:48:21	10	91.5
3415	2023-02-23T07:58:21	10.1	91.5
3416	2023-02-23T08:08:21	10.1	91.5
3417	2023-02-23T08:18:21	10.3	91.5
3418	2023-02-23T08:28:21	10.2	91.5
3419	2023-02-23T08:38:21	10.4	91
3420	2023-02-23T08:48:21	10.4	89.5
3421	2023-02-23T08:58:21	10.5	90
3422	2023-02-23T09:08:21	11.1	88.5
3423	2023-02-23T09:18:21	11.4	86.5
3424	2023-02-23T09:28:21	12	82
3425	2023-02-23T09:38:21	12.4	83
3426	2023-02-23T09:48:21	12.4	79.5
3427	2023-02-23T09:58:22	12.5	80.5
3428	2023-02-23T10:08:21	12.5	80
3429	2023-02-23T10:18:21	12.5	79.5
3430	2023-02-23T10:28:21	12.6	81
3431	2023-02-23T10:38:21	12.6	80
3432	2023-02-23T10:48:21	12.7	80.5
3433	2023-02-23T10:58:21	12.5	79.5
3434	2023-02-23T11:08:21	12.5	78.5
3435	2023-02-23T11:18:21	12.6	78
3436	2023-02-23T11:28:21	12.9	78.5
3437	2023-02-23T11:38:21	13.2	76
3438	2023-02-23T11:48:21	13.1	76
3439	2023-02-23T11:58:21	13.2	75
3440	2023-02-23T12:08:21	13.4	76
3441	2023-02-23T12:18:21	13.6	74.5
3442	2023-02-23T12:28:21	13.6	72.5
3443	2023-02-23T12:38:21	13.3	74.5
3444	2023-02-23T12:48:21	13.4	74.5
3445	2023-02-23T12:58:21	13.2	74
3446	2023-02-23T13:08:21	13.4	73
3447	2023-02-23T13:18:21	13.2	74
3448	2023-02-23T13:28:21	13.2	74.5
3449	2023-02-23T13:38:21	13.1	75
3450	2023-02-23T13:48:21	13	75.5
3451	2023-02-23T13:58:21	13.1	76.5
3452	2023-02-23T14:08:21	13.3	76.5
3453	2023-02-23T14:18:21	13.3	76
3454	2023-02-23T14:28:21	13.2	75.5
3455	2023-02-23T14:38:21	13.3	74.5
3456	2023-02-23T14:48:21	13.4	74.5
3457	2023-02-23T14:58:21	13.4	74
3458	2023-02-23T15:08:21	13.4	75.5
3459	2023-02-23T15:18:21	13.4	76
3460	2023-02-23T15:28:21	13.3	76.5
3461	2023-02-23T15:38:21	13.3	77
3462	2023-02-23T15:48:21	13.2	77.5
3463	2023-02-23T15:58:21	13.2	78
3464	2023-02-23T16:08:21	13.2	78.5
3465	2023-02-23T16:18:21	13.1	79
3466	2023-02-23T16:28:21	12.9	81
3467	2023-02-23T16:38:21	12.7	82
3468	2023-02-23T16:48:21	12.7	82.5
3469	2023-02-23T16:58:21	12.5	83.5
3470	2023-02-23T17:08:21	12.1	85
3471	2023-02-23T17:18:21	12.1	85.5
3472	2023-02-23T17:28:21	11.9	86
3473	2023-02-23T17:38:21	12	86
3474	2023-02-23T17:48:21	11.8	86
3475	2023-02-23T17:58:21	11.6	86
3476	2023-02-23T18:08:21	11.5	86
3477	2023-02-23T18:18:21	11.3	86.5
3478	2023-02-23T18:28:21	11.3	86.5
3479	2023-02-23T18:38:21	11.3	86.5
3480	2023-02-23T18:48:21	11.2	86.5
3481	2023-02-23T18:58:21	11.3	86.5
3482	2023-02-23T19:08:21	11.2	87
3483	2023-02-23T19:18:21	11.1	87
3484	2023-02-23T19:28:21	11	87
3485	2023-02-23T19:38:21	11.2	87
3486	2023-02-23T19:48:21	11	87
3487	2023-02-23T19:58:21	11.1	88
3488	2023-02-23T20:08:21	11	87.5
3489	2023-02-23T20:18:21	10.8	87
3490	2023-02-23T20:28:21	10.7	88
3491	2023-02-23T20:38:21	10.6	88.5
3492	2023-02-23T20:48:21	10.6	88.5
3493	2023-02-23T20:58:21	10.7	89
3494	2023-02-23T21:08:21	10.8	88
3495	2023-02-23T21:18:21	10.7	88
3496	2023-02-23T21:28:21	10.7	88.5
3497	2023-02-23T21:38:21	10.6	88.5
3498	2023-02-23T21:48:21	10.6	88.5
3499	2023-02-23T21:58:21	10.6	88.5
3500	2023-02-23T22:08:21	10.6	88
3501	2023-02-23T22:18:21	10.7	88
3502	2023-02-23T22:28:20	10.6	88.5
3503	2023-02-23T22:38:20	10.6	88.5
3504	2023-02-23T22:48:20	10.4	89
3505	2023-02-23T22:58:20	10.5	89
3506	2023-02-23T23:08:20	10.5	87.5
3507	2023-02-23T23:18:20	10.6	86.5
3508	2023-02-23T23:28:20	10.5	85.5
3509	2023-02-23T23:38:20	10.5	85
3510	2023-02-23T23:48:20	10.4	85
3511	2023-02-23T23:58:20	10.3	85
3512	2023-02-24T00:08:20	10.2	85
3513	2023-02-24T00:18:20	10.1	85
3514	2023-02-24T00:28:20	10.1	85.5
3515	2023-02-24T00:38:20	10.1	85.5
3516	2023-02-24T00:48:20	9.9	85.5
3517	2023-02-24T00:58:20	9.9	85
3518	2023-02-24T01:08:20	10	84.5
3519	2023-02-24T01:18:20	9.9	84
3520	2023-02-24T01:28:20	9.9	84
3521	2023-02-24T01:38:20	9.8	83.5
3522	2023-02-24T01:48:20	9.9	84.5
3523	2023-02-24T01:58:20	9.7	83
3524	2023-02-24T02:08:20	9.7	82.5
3525	2023-02-24T02:18:20	9.7	83
3526	2023-02-24T02:28:20	9.7	83
3527	2023-02-24T02:38:20	9.6	83
3528	2023-02-24T02:48:20	9.5	82.5
3529	2023-02-24T02:58:20	9.6	82.5
3530	2023-02-24T03:08:20	9.5	82
3531	2023-02-24T03:18:20	9.4	81.5
3532	2023-02-24T03:28:20	9.3	81.5
3533	2023-02-24T03:38:20	9.4	81.5
3534	2023-02-24T03:48:20	9.3	81.5
3535	2023-02-24T03:58:20	9.3	82
3536	2023-02-24T04:08:20	9.4	82
3537	2023-02-24T04:18:20	9.3	81.5
3538	2023-02-24T04:28:20	9.3	82
3539	2023-02-24T04:38:20	9.2	82
3540	2023-02-24T04:48:20	9.2	82
3541	2023-02-24T04:58:20	9.2	82.5
3542	2023-02-24T05:08:20	9	82.5
3543	2023-02-24T05:18:20	9.1	82.5
3544	2023-02-24T05:28:20	9.1	82.5
3545	2023-02-24T05:38:20	9.1	82.5
3546	2023-02-24T05:48:40	9.1	82
3547	2023-02-24T05:58:20	8.9	82.5
3548	2023-02-24T06:08:20	9	82
3549	2023-02-24T06:18:20	9	82
3550	2023-02-24T06:28:20	9	82
3551	2023-02-24T06:38:20	8.9	81.5
3552	2023-02-24T06:48:20	9	82
3553	2023-02-24T06:58:20	9.1	81
3554	2023-02-24T07:08:20	9	81
3555	2023-02-24T07:18:20	9.1	81
3556	2023-02-24T07:28:20	9.3	81.5
3557	2023-02-24T07:38:20	9.2	81
3558	2023-02-24T07:48:20	9.3	80.5
3559	2023-02-24T07:58:20	9.6	80
3560	2023-02-24T08:08:20	9.7	80
3561	2023-02-24T08:18:20	9.9	78.5
3562	2023-02-24T08:28:20	9.9	77
3563	2023-02-24T08:38:20	9.7	76.5
3564	2023-02-24T08:48:20	9.9	78
3565	2023-02-24T08:58:20	9.6	78.5
3566	2023-02-24T09:08:20	9.4	78
3567	2023-02-24T09:18:20	9.5	78
3568	2023-02-24T09:28:20	9.6	78.5
3569	2023-02-24T09:38:20	9.5	79
3570	2023-02-24T09:48:20	9.3	79.5
3571	2023-02-24T09:58:20	9.5	79.5
3572	2023-02-24T10:08:20	9.4	79
3573	2023-02-24T10:18:20	9.8	78
3574	2023-02-24T10:28:20	9.9	77
3575	2023-02-24T10:38:20	9.7	77
3576	2023-02-24T10:48:20	9.9	77
3577	2023-02-24T10:58:20	9.9	77
3578	2023-02-24T11:08:20	10	77.5
3579	2023-02-24T11:18:20	10.5	77
3580	2023-02-24T11:28:20	10.5	78.5
3581	2023-02-24T11:38:20	10.5	78
3582	2023-02-24T11:48:20	10.6	77
3583	2023-02-24T11:58:20	10.9	76
3584	2023-02-24T12:08:20	10.8	77
3585	2023-02-24T12:18:20	10.7	76.5
3586	2023-02-24T12:28:20	10.6	75.5
3587	2023-02-24T12:38:20	10.8	75
3588	2023-02-24T12:48:20	10.7	76
3589	2023-02-24T12:58:20	10.6	76
3590	2023-02-24T13:08:20	10.6	75.5
3591	2023-02-24T13:18:20	10.6	76
3592	2023-02-24T13:28:20	10.6	76
3593	2023-02-24T13:38:20	10.6	75.5
3594	2023-02-24T13:48:20	10.6	74.5
3595	2023-02-24T13:58:20	10.6	74
3596	2023-02-24T14:08:20	10.6	74
3597	2023-02-24T14:18:20	10.6	74.5
3598	2023-02-24T14:28:20	10.4	75
3599	2023-02-24T14:38:20	10.3	75.5
3600	2023-02-24T14:48:20	10.3	76
3601	2023-02-24T14:58:20	10.2	76.5
3602	2023-02-24T15:08:20	10.2	76
3603	2023-02-24T15:18:20	10.2	76
3604	2023-02-24T15:28:19	10.2	76
3605	2023-02-24T15:38:20	10.1	76.5
3606	2023-02-24T15:48:19	10.1	76.5
3607	2023-02-24T15:58:19	10	77
3608	2023-02-24T16:08:19	10	77.5
3609	2023-02-24T16:18:19	9.9	77
3610	2023-02-24T16:28:19	9.8	77
3611	2023-02-24T16:38:19	9.8	77.5
3612	2023-02-24T16:48:19	9.6	80
3613	2023-02-24T16:58:19	9.5	83
3614	2023-02-24T17:08:19	9.3	84
3615	2023-02-24T17:18:19	9.3	84.5
3616	2023-02-24T17:28:19	9.1	85
3617	2023-02-24T17:38:19	9.1	85.5
3618	2023-02-24T17:48:19	9	85.5
3619	2023-02-24T17:58:19	8.9	85.5
3620	2023-02-24T18:08:19	8.8	86
3621	2023-02-24T18:18:19	8.8	86
3622	2023-02-24T18:28:19	8.8	86.5
3623	2023-02-24T18:38:19	8.7	86.5
3624	2023-02-24T18:48:19	8.6	86.5
3625	2023-02-24T18:58:19	8.5	86.5
3626	2023-02-24T19:08:19	8.5	85.5
3627	2023-02-24T19:18:19	8.5	84
3628	2023-02-24T19:28:19	8.5	82.5
3629	2023-02-24T19:38:19	8.4	84
3630	2023-02-24T19:48:19	8.4	85.5
3631	2023-02-24T19:58:19	8.3	86
3632	2023-02-24T20:08:19	8.2	86.5
3633	2023-02-24T20:18:19	8.2	86.5
3634	2023-02-24T20:28:19	8	87
3635	2023-02-24T20:38:19	8.1	87.5
3636	2023-02-24T20:48:19	8	87
3637	2023-02-24T20:58:19	7.9	86.5
3638	2023-02-24T21:08:19	7.9	86.5
3639	2023-02-24T21:18:19	7.7	87
3640	2023-02-24T21:28:19	7.5	88
3641	2023-02-24T21:38:19	7.4	91
3642	2023-02-24T21:48:19	7.6	90.5
3643	2023-02-24T21:58:19	7.5	84
3644	2023-02-24T22:08:19	7.6	83.5
3645	2023-02-24T22:18:19	7.5	86.5
3646	2023-02-24T22:28:19	7.5	81.5
3647	2023-02-24T22:38:19	7.5	81
3648	2023-02-24T22:48:19	7.3	77.5
3649	2023-02-24T22:58:40	7	78.5
3650	2023-02-24T23:08:19	7.1	79.5
3651	2023-02-24T23:18:19	7.1	79
3652	2023-02-24T23:28:19	7.1	75
3653	2023-02-24T23:38:19	7.2	69.5
3654	2023-02-24T23:48:19	7.2	69.5
3655	2023-02-24T23:58:19	7.2	68.5
3656	2023-02-25T00:08:19	7.1	68
3657	2023-02-25T00:18:19	7.1	67.5
3658	2023-02-25T00:28:19	7.1	66
3659	2023-02-25T00:38:19	7.1	65.5
3660	2023-02-25T00:48:19	7	66
3661	2023-02-25T00:58:19	7	67
3662	2023-02-25T01:08:19	7	68
3663	2023-02-25T01:18:19	6.9	68.5
3664	2023-02-25T01:28:19	6.8	69.5
3665	2023-02-25T01:38:19	6.7	70
3666	2023-02-25T01:48:19	6.7	70.5
3667	2023-02-25T01:58:19	6.6	69.5
3668	2023-02-25T02:08:19	6.8	67.5
3669	2023-02-25T02:18:19	6.8	67.5
3670	2023-02-25T02:28:19	6.6	69
3671	2023-02-25T02:38:19	6.6	70
3672	2023-02-25T02:48:19	6.7	71
3673	2023-02-25T02:58:19	6.5	72
3674	2023-02-25T03:08:19	6.2	68
3675	2023-02-25T03:18:19	5.9	67
3676	2023-02-25T03:28:19	5.8	66.5
3677	2023-02-25T03:38:19	5.5	67
3678	2023-02-25T03:48:19	5.2	67
3679	2023-02-25T03:58:19	4.9	66
3680	2023-02-25T04:08:19	4.7	67
3681	2023-02-25T04:18:19	4.6	67
3682	2023-02-25T04:28:19	4.5	69
3683	2023-02-25T04:38:19	4.5	71.5
3684	2023-02-25T04:48:19	4.3	71.5
3685	2023-02-25T04:58:19	4.5	70
3686	2023-02-25T05:08:19	4.5	70.5
3687	2023-02-25T05:18:19	4.4	71.5
3688	2023-02-25T05:28:19	4.4	69.5
3689	2023-02-25T05:38:19	4.6	68.5
3690	2023-02-25T05:48:19	4.6	68.5
3691	2023-02-25T05:58:19	4.5	66.5
3692	2023-02-25T06:08:19	4.6	70.5
3693	2023-02-25T06:18:19	4.5	70.5
3694	2023-02-25T06:28:19	4.4	70
3695	2023-02-25T06:38:19	4.4	70.5
3696	2023-02-25T06:48:19	4.5	68
3697	2023-02-25T06:58:19	4.7	67.5
3698	2023-02-25T07:08:19	4.7	66.5
3699	2023-02-25T07:18:19	4.8	65.5
3700	2023-02-25T07:28:19	4.9	66
3701	2023-02-25T07:38:19	5.2	65
3702	2023-02-25T07:48:19	5.3	63
3703	2023-02-25T07:58:19	5.4	60
3704	2023-02-25T08:08:19	5.6	58
3705	2023-02-25T08:18:19	5.8	56
3706	2023-02-25T08:28:19	5.7	57
3707	2023-02-25T08:38:19	5.8	56
3708	2023-02-25T08:48:19	6	58.5
3709	2023-02-25T08:58:19	6	59.5
3710	2023-02-25T09:08:19	6.2	60.5
3711	2023-02-25T09:28:19	6.4	58.5
3712	2023-02-25T09:38:19	6.6	56
3713	2023-02-25T09:48:19	6.9	56.5
3714	2023-02-25T09:58:19	7.3	54.5
3715	2023-02-25T10:18:19	7.5	48.5
3716	2023-02-25T10:28:19	7.6	49.5
3717	2023-02-25T10:38:19	7.6	50
3718	2023-02-25T10:48:19	7.2	51.5
3719	2023-02-25T10:58:19	7.2	53
3720	2023-02-25T11:08:19	7	53.5
3721	2023-02-25T11:18:19	7	53
3722	2023-02-25T11:28:19	7.1	53
3723	2023-02-25T11:38:19	7.1	51
3724	2023-02-25T11:48:19	7.3	52
3725	2023-02-25T11:58:19	7.1	51.5
3726	2023-02-25T12:08:19	7	52.5
3727	2023-02-25T12:18:19	6.9	55.5
3728	2023-02-25T12:28:19	6.9	57.5
3729	2023-02-25T12:48:19	7.5	53
3730	2023-02-25T12:58:19	7.7	52.5
3731	2023-02-25T13:08:19	7.7	52.5
3732	2023-02-25T13:18:19	7.8	50.5
3733	2023-02-25T13:28:19	7.9	51
3734	2023-02-25T13:38:19	7.8	50
3735	2023-02-25T13:48:18	7.8	50
3736	2023-02-25T13:58:18	7.7	46.5
3737	2023-02-25T14:08:18	8.8	47.5
3738	2023-02-25T14:18:18	9.8	44.5
3739	2023-02-25T14:28:18	10.5	41.5
3740	2023-02-25T14:38:18	9.8	41.5
3741	2023-02-25T14:48:18	8.8	44
3742	2023-02-25T14:58:18	8.6	46.5
3743	2023-02-25T15:08:18	8.5	46
3744	2023-02-25T15:18:18	8.2	45.5
3745	2023-02-25T15:28:18	10.3	39
3746	2023-02-25T15:38:18	8.4	44.5
3747	2023-02-25T15:48:18	8.2	52.5
3748	2023-02-25T15:58:18	7.8	57
3749	2023-02-25T16:08:18	7.8	57.5
3750	2023-02-25T16:18:18	7.7	56.5
3751	2023-02-25T16:28:18	7.4	61.5
3752	2023-02-25T16:38:18	7	61
3753	2023-02-25T16:48:18	7.1	63
3754	2023-02-25T16:58:18	6.5	64.5
3755	2023-02-25T17:08:18	6.4	68
3756	2023-02-25T17:18:18	6.1	65.5
3757	2023-02-25T17:28:18	5.9	66.5
3758	2023-02-25T17:38:18	5.9	65
3759	2023-02-25T17:48:18	5.5	66
3760	2023-02-25T17:58:18	5.5	66
3761	2023-02-25T18:08:18	5.4	65.5
3762	2023-02-25T18:18:18	5.5	65
3763	2023-02-25T18:28:18	5.5	64
3764	2023-02-25T18:38:18	5.4	64
3765	2023-02-25T18:48:19	5.3	64
3766	2023-02-25T18:58:18	5	65.5
3767	2023-02-25T19:08:18	4.7	66.5
3768	2023-02-25T19:18:18	4.6	67
3769	2023-02-25T19:28:18	4.7	67.5
3770	2023-02-25T19:38:18	4.6	68
3771	2023-02-25T19:48:18	4.6	68
3772	2023-02-25T19:58:18	4.6	67.5
3773	2023-02-25T20:08:18	4.4	66.5
3774	2023-02-25T20:18:18	4.5	64.5
3775	2023-02-25T20:28:18	4.4	62
3776	2023-02-25T20:38:18	4.1	59.5
3777	2023-02-25T20:48:18	3.9	57
3778	2023-02-25T20:58:18	3.8	54
3779	2023-02-25T21:08:18	3.5	55
3780	2023-02-25T21:18:18	3.4	54
3781	2023-02-25T21:28:18	3.1	55.5
3782	2023-02-25T21:38:18	3	55.5
3783	2023-02-25T21:48:18	2.8	56.5
3784	2023-02-25T21:58:18	2.6	58.5
3785	2023-02-25T22:08:18	2.3	58
3786	2023-02-25T22:18:18	2.1	58.5
3787	2023-02-25T22:28:18	2	58.5
3788	2023-02-25T22:38:19	1.7	59
3789	2023-02-25T22:48:18	1.7	58
3790	2023-02-25T22:58:18	1.6	58.5
3791	2023-02-25T23:08:18	1.5	59
3792	2023-02-25T23:18:18	1.4	59
3793	2023-02-25T23:28:18	1.3	60.5
3794	2023-02-25T23:38:18	1.1	61
3795	2023-02-25T23:48:18	1	62
3796	2023-02-25T23:58:18	0.8	62
3797	2023-02-26T00:08:18	0.6	63.5
3798	2023-02-26T00:18:18	0.4	64.5
3799	2023-02-26T00:28:18	0.2	65
3800	2023-02-26T00:38:18	0.3	65.5
3801	2023-02-26T00:48:18	0.2	65.5
3802	2023-02-26T00:58:18	0.1	66
3803	2023-02-26T01:08:18	0	67
3804	2023-02-26T01:18:18	0	67
3805	2023-02-26T01:28:18	-0.3	68
3806	2023-02-26T01:38:18	-0.5	69
3807	2023-02-26T01:48:18	-0.6	69.5
3808	2023-02-26T01:58:18	-0.5	69.5
3809	2023-02-26T02:08:18	-0.3	68.5
3810	2023-02-26T02:18:18	-0.2	69
3811	2023-02-26T02:28:18	-0.3	68.5
3812	2023-02-26T02:38:18	-0.4	68.5
3813	2023-02-26T02:48:18	-0.6	69.5
3814	2023-02-26T02:58:18	-0.7	70
3815	2023-02-26T03:08:18	-1.1	71.5
3816	2023-02-26T03:18:18	-1	71
3817	2023-02-26T03:28:18	-1.3	73
3818	2023-02-26T03:38:18	-1.6	75
3819	2023-02-26T03:48:18	-1.8	76
3820	2023-02-26T03:58:18	-1.8	77
3821	2023-02-26T04:08:18	-1.8	76
3822	2023-02-26T04:18:18	-1.9	76.5
3823	2023-02-26T04:28:18	-1.9	77
3824	2023-02-26T04:48:18	-1.9	76
3825	2023-02-26T04:58:18	-2.2	77
3826	2023-02-26T05:08:18	-2.1	76.5
3827	2023-02-26T05:18:18	-2.2	77
3828	2023-02-26T05:28:18	-1.9	76.5
3829	2023-02-26T05:38:18	-1.8	76
3830	2023-02-26T05:48:18	-1.6	75
3831	2023-02-26T05:58:18	-1.7	75
3832	2023-02-26T06:08:18	-1.9	76
3833	2023-02-26T06:18:18	-2	76.5
3834	2023-02-26T06:28:18	-1.9	76.5
3835	2023-02-26T06:38:18	-1.8	76.5
3836	2023-02-26T06:48:18	-1.7	76.5
3837	2023-02-26T06:58:18	-1.7	77.5
3838	2023-02-26T07:08:18	-1.6	77.5
3839	2023-02-26T07:18:18	-1.3	76.5
3840	2023-02-26T07:28:18	-1.1	75.5
3841	2023-02-26T07:38:18	-0.8	75
3842	2023-02-26T07:48:18	-0.6	74
3843	2023-02-26T07:58:18	-0.3	73.5
3844	2023-02-26T08:08:18	-0.2	73
3845	2023-02-26T08:18:18	0.1	71.5
3846	2023-02-26T08:28:18	0.1	72
3847	2023-02-26T08:38:18	0.4	71
3848	2023-02-26T08:48:18	0.4	70
3849	2023-02-26T08:58:18	0.9	69
3850	2023-02-26T09:08:18	1.1	68.5
3851	2023-02-26T09:18:18	1.3	67
3852	2023-02-26T09:28:18	1.4	68.5
3853	2023-02-26T09:38:18	1.5	67
3854	2023-02-26T09:48:18	1.7	64.5
3855	2023-02-26T09:58:18	1.8	64.5
3856	2023-02-26T10:08:18	1.8	62
3857	2023-02-26T10:18:18	1.8	62
3858	2023-02-26T10:28:18	2.1	63
3859	2023-02-26T10:38:18	2.1	63
3860	2023-02-26T10:48:37	2	63.5
3861	2023-02-26T10:58:18	2.1	63.5
3862	2023-02-26T11:08:18	2.1	62.5
3863	2023-02-26T11:18:18	2.1	61.5
3864	2023-02-26T11:28:18	2.3	62
3865	2023-02-26T11:38:18	2.5	61
3866	2023-02-26T11:48:18	2.3	63.5
3867	2023-02-26T11:58:18	2	68
3868	2023-02-26T12:08:18	2.1	66
3869	2023-02-26T12:18:18	2.5	66
3870	2023-02-26T12:28:18	2.6	65
3871	2023-02-26T12:38:18	2.9	63.5
3872	2023-02-26T12:48:18	3	61.5
3873	2023-02-26T12:58:18	3.2	60.5
3874	2023-02-26T13:08:18	3.1	60
3875	2023-02-26T13:18:18	3.2	61
3876	2023-02-26T13:28:18	3.6	59
3877	2023-02-26T13:38:18	5.8	51.5
3878	2023-02-26T13:48:18	4.5	53.5
3879	2023-02-26T13:58:18	3.9	56.5
3880	2023-02-26T14:08:18	3.9	55
3881	2023-02-26T14:18:18	3.8	55
3882	2023-02-26T14:28:18	3.5	54
3883	2023-02-26T14:38:18	3.6	52
3884	2023-02-26T14:48:18	3.7	52
3885	2023-02-26T14:58:18	3.8	51
3886	2023-02-26T15:08:18	3.7	51
3887	2023-02-26T15:18:18	3.6	52
3888	2023-02-26T15:28:18	3.7	51
3889	2023-02-26T15:38:18	3.4	52
3890	2023-02-26T15:48:18	3.4	52
3891	2023-02-26T15:58:18	3.5	49.5
3892	2023-02-26T16:08:18	3.3	51.5
3893	2023-02-26T16:18:18	3	54
3894	2023-02-26T16:28:18	3.1	52.5
3895	2023-02-26T16:38:18	2.9	53.5
3896	2023-02-26T16:48:18	2.8	53.5
3897	2023-02-26T16:58:18	2.7	54.5
3898	2023-02-26T17:08:18	2.6	53.5
3899	2023-02-26T17:18:18	2.6	52.5
3900	2023-02-26T17:28:18	2.3	52.5
3901	2023-02-26T17:38:18	2.1	53
3902	2023-02-26T18:18:18	1.8	53
3903	2023-02-26T18:28:18	1.6	53
3904	2023-02-26T18:38:18	1.5	52.5
3905	2023-02-26T18:48:18	1.5	53
3906	2023-02-26T18:58:18	1.3	53.5
3907	2023-02-26T19:08:18	1.3	54.5
3908	2023-02-26T19:18:18	1.1	55
3909	2023-02-26T19:28:18	0.8	57
3910	2023-02-26T19:38:18	0.7	57.5
3911	2023-02-26T19:48:18	0.6	57
3912	2023-02-26T19:58:18	0.6	57
3913	2023-02-26T20:08:18	0.4	56
3914	2023-02-26T20:18:18	0.4	56
3915	2023-02-26T20:28:18	0.3	56.5
3916	2023-02-26T20:38:18	0.1	56.5
3917	2023-02-26T20:48:18	0.1	57
3918	2023-02-26T20:58:18	0	57
3919	2023-02-26T21:08:18	-0.2	58
3920	2023-02-26T21:18:18	-0.3	58
3921	2023-02-26T21:28:18	-0.2	58.5
3922	2023-02-26T21:38:18	-0.3	59
3923	2023-02-26T21:48:18	-0.3	59.5
3924	2023-02-26T21:58:18	-0.5	60
3925	2023-02-26T22:08:18	-0.5	60.5
3926	2023-02-26T22:18:18	-0.6	61.5
3927	2023-02-26T22:28:18	-0.8	62.5
3928	2023-02-26T22:38:18	-0.9	64
3929	2023-02-26T22:48:18	-1	64.5
3930	2023-02-26T22:58:18	-1	65.5
3931	2023-02-26T23:08:18	-0.9	65
3932	2023-02-26T23:18:18	-1	66
3933	2023-02-26T23:28:18	-1.1	67
3934	2023-02-26T23:38:18	-1.1	67.5
3935	2023-02-26T23:48:18	-1.2	68
3936	2023-02-26T23:58:18	-1.3	69
3937	2023-02-27T00:08:18	-1.2	70
3938	2023-02-27T00:18:18	-1.4	70.5
3939	2023-02-27T00:38:18	-1.3	71
3940	2023-02-27T00:48:18	-1.5	71.5
3941	2023-02-27T00:58:18	-1.7	72.5
3942	2023-02-27T01:08:18	-1.8	73
3943	2023-02-27T01:18:18	-1.8	73.5
3944	2023-02-27T01:28:18	-1.6	73.5
3945	2023-02-27T01:38:18	-1.7	73.5
3946	2023-02-27T01:48:18	-1.7	73.5
3947	2023-02-27T01:58:18	-1.7	74
3948	2023-02-27T02:08:18	-1.6	74
3949	2023-02-27T02:18:18	-1.8	75
3950	2023-02-27T02:28:18	-2.1	76
3951	2023-02-27T02:38:18	-1.9	76
3952	2023-02-27T02:48:18	-2.1	76.5
3953	2023-02-27T02:58:18	-2	76.5
3954	2023-02-27T03:08:18	-2	77.5
3955	2023-02-27T03:18:18	-2.1	77
3956	2023-02-27T03:28:18	-2.2	77.5
3957	2023-02-27T03:38:18	-2.4	78.5
3958	2023-02-27T03:48:18	-2.5	79
3959	2023-02-27T03:58:18	-2.4	79
3960	2023-02-27T04:08:18	-2.5	79
3961	2023-02-27T04:18:18	-2.7	80
3962	2023-02-27T04:28:18	-2.7	80
3963	2023-02-27T04:38:18	-2.7	80
3964	2023-02-27T04:48:18	-2.6	80
3965	2023-02-27T04:58:18	-2.7	80
3966	2023-02-27T05:08:18	-2.7	79.5
3967	2023-02-27T05:18:18	-2.6	79
3968	2023-02-27T05:28:18	-2.5	79
3969	2023-02-27T05:38:18	-2.7	79.5
3970	2023-02-27T05:48:18	-2.7	79.5
3971	2023-02-27T05:58:18	-2.8	80
3972	2023-02-27T06:08:18	-2.9	80
3973	2023-02-27T06:18:18	-3	80.5
3974	2023-02-27T06:28:18	-2.9	80
3975	2023-02-27T06:38:18	-3	80
3976	2023-02-27T06:48:18	-2.8	79.5
3977	2023-02-27T06:58:18	-2.7	79.5
3978	2023-02-27T07:08:18	-2.7	79.5
3979	2023-02-27T07:18:18	-2.5	78.5
3980	2023-02-27T07:28:18	-2.3	78
3981	2023-02-27T07:38:18	-2	76.5
3982	2023-02-27T07:48:18	-1.8	75.5
3983	2023-02-27T07:58:18	-1.4	74
3984	2023-02-27T08:08:18	-1.2	73
3985	2023-02-27T08:18:18	-1.1	72
3986	2023-02-27T08:28:18	-0.7	71
3987	2023-02-27T08:38:18	-0.7	70
3988	2023-02-27T08:48:18	-0.2	69
3989	2023-02-27T08:58:18	0	68
3990	2023-02-27T09:08:18	0.1	67
3991	2023-02-27T09:18:18	0.5	65.5
3992	2023-02-27T09:28:18	0.6	64
3993	2023-02-27T09:38:18	0.9	63
3994	2023-02-27T09:48:18	1.3	61.5
3995	2023-02-27T09:58:18	1.4	60
3996	2023-02-27T10:08:18	1.7	57.5
3997	2023-02-27T10:18:18	1.8	57
3998	2023-02-27T10:28:18	2.2	57
3999	2023-02-27T10:38:18	2.3	56
4000	2023-02-27T10:48:18	2.6	55
4001	2023-02-27T10:58:18	2.8	54
4002	2023-02-27T11:08:18	3	53
4003	2023-02-27T11:18:18	3.2	52.5
4004	2023-02-27T11:28:18	3.5	52
4005	2023-02-27T11:38:18	3.7	51
4006	2023-02-27T11:48:18	4	50.5
4007	2023-02-27T11:58:18	4.2	49.5
4008	2023-02-27T12:08:18	4.7	48.5
4009	2023-02-27T12:18:18	4.7	46.5
4010	2023-02-27T12:28:18	6.1	45
4011	2023-02-27T12:38:18	8	38
4012	2023-02-27T12:48:18	7.3	39
4013	2023-02-27T12:58:18	9	35.5
4014	2023-02-27T13:08:18	11.6	31
4015	2023-02-27T13:18:18	11.1	30.5
4016	2023-02-27T13:28:18	9.8	32.5
4017	2023-02-27T13:38:18	10.5	30.5
4018	2023-02-27T13:48:18	8.7	33
4019	2023-02-27T13:58:18	9.5	32.5
4020	2023-02-27T14:08:18	8.3	34
4021	2023-02-27T14:18:18	8.9	34
4022	2023-02-27T14:28:18	7.4	35
4023	2023-02-27T14:38:18	10.1	30.5
4024	2023-02-27T14:48:18	11.2	29.5
4025	2023-02-27T14:58:18	8.6	33.5
4026	2023-02-27T15:08:18	7.8	35
4027	2023-02-27T15:18:18	7	37
4028	2023-02-27T15:28:18	6.3	37
4029	2023-02-27T15:38:18	6.1	38
4030	2023-02-27T15:48:18	6	39
4031	2023-02-27T15:58:18	5.4	39.5
4032	2023-02-27T16:08:18	5.2	41
4033	2023-02-27T16:18:18	5	40.5
4034	2023-02-27T16:28:18	4.8	41
4035	2023-02-27T16:38:18	4.4	42.5
4036	2023-02-27T16:48:18	4.4	42
4037	2023-02-27T16:58:18	4.2	42.5
4038	2023-02-27T17:08:18	4.2	43.5
4039	2023-02-27T17:18:18	4	44
4040	2023-02-27T17:28:18	3.8	43.5
4041	2023-02-27T17:38:18	3.6	43.5
4042	2023-02-27T17:48:18	3.5	44
4043	2023-02-27T17:58:18	3.4	44
4044	2023-02-27T18:08:18	3.3	44.5
4045	2023-02-27T18:18:18	3.2	45
4046	2023-02-27T18:28:18	3.1	45.5
4047	2023-02-27T18:38:18	3.2	45.5
4048	2023-02-27T18:48:18	3.2	46.5
4049	2023-02-27T18:58:18	3.1	47
4050	2023-02-27T19:08:18	2.9	47.5
4051	2023-02-27T19:18:18	2.8	48
4052	2023-02-27T19:28:18	2.6	49.5
4053	2023-02-27T19:38:18	2.3	50.5
4054	2023-02-27T19:48:18	2.1	51.5
4055	2023-02-27T19:58:18	1.9	52.5
4056	2023-02-27T20:08:18	1.9	53
4057	2023-02-27T20:18:18	1.8	54
4058	2023-02-27T20:28:18	1.5	55.5
4059	2023-02-27T20:38:18	1.2	56
4060	2023-02-27T20:48:18	1.1	55.5
4061	2023-02-27T20:58:18	1	53
4062	2023-02-27T21:08:18	0.8	52
4063	2023-02-27T21:18:18	0.6	51.5
4064	2023-02-27T21:28:18	0.6	50.5
4065	2023-02-27T21:38:18	0.5	52.5
4066	2023-02-27T21:48:18	0.5	54
4067	2023-02-27T21:58:18	0.3	57
4068	2023-02-27T22:08:18	0.1	59.5
4069	2023-02-27T22:18:18	0	61
4070	2023-02-27T22:28:18	-0.2	62.5
4071	2023-02-27T22:38:18	-0.3	64
4072	2023-02-27T22:48:18	-0.5	65
4073	2023-02-27T22:58:18	-0.8	66.5
4074	2023-02-27T23:08:18	-0.8	67.5
4075	2023-02-27T23:18:18	-0.8	68
4076	2023-02-27T23:28:18	-0.9	68.5
4077	2023-02-27T23:38:18	-1.1	69
4078	2023-02-27T23:48:18	-1.2	70
4079	2023-02-27T23:58:18	-1.2	70
4080	2023-02-28T00:08:18	-1.1	70
4081	2023-02-28T00:18:18	-1.1	70.5
4082	2023-02-28T00:28:18	-1.2	70.5
4083	2023-02-28T00:38:18	-1.2	70.5
4084	2023-02-28T00:48:18	-1.4	71
4085	2023-02-28T00:58:18	-1.4	71
4086	2023-02-28T01:08:18	-1.5	71.5
4087	2023-02-28T01:18:18	-1.5	71.5
4088	2023-02-28T01:28:18	-1.6	72
4089	2023-02-28T01:38:18	-1.7	72.5
4090	2023-02-28T01:48:18	-1.7	73
4091	2023-02-28T01:58:18	-1.9	73.5
4092	2023-02-28T02:18:18	-2	75
4093	2023-02-28T02:28:18	-2.1	75
4094	2023-02-28T02:38:18	-2.1	75.5
4095	2023-02-28T02:48:18	-2.1	75.5
4096	2023-02-28T02:58:18	-2.2	76
4097	2023-02-28T03:08:18	-2.3	76.5
4098	2023-02-28T03:18:18	-2.3	77.5
4099	2023-02-28T03:28:18	-2	77
4100	2023-02-28T03:38:18	-1.7	76.5
4101	2023-02-28T03:48:18	-1.5	75.5
4102	2023-02-28T03:58:18	-1.3	74.5
4103	2023-02-28T04:08:18	-1.2	74
4104	2023-02-28T04:18:18	-1.1	73.5
4105	2023-02-28T04:28:18	-1.1	73.5
4106	2023-02-28T04:38:18	-1	73
4107	2023-02-28T04:48:18	-1.2	73.5
4108	2023-02-28T04:58:18	-1.3	74
4109	2023-02-28T05:08:18	-1.3	74
4110	2023-02-28T05:18:18	-1.4	74.5
4111	2023-02-28T05:28:18	-1.6	74.5
4112	2023-02-28T05:38:18	-1.6	75
4113	2023-02-28T05:48:18	-1.6	76
4114	2023-02-28T05:58:18	-1.4	75.5
4115	2023-02-28T06:08:18	-1.2	75.5
4116	2023-02-28T06:18:18	-1.2	75.5
4117	2023-02-28T06:28:18	-1.1	74.5
4118	2023-02-28T06:38:18	-0.9	74
4119	2023-02-28T06:48:18	-0.8	74
4120	2023-02-28T06:58:18	-0.5	73
4121	2023-02-28T07:08:18	-0.4	72
4122	2023-02-28T07:18:18	-0.1	71
4123	2023-02-28T07:28:18	0	70.5
4124	2023-02-28T07:38:18	0.1	69
4125	2023-02-28T07:48:18	0.2	68.5
4126	2023-02-28T07:58:18	0.4	68
4127	2023-02-28T08:08:18	0.5	67.5
4128	2023-02-28T08:18:18	0.6	67
4129	2023-02-28T08:28:18	0.7	66.5
4130	2023-02-28T08:38:18	0.9	66
4131	2023-02-28T08:48:18	1.1	66
4132	2023-02-28T08:58:18	1.4	64
4133	2023-02-28T09:08:18	1.5	64
4134	2023-02-28T09:18:18	1.7	63.5
4135	2023-02-28T09:28:18	1.7	63
4136	2023-02-28T09:38:18	2.1	62
4137	2023-02-28T09:48:18	2.3	61.5
4138	2023-02-28T09:58:18	2.6	60.5
4139	2023-02-28T10:08:18	2.6	60
4140	2023-02-28T10:18:18	2.7	57.5
4141	2023-02-28T10:28:18	2.8	57.5
4142	2023-02-28T10:38:18	3	57
4143	2023-02-28T10:48:18	3.1	55.5
4144	2023-02-28T10:58:18	3.4	55.5
4145	2023-02-28T11:08:18	3.4	54.5
4146	2023-02-28T11:18:18	3.8	54
4147	2023-02-28T11:28:18	4.2	53
4148	2023-02-28T11:38:18	4.9	52
4149	2023-02-28T11:48:18	5.3	49.5
4150	2023-02-28T11:58:18	5.8	48.5
4151	2023-02-28T12:08:18	6.2	47
4152	2023-02-28T12:18:18	6.2	47.5
4153	2023-02-28T12:28:18	5.8	47.5
4154	2023-02-28T12:38:18	6.5	46.5
4155	2023-02-28T12:48:18	6.8	46
4156	2023-02-28T12:58:18	6.8	46
4157	2023-02-28T13:08:18	8.2	43
4158	2023-02-28T13:18:18	8.4	41
4159	2023-02-28T13:28:18	9.3	40
4160	2023-02-28T13:38:18	9.5	38.5
4161	2023-02-28T13:48:18	8.5	41
4162	2023-02-28T13:58:18	9	40
4163	2023-02-28T14:08:18	9.4	40
4164	2023-02-28T14:18:18	9.7	37.5
4165	2023-02-28T14:28:18	10.4	37
4166	2023-02-28T14:38:18	11.7	34
4167	2023-02-28T14:48:18	12.1	33
4168	2023-02-28T14:58:18	12.5	33
4169	2023-02-28T15:08:18	12.6	33
4170	2023-02-28T15:18:18	13.1	32.5
4171	2023-02-28T15:28:18	12.4	33
4172	2023-02-28T15:38:18	12.3	33.5
4173	2023-02-28T15:48:17	11.9	33
4174	2023-02-28T15:58:17	11.7	34.5
4175	2023-02-28T16:08:17	11.5	34.5
4176	2023-02-28T16:18:17	10.9	35.5
4177	2023-02-28T16:28:17	10.2	36.5
4178	2023-02-28T16:38:17	9.6	38
4179	2023-02-28T16:48:17	8.7	39.5
4180	2023-02-28T16:58:17	7.2	44
4181	2023-02-28T17:08:17	6.6	45.5
4182	2023-02-28T17:18:18	5.9	47.5
4183	2023-02-28T17:28:17	5.6	49
4184	2023-02-28T17:38:17	5.2	50.5
4185	2023-02-28T17:48:17	4.8	51
4186	2023-02-28T17:58:17	4.5	52
4187	2023-02-28T18:08:17	4.3	53
4188	2023-02-28T18:18:17	4	53.5
4189	2023-02-28T18:28:17	3.7	55
4190	2023-02-28T18:38:17	3.6	56
4191	2023-02-28T18:48:17	3.2	56.5
4192	2023-02-28T18:58:17	3	57.5
4193	2023-02-28T19:08:17	2.9	58
4194	2023-02-28T19:18:17	2.6	59
4195	2023-02-28T19:28:17	2.6	59.5
4196	2023-02-28T19:38:17	2.4	60
4197	2023-02-28T19:48:17	2.3	60.5
4198	2023-02-28T19:58:18	2.2	61.5
4199	2023-02-28T20:08:17	2	62.5
4200	2023-02-28T20:18:17	1.9	62.5
4201	2023-02-28T20:28:17	1.8	62.5
4202	2023-02-28T20:38:17	1.6	64
4203	2023-02-28T20:48:17	1.5	64
4204	2023-02-28T20:58:17	1.4	64
4205	2023-02-28T21:08:18	1.2	65
4206	2023-02-28T21:18:17	1.1	65.5
4207	2023-02-28T21:28:17	0.9	66.5
4208	2023-02-28T21:38:17	0.8	67
4209	2023-02-28T21:48:17	0.6	67.5
4210	2023-02-28T21:58:17	0.4	68
4211	2023-02-28T22:08:17	0.4	68.5
4212	2023-02-28T22:18:17	0.3	68.5
4213	2023-02-28T22:28:17	0.2	69
4214	2023-02-28T22:38:17	0.2	68.5
4215	2023-02-28T22:48:17	0	69
4216	2023-02-28T22:58:17	0	69
4217	2023-02-28T23:08:17	-0.1	69.5
4218	2023-02-28T23:18:17	-0.2	70
4219	2023-02-28T23:28:17	-0.3	70
4220	2023-02-28T23:38:17	-0.4	70.5
4221	2023-02-28T23:48:17	-0.2	70.5
4222	2023-02-28T23:58:17	-0.5	71
4223	2023-03-01T00:08:17	-0.5	72
4224	2023-03-01T00:18:17	-0.6	71.5
4225	2023-03-01T00:28:17	-0.6	72
4226	2023-03-01T00:38:17	-0.6	72
4227	2023-03-01T00:48:17	-0.6	72
4228	2023-03-01T00:58:17	-0.7	72.5
4229	2023-03-01T01:08:17	-0.8	73
4230	2023-03-01T01:18:17	-0.8	73
4231	2023-03-01T01:28:17	-0.9	73.5
4232	2023-03-01T01:38:17	-1	73.5
4233	2023-03-01T01:48:17	-1	74
4234	2023-03-01T01:58:17	-1.1	74.5
4235	2023-03-01T02:08:17	-1.2	74.5
4236	2023-03-01T02:18:17	-1.4	75.5
4237	2023-03-01T02:28:17	-1.6	76
4238	2023-03-01T02:38:17	-1.4	76
4239	2023-03-01T02:48:17	-1.5	76.5
4240	2023-03-01T02:58:17	-1.4	76.5
4241	2023-03-01T03:08:17	-1.5	77
4242	2023-03-01T03:18:17	-1.5	77
4243	2023-03-01T03:28:17	-1.5	77
4244	2023-03-01T03:38:17	-1.5	77
4245	2023-03-01T03:48:17	-1.6	77
4246	2023-03-01T03:58:17	-1.8	78
4247	2023-03-01T04:08:17	-1.8	78
4248	2023-03-01T04:18:17	-1.9	78.5
4249	2023-03-01T04:28:17	-2	78.5
4250	2023-03-01T04:38:17	-2	79
4251	2023-03-01T04:48:17	-2.1	79
4252	2023-03-01T04:58:17	-2	79.5
4253	2023-03-01T05:08:17	-2.1	79.5
4254	2023-03-01T05:18:17	-2.2	80
4255	2023-03-01T05:28:17	-2.2	80
4256	2023-03-01T05:38:18	-2.1	80.5
4257	2023-03-01T05:48:17	-2.3	81
4258	2023-03-01T05:58:17	-2.3	81
4259	2023-03-01T06:08:18	-2.3	81
4260	2023-03-01T06:18:17	-2.4	81
4261	2023-03-01T06:28:17	-2.3	81
4262	2023-03-01T06:38:17	-2.3	81
4263	2023-03-01T06:48:17	-2.2	81
4264	2023-03-01T06:58:17	-2.2	81
4265	2023-03-01T07:08:17	-2.1	81
4266	2023-03-01T07:18:18	-2	80.5
4267	2023-03-01T07:28:17	-1.9	80
4268	2023-03-01T07:38:17	-1.6	79.5
4269	2023-03-01T07:48:17	-1.4	79
4270	2023-03-01T07:58:17	-1.2	78.5
4271	2023-03-01T08:08:17	-0.9	78
4272	2023-03-01T08:18:17	-0.7	76.5
4273	2023-03-01T08:28:17	-0.4	75.5
4274	2023-03-01T08:38:18	0	75
4275	2023-03-01T08:48:17	0.1	73.5
4276	2023-03-01T08:58:17	0.4	73
4277	2023-03-01T09:08:18	0.6	73
4278	2023-03-01T09:18:17	0.9	71
4279	2023-03-01T09:28:17	1.3	70
4280	2023-03-01T09:38:17	1.5	69.5
4281	2023-03-01T09:48:17	1.8	68.5
4282	2023-03-01T09:58:17	2	67.5
4283	2023-03-01T10:08:17	2.4	66
4284	2023-03-01T10:18:17	2.7	64.5
4285	2023-03-01T10:28:17	2.9	64
4286	2023-03-01T10:38:17	3.3	62.5
4287	2023-03-01T10:48:17	3.5	62
4288	2023-03-01T10:58:17	3.8	60.5
4289	2023-03-01T11:08:17	4	60
4290	2023-03-01T11:18:17	4.4	60
4291	2023-03-01T11:28:17	4.7	59.5
4292	2023-03-01T11:38:17	5	57
4293	2023-03-01T11:48:17	5.3	54.5
4294	2023-03-01T11:58:17	5.7	55
4295	2023-03-01T12:08:17	6	54
4296	2023-03-01T12:18:17	6.4	53
4297	2023-03-01T12:28:17	9	47
4298	2023-03-01T12:38:17	11.6	40
4299	2023-03-01T12:48:17	12.2	35.5
4300	2023-03-01T12:58:17	12.9	34.5
4301	2023-03-01T13:08:17	13.7	33.5
4302	2023-03-01T13:18:17	14.5	33
4303	2023-03-01T13:28:17	15	31.5
4304	2023-03-01T13:38:17	15.3	30.5
4305	2023-03-01T13:48:17	15.2	31
4306	2023-03-01T13:58:17	16.1	28.5
4307	2023-03-01T14:08:17	17.2	27.5
4308	2023-03-01T14:18:17	16.7	28
4309	2023-03-01T14:28:17	17.2	27.5
4310	2023-03-01T14:38:17	16.8	27.5
4311	2023-03-01T14:48:17	16.7	28
4312	2023-03-01T14:58:17	16.7	28
4313	2023-03-01T15:08:17	16.1	29.5
4314	2023-03-01T15:18:17	16.3	28.5
4315	2023-03-01T15:28:17	15.6	28.5
4316	2023-03-01T15:38:17	15.8	29
4317	2023-03-01T15:48:17	15.6	29
4318	2023-03-01T15:58:17	14.7	31
4319	2023-03-01T16:08:17	14.2	32
4320	2023-03-01T16:18:17	13.1	33.5
4321	2023-03-01T16:28:17	12.2	35
4322	2023-03-01T16:38:17	11.1	37.5
4323	2023-03-01T16:48:17	10.5	39
4324	2023-03-01T16:58:17	9.4	41.5
4325	2023-03-01T17:08:17	9	43
4326	2023-03-01T17:18:17	8.4	44.5
4327	2023-03-01T17:28:17	8	45.5
4328	2023-03-01T17:38:17	7.7	46
4329	2023-03-01T17:48:17	7.5	48.5
4330	2023-03-01T17:58:17	7.4	49.5
4331	2023-03-01T18:08:17	7.1	49
4332	2023-03-01T18:18:17	6.7	49.5
4333	2023-03-01T18:28:17	6.4	51
4334	2023-03-01T18:38:17	6.1	51.5
4335	2023-03-01T18:48:17	5.9	52
4336	2023-03-01T19:08:17	5.4	54.5
4337	2023-03-01T19:18:17	5.1	55.5
4338	2023-03-01T19:28:17	4.8	56.5
4339	2023-03-01T19:38:17	4.8	57
4340	2023-03-01T19:48:17	4.6	58
4341	2023-03-01T19:58:17	4.3	59
4342	2023-03-01T20:08:17	4.2	58
4343	2023-03-01T20:18:17	3.9	59.5
4344	2023-03-01T20:28:17	3.8	60
4345	2023-03-01T20:38:17	3.5	61
4346	2023-03-01T20:48:17	3.4	61.5
4347	2023-03-01T20:58:17	3.2	62
4348	2023-03-01T21:08:17	3	63
4349	2023-03-01T21:18:17	2.8	63
4350	2023-03-01T21:28:17	2.6	64
4351	2023-03-01T21:38:17	2.5	64.5
4352	2023-03-01T21:48:17	2.3	65
4353	2023-03-01T21:58:17	2.3	65.5
4354	2023-03-01T22:08:17	2	66
4355	2023-03-01T22:18:17	2	66.5
4356	2023-03-01T22:28:17	1.8	67
4357	2023-03-01T22:38:17	1.5	68
4358	2023-03-01T22:48:17	1.3	69
4359	2023-03-01T22:58:17	1.3	69.5
4360	2023-03-01T23:08:17	1.2	70
4361	2023-03-01T23:18:17	1.2	70.5
4362	2023-03-01T23:28:17	1.1	71
4363	2023-03-01T23:38:17	1.1	71.5
4364	2023-03-01T23:48:17	1	72.5
4365	2023-03-01T23:58:17	0.9	72.5
4366	2023-03-02T00:08:17	0.7	73
4367	2023-03-02T00:18:17	0.7	74
4368	2023-03-02T00:28:17	0.6	74
4369	2023-03-02T00:38:17	0.6	74.5
4370	2023-03-02T00:48:17	0.5	75
4371	2023-03-02T00:58:17	0.4	75.5
4372	2023-03-02T01:08:17	0.4	76
4373	2023-03-02T01:18:17	0.3	76.5
4374	2023-03-02T01:28:17	0.2	76.5
4375	2023-03-02T01:38:17	0.3	77
4376	2023-03-02T01:48:17	0.3	77.5
4377	2023-03-02T01:58:17	0.2	77.5
4378	2023-03-02T02:08:17	0.3	77.5
4379	2023-03-02T02:18:17	0.3	77.5
4380	2023-03-02T02:28:17	0.2	78
4381	2023-03-02T02:38:17	0.2	78.5
4382	2023-03-02T02:48:17	0.1	79
4383	2023-03-02T02:58:17	0	79
4384	2023-03-02T03:08:17	0	79
4385	2023-03-02T03:18:17	0	79
4386	2023-03-02T03:28:17	0	79
4387	2023-03-02T03:38:17	0	79
4388	2023-03-02T03:48:17	0	79.5
4389	2023-03-02T03:58:17	-0.2	79.5
4390	2023-03-02T04:08:17	-0.2	80
4391	2023-03-02T04:18:17	-0.3	80
4392	2023-03-02T04:28:17	-0.4	80.5
4393	2023-03-02T04:38:17	-0.5	80.5
4394	2023-03-02T04:48:17	-0.5	81
4395	2023-03-02T04:58:17	-0.6	81
4396	2023-03-02T05:08:17	-0.7	81.5
4397	2023-03-02T05:18:17	-0.8	81.5
4398	2023-03-02T05:28:17	-0.8	81.5
4399	2023-03-02T05:38:17	-0.8	82
4400	2023-03-02T05:48:17	-0.9	82
4401	2023-03-02T05:58:17	-0.8	82
4402	2023-03-02T06:08:17	-0.8	82
4403	2023-03-02T06:18:17	-0.8	82.5
4404	2023-03-02T06:28:17	-0.8	82.5
4405	2023-03-02T06:38:17	-0.8	82.5
4406	2023-03-02T06:48:17	-0.7	82
4407	2023-03-02T06:58:17	-0.5	82.5
4408	2023-03-02T07:08:17	-0.5	82
4409	2023-03-02T07:18:17	-0.2	81.5
4410	2023-03-02T07:28:17	0	80.5
4411	2023-03-02T07:38:17	0.2	79.5
4412	2023-03-02T07:48:17	0.5	78.5
4413	2023-03-02T07:58:17	0.8	77
4414	2023-03-02T08:08:17	1.2	76
4415	2023-03-02T08:18:17	1.6	76
4416	2023-03-02T08:28:17	1.8	75
4417	2023-03-02T08:38:17	2.1	74
4418	2023-03-02T08:48:17	2.5	73
4419	2023-03-02T08:58:17	2.7	71
4420	2023-03-02T09:08:17	3.2	70.5
4421	2023-03-02T09:18:17	3.5	69
4422	2023-03-02T09:28:17	3.9	67.5
4423	2023-03-02T09:38:17	4.3	67
4424	2023-03-02T09:48:17	4.7	65.5
4425	2023-03-02T09:58:17	4.9	64.5
4426	2023-03-02T10:08:17	5.1	64.5
4427	2023-03-02T10:18:17	5.5	63.5
4428	2023-03-02T10:28:17	6.4	61
4429	2023-03-02T10:38:17	7.1	59.5
4430	2023-03-02T10:48:17	7.4	58
4431	2023-03-02T10:58:17	7.6	56.5
4432	2023-03-02T11:08:17	8.1	58
4433	2023-03-02T11:18:17	8.2	57.5
4434	2023-03-02T11:28:17	8.5	55
4435	2023-03-02T11:38:17	8.9	54
4436	2023-03-02T11:48:17	9.4	52.5
4437	2023-03-02T11:58:17	9.5	52.5
4438	2023-03-02T12:08:17	9.4	52.5
4439	2023-03-02T12:18:17	9.2	53
4440	2023-03-02T12:28:17	11.7	46.5
4441	2023-03-02T12:38:17	14.3	40.5
4442	2023-03-02T12:48:17	16.2	35
4443	2023-03-02T12:58:17	17	33.5
4444	2023-03-02T13:08:17	18.1	32
4445	2023-03-02T13:18:16	18.2	32
4446	2023-03-02T13:28:16	19.3	29.5
4447	2023-03-02T13:38:16	19.3	29.5
4448	2023-03-02T13:48:16	19.6	28
4449	2023-03-02T13:58:16	20.5	27.5
4450	2023-03-02T14:08:16	21	27.5
4451	2023-03-02T14:18:16	21	28
4452	2023-03-02T14:28:16	21.4	26.5
4453	2023-03-02T14:38:16	21.9	25
4454	2023-03-02T14:48:16	22	26.5
4455	2023-03-02T14:58:16	21.8	27
4456	2023-03-02T15:08:16	21.8	26
4457	2023-03-02T15:18:16	22.1	25
4458	2023-03-02T15:28:16	20.8	27.5
4459	2023-03-02T15:38:16	20.6	29
4460	2023-03-02T15:48:16	19	28.5
4461	2023-03-02T15:58:16	17.1	32
4462	2023-03-02T16:08:16	16.6	32.5
4463	2023-03-02T16:18:16	15.5	34.5
4464	2023-03-02T16:28:16	13.5	41
4465	2023-03-02T16:38:16	12	44.5
4466	2023-03-02T16:48:16	10.7	47.5
4467	2023-03-02T16:58:16	9.4	51.5
4468	2023-03-02T17:08:16	8.8	53
4469	2023-03-02T17:18:16	8.2	55
4470	2023-03-02T17:28:16	8	56
4471	2023-03-02T17:38:16	7.7	57.5
4472	2023-03-02T17:48:16	7.6	58
4473	2023-03-02T17:58:16	7.2	59
4474	2023-03-02T18:08:16	6.8	60
4475	2023-03-02T18:18:16	6.6	61
4476	2023-03-02T18:28:16	6.4	62
4477	2023-03-02T18:38:16	6	63
4478	2023-03-02T18:48:16	5.7	63.5
4479	2023-03-02T18:58:16	5.8	64
4480	2023-03-02T19:08:16	5.9	64
4481	2023-03-02T19:18:16	5.8	64
4482	2023-03-02T19:28:16	5.7	65
4483	2023-03-02T19:38:16	5.9	64.5
4484	2023-03-02T19:48:16	5.6	65
4485	2023-03-02T19:58:16	5.4	66
4486	2023-03-02T20:08:16	5.1	67
4487	2023-03-02T20:18:16	5.1	68
4488	2023-03-02T20:28:16	4.9	68
4489	2023-03-02T20:38:16	4.8	68
4490	2023-03-02T20:48:16	4.7	68.5
4491	2023-03-02T20:58:16	4.7	69
4492	2023-03-02T21:08:16	4.3	70
4493	2023-03-02T21:18:16	4.1	71
4494	2023-03-02T21:28:16	3.9	71.5
4495	2023-03-02T21:38:16	3.8	71.5
4496	2023-03-02T21:48:16	3.6	71.5
4497	2023-03-02T21:58:16	3.6	72
4498	2023-03-02T22:08:16	3.5	72
4499	2023-03-02T22:18:16	3.5	72
4500	2023-03-02T22:28:16	3.2	72
4501	2023-03-02T22:38:16	3.2	72.5
4502	2023-03-02T22:48:16	2.9	72
4503	2023-03-02T22:58:16	2.7	74
4504	2023-03-02T23:08:16	2.3	74.5
4505	2023-03-02T23:18:16	2.5	75
4506	2023-03-02T23:28:16	2.5	74
4507	2023-03-02T23:38:16	2.3	74.5
4508	2023-03-02T23:48:16	2.3	75
4509	2023-03-02T23:58:16	2.4	75
4510	2023-03-03T00:08:16	2.3	74
4511	2023-03-03T00:18:16	2.2	74.5
4512	2023-03-03T00:28:16	2.1	76.5
4513	2023-03-03T00:38:16	2	78
4514	2023-03-03T00:48:16	2	77
4515	2023-03-03T00:58:16	2.1	76.5
4516	2023-03-03T01:08:16	1.9	77.5
4517	2023-03-03T01:18:16	1.8	77.5
4518	2023-03-03T01:28:16	1.6	78
4519	2023-03-03T01:38:16	1.3	78.5
4520	2023-03-03T01:48:16	1.4	79.5
4521	2023-03-03T01:58:16	1.4	79
4522	2023-03-03T02:08:16	1.3	78.5
4523	2023-03-03T02:18:16	1	79
4524	2023-03-03T02:28:16	0.8	79.5
4525	2023-03-03T02:38:16	0.6	80
4526	2023-03-03T02:48:16	0.6	80.5
4527	2023-03-03T02:58:16	0.3	81
4528	2023-03-03T03:08:16	0.2	81.5
4529	2023-03-03T03:18:16	0.2	82
4530	2023-03-03T03:28:16	0.3	81.5
4531	2023-03-03T03:38:16	0.1	82
4532	2023-03-03T03:48:16	0	82
4533	2023-03-03T03:58:16	0	82
4534	2023-03-03T04:08:16	-0.1	82.5
4535	2023-03-03T04:18:16	0	82.5
4536	2023-03-03T04:28:16	0.2	82
4537	2023-03-03T04:38:16	0.4	82
4538	2023-03-03T04:48:16	0.4	81
4539	2023-03-03T04:58:16	0.4	81.5
4540	2023-03-03T05:08:16	0.5	82
4541	2023-03-03T05:18:16	0.6	81.5
4542	2023-03-03T05:28:16	0.8	81.5
4543	2023-03-03T05:48:16	1.1	81
4544	2023-03-03T05:58:16	1.1	81
4545	2023-03-03T06:08:16	1.2	81
4546	2023-03-03T06:18:16	1.2	81
4547	2023-03-03T06:28:16	1.3	81.5
4548	2023-03-03T06:38:16	1.4	81.5
4549	2023-03-03T06:48:16	1.5	81.5
4550	2023-03-03T06:58:16	1.7	81.5
4551	2023-03-03T07:08:16	1.9	81
4552	2023-03-03T07:18:16	2	80.5
4553	2023-03-03T07:28:16	2.1	80
4554	2023-03-03T07:38:16	2.3	79.5
4555	2023-03-03T07:48:16	2.6	79.5
4556	2023-03-03T07:58:16	2.9	78.5
4557	2023-03-03T08:08:16	2.9	78
4558	2023-03-03T08:18:16	3.2	76.5
4559	2023-03-03T08:28:16	3.4	75
4560	2023-03-03T08:38:16	3.5	74.5
4561	2023-03-03T08:48:16	3.6	74.5
4562	2023-03-03T08:58:16	3.6	74
4563	2023-03-03T09:08:16	3.8	74
4564	2023-03-03T09:18:16	3.9	72.5
4565	2023-03-03T09:28:16	4.2	71.5
4566	2023-03-03T09:38:16	4.4	69.5
4567	2023-03-03T09:48:16	4.8	67.5
4568	2023-03-03T09:58:16	4.9	67
4569	2023-03-03T10:08:16	5.1	67.5
4570	2023-03-03T10:18:16	5.5	65
4571	2023-03-03T10:28:16	5.6	63
4572	2023-03-03T10:38:16	6	63.5
4573	2023-03-03T10:48:16	6.1	61.5
4574	2023-03-03T10:58:16	6.4	63
4575	2023-03-03T11:08:16	6.4	60.5
4576	2023-03-03T11:18:16	6.8	58.5
4577	2023-03-03T11:28:16	7.1	58.5
4578	2023-03-03T11:38:16	7.5	58
4579	2023-03-03T11:48:16	7.9	56
4580	2023-03-03T11:58:16	8.2	54.5
4581	2023-03-03T12:08:16	8.5	54
4582	2023-03-03T12:18:16	8.9	50.5
4583	2023-03-03T12:28:16	11.2	46.5
4584	2023-03-03T12:38:16	13.8	39
4585	2023-03-03T12:48:16	15.7	36
4586	2023-03-03T12:58:16	16.8	33
4587	2023-03-03T13:08:16	17.6	31
4588	2023-03-03T13:18:16	17.6	32
4589	2023-03-03T13:28:16	18.2	31
4590	2023-03-03T13:38:16	19.3	29.5
4591	2023-03-03T13:48:16	19.6	29
4592	2023-03-03T13:58:16	20	28.5
4593	2023-03-03T14:08:16	19.9	28
4594	2023-03-03T14:18:16	20.6	27.5
4595	2023-03-03T14:28:15	20.4	27.5
4596	2023-03-03T14:38:15	20	28.5
4597	2023-03-03T14:48:15	20.8	27
4598	2023-03-03T14:58:15	20.5	27.5
4599	2023-03-03T15:08:15	20.3	27.5
4600	2023-03-03T15:18:15	20	28
4601	2023-03-03T15:28:15	19.5	28.5
4602	2023-03-03T15:38:15	18.8	29.5
4603	2023-03-03T15:48:15	17.9	31.5
4604	2023-03-03T15:58:15	17.4	33
4605	2023-03-03T16:08:15	17	33
4606	2023-03-03T16:18:15	16.6	35.5
4607	2023-03-03T16:28:15	15.9	35.5
4608	2023-03-03T16:38:15	14.9	37
4609	2023-03-03T16:48:15	14.1	39.5
4610	2023-03-03T16:58:16	13.6	40.5
4611	2023-03-03T17:08:15	12.9	42
4612	2023-03-03T17:18:15	12.4	44
4613	2023-03-03T17:28:15	12.1	45.5
4614	2023-03-03T17:38:15	11.9	45.5
4615	2023-03-03T17:48:15	11.5	47.5
4616	2023-03-03T17:58:15	11.1	48
4617	2023-03-03T18:08:15	10.8	48.5
4618	2023-03-03T18:18:15	10.5	50
4619	2023-03-03T18:28:15	10.2	51
4620	2023-03-03T18:38:15	10	51.5
4621	2023-03-03T18:48:15	9.8	52.5
4622	2023-03-03T18:58:15	9.4	53
4623	2023-03-03T19:08:15	8.7	53.5
4624	2023-03-03T19:18:15	8.2	54.5
4625	2023-03-03T19:38:15	7.9	55
4626	2023-03-03T19:48:15	7.6	56
4627	2023-03-03T19:58:15	7.5	57
4628	2023-03-03T20:08:15	7.2	57
4629	2023-03-03T20:18:15	6.9	57.5
4630	2023-03-03T20:28:15	6.7	58.5
4631	2023-03-03T20:38:15	6.4	58.5
4632	2023-03-03T20:48:15	6.2	59.5
4633	2023-03-03T20:58:15	6	60
4634	2023-03-03T21:08:15	5.8	60
4635	2023-03-03T21:18:15	5.6	60
4636	2023-03-03T21:28:15	5.3	62
4637	2023-03-03T21:38:15	5.1	61.5
4638	2023-03-03T21:48:15	4.8	62
4639	2023-03-03T21:58:15	4.7	63
4640	2023-03-03T22:08:15	4.6	62.5
4641	2023-03-03T22:18:15	4.3	63
4642	2023-03-03T22:28:15	4.1	63
4643	2023-03-03T22:38:15	4.1	64
4644	2023-03-03T22:48:15	3.8	65
4645	2023-03-03T22:58:15	3.6	64.5
4646	2023-03-03T23:08:15	3.5	66
4647	2023-03-03T23:18:15	3.3	65.5
4648	2023-03-03T23:28:15	3.1	66
4649	2023-03-03T23:38:15	2.9	67
4650	2023-03-03T23:48:15	2.7	67.5
4651	2023-03-03T23:58:15	2.7	67.5
4652	2023-03-04T00:08:15	2.7	68.5
4653	2023-03-04T00:18:15	2.3	68.5
4654	2023-03-04T00:28:15	2	69.5
4655	2023-03-04T00:38:15	2	69.5
4656	2023-03-04T00:48:15	1.8	71
4657	2023-03-04T00:58:15	1.7	71.5
4658	2023-03-04T01:08:15	1.7	71.5
4659	2023-03-04T01:18:15	1.5	72
4660	2023-03-04T01:28:15	1.6	72.5
4661	2023-03-04T01:38:15	1.5	72.5
4662	2023-03-04T01:48:15	1.2	73
4663	2023-03-04T01:58:15	1	74
4664	2023-03-04T02:08:15	0.8	74.5
4665	2023-03-04T02:18:15	0.8	75.5
4666	2023-03-04T02:28:15	0.4	75.5
4667	2023-03-04T02:38:15	0.4	75.5
4668	2023-03-04T02:48:15	0.5	75.5
4669	2023-03-04T02:58:15	0.4	76.5
4670	2023-03-04T03:18:15	0.2	77
4671	2023-03-04T03:28:15	0	77
4672	2023-03-04T03:38:15	0	76.5
4673	2023-03-04T03:48:15	-0.1	77.5
4674	2023-03-04T03:58:15	-0.2	78.5
4675	2023-03-04T04:08:15	-0.4	79
4676	2023-03-04T04:18:15	-0.4	78.5
4677	2023-03-04T04:28:15	-0.5	79.5
4678	2023-03-04T04:38:15	-0.5	78.5
4679	2023-03-04T04:48:15	-0.6	79.5
4680	2023-03-04T04:58:15	-0.7	79.5
4681	2023-03-04T05:08:15	-0.6	80
4682	2023-03-04T05:18:15	-0.6	81
4683	2023-03-04T05:28:15	-0.7	81.5
4684	2023-03-04T05:38:15	-0.9	81.5
4685	2023-03-04T05:48:15	-1.1	82
4686	2023-03-04T05:58:15	-1.1	82.5
4687	2023-03-04T06:08:15	-1	82
4688	2023-03-04T06:18:15	-1.4	83
4689	2023-03-04T06:28:15	-1.4	83
4690	2023-03-04T06:38:15	-1.1	82
4691	2023-03-04T06:48:15	-1	83
4692	2023-03-04T06:58:15	-0.7	83
4693	2023-03-04T07:08:15	-0.4	82.5
4694	2023-03-04T07:18:15	-0.2	82
4695	2023-03-04T07:28:15	0	81
4696	2023-03-04T07:38:15	0.5	81.5
4697	2023-03-04T07:48:15	0.8	80.5
4698	2023-03-04T07:58:15	1.1	79.5
4699	2023-03-04T08:08:15	1.3	80
4700	2023-03-04T08:18:15	1.5	80
4701	2023-03-04T08:28:15	1.9	78.5
4702	2023-03-04T08:38:15	2.3	78
4703	2023-03-04T08:48:15	2.6	77
4704	2023-03-04T08:58:15	2.8	76
4705	2023-03-04T09:08:15	3.4	75
4706	2023-03-04T09:18:15	3.7	71.5
4707	2023-03-04T09:28:15	4.2	68.5
4708	2023-03-04T09:38:15	4.6	67.5
4709	2023-03-04T09:48:15	4.8	65.5
4710	2023-03-04T09:58:15	4.8	64.5
4711	2023-03-04T10:08:15	4.8	64.5
4712	2023-03-04T10:18:15	5.2	64
4713	2023-03-04T10:28:15	5.1	62
4714	2023-03-04T10:38:15	5.1	62.5
4715	2023-03-04T10:48:15	5.3	62
4716	2023-03-04T10:58:15	5.1	61.5
4717	2023-03-04T11:08:15	4.8	62.5
4718	2023-03-04T11:18:15	5	63.5
4719	2023-03-04T11:28:15	5.1	62
4720	2023-03-04T11:38:15	5	61
4721	2023-03-04T11:48:15	5.2	62
4722	2023-03-04T11:58:15	4.9	62
4723	2023-03-04T12:08:15	5.2	62.5
4724	2023-03-04T12:18:15	5.2	61.5
4725	2023-03-04T12:28:15	5.2	61
4726	2023-03-04T12:38:15	5.5	62
4727	2023-03-04T12:48:15	5.5	61
4728	2023-03-04T12:58:15	5.7	61
4729	2023-03-04T13:08:15	5.5	59
4730	2023-03-04T13:18:15	5.4	60
4731	2023-03-04T13:28:15	5.8	60
4732	2023-03-04T13:38:15	6	60.5
4733	2023-03-04T13:48:15	5.9	60.5
4734	2023-03-04T13:58:15	5.9	60.5
4735	2023-03-04T14:08:15	5.8	60.5
4736	2023-03-04T14:18:15	5.7	60.5
4737	2023-03-04T14:28:15	5.6	60
4738	2023-03-04T14:38:15	5.7	61.5
4739	2023-03-04T14:48:15	5.5	61
4740	2023-03-04T14:58:15	5.4	62
4741	2023-03-04T15:08:15	5.3	62.5
4742	2023-03-04T15:18:15	5.2	62
4743	2023-03-04T15:28:15	5	62
4744	2023-03-04T15:38:15	5.1	64
4745	2023-03-04T15:48:15	5.1	63.5
4746	2023-03-04T15:58:15	4.9	64
4747	2023-03-04T16:08:15	4.9	65
4748	2023-03-04T16:18:15	4.7	64.5
4749	2023-03-04T16:28:15	4.7	65
4750	2023-03-04T16:38:15	4.6	64.5
4751	2023-03-04T16:48:15	4.5	65.5
4752	2023-03-04T16:58:15	4.4	66
4753	2023-03-04T17:08:15	4.4	65.5
4754	2023-03-04T17:18:15	4.4	65
4755	2023-03-04T17:28:15	4.4	66
4756	2023-03-04T17:38:15	4.3	67
4757	2023-03-04T17:48:15	4.3	68
4758	2023-03-04T17:58:15	4.2	67.5
4759	2023-03-04T18:08:15	4.2	68
4760	2023-03-04T18:18:15	4.2	67.5
4761	2023-03-04T18:28:15	4.2	68.5
4762	2023-03-04T18:38:15	4.2	69
4763	2023-03-04T18:48:15	4	68.5
4764	2023-03-04T18:58:15	4.1	67
4765	2023-03-04T19:08:15	4.1	67.5
4766	2023-03-04T19:18:15	4.1	69
4767	2023-03-04T19:28:15	4	69
4768	2023-03-04T19:38:15	4	67.5
4769	2023-03-04T19:48:15	4	68
4770	2023-03-04T19:58:15	4	70
4771	2023-03-04T20:08:15	3.9	69
4772	2023-03-04T20:18:15	4	68.5
4773	2023-03-04T20:28:15	4	67.5
4774	2023-03-04T20:38:15	4	67
4775	2023-03-04T20:48:15	4.1	66.5
4776	2023-03-04T20:58:15	4	66.5
4777	2023-03-04T21:08:15	3.9	69
4778	2023-03-04T21:18:15	3.9	68.5
4779	2023-03-04T21:28:15	4	68
4780	2023-03-04T21:38:15	3.9	68.5
4781	2023-03-04T21:48:14	4	67.5
4782	2023-03-04T21:58:14	4.1	67.5
4783	2023-03-04T22:08:15	4	67
4784	2023-03-04T22:18:14	4.1	66.5
4785	2023-03-04T22:28:15	4.1	66.5
4786	2023-03-04T22:38:14	4.1	66.5
4787	2023-03-04T22:48:15	4.1	66.5
4788	2023-03-04T22:58:14	4	67
4789	2023-03-04T23:08:14	4	67
4790	2023-03-04T23:18:14	4.1	67
4791	2023-03-04T23:28:14	4.1	66.5
4792	2023-03-04T23:38:14	4.1	68
4793	2023-03-04T23:48:15	4.1	67.5
4794	2023-03-04T23:58:14	4	67.5
4795	2023-03-05T00:08:14	4.1	67.5
4796	2023-03-05T00:18:14	4.1	67.5
4797	2023-03-05T00:28:15	4.2	67.5
4798	2023-03-05T00:38:14	4.1	68
4799	2023-03-05T00:48:14	4.2	68
4800	2023-03-05T00:58:14	4.3	67
4801	2023-03-05T01:08:14	4.2	67
4802	2023-03-05T01:18:14	4.2	67
4803	2023-03-05T01:28:14	4.3	67
4804	2023-03-05T01:38:14	4.2	67
4805	2023-03-05T01:48:14	4.2	67.5
4806	2023-03-05T01:58:14	4.3	67.5
4807	2023-03-05T02:08:14	4.3	67.5
4808	2023-03-05T02:18:14	4.3	67.5
4809	2023-03-05T02:28:14	4.2	68
4810	2023-03-05T02:38:14	4.1	68.5
4811	2023-03-05T02:48:14	4.1	68.5
4812	2023-03-05T02:58:14	4	69.5
4813	2023-03-05T03:08:14	4	70
4814	2023-03-05T03:18:14	3.9	70.5
4815	2023-03-05T03:28:14	3.8	70.5
4816	2023-03-05T03:38:14	3.8	71
4817	2023-03-05T03:48:14	3.8	70.5
4818	2023-03-05T03:58:14	3.8	70
4819	2023-03-05T04:08:14	3.7	70
4820	2023-03-05T04:18:14	3.8	70
4821	2023-03-05T04:28:14	3.9	70
4822	2023-03-05T04:38:14	3.8	70
4823	2023-03-05T04:48:14	3.8	69.5
4824	2023-03-05T04:58:14	3.8	69.5
4825	2023-03-05T05:08:14	3.7	69.5
4826	2023-03-05T05:18:14	3.8	69.5
4827	2023-03-05T05:28:15	3.6	70
4828	2023-03-05T05:38:14	3.6	70.5
4829	2023-03-05T05:48:14	3.7	70.5
4830	2023-03-05T05:58:15	3.6	70.5
4831	2023-03-05T06:08:14	3.7	70
4832	2023-03-05T06:18:14	3.6	70.5
4833	2023-03-05T06:28:14	3.6	71
4834	2023-03-05T06:38:14	3.7	71.5
4835	2023-03-05T06:48:14	3.6	72
4836	2023-03-05T06:58:14	3.7	72
4837	2023-03-05T07:08:14	3.9	72
4838	2023-03-05T07:18:14	3.8	72.5
4839	2023-03-05T07:28:14	4	72
4840	2023-03-05T07:38:14	4.1	70.5
4841	2023-03-05T07:48:15	4.3	70
4842	2023-03-05T07:58:14	4.4	68.5
4843	2023-03-05T08:08:14	4.5	69
4844	2023-03-05T08:18:14	4.5	68
4845	2023-03-05T08:28:14	4.6	68
4846	2023-03-05T08:38:14	4.8	67
4847	2023-03-05T08:48:14	4.8	66.5
4848	2023-03-05T08:58:14	5.1	65.5
4849	2023-03-05T09:08:14	5.2	65
4850	2023-03-05T09:28:14	5	65
4851	2023-03-05T09:38:14	5.2	65.5
4852	2023-03-05T09:48:14	5.3	65.5
4853	2023-03-05T09:58:14	5.2	66.5
4854	2023-03-05T10:08:14	5.4	66
4855	2023-03-05T10:18:14	5.4	65.5
4856	2023-03-05T10:28:14	5.6	65
4857	2023-03-05T10:38:14	5.7	65.5
4858	2023-03-05T10:48:14	5.9	65.5
4859	2023-03-05T10:58:14	5.8	65.5
4860	2023-03-05T11:08:14	5.7	66
4861	2023-03-05T11:18:14	5.7	66
4862	2023-03-05T11:28:14	6.1	65
4863	2023-03-05T11:38:14	6.2	64.5
4864	2023-03-05T11:48:14	6.3	64.5
4865	2023-03-05T11:58:14	6.1	65
4866	2023-03-05T12:08:14	5.9	65
4867	2023-03-05T12:18:14	5.9	65
4868	2023-03-05T12:28:14	5.9	65
4869	2023-03-05T12:38:14	5.9	65
4870	2023-03-05T12:48:14	6	65
4871	2023-03-05T12:58:14	6	66
4872	2023-03-05T13:08:14	6	65.5
4873	2023-03-05T13:18:14	5.9	65.5
4874	2023-03-05T13:28:14	5.9	66
4875	2023-03-05T13:38:14	5.8	67
4876	2023-03-05T13:48:14	5.9	66.5
4877	2023-03-05T13:58:14	5.8	67
4878	2023-03-05T14:08:14	5.9	66.5
4879	2023-03-05T14:18:14	5.8	66.5
4880	2023-03-05T14:28:14	5.7	67
4881	2023-03-05T14:38:14	5.7	67
4882	2023-03-05T14:48:14	5.6	67
4883	2023-03-05T14:58:14	5.6	67.5
4884	2023-03-05T15:08:14	5.5	67.5
4885	2023-03-05T15:18:14	5.5	68.5
4886	2023-03-05T15:28:14	5.5	68.5
4887	2023-03-05T15:38:14	5.5	68.5
4888	2023-03-05T15:48:14	5.4	68.5
4889	2023-03-05T15:58:14	5.4	69
4890	2023-03-05T16:08:14	5.4	69.5
4891	2023-03-05T16:18:14	5.4	69.5
4892	2023-03-05T16:28:14	5.3	70
4893	2023-03-05T16:38:14	5.2	70
4894	2023-03-05T16:48:14	5.2	70.5
4895	2023-03-05T16:58:14	5.1	70.5
4896	2023-03-05T17:08:14	5	71.5
4897	2023-03-05T17:18:14	4.9	72
4898	2023-03-05T17:28:14	4.8	72
4899	2023-03-05T17:38:14	4.9	71.5
4900	2023-03-05T17:48:14	4.9	72.5
4901	2023-03-05T17:58:14	4.8	73
4902	2023-03-05T18:08:14	4.6	73
4903	2023-03-05T18:18:14	4.7	74
4904	2023-03-05T18:28:14	4.6	74
4905	2023-03-05T18:38:14	4.7	73.5
4906	2023-03-05T18:48:14	4.6	73.5
4907	2023-03-05T18:58:14	4.5	74.5
4908	2023-03-05T19:08:14	4.4	75.5
4909	2023-03-05T19:18:14	4.3	75
4910	2023-03-05T19:28:14	4.3	74.5
4911	2023-03-05T19:38:14	4.3	73.5
4912	2023-03-05T19:48:14	4.3	72.5
4913	2023-03-05T19:58:14	4.2	72
4914	2023-03-05T20:08:14	4.1	72.5
4915	2023-03-05T20:18:14	4.2	71
4916	2023-03-05T20:28:14	4.1	70.5
4917	2023-03-05T20:38:14	4	70
4918	2023-03-05T20:48:14	4.1	69.5
4919	2023-03-05T20:58:14	4	69
4920	2023-03-05T21:08:14	3.9	69
4921	2023-03-05T21:18:14	4	69.5
4922	2023-03-05T21:28:14	3.9	69.5
4923	2023-03-05T21:38:14	3.8	69.5
4924	2023-03-05T21:48:14	3.8	69.5
4925	2023-03-05T21:58:14	3.8	70
4926	2023-03-05T22:08:14	3.8	70.5
4927	2023-03-05T22:18:14	3.7	70.5
4928	2023-03-05T22:28:14	3.6	70.5
4929	2023-03-05T22:38:14	3.6	70.5
4930	2023-03-05T22:48:14	3.6	70
4931	2023-03-05T22:58:14	3.8	69.5
4932	2023-03-05T23:08:14	3.6	69.5
4933	2023-03-05T23:18:14	3.4	71
4934	2023-03-05T23:28:14	3.5	70.5
4935	2023-03-05T23:38:14	3.3	71.5
4936	2023-03-05T23:48:14	3.2	73
4937	2023-03-05T23:58:14	3.1	73
4938	2023-03-06T00:08:14	3	74
4939	2023-03-06T00:18:14	2.9	73.5
4940	2023-03-06T00:28:14	2.9	74
4941	2023-03-06T00:38:14	3	74
4942	2023-03-06T00:48:14	3	74.5
4943	2023-03-06T00:58:14	3	74.5
4944	2023-03-06T01:08:14	2.9	75
4945	2023-03-06T01:18:14	2.8	74.5
4946	2023-03-06T01:28:14	2.8	74.5
4947	2023-03-06T01:38:14	2.9	74.5
4948	2023-03-06T01:48:14	2.8	75
4949	2023-03-06T01:58:14	2.9	74
4950	2023-03-06T02:08:14	2.9	74
4951	2023-03-06T02:18:14	3	74
4952	2023-03-06T02:28:14	3	73.5
4953	2023-03-06T02:38:14	3	74
4954	2023-03-06T02:48:14	3.1	73.5
4955	2023-03-06T02:58:14	3.1	74
4956	2023-03-06T03:08:14	3.1	73
4957	2023-03-06T03:18:14	3.2	73
4958	2023-03-06T03:28:14	3.2	73
4959	2023-03-06T03:38:14	3.1	73
4960	2023-03-06T03:48:14	3	73.5
4961	2023-03-06T03:58:14	3	73.5
4962	2023-03-06T04:08:14	3	74
4963	2023-03-06T04:18:14	3.1	74
4964	2023-03-06T04:28:14	3.1	73.5
4965	2023-03-06T04:38:14	3.2	72.5
4966	2023-03-06T04:48:14	3.2	72.5
4967	2023-03-06T04:58:14	3.3	72.5
4968	2023-03-06T05:08:14	3.2	72.5
4969	2023-03-06T05:18:14	3.2	72
4970	2023-03-06T05:28:14	3.2	72
4971	2023-03-06T05:38:14	3.2	72
4972	2023-03-06T05:48:13	3.3	72
4973	2023-03-06T05:58:13	3.3	72.5
4974	2023-03-06T06:08:13	3.1	72.5
4975	2023-03-06T06:18:13	3.3	72.5
4976	2023-03-06T06:28:13	3.2	72
4977	2023-03-06T06:38:13	3.2	73
4978	2023-03-06T06:48:13	3.2	73
4979	2023-03-06T06:58:13	3.2	73.5
4980	2023-03-06T07:08:13	3.3	73.5
4981	2023-03-06T07:18:13	3.3	74.5
4982	2023-03-06T07:28:13	3.2	76.5
4983	2023-03-06T07:38:13	3.2	76
4984	2023-03-06T07:48:13	3.3	75.5
4985	2023-03-06T07:58:13	3.3	76.5
4986	2023-03-06T08:08:13	3.3	77
4987	2023-03-06T08:18:13	3.3	76.5
4988	2023-03-06T08:28:13	3.5	76.5
4989	2023-03-06T08:38:13	3.6	76
4990	2023-03-06T08:48:13	3.6	75.5
4991	2023-03-06T08:58:13	3.7	76.5
4992	2023-03-06T09:08:13	3.7	75.5
4993	2023-03-06T09:18:13	3.9	74.5
4994	2023-03-06T09:28:13	4	73.5
4995	2023-03-06T09:38:13	4	73
4996	2023-03-06T09:48:13	4.2	72.5
4997	2023-03-06T09:58:13	4.4	71.5
4998	2023-03-06T10:08:13	4.6	71.5
4999	2023-03-06T10:18:13	4.8	71
5000	2023-03-06T10:28:13	5.3	69
5001	2023-03-06T10:38:13	5.1	68
5002	2023-03-06T10:48:13	5.3	68
5003	2023-03-06T10:58:13	5.3	68.5
5004	2023-03-06T11:08:13	5.3	67.5
5005	2023-03-06T11:18:13	5.7	65.5
5006	2023-03-06T11:28:13	6	64.5
5007	2023-03-06T11:38:13	5.9	64.5
5008	2023-03-06T11:48:13	6	63
5009	2023-03-06T11:58:13	6.1	63
5010	2023-03-06T12:08:13	6.1	62
5011	2023-03-06T12:18:13	6.1	60.5
5012	2023-03-06T12:38:13	6.2	59.5
5013	2023-03-06T12:48:13	6	60
5014	2023-03-06T12:58:13	6	60
5015	2023-03-06T13:08:13	6	60.5
5016	2023-03-06T13:18:13	6	60.5
5017	2023-03-06T13:28:13	5.8	62.5
5018	2023-03-06T13:38:13	5.8	62.5
5019	2023-03-06T13:48:13	5.9	63
5020	2023-03-06T13:58:13	5.7	62.5
5021	2023-03-06T14:08:13	5.3	76
5022	2023-03-06T14:18:13	4.3	84
5023	2023-03-06T14:28:13	3.6	91
5024	2023-03-06T14:38:13	3.5	92
5025	2023-03-06T14:48:13	3.4	92.5
5026	2023-03-06T14:58:13	3.8	93
5027	2023-03-06T15:08:13	4.1	92
5028	2023-03-06T15:18:13	4.1	86.5
5029	2023-03-06T15:28:13	4.2	85
5030	2023-03-06T15:38:13	4.3	83
5031	2023-03-06T15:48:13	4.4	79.5
5032	2023-03-06T15:58:13	4.5	76
5033	2023-03-06T16:08:13	4.6	72
5034	2023-03-06T16:18:13	4.6	70.5
5035	2023-03-06T16:28:13	4.7	71
5036	2023-03-06T16:38:13	4.5	69
5037	2023-03-06T16:48:13	4.5	68
5038	2023-03-06T16:58:13	4.5	69
5039	2023-03-06T17:08:13	4.6	67.5
5040	2023-03-06T17:18:13	4.6	67.5
5041	2023-03-06T17:28:13	4.4	69.5
5042	2023-03-06T17:38:13	4.4	68.5
5043	2023-03-06T17:48:13	4.4	68.5
5044	2023-03-06T17:58:13	4.4	68.5
5045	2023-03-06T18:08:13	4.4	68.5
5046	2023-03-06T18:18:13	4.3	68
5047	2023-03-06T18:28:13	4.1	68
5048	2023-03-06T18:38:13	4.1	68.5
5049	2023-03-06T18:48:13	4	68.5
5050	2023-03-06T18:58:13	4.1	70
5051	2023-03-06T19:08:13	4	71.5
5052	2023-03-06T19:18:13	4	71.5
5053	2023-03-06T19:28:13	4	71.5
5054	2023-03-06T19:38:13	3.9	71.5
5055	2023-03-06T19:48:13	4	71
5056	2023-03-06T19:58:13	3.8	71
5057	2023-03-06T20:08:13	3.8	70.5
5058	2023-03-06T20:18:13	3.8	70.5
5059	2023-03-06T20:28:13	3.8	70.5
5060	2023-03-06T20:38:13	3.8	70.5
5061	2023-03-06T20:48:13	3.8	71
5062	2023-03-06T20:58:13	3.7	71
5063	2023-03-06T21:08:13	3.8	70.5
5064	2023-03-06T21:18:13	3.8	71
5065	2023-03-06T21:28:13	3.6	71
5066	2023-03-06T21:38:13	3.6	71
5067	2023-03-06T21:48:13	3.7	71.5
5068	2023-03-06T21:58:13	3.7	71
5069	2023-03-06T22:08:13	3.6	71.5
5070	2023-03-06T22:18:13	3.5	71
5071	2023-03-06T22:28:13	3.4	72
5072	2023-03-06T22:38:13	3.6	70.5
5073	2023-03-06T22:48:13	3.7	70
5074	2023-03-06T22:58:13	3.7	69
5075	2023-03-06T23:08:13	3.9	68.5
5076	2023-03-06T23:18:13	3.8	68
5077	2023-03-06T23:28:13	3.9	68
5078	2023-03-06T23:38:13	4	67
5079	2023-03-06T23:48:13	4	66.5
5080	2023-03-06T23:58:13	4	66
5081	2023-03-07T00:08:13	4	66
5082	2023-03-07T00:18:13	4.1	65.5
5083	2023-03-07T00:28:13	4.1	65
5084	2023-03-07T00:38:13	4.2	64.5
5085	2023-03-07T00:48:13	4.2	64
5086	2023-03-07T00:58:13	4.2	63.5
5087	2023-03-07T01:08:13	4.4	63
5088	2023-03-07T01:18:13	4.4	63.5
5089	2023-03-07T01:28:13	4.4	64
5090	2023-03-07T01:38:13	3.7	77
5091	2023-03-07T01:48:13	3	81
5092	2023-03-07T01:58:13	2.9	82.5
5093	2023-03-07T02:08:13	2.9	80.5
5094	2023-03-07T02:18:13	2.9	79.5
5095	2023-03-07T02:28:13	2.9	80
5096	2023-03-07T02:38:13	3.1	78.5
5097	2023-03-07T02:48:13	3.1	77.5
5098	2023-03-07T02:58:13	3.2	75.5
5099	2023-03-07T03:08:13	3.4	74
5100	2023-03-07T03:18:13	3.6	70.5
5101	2023-03-07T03:28:13	3.7	71.5
5102	2023-03-07T03:38:13	3.8	71.5
5103	2023-03-07T03:48:13	3.8	70.5
5104	2023-03-07T03:58:13	3.8	70.5
5105	2023-03-07T04:08:13	3.8	69.5
5106	2023-03-07T04:18:13	3.9	68
5107	2023-03-07T04:28:13	3.9	67.5
5108	2023-03-07T04:38:13	4	65.5
5109	2023-03-07T04:48:13	4	65
5110	2023-03-07T04:58:13	4.2	64
5111	2023-03-07T05:08:13	4.3	63.5
5112	2023-03-07T05:18:13	4.4	63
5113	2023-03-07T05:28:13	4.5	63.5
5114	2023-03-07T05:38:13	4.3	63
5115	2023-03-07T05:48:13	4.4	63.5
5116	2023-03-07T05:58:13	4.4	63.5
5117	2023-03-07T06:08:13	4.4	63
5118	2023-03-07T06:18:13	4.3	62.5
5119	2023-03-07T06:28:13	4.4	62.5
5120	2023-03-07T06:38:13	4.6	62
5121	2023-03-07T06:48:13	4.7	61.5
5122	2023-03-07T06:58:13	4.8	61
5123	2023-03-07T07:08:13	4.9	60.5
5124	2023-03-07T07:18:13	4.9	60.5
5125	2023-03-07T07:28:13	5.1	60
5126	2023-03-07T07:38:13	5.2	59.5
5127	2023-03-07T07:48:13	5.3	58.5
5128	2023-03-07T07:58:13	5.4	57.5
5129	2023-03-07T08:08:13	5.5	57.5
5130	2023-03-07T08:18:13	5.5	57
5131	2023-03-07T08:28:13	5.5	57
5132	2023-03-07T08:38:13	5.6	56.5
5133	2023-03-07T08:48:13	5.6	57.5
5134	2023-03-07T08:58:13	5.6	58
5135	2023-03-07T09:08:13	5.7	58.5
5136	2023-03-07T09:18:13	5.7	58
5137	2023-03-07T09:28:13	5.9	57.5
5138	2023-03-07T09:38:13	5.9	57
5139	2023-03-07T09:48:13	5.8	57
5140	2023-03-07T09:58:13	5.9	56
5141	2023-03-07T10:08:13	5.9	56.5
5142	2023-03-07T10:18:13	5.7	56
5143	2023-03-07T10:28:13	6	54.5
5144	2023-03-07T10:38:13	6.5	50.5
5145	2023-03-07T10:48:13	6.7	49.5
5146	2023-03-07T10:58:13	6.8	47.5
5147	2023-03-07T11:08:13	7	47.5
5148	2023-03-07T11:18:13	7.1	47
5149	2023-03-07T11:28:13	7.1	46.5
5150	2023-03-07T11:38:13	7.3	45.5
5151	2023-03-07T11:48:13	7.3	45.5
5152	2023-03-07T11:58:13	7.4	46
5153	2023-03-07T12:08:13	7.6	46
5154	2023-03-07T12:18:13	7.5	46
5155	2023-03-07T12:28:13	7.5	46
5156	2023-03-07T12:38:13	7.6	46
5157	2023-03-07T12:48:13	7.7	45.5
5158	2023-03-07T12:58:13	8	44.5
5159	2023-03-07T13:08:12	9.7	40
5160	2023-03-07T13:18:13	10.7	38
5161	2023-03-07T13:28:12	9.5	39.5
5162	2023-03-07T13:38:13	11.4	35.5
5163	2023-03-07T13:48:12	8.8	41
5164	2023-03-07T13:58:12	8.2	43.5
5165	2023-03-07T14:08:12	7.8	44.5
5166	2023-03-07T14:18:12	7.5	45
5167	2023-03-07T14:28:12	7.4	45.5
5168	2023-03-07T14:38:12	7.3	46.5
5169	2023-03-07T14:48:12	7.3	46
5170	2023-03-07T14:58:12	7.3	46.5
5171	2023-03-07T15:08:12	7.3	46.5
5172	2023-03-07T15:18:12	7.5	47
5173	2023-03-07T15:28:12	7.5	47
5174	2023-03-07T15:38:12	7.5	47.5
5175	2023-03-07T15:48:12	7.4	47.5
5176	2023-03-07T15:58:34	7.4	48
5177	2023-03-07T16:08:12	7.3	48.5
5178	2023-03-07T16:18:12	7.2	49
5179	2023-03-07T16:28:12	7.1	49
5180	2023-03-07T16:38:12	7.1	49
5181	2023-03-07T16:48:12	6.9	49.5
5182	2023-03-07T16:58:12	6.8	50
5183	2023-03-07T17:08:12	6.8	50.5
5184	2023-03-07T17:18:12	6.7	50.5
5185	2023-03-07T17:28:12	6.6	51
5186	2023-03-07T17:38:12	6.7	51
5187	2023-03-07T17:48:12	6.6	51
5188	2023-03-07T17:58:12	6.6	51
5189	2023-03-07T18:08:12	6.5	51
5190	2023-03-07T18:18:12	6.5	51
5191	2023-03-07T18:28:12	6.6	50.5
5192	2023-03-07T18:38:12	6.6	50.5
5193	2023-03-07T18:48:12	6.7	51
5194	2023-03-07T18:58:12	6.6	51.5
5195	2023-03-07T19:08:12	6.6	51.5
5196	2023-03-07T19:18:12	6.5	51.5
5197	2023-03-07T19:28:12	6.4	51
5198	2023-03-07T19:38:12	6.5	50
5199	2023-03-07T19:48:12	6.4	50.5
5200	2023-03-07T19:58:12	6.3	50.5
5201	2023-03-07T20:08:12	6.3	50
5202	2023-03-07T20:18:12	6.2	50
5203	2023-03-07T20:28:12	6.3	50.5
5204	2023-03-07T20:38:12	6.2	51.5
5205	2023-03-07T20:48:12	6.1	51.5
5206	2023-03-07T20:58:12	6	51.5
5207	2023-03-07T21:08:12	5.8	51.5
5208	2023-03-07T21:18:12	5.8	51.5
5209	2023-03-07T21:28:12	5.7	51.5
5210	2023-03-07T21:38:12	5.9	51
5211	2023-03-07T21:48:12	5.9	50.5
5212	2023-03-07T21:58:12	6	50
5213	2023-03-07T22:08:12	6	49.5
5214	2023-03-07T22:18:12	5.9	50
5215	2023-03-07T22:28:12	5.9	49.5
5216	2023-03-07T22:38:12	5.8	49.5
5217	2023-03-07T22:48:12	5.8	50
5218	2023-03-07T22:58:12	5.8	50.5
5219	2023-03-07T23:08:12	5.8	50.5
5220	2023-03-07T23:18:12	5.8	50
5221	2023-03-07T23:28:12	5.7	50.5
5222	2023-03-07T23:38:12	5.8	51
5223	2023-03-07T23:48:12	5.8	51
5224	2023-03-07T23:58:12	5.8	53.5
5225	2023-03-08T00:08:12	5.3	56.5
5226	2023-03-08T00:18:12	5.5	53.5
5227	2023-03-08T00:28:12	5.3	53.5
5228	2023-03-08T00:38:12	4.9	54.5
5229	2023-03-08T00:48:12	4.9	54.5
5230	2023-03-08T00:58:12	4.9	55
5231	2023-03-08T01:08:12	4.7	55
5232	2023-03-08T01:18:12	4.7	54.5
5233	2023-03-08T01:28:12	4.5	55
5234	2023-03-08T01:38:12	4.5	55
5235	2023-03-08T01:48:12	4.3	55.5
5236	2023-03-08T01:58:12	4.3	56
5237	2023-03-08T02:08:12	4.5	55.5
5238	2023-03-08T02:18:12	4.5	56
5239	2023-03-08T02:28:12	4.6	55.5
5240	2023-03-08T02:38:12	4.7	55.5
5241	2023-03-08T02:48:12	4.6	55
5242	2023-03-08T02:58:12	4.7	54.5
5243	2023-03-08T03:08:12	4.5	55.5
5244	2023-03-08T03:18:12	4.3	56.5
5245	2023-03-08T03:28:12	4.1	57
5246	2023-03-08T03:38:12	4.3	56.5
5247	2023-03-08T03:48:12	4.2	57.5
5248	2023-03-08T03:58:12	4	58.5
5249	2023-03-08T04:08:12	4.1	58.5
5250	2023-03-08T04:18:12	4.1	58.5
5251	2023-03-08T04:28:12	3.9	61.5
5252	2023-03-08T04:38:12	3.7	62
5253	2023-03-08T04:48:12	3.8	62.5
5254	2023-03-08T04:58:12	3.8	64
5255	2023-03-08T05:08:12	3.7	65
5256	2023-03-08T05:18:12	3.7	65.5
5257	2023-03-08T05:28:12	3.6	65
5258	2023-03-08T05:38:12	3.7	64.5
5259	2023-03-08T05:48:12	3.7	64.5
5260	2023-03-08T05:58:12	3.7	66
5261	2023-03-08T06:08:12	3.7	66
5262	2023-03-08T06:18:12	3.9	63
5263	2023-03-08T06:28:12	4	63.5
5264	2023-03-08T06:38:12	4.1	68.5
5265	2023-03-08T06:48:12	3.8	78.5
5266	2023-03-08T06:58:12	3.3	91.5
5267	2023-03-08T07:08:12	3.2	93.5
5268	2023-03-08T07:18:12	3.4	95
5269	2023-03-08T07:28:12	3.6	96
5270	2023-03-08T07:38:12	3.8	96.5
5271	2023-03-08T07:48:12	3.7	96.5
5272	2023-03-08T07:58:12	3.7	96.5
5273	2023-03-08T08:08:12	3.8	97
5274	2023-03-08T08:18:12	3.8	97
5275	2023-03-08T08:28:12	4	97
5276	2023-03-08T08:38:12	4.1	97
5277	2023-03-08T08:48:12	4	97
5278	2023-03-08T08:58:12	4.1	96.5
5279	2023-03-08T09:08:12	4.3	97
5280	2023-03-08T09:18:12	4.6	96.5
5281	2023-03-08T09:28:12	4.7	96.5
5282	2023-03-08T09:38:12	4.9	97
5283	2023-03-08T09:48:12	5	96.5
5284	2023-03-08T09:58:12	5.1	96.5
5285	2023-03-08T10:08:12	5.2	95.5
5286	2023-03-08T10:18:12	5.2	95
5287	2023-03-08T10:28:12	5.3	94
5288	2023-03-08T10:38:12	5.3	93.5
5289	2023-03-08T10:48:12	5.5	93.5
5290	2023-03-08T10:58:12	5.6	93.5
5291	2023-03-08T11:08:12	6.2	93.5
5292	2023-03-08T11:18:12	7.6	88
5293	2023-03-08T11:28:12	8.1	86.5
5294	2023-03-08T11:38:12	8.7	82
5295	2023-03-08T11:48:12	9.3	79.5
5296	2023-03-08T11:58:12	9.7	77.5
5297	2023-03-08T12:08:12	10.1	75.5
5298	2023-03-08T12:18:12	10.4	74.5
5299	2023-03-08T12:28:12	10.7	73.5
5300	2023-03-08T12:38:12	10.9	73
5301	2023-03-08T12:58:12	11.2	72
5302	2023-03-08T13:08:12	11.5	71
5303	2023-03-08T13:18:12	11.5	70.5
5304	2023-03-08T13:28:12	10.8	89
5305	2023-03-08T13:38:12	9.9	94.5
5306	2023-03-08T13:48:12	9.6	96.5
5307	2023-03-08T13:58:11	9.7	97
5308	2023-03-08T14:08:12	9.4	97.5
5309	2023-03-08T14:18:11	9.5	98
5310	2023-03-08T14:28:12	9.3	98.5
5311	2023-03-08T14:38:11	9.6	99
5312	2023-03-08T14:48:11	9.6	99
5313	2023-03-08T14:58:11	9.8	99
5314	2023-03-08T15:08:11	9.9	98.5
5315	2023-03-08T15:18:11	10	99
5316	2023-03-08T15:28:12	10.1	98.5
5317	2023-03-08T15:38:11	10.4	98.5
5318	2023-03-08T15:48:11	10.5	98
5319	2023-03-08T15:58:11	10.8	98.5
5320	2023-03-08T16:08:11	10.8	97.5
5321	2023-03-08T16:18:11	11	97
5322	2023-03-08T16:28:11	11.1	96
5323	2023-03-08T16:38:11	11.1	95.5
5324	2023-03-08T16:48:11	11.2	96
5325	2023-03-08T16:58:11	11.1	95
5326	2023-03-08T17:08:11	11.4	92.5
5327	2023-03-08T17:18:11	11.7	91.5
5328	2023-03-08T17:28:11	11.8	91
5329	2023-03-08T17:38:11	11.9	89.5
5330	2023-03-08T17:48:11	12	89.5
5331	2023-03-08T17:58:11	11	95
5332	2023-03-08T18:08:11	10.4	96.5
5333	2023-03-08T18:18:11	10.4	96
5334	2023-03-08T18:28:11	10	98.5
5335	2023-03-08T18:38:11	9.9	99
5336	2023-03-08T18:48:11	9.8	99
5337	2023-03-08T18:58:11	9.9	99
5338	2023-03-08T19:08:11	9.8	99.5
5339	2023-03-08T19:18:11	9.8	99.5
5340	2023-03-08T19:28:11	9.7	99.5
5341	2023-03-08T19:38:11	9.7	100
5342	2023-03-08T19:48:11	9.7	100
5343	2023-03-08T19:58:11	9.8	100
5344	2023-03-08T20:08:11	9.9	100
5345	2023-03-08T20:18:11	9.9	100
5346	2023-03-08T20:28:11	9.8	100
5347	2023-03-08T20:38:11	9.8	100
5348	2023-03-08T20:48:11	9.9	100
5349	2023-03-08T20:58:11	10	100
5350	2023-03-08T21:08:11	10.1	100
5351	2023-03-08T21:18:11	10.1	100
5352	2023-03-08T21:28:11	10.2	100
5353	2023-03-08T21:38:11	10.1	100
5354	2023-03-08T21:48:11	10.1	100
5355	2023-03-08T21:58:11	10.2	100
5356	2023-03-08T22:08:11	10.3	100
5357	2023-03-08T22:18:11	10.3	100
5358	2023-03-08T22:28:11	10.4	100
5359	2023-03-08T22:38:11	10.3	100
5360	2023-03-08T22:48:11	10.2	100
5361	2023-03-08T22:58:11	10.3	100
5362	2023-03-08T23:08:11	10.3	100
5363	2023-03-08T23:18:11	10.2	100
5364	2023-03-08T23:28:11	10.2	100
5365	2023-03-08T23:38:11	10.2	100
5366	2023-03-08T23:48:11	10.1	100
5367	2023-03-08T23:58:11	9.5	100
5368	2023-03-09T00:08:11	9.5	100
5369	2023-03-09T00:18:11	9.6	100
5370	2023-03-09T00:28:11	9.7	100
5371	2023-03-09T00:38:11	9.8	100
5372	2023-03-09T00:48:11	10	100
5373	2023-03-09T00:58:11	10	100
5374	2023-03-09T01:08:11	9.9	100
5375	2023-03-09T01:18:11	9.9	100
5376	2023-03-09T01:28:11	9.9	100
5377	2023-03-09T01:38:11	10	100
5378	2023-03-09T01:48:11	10	100
5379	2023-03-09T01:58:11	10.1	100
5380	2023-03-09T02:08:11	9.7	100
5381	2023-03-09T02:18:11	9.3	100
5382	2023-03-09T02:28:11	9	100
5383	2023-03-09T02:38:11	8.9	100
5384	2023-03-09T02:48:11	8.7	100
5385	2023-03-09T02:58:11	8.6	100
5386	2023-03-09T03:08:11	8.6	100
5387	2023-03-09T03:18:11	8.6	100
5388	2023-03-09T03:28:11	8.6	100
5389	2023-03-09T03:38:11	8.6	100
5390	2023-03-09T03:48:11	8.6	100
5391	2023-03-09T03:58:11	8.6	100
5392	2023-03-09T04:08:11	8.5	100
5393	2023-03-09T04:18:11	8.6	100
5394	2023-03-09T04:28:11	8.6	100
5395	2023-03-09T04:38:11	8.7	100
5396	2023-03-09T04:48:11	8.6	100
5397	2023-03-09T04:58:11	8.6	100
5398	2023-03-09T05:08:11	8.7	100
5399	2023-03-09T05:18:11	8.9	100
5400	2023-03-09T05:28:11	9	100
5401	2023-03-09T05:38:11	9.1	100
5402	2023-03-09T05:48:11	9.3	100
5403	2023-03-09T05:58:11	9.3	100
5404	2023-03-09T06:08:11	9.4	100
5405	2023-03-09T06:18:11	9.7	100
5406	2023-03-09T06:28:11	9.6	100
5407	2023-03-09T06:38:10	9.6	100
5408	2023-03-09T06:48:11	9.8	100
5409	2023-03-09T06:58:10	10	100
5410	2023-03-09T07:08:10	10.2	100
5411	2023-03-09T07:18:10	10	100
5412	2023-03-09T07:28:10	10.2	100
5413	2023-03-09T07:38:10	10.2	100
5414	2023-03-09T07:48:10	9.6	100
5415	2023-03-09T07:58:10	9.1	100
5416	2023-03-09T08:08:10	8.9	100
5417	2023-03-09T08:18:10	8.9	100
5418	2023-03-09T08:28:30	9	100
5419	2023-03-09T08:38:10	9.2	100
5420	2023-03-09T08:48:10	9.3	100
5421	2023-03-09T08:58:10	9.6	100
5422	2023-03-09T09:08:10	9.8	100
5423	2023-03-09T09:18:10	9.8	100
5424	2023-03-09T09:28:10	9.9	100
5425	2023-03-09T09:38:10	9.3	100
5426	2023-03-09T09:48:10	9.3	100
5427	2023-03-09T09:58:10	9.3	100
5428	2023-03-09T10:08:10	9.1	100
5429	2023-03-09T10:18:10	9.7	100
5430	2023-03-09T10:28:10	10.1	100
5431	2023-03-09T10:38:10	10.5	100
5432	2023-03-09T10:48:10	10.8	100
5433	2023-03-09T10:58:10	11	100
5434	2023-03-09T11:08:10	11.3	100
5435	2023-03-09T11:18:10	11.7	100
5436	2023-03-09T11:28:10	11	100
5437	2023-03-09T11:38:10	11.3	100
5438	2023-03-09T11:48:10	11.7	99
5439	2023-03-09T11:58:10	11.7	99
5440	2023-03-09T12:08:10	10.5	100
5441	2023-03-09T12:18:10	10.8	100
5442	2023-03-09T12:28:10	10.8	100
5443	2023-03-09T12:38:10	10.8	100
5444	2023-03-09T12:48:10	10.8	100
5445	2023-03-09T12:58:10	11	100
5446	2023-03-09T13:08:10	11.6	100
5447	2023-03-09T13:18:10	11.7	100
5448	2023-03-09T13:28:10	12.1	100
5449	2023-03-09T13:38:10	13.9	100
5450	2023-03-09T13:48:10	16	100
5451	2023-03-09T13:58:10	16.1	98
5452	2023-03-09T14:08:10	15.2	94.5
5453	2023-03-09T14:18:10	15.9	100
5454	2023-03-09T14:28:10	16.5	98
5455	2023-03-09T14:38:10	16.5	62
5456	2023-03-09T14:48:10	15.1	60
5457	2023-03-09T14:58:10	14.4	62.5
5458	2023-03-09T15:08:10	14	62
5459	2023-03-09T15:18:10	14.2	63.5
5460	2023-03-09T15:28:10	14.9	60
5461	2023-03-09T15:38:10	15	59.5
5462	2023-03-09T15:48:10	16.3	54.5
5463	2023-03-09T15:58:10	14.9	59.5
5464	2023-03-09T16:08:10	14.2	60.5
5465	2023-03-09T16:18:10	14.6	56.5
5466	2023-03-09T16:28:10	14.5	55.5
5467	2023-03-09T16:38:10	14.5	56
5468	2023-03-09T16:48:10	13.9	58
5469	2023-03-09T16:58:10	13.4	57.5
5470	2023-03-09T17:08:10	13.1	59.5
5471	2023-03-09T17:18:10	12.4	61
5472	2023-03-09T17:28:10	12.1	62
5473	2023-03-09T17:38:10	11.6	65.5
5474	2023-03-09T17:48:10	10.9	69.5
5475	2023-03-09T17:58:10	10.7	69.5
5476	2023-03-09T18:08:10	10.5	72
5477	2023-03-09T18:18:10	9.9	84.5
5478	2023-03-09T18:28:10	9.8	86.5
5479	2023-03-09T18:38:10	9.5	85
5480	2023-03-09T18:48:10	9.9	73
5481	2023-03-09T18:58:10	10.1	70.5
5482	2023-03-09T19:08:10	10.2	67.5
5483	2023-03-09T19:18:10	10.1	71
5484	2023-03-09T19:28:10	10.5	68
5485	2023-03-09T19:38:10	11	65
5486	2023-03-09T19:48:10	11.2	62
5487	2023-03-09T19:58:10	11.7	60
5488	2023-03-09T20:08:10	11.9	57.5
5489	2023-03-09T20:18:10	12.3	55.5
5490	2023-03-09T20:28:10	12.5	55.5
5491	2023-03-09T20:38:10	12.7	54.5
5492	2023-03-09T20:48:10	12.8	54.5
5493	2023-03-09T20:58:10	12.8	54
5494	2023-03-09T21:08:10	12.7	55
5495	2023-03-09T21:18:10	12.8	54
5496	2023-03-09T21:28:10	12.6	55.5
5497	2023-03-09T21:38:10	12.9	54.5
5498	2023-03-09T21:48:10	13.1	56
5499	2023-03-09T21:58:10	12.9	57.5
5500	2023-03-09T22:08:10	12.7	63.5
5501	2023-03-09T22:18:10	10.5	91.5
5502	2023-03-09T22:28:09	9.9	96
5503	2023-03-09T22:38:09	9.6	97
5504	2023-03-09T22:48:09	9.5	98
5505	2023-03-09T22:58:09	9.3	98.5
5506	2023-03-09T23:08:09	9.4	98.5
5507	2023-03-09T23:18:09	9.5	99
5508	2023-03-09T23:28:09	9.5	98.5
5509	2023-03-09T23:38:09	9.7	98.5
5510	2023-03-09T23:48:09	9.8	98.5
5511	2023-03-09T23:58:09	9.7	97.5
5512	2023-03-10T00:08:09	9.8	97.5
5513	2023-03-10T00:18:09	9.3	97
5514	2023-03-10T00:28:09	9.1	99
5515	2023-03-10T00:38:09	8.9	99.5
5516	2023-03-10T00:48:09	8.9	99.5
5517	2023-03-10T00:58:09	8.8	100
5518	2023-03-10T01:08:30	8.8	100
5519	2023-03-10T01:18:09	8.8	100
5520	2023-03-10T01:28:09	8.8	100
5521	2023-03-10T01:38:09	8.7	100
5522	2023-03-10T01:48:09	8.8	100
5523	2023-03-10T01:58:09	9.1	100
5524	2023-03-10T02:08:09	8.9	100
5525	2023-03-10T02:18:09	9	100
5526	2023-03-10T02:28:09	8.9	100
5527	2023-03-10T02:38:09	9	100
5528	2023-03-10T02:48:09	9.2	100
5529	2023-03-10T02:58:09	9.4	100
5530	2023-03-10T03:08:09	9.3	99.5
5531	2023-03-10T03:18:09	9.6	99.5
5532	2023-03-10T03:28:09	9.4	99.5
5533	2023-03-10T03:38:09	9.5	100
5534	2023-03-10T03:48:09	9.7	99.5
5535	2023-03-10T03:58:09	9.6	99
5536	2023-03-10T04:08:09	9.3	99
5537	2023-03-10T04:18:09	9.5	99.5
5538	2023-03-10T04:28:09	9.3	99.5
5539	2023-03-10T04:38:09	8.8	100
5540	2023-03-10T04:48:09	8.6	100
5541	2023-03-10T04:58:09	8.5	100
5542	2023-03-10T05:08:09	8.6	100
5543	2023-03-10T05:18:09	8.8	100
5544	2023-03-10T05:28:09	8.8	100
5545	2023-03-10T05:38:09	9.2	99.5
5546	2023-03-10T05:48:09	9.6	99.5
5547	2023-03-10T05:58:09	9.3	99.5
5548	2023-03-10T06:08:09	9.3	99.5
5549	2023-03-10T06:18:09	9.2	99.5
5550	2023-03-10T06:28:09	9.2	99.5
5551	2023-03-10T06:38:09	9.3	99.5
5552	2023-03-10T06:48:09	9.3	99.5
5553	2023-03-10T06:58:09	9.8	100
5554	2023-03-10T07:08:09	10.1	99.5
5555	2023-03-10T07:18:09	9.3	99.5
5556	2023-03-10T07:28:09	8.8	100
5557	2023-03-10T07:38:09	8.5	100
5558	2023-03-10T07:48:09	8.1	100
5559	2023-03-10T07:58:09	8.1	100
5560	2023-03-10T08:08:09	7.9	100
5561	2023-03-10T08:18:09	8	100
5562	2023-03-10T08:28:09	8	100
5563	2023-03-10T08:38:09	7.9	100
5564	2023-03-10T08:48:09	8	100
5565	2023-03-10T08:58:09	8.1	100
5566	2023-03-10T09:08:09	8.3	100
5567	2023-03-10T09:18:09	8.7	100
5568	2023-03-10T09:28:09	8.8	100
5569	2023-03-10T09:38:09	8.8	100
5570	2023-03-10T09:48:09	8.9	100
5571	2023-03-10T09:58:09	8.9	100
5572	2023-03-10T10:08:09	8.8	100
5573	2023-03-10T10:18:09	8.8	100
5574	2023-03-10T10:28:09	9.2	100
5575	2023-03-10T10:38:09	9.3	100
5576	2023-03-10T10:48:09	9.6	100
5577	2023-03-10T10:58:09	9.4	100
5578	2023-03-10T11:08:09	9.3	100
5579	2023-03-10T11:18:09	9.4	100
5580	2023-03-10T11:28:09	9.3	100
5581	2023-03-10T11:38:09	9.3	100
5582	2023-03-10T11:48:09	9.4	100
5583	2023-03-10T11:58:09	9.2	100
5584	2023-03-10T12:08:09	9.2	100
5585	2023-03-10T12:18:09	9.2	100
5586	2023-03-10T12:28:09	9.1	100
5587	2023-03-10T12:38:09	8.9	100
5588	2023-03-10T12:48:09	8.8	100
5589	2023-03-10T12:58:09	8.6	100
5590	2023-03-10T13:08:09	8.4	100
5591	2023-03-10T13:18:09	8.4	100
5592	2023-03-10T13:28:09	8.3	100
5593	2023-03-10T13:38:09	8.2	100
5594	2023-03-10T13:48:09	8.2	100
5595	2023-03-10T13:58:09	8.2	100
5596	2023-03-10T14:08:09	7.9	100
5597	2023-03-10T14:18:09	7.9	100
5598	2023-03-10T14:28:09	8	100
5599	2023-03-10T14:38:09	8.1	100
5600	2023-03-10T14:48:09	7.7	100
5601	2023-03-10T14:58:09	7.4	100
5602	2023-03-10T15:08:09	7.4	100
5603	2023-03-10T15:18:09	7.5	100
5604	2023-03-10T15:28:09	7.7	100
5605	2023-03-10T15:38:09	7.4	100
5606	2023-03-10T15:48:09	8.3	100
5607	2023-03-10T15:58:09	7.7	100
5608	2023-03-10T16:08:09	7.7	100
5609	2023-03-10T16:18:09	7.7	100
5610	2023-03-10T16:28:09	7.6	100
5611	2023-03-10T16:38:09	7.4	100
5612	2023-03-10T16:48:08	7.1	100
5613	2023-03-10T16:58:09	7.1	100
5614	2023-03-10T17:08:08	7.2	100
5615	2023-03-10T17:18:08	6.8	100
5616	2023-03-10T17:28:08	5.8	100
5617	2023-03-10T17:38:08	5.8	100
5618	2023-03-10T17:48:08	5.8	100
5619	2023-03-10T17:58:08	6	100
5620	2023-03-10T18:08:08	5.9	100
5621	2023-03-10T18:18:08	5.7	100
5622	2023-03-10T18:28:08	5.7	100
5623	2023-03-10T18:38:08	5.7	100
5624	2023-03-10T18:48:08	5.1	100
5625	2023-03-10T18:58:08	4.7	100
5626	2023-03-10T19:08:08	4.6	100
5627	2023-03-10T19:18:08	4.9	100
5628	2023-03-10T19:28:08	5	100
5629	2023-03-10T19:38:08	4.6	100
5630	2023-03-10T19:48:08	4.7	100
5631	2023-03-10T19:58:08	4.8	100
5632	2023-03-10T20:08:08	4.6	99.5
5633	2023-03-10T20:18:08	4.5	99.5
5634	2023-03-10T20:28:08	4.2	100
5635	2023-03-10T20:38:08	4.1	100
5636	2023-03-10T20:48:08	3.7	100
5637	2023-03-10T20:58:08	3.7	100
5638	2023-03-10T21:08:08	3.8	100
5639	2023-03-10T21:18:08	3.8	100
5640	2023-03-10T21:28:08	3.9	100
5641	2023-03-10T21:38:08	3.8	97.5
5642	2023-03-10T21:48:08	3.7	97.5
5643	2023-03-10T21:58:08	3.7	97.5
5644	2023-03-10T22:08:08	3.7	97.5
5645	2023-03-10T22:18:08	3.8	97
5646	2023-03-10T22:28:08	3.5	94.5
5647	2023-03-10T22:38:08	3.6	92
5648	2023-03-10T22:48:08	3.3	92
5649	2023-03-10T22:58:08	3	91
5650	2023-03-10T23:08:08	2.9	91
5651	2023-03-10T23:18:08	2.5	94
5652	2023-03-10T23:28:08	2.3	92
5653	2023-03-10T23:38:08	2.2	92.5
5654	2023-03-10T23:48:08	2.2	93
5655	2023-03-10T23:58:08	2	92.5
5656	2023-03-11T00:08:08	2.5	91.5
5657	2023-03-11T00:18:08	2.5	93
5658	2023-03-11T00:28:08	2.4	93.5
5659	2023-03-11T00:38:08	2	93.5
5660	2023-03-11T00:48:08	1.9	94
5661	2023-03-11T00:58:08	1.9	94.5
5662	2023-03-11T01:08:08	1.7	94.5
5663	2023-03-11T01:18:08	1.7	87
5664	2023-03-11T01:28:08	1.8	82.5
5665	2023-03-11T01:38:08	1.4	83
5666	2023-03-11T01:48:08	1.3	81.5
5667	2023-03-11T01:58:08	1.1	82
5668	2023-03-11T02:08:08	1	82.5
5669	2023-03-11T02:18:08	0.8	84.5
5670	2023-03-11T02:28:08	0.5	85.5
5671	2023-03-11T02:38:08	0.6	85.5
5672	2023-03-11T02:48:08	0.4	86.5
5673	2023-03-11T02:58:08	0.3	87.5
5674	2023-03-11T03:08:08	0.1	88.5
5675	2023-03-11T03:18:08	-0.1	89.5
5676	2023-03-11T03:28:08	-0.5	93
5677	2023-03-11T03:38:08	-0.6	93
5678	2023-03-11T03:48:08	-0.6	92
5679	2023-03-11T03:58:08	-0.7	93.5
5680	2023-03-11T04:08:08	-1.3	96
5681	2023-03-11T04:18:08	-1.4	97
5682	2023-03-11T04:28:08	-1.5	97.5
5683	2023-03-11T04:38:08	-1.7	97.5
5684	2023-03-11T04:48:08	-1.5	95
5685	2023-03-11T04:58:08	-1.4	94.5
5686	2023-03-11T05:08:08	-1.1	92
5687	2023-03-11T05:18:08	-1.3	93.5
5688	2023-03-11T05:28:08	-1.1	92.5
5689	2023-03-11T05:38:08	-1.3	93
5690	2023-03-11T05:48:08	-1.4	93
5691	2023-03-11T05:58:08	-1.3	93
5692	2023-03-11T06:08:08	-1.7	95
5693	2023-03-11T06:18:08	-1.3	93.5
5694	2023-03-11T06:28:08	-1	92.5
5695	2023-03-11T06:38:08	-0.8	92
5696	2023-03-11T06:48:08	-0.9	93
5697	2023-03-11T06:58:08	-0.7	92
5698	2023-03-11T07:08:08	-0.4	89.5
5699	2023-03-11T07:18:08	-0.1	89
5700	2023-03-11T07:28:08	-0.1	90.5
5701	2023-03-11T07:38:08	0.2	89.5
5702	2023-03-11T07:48:08	0.5	86
5703	2023-03-11T07:58:08	0.6	84
5704	2023-03-11T08:08:08	0.9	80
5705	2023-03-11T08:18:08	1	79
5706	2023-03-11T08:28:08	1.1	80.5
5707	2023-03-11T08:38:08	1.3	81
5708	2023-03-11T08:48:08	1.8	81
5709	2023-03-11T08:58:08	2.2	79
5710	2023-03-11T09:08:08	2.1	79
5711	2023-03-11T09:18:08	1.9	77
5712	2023-03-11T09:28:08	2.1	78
5713	2023-03-11T09:38:08	2.9	78
5714	2023-03-11T09:48:08	3.7	72
5715	2023-03-11T09:58:08	4.2	71
5716	2023-03-11T10:08:08	4.5	68
5717	2023-03-11T10:18:08	4.4	68
5718	2023-03-11T10:28:08	4.5	69.5
5719	2023-03-11T10:38:08	4.6	62.5
5720	2023-03-11T10:48:08	4.6	64
5721	2023-03-11T10:58:08	4.7	67
5722	2023-03-11T11:08:08	4.8	53.5
5723	2023-03-11T11:18:08	5.5	53
5724	2023-03-11T11:28:08	5.3	55.5
5725	2023-03-11T11:38:08	5.1	52
5726	2023-03-11T11:48:08	5.8	50
5727	2023-03-11T11:58:08	6.4	51
5728	2023-03-11T12:08:08	6.9	46.5
5729	2023-03-11T12:18:08	9.2	49.5
5730	2023-03-11T12:28:08	11.4	32.5
5731	2023-03-11T12:38:08	12.3	29.5
5732	2023-03-11T12:48:08	13.3	29
5733	2023-03-11T12:58:08	14.2	28
5734	2023-03-11T13:08:08	16.1	27
5735	2023-03-11T13:18:08	17.5	30
5736	2023-03-11T13:28:08	17.2	22.5
5737	2023-03-11T13:38:08	18.8	24.5
5738	2023-03-11T13:48:08	16.5	25
5739	2023-03-11T13:58:08	17.1	27.5
5740	2023-03-11T14:08:08	18.2	21
5741	2023-03-11T14:18:08	18.9	28
5742	2023-03-11T14:28:08	17.5	23
5743	2023-03-11T14:38:08	16.5	26
5744	2023-03-11T14:48:08	16.7	31.5
5745	2023-03-11T14:58:08	15.5	24.5
5746	2023-03-11T15:08:08	13	33.5
5747	2023-03-11T15:18:08	12.2	38
5748	2023-03-11T15:28:08	11.2	38
5749	2023-03-11T15:38:08	10.7	40.5
5750	2023-03-11T15:48:08	10.3	40.5
5751	2023-03-11T15:58:08	9.7	34.5
5752	2023-03-11T16:08:08	9.5	41.5
5753	2023-03-11T16:18:08	9.5	47.5
5754	2023-03-11T16:28:08	9	46.5
5755	2023-03-11T16:38:08	8.7	45
5756	2023-03-11T16:48:08	8.6	45
5757	2023-03-11T16:58:08	8.2	50
5758	2023-03-11T17:08:08	7.7	49.5
5759	2023-03-11T17:18:08	7.3	58
5760	2023-03-11T17:28:08	6.9	60
5761	2023-03-11T17:38:08	6.6	59
5762	2023-03-11T17:48:08	5.9	55.5
5763	2023-03-11T17:58:08	5.5	59
5764	2023-03-11T18:08:08	5.1	57
5765	2023-03-11T18:18:08	4.9	59.5
5766	2023-03-11T18:28:08	4.4	61
5767	2023-03-11T18:38:08	4.1	65
5768	2023-03-11T18:48:08	3.9	67
5769	2023-03-11T18:58:08	3.7	66.5
5770	2023-03-11T19:08:08	3.3	69
5771	2023-03-11T19:18:08	3.2	68.5
5772	2023-03-11T19:28:08	2.9	71.5
5773	2023-03-11T19:38:08	2.7	73
5774	2023-03-11T19:48:08	2.5	76.5
5775	2023-03-11T19:58:08	2.2	75.5
5776	2023-03-11T20:08:08	2	76.5
5777	2023-03-11T20:18:08	1.8	79.5
5778	2023-03-11T20:28:08	1.7	78
5779	2023-03-11T20:38:08	1.4	81
5780	2023-03-11T20:48:08	1.3	82.5
5781	2023-03-11T20:58:08	1.2	82
5782	2023-03-11T21:08:08	1	78.5
5783	2023-03-11T21:18:08	0.9	80.5
5784	2023-03-11T21:28:08	0.6	81
5785	2023-03-11T21:38:08	0.6	80
5786	2023-03-11T21:48:08	0.6	81.5
5787	2023-03-11T21:58:08	0.4	82
5788	2023-03-11T22:08:08	0.3	81
5789	2023-03-11T22:18:08	0.1	83
5790	2023-03-11T22:28:08	0.1	84.5
5791	2023-03-11T22:38:08	0	85
5792	2023-03-11T22:48:08	-0.1	86.5
5793	2023-03-11T22:58:08	-0.3	87
5794	2023-03-11T23:08:08	-0.2	87
5795	2023-03-11T23:28:08	-0.5	87.5
5796	2023-03-11T23:38:08	-0.8	89
5797	2023-03-11T23:48:08	-0.8	90
5798	2023-03-11T23:58:08	-1	92
5799	2023-03-12T00:08:08	-1.2	93
5800	2023-03-12T00:18:08	-1.2	93
5801	2023-03-12T00:28:08	-1.2	92.5
5802	2023-03-12T00:38:08	-1.3	93.5
5803	2023-03-12T00:48:08	-1.1	93
5804	2023-03-12T00:58:08	-0.9	93
5805	2023-03-12T01:08:08	-0.8	93
5806	2023-03-12T01:18:08	-1	93
5807	2023-03-12T01:28:08	-1.3	94
5808	2023-03-12T01:38:08	-1.3	95
5809	2023-03-12T01:48:08	-1.2	95
5810	2023-03-12T01:58:08	-1	94.5
5811	2023-03-12T02:08:08	-1	94
5812	2023-03-12T02:18:08	-0.7	94.5
5813	2023-03-12T02:28:08	-0.4	92
5814	2023-03-12T02:38:08	-0.4	91
5815	2023-03-12T02:48:08	-0.3	91.5
5816	2023-03-12T02:58:08	-0.2	91.5
5817	2023-03-12T03:08:08	-0.1	91.5
5818	2023-03-12T03:18:08	0	91
5819	2023-03-12T03:28:08	0	90.5
5820	2023-03-12T03:38:08	0.2	90
5821	2023-03-12T03:48:08	0.2	90
5822	2023-03-12T03:58:08	0.4	90.5
5823	2023-03-12T04:08:08	0.5	90.5
5824	2023-03-12T04:18:08	0.5	89.5
5825	2023-03-12T04:28:08	0.6	88
5826	2023-03-12T04:38:08	0.8	88
5827	2023-03-12T04:48:08	0.8	87.5
5828	2023-03-12T04:58:08	0.8	89
5829	2023-03-12T05:08:08	0.9	91
5830	2023-03-12T05:18:08	0.9	91
5831	2023-03-12T05:28:08	0.9	92.5
5832	2023-03-12T05:38:08	1	93
5833	2023-03-12T05:48:08	1	93
5834	2023-03-12T05:58:08	1	93.5
5835	2023-03-12T06:08:08	1.2	92
5836	2023-03-12T06:18:08	1.2	93
5837	2023-03-12T06:28:08	1.4	93
5838	2023-03-12T06:38:08	1.4	91
5839	2023-03-12T06:48:08	1.5	92.5
5840	2023-03-12T06:58:08	1.7	92
5841	2023-03-12T07:08:08	1.7	91
5842	2023-03-12T07:18:08	2	89.5
5843	2023-03-12T07:28:08	1.9	90.5
5844	2023-03-12T07:38:08	2	92.5
5845	2023-03-12T07:48:08	2.2	93.5
5846	2023-03-12T07:58:08	2.1	92
5847	2023-03-12T08:08:08	2.2	94
5848	2023-03-12T08:18:08	2.4	94
5849	2023-03-12T08:28:08	2.3	95
5850	2023-03-12T08:38:08	2.4	94.5
5851	2023-03-12T08:48:08	2.5	95
5852	2023-03-12T08:58:08	2.6	94.5
5853	2023-03-12T09:08:08	2.5	96
5854	2023-03-12T09:18:08	2.7	96.5
5855	2023-03-12T09:28:08	2.7	96.5
5856	2023-03-12T09:38:08	2.8	98
5857	2023-03-12T09:48:08	3.1	98.5
5858	2023-03-12T09:58:08	3.8	99
5859	2023-03-12T10:08:08	3.9	98.5
5860	2023-03-12T10:18:08	4.4	98
5861	2023-03-12T10:28:08	4.6	98
5862	2023-03-12T10:38:08	5.1	98
5863	2023-03-12T10:48:08	6.1	97
5864	2023-03-12T10:58:08	6.5	97
5865	2023-03-12T11:08:08	7.6	95
5866	2023-03-12T11:18:08	7.9	95.5
5867	2023-03-12T11:28:08	9	92.5
5868	2023-03-12T11:38:07	9.8	90.5
5869	2023-03-12T11:48:07	10.1	87.5
5870	2023-03-12T11:58:07	10.9	84
5871	2023-03-12T12:08:07	10.9	82
5872	2023-03-12T12:18:07	11.4	82
5873	2023-03-12T12:28:07	12.1	80
5874	2023-03-12T12:38:07	12.2	76.5
5875	2023-03-12T12:48:07	13	74.5
5876	2023-03-12T12:58:07	12	76
5877	2023-03-12T13:08:07	12	76
5878	2023-03-12T13:18:07	12.3	76
5879	2023-03-12T13:28:07	12.9	71
5880	2023-03-12T13:38:07	14.2	63.5
5881	2023-03-12T13:48:07	16.6	56
5882	2023-03-12T13:58:07	17.9	50.5
5883	2023-03-12T14:08:07	18	47.5
5884	2023-03-12T14:18:07	17.9	47
5885	2023-03-12T14:28:07	15.9	51
5886	2023-03-12T14:38:07	15.6	53
5887	2023-03-12T14:48:07	14.5	57
5888	2023-03-12T14:58:07	14.2	57
5889	2023-03-12T15:08:07	14	58
5890	2023-03-12T15:18:07	14.2	55.5
5891	2023-03-12T15:28:07	13.9	56
5892	2023-03-12T15:38:07	13.6	56.5
5893	2023-03-12T15:48:07	13.5	57.5
5894	2023-03-12T15:58:07	13.3	58.5
5895	2023-03-12T16:08:07	13.1	59
5896	2023-03-12T16:18:07	13.2	59.5
5897	2023-03-12T16:28:07	13.1	60.5
5898	2023-03-12T16:38:07	12.8	61.5
5899	2023-03-12T16:48:07	12.5	62
5900	2023-03-12T16:58:07	12.3	62
5901	2023-03-12T17:08:07	12.2	62.5
5902	2023-03-12T17:18:07	12	62.5
5903	2023-03-12T17:28:07	11.7	64.5
5904	2023-03-12T17:38:07	11.4	65.5
5905	2023-03-12T17:48:07	11.3	66
5906	2023-03-12T17:58:07	10.8	67.5
5907	2023-03-12T18:08:07	11.1	66
5908	2023-03-12T18:18:07	11	67.5
5909	2023-03-12T18:28:07	11.1	66.5
5910	2023-03-12T18:38:07	11	67
5911	2023-03-12T18:48:07	10.7	67
5912	2023-03-12T18:58:07	10.8	66.5
5913	2023-03-12T19:08:07	10.9	67
5914	2023-03-12T19:18:07	10.9	67
5915	2023-03-12T19:28:07	10.7	67
5916	2023-03-12T19:38:07	10.8	66.5
5917	2023-03-12T19:48:07	10.8	66.5
5918	2023-03-12T19:58:07	10.9	66.5
5919	2023-03-12T20:08:07	10.9	65.5
5920	2023-03-12T20:18:07	11.2	64.5
5921	2023-03-12T20:28:07	11.2	64.5
5922	2023-03-12T20:38:07	11.2	64.5
5923	2023-03-12T20:48:07	11.1	64.5
5924	2023-03-12T20:58:07	11.3	63
5925	2023-03-12T21:08:07	11.4	63
5926	2023-03-12T21:18:07	11.6	62.5
5927	2023-03-12T21:28:07	11.6	62
5928	2023-03-12T21:38:07	11.8	62
5929	2023-03-12T21:48:07	11.9	61.5
5930	2023-03-12T21:58:07	11.9	62
5931	2023-03-12T22:08:07	12	61
5932	2023-03-12T22:18:07	12.2	60.5
5933	2023-03-12T22:28:07	11.9	61.5
5934	2023-03-12T22:38:07	11.9	62
5935	2023-03-12T22:48:07	11.8	63
5936	2023-03-12T22:58:07	11.5	64
5937	2023-03-12T23:08:07	11.6	63.5
5938	2023-03-12T23:18:07	11.5	63
5939	2023-03-12T23:28:07	11.7	62.5
5940	2023-03-12T23:38:07	11.9	62
5941	2023-03-12T23:48:07	12	61.5
5942	2023-03-12T23:58:07	12.1	61
5943	2023-03-13T00:08:07	12.2	60.5
5944	2023-03-13T00:18:07	12.2	60
5945	2023-03-13T00:28:07	12.1	60
5946	2023-03-13T00:38:07	12.3	60
5947	2023-03-13T00:48:07	12.3	59.5
5948	2023-03-13T00:58:07	12.6	59
5949	2023-03-13T01:08:07	12.5	59
5950	2023-03-13T01:18:07	12.4	59.5
5951	2023-03-13T01:28:07	12.7	59.5
5952	2023-03-13T01:38:07	12.7	60
5953	2023-03-13T01:48:07	12.7	63.5
5954	2023-03-13T01:58:07	11.9	77
5955	2023-03-13T02:08:07	11.3	79
5956	2023-03-13T02:18:06	11	83
5957	2023-03-13T02:28:06	11.2	82.5
5958	2023-03-13T02:38:06	11.3	84
5959	2023-03-13T02:48:27	11.6	78.5
5960	2023-03-13T02:58:06	11.7	77
5961	2023-03-13T03:08:06	11.9	75.5
5962	2023-03-13T03:18:06	11.8	75.5
5963	2023-03-13T03:28:06	11.7	79.5
5964	2023-03-13T03:38:06	11.8	77
5965	2023-03-13T03:48:06	12.4	73
5966	2023-03-13T03:58:06	12.5	72.5
5967	2023-03-13T04:08:06	12.4	72.5
5968	2023-03-13T04:18:07	12.6	71.5
5969	2023-03-13T04:28:06	12.8	71.5
5970	2023-03-13T04:38:06	12.8	71.5
5971	2023-03-13T04:48:06	12.8	71.5
5972	2023-03-13T04:58:06	12.9	71.5
5973	2023-03-13T05:08:06	12.8	79.5
5974	2023-03-13T05:18:06	11.5	88.5
5975	2023-03-13T05:28:06	11.8	86
5976	2023-03-13T05:38:06	12	84.5
5977	2023-03-13T05:48:06	12.3	83
5978	2023-03-13T05:58:06	12.6	77.5
5979	2023-03-13T06:08:06	12.6	76.5
5980	2023-03-13T06:18:06	12.8	76.5
5981	2023-03-13T06:28:06	12.9	76.5
5982	2023-03-13T06:38:06	12.9	76.5
5983	2023-03-13T06:48:06	13	76.5
5984	2023-03-13T06:58:06	13.1	76
5985	2023-03-13T07:08:06	13.2	75.5
5986	2023-03-13T07:18:06	13.4	74.5
5987	2023-03-13T07:28:06	13.5	74
5988	2023-03-13T07:38:06	13.8	74
5989	2023-03-13T07:48:06	13.9	73
5990	2023-03-13T07:58:06	14.1	72.5
5991	2023-03-13T08:08:06	14.3	70.5
5992	2023-03-13T08:18:06	14.7	70
5993	2023-03-13T08:28:06	14.8	69
5994	2023-03-13T08:38:06	14.6	69.5
5995	2023-03-13T08:48:06	14.7	69
5996	2023-03-13T08:58:06	15	68.5
5997	2023-03-13T09:08:24	15	67.5
5998	2023-03-13T09:18:06	15.1	66.5
5999	2023-03-13T09:28:06	15.8	65.5
6000	2023-03-13T09:38:26	16.2	62
6001	2023-03-13T09:48:06	16.9	61
6002	2023-03-13T09:58:06	17.1	59.5
6003	2023-03-13T10:08:06	17.1	59.5
6004	2023-03-13T10:18:06	17.3	59.5
6005	2023-03-13T10:28:06	17.8	58
6006	2023-03-13T10:38:06	17.7	57.5
6007	2023-03-13T10:48:06	17.6	58
6008	2023-03-13T10:58:06	17.2	59.5
6009	2023-03-13T11:08:06	17.3	59.5
6010	2023-03-13T11:18:06	17.4	59
6011	2023-03-13T11:28:06	17.8	58.5
6012	2023-03-13T11:38:06	18.3	56.5
6013	2023-03-13T11:48:06	19	55
6014	2023-03-13T11:58:06	19.6	53
6015	2023-03-13T12:08:06	20.1	52.5
6016	2023-03-13T12:18:06	21.4	47
6017	2023-03-13T12:28:06	22.8	43.5
6018	2023-03-13T12:38:06	22.5	44.5
6019	2023-03-13T12:48:06	22.2	45
6020	2023-03-13T12:58:22	22.6	44.5
6021	2023-03-13T13:08:06	22.1	45
6022	2023-03-13T13:18:06	22.5	43.5
6023	2023-03-13T13:28:06	24.5	39.5
6024	2023-03-13T13:38:06	25.9	36
6025	2023-03-13T13:48:06	26	35.5
6026	2023-03-13T13:58:06	25.8	35.5
6027	2023-03-13T14:08:06	25.9	34.5
6028	2023-03-13T14:18:06	26.4	34
6029	2023-03-13T14:28:06	27.1	33
6030	2023-03-13T14:38:06	27.6	32.5
6031	2023-03-13T14:48:05	28.1	31
6032	2023-03-13T14:58:06	28.2	31
6033	2023-03-13T15:08:05	25.5	36
6034	2023-03-13T15:18:05	27.6	33.5
6035	2023-03-13T15:28:05	29.3	29.5
6036	2023-03-13T15:38:05	29.3	30.5
6037	2023-03-13T15:48:05	29	29.5
6038	2023-03-13T15:58:05	26.3	33.5
6039	2023-03-13T16:08:05	24	38.5
6040	2023-03-13T16:18:05	23	42
6041	2023-03-13T16:28:05	22.3	43.5
6042	2023-03-13T16:38:05	22	43
6043	2023-03-13T16:48:05	21.7	45
6044	2023-03-13T16:58:05	21.6	50
6045	2023-03-13T17:08:05	21.4	47.5
6046	2023-03-13T17:18:05	21	50
6047	2023-03-13T17:28:05	20.1	50.5
6048	2023-03-13T17:38:05	19.5	56
6049	2023-03-13T17:48:05	18.4	86.5
6050	2023-03-13T17:58:05	17.3	94.5
6051	2023-03-13T18:08:05	15.8	94.5
6052	2023-03-13T18:18:05	15.1	96.5
6053	2023-03-13T18:28:05	15.2	97.5
6054	2023-03-13T18:38:05	14.9	97.5
6055	2023-03-13T18:48:05	14.7	98
6056	2023-03-13T18:58:05	14.4	98.5
6057	2023-03-13T19:08:05	14	98.5
6058	2023-03-13T19:18:05	13.6	98.5
6059	2023-03-13T19:28:05	13.5	98.5
6060	2023-03-13T19:38:05	12.4	98.5
6061	2023-03-13T19:48:05	11.7	99
6062	2023-03-13T19:58:05	11.7	99.5
6063	2023-03-13T20:08:05	11.7	99.5
6064	2023-03-13T20:18:05	11.4	99.5
6065	2023-03-13T20:28:05	11.5	100
6066	2023-03-13T20:38:05	11.2	99.5
6067	2023-03-13T20:48:05	11	100
6068	2023-03-13T20:58:05	10.9	100
6069	2023-03-13T21:08:05	10.8	100
6070	2023-03-13T21:18:05	10.5	100
6071	2023-03-13T21:28:05	10.6	100
6072	2023-03-13T21:38:05	10.6	100
6073	2023-03-13T21:48:05	10.8	100
6074	2023-03-13T21:58:05	10.9	100
6075	2023-03-13T22:08:05	11.1	100
6076	2023-03-13T22:18:05	11.2	100
6077	2023-03-13T22:28:05	11.1	99.5
6078	2023-03-13T22:38:05	10.9	99.5
6079	2023-03-13T22:48:05	10.7	99.5
6080	2023-03-13T22:58:05	10.8	99
6081	2023-03-13T23:08:05	11	99.5
6082	2023-03-13T23:18:05	11	99
6083	2023-03-13T23:28:05	11	99
6084	2023-03-13T23:38:05	11	99
6085	2023-03-13T23:48:05	10.9	99
6086	2023-03-13T23:58:05	11.1	98.5
6087	2023-03-14T00:08:05	11.3	99
6088	2023-03-14T00:18:05	11.3	98.5
6089	2023-03-14T00:28:05	11.5	98.5
6090	2023-03-14T00:38:05	11.5	98.5
6091	2023-03-14T00:48:05	11.8	96.5
6092	2023-03-14T00:58:05	11.8	95.5
6093	2023-03-14T01:08:05	11.6	90
6094	2023-03-14T01:18:05	11.8	89.5
6095	2023-03-14T01:28:05	11.3	92
6096	2023-03-14T01:38:05	11.2	91
6097	2023-03-14T01:48:05	10.9	92.5
6098	2023-03-14T01:58:05	11	91
6099	2023-03-14T02:08:05	11.2	88
6100	2023-03-14T02:18:05	11.1	89
6101	2023-03-14T02:28:05	11.3	87
6102	2023-03-14T02:38:05	11.1	86
6103	2023-03-14T02:48:05	11	86.5
6104	2023-03-14T02:58:05	11.2	85.5
6105	2023-03-14T03:08:05	11.1	84.5
6106	2023-03-14T03:18:05	11	85.5
6107	2023-03-14T03:28:05	11.1	82
6108	2023-03-14T03:38:05	11.1	80
6109	2023-03-14T03:48:05	11.1	74.5
6110	2023-03-14T03:58:05	11.2	72
6111	2023-03-14T04:08:05	11.3	70
6112	2023-03-14T04:18:05	11	70.5
6113	2023-03-14T04:28:05	10.8	71
6114	2023-03-14T04:38:04	10.8	70.5
6115	2023-03-14T04:48:04	11.2	69
6116	2023-03-14T04:58:04	11.2	68.5
6117	2023-03-14T05:08:04	11.3	69
6118	2023-03-14T05:18:05	11.1	70.5
6119	2023-03-14T05:28:04	11.2	70
6120	2023-03-14T05:38:04	11.2	69.5
6121	2023-03-14T05:48:04	11	70.5
6122	2023-03-14T05:58:04	10.9	70.5
6123	2023-03-14T06:08:04	10.5	72
6124	2023-03-14T06:18:04	10.6	71.5
6125	2023-03-14T06:28:04	10.6	70.5
6126	2023-03-14T06:38:04	11.1	69.5
6127	2023-03-14T06:48:04	11.3	68.5
6128	2023-03-14T06:58:04	11.4	68
6129	2023-03-14T07:08:04	11.5	68.5
6130	2023-03-14T07:18:04	11.6	68.5
6131	2023-03-14T07:28:04	11.8	68.5
6132	2023-03-14T07:38:04	12	67.5
6133	2023-03-14T07:48:04	12.3	66
6134	2023-03-14T07:58:04	12.2	67
6135	2023-03-14T08:08:04	12.4	66.5
6136	2023-03-14T08:18:04	12.5	66.5
6137	2023-03-14T08:28:04	12	72.5
6138	2023-03-14T08:38:04	12	69.5
6139	2023-03-14T08:48:04	12.3	67.5
6140	2023-03-14T08:58:04	12.3	65.5
6141	2023-03-14T09:08:04	12.4	66
6142	2023-03-14T09:18:04	12.7	64.5
6143	2023-03-14T09:28:04	12.8	64.5
6144	2023-03-14T09:38:04	13.1	64
6145	2023-03-14T09:48:04	12.9	66
6146	2023-03-14T09:58:04	11.1	89
6147	2023-03-14T10:08:04	11	92
6148	2023-03-14T10:18:04	10.7	95.5
6149	2023-03-14T10:28:04	10.6	95.5
6150	2023-03-14T10:38:04	10.4	97
6151	2023-03-14T10:48:04	10.2	98
6152	2023-03-14T10:58:04	10.4	98.5
6153	2023-03-14T11:08:04	9.9	98.5
6154	2023-03-14T11:18:04	9.6	98.5
6155	2023-03-14T11:28:04	9.6	99
6156	2023-03-14T11:38:04	9.4	99
6157	2023-03-14T11:48:04	8.9	97
6158	2023-03-14T11:58:04	8.7	96.5
6159	2023-03-14T12:08:04	8.5	94.5
6160	2023-03-14T12:18:04	9.2	95
6161	2023-03-14T12:28:04	10.2	88.5
6162	2023-03-14T12:38:04	11.1	84
6163	2023-03-14T12:48:04	11.2	83
6164	2023-03-14T12:58:04	12.1	74.5
6165	2023-03-14T13:08:04	13.1	68
6166	2023-03-14T13:18:04	13.2	63.5
6167	2023-03-14T13:28:04	11.4	59.5
6168	2023-03-14T13:38:04	10.6	56.5
6169	2023-03-14T13:48:04	10.5	59
6170	2023-03-14T13:58:04	10.6	56
6171	2023-03-14T14:08:04	11.8	42
6172	2023-03-14T14:18:04	11.2	42
6173	2023-03-14T14:28:04	10.9	42.5
6174	2023-03-14T14:38:04	15.2	33.5
6175	2023-03-14T14:48:04	13.9	35.5
6176	2023-03-14T14:58:04	11.8	41
6177	2023-03-14T15:08:04	11	43.5
6178	2023-03-14T15:18:04	10.8	46.5
6179	2023-03-14T15:28:04	11.1	46.5
6180	2023-03-14T15:38:04	12.3	44
6181	2023-03-14T15:48:04	10.9	48.5
6182	2023-03-14T15:58:04	10.3	51
6183	2023-03-14T16:08:04	8.7	84
6184	2023-03-14T16:18:04	7.4	94
6185	2023-03-14T16:28:04	7	94.5
6186	2023-03-14T16:38:04	6.6	93.5
6187	2023-03-14T16:48:04	6.1	96.5
6188	2023-03-14T16:58:04	5.9	96
6189	2023-03-14T17:08:04	5.8	95
6190	2023-03-14T17:18:04	5.8	95.5
6191	2023-03-14T17:28:04	5.5	97
6192	2023-03-14T17:38:04	5.4	97
6193	2023-03-14T17:48:04	5.6	97
6194	2023-03-14T17:58:04	5.4	96.5
6195	2023-03-14T18:08:04	5.3	95.5
6196	2023-03-14T18:18:04	5.4	94
6197	2023-03-14T18:28:04	5.4	94
6198	2023-03-14T18:38:04	5.4	93.5
6199	2023-03-14T18:48:04	5.1	94
6200	2023-03-14T18:58:04	5	93.5
6201	2023-03-14T19:08:04	4.9	93
6202	2023-03-14T19:18:04	5	92
6203	2023-03-14T19:28:04	5.1	91
6204	2023-03-14T19:38:04	5.2	91
6205	2023-03-14T19:48:04	5.3	89
6206	2023-03-14T19:58:04	5.5	86.5
6207	2023-03-14T20:08:04	5.7	83.5
6208	2023-03-14T20:18:04	5.8	83
6209	2023-03-14T20:28:04	6	79.5
6210	2023-03-14T20:38:04	5.8	81
6211	2023-03-14T20:48:04	5.4	89
6212	2023-03-14T20:58:04	5.4	88.5
6213	2023-03-14T21:08:04	5.4	86.5
6214	2023-03-14T21:18:04	5.4	86.5
6215	2023-03-14T21:28:04	5.4	88.5
6216	2023-03-14T21:38:04	4	92
6217	2023-03-14T21:48:04	3.8	94.5
6218	2023-03-14T21:58:04	3.7	94.5
6219	2023-03-14T22:08:04	3.6	95
6220	2023-03-14T22:18:04	3.6	94.5
6221	2023-03-14T22:28:04	3.4	95
6222	2023-03-14T22:38:04	3.2	95
6223	2023-03-14T22:48:04	3.1	96
6224	2023-03-14T22:58:04	3.2	95.5
6225	2023-03-14T23:08:03	3	95.5
6226	2023-03-14T23:18:04	2.8	95
6227	2023-03-14T23:28:04	2.8	94.5
6228	2023-03-14T23:38:03	2.9	95.5
6229	2023-03-14T23:48:04	2.6	96
6230	2023-03-14T23:58:03	2.4	97
6231	2023-03-15T00:08:03	2.5	96.5
6232	2023-03-15T00:18:03	2.4	96
6233	2023-03-15T00:28:03	2.2	96.5
6234	2023-03-15T00:38:03	1.9	96.5
6235	2023-03-15T00:48:03	1.6	97.5
6236	2023-03-15T00:58:03	1.5	97.5
6237	2023-03-15T01:08:03	1.4	98
6238	2023-03-15T01:18:03	1.3	98
6239	2023-03-15T01:28:03	1.1	98
6240	2023-03-15T01:38:03	1	98.5
6241	2023-03-15T01:48:03	0.9	99
6242	2023-03-15T01:58:03	0.9	99
6243	2023-03-15T02:08:03	0.9	99
6244	2023-03-15T02:18:03	1	99
6245	2023-03-15T02:28:03	1	97.5
6246	2023-03-15T02:38:03	0.9	97
6247	2023-03-15T02:48:03	0.8	97
6248	2023-03-15T02:58:03	0.7	97.5
6249	2023-03-15T03:08:03	0.6	97
6250	2023-03-15T03:18:03	0.6	97
6251	2023-03-15T03:28:03	0.6	97
6252	2023-03-15T03:38:03	0.3	97.5
6253	2023-03-15T03:48:03	0.3	97.5
6254	2023-03-15T03:58:03	0.2	98
6255	2023-03-15T04:08:03	0.2	98
6256	2023-03-15T04:18:03	0.2	97.5
6257	2023-03-15T04:28:03	0.1	97.5
6258	2023-03-15T04:38:03	0	98
6259	2023-03-15T04:48:03	0	97.5
6260	2023-03-15T04:58:03	0	97
6261	2023-03-15T05:08:03	-0.1	97
6262	2023-03-15T05:18:03	-0.3	97.5
6263	2023-03-15T05:28:03	-0.4	98
6264	2023-03-15T05:38:03	-0.6	98
6265	2023-03-15T05:48:03	-0.6	98.5
6266	2023-03-15T05:58:03	-0.8	99
6267	2023-03-15T06:08:03	-0.7	99.5
6268	2023-03-15T06:18:03	-0.5	99.5
6269	2023-03-15T06:28:03	-0.1	98
6270	2023-03-15T06:38:03	0	96.5
6271	2023-03-15T06:48:03	0.4	95
6272	2023-03-15T06:58:03	0.8	93
6273	2023-03-15T07:08:03	1.3	91
6274	2023-03-15T07:18:03	1.8	88.5
6275	2023-03-15T07:28:03	2	85.5
6276	2023-03-15T07:38:03	2.7	83
6277	2023-03-15T07:48:03	3.1	80
6278	2023-03-15T07:58:03	3.2	78.5
6279	2023-03-15T08:08:03	3.5	76.5
6280	2023-03-15T08:18:03	3.8	74.5
6281	2023-03-15T08:28:03	3.9	73
6282	2023-03-15T08:38:03	3.9	73
6283	2023-03-15T08:48:03	4.3	72
6284	2023-03-15T08:58:03	5.1	67.5
6285	2023-03-15T09:08:03	5.1	66
6286	2023-03-15T09:18:03	5.3	67
6287	2023-03-15T09:28:03	5.7	60.5
6288	2023-03-15T09:38:03	6.1	60
6289	2023-03-15T09:48:03	6	60
6290	2023-03-15T09:58:03	6	62.5
6291	2023-03-15T10:08:03	6.4	60
6292	2023-03-15T10:18:03	6.9	56.5
6293	2023-03-15T10:28:03	7.8	54
6294	2023-03-15T10:38:03	7.6	53
6295	2023-03-15T10:48:03	7.6	55
6296	2023-03-15T10:58:03	7.8	55
6297	2023-03-15T11:08:03	8	48
6298	2023-03-15T11:18:03	7.9	50.5
6299	2023-03-15T11:28:03	7.5	52
6300	2023-03-15T11:38:03	7.3	58.5
6301	2023-03-15T11:48:03	6.5	78.5
6302	2023-03-15T11:58:03	5.2	92.5
6303	2023-03-15T12:08:03	5.4	95
6304	2023-03-15T12:18:03	5.2	88.5
6305	2023-03-15T12:28:03	5.5	84
6306	2023-03-15T12:38:03	5.8	82
6307	2023-03-15T12:48:03	5.8	80
6308	2023-03-15T12:58:03	6.1	78.5
6309	2023-03-15T13:08:03	7	73.5
6310	2023-03-15T13:18:03	7.2	73
6311	2023-03-15T13:28:03	7.6	68
6312	2023-03-15T13:38:03	7.5	70.5
6313	2023-03-15T13:48:03	7.3	70
6314	2023-03-15T13:58:03	6.6	81.5
6315	2023-03-15T14:08:03	4.7	95
6316	2023-03-15T14:18:03	4.3	98.5
6317	2023-03-15T14:28:03	5.6	99.5
6318	2023-03-15T14:38:03	5.5	99.5
6319	2023-03-15T14:48:03	5.8	99.5
6320	2023-03-15T14:58:03	6	99.5
6321	2023-03-15T15:08:03	5.7	99.5
6322	2023-03-15T15:18:03	5.8	100
6323	2023-03-15T15:28:03	6.1	100
6324	2023-03-15T15:38:03	7.6	100
6325	2023-03-15T15:48:03	8.3	99
6326	2023-03-15T15:58:03	8.3	99
6327	2023-03-15T16:08:03	9.4	98
6328	2023-03-15T16:18:03	6.7	98
6329	2023-03-15T16:28:03	6.3	98
6330	2023-03-15T16:38:03	5.9	98
6331	2023-03-15T16:48:03	5.6	98
6332	2023-03-15T16:58:03	5.7	98.5
6333	2023-03-15T17:08:03	5.4	98.5
6334	2023-03-15T17:18:03	5.1	98.5
6335	2023-03-15T17:28:03	4.7	98.5
6336	2023-03-15T17:38:03	4.4	99
6337	2023-03-15T17:48:03	4	100
6338	2023-03-15T17:58:03	3.8	100
6339	2023-03-15T18:08:03	3.5	100
6340	2023-03-15T18:18:03	3.3	100
6341	2023-03-15T18:28:03	3.2	100
6342	2023-03-15T18:38:03	3.2	100
6343	2023-03-15T18:48:03	3.2	100
6344	2023-03-15T18:58:03	3	100
6345	2023-03-15T19:08:03	2.9	100
6346	2023-03-15T19:18:03	2.7	100
6347	2023-03-15T19:28:03	2.6	100
6348	2023-03-15T19:38:03	2.7	100
6349	2023-03-15T19:48:03	2.4	100
6350	2023-03-15T19:58:03	2.3	100
6351	2023-03-15T20:08:03	2.2	100
6352	2023-03-15T20:18:03	2.1	100
6353	2023-03-15T20:28:03	1.9	100
6354	2023-03-15T20:38:03	1.8	100
6355	2023-03-15T20:48:03	1.7	100
6356	2023-03-15T20:58:03	1.4	100
6357	2023-03-15T21:08:03	1.2	100
6358	2023-03-15T21:18:03	1.1	100
6359	2023-03-15T21:28:03	1	100
6360	2023-03-15T21:38:03	0.8	100
6361	2023-03-15T21:48:03	0.7	100
6362	2023-03-15T21:58:03	0.5	100
6363	2023-03-15T22:08:03	0.6	100
6364	2023-03-15T22:18:03	0.5	100
6365	2023-03-15T22:28:03	0.6	100
6366	2023-03-15T22:38:03	0.6	100
6367	2023-03-15T22:48:03	0.4	100
6368	2023-03-15T22:58:03	0.4	100
6369	2023-03-15T23:08:03	0.3	100
6370	2023-03-15T23:18:03	0.2	100
6371	2023-03-15T23:28:03	0.1	100
6372	2023-03-15T23:38:03	0	100
6373	2023-03-15T23:48:03	0	100
6374	2023-03-15T23:58:03	0	100
6375	2023-03-16T00:08:03	0	100
6376	2023-03-16T00:18:03	0	100
6377	2023-03-16T00:28:03	-0.2	100
6378	2023-03-16T00:38:03	-0.5	100
6379	2023-03-16T00:48:03	-0.5	100
6380	2023-03-16T00:58:03	-0.6	100
6381	2023-03-16T01:08:03	-0.7	100
6382	2023-03-16T01:18:03	-0.8	100
6383	2023-03-16T01:28:03	-0.8	100
6384	2023-03-16T01:38:03	-0.9	100
6385	2023-03-16T01:48:03	-1	100
6386	2023-03-16T01:58:03	-1.1	100
6387	2023-03-16T02:08:03	-0.9	100
6388	2023-03-16T02:18:03	-1.1	100
6389	2023-03-16T02:28:03	-1.3	100
6390	2023-03-16T02:38:03	-1.4	100
6391	2023-03-16T02:48:03	-1.4	100
6392	2023-03-16T02:58:03	-1.4	100
6393	2023-03-16T03:08:03	-1.4	100
6394	2023-03-16T03:18:03	-1.5	100
6395	2023-03-16T03:28:03	-1.5	100
6396	2023-03-16T03:38:03	-1.6	100
6397	2023-03-16T03:48:03	-1.6	100
6398	2023-03-16T03:58:03	-1.5	100
6399	2023-03-16T04:08:03	-1.6	100
6400	2023-03-16T04:18:03	-1.7	100
6401	2023-03-16T04:28:03	-1.7	100
6402	2023-03-16T04:38:03	-1.7	100
6403	2023-03-16T04:48:03	-1.8	100
6404	2023-03-16T04:58:03	-1.9	100
6405	2023-03-16T05:08:03	-1.9	100
6406	2023-03-16T05:18:03	-2	100
6407	2023-03-16T05:28:03	-1.9	100
6408	2023-03-16T05:38:03	-0.9	100
6409	2023-03-16T05:48:03	-0.9	100
6410	2023-03-16T05:58:03	-1.3	100
6411	2023-03-16T06:08:03	-1.5	100
6412	2023-03-16T06:18:03	-1.4	100
6413	2023-03-16T06:28:03	-1.4	100
6414	2023-03-16T06:38:03	-1.3	100
6415	2023-03-16T06:48:03	-1.2	100
6416	2023-03-16T06:58:03	-1	100
6417	2023-03-16T07:08:03	-0.9	100
6418	2023-03-16T07:18:03	-0.7	100
6419	2023-03-16T07:28:03	-0.6	100
6420	2023-03-16T07:38:03	-0.3	100
6421	2023-03-16T07:48:03	-0.1	100
6422	2023-03-16T07:58:03	0	100
6423	2023-03-16T08:08:03	-0.1	100
6424	2023-03-16T08:18:03	0	100
6425	2023-03-16T08:28:03	0.1	100
6426	2023-03-16T08:38:03	0.4	100
6427	2023-03-16T08:48:03	1.2	100
6428	2023-03-16T08:58:03	1.9	100
6429	2023-03-16T09:08:03	2.3	100
6430	2023-03-16T09:18:03	2.7	100
6431	2023-03-16T09:28:03	3.1	100
6432	2023-03-16T09:38:03	3.4	100
6433	2023-03-16T09:48:03	3.7	100
6434	2023-03-16T09:58:03	3.8	100
6435	2023-03-16T10:08:03	4.1	100
6436	2023-03-16T10:18:03	4.4	100
6437	2023-03-16T10:28:03	4.8	100
6438	2023-03-16T10:38:03	5.3	100
6439	2023-03-16T10:48:03	5.7	100
6440	2023-03-16T10:58:03	6.4	100
6441	2023-03-16T11:08:03	7.8	100
6442	2023-03-16T11:18:03	8.9	100
6443	2023-03-16T11:28:03	9.9	99.5
6444	2023-03-16T11:38:03	10.4	99
6445	2023-03-16T11:48:03	11	99
6446	2023-03-16T11:58:03	11.1	99
6447	2023-03-16T12:08:03	10.5	99
6448	2023-03-16T12:18:03	12.2	99
6449	2023-03-16T12:28:03	14.6	98.5
6450	2023-03-16T12:38:03	16.2	98.5
6451	2023-03-16T12:48:03	17.4	98.5
6452	2023-03-16T12:58:03	18.9	98.5
6453	2023-03-16T13:08:03	20.7	99.5
6454	2023-03-16T13:18:03	21.6	99.5
6455	2023-03-16T13:28:03	21	97
6456	2023-03-16T13:38:03	22.5	30.5
6457	2023-03-16T13:48:03	24.6	26.5
6458	2023-03-16T13:58:03	25.4	23.5
6459	2023-03-16T14:08:03	25.7	27
6460	2023-03-16T14:18:03	24.6	26
6461	2023-03-16T14:28:03	23	28
6462	2023-03-16T14:38:03	23.1	24
6463	2023-03-16T14:48:03	24.5	25
6464	2023-03-16T14:58:03	22.4	28.5
6465	2023-03-16T15:08:03	21.6	30
6466	2023-03-16T15:18:03	20.6	32
6467	2023-03-16T15:28:03	19.7	35
6468	2023-03-16T15:38:03	19.2	34.5
6469	2023-03-16T15:48:03	18.6	35.5
6470	2023-03-16T15:58:03	17.9	37.5
6471	2023-03-16T16:08:02	17.4	39.5
6472	2023-03-16T16:18:03	16.7	41.5
6473	2023-03-16T16:28:02	15.9	45.5
6474	2023-03-16T16:38:02	15.2	44.5
6475	2023-03-16T16:48:02	14.7	43
6476	2023-03-16T16:58:02	15	46
6477	2023-03-16T17:08:02	14.9	52
6478	2023-03-16T17:18:02	13.9	58
6479	2023-03-16T17:28:02	13.6	59.5
6480	2023-03-16T17:38:02	12.8	65
6481	2023-03-16T17:48:02	12.5	66.5
6482	2023-03-16T17:58:02	12.2	64
6483	2023-03-16T18:08:02	11.7	67
6484	2023-03-16T18:18:02	11.3	68.5
6485	2023-03-16T18:28:02	11	66.5
6486	2023-03-16T18:38:02	10.7	68
6487	2023-03-16T18:48:02	10.5	70.5
6488	2023-03-16T18:58:02	10.2	72
6489	2023-03-16T19:08:02	9.8	69
6490	2023-03-16T19:18:02	9.5	70.5
6491	2023-03-16T19:28:02	9.2	71
6492	2023-03-16T19:38:02	9	67.5
6493	2023-03-16T19:48:02	8.6	68
6494	2023-03-16T19:58:02	8.3	69
6495	2023-03-16T20:08:02	8	72.5
6496	2023-03-16T20:18:02	7.7	73.5
6497	2023-03-16T20:28:02	7.5	76
6498	2023-03-16T20:38:02	7.4	75
6499	2023-03-16T20:48:02	7.4	76.5
6500	2023-03-16T20:58:02	7.3	76.5
6501	2023-03-16T21:08:02	7.2	78
6502	2023-03-16T21:18:02	7.1	78.5
6503	2023-03-16T21:28:02	6.8	78.5
6504	2023-03-16T21:38:02	6.4	78
6505	2023-03-16T21:48:02	6.2	79
6506	2023-03-16T21:58:02	6	81
6507	2023-03-16T22:08:02	5.9	80
6508	2023-03-16T22:18:02	5.8	80
6509	2023-03-16T22:28:02	5.7	80
6510	2023-03-16T22:38:02	5.6	82.5
6511	2023-03-16T22:48:02	5.6	82
6512	2023-03-16T22:58:02	5.4	82.5
6513	2023-03-16T23:08:02	5.4	81
6514	2023-03-16T23:18:02	5.3	80.5
6515	2023-03-16T23:28:02	5.1	82
6516	2023-03-16T23:38:02	4.9	81
6517	2023-03-16T23:48:02	4.8	81.5
6518	2023-03-16T23:58:02	4.9	84.5
6519	2023-03-17T00:08:02	4.9	84
6520	2023-03-17T00:18:02	4.9	83.5
6521	2023-03-17T00:28:02	4.9	84.5
6522	2023-03-17T00:38:02	4.9	85
6523	2023-03-17T00:48:02	4.8	86
6524	2023-03-17T00:58:02	4.9	84.5
6525	2023-03-17T01:08:02	4.9	83.5
6526	2023-03-17T01:18:02	4.8	83
6527	2023-03-17T01:28:02	4.5	85
6528	2023-03-17T01:38:02	4.5	86
6529	2023-03-17T01:48:02	4.4	86.5
6530	2023-03-17T01:58:02	4.2	87
6531	2023-03-17T02:08:02	4.2	88
6532	2023-03-17T02:18:02	4.1	88.5
6533	2023-03-17T02:28:02	4	89.5
6534	2023-03-17T02:38:02	3.7	90
6535	2023-03-17T02:48:02	3.4	91
6536	2023-03-17T02:58:02	3.2	92.5
6537	2023-03-17T03:08:02	3.1	93
6538	2023-03-17T03:18:02	2.9	94.5
6539	2023-03-17T03:28:02	2.6	94.5
6540	2023-03-17T03:38:02	2.5	95
6541	2023-03-17T03:48:02	2.3	95
6542	2023-03-17T03:58:02	2.2	95
6543	2023-03-17T04:08:02	2.1	95.5
6544	2023-03-17T04:18:02	1.9	95.5
6545	2023-03-17T04:28:02	1.9	96
6546	2023-03-17T04:38:02	1.8	96
6547	2023-03-17T04:48:02	1.7	96.5
6548	2023-03-17T04:58:02	1.6	96.5
6549	2023-03-17T05:08:02	1.6	96.5
6550	2023-03-17T05:18:02	1.5	96
6551	2023-03-17T05:28:02	1.4	96
6552	2023-03-17T05:38:02	1.3	96.5
6553	2023-03-17T05:48:02	1.2	96.5
6554	2023-03-17T05:58:02	1.3	96.5
6555	2023-03-17T06:08:02	1.2	96.5
6556	2023-03-17T06:18:02	1.3	97
6557	2023-03-17T06:28:02	1.4	97
6558	2023-03-17T06:38:02	1.7	97
6559	2023-03-17T06:48:02	2	97
6560	2023-03-17T06:58:02	2.2	96.5
6561	2023-03-17T07:08:02	2.4	96.5
6562	2023-03-17T07:18:02	2.7	96.5
6563	2023-03-17T07:28:02	3	95.5
6564	2023-03-17T07:38:02	3.6	94
6565	2023-03-17T07:48:02	4.3	90
6566	2023-03-17T07:58:02	4.5	89
6567	2023-03-17T08:08:02	4.9	87.5
6568	2023-03-17T08:18:02	5.3	86.5
6569	2023-03-17T08:28:02	5.8	82.5
6570	2023-03-17T08:38:02	6.2	80
6571	2023-03-17T08:48:02	6.4	79
6572	2023-03-17T08:58:02	6.6	77
6573	2023-03-17T09:08:02	7	76.5
6574	2023-03-17T09:18:02	7.7	73
6575	2023-03-17T09:28:02	8.2	72
6576	2023-03-17T09:38:02	8.6	70.5
6577	2023-03-17T09:48:02	8.7	70.5
6578	2023-03-17T09:58:02	9.3	65.5
6579	2023-03-17T10:08:02	9.6	67
6580	2023-03-17T10:18:02	10.4	63.5
6581	2023-03-17T10:28:02	11.3	59.5
6582	2023-03-17T10:38:02	11.9	59
6583	2023-03-17T10:48:02	12.3	56
6584	2023-03-17T10:58:02	12.4	53.5
6585	2023-03-17T11:08:02	13	56
6586	2023-03-17T11:18:02	13.5	54
6587	2023-03-17T11:28:02	14	52
6588	2023-03-17T11:38:02	14.5	49
6589	2023-03-17T11:58:02	15.2	50.5
6590	2023-03-17T12:18:02	16.2	49.5
6591	2023-03-17T12:28:02	16.8	45.5
6592	2023-03-17T12:38:02	18	45.5
6593	2023-03-17T12:48:02	19.4	41
6594	2023-03-17T12:58:02	21.5	40
6595	2023-03-17T13:08:02	22	33.5
6596	2023-03-17T13:18:02	24.8	31
6597	2023-03-17T13:28:02	24.4	34
6598	2023-03-17T13:38:01	23.6	31
6599	2023-03-17T13:48:01	23.3	34
6600	2023-03-17T13:58:01	21.8	32.5
6601	2023-03-17T14:08:01	22.1	37
6602	2023-03-17T14:18:01	23	33.5
6603	2023-03-17T14:28:01	21.9	31
6604	2023-03-17T14:38:01	20.5	37
6605	2023-03-17T14:48:01	19.5	42
6606	2023-03-17T14:58:01	19.1	43.5
6607	2023-03-17T15:08:01	18.6	46
6608	2023-03-17T15:18:01	18.2	46
6609	2023-03-17T15:28:01	17.8	43.5
6610	2023-03-17T15:38:01	17.6	49
6611	2023-03-17T15:48:01	17.4	42.5
6612	2023-03-17T15:58:01	17.1	43
6613	2023-03-17T16:08:01	17	50.5
6614	2023-03-17T16:18:01	16.7	53
6615	2023-03-17T16:28:01	16.5	49.5
6616	2023-03-17T16:38:01	16.2	51.5
6617	2023-03-17T16:48:01	15.9	57
6618	2023-03-17T16:58:01	15.6	63.5
6619	2023-03-17T17:08:01	15.2	64
6620	2023-03-17T17:18:01	15	65.5
6621	2023-03-17T17:28:01	14.6	67
6622	2023-03-17T17:38:01	14.4	66
6623	2023-03-17T17:48:01	14	64.5
6624	2023-03-17T17:58:01	13.8	64
6625	2023-03-17T18:08:01	13.7	66
6626	2023-03-17T18:18:01	13.6	68.5
6627	2023-03-17T18:28:01	13.5	67
6628	2023-03-17T18:38:01	13.2	69
6629	2023-03-17T18:48:01	12.8	69.5
6630	2023-03-17T18:58:01	12.9	71.5
6631	2023-03-17T19:08:01	12.5	71
6632	2023-03-17T19:18:01	12.3	72.5
6633	2023-03-17T19:28:01	12.1	72.5
6634	2023-03-17T19:38:01	11.9	73.5
6635	2023-03-17T19:48:01	11.7	71.5
6636	2023-03-17T19:58:01	11.6	72.5
6637	2023-03-17T20:08:01	11.5	72.5
6638	2023-03-17T20:18:01	11.4	74
6639	2023-03-17T20:28:01	11.2	73.5
6640	2023-03-17T20:38:01	11.1	75.5
6641	2023-03-17T20:48:01	10.9	77
6642	2023-03-17T20:58:01	10.8	76.5
6643	2023-03-17T21:08:01	10.5	75
6644	2023-03-17T21:18:01	10.5	77.5
6645	2023-03-17T21:28:01	10.4	78.5
6646	2023-03-17T21:38:01	10.2	78.5
6647	2023-03-17T21:48:01	10.3	78.5
6648	2023-03-17T21:58:01	10.2	77.5
6649	2023-03-17T22:08:01	10.2	76.5
6650	2023-03-17T22:18:01	10.2	76
6651	2023-03-17T22:28:01	10.3	76.5
6652	2023-03-17T22:38:01	9.9	77.5
6653	2023-03-17T22:48:01	9.9	77
6654	2023-03-17T22:58:01	9.9	76.5
6655	2023-03-17T23:08:01	9.7	78
6656	2023-03-17T23:18:01	9.7	79
6657	2023-03-17T23:28:01	9.4	78.5
6658	2023-03-17T23:38:01	9.4	78.5
6659	2023-03-17T23:48:01	9.3	80
6660	2023-03-17T23:58:01	9.1	80
6661	2023-03-18T00:08:01	9.3	80.5
6662	2023-03-18T00:18:01	9.2	79.5
6663	2023-03-18T00:28:01	8.9	82
6664	2023-03-18T00:38:01	8.7	82
6665	2023-03-18T00:48:01	8.4	81.5
6666	2023-03-18T00:58:01	8.6	82
6667	2023-03-18T01:08:01	8.5	81.5
6668	2023-03-18T01:18:01	8.3	81
6669	2023-03-18T01:28:01	8.2	81
6670	2023-03-18T01:38:01	8	83.5
6671	2023-03-18T01:48:01	7.9	84.5
6672	2023-03-18T01:58:01	7.7	85
6673	2023-03-18T02:08:01	7.6	82.5
6674	2023-03-18T02:18:01	7.5	83.5
6675	2023-03-18T02:28:01	7.5	83
6676	2023-03-18T02:38:01	7.4	84.5
6677	2023-03-18T02:48:01	7.2	86
6678	2023-03-18T02:58:01	7.1	85.5
6679	2023-03-18T03:08:01	7	86.5
6680	2023-03-18T03:18:01	6.9	86.5
6681	2023-03-18T03:28:01	6.7	86
6682	2023-03-18T03:38:01	6.6	87.5
6683	2023-03-18T03:48:01	6.3	87.5
6684	2023-03-18T03:58:01	6.3	88.5
6685	2023-03-18T04:08:01	6.2	88
6686	2023-03-18T04:18:01	6.1	87
6687	2023-03-18T04:28:01	5.9	87
6688	2023-03-18T04:38:01	5.8	87
6689	2023-03-18T04:48:01	5.8	87.5
6690	2023-03-18T04:58:01	5.6	88
6691	2023-03-18T05:08:01	5.5	88.5
6692	2023-03-18T05:18:00	5.4	89.5
6693	2023-03-18T05:28:01	5.2	89.5
6694	2023-03-18T05:38:00	5.1	89.5
6695	2023-03-18T05:48:00	5	90.5
6696	2023-03-18T05:58:00	5.1	90.5
6697	2023-03-18T06:08:00	5.1	90
6698	2023-03-18T06:18:00	5	90.5
6699	2023-03-18T06:28:00	5	90.5
6700	2023-03-18T06:38:00	5.1	90.5
6701	2023-03-18T06:48:00	5.2	91
6702	2023-03-18T06:58:00	5.5	90.5
6703	2023-03-18T07:08:00	5.6	90.5
6704	2023-03-18T07:18:00	5.9	89.5
6705	2023-03-18T07:28:00	6.3	89.5
6706	2023-03-18T07:38:00	6.6	89.5
6707	2023-03-18T07:48:00	7	87
6708	2023-03-18T07:58:00	7.2	85.5
6709	2023-03-18T08:08:00	7.6	80.5
6710	2023-03-18T08:18:00	8	78.5
6711	2023-03-18T08:28:00	8.3	77
6712	2023-03-18T08:38:00	9	72
6713	2023-03-18T08:48:00	9.6	70
6714	2023-03-18T08:58:00	10	68.5
6715	2023-03-18T09:08:00	11.1	59
6716	2023-03-18T09:18:00	12.1	51.5
6717	2023-03-18T09:28:00	12.5	50.5
6718	2023-03-18T09:38:00	13.2	46.5
6719	2023-03-18T09:48:00	13.4	48.5
6720	2023-03-18T09:58:00	13.8	45
6721	2023-03-18T10:08:00	14.1	45
6722	2023-03-18T10:18:00	14.7	42.5
6723	2023-03-18T10:28:00	15.1	44
6724	2023-03-18T10:38:00	15.5	41
6725	2023-03-18T10:48:00	15.5	41.5
6726	2023-03-18T10:58:00	15.6	42
6727	2023-03-18T11:08:00	15.6	41
6728	2023-03-18T11:18:00	15.7	40.5
6729	2023-03-18T11:28:00	16.3	39
6730	2023-03-18T11:38:00	16.9	37
6731	2023-03-18T11:48:00	17.4	38.5
6732	2023-03-18T11:58:00	17.5	35.5
6733	2023-03-18T12:08:00	18	34.5
6734	2023-03-18T12:18:00	19.5	30.5
6735	2023-03-18T12:28:00	21.4	30.5
6736	2023-03-18T12:38:00	21	28.5
6737	2023-03-18T12:48:00	22.3	29.5
6738	2023-03-18T12:58:00	23.6	25
6739	2023-03-18T13:08:00	24.2	24.5
6740	2023-03-18T13:18:00	26.5	23
6741	2023-03-18T13:28:00	26.6	22.5
6742	2023-03-18T13:38:00	26.8	21
6743	2023-03-18T13:48:00	27	23.5
6744	2023-03-18T13:58:00	27.4	21
6745	2023-03-18T14:08:00	29.2	22.5
6746	2023-03-18T14:18:00	28.3	20.5
6747	2023-03-18T14:28:00	26.3	22.5
6748	2023-03-18T14:38:00	28.3	20.5
6749	2023-03-18T14:48:00	25.9	21.5
6750	2023-03-18T14:58:00	22.8	25
6751	2023-03-18T15:08:00	22.7	24.5
6752	2023-03-18T15:18:00	22.4	25.5
6753	2023-03-18T15:28:00	21	28.5
6754	2023-03-18T15:38:00	22.1	26
6755	2023-03-18T15:48:00	22.2	26
6756	2023-03-18T15:58:00	23.4	26
6757	2023-03-18T16:08:00	22.4	29
6758	2023-03-18T16:18:00	20.9	32
6759	2023-03-18T16:28:00	20.3	34.5
6760	2023-03-18T16:38:00	19.7	30
6761	2023-03-18T16:48:00	19.2	32.5
6762	2023-03-18T16:58:00	19.5	35
6763	2023-03-18T17:08:00	18.8	39.5
6764	2023-03-18T17:18:00	18.1	44.5
6765	2023-03-18T17:28:00	17.8	45
6766	2023-03-18T17:38:00	17.3	50.5
6767	2023-03-18T17:48:00	16.9	53
6768	2023-03-18T17:58:00	16.4	55
6769	2023-03-18T18:08:00	15.9	54
6770	2023-03-18T18:18:00	15.5	54.5
6771	2023-03-18T18:28:00	15.3	54
6772	2023-03-18T18:38:00	15.1	55
6773	2023-03-18T18:48:00	15	57.5
6774	2023-03-18T18:57:59	14.6	56.5
6775	2023-03-18T19:07:59	14.4	57.5
6776	2023-03-18T19:17:59	14.3	59
6777	2023-03-18T19:27:59	14.1	62.5
6778	2023-03-18T19:37:59	14	61.5
6779	2023-03-18T19:47:59	13.8	61
6780	2023-03-18T19:57:59	13.9	62
6781	2023-03-18T20:07:59	13.8	62
6782	2023-03-18T20:17:59	13.8	60
6783	2023-03-18T20:27:59	13.6	60.5
6784	2023-03-18T20:38:00	13.3	62
6785	2023-03-18T20:47:59	13.3	62
6786	2023-03-18T20:57:59	13	63.5
6787	2023-03-18T21:07:59	12.6	65
6788	2023-03-18T21:17:59	12.3	66
6789	2023-03-18T21:27:59	11.8	68
6790	2023-03-18T21:37:59	11.6	68.5
6791	2023-03-18T21:47:59	11.6	70
6792	2023-03-18T21:57:59	11.6	69.5
6793	2023-03-18T22:07:59	11.8	69.5
6794	2023-03-18T22:17:59	11.9	68
6795	2023-03-18T22:27:59	11.9	68.5
6796	2023-03-18T22:37:59	11.8	71
6797	2023-03-18T22:47:59	11.7	72
6798	2023-03-18T22:57:59	11.4	73.5
6799	2023-03-18T23:07:59	11.5	74
6800	2023-03-18T23:17:59	11.3	74.5
6801	2023-03-18T23:27:59	11.4	75.5
6802	2023-03-18T23:37:59	11.3	76
6803	2023-03-18T23:47:59	11.2	74.5
6804	2023-03-18T23:57:59	11.2	72.5
6805	2023-03-19T00:07:59	11.2	75
6806	2023-03-19T00:17:59	11.2	78
6807	2023-03-19T00:27:59	11	77.5
6808	2023-03-19T00:37:59	10.7	77
6809	2023-03-19T00:47:59	10.4	79
6810	2023-03-19T00:57:59	10.3	79
6811	2023-03-19T01:07:59	10.2	75.5
6812	2023-03-19T01:17:59	10.2	75.5
6813	2023-03-19T01:27:59	10.1	72
6814	2023-03-19T01:37:59	10.7	66.5
6815	2023-03-19T01:47:59	11.2	63.5
6816	2023-03-19T01:57:59	11.4	60
6817	2023-03-19T02:07:59	10.9	65.5
6818	2023-03-19T02:17:59	10.9	63
6819	2023-03-19T02:27:59	10.5	69.5
6820	2023-03-19T02:37:59	10.3	72.5
6821	2023-03-19T02:47:59	10.1	74
6822	2023-03-19T02:57:59	10	74
6823	2023-03-19T03:07:59	10	74.5
6824	2023-03-19T03:17:59	9.7	76
6825	2023-03-19T03:27:59	9.7	77
6826	2023-03-19T03:37:59	9.6	77
6827	2023-03-19T03:47:59	9.5	76
6828	2023-03-19T03:57:59	9.4	78.5
6829	2023-03-19T04:07:59	9.4	78.5
6830	2023-03-19T04:17:59	9.4	77
6831	2023-03-19T04:22:15	9.4	78
6832	2023-03-19T04:32:15	9.4	79
6833	2023-03-19T04:42:15	9.3	79
6834	2023-03-19T04:52:15	9.3	79
6835	2023-03-19T05:02:15	9.4	80
6836	2023-03-19T05:12:15	9.3	79
6837	2023-03-19T05:22:15	9.3	80
6838	2023-03-19T05:32:15	9.2	80.5
6839	2023-03-19T05:42:15	9.2	80
6840	2023-03-19T05:52:15	9.2	80.5
6841	2023-03-19T06:02:15	9.2	81
6842	2023-03-19T06:12:15	9.2	81.5
6843	2023-03-19T06:22:15	9.3	81.5
6844	2023-03-19T06:32:15	9.3	81.5
6845	2023-03-19T06:42:15	9.4	81.5
6846	2023-03-19T06:52:15	9.4	80.5
6847	2023-03-19T07:02:15	9.4	81
6848	2023-03-19T07:12:15	9.6	80
6849	2023-03-19T07:22:15	9.8	80.5
6850	2023-03-19T07:32:15	10	81
6851	2023-03-19T07:42:15	10.3	78.5
6852	2023-03-19T07:52:15	10.6	78.5
6853	2023-03-19T08:02:15	11.2	76
6854	2023-03-19T08:12:15	11.4	73.5
6855	2023-03-19T08:22:15	11.6	71.5
6856	2023-03-19T08:32:15	12.1	68
6857	2023-03-19T08:42:15	12.9	64.5
6858	2023-03-19T08:52:15	13.3	62.5
6859	2023-03-19T09:02:15	13.4	61
6860	2023-03-19T09:12:15	13.5	60
6861	2023-03-19T09:22:15	13.5	59
6862	2023-03-19T09:32:15	13.6	60.5
6863	2023-03-19T09:42:15	14.1	54.5
6864	2023-03-19T09:52:15	14.3	54
6865	2023-03-19T10:02:15	14.5	54
6866	2023-03-19T10:12:15	14.8	52
6867	2023-03-19T10:22:14	15.4	49.5
6868	2023-03-19T10:32:15	15.6	49.5
6869	2023-03-19T10:42:14	16	49.5
6870	2023-03-19T10:52:14	16.4	48
6871	2023-03-19T11:02:14	16.7	46.5
6872	2023-03-19T11:12:14	16.5	47.5
6873	2023-03-19T11:22:14	16.6	47.5
6874	2023-03-19T11:32:14	17.2	47.5
6875	2023-03-19T11:42:14	17.7	48
6876	2023-03-19T11:52:14	17.5	48
6877	2023-03-19T12:02:14	17	49
6878	2023-03-19T12:12:14	17.2	48.5
6879	2023-03-19T12:22:14	17.2	47.5
6880	2023-03-19T12:32:14	17	49.5
6881	2023-03-19T12:42:14	16.6	50
6882	2023-03-19T12:52:14	16.6	50
6883	2023-03-19T13:02:14	14.9	63.5
6884	2023-03-19T13:12:14	15.2	61
6885	2023-03-19T13:22:14	15.4	56
6886	2023-03-19T13:32:14	16.1	54.5
6887	2023-03-19T13:42:14	16.3	53.5
6888	2023-03-19T13:52:14	16.3	53.5
6889	2023-03-19T14:02:14	16.4	52
6890	2023-03-19T14:12:14	16.4	51.5
6891	2023-03-19T14:22:14	16.1	54
6892	2023-03-19T14:32:14	15.8	59
6893	2023-03-19T14:42:14	15.7	60
6894	2023-03-19T14:52:14	15.5	63.5
6895	2023-03-19T15:02:14	15.7	61
6896	2023-03-19T15:12:14	16.8	60
6897	2023-03-19T15:22:14	18.5	53.5
6898	2023-03-19T15:32:14	16.5	57.5
6899	2023-03-19T15:42:14	15.9	59
6900	2023-03-19T15:52:14	15.4	58
6901	2023-03-19T16:02:14	14.9	62.5
6902	2023-03-19T16:12:14	12.7	90.5
6903	2023-03-19T16:22:14	11.7	95
6904	2023-03-19T16:32:14	12	97
6905	2023-03-19T16:42:14	11.8	98
6906	2023-03-19T16:52:14	12.7	99
6907	2023-03-19T17:02:14	12.8	99
6908	2023-03-19T17:12:14	12.4	98.5
6909	2023-03-19T17:22:14	11.9	98.5
6910	2023-03-19T17:32:14	11.6	98.5
6911	2023-03-19T17:42:14	11.5	98.5
6912	2023-03-19T17:52:14	11.2	98.5
6913	2023-03-19T18:02:14	11	98.5
6914	2023-03-19T18:12:14	10.8	99
6915	2023-03-19T18:22:14	10.7	99
6916	2023-03-19T18:32:14	10.7	99
6917	2023-03-19T18:42:14	10.8	99.5
6918	2023-03-19T18:52:14	10.8	99.5
6919	2023-03-19T19:02:14	10.8	99.5
6920	2023-03-19T19:12:14	10.7	99.5
6921	2023-03-19T19:22:14	10.5	99.5
6922	2023-03-19T19:32:14	10.1	99.5
6923	2023-03-19T19:42:14	9.9	99.5
6924	2023-03-19T19:52:14	9.5	99.5
6925	2023-03-19T20:02:14	9.3	99.5
6926	2023-03-19T20:12:14	9.1	99.5
6927	2023-03-19T20:22:14	8.9	99.5
6928	2023-03-19T20:32:14	8.6	100
6929	2023-03-19T20:42:14	8.8	100
6930	2023-03-19T20:52:14	8.7	100
6931	2023-03-19T21:02:14	8.8	100
6932	2023-03-19T21:12:14	8.9	100
6933	2023-03-19T21:22:14	9.1	100
6934	2023-03-19T21:32:14	9	100
6935	2023-03-19T21:42:14	9	100
6936	2023-03-19T21:52:14	9.1	100
6937	2023-03-19T22:02:14	9.1	100
6938	2023-03-19T22:12:14	9.1	100
6939	2023-03-19T22:22:14	9	100
6940	2023-03-19T22:32:14	9.1	100
6941	2023-03-19T22:42:14	9.1	100
6942	2023-03-19T22:52:14	9	100
6943	2023-03-19T23:02:14	8.9	100
6944	2023-03-19T23:12:14	8.6	100
6945	2023-03-19T23:22:14	8.6	100
6946	2023-03-19T23:32:14	8.3	100
6947	2023-03-19T23:42:14	8.2	100
6948	2023-03-19T23:52:14	8	100
6949	2023-03-20T00:02:14	8.1	100
6950	2023-03-20T00:12:14	8	100
6951	2023-03-20T00:22:14	7.9	100
6952	2023-03-20T00:32:14	7.7	100
6953	2023-03-20T00:42:14	7.7	100
6954	2023-03-20T00:52:14	7.7	100
6955	2023-03-20T01:02:14	7.8	100
6956	2023-03-20T01:12:14	7.9	100
6957	2023-03-20T01:22:14	8	100
6958	2023-03-20T01:32:14	8	100
6959	2023-03-20T01:42:13	8.2	100
6960	2023-03-20T01:52:13	8.5	100
6961	2023-03-20T02:02:13	8.6	100
6962	2023-03-20T02:12:13	8.7	100
6963	2023-03-20T02:22:13	8.9	100
6964	2023-03-20T02:32:13	8.8	100
6965	2023-03-20T02:42:13	8.8	99.5
6966	2023-03-20T02:52:13	8.9	99.5
6967	2023-03-20T03:02:14	9	99
6968	2023-03-20T03:12:13	9	98.5
6969	2023-03-20T03:22:13	9	98.5
6970	2023-03-20T03:32:13	9	98
6971	2023-03-20T03:42:13	8.9	98
6972	2023-03-20T03:52:13	8.8	97
6973	2023-03-20T04:02:13	8.8	97
6974	2023-03-20T04:12:13	8.7	97
6975	2023-03-20T04:22:13	8.7	97
6976	2023-03-20T04:32:13	8.7	97
6977	2023-03-20T04:42:13	8.8	97
6978	2023-03-20T04:52:13	8.9	96.5
6979	2023-03-20T05:02:13	8.7	97
6980	2023-03-20T05:12:13	8.7	97
6981	2023-03-20T05:22:13	8.7	96
6982	2023-03-20T05:32:13	8.6	94.5
6983	2023-03-20T05:42:13	8.7	94
6984	2023-03-20T05:52:13	8.6	94
6985	2023-03-20T06:02:13	8.7	93.5
6986	2023-03-20T06:12:13	8.8	93.5
6987	2023-03-20T06:22:13	9	92
6988	2023-03-20T06:32:13	9.3	92
6989	2023-03-20T06:42:13	9.4	90.5
6990	2023-03-20T06:52:13	9.5	89.5
6991	2023-03-20T07:02:13	9.5	89
6992	2023-03-20T07:12:13	9.8	88
6993	2023-03-20T07:22:13	9.9	87.5
6994	2023-03-20T07:32:13	10	86
6995	2023-03-20T07:42:13	9.9	86
6996	2023-03-20T07:52:13	10.1	84.5
6997	2023-03-20T08:02:13	10.4	82
6998	2023-03-20T08:12:13	10.4	81
6999	2023-03-20T08:22:13	10.3	82
7000	2023-03-20T08:32:13	10.8	78
7001	2023-03-20T08:42:13	10.8	77
7002	2023-03-20T08:52:13	11	76.5
7003	2023-03-20T09:02:13	11	76
7004	2023-03-20T09:12:13	10.9	75.5
7005	2023-03-20T09:22:13	11.6	71.5
7006	2023-03-20T09:32:13	11.7	70.5
7007	2023-03-20T09:42:13	11.5	71.5
7008	2023-03-20T09:52:13	11.3	71.5
7009	2023-03-20T10:02:13	12.1	69.5
7010	2023-03-20T10:12:13	12	67
7011	2023-03-20T10:22:13	12.5	65.5
7012	2023-03-20T10:32:13	12.9	64
7013	2023-03-20T10:42:13	12.7	61
7014	2023-03-20T10:52:13	12.6	63.5
7015	2023-03-20T11:02:13	13.2	61.5
7016	2023-03-20T11:12:13	13.9	60.5
7017	2023-03-20T11:22:13	14	60
7018	2023-03-20T11:32:13	13.6	60
7019	2023-03-20T11:42:13	14.3	55.5
7020	2023-03-20T11:52:13	14.9	53
7021	2023-03-20T12:02:13	15.4	52.5
7022	2023-03-20T12:12:13	14.8	53.5
7023	2023-03-20T12:22:13	14.8	54.5
7024	2023-03-20T12:32:13	14.9	53.5
7025	2023-03-20T12:42:13	15.5	51
7026	2023-03-20T12:52:13	18	44
7027	2023-03-20T13:02:13	17.2	45.5
7028	2023-03-20T13:12:13	16.2	48.5
7029	2023-03-20T13:22:13	15.7	50.5
7030	2023-03-20T13:32:13	15.9	46
7031	2023-03-20T13:42:13	16.1	47
7032	2023-03-20T13:52:13	15.9	45.5
7033	2023-03-20T14:02:13	15.9	46
7034	2023-03-20T14:12:13	15.6	47
7035	2023-03-20T14:22:13	15.7	46.5
7036	2023-03-20T14:32:13	15.6	49
7037	2023-03-20T14:42:13	15.2	48.5
7038	2023-03-20T14:52:13	15	49.5
7039	2023-03-20T15:02:13	15.2	51
7040	2023-03-20T15:12:13	15.4	48.5
7041	2023-03-20T15:22:13	15.1	49
7042	2023-03-20T15:32:13	15.1	51
7043	2023-03-20T15:42:13	16	46.5
7044	2023-03-20T15:52:13	16.3	46
7045	2023-03-20T16:02:13	15.1	49.5
7046	2023-03-20T16:12:13	14.7	50.5
7047	2023-03-20T16:22:13	14.4	52
7048	2023-03-20T16:32:13	14.2	52.5
7049	2023-03-20T16:42:13	13.8	53.5
7050	2023-03-20T16:52:13	13.6	54
7051	2023-03-20T17:02:13	13.4	55
7052	2023-03-20T17:12:12	13	58.5
7053	2023-03-20T17:22:12	12.7	58
7054	2023-03-20T17:32:12	12.7	59.5
7055	2023-03-20T17:42:12	12.5	60.5
7056	2023-03-20T17:52:12	12.4	60
7057	2023-03-20T18:02:12	12.3	61
7058	2023-03-20T18:12:12	12.3	61
7059	2023-03-20T18:22:12	12.3	62.5
7060	2023-03-20T18:32:12	12	65.5
7061	2023-03-20T18:42:12	11.8	67
7062	2023-03-20T18:52:12	11.8	68
7063	2023-03-20T19:02:12	11.4	70
7064	2023-03-20T19:12:12	11.4	69.5
7065	2023-03-20T19:22:12	11.4	70.5
7066	2023-03-20T19:32:12	11.2	71
7067	2023-03-20T19:42:12	11.1	72
7068	2023-03-20T19:52:12	11.1	73.5
7069	2023-03-20T20:02:12	11.2	72
7070	2023-03-20T20:12:12	11.2	72.5
7071	2023-03-20T20:22:12	11.2	73
7072	2023-03-20T20:32:12	11.2	74
7073	2023-03-20T20:42:12	10.9	75.5
7074	2023-03-20T20:52:12	10.7	77
7075	2023-03-20T21:02:12	10.6	78
7076	2023-03-20T21:12:12	10.5	77.5
7077	2023-03-20T21:22:12	10.4	78
7078	2023-03-20T21:32:12	10.4	77
7079	2023-03-20T21:42:12	10.5	78.5
7080	2023-03-20T21:52:12	10.4	77.5
7081	2023-03-20T22:02:12	10.2	79
7082	2023-03-20T22:12:12	10	79
7083	2023-03-20T22:22:12	10.1	79.5
7084	2023-03-20T22:32:12	10	78
7085	2023-03-20T22:42:12	10	79.5
7086	2023-03-20T22:52:12	10	79.5
7087	2023-03-20T23:02:12	10	81
7088	2023-03-20T23:12:12	9.9	80.5
7089	2023-03-20T23:22:12	9.6	80
7090	2023-03-20T23:32:12	9.6	81.5
7091	2023-03-20T23:42:12	9.5	80.5
7092	2023-03-20T23:52:12	9.5	81.5
7093	2023-03-21T00:02:12	9.3	81.5
7094	2023-03-21T00:12:12	9.1	82
7095	2023-03-21T00:22:12	9.1	83
7096	2023-03-21T00:32:12	9	83.5
7097	2023-03-21T00:42:12	9	83.5
7098	2023-03-21T00:52:12	9	83
7099	2023-03-21T01:02:12	9.1	83
7100	2023-03-21T01:12:12	9	83
7101	2023-03-21T01:22:12	8.8	84
7102	2023-03-21T01:32:12	8.5	86
7103	2023-03-21T01:42:12	8.2	86.5
7104	2023-03-21T01:52:12	8.4	86.5
7105	2023-03-21T02:02:12	8.3	86
7106	2023-03-21T02:12:12	8.4	85.5
7107	2023-03-21T02:22:12	8.2	86
7108	2023-03-21T02:32:12	8.2	86.5
7109	2023-03-21T02:42:12	8.2	87.5
7110	2023-03-21T02:52:12	8	87.5
7111	2023-03-21T03:02:12	8.1	88
7112	2023-03-21T03:12:12	8.1	87.5
7113	2023-03-21T03:22:12	7.9	87.5
7114	2023-03-21T03:32:12	7.6	88.5
7115	2023-03-21T03:42:12	7.2	90
7116	2023-03-21T03:52:12	6.9	91.5
7117	2023-03-21T04:02:12	6.7	92.5
7118	2023-03-21T04:12:12	6.5	93
7119	2023-03-21T04:22:12	6.5	92.5
7120	2023-03-21T04:32:12	6.5	91.5
7121	2023-03-21T04:42:12	6.6	90.5
7122	2023-03-21T04:52:12	6.6	91
7123	2023-03-21T05:02:12	6.2	91.5
7124	2023-03-21T05:12:12	6	91.5
7125	2023-03-21T05:22:12	5.9	92
7126	2023-03-21T05:32:12	5.8	92.5
7127	2023-03-21T05:42:12	5.6	93
7128	2023-03-21T05:52:12	5.6	94
7129	2023-03-21T06:02:12	5.6	94
7130	2023-03-21T06:12:12	5.7	92
7131	2023-03-21T06:22:12	6	90.5
7132	2023-03-21T06:32:12	6.2	91
7133	2023-03-21T06:42:12	6.3	91
7134	2023-03-21T06:52:12	6.6	91
7135	2023-03-21T07:02:12	6.8	90
7136	2023-03-21T07:12:12	7	88.5
7137	2023-03-21T07:22:12	7.5	87
7138	2023-03-21T07:32:12	7.9	84.5
7139	2023-03-21T07:42:12	8.2	81.5
7140	2023-03-21T07:52:12	8.7	80
7141	2023-03-21T08:02:12	9.2	79
7142	2023-03-21T08:12:12	9.7	77.5
7143	2023-03-21T08:22:12	10	76
7144	2023-03-21T08:32:12	10.4	75.5
7145	2023-03-21T08:42:12	10.7	73.5
7146	2023-03-21T08:52:12	11.3	72.5
7147	2023-03-21T09:02:12	11.5	71
7148	2023-03-21T09:12:12	11.9	70
7149	2023-03-21T09:22:12	12.2	67.5
7150	2023-03-21T09:32:12	12.1	64.5
7151	2023-03-21T09:42:12	12	65.5
7152	2023-03-21T09:52:12	12.2	65
7153	2023-03-21T10:02:12	12.4	64.5
7154	2023-03-21T10:12:12	12.5	64
7155	2023-03-21T10:22:12	12.7	64.5
7156	2023-03-21T10:32:12	13	63.5
7157	2023-03-21T10:42:12	13.3	61.5
7158	2023-03-21T10:52:11	13.8	61.5
7159	2023-03-21T11:02:11	14.1	59.5
7160	2023-03-21T11:12:11	14.2	58.5
7161	2023-03-21T11:22:12	14.5	56.5
7162	2023-03-21T11:32:11	14.8	56
7163	2023-03-21T11:42:11	15.2	53.5
7164	2023-03-21T11:52:11	15.6	55
7165	2023-03-21T12:02:11	16.1	51
7166	2023-03-21T12:12:11	16.8	50
7167	2023-03-21T12:22:11	17.8	44
7168	2023-03-21T12:32:11	19.2	41.5
7169	2023-03-21T12:42:11	19.4	39
7170	2023-03-21T12:52:11	19.6	39.5
7171	2023-03-21T13:02:11	20.1	39
7172	2023-03-21T13:12:11	20.1	38
7173	2023-03-21T13:22:11	20.5	36.5
7174	2023-03-21T13:32:11	20.4	37.5
7175	2023-03-21T13:42:11	20.3	39.5
7176	2023-03-21T13:52:11	19.7	40
7177	2023-03-21T14:02:11	19.2	40.5
7178	2023-03-21T14:12:11	18.5	41.5
7179	2023-03-21T14:22:11	18.2	43
7180	2023-03-21T14:32:11	17.8	44
7181	2023-03-21T14:42:11	17.2	44.5
7182	2023-03-21T14:52:11	17.3	44
7183	2023-03-21T15:02:11	16.9	45
7184	2023-03-21T15:12:11	16.8	43.5
7185	2023-03-21T15:22:11	16.9	43.5
7186	2023-03-21T15:32:11	16.5	42
7187	2023-03-21T15:42:11	16.4	43
7188	2023-03-21T15:52:11	16.5	43.5
7189	2023-03-21T16:02:11	16.3	45
7190	2023-03-21T16:12:11	16.1	45
7191	2023-03-21T16:22:11	16	48
7192	2023-03-21T16:32:11	15.7	47
7193	2023-03-21T16:42:11	15.6	48.5
7194	2023-03-21T16:52:11	15.5	48.5
7195	2023-03-21T17:02:11	15.3	48.5
7196	2023-03-21T17:12:11	15.2	54.5
7197	2023-03-21T17:22:11	14.9	54.5
7198	2023-03-21T17:32:11	14.8	57.5
7199	2023-03-21T17:42:11	14.6	56
7200	2023-03-21T17:52:11	14.4	56.5
7201	2023-03-21T18:02:11	14.3	55.5
7202	2023-03-21T18:12:11	14.1	60.5
7203	2023-03-21T18:22:11	14	62.5
7204	2023-03-21T18:32:11	13.9	62
7205	2023-03-21T18:42:11	13.8	63.5
7206	2023-03-21T18:52:11	13.6	64.5
7207	2023-03-21T19:02:11	13.4	66
7208	2023-03-21T19:12:11	13	69
7209	2023-03-21T19:22:11	12.8	71
7210	2023-03-21T19:32:11	12.8	69.5
7211	2023-03-21T19:42:11	12.7	70
7212	2023-03-21T19:52:11	12.5	70.5
7213	2023-03-21T20:02:11	12.1	71
7214	2023-03-21T20:12:11	12	72.5
7215	2023-03-21T20:22:11	11.7	73.5
7216	2023-03-21T20:32:11	11.5	74
7217	2023-03-21T20:42:11	11.1	74.5
7218	2023-03-21T20:52:11	10.7	77
7219	2023-03-21T21:02:11	10.4	77
7220	2023-03-21T21:12:11	10.2	77.5
7221	2023-03-21T21:22:11	9.9	78.5
7222	2023-03-21T21:32:11	9.6	79
7223	2023-03-21T21:42:11	9.5	78.5
7224	2023-03-21T21:52:11	9.3	78.5
7225	2023-03-21T22:02:11	9.2	80
7226	2023-03-21T22:12:11	9.1	80.5
7227	2023-03-21T22:22:11	8.9	81
7228	2023-03-21T22:32:11	8.7	80.5
7229	2023-03-21T22:42:11	8.6	81.5
7230	2023-03-21T22:52:11	8.4	81
7231	2023-03-21T23:02:11	8	82.5
7232	2023-03-21T23:12:11	7.9	83.5
7233	2023-03-21T23:22:11	7.8	84
7234	2023-03-21T23:32:11	7.7	84
7235	2023-03-21T23:42:11	7.5	84
7236	2023-03-21T23:52:11	7.7	83.5
7237	2023-03-22T00:02:11	7.5	84
7238	2023-03-22T00:12:11	7.7	84
7239	2023-03-22T00:22:11	7.6	84.5
7240	2023-03-22T00:32:11	7.3	85.5
7241	2023-03-22T00:42:11	7.2	85.5
7242	2023-03-22T00:52:11	7.1	86.5
7243	2023-03-22T01:02:10	6.9	87
7244	2023-03-22T01:12:11	6.8	87.5
7245	2023-03-22T01:22:10	6.6	87.5
7246	2023-03-22T01:32:10	6.5	88
7247	2023-03-22T01:42:10	6.4	88.5
7248	2023-03-22T01:52:10	6.4	88
7249	2023-03-22T02:02:10	6.3	89
7250	2023-03-22T02:12:10	6.2	89.5
7251	2023-03-22T02:22:10	6.1	89.5
7252	2023-03-22T02:32:10	6.2	89.5
7253	2023-03-22T02:42:10	6.7	86.5
7254	2023-03-22T02:52:10	7	86
7255	2023-03-22T03:02:11	7.2	85.5
7256	2023-03-22T03:12:10	7.3	85.5
7257	2023-03-22T03:22:10	6.9	87.5
7258	2023-03-22T03:32:10	6.4	88.5
7259	2023-03-22T03:42:10	6.1	90
7260	2023-03-22T03:52:10	6	91
7261	2023-03-22T04:02:10	5.8	91.5
7262	2023-03-22T04:12:10	5.6	91.5
7263	2023-03-22T04:22:10	5.4	92
7264	2023-03-22T04:32:10	5.4	92
7265	2023-03-22T04:42:10	5.3	91.5
7266	2023-03-22T04:52:10	5.3	92.5
7267	2023-03-22T05:02:10	5.1	93
7268	2023-03-22T05:12:10	4.9	93.5
7269	2023-03-22T05:22:10	4.8	94
7270	2023-03-22T05:32:10	4.8	94.5
7271	2023-03-22T05:42:10	4.7	94.5
7272	2023-03-22T05:52:10	4.6	94
7273	2023-03-22T06:02:10	4.7	94.5
7274	2023-03-22T06:12:10	4.8	94.5
7275	2023-03-22T06:22:10	4.9	95
7276	2023-03-22T06:32:10	4.9	95
7277	2023-03-22T06:42:10	5.1	95.5
7278	2023-03-22T06:52:10	5.6	95.5
7279	2023-03-22T07:02:10	6	95
7280	2023-03-22T07:12:10	6.5	93
7281	2023-03-22T07:22:10	6.8	91
7282	2023-03-22T07:32:10	7.6	90
7283	2023-03-22T07:42:10	8.4	87
7284	2023-03-22T07:52:10	9.4	81
7285	2023-03-22T08:02:10	10.4	75.5
7286	2023-03-22T08:12:10	11.1	73.5
7287	2023-03-22T08:22:10	11.9	68.5
7288	2023-03-22T08:32:10	12.7	65.5
7289	2023-03-22T08:42:10	13	63.5
7290	2023-03-22T08:52:10	13.4	62.5
7291	2023-03-22T09:02:10	13.4	61.5
7292	2023-03-22T09:12:10	13.5	62
7293	2023-03-22T09:22:10	13.7	62
7294	2023-03-22T09:32:10	14	60.5
7295	2023-03-22T09:42:10	14.2	60
7296	2023-03-22T09:52:10	14.7	58
7297	2023-03-22T10:02:10	14.9	57
7298	2023-03-22T10:12:10	14.9	57.5
7299	2023-03-22T10:22:10	15.5	54.5
7300	2023-03-22T10:32:10	15.8	52.5
7301	2023-03-22T10:42:10	16	52.5
7302	2023-03-22T10:52:10	16.1	52
7303	2023-03-22T11:02:10	16.2	51.5
7304	2023-03-22T11:12:10	16.5	50.5
7305	2023-03-22T11:22:10	16.6	50.5
7306	2023-03-22T11:32:10	16.9	49
7307	2023-03-22T11:42:10	17.4	46.5
7308	2023-03-22T11:52:10	17.5	44.5
7309	2023-03-22T12:02:10	17.9	45
7310	2023-03-22T12:12:10	19.3	42
7311	2023-03-22T12:22:10	18.9	42
7312	2023-03-22T12:32:10	21.8	35.5
7313	2023-03-22T12:42:10	20.7	39
7314	2023-03-22T12:52:10	21.8	36
7315	2023-03-22T13:02:10	22.8	34
7316	2023-03-22T13:12:10	22.3	35.5
7317	2023-03-22T13:22:10	22.7	35
7318	2023-03-22T13:32:10	23.2	33.5
7319	2023-03-22T13:42:10	22.5	35
7320	2023-03-22T13:52:10	21	38
7321	2023-03-22T14:02:10	20.4	38.5
7322	2023-03-22T14:12:10	20.7	37
7323	2023-03-22T14:22:10	21.3	37
7324	2023-03-22T14:32:10	20.8	37
7325	2023-03-22T14:42:10	20.7	37.5
7326	2023-03-22T14:52:10	21.1	33.5
7327	2023-03-22T15:02:10	21.5	31.5
7328	2023-03-22T15:12:10	23	27
7329	2023-03-22T15:22:10	22.7	26.5
7330	2023-03-22T15:32:10	23.1	26
7331	2023-03-22T15:42:10	23.3	27
7332	2023-03-22T15:52:10	23.4	27
7333	2023-03-22T16:02:10	23.2	27.5
7334	2023-03-22T16:12:10	23.2	28
7335	2023-03-22T16:22:10	23.4	28.5
7336	2023-03-22T16:32:09	23.2	27.5
7337	2023-03-22T16:42:09	21.7	30.5
7338	2023-03-22T16:52:09	20.3	32
7339	2023-03-22T17:02:09	19.7	34
7340	2023-03-22T17:12:09	19.1	35.5
7341	2023-03-22T17:22:09	18.5	38
7342	2023-03-22T17:32:09	18	39.5
7343	2023-03-22T17:42:09	17.7	42
7344	2023-03-22T17:52:09	17.3	44.5
7345	2023-03-22T18:02:09	17	46.5
7346	2023-03-22T18:12:09	16.7	50
7347	2023-03-22T18:22:09	16.3	50.5
7348	2023-03-22T18:32:09	16.1	51
7349	2023-03-22T18:42:09	15.9	53
7350	2023-03-22T18:52:09	15.8	49.5
7351	2023-03-22T19:02:09	15.8	52.5
7352	2023-03-22T19:12:09	15.6	52.5
7353	2023-03-22T19:22:09	15.7	53
7354	2023-03-22T19:32:09	15.7	53.5
7355	2023-03-22T19:42:09	15.4	54.5
7356	2023-03-22T19:52:09	15.3	55
7357	2023-03-22T20:02:09	15.1	56.5
7358	2023-03-22T20:12:09	14.9	60
7359	2023-03-22T20:22:09	14.8	52.5
7360	2023-03-22T20:32:09	14.7	60.5
7361	2023-03-22T20:42:09	14.6	59.5
7362	2023-03-22T20:52:09	14.5	62.5
7363	2023-03-22T21:02:09	14.5	63.5
7364	2023-03-22T21:12:09	14.2	64.5
7365	2023-03-22T21:22:09	14.3	61
7366	2023-03-22T21:32:09	14.2	63.5
7367	2023-03-22T21:42:09	14	62.5
7368	2023-03-22T21:52:09	14.3	56
7369	2023-03-22T22:02:09	14.4	57
7370	2023-03-22T22:12:09	14.6	55.5
7371	2023-03-22T22:22:09	14.8	53.5
7372	2023-03-22T22:32:09	15	52
7373	2023-03-22T22:42:09	15	51.5
7374	2023-03-22T22:52:09	15	52
7375	2023-03-22T23:02:09	14.9	52
7376	2023-03-22T23:12:09	14.9	52.5
7377	2023-03-22T23:22:09	14.7	52.5
7378	2023-03-22T23:32:09	14.7	53
7379	2023-03-22T23:42:09	14.5	54
7380	2023-03-22T23:52:09	14.5	53
7381	2023-03-23T00:02:09	14.7	52.5
7382	2023-03-23T00:12:09	14.7	52
7383	2023-03-23T00:22:09	14.8	51.5
7384	2023-03-23T00:32:09	14.9	51.5
7385	2023-03-23T00:42:09	14.8	53
7386	2023-03-23T00:52:09	14.7	53.5
7387	2023-03-23T01:02:09	14.9	52
7388	2023-03-23T01:12:09	15.1	50.5
7389	2023-03-23T01:22:09	15.2	49.5
7390	2023-03-23T01:32:09	15.3	48.5
7391	2023-03-23T01:42:09	15.6	48
7392	2023-03-23T01:52:09	15.7	47
7393	2023-03-23T02:02:09	15.9	46.5
7394	2023-03-23T02:12:09	16	46.5
7395	2023-03-23T02:22:09	16.2	46
7396	2023-03-23T02:32:09	16.1	46.5
7397	2023-03-23T02:42:09	16.1	46.5
7398	2023-03-23T02:52:09	16.2	47
7399	2023-03-23T03:02:09	16.2	47
7400	2023-03-23T03:12:09	16.2	47
7401	2023-03-23T03:22:09	16.2	48
7402	2023-03-23T03:32:09	16	49.5
7403	2023-03-23T03:42:09	16	51
7404	2023-03-23T03:52:09	16	50
7405	2023-03-23T04:02:09	15.9	51
7406	2023-03-23T04:12:09	16	50
7407	2023-03-23T04:22:09	16.1	49.5
7408	2023-03-23T04:32:09	16.1	50.5
7409	2023-03-23T04:42:09	15.9	51.5
7410	2023-03-23T04:52:09	15.9	52
7411	2023-03-23T05:02:08	15.7	52.5
7412	2023-03-23T05:12:08	15.5	54.5
7413	2023-03-23T05:22:08	13.9	78
7414	2023-03-23T05:32:08	13.2	79.5
7415	2023-03-23T05:42:08	13	78
7416	2023-03-23T05:52:08	12.6	83.5
7417	2023-03-23T06:02:08	12.5	82
7418	2023-03-23T06:12:08	12.4	86.5
7419	2023-03-23T06:22:08	12.5	83.5
7420	2023-03-23T06:32:08	12.7	78
7421	2023-03-23T06:42:08	13	75
7422	2023-03-23T06:52:08	12.8	74
7423	2023-03-23T07:02:08	13	74.5
7424	2023-03-23T07:12:08	13.1	75.5
7425	2023-03-23T07:22:08	12.6	87
7426	2023-03-23T07:32:08	12.4	82
7427	2023-03-23T07:42:08	12.4	81
7428	2023-03-23T07:52:08	12.5	80.5
7429	2023-03-23T08:02:08	12.8	78
7430	2023-03-23T08:12:08	13.5	74
7431	2023-03-23T08:22:08	14	71.5
7432	2023-03-23T08:32:08	14.5	69.5
7433	2023-03-23T08:42:08	14.9	68
7434	2023-03-23T08:52:08	14.9	67.5
7435	2023-03-23T09:02:08	14.8	67.5
7436	2023-03-23T09:12:08	14.3	75.5
7437	2023-03-23T09:22:08	14.1	73.5
7438	2023-03-23T09:32:08	14.4	73
7439	2023-03-23T09:42:08	12.9	85.5
7440	2023-03-23T09:52:08	12.4	90
7441	2023-03-23T10:02:08	12.4	91.5
7442	2023-03-23T10:12:08	12.4	90
7443	2023-03-23T10:22:08	12.5	88
7444	2023-03-23T10:32:08	12.5	89.5
7445	2023-03-23T10:42:26	12.2	92
7446	2023-03-23T10:52:08	12.2	89.5
7447	2023-03-23T11:02:08	12.5	90
7448	2023-03-23T11:12:08	12.7	90
7449	2023-03-23T11:22:08	12.4	94.5
7450	2023-03-23T11:32:08	12.4	95.5
7451	2023-03-23T11:42:08	12.8	96.5
7452	2023-03-23T11:52:08	12.9	96.5
7453	2023-03-23T12:02:08	13.2	95
7454	2023-03-23T12:12:08	13.3	91
7455	2023-03-23T12:22:08	13.6	90
7456	2023-03-23T12:32:08	13.7	87
7457	2023-03-23T12:42:08	14.1	79
7458	2023-03-23T12:52:08	14.3	76
7459	2023-03-23T13:02:08	14.6	71
7460	2023-03-23T13:12:08	15.1	70.5
7461	2023-03-23T13:22:08	15.5	68
7462	2023-03-23T13:32:08	15.6	70
7463	2023-03-23T13:42:08	16	70.5
7464	2023-03-23T13:52:08	16.2	67
7465	2023-03-23T14:02:08	16.5	63.5
7466	2023-03-23T14:12:08	16.8	63.5
7467	2023-03-23T14:22:08	16.7	62
7468	2023-03-23T14:32:08	16.5	63
7469	2023-03-23T14:42:08	16.4	63
7470	2023-03-23T14:52:08	16.2	63.5
7471	2023-03-23T15:02:08	16.3	62.5
7472	2023-03-23T15:12:08	16.2	64
7473	2023-03-23T15:22:08	16	65.5
7474	2023-03-23T15:32:08	15.9	69.5
7475	2023-03-23T15:42:08	15.8	73
7476	2023-03-23T15:52:08	15.7	71
7477	2023-03-23T16:02:08	15.7	75
7478	2023-03-23T16:12:08	15.6	74.5
7479	2023-03-23T16:22:08	15.4	75.5
7480	2023-03-23T16:32:08	15.5	66.5
7481	2023-03-23T16:42:08	15.5	70
7482	2023-03-23T16:52:08	15.3	75
7483	2023-03-23T17:02:08	15.3	75.5
7484	2023-03-23T17:12:08	15.2	77.5
7485	2023-03-23T17:22:08	15.1	70.5
7486	2023-03-23T17:32:08	14.9	72.5
7487	2023-03-23T17:42:08	15	74.5
7488	2023-03-23T17:52:08	14.8	75
7489	2023-03-23T18:02:08	14.8	73
7490	2023-03-23T18:12:08	14.8	71
7491	2023-03-23T18:22:08	15.1	62
7492	2023-03-23T18:32:08	15.5	58
7493	2023-03-23T18:42:07	15.6	58
7494	2023-03-23T18:52:07	15.8	57
7495	2023-03-23T19:02:07	15.8	57
7496	2023-03-23T19:12:07	15.8	56.5
7497	2023-03-23T19:22:07	16	56
7498	2023-03-23T19:32:07	15.9	57
7499	2023-03-23T19:42:07	15.8	56.5
7500	2023-03-23T19:52:07	15.8	56.5
7501	2023-03-23T20:02:07	15.9	56
7502	2023-03-23T20:12:07	15.9	55
7503	2023-03-23T20:22:07	15.9	55
7504	2023-03-23T20:32:07	15.8	55
7505	2023-03-23T20:42:07	15.7	55
7506	2023-03-23T20:52:07	15.8	55
7507	2023-03-23T21:02:07	15.9	55
7508	2023-03-23T21:12:07	15.7	54
7509	2023-03-23T21:32:07	15.7	55.5
7510	2023-03-23T21:42:07	15.3	62.5
7511	2023-03-23T21:52:07	14.9	63
7512	2023-03-23T22:02:07	14.7	64
7513	2023-03-23T22:12:07	14.7	67.5
7514	2023-03-23T22:22:07	14.4	68
7515	2023-03-23T22:32:07	14.4	66.5
7516	2023-03-23T22:42:07	14.5	73
7517	2023-03-23T22:52:07	14.2	76.5
7518	2023-03-23T23:02:07	14.1	78.5
7519	2023-03-23T23:12:07	13.9	81
7520	2023-03-23T23:22:07	13.9	81
7521	2023-03-23T23:32:07	13.7	83
7522	2023-03-23T23:42:07	13.5	84.5
7523	2023-03-23T23:52:07	13.4	86
7524	2023-03-24T00:02:07	13.4	86.5
7525	2023-03-24T00:12:07	13.3	86
7526	2023-03-24T00:22:07	13.3	86.5
7527	2023-03-24T00:32:07	13.2	87.5
7528	2023-03-24T00:42:07	13	88.5
7529	2023-03-24T00:52:07	13	89
7530	2023-03-24T01:02:07	13	88
7531	2023-03-24T01:12:07	13	88
7532	2023-03-24T01:22:07	12.9	88
7533	2023-03-24T01:32:07	12.7	89
7534	2023-03-24T01:42:07	12.7	89
7535	2023-03-24T01:52:07	12.8	89.5
7536	2023-03-24T02:02:07	12.6	90
7537	2023-03-24T02:12:07	12.6	89.5
7538	2023-03-24T02:22:07	12.3	90.5
7539	2023-03-24T02:32:07	12.5	90
7540	2023-03-24T02:42:07	12.5	90
7541	2023-03-24T02:52:07	12.5	90
7542	2023-03-24T03:02:07	12.5	90
7543	2023-03-24T03:12:07	12.4	90
7544	2023-03-24T03:22:07	12.4	90.5
7545	2023-03-24T03:32:07	12.4	90.5
7546	2023-03-24T03:42:07	12.3	90.5
7547	2023-03-24T03:52:07	12.3	90.5
7548	2023-03-24T04:02:07	12.4	89.5
7549	2023-03-24T04:12:07	12.7	81.5
7550	2023-03-24T04:22:07	12.6	82
7551	2023-03-24T04:32:07	12.9	78
7552	2023-03-24T04:42:07	12	96.5
7553	2023-03-24T04:52:07	11.9	98
7554	2023-03-24T05:02:07	11.8	98.5
7555	2023-03-24T05:12:07	11.8	98.5
7556	2023-03-24T05:22:07	11.8	99
7557	2023-03-24T05:32:07	11.8	99
7558	2023-03-24T05:42:07	11.9	99.5
7559	2023-03-24T05:52:07	11.9	99.5
7560	2023-03-24T06:02:07	11.8	99.5
7561	2023-03-24T06:12:07	11.9	99.5
7562	2023-03-24T06:22:07	11.8	99.5
7563	2023-03-24T06:32:07	11.9	99.5
7564	2023-03-24T06:42:07	11.8	99.5
7565	2023-03-24T06:52:07	11.8	99.5
7566	2023-03-24T07:02:07	11.8	100
7567	2023-03-24T07:12:07	11.8	100
7568	2023-03-24T07:22:07	11.8	100
7569	2023-03-24T07:32:07	11.8	100
7570	2023-03-24T07:42:07	11.8	100
7571	2023-03-24T07:52:07	12	100
7572	2023-03-24T08:02:07	12.1	100
7573	2023-03-24T08:12:06	12.1	100
7574	2023-03-24T08:22:06	12.3	100
7575	2023-03-24T08:32:06	12.5	99.5
7576	2023-03-24T08:42:06	12.6	100
7577	2023-03-24T08:52:06	12.7	100
7578	2023-03-24T09:02:06	12.7	100
7579	2023-03-24T09:12:06	12.6	100
7580	2023-03-24T09:22:06	12.8	100
7581	2023-03-24T09:32:06	12.8	100
7582	2023-03-24T09:42:06	13.2	100
7583	2023-03-24T09:52:06	13.8	100
7584	2023-03-24T10:02:06	13.8	100
7585	2023-03-24T10:12:06	14.2	100
7586	2023-03-24T10:22:06	14.4	100
7587	2023-03-24T10:32:06	14.6	100
7588	2023-03-24T10:42:06	14.9	100
7589	2023-03-24T10:52:06	15	99.5
7590	2023-03-24T11:02:06	15	99
7591	2023-03-24T11:12:06	14.4	99.5
7592	2023-03-24T11:22:06	14.5	99
7593	2023-03-24T11:32:06	14.1	99.5
7594	2023-03-24T11:42:06	13.6	100
7595	2023-03-24T11:52:06	13.7	100
7596	2023-03-24T12:02:06	13.7	99.5
7597	2023-03-24T12:12:06	11.7	98.5
7598	2023-03-24T12:22:06	10.8	99.5
7599	2023-03-24T12:32:06	10.6	100
7600	2023-03-24T12:42:06	10.3	100
7601	2023-03-24T12:52:06	10.3	100
7602	2023-03-24T13:02:06	10.3	100
7603	2023-03-24T13:12:06	10.5	100
7604	2023-03-24T13:22:06	10.7	100
7605	2023-03-24T13:32:06	10.9	100
7606	2023-03-24T13:42:06	11.4	100
7607	2023-03-24T13:52:06	11.5	100
7608	2023-03-24T14:02:06	12.3	100
7609	2023-03-24T14:12:06	12.1	100
7610	2023-03-24T14:22:06	12.1	100
7611	2023-03-24T14:32:06	12.3	100
7612	2023-03-24T14:42:06	12.5	99.5
7613	2023-03-24T14:52:06	12.6	99.5
7614	2023-03-24T15:02:06	12.8	99.5
7615	2023-03-24T15:12:06	12.7	99.5
7616	2023-03-24T15:22:06	13.6	99.5
7617	2023-03-24T15:32:06	15.3	98.5
7618	2023-03-24T15:42:06	13.4	98.5
7619	2023-03-24T15:52:06	15.8	98
7620	2023-03-24T16:02:06	15.2	97.5
7621	2023-03-24T16:12:06	16.9	96.5
7622	2023-03-24T16:22:06	17.1	96.5
7623	2023-03-24T16:32:06	17	96
7624	2023-03-24T16:42:06	16.7	96
7625	2023-03-24T16:52:06	15.2	96
7626	2023-03-24T17:02:06	14.6	96
7627	2023-03-24T17:12:06	13	96
7628	2023-03-24T17:22:06	12.7	96.5
7629	2023-03-24T17:32:06	12.4	96.5
7630	2023-03-24T17:42:06	12.2	96.5
7631	2023-03-24T17:52:06	11.9	96.5
7632	2023-03-24T18:02:06	11.8	97
7633	2023-03-24T18:12:06	11.9	97
7634	2023-03-24T18:22:06	11.7	97
7635	2023-03-24T18:32:06	11.8	100
7636	2023-03-24T18:42:06	11.7	100
7637	2023-03-24T18:52:06	11.7	99
7638	2023-03-24T19:02:06	11.6	99
7639	2023-03-24T19:12:06	11.6	99
7640	2023-03-24T19:22:06	11.6	98.5
7641	2023-03-24T19:32:06	11.7	98.5
7642	2023-03-24T19:42:06	11.5	98.5
7643	2023-03-24T19:52:06	11.5	98
7644	2023-03-24T20:02:06	11.5	97.5
7645	2023-03-24T20:12:06	11.3	98
7646	2023-03-24T20:22:06	11.4	97.5
7647	2023-03-24T20:32:06	11.7	97
7648	2023-03-24T20:42:06	11.5	96.5
7649	2023-03-24T20:52:06	11.4	95
7650	2023-03-24T21:02:06	11.1	93
7651	2023-03-24T21:12:06	11.1	90
7652	2023-03-24T21:22:06	11.1	90
7653	2023-03-24T21:32:06	11.2	91
7654	2023-03-24T21:42:06	11.4	87.5
7655	2023-03-24T21:52:06	11.6	87
7656	2023-03-24T22:02:06	11.6	88
7657	2023-03-24T22:12:06	11.7	76.5
7658	2023-03-24T22:22:06	10	97
7659	2023-03-24T22:32:06	9.2	99
7660	2023-03-24T22:42:06	8.9	99.5
7661	2023-03-24T22:52:06	8.5	99.5
7662	2023-03-24T23:02:05	8.2	100
7663	2023-03-24T23:12:06	8.2	100
7664	2023-03-24T23:22:05	8.3	100
7665	2023-03-24T23:32:05	8.3	100
7666	2023-03-24T23:42:05	8.4	100
7667	2023-03-24T23:52:05	8.4	100
7668	2023-03-25T00:02:05	8.2	100
7669	2023-03-25T00:12:05	8.1	100
7670	2023-03-25T00:22:05	8.2	100
7671	2023-03-25T00:32:05	8.3	100
7672	2023-03-25T00:42:05	8.7	100
7673	2023-03-25T00:52:05	8.5	100
7674	2023-03-25T01:02:05	8.4	100
7675	2023-03-25T01:12:05	8.4	99.5
7676	2023-03-25T01:22:05	8.5	99.5
7677	2023-03-25T01:32:05	8	100
7678	2023-03-25T01:42:05	7.7	100
7679	2023-03-25T01:52:05	7.2	100
7680	2023-03-25T02:02:05	7	100
7681	2023-03-25T02:12:05	6.8	100
7682	2023-03-25T02:22:05	6.7	100
7683	2023-03-25T02:32:05	6.5	100
7684	2023-03-25T02:42:05	6.4	100
7685	2023-03-25T02:52:05	6.6	100
7686	2023-03-25T03:02:05	6.6	100
7687	2023-03-25T03:12:05	6.6	100
7688	2023-03-25T03:22:05	7	100
7689	2023-03-25T03:32:05	7.1	100
7690	2023-03-25T03:42:05	7.3	100
7691	2023-03-25T03:52:05	7.5	100
7692	2023-03-25T04:02:05	7.7	100
7693	2023-03-25T04:12:05	7.6	100
7694	2023-03-25T04:22:05	7.6	100
7695	2023-03-25T04:32:05	7.9	100
7696	2023-03-25T04:42:05	7.8	100
7697	2023-03-25T04:52:05	7.7	100
7698	2023-03-25T05:02:05	8	100
7699	2023-03-25T05:12:05	8.1	100
7700	2023-03-25T05:22:05	8	100
7701	2023-03-25T05:32:05	8.1	100
7702	2023-03-25T05:42:05	8.1	100
7703	2023-03-25T05:52:05	8.1	100
7704	2023-03-25T06:02:05	8	100
7705	2023-03-25T06:12:05	8	100
7706	2023-03-25T06:22:05	8.2	99.5
7707	2023-03-25T06:32:05	8.6	100
7708	2023-03-25T06:42:05	8.6	100
7709	2023-03-25T06:52:05	8.5	100
7710	2023-03-25T07:02:05	8.9	100
7711	2023-03-25T07:12:05	8.7	98.5
7712	2023-03-25T07:22:05	9.3	95
7713	2023-03-25T07:32:05	9.3	93
7714	2023-03-25T07:42:05	9.6	90
7715	2023-03-25T07:52:05	9.8	88.5
7716	2023-03-25T08:02:05	9.9	90
7717	2023-03-25T08:12:05	9.8	89.5
7718	2023-03-25T08:22:05	8	99
7719	2023-03-25T08:32:05	7.8	100
7720	2023-03-25T08:42:05	8.1	100
7721	2023-03-25T08:52:05	8.3	100
7722	2023-03-25T09:02:05	8.3	100
7723	2023-03-25T09:12:05	8.5	100
7724	2023-03-25T09:22:05	8.3	100
7725	2023-03-25T09:32:05	8.3	100
7726	2023-03-25T09:42:05	8.3	100
7727	2023-03-25T09:52:05	8.2	100
7728	2023-03-25T10:02:05	8.4	100
7729	2023-03-25T10:12:05	8.7	100
7730	2023-03-25T10:22:05	9.7	100
7731	2023-03-25T10:32:05	9.3	100
7732	2023-03-25T10:42:05	9.5	100
7733	2023-03-25T10:52:05	10.5	100
7734	2023-03-25T11:02:05	10.7	100
7735	2023-03-25T11:12:05	10.6	100
7736	2023-03-25T11:22:05	10.7	100
7737	2023-03-25T11:32:05	11.3	100
7738	2023-03-25T11:42:05	11.2	99.5
7739	2023-03-25T11:52:05	10.1	100
7740	2023-03-25T12:02:05	9.3	100
7741	2023-03-25T12:12:05	10.5	100
7742	2023-03-25T12:22:05	11.5	100
7743	2023-03-25T12:32:05	13.3	100
7744	2023-03-25T12:42:21	14.8	99.5
7745	2023-03-25T12:52:05	14.9	95
7746	2023-03-25T13:02:05	14.9	88
7747	2023-03-25T13:12:05	13.2	82
7748	2023-03-25T13:22:05	12.6	82
7749	2023-03-25T13:32:05	11.5	92.5
7750	2023-03-25T13:42:05	12.6	84.5
7751	2023-03-25T13:52:05	15.5	72
7752	2023-03-25T14:02:05	15.2	71
7753	2023-03-25T14:12:05	15.6	55.5
7754	2023-03-25T14:22:05	16.4	48
7755	2023-03-25T14:32:05	15.7	48
7756	2023-03-25T14:42:05	17.9	36.5
7757	2023-03-25T14:52:05	18.2	34.5
7758	2023-03-25T15:02:05	19.3	33.5
7759	2023-03-25T15:12:05	16.2	38.5
7760	2023-03-25T15:22:05	18.7	37.5
7761	2023-03-25T15:32:05	20.1	32.5
7762	2023-03-25T15:42:05	19.1	32
7763	2023-03-25T15:52:05	19.2	33
7764	2023-03-25T16:02:05	16	42.5
7765	2023-03-25T16:12:05	15.2	47.5
7766	2023-03-25T16:22:04	14.8	48.5
7767	2023-03-25T16:32:04	15.3	46
7768	2023-03-25T16:42:04	17.1	41
7769	2023-03-25T16:52:04	17.3	40
7770	2023-03-25T17:02:04	16	42.5
7771	2023-03-25T17:12:04	15.4	42.5
7772	2023-03-25T17:22:04	14.3	46
7773	2023-03-25T17:32:04	13.4	47.5
7774	2023-03-25T17:42:04	13	50.5
7775	2023-03-25T17:52:04	12.6	53
7776	2023-03-25T18:02:04	12.7	53
7777	2023-03-25T18:12:04	12.3	54
7778	2023-03-25T18:22:24	12.2	54.5
7779	2023-03-25T18:32:04	12.1	56.5
7780	2023-03-25T18:42:04	11.9	61
7781	2023-03-25T18:52:04	11.6	59.5
7782	2023-03-25T19:02:04	11.6	61
7783	2023-03-25T19:12:04	11.2	61.5
7784	2023-03-25T19:22:04	11	62.5
7785	2023-03-25T19:32:04	10.9	64
7786	2023-03-25T19:42:04	10.6	65.5
7787	2023-03-25T19:52:04	10.6	65.5
7788	2023-03-25T20:02:04	10.5	66.5
7789	2023-03-25T20:12:04	10.5	67.5
7790	2023-03-25T20:22:04	10.3	68.5
7791	2023-03-25T20:32:04	10.4	68
7792	2023-03-25T20:42:04	10.5	68
7793	2023-03-25T20:52:04	10.4	70.5
7794	2023-03-25T21:02:04	10.3	70
7795	2023-03-25T21:12:04	10.2	75.5
7796	2023-03-25T21:22:04	8.5	96
7797	2023-03-25T21:32:04	8.3	97.5
7798	2023-03-25T21:42:04	8.2	98
7799	2023-03-25T21:52:04	8.1	98.5
7800	2023-03-25T22:02:04	8.1	99
7801	2023-03-25T22:12:04	7.6	99
7802	2023-03-25T22:22:04	7.6	99.5
7803	2023-03-25T22:32:04	7.5	99.5
7804	2023-03-25T22:42:04	7.3	99.5
7805	2023-03-25T22:52:04	7.1	99.5
7806	2023-03-25T23:02:04	7.1	99.5
7807	2023-03-25T23:12:04	7.1	100
7808	2023-03-25T23:22:04	7.1	100
7809	2023-03-25T23:32:04	7.1	100
7810	2023-03-25T23:42:04	7.2	100
7811	2023-03-25T23:52:04	7.3	100
7812	2023-03-26T00:02:04	7.4	100
7813	2023-03-26T00:12:04	7.4	100
7814	2023-03-26T00:22:04	7.3	100
7815	2023-03-26T00:32:04	7.4	100
7816	2023-03-26T00:42:04	7.1	100
7817	2023-03-26T00:52:04	7.1	100
7818	2023-03-26T01:02:04	7.2	100
7819	2023-03-26T01:12:04	7.1	100
7820	2023-03-26T01:22:04	6.9	100
7821	2023-03-26T01:32:04	7	100
7822	2023-03-26T01:42:04	7	100
7823	2023-03-26T01:52:04	7.1	100
7824	2023-03-26T02:02:04	6.8	100
7825	2023-03-26T02:12:04	6.8	100
7826	2023-03-26T02:22:04	6.8	100
7827	2023-03-26T02:32:04	6.5	100
7828	2023-03-26T02:42:04	6.2	100
7829	2023-03-26T02:52:04	6.2	100
7830	2023-03-26T03:02:04	6.5	100
7831	2023-03-26T03:12:04	6.4	100
7832	2023-03-26T03:22:04	6.4	100
7833	2023-03-26T03:32:04	6.5	100
7834	2023-03-26T03:42:04	6.6	100
7835	2023-03-26T03:52:04	6.6	100
7836	2023-03-26T04:02:04	6.5	100
7837	2023-03-26T04:12:04	6.5	100
7838	2023-03-26T04:22:04	6.5	100
7839	2023-03-26T04:32:04	6.5	100
7840	2023-03-26T04:42:04	6.6	100
7841	2023-03-26T04:52:04	6.6	100
7842	2023-03-26T05:02:04	6.7	100
7843	2023-03-26T05:12:04	6.8	100
7844	2023-03-26T05:22:04	6.7	100
7845	2023-03-26T05:32:04	6.7	100
7846	2023-03-26T05:42:04	6.8	100
7847	2023-03-26T05:52:04	6.8	100
7848	2023-03-26T06:02:04	6.9	100
7849	2023-03-26T06:12:04	7	100
7850	2023-03-26T06:22:04	7.1	100
7851	2023-03-26T06:32:04	7.3	100
7852	2023-03-26T06:42:04	7.4	100
7853	2023-03-26T06:52:04	7.5	100
7854	2023-03-26T07:02:04	7.5	100
7855	2023-03-26T07:12:04	7.5	100
7856	2023-03-26T07:22:04	7.6	100
7857	2023-03-26T07:32:04	7.6	100
7858	2023-03-26T07:42:04	7.6	100
7859	2023-03-26T07:52:04	7.6	100
7860	2023-03-26T08:02:04	7.6	100
7861	2023-03-26T08:12:04	7.7	100
7862	2023-03-26T08:22:04	7.8	100
7863	2023-03-26T08:32:04	8	100
7864	2023-03-26T08:42:04	8	100
7865	2023-03-26T08:52:04	8.6	100
7866	2023-03-26T09:02:04	9.1	100
7867	2023-03-26T09:12:04	9.2	100
7868	2023-03-26T09:22:04	9.8	100
7869	2023-03-26T09:32:04	10	100
7870	2023-03-26T09:42:04	10.5	100
7871	2023-03-26T09:52:04	10.8	100
7872	2023-03-26T10:02:04	10.9	100
7873	2023-03-26T10:12:04	11.1	100
7874	2023-03-26T10:22:04	11.1	98
7875	2023-03-26T10:32:04	11.2	96
7876	2023-03-26T10:42:04	11.5	96.5
7877	2023-03-26T10:52:03	11.7	92
7878	2023-03-26T11:02:04	11.6	81
7879	2023-03-26T11:12:03	11.9	84
7880	2023-03-26T11:22:03	12.3	79.5
7881	2023-03-26T11:32:03	12.5	76
7882	2023-03-26T11:42:03	12.9	73
7883	2023-03-26T11:52:03	13	71.5
7884	2023-03-26T12:02:03	13.1	66.5
7885	2023-03-26T12:12:03	14.5	65.5
7886	2023-03-26T12:22:03	15.7	41
7887	2023-03-26T12:32:03	17.2	37
7888	2023-03-26T12:42:03	18.4	35
7889	2023-03-26T12:52:03	19	37.5
7890	2023-03-26T13:02:03	19.9	35.5
7891	2023-03-26T13:12:03	19.2	35
7892	2023-03-26T13:22:03	16.5	39.5
7893	2023-03-26T13:32:03	15.4	43
7894	2023-03-26T13:42:03	14.5	43.5
7895	2023-03-26T13:52:03	12.3	62.5
7896	2023-03-26T14:02:03	10.2	91.5
7897	2023-03-26T14:12:03	9.1	96
7898	2023-03-26T14:22:03	8.6	97
7899	2023-03-26T14:32:03	8.5	98.5
7900	2023-03-26T14:42:03	8.3	99
7901	2023-03-26T14:52:03	8.2	99.5
7902	2023-03-26T15:02:03	8.1	99.5
7903	2023-03-26T15:12:03	7.8	100
7904	2023-03-26T15:22:03	7.7	100
7905	2023-03-26T15:32:03	7.6	100
7906	2023-03-26T15:42:03	7.5	100
7907	2023-03-26T15:52:03	7.5	100
7908	2023-03-26T16:02:03	7.5	100
7909	2023-03-26T16:12:03	7.4	100
7910	2023-03-26T16:22:03	7.4	100
7911	2023-03-26T16:32:03	7.5	100
7912	2023-03-26T16:42:03	7.5	100
7913	2023-03-26T16:52:03	7.4	100
7914	2023-03-26T17:02:03	7.4	100
7915	2023-03-26T17:12:03	7.3	100
7916	2023-03-26T17:22:03	7.3	100
7917	2023-03-26T17:32:03	7.1	100
7918	2023-03-26T17:42:03	6.9	100
7919	2023-03-26T17:52:03	6.8	100
7920	2023-03-26T18:02:03	6.8	100
7921	2023-03-26T18:12:03	6.8	100
7922	2023-03-26T18:22:03	6.5	100
7923	2023-03-26T18:32:03	6.4	100
7924	2023-03-26T18:42:03	6.2	100
7925	2023-03-26T18:52:03	6.3	100
7926	2023-03-26T19:02:03	6.1	100
7927	2023-03-26T19:12:03	6.2	100
7928	2023-03-26T19:22:03	6.2	100
7929	2023-03-26T19:32:03	6.4	100
7930	2023-03-26T19:42:03	6.1	100
7931	2023-03-26T19:52:03	6.3	100
7932	2023-03-26T20:02:03	6.3	100
7933	2023-03-26T20:12:03	6.5	100
7934	2023-03-26T20:22:03	6.5	100
7935	2023-03-26T20:32:03	6.9	100
7936	2023-03-26T20:42:03	6.8	100
7937	2023-03-26T20:52:03	6.6	100
7938	2023-03-26T21:02:03	6.4	100
7939	2023-03-26T21:12:03	6.5	100
7940	2023-03-26T21:22:03	6.5	100
7941	2023-03-26T21:32:03	6.5	100
7942	2023-03-26T21:42:03	6.6	100
7943	2023-03-26T21:52:03	6.6	100
7944	2023-03-26T22:02:03	6.6	100
7945	2023-03-26T22:12:03	6.5	100
7946	2023-03-26T22:22:03	6.5	100
7947	2023-03-26T22:32:03	6.4	100
7948	2023-03-26T22:42:03	6.5	100
7949	2023-03-26T22:52:03	6.5	100
7950	2023-03-26T23:02:03	6.5	100
7951	2023-03-26T23:12:03	6.5	100
7952	2023-03-26T23:22:03	6.5	100
7953	2023-03-26T23:32:03	6.5	100
7954	2023-03-26T23:42:03	6.4	100
7955	2023-03-26T23:52:03	6.3	100
7956	2023-03-27T00:02:03	6.4	100
7957	2023-03-27T00:12:03	6.2	100
7958	2023-03-27T00:22:03	6.2	100
7959	2023-03-27T00:32:03	6.3	100
7960	2023-03-27T00:42:03	6.2	100
7961	2023-03-27T00:52:03	6.3	100
7962	2023-03-27T01:02:03	6.3	100
7963	2023-03-27T01:12:03	6.3	100
7964	2023-03-27T01:22:03	6.2	100
7965	2023-03-27T01:32:03	6.1	100
7966	2023-03-27T01:42:03	5.9	100
7967	2023-03-27T01:52:03	5.9	100
7968	2023-03-27T02:02:03	5.8	100
7969	2023-03-27T02:12:03	5.4	100
7970	2023-03-27T02:22:03	5.3	100
7971	2023-03-27T02:32:03	5.1	100
7972	2023-03-27T02:42:03	5	100
7973	2023-03-27T02:52:03	5	100
7974	2023-03-27T03:02:03	4.9	100
7975	2023-03-27T03:12:03	4.7	100
7976	2023-03-27T03:22:03	4.7	100
7977	2023-03-27T03:32:03	4.5	100
7978	2023-03-27T03:42:03	4.4	100
7979	2023-03-27T03:52:03	4.1	100
7980	2023-03-27T04:02:03	3.8	100
7981	2023-03-27T04:12:03	3.4	100
7982	2023-03-27T04:22:03	3.3	100
7983	2023-03-27T04:32:03	3	100
7984	2023-03-27T04:42:03	2.9	100
7985	2023-03-27T04:52:03	2.8	100
7986	2023-03-27T05:02:03	2.7	100
7987	2023-03-27T05:12:03	2.7	100
7988	2023-03-27T05:22:03	2.8	100
7989	2023-03-27T05:32:03	2.9	100
7990	2023-03-27T05:42:03	2.8	100
7991	2023-03-27T05:52:03	2.8	100
7992	2023-03-27T06:02:03	2.4	100
7993	2023-03-27T06:12:03	2.4	100
7994	2023-03-27T06:22:03	2.5	100
7995	2023-03-27T06:32:03	2.5	100
7996	2023-03-27T06:42:03	2.6	100
7997	2023-03-27T06:52:03	2.7	100
7998	2023-03-27T07:02:03	2.7	100
7999	2023-03-27T07:12:03	2.7	100
8000	2023-03-27T07:22:03	2.4	100
8001	2023-03-27T07:32:03	2.4	100
8002	2023-03-27T07:42:03	2.5	100
8003	2023-03-27T07:52:03	2.6	100
8004	2023-03-27T08:02:03	2.7	100
8005	2023-03-27T08:12:03	3	100
8006	2023-03-27T08:22:03	3.2	100
8007	2023-03-27T08:32:03	3.2	100
8008	2023-03-27T08:42:03	3.4	100
8009	2023-03-27T08:52:03	3.4	100
8010	2023-03-27T09:02:03	3.8	100
8011	2023-03-27T09:12:03	4.6	100
8012	2023-03-27T09:22:03	4.2	100
8013	2023-03-27T09:32:03	4.3	100
8014	2023-03-27T09:42:03	4.8	100
8015	2023-03-27T09:52:03	4.9	100
8016	2023-03-27T10:02:03	5.2	100
8017	2023-03-27T10:12:03	5.8	100
8018	2023-03-27T10:22:03	5.8	100
8019	2023-03-27T10:32:02	5.6	100
8020	2023-03-27T10:42:02	6.6	100
8021	2023-03-27T10:52:02	5.8	100
8022	2023-03-27T11:12:02	7.4	100
8023	2023-03-27T11:22:02	7.8	100
8024	2023-03-27T11:32:02	7.5	100
8025	2023-03-27T11:42:02	7.1	100
8026	2023-03-27T11:52:02	7.2	100
8027	2023-03-27T12:02:02	8.2	100
8028	2023-03-27T12:12:02	9.3	100
8029	2023-03-27T12:22:02	9.3	100
8030	2023-03-27T12:32:02	8.4	100
8031	2023-03-27T12:42:02	7.7	100
8032	2023-03-27T12:52:02	7	100
8033	2023-03-27T13:02:02	5.9	100
8034	2023-03-27T13:12:02	5.7	100
8035	2023-03-27T13:22:02	5.7	100
8036	2023-03-27T13:32:02	5.8	100
8037	2023-03-27T13:42:02	6.2	100
8038	2023-03-27T13:52:02	9.9	100
8039	2023-03-27T14:02:02	10.5	100
8040	2023-03-27T14:12:02	12.3	99.5
8041	2023-03-27T14:22:02	12.6	99
8042	2023-03-27T14:32:02	9.7	99
8043	2023-03-27T14:42:02	8	99
8044	2023-03-27T14:52:02	6.1	99
8045	2023-03-27T15:02:02	10.7	99
8046	2023-03-27T15:12:02	10.4	98.5
8047	2023-03-27T15:22:02	8.3	98.5
8048	2023-03-27T15:32:02	7.8	98.5
8049	2023-03-27T15:42:02	7.6	98.5
8050	2023-03-27T15:52:02	7.7	98.5
8051	2023-03-27T16:02:02	11.6	98
8052	2023-03-27T16:12:02	12.9	98
8053	2023-03-27T16:22:02	12.6	97.5
8054	2023-03-27T16:32:02	11.7	95.5
8055	2023-03-27T16:42:02	9.8	95.5
8056	2023-03-27T16:52:02	9	95.5
8057	2023-03-27T17:02:02	9.5	95.5
8058	2023-03-27T17:12:02	7.1	95.5
8059	2023-03-27T17:22:02	6.2	96
8060	2023-03-27T17:32:02	6	95.5
8061	2023-03-27T17:42:02	5.1	95.5
8062	2023-03-27T17:52:02	4.5	98.5
8063	2023-03-27T18:02:02	4.2	98.5
8064	2023-03-27T18:12:02	4	100
8065	2023-03-27T18:22:02	3.7	100
8066	2023-03-27T18:32:02	3.5	100
8067	2023-03-27T18:42:02	3.5	100
8068	2023-03-27T18:52:02	3.6	100
8069	2023-03-27T19:02:02	3.7	100
8070	2023-03-27T19:12:02	4	98
8071	2023-03-27T19:22:02	4.1	96.5
8072	2023-03-27T19:32:02	3.9	93.5
8073	2023-03-27T19:42:02	4	93.5
8074	2023-03-27T19:52:02	4.1	94
8075	2023-03-27T20:02:02	3.5	94.5
8076	2023-03-27T20:12:02	3.4	96.5
8077	2023-03-27T20:22:02	3.4	94.5
8078	2023-03-27T20:32:02	3.4	96.5
8079	2023-03-27T20:42:02	2.9	98
8080	2023-03-27T20:52:02	2.8	99
8081	2023-03-27T21:02:02	2.3	99
8082	2023-03-27T21:12:02	2.2	99.5
8083	2023-03-27T21:22:02	2.2	100
8084	2023-03-27T21:32:02	1.7	100
8085	2023-03-27T21:42:02	1.5	100
8086	2023-03-27T21:52:19	1.5	100
8087	2023-03-27T22:02:02	1.8	100
8088	2023-03-27T22:12:02	2	100
8089	2023-03-27T22:22:02	1.9	100
8090	2023-03-27T22:32:02	1.7	100
8091	2023-03-27T22:42:02	2	100
8092	2023-03-27T22:52:02	2	99
8093	2023-03-27T23:02:02	2.2	99
8094	2023-03-27T23:12:02	1.9	99
8095	2023-03-27T23:22:02	1.7	99
8096	2023-03-27T23:32:02	1.8	99.5
8097	2023-03-27T23:42:02	1.8	98
8098	2023-03-27T23:52:02	1.3	100
8099	2023-03-28T00:02:02	1.2	99
8100	2023-03-28T00:12:02	1.1	99.5
8101	2023-03-28T00:22:02	0.8	100
8102	2023-03-28T00:32:02	0.7	100
8103	2023-03-28T00:42:02	0.5	100
8104	2023-03-28T00:52:02	0.3	100
8105	2023-03-28T01:02:02	0.3	100
8106	2023-03-28T01:12:02	0.3	100
8107	2023-03-28T01:22:02	0.2	100
8108	2023-03-28T01:32:02	0	100
8109	2023-03-28T01:42:02	0	100
8110	2023-03-28T01:52:02	-0.2	100
8111	2023-03-28T02:02:02	-0.5	100
8112	2023-03-28T02:12:02	-0.6	100
8113	2023-03-28T02:22:02	-0.8	100
8114	2023-03-28T02:32:02	-0.4	100
8115	2023-03-28T02:42:02	-0.9	100
8116	2023-03-28T02:52:02	-1.1	100
8117	2023-03-28T03:02:02	-1.2	100
8118	2023-03-28T03:12:02	-1.4	100
8119	2023-03-28T03:22:02	-1.5	100
8120	2023-03-28T03:32:02	-1.6	100
8121	2023-03-28T03:42:02	-1.5	100
8122	2023-03-28T03:52:02	-1.6	100
8123	2023-03-28T04:02:02	-1.6	100
8124	2023-03-28T04:12:02	-1.7	100
8125	2023-03-28T04:22:02	-1.8	100
8126	2023-03-28T04:32:02	-1.9	100
8127	2023-03-28T04:42:02	-2.1	100
8128	2023-03-28T04:52:02	-2.3	100
8129	2023-03-28T05:02:02	-2.3	100
8130	2023-03-28T05:12:02	-2.2	100
8131	2023-03-28T05:22:02	-2.1	100
8132	2023-03-28T05:32:02	-2.1	100
8133	2023-03-28T05:42:02	-2	100
8134	2023-03-28T05:52:02	-1.9	100
8135	2023-03-28T06:02:02	-1.8	100
8136	2023-03-28T06:12:02	-1.6	100
8137	2023-03-28T06:22:02	-1.6	100
8138	2023-03-28T06:32:02	-1.5	100
8139	2023-03-28T06:42:02	-1.3	100
8140	2023-03-28T06:52:02	-1	100
8141	2023-03-28T07:12:02	-0.7	100
8142	2023-03-28T07:22:02	-0.4	100
8143	2023-03-28T07:32:02	0	100
8144	2023-03-28T07:42:02	0.2	100
8145	2023-03-28T07:52:02	0.3	100
8146	2023-03-28T08:02:02	0.8	100
8147	2023-03-28T08:12:02	1.1	100
8148	2023-03-28T08:22:02	1.3	100
8149	2023-03-28T08:32:02	1.8	100
8150	2023-03-28T08:42:02	2.1	100
8151	2023-03-28T08:52:02	2.4	100
8152	2023-03-28T09:02:02	2.9	99.5
8153	2023-03-28T09:12:02	3.2	92
8154	2023-03-28T09:22:02	4	83
8155	2023-03-28T09:32:02	4.4	77.5
8156	2023-03-28T09:42:02	4.9	69.5
8157	2023-03-28T09:52:02	5.1	73
8158	2023-03-28T10:02:02	5.9	70
8159	2023-03-28T10:12:02	6.8	55
8160	2023-03-28T10:22:02	7.2	58
8161	2023-03-28T10:32:02	7.4	60
8162	2023-03-28T10:42:02	7.6	51.5
8163	2023-03-28T10:52:02	8	54
8164	2023-03-28T11:02:02	8.2	53
8165	2023-03-28T11:12:02	8.8	55
8166	2023-03-28T11:22:02	9.3	52.5
8167	2023-03-28T11:32:02	9	46.5
8168	2023-03-28T11:42:02	9.7	51
8169	2023-03-28T11:52:02	9.4	50.5
8170	2023-03-28T12:02:02	9.1	46
8171	2023-03-28T12:12:02	10.2	46
8172	2023-03-28T12:22:02	13.7	41
8173	2023-03-28T12:32:02	14.6	33.5
8174	2023-03-28T12:42:02	16.4	32
8175	2023-03-28T12:52:02	17.7	30
8176	2023-03-28T13:02:02	18.2	27.5
8177	2023-03-28T13:12:02	20.5	23
8178	2023-03-28T13:22:02	18.4	27.5
8179	2023-03-28T13:32:02	20.2	23.5
8180	2023-03-28T13:42:02	19.1	27
8181	2023-03-28T13:52:02	20.8	22
8182	2023-03-28T14:02:02	22.6	23.5
8183	2023-03-28T14:12:02	23.5	24.5
8184	2023-03-28T14:22:02	25.7	21
8185	2023-03-28T14:32:02	23	26
8186	2023-03-28T14:42:02	26.3	20.5
8187	2023-03-28T14:52:02	25.9	20.5
8188	2023-03-28T15:02:02	25.4	20.5
8189	2023-03-28T15:12:02	25.7	20
8190	2023-03-28T15:22:02	25.2	20.5
8191	2023-03-28T15:32:02	23.7	22.5
8192	2023-03-28T15:42:02	20.8	27
8193	2023-03-28T15:52:02	22.6	26
8194	2023-03-28T16:02:02	23.5	23.5
8195	2023-03-28T16:12:01	21.1	25.5
8196	2023-03-28T16:22:02	19.6	28.5
8197	2023-03-28T16:32:01	16.2	35
8198	2023-03-28T16:42:01	15.7	34.5
8199	2023-03-28T16:52:01	14.9	38
8200	2023-03-28T17:02:01	14.5	39
8201	2023-03-28T17:12:01	14.1	43
8202	2023-03-28T17:22:01	13.8	43.5
8203	2023-03-28T17:32:01	13.6	44
8204	2023-03-28T17:42:01	13.3	43.5
8205	2023-03-28T17:52:01	12.8	47.5
8206	2023-03-28T18:02:01	12.5	52
8207	2023-03-28T18:12:01	12	53.5
8208	2023-03-28T18:22:01	11.8	56
8209	2023-03-28T18:32:01	11.6	56.5
8210	2023-03-28T18:42:01	11.4	54.5
8211	2023-03-28T18:52:01	11.3	56.5
8212	2023-03-28T19:02:01	11.2	60
8213	2023-03-28T19:12:01	10.9	60.5
8214	2023-03-28T19:22:01	10.6	61.5
8215	2023-03-28T19:32:01	10.3	58
8216	2023-03-28T19:42:01	10	59.5
8217	2023-03-28T19:52:01	9.8	57.5
8218	2023-03-28T20:02:01	9.8	59
8219	2023-03-28T20:12:01	9.6	60.5
8220	2023-03-28T20:22:01	9.5	55
8221	2023-03-28T20:32:01	9.5	57
8222	2023-03-28T20:42:01	9.5	59
8223	2023-03-28T20:52:01	9.4	57.5
8224	2023-03-28T21:02:01	9.3	57
8225	2023-03-28T21:12:01	9.3	59
8226	2023-03-28T21:22:01	9.2	61
8227	2023-03-28T21:32:01	9	62
8228	2023-03-28T21:42:01	9.1	63
8229	2023-03-28T21:52:01	9	59.5
8230	2023-03-28T22:02:01	8.4	71
8231	2023-03-28T22:12:01	7.7	77.5
8232	2023-03-28T22:22:01	7.3	77.5
8233	2023-03-28T22:32:01	7	85
8234	2023-03-28T22:42:01	7.1	90
8235	2023-03-28T22:52:01	7.3	90
8236	2023-03-28T23:02:01	7.2	90
8237	2023-03-28T23:12:01	7.2	89
8238	2023-03-28T23:22:01	7.1	89
8239	2023-03-28T23:32:01	7.1	87.5
8240	2023-03-28T23:42:01	7.2	84.5
8241	2023-03-28T23:52:01	7	82.5
8242	2023-03-29T00:02:01	7	81
8243	2023-03-29T00:12:01	6.9	80.5
8244	2023-03-29T00:22:01	7	81
8245	2023-03-29T00:32:01	7	82
8246	2023-03-29T00:42:01	6.9	83.5
8247	2023-03-29T00:52:01	7.1	83
8248	2023-03-29T01:02:01	7.2	83
8249	2023-03-29T01:12:01	7.1	83.5
8250	2023-03-29T01:22:01	7	84.5
8251	2023-03-29T01:32:01	6.8	84
8252	2023-03-29T01:42:01	6.6	83
8253	2023-03-29T01:52:01	6.4	85.5
8254	2023-03-29T02:02:01	6.5	87
8255	2023-03-29T02:12:01	6.3	87
8256	2023-03-29T02:22:01	6.4	88
8257	2023-03-29T02:32:01	6.2	89
8258	2023-03-29T02:42:01	6.2	89
8259	2023-03-29T02:52:01	6.1	88
8260	2023-03-29T03:02:01	6.1	89.5
8261	2023-03-29T03:12:01	6.1	88.5
8262	2023-03-29T03:22:01	6.1	88
8263	2023-03-29T03:32:01	6	89
8264	2023-03-29T03:42:01	5.9	88.5
8265	2023-03-29T03:52:01	5.8	89
8266	2023-03-29T04:02:01	5.7	89.5
8267	2023-03-29T04:12:01	5.9	88
8268	2023-03-29T04:22:01	6	87.5
8269	2023-03-29T04:32:01	6	88
8270	2023-03-29T04:42:01	6	88
8271	2023-03-29T04:52:01	6.1	89.5
8272	2023-03-29T05:02:01	6.2	89
8273	2023-03-29T05:12:01	6.3	90
8274	2023-03-29T05:22:01	6.2	89.5
8275	2023-03-29T05:32:01	6.4	89.5
8276	2023-03-29T05:42:01	6.4	89
8277	2023-03-29T05:52:01	6.5	90
8278	2023-03-29T06:02:01	6.7	89.5
8279	2023-03-29T06:12:01	6.9	88
8280	2023-03-29T06:22:01	7.1	88
8281	2023-03-29T06:32:01	7.2	87.5
8282	2023-03-29T06:42:01	7.5	86.5
8283	2023-03-29T06:52:01	7.7	86
8284	2023-03-29T07:02:01	7.9	84.5
8285	2023-03-29T07:12:01	8	85
8286	2023-03-29T07:22:01	8.1	86
8287	2023-03-29T07:32:01	8.2	85
8288	2023-03-29T07:42:01	8.4	82.5
8289	2023-03-29T07:52:01	8.6	83.5
8290	2023-03-29T08:02:01	9	82.5
8291	2023-03-29T08:12:01	9.3	80
8292	2023-03-29T08:22:01	9.6	79
8293	2023-03-29T08:32:01	10.1	75.5
8294	2023-03-29T08:42:01	10.5	72
8295	2023-03-29T08:52:01	11.1	67.5
8296	2023-03-29T09:02:01	11.4	68
8297	2023-03-29T09:12:01	12	63.5
8298	2023-03-29T09:22:01	12	61.5
8299	2023-03-29T09:32:01	12.2	57
8300	2023-03-29T09:42:01	12.8	53
8301	2023-03-29T09:52:01	13.3	47.5
8302	2023-03-29T10:02:01	14	46
8303	2023-03-29T10:12:01	14.5	44.5
8304	2023-03-29T10:22:01	14.9	45.5
8305	2023-03-29T10:32:01	15.2	43.5
8306	2023-03-29T10:42:01	15.6	45
8307	2023-03-29T10:52:00	16.1	42
8308	2023-03-29T11:02:01	16.3	41.5
8309	2023-03-29T11:12:00	16.7	40.5
8310	2023-03-29T11:22:00	16.6	39.5
8311	2023-03-29T11:32:00	16.7	40
8312	2023-03-29T11:42:18	16.5	40.5
8313	2023-03-29T11:52:00	16.2	42.5
8314	2023-03-29T12:02:00	16.9	40.5
8315	2023-03-29T12:12:00	17.4	38.5
8316	2023-03-29T12:22:00	16.9	41
8317	2023-03-29T12:32:00	16.6	42
8318	2023-03-29T12:42:00	16.4	46
8319	2023-03-29T12:52:00	16.4	45.5
8320	2023-03-29T13:02:00	15.8	49
8321	2023-03-29T13:12:00	13.2	94
8322	2023-03-29T13:22:00	13.4	97
8323	2023-03-29T13:32:00	13.6	97
8324	2023-03-29T13:42:00	14.4	96.5
8325	2023-03-29T13:52:00	14.6	94.5
8326	2023-03-29T14:02:00	14.8	93
8327	2023-03-29T14:12:00	15.5	93
8328	2023-03-29T14:22:00	15.6	90
8329	2023-03-29T14:32:00	16.2	85
8330	2023-03-29T14:42:00	17.1	82
8331	2023-03-29T14:52:00	20.9	65.5
8332	2023-03-29T15:02:00	20.5	65.5
8333	2023-03-29T15:12:00	19.7	67.5
8334	2023-03-29T15:22:00	20	59
8335	2023-03-29T15:32:00	18.4	68
8336	2023-03-29T15:42:00	18.6	65.5
8337	2023-03-29T15:52:00	18.3	70
8338	2023-03-29T16:02:00	17.5	67.5
8339	2023-03-29T16:12:00	16.9	72.5
8340	2023-03-29T16:22:00	16.6	70
8341	2023-03-29T16:32:00	16.3	73.5
8342	2023-03-29T16:42:00	16.1	74
8343	2023-03-29T16:52:00	16	70
8344	2023-03-29T17:02:00	15.8	75.5
8345	2023-03-29T17:12:00	15.6	74.5
8346	2023-03-29T17:22:00	15.4	76.5
8347	2023-03-29T17:32:00	15.1	79.5
8348	2023-03-29T17:42:00	14.8	79.5
8349	2023-03-29T17:52:00	14.6	76.5
8350	2023-03-29T18:02:00	14.4	77
8351	2023-03-29T18:12:00	14.2	80.5
8352	2023-03-29T18:22:00	14	78.5
8353	2023-03-29T18:32:00	13.9	80
8354	2023-03-29T18:42:00	13.8	81.5
8355	2023-03-29T18:52:00	13.6	79.5
8356	2023-03-29T19:02:00	13.4	76
8357	2023-03-29T19:12:00	13.4	79.5
8358	2023-03-29T19:22:00	13.1	79.5
8359	2023-03-29T19:32:00	13	79.5
8360	2023-03-29T19:42:00	12.8	81
8361	2023-03-29T19:52:00	12.6	79.5
8362	2023-03-29T20:02:00	12.5	81
8363	2023-03-29T20:12:00	12.4	81
8364	2023-03-29T20:22:00	12.3	82.5
8365	2023-03-29T20:32:00	12.1	80
8366	2023-03-29T20:42:00	12.1	80.5
8367	2023-03-29T20:52:00	12.1	76
8368	2023-03-29T21:02:00	12.9	64.5
8369	2023-03-29T21:12:00	14	57
8370	2023-03-29T21:22:00	14.8	53.5
8371	2023-03-29T21:32:00	15.5	50
8372	2023-03-29T21:42:00	16.1	48.5
8373	2023-03-29T21:52:00	16.5	48.5
8374	2023-03-29T22:02:00	16.5	49.5
8375	2023-03-29T22:12:00	16.4	50
8376	2023-03-29T22:22:00	16.8	49
8377	2023-03-29T22:32:00	16.9	49.5
8378	2023-03-29T22:42:00	16.9	49.5
8379	2023-03-29T22:52:00	16.9	50.5
8380	2023-03-29T23:02:00	16.7	57
8381	2023-03-29T23:12:00	16.5	53.5
8382	2023-03-29T23:22:00	16.5	53
8383	2023-03-29T23:32:00	16.6	54
8384	2023-03-29T23:42:00	16.3	58
8385	2023-03-29T23:51:59	15.8	60
8386	2023-03-30T00:01:59	15.5	62.5
8387	2023-03-30T00:11:59	15.1	64
8388	2023-03-30T00:21:59	14.7	68
8389	2023-03-30T00:31:59	14.5	71
8390	2023-03-30T00:41:59	14.6	68
8391	2023-03-30T00:51:59	14.4	68.5
8392	2023-03-30T01:01:59	14.4	67
8393	2023-03-30T01:11:59	14.7	67
8394	2023-03-30T01:21:59	14.4	70
8395	2023-03-30T01:31:59	14	73.5
8396	2023-03-30T01:41:59	14.3	68.5
8397	2023-03-30T01:52:00	14.4	69
8398	2023-03-30T02:01:59	14.2	73.5
8399	2023-03-30T02:11:59	13.2	94
8400	2023-03-30T02:21:59	13.3	96.5
8401	2023-03-30T02:31:59	13.6	97
8402	2023-03-30T02:41:59	13.4	97.5
8403	2023-03-30T02:51:59	13.8	97
8404	2023-03-30T03:01:59	13.8	97
8405	2023-03-30T03:11:59	13.9	97
8406	2023-03-30T03:21:59	13.4	97.5
8407	2023-03-30T03:31:59	13.3	98
8408	2023-03-30T03:41:59	13.4	98.5
8409	2023-03-30T03:51:59	13.4	98.5
8410	2023-03-30T04:01:59	13.2	98.5
8411	2023-03-30T04:11:59	13.2	99
8412	2023-03-30T04:21:59	13	99
8413	2023-03-30T04:31:59	12.8	99
8414	2023-03-30T04:41:59	12.9	99
8415	2023-03-30T04:51:59	12.8	99.5
8416	2023-03-30T05:01:59	12.7	99.5
8417	2023-03-30T05:11:59	12.7	99.5
8418	2023-03-30T05:21:59	12.7	99.5
8419	2023-03-30T05:31:59	12.6	100
8420	2023-03-30T05:41:59	12.5	100
8421	2023-03-30T05:51:59	12.5	100
8422	2023-03-30T06:01:59	12.3	100
8423	2023-03-30T06:11:59	12.4	100
8424	2023-03-30T06:21:59	12.2	100
8425	2023-03-30T06:31:59	12.2	100
8426	2023-03-30T06:41:59	12.2	100
8427	2023-03-30T06:51:59	12	100
8428	2023-03-30T07:01:59	12	100
8429	2023-03-30T07:11:59	11.9	100
8430	2023-03-30T07:21:59	11.9	100
8431	2023-03-30T07:31:59	11.8	100
8432	2023-03-30T07:41:59	11.8	100
8433	2023-03-30T07:51:59	11.7	100
8434	2023-03-30T08:01:59	11.8	100
8435	2023-03-30T08:11:59	11.8	100
8436	2023-03-30T08:21:59	12	100
8437	2023-03-30T08:31:59	12.2	100
8438	2023-03-30T08:41:59	12.6	100
8439	2023-03-30T08:51:59	13.5	100
8440	2023-03-30T09:01:59	13.7	100
8441	2023-03-30T09:11:59	13.3	100
8442	2023-03-30T09:21:59	12.7	100
8443	2023-03-30T09:31:59	12.5	100
8444	2023-03-30T09:41:59	12.5	100
8445	2023-03-30T09:51:59	12.4	100
8446	2023-03-30T10:01:59	12.7	100
8447	2023-03-30T10:11:59	12.8	100
8448	2023-03-30T10:21:59	12.9	100
8449	2023-03-30T10:31:59	13.3	100
8450	2023-03-30T10:41:59	13.7	100
8451	2023-03-30T10:51:59	13.9	100
8452	2023-03-30T11:01:59	14	100
8453	2023-03-30T11:11:59	14.2	100
8454	2023-03-30T11:21:59	14.7	100
8455	2023-03-30T11:31:59	15.3	100
8456	2023-03-30T11:41:59	15.5	99.5
8457	2023-03-30T11:51:59	15.4	99.5
8458	2023-03-30T12:01:59	15.6	99.5
8459	2023-03-30T12:11:59	15.9	97.5
8460	2023-03-30T12:21:59	18.1	93.5
8461	2023-03-30T12:31:59	17	84
8462	2023-03-30T12:41:59	16.1	86.5
8463	2023-03-30T12:51:59	15	93
8464	2023-03-30T13:01:59	13.9	99
8465	2023-03-30T13:11:59	13.4	99.5
8466	2023-03-30T13:21:59	12.6	100
8467	2023-03-30T13:31:59	13.4	100
8468	2023-03-30T13:41:59	12.7	100
8469	2023-03-30T13:51:58	12.5	100
8470	2023-03-30T14:01:58	12.3	100
8471	2023-03-30T14:11:58	16.3	99.5
8472	2023-03-30T14:21:58	18.6	98
8473	2023-03-30T14:31:58	18.5	97.5
8474	2023-03-30T14:41:58	20.1	97
8475	2023-03-30T14:51:58	19.7	97
8476	2023-03-30T15:01:58	18.8	92.5
8477	2023-03-30T15:11:58	20.8	77.5
8478	2023-03-30T15:21:58	20.7	66.5
8479	2023-03-30T15:31:58	20.6	52.5
8480	2023-03-30T15:41:58	19.1	56
8481	2023-03-30T15:51:58	19.6	51
8482	2023-03-30T16:01:58	19.3	47.5
8483	2023-03-30T16:11:58	20.4	47.5
8484	2023-03-30T16:21:58	17.7	53
8485	2023-03-30T16:31:58	16	63
8486	2023-03-30T16:41:58	16.4	59.5
8487	2023-03-30T16:51:58	15.7	62.5
8488	2023-03-30T17:01:58	15.1	64
8489	2023-03-30T17:11:58	14.7	84.5
8490	2023-03-30T17:21:58	12.9	96
8491	2023-03-30T17:31:58	12.7	95
8492	2023-03-30T17:41:58	11.9	97
8493	2023-03-30T17:51:58	11.9	97.5
8494	2023-03-30T18:01:58	11.7	97
8495	2023-03-30T18:11:58	12	95.5
8496	2023-03-30T18:21:58	12	95
8497	2023-03-30T18:31:58	12.1	94.5
8498	2023-03-30T18:41:58	12.3	94.5
8499	2023-03-30T18:51:58	12.1	93.5
8500	2023-03-30T19:01:58	12.1	94
8501	2023-03-30T19:11:58	12.2	94.5
8502	2023-03-30T19:21:58	12.3	93
8503	2023-03-30T19:31:58	12.1	92.5
8504	2023-03-30T19:41:58	12.1	92
8505	2023-03-30T19:51:58	12.2	92
8506	2023-03-30T20:01:58	12	93
8507	2023-03-30T20:11:58	11.7	93
8508	2023-03-30T20:21:58	10.7	97
8509	2023-03-30T20:31:58	10.3	97.5
8510	2023-03-30T20:41:58	10.8	94
8511	2023-03-30T20:51:58	11.4	89.5
8512	2023-03-30T21:01:58	12.1	87
8513	2023-03-30T21:11:58	12.4	87.5
8514	2023-03-30T21:21:58	12.5	84.5
8515	2023-03-30T21:31:58	12.6	82
8516	2023-03-30T21:41:58	12.6	81
8517	2023-03-30T21:51:58	12.5	82.5
8518	2023-03-30T22:01:58	12.4	81.5
8519	2023-03-30T22:11:58	12	86.5
8520	2023-03-30T22:21:58	11.9	89.5
8521	2023-03-30T22:31:58	11.8	89
8522	2023-03-30T22:41:58	11.9	77.5
8523	2023-03-30T22:51:58	12.4	70.5
8524	2023-03-30T23:01:58	12.6	69.5
8525	2023-03-30T23:11:58	12.7	71
8526	2023-03-30T23:21:58	12.5	70
8527	2023-03-30T23:31:58	12.4	70
8528	2023-03-30T23:41:58	12.3	70.5
8529	2023-03-30T23:51:58	12.2	73
8530	2023-03-31T00:01:58	12.1	74
8531	2023-03-31T00:11:58	12	72.5
8532	2023-03-31T00:21:58	12.2	71.5
8533	2023-03-31T00:31:58	12.4	71
8534	2023-03-31T00:41:58	12.6	70
8535	2023-03-31T00:51:58	12.6	72.5
8536	2023-03-31T01:01:58	11.7	84
8537	2023-03-31T01:11:58	11.8	81
8538	2023-03-31T01:21:58	11.3	84
8539	2023-03-31T01:31:58	10.4	95.5
8540	2023-03-31T01:41:58	10.2	97
8541	2023-03-31T01:51:58	10.3	97.5
8542	2023-03-31T02:01:58	10.4	97
8543	2023-03-31T02:11:58	10.2	97
8544	2023-03-31T02:21:58	10	98
8545	2023-03-31T02:31:58	10	98.5
8546	2023-03-31T02:41:58	9.8	99
8547	2023-03-31T02:51:58	9.7	99
8548	2023-03-31T03:01:58	9.5	99
8549	2023-03-31T03:11:58	9.4	99.5
8550	2023-03-31T03:21:58	9.1	99
8551	2023-03-31T03:31:58	8.9	99
8552	2023-03-31T03:41:58	8.7	99.5
8553	2023-03-31T03:51:58	8.9	100
8554	2023-03-31T04:01:58	9.1	100
8555	2023-03-31T04:11:57	9.2	100
8556	2023-03-31T04:21:57	9.2	100
8557	2023-03-31T04:31:57	9.3	100
8558	2023-03-31T04:41:57	9.3	100
8559	2023-03-31T04:51:57	9.3	100
8560	2023-03-31T05:01:57	9.2	100
8561	2023-03-31T05:11:57	9.3	100
8562	2023-03-31T05:21:57	9.2	100
8563	2023-03-31T05:31:57	9.4	100
8564	2023-03-31T05:41:57	9.3	100
8565	2023-03-31T05:51:57	9.5	100
8566	2023-03-31T06:01:57	9.4	100
8567	2023-03-31T06:11:57	9.6	100
8568	2023-03-31T06:21:57	9.9	100
8569	2023-03-31T06:31:57	10	100
8570	2023-03-31T06:41:57	10.1	100
8571	2023-03-31T06:51:57	10.1	100
8572	2023-03-31T07:01:57	10.4	100
8573	2023-03-31T07:11:57	10.6	100
8574	2023-03-31T07:21:57	11.1	100
8575	2023-03-31T07:31:57	11.3	99.5
8576	2023-03-31T07:41:57	10.7	100
8577	2023-03-31T07:51:57	11	100
8578	2023-03-31T08:01:57	11.3	97.5
8579	2023-03-31T08:11:57	12.1	96
8580	2023-03-31T08:21:57	11.3	98
8581	2023-03-31T08:31:57	11.2	98.5
8582	2023-03-31T08:41:57	11.7	97.5
8583	2023-03-31T08:51:57	12.2	96.5
8584	2023-03-31T09:01:57	12.7	93.5
8585	2023-03-31T09:11:57	12.9	90.5
8586	2023-03-31T09:21:58	12.8	86.5
8587	2023-03-31T09:31:57	12.1	92.5
8588	2023-03-31T09:41:57	10.9	95
8589	2023-03-31T09:51:57	11.2	97
8590	2023-03-31T10:01:57	11.4	95.5
8591	2023-03-31T10:11:57	12.1	91
8592	2023-03-31T10:21:57	12.8	84
8593	2023-03-31T10:31:57	13.4	86.5
8594	2023-03-31T10:41:57	12.3	92
8595	2023-03-31T10:51:57	10.4	98.5
8596	2023-03-31T11:01:57	10.1	99
8597	2023-03-31T11:11:57	9.3	99
8598	2023-03-31T11:21:57	9.5	100
8599	2023-03-31T11:31:57	10.3	100
8600	2023-03-31T11:41:57	11.1	100
8601	2023-03-31T11:51:57	11.7	99.5
8602	2023-03-31T12:01:57	12.1	97.5
8603	2023-03-31T12:11:57	12.2	96.5
8604	2023-03-31T12:31:57	11.9	94
8605	2023-03-31T12:41:57	10.7	96.5
8606	2023-03-31T12:51:57	10.9	96.5
8607	2023-03-31T13:01:57	12.9	99.5
8608	2023-03-31T13:12:15	15.2	82
8609	2023-03-31T13:21:57	14.8	71.5
8610	2023-03-31T13:31:57	15.5	72
8611	2023-03-31T13:41:57	14.5	73
8612	2023-03-31T13:51:57	15.3	58
8613	2023-03-31T14:01:57	16.6	52
8614	2023-03-31T14:11:57	15.8	54.5
8615	2023-03-31T14:21:57	16.5	53
8616	2023-03-31T14:31:57	12.2	86.5
8617	2023-03-31T14:41:57	12.7	89.5
8618	2023-03-31T14:51:57	14.4	72
8619	2023-03-31T15:01:57	13.4	71
8620	2023-03-31T15:11:57	11.8	96.5
8621	2023-03-31T15:21:57	12.3	96.5
8622	2023-03-31T15:31:57	12.8	83
8623	2023-03-31T15:41:57	12.7	79.5
8624	2023-03-31T15:51:57	12.6	75.5
8625	2023-03-31T16:01:57	12.3	69
8626	2023-03-31T16:11:57	12.1	66
8627	2023-03-31T16:21:57	12.1	65.5
8628	2023-03-31T16:31:57	11.9	65
8629	2023-03-31T16:41:57	10.9	74
8630	2023-03-31T16:51:57	10.9	74.5
8631	2023-03-31T17:01:57	10.3	89.5
8632	2023-03-31T17:11:57	9.2	96.5
8633	2023-03-31T17:21:57	9.1	98.5
8634	2023-03-31T17:31:57	8.9	99
8635	2023-03-31T17:41:57	8.9	99
8636	2023-03-31T17:51:57	8.7	99.5
8637	2023-03-31T18:01:57	8.9	99.5
8638	2023-03-31T18:11:57	9	99.5
8639	2023-03-31T18:21:57	9.5	99.5
8640	2023-03-31T18:31:57	9.9	97.5
8641	2023-03-31T18:41:57	10.1	96
8642	2023-03-31T18:51:57	10.1	95
8643	2023-03-31T19:01:57	10.4	94
8644	2023-03-31T19:11:57	10.6	92.5
8645	2023-03-31T19:21:57	9.3	98
8646	2023-03-31T19:31:57	9.1	99
8647	2023-03-31T19:41:56	8.8	99.5
8648	2023-03-31T19:51:57	9	100
8649	2023-03-31T20:01:56	9.3	100
8650	2023-03-31T20:11:56	9.3	99
8651	2023-03-31T20:21:56	9.5	99
8652	2023-03-31T20:31:56	9.6	98.5
8653	2023-03-31T20:41:56	9.6	98
8654	2023-03-31T20:51:56	10	98
8655	2023-03-31T21:01:56	9.9	96.5
8656	2023-03-31T21:12:14	9.9	95.5
8657	2023-03-31T21:21:56	9.7	95.5
8658	2023-03-31T21:31:56	9.4	96
8659	2023-03-31T21:41:56	9.4	95
8660	2023-03-31T21:51:56	9.5	94
8661	2023-03-31T22:01:56	9.5	92.5
8662	2023-03-31T22:11:56	9.7	91.5
8663	2023-03-31T22:21:56	9.7	91.5
8664	2023-03-31T22:31:56	9.7	90
8665	2023-03-31T22:41:56	9.7	89
8666	2023-03-31T22:51:56	9.7	87.5
8667	2023-03-31T23:01:56	9.7	87
8668	2023-03-31T23:11:56	9.8	86
8669	2023-03-31T23:21:56	9.8	87
8670	2023-03-31T23:31:56	9.8	88.5
8671	2023-03-31T23:41:56	9.9	87
8672	2023-03-31T23:51:56	9.8	87
8673	2023-04-01T00:01:56	9.5	87.5
8674	2023-04-01T00:11:56	9.9	87
8675	2023-04-01T00:21:56	9.9	85.5
8676	2023-04-01T00:31:56	10.1	82.5
8677	2023-04-01T00:41:56	10.1	84
8678	2023-04-01T00:51:56	10	84.5
8679	2023-04-01T01:01:56	10	86
8680	2023-04-01T01:11:56	9.9	85.5
8681	2023-04-01T01:21:56	9.9	80.5
8682	2023-04-01T01:31:56	9.8	79.5
8683	2023-04-01T01:41:56	9.8	79
8684	2023-04-01T01:51:56	9.8	80.5
8685	2023-04-01T02:01:56	9.2	85
8686	2023-04-01T02:11:56	9.4	78.5
8687	2023-04-01T02:21:56	9.6	77
8688	2023-04-01T02:31:56	9.7	77
8689	2023-04-01T02:41:56	9.9	74.5
8690	2023-04-01T02:51:56	9.9	75
8691	2023-04-01T03:01:56	9.8	78.5
8692	2023-04-01T03:11:56	9.7	75
8693	2023-04-01T03:21:56	9.8	74.5
8694	2023-04-01T03:31:56	9.8	75
8695	2023-04-01T03:41:56	10	74
8696	2023-04-01T03:51:56	9.9	74
8697	2023-04-01T04:01:56	10	74
8698	2023-04-01T04:11:56	10.1	73.5
8699	2023-04-01T04:21:56	10.1	73.5
8700	2023-04-01T04:31:56	10.2	72.5
8701	2023-04-01T04:41:56	10.2	72.5
8702	2023-04-01T04:51:56	10.2	73
8703	2023-04-01T05:01:56	10.2	72.5
8704	2023-04-01T05:11:56	10.2	72
8705	2023-04-01T05:21:56	9.8	76
8706	2023-04-01T05:31:56	9.1	82.5
8707	2023-04-01T05:41:56	8.5	91.5
8708	2023-04-01T05:51:56	8.2	93
8709	2023-04-01T06:01:56	8	97
8710	2023-04-01T06:11:56	7.9	98
8711	2023-04-01T06:21:56	8	98.5
8712	2023-04-01T06:31:56	8.2	98
8713	2023-04-01T06:41:56	8.1	98.5
8714	2023-04-01T06:51:56	8.2	98.5
8715	2023-04-01T07:01:56	8.2	98
8716	2023-04-01T07:11:56	8.4	98
8717	2023-04-01T07:21:56	8.3	98.5
8718	2023-04-01T07:31:56	8.2	99
8719	2023-04-01T07:41:56	8.3	100
8720	2023-04-01T07:51:56	8.1	100
8721	2023-04-01T08:01:56	8.2	100
8722	2023-04-01T08:11:56	8.3	100
8723	2023-04-01T08:21:56	8.8	100
8724	2023-04-01T08:31:56	8.8	100
8725	2023-04-01T08:41:56	8.8	100
8726	2023-04-01T08:51:56	8.7	100
8727	2023-04-01T09:01:56	8.7	100
8728	2023-04-01T09:11:56	8.8	100
8729	2023-04-01T09:21:56	8.8	100
8730	2023-04-01T09:31:56	8.8	100
8731	2023-04-01T09:41:56	8.8	100
8732	2023-04-01T09:51:56	8.8	100
8733	2023-04-01T10:01:56	8.8	100
8734	2023-04-01T10:11:56	8.9	100
8735	2023-04-01T10:21:56	9.1	100
8736	2023-04-01T10:31:56	9.2	100
8737	2023-04-01T10:41:56	9.3	100
8738	2023-04-01T10:51:56	9.2	100
8739	2023-04-01T11:01:56	8.8	100
8740	2023-04-01T11:11:56	9	100
8741	2023-04-01T11:21:56	9.2	100
8742	2023-04-01T11:31:56	9.3	100
8743	2023-04-01T11:41:56	9.4	100
8744	2023-04-01T11:51:56	9.3	100
8745	2023-04-01T12:01:56	9.2	100
8746	2023-04-01T12:11:56	9.3	100
8747	2023-04-01T12:21:56	9.2	100
8748	2023-04-01T12:31:56	9.1	100
8749	2023-04-01T12:41:56	8.9	100
8750	2023-04-01T12:51:56	8.8	100
8751	2023-04-01T13:01:56	8.8	100
8752	2023-04-01T13:11:56	8.9	100
8753	2023-04-01T13:21:56	8.8	100
8754	2023-04-01T13:31:56	8.7	100
8755	2023-04-01T13:41:55	8.8	100
8756	2023-04-01T13:51:55	8.9	100
8757	2023-04-01T14:01:55	9	100
8758	2023-04-01T14:11:55	8.9	100
8759	2023-04-01T14:21:55	9.1	100
8760	2023-04-01T14:31:55	9	100
8761	2023-04-01T14:41:55	9	100
8762	2023-04-01T14:51:55	9.1	100
8763	2023-04-01T15:01:55	9.2	100
8764	2023-04-01T15:11:55	9.1	100
8765	2023-04-01T15:21:55	9	100
8766	2023-04-01T15:31:55	9.3	100
8767	2023-04-01T15:41:55	9.4	100
8768	2023-04-01T15:51:55	9.1	100
8769	2023-04-01T16:01:55	9.2	100
8770	2023-04-01T16:11:55	9.3	100
8771	2023-04-01T16:21:55	9.1	100
8772	2023-04-01T16:41:55	9.1	100
8773	2023-04-01T16:51:55	8.9	100
8774	2023-04-01T17:01:55	8.9	100
8775	2023-04-01T17:11:55	8.9	100
8776	2023-04-01T17:21:55	8.7	100
8777	2023-04-01T17:31:55	8.8	100
8778	2023-04-01T17:41:55	8.7	100
8779	2023-04-01T17:51:55	8.6	100
8780	2023-04-01T18:01:55	8.4	100
8781	2023-04-01T18:11:55	8.2	100
8782	2023-04-01T18:21:55	8	100
8783	2023-04-01T18:31:55	8	100
8784	2023-04-01T18:41:55	8	100
8785	2023-04-01T18:51:55	8.1	100
8786	2023-04-01T19:01:55	7.9	100
8787	2023-04-01T19:11:55	8.1	100
8788	2023-04-01T19:21:55	8.2	100
8789	2023-04-01T19:31:55	8.4	100
8790	2023-04-01T19:41:55	8.5	100
8791	2023-04-01T19:51:55	8.3	100
8792	2023-04-01T20:01:55	8.4	100
8793	2023-04-01T20:11:55	8.5	100
8794	2023-04-01T20:21:55	8.5	100
8795	2023-04-01T20:31:55	8.5	100
8796	2023-04-01T20:41:55	8.5	100
8797	2023-04-01T20:51:55	8.5	100
8798	2023-04-01T21:01:55	8.6	100
8799	2023-04-01T21:11:55	8.6	100
8800	2023-04-01T21:21:55	8.8	100
8801	2023-04-01T21:31:55	8.7	100
8802	2023-04-01T21:41:55	8.7	100
8803	2023-04-01T21:51:55	8.7	100
8804	2023-04-01T22:01:55	8.8	100
8805	2023-04-01T22:11:55	8.7	100
8806	2023-04-01T22:21:55	8.7	100
8807	2023-04-01T22:31:55	8.8	100
8808	2023-04-01T22:41:55	8.7	100
8809	2023-04-01T22:51:55	8.7	100
8810	2023-04-01T23:01:55	8.7	100
8811	2023-04-01T23:11:55	8.7	100
8812	2023-04-01T23:21:55	8.2	100
8813	2023-04-01T23:31:55	8	100
8814	2023-04-01T23:41:55	8	100
8815	2023-04-01T23:51:55	7.7	100
8816	2023-04-02T00:01:55	7.6	100
8817	2023-04-02T00:11:55	7.6	100
8818	2023-04-02T00:21:55	7.4	100
8819	2023-04-02T00:31:55	7.5	100
8820	2023-04-02T00:41:55	7.5	100
8821	2023-04-02T00:51:55	7.6	100
8822	2023-04-02T01:01:55	7.5	100
8823	2023-04-02T01:11:55	7.6	100
8824	2023-04-02T01:21:55	7.6	100
8825	2023-04-02T01:31:55	7.7	100
8826	2023-04-02T01:41:55	7.7	100
8827	2023-04-02T01:51:55	7.8	100
8828	2023-04-02T02:01:55	7.8	100
8829	2023-04-02T02:11:55	7.9	100
8830	2023-04-02T02:21:55	7.7	100
8831	2023-04-02T02:31:55	7.6	100
8832	2023-04-02T02:41:55	7.5	100
8833	2023-04-02T02:51:55	7.5	100
8834	2023-04-02T03:01:55	7.5	100
8835	2023-04-02T03:11:55	7.6	100
8836	2023-04-02T03:21:55	7.5	100
8837	2023-04-02T03:31:55	7.5	100
8838	2023-04-02T03:41:55	7.5	100
8839	2023-04-02T03:51:55	7.6	100
8840	2023-04-02T04:01:55	7.5	100
8841	2023-04-02T04:11:55	7.6	100
8842	2023-04-02T04:21:55	7.6	100
8843	2023-04-02T04:31:55	7.7	100
8844	2023-04-02T04:41:55	7.5	100
8845	2023-04-02T04:51:55	7.7	100
8846	2023-04-02T05:01:55	7.7	100
8847	2023-04-02T05:11:55	7.8	100
8848	2023-04-02T05:21:55	7.7	100
8849	2023-04-02T05:31:55	7.7	100
8850	2023-04-02T05:41:55	7.9	100
8851	2023-04-02T05:51:55	7.6	100
8852	2023-04-02T06:01:55	7.7	100
8853	2023-04-02T06:11:55	7.8	100
8854	2023-04-02T06:21:55	7.8	100
8855	2023-04-02T06:31:55	7.9	100
8856	2023-04-02T06:41:55	7.9	100
8857	2023-04-02T06:51:55	8.1	100
8858	2023-04-02T07:01:55	8.1	100
8859	2023-04-02T07:11:55	8.2	100
8860	2023-04-02T07:21:55	8.1	100
8861	2023-04-02T07:31:55	8.3	100
8862	2023-04-02T07:41:55	8.3	100
8863	2023-04-02T07:51:55	8.6	100
8864	2023-04-02T08:01:55	8.7	100
8865	2023-04-02T08:11:55	8.9	100
8866	2023-04-02T08:21:55	9	100
8867	2023-04-02T08:31:55	9.4	100
8868	2023-04-02T08:41:55	9.7	100
8869	2023-04-02T08:51:55	10.1	100
8870	2023-04-02T09:01:55	10.2	100
8871	2023-04-02T09:11:55	10.5	100
8872	2023-04-02T09:21:55	11.1	99.5
8873	2023-04-02T09:31:54	11.6	99.5
8874	2023-04-02T09:41:54	12	99.5
8875	2023-04-02T09:51:55	12.2	99
8876	2023-04-02T10:01:54	12.2	99
8877	2023-04-02T10:11:54	12.6	99
8878	2023-04-02T10:21:54	13.1	98.5
8879	2023-04-02T10:31:54	13.6	98.5
8880	2023-04-02T10:41:54	13.4	98.5
8881	2023-04-02T10:51:54	12.9	98.5
8882	2023-04-02T11:01:54	12.8	98.5
8883	2023-04-02T11:11:54	12.7	98.5
8884	2023-04-02T11:21:54	12.8	98
8885	2023-04-02T11:31:54	12.7	98.5
8886	2023-04-02T11:41:54	12.6	98
8887	2023-04-02T11:51:54	12.7	98.5
8888	2023-04-02T12:01:54	12.9	98.5
8889	2023-04-02T12:11:54	13.2	98.5
8890	2023-04-02T12:21:54	13.6	98.5
8891	2023-04-02T12:31:54	13.4	98
8892	2023-04-02T12:41:54	13.7	98
8893	2023-04-02T12:51:54	13.8	98.5
8894	2023-04-02T13:01:54	14.7	98
8895	2023-04-02T13:11:54	14.2	98
8896	2023-04-02T13:21:54	12.9	98.5
8897	2023-04-02T13:31:54	12.3	100
8898	2023-04-02T13:41:54	12	100
8899	2023-04-02T13:51:54	11.8	100
8900	2023-04-02T14:01:54	11.4	100
8901	2023-04-02T14:11:54	11	100
8902	2023-04-02T14:21:54	10.5	100
8903	2023-04-02T14:31:54	10.4	100
8904	2023-04-02T14:41:54	10.4	100
8905	2023-04-02T14:51:54	10.3	100
8906	2023-04-02T15:01:54	10.2	100
8907	2023-04-02T15:11:54	10	100
8908	2023-04-02T15:21:54	9.9	100
8909	2023-04-02T15:31:54	9.9	100
8910	2023-04-02T15:41:54	9.6	100
8911	2023-04-02T15:51:54	9.5	100
8912	2023-04-02T16:01:54	9.4	100
8913	2023-04-02T16:11:54	9.3	100
8914	2023-04-02T16:21:54	9.3	100
8915	2023-04-02T16:31:54	9.2	100
8916	2023-04-02T16:41:54	9.1	100
8917	2023-04-02T16:51:54	9	100
8918	2023-04-02T17:01:54	8.8	100
8919	2023-04-02T17:11:54	8.7	100
8920	2023-04-02T17:21:54	8.6	100
8921	2023-04-02T17:31:54	8.5	100
8922	2023-04-02T17:41:54	8.5	100
8923	2023-04-02T17:51:54	8.4	100
8924	2023-04-02T18:01:54	8.3	100
8925	2023-04-02T18:11:54	8.2	100
8926	2023-04-02T18:21:54	8.2	100
8927	2023-04-02T18:31:54	8	100
8928	2023-04-02T18:41:54	7.7	100
8929	2023-04-02T18:51:54	7.6	100
8930	2023-04-02T19:01:54	7.5	100
8931	2023-04-02T19:11:54	7.4	100
8932	2023-04-02T19:21:54	7.2	100
8933	2023-04-02T19:31:54	7	100
8934	2023-04-02T19:41:54	6.9	100
8935	2023-04-02T19:51:54	6.8	100
8936	2023-04-02T20:01:54	6.7	100
8937	2023-04-02T20:11:54	6.4	100
8938	2023-04-02T20:21:54	6.2	100
8939	2023-04-02T20:31:54	6.1	100
8940	2023-04-02T20:41:54	6	100
8941	2023-04-02T20:51:54	5.9	100
8942	2023-04-02T21:01:54	5.8	100
8943	2023-04-02T21:11:54	5.7	100
8944	2023-04-02T21:21:54	5.6	100
8945	2023-04-02T21:31:54	5.5	100
8946	2023-04-02T21:41:54	5.4	100
8947	2023-04-02T21:51:54	5.4	100
8948	2023-04-02T22:01:54	5.4	100
8949	2023-04-02T22:11:54	5.2	99.5
8950	2023-04-02T22:21:54	5.2	99
8951	2023-04-02T22:31:54	5.2	89
8952	2023-04-02T22:41:54	5.1	81
8953	2023-04-02T22:51:54	5.1	79
8954	2023-04-02T23:01:54	4.9	78.5
8955	2023-04-02T23:11:54	4.9	79
8956	2023-04-02T23:21:54	4.9	79.5
8957	2023-04-02T23:31:54	4.9	79
8958	2023-04-02T23:41:54	4.8	78.5
8959	2023-04-02T23:51:54	4.9	80
8960	2023-04-03T00:01:54	4.7	79.5
8961	2023-04-03T00:11:54	4.8	80
8962	2023-04-03T00:21:54	4.7	80
8963	2023-04-03T00:31:54	4.6	81
8964	2023-04-03T00:41:54	4.7	77.5
8965	2023-04-03T00:51:54	4.5	80
8966	2023-04-03T01:01:54	4.5	80.5
8967	2023-04-03T01:11:54	4.5	79.5
8968	2023-04-03T01:21:54	4.3	80.5
8969	2023-04-03T01:31:54	4.2	81.5
8970	2023-04-03T01:41:54	4.1	81
8971	2023-04-03T01:51:54	4	81.5
8972	2023-04-03T02:01:54	3.8	82.5
8973	2023-04-03T02:11:54	3.5	83
8974	2023-04-03T02:21:54	3.4	83.5
8975	2023-04-03T02:31:54	3.3	83
8976	2023-04-03T02:41:54	2.7	83.5
8977	2023-04-03T02:51:54	2.6	84.5
8978	2023-04-03T03:01:54	2.3	85.5
8979	2023-04-03T03:11:54	2.1	87.5
8980	2023-04-03T03:21:54	1.9	89
8981	2023-04-03T03:31:54	1.6	91
8982	2023-04-03T03:41:54	1.4	91.5
8983	2023-04-03T03:51:54	1.3	92.5
8984	2023-04-03T04:02:13	1	94
8985	2023-04-03T04:11:54	1.2	94.5
8986	2023-04-03T04:21:54	1.3	93.5
8987	2023-04-03T04:31:54	1.5	92.5
8988	2023-04-03T04:41:54	1.8	90.5
8989	2023-04-03T04:51:54	1.8	92
8990	2023-04-03T05:01:54	1.6	93
8991	2023-04-03T05:11:54	1.6	93.5
8992	2023-04-03T05:21:54	1.7	92.5
8993	2023-04-03T05:31:54	2	90.5
8994	2023-04-03T05:41:54	2.5	86.5
8995	2023-04-03T05:51:54	2.3	85
8996	2023-04-03T06:01:54	2.1	87.5
8997	2023-04-03T06:11:54	2.4	85.5
8998	2023-04-03T06:21:54	2.7	84.5
8999	2023-04-03T06:31:54	2.7	84
9000	2023-04-03T06:41:54	2.9	82.5
9001	2023-04-03T06:51:54	2.9	83
9002	2023-04-03T07:01:54	2.8	83.5
9003	2023-04-03T07:11:54	2.8	84
9004	2023-04-03T07:21:54	2.9	84
9005	2023-04-03T07:31:54	3.1	84
9006	2023-04-03T07:41:54	4	81.5
9007	2023-04-03T07:51:54	4	82.5
9008	2023-04-03T08:01:54	4.1	81
9009	2023-04-03T08:11:54	3.9	80.5
9010	2023-04-03T08:21:54	4	81
9011	2023-04-03T08:31:54	4.3	79
9012	2023-04-03T08:41:54	4.6	77.5
9013	2023-04-03T08:51:53	5	75
9014	2023-04-03T09:01:53	5.6	74.5
9015	2023-04-03T09:11:53	6.2	72
9016	2023-04-03T09:21:53	5.8	71.5
9017	2023-04-03T09:31:53	6	71
9018	2023-04-03T09:41:53	6.7	67
9019	2023-04-03T09:51:53	7.4	65
9020	2023-04-03T10:01:53	7.7	65
9021	2023-04-03T10:11:53	8	62
9022	2023-04-03T10:21:53	7.9	62
9023	2023-04-03T10:31:53	8.1	59
9024	2023-04-03T10:41:53	8.3	58
9025	2023-04-03T10:51:53	8.7	55.5
9026	2023-04-03T11:01:53	8.7	51.5
9027	2023-04-03T11:11:53	8.7	53
9028	2023-04-03T11:21:53	8.9	52.5
9029	2023-04-03T11:31:53	9	50.5
9030	2023-04-03T11:41:53	9.6	49.5
9031	2023-04-03T11:51:53	9.3	51
9032	2023-04-03T12:01:53	9.6	50.5
9033	2023-04-03T12:11:53	9.2	49.5
9034	2023-04-03T12:21:53	9.5	50.5
9035	2023-04-03T12:31:53	9.3	49
9036	2023-04-03T12:41:53	9.3	51
9037	2023-04-03T12:51:53	9.4	50
9038	2023-04-03T13:01:53	9	52.5
9039	2023-04-03T13:11:53	9	50.5
9040	2023-04-03T13:21:53	9	52.5
9041	2023-04-03T13:31:53	9.1	49.5
9042	2023-04-03T13:41:53	9.5	47.5
9043	2023-04-03T13:51:53	9.4	49
9044	2023-04-03T14:01:53	9.2	50.5
9045	2023-04-03T14:11:53	9.4	47.5
9046	2023-04-03T14:21:53	9.8	45.5
9047	2023-04-03T14:31:53	9.6	46.5
9048	2023-04-03T14:41:53	9.6	46
9049	2023-04-03T14:51:53	10.3	50.5
9050	2023-04-03T15:01:53	12.2	40.5
9051	2023-04-03T15:11:53	11.1	44.5
9052	2023-04-03T15:21:53	10.8	42
9053	2023-04-03T15:31:53	15.2	37
9054	2023-04-03T15:41:53	12.6	36.5
9055	2023-04-03T15:51:53	10.8	40
9056	2023-04-03T16:01:53	17.9	28
9057	2023-04-03T16:11:53	15.2	31
9058	2023-04-03T16:21:53	11.2	38
9059	2023-04-03T16:31:53	16.2	30.5
9060	2023-04-03T16:41:53	17.1	28.5
9061	2023-04-03T16:51:53	14.1	33.5
9062	2023-04-03T17:01:53	14.4	33
9063	2023-04-03T17:11:53	13.2	34
9064	2023-04-03T17:21:53	12.9	34
9065	2023-04-03T17:31:53	10	39.5
9066	2023-04-03T17:41:53	8.7	45
9067	2023-04-03T17:51:53	7.9	47
9068	2023-04-03T18:01:53	7.4	48.5
9069	2023-04-03T18:11:53	7	48.5
9070	2023-04-03T18:21:53	6.4	50.5
9071	2023-04-03T18:31:53	6	53.5
9072	2023-04-03T18:41:53	5.6	53.5
9073	2023-04-03T18:51:53	5.5	55
9074	2023-04-03T19:01:53	5.1	55.5
9075	2023-04-03T19:11:53	4.9	56
9076	2023-04-03T19:21:53	4.7	56
9077	2023-04-03T19:31:53	4.4	56
9078	2023-04-03T19:41:53	4.1	56.5
9079	2023-04-03T19:51:53	4	57.5
9080	2023-04-03T20:01:53	3.7	58
9081	2023-04-03T20:11:53	3.5	59
9082	2023-04-03T20:21:53	3.5	57.5
9083	2023-04-03T20:31:53	3.4	59
9084	2023-04-03T20:41:53	3.2	60
9085	2023-04-03T20:51:53	3	61.5
9086	2023-04-03T21:01:53	2.7	63
9087	2023-04-03T21:11:53	2.5	63.5
9088	2023-04-03T21:21:53	2.4	63.5
9089	2023-04-03T21:31:53	2.3	63
9090	2023-04-03T21:41:53	2.1	66.5
9091	2023-04-03T21:51:53	1.9	65.5
9092	2023-04-03T22:01:53	1.9	66.5
9093	2023-04-03T22:11:53	1.8	66.5
9094	2023-04-03T22:21:53	1.6	67
9095	2023-04-03T22:31:53	1.5	66.5
9096	2023-04-03T22:41:53	1.3	68
9097	2023-04-03T22:51:53	1.2	66
9098	2023-04-03T23:01:53	1.2	67
9099	2023-04-03T23:11:53	1.2	68.5
9100	2023-04-03T23:21:53	0.9	69
9101	2023-04-03T23:31:53	0.8	69.5
9102	2023-04-03T23:41:53	0.6	70.5
9103	2023-04-03T23:51:53	0.6	71
9104	2023-04-04T00:01:53	0.5	71
9105	2023-04-04T00:11:53	0.4	70.5
9106	2023-04-04T00:21:53	0.3	71.5
9107	2023-04-04T00:31:53	0.1	73.5
9108	2023-04-04T00:41:53	0	73.5
9109	2023-04-04T00:51:53	0	72.5
9110	2023-04-04T01:01:53	-0.1	73.5
9111	2023-04-04T01:11:53	-0.2	73.5
9112	2023-04-04T01:21:53	-0.4	75
9113	2023-04-04T01:31:53	-0.4	75.5
9114	2023-04-04T01:41:53	-0.6	76
9115	2023-04-04T01:51:53	-0.7	76
9116	2023-04-04T02:01:53	-0.9	77
9117	2023-04-04T02:11:53	-1	78
9118	2023-04-04T02:21:53	-1	78
9119	2023-04-04T02:31:53	-1.2	78
9120	2023-04-04T02:41:53	-1.3	80
9121	2023-04-04T02:51:53	-1.5	81
9122	2023-04-04T03:01:53	-1.4	80.5
9123	2023-04-04T03:11:53	-1.5	80
9124	2023-04-04T03:21:53	-1.4	79
9125	2023-04-04T03:31:53	-1.5	79
9126	2023-04-04T03:41:53	-1.5	78.5
9127	2023-04-04T03:51:53	-1.6	79
9128	2023-04-04T04:01:53	-1.6	80
9129	2023-04-04T04:11:53	-1.8	81
9130	2023-04-04T04:21:53	-2	82
9131	2023-04-04T04:31:53	-2.1	82
9132	2023-04-04T04:41:53	-2.1	82.5
9133	2023-04-04T04:51:53	-2.2	82
9134	2023-04-04T05:01:53	-2.1	82.5
9135	2023-04-04T05:11:53	-2.2	83
9136	2023-04-04T05:21:53	-2.3	83
9137	2023-04-04T05:31:53	-2.3	84.5
9138	2023-04-04T05:41:53	-2.1	83.5
9139	2023-04-04T05:51:53	-2.1	83
9140	2023-04-04T06:01:53	-2	83
9141	2023-04-04T06:11:53	-1.6	81
9142	2023-04-04T06:21:53	-1.4	80.5
9143	2023-04-04T06:31:53	-1.2	79
9144	2023-04-04T06:41:53	-0.9	77
9145	2023-04-04T06:51:53	-0.6	76.5
9146	2023-04-04T07:01:53	-0.5	75.5
9147	2023-04-04T07:11:53	-0.2	75
9148	2023-04-04T07:21:53	0	73
9149	2023-04-04T07:31:53	0.3	71.5
9150	2023-04-04T07:41:53	0.6	69
9151	2023-04-04T07:51:53	0.9	66.5
9152	2023-04-04T08:01:53	1.3	65.5
9153	2023-04-04T08:11:53	1.4	64
9154	2023-04-04T08:21:53	1.7	62.5
9155	2023-04-04T08:31:53	1.9	62.5
9156	2023-04-04T08:41:53	2.1	62.5
9157	2023-04-04T08:51:53	2.5	60.5
9158	2023-04-04T09:01:53	2.7	60
9159	2023-04-04T09:11:53	3	59
9160	2023-04-04T09:21:53	3.1	58.5
9161	2023-04-04T09:31:53	3.4	56
9162	2023-04-04T09:41:53	3.6	57
9163	2023-04-04T09:51:53	3.7	57.5
9164	2023-04-04T10:01:53	4	55.5
9165	2023-04-04T10:11:53	4.1	55
9166	2023-04-04T10:21:53	4.4	53.5
9167	2023-04-04T10:31:53	4.7	52.5
9168	2023-04-04T10:41:53	4.9	52.5
9169	2023-04-04T10:51:53	5	53
9170	2023-04-04T11:01:53	5.3	51.5
9171	2023-04-04T11:11:53	5.6	51
9172	2023-04-04T11:21:53	5.8	53
9173	2023-04-04T11:31:53	6.1	51.5
9174	2023-04-04T11:41:53	6.3	50
9175	2023-04-04T11:51:53	6.6	47.5
9176	2023-04-04T12:01:53	7	47.5
9177	2023-04-04T12:11:53	10.1	39.5
9178	2023-04-04T12:21:53	13.1	33
9179	2023-04-04T12:31:53	14.2	31.5
9180	2023-04-04T12:41:53	15.2	30
9181	2023-04-04T12:51:53	16.4	26
9182	2023-04-04T13:01:53	17.4	25
9183	2023-04-04T13:11:53	18.4	26
9184	2023-04-04T13:21:53	18.8	23
9185	2023-04-04T13:31:53	19.5	23.5
9186	2023-04-04T13:41:53	20.2	21.5
9187	2023-04-04T13:51:53	21.7	20
9188	2023-04-04T14:01:53	21.3	21
9189	2023-04-04T14:11:53	22.1	20
9190	2023-04-04T14:21:53	22.3	19.5
9191	2023-04-04T14:31:53	23.7	18
9192	2023-04-04T14:41:53	22.6	18.5
9193	2023-04-04T14:51:52	23.5	18
9194	2023-04-04T15:01:53	22.8	18.5
9195	2023-04-04T15:11:52	22.9	19
9196	2023-04-04T15:21:52	23.6	19
9197	2023-04-04T15:31:52	22.7	17.5
9198	2023-04-04T15:41:52	23.4	17.5
9199	2023-04-04T15:51:52	23.1	18.5
9200	2023-04-04T16:01:52	22.3	19
9201	2023-04-04T16:11:52	21.9	19
9202	2023-04-04T16:21:52	21.7	20
9203	2023-04-04T16:32:09	21.5	19.5
9204	2023-04-04T16:41:52	20.9	19.5
9205	2023-04-04T16:51:52	18.5	23
9206	2023-04-04T17:01:52	18.2	24.5
9207	2023-04-04T17:11:52	17.1	24.5
9208	2023-04-04T17:21:52	17.3	26
9209	2023-04-04T17:31:52	13.7	30
9210	2023-04-04T17:41:52	12	35
9211	2023-04-04T17:51:52	11	36.5
9212	2023-04-04T18:01:52	10.2	38.5
9213	2023-04-04T18:11:52	9.7	40
9214	2023-04-04T18:21:52	9.3	42
9215	2023-04-04T18:31:52	8.9	42.5
9216	2023-04-04T18:41:52	8.7	43
9217	2023-04-04T18:51:52	8.4	45.5
9218	2023-04-04T19:01:52	8	44
9219	2023-04-04T19:11:52	7.7	44.5
9220	2023-04-04T19:21:52	7.4	45
9221	2023-04-04T19:31:52	7.1	45.5
9222	2023-04-04T19:41:52	6.8	45.5
9223	2023-04-04T19:51:52	6.7	48
9224	2023-04-04T20:01:52	6.3	46.5
9225	2023-04-04T20:11:52	6.1	47.5
9226	2023-04-04T20:31:52	5.4	48
9227	2023-04-04T20:51:52	5.1	51.5
9228	2023-04-04T21:01:52	4.8	53
9229	2023-04-04T21:11:52	4.8	54
9230	2023-04-04T21:21:52	4.5	53.5
9231	2023-04-04T21:31:52	4.4	52
9232	2023-04-04T21:41:52	4.1	53
9233	2023-04-04T21:51:52	4	53.5
9234	2023-04-04T22:01:52	3.7	57.5
9235	2023-04-04T22:11:52	3.5	60
9236	2023-04-04T22:21:52	3.2	62
9237	2023-04-04T22:31:52	2.9	65.5
9238	2023-04-04T22:41:52	2.7	64.5
9239	2023-04-04T22:51:52	2.6	64.5
9240	2023-04-04T23:01:52	2.6	65
9241	2023-04-04T23:11:52	2.5	66
9242	2023-04-04T23:21:52	2.3	68
9243	2023-04-04T23:31:52	2.4	61.5
9244	2023-04-04T23:41:52	2.5	59.5
9245	2023-04-04T23:51:52	2.5	59.5
9246	2023-04-05T00:01:52	2.3	61
9247	2023-04-05T00:11:52	2.2	63
9248	2023-04-05T00:21:52	1.8	68
9249	2023-04-05T00:31:52	1.8	68.5
9250	2023-04-05T00:41:52	1.7	70
9251	2023-04-05T00:51:52	1.8	66.5
9252	2023-04-05T01:01:52	1.5	68.5
9253	2023-04-05T01:11:52	1.4	69.5
9254	2023-04-05T01:21:52	1.2	69
9255	2023-04-05T01:31:52	1.2	69
9256	2023-04-05T01:41:52	0.8	72
9257	2023-04-05T01:51:52	0.6	72.5
9258	2023-04-05T02:01:52	0.4	75
9259	2023-04-05T02:11:52	0.2	75
9260	2023-04-05T02:21:52	0	76.5
9261	2023-04-05T02:31:52	-0.2	78
9262	2023-04-05T02:41:52	-0.2	79
9263	2023-04-05T02:51:52	-0.3	78.5
9264	2023-04-05T03:01:52	-0.4	81
9265	2023-04-05T03:11:52	-0.6	80.5
9266	2023-04-05T03:21:52	-0.7	81.5
9267	2023-04-05T03:31:52	-0.6	81.5
9268	2023-04-05T03:41:52	-0.8	81.5
9269	2023-04-05T03:51:52	-1	81.5
9270	2023-04-05T04:01:52	-1	82
9271	2023-04-05T04:11:52	-1.3	83
9272	2023-04-05T04:21:52	-1.3	83.5
9273	2023-04-05T04:31:52	-1.4	84.5
9274	2023-04-05T04:41:52	-1.5	85
9275	2023-04-05T04:51:52	-1.7	86
9276	2023-04-05T05:01:52	-1.7	86
9277	2023-04-05T05:11:52	-1.9	87
9278	2023-04-05T05:21:52	-1.8	87
9279	2023-04-05T05:31:52	-1.6	86.5
9280	2023-04-05T05:41:52	-1.6	86.5
9281	2023-04-05T05:51:52	-1.5	86.5
9282	2023-04-05T06:01:52	-1.5	87
9283	2023-04-05T06:11:52	-1.4	87.5
9284	2023-04-05T06:21:52	-1.4	87
9285	2023-04-05T06:31:52	-1.1	87
9286	2023-04-05T06:41:52	-1	85
9287	2023-04-05T06:51:52	-0.8	85
9288	2023-04-05T07:01:52	-0.5	85.5
9289	2023-04-05T07:11:52	-0.2	83.5
9290	2023-04-05T07:21:52	0	80.5
9291	2023-04-05T07:31:52	0.3	80.5
9292	2023-04-05T07:41:52	0.7	79
9293	2023-04-05T07:51:52	0.9	77.5
9294	2023-04-05T08:01:52	1.3	75
9295	2023-04-05T08:11:52	1.6	73
9296	2023-04-05T08:21:52	2	72
9297	2023-04-05T08:31:52	2.1	73.5
9298	2023-04-05T08:41:52	2.3	71
9299	2023-04-05T08:51:52	2.8	69
9300	2023-04-05T09:01:52	2.9	69
9301	2023-04-05T09:11:52	3.5	66
9302	2023-04-05T09:21:52	3.7	62.5
9303	2023-04-05T09:31:52	4	59.5
9304	2023-04-05T09:41:52	4.2	59.5
9305	2023-04-05T09:51:52	4.9	57
9306	2023-04-05T10:01:52	5.2	53.5
9307	2023-04-05T10:11:52	5.3	51
9308	2023-04-05T10:21:52	5.7	54
9309	2023-04-05T10:31:52	5.8	51
9310	2023-04-05T10:41:52	5.9	51.5
9311	2023-04-05T10:51:52	6.3	50.5
9312	2023-04-05T11:01:52	6.6	48.5
9313	2023-04-05T11:11:52	7	48
9314	2023-04-05T11:21:52	7.2	49.5
9315	2023-04-05T11:31:52	7.4	46.5
9316	2023-04-05T11:41:52	7.6	47.5
9317	2023-04-05T11:51:52	8	45.5
9318	2023-04-05T12:01:52	8.5	44
9319	2023-04-05T12:11:52	11.6	36.5
9320	2023-04-05T12:21:52	14.6	31.5
9321	2023-04-05T12:31:52	16.7	27.5
9322	2023-04-05T12:41:52	17.9	26
9323	2023-04-05T12:51:52	19.9	23
9324	2023-04-05T13:01:52	20.7	22
9325	2023-04-05T13:11:52	21.8	20
9326	2023-04-05T13:21:52	23	17.5
9327	2023-04-05T13:31:52	23.8	17.5
9328	2023-04-05T13:41:52	24.6	17
9329	2023-04-05T13:51:52	25.4	16.5
9330	2023-04-05T14:01:52	25.2	13.5
9331	2023-04-05T14:11:52	26.1	15.5
9332	2023-04-05T14:21:52	26.7	14
9333	2023-04-05T14:31:52	24.9	15
9334	2023-04-05T14:41:52	24.9	12.5
9335	2023-04-05T14:51:52	26.2	13.5
9336	2023-04-05T15:01:52	27.1	13
9337	2023-04-05T15:11:52	26.9	13.5
9338	2023-04-05T15:21:52	26.3	13.5
9339	2023-04-05T15:31:52	26.7	13
9340	2023-04-05T15:41:52	27	12.5
9341	2023-04-05T15:51:52	26.7	14
9342	2023-04-05T16:01:51	25	12.5
9343	2023-04-05T16:11:51	25.3	12.5
9344	2023-04-05T16:21:51	25.7	15
9345	2023-04-05T16:31:51	26.1	14
9346	2023-04-05T16:41:51	25.2	14
9347	2023-04-05T16:51:51	22.7	16.5
9348	2023-04-05T17:01:51	21.7	16.5
9349	2023-04-05T17:11:51	21.4	17.5
9350	2023-04-05T17:21:51	19.6	18
9351	2023-04-05T17:31:51	16.8	22.5
9352	2023-04-05T17:41:51	14.9	26.5
9353	2023-04-05T17:51:51	14	28.5
9354	2023-04-05T18:01:51	13.2	28.5
9355	2023-04-05T18:11:51	12.5	30.5
9356	2023-04-05T18:21:51	11.9	34.5
9357	2023-04-05T18:31:51	11.1	41.5
9358	2023-04-05T18:41:51	10.5	42
9359	2023-04-05T18:51:51	10.1	46
9360	2023-04-05T19:01:51	9.8	46.5
9361	2023-04-05T19:11:51	9.3	51.5
9362	2023-04-05T19:21:51	8.8	51
9363	2023-04-05T19:31:51	8.4	46.5
9364	2023-04-05T19:41:51	8	51.5
9365	2023-04-05T19:51:51	7.8	53
9366	2023-04-05T20:01:51	7.4	52.5
9367	2023-04-05T20:11:51	7.1	54
9368	2023-04-05T20:21:51	6.8	55
9369	2023-04-05T20:31:51	6.4	54.5
9370	2023-04-05T20:41:51	6.2	56.5
9371	2023-04-05T20:51:51	5.9	57.5
9372	2023-04-05T21:01:51	5.6	59
9373	2023-04-05T21:11:51	5.5	60
9374	2023-04-05T21:21:51	5.2	60
9375	2023-04-05T21:31:51	4.9	61
9376	2023-04-05T21:41:51	4.6	63
9377	2023-04-05T21:51:51	4.3	64.5
9378	2023-04-05T22:01:51	4.2	65.5
9379	2023-04-05T22:11:51	3.9	66.5
9380	2023-04-05T22:21:51	3.6	67
9381	2023-04-05T22:31:51	3.4	67
9382	2023-04-05T22:41:51	3.1	68
9383	2023-04-05T22:51:51	3.1	70
9384	2023-04-05T23:01:51	2.8	71.5
9385	2023-04-05T23:11:51	2.5	73.5
9386	2023-04-05T23:21:51	2.4	75.5
9387	2023-04-05T23:31:51	2.2	74
9388	2023-04-05T23:41:51	1.9	73.5
9389	2023-04-05T23:51:51	1.8	75.5
9390	2023-04-06T00:01:51	1.6	77
9391	2023-04-06T00:11:51	1.5	76
9392	2023-04-06T00:21:51	1.4	75
9393	2023-04-06T00:31:51	1	76
9394	2023-04-06T00:41:51	0.8	80
9395	2023-04-06T00:51:51	0.8	80.5
9396	2023-04-06T01:01:51	0.7	80.5
9397	2023-04-06T01:11:51	0.4	81.5
9398	2023-04-06T01:21:51	0.3	81.5
9399	2023-04-06T01:31:51	0.1	83.5
9400	2023-04-06T01:41:51	0	82.5
9401	2023-04-06T01:51:51	0	83
9402	2023-04-06T02:01:51	-0.1	84
9403	2023-04-06T02:21:51	-0.2	82.5
9404	2023-04-06T02:31:51	-0.4	83.5
9405	2023-04-06T02:41:51	-0.6	85
9406	2023-04-06T02:51:51	-0.7	85.5
9407	2023-04-06T03:01:51	-0.7	87.5
9408	2023-04-06T03:11:51	-0.8	87.5
9409	2023-04-06T03:21:51	-0.9	87.5
9410	2023-04-06T03:31:51	-0.9	88
9411	2023-04-06T03:41:51	-1	87.5
9412	2023-04-06T03:51:51	-1.2	87.5
9413	2023-04-06T04:01:51	-1.4	88
9414	2023-04-06T04:11:51	-1.4	90
9415	2023-04-06T04:21:51	-1.4	90
9416	2023-04-06T04:31:51	-1.7	90
9417	2023-04-06T04:41:51	-1.7	90
9418	2023-04-06T04:51:51	-1.7	90
9419	2023-04-06T05:01:51	-1.8	90.5
9420	2023-04-06T05:11:51	-1.9	91.5
9421	2023-04-06T05:21:51	-1.7	91.5
9422	2023-04-06T05:31:51	-1.7	92.5
9423	2023-04-06T05:41:51	-1.5	92
9424	2023-04-06T05:51:51	-1.5	92
9425	2023-04-06T06:01:51	-1.3	92
9426	2023-04-06T06:11:51	-1.1	91
9427	2023-04-06T06:21:51	-0.9	91
9428	2023-04-06T06:31:51	-0.7	91
9429	2023-04-06T06:41:51	-0.5	89
9430	2023-04-06T06:51:51	-0.3	86.5
9431	2023-04-06T07:01:51	0.1	85
9432	2023-04-06T07:11:51	0.4	84
9433	2023-04-06T07:21:51	1	83
9434	2023-04-06T07:31:51	1.4	81
9435	2023-04-06T07:41:51	1.9	76.5
9436	2023-04-06T07:51:51	2.4	72.5
9437	2023-04-06T08:01:51	2.7	72
9438	2023-04-06T08:11:51	3.1	70.5
9439	2023-04-06T08:21:51	3.3	72
9440	2023-04-06T08:31:51	3.6	72
9441	2023-04-06T08:41:51	4	72.5
9442	2023-04-06T08:51:51	4.4	72
9443	2023-04-06T09:01:51	4.9	67
9444	2023-04-06T09:11:51	5.4	63.5
9445	2023-04-06T09:21:51	5.9	63
9446	2023-04-06T09:31:51	6.2	61.5
9447	2023-04-06T09:41:51	7.2	53
9448	2023-04-06T09:51:51	7.5	52.5
9449	2023-04-06T10:01:51	7.9	50
9450	2023-04-06T10:11:51	8.4	49
9451	2023-04-06T10:21:51	8.9	45.5
9452	2023-04-06T10:31:51	9.2	42.5
9453	2023-04-06T10:41:51	9.8	41.5
9454	2023-04-06T10:51:51	10.2	39.5
9455	2023-04-06T11:01:51	10.6	40
9456	2023-04-06T11:11:51	11.3	39
9457	2023-04-06T11:21:51	11.9	34.5
9458	2023-04-06T11:31:51	12.5	34.5
9459	2023-04-06T11:41:51	13.1	33
9460	2023-04-06T11:51:51	13.3	31.5
9461	2023-04-06T12:01:51	14	35
9462	2023-04-06T12:11:51	15.5	29
9463	2023-04-06T12:21:51	17.3	29.5
9464	2023-04-06T12:31:51	19.1	27.5
9465	2023-04-06T12:41:51	19.2	24
9466	2023-04-06T12:51:51	19.5	24.5
9467	2023-04-06T13:01:51	19.5	21.5
9468	2023-04-06T13:11:51	18.2	22
9469	2023-04-06T13:21:51	17.9	20.5
9470	2023-04-06T13:31:51	19.2	18.5
9471	2023-04-06T13:41:51	19.2	19
9472	2023-04-06T13:51:51	19.4	19
9473	2023-04-06T14:01:51	19.1	19
9474	2023-04-06T14:11:51	17.5	21
9475	2023-04-06T14:21:51	17.2	22.5
9476	2023-04-06T14:31:51	17.1	23
9477	2023-04-06T14:41:51	16.2	23.5
9478	2023-04-06T14:51:51	16	24
9479	2023-04-06T15:01:51	15.6	25.5
9480	2023-04-06T15:11:51	15.6	26
9481	2023-04-06T15:21:51	15.2	27.5
9482	2023-04-06T15:31:51	14.9	28.5
9483	2023-04-06T15:41:51	14.8	30.5
9484	2023-04-06T15:51:51	14.4	30.5
9485	2023-04-06T16:01:51	14.1	30.5
9486	2023-04-06T16:11:51	14.1	31.5
9487	2023-04-06T16:21:51	13.9	31
9488	2023-04-06T16:31:51	13.8	32
9489	2023-04-06T16:41:51	13.5	34
9490	2023-04-06T16:51:51	13.1	33
9491	2023-04-06T17:01:50	13	35
9492	2023-04-06T17:11:50	12.7	36.5
9493	2023-04-06T17:21:50	12.5	38
9494	2023-04-06T17:31:50	12	40
9495	2023-04-06T17:41:50	11.9	42
9496	2023-04-06T17:51:50	11.7	43.5
9497	2023-04-06T18:01:50	11.4	46
9498	2023-04-06T18:11:50	11.3	47.5
9499	2023-04-06T18:21:50	11.1	48.5
9500	2023-04-06T18:31:50	11	48.5
9501	2023-04-06T18:41:50	11	51.5
9502	2023-04-06T18:51:50	10.8	54.5
9503	2023-04-06T19:01:50	9.8	68
9504	2023-04-06T19:11:50	9.7	67.5
9505	2023-04-06T19:21:50	9.6	70.5
9506	2023-04-06T19:31:50	9.6	73
9507	2023-04-06T19:41:50	9.6	73
9508	2023-04-06T19:51:50	9.4	78
9509	2023-04-06T20:01:50	8.9	86
9510	2023-04-06T20:11:50	9.1	80.5
9511	2023-04-06T20:21:50	9.1	84.5
9512	2023-04-06T20:31:50	9	85
9513	2023-04-06T20:41:50	9	84.5
9514	2023-04-06T20:51:50	8.9	83
9515	2023-04-06T21:01:50	8.9	81.5
9516	2023-04-06T21:11:50	8.9	80
9517	2023-04-06T21:21:50	8.9	79
9518	2023-04-06T21:31:50	8.8	74.5
9519	2023-04-06T21:41:50	8.9	78
9520	2023-04-06T21:51:50	8.8	77.5
9521	2023-04-06T22:01:50	8.8	78.5
9522	2023-04-06T22:11:50	8.4	81.5
9523	2023-04-06T22:21:50	8.2	81.5
9524	2023-04-06T22:31:50	8	83
9525	2023-04-06T22:41:50	8.2	83
9526	2023-04-06T22:51:50	8.4	83.5
9527	2023-04-06T23:01:50	8.1	83
9528	2023-04-06T23:11:50	8	83.5
9529	2023-04-06T23:21:50	7.9	83
9530	2023-04-06T23:31:50	7.9	85.5
9531	2023-04-06T23:41:50	7.9	80.5
9532	2023-04-06T23:51:50	8.2	77.5
9533	2023-04-07T00:01:50	7.9	81.5
9534	2023-04-07T00:11:50	7.9	79
9535	2023-04-07T00:21:50	8	77
9536	2023-04-07T00:31:50	8.1	77
9537	2023-04-07T00:41:50	8.1	76
9538	2023-04-07T00:51:50	8.3	75
9539	2023-04-07T01:01:50	8.2	75.5
9540	2023-04-07T01:11:50	8	77
9541	2023-04-07T01:21:50	7.5	81
9542	2023-04-07T01:31:50	7.4	83
9543	2023-04-07T01:41:50	7.2	84.5
9544	2023-04-07T01:51:50	7.2	85
9545	2023-04-07T02:01:50	7.1	85.5
9546	2023-04-07T02:11:50	7.1	85.5
9547	2023-04-07T02:21:50	7.3	85
9548	2023-04-07T02:31:50	7.3	86
9549	2023-04-07T02:41:50	7.3	86
9550	2023-04-07T02:51:50	7.3	86.5
9551	2023-04-07T03:01:50	7.1	87.5
9552	2023-04-07T03:11:50	7.1	88
9553	2023-04-07T03:21:50	6.9	88.5
9554	2023-04-07T03:31:50	7	87.5
9555	2023-04-07T03:41:50	6.8	87.5
9556	2023-04-07T03:51:50	6.5	89
9557	2023-04-07T04:01:50	6.7	88
9558	2023-04-07T04:11:50	6.6	88.5
9559	2023-04-07T04:21:50	6.1	90
9560	2023-04-07T04:31:50	6.2	90.5
9561	2023-04-07T04:41:50	6.4	90
9562	2023-04-07T04:51:50	6.6	89
9563	2023-04-07T05:01:50	6.7	87
9564	2023-04-07T05:11:50	6.5	87.5
9565	2023-04-07T05:21:50	6.7	87.5
9566	2023-04-07T05:31:50	6.8	87.5
9567	2023-04-07T05:41:50	6.9	88
9568	2023-04-07T05:51:50	7	87
9569	2023-04-07T06:01:50	7.2	87.5
9570	2023-04-07T06:11:50	7.4	87.5
9571	2023-04-07T06:21:50	7.6	85.5
9572	2023-04-07T06:31:50	7.9	87.5
9573	2023-04-07T06:42:10	7.7	85.5
9574	2023-04-07T06:51:50	8.2	85.5
9575	2023-04-07T07:01:50	8.3	85
9576	2023-04-07T07:11:50	8.4	82
9577	2023-04-07T07:21:50	8.8	80
9578	2023-04-07T07:31:50	9.4	78
9579	2023-04-07T07:41:50	9.6	76.5
9580	2023-04-07T07:51:50	9.9	75
9581	2023-04-07T08:01:50	9.8	75
9582	2023-04-07T08:11:50	10.1	73.5
9583	2023-04-07T08:21:50	10.3	73.5
9584	2023-04-07T08:31:50	10.7	71.5
9585	2023-04-07T08:41:50	11.1	70.5
9586	2023-04-07T08:51:50	11.2	71
9587	2023-04-07T09:01:50	11.2	70.5
9588	2023-04-07T09:11:50	11.1	70
9589	2023-04-07T09:21:50	11.2	70.5
9590	2023-04-07T09:31:50	11	72
9591	2023-04-07T09:41:50	11.2	71
9592	2023-04-07T09:51:50	11.8	68.5
9593	2023-04-07T10:01:50	11.8	67
9594	2023-04-07T10:11:50	11.9	66.5
9595	2023-04-07T10:21:50	12.5	66
9596	2023-04-07T10:31:50	12.8	62
9597	2023-04-07T10:41:50	12.8	60.5
9598	2023-04-07T10:51:50	13.2	60.5
9599	2023-04-07T11:01:50	14.1	57.5
9600	2023-04-07T11:11:50	14.6	54
9601	2023-04-07T11:21:50	14.6	53.5
9602	2023-04-07T11:31:49	15	52.5
9603	2023-04-07T11:41:49	14.4	52.5
9604	2023-04-07T11:51:49	14.3	53.5
9605	2023-04-07T12:01:49	14.6	52
9606	2023-04-07T12:11:49	16.3	48
9607	2023-04-07T12:21:49	20.1	38
9608	2023-04-07T12:31:49	19.5	39.5
9609	2023-04-07T12:41:49	20.2	38
9610	2023-04-07T12:51:49	19.8	38.5
9611	2023-04-07T13:01:49	19	40
9612	2023-04-07T13:11:49	21.1	35
9613	2023-04-07T13:21:49	19.3	40.5
9614	2023-04-07T13:31:49	25.1	32
9615	2023-04-07T13:41:49	22.1	38.5
9616	2023-04-07T13:51:49	20.2	40.5
9617	2023-04-07T14:01:49	18.7	45.5
9618	2023-04-07T14:11:49	19	46.5
9619	2023-04-07T14:21:49	17.6	51.5
9620	2023-04-07T14:31:49	16.9	52.5
9621	2023-04-07T14:41:49	15.5	55
9622	2023-04-07T14:51:49	15.7	53.5
9623	2023-04-07T15:01:49	15.5	53.5
9624	2023-04-07T15:11:49	15.1	55.5
9625	2023-04-07T15:21:49	14.3	56
9626	2023-04-07T15:31:49	14.4	57.5
9627	2023-04-07T15:41:49	14.1	60
9628	2023-04-07T15:51:49	13.2	65.5
9629	2023-04-07T16:01:49	13.2	67
9630	2023-04-07T16:11:49	13.2	67.5
9631	2023-04-07T16:21:49	13.4	66
9632	2023-04-07T16:31:49	13.4	65.5
9633	2023-04-07T16:41:49	13.3	66.5
9634	2023-04-07T16:51:49	13.3	64.5
9635	2023-04-07T17:01:49	13.4	66
9636	2023-04-07T17:11:49	13.4	65.5
9637	2023-04-07T17:21:49	13.2	67.5
9638	2023-04-07T17:31:49	12.9	67.5
9639	2023-04-07T17:41:49	12.4	68.5
9640	2023-04-07T17:51:49	11.8	69.5
9641	2023-04-07T18:01:49	11.7	70.5
9642	2023-04-07T18:11:49	11.7	71.5
9643	2023-04-07T18:21:49	11.6	72.5
9644	2023-04-07T18:31:49	11.5	73.5
9645	2023-04-07T18:41:49	11.4	74
9646	2023-04-07T18:51:49	11.3	74.5
9647	2023-04-07T19:01:49	11.1	75
9648	2023-04-07T19:11:49	11	76
9649	2023-04-07T19:21:49	10.9	76.5
9650	2023-04-07T19:31:49	10.7	76.5
9651	2023-04-07T19:41:49	10.5	78
9652	2023-04-07T19:51:49	10.5	79.5
9653	2023-04-07T20:01:49	10.4	80.5
9654	2023-04-07T20:11:49	10.4	81
9655	2023-04-07T20:21:49	10.4	80.5
9656	2023-04-07T20:31:49	10.3	81
9657	2023-04-07T20:41:49	10.2	80.5
9658	2023-04-07T20:51:49	10.1	82
9659	2023-04-07T21:01:49	10	82
9660	2023-04-07T21:11:49	9.9	83
9661	2023-04-07T21:21:49	10	83
9662	2023-04-07T21:31:49	9.8	84
9663	2023-04-07T21:41:49	9.7	84.5
9664	2023-04-07T21:51:49	9.7	85
9665	2023-04-07T22:01:49	9.5	86
9666	2023-04-07T22:11:49	9.3	86.5
9667	2023-04-07T22:21:49	9.4	87
9668	2023-04-07T22:31:49	9.4	87.5
9669	2023-04-07T22:41:49	9.3	88
9670	2023-04-07T22:51:49	9.2	88
9671	2023-04-07T23:01:49	9	88
9672	2023-04-07T23:11:49	9	88
9673	2023-04-07T23:21:49	9	88.5
9674	2023-04-07T23:31:49	9	88
9675	2023-04-07T23:41:49	9	88
9676	2023-04-07T23:51:49	8.9	88.5
9677	2023-04-08T00:01:49	8.9	88.5
9678	2023-04-08T00:11:49	8.8	89
9679	2023-04-08T00:21:49	8.8	89
9680	2023-04-08T00:41:49	9	89
9681	2023-04-08T00:51:49	8.9	89
9682	2023-04-08T01:01:49	9	89
9683	2023-04-08T01:11:49	9	88.5
9684	2023-04-08T01:21:49	8.9	89.5
9685	2023-04-08T01:31:49	8.8	89.5
9686	2023-04-08T01:41:49	8.7	90
9687	2023-04-08T01:51:49	8.7	90.5
9688	2023-04-08T02:01:49	8.5	90.5
9689	2023-04-08T02:11:49	8.6	90.5
9690	2023-04-08T02:21:49	8.6	90.5
9691	2023-04-08T02:31:48	8.6	89.5
9692	2023-04-08T02:41:48	8.6	90.5
9693	2023-04-08T02:51:48	8.3	91
9694	2023-04-08T03:01:48	8.4	91
9695	2023-04-08T03:11:48	8.5	91
9696	2023-04-08T03:21:48	8.5	91
9697	2023-04-08T03:31:48	8.6	91
9698	2023-04-08T03:41:48	8.6	91
9699	2023-04-08T03:51:48	8.6	91
9700	2023-04-08T04:01:48	8.6	91
9701	2023-04-08T04:11:48	8.5	91
9702	2023-04-08T04:21:48	8.5	90.5
9703	2023-04-08T04:31:48	8.4	92
9704	2023-04-08T04:41:48	8.3	92
9705	2023-04-08T04:51:48	8.4	91.5
9706	2023-04-08T05:01:48	8.2	91
9707	2023-04-08T05:11:48	8.3	91.5
9708	2023-04-08T05:21:48	8.4	91
9709	2023-04-08T05:31:48	8.5	90.5
9710	2023-04-08T05:41:48	8.5	90
9711	2023-04-08T05:51:48	8.5	90
9712	2023-04-08T06:01:48	8.6	90
9713	2023-04-08T06:11:48	8.8	89.5
9714	2023-04-08T06:21:48	8.9	88.5
9715	2023-04-08T06:31:48	8.9	88
9716	2023-04-08T06:41:48	9.2	87
9717	2023-04-08T06:51:48	9.4	86.5
9718	2023-04-08T07:01:48	9.5	86
9719	2023-04-08T07:11:48	9.8	85
9720	2023-04-08T07:21:48	9.8	84
9721	2023-04-08T07:31:48	9.7	85.5
9722	2023-04-08T07:41:48	9.7	85
9723	2023-04-08T07:51:48	10.2	83
9724	2023-04-08T08:01:48	10.7	80
9725	2023-04-08T08:11:48	10.7	79
9726	2023-04-08T08:21:48	10.8	77
9727	2023-04-08T08:31:48	11	74.5
9728	2023-04-08T08:41:48	11.6	73
9729	2023-04-08T08:51:48	12.1	69.5
9730	2023-04-08T09:01:48	11.9	70
9731	2023-04-08T09:11:48	11.6	69
9732	2023-04-08T09:21:48	12	67
9733	2023-04-08T09:31:48	12	65.5
9734	2023-04-08T09:41:48	12	67.5
9735	2023-04-08T09:51:48	12.3	64.5
9736	2023-04-08T10:01:48	13.1	62
9737	2023-04-08T10:11:48	14	56.5
9738	2023-04-08T10:21:48	14.3	56
9739	2023-04-08T10:31:48	14.9	53
9740	2023-04-08T10:41:48	15	52.5
9741	2023-04-08T10:51:48	15.2	51.5
9742	2023-04-08T11:01:48	15.8	48.5
9743	2023-04-08T11:11:48	15.7	44
9744	2023-04-08T11:21:48	15.3	47.5
9745	2023-04-08T11:31:48	15	48.5
9746	2023-04-08T11:41:48	14.6	51
9747	2023-04-08T11:51:48	14.4	50
9748	2023-04-08T12:01:48	14.2	46.5
9749	2023-04-08T12:11:48	14.6	43
9750	2023-04-08T12:21:48	15.1	41.5
9751	2023-04-08T12:31:48	15.8	41.5
9752	2023-04-08T12:41:48	15.8	43.5
9753	2023-04-08T12:51:48	15.6	44
9754	2023-04-08T13:01:48	16.2	43.5
9755	2023-04-08T13:11:48	16.5	39.5
9756	2023-04-08T13:21:48	16.6	40
9757	2023-04-08T13:31:48	16	38.5
9758	2023-04-08T13:41:48	16.9	37.5
9759	2023-04-08T13:51:48	17	37.5
9760	2023-04-08T14:02:05	16.8	37.5
9761	2023-04-08T14:11:48	16.3	39
9762	2023-04-08T14:21:48	16.5	39
9763	2023-04-08T14:31:48	16.8	39.5
9764	2023-04-08T14:41:48	16.9	40
9765	2023-04-08T14:51:48	17	40
9766	2023-04-08T15:01:48	17.4	40.5
9767	2023-04-08T15:11:48	17.4	41
9768	2023-04-08T15:21:48	17	42.5
9769	2023-04-08T15:31:48	16.5	45.5
9770	2023-04-08T15:41:48	15.9	46.5
9771	2023-04-08T15:51:48	15.2	49
9772	2023-04-08T16:01:48	14.9	50
9773	2023-04-08T16:11:48	14.5	50
9774	2023-04-08T16:21:48	14.2	52
9775	2023-04-08T16:31:48	14	51.5
9776	2023-04-08T16:41:48	13.8	52.5
9777	2023-04-08T16:51:48	13.8	53.5
9778	2023-04-08T17:01:48	13.6	54
9779	2023-04-08T17:11:48	13.5	54
9780	2023-04-08T17:21:47	13.2	55
9781	2023-04-08T17:31:47	12.9	57
9782	2023-04-08T17:41:47	12.7	57
9783	2023-04-08T17:51:47	12.7	58.5
9784	2023-04-08T18:01:47	12.5	61
9785	2023-04-08T18:11:47	12.4	61
9786	2023-04-08T18:21:47	12.1	61.5
9787	2023-04-08T18:31:47	11.9	60.5
9788	2023-04-08T18:41:47	11.8	61.5
9789	2023-04-08T18:51:47	11.7	61.5
9790	2023-04-08T19:01:47	11.6	63
9791	2023-04-08T19:11:47	11.8	63.5
9792	2023-04-08T19:21:47	11.6	63
9793	2023-04-08T19:31:47	11.4	63.5
9794	2023-04-08T19:41:47	11.3	63
9795	2023-04-08T19:51:47	11.1	64.5
9796	2023-04-08T20:01:47	10.9	65
9797	2023-04-08T20:11:47	11	64.5
9798	2023-04-08T20:21:47	10.7	66
9799	2023-04-08T20:31:47	10.6	67.5
9800	2023-04-08T20:41:47	10.6	67.5
9801	2023-04-08T20:51:47	10.6	67.5
9802	2023-04-08T21:01:47	10.6	66.5
9803	2023-04-08T21:11:47	10.5	67
9804	2023-04-08T21:21:47	10.4	66.5
9805	2023-04-08T21:31:47	10.4	68.5
9806	2023-04-08T21:41:47	10.3	68.5
9807	2023-04-08T21:51:47	10.2	68.5
9808	2023-04-08T22:01:47	10.2	69
9809	2023-04-08T22:11:47	10.2	69
9810	2023-04-08T22:21:47	10	69
9811	2023-04-08T22:31:47	10	70
9812	2023-04-08T22:41:47	9.9	70.5
9813	2023-04-08T22:51:47	9.7	70
9814	2023-04-08T23:01:47	9.8	70.5
9815	2023-04-08T23:11:47	9.8	71
9816	2023-04-08T23:21:47	9.7	71.5
9817	2023-04-08T23:31:47	9.4	72.5
9818	2023-04-08T23:41:47	9.4	73
9819	2023-04-08T23:51:47	9.5	72.5
9820	2023-04-09T00:01:47	9.4	72
9821	2023-04-09T00:11:47	9.3	72.5
9822	2023-04-09T00:21:47	9.2	72.5
9823	2023-04-09T00:31:47	9.1	74
9824	2023-04-09T00:41:47	9	75
9825	2023-04-09T00:51:47	9	74.5
9826	2023-04-09T01:01:47	8.8	75
9827	2023-04-09T01:11:47	9	74.5
9828	2023-04-09T01:21:47	8.8	75
9829	2023-04-09T01:31:47	8.9	75.5
9830	2023-04-09T01:41:47	8.8	74.5
9831	2023-04-09T01:51:47	8.7	75
9832	2023-04-09T02:01:47	8.7	75
9833	2023-04-09T02:11:47	8.6	75.5
9834	2023-04-09T02:21:47	8.6	76.5
9835	2023-04-09T02:31:47	8.5	76
9836	2023-04-09T02:41:47	8.4	77
9837	2023-04-09T02:51:47	8.2	77
9838	2023-04-09T03:01:47	8.2	77.5
9839	2023-04-09T03:11:47	8	78
9840	2023-04-09T03:21:47	7.9	78.5
9841	2023-04-09T03:31:47	7.8	78.5
9842	2023-04-09T03:41:47	7.5	78
9843	2023-04-09T03:51:47	7.3	79
9844	2023-04-09T04:01:47	7.2	79.5
9845	2023-04-09T04:11:47	6.9	80.5
9846	2023-04-09T04:21:47	6.6	82
9847	2023-04-09T04:31:47	6.3	82
9848	2023-04-09T04:41:47	5.9	83
9849	2023-04-09T04:51:47	5.9	83
9850	2023-04-09T05:01:47	5.8	83.5
9851	2023-04-09T05:11:47	5.5	84
9852	2023-04-09T05:21:47	5.6	83.5
9853	2023-04-09T05:31:47	5.5	84
9854	2023-04-09T05:41:47	5.3	84
9855	2023-04-09T05:51:47	5.1	85
9856	2023-04-09T06:01:47	5	85
9857	2023-04-09T06:11:47	5	85
9858	2023-04-09T06:21:47	5.2	86
9859	2023-04-09T06:31:47	5.9	84
9860	2023-04-09T06:41:47	6.4	81
9861	2023-04-09T06:51:47	6.3	82
9862	2023-04-09T07:01:47	6.4	82
9863	2023-04-09T07:11:47	6.7	81.5
9864	2023-04-09T07:21:47	6.9	81
9865	2023-04-09T07:31:47	7.2	81
9866	2023-04-09T07:41:47	7.6	79
9867	2023-04-09T07:51:47	7.9	78
9868	2023-04-09T08:01:47	8.2	77
9869	2023-04-09T08:11:47	8.4	77.5
9870	2023-04-09T08:21:47	8.5	77.5
9871	2023-04-09T08:31:47	8.7	76
9872	2023-04-09T08:41:47	9	73.5
9873	2023-04-09T08:51:47	9.5	70.5
9874	2023-04-09T09:01:47	9.8	65
9875	2023-04-09T09:11:47	10.4	59
9876	2023-04-09T09:21:47	11.1	56.5
9877	2023-04-09T09:31:47	12.2	48
9878	2023-04-09T09:41:47	12.5	50
9879	2023-04-09T09:51:47	12.7	50
9880	2023-04-09T10:01:47	12.8	51.5
9881	2023-04-09T10:11:47	13	50.5
9882	2023-04-09T10:21:47	13.4	49.5
9883	2023-04-09T10:31:47	13.9	47
9884	2023-04-09T10:41:47	14.1	46
9885	2023-04-09T10:51:47	14.4	44
9886	2023-04-09T11:01:47	15	43
9887	2023-04-09T11:11:46	15.3	40.5
9888	2023-04-09T11:21:47	15.6	43
9889	2023-04-09T11:31:46	16.2	41
9890	2023-04-09T11:41:46	16.1	39.5
9891	2023-04-09T11:51:46	16.2	37.5
9892	2023-04-09T12:01:46	17.1	37
9893	2023-04-09T12:11:46	18	33.5
9894	2023-04-09T12:21:46	17.9	34.5
9895	2023-04-09T12:31:46	17.8	34
9896	2023-04-09T12:41:46	17.7	33.5
9897	2023-04-09T12:51:46	18	33.5
9898	2023-04-09T13:01:46	20.8	29
9899	2023-04-09T13:11:46	25.5	22.5
9900	2023-04-09T13:21:46	25.3	22
9901	2023-04-09T13:31:46	27.4	20
9902	2023-04-09T13:41:46	26.1	22.5
9903	2023-04-09T13:51:46	26.3	21.5
9904	2023-04-09T14:01:46	27.4	20
9905	2023-04-09T14:11:46	26.8	20.5
9906	2023-04-09T14:21:46	26.9	21
9907	2023-04-09T14:31:46	27.1	20
9908	2023-04-09T14:41:46	29.3	18.5
9909	2023-04-09T14:51:46	30.1	17
9910	2023-04-09T15:01:46	29.8	16.5
9911	2023-04-09T15:11:46	30.9	16
9912	2023-04-09T15:21:46	31.2	16
9913	2023-04-09T15:31:46	30.8	16.5
9914	2023-04-09T15:41:46	31	15.5
9915	2023-04-09T15:51:46	31.3	16
9916	2023-04-09T16:01:46	30.5	17
9917	2023-04-09T16:11:46	29.5	18
9918	2023-04-09T16:21:46	30.7	17.5
9919	2023-04-09T16:31:46	30.1	16.5
9920	2023-04-09T16:41:46	29.3	17
9921	2023-04-09T16:51:46	28.5	18
9922	2023-04-09T17:01:46	26.2	20
9923	2023-04-09T17:11:46	24.9	22.5
9924	2023-04-09T17:21:46	24.6	22.5
9925	2023-04-09T17:31:46	22	24.5
9926	2023-04-09T17:41:46	19.7	27
9927	2023-04-09T17:51:46	18.8	32
9928	2023-04-09T18:01:46	17.8	33
9929	2023-04-09T18:11:46	17.1	33.5
9930	2023-04-09T18:21:46	16.5	34.5
9931	2023-04-09T18:31:46	15.9	36
9932	2023-04-09T18:41:46	15.5	40.5
9933	2023-04-09T18:51:46	14.9	43.5
9934	2023-04-09T19:01:46	14.2	46.5
9935	2023-04-09T19:11:46	13.7	48.5
9936	2023-04-09T19:21:46	13.1	50
9937	2023-04-09T19:31:46	12.7	51
9938	2023-04-09T19:41:46	12.3	53.5
9939	2023-04-09T19:51:46	12	54.5
9940	2023-04-09T20:01:46	11.6	56
9941	2023-04-09T20:11:46	11.4	56
9942	2023-04-09T20:21:46	11.1	57.5
9943	2023-04-09T20:31:46	10.8	57.5
9944	2023-04-09T20:41:46	10.4	58
9945	2023-04-09T20:51:46	10.3	60
9946	2023-04-09T21:01:46	9.7	60
9947	2023-04-09T21:11:46	9.5	59.5
9948	2023-04-09T21:21:46	9.2	60.5
9949	2023-04-09T21:31:46	9.1	61
9950	2023-04-09T21:41:46	8.9	60.5
9951	2023-04-09T21:51:46	8.6	63
9952	2023-04-09T22:01:46	8.3	64
9953	2023-04-09T22:11:46	8	65.5
9954	2023-04-09T22:21:46	7.8	66
9955	2023-04-09T22:31:46	7.5	67
9956	2023-04-09T22:41:46	7.5	68
9957	2023-04-09T22:51:46	7.2	68
9958	2023-04-09T23:01:46	6.9	68.5
9959	2023-04-09T23:11:46	6.8	70
9960	2023-04-09T23:21:46	6.4	72
9961	2023-04-09T23:31:46	6.5	71.5
9962	2023-04-09T23:41:46	6.5	70.5
9963	2023-04-09T23:51:46	6.4	71
9964	2023-04-10T00:01:46	6.2	72
9965	2023-04-10T00:21:46	5.9	73.5
9966	2023-04-10T00:31:45	5.7	73
9967	2023-04-10T00:41:45	5.6	74
9968	2023-04-10T00:51:45	5.4	74
9969	2023-04-10T01:01:46	5.2	74.5
9970	2023-04-10T01:11:45	5.2	75
9971	2023-04-10T01:21:45	4.8	77
9972	2023-04-10T01:31:45	4.6	78.5
9973	2023-04-10T01:41:45	4.5	78
9974	2023-04-10T01:51:45	4.4	79
9975	2023-04-10T02:01:45	4.3	79.5
9976	2023-04-10T02:11:45	4.3	79.5
9977	2023-04-10T02:21:45	4.1	80.5
9978	2023-04-10T02:31:45	4	81
9979	2023-04-10T02:41:45	4	81
9980	2023-04-10T02:51:45	3.9	81
9981	2023-04-10T03:01:45	3.8	82
9982	2023-04-10T03:11:45	3.8	82
9983	2023-04-10T03:21:45	3.9	81
9984	2023-04-10T03:31:45	4	80
9985	2023-04-10T03:41:45	4.1	78.5
9986	2023-04-10T03:51:46	4.2	79
9987	2023-04-10T04:01:45	4	79
9988	2023-04-10T04:11:45	3.8	80
9989	2023-04-10T04:21:45	3.7	79.5
9990	2023-04-10T04:31:45	3.5	80.5
9991	2023-04-10T04:41:45	3.5	80.5
9992	2023-04-10T04:51:45	3.4	80.5
9993	2023-04-10T05:01:45	3.3	81
9994	2023-04-10T05:11:45	3.4	81
9995	2023-04-10T05:21:45	3.4	81
9996	2023-04-10T05:31:45	3.6	80
9997	2023-04-10T05:41:45	3.6	79.5
9998	2023-04-10T05:51:45	3.8	80.5
9999	2023-04-10T06:01:45	4	80.5
10000	2023-04-10T06:11:45	4	80
10001	2023-04-10T06:21:45	4.5	79
10002	2023-04-10T06:31:45	4.9	77
10003	2023-04-10T06:41:45	5	78.5
10004	2023-04-10T06:51:45	5.6	73
10005	2023-04-10T07:01:45	6	70.5
10006	2023-04-10T07:11:45	6.2	70
10007	2023-04-10T07:21:45	6.7	68.5
10008	2023-04-10T07:31:45	7.2	66.5
10009	2023-04-10T07:41:45	7.1	67.5
10010	2023-04-10T07:51:45	7.6	65
10011	2023-04-10T08:01:45	7.9	61.5
10012	2023-04-10T08:11:45	8.5	58
10013	2023-04-10T08:21:45	8.9	55
10014	2023-04-10T08:31:45	9.5	55
10015	2023-04-10T08:41:45	10	51.5
10016	2023-04-10T08:51:45	10.3	50.5
10017	2023-04-10T09:01:45	10.7	50
10018	2023-04-10T09:11:45	11.2	48.5
10019	2023-04-10T09:21:45	11.5	47.5
10020	2023-04-10T09:32:02	11.9	43.5
10021	2023-04-10T09:41:45	12.6	42.5
10022	2023-04-10T09:51:45	13	43.5
10023	2023-04-10T10:01:45	13.7	39
10024	2023-04-10T10:11:45	13.4	43.5
10025	2023-04-10T10:21:45	13.7	41
10026	2023-04-10T10:31:45	14.1	43
10027	2023-04-10T10:41:45	14.2	39
10028	2023-04-10T10:51:45	14.9	40.5
10029	2023-04-10T11:01:45	15.2	38
10030	2023-04-10T11:11:45	15.8	38
10031	2023-04-10T11:21:45	16.4	37.5
10032	2023-04-10T11:31:45	16.9	33
10033	2023-04-10T11:41:45	17.6	32.5
10034	2023-04-10T11:51:45	18.3	31
10035	2023-04-10T12:01:45	18.9	28.5
10036	2023-04-10T12:11:45	20.4	29
10037	2023-04-10T12:21:45	22.1	25.5
10038	2023-04-10T12:31:45	23.1	25.5
10039	2023-04-10T12:41:45	23.3	24.5
10040	2023-04-10T12:51:45	23.6	24
10041	2023-04-10T13:01:45	24.3	23
10042	2023-04-10T13:11:45	23.2	23.5
10043	2023-04-10T13:21:45	22.7	24.5
10044	2023-04-10T13:31:45	23.7	23
10045	2023-04-10T13:41:45	24.6	22.5
10046	2023-04-10T13:51:45	25.4	22.5
10047	2023-04-10T14:01:45	25.8	21.5
10048	2023-04-10T14:11:45	25.4	21.5
10049	2023-04-10T14:21:45	24.7	22
10050	2023-04-10T14:31:45	24.3	23
10051	2023-04-10T14:41:45	24.7	22.5
10052	2023-04-10T14:51:45	24	24.5
10053	2023-04-10T15:01:45	22.5	27
10054	2023-04-10T15:11:45	21.7	28
10055	2023-04-10T15:21:45	21	30
10056	2023-04-10T15:31:45	20.5	32
10057	2023-04-10T15:41:45	20.1	34
10058	2023-04-10T15:51:45	19.9	35
10059	2023-04-10T16:01:45	19.8	35
10060	2023-04-10T16:11:45	19.6	36
10061	2023-04-10T16:21:45	19.5	36.5
10062	2023-04-10T16:31:45	19.6	36.5
10063	2023-04-10T16:41:45	19.2	37
10064	2023-04-10T16:51:45	18.9	39
10065	2023-04-10T17:01:45	18.6	42.5
10066	2023-04-10T17:11:45	18.3	42.5
10067	2023-04-10T17:21:44	18	41.5
10068	2023-04-10T17:31:44	17.8	46
10069	2023-04-10T17:41:44	17.4	45
10070	2023-04-10T17:51:44	17.4	47
10071	2023-04-10T18:01:44	16.9	47
10072	2023-04-10T18:11:44	16.8	46.5
10073	2023-04-10T18:21:44	16.8	46
10074	2023-04-10T18:31:44	16.6	46
10075	2023-04-10T18:41:44	16.5	44
10076	2023-04-10T18:51:44	16.3	43.5
10077	2023-04-10T19:01:44	16.6	41
10078	2023-04-10T19:11:44	16.5	42
10079	2023-04-10T19:21:44	16.3	43
10080	2023-04-10T19:31:44	16.2	45
10081	2023-04-10T19:41:44	16.2	45.5
10082	2023-04-10T19:51:44	16	46
10083	2023-04-10T20:01:44	15.9	45.5
10084	2023-04-10T20:11:44	15.9	46.5
10085	2023-04-10T20:21:44	15.7	45.5
10086	2023-04-10T20:31:44	15.6	46
10087	2023-04-10T20:41:44	15.2	48
10088	2023-04-10T20:51:44	13.3	75
10089	2023-04-10T21:01:44	13.4	62.5
10090	2023-04-10T21:11:44	13.7	60.5
10091	2023-04-10T21:21:44	14	59
10092	2023-04-10T21:31:44	14.2	55.5
10093	2023-04-10T21:41:44	14.3	57
10094	2023-04-10T21:51:44	14.1	58
10095	2023-04-10T22:01:44	14.4	52
10096	2023-04-10T22:11:44	14.6	52
10097	2023-04-10T22:21:44	15.1	50
10098	2023-04-10T22:31:44	15.2	48.5
10099	2023-04-10T22:41:44	15.5	48.5
10100	2023-04-10T22:51:44	15.7	48
10101	2023-04-10T23:01:44	15.5	49
10102	2023-04-10T23:11:44	15.4	51
10103	2023-04-10T23:21:44	12.7	84.5
10104	2023-04-10T23:31:44	12.5	79
10105	2023-04-10T23:41:44	13	80.5
10106	2023-04-10T23:51:44	13.4	67.5
10107	2023-04-11T00:01:44	12.7	89
10108	2023-04-11T00:11:44	11.5	95
10109	2023-04-11T00:22:03	11.4	96.5
10110	2023-04-11T00:31:44	11.2	97.5
10111	2023-04-11T00:41:44	10.9	98
10112	2023-04-11T00:51:44	10.9	98.5
10113	2023-04-11T01:01:44	10.7	99
10114	2023-04-11T01:11:44	10.9	99
10115	2023-04-11T01:21:44	10.3	99
10116	2023-04-11T01:31:44	10.2	99.5
10117	2023-04-11T01:41:44	10.1	99.5
10118	2023-04-11T01:51:44	9.9	99.5
10119	2023-04-11T02:01:44	9.7	99.5
10120	2023-04-11T02:11:44	9.6	99.5
10121	2023-04-11T02:21:44	9.6	100
10122	2023-04-11T02:31:44	9.6	100
10123	2023-04-11T02:41:44	9.5	100
10124	2023-04-11T02:51:44	9.3	100
10125	2023-04-11T03:01:44	9.4	100
10126	2023-04-11T03:11:44	9.3	100
10127	2023-04-11T03:21:44	9.3	100
10128	2023-04-11T03:31:44	9.1	100
10129	2023-04-11T03:41:44	9.1	100
10130	2023-04-11T03:51:44	9.1	100
10131	2023-04-11T04:01:44	9.1	100
10132	2023-04-11T04:11:44	9.1	100
10133	2023-04-11T04:21:44	9	100
10134	2023-04-11T04:31:44	9	100
10135	2023-04-11T04:41:44	8.7	100
10136	2023-04-11T04:51:44	8.7	100
10137	2023-04-11T05:01:44	8.7	100
10138	2023-04-11T05:11:44	8.6	100
10139	2023-04-11T05:21:44	8.5	100
10140	2023-04-11T05:31:44	8.3	100
10141	2023-04-11T05:41:44	8.3	100
10142	2023-04-11T05:51:44	8.3	100
10143	2023-04-11T06:01:44	8.4	100
10144	2023-04-11T06:11:44	8.3	100
10145	2023-04-11T06:21:44	8.3	100
10146	2023-04-11T06:31:44	8.5	100
10147	2023-04-11T06:41:44	8.6	100
10148	2023-04-11T06:51:44	8.6	100
10149	2023-04-11T07:01:44	8.6	100
10150	2023-04-11T07:11:44	8.8	100
10151	2023-04-11T07:21:44	8.9	100
10152	2023-04-11T07:31:44	9.1	100
10153	2023-04-11T07:41:44	9.3	100
10154	2023-04-11T07:51:44	9.8	100
10155	2023-04-11T08:01:44	10.1	100
10156	2023-04-11T08:11:44	10.3	100
10157	2023-04-11T08:21:43	10.5	100
10158	2023-04-11T08:31:43	10.5	100
10159	2023-04-11T08:41:43	10.6	100
10160	2023-04-11T08:51:43	10.7	100
10161	2023-04-11T09:01:43	11	100
10162	2023-04-11T09:11:43	11.1	99.5
10163	2023-04-11T09:21:43	11.1	99
10164	2023-04-11T09:31:43	11.5	98
10165	2023-04-11T09:41:43	12	98.5
10166	2023-04-11T09:51:43	12.2	98
10167	2023-04-11T10:01:43	12.1	96
10168	2023-04-11T10:11:43	12.7	97.5
10169	2023-04-11T10:21:43	12.5	96
10170	2023-04-11T10:31:43	12.4	88
10171	2023-04-11T10:41:43	12.5	76.5
10172	2023-04-11T10:51:43	13.2	76
10173	2023-04-11T11:01:43	13	71.5
10174	2023-04-11T11:11:43	13.4	73
10175	2023-04-11T11:21:43	13.5	54
10176	2023-04-11T11:31:43	13.5	48
10177	2023-04-11T11:51:43	13.8	48.5
10178	2023-04-11T12:01:43	13.7	49.5
10179	2023-04-11T12:11:43	13.2	47
10180	2023-04-11T12:21:43	13.4	47.5
10181	2023-04-11T12:31:43	13.9	47.5
10182	2023-04-11T12:41:43	14.9	47.5
10183	2023-04-11T12:51:43	15.4	41.5
10184	2023-04-11T13:01:43	15.4	41.5
10185	2023-04-11T13:11:43	16.3	38.5
10186	2023-04-11T13:21:43	16.1	39
10187	2023-04-11T13:31:43	16.4	38.5
10188	2023-04-11T13:41:43	18.2	33.5
10189	2023-04-11T13:51:43	17.4	34
10190	2023-04-11T14:01:43	18.6	33
10191	2023-04-11T14:11:43	19	32.5
10192	2023-04-11T14:21:43	19.4	32
10193	2023-04-11T14:31:43	18.8	32.5
10194	2023-04-11T14:41:43	18.2	33
10195	2023-04-11T14:51:43	18.2	34.5
10196	2023-04-11T15:01:43	18.5	34
10197	2023-04-11T15:11:43	18.5	33
10198	2023-04-11T15:21:43	19.6	30
10199	2023-04-11T15:31:43	18.2	33.5
10200	2023-04-11T15:41:43	19.4	30
10201	2023-04-11T15:51:43	19.2	34
10202	2023-04-11T16:01:43	18	33.5
10203	2023-04-11T16:11:43	17.1	35.5
10204	2023-04-11T16:21:43	16.4	36.5
10205	2023-04-11T16:31:43	15.6	38.5
10206	2023-04-11T16:41:43	15.5	38.5
10207	2023-04-11T16:51:43	15	40.5
10208	2023-04-11T17:01:43	14.6	41
10209	2023-04-11T17:11:43	14.4	42.5
10210	2023-04-11T17:21:43	14.1	44
10211	2023-04-11T17:31:43	13.8	45
10212	2023-04-11T17:41:43	13.5	47
10213	2023-04-11T17:51:43	13.2	48
10214	2023-04-11T18:01:43	12.9	51
10215	2023-04-11T18:11:43	12.6	52.5
10216	2023-04-11T18:21:43	12.4	55
10217	2023-04-11T18:31:43	12.1	59.5
10218	2023-04-11T18:41:43	11.8	63
10219	2023-04-11T18:51:43	11.5	65
10220	2023-04-11T19:01:43	11.5	67.5
10221	2023-04-11T19:11:43	11.3	67
10222	2023-04-11T19:21:43	11.2	66
10223	2023-04-11T19:31:43	11.1	70
10224	2023-04-11T19:41:43	11	71.5
10225	2023-04-11T19:51:43	10.9	73.5
10226	2023-04-11T20:01:43	10.9	72.5
10227	2023-04-11T20:11:43	10.9	72.5
10228	2023-04-11T20:21:43	10.7	73
10229	2023-04-11T20:31:43	10.7	69.5
10230	2023-04-11T20:41:43	10.6	70
10231	2023-04-11T20:51:43	10.5	73.5
10232	2023-04-11T21:01:43	10.5	74.5
10233	2023-04-11T21:11:43	10.5	71.5
10234	2023-04-11T21:21:43	10.3	70
10235	2023-04-11T21:31:43	10.4	65.5
10236	2023-04-11T21:41:43	10.4	64
10237	2023-04-11T21:51:43	10.4	64
10238	2023-04-11T22:01:43	10.3	63.5
10239	2023-04-11T22:11:43	10.4	65.5
10240	2023-04-11T22:21:43	10.3	67.5
10241	2023-04-11T22:31:42	10.2	65
10242	2023-04-11T22:41:42	10.4	66
10243	2023-04-11T22:51:42	10.4	64.5
10244	2023-04-11T23:01:42	10.3	69.5
10245	2023-04-11T23:11:43	10.3	63
10246	2023-04-11T23:21:42	10.6	59.5
10247	2023-04-11T23:31:42	10.6	63.5
10248	2023-04-11T23:41:42	10.4	65
10249	2023-04-11T23:51:42	10.1	69
10250	2023-04-12T00:01:42	9.5	78.5
10251	2023-04-12T00:11:42	8.5	93.5
10252	2023-04-12T00:21:42	8.4	95.5
10253	2023-04-12T00:31:42	8.6	97
10254	2023-04-12T00:41:42	8.7	97.5
10255	2023-04-12T00:51:42	8.8	98
10256	2023-04-12T01:01:42	8.9	98.5
10257	2023-04-12T01:11:42	8.4	97
10258	2023-04-12T01:21:42	8.2	97
10259	2023-04-12T01:31:42	8.3	96.5
10260	2023-04-12T01:41:42	8.3	96.5
10261	2023-04-12T01:51:42	8.4	95
10262	2023-04-12T02:01:42	8.2	95
10263	2023-04-12T02:11:42	8.5	95
10264	2023-04-12T02:21:42	8.5	95
10265	2023-04-12T02:31:42	8.5	96
10266	2023-04-12T02:41:42	8.5	96
10267	2023-04-12T02:51:42	8.6	96.5
10268	2023-04-12T03:01:42	8.5	97
10269	2023-04-12T03:11:42	8.6	97.5
10270	2023-04-12T03:21:42	8.6	97
10271	2023-04-12T03:31:42	8.6	94
10272	2023-04-12T03:41:42	8.5	95
10273	2023-04-12T03:51:42	8.5	94.5
10274	2023-04-12T04:01:42	8.5	93.5
10275	2023-04-12T04:11:42	8.5	93
10276	2023-04-12T04:21:42	8.3	94
10277	2023-04-12T04:31:42	8.3	95
10278	2023-04-12T04:41:42	8.5	95.5
10279	2023-04-12T04:51:42	8.6	95.5
10280	2023-04-12T05:01:42	8.4	96.5
10281	2023-04-12T05:11:42	8.5	96.5
10282	2023-04-12T05:21:42	8.6	97
10283	2023-04-12T05:31:42	8.7	97
10284	2023-04-12T05:41:42	8.7	97.5
10285	2023-04-12T05:51:42	8.8	98
10286	2023-04-12T06:01:42	9	97.5
10287	2023-04-12T06:11:42	9.1	97.5
10288	2023-04-12T06:21:42	9.2	97.5
10289	2023-04-12T06:31:42	9.3	97.5
10290	2023-04-12T06:41:42	9.5	97.5
10291	2023-04-12T06:51:42	9.8	97
10292	2023-04-12T07:01:42	10	96.5
10293	2023-04-12T07:11:42	10	95
10294	2023-04-12T07:21:42	10.1	96
10295	2023-04-12T07:31:42	10.2	97
10296	2023-04-12T07:41:42	10.3	95.5
10297	2023-04-12T07:51:42	10.3	95.5
10298	2023-04-12T08:01:42	9.9	99
10299	2023-04-12T08:11:42	9.8	100
10300	2023-04-12T08:21:42	10	100
10301	2023-04-12T08:31:42	10.1	100
10302	2023-04-12T08:41:42	10.3	100
10303	2023-04-12T08:51:42	10.1	99.5
10304	2023-04-12T09:01:42	10.1	100
10305	2023-04-12T09:11:42	10.3	100
10306	2023-04-12T09:21:42	10.3	100
10307	2023-04-12T09:31:42	10.4	100
10308	2023-04-12T09:41:42	10.4	100
10309	2023-04-12T09:51:42	10.5	100
10310	2023-04-12T10:01:42	10.8	100
10311	2023-04-12T10:11:42	11	100
10312	2023-04-12T10:21:42	11.3	100
10313	2023-04-12T10:31:42	11.5	100
10314	2023-04-12T10:41:42	11.4	99
10315	2023-04-12T10:51:42	11.9	96.5
10316	2023-04-12T11:01:42	12.2	97
10317	2023-04-12T11:11:42	12.5	94.5
10318	2023-04-12T11:21:42	12.8	91.5
10319	2023-04-12T11:31:42	13.4	90.5
10320	2023-04-12T11:41:42	14.1	86
10321	2023-04-12T11:51:42	14.6	84
10322	2023-04-12T12:01:42	15.2	79
10323	2023-04-12T12:11:42	15.7	70
10324	2023-04-12T12:21:42	15.9	69
10325	2023-04-12T12:31:42	17.3	66.5
10326	2023-04-12T12:41:42	16.6	57.5
10327	2023-04-12T12:51:42	16.4	60.5
10328	2023-04-12T13:01:42	16.2	62.5
10329	2023-04-12T13:11:42	16.8	58
10330	2023-04-12T13:21:42	19.1	52.5
10331	2023-04-12T13:31:42	19.5	50
10332	2023-04-12T13:41:42	20.5	47
10333	2023-04-12T13:51:42	18.9	52
10334	2023-04-12T14:01:42	17	58.5
10335	2023-04-12T14:11:42	15.9	64.5
10336	2023-04-12T14:21:42	12.9	94.5
10337	2023-04-12T14:31:42	11.5	96.5
10338	2023-04-12T14:41:41	10.9	97.5
10339	2023-04-12T14:51:41	10.5	98.5
10340	2023-04-12T15:01:41	10.3	99
10341	2023-04-12T15:11:41	10.3	99.5
10342	2023-04-12T15:21:41	10.5	99.5
10343	2023-04-12T15:31:41	10.6	100
10344	2023-04-12T15:41:41	10.7	100
10345	2023-04-12T15:51:41	10.7	100
10346	2023-04-12T16:01:41	10.8	100
10347	2023-04-12T16:11:41	11	100
10348	2023-04-12T16:21:41	11.2	100
10349	2023-04-12T16:31:41	11.6	100
10350	2023-04-12T16:41:41	13	99
10351	2023-04-12T16:51:41	11.5	99
10352	2023-04-12T17:01:41	11.1	99
10353	2023-04-12T17:11:41	10.9	100
10354	2023-04-12T17:21:41	10.8	99.5
10355	2023-04-12T17:32:00	11.1	100
10356	2023-04-12T17:41:41	11	100
10357	2023-04-12T17:51:41	10.7	99.5
10358	2023-04-12T18:01:41	10.6	99.5
10359	2023-04-12T18:11:41	10.5	99.5
10360	2023-04-12T18:21:41	10.3	99
10361	2023-04-12T18:31:41	10.1	99
10362	2023-04-12T18:41:41	10	99.5
10363	2023-04-12T18:51:41	9.9	99.5
10364	2023-04-12T19:01:41	9.8	99.5
10365	2023-04-12T19:11:41	9.8	99.5
10366	2023-04-12T19:21:41	10	99.5
10367	2023-04-12T19:31:41	9.9	100
10368	2023-04-12T19:41:41	8.8	100
10369	2023-04-12T19:51:41	8.5	100
10370	2023-04-12T20:01:41	8.4	100
10371	2023-04-12T20:11:41	8.5	100
10372	2023-04-12T20:21:41	8.6	100
10373	2023-04-12T20:31:41	8.6	100
10374	2023-04-12T20:41:41	8.4	100
10375	2023-04-12T20:51:41	8.5	100
10376	2023-04-12T21:01:41	8.4	100
10377	2023-04-12T21:11:41	8.2	100
10378	2023-04-12T21:21:41	8	100
10379	2023-04-12T21:31:41	8.1	100
10380	2023-04-12T21:41:41	7.9	100
10381	2023-04-12T21:51:41	7.9	100
10382	2023-04-12T22:01:41	7.7	100
10383	2023-04-12T22:11:41	7.8	100
10384	2023-04-12T22:21:41	7.6	100
10385	2023-04-12T22:31:41	7.5	100
10386	2023-04-12T22:41:41	7.4	100
10387	2023-04-12T22:51:41	7.2	100
10388	2023-04-12T23:01:41	7.4	100
10389	2023-04-12T23:11:41	7.2	100
10390	2023-04-12T23:21:41	7.2	100
10391	2023-04-12T23:31:41	7.1	100
10392	2023-04-12T23:41:41	7.2	100
10393	2023-04-12T23:51:41	7.1	100
10394	2023-04-13T00:01:41	6.8	100
10395	2023-04-13T00:11:41	6.8	100
10396	2023-04-13T00:21:41	6.7	100
10397	2023-04-13T00:31:41	6.7	100
10398	2023-04-13T00:41:41	6.7	100
10399	2023-04-13T00:51:41	6.6	100
10400	2023-04-13T01:01:41	6.6	100
10401	2023-04-13T01:11:41	6.3	100
10402	2023-04-13T01:21:41	6.4	100
10403	2023-04-13T01:31:41	6.5	100
10404	2023-04-13T01:41:41	6.6	100
10405	2023-04-13T01:51:41	6.8	100
10406	2023-04-13T02:01:41	6.8	99.5
10407	2023-04-13T02:11:41	6.8	99
10408	2023-04-13T02:21:41	6.8	99
10409	2023-04-13T02:31:41	7.1	98.5
10410	2023-04-13T02:41:41	7.1	98.5
10411	2023-04-13T02:51:41	7.5	98.5
10412	2023-04-13T03:01:41	7.4	98
10413	2023-04-13T03:11:41	7.5	98
10414	2023-04-13T03:21:41	7.6	97.5
10415	2023-04-13T03:31:41	7.6	98
10416	2023-04-13T03:41:41	7.5	97
10417	2023-04-13T03:51:41	7.6	96.5
10418	2023-04-13T04:01:41	7.6	95.5
10419	2023-04-13T04:11:41	7.5	96
10420	2023-04-13T04:21:41	7.6	94
10421	2023-04-13T04:31:41	7.6	87
10422	2023-04-13T04:41:41	7.7	71.5
10423	2023-04-13T04:51:41	7.7	70
10424	2023-04-13T05:01:41	7.7	69.5
10425	2023-04-13T05:11:41	7.8	69.5
10426	2023-04-13T05:21:41	7.8	68.5
10427	2023-04-13T05:31:41	7.9	68.5
10428	2023-04-13T05:41:41	7.8	69.5
10429	2023-04-13T05:51:41	7.9	69.5
10430	2023-04-13T06:01:41	8	69
10431	2023-04-13T06:11:41	7.9	69.5
10432	2023-04-13T06:21:41	7.9	68.5
10433	2023-04-13T06:31:41	8	69.5
10434	2023-04-13T06:41:41	8.1	69.5
10435	2023-04-13T06:51:41	8.4	68.5
10436	2023-04-13T07:01:41	8.6	67.5
10437	2023-04-13T07:11:41	8.8	67.5
10438	2023-04-13T07:21:41	8.8	66.5
10439	2023-04-13T07:31:41	8.9	66.5
10440	2023-04-13T07:41:41	9.2	65.5
10441	2023-04-13T07:51:41	9.3	65
10442	2023-04-13T08:01:41	9.8	63.5
10443	2023-04-13T08:11:41	9.9	68.5
10444	2023-04-13T08:21:41	7.7	91
10445	2023-04-13T08:31:41	7.2	96.5
10446	2023-04-13T08:41:41	7.6	96.5
10447	2023-04-13T08:51:41	7.9	87
10448	2023-04-13T09:01:41	7.6	84
10449	2023-04-13T09:11:41	7	95.5
10450	2023-04-13T09:21:41	7.2	98
10451	2023-04-13T09:31:41	7.8	98
10452	2023-04-13T09:41:41	7.7	98.5
10453	2023-04-13T09:51:40	7.7	97.5
10454	2023-04-13T10:01:40	8.2	98
10455	2023-04-13T10:11:40	8.5	97
10456	2023-04-13T10:21:40	8.9	93.5
10457	2023-04-13T10:31:40	9.5	87.5
10458	2023-04-13T10:41:40	9.9	89
10459	2023-04-13T10:51:40	9.8	83
10460	2023-04-13T11:01:40	10.2	88
10461	2023-04-13T11:11:40	10.2	83
10462	2023-04-13T11:21:40	10.6	77.5
10463	2023-04-13T11:31:40	11.1	77
10464	2023-04-13T11:41:40	10.5	81
10465	2023-04-13T11:51:40	10.4	80.5
10466	2023-04-13T12:01:40	11.8	66
10467	2023-04-13T12:11:40	13.9	55
10468	2023-04-13T12:21:40	12.2	59
10469	2023-04-13T12:31:40	11.1	64.5
10470	2023-04-13T12:41:40	12.6	69.5
10471	2023-04-13T12:51:40	14.3	52
10472	2023-04-13T13:01:40	15.4	49
10473	2023-04-13T13:11:40	13.2	56.5
10474	2023-04-13T13:21:40	13.1	58
10475	2023-04-13T13:31:40	12.3	62
10476	2023-04-13T13:41:40	16.7	49.5
10477	2023-04-13T13:51:40	14	56.5
10478	2023-04-13T14:01:40	13	61
10479	2023-04-13T14:11:40	16.9	47.5
10480	2023-04-13T14:21:40	16.5	50.5
10481	2023-04-13T14:31:40	18.5	37.5
10482	2023-04-13T14:41:40	20	33.5
10483	2023-04-13T14:51:40	19.4	36
10484	2023-04-13T15:01:40	19	35.5
10485	2023-04-13T15:11:40	17.1	41
10486	2023-04-13T15:21:40	17.9	42.5
10487	2023-04-13T15:31:40	17.1	44
10488	2023-04-13T15:41:40	16.1	49
10489	2023-04-13T15:51:40	14.2	50.5
10490	2023-04-13T16:01:40	13.4	89
10491	2023-04-13T16:11:40	12.4	97
10492	2023-04-13T16:21:40	13.5	99
10493	2023-04-13T16:31:40	17.7	97
10494	2023-04-13T16:41:40	18.5	96
10495	2023-04-13T16:51:40	16.9	96.5
10496	2023-04-13T17:01:40	17.1	77.5
10497	2023-04-13T17:11:40	16.8	73
10498	2023-04-13T17:21:40	13.9	72
10499	2023-04-13T17:31:40	12.9	57.5
10500	2023-04-13T17:41:40	12.1	58
10501	2023-04-13T17:51:40	11.9	65.5
10502	2023-04-13T18:01:40	11.5	59.5
10503	2023-04-13T18:11:40	11.1	69.5
10504	2023-04-13T18:21:40	10.8	75.5
10505	2023-04-13T18:31:40	10.9	78
10506	2023-04-13T18:41:40	10.7	78.5
10507	2023-04-13T18:51:40	10.4	81
10508	2023-04-13T19:01:40	10.2	78
10509	2023-04-13T19:11:40	9.6	82
10510	2023-04-13T19:21:40	9.2	84
10511	2023-04-13T19:31:40	8.8	84
10512	2023-04-13T19:41:40	8.5	87
10513	2023-04-13T19:51:40	8.2	86.5
10514	2023-04-13T20:01:40	7.9	87.5
10515	2023-04-13T20:11:40	7.7	88.5
10516	2023-04-13T20:21:40	7.4	86
10517	2023-04-13T20:31:40	7.1	87.5
10518	2023-04-13T20:41:40	6.9	88
10519	2023-04-13T20:51:40	6.7	90
10520	2023-04-13T21:01:40	6.3	90.5
10521	2023-04-13T21:11:40	6.2	89
10522	2023-04-13T21:21:40	5.9	90.5
10523	2023-04-13T21:31:40	5.8	91.5
10524	2023-04-13T21:41:40	5.7	89.5
10525	2023-04-13T21:51:40	5.3	87
10526	2023-04-13T22:01:40	5.2	86.5
10527	2023-04-13T22:11:40	5.1	87.5
10528	2023-04-13T22:21:40	4.9	87.5
10529	2023-04-13T22:31:40	4.8	88
10530	2023-04-13T22:41:40	4.7	89
10531	2023-04-13T22:51:40	4.5	90.5
10532	2023-04-13T23:01:40	4.4	91.5
10533	2023-04-13T23:11:40	4.3	92.5
10534	2023-04-13T23:21:40	4.3	92.5
10535	2023-04-13T23:31:40	4.1	94
10536	2023-04-13T23:41:40	3.9	94
10537	2023-04-13T23:51:40	3.6	93.5
10538	2023-04-14T00:01:40	3.7	94.5
10539	2023-04-14T00:11:40	3.4	94
10540	2023-04-14T00:21:40	3.3	94
10541	2023-04-14T00:31:40	3.2	95
10542	2023-04-14T00:41:40	3.1	95.5
10543	2023-04-14T00:51:40	3	96.5
10544	2023-04-14T01:01:40	2.9	96.5
10545	2023-04-14T01:11:40	2.7	97
10546	2023-04-14T01:21:40	2.6	97
10547	2023-04-14T01:31:40	2.6	97.5
10548	2023-04-14T01:41:40	2.4	97
10549	2023-04-14T01:51:40	2.3	97
10550	2023-04-14T02:01:40	2.3	97
10551	2023-04-14T02:11:40	2.1	97
10552	2023-04-14T02:21:40	1.9	97.5
10553	2023-04-14T02:31:40	1.8	97.5
10554	2023-04-14T02:41:40	1.7	98
10555	2023-04-14T02:51:40	1.7	98
10556	2023-04-14T03:01:40	1.8	98
10557	2023-04-14T03:11:40	1.7	98
10558	2023-04-14T03:21:40	1.8	98.5
10559	2023-04-14T03:31:40	1.6	98.5
10560	2023-04-14T03:41:40	1.5	98.5
10561	2023-04-14T03:51:40	1.4	98.5
10562	2023-04-14T04:01:40	1.3	98.5
10563	2023-04-14T04:11:40	1.3	98.5
10564	2023-04-14T04:21:40	1.5	99
10565	2023-04-14T04:31:40	1.5	99
10566	2023-04-14T04:41:40	1.2	98.5
10567	2023-04-14T04:51:40	1	98.5
10568	2023-04-14T05:01:40	1	98.5
10569	2023-04-14T05:11:40	1	99
10570	2023-04-14T05:21:40	1	99.5
10571	2023-04-14T05:31:40	1.2	99.5
10572	2023-04-14T05:41:40	1.3	99.5
10573	2023-04-14T05:51:40	1.5	100
10574	2023-04-14T06:01:40	2.1	100
10575	2023-04-14T06:11:40	2.7	100
10576	2023-04-14T06:21:40	3.2	100
10577	2023-04-14T06:31:40	3.9	97.5
10578	2023-04-14T06:41:40	4.5	92.5
10579	2023-04-14T06:51:40	4.9	89.5
10580	2023-04-14T07:01:40	5.3	87
10581	2023-04-14T07:11:40	5.7	86.5
10582	2023-04-14T07:21:40	5.8	85.5
10583	2023-04-14T07:31:40	6.2	85
10584	2023-04-14T07:41:40	6.3	84
10585	2023-04-14T07:51:40	6.7	81.5
10586	2023-04-14T08:01:40	6.9	82
10587	2023-04-14T08:11:40	7.2	80.5
10588	2023-04-14T08:21:39	7.4	78
10589	2023-04-14T08:31:39	7.6	77.5
10590	2023-04-14T08:41:39	8	76.5
10591	2023-04-14T08:51:39	8.1	75
10592	2023-04-14T09:01:39	8.4	75.5
10593	2023-04-14T09:11:39	8.5	72
10594	2023-04-14T09:21:39	8.8	71.5
10595	2023-04-14T09:31:39	9	67
10596	2023-04-14T09:41:39	9.1	65
10597	2023-04-14T09:51:39	9.2	66
10598	2023-04-14T10:01:39	9.4	65.5
10599	2023-04-14T10:11:39	10.1	61
10600	2023-04-14T10:21:39	10.5	55
10601	2023-04-14T10:31:39	10.6	55.5
10602	2023-04-14T10:41:39	11	54
10603	2023-04-14T10:51:39	11.6	51
10604	2023-04-14T11:01:39	11.9	51.5
10605	2023-04-14T11:11:39	12.3	52
10606	2023-04-14T11:21:39	12.6	43
10607	2023-04-14T11:31:39	12.7	45.5
10608	2023-04-14T11:41:39	13.3	43.5
10609	2023-04-14T11:51:39	13.5	43.5
10610	2023-04-14T12:01:39	14.1	40
10611	2023-04-14T12:11:39	17	36.5
10612	2023-04-14T12:21:39	19.8	33
10613	2023-04-14T12:31:39	20.8	27
10614	2023-04-14T12:41:39	21.6	26.5
10615	2023-04-14T12:51:39	23.6	24
10616	2023-04-14T13:01:39	25	22.5
10617	2023-04-14T13:11:39	24.5	21.5
10618	2023-04-14T13:21:39	24.3	20
10619	2023-04-14T13:31:39	26.2	20
10620	2023-04-14T13:41:39	25.4	21.5
10621	2023-04-14T13:51:39	27.8	15.5
10622	2023-04-14T14:01:39	28.2	18.5
10623	2023-04-14T14:11:39	28.8	18
10624	2023-04-14T14:21:39	30	16
10625	2023-04-14T14:31:39	28.7	15.5
10626	2023-04-14T14:41:39	29.7	16.5
10627	2023-04-14T14:51:39	31.2	15.5
10628	2023-04-14T15:01:39	31.8	15.5
10629	2023-04-14T15:11:39	31.5	15.5
10630	2023-04-14T15:21:39	31.5	11.5
10631	2023-04-14T15:31:39	26.7	16
10632	2023-04-14T15:41:39	30.7	13
10633	2023-04-14T15:51:39	31.2	13.5
10634	2023-04-14T16:01:39	31	15
10635	2023-04-14T16:11:39	31.1	13
10636	2023-04-14T16:21:39	30.2	13.5
10637	2023-04-14T16:31:39	29.1	17
10638	2023-04-14T16:41:39	27.4	17
10639	2023-04-14T16:51:39	26.8	18.5
10640	2023-04-14T17:01:39	25.1	22
10641	2023-04-14T17:11:39	26.5	15
10642	2023-04-14T17:21:39	25.1	20
10643	2023-04-14T17:31:39	22.6	26
10644	2023-04-14T17:41:39	20.3	27.5
10645	2023-04-14T17:51:39	19.4	31
10646	2023-04-14T18:01:39	18.4	33
10647	2023-04-14T18:11:39	17.6	34
10648	2023-04-14T18:21:39	16.7	40
10649	2023-04-14T18:31:39	15.9	43.5
10650	2023-04-14T18:41:39	15.3	45.5
10651	2023-04-14T18:51:39	14.7	45.5
10652	2023-04-14T19:01:39	14.3	47.5
10653	2023-04-14T19:11:39	13.8	49
10654	2023-04-14T19:21:39	13.2	47
10655	2023-04-14T19:31:39	12.8	50
10656	2023-04-14T19:41:39	12.4	55
10657	2023-04-14T19:51:39	12.1	53
10658	2023-04-14T20:01:39	11.8	52
10659	2023-04-14T20:11:39	11.4	52
10660	2023-04-14T20:21:39	11	54
10661	2023-04-14T20:31:39	10.7	53
10662	2023-04-14T20:41:38	10.5	53.5
10663	2023-04-14T20:51:38	10.2	55
10664	2023-04-14T21:01:39	9.9	57
10665	2023-04-14T21:11:38	9.6	57
10666	2023-04-14T21:21:38	9.4	59.5
10667	2023-04-14T21:31:38	9	59.5
10668	2023-04-14T21:41:38	8.8	59
10669	2023-04-14T21:51:38	8.6	61
10670	2023-04-14T22:01:38	8.2	60.5
10671	2023-04-14T22:11:38	8.1	63
10672	2023-04-14T22:21:38	7.7	63
10673	2023-04-14T22:31:38	7.5	64.5
10674	2023-04-14T22:41:38	7.2	66
10675	2023-04-14T22:51:38	6.8	69
10676	2023-04-14T23:01:38	6.6	70.5
10677	2023-04-14T23:11:38	6.3	72.5
10678	2023-04-14T23:21:38	6.2	73.5
10679	2023-04-14T23:31:38	6	74.5
10680	2023-04-14T23:41:38	5.9	75.5
10681	2023-04-14T23:51:38	5.6	74.5
10682	2023-04-15T00:01:38	5.5	74.5
10683	2023-04-15T00:11:38	5.4	76
10684	2023-04-15T00:21:38	5.3	76.5
10685	2023-04-15T00:31:38	5	76
10686	2023-04-15T00:41:38	4.9	78
10687	2023-04-15T00:51:38	5	78
10688	2023-04-15T01:01:38	5.1	77.5
10689	2023-04-15T01:11:38	5	78.5
10690	2023-04-15T01:21:38	5	79
10691	2023-04-15T01:31:38	4.9	78.5
10692	2023-04-15T01:41:38	4.6	80
10693	2023-04-15T01:51:38	4.3	81.5
10694	2023-04-15T02:01:38	4.1	84
10695	2023-04-15T02:11:38	3.9	82.5
10696	2023-04-15T02:21:38	3.7	83
10697	2023-04-15T02:31:38	3.6	84
10698	2023-04-15T02:41:38	3.7	86
10699	2023-04-15T02:51:38	3.4	87
10700	2023-04-15T03:01:38	3.3	86.5
10701	2023-04-15T03:11:38	3.1	87.5
10702	2023-04-15T03:21:38	3	87.5
10703	2023-04-15T03:31:38	2.9	88.5
10704	2023-04-15T03:41:38	2.8	88.5
10705	2023-04-15T03:51:38	2.6	88.5
10706	2023-04-15T04:01:38	2.5	89.5
10707	2023-04-15T04:11:38	2.2	90
10708	2023-04-15T04:21:38	2.2	89.5
10709	2023-04-15T04:31:38	2.1	89.5
10710	2023-04-15T04:41:38	2.1	91
10711	2023-04-15T04:51:38	1.9	91
10712	2023-04-15T05:01:38	2	91
10713	2023-04-15T05:11:38	2.2	91
10714	2023-04-15T05:21:38	2.3	90.5
10715	2023-04-15T05:31:38	2.7	90
10716	2023-04-15T05:41:38	2.9	90
10717	2023-04-15T05:51:38	3.3	90
10718	2023-04-15T06:01:38	3.5	90
10719	2023-04-15T06:11:38	3.5	88.5
10720	2023-04-15T06:21:38	3.6	89
10721	2023-04-15T06:31:38	3.8	89
10722	2023-04-15T06:41:38	4.3	87
10723	2023-04-15T06:51:38	5	85.5
10724	2023-04-15T07:01:38	5.2	83.5
10725	2023-04-15T07:11:38	5.3	81.5
10726	2023-04-15T07:21:38	5.4	83.5
10727	2023-04-15T07:31:38	5.7	83.5
10728	2023-04-15T07:41:38	5.7	82.5
10729	2023-04-15T07:51:38	6.1	82
10730	2023-04-15T08:01:38	6.8	79.5
10731	2023-04-15T08:11:38	7.3	78.5
10732	2023-04-15T08:21:38	7.8	76.5
10733	2023-04-15T08:31:38	8.5	73.5
10734	2023-04-15T08:41:38	9.3	70
10735	2023-04-15T08:51:38	9.8	66.5
10736	2023-04-15T09:01:38	10.3	61.5
10737	2023-04-15T09:11:38	10.9	63.5
10738	2023-04-15T09:21:38	11.1	59.5
10739	2023-04-15T09:31:38	11.5	62
10740	2023-04-15T09:41:38	12	59.5
10741	2023-04-15T09:51:38	12.4	58
10742	2023-04-15T10:01:38	13.2	55.5
10743	2023-04-15T10:11:38	13.7	54.5
10744	2023-04-15T10:21:38	14	53
10745	2023-04-15T10:31:38	14.3	52.5
10746	2023-04-15T10:41:38	14.7	49.5
10747	2023-04-15T10:51:38	15.2	49.5
10748	2023-04-15T11:01:38	15.4	48
10749	2023-04-15T11:11:38	15.6	46
10750	2023-04-15T11:21:38	16	44.5
10751	2023-04-15T11:31:38	16.2	44
10752	2023-04-15T11:41:38	16.6	43
10753	2023-04-15T11:51:38	16.8	44.5
10754	2023-04-15T12:01:38	17.6	40.5
10755	2023-04-15T12:11:38	17.5	40
10756	2023-04-15T12:21:38	18.7	36
10757	2023-04-15T12:31:38	19.8	36.5
10758	2023-04-15T12:41:38	19.7	32.5
10759	2023-04-15T12:51:38	19.6	31
10760	2023-04-15T13:01:38	19.7	30.5
10761	2023-04-15T13:11:38	20.9	29
10762	2023-04-15T13:21:38	20.1	29.5
10763	2023-04-15T13:31:38	18.8	33.5
10764	2023-04-15T13:41:38	17.8	35.5
10765	2023-04-15T13:51:38	17.4	36.5
10766	2023-04-15T14:01:38	17.3	38
10767	2023-04-15T14:11:38	16.8	41.5
10768	2023-04-15T14:21:38	16.2	43
10769	2023-04-15T14:31:38	15.8	44.5
10770	2023-04-15T14:41:38	15.3	48.5
10771	2023-04-15T14:51:38	15.4	47
10772	2023-04-15T15:01:38	15.1	44
10773	2023-04-15T15:11:38	15	43.5
10774	2023-04-15T15:21:58	15.2	44
10775	2023-04-15T15:31:38	15.2	42
10776	2023-04-15T15:41:38	15	42.5
10777	2023-04-15T15:51:38	14.7	42
10778	2023-04-15T16:01:38	14.5	43
10779	2023-04-15T16:11:38	14.4	43
10780	2023-04-15T16:21:37	14.1	46
10781	2023-04-15T16:31:37	13.7	53
10782	2023-04-15T16:41:37	13.5	56
10783	2023-04-15T16:51:37	13.1	58
10784	2023-04-15T17:01:37	12.9	63
10785	2023-04-15T17:11:37	12.4	67.5
10786	2023-04-15T17:21:37	12.2	70.5
10787	2023-04-15T17:31:37	11.8	78.5
10788	2023-04-15T17:41:37	11.6	80.5
10789	2023-04-15T17:51:37	11.5	79.5
10790	2023-04-15T18:01:37	11.1	80
10791	2023-04-15T18:11:37	10.9	81.5
10792	2023-04-15T18:21:37	10.8	82.5
10793	2023-04-15T18:31:37	10.7	81.5
10794	2023-04-15T18:41:37	10.6	84.5
10795	2023-04-15T18:51:37	10.7	85
10796	2023-04-15T19:01:37	10.5	84.5
10797	2023-04-15T19:11:37	10.6	87.5
10798	2023-04-15T19:21:37	10.5	87
10799	2023-04-15T19:31:37	10.4	88
10800	2023-04-15T19:41:37	10.3	88.5
10801	2023-04-15T19:51:37	10	90.5
10802	2023-04-15T20:01:37	9.9	90.5
10803	2023-04-15T20:11:37	9.7	91
10804	2023-04-15T20:21:37	9.7	91.5
10805	2023-04-15T20:31:37	9.6	92
10806	2023-04-15T20:41:37	9.5	92
10807	2023-04-15T20:51:37	9.3	95
10808	2023-04-15T21:01:37	9.1	96.5
10809	2023-04-15T21:11:37	9.1	97
10810	2023-04-15T21:21:37	9	97
10811	2023-04-15T21:31:37	8.9	97.5
10812	2023-04-15T21:41:37	8.8	98
10813	2023-04-15T21:51:37	8.8	98.5
10814	2023-04-15T22:01:37	8.8	98.5
10815	2023-04-15T22:11:37	8.7	99
10816	2023-04-15T22:21:37	8.7	99
10817	2023-04-15T22:31:37	8.7	99
10818	2023-04-15T22:41:37	8.6	99
10819	2023-04-15T22:51:37	8.6	99
10820	2023-04-15T23:01:37	8.6	99.5
10821	2023-04-15T23:11:37	8.5	99.5
10822	2023-04-15T23:21:37	8.5	99.5
10823	2023-04-15T23:31:37	8.5	99.5
10824	2023-04-15T23:41:37	8.5	99.5
10825	2023-04-15T23:51:37	8.4	99.5
10826	2023-04-16T00:01:37	8.4	99.5
10827	2023-04-16T00:11:37	8.5	99.5
10828	2023-04-16T00:21:37	8.5	100
10829	2023-04-16T00:31:37	8.4	100
10830	2023-04-16T00:41:37	8.4	100
10831	2023-04-16T00:51:37	8.4	100
10832	2023-04-16T01:01:37	8.5	100
10833	2023-04-16T01:11:37	8.4	100
10834	2023-04-16T01:21:37	8.4	100
10835	2023-04-16T01:31:37	8.3	100
10836	2023-04-16T01:41:37	8.3	100
10837	2023-04-16T01:51:37	8.2	100
10838	2023-04-16T02:01:37	8.3	100
10839	2023-04-16T02:11:37	8.3	100
10840	2023-04-16T02:21:37	8.2	100
10841	2023-04-16T02:31:37	8.1	100
10842	2023-04-16T02:41:37	8.2	100
10843	2023-04-16T02:51:37	8.2	100
10844	2023-04-16T03:01:37	8.2	100
10845	2023-04-16T03:11:37	8.2	100
10846	2023-04-16T03:21:37	8.1	100
10847	2023-04-16T03:31:37	8.1	100
10848	2023-04-16T03:41:37	8.2	100
10849	2023-04-16T03:51:37	8.1	100
10850	2023-04-16T04:01:37	8.2	100
10851	2023-04-16T04:11:37	8.2	100
10852	2023-04-16T04:21:37	8.1	100
10853	2023-04-16T04:31:37	8.2	100
10854	2023-04-16T04:41:37	8.2	100
10855	2023-04-16T04:51:37	8.1	100
10856	2023-04-16T05:01:37	8.2	100
10857	2023-04-16T05:11:37	8.2	100
10858	2023-04-16T05:21:37	8.2	100
10859	2023-04-16T05:31:37	8.3	100
10860	2023-04-16T05:41:37	8.2	100
10861	2023-04-16T05:51:37	8.2	100
10862	2023-04-16T06:01:37	8.3	100
10863	2023-04-16T06:11:37	8.3	100
10864	2023-04-16T06:21:37	8.4	100
10865	2023-04-16T06:31:37	8.3	100
10866	2023-04-16T06:41:37	8.5	100
10867	2023-04-16T06:51:37	8.6	100
10868	2023-04-16T07:01:37	8.5	99.5
10869	2023-04-16T07:11:37	8.6	99.5
10870	2023-04-16T07:21:37	8.7	99
10871	2023-04-16T07:31:37	8.8	98.5
10872	2023-04-16T07:41:37	8.9	98
10873	2023-04-16T07:51:37	8.8	97
10874	2023-04-16T08:01:37	8.8	96.5
10875	2023-04-16T08:11:37	8.8	97
10876	2023-04-16T08:21:37	8.9	96.5
10877	2023-04-16T08:31:37	9.1	96.5
10878	2023-04-16T08:41:37	9.1	95
10879	2023-04-16T08:51:37	9.1	95
10880	2023-04-16T09:01:37	9.4	95.5
10881	2023-04-16T09:11:37	9.6	95.5
10882	2023-04-16T09:21:37	9.5	94.5
10883	2023-04-16T09:31:37	9.5	94
10884	2023-04-16T09:41:37	9.5	93
10885	2023-04-16T09:51:37	9.4	93
10886	2023-04-16T10:01:36	9.6	94.5
10887	2023-04-16T10:11:37	9.7	94.5
10888	2023-04-16T10:21:36	9.6	91.5
10889	2023-04-16T10:31:36	9.7	92
10890	2023-04-16T10:41:36	9.9	92
10891	2023-04-16T10:51:36	9.9	91.5
10892	2023-04-16T11:01:36	10.1	92.5
10893	2023-04-16T11:11:36	10.3	90.5
10894	2023-04-16T11:21:36	10.4	91
10895	2023-04-16T11:31:36	10.3	92
10896	2023-04-16T11:41:36	10.2	93.5
10897	2023-04-16T11:51:36	10.2	94.5
10898	2023-04-16T12:01:36	10.3	94
10899	2023-04-16T12:11:36	10.3	94.5
10900	2023-04-16T12:21:36	10.3	94
10901	2023-04-16T12:31:36	10.2	95.5
10902	2023-04-16T12:41:36	10.2	96
10903	2023-04-16T12:51:36	9.9	97
10904	2023-04-16T13:01:36	9.8	98.5
10905	2023-04-16T13:11:36	9.8	99
10906	2023-04-16T13:21:36	9.5	99
10907	2023-04-16T13:31:36	9.6	99
10908	2023-04-16T13:41:36	9.5	99
10909	2023-04-16T13:51:36	9.7	99
10910	2023-04-16T14:01:36	9.6	99
10911	2023-04-16T14:11:36	9.6	99
10912	2023-04-16T14:21:36	9.5	99
10913	2023-04-16T14:31:36	9.6	99
10914	2023-04-16T14:41:36	9.4	99.5
10915	2023-04-16T14:51:36	9.5	99.5
10916	2023-04-16T15:01:36	9.5	99.5
10917	2023-04-16T15:11:36	9.4	99.5
10918	2023-04-16T15:21:36	9.5	100
10919	2023-04-16T15:31:36	9.4	99.5
10920	2023-04-16T15:41:36	9.5	100
10921	2023-04-16T15:51:36	9.5	100
10922	2023-04-16T16:01:36	9.5	100
10923	2023-04-16T16:11:36	9.4	100
10924	2023-04-16T16:21:36	9.4	100
10925	2023-04-16T16:31:36	9.4	100
10926	2023-04-16T16:41:36	9.5	100
10927	2023-04-16T16:51:36	9.4	100
10928	2023-04-16T17:01:36	9.4	100
10929	2023-04-16T17:11:36	9.5	100
10930	2023-04-16T17:21:36	9.4	100
10931	2023-04-16T17:31:36	9.4	100
10932	2023-04-16T17:41:36	9.3	100
10933	2023-04-16T17:51:36	9.4	100
10934	2023-04-16T18:01:36	9.4	100
10935	2023-04-16T18:11:36	9.3	100
10936	2023-04-16T18:21:36	9.3	100
10937	2023-04-16T18:31:36	9.3	100
10938	2023-04-16T18:41:36	9.3	100
10939	2023-04-16T18:51:36	9.3	100
10940	2023-04-16T19:01:36	9.2	100
10941	2023-04-16T19:11:36	9.1	100
10942	2023-04-16T19:21:36	9.2	100
10943	2023-04-16T19:31:36	9.2	100
10944	2023-04-16T19:41:36	9.1	100
10945	2023-04-16T19:51:36	9	100
10946	2023-04-16T20:01:36	9	100
10947	2023-04-16T20:11:36	9.2	100
10948	2023-04-16T20:21:36	9.1	100
10949	2023-04-16T20:31:36	9.1	100
10950	2023-04-16T20:41:36	9.1	100
10951	2023-04-16T20:51:36	8.9	100
10952	2023-04-16T21:01:36	8.9	100
10953	2023-04-16T21:11:36	8.9	100
10954	2023-04-16T21:21:36	8.9	100
10955	2023-04-16T21:31:36	8.8	100
10956	2023-04-16T21:41:36	8.9	100
10957	2023-04-16T21:51:36	8.8	100
10958	2023-04-16T22:01:36	8.8	100
10959	2023-04-16T22:11:36	8.8	100
10960	2023-04-16T22:21:36	8.9	100
10961	2023-04-16T22:31:36	8.7	100
10962	2023-04-16T22:41:36	8.8	100
10963	2023-04-16T22:51:36	8.9	100
10964	2023-04-16T23:01:36	9	100
10965	2023-04-16T23:11:36	8.9	100
10966	2023-04-16T23:21:36	8.9	100
10967	2023-04-16T23:31:36	8.8	100
10968	2023-04-16T23:41:36	8.8	100
10969	2023-04-16T23:51:36	8.8	100
10970	2023-04-17T00:01:36	8.8	100
10971	2023-04-17T00:11:36	8.8	100
10972	2023-04-17T00:21:36	8.8	100
10973	2023-04-17T00:31:36	8.7	100
10974	2023-04-17T00:41:36	8.6	100
10975	2023-04-17T00:51:36	8.6	100
10976	2023-04-17T01:01:36	8.5	100
10977	2023-04-17T01:11:36	8.5	100
10978	2023-04-17T01:21:36	8.6	100
10979	2023-04-17T01:31:36	8.5	100
10980	2023-04-17T01:41:36	8.7	100
10981	2023-04-17T01:51:36	8.6	100
10982	2023-04-17T02:01:36	8.4	100
10983	2023-04-17T02:11:36	8.4	100
10984	2023-04-17T02:21:36	8.4	100
10985	2023-04-17T02:31:36	8.6	100
10986	2023-04-17T02:41:36	8.6	100
10987	2023-04-17T02:51:36	8.6	100
10988	2023-04-17T03:01:36	8.7	100
10989	2023-04-17T03:11:36	8.6	100
10990	2023-04-17T03:21:36	8.6	100
10991	2023-04-17T03:31:36	8.7	100
10992	2023-04-17T03:41:36	8.6	100
10993	2023-04-17T03:51:36	8.6	100
10994	2023-04-17T04:01:36	8.6	100
10995	2023-04-17T04:11:36	8.6	100
10996	2023-04-17T04:21:35	8.7	100
10997	2023-04-17T04:31:35	8.5	100
10998	2023-04-17T04:41:36	8.5	100
10999	2023-04-17T04:51:35	8.6	100
11000	2023-04-17T05:01:35	8.5	100
11001	2023-04-17T05:11:35	8.5	100
11002	2023-04-17T05:21:35	8.5	100
11003	2023-04-17T05:31:35	8.6	100
11004	2023-04-17T05:41:35	8.7	100
11005	2023-04-17T05:51:35	8.7	100
11006	2023-04-17T06:01:35	8.8	100
11007	2023-04-17T06:11:35	8.8	100
11008	2023-04-17T06:21:35	8.9	100
11009	2023-04-17T06:31:35	8.9	100
11010	2023-04-17T06:41:35	9.1	100
11011	2023-04-17T06:51:35	9.2	100
11012	2023-04-17T07:11:35	9.3	100
11013	2023-04-17T07:21:35	9.3	100
11014	2023-04-17T07:31:35	9.3	100
11015	2023-04-17T07:41:35	9.7	100
11016	2023-04-17T07:51:35	9.9	100
11017	2023-04-17T08:01:35	10	99
11018	2023-04-17T08:11:35	10	99
11019	2023-04-17T08:21:35	10.4	99
11020	2023-04-17T08:31:35	10.3	98
11021	2023-04-17T08:41:35	10.3	98
11022	2023-04-17T08:51:35	10.5	96
11023	2023-04-17T09:01:35	11.3	94.5
11024	2023-04-17T09:11:35	11.5	91
11025	2023-04-17T09:21:35	11.2	91
11026	2023-04-17T09:31:35	11.6	89
11027	2023-04-17T09:41:35	12.2	88
11028	2023-04-17T09:51:35	12.5	85.5
11029	2023-04-17T10:01:35	12.2	85.5
11030	2023-04-17T10:11:35	12	86
11031	2023-04-17T10:21:35	12.1	87.5
11032	2023-04-17T10:31:35	12.6	86
11033	2023-04-17T10:41:35	12.7	83.5
11034	2023-04-17T10:51:35	12.9	83
11035	2023-04-17T11:01:35	13.2	80.5
11036	2023-04-17T11:11:35	12.8	82
11037	2023-04-17T11:21:35	12.8	84.5
11038	2023-04-17T11:31:35	13.5	78.5
11039	2023-04-17T11:41:35	13.3	79.5
11040	2023-04-17T11:51:35	13.2	81
11041	2023-04-17T12:01:35	13.2	82
11042	2023-04-17T12:11:35	13.4	80.5
11043	2023-04-17T12:21:35	13.9	78.5
11044	2023-04-17T12:31:35	15.3	72
11045	2023-04-17T12:41:35	18.5	59.5
11046	2023-04-17T12:51:35	15.4	67.5
11047	2023-04-17T13:01:35	14.4	68.5
11048	2023-04-17T13:11:35	14	69.5
11049	2023-04-17T13:21:35	13.9	68.5
11050	2023-04-17T13:31:35	14	68
11051	2023-04-17T13:41:35	14.2	70
11052	2023-04-17T13:51:35	13.9	71
11053	2023-04-17T14:01:35	13.8	69
11054	2023-04-17T14:11:35	13.6	69.5
11055	2023-04-17T14:21:35	13.3	70
11056	2023-04-17T14:31:35	13.1	72
11057	2023-04-17T14:41:35	12.8	71.5
11058	2023-04-17T14:51:35	12.7	74.5
11059	2023-04-17T15:01:35	12.7	74
11060	2023-04-17T15:11:35	12.9	71
11061	2023-04-17T15:21:35	13	72
11062	2023-04-17T15:31:35	13.1	69.5
11063	2023-04-17T15:41:35	12.8	71.5
11064	2023-04-17T15:51:35	12.6	71.5
11065	2023-04-17T16:01:35	12.4	72
11066	2023-04-17T16:11:35	11.9	77.5
11067	2023-04-17T16:21:35	11.8	76
11068	2023-04-17T16:31:35	11.9	76
11069	2023-04-17T16:41:35	12	76.5
11070	2023-04-17T16:51:35	12	75
11071	2023-04-17T17:01:35	11.8	76.5
11072	2023-04-17T17:11:35	11.5	77
11073	2023-04-17T17:21:35	11.4	78
11074	2023-04-17T17:31:35	11.3	78.5
11075	2023-04-17T17:41:35	11.3	79
11076	2023-04-17T17:51:35	11.1	80
11077	2023-04-17T18:01:35	11	80.5
11078	2023-04-17T18:11:35	10.9	81
11079	2023-04-17T18:21:35	10.9	80
11080	2023-04-17T18:31:35	10.8	77.5
11081	2023-04-17T18:41:35	10.8	77
11082	2023-04-17T18:51:35	10.8	77
11083	2023-04-17T19:01:35	10.7	77.5
11084	2023-04-17T19:11:35	10.7	77
11085	2023-04-17T19:21:35	10.6	76.5
11086	2023-04-17T19:31:35	10.5	78
11087	2023-04-17T19:41:34	10.4	78.5
11088	2023-04-17T19:51:34	10.4	79
11089	2023-04-17T20:01:34	10.3	78.5
11090	2023-04-17T20:11:34	10.3	80
11091	2023-04-17T20:21:34	10.1	80
11092	2023-04-17T20:31:34	10.1	79.5
11093	2023-04-17T20:41:34	9.8	80.5
11094	2023-04-17T20:51:34	9.8	80.5
11095	2023-04-17T21:01:34	9.7	80.5
11096	2023-04-17T21:11:34	9.3	81
11097	2023-04-17T21:21:34	8.8	83.5
11098	2023-04-17T21:31:34	8.3	84
11099	2023-04-17T21:41:34	8.1	85
11100	2023-04-17T21:51:34	8.2	84.5
11101	2023-04-17T22:01:34	7.9	86
11102	2023-04-17T22:11:34	7.5	87.5
11103	2023-04-17T22:21:34	7.4	88.5
11104	2023-04-17T22:31:34	7.2	89.5
11105	2023-04-17T22:41:34	7	89.5
11106	2023-04-17T22:51:34	6.9	90.5
11107	2023-04-17T23:01:34	6.8	91.5
11108	2023-04-17T23:11:34	6.3	92.5
11109	2023-04-17T23:21:34	6.3	92.5
11110	2023-04-17T23:31:34	6.6	91.5
11111	2023-04-17T23:41:34	6.9	90.5
11112	2023-04-17T23:51:34	6.8	90
11113	2023-04-18T00:01:34	6.4	90.5
11114	2023-04-18T00:11:34	6.1	92
11115	2023-04-18T00:21:34	5.9	93
11116	2023-04-18T00:31:34	5.7	93
11117	2023-04-18T00:41:34	5.6	93.5
11118	2023-04-18T00:51:34	5.6	93.5
11119	2023-04-18T01:01:34	5.6	93.5
11120	2023-04-18T01:11:34	5.8	93.5
11121	2023-04-18T01:21:34	6.2	92
11122	2023-04-18T01:31:34	6.5	90
11123	2023-04-18T01:41:34	6.8	89.5
11124	2023-04-18T01:51:34	6.9	89
11125	2023-04-18T02:01:34	7	88.5
11126	2023-04-18T02:11:34	7	87.5
11127	2023-04-18T02:21:34	7.1	88
11128	2023-04-18T02:31:34	7.1	88
11129	2023-04-18T02:41:34	7.2	88
11130	2023-04-18T02:51:34	7.2	87.5
11131	2023-04-18T03:01:34	7.2	87
11132	2023-04-18T03:11:34	7.4	86.5
11133	2023-04-18T03:21:34	7.3	86.5
11134	2023-04-18T03:31:34	7.3	86
11135	2023-04-18T03:41:34	7.4	85.5
11136	2023-04-18T03:51:34	7.3	85.5
11137	2023-04-18T04:01:34	7.4	85
11138	2023-04-18T04:11:34	7.4	84.5
11139	2023-04-18T04:21:34	7.3	84.5
11140	2023-04-18T04:31:34	7.4	84
11141	2023-04-18T04:41:34	7.4	83
11142	2023-04-18T04:51:34	7.4	83
11143	2023-04-18T05:01:34	7.4	81.5
11144	2023-04-18T05:11:34	7.4	81
11145	2023-04-18T05:21:34	7.6	81
11146	2023-04-18T05:31:34	7.6	80
11147	2023-04-18T05:41:34	7.8	80
11148	2023-04-18T05:51:34	7.9	79.5
11149	2023-04-18T06:01:34	8	79.5
11150	2023-04-18T06:11:34	8.1	79
11151	2023-04-18T06:21:34	8	78.5
11152	2023-04-18T06:31:34	8	78
11153	2023-04-18T06:41:34	8.2	78
11154	2023-04-18T06:51:34	8.2	79
11155	2023-04-18T07:01:34	8.5	78.5
11156	2023-04-18T07:11:34	8.9	77
11157	2023-04-18T07:21:34	9.3	76
11158	2023-04-18T07:31:34	9.5	75
11159	2023-04-18T07:41:34	9.5	76
11160	2023-04-18T07:51:34	9.8	76
11161	2023-04-18T08:01:34	10.1	74.5
11162	2023-04-18T08:11:34	10.1	74
11163	2023-04-18T08:21:34	10.2	74.5
11164	2023-04-18T08:31:34	10.3	74.5
11165	2023-04-18T08:41:34	10.3	75
11166	2023-04-18T08:51:34	10.4	75
11167	2023-04-18T09:01:34	10.5	74.5
11168	2023-04-18T09:11:34	10.8	72.5
11169	2023-04-18T09:21:34	11.3	71.5
11170	2023-04-18T09:31:34	11.8	70
11171	2023-04-18T09:41:34	11.9	71.5
11172	2023-04-18T09:51:34	12.6	69
11173	2023-04-18T10:01:34	13.4	65.5
11174	2023-04-18T10:11:34	13.3	66
11175	2023-04-18T10:21:34	13.6	65.5
11176	2023-04-18T10:31:34	14	64.5
11177	2023-04-18T10:41:34	14.9	60.5
11178	2023-04-18T10:51:34	15.1	60
11179	2023-04-18T11:01:34	15.5	60.5
11180	2023-04-18T11:11:34	15.6	60.5
11181	2023-04-18T11:21:34	15.8	59.5
11182	2023-04-18T11:31:34	16.4	56.5
11183	2023-04-18T11:41:34	16.5	56.5
11184	2023-04-18T11:51:34	16.7	56.5
11185	2023-04-18T12:01:34	17.1	55
11186	2023-04-18T12:11:34	17.1	55
11187	2023-04-18T12:21:34	17.4	55
11188	2023-04-18T12:31:34	18.7	51
11189	2023-04-18T12:41:34	18.9	49.5
11190	2023-04-18T12:51:34	18.2	51.5
11191	2023-04-18T13:01:34	17.6	53.5
11192	2023-04-18T13:11:34	16.9	55.5
11193	2023-04-18T13:21:34	19.7	48.5
11194	2023-04-18T13:31:33	22.3	41
11195	2023-04-18T13:41:33	23.8	37.5
11196	2023-04-18T13:51:33	20.9	44
11197	2023-04-18T14:01:33	19.7	47
11198	2023-04-18T14:11:33	22.8	39.5
11199	2023-04-18T14:21:33	22.8	39
11200	2023-04-18T14:31:33	22.3	40.5
11201	2023-04-18T14:41:33	20.8	43
11202	2023-04-18T14:51:33	23.7	37
11203	2023-04-18T15:01:33	22.9	39.5
11204	2023-04-18T15:11:33	20	45
11205	2023-04-18T15:21:33	19	46.5
11206	2023-04-18T15:31:33	19	48.5
11207	2023-04-18T15:41:33	18.5	49
11208	2023-04-18T15:51:33	18.7	49.5
11209	2023-04-18T16:01:33	18.7	49
11210	2023-04-18T16:11:33	18.8	46.5
11211	2023-04-18T16:21:33	18.3	47.5
11212	2023-04-18T16:31:33	17	51
11213	2023-04-18T16:41:33	16.8	52
11214	2023-04-18T16:51:33	16.5	54
11215	2023-04-18T17:01:33	16.2	54.5
11216	2023-04-18T17:11:33	16	55.5
11217	2023-04-18T17:21:33	15.7	56.5
11218	2023-04-18T17:31:33	15.6	56
11219	2023-04-18T17:41:33	15.2	56.5
11220	2023-04-18T17:51:33	14.7	59
11221	2023-04-18T18:01:33	14.6	60.5
11222	2023-04-18T18:11:33	14.5	61.5
11223	2023-04-18T18:21:33	14.2	61
11224	2023-04-18T18:31:33	14.2	61
11225	2023-04-18T18:41:33	14	61.5
11226	2023-04-18T18:51:33	13.7	63
11227	2023-04-18T19:01:33	13.5	64
11228	2023-04-18T19:11:33	13.5	64.5
11229	2023-04-18T19:21:33	13.3	65.5
11230	2023-04-18T19:31:33	13.2	66.5
11231	2023-04-18T19:41:33	12.8	67.5
11232	2023-04-18T19:51:33	12.4	68
11233	2023-04-18T20:01:33	12.1	69.5
11234	2023-04-18T20:11:33	12	70.5
11235	2023-04-18T20:21:33	12.1	70
11236	2023-04-18T20:31:33	12.2	70
11237	2023-04-18T20:41:33	12.2	70
11238	2023-04-18T20:51:33	12.2	70
11239	2023-04-18T21:01:33	12.1	70
11240	2023-04-18T21:11:33	12	71
11241	2023-04-18T21:21:33	11.9	71
11242	2023-04-18T21:31:33	11.9	71
11243	2023-04-18T21:41:33	11.8	71
11244	2023-04-18T21:51:33	11.8	71
11245	2023-04-18T22:01:33	11.7	71.5
11246	2023-04-18T22:11:33	11.6	72.5
11247	2023-04-18T22:21:33	11.6	73
11248	2023-04-18T22:31:33	11.5	73
11249	2023-04-18T22:41:33	11.4	73
11250	2023-04-18T22:51:33	11.4	73.5
11251	2023-04-18T23:01:33	11.3	73.5
11252	2023-04-18T23:11:33	11.2	74
11253	2023-04-18T23:21:33	11.2	75
11254	2023-04-18T23:31:33	11.1	75.5
11255	2023-04-18T23:41:33	11	75.5
11256	2023-04-19T00:01:33	10.8	75.5
11257	2023-04-19T00:11:33	10.8	76
11258	2023-04-19T00:21:33	10.8	76.5
11259	2023-04-19T00:31:33	10.7	76.5
11260	2023-04-19T00:41:33	10.7	77
11261	2023-04-19T00:51:33	10.6	77
11262	2023-04-19T01:01:33	10.7	77
11263	2023-04-19T01:11:33	10.5	77
11264	2023-04-19T01:21:33	10.5	77.5
11265	2023-04-19T01:31:33	10.5	77.5
11266	2023-04-19T01:41:33	10.4	77.5
11267	2023-04-19T01:51:33	10.4	78
11268	2023-04-19T02:01:33	10.3	78.5
11269	2023-04-19T02:11:33	10.3	78
11270	2023-04-19T02:21:33	10.2	78.5
11271	2023-04-19T02:31:33	10.1	78.5
11272	2023-04-19T02:41:33	10.1	79
11273	2023-04-19T02:51:33	10.1	79
11274	2023-04-19T03:01:33	9.9	79.5
11275	2023-04-19T03:11:33	9.9	80
11276	2023-04-19T03:21:32	9.9	80
11277	2023-04-19T03:31:33	9.8	80
11278	2023-04-19T03:41:32	9.8	80.5
11279	2023-04-19T03:51:32	9.7	80.5
11280	2023-04-19T04:01:32	9.7	80.5
11281	2023-04-19T04:11:32	9.6	80.5
11282	2023-04-19T04:21:32	9.6	81
11283	2023-04-19T04:31:32	9.6	81
11284	2023-04-19T04:41:32	9.5	81
11285	2023-04-19T04:51:32	9.6	80.5
11286	2023-04-19T05:01:32	9.6	80.5
11287	2023-04-19T05:11:32	9.7	80
11288	2023-04-19T05:21:32	9.7	79.5
11289	2023-04-19T05:31:32	9.8	79.5
11290	2023-04-19T05:41:32	9.9	79
11291	2023-04-19T05:51:32	9.9	79
11292	2023-04-19T06:01:32	9.9	79
11293	2023-04-19T06:11:32	10	78.5
11294	2023-04-19T06:21:32	10.2	77.5
11295	2023-04-19T06:31:32	10.5	77.5
11296	2023-04-19T06:41:32	10.9	76
11297	2023-04-19T06:51:32	11	74.5
11298	2023-04-19T07:01:32	10.9	75.5
11299	2023-04-19T07:11:32	11.2	75
11300	2023-04-19T07:21:32	11.1	74
11301	2023-04-19T07:31:32	10.8	75
11302	2023-04-19T07:41:32	11.5	74.5
11303	2023-04-19T07:51:32	11.7	73
11304	2023-04-19T08:01:32	11.7	71.5
11305	2023-04-19T08:11:32	12.1	71
11306	2023-04-19T08:21:32	12.5	69.5
11307	2023-04-19T08:31:32	13	68
11308	2023-04-19T08:41:32	13.3	67
11309	2023-04-19T08:51:32	13.2	65.5
11310	2023-04-19T09:01:32	13.6	64.5
11311	2023-04-19T09:11:32	14.4	62.5
11312	2023-04-19T09:21:32	14.7	61.5
11313	2023-04-19T09:31:32	14.8	60.5
11314	2023-04-19T09:41:32	14.9	59.5
11315	2023-04-19T09:51:32	14.6	59.5
11316	2023-04-19T10:01:32	14.9	58.5
11317	2023-04-19T10:11:32	15.1	58
11318	2023-04-19T10:21:32	15.8	56
11319	2023-04-19T10:31:32	16.2	56
11320	2023-04-19T10:41:32	16.5	53
11321	2023-04-19T10:51:32	15.7	56
11322	2023-04-19T11:01:32	15.5	57
11323	2023-04-19T11:11:32	15.4	57
11324	2023-04-19T11:21:32	15.1	58.5
11325	2023-04-19T11:31:32	15.3	59.5
11326	2023-04-19T11:41:32	15.3	59.5
11327	2023-04-19T11:51:32	14.9	60
11328	2023-04-19T12:01:32	14.6	62
11329	2023-04-19T12:11:32	14.2	62.5
11330	2023-04-19T12:21:32	14	67
11331	2023-04-19T12:31:32	13.9	69.5
11332	2023-04-19T12:41:32	13.6	76.5
11333	2023-04-19T12:51:32	13.5	75
11334	2023-04-19T13:01:32	13.2	74.5
11335	2023-04-19T13:11:32	12.9	78.5
11336	2023-04-19T13:21:32	12.7	80.5
11337	2023-04-19T13:31:32	12.5	81.5
11338	2023-04-19T13:41:32	12.5	83.5
11339	2023-04-19T13:51:32	12.4	83
11340	2023-04-19T14:01:32	12.6	82
11341	2023-04-19T14:11:32	12.6	81
11342	2023-04-19T14:21:32	12.5	81
11343	2023-04-19T14:31:32	13.1	81
11344	2023-04-19T14:41:32	13.3	78.5
11345	2023-04-19T14:51:32	13.3	78
11346	2023-04-19T15:01:32	13.9	74
11347	2023-04-19T15:11:32	16	66
11348	2023-04-19T15:21:32	16.3	64.5
11349	2023-04-19T15:31:32	17	60.5
11350	2023-04-19T15:41:32	21.7	46.5
11351	2023-04-19T15:51:32	20.8	50
11352	2023-04-19T16:01:32	18.4	55
11353	2023-04-19T16:11:32	16.5	60.5
11354	2023-04-19T16:21:32	15.3	64
11355	2023-04-19T16:31:32	14.5	66
11356	2023-04-19T16:41:32	13.2	64.5
11357	2023-04-19T16:51:32	12.5	65
11358	2023-04-19T17:01:32	12.3	64
11359	2023-04-19T17:11:32	15	57
11360	2023-04-19T17:21:32	13.7	55.5
11361	2023-04-19T17:31:32	12.8	51.5
11362	2023-04-19T17:41:31	12.3	57.5
11363	2023-04-19T17:51:32	11.8	62
11364	2023-04-19T18:01:31	11.1	64
11365	2023-04-19T18:11:31	10.6	67.5
11366	2023-04-19T18:21:31	10.2	71.5
11367	2023-04-19T18:31:31	9.8	66.5
11368	2023-04-19T18:41:31	9.5	61
11369	2023-04-19T18:51:31	9.4	56.5
11370	2023-04-19T19:01:31	9.3	56
11371	2023-04-19T19:11:31	9.2	54.5
11372	2023-04-19T19:21:31	9	54
11373	2023-04-19T19:31:31	8.8	56
11374	2023-04-19T19:41:31	8.6	56
11375	2023-04-19T19:51:31	8.2	59
11376	2023-04-19T20:01:31	8	59
11377	2023-04-19T20:11:31	7.9	61
11378	2023-04-19T20:21:31	7.6	62
11379	2023-04-19T20:31:31	7.4	62.5
11380	2023-04-19T20:41:31	7.2	63
11381	2023-04-19T20:51:31	7	65
11382	2023-04-19T21:01:31	6.7	66
11383	2023-04-19T21:11:31	6.4	68.5
11384	2023-04-19T21:21:31	6.2	70.5
11385	2023-04-19T21:31:31	6	69.5
11386	2023-04-19T21:41:31	5.8	71.5
11387	2023-04-19T21:51:31	5.5	76.5
11388	2023-04-19T22:01:31	5.4	77.5
11389	2023-04-19T22:11:31	5.3	76
11390	2023-04-19T22:21:31	4.9	78
11391	2023-04-19T22:31:31	4.7	80.5
11392	2023-04-19T22:41:31	4.8	80
11393	2023-04-19T22:51:31	4.4	81.5
11394	2023-04-19T23:01:31	4.1	83
11395	2023-04-19T23:11:31	3.9	83
11396	2023-04-19T23:21:31	3.9	83
11397	2023-04-19T23:31:31	3.9	82.5
11398	2023-04-19T23:41:31	3.5	83.5
11399	2023-04-19T23:51:31	3.4	84
11400	2023-04-20T00:01:31	3.3	84.5
11401	2023-04-20T00:11:31	3.2	84
11402	2023-04-20T00:21:31	3.2	84.5
11403	2023-04-20T00:31:31	3	85
11404	2023-04-20T00:41:31	2.8	86
11405	2023-04-20T00:51:31	2.7	86
11406	2023-04-20T01:01:31	2.5	86.5
11407	2023-04-20T01:11:31	2.4	87
11408	2023-04-20T01:21:31	2.3	87.5
11409	2023-04-20T01:31:31	2.1	87.5
11410	2023-04-20T01:41:31	2	88.5
11411	2023-04-20T01:51:31	2.1	87
11412	2023-04-20T02:01:31	1.8	88.5
11413	2023-04-20T02:11:31	1.6	89.5
11414	2023-04-20T02:21:31	1.5	90
11415	2023-04-20T02:31:31	1.4	89.5
11416	2023-04-20T02:41:31	1.3	90
11417	2023-04-20T02:51:31	1.1	90.5
11418	2023-04-20T03:01:31	0.9	91
11419	2023-04-20T03:11:31	1.1	91
11420	2023-04-20T03:21:31	0.7	92
11421	2023-04-20T03:31:31	0.7	93
11422	2023-04-20T03:41:31	0.6	93
11423	2023-04-20T03:51:31	0.6	93.5
11424	2023-04-20T04:01:31	0.5	93.5
11425	2023-04-20T04:11:31	0.6	93
11426	2023-04-20T04:21:31	0.6	93
11427	2023-04-20T04:31:31	0.6	93
11428	2023-04-20T04:41:31	0.9	92
11429	2023-04-20T04:51:31	1	91
11430	2023-04-20T05:01:31	1	91
11431	2023-04-20T05:11:31	1	91
11432	2023-04-20T05:21:31	1.2	92
11433	2023-04-20T05:31:31	1.2	92.5
11434	2023-04-20T05:41:31	1.5	92
11435	2023-04-20T05:51:31	1.8	91
11436	2023-04-20T06:01:31	2	89.5
11437	2023-04-20T06:11:31	2.2	89.5
11438	2023-04-20T06:21:31	2.7	88.5
11439	2023-04-20T06:31:31	2.9	89
11440	2023-04-20T06:41:31	3.6	84.5
11441	2023-04-20T06:51:31	4	81
11442	2023-04-20T07:01:50	4.3	80
11443	2023-04-20T07:11:31	4.6	80
11444	2023-04-20T07:21:31	4.8	80
11445	2023-04-20T07:31:31	5.1	79.5
11446	2023-04-20T07:41:31	5.3	78.5
11447	2023-04-20T07:51:31	5.5	79
11448	2023-04-20T08:01:31	5.9	78.5
11449	2023-04-20T08:11:31	6.2	77
11450	2023-04-20T08:21:31	6.3	78
11451	2023-04-20T08:31:31	6.7	78.5
11452	2023-04-20T08:41:31	7.1	74.5
11453	2023-04-20T08:51:31	7.3	74
11454	2023-04-20T09:01:31	7.8	72
11455	2023-04-20T09:11:31	7.9	71
11456	2023-04-20T09:21:31	8.5	71
11457	2023-04-20T09:31:31	9.6	66
11458	2023-04-20T09:41:31	10.5	62.5
11459	2023-04-20T09:51:31	11.2	57
11460	2023-04-20T10:01:31	12.1	55.5
11461	2023-04-20T10:11:31	12.1	55.5
11462	2023-04-20T10:21:31	11.8	57
11463	2023-04-20T10:31:31	12	55
11464	2023-04-20T10:41:31	12.8	56.5
11465	2023-04-20T10:51:31	12.7	56
11466	2023-04-20T11:01:31	13.4	53.5
11467	2023-04-20T11:11:31	13.9	51.5
11468	2023-04-20T11:21:31	14.4	48
11469	2023-04-20T11:31:31	14.3	47.5
11470	2023-04-20T11:41:31	14.3	50.5
11471	2023-04-20T11:51:31	14.3	51.5
11472	2023-04-20T12:01:31	14.1	51
11473	2023-04-20T12:11:31	15	49
11474	2023-04-20T12:21:31	14.8	52
11475	2023-04-20T12:31:31	15.1	51
11476	2023-04-20T12:41:31	17	45
11477	2023-04-20T12:51:31	21.6	36
11478	2023-04-20T13:01:31	17.2	42.5
11479	2023-04-20T13:11:31	15.2	47.5
11480	2023-04-20T13:21:31	14	50
11481	2023-04-20T13:31:31	13.2	53
11482	2023-04-20T13:41:31	12.5	56.5
11483	2023-04-20T13:51:31	12.2	59
11484	2023-04-20T14:01:31	12	60
11485	2023-04-20T14:11:31	12	60
11486	2023-04-20T14:21:31	11.9	59.5
11487	2023-04-20T14:31:31	11.7	60.5
11488	2023-04-20T14:41:31	11.6	59.5
11489	2023-04-20T14:51:31	11.7	59
11490	2023-04-20T15:01:31	11.6	60
11491	2023-04-20T15:11:31	11.6	60.5
11492	2023-04-20T15:21:31	11.5	61.5
11493	2023-04-20T15:31:31	11.3	61
11494	2023-04-20T15:41:31	11.2	62
11495	2023-04-20T15:51:31	11.1	62
11496	2023-04-20T16:01:31	11	63.5
11497	2023-04-20T16:11:31	10.8	64.5
11498	2023-04-20T16:21:31	10.7	66.5
11499	2023-04-20T16:31:31	10.5	68
11500	2023-04-20T16:41:31	10.3	68.5
11501	2023-04-20T16:51:31	10.2	69
11502	2023-04-20T17:01:30	10.1	68.5
11503	2023-04-20T17:11:30	9.9	69
11504	2023-04-20T17:21:30	9.8	69
11505	2023-04-20T17:31:30	9.7	70
11506	2023-04-20T17:41:30	9.7	71
11507	2023-04-20T17:51:30	9.6	71.5
11508	2023-04-20T18:01:30	9.6	72
11509	2023-04-20T18:11:30	9.5	72.5
11510	2023-04-20T18:21:30	9.2	73.5
11511	2023-04-20T18:31:30	8.7	75
11512	2023-04-20T18:41:30	8.7	76
11513	2023-04-20T18:51:30	8.5	77
11514	2023-04-20T19:01:30	8.5	77.5
11515	2023-04-20T19:11:30	8.4	78.5
11516	2023-04-20T19:21:30	8	79.5
11517	2023-04-20T19:31:31	7.8	81
11518	2023-04-20T19:41:30	7.4	82.5
11519	2023-04-20T19:51:30	7	84.5
11520	2023-04-20T20:01:30	6.8	86
11521	2023-04-20T20:11:30	6.5	87.5
11522	2023-04-20T20:21:30	6.2	88
11523	2023-04-20T20:31:30	6.2	88
11524	2023-04-20T20:41:30	6.2	88.5
11525	2023-04-20T20:51:30	6	89
11526	2023-04-20T21:01:30	5.8	90
11527	2023-04-20T21:11:30	5.7	90.5
11528	2023-04-20T21:21:30	5.6	91
11529	2023-04-20T21:31:30	5.4	91.5
11530	2023-04-20T21:51:30	4.9	93.5
11531	2023-04-20T22:01:30	4.8	93.5
11532	2023-04-20T22:11:30	4.5	94
11533	2023-04-20T22:21:30	4.3	94.5
11534	2023-04-20T22:31:30	4.2	95
11535	2023-04-20T22:41:30	4.1	95
11536	2023-04-20T22:51:30	3.9	94.5
11537	2023-04-20T23:01:30	3.8	95
11538	2023-04-20T23:11:30	3.8	95.5
11539	2023-04-20T23:21:30	3.6	94.5
11540	2023-04-20T23:31:30	3.4	94.5
11541	2023-04-20T23:41:30	3.4	95
11542	2023-04-20T23:51:30	3.2	95
11543	2023-04-21T00:01:30	3.1	95.5
11544	2023-04-21T00:11:30	3	95.5
11545	2023-04-21T00:21:30	2.7	95.5
11546	2023-04-21T00:31:30	2.6	96
11547	2023-04-21T00:41:30	2.5	96
11548	2023-04-21T00:51:30	2.5	96.5
11549	2023-04-21T01:01:30	2.5	96.5
11550	2023-04-21T01:11:30	2.3	96.5
11551	2023-04-21T01:21:30	2.1	97
11552	2023-04-21T01:31:30	2	97
11553	2023-04-21T01:41:30	2	97
11554	2023-04-21T01:51:30	1.9	97.5
11555	2023-04-21T02:01:30	1.9	97.5
11556	2023-04-21T02:11:30	1.7	97.5
11557	2023-04-21T02:21:30	1.6	98
11558	2023-04-21T02:31:30	1.8	98
11559	2023-04-21T02:41:30	1.5	98
11560	2023-04-21T02:51:30	1.4	98
11561	2023-04-21T03:01:30	1.3	98.5
11562	2023-04-21T03:11:30	1.2	98.5
11563	2023-04-21T03:21:30	1.2	98.5
11564	2023-04-21T03:31:30	1.1	98.5
11565	2023-04-21T03:41:30	1	98.5
11566	2023-04-21T03:51:30	0.9	98.5
11567	2023-04-21T04:01:30	0.9	98.5
11568	2023-04-21T04:11:30	0.7	98.5
11569	2023-04-21T04:21:30	0.6	98.5
11570	2023-04-21T04:31:30	0.7	99
11571	2023-04-21T04:41:30	0.6	99
11572	2023-04-21T04:51:30	0.7	99
11573	2023-04-21T05:01:30	0.7	99
11574	2023-04-21T05:11:30	0.6	99
11575	2023-04-21T05:21:30	0.6	99
11576	2023-04-21T05:31:30	0.6	99.5
11577	2023-04-21T05:41:30	0.6	99.5
11578	2023-04-21T05:51:30	0.5	99.5
11579	2023-04-21T06:01:30	0.8	99.5
11580	2023-04-21T06:11:30	1	100
11581	2023-04-21T06:21:30	1.2	100
11582	2023-04-21T06:31:30	1.7	100
11583	2023-04-21T06:41:30	1.9	100
11584	2023-04-21T06:51:30	2.5	100
11585	2023-04-21T07:01:30	3	100
11586	2023-04-21T07:11:30	3.6	100
11587	2023-04-21T07:21:30	4	100
11588	2023-04-21T07:31:30	4.7	100
11589	2023-04-21T07:41:30	5.1	100
11590	2023-04-21T07:51:30	5.8	99.5
11591	2023-04-21T08:01:30	6.4	98
11592	2023-04-21T08:11:30	7	94
11593	2023-04-21T08:21:30	7.5	91
11594	2023-04-21T08:31:30	7.9	88.5
11595	2023-04-21T08:41:30	8.2	87
11596	2023-04-21T08:51:30	8.7	85.5
11597	2023-04-21T09:11:30	9.6	80.5
11598	2023-04-21T09:21:30	10	79.5
11599	2023-04-21T09:31:30	10.3	80.5
11600	2023-04-21T09:41:30	10.8	78
11601	2023-04-21T09:51:30	11.2	77
11602	2023-04-21T10:01:30	11.6	75
11603	2023-04-21T10:11:30	11.9	76.5
11604	2023-04-21T10:21:30	12.4	74.5
11605	2023-04-21T10:41:30	13.1	71.5
11606	2023-04-21T10:51:30	13.3	72
11607	2023-04-21T11:01:30	13.6	69
11608	2023-04-21T11:11:30	14	67.5
11609	2023-04-21T11:21:30	14.4	66
11610	2023-04-21T11:31:30	14.8	66.5
11611	2023-04-21T11:41:30	15.1	67
11612	2023-04-21T11:51:30	15.6	65
11613	2023-04-21T12:01:30	16.3	64
11614	2023-04-21T12:11:30	20.4	51
11615	2023-04-21T12:21:30	23	43.5
11616	2023-04-21T12:31:30	24.8	39
11617	2023-04-21T12:41:30	26.6	35.5
11618	2023-04-21T12:51:30	27	34.5
11619	2023-04-21T13:01:30	27.8	32.5
11620	2023-04-21T13:11:30	28.2	32.5
11621	2023-04-21T13:21:30	27.6	32
11622	2023-04-21T13:31:30	27.7	32.5
11623	2023-04-21T13:41:30	29.6	30
11624	2023-04-21T13:51:30	30.6	28.5
11625	2023-04-21T14:01:30	25.4	36
11626	2023-04-21T14:11:30	23.5	40.5
11627	2023-04-21T14:21:30	22.3	42.5
11628	2023-04-21T14:31:30	21.7	45.5
11629	2023-04-21T14:41:30	21.1	46
11630	2023-04-21T14:51:30	20.4	48
11631	2023-04-21T15:01:30	19.9	51
11632	2023-04-21T15:11:30	18.4	49.5
11633	2023-04-21T15:21:29	16.5	52.5
11634	2023-04-21T15:31:29	13.6	92
11635	2023-04-21T15:41:29	14.2	96
11636	2023-04-21T15:51:29	14.4	96
11637	2023-04-21T16:01:29	16.1	95.5
11638	2023-04-21T16:11:29	16.8	88.5
11639	2023-04-21T16:21:29	16.4	91.5
11640	2023-04-21T16:31:29	16.3	88.5
11641	2023-04-21T16:41:29	16.2	83.5
11642	2023-04-21T16:51:29	16.1	78
11643	2023-04-21T17:01:29	15.7	78.5
11644	2023-04-21T17:11:29	16.5	72
11645	2023-04-21T17:21:29	19.5	70
11646	2023-04-21T17:31:30	18.5	71
11647	2023-04-21T17:41:29	16.9	74
11648	2023-04-21T17:51:29	15.7	78.5
11649	2023-04-21T18:01:29	15.2	81
11650	2023-04-21T18:11:29	14.8	83
11651	2023-04-21T18:21:29	14.5	86
11652	2023-04-21T18:31:29	14	85.5
11653	2023-04-21T18:41:29	13.8	85
11654	2023-04-21T18:51:29	13.7	84.5
11655	2023-04-21T19:01:29	13.3	83.5
11656	2023-04-21T19:11:29	13.2	83.5
11657	2023-04-21T19:21:29	13.1	82.5
11658	2023-04-21T19:31:29	13.2	83.5
11659	2023-04-21T19:41:29	13.2	80.5
11660	2023-04-21T19:51:29	13.1	80.5
11661	2023-04-21T20:01:29	12.9	82.5
11662	2023-04-21T20:11:29	12.9	82
11663	2023-04-21T20:21:29	12.8	83
11664	2023-04-21T20:31:29	12.7	82.5
11665	2023-04-21T20:41:29	12.7	84
11666	2023-04-21T20:51:29	12.4	84
11667	2023-04-21T21:01:29	12.4	84.5
11668	2023-04-21T21:11:29	12.4	86
11669	2023-04-21T21:21:29	12.3	85.5
11670	2023-04-21T21:31:29	12.2	86.5
11671	2023-04-21T21:41:29	12.1	86
11672	2023-04-21T21:51:30	12	85
11673	2023-04-21T22:01:29	12	86.5
11674	2023-04-21T22:11:29	11.7	87.5
11675	2023-04-21T22:21:29	11.7	87
11676	2023-04-21T22:31:29	11.6	87
11677	2023-04-21T22:41:29	11.6	86.5
11678	2023-04-21T22:51:29	11.5	86
11679	2023-04-21T23:01:29	11.3	85.5
11680	2023-04-21T23:11:29	11.1	86.5
11681	2023-04-21T23:21:29	10.8	88
11682	2023-04-21T23:31:29	10.8	88.5
11683	2023-04-21T23:41:29	10.7	89.5
11684	2023-04-21T23:51:29	10.7	90
11685	2023-04-22T00:01:29	10.6	89.5
11686	2023-04-22T00:11:29	10.4	89.5
11687	2023-04-22T00:21:29	10.5	90.5
11688	2023-04-22T00:31:29	10.3	90.5
11689	2023-04-22T00:41:29	10.2	91.5
11690	2023-04-22T00:51:29	10.2	92
11691	2023-04-22T01:01:29	10.1	92
11692	2023-04-22T01:11:29	9.9	91.5
11693	2023-04-22T01:21:29	9.9	92
11694	2023-04-22T01:31:29	9.7	92
11695	2023-04-22T01:41:29	9.5	92
11696	2023-04-22T01:51:29	9.3	93
11697	2023-04-22T02:01:29	9.1	93.5
11698	2023-04-22T02:11:29	9.2	93
11699	2023-04-22T02:21:29	9.1	93
11700	2023-04-22T02:31:29	8.9	91.5
11701	2023-04-22T02:41:29	8.7	93
11702	2023-04-22T02:51:29	8.5	93
11703	2023-04-22T03:01:29	8.3	94
11704	2023-04-22T03:11:29	8	95
11705	2023-04-22T03:21:29	8.2	95.5
11706	2023-04-22T03:31:29	7.9	95.5
11707	2023-04-22T03:41:29	7.9	95.5
11708	2023-04-22T03:51:29	7.8	94.5
11709	2023-04-22T04:01:49	7.9	94
11710	2023-04-22T04:11:29	7.6	95
11711	2023-04-22T04:21:29	7.5	95.5
11712	2023-04-22T04:31:29	7.3	95.5
11713	2023-04-22T04:41:29	7.1	96
11714	2023-04-22T04:51:29	7.2	96
11715	2023-04-22T05:01:29	7.2	96.5
11716	2023-04-22T05:11:29	7.1	96.5
11717	2023-04-22T05:21:29	7.1	97
11718	2023-04-22T05:31:29	7.2	96.5
11719	2023-04-22T05:41:29	7.6	96
11720	2023-04-22T05:51:29	7.8	96
11721	2023-04-22T06:01:29	8.2	95.5
11722	2023-04-22T06:11:29	8.4	95.5
11723	2023-04-22T06:21:28	8.8	94
11724	2023-04-22T06:31:28	9.2	93
11725	2023-04-22T06:41:28	9.3	91
11726	2023-04-22T06:51:28	9.2	93.5
11727	2023-04-22T07:01:28	9.5	92.5
11728	2023-04-22T07:11:28	10.1	92
11729	2023-04-22T07:21:28	10.4	89.5
11730	2023-04-22T07:31:28	10.8	87
11731	2023-04-22T07:41:28	11.2	84
11732	2023-04-22T07:51:28	11.6	84.5
11733	2023-04-22T08:01:28	11.8	83.5
11734	2023-04-22T08:11:28	12.6	75.5
11735	2023-04-22T08:21:28	13	75.5
11736	2023-04-22T08:31:28	13.7	73
11737	2023-04-22T08:41:28	13.8	73.5
11738	2023-04-22T08:51:28	14.2	75.5
11739	2023-04-22T09:01:28	14.6	74
11740	2023-04-22T09:11:28	14.7	74.5
11741	2023-04-22T09:21:28	14.9	74
11742	2023-04-22T09:31:28	15.4	71.5
11743	2023-04-22T09:41:28	15.6	72.5
11744	2023-04-22T09:51:28	16.1	70
11745	2023-04-22T10:01:28	17	60.5
11746	2023-04-22T10:11:28	17.7	56
11747	2023-04-22T10:21:28	18.1	56
11748	2023-04-22T10:31:28	18.8	58
11749	2023-04-22T10:41:28	19.2	55.5
11750	2023-04-22T10:51:28	19.4	53.5
11751	2023-04-22T11:01:28	20.3	41.5
11752	2023-04-22T11:11:28	20.7	39.5
11753	2023-04-22T11:21:28	21.2	39
11754	2023-04-22T11:31:28	21.6	37
11755	2023-04-22T11:41:28	21.5	37.5
11756	2023-04-22T11:51:28	21.7	37.5
11757	2023-04-22T12:01:28	22.5	33
11758	2023-04-22T12:11:28	23.7	32.5
11759	2023-04-22T12:21:28	23.2	33.5
11760	2023-04-22T12:31:28	23.2	32.5
11761	2023-04-22T12:41:28	23.8	33.5
11762	2023-04-22T12:51:28	23.2	33.5
11763	2023-04-22T13:01:28	25.4	30
11764	2023-04-22T13:11:28	26.9	28.5
11765	2023-04-22T13:21:28	24.9	30
11766	2023-04-22T13:31:28	25.8	30.5
11767	2023-04-22T13:41:28	27.4	28
11768	2023-04-22T13:51:28	28.4	27.5
11769	2023-04-22T14:01:28	27.8	29.5
11770	2023-04-22T14:11:28	31.2	22
11771	2023-04-22T14:21:28	26.8	29
11772	2023-04-22T14:31:28	25.2	34.5
11773	2023-04-22T14:41:28	25.1	33
11774	2023-04-22T14:51:28	24.1	34
11775	2023-04-22T15:01:28	23.7	37
11776	2023-04-22T15:11:28	23.3	37.5
11777	2023-04-22T15:21:28	22.9	38
11778	2023-04-22T15:31:28	22.9	38
11779	2023-04-22T15:41:28	22.6	38.5
11780	2023-04-22T15:51:28	22	36.5
11781	2023-04-22T16:01:28	21.7	39
11782	2023-04-22T16:11:28	21.4	38.5
11783	2023-04-22T16:21:28	21.4	38
11784	2023-04-22T16:31:28	21.3	39
11785	2023-04-22T16:41:28	21	40
11786	2023-04-22T16:51:28	20.8	41.5
11787	2023-04-22T17:01:28	20.6	42
11788	2023-04-22T17:11:28	20.2	40.5
11789	2023-04-22T17:21:28	20.1	41.5
11790	2023-04-22T17:31:28	19.4	44.5
11791	2023-04-22T17:41:28	19.2	45
11792	2023-04-22T17:51:28	18.6	48
11793	2023-04-22T18:01:28	18.3	49
11794	2023-04-22T18:11:27	18	50
11795	2023-04-22T18:21:27	17.8	51
11796	2023-04-22T18:31:27	17.6	52
11797	2023-04-22T18:41:27	17.4	52.5
11798	2023-04-22T18:51:27	17.3	53.5
11799	2023-04-22T19:01:27	17	54.5
11800	2023-04-22T19:11:27	16.8	57
11801	2023-04-22T19:21:27	16.5	59.5
11802	2023-04-22T19:31:27	16.4	61.5
11803	2023-04-22T19:41:27	16.1	63.5
11804	2023-04-22T19:51:27	15.9	65.5
11805	2023-04-22T20:01:27	15.7	66.5
11806	2023-04-22T20:11:27	15.2	68.5
11807	2023-04-22T20:21:27	15.1	69
11808	2023-04-22T20:31:27	15	70.5
11809	2023-04-22T20:41:27	14.9	70.5
11810	2023-04-22T20:51:27	14.8	71
11811	2023-04-22T21:01:27	14.5	71.5
11812	2023-04-22T21:11:27	14.3	72
11813	2023-04-22T21:21:27	14.2	72.5
11814	2023-04-22T21:31:44	14.2	73
11815	2023-04-22T21:41:27	14.2	73.5
11816	2023-04-22T21:51:27	14.2	75
11817	2023-04-22T22:01:27	14.1	75
11818	2023-04-22T22:11:27	14.2	75.5
11819	2023-04-22T22:21:27	14.2	75
11820	2023-04-22T22:31:27	14.1	75.5
11821	2023-04-22T22:41:27	14.2	76.5
11822	2023-04-22T22:51:27	14.1	76.5
11823	2023-04-22T23:01:27	13.9	76
11824	2023-04-22T23:11:27	13.8	79
11825	2023-04-22T23:21:27	13.5	82.5
11826	2023-04-22T23:31:27	13.4	83
11827	2023-04-22T23:41:27	13.2	89.5
11828	2023-04-22T23:51:27	13	88.5
11829	2023-04-23T00:01:27	13.1	89
11830	2023-04-23T00:11:27	12.7	91
11831	2023-04-23T00:21:27	12.6	93.5
11832	2023-04-23T00:31:27	12.4	94.5
11833	2023-04-23T00:41:27	12.3	94.5
11834	2023-04-23T00:51:27	12.1	94.5
11835	2023-04-23T01:01:27	12.1	94.5
11836	2023-04-23T01:11:27	12.1	94.5
11837	2023-04-23T01:21:27	12.1	93.5
11838	2023-04-23T01:31:27	12.1	93.5
11839	2023-04-23T01:41:27	12.1	94
11840	2023-04-23T01:51:27	11.9	93.5
11841	2023-04-23T02:01:27	12.1	93
11842	2023-04-23T02:11:27	11.9	94
11843	2023-04-23T02:21:27	11.9	94
11844	2023-04-23T02:31:27	11.9	93.5
11845	2023-04-23T02:41:27	11.9	93
11846	2023-04-23T02:51:27	11.9	93
11847	2023-04-23T03:01:27	11.8	93
11848	2023-04-23T03:11:27	11.8	92.5
11849	2023-04-23T03:21:27	11.8	92.5
11850	2023-04-23T03:31:27	11.8	95
11851	2023-04-23T03:41:27	11.7	96
11852	2023-04-23T03:51:27	11.6	97.5
11853	2023-04-23T04:01:27	11.6	98.5
11854	2023-04-23T04:11:27	11.6	99
11855	2023-04-23T04:21:27	11.6	99.5
11856	2023-04-23T04:31:27	11.4	99.5
11857	2023-04-23T04:41:27	11.5	100
11858	2023-04-23T04:51:27	11.4	100
11859	2023-04-23T05:01:27	11.5	100
11860	2023-04-23T05:11:27	11.5	100
11861	2023-04-23T05:21:27	11.3	100
11862	2023-04-23T05:31:27	10.9	100
11863	2023-04-23T05:41:27	11	100
11864	2023-04-23T05:51:27	11.3	100
11865	2023-04-23T06:01:27	11.7	100
11866	2023-04-23T06:11:27	11.9	100
11867	2023-04-23T06:21:27	11.7	100
11868	2023-04-23T06:31:27	11.5	100
11869	2023-04-23T06:41:27	11.6	100
11870	2023-04-23T06:51:27	11.9	100
11871	2023-04-23T07:01:27	12.3	100
11872	2023-04-23T07:11:27	12.7	99.5
11873	2023-04-23T07:21:27	13	99.5
11874	2023-04-23T07:31:27	13.3	99.5
11875	2023-04-23T07:41:27	13.3	99.5
11876	2023-04-23T07:51:27	13.7	100
11877	2023-04-23T08:01:27	13.7	98.5
11878	2023-04-23T08:11:27	13.9	98
11879	2023-04-23T08:21:27	13.8	96
11880	2023-04-23T08:31:26	13.9	96
11881	2023-04-23T08:41:26	14.4	89.5
11882	2023-04-23T08:51:26	15	91.5
11883	2023-04-23T09:01:26	15.3	87
11884	2023-04-23T09:11:26	15.5	86.5
11885	2023-04-23T09:21:26	15.6	87.5
11886	2023-04-23T09:31:26	15.7	85.5
11887	2023-04-23T09:41:26	16.4	73.5
11888	2023-04-23T09:51:26	17.2	67.5
11889	2023-04-23T10:01:26	17.6	65
11890	2023-04-23T10:11:26	17.6	57.5
11891	2023-04-23T10:21:26	17.8	58.5
11892	2023-04-23T10:31:26	17.7	56
11893	2023-04-23T10:41:26	17.9	57
11894	2023-04-23T10:51:26	17.9	54.5
11895	2023-04-23T11:01:26	18.2	53
11896	2023-04-23T11:11:26	18.5	56.5
11897	2023-04-23T11:21:26	18.7	57.5
11898	2023-04-23T11:31:26	18.7	53.5
11899	2023-04-23T11:41:26	18.8	50.5
11900	2023-04-23T11:51:26	19.6	52.5
11901	2023-04-23T12:01:26	20.8	51.5
11902	2023-04-23T12:11:26	21.9	45.5
11903	2023-04-23T12:21:26	23.6	40
11904	2023-04-23T12:31:26	23	41
11905	2023-04-23T12:41:26	25.7	34.5
11906	2023-04-23T12:51:26	27	33
11907	2023-04-23T13:01:26	27.9	30
11908	2023-04-23T13:11:26	28.2	28
11909	2023-04-23T13:21:26	28.4	28
11910	2023-04-23T13:31:26	28.6	27.5
11911	2023-04-23T13:41:26	30.9	26.5
11912	2023-04-23T13:51:26	27.9	30
11913	2023-04-23T14:01:26	26.7	30
11914	2023-04-23T14:11:26	25	31.5
11915	2023-04-23T14:21:26	24.1	35
11916	2023-04-23T14:31:26	24	35
11917	2023-04-23T14:41:26	23.6	33
11918	2023-04-23T14:51:26	24.4	32
11919	2023-04-23T15:01:26	24.4	34
11920	2023-04-23T15:11:26	24.1	34.5
11921	2023-04-23T15:21:26	23.1	35
11922	2023-04-23T15:31:26	22.2	36.5
11923	2023-04-23T15:41:26	21.2	42.5
11924	2023-04-23T15:51:26	18.5	73.5
11925	2023-04-23T16:01:26	17.2	81
11926	2023-04-23T16:11:26	17	72
11927	2023-04-23T16:21:26	16.9	80.5
11928	2023-04-23T16:31:26	16.4	81
11929	2023-04-23T16:41:26	16.6	72
11930	2023-04-23T16:51:26	16.1	73.5
11931	2023-04-23T17:01:26	16.2	76
11932	2023-04-23T17:11:26	16.5	76.5
11933	2023-04-23T17:21:26	17	78
11934	2023-04-23T17:31:26	16.9	78.5
11935	2023-04-23T17:41:26	16.6	79.5
11936	2023-04-23T17:51:26	16.6	79.5
11937	2023-04-23T18:01:26	16.4	80.5
11938	2023-04-23T18:11:26	16.1	81.5
11939	2023-04-23T18:21:26	16.1	81
11940	2023-04-23T18:31:26	15.8	80.5
11941	2023-04-23T18:41:26	14.8	91
11942	2023-04-23T18:51:26	13.4	95.5
11943	2023-04-23T19:01:26	13	97
11944	2023-04-23T19:11:26	12.7	97.5
11945	2023-04-23T19:21:26	12.1	98
11946	2023-04-23T19:31:26	12	98.5
11947	2023-04-23T19:41:26	11.5	99
11948	2023-04-23T19:51:26	11.5	99
11949	2023-04-23T20:01:26	11.3	99
11950	2023-04-23T20:11:26	11.1	99
11951	2023-04-23T20:21:26	11	99
11952	2023-04-23T20:31:26	10.9	99
11953	2023-04-23T20:41:26	10.8	99.5
11954	2023-04-23T20:51:26	10.8	99.5
11955	2023-04-23T21:01:25	10.7	99.5
11956	2023-04-23T21:11:25	10.6	99.5
11957	2023-04-23T21:21:25	10.6	99.5
11958	2023-04-23T21:31:25	10.5	99.5
11959	2023-04-23T21:41:25	10.4	99.5
11960	2023-04-23T21:51:25	10.6	99.5
11961	2023-04-23T22:01:25	10.6	99.5
11962	2023-04-23T22:11:25	10.7	99
11963	2023-04-23T22:21:25	10.7	99
11964	2023-04-23T22:31:25	10.7	99
11965	2023-04-23T22:41:25	10.7	99.5
11966	2023-04-23T22:51:25	10.8	99.5
11967	2023-04-23T23:01:25	10.9	99.5
11968	2023-04-23T23:11:25	10.9	100
11969	2023-04-23T23:21:25	11	99.5
11970	2023-04-23T23:31:26	10.5	99.5
11971	2023-04-23T23:41:25	10.6	99.5
11972	2023-04-23T23:51:25	10.7	99.5
11973	2023-04-24T00:01:25	10.8	99.5
11974	2023-04-24T00:11:25	11.1	99.5
11975	2023-04-24T00:21:25	11.3	99
11976	2023-04-24T00:31:25	11.2	99
11977	2023-04-24T00:41:25	11.4	99
11978	2023-04-24T00:51:25	11.4	99
11979	2023-04-24T01:01:25	11.2	99
11980	2023-04-24T01:11:25	11	99
11981	2023-04-24T01:21:25	11.3	98.5
11982	2023-04-24T01:31:25	11.4	98.5
11983	2023-04-24T01:41:25	11.5	98
11984	2023-04-24T01:51:25	11.5	98.5
11985	2023-04-24T02:01:25	11.4	98
11986	2023-04-24T02:11:25	10.9	98
11987	2023-04-24T02:21:25	11.2	97.5
11988	2023-04-24T02:31:25	11.1	98
11989	2023-04-24T02:41:25	11.1	98.5
11990	2023-04-24T02:51:25	11.2	98.5
11991	2023-04-24T03:01:25	10.5	100
11992	2023-04-24T03:11:25	10	100
11993	2023-04-24T03:21:25	9.7	100
11994	2023-04-24T03:31:25	9.5	100
11995	2023-04-24T03:41:25	9.4	100
11996	2023-04-24T03:51:25	9.5	100
11997	2023-04-24T04:01:25	9.5	100
11998	2023-04-24T04:11:25	9.4	100
11999	2023-04-24T04:21:25	9.3	100
12000	2023-04-24T04:31:25	8.9	100
12001	2023-04-24T04:41:25	8.8	100
12002	2023-04-24T04:51:25	8.7	100
12003	2023-04-24T05:01:25	8.5	100
12004	2023-04-24T05:11:25	8.8	100
12005	2023-04-24T05:21:25	9.3	100
12006	2023-04-24T05:31:25	9.5	100
12007	2023-04-24T05:41:25	9.6	100
12008	2023-04-24T05:51:25	9.6	100
12009	2023-04-24T06:01:25	9.8	100
12010	2023-04-24T06:11:25	9.8	100
12011	2023-04-24T06:21:25	9.6	100
12012	2023-04-24T06:31:25	9.7	100
12013	2023-04-24T06:41:25	10	100
12014	2023-04-24T06:51:25	9.8	100
12015	2023-04-24T07:01:25	9.9	100
12016	2023-04-24T07:11:25	10	100
12017	2023-04-24T07:21:25	10.1	99.5
12018	2023-04-24T07:31:25	10.1	99.5
12019	2023-04-24T07:41:25	10.8	99.5
12020	2023-04-24T07:51:25	10.7	98.5
12021	2023-04-24T08:01:25	10.7	98
12022	2023-04-24T08:11:25	10.7	98.5
12023	2023-04-24T08:21:25	10.7	98
12024	2023-04-24T08:31:25	9.9	99
12025	2023-04-24T08:41:25	10.2	98
12026	2023-04-24T08:51:25	10	97
12027	2023-04-24T09:01:25	11	94.5
12028	2023-04-24T09:11:25	11.7	93.5
12029	2023-04-24T09:21:25	11.6	91
12030	2023-04-24T09:31:25	12	94.5
12031	2023-04-24T09:41:25	12	69
12032	2023-04-24T09:51:25	11.7	65.5
12033	2023-04-24T10:01:25	11.6	64
12034	2023-04-24T10:11:25	12.2	63.5
12035	2023-04-24T10:21:25	12.1	62.5
12036	2023-04-24T10:31:25	12	61
12037	2023-04-24T10:41:25	11.9	62
12038	2023-04-24T10:51:25	11.6	66.5
12039	2023-04-24T11:01:25	11.6	65
12040	2023-04-24T11:11:25	11.9	65.5
12041	2023-04-24T11:21:25	12.1	62.5
12042	2023-04-24T11:31:25	11.7	66.5
12043	2023-04-24T11:41:25	11.7	68
12044	2023-04-24T11:51:25	11.7	74
12045	2023-04-24T12:01:25	10.5	87.5
12046	2023-04-24T12:11:25	11.6	83
12047	2023-04-24T12:21:25	12.8	63.5
12048	2023-04-24T12:31:25	12.5	64.5
12049	2023-04-24T12:41:25	13.4	60
12050	2023-04-24T12:51:24	15.6	55.5
12051	2023-04-24T13:01:24	16.3	50
12052	2023-04-24T13:11:24	14.2	57
12053	2023-04-24T13:21:24	14	58
12054	2023-04-24T13:31:24	15.3	54
12055	2023-04-24T13:41:24	17.9	45.5
12056	2023-04-24T13:51:24	17.5	44.5
12057	2023-04-24T14:01:24	15.9	49
12058	2023-04-24T14:11:24	17.5	44.5
12059	2023-04-24T14:21:24	16.5	48
12060	2023-04-24T14:31:24	18.7	42
12061	2023-04-24T14:41:24	15.2	52
12062	2023-04-24T14:51:24	15.9	51.5
12063	2023-04-24T15:01:24	15	55
12064	2023-04-24T15:11:24	14.7	54
12065	2023-04-24T15:21:24	15.1	53
12066	2023-04-24T15:31:24	15.6	51
12067	2023-04-24T15:41:24	14.2	55
12068	2023-04-24T15:51:24	13.9	57
12069	2023-04-24T16:01:24	13.8	59.5
12070	2023-04-24T16:11:24	13.4	59
12071	2023-04-24T16:21:24	13.4	60
12072	2023-04-24T16:31:24	13.2	61
12073	2023-04-24T16:41:24	13.1	60
12074	2023-04-24T16:51:24	12.9	61.5
12075	2023-04-24T17:01:24	13	59
12076	2023-04-24T17:11:24	12.9	58
12077	2023-04-24T17:21:24	12.7	58.5
12078	2023-04-24T17:31:24	12.8	59.5
12079	2023-04-24T17:41:24	12.9	57
12080	2023-04-24T17:51:24	12.4	66
12081	2023-04-24T18:01:24	12	69.5
12082	2023-04-24T18:11:24	11.8	69.5
12083	2023-04-24T18:21:24	11.5	72.5
12084	2023-04-24T18:31:24	11.4	71.5
12085	2023-04-24T18:41:24	10.8	76.5
12086	2023-04-24T18:51:24	10.5	75
12087	2023-04-24T19:01:24	10.6	76
12088	2023-04-24T19:11:24	10.6	77
12089	2023-04-24T19:21:24	10.7	75.5
12090	2023-04-24T19:31:24	10.8	75.5
12091	2023-04-24T19:41:24	10.8	75.5
12092	2023-04-24T19:51:24	10.9	75.5
12093	2023-04-24T20:01:24	10.7	75
12094	2023-04-24T20:11:24	10.7	72.5
12095	2023-04-24T20:21:24	10.9	71
12096	2023-04-24T20:31:24	10.8	70.5
12097	2023-04-24T20:41:24	10.7	70.5
12098	2023-04-24T20:51:24	10.6	72.5
12099	2023-04-24T21:01:24	10.5	74
12100	2023-04-24T21:11:24	10.5	72.5
12101	2023-04-24T21:21:24	10.1	71.5
12102	2023-04-24T21:31:24	9.9	72
12103	2023-04-24T21:41:24	10.2	71.5
12104	2023-04-24T21:51:24	10.3	71.5
12105	2023-04-24T22:01:24	10.2	70.5
12106	2023-04-24T22:11:24	9.9	72
12107	2023-04-24T22:21:24	9.8	73
12108	2023-04-24T22:31:24	9.6	72
12109	2023-04-24T22:41:24	9.3	74
12110	2023-04-24T22:51:24	8.9	76.5
12111	2023-04-24T23:01:24	8.9	76.5
12112	2023-04-24T23:11:24	9.1	76.5
12113	2023-04-24T23:21:24	9.1	76.5
12114	2023-04-24T23:31:24	8.7	77.5
12115	2023-04-24T23:41:24	8.6	80
12116	2023-04-24T23:51:24	8.5	81
12117	2023-04-25T00:01:24	8.5	81
12118	2023-04-25T00:11:24	8.7	80
12119	2023-04-25T00:21:24	8.4	81
12120	2023-04-25T00:31:24	8.7	80.5
12121	2023-04-25T00:41:24	8.7	81
12122	2023-04-25T00:51:24	8.3	84
12123	2023-04-25T01:01:24	8.4	83.5
12124	2023-04-25T01:11:24	8.5	83
12125	2023-04-25T01:21:24	8.5	83.5
12126	2023-04-25T01:31:24	8.6	82.5
12127	2023-04-25T01:41:24	8.6	82
12128	2023-04-25T01:51:24	8.7	81
12129	2023-04-25T02:01:24	8.6	82
12130	2023-04-25T02:11:24	8.6	82
12131	2023-04-25T02:21:24	8.6	83
12132	2023-04-25T02:31:24	8.7	82
12133	2023-04-25T02:41:24	8.4	85.5
12134	2023-04-25T02:51:24	8.4	84.5
12135	2023-04-25T03:01:24	8.4	84
12136	2023-04-25T03:11:24	8.4	83.5
12137	2023-04-25T03:21:24	8.5	83.5
12138	2023-04-25T03:31:24	8.4	83.5
12139	2023-04-25T03:41:24	8.3	84
12140	2023-04-25T03:51:24	8.1	90.5
12141	2023-04-25T04:01:24	7.8	92.5
12142	2023-04-25T04:11:24	7.8	93.5
12143	2023-04-25T04:21:24	7.7	94.5
12144	2023-04-25T04:31:24	7.7	95
12145	2023-04-25T04:41:23	7.7	95.5
12146	2023-04-25T04:51:24	7.7	95.5
12147	2023-04-25T05:01:23	7.8	95
12148	2023-04-25T05:11:24	7.7	95.5
12149	2023-04-25T05:21:23	7.8	95.5
12150	2023-04-25T05:31:23	7.9	95
12151	2023-04-25T05:41:23	8.1	93.5
12152	2023-04-25T05:51:23	8	93
12153	2023-04-25T06:01:23	8	92.5
12154	2023-04-25T06:11:23	7.9	92.5
12155	2023-04-25T06:21:23	8	92
12156	2023-04-25T06:31:23	7.9	94.5
12157	2023-04-25T06:41:23	7.9	94
12158	2023-04-25T06:51:23	7.8	95
12159	2023-04-25T07:01:23	7.7	95.5
12160	2023-04-25T07:11:23	7.7	95.5
12161	2023-04-25T07:21:23	7.7	95.5
12162	2023-04-25T07:31:23	7.8	96
12163	2023-04-25T07:41:23	7.7	98.5
12164	2023-04-25T07:51:23	7.6	99
12165	2023-04-25T08:01:23	7.7	99.5
12166	2023-04-25T08:11:23	7.7	100
12167	2023-04-25T08:21:23	7.8	100
12168	2023-04-25T08:31:23	8	100
12169	2023-04-25T08:41:23	8.1	100
12170	2023-04-25T08:51:23	8	100
12171	2023-04-25T09:01:23	8.1	100
12172	2023-04-25T09:11:23	7.9	100
12173	2023-04-25T09:21:23	8	100
12174	2023-04-25T09:31:23	8	100
12175	2023-04-25T09:41:23	7.9	100
12176	2023-04-25T09:51:23	7.6	100
12177	2023-04-25T10:01:23	7.7	100
12178	2023-04-25T10:11:23	7.9	100
12179	2023-04-25T10:21:23	7.8	100
12180	2023-04-25T10:31:23	7.6	100
12181	2023-04-25T10:41:23	7.7	100
12182	2023-04-25T10:51:23	7.9	100
12183	2023-04-25T11:01:23	8	100
12184	2023-04-25T11:11:23	8.1	100
12185	2023-04-25T11:21:23	8.2	100
12186	2023-04-25T11:31:23	8.5	100
12187	2023-04-25T11:41:23	8.7	100
12188	2023-04-25T11:51:23	8.7	99.5
12189	2023-04-25T12:01:23	8.9	99.5
12190	2023-04-25T12:11:23	9	99.5
12191	2023-04-25T12:21:23	9.2	99.5
12192	2023-04-25T12:31:23	9.2	99.5
12193	2023-04-25T12:41:23	9.9	99
12194	2023-04-25T12:51:23	9.4	99
12195	2023-04-25T13:01:23	9.2	99
12196	2023-04-25T13:11:23	9.4	99
12197	2023-04-25T13:21:23	9.9	99
12198	2023-04-25T13:31:23	11.4	99
12199	2023-04-25T13:41:23	13.5	98
12200	2023-04-25T13:51:23	18.5	96.5
12201	2023-04-25T14:11:23	18.6	96
12202	2023-04-25T14:21:23	19.1	96
12203	2023-04-25T14:31:23	22	96
12204	2023-04-25T14:41:23	21.2	96
12205	2023-04-25T14:51:23	18	96.5
12206	2023-04-25T15:01:23	15.4	96.5
12207	2023-04-25T15:21:23	13.5	95
12208	2023-04-25T15:31:23	12.1	92.5
12209	2023-04-25T15:41:23	11.3	95
12210	2023-04-25T15:51:23	10.3	97
12211	2023-04-25T16:01:23	9.4	99
12212	2023-04-25T16:11:23	9.1	99.5
12213	2023-04-25T16:21:23	9.2	100
12214	2023-04-25T16:31:23	9.2	100
12215	2023-04-25T16:41:23	9.5	100
12216	2023-04-25T16:51:23	9.9	100
12217	2023-04-25T17:01:23	10.2	100
12218	2023-04-25T17:11:23	9.6	100
12219	2023-04-25T17:21:23	9.6	100
12220	2023-04-25T17:31:23	9.2	100
12221	2023-04-25T17:41:23	9.3	100
12222	2023-04-25T17:51:23	9.2	100
12223	2023-04-25T18:01:23	8.8	100
12224	2023-04-25T18:11:23	8.7	100
12225	2023-04-25T18:21:23	8.6	100
12226	2023-04-25T18:31:23	8.5	100
12227	2023-04-25T18:41:23	8.4	100
12228	2023-04-25T18:51:23	8.4	100
12229	2023-04-25T19:01:23	8.3	100
12230	2023-04-25T19:11:23	8.3	100
12231	2023-04-25T19:21:23	8.2	100
12232	2023-04-25T19:31:23	8.2	100
12233	2023-04-25T19:41:23	8	100
12234	2023-04-25T19:51:23	7.9	100
12235	2023-04-25T20:01:23	7.9	100
12236	2023-04-25T20:11:23	8	100
12237	2023-04-25T20:21:23	8	100
12238	2023-04-25T20:31:23	7.9	100
12239	2023-04-25T20:41:23	7.9	100
12240	2023-04-25T20:51:23	7.9	100
12241	2023-04-25T21:01:23	7.8	100
12242	2023-04-25T21:11:23	7.7	100
12243	2023-04-25T21:21:23	7.7	100
12244	2023-04-25T21:31:23	7.6	100
12245	2023-04-25T21:41:23	7.4	100
12246	2023-04-25T21:51:23	7.5	100
12247	2023-04-25T22:01:23	7.4	100
12248	2023-04-25T22:11:23	7.4	100
12249	2023-04-25T22:21:23	7.3	100
12250	2023-04-25T22:31:23	7.3	100
12251	2023-04-25T22:41:23	7.2	100
12252	2023-04-25T22:51:23	7.2	100
12253	2023-04-25T23:01:22	6.9	100
12254	2023-04-25T23:11:23	6.6	100
12255	2023-04-25T23:21:22	6.3	100
12256	2023-04-25T23:31:23	6.1	100
12257	2023-04-25T23:41:22	5.8	100
12258	2023-04-25T23:51:22	6	100
12259	2023-04-26T00:01:22	6.2	100
12260	2023-04-26T00:11:22	6.4	100
12261	2023-04-26T00:21:22	6.5	100
12262	2023-04-26T00:31:22	6.7	100
12263	2023-04-26T00:41:22	6.5	100
12264	2023-04-26T00:51:22	6.4	100
12265	2023-04-26T01:01:22	6.6	100
12266	2023-04-26T01:11:22	6.7	100
12267	2023-04-26T01:21:22	6.3	100
12268	2023-04-26T01:31:22	5.9	100
12269	2023-04-26T01:41:22	5.7	100
12270	2023-04-26T01:51:22	5.7	100
12271	2023-04-26T02:01:22	5.4	100
12272	2023-04-26T02:11:22	5.1	100
12273	2023-04-26T02:21:22	4.7	100
12274	2023-04-26T02:31:22	4.5	100
12275	2023-04-26T02:41:22	4.4	100
12276	2023-04-26T02:51:22	4.2	100
12277	2023-04-26T03:01:22	4	100
12278	2023-04-26T03:11:22	3.9	100
12279	2023-04-26T03:21:22	3.8	100
12280	2023-04-26T03:31:22	3.5	100
12281	2023-04-26T03:41:22	3.5	100
12282	2023-04-26T03:51:22	3.2	100
12283	2023-04-26T04:01:22	3.1	100
12284	2023-04-26T04:11:22	2.9	100
12285	2023-04-26T04:21:22	2.8	100
12286	2023-04-26T04:31:22	2.7	100
12287	2023-04-26T04:41:22	2.6	100
12288	2023-04-26T04:51:22	2.6	100
12289	2023-04-26T05:01:22	2.7	100
12290	2023-04-26T05:11:22	2.6	100
12291	2023-04-26T05:21:22	2.9	100
12292	2023-04-26T05:31:22	2.9	100
12293	2023-04-26T05:41:22	3.1	100
12294	2023-04-26T05:51:22	3.2	100
12295	2023-04-26T06:01:22	3.5	100
12296	2023-04-26T06:11:22	4	100
12297	2023-04-26T06:21:22	4.1	100
12298	2023-04-26T06:31:22	4.4	100
12299	2023-04-26T06:41:22	4.5	100
12300	2023-04-26T06:51:22	4.8	100
12301	2023-04-26T07:01:22	4.9	100
12302	2023-04-26T07:11:22	5.1	100
12303	2023-04-26T07:21:22	5.4	100
12304	2023-04-26T07:31:22	5.5	100
12305	2023-04-26T07:41:22	5.8	100
12306	2023-04-26T07:51:22	5.8	100
12307	2023-04-26T08:01:22	6	100
12308	2023-04-26T08:11:22	6.1	100
12309	2023-04-26T08:21:22	5.9	100
12310	2023-04-26T08:31:22	6.2	100
12311	2023-04-26T08:41:22	6.8	100
12312	2023-04-26T08:51:22	7.5	100
12313	2023-04-26T09:01:22	8.1	100
12314	2023-04-26T09:11:22	8.4	100
12315	2023-04-26T09:21:22	8.8	100
12316	2023-04-26T09:31:22	9.1	100
12317	2023-04-26T09:41:22	9.7	100
12318	2023-04-26T09:51:22	10.1	99
12319	2023-04-26T10:01:22	11	95
12320	2023-04-26T10:11:22	11.5	70.5
12321	2023-04-26T10:21:22	12.6	61.5
12322	2023-04-26T10:31:22	13	55.5
12323	2023-04-26T10:41:22	13.2	51
12324	2023-04-26T10:51:22	13.5	52
12325	2023-04-26T11:01:22	13.7	46.5
12326	2023-04-26T11:11:22	14.7	49
12327	2023-04-26T11:21:22	14.9	52.5
12328	2023-04-26T11:31:22	15.4	48.5
12329	2023-04-26T11:41:22	15.3	43.5
12330	2023-04-26T11:51:22	15.5	47.5
12331	2023-04-26T12:01:22	16.5	43.5
12332	2023-04-26T12:11:22	16.9	40.5
12333	2023-04-26T12:21:22	18.7	40.5
12334	2023-04-26T12:31:22	19.1	37.5
12335	2023-04-26T12:41:22	19.6	34
12336	2023-04-26T12:51:22	20.1	35
12337	2023-04-26T13:01:22	20.4	36.5
12338	2023-04-26T13:11:22	23.8	31
12339	2023-04-26T13:21:22	22.7	30
12340	2023-04-26T13:31:22	26.6	25.5
12341	2023-04-26T13:41:22	27.1	23.5
12342	2023-04-26T13:51:22	23.4	27.5
12343	2023-04-26T14:01:22	20.5	32
12344	2023-04-26T14:11:22	20.2	34
12345	2023-04-26T14:21:22	25.1	26.5
12346	2023-04-26T14:31:22	21.2	33
12347	2023-04-26T14:41:22	25.7	26
12348	2023-04-26T14:51:22	27	23.5
12349	2023-04-26T15:01:22	24.6	25.5
12350	2023-04-26T15:11:22	28.7	22.5
12351	2023-04-26T15:21:22	31.4	20
12352	2023-04-26T15:31:22	29.8	19.5
12353	2023-04-26T15:41:22	27	24
12354	2023-04-26T15:51:22	29.7	21
12355	2023-04-26T16:01:22	30.6	19
12356	2023-04-26T16:11:22	30.3	20
12357	2023-04-26T16:21:22	30.1	19.5
12358	2023-04-26T16:31:22	30.6	18
12359	2023-04-26T16:41:22	30.6	19.5
12360	2023-04-26T16:51:22	29.5	19.5
12361	2023-04-26T17:01:21	24.6	25.5
12362	2023-04-26T17:11:21	23	26.5
12363	2023-04-26T17:21:21	25.3	24.5
12364	2023-04-26T17:31:21	25.7	24.5
12365	2023-04-26T17:41:21	21.4	29.5
12366	2023-04-26T17:51:21	19.6	34
12367	2023-04-26T18:01:21	19	36
12368	2023-04-26T18:11:21	18.6	37
12369	2023-04-26T18:21:21	17.9	39
12370	2023-04-26T18:31:21	17.2	40
12371	2023-04-26T18:41:21	16.3	44
12372	2023-04-26T18:51:21	15.8	45.5
12373	2023-04-26T19:01:21	15.4	46.5
12374	2023-04-26T19:11:21	15	49
12375	2023-04-26T19:21:21	14.9	51
12376	2023-04-26T19:31:21	14.7	50.5
12377	2023-04-26T19:41:21	14.3	51.5
12378	2023-04-26T19:51:21	13.7	53.5
12379	2023-04-26T20:01:21	13	56.5
12380	2023-04-26T20:11:21	12.8	57
12381	2023-04-26T20:21:21	12.7	59
12382	2023-04-26T20:31:21	12.7	59
12383	2023-04-26T20:41:21	12.6	58.5
12384	2023-04-26T20:51:21	12.5	60.5
12385	2023-04-26T21:01:21	12.5	59.5
12386	2023-04-26T21:11:21	12.3	61
12387	2023-04-26T21:21:21	12	61.5
12388	2023-04-26T21:31:21	11.9	62.5
12389	2023-04-26T21:41:21	11.8	63.5
12390	2023-04-26T21:51:21	11.6	64
12391	2023-04-26T22:01:21	11.4	64.5
12392	2023-04-26T22:11:21	11.4	60.5
12393	2023-04-26T22:21:21	11.2	64.5
12394	2023-04-26T22:31:21	10.9	67.5
12395	2023-04-26T22:41:21	10.8	69
12396	2023-04-26T22:51:21	10.8	68
12397	2023-04-26T23:01:21	10.6	67.5
12398	2023-04-26T23:11:21	10.6	70.5
12399	2023-04-26T23:21:21	10.6	72
12400	2023-04-26T23:31:21	10.3	72
12401	2023-04-26T23:41:21	10.3	73.5
12402	2023-04-26T23:51:21	10.1	73.5
12403	2023-04-27T00:01:21	10.1	75
12404	2023-04-27T00:11:21	9.8	75.5
12405	2023-04-27T00:21:21	9.5	76
12406	2023-04-27T00:31:21	9.1	77.5
12407	2023-04-27T00:41:21	8.9	80
12408	2023-04-27T00:51:21	8.9	81
12409	2023-04-27T01:01:21	8.9	80
12410	2023-04-27T01:11:21	8.7	80
12411	2023-04-27T01:21:21	8.9	78
12412	2023-04-27T01:31:21	8.8	77
12413	2023-04-27T01:41:21	8.7	79.5
12414	2023-04-27T01:51:21	8.6	81
12415	2023-04-27T02:01:21	8.7	80
12416	2023-04-27T02:11:21	8.6	81.5
12417	2023-04-27T02:21:21	8.5	81.5
12418	2023-04-27T02:31:21	8.6	81.5
12419	2023-04-27T02:41:21	8.5	84.5
12420	2023-04-27T02:51:21	8.4	84
12421	2023-04-27T03:01:21	8.3	81.5
12422	2023-04-27T03:11:21	8.4	81
12423	2023-04-27T03:21:21	8.2	83
12424	2023-04-27T03:31:21	8.2	84.5
12425	2023-04-27T03:41:21	8	84.5
12426	2023-04-27T03:51:21	7.9	84.5
12427	2023-04-27T04:01:21	7.8	85.5
12428	2023-04-27T04:11:21	7.7	86.5
12429	2023-04-27T04:21:21	7.7	86.5
12430	2023-04-27T04:31:21	7.5	86
12431	2023-04-27T04:41:21	7.5	87
12432	2023-04-27T04:51:21	7.4	86
12433	2023-04-27T05:01:21	7.5	87
12434	2023-04-27T05:11:21	7.5	86
12435	2023-04-27T05:21:21	7.7	84.5
12436	2023-04-27T05:31:21	7.9	83.5
12437	2023-04-27T05:41:21	8	83.5
12438	2023-04-27T05:51:21	8.1	83
12439	2023-04-27T06:01:21	8.3	82
12440	2023-04-27T06:11:21	8.7	81
12441	2023-04-27T06:21:21	9.1	80
12442	2023-04-27T06:31:21	9.4	78
12443	2023-04-27T06:41:21	9.8	76
12444	2023-04-27T06:51:21	10.1	75.5
12445	2023-04-27T07:01:21	10.2	74
12446	2023-04-27T07:11:21	10.6	73
12447	2023-04-27T07:21:21	10.5	74.5
12448	2023-04-27T07:31:21	10.5	75
12449	2023-04-27T07:41:21	10.4	75
12450	2023-04-27T07:51:21	10.3	75
12451	2023-04-27T08:01:21	10.4	72
12452	2023-04-27T08:11:21	10.6	70.5
12453	2023-04-27T08:21:21	10.7	70.5
12454	2023-04-27T08:31:21	11.2	68.5
12455	2023-04-27T08:41:21	11.8	64.5
12456	2023-04-27T08:51:21	12.3	64.5
12457	2023-04-27T09:01:20	12.5	64.5
12458	2023-04-27T09:11:20	12.7	64
12459	2023-04-27T09:21:21	13.1	61.5
12460	2023-04-27T09:31:20	13.3	58.5
12461	2023-04-27T09:41:20	13.7	59
12462	2023-04-27T09:51:20	14	56
12463	2023-04-27T10:01:20	14.4	54
12464	2023-04-27T10:11:20	14.9	52.5
12465	2023-04-27T10:21:20	15.3	50.5
12466	2023-04-27T10:31:20	15.6	51
12467	2023-04-27T10:41:20	16.4	48
12468	2023-04-27T10:51:20	16.5	49
12469	2023-04-27T11:01:20	16.7	46.5
12470	2023-04-27T11:11:20	16.9	46
12471	2023-04-27T11:21:20	16.9	44.5
12472	2023-04-27T11:31:20	17.1	44.5
12473	2023-04-27T11:41:20	17.3	44.5
12474	2023-04-27T11:51:20	17.8	45.5
12475	2023-04-27T12:01:20	19.1	41.5
12476	2023-04-27T12:11:20	22.1	34
12477	2023-04-27T12:21:20	23.4	34
12478	2023-04-27T12:31:20	26	29
12479	2023-04-27T12:41:20	27.2	27
12480	2023-04-27T12:51:20	27.6	28.5
12481	2023-04-27T13:01:20	26.6	28
12482	2023-04-27T13:11:20	28	26
12483	2023-04-27T13:21:20	28.3	27.5
12484	2023-04-27T13:31:20	27.3	25.5
12485	2023-04-27T13:41:20	28.9	22.5
12486	2023-04-27T13:51:20	29.1	24
12487	2023-04-27T14:01:20	31.7	19
12488	2023-04-27T14:11:20	31.2	19
12489	2023-04-27T14:21:20	30.4	20.5
12490	2023-04-27T14:31:20	29.1	21.5
12491	2023-04-27T14:41:20	29.8	20.5
12492	2023-04-27T14:51:20	30.9	20
12493	2023-04-27T15:01:20	31.1	21
12494	2023-04-27T15:11:20	29.2	23.5
12495	2023-04-27T15:21:20	29.3	22
12496	2023-04-27T15:31:20	32.9	20
12497	2023-04-27T15:41:20	32.5	19.5
12498	2023-04-27T15:51:20	33.7	20
12499	2023-04-27T16:01:20	32	19
12500	2023-04-27T16:11:20	31.5	20.5
12501	2023-04-27T16:21:20	28.5	23.5
12502	2023-04-27T16:31:37	28.6	24
12503	2023-04-27T16:41:20	29.5	24
12504	2023-04-27T16:51:20	26.9	28
12505	2023-04-27T17:01:20	25.6	30.5
12506	2023-04-27T17:11:20	24.5	34
12507	2023-04-27T17:21:20	23.8	34
12508	2023-04-27T17:31:20	23	35.5
12509	2023-04-27T17:41:20	22.4	38
12510	2023-04-27T17:51:20	21.7	45.5
12511	2023-04-27T18:01:20	21.2	46
12512	2023-04-27T18:11:20	20.6	47.5
12513	2023-04-27T18:21:20	19.8	50.5
12514	2023-04-27T18:31:20	19.4	48
12515	2023-04-27T18:41:20	19.1	50.5
12516	2023-04-27T18:51:20	18.7	52
12517	2023-04-27T19:01:20	18.5	52.5
12518	2023-04-27T19:11:20	18.2	51
12519	2023-04-27T19:21:20	17.7	51.5
12520	2023-04-27T19:31:20	17.4	53.5
12521	2023-04-27T19:41:20	16.9	52
12522	2023-04-27T19:51:20	16.7	53.5
12523	2023-04-27T20:01:20	16.6	54.5
12524	2023-04-27T20:11:19	16.4	56.5
12525	2023-04-27T20:21:19	16.2	57
12526	2023-04-27T20:31:19	16.1	54.5
12527	2023-04-27T20:41:19	16	53.5
12528	2023-04-27T20:51:19	16	53.5
12529	2023-04-27T21:01:19	15.8	53.5
12530	2023-04-27T21:11:19	15.4	55
12531	2023-04-27T21:21:19	15.4	55.5
12532	2023-04-27T21:31:19	15.3	54.5
12533	2023-04-27T21:41:19	15	56
12534	2023-04-27T21:51:19	14.9	56.5
12535	2023-04-27T22:01:19	15.1	56
12536	2023-04-27T22:11:19	15	58
12537	2023-04-27T22:21:19	14.9	59.5
12538	2023-04-27T22:41:19	14.9	59
12539	2023-04-27T22:51:19	14.9	60
12540	2023-04-27T23:01:19	14.9	59
12541	2023-04-27T23:11:19	14.6	62
12542	2023-04-27T23:21:19	14.7	61
12543	2023-04-27T23:31:19	14.6	61
12544	2023-04-27T23:41:19	14.5	62.5
12545	2023-04-27T23:51:19	14.4	63
12546	2023-04-28T00:01:19	14.3	64.5
12547	2023-04-28T00:11:19	14.2	65.5
12548	2023-04-28T00:21:19	14	68
12549	2023-04-28T00:31:19	13.8	71
12550	2023-04-28T00:41:19	13.9	72
12551	2023-04-28T00:51:19	13.6	72.5
12552	2023-04-28T01:01:19	13.8	73.5
12553	2023-04-28T01:11:19	13.4	73
12554	2023-04-28T01:21:19	13.1	75.5
12555	2023-04-28T01:31:19	13.1	73.5
12556	2023-04-28T01:41:19	13.1	77
12557	2023-04-28T01:51:19	13	75.5
12558	2023-04-28T02:01:19	13.1	75
12559	2023-04-28T02:11:19	13	73.5
12560	2023-04-28T02:21:19	12.6	77.5
12561	2023-04-28T02:31:19	12.7	78.5
12562	2023-04-28T02:41:19	12.6	77
12563	2023-04-28T02:51:19	12.6	77.5
12564	2023-04-28T03:01:19	12.5	77
12565	2023-04-28T03:11:19	12.2	85
12566	2023-04-28T03:21:19	12.2	86.5
12567	2023-04-28T03:31:19	12.2	86
12568	2023-04-28T03:41:19	12.2	84.5
12569	2023-04-28T03:51:19	12.2	84
12570	2023-04-28T04:01:19	12.4	84.5
12571	2023-04-28T04:11:37	12.5	85
12572	2023-04-28T04:21:19	12.5	85.5
12573	2023-04-28T04:31:19	12.6	86
12574	2023-04-28T04:41:19	12.5	86
12575	2023-04-28T04:51:19	12.5	84.5
12576	2023-04-28T05:01:19	12.6	83
12577	2023-04-28T05:11:19	12.6	82
12578	2023-04-28T05:21:19	12.9	82
12579	2023-04-28T05:31:19	12.9	83
12580	2023-04-28T05:41:19	12.9	82.5
12581	2023-04-28T05:51:19	13	82
12582	2023-04-28T06:01:19	13.1	81.5
12583	2023-04-28T06:11:19	13.3	82
12584	2023-04-28T06:21:19	13.4	83.5
12585	2023-04-28T06:31:19	13.3	85
12586	2023-04-28T06:41:19	13.4	86
12587	2023-04-28T06:51:19	13.5	86.5
12588	2023-04-28T07:01:19	13.5	91
12589	2023-04-28T07:11:19	13.2	95
12590	2023-04-28T07:21:19	13.2	98
12591	2023-04-28T07:31:19	13.2	98.5
12592	2023-04-28T07:41:19	13.2	99
12593	2023-04-28T07:51:19	13.2	99
12594	2023-04-28T08:01:19	13.2	99.5
12595	2023-04-28T08:11:19	13.5	99.5
12596	2023-04-28T08:31:19	13.6	100
12597	2023-04-28T08:41:19	13.6	100
12598	2023-04-28T08:51:19	13.8	99.5
12599	2023-04-28T09:01:19	13.9	99.5
12600	2023-04-28T09:11:19	14	99.5
12601	2023-04-28T09:21:19	14.3	99.5
12602	2023-04-28T09:31:19	14.4	99.5
12603	2023-04-28T09:41:19	14.5	99.5
12604	2023-04-28T09:51:18	14.7	99.5
12605	2023-04-28T10:01:18	15.1	99.5
12606	2023-04-28T10:11:18	15.4	99
12607	2023-04-28T10:21:18	15.6	97.5
12608	2023-04-28T10:31:18	16.2	95
12609	2023-04-28T10:41:18	16.3	92.5
12610	2023-04-28T10:51:19	16.4	91.5
12611	2023-04-28T11:01:18	16.3	92.5
12612	2023-04-28T11:11:18	16.9	90
12613	2023-04-28T11:21:18	17.4	84
12614	2023-04-28T11:31:18	17.1	85
12615	2023-04-28T11:41:18	17.4	84.5
12616	2023-04-28T11:51:18	18.1	79
12617	2023-04-28T12:01:18	17.7	80
12618	2023-04-28T12:11:18	16	95
12619	2023-04-28T12:21:18	15.8	99
12620	2023-04-28T12:31:18	16.5	99.5
12621	2023-04-28T12:41:18	18.6	99
12622	2023-04-28T12:51:18	18.3	98.5
12623	2023-04-28T13:01:18	17.4	98.5
12624	2023-04-28T13:11:18	16.4	99
12625	2023-04-28T13:21:18	16	99.5
12626	2023-04-28T13:31:18	15.7	100
12627	2023-04-28T13:41:18	15.5	100
12628	2023-04-28T13:51:18	15.8	100
12629	2023-04-28T14:01:18	16.1	100
12630	2023-04-28T14:11:18	16.2	100
12631	2023-04-28T14:21:18	16.4	100
12632	2023-04-28T14:31:18	16.8	100
12633	2023-04-28T14:41:18	19.3	99.5
12634	2023-04-28T14:51:18	18.9	99
12635	2023-04-28T15:01:18	18.1	98.5
12636	2023-04-28T15:11:18	17.5	100
12637	2023-04-28T15:21:18	17.7	100
12638	2023-04-28T15:31:18	17.6	100
12639	2023-04-28T15:41:18	17.1	100
12640	2023-04-28T15:51:18	16.3	100
12641	2023-04-28T16:01:18	16.2	100
12642	2023-04-28T16:11:18	16.7	100
12643	2023-04-28T16:21:18	16.6	100
12644	2023-04-28T16:31:18	18.5	99.5
12645	2023-04-28T16:41:18	20.8	97
12646	2023-04-28T16:51:18	20.8	96.5
12647	2023-04-28T17:01:18	21.1	94.5
12648	2023-04-28T17:11:18	20.6	94.5
12649	2023-04-28T17:21:18	21.2	94.5
12650	2023-04-28T17:31:18	18.8	94.5
12651	2023-04-28T17:41:18	17.8	94.5
12652	2023-04-28T17:51:18	17.3	95
12653	2023-04-28T18:01:18	16.9	95
12654	2023-04-28T18:11:18	16.6	95
12655	2023-04-28T18:21:18	16.3	95
12656	2023-04-28T18:31:18	16.1	95
12657	2023-04-28T18:41:18	15.9	95
12658	2023-04-28T18:51:18	15.7	95
12659	2023-04-28T19:01:18	15.5	95
12660	2023-04-28T19:11:18	15.3	95
12661	2023-04-28T19:21:18	15.3	95
12662	2023-04-28T19:31:18	15.4	95.5
12663	2023-04-28T19:41:18	15.3	95
12664	2023-04-28T19:51:18	15.5	95
12665	2023-04-28T20:01:18	15.5	95.5
12666	2023-04-28T20:11:18	15.3	95.5
12667	2023-04-28T20:21:18	15.1	95.5
12668	2023-04-28T20:31:18	14.9	95.5
12669	2023-04-28T20:41:18	14.6	95.5
12670	2023-04-28T20:51:18	14.5	95.5
12671	2023-04-28T21:01:18	14.5	95.5
12672	2023-04-28T21:11:18	14.3	95.5
12673	2023-04-28T21:21:18	14.1	95.5
12674	2023-04-28T21:31:18	14	95.5
12675	2023-04-28T21:41:18	13.9	95.5
12676	2023-04-28T21:51:18	14	95.5
12677	2023-04-28T22:01:18	13.8	95.5
12678	2023-04-28T22:11:18	13.8	95.5
12679	2023-04-28T22:21:17	13.8	95.5
12680	2023-04-28T22:31:17	13.8	95.5
12681	2023-04-28T22:41:17	13.9	95.5
12682	2023-04-28T22:51:17	13.9	95.5
12683	2023-04-28T23:01:17	14	95.5
12684	2023-04-28T23:11:17	13.8	95.5
12685	2023-04-28T23:21:17	13.8	95.5
12686	2023-04-28T23:31:17	13.9	95.5
12687	2023-04-28T23:41:17	13.8	95.5
12688	2023-04-28T23:51:17	13.8	95.5
12689	2023-04-29T00:01:17	13.6	95.5
12690	2023-04-29T00:11:17	13.7	95.5
12691	2023-04-29T00:21:17	13.6	98
12692	2023-04-29T00:31:17	13.5	98
12693	2023-04-29T00:41:17	13.5	98
12694	2023-04-29T00:51:17	13.3	98
12695	2023-04-29T01:01:17	13.3	98
12696	2023-04-29T01:11:17	13.3	98.5
12697	2023-04-29T01:21:17	13.2	98
12698	2023-04-29T01:31:17	13.2	98
12699	2023-04-29T01:41:17	13.3	99
12700	2023-04-29T01:51:17	13.4	100
12701	2023-04-29T02:01:17	13.4	100
12702	2023-04-29T02:11:17	13.3	100
12703	2023-04-29T02:21:17	13.4	100
12704	2023-04-29T02:31:17	13.2	100
12705	2023-04-29T02:41:17	13	100
12706	2023-04-29T02:51:17	12.7	100
12707	2023-04-29T03:01:17	12.7	100
12708	2023-04-29T03:11:17	12.4	100
12709	2023-04-29T03:21:17	12.3	100
12710	2023-04-29T03:31:17	12.2	100
12711	2023-04-29T03:41:17	12.1	100
12712	2023-04-29T03:51:17	11.9	100
12713	2023-04-29T04:01:17	12.1	100
12714	2023-04-29T04:11:17	11.8	100
12715	2023-04-29T04:21:17	11.6	100
12716	2023-04-29T04:31:17	11.4	100
12717	2023-04-29T04:41:17	11.2	100
12718	2023-04-29T04:51:17	11.1	100
12719	2023-04-29T05:01:17	11.1	100
12720	2023-04-29T05:11:17	11.2	100
12721	2023-04-29T05:21:17	11.4	100
12722	2023-04-29T05:31:17	11.3	100
12723	2023-04-29T05:41:17	11.3	100
12724	2023-04-29T05:51:17	11.3	100
12725	2023-04-29T06:01:17	11.2	100
12726	2023-04-29T06:11:17	11.3	100
12727	2023-04-29T06:21:17	11.4	100
12728	2023-04-29T06:31:17	11.7	100
12729	2023-04-29T06:41:17	12.6	100
12730	2023-04-29T06:51:17	12.5	100
12731	2023-04-29T07:01:17	12.9	100
12732	2023-04-29T07:11:17	12.4	100
12733	2023-04-29T07:21:17	12.9	100
12734	2023-04-29T07:31:17	13.7	100
12735	2023-04-29T07:41:17	13.4	100
12736	2023-04-29T07:51:17	13.9	100
12737	2023-04-29T08:01:17	13.9	100
12738	2023-04-29T08:11:17	14	100
12739	2023-04-29T08:21:17	14.3	100
12740	2023-04-29T08:31:17	14.3	100
12741	2023-04-29T08:41:17	14.4	100
12742	2023-04-29T08:51:17	14.3	100
12743	2023-04-29T09:01:17	14.5	100
12744	2023-04-29T09:11:17	15	100
12745	2023-04-29T09:21:17	15	100
12746	2023-04-29T09:31:17	15.2	100
12747	2023-04-29T09:41:17	15.2	100
12748	2023-04-29T09:51:17	15.3	100
12749	2023-04-29T10:01:17	15.5	100
12750	2023-04-29T10:11:17	15.4	99.5
12751	2023-04-29T10:21:17	15.2	100
12752	2023-04-29T10:31:17	15.2	100
12753	2023-04-29T10:41:17	15.6	100
12754	2023-04-29T10:51:17	16.4	100
12755	2023-04-29T11:01:17	16.8	73
12756	2023-04-29T11:11:17	16.2	71.5
12757	2023-04-29T11:21:17	15.3	74
12758	2023-04-29T11:31:17	15	74.5
12759	2023-04-29T11:41:17	15	75
12760	2023-04-29T11:51:17	15.3	74
12761	2023-04-29T12:01:17	15.8	72
12762	2023-04-29T12:11:16	16.1	70
12763	2023-04-29T12:21:16	16	71
12764	2023-04-29T12:31:16	16	70
12765	2023-04-29T12:41:16	15.7	70.5
12766	2023-04-29T12:51:16	15.5	69.5
12767	2023-04-29T13:01:16	15.7	69.5
12768	2023-04-29T13:11:16	15.9	70.5
12769	2023-04-29T13:21:16	16	71.5
12770	2023-04-29T13:31:16	16.3	70
12771	2023-04-29T13:41:16	16.3	70.5
12772	2023-04-29T13:51:16	16.6	66
12773	2023-04-29T14:01:16	16.5	66.5
12774	2023-04-29T14:11:16	16.5	66.5
12775	2023-04-29T14:21:16	16.7	66.5
12776	2023-04-29T14:31:16	16.4	66.5
12777	2023-04-29T14:41:16	16.2	67.5
12778	2023-04-29T14:51:16	15.9	67
12779	2023-04-29T15:01:16	15.8	67.5
12780	2023-04-29T15:11:16	15.7	67.5
12781	2023-04-29T15:21:16	15.5	66.5
12782	2023-04-29T15:31:16	15.2	68
12783	2023-04-29T15:41:16	15	70.5
12784	2023-04-29T15:51:16	14.9	69.5
12785	2023-04-29T16:01:16	14.9	69
12786	2023-04-29T16:11:16	14.7	70
12787	2023-04-29T16:21:16	14.6	71.5
12788	2023-04-29T16:31:16	14.7	70.5
12789	2023-04-29T16:41:16	14.7	71
12790	2023-04-29T16:51:16	14.8	72
12791	2023-04-29T17:01:16	14.7	74.5
12792	2023-04-29T17:11:16	14.7	73
12793	2023-04-29T17:21:16	14.7	73
12794	2023-04-29T17:31:16	14.8	72.5
12795	2023-04-29T17:41:16	14.6	73.5
12796	2023-04-29T17:51:16	14.5	74
12797	2023-04-29T18:01:16	14.2	76.5
12798	2023-04-29T18:11:16	13.5	79
12799	2023-04-29T18:21:16	12.9	82.5
12800	2023-04-29T18:31:16	12.4	85
12801	2023-04-29T18:41:16	12.6	84.5
12802	2023-04-29T18:51:16	12.9	83.5
12803	2023-04-29T19:01:16	13	82.5
12804	2023-04-29T19:11:16	12.9	83
12805	2023-04-29T19:21:16	12.9	85
12806	2023-04-29T19:31:16	13	82
12807	2023-04-29T19:41:16	12.9	83.5
12808	2023-04-29T19:51:16	12.9	84
12809	2023-04-29T20:01:16	12.8	83
12810	2023-04-29T20:11:16	12.7	82
12811	2023-04-29T20:21:16	12.7	84
12812	2023-04-29T20:31:16	12.6	84
12813	2023-04-29T20:41:16	12.7	84
12814	2023-04-29T20:51:16	12.6	84.5
12815	2023-04-29T21:01:16	12.5	86.5
12816	2023-04-29T21:11:16	12.5	87.5
12817	2023-04-29T21:21:16	12.3	87
12818	2023-04-29T21:31:16	12.2	88.5
12819	2023-04-29T21:41:16	12.3	88
12820	2023-04-29T21:51:16	12.1	87.5
12821	2023-04-29T22:01:16	12	88
12822	2023-04-29T22:11:16	12.1	89
12823	2023-04-29T22:21:16	12	89.5
12824	2023-04-29T22:31:16	11.8	89.5
12825	2023-04-29T22:41:16	11.8	90
12826	2023-04-29T22:51:16	11.7	90.5
12827	2023-04-29T23:01:16	11.7	90.5
12828	2023-04-29T23:11:16	11.6	90.5
12829	2023-04-29T23:21:16	11.5	91.5
12830	2023-04-29T23:31:16	11.3	91.5
12831	2023-04-29T23:41:16	11.1	92.5
12832	2023-04-29T23:51:16	11.1	92.5
12833	2023-04-30T00:01:16	10.9	92.5
12834	2023-04-30T00:11:16	10.9	92
12835	2023-04-30T00:21:16	10.9	92
12836	2023-04-30T00:31:16	10.7	91.5
12837	2023-04-30T00:41:16	10.7	91.5
12838	2023-04-30T00:51:16	10.6	92.5
12839	2023-04-30T01:01:16	10.6	92.5
12840	2023-04-30T01:11:16	10.7	92
12841	2023-04-30T01:21:16	10.5	93
12842	2023-04-30T01:31:16	10.3	93
12843	2023-04-30T01:41:16	10.3	93
12844	2023-04-30T01:51:16	10.3	93
12845	2023-04-30T02:01:15	10.4	93
12846	2023-04-30T02:11:15	10.6	92.5
12847	2023-04-30T02:21:16	10.6	92
12848	2023-04-30T02:31:15	10.7	92
12849	2023-04-30T02:41:15	10.7	92
12850	2023-04-30T02:51:15	10.7	92
12851	2023-04-30T03:01:15	10.6	92
12852	2023-04-30T03:11:15	10.5	92
12853	2023-04-30T03:21:15	10.3	92
12854	2023-04-30T03:31:15	10.2	92.5
12855	2023-04-30T03:41:15	9.9	92.5
12856	2023-04-30T03:51:15	9.6	91.5
12857	2023-04-30T04:01:15	9.4	92
12858	2023-04-30T04:11:15	9.3	93
12859	2023-04-30T04:21:15	9.3	93
12860	2023-04-30T04:31:15	9.3	93
12861	2023-04-30T04:41:15	9.3	93
12862	2023-04-30T04:51:15	9.3	92.5
12863	2023-04-30T05:01:15	9.6	92
12864	2023-04-30T05:11:15	9.5	92
12865	2023-04-30T05:21:15	9.4	92.5
12866	2023-04-30T05:31:15	9.4	92.5
12867	2023-04-30T05:41:15	9.5	92
12868	2023-04-30T05:51:15	9.5	93
12869	2023-04-30T06:01:15	9.8	92.5
12870	2023-04-30T06:11:15	10.2	90.5
12871	2023-04-30T06:21:15	10.4	90
12872	2023-04-30T06:31:15	10.6	88.5
12873	2023-04-30T06:41:15	10.7	87.5
12874	2023-04-30T06:51:15	11	86
12875	2023-04-30T07:11:15	11.7	83.5
12876	2023-04-30T07:21:15	11.9	83
12877	2023-04-30T07:31:15	12.1	81
12878	2023-04-30T07:41:15	12.3	80
12879	2023-04-30T07:51:15	12.6	78.5
12880	2023-04-30T08:01:15	13	75.5
12881	2023-04-30T08:11:15	13.2	76
12882	2023-04-30T08:21:15	13.5	73.5
12883	2023-04-30T08:31:15	14.1	70
12884	2023-04-30T08:41:15	14.3	68.5
12885	2023-04-30T08:51:15	14.9	64
12886	2023-04-30T09:01:15	15.6	63
12887	2023-04-30T09:11:15	16.2	63.5
12888	2023-04-30T09:21:15	16.2	61.5
12889	2023-04-30T09:31:15	16.3	60
12890	2023-04-30T09:41:15	16.5	59
12891	2023-04-30T09:51:15	16.9	59.5
12892	2023-04-30T10:01:15	17.1	55.5
12893	2023-04-30T10:11:15	17.3	55
12894	2023-04-30T10:21:15	17.5	54
12895	2023-04-30T10:31:15	17.5	52.5
12896	2023-04-30T10:41:15	17.8	49.5
12897	2023-04-30T10:51:15	17.9	50.5
12898	2023-04-30T11:01:15	18.3	48
12899	2023-04-30T11:11:15	18.3	47.5
12900	2023-04-30T11:21:15	19.4	46.5
12901	2023-04-30T11:31:15	20.1	46
12902	2023-04-30T11:41:15	20.6	43
12903	2023-04-30T11:51:15	21.1	40
12904	2023-04-30T12:01:15	21	40.5
12905	2023-04-30T12:11:15	20.6	40.5
12906	2023-04-30T12:21:15	21.3	38.5
12907	2023-04-30T12:31:15	21	38
12908	2023-04-30T12:41:15	20.8	38.5
12909	2023-04-30T12:51:15	21.4	37.5
12910	2023-04-30T13:01:15	22.9	35.5
12911	2023-04-30T13:11:15	25.1	33.5
12912	2023-04-30T13:21:15	23.9	34
12913	2023-04-30T13:31:15	24.5	33
12914	2023-04-30T13:41:15	25.2	32.5
12915	2023-04-30T13:51:15	27	30
12916	2023-04-30T14:01:15	26.3	29.5
12917	2023-04-30T14:11:15	27.6	27
12918	2023-04-30T14:21:15	26	30
12919	2023-04-30T14:31:15	24.7	30.5
12920	2023-04-30T14:41:15	25.6	31
12921	2023-04-30T14:51:15	26	29.5
12922	2023-04-30T15:01:15	25.4	31
12923	2023-04-30T15:11:15	25.3	30.5
12924	2023-04-30T15:21:14	25.8	29
12925	2023-04-30T15:31:14	25.3	30
12926	2023-04-30T15:41:14	25.2	31.5
12927	2023-04-30T15:51:14	25.1	30.5
12928	2023-04-30T16:01:14	23.1	33.5
12929	2023-04-30T16:11:14	23.9	33
12930	2023-04-30T16:21:14	23.8	33
12931	2023-04-30T16:31:14	23	33
12932	2023-04-30T16:41:14	23.4	33.5
12933	2023-04-30T16:51:14	23.1	35
12934	2023-04-30T17:01:14	23.3	34.5
12935	2023-04-30T17:11:14	22.7	35
12936	2023-04-30T17:21:14	21.6	37
12937	2023-04-30T17:31:14	21	39
12938	2023-04-30T17:41:14	20.1	41.5
12939	2023-04-30T17:51:14	19.6	43
12940	2023-04-30T18:01:14	19.2	46
12941	2023-04-30T18:11:14	18.8	50.5
12942	2023-04-30T18:21:14	18.2	55
12943	2023-04-30T18:31:14	17.6	58.5
12944	2023-04-30T18:41:14	17.3	59
12945	2023-04-30T18:51:14	16.7	60
12946	2023-04-30T19:01:14	16.4	60
12947	2023-04-30T19:11:14	16	62.5
12948	2023-04-30T19:21:14	15.7	62.5
12949	2023-04-30T19:31:14	15.3	63.5
12950	2023-04-30T19:41:14	15.3	64
12951	2023-04-30T19:51:14	14.9	63
12952	2023-04-30T20:01:14	14.8	65.5
12953	2023-04-30T20:11:14	14.7	67.5
12954	2023-04-30T20:21:14	14.4	69.5
12955	2023-04-30T20:31:14	14.1	70
12956	2023-04-30T20:41:14	14	71
12957	2023-04-30T20:51:14	13.6	71.5
12958	2023-04-30T21:01:14	13.3	71.5
12959	2023-04-30T21:11:14	13	73
12960	2023-04-30T21:21:14	12.6	73.5
12961	2023-04-30T21:31:14	12.4	74
12962	2023-04-30T21:41:14	12.2	74
12963	2023-04-30T21:51:14	12.1	73.5
12964	2023-04-30T22:01:14	11.9	74
12965	2023-04-30T22:11:14	11.6	75
12966	2023-04-30T22:21:14	11.5	75.5
12967	2023-04-30T22:31:14	11.5	75
12968	2023-04-30T22:41:14	11.4	76
12969	2023-04-30T22:51:14	11.2	75.5
12970	2023-04-30T23:01:14	11.1	75.5
12971	2023-04-30T23:11:14	11.1	75.5
12972	2023-04-30T23:21:14	11	76.5
12973	2023-04-30T23:31:14	10.9	77.5
12974	2023-04-30T23:41:14	10.8	77
12975	2023-04-30T23:51:14	10.7	77.5
12976	2023-05-01T00:01:14	10.6	77.5
12977	2023-05-01T00:11:14	10.6	77.5
12978	2023-05-01T00:21:14	10.6	78
12979	2023-05-01T00:31:14	10.6	77.5
12980	2023-05-01T00:41:14	10.7	76.5
12981	2023-05-01T00:51:14	10.7	77
12982	2023-05-01T01:01:14	10.8	76.5
12983	2023-05-01T01:11:14	10.8	77
12984	2023-05-01T01:21:14	10.9	77.5
12985	2023-05-01T01:31:14	10.8	75.5
12986	2023-05-01T01:41:14	10.9	76
12987	2023-05-01T01:51:14	10.7	76
12988	2023-05-01T02:01:14	10.9	76
12989	2023-05-01T02:11:14	11	76
12990	2023-05-01T02:21:14	10.8	77
12991	2023-05-01T02:31:14	10.8	76.5
12992	2023-05-01T02:41:14	10.4	78
12993	2023-05-01T02:51:14	10.1	79.5
12994	2023-05-01T03:01:14	10.1	79
12995	2023-05-01T03:11:14	10.1	79
12996	2023-05-01T03:21:14	10.1	79
12997	2023-05-01T03:31:14	10.2	79.5
12998	2023-05-01T03:41:14	10.1	81
12999	2023-05-01T03:51:14	9.9	81
13000	2023-05-01T04:01:14	9.9	81.5
13001	2023-05-01T04:11:14	9.7	81.5
13002	2023-05-01T04:21:14	9.7	82
13003	2023-05-01T04:31:14	9.8	81.5
13004	2023-05-01T04:41:14	9.9	81
13005	2023-05-01T04:51:13	10.1	79.5
13006	2023-05-01T05:01:13	10.4	79.5
13007	2023-05-01T05:11:13	10.6	77.5
13008	2023-05-01T05:21:13	10.7	77.5
13009	2023-05-01T05:31:13	11.3	77
13010	2023-05-01T05:41:13	11.5	76.5
13011	2023-05-01T05:51:13	11.5	78.5
13012	2023-05-01T06:01:13	11.6	77.5
13013	2023-05-01T06:11:13	11.6	80
13014	2023-05-01T06:21:13	11.5	81
13015	2023-05-01T06:31:13	11.4	81
13016	2023-05-01T06:41:13	11.8	78.5
13017	2023-05-01T06:51:13	12	76
13018	2023-05-01T07:01:13	12.2	75
13019	2023-05-01T07:11:13	12.2	74
13020	2023-05-01T07:21:13	12.4	76.5
13021	2023-05-01T07:31:13	12.4	74.5
13022	2023-05-01T07:41:13	12.4	74
13023	2023-05-01T07:51:14	12.9	73.5
13024	2023-05-01T08:01:13	13.3	72
13025	2023-05-01T08:11:13	13.7	70
13026	2023-05-01T08:21:13	13.8	69
13027	2023-05-01T08:31:13	13.8	70.5
13028	2023-05-01T08:41:13	13.9	71
13029	2023-05-01T08:51:13	13.8	72
13030	2023-05-01T09:01:13	14.3	71
13031	2023-05-01T09:11:13	14.9	69.5
13032	2023-05-01T09:21:13	14.9	70
13033	2023-05-01T09:31:13	15	69
13034	2023-05-01T09:41:13	15	69
13035	2023-05-01T09:51:13	15.2	69.5
13036	2023-05-01T10:01:13	15.4	68
13037	2023-05-01T10:11:13	15.5	67.5
13038	2023-05-01T10:21:13	15.8	66.5
13039	2023-05-01T10:31:13	16.1	64.5
13040	2023-05-01T10:41:13	16.5	65
13041	2023-05-01T10:51:13	17.4	62
13042	2023-05-01T11:01:13	17.7	61.5
13043	2023-05-01T11:11:13	17.8	61.5
13044	2023-05-01T11:21:13	18.4	59.5
13045	2023-05-01T11:31:13	19	56.5
13046	2023-05-01T11:41:13	19.5	54.5
13047	2023-05-01T11:51:13	19.5	54
13048	2023-05-01T12:01:13	19.5	54
13049	2023-05-01T12:11:13	19.6	56
13050	2023-05-01T12:21:13	19.7	54
13051	2023-05-01T12:31:13	21.3	52
13052	2023-05-01T12:41:13	19.7	54.5
13053	2023-05-01T12:51:13	19.5	56.5
13054	2023-05-01T13:01:13	19.6	55.5
13055	2023-05-01T13:11:13	20.7	53
13056	2023-05-01T13:21:13	24.4	45
13057	2023-05-01T13:31:13	24.4	43
13058	2023-05-01T13:41:13	26.3	39.5
13059	2023-05-01T13:51:13	29	32.5
13060	2023-05-01T14:01:13	27	36.5
13061	2023-05-01T14:11:13	23.7	42.5
13062	2023-05-01T14:21:13	22	46
13063	2023-05-01T14:31:13	20.9	50
13064	2023-05-01T14:41:13	19.4	59.5
13065	2023-05-01T14:51:13	16.3	95
13066	2023-05-01T15:01:13	16	96
13067	2023-05-01T15:11:13	16.3	98.5
13068	2023-05-01T15:21:13	17.2	99
13069	2023-05-01T15:31:13	19.2	98
13070	2023-05-01T15:41:13	23.3	96
13071	2023-05-01T15:51:13	21.5	97
13072	2023-05-01T16:01:13	18.2	81
13073	2023-05-01T16:11:13	17.7	87
13074	2023-05-01T16:21:13	17.3	87.5
13075	2023-05-01T16:31:13	16.9	88
13076	2023-05-01T16:41:13	16.4	88
13077	2023-05-01T16:51:13	16.6	83
13078	2023-05-01T17:01:13	16.3	86
13079	2023-05-01T17:11:13	15.4	94.5
13080	2023-05-01T17:21:13	15.1	92.5
13081	2023-05-01T17:31:13	15	94
13082	2023-05-01T17:41:13	14.8	91.5
13083	2023-05-01T17:51:12	13.5	95.5
13084	2023-05-01T18:01:12	13.2	96
13085	2023-05-01T18:11:12	13.1	96.5
13086	2023-05-01T18:21:12	13.3	97
13087	2023-05-01T18:31:12	13.1	96.5
13088	2023-05-01T18:41:12	13	97.5
13089	2023-05-01T18:51:12	12.5	96.5
13090	2023-05-01T19:01:12	12.5	98
13091	2023-05-01T19:11:12	12.6	98
13092	2023-05-01T19:21:12	12.4	97.5
13093	2023-05-01T19:31:12	12.4	98
13094	2023-05-01T19:41:12	12.3	98
13095	2023-05-01T19:51:12	12.4	98
13096	2023-05-01T20:01:12	12.4	98.5
13097	2023-05-01T20:11:12	12.4	98.5
13098	2023-05-01T20:21:12	12.1	98
13099	2023-05-01T20:31:12	11.8	98
13100	2023-05-01T20:41:12	11.6	98.5
13101	2023-05-01T20:51:12	11.6	98.5
13102	2023-05-01T21:01:12	11.3	98.5
13103	2023-05-01T21:11:12	11.1	98.5
13104	2023-05-01T21:21:12	11.2	98.5
13105	2023-05-01T21:31:12	11.2	98.5
13106	2023-05-01T21:41:12	11.2	98.5
13107	2023-05-01T21:51:12	11.2	99
13108	2023-05-01T22:01:12	11.1	98.5
13109	2023-05-01T22:11:12	10.9	98.5
13110	2023-05-01T22:21:12	10.6	98.5
13111	2023-05-01T22:31:12	10.4	99
13112	2023-05-01T22:41:12	10.3	99
13113	2023-05-01T22:51:12	10.1	99.5
13114	2023-05-01T23:01:12	9.9	99.5
13115	2023-05-01T23:11:12	9.7	99.5
13116	2023-05-01T23:21:12	9.6	99.5
13117	2023-05-01T23:31:12	9.5	99.5
13118	2023-05-01T23:41:12	9.3	99
13119	2023-05-01T23:51:12	9	99
13120	2023-05-02T00:01:12	9.1	99
13121	2023-05-02T00:11:12	9.2	99
13122	2023-05-02T00:21:12	9	98.5
13123	2023-05-02T00:31:12	8.7	98.5
13124	2023-05-02T00:41:12	8.7	99
13125	2023-05-02T00:51:12	8.5	99
13126	2023-05-02T01:01:12	8.3	99
13127	2023-05-02T01:11:12	8.3	99.5
13128	2023-05-02T01:21:12	8	99.5
13129	2023-05-02T01:31:12	7.9	99.5
13130	2023-05-02T01:41:12	7.9	99.5
13131	2023-05-02T01:51:12	7.7	99.5
13132	2023-05-02T02:01:12	7.6	99.5
13133	2023-05-02T02:11:12	7.4	99.5
13134	2023-05-02T02:21:12	7.4	100
13135	2023-05-02T02:31:12	7.7	100
13136	2023-05-02T02:41:12	7.9	100
13137	2023-05-02T02:51:12	7.8	100
13138	2023-05-02T03:01:12	7.5	99.5
13139	2023-05-02T03:11:12	7.7	100
13140	2023-05-02T03:21:12	7.9	100
13141	2023-05-02T03:31:12	7.9	100
13142	2023-05-02T03:41:12	7.7	99.5
13143	2023-05-02T03:51:12	7.6	99.5
13144	2023-05-02T04:01:12	7.2	99.5
13145	2023-05-02T04:11:12	7	99.5
13146	2023-05-02T04:21:12	6.9	100
13147	2023-05-02T04:31:12	6.9	100
13148	2023-05-02T04:41:12	6.9	100
13149	2023-05-02T04:51:12	7	100
13150	2023-05-02T05:01:12	7.1	100
13151	2023-05-02T05:11:12	7.7	100
13152	2023-05-02T05:21:12	8.2	100
13153	2023-05-02T05:31:12	8.4	100
13154	2023-05-02T05:41:12	8.9	100
13155	2023-05-02T05:51:12	9.1	100
13156	2023-05-02T06:01:12	9.2	100
13157	2023-05-02T06:11:12	9.6	100
13158	2023-05-02T06:21:12	10	100
13159	2023-05-02T06:31:12	10.1	99
13160	2023-05-02T06:41:12	10.4	97.5
13161	2023-05-02T06:51:12	10.8	93.5
13162	2023-05-02T07:01:12	10.9	94
13163	2023-05-02T07:11:12	11	90.5
13164	2023-05-02T07:21:12	11.4	90
13165	2023-05-02T07:31:12	12	88.5
13166	2023-05-02T07:41:12	12	88.5
13167	2023-05-02T07:51:12	11.7	89.5
13168	2023-05-02T08:01:12	12.1	89.5
13169	2023-05-02T08:11:12	13	87
13170	2023-05-02T08:21:12	13.7	81.5
13171	2023-05-02T08:31:12	14	81.5
13172	2023-05-02T08:41:12	14.2	79.5
13173	2023-05-02T08:51:12	14.5	78
13174	2023-05-02T09:01:12	14.5	75.5
13175	2023-05-02T09:11:12	14.8	76
13176	2023-05-02T09:21:12	15.3	75
13177	2023-05-02T09:31:12	15.7	73.5
13178	2023-05-02T09:41:12	16.2	71.5
13179	2023-05-02T09:51:12	16.3	67.5
13180	2023-05-02T10:01:12	17.2	64.5
13181	2023-05-02T10:11:12	17.1	64
13182	2023-05-02T10:21:12	17.4	66
13183	2023-05-02T10:31:11	17.5	64
13184	2023-05-02T10:41:12	17.8	64
13185	2023-05-02T10:51:11	17.9	60
13186	2023-05-02T11:01:11	18.1	61
13187	2023-05-02T11:11:11	17.9	60
13188	2023-05-02T11:21:11	18.9	57.5
13189	2023-05-02T11:31:11	19.5	55
13190	2023-05-02T11:41:11	19	54.5
13191	2023-05-02T11:51:11	17.8	55.5
13192	2023-05-02T12:01:11	18	55
13193	2023-05-02T12:11:11	18.8	55
13194	2023-05-02T12:21:11	21.8	46.5
13195	2023-05-02T12:31:11	24.3	40
13196	2023-05-02T12:41:11	20.7	47.5
13197	2023-05-02T12:51:11	20.2	49
13198	2023-05-02T13:01:11	20.3	47
13199	2023-05-02T13:11:11	21.3	43.5
13200	2023-05-02T13:21:11	21.2	44.5
13201	2023-05-02T13:31:11	21.1	48
13202	2023-05-02T13:41:11	22	44
13203	2023-05-02T13:51:11	29.2	30
13204	2023-05-02T14:01:11	31.7	28
13205	2023-05-02T14:11:11	32	25.5
13206	2023-05-02T14:21:11	31.8	24.5
13207	2023-05-02T14:31:11	32.5	23.5
13208	2023-05-02T14:41:11	30.3	25.5
13209	2023-05-02T14:51:11	31.3	22
13210	2023-05-02T15:01:11	32.8	22
13211	2023-05-02T15:11:11	32.5	23
13212	2023-05-02T15:21:11	33.8	21.5
13213	2023-05-02T15:31:11	34.5	20
13214	2023-05-02T15:41:11	34.1	21
13215	2023-05-02T15:51:11	34.2	20
13216	2023-05-02T16:01:11	33.9	18.5
13217	2023-05-02T16:11:11	33.2	19
13218	2023-05-02T16:21:11	33.2	21
13219	2023-05-02T16:31:11	32.5	19.5
13220	2023-05-02T16:41:11	32.2	21
13221	2023-05-02T16:51:11	31.6	20
13222	2023-05-02T17:01:11	30.9	21.5
13223	2023-05-02T17:11:11	29.8	24.5
13224	2023-05-02T17:21:11	28.8	25.5
13225	2023-05-02T17:31:11	26.5	28.5
13226	2023-05-02T17:41:11	23.1	33.5
13227	2023-05-02T17:51:11	22	36.5
13228	2023-05-02T18:01:11	21.1	38
13229	2023-05-02T18:11:11	20.3	40
13230	2023-05-02T18:21:11	19.7	41
13231	2023-05-02T18:31:11	19	43.5
13232	2023-05-02T18:41:11	18.4	45
13233	2023-05-02T18:51:11	17.8	48
13234	2023-05-02T19:01:11	17.3	50.5
13235	2023-05-02T19:11:11	16.9	54.5
13236	2023-05-02T19:21:11	16.6	54.5
13237	2023-05-02T19:31:11	16.2	56.5
13238	2023-05-02T19:41:11	15.9	57
13239	2023-05-02T19:51:11	15.6	57
13240	2023-05-02T20:01:11	15.1	57
13241	2023-05-02T20:11:11	14.9	57.5
13242	2023-05-02T20:21:11	14.6	59.5
13243	2023-05-02T20:31:11	14.2	61
13244	2023-05-02T20:41:11	14	62.5
13245	2023-05-02T20:51:11	13.6	65
13246	2023-05-02T21:01:11	13.3	66
13247	2023-05-02T21:11:11	13.3	66
13248	2023-05-02T21:21:11	12.9	65
13249	2023-05-02T21:31:10	12.7	64
13250	2023-05-02T21:41:10	12.6	63.5
13251	2023-05-02T21:51:10	12.4	64
13252	2023-05-02T22:01:10	12.1	65.5
13253	2023-05-02T22:11:10	11.8	66
13254	2023-05-02T22:21:10	11.5	67
13255	2023-05-02T22:31:10	11.3	68
13256	2023-05-02T22:41:10	11	69
13257	2023-05-02T22:51:10	11	69
13258	2023-05-02T23:01:10	10.6	70
13259	2023-05-02T23:11:10	10.5	71.5
13260	2023-05-02T23:21:10	10.3	73
13261	2023-05-02T23:31:10	10.1	75
13262	2023-05-02T23:41:10	10	75
13263	2023-05-02T23:51:10	9.8	76.5
13264	2023-05-03T00:01:10	9.5	76.5
13265	2023-05-03T00:11:10	9.4	76.5
13266	2023-05-03T00:21:10	9.3	77
13267	2023-05-03T00:31:10	9.1	77.5
13268	2023-05-03T00:41:10	8.9	78
13269	2023-05-03T00:51:10	8.9	79
13270	2023-05-03T01:01:10	8.5	80
13271	2023-05-03T01:11:10	8.4	80.5
13272	2023-05-03T01:21:10	8.3	81
13273	2023-05-03T01:31:10	8.1	81.5
13274	2023-05-03T01:41:10	8	81.5
13275	2023-05-03T01:51:10	7.7	82.5
13276	2023-05-03T02:01:10	7.6	83
13277	2023-05-03T02:11:10	7.4	84
13278	2023-05-03T02:21:10	7.2	84.5
13279	2023-05-03T02:31:10	7.1	85
13280	2023-05-03T02:41:10	6.9	85.5
13281	2023-05-03T02:51:10	6.8	86
13282	2023-05-03T03:01:10	6.6	87
13283	2023-05-03T03:11:10	6.4	87
13284	2023-05-03T03:21:10	6.2	88
13285	2023-05-03T03:31:10	6.2	88
13286	2023-05-03T03:41:10	6.1	88
13287	2023-05-03T03:51:10	5.9	88.5
13288	2023-05-03T04:01:10	5.9	89
13289	2023-05-03T04:11:10	5.9	89
13290	2023-05-03T04:21:10	5.8	90
13291	2023-05-03T04:31:10	5.8	90
13292	2023-05-03T04:41:10	5.7	90
13293	2023-05-03T04:51:10	5.9	90.5
13294	2023-05-03T05:01:10	6	91
13295	2023-05-03T05:11:10	6.2	91
13296	2023-05-03T05:21:10	6.3	91
13297	2023-05-03T05:31:11	6.6	91
13298	2023-05-03T05:41:10	6.8	91
13299	2023-05-03T05:51:10	7	91
13300	2023-05-03T06:01:10	7.2	90
13301	2023-05-03T06:11:32	7.5	89
13302	2023-05-03T06:21:10	7.7	88.5
13303	2023-05-03T06:31:10	8.2	87.5
13304	2023-05-03T06:41:10	8.6	85.5
13305	2023-05-03T06:51:10	8.8	85.5
13306	2023-05-03T07:01:10	9.3	84
13307	2023-05-03T07:11:10	10.1	81.5
13308	2023-05-03T07:21:10	10.3	81
13309	2023-05-03T07:31:10	10.2	83
13310	2023-05-03T07:41:10	10.3	82.5
13311	2023-05-03T07:51:10	10.5	82.5
13312	2023-05-03T08:01:10	10.6	82.5
13313	2023-05-03T08:11:10	10.8	82.5
13314	2023-05-03T08:21:10	11.1	81
13315	2023-05-03T08:31:10	11.4	81
13316	2023-05-03T08:41:10	11.8	79.5
13317	2023-05-03T08:51:10	12	78.5
13318	2023-05-03T09:01:10	12.3	79
13319	2023-05-03T09:11:10	12.6	78.5
13320	2023-05-03T09:21:10	12.9	76.5
13321	2023-05-03T09:31:10	13.3	76
13322	2023-05-03T09:41:10	13.5	76
13323	2023-05-03T09:51:10	14	73.5
13324	2023-05-03T10:01:10	14.3	74
13325	2023-05-03T10:11:10	14.6	72.5
13326	2023-05-03T10:21:10	14.9	72
13327	2023-05-03T10:31:10	15.1	67
13328	2023-05-03T10:41:10	15.5	69.5
13329	2023-05-03T10:51:10	15.9	66.5
13330	2023-05-03T11:01:10	16.5	63
13331	2023-05-03T11:11:10	16.7	61.5
13332	2023-05-03T11:21:10	17.3	62
13333	2023-05-03T11:31:10	17.9	61
13334	2023-05-03T11:41:10	17.7	58.5
13335	2023-05-03T11:51:10	17.9	56
13336	2023-05-03T12:01:10	18.7	56
13337	2023-05-03T12:11:10	22.4	45.5
13338	2023-05-03T12:21:10	24.9	38.5
13339	2023-05-03T12:31:10	26.6	35.5
13340	2023-05-03T12:41:10	27.2	34
13341	2023-05-03T12:51:10	28	32
13342	2023-05-03T13:01:10	30.1	30
13343	2023-05-03T13:11:10	30.8	27.5
13344	2023-05-03T13:21:10	31.7	26.5
13345	2023-05-03T13:31:10	32	26
13346	2023-05-03T13:41:09	32	24.5
13347	2023-05-03T13:51:09	32.7	23.5
13348	2023-05-03T14:01:09	33.2	24
13349	2023-05-03T14:11:09	32.9	24.5
13350	2023-05-03T14:21:09	34.1	23
13351	2023-05-03T14:31:09	33.5	22.5
13352	2023-05-03T14:41:09	33.2	21.5
13353	2023-05-03T14:51:09	34.5	21.5
13354	2023-05-03T15:01:09	35.7	20.5
13355	2023-05-03T15:11:09	34.7	21.5
13356	2023-05-03T15:21:09	35.4	21
13357	2023-05-03T15:31:09	33.8	21
13358	2023-05-03T15:41:09	34	21
13359	2023-05-03T15:51:09	34.1	21
13360	2023-05-03T16:01:09	33.9	21
13361	2023-05-03T16:11:09	34	21
13362	2023-05-03T16:21:09	32.8	23
13363	2023-05-03T16:31:31	33.8	22
13364	2023-05-03T16:41:09	33.1	22
13365	2023-05-03T16:51:09	32.4	23
13366	2023-05-03T17:01:09	32.5	23
13367	2023-05-03T17:11:09	30.9	23.5
13368	2023-05-03T17:21:09	30.2	25.5
13369	2023-05-03T17:31:31	28	27.5
13370	2023-05-03T17:41:09	24.7	33
13371	2023-05-03T17:51:09	23.4	35
13372	2023-05-03T18:01:09	22.2	36.5
13373	2023-05-03T18:11:09	21.5	38
13374	2023-05-03T18:21:09	20.7	39.5
13375	2023-05-03T18:31:09	20.1	41.5
13376	2023-05-03T18:41:09	19.5	43
13377	2023-05-03T18:51:09	18.9	44.5
13378	2023-05-03T19:01:09	18.4	46.5
13379	2023-05-03T19:11:09	17.8	48
13380	2023-05-03T19:21:09	17.5	50.5
13381	2023-05-03T19:31:09	17.1	52
13382	2023-05-03T19:41:09	16.8	52
13383	2023-05-03T19:51:09	16.5	53
13384	2023-05-03T20:01:09	16.1	56
13385	2023-05-03T20:11:09	15.8	57
13386	2023-05-03T20:21:09	15.6	58.5
13387	2023-05-03T20:31:09	15	60
13388	2023-05-03T20:41:09	14.7	60.5
13389	2023-05-03T20:51:09	14.6	61
13390	2023-05-03T21:01:09	14.2	61
13391	2023-05-03T21:11:09	14	63
13392	2023-05-03T21:21:09	13.7	65
13393	2023-05-03T21:31:09	13.4	66
13394	2023-05-03T21:41:09	13.2	66.5
13395	2023-05-03T21:51:09	12.8	67.5
13396	2023-05-03T22:01:09	12.6	69
13397	2023-05-03T22:11:09	12.4	69
13398	2023-05-03T22:21:09	12.2	70
13399	2023-05-03T22:31:09	12	71
13400	2023-05-03T22:41:09	11.8	71.5
13401	2023-05-03T22:51:09	11.4	72
13402	2023-05-03T23:01:09	11.3	73
13403	2023-05-03T23:11:09	11	74
13404	2023-05-03T23:21:09	10.8	75
13405	2023-05-03T23:31:09	10.5	75.5
13406	2023-05-03T23:41:09	10.3	76.5
13407	2023-05-03T23:51:09	10.2	77
13408	2023-05-04T00:01:09	10.2	78
13409	2023-05-04T00:11:09	10.1	78
13410	2023-05-04T00:21:09	10	78
13411	2023-05-04T00:31:09	9.9	78.5
13412	2023-05-04T00:41:09	9.8	79
13413	2023-05-04T00:51:09	9.7	79.5
13414	2023-05-04T01:01:09	9.5	79
13415	2023-05-04T01:11:09	9.4	80
13416	2023-05-04T01:21:09	9.2	80.5
13417	2023-05-04T01:31:09	9.1	80.5
13418	2023-05-04T01:41:09	9	81
13419	2023-05-04T01:51:09	8.8	81
13420	2023-05-04T02:01:09	8.7	82
13421	2023-05-04T02:11:09	8.3	82.5
13422	2023-05-04T02:21:09	8.3	83.5
13423	2023-05-04T02:31:09	8.1	84
13424	2023-05-04T02:41:08	8.1	84.5
13425	2023-05-04T02:51:08	8	84
13426	2023-05-04T03:01:08	7.8	84
13427	2023-05-04T03:11:08	7.9	84.5
13428	2023-05-04T03:21:08	7.7	84.5
13429	2023-05-04T03:31:08	7.8	84.5
13430	2023-05-04T03:41:08	7.6	85
13431	2023-05-04T03:51:08	7.5	85.5
13432	2023-05-04T04:01:08	7.4	86
13433	2023-05-04T04:11:08	7.3	86.5
13434	2023-05-04T04:21:08	7.4	86.5
13435	2023-05-04T04:31:08	7.5	87
13436	2023-05-04T04:41:08	7.5	86.5
13437	2023-05-04T04:51:08	7.5	86.5
13438	2023-05-04T05:01:08	7.8	86
13439	2023-05-04T05:11:08	8.2	85.5
13440	2023-05-04T05:21:08	8.3	85
13441	2023-05-04T05:31:08	8.6	85
13442	2023-05-04T05:41:08	8.8	84.5
13443	2023-05-04T05:51:08	9.1	85
13444	2023-05-04T06:01:08	9.4	83.5
13445	2023-05-04T06:11:08	9.5	84.5
13446	2023-05-04T06:21:08	9.9	83.5
13447	2023-05-04T06:31:08	10.4	83
13448	2023-05-04T06:41:08	10.7	82
13449	2023-05-04T06:51:08	11.1	82
13450	2023-05-04T07:01:08	11.4	81
13451	2023-05-04T07:11:08	11.6	80.5
13452	2023-05-04T07:21:08	12.3	79
13453	2023-05-04T07:31:08	12.4	78.5
13454	2023-05-04T07:41:08	12.8	77
13455	2023-05-04T07:51:08	13	76.5
13456	2023-05-04T08:01:08	13.4	74.5
13457	2023-05-04T08:11:08	13.8	73
13458	2023-05-04T08:21:08	14.3	72
13459	2023-05-04T08:31:08	14.9	70.5
13460	2023-05-04T08:41:08	15.2	68.5
13461	2023-05-04T08:51:08	15.5	66
13462	2023-05-04T09:01:08	15.9	65
13463	2023-05-04T09:11:08	16.3	64
13464	2023-05-04T09:21:08	16.7	62
13465	2023-05-04T09:31:08	17	61.5
13466	2023-05-04T09:41:08	17.3	61
13467	2023-05-04T09:51:08	17.5	60.5
13468	2023-05-04T10:01:08	17.8	59
13469	2023-05-04T10:11:08	18.1	61
13470	2023-05-04T10:21:08	18.6	58.5
13471	2023-05-04T10:31:08	19	58.5
13472	2023-05-04T10:41:08	19.2	54.5
13473	2023-05-04T10:51:08	19.5	54.5
13474	2023-05-04T11:01:08	19.7	51
13475	2023-05-04T11:11:08	20.1	52.5
13476	2023-05-04T11:21:08	20.5	50.5
13477	2023-05-04T11:31:08	21	46.5
13478	2023-05-04T11:41:08	21.2	45.5
13479	2023-05-04T11:51:08	21.6	44
13480	2023-05-04T12:01:08	22.8	43.5
13481	2023-05-04T12:11:08	26.1	37.5
13482	2023-05-04T12:21:08	29.1	30.5
13483	2023-05-04T12:31:08	30.7	28.5
13484	2023-05-04T12:41:08	31.9	25.5
13485	2023-05-04T12:51:08	32.3	24
13486	2023-05-04T13:01:08	33.6	24
13487	2023-05-04T13:11:08	34.3	22
13488	2023-05-04T13:21:08	35.4	21
13489	2023-05-04T13:31:08	36.4	20
13490	2023-05-04T13:41:08	37.3	19.5
13491	2023-05-04T13:51:08	37.3	19
13492	2023-05-04T14:01:08	37.1	19.5
13493	2023-05-04T14:11:08	37.9	18
13494	2023-05-04T14:21:08	38.1	17.5
13495	2023-05-04T14:31:08	37.7	18
13496	2023-05-04T14:41:08	38.8	18
13497	2023-05-04T14:51:08	39.4	15.5
13498	2023-05-04T15:01:08	38.4	16.5
13499	2023-05-04T15:11:08	38.1	17.5
13500	2023-05-04T15:21:08	37.1	18
13501	2023-05-04T15:31:08	36.8	18
13502	2023-05-04T15:41:08	37.5	18.5
13503	2023-05-04T15:51:08	35.7	21
13504	2023-05-04T16:01:08	38.6	17
13505	2023-05-04T16:11:07	37.7	17.5
13506	2023-05-04T16:21:07	39.2	17
13507	2023-05-04T16:31:07	39.2	16.5
13508	2023-05-04T16:41:07	38.3	17.5
13509	2023-05-04T16:51:07	36.3	19
13510	2023-05-04T17:01:07	34.6	20.5
13511	2023-05-04T17:11:07	34.5	21.5
13512	2023-05-04T17:21:07	34.5	22
13513	2023-05-04T17:31:07	31.1	24.5
13514	2023-05-04T17:41:07	29	27
13515	2023-05-04T17:51:07	27.9	31.5
13516	2023-05-04T18:01:07	27.1	32
13517	2023-05-04T18:11:07	26.4	35
13518	2023-05-04T18:21:07	25.8	36
13519	2023-05-04T18:31:07	25.1	39.5
13520	2023-05-04T18:41:07	24.6	40
13521	2023-05-04T18:51:07	24	41.5
13522	2023-05-04T19:01:07	23.1	44
13523	2023-05-04T19:11:07	22.9	46.5
13524	2023-05-04T19:21:07	22.4	48.5
13525	2023-05-04T19:31:07	22	48
13526	2023-05-04T19:41:07	21.5	49
13527	2023-05-04T19:51:07	21.5	49.5
13528	2023-05-04T20:01:07	21.2	52.5
13529	2023-05-04T20:11:07	20.7	51.5
13530	2023-05-04T20:21:07	20.6	54
13531	2023-05-04T20:31:07	20.3	56
13532	2023-05-04T20:41:07	20	56.5
13533	2023-05-04T20:51:07	19.9	57
13534	2023-05-04T21:01:07	19.5	58.5
13535	2023-05-04T21:11:07	19.2	60.5
13536	2023-05-04T21:21:07	18.8	61.5
13537	2023-05-04T21:31:07	18.3	61.5
13538	2023-05-04T21:41:07	18.1	63
13539	2023-05-04T21:51:07	17.7	64
13540	2023-05-04T22:01:07	17.4	64
13541	2023-05-04T22:11:07	17.1	66.5
13542	2023-05-04T22:21:07	16.7	67
13543	2023-05-04T22:31:07	16.6	67.5
13544	2023-05-04T22:41:07	16.2	67.5
13545	2023-05-04T22:51:07	15.9	69
13546	2023-05-04T23:01:07	15.8	70
13547	2023-05-04T23:11:07	15.5	70.5
13548	2023-05-04T23:21:07	15.6	71
13549	2023-05-04T23:31:07	15.6	70.5
13550	2023-05-04T23:41:07	15.5	70
13551	2023-05-04T23:51:07	15.3	70.5
13552	2023-05-05T00:01:07	15.5	70.5
13553	2023-05-05T00:11:07	15.4	71.5
13554	2023-05-05T00:21:07	15.3	72.5
13555	2023-05-05T00:31:07	15.1	73
13556	2023-05-05T00:41:07	14.9	74
13557	2023-05-05T00:51:07	14.7	74.5
13558	2023-05-05T01:01:07	14.7	75
13559	2023-05-05T01:11:07	14.5	75.5
13560	2023-05-05T01:21:07	14.5	75.5
13561	2023-05-05T01:31:07	14.3	76
13562	2023-05-05T01:41:07	14	77.5
13563	2023-05-05T01:51:07	13.6	79
13564	2023-05-05T02:01:07	13.6	79
13565	2023-05-05T02:11:07	13.7	78.5
13566	2023-05-05T02:21:07	14.4	76
13567	2023-05-05T02:31:07	14.4	76
13568	2023-05-05T02:41:07	14.3	77
13569	2023-05-05T02:51:07	14.4	77.5
13570	2023-05-05T03:01:07	14.5	78
13571	2023-05-05T03:11:07	14.4	78.5
13572	2023-05-05T03:21:07	14.5	79
13573	2023-05-05T03:31:07	14.5	78.5
13574	2023-05-05T03:41:07	14.7	78
13575	2023-05-05T03:51:26	14.8	78
13576	2023-05-05T04:01:06	14.9	77
13577	2023-05-05T04:11:06	15	76.5
13578	2023-05-05T04:21:06	15.1	76.5
13579	2023-05-05T04:31:06	15.4	75
13580	2023-05-05T04:41:06	15.1	79.5
13581	2023-05-05T04:51:06	14.7	81.5
13582	2023-05-05T05:01:06	14.6	83
13583	2023-05-05T05:11:06	15.4	78.5
13584	2023-05-05T05:21:06	15.9	78
13585	2023-05-05T05:31:06	16.3	77
13586	2023-05-05T05:41:06	16.6	73.5
13587	2023-05-05T05:51:06	16.8	73.5
13588	2023-05-05T06:01:06	16.7	73
13589	2023-05-05T06:11:06	16.8	75.5
13590	2023-05-05T06:21:06	17.5	73.5
13591	2023-05-05T06:31:06	18	70.5
13592	2023-05-05T06:41:06	18.4	67.5
13593	2023-05-05T06:51:06	18.9	65.5
13594	2023-05-05T07:01:06	19.4	62.5
13595	2023-05-05T07:11:06	19.5	61.5
13596	2023-05-05T07:21:06	19.4	61.5
13597	2023-05-05T07:31:06	19.4	63
13598	2023-05-05T07:41:06	19.1	63
13599	2023-05-05T07:51:06	19.2	64
13600	2023-05-05T08:01:06	19.6	62.5
13601	2023-05-05T08:11:06	20	59
13602	2023-05-05T08:21:06	19.9	59.5
13603	2023-05-05T08:31:06	20.3	58.5
13604	2023-05-05T08:41:06	20.6	57.5
13605	2023-05-05T08:51:06	21	56.5
13606	2023-05-05T09:01:06	20.9	56.5
13607	2023-05-05T09:11:06	20.9	56
13608	2023-05-05T09:21:06	21.3	55
13609	2023-05-05T09:31:06	21.7	55.5
13610	2023-05-05T09:41:06	22	54
13611	2023-05-05T09:51:06	22.1	53.5
13612	2023-05-05T10:01:06	22.1	53
13613	2023-05-05T10:11:06	22.3	52
13614	2023-05-05T10:21:06	22.7	51
13615	2023-05-05T10:31:06	22.8	50
13616	2023-05-05T10:41:06	23.5	50
13617	2023-05-05T10:51:06	23.7	46.5
13618	2023-05-05T11:01:06	24.2	48.5
13619	2023-05-05T11:11:06	24.5	46.5
13620	2023-05-05T11:21:06	24.8	44
13621	2023-05-05T11:31:06	24.5	48
13622	2023-05-05T11:41:06	25.4	45.5
13623	2023-05-05T11:51:06	25.9	44
13624	2023-05-05T12:01:06	26.1	43.5
13625	2023-05-05T12:11:06	26.3	40
13626	2023-05-05T12:21:06	28.8	36
13627	2023-05-05T12:31:06	31	35
13628	2023-05-05T12:41:06	29.3	36
13629	2023-05-05T12:51:06	29.5	37
13630	2023-05-05T13:01:06	29.2	36.5
13631	2023-05-05T13:11:06	30.5	34.5
13632	2023-05-05T13:21:06	30	34
13633	2023-05-05T13:31:06	29.4	35
13634	2023-05-05T13:41:06	30.9	33.5
13635	2023-05-05T13:51:06	32.4	30.5
13636	2023-05-05T14:01:06	30.7	30.5
13637	2023-05-05T14:11:06	35	25
13638	2023-05-05T14:21:06	35.4	24.5
13639	2023-05-05T14:31:06	31.1	31.5
13640	2023-05-05T14:41:06	28.9	34.5
13641	2023-05-05T14:51:06	27.3	36.5
13642	2023-05-05T15:01:06	26.1	36.5
13643	2023-05-05T15:11:05	25.5	40.5
13644	2023-05-05T15:21:05	22.6	89.5
13645	2023-05-05T15:31:05	19.1	89
13646	2023-05-05T15:41:05	17.6	95.5
13647	2023-05-05T15:51:05	17.1	97
13648	2023-05-05T16:11:05	17.7	99
13649	2023-05-05T16:21:05	17.4	99
13650	2023-05-05T16:31:05	17.7	99.5
13651	2023-05-05T16:41:05	18	100
13652	2023-05-05T16:51:05	18.3	100
13653	2023-05-05T17:01:05	18.2	100
13654	2023-05-05T17:11:05	18.1	100
13655	2023-05-05T17:21:05	17.6	99.5
13656	2023-05-05T17:31:05	17.3	99.5
13657	2023-05-05T17:41:05	17	100
13658	2023-05-05T17:51:05	16.9	100
13659	2023-05-05T18:01:05	16.9	100
13660	2023-05-05T18:11:05	16.8	100
13661	2023-05-05T18:21:05	16.7	100
13662	2023-05-05T18:31:05	16.6	100
13663	2023-05-05T18:41:05	16.5	100
13664	2023-05-05T18:51:05	16.2	100
13665	2023-05-05T19:01:05	16	100
13666	2023-05-05T19:11:05	15.8	100
13667	2023-05-05T19:21:05	15.6	100
13668	2023-05-05T19:31:05	15.5	100
13669	2023-05-05T19:41:05	15.3	100
13670	2023-05-05T19:51:05	14.9	100
13671	2023-05-05T20:01:05	14.7	100
13672	2023-05-05T20:11:05	14.6	100
13673	2023-05-05T20:21:05	14.6	100
13674	2023-05-05T20:31:05	14.4	100
13675	2023-05-05T20:41:05	14.5	100
13676	2023-05-05T20:51:05	14.4	100
13677	2023-05-05T21:01:05	14.4	100
13678	2023-05-05T21:11:05	14.4	100
13679	2023-05-05T21:21:05	14.3	100
13680	2023-05-05T21:31:05	14.2	100
13681	2023-05-05T21:41:06	14.2	100
13682	2023-05-05T21:51:05	13.8	100
13683	2023-05-05T22:01:05	13.7	100
13684	2023-05-05T22:11:05	13.6	100
13685	2023-05-05T22:21:05	13.5	100
13686	2023-05-05T22:31:05	13.5	100
13687	2023-05-05T22:41:05	13.2	100
13688	2023-05-05T22:51:05	13.2	100
13689	2023-05-05T23:01:05	13.4	100
13690	2023-05-05T23:11:05	13.5	100
13691	2023-05-05T23:21:05	13.7	100
13692	2023-05-05T23:31:05	13.8	100
13693	2023-05-05T23:41:05	13.8	100
13694	2023-05-05T23:51:05	14	100
13695	2023-05-06T00:01:05	13.9	100
13696	2023-05-06T00:11:05	14	100
13697	2023-05-06T00:21:05	13.9	100
13698	2023-05-06T00:31:05	13.7	100
13699	2023-05-06T00:41:05	13.8	100
13700	2023-05-06T00:51:05	13.8	100
13701	2023-05-06T01:01:05	13.7	100
13702	2023-05-06T01:11:05	13.4	100
13703	2023-05-06T01:21:05	13	100
13704	2023-05-06T01:31:05	12.9	100
13705	2023-05-06T01:41:05	12.7	100
13706	2023-05-06T01:51:05	12.6	100
13707	2023-05-06T02:01:05	12.4	100
13708	2023-05-06T02:11:05	12.3	100
13709	2023-05-06T02:21:05	12.2	100
13710	2023-05-06T02:31:05	12.1	100
13711	2023-05-06T02:41:05	11.8	100
13712	2023-05-06T02:51:05	11.6	100
13713	2023-05-06T03:01:05	11.6	100
13714	2023-05-06T03:11:05	11.6	100
13715	2023-05-06T03:21:05	11.5	100
13716	2023-05-06T03:31:05	11.3	100
13717	2023-05-06T03:41:05	11.1	100
13718	2023-05-06T03:51:05	11.1	100
13719	2023-05-06T04:01:05	11	100
13720	2023-05-06T04:11:04	10.9	100
13721	2023-05-06T04:21:04	10.8	100
13722	2023-05-06T04:31:04	10.8	100
13723	2023-05-06T04:41:04	10.8	100
13724	2023-05-06T04:51:04	10.9	100
13725	2023-05-06T05:01:04	11.1	100
13726	2023-05-06T05:11:04	11.3	100
13727	2023-05-06T05:21:04	11.6	100
13728	2023-05-06T05:31:04	11.8	100
13729	2023-05-06T05:41:04	12	100
13730	2023-05-06T05:51:04	12.2	100
13731	2023-05-06T06:01:04	12.3	100
13732	2023-05-06T06:11:04	12.5	100
13733	2023-05-06T06:21:04	12.6	100
13734	2023-05-06T06:31:04	12.9	100
13735	2023-05-06T06:41:04	13.1	100
13736	2023-05-06T06:51:04	13.5	100
13737	2023-05-06T07:01:04	13.7	100
13738	2023-05-06T07:11:04	14	100
13739	2023-05-06T07:31:04	14.2	99.5
13740	2023-05-06T07:41:04	14.8	99.5
13741	2023-05-06T07:51:04	15.3	99
13742	2023-05-06T08:01:04	15.9	99
13743	2023-05-06T08:11:04	16.2	99
13744	2023-05-06T08:21:04	16.4	99
13745	2023-05-06T08:31:04	16.8	98.5
13746	2023-05-06T08:41:04	17.1	98.5
13747	2023-05-06T08:51:04	17.9	98.5
13748	2023-05-06T09:01:04	18.1	98.5
13749	2023-05-06T09:11:04	18.6	98.5
13750	2023-05-06T09:21:04	18.6	98.5
13751	2023-05-06T09:31:04	18.7	98.5
13752	2023-05-06T09:41:04	18.6	98.5
13753	2023-05-06T09:51:04	18.8	98.5
13754	2023-05-06T10:01:04	18.9	98.5
13755	2023-05-06T10:11:04	18.7	98.5
13756	2023-05-06T10:21:04	18.7	98.5
13757	2023-05-06T10:31:04	19.1	98.5
13758	2023-05-06T10:41:04	19.4	100
13759	2023-05-06T10:51:04	19.9	100
13760	2023-05-06T11:01:04	20	100
13761	2023-05-06T11:11:04	20.2	100
13762	2023-05-06T11:21:04	20.3	99
13763	2023-05-06T11:31:04	20.7	98.5
13764	2023-05-06T11:41:04	21.4	99.5
13765	2023-05-06T11:51:04	21.6	96.5
13766	2023-05-06T12:01:04	22.9	52.5
13767	2023-05-06T12:11:04	26	44.5
13768	2023-05-06T12:21:04	28	39.5
13769	2023-05-06T12:31:04	28.3	37.5
13770	2023-05-06T12:41:04	30.5	34
13771	2023-05-06T12:51:04	31.3	30.5
13772	2023-05-06T13:01:04	31.6	32
13773	2023-05-06T13:11:04	33	29
13774	2023-05-06T13:21:04	33.7	29.5
13775	2023-05-06T13:31:04	34.9	27
13776	2023-05-06T13:41:04	36	25.5
13777	2023-05-06T13:51:04	36.8	24.5
13778	2023-05-06T14:01:04	35.9	25
13779	2023-05-06T14:11:04	35.5	24.5
13780	2023-05-06T14:21:04	35.1	26.5
13781	2023-05-06T14:31:04	34.9	25
13782	2023-05-06T14:41:04	35.3	25.5
13783	2023-05-06T14:51:04	36.1	25.5
13784	2023-05-06T15:01:04	36.7	24
13785	2023-05-06T15:11:04	36.7	24
13786	2023-05-06T15:21:04	37	22.5
13787	2023-05-06T15:31:04	36.4	23.5
13788	2023-05-06T15:41:04	36	24.5
13789	2023-05-06T15:51:03	34.2	26.5
13790	2023-05-06T16:01:03	33.1	28
13791	2023-05-06T16:11:03	33.5	27.5
13792	2023-05-06T16:21:03	30.8	32.5
13793	2023-05-06T16:31:03	30.1	34.5
13794	2023-05-06T16:41:03	29.2	34.5
13795	2023-05-06T16:51:03	29.3	34.5
13796	2023-05-06T17:01:03	29	34
13797	2023-05-06T17:11:03	28.3	35.5
13798	2023-05-06T17:21:03	27.5	37
13799	2023-05-06T17:26:10	27.1	37
13800	2023-05-06T17:36:10	26.3	39.5
13801	2023-05-06T17:46:10	25.4	42.5
13802	2023-05-06T17:56:10	24.8	44
13803	2023-05-06T18:06:10	24.3	46.5
13804	2023-05-06T18:16:10	24.1	49.5
13805	2023-05-06T18:26:10	23.5	51
13806	2023-05-06T18:36:10	23.1	55
13807	2023-05-06T18:46:10	22.5	57.5
13808	2023-05-06T18:56:10	22	58.5
13809	2023-05-06T19:06:10	21.5	59.5
13810	2023-05-06T19:16:10	21.1	60.5
13811	2023-05-06T19:26:10	20.6	61
13812	2023-05-06T19:36:10	20.4	62.5
13813	2023-05-06T19:46:10	20.1	63
13814	2023-05-06T19:56:10	19.9	64.5
13815	2023-05-06T20:06:10	19.5	63.5
13816	2023-05-06T20:16:10	19.3	63.5
13817	2023-05-06T20:26:10	19	66
13818	2023-05-06T20:36:10	18.6	65
13819	2023-05-06T20:46:10	18.5	67
13820	2023-05-06T20:56:10	18.3	68
13821	2023-05-06T21:06:10	18	68
13822	2023-05-06T21:16:10	17.6	67.5
13823	2023-05-06T21:26:10	17.2	67.5
13824	2023-05-06T21:36:10	17.1	67.5
13825	2023-05-06T21:46:10	16.8	69.5
13826	2023-05-06T21:56:10	16.6	69
13827	2023-05-06T22:06:10	16.2	71
13828	2023-05-06T22:16:10	16	72
13829	2023-05-06T22:26:10	15.9	72
13830	2023-05-06T22:36:10	15.6	73.5
13831	2023-05-06T22:46:10	15.5	74
13832	2023-05-06T22:56:10	15.3	74.5
13833	2023-05-06T23:06:10	15.2	74
13834	2023-05-06T23:16:10	15	74.5
13835	2023-05-06T23:26:10	15	75
13836	2023-05-06T23:36:10	14.8	75.5
13837	2023-05-06T23:46:10	14.8	75.5
13838	2023-05-06T23:56:10	14.6	76
13839	2023-05-07T00:06:10	14.4	77
13840	2023-05-07T00:16:10	14.2	77.5
13841	2023-05-07T00:26:10	14.1	78
13842	2023-05-07T00:36:10	14	78
13843	2023-05-07T00:46:10	13.8	78.5
13844	2023-05-07T00:56:10	13.7	78.5
13845	2023-05-07T01:06:10	13.7	80.5
13846	2023-05-07T01:16:10	13.7	80
13847	2023-05-07T01:36:10	13.5	80.5
13848	2023-05-07T01:46:10	13.2	81
13849	2023-05-07T02:06:10	12.9	82
13850	2023-05-07T02:16:10	12.8	82
13851	2023-05-07T02:26:10	12.7	82.5
13852	2023-05-07T02:36:10	12.6	83.5
13853	2023-05-07T02:46:10	12.5	84
13854	2023-05-07T02:56:10	12.4	84
13855	2023-05-07T03:06:10	12.4	83.5
13856	2023-05-07T03:16:10	12.1	85
13857	2023-05-07T03:26:10	12.1	85.5
13858	2023-05-07T03:36:10	12	86
13859	2023-05-07T03:46:09	11.8	87
13860	2023-05-07T03:56:09	11.7	88
13861	2023-05-07T04:06:10	11.7	88.5
13862	2023-05-07T04:16:09	11.5	89
13863	2023-05-07T04:26:09	11.7	89.5
13864	2023-05-07T04:36:09	11.6	89.5
13865	2023-05-07T04:46:09	11.7	89.5
13866	2023-05-07T04:56:09	11.7	89
13867	2023-05-07T05:06:09	11.9	88.5
13868	2023-05-07T05:16:09	12.1	88.5
13869	2023-05-07T05:26:09	12.5	88
13870	2023-05-07T05:36:09	12.8	87.5
13871	2023-05-07T05:46:09	13.1	85
13872	2023-05-07T05:56:09	13.5	83.5
13873	2023-05-07T06:06:09	13.8	83.5
13874	2023-05-07T06:16:09	14.2	82
13875	2023-05-07T06:26:09	14.9	81
13876	2023-05-07T06:36:09	15.1	78
13877	2023-05-07T06:46:09	15.2	79
13878	2023-05-07T06:56:09	15.6	78
13879	2023-05-07T07:06:09	15.8	77.5
13880	2023-05-07T07:16:09	15.7	77
13881	2023-05-07T07:26:09	15.9	74.5
13882	2023-05-07T07:36:09	15.9	76.5
13883	2023-05-07T07:46:09	16	78
13884	2023-05-07T07:56:09	15.9	78
13885	2023-05-07T08:06:09	16	79
13886	2023-05-07T08:16:09	16.2	78.5
13887	2023-05-07T08:26:09	16.3	77.5
13888	2023-05-07T08:36:09	16.3	79
13889	2023-05-07T08:46:09	16.7	79
13890	2023-05-07T08:56:09	17	76
13891	2023-05-07T09:06:09	17.3	75
13892	2023-05-07T09:16:09	17.8	72.5
13893	2023-05-07T09:26:09	18.1	73
13894	2023-05-07T09:36:09	18.3	70.5
13895	2023-05-07T09:46:09	18.5	70
13896	2023-05-07T09:56:09	18.7	72.5
13897	2023-05-07T10:06:09	19.2	68.5
13898	2023-05-07T10:16:09	19.6	66.5
13899	2023-05-07T10:26:09	20	64.5
13900	2023-05-07T10:36:09	20.5	65.5
13901	2023-05-07T10:46:09	21	64
13902	2023-05-07T10:56:09	21.9	62
13903	2023-05-07T11:06:09	22.9	58.5
13904	2023-05-07T11:16:09	23.6	55
13905	2023-05-07T11:26:09	24.1	52
13906	2023-05-07T11:36:09	24.3	49.5
13907	2023-05-07T11:46:09	25.2	51.5
13908	2023-05-07T11:56:09	25.6	46
13909	2023-05-07T12:06:09	26.3	44.5
13910	2023-05-07T12:16:09	27	43
13911	2023-05-07T12:26:09	28.1	42.5
13912	2023-05-07T12:36:09	28	40.5
13913	2023-05-07T12:46:09	28.2	39.5
13914	2023-05-07T12:56:09	26.9	43
13915	2023-05-07T13:06:09	26.9	41.5
13916	2023-05-07T13:16:09	27.8	41
13917	2023-05-07T13:26:09	28.3	41
13918	2023-05-07T13:36:09	27.8	42.5
13919	2023-05-07T13:46:09	27	43.5
13920	2023-05-07T13:56:09	25.9	46.5
13921	2023-05-07T14:06:09	26.2	41
13922	2023-05-07T14:16:09	26.4	38
13923	2023-05-07T14:26:09	26.3	39
13924	2023-05-07T14:36:09	25.5	40.5
13925	2023-05-07T14:46:09	25.7	41.5
13926	2023-05-07T14:56:09	26	41.5
13927	2023-05-07T15:06:09	26.3	42
13928	2023-05-07T15:16:09	25.3	44.5
13929	2023-05-07T15:26:09	24.7	44.5
13930	2023-05-07T15:36:09	24	47.5
13931	2023-05-07T15:46:09	23.6	49.5
13932	2023-05-07T15:56:08	23.4	51.5
13933	2023-05-07T16:06:08	22.8	52
13934	2023-05-07T16:16:08	22.4	53.5
13935	2023-05-07T16:26:08	21.9	55
13936	2023-05-07T16:36:08	21.6	57
13937	2023-05-07T16:46:08	19.9	67.5
13938	2023-05-07T16:56:08	19.2	75.5
13939	2023-05-07T17:06:08	18.9	74
13940	2023-05-07T17:16:08	18.8	73.5
13941	2023-05-07T17:26:08	18.7	75
13942	2023-05-07T17:36:08	17.3	86.5
13943	2023-05-07T17:46:08	16.8	92.5
13944	2023-05-07T17:56:08	16.9	95
13945	2023-05-07T18:06:08	16.7	96
13946	2023-05-07T18:16:08	16.5	97.5
13947	2023-05-07T18:26:08	16.7	98.5
13948	2023-05-07T18:36:08	16.9	99
13949	2023-05-07T18:46:08	16.8	99
13950	2023-05-07T18:56:08	16.5	99.5
13951	2023-05-07T19:06:08	16.8	100
13952	2023-05-07T19:16:08	17	100
13953	2023-05-07T19:26:08	17	100
13954	2023-05-07T19:36:08	16.9	100
13955	2023-05-07T19:46:08	16.6	100
13956	2023-05-07T19:56:08	16.9	100
13957	2023-05-07T20:06:08	16.7	100
13958	2023-05-07T20:16:08	16.7	100
13959	2023-05-07T20:26:08	16.6	100
13960	2023-05-07T20:36:08	16.5	100
13961	2023-05-07T20:46:08	16.5	100
13962	2023-05-07T20:56:08	16.4	100
13963	2023-05-07T21:06:08	16.3	100
13964	2023-05-07T21:16:08	16.3	100
13965	2023-05-07T21:26:08	16.3	100
13966	2023-05-07T21:36:08	16.1	100
13967	2023-05-07T21:46:08	15.9	100
13968	2023-05-07T21:56:08	16	100
13969	2023-05-07T22:06:08	15.9	100
13970	2023-05-07T22:16:08	15.8	100
13971	2023-05-07T22:26:08	15.8	100
13972	2023-05-07T22:36:08	15.7	100
13973	2023-05-07T22:46:08	15.6	100
13974	2023-05-07T22:56:08	15.4	100
13975	2023-05-07T23:06:08	15.4	100
13976	2023-05-07T23:16:08	15.3	100
13977	2023-05-07T23:26:08	15.2	100
13978	2023-05-07T23:36:08	15.2	100
13979	2023-05-07T23:46:08	15.4	100
13980	2023-05-07T23:56:08	15.3	100
13981	2023-05-08T00:06:08	15.2	100
13982	2023-05-08T00:16:08	15	100
13983	2023-05-08T00:26:08	15.1	100
13984	2023-05-08T00:36:08	15.1	100
13985	2023-05-08T00:46:08	15.2	100
13986	2023-05-08T00:56:08	15.2	100
13987	2023-05-08T01:06:08	15.4	100
13988	2023-05-08T01:16:08	15.3	100
13989	2023-05-08T01:26:08	15.3	100
13990	2023-05-08T01:36:08	15.3	100
13991	2023-05-08T01:46:08	15.3	100
13992	2023-05-08T01:56:08	15.3	100
13993	2023-05-08T02:06:08	15.3	100
13994	2023-05-08T02:16:08	15.3	100
13995	2023-05-08T02:26:08	15.3	100
13996	2023-05-08T02:36:08	15.3	100
13997	2023-05-08T02:46:08	15.4	100
13998	2023-05-08T02:56:08	15.4	100
13999	2023-05-08T03:06:08	15.4	100
14000	2023-05-08T03:16:08	15.5	100
14001	2023-05-08T03:26:08	15.3	100
14002	2023-05-08T03:36:08	15.4	100
14003	2023-05-08T03:46:08	15.3	100
14004	2023-05-08T03:56:08	15.3	100
14005	2023-05-08T04:06:07	15.2	100
14006	2023-05-08T04:16:07	15.2	100
14007	2023-05-08T04:26:07	15.2	100
14008	2023-05-08T04:36:07	15.3	100
14009	2023-05-08T04:46:07	15.3	100
14010	2023-05-08T04:56:07	15.4	100
14011	2023-05-08T05:06:07	15.4	100
14012	2023-05-08T05:16:07	15.3	100
14013	2023-05-08T05:26:07	15.3	100
14014	2023-05-08T05:36:08	15.3	100
14015	2023-05-08T05:46:07	15.4	100
14016	2023-05-08T05:56:07	15.4	100
14017	2023-05-08T06:06:07	15.4	100
14018	2023-05-08T06:16:07	15.5	100
14019	2023-05-08T06:26:07	15.7	100
14020	2023-05-08T06:36:07	15.7	100
14021	2023-05-08T06:46:07	15.7	99.5
14022	2023-05-08T06:56:07	15.7	99
14023	2023-05-08T07:06:07	16.1	99.5
14024	2023-05-08T07:16:07	16.3	99
14025	2023-05-08T07:26:07	16.3	98
14026	2023-05-08T07:36:07	16.4	98
14027	2023-05-08T07:46:07	16.3	97.5
14028	2023-05-08T07:56:07	16.4	97.5
14029	2023-05-08T08:06:07	16.4	96.5
14030	2023-05-08T08:16:07	16.4	96
14031	2023-05-08T08:26:07	16.4	95
14032	2023-05-08T08:36:07	16.6	96
14033	2023-05-08T08:46:07	16.9	97.5
14034	2023-05-08T08:56:07	17.2	96
14035	2023-05-08T09:06:07	17.2	95
14036	2023-05-08T09:16:07	17.4	95.5
14037	2023-05-08T09:26:07	17.6	95.5
14038	2023-05-08T09:36:07	17.9	95
14039	2023-05-08T09:46:07	18.6	94
14040	2023-05-08T09:56:07	19	89
14041	2023-05-08T10:06:07	19.4	87.5
14042	2023-05-08T10:16:07	19.8	87.5
14043	2023-05-08T10:26:07	20.2	86
14044	2023-05-08T10:36:07	20.5	84
14045	2023-05-08T10:46:07	20.6	84.5
14046	2023-05-08T10:56:07	21	82.5
14047	2023-05-08T11:06:07	20.6	81
14048	2023-05-08T11:16:07	20.3	80.5
14049	2023-05-08T11:26:07	19.9	80
14050	2023-05-08T11:36:07	19.9	79.5
14051	2023-05-08T11:46:07	19.9	81
14052	2023-05-08T11:56:07	20.1	79.5
14053	2023-05-08T12:06:07	19.9	79.5
14054	2023-05-08T12:16:07	20	77.5
14055	2023-05-08T12:26:07	20.2	76.5
14056	2023-05-08T12:36:07	20.7	76
14057	2023-05-08T12:46:07	21.1	73
14058	2023-05-08T12:56:07	21.5	71.5
14059	2023-05-08T13:06:07	22	69
14060	2023-05-08T13:16:07	22.5	67
14061	2023-05-08T13:26:07	23	65.5
14062	2023-05-08T13:36:07	22.8	67.5
14063	2023-05-08T13:46:07	23.5	64
14064	2023-05-08T13:56:07	27.8	53
14065	2023-05-08T14:06:07	30.3	46.5
14066	2023-05-08T14:16:07	30.3	45
14067	2023-05-08T14:26:07	26.5	53.5
14068	2023-05-08T14:36:07	25.6	56
14069	2023-05-08T14:46:07	26.5	53.5
14070	2023-05-08T14:56:07	31.1	42
14071	2023-05-08T15:06:07	32.6	38.5
14072	2023-05-08T15:16:07	31	41.5
14073	2023-05-08T15:26:07	32.7	37.5
14074	2023-05-08T15:36:07	28	48.5
14075	2023-05-08T15:46:06	26.8	50
14076	2023-05-08T15:56:06	26.2	52.5
14077	2023-05-08T16:06:06	25	56
14078	2023-05-08T16:16:06	24.2	58
14079	2023-05-08T16:26:06	24.1	59.5
14080	2023-05-08T16:36:06	24	59.5
14081	2023-05-08T16:46:06	24	60
14082	2023-05-08T16:56:06	23.3	60.5
14083	2023-05-08T17:06:06	22.8	62
14084	2023-05-08T17:16:06	22.4	63.5
14085	2023-05-08T17:26:06	21.8	66.5
14086	2023-05-08T17:36:06	21.3	68.5
14087	2023-05-08T17:46:06	20.9	70.5
14088	2023-05-08T17:56:06	20.4	72
14089	2023-05-08T18:06:06	20.2	74
14090	2023-05-08T18:16:06	20	75
14091	2023-05-08T18:26:06	19.8	76
14092	2023-05-08T18:36:06	19.5	77
14093	2023-05-08T18:46:06	19.4	77.5
14094	2023-05-08T18:56:06	19.1	79
14095	2023-05-08T19:06:06	19.1	79
14096	2023-05-08T19:16:06	18.8	79.5
14097	2023-05-08T19:26:06	18.7	80
14098	2023-05-08T19:36:06	18.5	80.5
14099	2023-05-08T19:46:06	18.3	81.5
14100	2023-05-08T19:56:06	18.2	82.5
14101	2023-05-08T20:06:06	18.1	82.5
14102	2023-05-08T20:16:06	18	83.5
14103	2023-05-08T20:26:06	17.8	84.5
14104	2023-05-08T20:36:06	17.7	84
14105	2023-05-08T20:46:06	17.6	85
14106	2023-05-08T20:56:06	17.6	85.5
14107	2023-05-08T21:06:06	17.4	85.5
14108	2023-05-08T21:16:06	17.3	86.5
14109	2023-05-08T21:26:06	17.1	86
14110	2023-05-08T21:36:06	17	86.5
14111	2023-05-08T21:46:06	17	87
14112	2023-05-08T21:56:06	16.8	87
14113	2023-05-08T22:06:06	16.7	87.5
14114	2023-05-08T22:16:06	16.6	87.5
14115	2023-05-08T22:26:06	16.7	88
14116	2023-05-08T22:36:06	16.6	88
14117	2023-05-08T22:46:06	16.5	88.5
14118	2023-05-08T22:56:06	16.4	89
14119	2023-05-08T23:06:06	16.2	89.5
14120	2023-05-08T23:16:06	16.1	89
14121	2023-05-08T23:26:06	16	89
14122	2023-05-08T23:36:06	15.9	90
14123	2023-05-08T23:46:06	15.8	90
14124	2023-05-08T23:56:06	15.9	90.5
14125	2023-05-09T00:06:06	15.7	91
14126	2023-05-09T00:16:06	15.7	91
14127	2023-05-09T00:26:06	15.5	91.5
14128	2023-05-09T00:36:06	15.4	90.5
14129	2023-05-09T00:46:06	15.3	91
14130	2023-05-09T00:56:06	15.3	91.5
14131	2023-05-09T01:06:06	15.3	91.5
14132	2023-05-09T01:16:06	15.3	91
14133	2023-05-09T01:26:06	15.4	91
14134	2023-05-09T01:36:06	15.6	90.5
14135	2023-05-09T01:46:06	15.5	90
14136	2023-05-09T01:56:06	15.3	91
14137	2023-05-09T02:06:06	15.4	91
14138	2023-05-09T02:16:06	15.5	91
14139	2023-05-09T02:26:06	15.2	92
14140	2023-05-09T02:36:06	14.9	93.5
14141	2023-05-09T02:46:06	14.9	93.5
14142	2023-05-09T02:56:06	15	93.5
14143	2023-05-09T03:06:06	15.2	93
14144	2023-05-09T03:16:05	15.2	93
14145	2023-05-09T03:26:05	15.2	93.5
14146	2023-05-09T03:36:05	15.2	93
14147	2023-05-09T03:56:05	15.2	92
14148	2023-05-09T04:06:05	15.1	93
14149	2023-05-09T04:16:12	15.1	93
14150	2023-05-09T04:26:06	15.2	93.5
14151	2023-05-09T04:36:05	15.1	93
14152	2023-05-09T04:46:05	15	93.5
14153	2023-05-09T04:56:05	15.2	94
14154	2023-05-09T05:06:05	15.2	94
14155	2023-05-09T05:16:05	15.4	94.5
14156	2023-05-09T05:26:05	15.7	94.5
14157	2023-05-09T05:36:05	16	93.5
14158	2023-05-09T05:46:05	16.1	93
14159	2023-05-09T05:56:05	16.4	92.5
14160	2023-05-09T06:06:05	16.7	91.5
14161	2023-05-09T06:16:05	17	91
14162	2023-05-09T06:26:05	17.1	90.5
14163	2023-05-09T06:36:05	17.2	89.5
14164	2023-05-09T06:46:05	17.2	89
14165	2023-05-09T06:56:05	17.2	88.5
14166	2023-05-09T07:06:05	17.6	87
14167	2023-05-09T07:16:05	17.8	85.5
14168	2023-05-09T07:26:05	18.1	84
14169	2023-05-09T07:36:05	18.1	85.5
14170	2023-05-09T07:46:05	18	85.5
14171	2023-05-09T07:56:05	18.5	84.5
14172	2023-05-09T08:06:05	18.7	83.5
14173	2023-05-09T08:16:05	18.9	83
14174	2023-05-09T08:26:05	19.4	80.5
14175	2023-05-09T08:36:05	19.7	79
14176	2023-05-09T08:46:05	20.2	77
14177	2023-05-09T08:56:05	20.4	76
14178	2023-05-09T09:06:05	20	76
14179	2023-05-09T09:16:05	20.3	75.5
14180	2023-05-09T09:26:05	20.4	75
14181	2023-05-09T09:36:05	20.6	74.5
14182	2023-05-09T09:46:05	20.5	74.5
14183	2023-05-09T09:56:05	20.6	75
14184	2023-05-09T10:06:05	20.3	76
14185	2023-05-09T10:16:05	20	80
14186	2023-05-09T10:26:05	20.4	80.5
14187	2023-05-09T10:36:05	21	79.5
14188	2023-05-09T10:46:05	22	75
14189	2023-05-09T10:56:05	22	71
14190	2023-05-09T11:06:05	21.8	72
14191	2023-05-09T11:16:05	22.1	73
14192	2023-05-09T11:26:05	22.1	72.5
14193	2023-05-09T11:36:05	22.4	71.5
14194	2023-05-09T11:56:05	23	69.5
14195	2023-05-09T12:06:05	22.6	68.5
14196	2023-05-09T12:16:05	21.9	69.5
14197	2023-05-09T12:26:05	21.3	74.5
14198	2023-05-09T12:36:05	21.3	74
14199	2023-05-09T12:46:05	21.8	73.5
14200	2023-05-09T12:56:05	22.9	70
14201	2023-05-09T13:06:05	25.1	62.5
14202	2023-05-09T13:16:05	25.2	56.5
14203	2023-05-09T13:26:05	25.1	58.5
14204	2023-05-09T13:36:05	24.8	58
14205	2023-05-09T13:46:05	24.1	60.5
14206	2023-05-09T13:56:05	23.9	63.5
14207	2023-05-09T14:06:05	24.5	63.5
14208	2023-05-09T14:16:05	25	63
14209	2023-05-09T14:26:04	24.8	63
14210	2023-05-09T14:36:04	24.7	59
14211	2023-05-09T14:46:04	24.3	62.5
14212	2023-05-09T14:56:04	24	63
14213	2023-05-09T15:06:04	23.7	62.5
14214	2023-05-09T15:16:04	23.5	60
14215	2023-05-09T15:26:04	23	59.5
14216	2023-05-09T15:36:04	22.6	61.5
14217	2023-05-09T15:46:04	22.4	62.5
14218	2023-05-09T15:56:04	22.2	65
14219	2023-05-09T16:06:04	22	70.5
14220	2023-05-09T16:16:04	21.7	70
14221	2023-05-09T16:26:04	21.4	70
14222	2023-05-09T16:36:04	20.4	82.5
14223	2023-05-09T16:46:04	19.2	91.5
14224	2023-05-09T16:56:04	19	95
14225	2023-05-09T17:06:04	18.5	96
14226	2023-05-09T17:16:04	16.9	97
14227	2023-05-09T17:26:04	16.4	98.5
14228	2023-05-09T17:36:04	16.3	99
14229	2023-05-09T17:46:04	16.1	99.5
14230	2023-05-09T17:56:04	16.1	100
14231	2023-05-09T18:06:04	15.9	100
14232	2023-05-09T18:16:04	15.8	100
14233	2023-05-09T18:26:04	15.7	100
14234	2023-05-09T18:36:04	15.6	100
14235	2023-05-09T18:46:04	15.5	100
14236	2023-05-09T18:56:04	15.4	100
14237	2023-05-09T19:06:04	15.4	100
14238	2023-05-09T19:16:04	15.1	100
14239	2023-05-09T19:26:04	15	100
14240	2023-05-09T19:36:04	15.1	100
14241	2023-05-09T19:46:04	15	100
14242	2023-05-09T19:56:04	15	100
14243	2023-05-09T20:06:04	14.9	100
14244	2023-05-09T20:16:04	14.8	100
14245	2023-05-09T20:26:04	14.8	100
14246	2023-05-09T20:36:04	14.7	100
14247	2023-05-09T20:46:04	14.7	100
14248	2023-05-09T20:56:04	14.6	100
14249	2023-05-09T21:06:04	14.5	100
14250	2023-05-09T21:16:04	14.4	100
14251	2023-05-09T21:26:04	14.4	100
14252	2023-05-09T21:36:04	14.4	100
14253	2023-05-09T21:46:04	14.4	100
14254	2023-05-09T21:56:04	14.2	100
14255	2023-05-09T22:06:04	14	100
14256	2023-05-09T22:16:04	13.8	100
14257	2023-05-09T22:26:04	13.6	100
14258	2023-05-09T22:36:04	13.7	100
14259	2023-05-09T22:46:04	13.3	100
14260	2023-05-09T22:56:04	13.4	100
14261	2023-05-09T23:06:04	13.2	100
14262	2023-05-09T23:16:04	13	100
14263	2023-05-09T23:26:04	13	100
14264	2023-05-09T23:36:04	12.9	100
14265	2023-05-09T23:46:04	12.9	100
14266	2023-05-09T23:56:04	12.9	100
14267	2023-05-10T00:06:04	12.9	100
14268	2023-05-10T00:16:04	12.9	100
14269	2023-05-10T00:26:04	12.9	100
14270	2023-05-10T00:36:04	12.9	100
14271	2023-05-10T00:46:04	13	100
14272	2023-05-10T00:56:04	13	100
14273	2023-05-10T01:06:04	12.9	100
14274	2023-05-10T01:16:04	13	100
14275	2023-05-10T01:26:04	12.9	100
14276	2023-05-10T01:36:04	13	100
14277	2023-05-10T01:46:04	12.9	100
14278	2023-05-10T01:56:04	13	100
14279	2023-05-10T02:06:04	13	100
14280	2023-05-10T02:16:04	13	100
14281	2023-05-10T02:26:04	13	100
14282	2023-05-10T02:36:04	13	100
14283	2023-05-10T02:46:04	13	100
14284	2023-05-10T02:56:03	12.8	100
14285	2023-05-10T03:06:03	12.9	100
14286	2023-05-10T03:16:23	12.6	100
14287	2023-05-10T03:26:03	12.8	100
14288	2023-05-10T03:36:03	12.7	100
14289	2023-05-10T03:46:03	12.7	100
14290	2023-05-10T03:56:03	12.6	100
14291	2023-05-10T04:06:03	12.7	100
14292	2023-05-10T04:16:03	12.7	100
14293	2023-05-10T04:26:03	12.8	100
14294	2023-05-10T04:36:03	12.9	100
14295	2023-05-10T04:46:03	12.9	100
14296	2023-05-10T04:56:03	12.9	100
14297	2023-05-10T05:06:03	12.9	100
14298	2023-05-10T05:16:03	12.8	100
14299	2023-05-10T05:26:03	12.9	100
14300	2023-05-10T05:36:03	13	100
14301	2023-05-10T05:56:04	13.2	100
14302	2023-05-10T06:06:03	13.3	100
14303	2023-05-10T06:16:03	13.6	100
14304	2023-05-10T06:36:03	13.6	100
14305	2023-05-10T06:46:03	13.8	100
14306	2023-05-10T06:56:03	14.1	100
14307	2023-05-10T07:06:03	14.2	100
14308	2023-05-10T07:16:03	14.5	100
14309	2023-05-10T07:26:03	14.5	100
14310	2023-05-10T07:36:03	14.2	100
14311	2023-05-10T07:46:03	14.4	100
14312	2023-05-10T07:56:03	14.7	100
14313	2023-05-10T08:06:03	14.8	100
14314	2023-05-10T08:16:03	14.8	100
14315	2023-05-10T08:26:03	15.3	100
14316	2023-05-10T08:36:03	15.3	100
14317	2023-05-10T08:46:03	15.6	100
14318	2023-05-10T08:56:03	15.8	100
14319	2023-05-10T09:06:03	15.9	100
14320	2023-05-10T09:16:03	15.7	100
14321	2023-05-10T09:26:03	15	100
14322	2023-05-10T09:36:03	14.1	100
14323	2023-05-10T09:46:03	14.7	100
14324	2023-05-10T09:56:03	15.2	100
14325	2023-05-10T10:06:03	15.4	100
14326	2023-05-10T10:26:03	16.5	100
14327	2023-05-10T10:36:03	16.6	100
14328	2023-05-10T10:46:03	15.9	100
14329	2023-05-10T10:56:03	15.5	100
14330	2023-05-10T11:06:03	16.1	100
14331	2023-05-10T11:16:03	16.2	100
14332	2023-05-10T11:26:03	16.6	100
14333	2023-05-10T11:36:03	16.5	99
14334	2023-05-10T11:46:03	17	100
14335	2023-05-10T11:56:03	17.3	98.5
14336	2023-05-10T12:06:03	18	97.5
14337	2023-05-10T12:16:03	18.6	94
14338	2023-05-10T12:26:03	19	85.5
14339	2023-05-10T12:36:03	19.4	54
14340	2023-05-10T12:46:03	20.2	53.5
14341	2023-05-10T12:56:03	19.3	53.5
14342	2023-05-10T13:06:03	19.5	55
14343	2023-05-10T13:16:03	20	48.5
14344	2023-05-10T13:26:03	19.9	48
14345	2023-05-10T13:36:03	20.3	47.5
14346	2023-05-10T13:46:03	20.2	47
14347	2023-05-10T13:56:03	19.2	54
14348	2023-05-10T14:06:03	17.9	52.5
14349	2023-05-10T14:16:03	17.7	54
14350	2023-05-10T14:26:03	19.2	53
14351	2023-05-10T14:46:03	24.2	40
14352	2023-05-10T14:56:03	22.4	41.5
14353	2023-05-10T15:06:03	19.8	47
14354	2023-05-10T15:16:03	19	51
14355	2023-05-10T15:26:03	18.7	55.5
14356	2023-05-10T15:36:03	18	53.5
14357	2023-05-10T15:46:02	16.8	69.5
14358	2023-05-10T15:56:02	20.2	53.5
14359	2023-05-10T16:06:03	19.7	54
14360	2023-05-10T16:16:02	18.4	59
14361	2023-05-10T16:26:02	18.4	60.5
14362	2023-05-10T16:36:02	18.3	52.5
14363	2023-05-10T16:46:02	18.4	55.5
14364	2023-05-10T16:56:02	17.6	55.5
14365	2023-05-10T17:06:02	17.3	56.5
14366	2023-05-10T17:16:02	17.2	57.5
14367	2023-05-10T17:26:02	17.2	57.5
14368	2023-05-10T17:36:02	17	58.5
14369	2023-05-10T17:46:02	16.6	61.5
14370	2023-05-10T17:56:02	16.2	62.5
14371	2023-05-10T18:06:02	16.1	64
14372	2023-05-10T18:16:02	15.8	64.5
14373	2023-05-10T18:26:02	15.5	66
14374	2023-05-10T18:36:02	15.1	68
14375	2023-05-10T18:46:03	15	69
14376	2023-05-10T18:56:02	14.7	72
14377	2023-05-10T19:06:02	14.5	75
14378	2023-05-10T19:16:02	14.1	76
14379	2023-05-10T19:26:02	14	75.5
14380	2023-05-10T19:36:02	13.8	74.5
14381	2023-05-10T19:46:02	13.7	72.5
14382	2023-05-10T19:56:02	13.6	73.5
14383	2023-05-10T20:06:02	13.4	74
14384	2023-05-10T20:16:02	13.3	74.5
14385	2023-05-10T20:26:03	13	76.5
14386	2023-05-10T20:36:02	13.1	78
14387	2023-05-10T20:56:02	12.6	81
14388	2023-05-10T21:06:02	12.6	80.5
14389	2023-05-10T21:16:02	12.6	79
14390	2023-05-10T21:26:02	12.6	80
14391	2023-05-10T21:36:02	12.4	81.5
14392	2023-05-10T21:46:02	12.4	82
14393	2023-05-10T21:56:02	12.4	82.5
14394	2023-05-10T22:06:02	12.3	82
14395	2023-05-10T22:16:02	12.1	83
14396	2023-05-10T22:26:02	11.9	84
14397	2023-05-10T22:36:02	11.7	85
14398	2023-05-10T22:46:02	11.7	85
14399	2023-05-10T22:56:02	11.6	85
14400	2023-05-10T23:06:02	11.6	86
14401	2023-05-10T23:16:02	11.7	86
14402	2023-05-10T23:26:02	11.6	86
14403	2023-05-10T23:36:02	11.5	86
14404	2023-05-10T23:46:02	11.3	86
14405	2023-05-10T23:56:02	11.4	86
14406	2023-05-11T00:06:02	11.6	85.5
14407	2023-05-11T00:16:02	11.7	85
14408	2023-05-11T00:26:02	11.8	85
14409	2023-05-11T00:36:02	11.7	85.5
14410	2023-05-11T00:46:02	11.6	86.5
14411	2023-05-11T00:56:02	11.7	86
14412	2023-05-11T01:06:02	11.5	86
14413	2023-05-11T01:16:02	11.5	86.5
14414	2023-05-11T01:26:02	11.3	87.5
14415	2023-05-11T01:36:02	11.2	87.5
14416	2023-05-11T01:46:02	11.1	87.5
14417	2023-05-11T01:56:02	11.1	88
14418	2023-05-11T02:06:02	10.9	88.5
14419	2023-05-11T02:16:02	11.1	89
14420	2023-05-11T02:26:02	11	88
14421	2023-05-11T02:36:02	11	88.5
14422	2023-05-11T02:46:02	11	88.5
14423	2023-05-11T02:56:02	11	88.5
14424	2023-05-11T03:06:02	11.2	88.5
14425	2023-05-11T03:16:02	11	88
14426	2023-05-11T03:26:02	11.1	88
14427	2023-05-11T03:46:02	11	88.5
14428	2023-05-11T03:56:02	11	88.5
14429	2023-05-11T04:06:02	11	89
14430	2023-05-11T04:16:02	11.1	88.5
14431	2023-05-11T04:26:02	11	89
14432	2023-05-11T04:36:02	11	88.5
14433	2023-05-11T04:56:02	11	88.5
14434	2023-05-11T05:06:02	11	88.5
14435	2023-05-11T05:16:02	11	88.5
14436	2023-05-11T05:26:02	11	88.5
14437	2023-05-11T05:36:02	11.1	88.5
14438	2023-05-11T05:46:08	11.2	88
14439	2023-05-11T05:56:02	11.3	88
14440	2023-05-11T06:06:08	11.4	87
14441	2023-05-11T06:16:01	11.6	86.5
14442	2023-05-11T06:26:01	11.8	86
14443	2023-05-11T06:36:01	11.8	85.5
14444	2023-05-11T06:46:01	12	84.5
14445	2023-05-11T06:56:01	12.2	84
14446	2023-05-11T07:06:01	12.4	83
14447	2023-05-11T07:16:01	12.7	81.5
14448	2023-05-11T07:26:02	12.6	81
14449	2023-05-11T07:36:01	12.6	80.5
14450	2023-05-11T07:46:02	12.7	80.5
14451	2023-05-11T07:56:01	13	79.5
14452	2023-05-11T08:06:01	12.9	80
14453	2023-05-11T08:16:01	13	79.5
14454	2023-05-11T08:26:01	13.1	79.5
14455	2023-05-11T08:36:01	13.4	78
14456	2023-05-11T08:46:01	13.5	78
14457	2023-05-11T08:56:01	13.6	77.5
14458	2023-05-11T09:06:01	13.7	76.5
14459	2023-05-11T09:16:02	13.9	75.5
14460	2023-05-11T09:26:01	14	75
14461	2023-05-11T09:36:01	14.2	73
14462	2023-05-11T09:46:01	14.3	72.5
14463	2023-05-11T09:56:01	14.6	72
14464	2023-05-11T10:06:01	14.9	72
14465	2023-05-11T10:16:01	15.2	70.5
14466	2023-05-11T10:26:01	15.2	69.5
14467	2023-05-11T10:36:01	15.8	69.5
14468	2023-05-11T10:56:01	16.7	64.5
14469	2023-05-11T11:06:01	16.4	65.5
14470	2023-05-11T11:16:01	16.7	66
14471	2023-05-11T11:36:01	16.7	63
14472	2023-05-11T11:46:01	17.2	61.5
14473	2023-05-11T11:56:01	17.5	61.5
14474	2023-05-11T12:06:01	17.8	61.5
14475	2023-05-11T12:16:01	18.2	57.5
14476	2023-05-11T12:26:01	19.2	59
14477	2023-05-11T12:36:01	19.9	57
14478	2023-05-11T12:46:01	20.4	55
14479	2023-05-11T12:56:01	20.1	52.5
14480	2023-05-11T13:06:01	20.3	54.5
14481	2023-05-11T13:16:01	20.8	50.5
14482	2023-05-11T13:26:01	21.3	50
14483	2023-05-11T13:36:01	22.4	48
14484	2023-05-11T13:46:01	23.1	45
14485	2023-05-11T13:56:01	23	45.5
14486	2023-05-11T14:06:01	23.9	41.5
14487	2023-05-11T14:16:01	23.7	43.5
14488	2023-05-11T14:26:01	23.6	43
14489	2023-05-11T14:36:01	25	40
14490	2023-05-11T14:46:01	24.7	40.5
14491	2023-05-11T14:56:01	25.4	38
14492	2023-05-11T15:06:01	24.9	38.5
14493	2023-05-11T15:16:01	25.2	37.5
14494	2023-05-11T15:26:01	25.7	38
14495	2023-05-11T15:36:01	26	36.5
14496	2023-05-11T15:46:01	25.9	37
14497	2023-05-11T15:56:01	27.1	36.5
14498	2023-05-11T16:06:01	27.7	33
14499	2023-05-11T16:16:01	27.7	32.5
14500	2023-05-11T16:26:01	27.8	31
14501	2023-05-11T16:36:01	26.5	34.5
14502	2023-05-11T16:46:01	25.7	36.5
14503	2023-05-11T16:56:01	24.6	38.5
14504	2023-05-11T17:06:01	24.2	38.5
14505	2023-05-11T17:16:01	24.7	37
14506	2023-05-11T17:26:01	23.8	37.5
14507	2023-05-11T17:36:01	22.1	41.5
14508	2023-05-11T17:46:01	20.9	45.5
14509	2023-05-11T17:56:01	19.8	48
14510	2023-05-11T18:06:01	19.1	50.5
14511	2023-05-11T18:16:01	18.9	53.5
14512	2023-05-11T18:36:00	18.4	56.5
14513	2023-05-11T18:46:00	18.2	58.5
14514	2023-05-11T18:56:00	17.9	60.5
14515	2023-05-11T19:06:00	17.7	61
14516	2023-05-11T19:16:00	17.4	60
14517	2023-05-11T19:26:00	17.1	61
14518	2023-05-11T19:36:00	16.9	62.5
14519	2023-05-11T19:46:00	16.5	63
14520	2023-05-11T19:56:00	16.4	64.5
14521	2023-05-11T20:06:00	16.1	65.5
14522	2023-05-11T20:16:00	16	65.5
14523	2023-05-11T20:26:00	15.9	66
14524	2023-05-11T20:36:00	15.7	67.5
14525	2023-05-11T20:46:00	15.5	69.5
14526	2023-05-11T20:56:00	15.3	71
14527	2023-05-11T21:06:00	15.1	72
14528	2023-05-11T21:16:00	15	74
14529	2023-05-11T21:26:00	14.9	75.5
14530	2023-05-11T21:36:00	14.8	76
14531	2023-05-11T21:46:00	14.5	77.5
14532	2023-05-11T21:56:00	14.4	79
14533	2023-05-11T22:06:00	14.2	80.5
14534	2023-05-11T22:16:00	14	81.5
14535	2023-05-11T22:26:00	14	82.5
14536	2023-05-11T22:36:00	13.8	83
14537	2023-05-11T22:46:00	13.7	83
14538	2023-05-11T22:56:00	13.5	83.5
14539	2023-05-11T23:06:00	13.5	84
14540	2023-05-11T23:16:00	13.4	85
14541	2023-05-11T23:26:00	13.4	85.5
14542	2023-05-11T23:36:00	13.2	86.5
14543	2023-05-11T23:46:00	13.1	87.5
14544	2023-05-11T23:56:00	13.1	88.5
14545	2023-05-12T00:06:00	12.9	89.5
14546	2023-05-12T00:16:00	12.9	90
14547	2023-05-12T00:26:00	12.8	90
14548	2023-05-12T00:36:00	12.7	90.5
14549	2023-05-12T00:46:00	12.8	90.5
14550	2023-05-12T00:56:00	12.6	91
14551	2023-05-12T01:16:00	12.5	92
14552	2023-05-12T01:26:00	12.5	92
14553	2023-05-12T01:36:00	12.5	92
14554	2023-05-12T01:46:00	12.4	92
14555	2023-05-12T01:56:00	12.4	92.5
14556	2023-05-12T02:06:00	12.3	93
14557	2023-05-12T02:16:00	12.3	93
14558	2023-05-12T02:26:00	12.3	93
14559	2023-05-12T02:36:00	12.3	93
14560	2023-05-12T02:46:00	12.3	93
14561	2023-05-12T02:56:00	12.2	93.5
14562	2023-05-12T03:06:00	12.2	93.5
14563	2023-05-12T03:16:00	12.2	93
14564	2023-05-12T03:26:00	12.2	93.5
14565	2023-05-12T03:36:00	12.2	93.5
14566	2023-05-12T03:46:00	12.2	93.5
14567	2023-05-12T03:56:00	12.2	94
14568	2023-05-12T04:06:00	12.2	93.5
14569	2023-05-12T04:16:00	12.2	93.5
14570	2023-05-12T04:26:00	12.2	93.5
14571	2023-05-12T04:36:00	12.2	93.5
14572	2023-05-12T04:46:00	12.2	93
14573	2023-05-12T04:56:00	12.2	93
14574	2023-05-12T05:06:00	12.2	92.5
14575	2023-05-12T05:16:00	12.2	91.5
14576	2023-05-12T05:26:00	12.2	91
14577	2023-05-12T05:36:00	12.3	91
14578	2023-05-12T05:46:00	12.5	90.5
14579	2023-05-12T05:56:00	12.6	89.5
14580	2023-05-12T06:06:00	12.8	89.5
14581	2023-05-12T06:16:00	13	88
14582	2023-05-12T06:26:00	13	87
14583	2023-05-12T06:36:00	13.5	86.5
14584	2023-05-12T06:46:00	13.8	84
14585	2023-05-12T06:56:00	14	83.5
14586	2023-05-12T07:06:00	14.5	81
14587	2023-05-12T07:15:59	14.8	81
14588	2023-05-12T07:26:00	14.9	80
14589	2023-05-12T07:35:59	15.3	79.5
14590	2023-05-12T07:45:59	15.6	78
14591	2023-05-12T07:55:59	15.8	77.5
14592	2023-05-12T08:06:00	16	75.5
14593	2023-05-12T08:15:59	16.5	75
14594	2023-05-12T08:26:00	16.3	74
14595	2023-05-12T08:35:59	16.7	74
14596	2023-05-12T08:45:59	16.8	73
14597	2023-05-12T08:55:59	17.2	70
14598	2023-05-12T09:05:59	17.4	69
14599	2023-05-12T09:15:59	17.7	66.5
14600	2023-05-12T09:25:59	17.9	66.5
14601	2023-05-12T09:35:59	18	67.5
14602	2023-05-12T09:45:59	18.7	65
14603	2023-05-12T09:55:59	19	64.5
14604	2023-05-12T10:05:59	18.9	63.5
14605	2023-05-12T10:15:59	19	62.5
14606	2023-05-12T10:25:59	18.6	64
14607	2023-05-12T10:35:59	18.6	64
14608	2023-05-12T10:45:59	18.7	65
14609	2023-05-12T10:55:59	18.5	64.5
14610	2023-05-12T11:05:59	18.8	61.5
14611	2023-05-12T11:15:59	19	63
14612	2023-05-12T11:25:59	19.3	62
14613	2023-05-12T11:35:59	19.1	61.5
14614	2023-05-12T11:45:59	19.5	59
14615	2023-05-12T11:55:59	20	57.5
14616	2023-05-12T12:05:59	21.3	57
14617	2023-05-12T12:15:59	21.8	54.5
14618	2023-05-12T12:25:59	21.7	54
14619	2023-05-12T12:35:59	22	54
14620	2023-05-12T12:45:59	22.8	52
14621	2023-05-12T12:55:59	22	53.5
14622	2023-05-12T13:05:59	21.5	53.5
14623	2023-05-12T13:15:59	21.3	54.5
14624	2023-05-12T13:25:59	20.7	59
14625	2023-05-12T13:45:59	20.7	61.5
14626	2023-05-12T13:55:59	24.5	51.5
14627	2023-05-12T14:05:59	23.9	52
14628	2023-05-12T14:15:59	24.7	49.5
14629	2023-05-12T14:25:59	22.3	54.5
14630	2023-05-12T14:35:59	20.2	67
14631	2023-05-12T14:45:59	19.4	69
14632	2023-05-12T14:55:59	18.9	68
14633	2023-05-12T15:05:59	19	66.5
14634	2023-05-12T15:15:59	20.1	64
14635	2023-05-12T15:25:59	19.7	64.5
14636	2023-05-12T15:35:59	20	62.5
14637	2023-05-12T15:45:59	21	60.5
14638	2023-05-12T15:55:59	21.5	55.5
14639	2023-05-12T16:05:59	20.6	58.5
14640	2023-05-12T16:15:59	20.6	59.5
14641	2023-05-12T16:25:59	20.1	61
14642	2023-05-12T16:35:59	19.5	63
14643	2023-05-12T16:45:59	18.8	64
14644	2023-05-12T16:55:59	18.4	63.5
14645	2023-05-12T17:05:59	18	65
14646	2023-05-12T17:15:59	17.9	65.5
14647	2023-05-12T17:25:59	17.8	65.5
14648	2023-05-12T17:35:59	20.7	57
14649	2023-05-12T17:45:59	18.9	59
14650	2023-05-12T17:55:59	18.2	65
14651	2023-05-12T18:05:59	17.7	68
14652	2023-05-12T18:15:59	16.8	70.5
14653	2023-05-12T18:25:59	16.1	73
14654	2023-05-12T18:35:59	15.7	75
14655	2023-05-12T18:45:59	15.2	76.5
14656	2023-05-12T18:55:58	14.9	78
14657	2023-05-12T19:05:58	14.6	79.5
14658	2023-05-12T19:15:58	14.2	80
14659	2023-05-12T19:25:58	14	81.5
14660	2023-05-12T19:35:58	14	82
14661	2023-05-12T19:45:58	13.9	81.5
14662	2023-05-12T19:55:58	14	81
14663	2023-05-12T20:05:58	14.1	80
14664	2023-05-12T20:15:58	13.8	82
14665	2023-05-12T20:25:58	13.7	81.5
14666	2023-05-12T20:35:58	13.6	81.5
14667	2023-05-12T20:45:58	13.4	82.5
14668	2023-05-12T20:55:58	13.1	83.5
14669	2023-05-12T21:05:58	13.5	82
14670	2023-05-12T21:15:58	13.2	83
14671	2023-05-12T21:25:58	12.8	84.5
14672	2023-05-12T21:35:58	12.5	86
14673	2023-05-12T21:45:58	12.5	86
14674	2023-05-12T21:55:58	12.7	85.5
14675	2023-05-12T22:05:58	12.9	84.5
14676	2023-05-12T22:15:58	13	84.5
14677	2023-05-12T22:25:58	12.9	84
14678	2023-05-12T22:35:58	12.9	84
14679	2023-05-12T22:45:58	12.8	84
14680	2023-05-12T22:55:58	13	83.5
14681	2023-05-12T23:05:58	13.1	83.5
14682	2023-05-12T23:15:58	13	83
14683	2023-05-12T23:25:58	13	83
14684	2023-05-12T23:35:58	12.7	84
14685	2023-05-12T23:45:58	12.3	85.5
14686	2023-05-12T23:55:58	12.1	87
14687	2023-05-13T00:05:58	12	87
14688	2023-05-13T00:15:58	11.9	87
14689	2023-05-13T00:25:58	11.8	87.5
14690	2023-05-13T00:35:58	11.6	88
14691	2023-05-13T00:45:58	11.5	88.5
14692	2023-05-13T00:55:58	11.4	89
14693	2023-05-13T01:05:58	11.4	89
14694	2023-05-13T01:15:58	11.4	89
14695	2023-05-13T01:25:58	11.2	90.5
14696	2023-05-13T01:45:58	10.6	91.5
14697	2023-05-13T01:55:58	10.7	92
14698	2023-05-13T02:05:58	10.6	91.5
14699	2023-05-13T02:15:58	10.6	91.5
14700	2023-05-13T02:25:58	10.7	91
14701	2023-05-13T02:35:58	10.7	90.5
14702	2023-05-13T02:45:58	10.6	91
14703	2023-05-13T02:55:58	10.3	91.5
14704	2023-05-13T03:05:58	10.1	92
14705	2023-05-13T03:15:58	10	93
14706	2023-05-13T03:25:58	9.9	93.5
14707	2023-05-13T03:35:58	9.9	93
14708	2023-05-13T03:45:58	9.7	92.5
14709	2023-05-13T03:55:58	9.6	93.5
14710	2023-05-13T04:05:58	9.6	93
14711	2023-05-13T04:15:58	9.5	93.5
14712	2023-05-13T04:35:58	9.6	93
14713	2023-05-13T04:45:58	9.8	93
14714	2023-05-13T04:55:58	9.9	91.5
14715	2023-05-13T05:05:58	10	91
14716	2023-05-13T05:15:58	10	91
14717	2023-05-13T05:25:58	10.1	91
14718	2023-05-13T05:35:58	10.4	89
14719	2023-05-13T05:45:58	10.5	88
14720	2023-05-13T05:55:58	10.7	87.5
14721	2023-05-13T06:05:58	10.9	85.5
14722	2023-05-13T06:15:58	11	84
14723	2023-05-13T06:25:58	11.1	84
14724	2023-05-13T06:35:58	11.3	83.5
14725	2023-05-13T06:45:58	11.7	82
14726	2023-05-13T06:55:58	11.7	82
14727	2023-05-13T07:05:58	12	79.5
14728	2023-05-13T07:15:58	12.2	79
14729	2023-05-13T07:25:58	12.1	80
14730	2023-05-13T07:35:58	12.3	79
14731	2023-05-13T07:45:58	12.3	79.5
14732	2023-05-13T07:55:58	13	77.5
14733	2023-05-13T08:05:58	14	73.5
14734	2023-05-13T08:15:58	14.4	71
14735	2023-05-13T08:25:58	14.6	70
14736	2023-05-13T08:35:58	14.9	68.5
14737	2023-05-13T08:45:58	15.2	68.5
14738	2023-05-13T08:55:58	15.6	66.5
14739	2023-05-13T09:05:58	16.1	65
14740	2023-05-13T09:15:58	16.5	63
14741	2023-05-13T09:25:58	17	62.5
14742	2023-05-13T09:35:57	17.3	61.5
14743	2023-05-13T09:45:58	17.8	60
14744	2023-05-13T09:55:57	18.5	57.5
14745	2023-05-13T10:05:57	18.7	57.5
14746	2023-05-13T10:15:57	18.9	55.5
14747	2023-05-13T10:25:57	19.3	56
14748	2023-05-13T10:35:57	19.5	54.5
14749	2023-05-13T10:45:58	19.5	54
14750	2023-05-13T10:55:57	19.3	54
14751	2023-05-13T11:05:57	19.4	54.5
14752	2023-05-13T11:15:57	19.7	54
14753	2023-05-13T11:25:57	20.1	52
14754	2023-05-13T11:35:57	20.4	50.5
14755	2023-05-13T11:45:57	20.6	51.5
14756	2023-05-13T11:55:57	20.8	51
14757	2023-05-13T12:05:58	20.9	49.5
14758	2023-05-13T12:15:57	21.6	49
14759	2023-05-13T12:25:57	21.6	47.5
14760	2023-05-13T12:35:57	21.9	46
14761	2023-05-13T12:45:57	21.4	48
14762	2023-05-13T12:55:57	21.5	47.5
14763	2023-05-13T13:05:57	21.7	47.5
14764	2023-05-13T13:15:57	22.6	45
14765	2023-05-13T13:25:57	22.6	45
14766	2023-05-13T13:35:57	23	45
14767	2023-05-13T13:45:57	24.6	40.5
14768	2023-05-13T13:55:57	24.8	41.5
14769	2023-05-13T14:05:57	24.1	42
14770	2023-05-13T14:15:57	28	34
14771	2023-05-13T14:25:57	27.4	34.5
14772	2023-05-13T14:35:57	28	33.5
14773	2023-05-13T14:45:57	30.3	30
14774	2023-05-13T14:55:57	31.1	29
14775	2023-05-13T15:05:57	27.4	34.5
14776	2023-05-13T15:15:57	31.7	28
14777	2023-05-13T15:25:57	31.3	28.5
14778	2023-05-13T15:35:57	32	26.5
14779	2023-05-13T15:45:57	29.6	31
14780	2023-05-13T15:55:57	26.4	35.5
14781	2023-05-13T16:05:57	31.2	28.5
14782	2023-05-13T16:15:57	27.4	33.5
14783	2023-05-13T16:25:57	26.7	36
14784	2023-05-13T16:35:57	25.1	37
14785	2023-05-13T16:45:57	23.8	40.5
14786	2023-05-13T16:55:57	22.9	42.5
14787	2023-05-13T17:05:57	23.3	42
14788	2023-05-13T17:15:57	25.2	38.5
14789	2023-05-13T17:25:57	22.7	43.5
14790	2023-05-13T17:35:57	22.1	45.5
14791	2023-05-13T17:45:57	21.4	47
14792	2023-05-13T17:55:57	21.2	47.5
14793	2023-05-13T18:05:57	20.9	47.5
14794	2023-05-13T18:15:57	21.8	47.5
14795	2023-05-13T18:25:57	22	45.5
14796	2023-05-13T18:35:57	19.7	51.5
14797	2023-05-13T18:45:57	19.1	54
14798	2023-05-13T18:55:57	18.2	57
14799	2023-05-13T19:05:57	17.6	60
14800	2023-05-13T19:15:57	17.1	61.5
14801	2023-05-13T19:25:57	16.8	63
14802	2023-05-13T19:35:57	16.6	65.5
14803	2023-05-13T19:45:57	16.1	67
14804	2023-05-13T19:55:57	15.8	68.5
14805	2023-05-13T20:05:57	15.8	69.5
14806	2023-05-13T20:15:57	15.9	69.5
14807	2023-05-13T20:25:56	15.6	69.5
14808	2023-05-13T20:35:56	15.2	70.5
14809	2023-05-13T20:45:56	15.5	71
14810	2023-05-13T20:55:56	15.4	71.5
14811	2023-05-13T21:05:56	15.2	72.5
14812	2023-05-13T21:15:56	15.1	73
14813	2023-05-13T21:25:56	15.1	73.5
14814	2023-05-13T21:35:56	14.9	74.5
14815	2023-05-13T21:45:56	14.6	75
14816	2023-05-13T21:55:56	14.5	75.5
14817	2023-05-13T22:05:57	14.4	76
14818	2023-05-13T22:15:56	14.2	77
14819	2023-05-13T22:25:56	13.8	78
14820	2023-05-13T22:35:56	13.7	78.5
14821	2023-05-13T22:45:56	13.2	79
14822	2023-05-13T22:55:56	12.9	80
14823	2023-05-13T23:05:56	12.7	81
14824	2023-05-13T23:15:56	12.6	81.5
14825	2023-05-13T23:25:56	12.6	81
14826	2023-05-13T23:35:56	12.5	81.5
14827	2023-05-13T23:45:56	12.3	82
14828	2023-05-13T23:55:56	12	82.5
14829	2023-05-14T00:05:56	11.8	83.5
14830	2023-05-14T00:15:56	11.7	84
14831	2023-05-14T00:25:56	12	83
14832	2023-05-14T00:35:56	12.1	83
14833	2023-05-14T00:45:56	12.3	83
14834	2023-05-14T00:55:56	12.3	83
14835	2023-05-14T01:05:56	12.2	84
14836	2023-05-14T01:15:56	12.1	83
14837	2023-05-14T01:25:56	12.2	82
14838	2023-05-14T01:35:56	12.2	82
14839	2023-05-14T01:45:56	12.1	82.5
14840	2023-05-14T01:55:56	12.1	82
14841	2023-05-14T02:05:56	12	83
14842	2023-05-14T02:15:56	11.5	84
14843	2023-05-14T02:25:56	11	86.5
14844	2023-05-14T02:35:56	10.5	89.5
14845	2023-05-14T02:45:56	10.7	88.5
14846	2023-05-14T02:55:56	10.9	87
14847	2023-05-14T03:05:56	11.2	86.5
14848	2023-05-14T03:15:56	11.4	86.5
14849	2023-05-14T03:25:56	11.4	86
14850	2023-05-14T03:35:56	11.4	86
14851	2023-05-14T03:45:56	11.2	86.5
14852	2023-05-14T03:55:56	11.2	87
14853	2023-05-14T04:05:56	10.7	88
14854	2023-05-14T04:15:56	10.5	88.5
14855	2023-05-14T04:25:56	10.3	89
14856	2023-05-14T04:35:56	10.4	89.5
14857	2023-05-14T04:45:56	10.3	89.5
14858	2023-05-14T04:55:56	10.3	90
14859	2023-05-14T05:05:56	10.5	89.5
14860	2023-05-14T05:15:56	10.6	89
14861	2023-05-14T05:25:56	11.2	87.5
14862	2023-05-14T05:35:56	11.5	86
14863	2023-05-14T05:45:56	11.8	85
14864	2023-05-14T05:55:56	12.1	84.5
14865	2023-05-14T06:05:56	12.3	84
14866	2023-05-14T06:15:56	12.4	82.5
14867	2023-05-14T06:25:56	12.5	83
14868	2023-05-14T06:35:56	12.6	82
14869	2023-05-14T06:45:56	12.7	83
14870	2023-05-14T06:55:56	12.6	83
14871	2023-05-14T07:05:56	12.6	83.5
14872	2023-05-14T07:15:56	12.8	82.5
14873	2023-05-14T07:25:56	12.8	82
14874	2023-05-14T07:35:56	13	82
14875	2023-05-14T07:45:56	13.3	79
14876	2023-05-14T07:55:56	13.6	79
14877	2023-05-14T08:05:56	13.8	77
14878	2023-05-14T08:15:56	13.9	76.5
14879	2023-05-14T08:25:56	14	76
14880	2023-05-14T08:35:56	14.4	75.5
14881	2023-05-14T08:45:56	14.5	75
14882	2023-05-14T08:55:56	14.7	73.5
14883	2023-05-14T09:05:56	15.2	71.5
14884	2023-05-14T09:15:56	15.4	71.5
14885	2023-05-14T09:25:56	15.9	68
14886	2023-05-14T09:35:56	15.9	67.5
14887	2023-05-14T09:45:56	16.6	63.5
14888	2023-05-14T09:55:56	17	64.5
14889	2023-05-14T10:05:56	17	64
14890	2023-05-14T10:15:56	17.4	63
14891	2023-05-14T10:25:56	17.9	60
14892	2023-05-14T10:35:56	19	56.5
14893	2023-05-14T10:45:56	19.3	54.5
14894	2023-05-14T10:55:55	19.8	53
14895	2023-05-14T11:05:55	20.4	54
14896	2023-05-14T11:15:56	20.8	52
14897	2023-05-14T11:25:55	21.4	49.5
14898	2023-05-14T11:35:55	21.8	49
14899	2023-05-14T11:45:55	22.2	48.5
14900	2023-05-14T11:55:55	22.9	46
14901	2023-05-14T12:05:55	22.7	46
14902	2023-05-14T12:15:55	22.7	46.5
14903	2023-05-14T12:25:55	23.1	45.5
14904	2023-05-14T12:35:55	23.3	44.5
14905	2023-05-14T12:45:55	26	38.5
14906	2023-05-14T12:55:55	29	33.5
14907	2023-05-14T13:05:55	27.6	36
14908	2023-05-14T13:15:55	26.6	36.5
14909	2023-05-14T13:25:55	28.5	35
14910	2023-05-14T13:35:55	30.5	30.5
14911	2023-05-14T13:45:55	32.5	27
14912	2023-05-14T13:55:55	33.2	26
14913	2023-05-14T14:05:55	34.2	25.5
14914	2023-05-14T14:15:55	34.6	24.5
14915	2023-05-14T14:25:55	32.5	26
14916	2023-05-14T14:35:55	33.8	25.5
14917	2023-05-14T14:45:55	36.4	23.5
14918	2023-05-14T14:55:55	28.9	31
14919	2023-05-14T15:05:55	26.5	36
14920	2023-05-14T15:15:55	25.3	38.5
14921	2023-05-14T15:25:55	27	35
14922	2023-05-14T15:35:55	28.1	33.5
14923	2023-05-14T15:45:55	32.8	27
14924	2023-05-14T15:55:55	33.2	25.5
14925	2023-05-14T16:05:55	34.5	25
14926	2023-05-14T16:15:55	29.3	31.5
14927	2023-05-14T16:25:55	26	38.5
14928	2023-05-14T16:35:55	24.8	39
14929	2023-05-14T16:45:55	29	32
14930	2023-05-14T16:55:55	29.9	30
14931	2023-05-14T17:05:55	28.5	33.5
14932	2023-05-14T17:15:55	29.1	33
14933	2023-05-14T17:35:55	29	32
14934	2023-05-14T17:45:55	25.2	38.5
14935	2023-05-14T17:55:55	23.5	41
14936	2023-05-14T18:05:55	22.9	43.5
14937	2023-05-14T18:15:55	22.2	46.5
14938	2023-05-14T18:25:55	21.5	48.5
14939	2023-05-14T18:35:55	21.2	52
14940	2023-05-14T18:45:55	21	48.5
14941	2023-05-14T18:55:55	20.5	47.5
14942	2023-05-14T19:05:55	19.6	50.5
14943	2023-05-14T19:15:55	18.9	55.5
14944	2023-05-14T19:25:55	18.4	56.5
14945	2023-05-14T19:35:55	18.1	59.5
14946	2023-05-14T19:45:55	17.8	62
14947	2023-05-14T19:55:55	17.3	64
14948	2023-05-14T20:05:55	16.7	66
14949	2023-05-14T20:15:55	16.5	68
14950	2023-05-14T20:25:55	15.9	69.5
14951	2023-05-14T20:35:55	15.6	70.5
14952	2023-05-14T20:45:55	14.9	73
14953	2023-05-14T20:55:55	15	73
14954	2023-05-14T21:05:55	15	74
14955	2023-05-14T21:15:55	14.7	74.5
14956	2023-05-14T21:25:54	14.5	75
14957	2023-05-14T21:35:54	14.2	76.5
14958	2023-05-14T21:45:55	14.3	76.5
14959	2023-05-14T21:55:54	14.5	76
14960	2023-05-14T22:05:54	14	77.5
14961	2023-05-14T22:15:54	14.2	78
14962	2023-05-14T22:25:55	14	77
14963	2023-05-14T22:35:55	13.7	78
14964	2023-05-14T22:45:54	13.6	79
14965	2023-05-14T22:55:54	13.3	80.5
14966	2023-05-14T23:05:54	12.9	82
14967	2023-05-14T23:15:54	12.7	82
14968	2023-05-14T23:25:54	12.2	83.5
14969	2023-05-14T23:35:54	12.1	84
14970	2023-05-14T23:45:54	11.9	84.5
14971	2023-05-14T23:55:54	11.8	85.5
14972	2023-05-15T00:05:54	11.6	84.5
14973	2023-05-15T00:15:54	11.6	85.5
14974	2023-05-15T00:25:54	11.6	86
14975	2023-05-15T00:35:54	11.5	85.5
14976	2023-05-15T00:45:54	11.4	86
14977	2023-05-15T00:55:54	11	85.5
14978	2023-05-15T01:05:54	11.1	86.5
14979	2023-05-15T01:15:54	11.4	86.5
14980	2023-05-15T01:25:54	11.5	86
14981	2023-05-15T01:35:54	11.4	86
14982	2023-05-15T01:45:54	11.3	86
14983	2023-05-15T01:55:54	11.1	87.5
14984	2023-05-15T02:05:54	10.6	88.5
14985	2023-05-15T02:15:54	10.5	89.5
14986	2023-05-15T02:25:54	10.5	90.5
14987	2023-05-15T02:35:54	10.3	90
14988	2023-05-15T02:45:54	9.9	90
14989	2023-05-15T02:55:54	9.9	92.5
14990	2023-05-15T03:05:54	9.9	92.5
14991	2023-05-15T03:15:54	10.3	91.5
14992	2023-05-15T03:25:54	10.2	91.5
14993	2023-05-15T03:35:54	10.1	92
14994	2023-05-15T03:45:54	10.2	92
14995	2023-05-15T03:55:54	10.5	92
14996	2023-05-15T04:05:54	10.3	91.5
14997	2023-05-15T04:15:54	10.3	91.5
14998	2023-05-15T04:25:54	10.3	92
14999	2023-05-15T04:35:54	10.2	93.5
15000	2023-05-15T04:45:54	10.2	93.5
15001	2023-05-15T04:55:54	10.1	94
15002	2023-05-15T05:05:54	10.1	94.5
15003	2023-05-15T05:15:54	10.1	94
15004	2023-05-15T05:25:54	10.4	94
15005	2023-05-15T05:35:54	10.6	93.5
15006	2023-05-15T05:45:54	11.1	93.5
15007	2023-05-15T05:55:54	12	88
15008	2023-05-15T06:05:54	12.9	85
15009	2023-05-15T06:15:54	13.4	82.5
15010	2023-05-15T06:25:54	13.5	81.5
15011	2023-05-15T06:35:54	13.4	81.5
15012	2023-05-15T06:45:54	13.4	82.5
15013	2023-05-15T06:55:54	13.4	82
15014	2023-05-15T07:05:54	13.5	82
15015	2023-05-15T07:15:54	13.6	82
15016	2023-05-15T07:25:54	14	79
15017	2023-05-15T07:35:54	14.2	78.5
15018	2023-05-15T07:45:54	14.3	78
15019	2023-05-15T07:55:54	14.6	78
15020	2023-05-15T08:05:54	14.8	76.5
15021	2023-05-15T08:15:54	15	75.5
15022	2023-05-15T08:25:54	15.3	74.5
15023	2023-05-15T08:45:54	15.9	71
15024	2023-05-15T08:55:54	16.2	69.5
15025	2023-05-15T09:05:54	16.5	68
15026	2023-05-15T09:15:54	16.7	68
15027	2023-05-15T09:25:54	16.9	67.5
15028	2023-05-15T09:35:54	17.1	67.5
15029	2023-05-15T09:45:54	17.1	65.5
15030	2023-05-15T09:55:54	17.3	64
15031	2023-05-15T10:05:54	17.7	65
15032	2023-05-15T10:15:54	18.3	57.5
15033	2023-05-15T10:25:54	18.7	57
15034	2023-05-15T10:35:54	19.2	53
15035	2023-05-15T10:45:54	19.6	53
15036	2023-05-15T10:55:54	19.9	53.5
15037	2023-05-15T11:05:54	19.4	51
15038	2023-05-15T11:15:54	18.4	53.5
15039	2023-05-15T11:25:54	18.6	52.5
15040	2023-05-15T11:35:54	18.4	57
15041	2023-05-15T11:45:53	17.8	56.5
15042	2023-05-15T11:55:53	18.2	59.5
15043	2023-05-15T12:05:53	18.2	59
15044	2023-05-15T12:15:53	18.5	67.5
15045	2023-05-15T12:25:53	18.2	67
15046	2023-05-15T12:35:53	18.4	64
15047	2023-05-15T12:45:53	20.7	49.5
15048	2023-05-15T12:55:53	21.3	47.5
15049	2023-05-15T13:05:53	22.5	44.5
15050	2023-05-15T13:15:53	23.9	39
15051	2023-05-15T13:25:53	25	37.5
15052	2023-05-15T13:35:53	25.2	36.5
15053	2023-05-15T13:45:53	26	31.5
15054	2023-05-15T13:55:53	27.3	31.5
15055	2023-05-15T14:05:53	26.5	35.5
15056	2023-05-15T14:15:53	24.5	39
15057	2023-05-15T14:25:53	22.7	45
15058	2023-05-15T14:35:53	18.9	73.5
15059	2023-05-15T14:45:53	18	72.5
15060	2023-05-15T14:55:53	17.7	71.5
15061	2023-05-15T15:05:53	17.3	72
15062	2023-05-15T15:15:53	17.3	69.5
15063	2023-05-15T15:25:53	17.4	68
15064	2023-05-15T15:35:53	17.3	66.5
15065	2023-05-15T15:45:53	17.2	64
15066	2023-05-15T15:55:53	17.1	65
15067	2023-05-15T16:05:53	17.6	63.5
15068	2023-05-15T16:15:53	18.4	60.5
15069	2023-05-15T16:35:53	20.9	52
15070	2023-05-15T16:45:53	22.5	48
15071	2023-05-15T16:55:53	20.8	50
15072	2023-05-15T17:05:53	19.8	52.5
15073	2023-05-15T17:15:53	19.6	55
15074	2023-05-15T17:25:53	20.6	52.5
15075	2023-05-15T17:35:53	19.7	55
15076	2023-05-15T17:45:53	19.4	58
15077	2023-05-15T17:55:53	19.2	59.5
15078	2023-05-15T18:05:53	18.9	62
15079	2023-05-15T18:15:53	18.7	60
15080	2023-05-15T18:25:53	18.6	62
15081	2023-05-15T18:35:53	18.4	65
15082	2023-05-15T18:55:53	18.1	68.5
15083	2023-05-15T19:05:53	17.9	69
15084	2023-05-15T19:15:53	17.4	70.5
15085	2023-05-15T19:25:53	17.4	70.5
15086	2023-05-15T19:35:53	17.1	70
15087	2023-05-15T19:45:53	16.8	73
15088	2023-05-15T19:55:53	16.6	73
15089	2023-05-15T20:05:53	16.4	73.5
15090	2023-05-15T20:15:53	16.4	75
15091	2023-05-15T20:25:53	16.2	74
15092	2023-05-15T20:35:53	16.1	75.5
15093	2023-05-15T20:45:53	16.1	75.5
15094	2023-05-15T20:55:53	16.1	76
15095	2023-05-15T21:05:53	16.1	76
15096	2023-05-15T21:25:53	15.9	77
15097	2023-05-15T21:35:53	15.9	77
15098	2023-05-15T21:45:53	15.8	78
15099	2023-05-15T21:55:53	15.4	78
15100	2023-05-15T22:05:53	15.6	78
15101	2023-05-15T22:15:53	15.5	78.5
15102	2023-05-15T22:25:53	15.5	78
15103	2023-05-15T22:35:53	15.5	79
15104	2023-05-15T22:45:53	15.2	79.5
15105	2023-05-15T22:55:53	15.2	80.5
15106	2023-05-15T23:05:53	15	81
15107	2023-05-15T23:15:53	15	82
15108	2023-05-15T23:25:52	15.1	82
15109	2023-05-15T23:35:52	15	82.5
15110	2023-05-15T23:45:52	14.6	83
15111	2023-05-15T23:55:52	14.8	83
15112	2023-05-16T00:05:52	14.6	82.5
15113	2023-05-16T00:15:52	14.5	83
15114	2023-05-16T00:25:52	14.4	83.5
15115	2023-05-16T00:35:52	14.4	83.5
15116	2023-05-16T00:45:52	14.4	82.5
15117	2023-05-16T00:55:52	14.4	83
15118	2023-05-16T01:05:52	14.3	83.5
15119	2023-05-16T01:15:52	14.2	84
15120	2023-05-16T01:25:52	14.2	85
15121	2023-05-16T01:35:52	14.1	85
15122	2023-05-16T01:45:52	14.2	85.5
15123	2023-05-16T01:55:52	14.2	85.5
15124	2023-05-16T02:05:52	14.2	84.5
15125	2023-05-16T02:15:52	14.2	81.5
15126	2023-05-16T02:25:52	14.1	78
15127	2023-05-16T02:35:52	14.1	78
15128	2023-05-16T02:45:52	14	77.5
15129	2023-05-16T02:55:52	13.9	77.5
15130	2023-05-16T03:05:52	13.9	78
15131	2023-05-16T03:15:52	13.9	78
15132	2023-05-16T03:25:52	13.6	78
15133	2023-05-16T03:35:52	13.7	78.5
15134	2023-05-16T03:45:52	13.6	78
15135	2023-05-16T03:55:52	13.6	78.5
15136	2023-05-16T04:05:52	13.6	78.5
15137	2023-05-16T04:15:52	13.4	78.5
15138	2023-05-16T04:25:52	13.4	78.5
15139	2023-05-16T04:35:52	13.4	78
15140	2023-05-16T04:45:52	13.3	78
15141	2023-05-16T04:55:52	13.2	78
15142	2023-05-16T05:05:52	13.2	78
15143	2023-05-16T05:15:52	13	78
15144	2023-05-16T05:25:52	13	77.5
15145	2023-05-16T05:35:52	13	77.5
15146	2023-05-16T05:45:52	13	78
15147	2023-05-16T06:05:52	12.9	78.5
15148	2023-05-16T06:15:52	13	78
15149	2023-05-16T06:25:52	13.1	77.5
15150	2023-05-16T06:35:52	13.3	77.5
15151	2023-05-16T06:45:52	13.2	77
15152	2023-05-16T06:55:52	13.2	76.5
15153	2023-05-16T07:05:52	13.1	76.5
15154	2023-05-16T07:15:52	13.3	76.5
15155	2023-05-16T07:25:52	13.3	75.5
15156	2023-05-16T07:46:12	13.4	75
15157	2023-05-16T08:05:52	13.6	74
15158	2023-05-16T08:15:52	13.7	73.5
15159	2023-05-16T08:25:52	13.7	73
15160	2023-05-16T08:35:52	13.7	73.5
15161	2023-05-16T08:45:52	13.5	73.5
15162	2023-05-16T08:55:52	13.6	72.5
15163	2023-05-16T09:05:52	13.7	71.5
15164	2023-05-16T09:15:52	13.8	72
15165	2023-05-16T09:25:52	13.8	71.5
15166	2023-05-16T09:35:52	13.6	72
15167	2023-05-16T09:45:52	13.7	72
15168	2023-05-16T09:55:52	13.6	73
15169	2023-05-16T10:05:52	13.9	71
15170	2023-05-16T10:15:52	14.8	69
15171	2023-05-16T10:25:52	14.9	67.5
15172	2023-05-16T10:35:52	14.7	68.5
15173	2023-05-16T10:46:08	14.4	69
15174	2023-05-16T10:55:52	14.2	67.5
15175	2023-05-16T11:05:52	14.2	67
15176	2023-05-16T11:15:52	14.1	67.5
15177	2023-05-16T11:25:52	14	67
15178	2023-05-16T11:35:52	13.9	67
15179	2023-05-16T11:45:52	14.2	66
15180	2023-05-16T11:55:52	14.5	65
15181	2023-05-16T12:05:52	14.4	66
15182	2023-05-16T12:15:52	14.2	65
15183	2023-05-16T12:25:52	14	65
15184	2023-05-16T12:35:52	13.9	65
15185	2023-05-16T12:45:52	13.9	67
15186	2023-05-16T12:55:52	13.9	65.5
15187	2023-05-16T13:05:51	13.9	66.5
15188	2023-05-16T13:15:51	14.1	65
15189	2023-05-16T13:25:51	14.4	63.5
15190	2023-05-16T13:35:51	14.7	62.5
15191	2023-05-16T13:45:51	15.6	57.5
15192	2023-05-16T13:55:51	16.3	56
15193	2023-05-16T14:05:51	16.3	54.5
15194	2023-05-16T14:15:52	16.8	51.5
15195	2023-05-16T14:25:51	17.3	48.5
15196	2023-05-16T14:35:51	16.6	50
15197	2023-05-16T14:45:52	16.5	49
15198	2023-05-16T14:55:52	15.8	49
15199	2023-05-16T15:15:51	15.5	50
15200	2023-05-16T15:35:51	15.6	48.5
15201	2023-05-16T15:45:51	15.7	49
15202	2023-05-16T15:55:51	15.7	49.5
15203	2023-05-16T16:05:51	15.9	50
15204	2023-05-16T16:15:51	16.2	49.5
15205	2023-05-16T16:25:51	16.2	49.5
15206	2023-05-16T16:35:51	16.2	49
15207	2023-05-16T16:45:51	16.4	51.5
15208	2023-05-16T16:55:51	16.4	49
15209	2023-05-16T17:05:51	16.4	47.5
15210	2023-05-16T17:15:51	16.4	42.5
15211	2023-05-16T17:25:51	16.2	49.5
15212	2023-05-16T17:35:51	16	41
15213	2023-05-16T17:45:51	16.7	40
15214	2023-05-16T17:55:51	16.6	40
15215	2023-05-16T18:05:51	17.5	38.5
15216	2023-05-16T18:15:51	16.7	38.5
15217	2023-05-16T18:25:51	16.6	40.5
15218	2023-05-16T18:35:51	16	41
15219	2023-05-16T18:45:51	15.6	41.5
15220	2023-05-16T18:55:51	14.9	41.5
15221	2023-05-16T19:05:51	14.7	43.5
15222	2023-05-16T19:15:51	14.4	44
15223	2023-05-16T19:25:51	14.2	45
15224	2023-05-16T19:35:51	13.9	46.5
15225	2023-05-16T19:45:51	13.5	48.5
15226	2023-05-16T19:55:51	13.2	50
15227	2023-05-16T20:05:51	12.9	52.5
15228	2023-05-16T20:15:51	12.7	55.5
15229	2023-05-16T20:25:51	12.4	59.5
15230	2023-05-16T20:35:51	12.2	61.5
15231	2023-05-16T20:45:51	12.2	63.5
15232	2023-05-16T20:55:51	12.1	63.5
15233	2023-05-16T21:05:51	11.9	62
15234	2023-05-16T21:15:51	11.7	64.5
15235	2023-05-16T21:35:51	11.5	66.5
15236	2023-05-16T21:45:51	11.2	68
15237	2023-05-16T21:55:51	10.9	69.5
15238	2023-05-16T22:05:51	10.6	71
15239	2023-05-16T22:15:51	10.3	72.5
15240	2023-05-16T22:25:51	10	72.5
15241	2023-05-16T22:35:51	9.9	73
15242	2023-05-16T22:45:51	9.8	73
15243	2023-05-16T22:55:51	9.5	75
15244	2023-05-16T23:05:51	9.3	74.5
15245	2023-05-16T23:15:51	9.1	74.5
15246	2023-05-16T23:25:51	8.8	75
15247	2023-05-16T23:35:51	8.6	75.5
15248	2023-05-16T23:45:51	8.5	76
15249	2023-05-16T23:55:51	8.4	77
15250	2023-05-17T00:05:51	8.1	77
15251	2023-05-17T00:15:51	8	77.5
15252	2023-05-17T00:25:51	8.1	78
15253	2023-05-17T00:35:51	7.9	78.5
15254	2023-05-17T00:45:51	7.8	78.5
15255	2023-05-17T00:55:51	7.7	79
15256	2023-05-17T01:05:51	7.6	79
15257	2023-05-17T01:15:51	7.4	80
15258	2023-05-17T01:25:51	7.3	80.5
15259	2023-05-17T01:35:51	7.2	81
15260	2023-05-17T01:45:51	7.1	81.5
15261	2023-05-17T01:55:51	7	81.5
15262	2023-05-17T02:05:51	7	82
15263	2023-05-17T02:15:51	7	82
15264	2023-05-17T02:25:51	6.9	82
15265	2023-05-17T02:35:51	6.8	82
15266	2023-05-17T02:45:51	7	83
15267	2023-05-17T02:55:51	7	83
15268	2023-05-17T03:05:51	7	83
15269	2023-05-17T03:15:51	6.9	83
15270	2023-05-17T03:25:51	6.9	83.5
15271	2023-05-17T03:35:51	6.9	83.5
15272	2023-05-17T03:45:51	6.9	83
15273	2023-05-17T03:55:51	7.1	83
15274	2023-05-17T04:05:51	7.2	82
15275	2023-05-17T04:15:50	7.4	82
15276	2023-05-17T04:25:51	7.5	82.5
15277	2023-05-17T04:35:50	7.5	82
15278	2023-05-17T04:45:50	7.4	82.5
15279	2023-05-17T04:55:51	7.4	82.5
15280	2023-05-17T05:05:50	7.4	83
15281	2023-05-17T05:15:50	7.6	83.5
15282	2023-05-17T05:25:50	7.7	82.5
15283	2023-05-17T05:35:50	7.9	81.5
15284	2023-05-17T05:45:50	8.3	81.5
15285	2023-05-17T05:55:50	8.7	80.5
15286	2023-05-17T06:05:50	9	78.5
15287	2023-05-17T06:15:50	9.6	77
15288	2023-05-17T06:25:50	10.1	74
15289	2023-05-17T06:35:50	10.2	74.5
15290	2023-05-17T06:45:50	10.1	72.5
15291	2023-05-17T06:55:50	9.9	73
15292	2023-05-17T07:05:50	10	72
15293	2023-05-17T07:15:50	9.9	72.5
15294	2023-05-17T07:25:50	10	71.5
15295	2023-05-17T07:35:50	10.2	71.5
15296	2023-05-17T07:45:50	10.6	70.5
15297	2023-05-17T08:05:50	11.4	68.5
15298	2023-05-17T08:15:50	11.6	66
15299	2023-05-17T08:25:50	12.1	64.5
15300	2023-05-17T08:35:50	12.7	61.5
15301	2023-05-17T08:45:50	12.7	60.5
15302	2023-05-17T08:55:50	12.4	60
15303	2023-05-17T09:05:50	12.7	60
15304	2023-05-17T09:25:50	13.5	55
15305	2023-05-17T09:35:50	13.4	54.5
15306	2023-05-17T09:45:50	13.8	56
15307	2023-05-17T09:55:50	13.8	55
15308	2023-05-17T10:05:50	14.1	54.5
15309	2023-05-17T10:15:50	14.2	55.5
15310	2023-05-17T10:25:50	14.6	53
15311	2023-05-17T10:35:50	15.1	51.5
15312	2023-05-17T10:45:50	14.5	51.5
15313	2023-05-17T10:55:50	14.9	51.5
15314	2023-05-17T11:05:50	15.3	50.5
15315	2023-05-17T11:15:50	15.5	49.5
15316	2023-05-17T11:25:50	15.7	49.5
15317	2023-05-17T11:35:50	15.7	49
15318	2023-05-17T11:45:50	15.5	50.5
15319	2023-05-17T11:55:50	15.7	50
15320	2023-05-17T12:05:50	15.7	48.5
15321	2023-05-17T12:15:50	16.3	47
15322	2023-05-17T12:25:50	17.1	44
15323	2023-05-17T12:35:50	17.5	44.5
15324	2023-05-17T12:45:50	17.5	42.5
15325	2023-05-17T12:55:50	18.2	41.5
15326	2023-05-17T13:05:50	17.5	42
15327	2023-05-17T13:15:50	17.5	41.5
15328	2023-05-17T13:25:50	17.9	41.5
15329	2023-05-17T13:35:50	18.2	42
15330	2023-05-17T13:45:50	19.9	37
15331	2023-05-17T13:55:50	19.6	36.5
15332	2023-05-17T14:05:50	19.3	37
15333	2023-05-17T14:15:50	22.3	34.5
15334	2023-05-17T14:25:50	21.6	31.5
15335	2023-05-17T14:35:50	23.3	29.5
15336	2023-05-17T14:45:50	24.7	27
15337	2023-05-17T14:55:50	22.2	31
15338	2023-05-17T15:15:50	26.6	24.5
15339	2023-05-17T15:25:50	24.9	27
15340	2023-05-17T15:35:50	27.3	24
15341	2023-05-17T15:45:50	27.6	23.5
15342	2023-05-17T15:55:50	28.7	23
15343	2023-05-17T16:05:50	29.7	21.5
15344	2023-05-17T16:25:50	25.2	26
15345	2023-05-17T16:35:50	26.4	25.5
15346	2023-05-17T16:45:50	28.2	24
15347	2023-05-17T16:55:50	28.3	23.5
15348	2023-05-17T17:05:50	28.1	23.5
15349	2023-05-17T17:15:50	28	24.5
15350	2023-05-17T17:25:50	26.7	26
15351	2023-05-17T17:35:49	25.6	27
15352	2023-05-17T17:45:50	24.8	28.5
15353	2023-05-17T17:55:49	23.8	30.5
15354	2023-05-17T18:05:49	21.9	34
15355	2023-05-17T18:15:49	21.1	36.5
15356	2023-05-17T18:25:49	20.5	37.5
15357	2023-05-17T18:35:49	19.9	38.5
15358	2023-05-17T18:45:49	19.1	42
15359	2023-05-17T18:55:49	18.4	45
15360	2023-05-17T19:05:50	17.7	47
15361	2023-05-17T19:15:49	16.9	50.5
15362	2023-05-17T19:25:49	16.6	50.5
15363	2023-05-17T19:35:49	16.1	53
15364	2023-05-17T19:45:49	15.4	54
15365	2023-05-17T19:55:49	15.1	54.5
15366	2023-05-17T20:05:49	14.5	55.5
15367	2023-05-17T20:15:49	14.2	54.5
15368	2023-05-17T20:25:49	13.8	57
15369	2023-05-17T20:35:49	13.5	57.5
15370	2023-05-17T20:45:49	13.1	60
15371	2023-05-17T20:55:49	12.9	60
15372	2023-05-17T21:05:49	12.6	61.5
15373	2023-05-17T21:15:49	12.3	62
15374	2023-05-17T21:25:49	11.9	62.5
15375	2023-05-17T21:35:49	11.7	63.5
15376	2023-05-17T21:45:49	11.4	65
15377	2023-05-17T21:55:49	11.2	66
15378	2023-05-17T22:05:49	11.2	66.5
15379	2023-05-17T22:15:49	10.9	67
15380	2023-05-17T22:25:49	10.4	68
15381	2023-05-17T22:35:50	10.3	69
15382	2023-05-17T22:45:49	10	69.5
15383	2023-05-17T22:55:49	9.9	69.5
15384	2023-05-17T23:05:49	9.7	70
15385	2023-05-17T23:15:49	9.5	70.5
15386	2023-05-17T23:25:49	9.3	71
15387	2023-05-17T23:35:49	9.1	72
15388	2023-05-17T23:45:49	8.9	72
15389	2023-05-17T23:55:49	8.9	73
15390	2023-05-18T00:05:49	8.5	73.5
15391	2023-05-18T00:15:49	8.4	74
15392	2023-05-18T00:25:49	8.2	74
15393	2023-05-18T00:35:49	8.1	74
15394	2023-05-18T00:45:49	8.1	74
15395	2023-05-18T00:55:49	8	74
15396	2023-05-18T01:05:49	8	74.5
15397	2023-05-18T01:15:49	7.8	74.5
15398	2023-05-18T01:25:49	7.7	75
15399	2023-05-18T01:35:49	7.5	75
15400	2023-05-18T01:45:49	7.7	74.5
15401	2023-05-18T01:55:49	7.6	74.5
15402	2023-05-18T02:05:49	7.6	75.5
15403	2023-05-18T02:15:49	7.4	76
15404	2023-05-18T02:25:49	7.2	76.5
15405	2023-05-18T02:35:49	7	76.5
15406	2023-05-18T02:45:49	6.8	77.5
15407	2023-05-18T02:55:49	6.6	78
15408	2023-05-18T03:05:49	6.3	79
15409	2023-05-18T03:15:49	6.2	80
15410	2023-05-18T03:25:49	6	80.5
15411	2023-05-18T03:35:49	5.8	81
15412	2023-05-18T03:45:49	5.6	81.5
15413	2023-05-18T03:55:49	5.5	82
15414	2023-05-18T04:05:49	5.6	82
15415	2023-05-18T04:15:49	5.6	82.5
15416	2023-05-18T04:25:49	5.6	82.5
15417	2023-05-18T04:35:49	5.9	82.5
15418	2023-05-18T04:45:49	5.9	83
15419	2023-05-18T04:55:49	6.2	82.5
15420	2023-05-18T05:05:49	6.3	82.5
15421	2023-05-18T05:15:49	6.5	81.5
15422	2023-05-18T05:25:49	6.7	81
15423	2023-05-18T05:35:49	6.9	81
15424	2023-05-18T05:45:49	7.2	80.5
15425	2023-05-18T05:55:49	7.4	80
15426	2023-05-18T06:05:49	7.6	79.5
15427	2023-05-18T06:15:49	7.9	77.5
15428	2023-05-18T06:25:49	8.3	75.5
15429	2023-05-18T06:35:49	8.6	73.5
15430	2023-05-18T06:45:49	8.9	73.5
15431	2023-05-18T06:55:49	9.1	72.5
15432	2023-05-18T07:05:49	9.4	72.5
15433	2023-05-18T07:15:49	9.6	72.5
15434	2023-05-18T07:25:49	10.1	70.5
15435	2023-05-18T07:35:49	10.3	71
15436	2023-05-18T07:45:49	10.6	68.5
15437	2023-05-18T07:55:49	10.9	67.5
15438	2023-05-18T08:05:49	11.2	67
15439	2023-05-18T08:25:49	11.7	66
15440	2023-05-18T08:35:49	12	65.5
15441	2023-05-18T08:45:49	12.3	63.5
15442	2023-05-18T08:55:49	12.6	62.5
15443	2023-05-18T09:05:49	12.9	63
15444	2023-05-18T09:15:49	13.2	62.5
15445	2023-05-18T09:25:49	13.5	60.5
15446	2023-05-18T09:35:49	13.8	59
15447	2023-05-18T09:45:49	14.2	58.5
15448	2023-05-18T09:55:49	14.6	56
15449	2023-05-18T10:05:49	15.2	53.5
15450	2023-05-18T10:15:48	15.4	53.5
15451	2023-05-18T10:25:48	15.7	50
15452	2023-05-18T10:35:48	16.3	50
15453	2023-05-18T10:45:48	16.3	49.5
15454	2023-05-18T10:55:49	16.8	47.5
15455	2023-05-18T11:05:48	17.2	45
15456	2023-05-18T11:15:48	17.7	44.5
15457	2023-05-18T11:25:48	18	44.5
15458	2023-05-18T11:35:48	17.9	43
15459	2023-05-18T11:45:48	18.1	42.5
15460	2023-05-18T11:55:48	18.4	44.5
15461	2023-05-18T12:05:48	18.8	43
15462	2023-05-18T12:15:48	22.4	35.5
15463	2023-05-18T12:25:49	22.6	34.5
15464	2023-05-18T12:35:48	24.5	30.5
15465	2023-05-18T12:45:48	23.7	31.5
15466	2023-05-18T12:55:48	25	28.5
15467	2023-05-18T13:05:48	24.2	31
15468	2023-05-18T13:15:48	24.1	31
15469	2023-05-18T13:25:48	24.1	29
15470	2023-05-18T13:35:48	26.2	28
15471	2023-05-18T13:45:48	26	28
15472	2023-05-18T13:55:48	28.2	25.5
15473	2023-05-18T14:05:48	25.8	27
15474	2023-05-18T14:15:48	25.9	27
15475	2023-05-18T14:25:48	26.4	26
15476	2023-05-18T14:35:48	27	26.5
15477	2023-05-18T14:45:48	29.1	24
15478	2023-05-18T14:55:48	29	24
15479	2023-05-18T15:05:48	28.4	24
15480	2023-05-18T15:15:48	28.3	23.5
15481	2023-05-18T15:25:48	28.3	24
15482	2023-05-18T15:35:48	28.4	23
15483	2023-05-18T15:55:48	27.8	24
15484	2023-05-18T16:05:48	28.6	22.5
15485	2023-05-18T16:15:48	26.2	25.5
15486	2023-05-18T16:25:48	26.2	25
15487	2023-05-18T16:35:48	27.4	24.5
15488	2023-05-18T16:45:48	27	24
15489	2023-05-18T16:55:48	23.8	28
15490	2023-05-18T17:05:48	25.1	26.5
15491	2023-05-18T17:15:48	23.5	28
15492	2023-05-18T17:25:48	22.7	29.5
15493	2023-05-18T17:35:48	23.6	28.5
15494	2023-05-18T17:45:48	23.1	29
15495	2023-05-18T17:55:48	22.8	30
15496	2023-05-18T18:05:48	22.6	30.5
15497	2023-05-18T18:15:48	21.8	31.5
15498	2023-05-18T18:25:48	21.1	33.5
15499	2023-05-18T18:35:48	20	35.5
15500	2023-05-18T18:45:48	19.3	37.5
15501	2023-05-18T18:55:48	18.7	39.5
15502	2023-05-18T19:05:48	18.2	42
15503	2023-05-18T19:15:48	17.7	43
15504	2023-05-18T19:25:48	17.4	44
15505	2023-05-18T19:35:48	17.1	45
15506	2023-05-18T19:45:48	16.7	47.5
15507	2023-05-18T19:55:48	16.4	48
15508	2023-05-18T20:05:48	16	51.5
15509	2023-05-18T20:15:48	15.7	52.5
15510	2023-05-18T20:25:48	15.3	54.5
15511	2023-05-18T20:35:48	15.2	55.5
15512	2023-05-18T20:45:48	14.9	56
15513	2023-05-18T20:55:47	14.5	56.5
15514	2023-05-18T21:05:47	14.3	56.5
15515	2023-05-18T21:15:47	14	58
15516	2023-05-18T21:25:48	13.9	58
15517	2023-05-18T21:35:47	13.5	60
15518	2023-05-18T21:45:47	13.3	60
15519	2023-05-18T21:55:47	13.1	61
15520	2023-05-18T22:05:47	12.8	60.5
15521	2023-05-18T22:15:47	12.6	62
15522	2023-05-18T22:25:47	12.5	62
15523	2023-05-18T22:35:47	12.3	63.5
15524	2023-05-18T22:45:47	12.1	63.5
15525	2023-05-18T22:55:47	11.9	64
15526	2023-05-18T23:05:47	11.8	65.5
15527	2023-05-18T23:15:47	11.4	66
15528	2023-05-18T23:25:47	11.4	66.5
15529	2023-05-18T23:35:47	11.4	68
15530	2023-05-18T23:45:47	10.9	67
15531	2023-05-18T23:55:47	10.9	67
15532	2023-05-19T00:05:47	10.8	67.5
15533	2023-05-19T00:15:47	10.7	67.5
15534	2023-05-19T00:25:47	10.7	67.5
15535	2023-05-19T00:35:47	10.8	66.5
15536	2023-05-19T00:45:47	10.8	67
15537	2023-05-19T00:55:47	10.5	68
15538	2023-05-19T01:05:47	10.3	69.5
15539	2023-05-19T01:15:47	10	70.5
15540	2023-05-19T01:25:47	9.8	71.5
15541	2023-05-19T01:35:47	9.6	72
15542	2023-05-19T01:45:47	9.4	73
15543	2023-05-19T01:55:47	9.2	74
15544	2023-05-19T02:05:47	9.2	74
15545	2023-05-19T02:15:47	8.9	75
15546	2023-05-19T02:25:47	8.9	75
15547	2023-05-19T02:35:47	8.7	75.5
15548	2023-05-19T02:45:47	8.6	76
15549	2023-05-19T02:55:47	8.5	76.5
15550	2023-05-19T03:05:47	8.3	77
15551	2023-05-19T03:15:47	8.4	77.5
15552	2023-05-19T03:25:47	8.3	77.5
15553	2023-05-19T03:35:47	8.4	78
15554	2023-05-19T03:45:47	8.2	78.5
15555	2023-05-19T03:55:47	8.3	78.5
15556	2023-05-19T04:05:47	8.2	78.5
15557	2023-05-19T04:15:47	8.4	78.5
15558	2023-05-19T04:25:47	8.4	78
15559	2023-05-19T04:35:47	8.5	78.5
15560	2023-05-19T04:45:47	8.7	78.5
15561	2023-05-19T04:55:47	8.9	78
15562	2023-05-19T05:05:47	9.1	77.5
15563	2023-05-19T05:15:47	9.3	77.5
15564	2023-05-19T05:25:47	9.3	78
15565	2023-05-19T05:35:47	9.4	77
15566	2023-05-19T05:45:47	9.4	76.5
15567	2023-05-19T05:55:47	9.6	76.5
15568	2023-05-19T06:05:47	9.9	76
15569	2023-05-19T06:15:47	10.1	74.5
15570	2023-05-19T06:25:47	10.3	74
15571	2023-05-19T06:35:47	10.5	73.5
15572	2023-05-19T06:45:47	10.8	72.5
15573	2023-05-19T06:55:47	11.1	71
15574	2023-05-19T07:05:47	11.2	71
15575	2023-05-19T07:15:47	11.4	70
15576	2023-05-19T07:25:47	11.7	70.5
15577	2023-05-19T07:35:47	12	69.5
15578	2023-05-19T07:45:47	12.4	67
15579	2023-05-19T07:55:47	12.7	67.5
15580	2023-05-19T08:05:47	13.1	66.5
15581	2023-05-19T08:15:47	13.5	65.5
15582	2023-05-19T08:25:47	13.9	64.5
15583	2023-05-19T08:35:47	14.1	64
15584	2023-05-19T08:45:47	14.3	62.5
15585	2023-05-19T08:55:47	14.8	61.5
15586	2023-05-19T09:05:47	15.1	61.5
15587	2023-05-19T09:15:47	15.4	58.5
15588	2023-05-19T09:25:47	15.9	57.5
15589	2023-05-19T09:35:47	16.3	56
15590	2023-05-19T09:45:47	16.7	53.5
15591	2023-05-19T09:55:47	17.3	52
15592	2023-05-19T10:05:47	17.8	50.5
15593	2023-05-19T10:15:47	18.1	48.5
15594	2023-05-19T10:25:47	18.2	48
15595	2023-05-19T10:35:47	18.8	46.5
15596	2023-05-19T10:45:47	18.9	46.5
15597	2023-05-19T10:55:47	18.7	47.5
15598	2023-05-19T11:05:47	19.4	45.5
15599	2023-05-19T11:15:47	19.3	46
15600	2023-05-19T11:25:47	19.6	45
15601	2023-05-19T11:35:47	19.5	46
15602	2023-05-19T11:45:47	19.9	45.5
15603	2023-05-19T11:55:47	19.4	46
15604	2023-05-19T12:05:46	19.3	46
15605	2023-05-19T12:15:47	19.1	47.5
15606	2023-05-19T12:25:47	18.8	47.5
15607	2023-05-19T12:35:46	18.7	48
15608	2023-05-19T12:55:46	18.2	49
15609	2023-05-19T13:05:46	18.7	48
15610	2023-05-19T13:15:46	19	49
15611	2023-05-19T13:25:46	19	48
15612	2023-05-19T13:35:46	19.5	48
15613	2023-05-19T13:45:46	19.4	46.5
15614	2023-05-19T13:55:46	19.2	47
15615	2023-05-19T14:05:46	19.7	46.5
15616	2023-05-19T14:15:46	20	46
15617	2023-05-19T14:25:46	20.2	45.5
15618	2023-05-19T14:35:46	20.1	44
15619	2023-05-19T14:45:46	19.3	46.5
15620	2023-05-19T14:55:46	19.5	46
15621	2023-05-19T15:05:46	20	45
15622	2023-05-19T15:15:46	20.6	45
15623	2023-05-19T15:25:46	20.3	45.5
15624	2023-05-19T15:35:46	20	46
15625	2023-05-19T15:45:46	19.7	47.5
15626	2023-05-19T15:55:46	19.4	46
15627	2023-05-19T16:05:46	19.4	47
15628	2023-05-19T16:15:46	19.4	47
15629	2023-05-19T16:25:46	19.5	48
15630	2023-05-19T16:45:46	19.5	49
15631	2023-05-19T16:55:46	19.3	49
15632	2023-05-19T17:05:46	19.1	50
15633	2023-05-19T17:25:46	18.1	60.5
15634	2023-05-19T17:35:46	17.8	54
15635	2023-05-19T17:45:46	17.6	55
15636	2023-05-19T17:55:46	17.4	56.5
15637	2023-05-19T18:05:46	17.3	57
15638	2023-05-19T18:15:46	17.2	58.5
15639	2023-05-19T18:25:46	16.9	62.5
15640	2023-05-19T18:35:46	16.8	61
15641	2023-05-19T18:45:46	16.7	63.5
15642	2023-05-19T18:55:46	16.1	64
15643	2023-05-19T19:05:46	16	65
15644	2023-05-19T19:15:46	15.1	67.5
15645	2023-05-19T19:25:46	14.9	71.5
15646	2023-05-19T19:35:46	14.3	73.5
15647	2023-05-19T19:45:46	14.1	73
15648	2023-05-19T19:55:46	14.3	73
15649	2023-05-19T20:05:46	14.4	71
15650	2023-05-19T20:15:46	14.4	70.5
15651	2023-05-19T20:25:46	14.3	70.5
15652	2023-05-19T20:35:46	14.2	73.5
15653	2023-05-19T20:45:46	14.1	74
15654	2023-05-19T20:55:46	13.9	73.5
15655	2023-05-19T21:05:46	13.9	74.5
15656	2023-05-19T21:15:46	13.8	75
15657	2023-05-19T21:25:46	13.7	76
15658	2023-05-19T21:35:46	13.7	76
15659	2023-05-19T21:45:46	13.7	76.5
15660	2023-05-19T21:55:46	13.6	76.5
15661	2023-05-19T22:05:46	13.5	77
15662	2023-05-19T22:15:46	13.3	77.5
15663	2023-05-19T22:25:46	13.2	78
15664	2023-05-19T22:35:46	13.2	79
15665	2023-05-19T22:45:46	13	80
15666	2023-05-19T22:55:46	12.8	81
15667	2023-05-19T23:05:46	12.7	81.5
15668	2023-05-19T23:15:46	12.7	81
15669	2023-05-19T23:25:46	12.6	80
15670	2023-05-19T23:35:46	12.6	80.5
15671	2023-05-19T23:45:46	12.4	81
15672	2023-05-19T23:55:46	12.5	80.5
15673	2023-05-20T00:15:46	12.4	78.5
15674	2023-05-20T00:35:45	12.5	77.5
15675	2023-05-20T00:45:45	12.4	78
15676	2023-05-20T00:55:45	12.5	77.5
15677	2023-05-20T01:05:45	12.4	78
15678	2023-05-20T01:15:45	12.3	78.5
15679	2023-05-20T01:25:45	12.3	78.5
15680	2023-05-20T01:35:45	12.4	78
15681	2023-05-20T01:45:45	12.3	78.5
15682	2023-05-20T01:55:45	12.2	78
15683	2023-05-20T02:05:45	12.4	77.5
15684	2023-05-20T02:15:45	12.6	76.5
15685	2023-05-20T02:25:45	12.4	76.5
15686	2023-05-20T02:35:45	12.5	77.5
15687	2023-05-20T02:45:45	12.2	79
15688	2023-05-20T02:55:45	12	80
15689	2023-05-20T03:05:45	11.8	80.5
15690	2023-05-20T03:15:45	11.6	81.5
15691	2023-05-20T03:25:45	11.5	82.5
15692	2023-05-20T03:35:45	11.3	83.5
15693	2023-05-20T03:45:45	11.3	83.5
15694	2023-05-20T03:55:45	11.4	83
15695	2023-05-20T04:05:45	11.5	83
15696	2023-05-20T04:15:45	11.7	81.5
15697	2023-05-20T04:25:45	11.8	80
15698	2023-05-20T04:35:45	11.9	80
15699	2023-05-20T04:45:45	12.2	79.5
15700	2023-05-20T04:55:45	12.4	78.5
15701	2023-05-20T05:05:45	12.7	76.5
15702	2023-05-20T05:15:45	12.7	76
15703	2023-05-20T05:25:45	12.9	74.5
15704	2023-05-20T05:35:45	13	74
15705	2023-05-20T05:45:45	12.6	75
15706	2023-05-20T05:55:45	12.7	76.5
15707	2023-05-20T06:05:45	13	75
15708	2023-05-20T06:15:45	13.4	74
15709	2023-05-20T06:25:45	13.5	74.5
15710	2023-05-20T06:35:45	13.7	73
15711	2023-05-20T06:45:45	14.1	73.5
15712	2023-05-20T06:55:45	14.1	74
15713	2023-05-20T07:05:45	13.8	76
15714	2023-05-20T07:15:45	13.9	76.5
15715	2023-05-20T07:25:45	14.6	75.5
15716	2023-05-20T07:35:45	15.6	72.5
15717	2023-05-20T07:45:45	16.3	70
15718	2023-05-20T07:55:45	16.8	69
15719	2023-05-20T08:05:45	16.9	69
15720	2023-05-20T08:15:45	17.6	69
15721	2023-05-20T08:25:45	17.7	67.5
15722	2023-05-20T08:35:45	17.8	68
15723	2023-05-20T08:45:45	18.5	64.5
15724	2023-05-20T08:55:45	17.9	66.5
15725	2023-05-20T09:05:45	18	65.5
15726	2023-05-20T09:15:45	18.7	64.5
15727	2023-05-20T09:25:45	18.9	63
15728	2023-05-20T09:35:45	19.5	63
15729	2023-05-20T09:45:45	20	60.5
15730	2023-05-20T09:55:45	20.1	59
15731	2023-05-20T10:05:45	20.3	57
15732	2023-05-20T10:15:45	20.4	58.5
15733	2023-05-20T10:25:45	21	55.5
15734	2023-05-20T10:35:45	21.8	53.5
15735	2023-05-20T10:45:45	21.5	55
15736	2023-05-20T10:55:45	21.8	54.5
15737	2023-05-20T11:05:45	22.2	51.5
15738	2023-05-20T11:15:45	22.9	52
15739	2023-05-20T11:25:45	22.8	52
15740	2023-05-20T11:35:45	23.2	49.5
15741	2023-05-20T11:45:45	23.2	48.5
15742	2023-05-20T11:55:45	23.7	48.5
15743	2023-05-20T12:05:45	24.1	47.5
15744	2023-05-20T12:15:45	24.5	47.5
15745	2023-05-20T12:25:45	25.8	44
15746	2023-05-20T12:35:45	24.1	46.5
15747	2023-05-20T12:45:45	24.6	46
15748	2023-05-20T12:55:45	25.5	43.5
15749	2023-05-20T13:05:44	26.1	44
15750	2023-05-20T13:15:44	26.5	42
15751	2023-05-20T13:25:44	26.5	42
15752	2023-05-20T13:35:44	26.7	41.5
15753	2023-05-20T13:45:44	26.9	42
15754	2023-05-20T13:55:44	26.4	42.5
15755	2023-05-20T14:05:44	26.2	43
15756	2023-05-20T14:15:44	26.3	42
15757	2023-05-20T14:25:44	25.8	44
15758	2023-05-20T14:35:44	24.9	45.5
15759	2023-05-20T14:45:44	26.5	43.5
15760	2023-05-20T14:55:44	28.4	38
15761	2023-05-20T15:05:44	30.1	36
15762	2023-05-20T15:15:44	27.9	39
15763	2023-05-20T15:25:44	30.8	34
15764	2023-05-20T15:35:44	27.7	40
15765	2023-05-20T15:45:44	27	41.5
15766	2023-05-20T15:55:44	26.3	43
15767	2023-05-20T16:05:44	25.9	44.5
15768	2023-05-20T16:15:44	28	40
15769	2023-05-20T16:25:44	26.7	42.5
15770	2023-05-20T16:35:44	25.4	45
15771	2023-05-20T16:45:44	24.7	47
15772	2023-05-20T16:55:44	24.1	48
15773	2023-05-20T17:05:44	23.5	49.5
15774	2023-05-20T17:15:44	23.4	50
15775	2023-05-20T17:25:44	23.2	51
15776	2023-05-20T17:35:44	22.9	52.5
15777	2023-05-20T17:45:44	22.7	53
15778	2023-05-20T17:55:44	22.3	54
15779	2023-05-20T18:05:44	21.9	54.5
15780	2023-05-20T18:15:44	21.6	56
15781	2023-05-20T18:25:44	21.3	57
15782	2023-05-20T18:35:44	21	58.5
15783	2023-05-20T18:45:44	20.7	59
15784	2023-05-20T18:55:44	20.4	60.5
15785	2023-05-20T19:05:44	20.1	61
15786	2023-05-20T19:15:44	20	62.5
15787	2023-05-20T19:25:44	19.8	64
15788	2023-05-20T19:35:44	19.5	63.5
15789	2023-05-20T19:45:44	19.2	64.5
15790	2023-05-20T19:55:44	19.1	65.5
15791	2023-05-20T20:05:44	19	66
15792	2023-05-20T20:15:44	18.7	67
15793	2023-05-20T20:25:44	18.5	67.5
15794	2023-05-20T20:35:44	18.3	67.5
15795	2023-05-20T20:45:44	18.3	67
15796	2023-05-20T20:55:44	18.1	68
15797	2023-05-20T21:05:44	17.9	69
15798	2023-05-20T21:15:44	17.7	70
15799	2023-05-20T21:25:44	17.4	70.5
15800	2023-05-20T21:35:44	17.3	71.5
15801	2023-05-20T21:45:44	17.1	72.5
15802	2023-05-20T21:55:44	17	73
15803	2023-05-20T22:05:44	16.8	74
15804	2023-05-20T22:15:44	16.6	74.5
15805	2023-05-20T22:25:44	16.5	75
15806	2023-05-20T22:35:44	16.3	76
15807	2023-05-20T22:45:44	16.2	77
15808	2023-05-20T22:55:44	16	78
15809	2023-05-20T23:05:44	15.9	78.5
15810	2023-05-20T23:15:44	15.9	78.5
15811	2023-05-20T23:25:44	15.9	78.5
15812	2023-05-20T23:35:44	15.8	79
15813	2023-05-20T23:45:43	15.8	79.5
15814	2023-05-21T00:05:43	15.7	80.5
15815	2023-05-21T00:15:43	15.6	80.5
15816	2023-05-21T00:25:43	15.5	81
15817	2023-05-21T00:35:43	15.4	81
15818	2023-05-21T00:45:43	15.3	81.5
15819	2023-05-21T00:55:43	15.2	82
15820	2023-05-21T01:05:43	15.2	82
15821	2023-05-21T01:15:43	15	83
15822	2023-05-21T01:25:43	15	83
15823	2023-05-21T01:35:43	14.9	83.5
15824	2023-05-21T01:45:43	14.9	83.5
15825	2023-05-21T01:55:43	14.7	84
15826	2023-05-21T02:05:43	14.5	84.5
15827	2023-05-21T02:15:43	14.5	85
15828	2023-05-21T02:25:43	14.4	85.5
15829	2023-05-21T02:35:43	14.2	86
15830	2023-05-21T02:45:43	14	86.5
15831	2023-05-21T02:55:43	13.8	87.5
15832	2023-05-21T03:05:43	13.7	88
15833	2023-05-21T03:15:43	13.4	89
15834	2023-05-21T03:25:43	13.3	89.5
15835	2023-05-21T03:35:43	13.2	90
15836	2023-05-21T03:45:43	13.2	90.5
15837	2023-05-21T03:55:43	13.1	90.5
15838	2023-05-21T04:05:43	12.9	91
15839	2023-05-21T04:15:43	12.8	91
15840	2023-05-21T04:25:43	13.1	91
15841	2023-05-21T04:35:43	13.1	90.5
15842	2023-05-21T04:45:43	13.3	90
15843	2023-05-21T04:55:43	13.5	89.5
15844	2023-05-21T05:05:43	13.7	89
15845	2023-05-21T05:15:43	14	89
15846	2023-05-21T05:25:43	14.4	88.5
15847	2023-05-21T05:35:43	14.7	87
15848	2023-05-21T05:45:43	15	86
15849	2023-05-21T05:55:43	15.3	85
15850	2023-05-21T06:05:43	15.4	84
15851	2023-05-21T06:15:43	15.6	83.5
15852	2023-05-21T06:25:43	16	83
15853	2023-05-21T06:35:43	16.3	82
15854	2023-05-21T06:45:43	16.5	80.5
15855	2023-05-21T06:55:43	16.8	81
15856	2023-05-21T07:05:43	17.1	79.5
15857	2023-05-21T07:15:43	17.4	78.5
15858	2023-05-21T07:25:43	17.7	77
15859	2023-05-21T07:35:43	18.1	76
15860	2023-05-21T07:45:43	18.7	75
15861	2023-05-21T07:55:43	19.2	73
15862	2023-05-21T08:05:43	19.5	72
15863	2023-05-21T08:15:43	19.7	71
15864	2023-05-21T08:35:43	19.9	71.5
15865	2023-05-21T08:45:43	20	70
15866	2023-05-21T08:55:43	20.2	70
15867	2023-05-21T09:05:43	20.6	69
15868	2023-05-21T09:25:43	21.6	65.5
15869	2023-05-21T09:35:43	22	64.5
15870	2023-05-21T09:45:43	22.5	63
15871	2023-05-21T09:55:43	22.8	60.5
15872	2023-05-21T10:05:43	23.2	59.5
15873	2023-05-21T10:15:43	23.7	59.5
15874	2023-05-21T10:25:43	24	57
15875	2023-05-21T10:35:43	24	57
15876	2023-05-21T10:45:43	24.2	55
15877	2023-05-21T10:55:43	24.4	53
15878	2023-05-21T11:05:43	24.7	54.5
15879	2023-05-21T11:15:43	25.1	53
15880	2023-05-21T11:25:43	25.1	53
15881	2023-05-21T11:35:43	25.1	48.5
15882	2023-05-21T11:45:42	25.3	45
15883	2023-05-21T11:55:42	25.7	49.5
15884	2023-05-21T12:05:42	26.1	48.5
15885	2023-05-21T12:15:42	26.2	48.5
15886	2023-05-21T12:25:42	26.6	47.5
15887	2023-05-21T12:35:42	27	47
15888	2023-05-21T12:45:42	27.3	46
15889	2023-05-21T12:55:42	27.7	45
15890	2023-05-21T13:05:42	27.4	45
15891	2023-05-21T13:15:42	27.7	46.5
15892	2023-05-21T13:25:42	27.6	46
15893	2023-05-21T13:35:42	27.5	46
15894	2023-05-21T13:45:42	27.5	45
15895	2023-05-21T13:55:42	27.4	47
15896	2023-05-21T14:05:42	27.3	46.5
15897	2023-05-21T14:15:42	27.5	46
15898	2023-05-21T14:25:42	27.9	46
15899	2023-05-21T14:35:42	28.2	44
15900	2023-05-21T14:45:42	29	42
15901	2023-05-21T14:55:42	30.7	38
15902	2023-05-21T15:05:42	31.9	36.5
15903	2023-05-21T15:15:42	32.4	35.5
15904	2023-05-21T15:25:42	31.7	36.5
15905	2023-05-21T15:35:42	31.6	36
15906	2023-05-21T15:45:42	31.1	37
15907	2023-05-21T15:55:42	30.9	38
15908	2023-05-21T16:05:42	30.8	38
15909	2023-05-21T16:15:42	30.4	39.5
15910	2023-05-21T16:25:42	29.6	41
15911	2023-05-21T16:35:42	29	41.5
15912	2023-05-21T16:45:42	28.7	43
15913	2023-05-21T16:55:42	28.2	44
15914	2023-05-21T17:05:42	27.8	45
15915	2023-05-21T17:15:42	27.3	46.5
15916	2023-05-21T17:25:42	26.9	50.5
15917	2023-05-21T17:35:42	26.8	51
15918	2023-05-21T17:45:42	26.5	52.5
15919	2023-05-21T17:55:42	26.1	54.5
15920	2023-05-21T18:05:42	25.6	55.5
15921	2023-05-21T18:15:42	25.2	54.5
15922	2023-05-21T18:25:42	24.8	55.5
15923	2023-05-21T18:36:04	24.1	57.5
15924	2023-05-21T18:45:42	23.4	60
15925	2023-05-21T18:55:42	22.7	62.5
15926	2023-05-21T19:05:42	22.2	66
15927	2023-05-21T19:15:42	21.7	68
15928	2023-05-21T19:25:42	21.2	69.5
15929	2023-05-21T19:35:42	20.9	68
15930	2023-05-21T19:45:42	20.6	69
15931	2023-05-21T19:55:42	20.3	70
15932	2023-05-21T20:05:42	20	69.5
15933	2023-05-21T20:15:42	19.7	70
15934	2023-05-21T20:25:42	19.6	71
15935	2023-05-21T20:35:42	19.3	71.5
15936	2023-05-21T20:45:42	19.1	72
15937	2023-05-21T20:55:42	18.8	72.5
15938	2023-05-21T21:05:42	18.5	74.5
15939	2023-05-21T21:15:42	18.2	76
15940	2023-05-21T21:25:42	17.9	76.5
15941	2023-05-21T21:35:42	17.7	77
15942	2023-05-21T21:45:42	17.5	76.5
15943	2023-05-21T21:55:42	17.4	77
15944	2023-05-21T22:05:42	17.1	78
15945	2023-05-21T22:15:42	16.9	79
15946	2023-05-21T22:25:41	16.9	79.5
15947	2023-05-21T22:35:41	16.6	80
15948	2023-05-21T22:45:41	16.6	80.5
15949	2023-05-21T22:55:42	16.4	80.5
15950	2023-05-21T23:05:41	15.9	81
15951	2023-05-21T23:15:41	15.6	83.5
15952	2023-05-21T23:25:41	15.6	83
15953	2023-05-21T23:35:42	15.6	83.5
15954	2023-05-21T23:45:41	15.4	83
15955	2023-05-21T23:55:41	15.3	83
15956	2023-05-22T00:05:41	15.2	83.5
15957	2023-05-22T00:15:41	15.1	84.5
15958	2023-05-22T00:25:41	15	84.5
15959	2023-05-22T00:35:41	14.9	85
15960	2023-05-22T00:45:41	14.7	85
15961	2023-05-22T00:55:41	14.6	85.5
15962	2023-05-22T01:05:41	14.3	85.5
15963	2023-05-22T01:15:41	14.4	86
15964	2023-05-22T01:25:41	14.2	86.5
15965	2023-05-22T01:35:41	14.1	86.5
15966	2023-05-22T01:45:41	13.8	88
15967	2023-05-22T01:55:41	14	88
15968	2023-05-22T02:05:41	14	87.5
15969	2023-05-22T02:15:41	14.2	87
15970	2023-05-22T02:25:41	14.2	86
15971	2023-05-22T02:35:41	14.4	86.5
15972	2023-05-22T02:45:41	14.5	86.5
15973	2023-05-22T02:55:41	14.4	87
15974	2023-05-22T03:05:41	14.4	88
15975	2023-05-22T03:15:41	14.3	88.5
15976	2023-05-22T03:25:41	14.1	89
15977	2023-05-22T03:35:41	13.9	90
15978	2023-05-22T03:45:41	13.8	90.5
15979	2023-05-22T03:55:41	13.8	90.5
15980	2023-05-22T04:05:41	13.7	91
15981	2023-05-22T04:15:41	13.7	91.5
15982	2023-05-22T04:25:41	13.8	91.5
15983	2023-05-22T04:35:41	13.8	91
15984	2023-05-22T04:45:41	14.2	89.5
15985	2023-05-22T04:55:41	14.5	88.5
15986	2023-05-22T05:05:41	14.6	88.5
15987	2023-05-22T05:15:41	14.9	86.5
15988	2023-05-22T05:25:41	15.1	85.5
15989	2023-05-22T05:35:41	15.6	85
15990	2023-05-22T05:45:41	16.2	84
15991	2023-05-22T05:55:41	16.4	83.5
15992	2023-05-22T06:15:41	17.1	82
15993	2023-05-22T06:25:41	17.6	81
15994	2023-05-22T06:35:41	17.8	79
15995	2023-05-22T06:45:41	18	78
15996	2023-05-22T06:55:41	18.1	78
15997	2023-05-22T07:05:41	18.1	78
15998	2023-05-22T07:15:41	18.4	77.5
15999	2023-05-22T07:25:41	18.7	77
16000	2023-05-22T07:35:41	19.6	75
16001	2023-05-22T07:45:41	19.8	72.5
16002	2023-05-22T07:55:41	20.2	71
16003	2023-05-22T08:05:41	21	67
16004	2023-05-22T08:15:41	21.6	65
16005	2023-05-22T08:25:41	21.9	63.5
16006	2023-05-22T08:35:41	22.1	64
16007	2023-05-22T08:45:41	22	64
16008	2023-05-22T08:55:41	22.6	62.5
16009	2023-05-22T09:05:41	23.2	60.5
16010	2023-05-22T09:15:41	22.9	61.5
16011	2023-05-22T09:25:41	23	61.5
16012	2023-05-22T09:35:41	23.6	60.5
16013	2023-05-22T09:45:41	23.7	61
16014	2023-05-22T09:55:41	23.8	59.5
16015	2023-05-22T10:05:41	23.6	59
16016	2023-05-22T10:15:41	23.4	59.5
16017	2023-05-22T10:25:41	23.5	58
16018	2023-05-22T10:35:40	23.9	57
16019	2023-05-22T10:45:40	24	57.5
16020	2023-05-22T10:55:40	24.3	57.5
16021	2023-05-22T11:05:40	24.8	56.5
16022	2023-05-22T11:15:40	25	55
16023	2023-05-22T11:25:40	25.3	54
16024	2023-05-22T11:35:40	25.6	55
16025	2023-05-22T11:45:40	25.8	52
16026	2023-05-22T11:55:40	26.5	54.5
16027	2023-05-22T12:05:40	28.1	47
16028	2023-05-22T12:15:40	31.2	39.5
16029	2023-05-22T12:25:40	34.6	32
16030	2023-05-22T12:35:40	36.6	31.5
16031	2023-05-22T12:45:40	35.9	31.5
16032	2023-05-22T12:55:40	37.3	28.5
16033	2023-05-22T13:05:40	37.1	27
16034	2023-05-22T13:15:40	38.1	26.5
16035	2023-05-22T13:25:40	38.7	25.5
16036	2023-05-22T13:35:40	37.7	26.5
16037	2023-05-22T13:45:40	37.3	26.5
16038	2023-05-22T13:55:40	38.6	24.5
16039	2023-05-22T14:05:40	40.2	22
16040	2023-05-22T14:15:40	40.7	21.5
16041	2023-05-22T14:25:40	40.3	23.5
16042	2023-05-22T14:35:40	39	22.5
16043	2023-05-22T14:45:40	39.5	22
16044	2023-05-22T14:55:40	38	24
16045	2023-05-22T15:05:40	40.7	22
16046	2023-05-22T15:25:40	38.9	22.5
16047	2023-05-22T15:35:40	40	22
16048	2023-05-22T15:45:40	35.7	27
16049	2023-05-22T15:55:40	32.2	31.5
16050	2023-05-22T16:05:40	33.4	34
16051	2023-05-22T16:15:40	32	36.5
16052	2023-05-22T16:25:40	30.1	41
16053	2023-05-22T16:35:58	27.9	44.5
16054	2023-05-22T16:45:40	26.9	46
16055	2023-05-22T16:55:40	27	44.5
16056	2023-05-22T17:05:40	27.2	43
16057	2023-05-22T17:25:40	26.7	44.5
16058	2023-05-22T17:35:40	26.7	44
16059	2023-05-22T17:45:40	26.4	45
16060	2023-05-22T17:55:40	26.3	44
16061	2023-05-22T18:05:40	26.5	44
16062	2023-05-22T18:15:40	25.6	45
16063	2023-05-22T18:25:40	25.5	47
16064	2023-05-22T18:35:40	24.3	50.5
16065	2023-05-22T18:45:40	23.4	52
16066	2023-05-22T18:55:40	23.1	54
16067	2023-05-22T19:05:40	23.2	56
16068	2023-05-22T19:15:40	23.1	56.5
16069	2023-05-22T19:25:40	22.8	59.5
16070	2023-05-22T19:35:40	22.4	60
16071	2023-05-22T19:45:40	22.1	61.5
16072	2023-05-22T19:55:40	21.3	63.5
16073	2023-05-22T20:05:40	20.6	65
16074	2023-05-22T20:15:40	20.5	66
16075	2023-05-22T20:25:40	20.4	67
16076	2023-05-22T20:35:40	20.3	67
16077	2023-05-22T20:45:40	20	67.5
16078	2023-05-22T20:55:40	19.3	70
16079	2023-05-22T21:05:40	18.7	72
16080	2023-05-22T21:15:39	18.9	72.5
16081	2023-05-22T21:25:39	19	72
16082	2023-05-22T21:35:39	18.9	72.5
16083	2023-05-22T21:45:40	18.9	73
16084	2023-05-22T21:55:39	18.8	73.5
16085	2023-05-22T22:05:39	18.6	74
16086	2023-05-22T22:15:39	18.5	74.5
16087	2023-05-22T22:25:39	18.5	74.5
16088	2023-05-22T22:45:39	18.7	75
16089	2023-05-22T22:55:40	19	74
16090	2023-05-22T23:05:39	19	75
16091	2023-05-22T23:15:39	19	76
16092	2023-05-22T23:25:40	18.6	78
16093	2023-05-22T23:35:39	18.9	77
16094	2023-05-22T23:45:39	18.9	77.5
16095	2023-05-22T23:55:39	18.8	79
16096	2023-05-23T00:05:39	18.5	80
16097	2023-05-23T00:15:39	18.6	79.5
16098	2023-05-23T00:25:39	18.6	79.5
16099	2023-05-23T00:35:39	18.6	79.5
16100	2023-05-23T00:45:39	18.3	81
16101	2023-05-23T00:55:39	18.6	80
16102	2023-05-23T01:15:39	18.6	80
16103	2023-05-23T01:25:39	18.5	80.5
16104	2023-05-23T01:35:39	18.4	81.5
16105	2023-05-23T01:45:39	18.3	81.5
16106	2023-05-23T01:55:39	18.1	82
16107	2023-05-23T02:05:39	18.3	81.5
16108	2023-05-23T02:15:39	18.3	81
16109	2023-05-23T02:25:39	18.3	81.5
16110	2023-05-23T02:35:39	18.3	82
16111	2023-05-23T02:45:39	18	82
16112	2023-05-23T02:55:39	18.1	82.5
16113	2023-05-23T03:05:39	18.2	82.5
16114	2023-05-23T03:15:39	18	83
16115	2023-05-23T03:25:39	18	83.5
16116	2023-05-23T03:35:39	17.9	83.5
16117	2023-05-23T03:45:39	18.1	84
16118	2023-05-23T03:55:39	18	83.5
16119	2023-05-23T04:05:39	18.1	83.5
16120	2023-05-23T04:15:39	17.9	83.5
16121	2023-05-23T04:25:39	17.8	84
16122	2023-05-23T04:35:39	18	84
16123	2023-05-23T04:45:39	17.9	83.5
16124	2023-05-23T04:55:39	18	84
16125	2023-05-23T05:05:39	18.2	83.5
16126	2023-05-23T05:15:39	18.3	83
16127	2023-05-23T05:25:39	18.5	80
16128	2023-05-23T05:35:39	18.6	74.5
16129	2023-05-23T05:45:39	18.6	74
16130	2023-05-23T05:55:39	18.5	71.5
16131	2023-05-23T06:05:39	18.5	71
16132	2023-05-23T06:25:39	18.6	71
16133	2023-05-23T06:35:39	18.9	69.5
16134	2023-05-23T06:45:39	19	69
16135	2023-05-23T06:55:39	19.2	68.5
16136	2023-05-23T07:05:39	19	66.5
16137	2023-05-23T07:15:39	18.6	66.5
16138	2023-05-23T07:25:39	19.2	66.5
16139	2023-05-23T07:35:39	19.6	63.5
16140	2023-05-23T07:45:39	19.6	61.5
16141	2023-05-23T07:55:39	19.7	61
16142	2023-05-23T08:05:39	19.9	61
16143	2023-05-23T08:15:39	20.2	61
16144	2023-05-23T08:25:38	20.6	59
16145	2023-05-23T08:35:38	20.7	58
16146	2023-05-23T08:45:38	20.7	58.5
16147	2023-05-23T08:55:38	20.4	58
16148	2023-05-23T09:05:38	20.5	57.5
16149	2023-05-23T09:15:38	20.5	58
16150	2023-05-23T09:25:38	20.9	57
16151	2023-05-23T09:35:38	21.2	55.5
16152	2023-05-23T09:45:38	21.7	55
16153	2023-05-23T09:55:38	21.5	53.5
16154	2023-05-23T10:05:38	21.3	54
16155	2023-05-23T10:15:39	21.7	53.5
16156	2023-05-23T10:25:38	21.8	53
16157	2023-05-23T10:35:38	21.6	52
16158	2023-05-23T10:45:38	22.1	53.5
16159	2023-05-23T10:55:39	22.6	49.5
16160	2023-05-23T11:05:38	22.7	50
16161	2023-05-23T11:15:38	22.9	49
16162	2023-05-23T11:25:38	23.8	47
16163	2023-05-23T11:35:38	23.5	47
16164	2023-05-23T11:45:38	23	49
16165	2023-05-23T11:55:38	23.5	48.5
16166	2023-05-23T12:05:38	24.5	45
16167	2023-05-23T12:15:38	23.3	50
16168	2023-05-23T12:25:38	21.9	53.5
16169	2023-05-23T12:35:38	21.5	53
16170	2023-05-23T12:45:38	21.8	53.5
16171	2023-05-23T12:55:38	22.5	52
16172	2023-05-23T13:05:38	23.1	50
16173	2023-05-23T13:15:38	23.4	48.5
16174	2023-05-23T13:25:38	23.9	47
16175	2023-05-23T13:35:38	25	45.5
16176	2023-05-23T13:45:38	25	44
16177	2023-05-23T13:55:38	24.8	45
16178	2023-05-23T14:05:38	26	42
16179	2023-05-23T14:15:38	25.4	42
16180	2023-05-23T14:25:38	23.9	46
16181	2023-05-23T14:35:38	23.5	47
16182	2023-05-23T14:45:38	23.5	47
16183	2023-05-23T14:55:38	24	46
16184	2023-05-23T15:05:38	25.3	44
16185	2023-05-23T15:15:38	23.2	48
16186	2023-05-23T15:25:38	23.4	47.5
16187	2023-05-23T15:35:38	22.9	49
16188	2023-05-23T15:45:38	22.8	50
16189	2023-05-23T15:55:38	22.6	50.5
16190	2023-05-23T16:05:38	22.4	50.5
16191	2023-05-23T16:15:38	22.1	51
16192	2023-05-23T16:25:38	21.9	51.5
16193	2023-05-23T16:35:38	23.4	47
16194	2023-05-23T16:45:38	22.6	48.5
16195	2023-05-23T16:55:38	24.2	45.5
16196	2023-05-23T17:05:38	23.7	47
16197	2023-05-23T17:15:38	22.6	49
16198	2023-05-23T17:25:38	21.8	52
16199	2023-05-23T17:35:38	21.2	53
16200	2023-05-23T17:45:38	20.8	53.5
16201	2023-05-23T17:55:38	20.6	54
16202	2023-05-23T18:05:38	19.8	56.5
16203	2023-05-23T18:15:38	19.5	57.5
16204	2023-05-23T18:25:38	19.7	57.5
16205	2023-05-23T18:35:38	19.3	58
16206	2023-05-23T18:45:38	19.4	57.5
16207	2023-05-23T18:55:38	18.6	59.5
16208	2023-05-23T19:05:38	18.2	61.5
16209	2023-05-23T19:15:37	18.2	62
16210	2023-05-23T19:25:37	17.7	61.5
16211	2023-05-23T19:35:37	17.6	61.5
16212	2023-05-23T19:45:38	17.6	60
16213	2023-05-23T19:55:37	17.4	60
16214	2023-05-23T20:05:37	17.1	60
16215	2023-05-23T20:15:37	17	60
16216	2023-05-23T20:25:37	16.8	60.5
16217	2023-05-23T20:35:38	16.6	60
16218	2023-05-23T20:45:37	16.6	60
16219	2023-05-23T20:55:37	16.5	60
16220	2023-05-23T21:15:37	16.3	59
16221	2023-05-23T21:25:37	16.2	58
16222	2023-05-23T21:35:37	16.1	58.5
16223	2023-05-23T21:45:37	16	58.5
16224	2023-05-23T21:55:37	16	59
16225	2023-05-23T22:05:37	15.8	59.5
16226	2023-05-23T22:15:37	15.7	57.5
16227	2023-05-23T22:25:37	15.6	57
16228	2023-05-23T22:55:37	15.4	58
16229	2023-05-23T23:05:38	15.1	59
16230	2023-05-23T23:15:37	14.9	59.5
16231	2023-05-23T23:25:37	14.9	60
16232	2023-05-23T23:35:37	14.8	60.5
16233	2023-05-23T23:45:37	14.5	62
16234	2023-05-23T23:55:37	14.1	63.5
16235	2023-05-24T00:05:38	14	64.5
16236	2023-05-24T00:15:37	14	65
16237	2023-05-24T00:25:37	14	65
16238	2023-05-24T00:35:37	13.8	66
16239	2023-05-24T00:45:37	13.5	67
16240	2023-05-24T00:55:37	13.4	67.5
16241	2023-05-24T01:05:37	13	68
16242	2023-05-24T01:15:37	12.9	68
16243	2023-05-24T01:25:37	13	68
16244	2023-05-24T01:35:37	13	68
16245	2023-05-24T01:45:37	13	67.5
16246	2023-05-24T01:55:37	13	67.5
16247	2023-05-24T02:05:37	13	67.5
16248	2023-05-24T02:15:37	13.1	67
16249	2023-05-24T02:25:37	13	67.5
16250	2023-05-24T02:35:37	12.8	67.5
16251	2023-05-24T02:45:37	12.6	68
16252	2023-05-24T02:55:37	12.6	68
16253	2023-05-24T03:05:37	12.5	68.5
16254	2023-05-24T03:15:37	12.3	68.5
16255	2023-05-24T03:25:37	12.1	69.5
16256	2023-05-24T03:35:37	12	70
16257	2023-05-24T03:45:37	11.9	71
16258	2023-05-24T03:55:37	11.8	71
16259	2023-05-24T04:05:37	11.9	70.5
16260	2023-05-24T04:15:37	11.9	70.5
16261	2023-05-24T04:25:37	11.9	70.5
16262	2023-05-24T04:35:37	11.9	70.5
16263	2023-05-24T04:45:37	11.9	70
16264	2023-05-24T04:55:37	11.8	69
16265	2023-05-24T05:05:37	11.9	68.5
16266	2023-05-24T05:15:37	11.9	68
16267	2023-05-24T05:25:37	11.8	67.5
16268	2023-05-24T05:35:37	11.9	67.5
16269	2023-05-24T05:45:37	12	68
16270	2023-05-24T05:55:37	12.1	67.5
16271	2023-05-24T06:05:37	12.2	67.5
16272	2023-05-24T06:15:37	12.5	66.5
16273	2023-05-24T06:25:37	12.6	66
16274	2023-05-24T06:35:37	13	65
16275	2023-05-24T06:45:37	13.3	63
16276	2023-05-24T06:55:37	13.5	63
16277	2023-05-24T07:05:37	13.5	63
16278	2023-05-24T07:15:37	13.5	63
16279	2023-05-24T07:25:37	13.8	61
16280	2023-05-24T07:35:37	13.9	61
16281	2023-05-24T07:45:37	14.2	59.5
16282	2023-05-24T07:55:37	14.4	59
16283	2023-05-24T08:05:37	14.7	57.5
16284	2023-05-24T08:15:37	15.2	57
16285	2023-05-24T08:25:37	15.4	56
16286	2023-05-24T08:35:36	15.3	55.5
16287	2023-05-24T08:45:36	15.3	56
16288	2023-05-24T08:55:36	14.9	54.5
16289	2023-05-24T09:05:36	15	54
16290	2023-05-24T09:15:36	16.1	51
16291	2023-05-24T09:35:36	16.8	48.5
16292	2023-05-24T09:45:36	16	48
16293	2023-05-24T09:55:36	15.6	51
16294	2023-05-24T10:05:36	15.2	51.5
16295	2023-05-24T10:15:36	15.3	52
16296	2023-05-24T10:25:36	15.6	51
16297	2023-05-24T10:35:36	15.6	50.5
16298	2023-05-24T10:45:36	15.9	48
16299	2023-05-24T10:55:36	16.2	47
16300	2023-05-24T11:05:36	16.4	45
16301	2023-05-24T11:15:36	16.7	45.5
16302	2023-05-24T11:25:36	16.6	44
16303	2023-05-24T11:35:36	17.1	42.5
16304	2023-05-24T11:45:36	17.2	42
16305	2023-05-24T11:55:36	17.5	43.5
16306	2023-05-24T12:05:36	20	41
16307	2023-05-24T12:15:36	23.5	33.5
16308	2023-05-24T12:35:36	25.7	28.5
16309	2023-05-24T12:45:36	27.2	27
16310	2023-05-24T12:55:36	26.9	27.5
16311	2023-05-24T13:05:36	28.6	25.5
16312	2023-05-24T13:15:36	29.5	23.5
16313	2023-05-24T13:25:36	30.5	22.5
16314	2023-05-24T13:35:36	27.6	25.5
16315	2023-05-24T13:45:36	31.6	21
16316	2023-05-24T13:55:36	32.7	18.5
16317	2023-05-24T14:05:36	32.1	18.5
16318	2023-05-24T14:15:36	33.6	16.5
16319	2023-05-24T14:25:36	32.9	18
16320	2023-05-24T14:35:36	32.3	18
16321	2023-05-24T14:45:36	33.3	18
16322	2023-05-24T14:55:36	34	17.5
16323	2023-05-24T15:05:36	33.4	17.5
16324	2023-05-24T15:15:36	33.6	17
16325	2023-05-24T15:25:36	33.1	17.5
16326	2023-05-24T15:35:36	32.6	18
16327	2023-05-24T15:55:36	32.5	18
16328	2023-05-24T16:05:36	31.7	18
16329	2023-05-24T16:15:36	31.8	18.5
16330	2023-05-24T16:25:36	31.3	18.5
16331	2023-05-24T16:35:36	31.5	18.5
16332	2023-05-24T16:45:36	31	19.5
16333	2023-05-24T16:55:36	29.9	20.5
16334	2023-05-24T17:05:36	29.2	20
16335	2023-05-24T17:15:36	29.1	21
16336	2023-05-24T17:25:36	27.9	21.5
16337	2023-05-24T17:35:36	26.8	22
16338	2023-05-24T17:45:36	24.7	25
16339	2023-05-24T17:55:36	22.1	30
16340	2023-05-24T18:05:36	20	34
16341	2023-05-24T18:15:36	19.2	35.5
16342	2023-05-24T18:25:36	18.5	37.5
16343	2023-05-24T18:35:36	18	38.5
16344	2023-05-24T18:45:36	17.6	38
16345	2023-05-24T18:55:36	17.2	38
16346	2023-05-24T19:05:36	16.9	38
16347	2023-05-24T19:15:36	16.4	39.5
16348	2023-05-24T19:25:35	15.9	40.5
16349	2023-05-24T19:35:35	15.5	43
16350	2023-05-24T19:45:35	15.1	44
16351	2023-05-24T19:55:35	15.1	44.5
16352	2023-05-24T20:05:35	15	45.5
16353	2023-05-24T20:15:35	14.7	46.5
16354	2023-05-24T20:25:35	14.3	48
16355	2023-05-24T20:35:35	14	49.5
16356	2023-05-24T20:45:35	13.6	51
16357	2023-05-24T20:55:35	13.5	51.5
16358	2023-05-24T21:05:35	13.4	52
16359	2023-05-24T21:15:35	13.4	53
16360	2023-05-24T21:25:35	13.2	53.5
16361	2023-05-24T21:35:35	12.8	56
16362	2023-05-24T21:45:35	12.6	57
16363	2023-05-24T21:55:35	12.3	58
16364	2023-05-24T22:05:35	12.2	58.5
16365	2023-05-24T22:15:35	11.9	59.5
16366	2023-05-24T22:25:35	11.5	61
16367	2023-05-24T22:35:35	11.4	61
16368	2023-05-24T22:45:35	11.3	62.5
16369	2023-05-24T22:55:35	11.1	63.5
16370	2023-05-24T23:05:35	10.9	65
16371	2023-05-24T23:15:35	10.7	66
16372	2023-05-24T23:25:35	10.5	67
16373	2023-05-24T23:35:35	10.1	68
16374	2023-05-24T23:45:35	10	69.5
16375	2023-05-24T23:55:35	9.5	70.5
16376	2023-05-25T00:05:35	9.4	72
16377	2023-05-25T00:15:35	9.2	73
16378	2023-05-25T00:25:35	9.1	73.5
16379	2023-05-25T00:35:35	8.9	73.5
16380	2023-05-25T00:45:35	8.8	74.5
16381	2023-05-25T00:55:35	8.7	74.5
16382	2023-05-25T01:05:35	8.6	75
16383	2023-05-25T01:15:35	8.5	76
16384	2023-05-25T01:25:35	8.4	76
16385	2023-05-25T01:35:35	8.3	76.5
16386	2023-05-25T01:45:35	8.3	76.5
16387	2023-05-25T01:55:35	8.3	76.5
16388	2023-05-25T02:05:35	8.2	77
16389	2023-05-25T02:15:35	8	78
16390	2023-05-25T02:25:35	7.9	78.5
16391	2023-05-25T02:35:35	7.8	78.5
16392	2023-05-25T02:45:35	7.9	79.5
16393	2023-05-25T02:55:35	7.8	80
16394	2023-05-25T03:05:35	7.4	81
16395	2023-05-25T03:15:35	7.3	81.5
16396	2023-05-25T03:25:36	7.3	81.5
16397	2023-05-25T03:35:35	7.2	81.5
16398	2023-05-25T03:45:35	7.1	82
16399	2023-05-25T03:55:35	7	82.5
16400	2023-05-25T04:05:35	7	83
16401	2023-05-25T04:15:35	7.2	83
16402	2023-05-25T04:25:35	7.1	83
16403	2023-05-25T04:35:35	7.2	83
16404	2023-05-25T04:45:35	7.5	82.5
16405	2023-05-25T04:55:35	7.7	82.5
16406	2023-05-25T05:05:35	8	81
16407	2023-05-25T05:15:35	8.2	80
16408	2023-05-25T05:25:35	8.4	80
16409	2023-05-25T05:35:35	8.7	79
16410	2023-05-25T05:45:35	9	78
16411	2023-05-25T05:55:35	9.2	77.5
16412	2023-05-25T06:05:35	9.5	76.5
16413	2023-05-25T06:15:35	9.8	76
16414	2023-05-25T06:25:35	10.1	74.5
16415	2023-05-25T06:35:35	10.4	74
16416	2023-05-25T06:45:35	10.7	72.5
16417	2023-05-25T06:55:35	11.2	69.5
16418	2023-05-25T07:05:35	11.4	70
16419	2023-05-25T07:15:35	11.8	69.5
16420	2023-05-25T07:25:35	12.2	70
16421	2023-05-25T07:35:35	12.5	68
16422	2023-05-25T07:45:35	12.7	68
16423	2023-05-25T07:55:35	13.1	66.5
16424	2023-05-25T08:05:35	13.5	67.5
16425	2023-05-25T08:15:35	13.8	66
16426	2023-05-25T08:25:35	14	65.5
16427	2023-05-25T08:35:35	14.5	63.5
16428	2023-05-25T08:45:35	15.2	62
16429	2023-05-25T08:55:35	15.5	61.5
16430	2023-05-25T09:05:35	15.5	62
16431	2023-05-25T09:15:35	15.6	63
16432	2023-05-25T09:25:35	15.9	61
16433	2023-05-25T09:35:35	16.3	60.5
16434	2023-05-25T09:45:35	16.5	61
16435	2023-05-25T09:55:35	16.9	60
16436	2023-05-25T10:05:35	17.3	59
16437	2023-05-25T10:15:35	17.7	55.5
16438	2023-05-25T10:25:35	18	54
16439	2023-05-25T10:35:35	18.6	54
16440	2023-05-25T10:45:35	18.9	51
16441	2023-05-25T11:05:35	19.3	51
16442	2023-05-25T11:15:34	19.6	49
16443	2023-05-25T11:25:35	20.2	49.5
16444	2023-05-25T11:35:34	20.4	48.5
16445	2023-05-25T11:45:34	21.1	49
16446	2023-05-25T11:55:34	21.4	46
16447	2023-05-25T12:05:35	21.9	44.5
16448	2023-05-25T12:15:34	25.3	37.5
16449	2023-05-25T12:25:34	27.9	33.5
16450	2023-05-25T12:35:34	28.2	32.5
16451	2023-05-25T12:45:34	29.2	31
16452	2023-05-25T12:55:34	31.6	26.5
16453	2023-05-25T13:05:34	30.7	28
16454	2023-05-25T13:15:34	29.4	30
16455	2023-05-25T13:25:34	33.4	25.5
16456	2023-05-25T13:35:53	32.4	25.5
16457	2023-05-25T13:45:34	33.4	25.5
16458	2023-05-25T13:55:34	32.6	26
16459	2023-05-25T14:05:34	34.2	24
16460	2023-05-25T14:15:34	34.7	24
16461	2023-05-25T14:25:34	35.9	22.5
16462	2023-05-25T14:35:34	37.4	22
16463	2023-05-25T14:45:34	36.6	22
16464	2023-05-25T14:55:34	37.7	21
16465	2023-05-25T15:05:34	36.9	21
16466	2023-05-25T15:15:34	36.7	21.5
16467	2023-05-25T15:25:34	37.6	20.5
16468	2023-05-25T15:35:34	36.9	21.5
16469	2023-05-25T15:45:34	37.4	20.5
16470	2023-05-25T15:55:34	37.1	21
16471	2023-05-25T16:05:34	37.1	20.5
16472	2023-05-25T16:15:34	37.1	21.5
16473	2023-05-25T16:25:34	36.8	21
16474	2023-05-25T16:35:34	36.5	21
16475	2023-05-25T16:45:34	36	22.5
16476	2023-05-25T16:55:34	36	22.5
16477	2023-05-25T17:05:34	36	22
16478	2023-05-25T17:15:34	34.2	22.5
16479	2023-05-25T17:25:34	34	23.5
16480	2023-05-25T17:35:34	33.4	24.5
16481	2023-05-25T17:45:34	32.7	25
16482	2023-05-25T17:55:34	31.6	26
16483	2023-05-25T18:05:34	31.4	27
16484	2023-05-25T18:15:34	30.7	27.5
16485	2023-05-25T18:25:34	29.6	29.5
16486	2023-05-25T18:55:34	26.2	35.5
16487	2023-05-25T19:05:34	24.6	38.5
16488	2023-05-25T19:15:34	23.7	42.5
16489	2023-05-25T19:25:34	22.9	46
16490	2023-05-25T19:35:34	22.2	48.5
16491	2023-05-25T19:45:34	21.5	50.5
16492	2023-05-25T19:55:34	21	53
16493	2023-05-25T20:05:34	20.5	54.5
16494	2023-05-25T20:15:34	20.2	56
16495	2023-05-25T20:25:34	19.7	57
16496	2023-05-25T20:35:34	19.4	57.5
16497	2023-05-25T20:45:34	19.1	58.5
16498	2023-05-25T20:55:34	18.8	58.5
16499	2023-05-25T21:05:34	18.5	60
16500	2023-05-25T21:15:34	18.2	59.5
16501	2023-05-25T21:25:34	18	61.5
16502	2023-05-25T21:35:34	17.7	62
16503	2023-05-25T21:45:34	17.4	63
16504	2023-05-25T21:55:33	17.1	63.5
16505	2023-05-25T22:05:33	17	65
16506	2023-05-25T22:15:33	16.5	65.5
16507	2023-05-25T22:25:33	16.4	66.5
16508	2023-05-25T22:35:33	16.2	67
16509	2023-05-25T22:45:33	15.9	68
16510	2023-05-25T22:55:33	15.6	69
16511	2023-05-25T23:05:33	15.3	70
16512	2023-05-25T23:15:33	15.2	71
16513	2023-05-25T23:25:33	15	70.5
16514	2023-05-25T23:35:33	14.8	71
16515	2023-05-25T23:45:33	14.7	71.5
16516	2023-05-25T23:55:33	14.6	72
16517	2023-05-26T00:05:33	14.3	72.5
16518	2023-05-26T00:15:33	14.4	72.5
16519	2023-05-26T00:25:33	14.4	72.5
16520	2023-05-26T00:35:33	14.3	73
16521	2023-05-26T00:45:33	14	74.5
16522	2023-05-26T00:55:33	13.8	75
16523	2023-05-26T01:05:33	13.5	76
16524	2023-05-26T01:15:33	13.4	76
16525	2023-05-26T01:25:33	13.5	76
16526	2023-05-26T01:35:33	13.3	76
16527	2023-05-26T01:45:33	13.3	76.5
16528	2023-05-26T01:55:33	13.4	76.5
16529	2023-05-26T02:05:33	13.4	76
16530	2023-05-26T02:15:33	13.5	76
16531	2023-05-26T02:25:33	13.6	76.5
16532	2023-05-26T02:35:33	13.6	76
16533	2023-05-26T02:45:33	13.5	76.5
16534	2023-05-26T02:55:33	13.4	77
16535	2023-05-26T03:05:33	13.2	77.5
16536	2023-05-26T03:15:33	13.2	78
16537	2023-05-26T03:25:33	13.1	77.5
16538	2023-05-26T03:35:33	13.1	77.5
16539	2023-05-26T03:45:33	13.1	78
16540	2023-05-26T03:55:33	13	77.5
16541	2023-05-26T04:05:33	12.9	78
16542	2023-05-26T04:15:33	12.8	78.5
16543	2023-05-26T04:25:33	12.7	78.5
16544	2023-05-26T04:35:33	12.8	78
16545	2023-05-26T04:45:33	12.8	78
16546	2023-05-26T04:55:33	12.7	78.5
16547	2023-05-26T05:05:33	12.6	78.5
16548	2023-05-26T05:15:33	12.6	78
16549	2023-05-26T05:25:33	12.7	77.5
16550	2023-05-26T05:35:33	12.7	77.5
16551	2023-05-26T05:45:33	12.9	77.5
16552	2023-05-26T05:55:33	12.9	77
16553	2023-05-26T06:05:33	13.1	77
16554	2023-05-26T06:15:33	13.2	76
16555	2023-05-26T06:25:33	13.5	75
16556	2023-05-26T06:35:33	13.7	75
16557	2023-05-26T06:45:33	13.8	74.5
16558	2023-05-26T06:55:33	14.1	74
16559	2023-05-26T07:05:33	14.5	74.5
16560	2023-05-26T07:15:33	14.6	72.5
16561	2023-05-26T07:25:33	14.9	72
16562	2023-05-26T07:35:33	15.2	72
16563	2023-05-26T07:45:33	15.5	71
16564	2023-05-26T07:55:33	15.8	70.5
16565	2023-05-26T08:05:33	16.1	69.5
16566	2023-05-26T08:15:33	16.2	68
16567	2023-05-26T08:25:33	16.4	68
16568	2023-05-26T08:35:33	16.6	65.5
16569	2023-05-26T08:45:33	17	65
16570	2023-05-26T08:55:33	17.3	65
16571	2023-05-26T09:05:33	17.4	63
16572	2023-05-26T09:15:33	17.6	63
16573	2023-05-26T09:25:33	18	63
16574	2023-05-26T09:35:33	18.3	62.5
16575	2023-05-26T09:45:33	18.4	63
16576	2023-05-26T09:55:33	18.8	62.5
16577	2023-05-26T10:05:33	19.1	61
16578	2023-05-26T10:15:32	19.4	60.5
16579	2023-05-26T10:25:33	19.5	59.5
16580	2023-05-26T10:35:32	19.8	57.5
16581	2023-05-26T10:45:32	20	56.5
16582	2023-05-26T10:55:32	20.3	55.5
16583	2023-05-26T11:05:32	20.5	54
16584	2023-05-26T11:15:32	20.8	53.5
16585	2023-05-26T11:25:32	21.3	51.5
16586	2023-05-26T11:35:32	21.6	50
16587	2023-05-26T11:45:32	21.7	49
16588	2023-05-26T11:55:32	22.1	48.5
16589	2023-05-26T12:05:32	24.1	43.5
16590	2023-05-26T12:15:32	27.6	35.5
16591	2023-05-26T12:25:32	29.9	31.5
16592	2023-05-26T12:35:32	31.7	29
16593	2023-05-26T12:45:32	32.9	27.5
16594	2023-05-26T12:55:32	33.8	26.5
16595	2023-05-26T13:05:32	35.4	24.5
16596	2023-05-26T13:15:32	35.1	23.5
16597	2023-05-26T13:25:32	36.2	23
16598	2023-05-26T13:45:32	38	21.5
16599	2023-05-26T13:55:32	38.1	21
16600	2023-05-26T14:05:32	37.9	21
16601	2023-05-26T14:15:32	38.9	22
16602	2023-05-26T14:25:32	40	19
16603	2023-05-26T14:35:32	41.1	18.5
16604	2023-05-26T14:45:32	41.6	17.5
16605	2023-05-26T14:55:32	40.6	17
16606	2023-05-26T15:05:32	41.5	16.5
16607	2023-05-26T15:15:32	40.4	16.5
16608	2023-05-26T15:25:32	41.5	16
16609	2023-05-26T15:35:32	42	17
16610	2023-05-26T15:45:32	42	16
16611	2023-05-26T15:55:32	41.1	17
16612	2023-05-26T16:05:32	40.1	17
16613	2023-05-26T16:15:32	40.4	16.5
16614	2023-05-26T16:25:32	40.3	16.5
16615	2023-05-26T16:35:32	39.7	17.5
16616	2023-05-26T16:45:32	38.3	18
16617	2023-05-26T16:55:32	38	19.5
16618	2023-05-26T17:05:32	37.4	20
16619	2023-05-26T17:15:32	36.2	21
16620	2023-05-26T17:25:32	35.2	22
16621	2023-05-26T17:35:32	34.4	23
16622	2023-05-26T17:45:32	34.2	23.5
16623	2023-05-26T17:55:32	32.9	25
16624	2023-05-26T18:05:32	31.6	26
16625	2023-05-26T18:15:32	30.5	27.5
16626	2023-05-26T18:25:32	29.3	30
16627	2023-05-26T18:35:32	27.9	33.5
16628	2023-05-26T18:45:32	26.4	36
16629	2023-05-26T18:55:32	25.2	39
16630	2023-05-26T19:05:32	23.9	41.5
16631	2023-05-26T19:15:32	23.3	43
16632	2023-05-26T19:25:32	22.5	44.5
16633	2023-05-26T19:35:32	22.1	45.5
16634	2023-05-26T19:45:32	21.6	47
16635	2023-05-26T19:55:32	21.3	48
16636	2023-05-26T20:05:32	20.9	49
16637	2023-05-26T20:15:32	20.5	50.5
16638	2023-05-26T20:25:32	20.1	52
16639	2023-05-26T20:35:32	19.8	53
16640	2023-05-26T20:45:32	19.5	54.5
16641	2023-05-26T20:55:32	19.2	55.5
16642	2023-05-26T21:05:32	19	56
16643	2023-05-26T21:15:32	18.5	58
16644	2023-05-26T21:25:31	18.2	60
16645	2023-05-26T21:35:31	17.9	61
16646	2023-05-26T21:45:32	17.5	60.5
16647	2023-05-26T21:55:32	17.2	61.5
16648	2023-05-26T22:05:31	17.1	62
16649	2023-05-26T22:15:31	16.8	63
16650	2023-05-26T22:25:31	16.5	64
16651	2023-05-26T22:35:31	16.2	65.5
16652	2023-05-26T22:45:31	15.8	66.5
16653	2023-05-26T22:55:31	15.5	67
16654	2023-05-26T23:05:31	15.3	66.5
16655	2023-05-26T23:15:31	15.1	66
16656	2023-05-26T23:25:31	15	66.5
16657	2023-05-26T23:35:31	14.7	67.5
16658	2023-05-26T23:45:31	14.4	68
16659	2023-05-26T23:55:31	14	68.5
16660	2023-05-27T00:05:31	14	69.5
16661	2023-05-27T00:15:31	13.7	70.5
16662	2023-05-27T00:25:31	13.5	71
16663	2023-05-27T00:35:31	13.4	71
16664	2023-05-27T00:45:31	13.3	71
16665	2023-05-27T00:55:31	13.1	71.5
16666	2023-05-27T01:05:31	12.9	71.5
16667	2023-05-27T01:15:31	12.8	71.5
16668	2023-05-27T01:25:31	12.7	72
16669	2023-05-27T01:35:31	12.4	72
16670	2023-05-27T01:45:31	12.5	72
16671	2023-05-27T01:55:31	12.5	72
16672	2023-05-27T02:05:31	12.5	72.5
16673	2023-05-27T02:15:31	12.2	72.5
16674	2023-05-27T02:25:31	12.2	72.5
16675	2023-05-27T02:35:31	12.1	72.5
16676	2023-05-27T02:45:31	12	73
16677	2023-05-27T02:55:31	11.7	74
16678	2023-05-27T03:05:31	11.7	74
16679	2023-05-27T03:15:31	11.5	75
16680	2023-05-27T03:25:31	11.4	75
16681	2023-05-27T03:35:31	11.4	75.5
16682	2023-05-27T03:45:31	11.3	75
16683	2023-05-27T03:55:31	11.3	74.5
16684	2023-05-27T04:05:31	11.4	74.5
16685	2023-05-27T04:15:31	11.3	74
16686	2023-05-27T04:25:31	11.4	74.5
16687	2023-05-27T04:35:31	11.4	75
16688	2023-05-27T04:45:31	11.3	75
16689	2023-05-27T04:55:31	11.3	75
16690	2023-05-27T05:05:31	11.5	74.5
16691	2023-05-27T05:15:31	11.7	74
16692	2023-05-27T05:25:31	12	73
16693	2023-05-27T05:35:32	12.2	71
16694	2023-05-27T05:45:31	12.6	69.5
16695	2023-05-27T05:55:31	12.8	68.5
16696	2023-05-27T06:05:52	13.1	67.5
16697	2023-05-27T06:15:31	13.2	66.5
16698	2023-05-27T06:25:31	13.5	67
16699	2023-05-27T06:35:31	13.7	65.5
16700	2023-05-27T06:45:31	13.8	66
16701	2023-05-27T06:55:31	14.1	65.5
16702	2023-05-27T07:15:31	14.7	64.5
16703	2023-05-27T07:25:31	15	63
16704	2023-05-27T07:45:31	15.6	63
16705	2023-05-27T07:55:31	15.9	61.5
16706	2023-05-27T08:05:31	16.1	62
16707	2023-05-27T08:15:31	16.4	60.5
16708	2023-05-27T08:25:31	16.7	59.5
16709	2023-05-27T08:35:31	16.9	59.5
16710	2023-05-27T08:45:31	17.2	59
16711	2023-05-27T08:55:31	17.6	56.5
16712	2023-05-27T09:05:31	17.9	56
16713	2023-05-27T09:15:31	18.1	56
16714	2023-05-27T09:25:31	18.4	54.5
16715	2023-05-27T09:35:31	18.7	53.5
16716	2023-05-27T09:55:31	19.2	52
16717	2023-05-27T10:05:31	19.4	52
16718	2023-05-27T10:15:31	19.9	53.5
16719	2023-05-27T10:25:30	20.2	53
16720	2023-05-27T10:35:30	20.6	53
16721	2023-05-27T10:45:30	20.7	50
16722	2023-05-27T11:05:30	21.5	48
16723	2023-05-27T11:15:30	21.8	47.5
16724	2023-05-27T11:25:30	22.3	47
16725	2023-05-27T11:35:30	22.5	46.5
16726	2023-05-27T11:45:30	22.9	44.5
16727	2023-05-27T11:55:30	23.3	44
16728	2023-05-27T12:05:30	24.9	42
16729	2023-05-27T12:15:30	28.2	34.5
16730	2023-05-27T12:25:30	30.1	31.5
16731	2023-05-27T12:35:30	31.5	29
16732	2023-05-27T12:45:30	32.9	28
16733	2023-05-27T12:55:30	33.3	27.5
16734	2023-05-27T13:05:30	34	25
16735	2023-05-27T13:15:30	34.7	25
16736	2023-05-27T13:25:30	34.7	24
16737	2023-05-27T13:35:30	35.8	23.5
16738	2023-05-27T13:45:30	36.5	22
16739	2023-05-27T13:55:31	36.7	21.5
16740	2023-05-27T14:05:30	37.3	20.5
16741	2023-05-27T14:15:30	37.5	20.5
16742	2023-05-27T14:25:30	37.4	20.5
16743	2023-05-27T14:35:30	37.6	20
16744	2023-05-27T14:45:30	37.8	18.5
16745	2023-05-27T14:55:30	38.2	19.5
16746	2023-05-27T15:05:30	38.5	19
16747	2023-05-27T15:15:30	37.2	19
16748	2023-05-27T15:25:30	37.2	19
16749	2023-05-27T15:35:30	38	18.5
16750	2023-05-27T15:45:30	37.7	18
16751	2023-05-27T15:55:30	37.9	17.5
16752	2023-05-27T16:05:30	36.5	18
16753	2023-05-27T16:15:30	36.6	17.5
16754	2023-05-27T16:25:30	35.9	18.5
16755	2023-05-27T16:35:30	35.9	18.5
16756	2023-05-27T16:45:30	35.4	18.5
16757	2023-05-27T16:55:48	34.8	19
16758	2023-05-27T17:05:30	34.1	19
16759	2023-05-27T17:15:30	33.7	20
16760	2023-05-27T17:25:30	33.4	20
16761	2023-05-27T17:35:30	32.5	21.5
16762	2023-05-27T17:45:30	31.8	22
16763	2023-05-27T17:55:30	31.2	23.5
16764	2023-05-27T18:05:30	30.3	24
16765	2023-05-27T18:15:30	29.3	25
16766	2023-05-27T18:25:30	28.4	26.5
16767	2023-05-27T18:35:30	27.3	29
16768	2023-05-27T18:45:30	26.4	32
16769	2023-05-27T18:55:30	25.4	33.5
16770	2023-05-27T19:05:30	24.1	36.5
16771	2023-05-27T19:15:30	23.2	41
16772	2023-05-27T19:25:30	22.5	42.5
16773	2023-05-27T19:35:30	21.9	42.5
16774	2023-05-27T19:45:30	21.6	41
16775	2023-05-27T19:55:30	21	44
16776	2023-05-27T20:05:30	20.5	46
16777	2023-05-27T20:15:30	20	47.5
16778	2023-05-27T20:25:30	19.6	48.5
16779	2023-05-27T20:35:30	19.1	49.5
16780	2023-05-27T20:45:30	18.7	51
16781	2023-05-27T20:55:30	18.5	52
16782	2023-05-27T21:05:30	18.1	53.5
16783	2023-05-27T21:15:29	17.8	54
16784	2023-05-27T21:25:29	17.3	56
16785	2023-05-27T21:35:29	17	56.5
16786	2023-05-27T21:45:30	16.8	57.5
16787	2023-05-27T21:55:29	16.6	59
16788	2023-05-27T22:05:29	16.1	59.5
16789	2023-05-27T22:15:30	16.2	59.5
16790	2023-05-27T22:25:29	16	59.5
16791	2023-05-27T22:35:29	15.8	59
16792	2023-05-27T22:45:29	15.6	59.5
16793	2023-05-27T22:55:29	15.4	59.5
16794	2023-05-27T23:05:29	15.1	60.5
16795	2023-05-27T23:15:29	14.9	61.5
16796	2023-05-27T23:25:29	14.7	62
16797	2023-05-27T23:35:29	14.4	62.5
16798	2023-05-27T23:45:29	14.3	63.5
16799	2023-05-27T23:55:29	14.1	63.5
16800	2023-05-28T00:05:29	14	63.5
16801	2023-05-28T00:25:29	13.8	64.5
16802	2023-05-28T00:45:29	13.5	64.5
16803	2023-05-28T00:55:29	13.2	65
16804	2023-05-28T01:05:29	13	68
16805	2023-05-28T01:15:29	12.9	69.5
16806	2023-05-28T01:25:29	12.6	69.5
16807	2023-05-28T01:35:29	12.3	70.5
16808	2023-05-28T01:45:29	12.2	71.5
16809	2023-05-28T01:55:29	11.9	72.5
16810	2023-05-28T02:05:29	12	71.5
16811	2023-05-28T02:15:29	12	71.5
16812	2023-05-28T02:25:29	11.8	72.5
16813	2023-05-28T02:35:29	11.8	71.5
16814	2023-05-28T02:45:29	11.8	72
16815	2023-05-28T02:55:29	11.7	72
16816	2023-05-28T03:05:29	11.9	70
16817	2023-05-28T03:15:29	11.9	70
16818	2023-05-28T03:25:29	11.7	71
16819	2023-05-28T03:35:29	11.6	71.5
16820	2023-05-28T03:45:29	11.4	72
16821	2023-05-28T03:55:29	11.3	74.5
16822	2023-05-28T04:05:29	11.2	75
16823	2023-05-28T04:15:29	10.9	75.5
16824	2023-05-28T04:25:29	10.9	75.5
16825	2023-05-28T04:35:29	10.9	76.5
16826	2023-05-28T04:45:29	11	76.5
16827	2023-05-28T04:55:29	11.2	76
16828	2023-05-28T05:05:29	11.6	75
16829	2023-05-28T05:15:29	11.7	74.5
16830	2023-05-28T05:25:29	11.8	75.5
16831	2023-05-28T05:35:29	11.9	75
16832	2023-05-28T05:45:29	12.2	74.5
16833	2023-05-28T05:55:29	12.4	73.5
16834	2023-05-28T06:05:29	12.7	73
16835	2023-05-28T06:15:29	12.9	72
16836	2023-05-28T06:25:29	13.2	72
16837	2023-05-28T06:35:29	13.5	71
16838	2023-05-28T06:45:29	13.8	69.5
16839	2023-05-28T06:55:29	13.9	69.5
16840	2023-05-28T07:05:29	14.3	69
16841	2023-05-28T07:15:29	14.5	69.5
16842	2023-05-28T07:25:29	14.8	67
16843	2023-05-28T07:35:29	15.2	66
16844	2023-05-28T07:45:29	15.5	65
16845	2023-05-28T07:55:29	15.8	65
16846	2023-05-28T08:05:29	16.1	64.5
16847	2023-05-28T08:15:29	16.3	62
16848	2023-05-28T08:25:29	16.7	62
16849	2023-05-28T08:35:29	16.8	61
16850	2023-05-28T08:45:47	17.3	61
16851	2023-05-28T08:55:29	17.5	60
16852	2023-05-28T09:05:29	17.8	60.5
16853	2023-05-28T09:15:29	18.1	57.5
16854	2023-05-28T09:25:29	18.5	56.5
16855	2023-05-28T09:35:29	18.9	56
16856	2023-05-28T09:45:29	19.3	55
16857	2023-05-28T09:55:29	19.5	54
16858	2023-05-28T10:05:29	20	53
16859	2023-05-28T10:15:29	20.3	52
16860	2023-05-28T10:25:28	20.6	49.5
16861	2023-05-28T10:35:29	21	48.5
16862	2023-05-28T10:45:28	21.4	48
16863	2023-05-28T10:55:29	21.9	46
16864	2023-05-28T11:05:28	22.2	45
16865	2023-05-28T11:15:28	22.4	43.5
16866	2023-05-28T11:25:28	22.8	42.5
16867	2023-05-28T11:35:28	23.2	43
16868	2023-05-28T11:45:28	23.8	40.5
16869	2023-05-28T11:55:28	24	42.5
16870	2023-05-28T12:05:28	26.2	34
16871	2023-05-28T12:15:28	29.9	29.5
16872	2023-05-28T12:25:28	32	26.5
16873	2023-05-28T12:35:28	33.4	25
16874	2023-05-28T12:45:28	35.1	22.5
16875	2023-05-28T12:55:28	36.1	21.5
16876	2023-05-28T13:05:28	36.8	20.5
16877	2023-05-28T13:15:28	37.5	19.5
16878	2023-05-28T13:25:28	38.3	18.5
16879	2023-05-28T13:35:28	38.4	18.5
16880	2023-05-28T13:45:28	39.2	18.5
16881	2023-05-28T13:55:28	39.3	18
16882	2023-05-28T14:05:28	39.2	17
16883	2023-05-28T14:15:28	40.5	16.5
16884	2023-05-28T14:25:28	40	16.5
16885	2023-05-28T14:35:28	39.9	15
16886	2023-05-28T14:45:28	39.8	15.5
16887	2023-05-28T14:55:28	40	15
16888	2023-05-28T15:05:28	40.4	15.5
16889	2023-05-28T15:15:28	40.5	14.5
16890	2023-05-28T15:25:28	40.3	15
16891	2023-05-28T15:35:28	40.4	14.5
16892	2023-05-28T15:45:28	40.9	15.5
16893	2023-05-28T15:55:28	41.9	14.5
16894	2023-05-28T16:05:28	41.5	14
16895	2023-05-28T16:15:28	41.1	15
16896	2023-05-28T16:25:28	41	14.5
16897	2023-05-28T16:35:28	40.8	15.5
16898	2023-05-28T16:45:28	40.2	16.5
16899	2023-05-28T16:55:28	40.3	16
16900	2023-05-28T17:05:28	39.3	16.5
16901	2023-05-28T17:15:28	38.6	17
16902	2023-05-28T17:25:28	38.1	18
16903	2023-05-28T17:35:28	36.8	18.5
16904	2023-05-28T17:45:28	36	20
16905	2023-05-28T17:55:28	34.7	20.5
16906	2023-05-28T18:05:28	34.3	21.5
16907	2023-05-28T18:15:28	33.2	22.5
16908	2023-05-28T18:25:28	31.9	24
16909	2023-05-28T18:35:28	30.5	26.5
16910	2023-05-28T18:45:28	29.1	28
16911	2023-05-28T18:55:28	27.4	30.5
16912	2023-05-28T19:05:28	26.1	32.5
16913	2023-05-28T19:15:28	25.2	33.5
16914	2023-05-28T19:25:28	24.5	35
16915	2023-05-28T19:35:46	23.9	35.5
16916	2023-05-28T19:45:28	23.4	37
16917	2023-05-28T19:55:28	23.1	37.5
16918	2023-05-28T20:05:28	22.6	37
16919	2023-05-28T20:15:28	22.2	40
16920	2023-05-28T20:25:28	21.7	42.5
16921	2023-05-28T20:35:28	21.4	45
16922	2023-05-28T20:45:28	21	45.5
16923	2023-05-28T20:55:28	20.6	46.5
16924	2023-05-28T21:05:28	20.2	47.5
16925	2023-05-28T21:15:28	19.7	49
16926	2023-05-28T21:25:27	19.5	49.5
16927	2023-05-28T21:35:27	19.2	51
16928	2023-05-28T21:45:27	18.8	51
16929	2023-05-28T21:55:27	18.7	52
16930	2023-05-28T22:05:27	18.1	53.5
16931	2023-05-28T22:15:27	17.8	55
16932	2023-05-28T22:25:27	17.3	56
16933	2023-05-28T22:35:27	17.1	57
16934	2023-05-28T22:45:27	16.9	58
16935	2023-05-28T22:55:27	16.6	58.5
16936	2023-05-28T23:05:27	16.2	60
16937	2023-05-28T23:15:27	16	61.5
16938	2023-05-28T23:25:27	15.8	61.5
16939	2023-05-28T23:35:27	15.6	61
16940	2023-05-28T23:45:27	15.4	62
16941	2023-05-28T23:55:27	15.3	61.5
16942	2023-05-29T00:05:27	15.1	62.5
16943	2023-05-29T00:15:27	14.8	63
16944	2023-05-29T00:25:27	14.7	63.5
16945	2023-05-29T00:35:27	14.5	64
16946	2023-05-29T00:45:27	14.3	65.5
16947	2023-05-29T00:55:27	14.2	65.5
16948	2023-05-29T01:05:27	13.9	67
16949	2023-05-29T01:15:27	13.8	66
16950	2023-05-29T01:25:27	13.9	65.5
16951	2023-05-29T01:35:27	14	64
16952	2023-05-29T01:45:27	13.9	64.5
16953	2023-05-29T01:55:27	13.6	66.5
16954	2023-05-29T02:05:27	13.2	68.5
16955	2023-05-29T02:15:27	12.8	70
16956	2023-05-29T02:25:27	12.7	70.5
16957	2023-05-29T02:35:27	12.5	71.5
16958	2023-05-29T02:45:27	12.2	72
16959	2023-05-29T02:55:27	12.1	73
16960	2023-05-29T03:05:27	11.8	74.5
16961	2023-05-29T03:15:27	11.6	75
16962	2023-05-29T03:25:27	11.2	76
16963	2023-05-29T03:35:27	11.2	76.5
16964	2023-05-29T03:45:27	11	76.5
16965	2023-05-29T03:55:27	11	77
16966	2023-05-29T04:05:27	11	77.5
16967	2023-05-29T04:15:27	11.1	76.5
16968	2023-05-29T04:25:27	11.1	76.5
16969	2023-05-29T04:35:27	11.2	76.5
16970	2023-05-29T04:45:27	11.4	76.5
16971	2023-05-29T04:55:27	11.6	76.5
16972	2023-05-29T05:05:27	11.8	75.5
16973	2023-05-29T05:15:27	12	75
16974	2023-05-29T05:25:27	12.2	75
16975	2023-05-29T05:35:27	12.3	75
16976	2023-05-29T05:55:27	13	74.5
16977	2023-05-29T06:05:27	13.1	74.5
16978	2023-05-29T06:15:27	13.5	73.5
16979	2023-05-29T06:25:27	14.1	69
16980	2023-05-29T06:35:27	14.5	66
16981	2023-05-29T06:45:27	14.7	66.5
16982	2023-05-29T06:55:27	15	63.5
16983	2023-05-29T07:05:27	15.3	65
16984	2023-05-29T07:15:27	15.5	62.5
16985	2023-05-29T07:25:27	15.9	62
16986	2023-05-29T07:45:27	16.3	61.5
16987	2023-05-29T07:55:27	16.7	62
16988	2023-05-29T08:05:27	17.1	59.5
16989	2023-05-29T08:15:33	17.4	57.5
16990	2023-05-29T08:25:27	17.7	59
16991	2023-05-29T08:35:27	17.9	58
16992	2023-05-29T08:45:27	18.3	57
16993	2023-05-29T08:55:27	18.6	55.5
16994	2023-05-29T09:05:27	18.9	56.5
16995	2023-05-29T09:15:27	19.1	55
16996	2023-05-29T09:25:27	19.5	53.5
16997	2023-05-29T09:35:27	19.8	54
16998	2023-05-29T09:45:27	20.1	51.5
16999	2023-05-29T09:55:27	20.5	50.5
17000	2023-05-29T10:05:27	20.8	48.5
17001	2023-05-29T10:15:27	21.1	51
17002	2023-05-29T10:25:27	21.5	49.5
17003	2023-05-29T10:35:26	21.9	48.5
17004	2023-05-29T10:45:27	22.2	45
17005	2023-05-29T10:55:26	22.7	47
17006	2023-05-29T11:05:26	23.1	42.5
17007	2023-05-29T11:15:26	23.4	43.5
17008	2023-05-29T11:25:26	23.7	41
17009	2023-05-29T11:35:26	23.9	38.5
17010	2023-05-29T11:45:27	24.3	39
17011	2023-05-29T11:55:26	24.7	35.5
17012	2023-05-29T12:05:26	26.4	34
17013	2023-05-29T12:15:26	29.6	27.5
17014	2023-05-29T12:25:27	31.4	25
17015	2023-05-29T12:35:26	33	24
17016	2023-05-29T12:45:26	33.7	21
17017	2023-05-29T12:55:26	34.6	20.5
17018	2023-05-29T13:05:26	35.2	19.5
17019	2023-05-29T13:15:26	35.8	19
17020	2023-05-29T13:25:26	36.6	17.5
17021	2023-05-29T13:35:26	38.1	17
17022	2023-05-29T13:45:26	38.9	16.5
17023	2023-05-29T13:55:26	39.1	17
17024	2023-05-29T14:05:26	39	16.5
17025	2023-05-29T14:15:26	39.9	15.5
17026	2023-05-29T14:25:26	38.9	16.5
17027	2023-05-29T14:35:26	38.5	16.5
17028	2023-05-29T14:45:26	38.8	16
17029	2023-05-29T14:55:26	39.2	17
17030	2023-05-29T15:05:26	39.6	16.5
17031	2023-05-29T15:15:26	40	15.5
17032	2023-05-29T15:25:26	39.4	15.5
17033	2023-05-29T15:35:26	40	15.5
17034	2023-05-29T15:45:26	39.7	15.5
17035	2023-05-29T15:55:26	38.8	15.5
17036	2023-05-29T16:05:26	39.8	16.5
17037	2023-05-29T16:15:26	40.2	15.5
17038	2023-05-29T16:25:26	39.1	16
17039	2023-05-29T16:35:26	38.1	16
17040	2023-05-29T17:45:26	35.5	19
17041	2023-05-29T17:55:26	34.7	20
17042	2023-05-29T18:05:26	34.2	20.5
17043	2023-05-29T18:15:26	33.1	22.5
17044	2023-05-29T18:25:26	32	24
17045	2023-05-29T18:35:26	29.6	27.5
17046	2023-05-29T18:45:26	28.7	29
17047	2023-05-29T18:55:26	27.8	31
17048	2023-05-29T19:05:26	26.4	34.5
17049	2023-05-29T19:15:26	25.5	36
17050	2023-05-29T19:25:26	24.7	36
17051	2023-05-29T19:35:26	24.1	38.5
17052	2023-05-29T19:45:26	23.7	40
17053	2023-05-29T19:55:26	23.1	42
17054	2023-05-29T20:05:26	22.7	41.5
17055	2023-05-29T20:15:26	22.4	45
17056	2023-05-29T20:25:26	21.9	45.5
17057	2023-05-29T20:35:26	21.6	46
17058	2023-05-29T20:45:25	21.1	47.5
17059	2023-05-29T20:55:25	20.8	48.5
17060	2023-05-29T21:05:25	20.5	49.5
17061	2023-05-29T21:15:25	20.3	50.5
17062	2023-05-29T21:25:25	19.8	52
17063	2023-05-29T21:35:25	19.5	52.5
17064	2023-05-29T21:45:25	19.3	53.5
17065	2023-05-29T21:55:25	18.8	55
17066	2023-05-29T22:05:25	18.5	55
17067	2023-05-29T22:25:25	17.9	56.5
17068	2023-05-29T22:35:25	17.5	57.5
17069	2023-05-29T22:45:25	17.3	59.5
17070	2023-05-29T22:55:25	17.2	59.5
17071	2023-05-29T23:05:25	16.9	60
17072	2023-05-29T23:15:26	16.6	60.5
17073	2023-05-29T23:35:25	16.3	62.5
17074	2023-05-29T23:45:25	16	63
17075	2023-05-29T23:55:25	15.8	64
17076	2023-05-30T00:05:25	15.6	65
17077	2023-05-30T00:15:25	15.7	65.5
17078	2023-05-30T00:25:25	15.4	66.5
17079	2023-05-30T00:35:25	15.2	67.5
17080	2023-05-30T00:45:25	15.1	68.5
17081	2023-05-30T00:55:25	14.9	69.5
17082	2023-05-30T01:05:25	14.9	70
17083	2023-05-30T01:15:25	14.7	71
17084	2023-05-30T01:25:25	14.5	71
17085	2023-05-30T01:35:25	14.4	72
17086	2023-05-30T01:45:25	14.1	71.5
17087	2023-05-30T01:55:25	13.8	71.5
17088	2023-05-30T02:05:25	13.6	72.5
17089	2023-05-30T02:25:25	13.2	74
17090	2023-05-30T02:35:25	13	75
17091	2023-05-30T02:45:25	13.1	75
17092	2023-05-30T02:55:25	12.7	76
17093	2023-05-30T03:05:25	12.7	76.5
17094	2023-05-30T03:15:25	12.6	77.5
17095	2023-05-30T03:25:25	12.4	78
17096	2023-05-30T03:35:25	12.4	78.5
17097	2023-05-30T03:45:25	12.2	79.5
17098	2023-05-30T03:55:25	12.3	79.5
17099	2023-05-30T04:05:25	12.4	79.5
17100	2023-05-30T04:15:25	12.5	80
17101	2023-05-30T04:25:25	12.5	79.5
17102	2023-05-30T04:35:25	12.5	80
17103	2023-05-30T04:45:25	12.6	79
17104	2023-05-30T04:55:25	12.7	79
17105	2023-05-30T05:05:25	12.7	79.5
17106	2023-05-30T05:15:25	12.9	79.5
17107	2023-05-30T05:25:25	13.2	79
17108	2023-05-30T05:35:25	13.4	78.5
17109	2023-05-30T05:45:25	13.7	77
17110	2023-05-30T05:55:25	14.1	75
17111	2023-05-30T06:05:25	14.4	73
17112	2023-05-30T06:15:25	14.6	73
17113	2023-05-30T06:25:25	14.7	71
17114	2023-05-30T06:35:25	14.9	70
17115	2023-05-30T06:45:25	15.3	68
17116	2023-05-30T06:55:25	15.6	66.5
17117	2023-05-30T07:05:25	15.9	65.5
17118	2023-05-30T07:15:25	16.3	63.5
17119	2023-05-30T07:25:25	16.8	62.5
17120	2023-05-30T07:35:25	17	57.5
17121	2023-05-30T07:45:25	17.2	57.5
17122	2023-05-30T07:55:25	17.5	56
17123	2023-05-30T08:05:25	17.7	55.5
17124	2023-05-30T08:15:25	18.2	56.5
17125	2023-05-30T08:25:25	18.5	54.5
17126	2023-05-30T08:35:25	18.5	52.5
17127	2023-05-30T08:45:25	18.9	51
17128	2023-05-30T08:55:25	19	50.5
17129	2023-05-30T09:05:24	19.3	49.5
17130	2023-05-30T09:15:25	19.3	49
17131	2023-05-30T09:25:25	19.6	50
17132	2023-05-30T09:35:24	19.8	49.5
17133	2023-05-30T09:45:24	20	48
17134	2023-05-30T09:55:24	20.3	48
17135	2023-05-30T10:05:25	20.4	46.5
17136	2023-05-30T10:15:24	20.7	47
17137	2023-05-30T10:25:25	20.8	46
17138	2023-05-30T10:35:24	21.1	45.5
17139	2023-05-30T10:45:24	21.3	45.5
17140	2023-05-30T10:55:24	21.5	44.5
17141	2023-05-30T11:05:24	21.7	43.5
17142	2023-05-30T11:15:24	21.9	43
17143	2023-05-30T11:25:24	22	42
17144	2023-05-30T11:35:24	22.3	42.5
17145	2023-05-30T11:55:24	23.1	41
17146	2023-05-30T12:05:24	25	36
17147	2023-05-30T12:15:24	28.9	31
17148	2023-05-30T12:25:24	31.6	26.5
17149	2023-05-30T12:35:24	32.6	25
17150	2023-05-30T12:45:24	32.7	24.5
17151	2023-05-30T12:55:24	34.6	23
17152	2023-05-30T13:05:24	34.5	21.5
17153	2023-05-30T13:15:24	35.6	19.5
17154	2023-05-30T13:25:24	37	18.5
17155	2023-05-30T13:35:24	38.5	18.5
17156	2023-05-30T13:45:24	37.3	18
17157	2023-05-30T13:55:24	38	17.5
17158	2023-05-30T14:05:24	38.9	17.5
17159	2023-05-30T14:15:24	37.5	17
17160	2023-05-30T14:25:24	39.1	16.5
17161	2023-05-30T14:35:24	40	15
17162	2023-05-30T14:45:24	40.4	14.5
17163	2023-05-30T14:55:24	40.6	14
17164	2023-05-30T15:05:24	40.3	14.5
17165	2023-05-30T15:15:24	40.2	15
17166	2023-05-30T15:25:24	39.9	15
17167	2023-05-30T15:35:24	39	15
17168	2023-05-30T15:45:24	38.7	14.5
17169	2023-05-30T15:55:24	38.8	15
17170	2023-05-30T16:05:24	38.1	15.5
17171	2023-05-30T16:15:24	37.8	15.5
17172	2023-05-30T16:25:24	38	16
17173	2023-05-30T16:35:24	37.9	16
17174	2023-05-30T16:45:24	37.1	16.5
17175	2023-05-30T16:55:24	37.2	16.5
17176	2023-05-30T17:05:24	36.3	17
17177	2023-05-30T17:15:24	35.4	17.5
17178	2023-05-30T17:25:24	35.2	17.5
17179	2023-05-30T17:35:24	34.1	17.5
17180	2023-05-30T17:45:24	33.8	19
17181	2023-05-30T17:55:24	33	19
17182	2023-05-30T18:05:24	32.1	18.5
17183	2023-05-30T18:25:24	30.7	19.5
17184	2023-05-30T18:35:24	30.2	20
17185	2023-05-30T18:45:24	29	20.5
17186	2023-05-30T18:55:24	27.5	21.5
17187	2023-05-30T19:15:24	24.3	26.5
17188	2023-05-30T19:25:24	23.5	28
17189	2023-05-30T19:35:24	22.9	29.5
17190	2023-05-30T19:45:24	22.1	29.5
17191	2023-05-30T19:55:24	21.8	31.5
17192	2023-05-30T20:05:24	21.4	30.5
17193	2023-05-30T20:15:23	20.9	32.5
17194	2023-05-30T20:25:23	20.5	31.5
17195	2023-05-30T20:35:23	20.1	31.5
17196	2023-05-30T20:45:23	19.9	32.5
17197	2023-05-30T20:55:23	19.6	32.5
17198	2023-05-30T21:05:23	19.3	37.5
17199	2023-05-30T21:15:23	18.7	39.5
17200	2023-05-30T21:25:23	18.3	40
17201	2023-05-30T21:35:23	18	38.5
17202	2023-05-30T21:45:23	17.9	38
17203	2023-05-30T21:55:24	17.8	37.5
17204	2023-05-30T22:05:23	17.4	39.5
17205	2023-05-30T22:15:23	17.2	41.5
17206	2023-05-30T22:25:24	16.8	43.5
17207	2023-05-30T22:35:23	16.4	44.5
17208	2023-05-30T22:45:23	16.1	46
17209	2023-05-30T22:55:23	15.7	47.5
17210	2023-05-30T23:05:23	15.6	48
17211	2023-05-30T23:15:23	15.2	49
17212	2023-05-30T23:25:23	14.9	50
17213	2023-05-30T23:35:23	14.7	51
17214	2023-05-30T23:45:23	14.5	52.5
17215	2023-05-30T23:55:23	14.2	53
17216	2023-05-31T00:05:23	14	53.5
17217	2023-05-31T00:15:23	13.9	54
17218	2023-05-31T00:25:23	13.7	54.5
17219	2023-05-31T00:35:23	13.6	54.5
17220	2023-05-31T00:45:23	13.3	56.5
17221	2023-05-31T00:55:23	13.3	56.5
17222	2023-05-31T01:05:23	13.3	56.5
17223	2023-05-31T01:15:23	13.1	57
17224	2023-05-31T01:25:23	12.9	57.5
17225	2023-05-31T01:35:23	12.9	57.5
17226	2023-05-31T01:45:23	12.8	58
17227	2023-05-31T01:55:23	12.7	58
17228	2023-05-31T02:05:23	12.6	59
17229	2023-05-31T02:15:23	12.5	59.5
17230	2023-05-31T02:25:23	12.4	60
17231	2023-05-31T02:35:23	12.4	59.5
17232	2023-05-31T02:45:23	12.2	60
17233	2023-05-31T02:55:23	12.1	59.5
17234	2023-05-31T03:05:23	12.2	59.5
17235	2023-05-31T03:15:23	12.2	60
17236	2023-05-31T03:25:23	12	61
17237	2023-05-31T03:35:23	12	61.5
17238	2023-05-31T03:45:23	11.9	61.5
17239	2023-05-31T03:55:23	11.9	61.5
17240	2023-05-31T04:05:23	12	61.5
17241	2023-05-31T04:15:23	12.1	61
17242	2023-05-31T04:25:23	12.2	61
17243	2023-05-31T04:35:24	12.3	61
17244	2023-05-31T04:45:23	12.5	60.5
17245	2023-05-31T04:55:23	12.7	60.5
17246	2023-05-31T05:05:23	12.8	60
17247	2023-05-31T05:15:23	13	59.5
17248	2023-05-31T05:25:23	13.3	58.5
17249	2023-05-31T05:35:23	13.4	59.5
17250	2023-05-31T05:45:23	13.6	59.5
17251	2023-05-31T05:55:23	13.7	59.5
17252	2023-05-31T06:05:23	13.9	58
17253	2023-05-31T06:15:23	14.2	58
17254	2023-05-31T06:25:23	14.5	57.5
17255	2023-05-31T06:35:23	14.7	56.5
17256	2023-05-31T06:55:23	15.3	56
17257	2023-05-31T07:05:23	15.6	54.5
17258	2023-05-31T07:15:23	15.8	53
17259	2023-05-31T07:25:23	16.2	53
17260	2023-05-31T07:35:23	16.4	53
17261	2023-05-31T07:45:23	16.9	49.5
17262	2023-05-31T08:05:23	17.4	51.5
17263	2023-05-31T08:15:23	17.7	48.5
17264	2023-05-31T08:25:23	18.1	48.5
17265	2023-05-31T08:35:22	18.4	46
17266	2023-05-31T08:45:22	18.6	48
17267	2023-05-31T08:55:22	18.9	47
17268	2023-05-31T09:05:22	19.2	46.5
17269	2023-05-31T09:15:22	19.6	45
17270	2023-05-31T09:25:22	19.9	44
17271	2023-05-31T09:35:22	20	46.5
17272	2023-05-31T09:45:22	20.5	44.5
17273	2023-05-31T09:55:22	20.7	44
17274	2023-05-31T10:05:22	21	43.5
17275	2023-05-31T10:15:22	21.1	41.5
17276	2023-05-31T10:25:22	21.6	42
17277	2023-05-31T10:35:22	22	40.5
17278	2023-05-31T10:45:22	22.2	39
17279	2023-05-31T10:55:22	22.5	38
17280	2023-05-31T11:05:22	22.8	38
17281	2023-05-31T11:15:22	22.9	36.5
17282	2023-05-31T11:25:22	23.2	36
17283	2023-05-31T11:35:22	23.5	34
17284	2023-05-31T11:45:22	23.6	34
17285	2023-05-31T11:55:22	23.9	31.5
17286	2023-05-31T12:05:22	25.7	30.5
17287	2023-05-31T12:15:22	29.5	25
17288	2023-05-31T12:25:22	31	23
17289	2023-05-31T12:35:22	32.6	20
17290	2023-05-31T12:45:22	34.2	19.5
17291	2023-05-31T12:55:22	34.6	18.5
17292	2023-05-31T13:05:22	35.5	17.5
17293	2023-05-31T13:15:22	36.5	16.5
17294	2023-05-31T13:25:22	36.9	16.5
17295	2023-05-31T13:35:22	37.9	16
17296	2023-05-31T13:45:22	37.7	16.5
17297	2023-05-31T14:05:22	37.7	15.5
17298	2023-05-31T14:15:22	37.7	14.5
17299	2023-05-31T14:35:22	38.8	14.5
17300	2023-05-31T14:45:22	39.2	14.5
17301	2023-05-31T14:55:22	39.7	14
17302	2023-05-31T15:05:22	39.4	14.5
17303	2023-05-31T15:15:22	39.6	13.5
17304	2023-05-31T15:25:22	39.2	14
17305	2023-05-31T15:35:22	39.2	13.5
17306	2023-05-31T15:45:22	39.8	13.5
17307	2023-05-31T15:55:22	40.3	12.5
17308	2023-05-31T16:05:22	39.7	13
17309	2023-05-31T16:15:22	39.7	13
17310	2023-05-31T16:25:22	38.8	13.5
17311	2023-05-31T16:35:22	39.4	13.5
17312	2023-05-31T16:45:22	38.8	13.5
17313	2023-05-31T16:55:22	37.6	14
17314	2023-05-31T17:05:22	37.7	14.5
17315	2023-05-31T17:15:22	36.2	15
17316	2023-05-31T17:25:22	36.3	15.5
17317	2023-05-31T17:35:22	35.7	16
17318	2023-05-31T17:45:22	35.6	16.5
17319	2023-05-31T17:55:22	34.3	17.5
17320	2023-05-31T18:05:22	33.3	18
17321	2023-05-31T18:15:22	32.5	19
17322	2023-05-31T18:25:22	31.5	20.5
17323	2023-05-31T18:35:22	28.7	23.5
17324	2023-05-31T18:45:22	28	24.5
17325	2023-05-31T18:55:22	27.5	26
17326	2023-05-31T19:05:22	25.9	28
17327	2023-05-31T19:15:22	25.1	30
17328	2023-05-31T19:25:21	24.4	33.5
17329	2023-05-31T19:35:21	23.8	36.5
17330	2023-05-31T19:45:22	23.2	38.5
17331	2023-05-31T19:55:21	22.7	39.5
17332	2023-05-31T20:05:21	22.2	41.5
17333	2023-05-31T20:15:21	21.9	42.5
17334	2023-05-31T20:25:21	21.5	41.5
17335	2023-05-31T20:35:21	20.9	42
17336	2023-05-31T20:45:21	20.7	45.5
17337	2023-05-31T20:55:21	20.4	45.5
17338	2023-05-31T21:05:21	20	47
17339	2023-05-31T21:15:21	19.6	46.5
17340	2023-05-31T21:45:21	18.7	48.5
17341	2023-05-31T21:55:21	18.3	49.5
17342	2023-05-31T22:05:21	18.1	50.5
17343	2023-05-31T22:15:21	17.8	51.5
17344	2023-05-31T22:25:21	17.4	52.5
17345	2023-05-31T22:35:21	17.3	53.5
17346	2023-05-31T22:45:21	17	52.5
17347	2023-05-31T22:55:21	16.8	53.5
17348	2023-05-31T23:05:21	16.5	55
17349	2023-05-31T23:15:21	16.3	55.5
17350	2023-05-31T23:25:21	16.2	54.5
17351	2023-05-31T23:35:21	15.9	56.5
17352	2023-05-31T23:45:21	15.7	56.5
17353	2023-05-31T23:55:21	15.5	57
17354	2023-06-01T00:05:21	15.4	56.5
17355	2023-06-01T00:15:21	15.1	58
17356	2023-06-01T00:25:21	14.9	58
17357	2023-06-01T00:35:21	14.8	57.5
17358	2023-06-01T01:05:21	14.3	59.5
17359	2023-06-01T01:15:21	14.2	60.5
17360	2023-06-01T01:25:21	13.9	61
17361	2023-06-01T01:35:21	14	59.5
17362	2023-06-01T01:45:21	13.8	60.5
17363	2023-06-01T01:55:21	13.6	61.5
17364	2023-06-01T02:05:21	13.4	62.5
17365	2023-06-01T02:15:21	13.2	64
17366	2023-06-01T02:25:21	12.9	65
17367	2023-06-01T02:35:21	12.7	65.5
17368	2023-06-01T02:45:21	12.6	66
17369	2023-06-01T02:55:21	12.3	66.5
17370	2023-06-01T03:05:21	12.3	66.5
17371	2023-06-01T03:15:21	12.2	67
17372	2023-06-01T03:25:21	12.1	67.5
17373	2023-06-01T03:35:21	11.9	68
17374	2023-06-01T03:45:21	11.8	68.5
17375	2023-06-01T03:55:21	11.9	68
17376	2023-06-01T04:05:21	11.9	68.5
17377	2023-06-01T04:15:21	11.9	69
17378	2023-06-01T04:25:21	12	69
17379	2023-06-01T04:35:21	12	69
17380	2023-06-01T04:45:21	12.2	68.5
17381	2023-06-01T04:55:21	12.3	68.5
17382	2023-06-01T05:05:21	12.5	69
17383	2023-06-01T05:15:21	12.7	69.5
17384	2023-06-01T05:25:21	12.9	70
17385	2023-06-01T05:35:21	13.3	68.5
17386	2023-06-01T05:45:21	13.6	69
17387	2023-06-01T05:55:21	13.8	69.5
17388	2023-06-01T06:05:21	14.1	69
17389	2023-06-01T06:15:21	14.5	68.5
17390	2023-06-01T06:25:21	14.7	68
17391	2023-06-01T06:35:21	15.1	68
17392	2023-06-01T06:45:21	15.5	63
17393	2023-06-01T06:55:21	15.9	64.5
17394	2023-06-01T07:05:21	16.1	63
17395	2023-06-01T07:15:21	16.4	63
17396	2023-06-01T07:25:21	16.6	62
17397	2023-06-01T07:35:21	16.9	62.5
17398	2023-06-01T07:45:21	17.2	61
17399	2023-06-01T07:55:21	17.6	60.5
17400	2023-06-01T08:05:20	18	59.5
17401	2023-06-01T08:15:20	18.3	58.5
17402	2023-06-01T08:25:20	18.6	57
17403	2023-06-01T08:35:21	18.9	57
17404	2023-06-01T08:45:20	19.3	56.5
17405	2023-06-01T08:55:20	19.6	54.5
17406	2023-06-01T09:05:20	20	54
17407	2023-06-01T09:15:20	20.2	55
17408	2023-06-01T09:25:20	20.7	52
17409	2023-06-01T09:35:21	21	51.5
17410	2023-06-01T09:45:20	21.2	51
17411	2023-06-01T09:55:20	21.6	51.5
17412	2023-06-01T10:05:20	21.8	50
17413	2023-06-01T10:15:20	22.2	49
17414	2023-06-01T10:25:20	22.5	47.5
17415	2023-06-01T10:35:20	22.8	48
17416	2023-06-01T10:45:20	23.2	46
17417	2023-06-01T10:55:20	23.4	43.5
17418	2023-06-01T11:05:20	23.8	42
17419	2023-06-01T11:15:20	24.3	41.5
17420	2023-06-01T11:25:20	24.8	39
17421	2023-06-01T11:35:20	25	35.5
17422	2023-06-01T11:45:20	25.4	34.5
17423	2023-06-01T11:55:20	26	33
17424	2023-06-01T12:05:20	27.6	31.5
17425	2023-06-01T12:15:20	31	26
17426	2023-06-01T12:25:20	33.7	21.5
17427	2023-06-01T12:35:20	35	21
17428	2023-06-01T12:45:20	36.6	19
17429	2023-06-01T12:55:20	37.9	19
17430	2023-06-01T13:05:20	39	16.5
17431	2023-06-01T13:15:20	39.4	15.5
17432	2023-06-01T13:25:20	40	14.5
17433	2023-06-01T13:35:20	41.3	14.5
17434	2023-06-01T13:45:20	42.8	14
17435	2023-06-01T13:55:20	42.1	14.5
17436	2023-06-01T14:05:20	42.4	14
17437	2023-06-01T14:15:20	43	13.5
17438	2023-06-01T14:25:20	44.2	13
17439	2023-06-01T14:35:20	44.7	13.5
17440	2023-06-01T14:45:20	44.3	13
17441	2023-06-01T14:55:20	45.2	12.5
17442	2023-06-01T15:05:20	45	12.5
17443	2023-06-01T15:15:20	45.5	13
17444	2023-06-01T15:25:20	45.8	12.5
17445	2023-06-01T15:35:20	45.1	14
17446	2023-06-01T15:45:20	43	14.5
17447	2023-06-01T15:55:20	43.8	14
17448	2023-06-01T16:05:20	43.2	14.5
17449	2023-06-01T16:15:20	42.8	14
17450	2023-06-01T16:25:20	43.4	14
17451	2023-06-01T16:35:20	41.6	14.5
17452	2023-06-01T16:45:20	42.1	15.5
17453	2023-06-01T16:55:20	41.1	15.5
17454	2023-06-01T17:05:20	41	16
17455	2023-06-01T17:35:20	38.1	18
17456	2023-06-01T17:45:20	37.1	19
17457	2023-06-01T17:55:20	35.4	20
17458	2023-06-01T18:05:20	35.3	20.5
17459	2023-06-01T18:15:20	35.2	19.5
17460	2023-06-01T18:25:20	34.4	21
17461	2023-06-01T18:35:20	31.7	24.5
17462	2023-06-01T18:45:20	31.4	26.5
17463	2023-06-01T18:55:20	30.9	26
17464	2023-06-01T19:05:20	29.3	29.5
17465	2023-06-01T19:15:20	28.2	34.5
17466	2023-06-01T19:25:19	27.2	37
17467	2023-06-01T19:35:19	26.5	34.5
17468	2023-06-01T19:45:20	26	36
17469	2023-06-01T19:55:19	25.6	37.5
17470	2023-06-01T20:05:19	25.2	39.5
17471	2023-06-01T20:15:19	24.8	41
17472	2023-06-01T20:25:19	24.5	42.5
17473	2023-06-01T20:35:20	24.2	43.5
17474	2023-06-01T20:45:19	23.8	43.5
17475	2023-06-01T20:55:19	23.6	41
17476	2023-06-01T21:05:19	23.3	40.5
17477	2023-06-01T21:15:19	22.9	41
17478	2023-06-01T21:25:19	22.5	42
17479	2023-06-01T21:35:19	22.3	40.5
17480	2023-06-01T21:45:19	21.8	44.5
17481	2023-06-01T21:55:19	21.3	46.5
17482	2023-06-01T22:05:19	21	45
17483	2023-06-01T22:15:19	20.8	44.5
17484	2023-06-01T22:25:19	20.4	45
17485	2023-06-01T22:35:19	20.2	45.5
17486	2023-06-01T22:45:19	19.8	47.5
17487	2023-06-01T22:55:19	19.5	49.5
17488	2023-06-01T23:05:19	19.2	51
17489	2023-06-01T23:15:19	18.9	52.5
17490	2023-06-01T23:25:19	18.6	53
17491	2023-06-01T23:35:20	18.2	55
17492	2023-06-01T23:55:19	17.5	57
17493	2023-06-02T00:05:19	17.4	56.5
17494	2023-06-02T00:15:19	17.1	58
17495	2023-06-02T00:25:19	16.9	58.5
17496	2023-06-02T00:35:19	16.6	59
17497	2023-06-02T00:45:20	16.4	59.5
17498	2023-06-02T00:55:19	16.3	60
17499	2023-06-02T01:05:19	16	61
17500	2023-06-02T01:15:19	15.9	62
17501	2023-06-02T01:25:19	15.6	62.5
17502	2023-06-02T01:35:19	15.4	63
17503	2023-06-02T01:45:19	15.3	64
17504	2023-06-02T01:55:19	15	64
17505	2023-06-02T02:05:19	14.9	65
17506	2023-06-02T02:15:19	14.7	65.5
17507	2023-06-02T02:25:19	14.5	66.5
17508	2023-06-02T02:35:19	14.3	67.5
17509	2023-06-02T02:45:19	14.2	68
17510	2023-06-02T02:55:19	14	69
17511	2023-06-02T03:05:19	13.8	70
17512	2023-06-02T03:15:19	13.6	71
17513	2023-06-02T03:25:19	13.4	72
17514	2023-06-02T03:35:19	13.2	72.5
17515	2023-06-02T03:45:19	13	73.5
17516	2023-06-02T03:55:19	12.9	74
17517	2023-06-02T04:05:19	12.8	75
17518	2023-06-02T04:15:19	12.8	75.5
17519	2023-06-02T04:25:19	12.9	75.5
17520	2023-06-02T04:35:19	12.9	75.5
17521	2023-06-02T04:45:19	12.8	76.5
17522	2023-06-02T04:55:19	12.9	76
17523	2023-06-02T05:05:19	13	75.5
17524	2023-06-02T05:15:19	13.1	74.5
17525	2023-06-02T05:25:19	13.2	74.5
17526	2023-06-02T05:35:19	13.3	74.5
17527	2023-06-02T05:45:19	13.3	74
17528	2023-06-02T05:55:19	13.5	74
17529	2023-06-02T06:05:19	13.5	73.5
17530	2023-06-02T06:15:19	13.7	72.5
17531	2023-06-02T06:25:19	14	72
17532	2023-06-02T06:35:19	14	71.5
17533	2023-06-02T06:45:19	14.2	71
17534	2023-06-02T06:55:19	14.3	70.5
17535	2023-06-02T07:05:19	14.5	70
17536	2023-06-02T07:15:18	14.6	68.5
17537	2023-06-02T07:25:18	14.7	68.5
17538	2023-06-02T07:35:19	15	67.5
17539	2023-06-02T07:45:18	15	67.5
17540	2023-06-02T07:55:18	15.3	67
17541	2023-06-02T08:15:18	15.6	66.5
17542	2023-06-02T08:25:18	15.8	66
17543	2023-06-02T08:35:18	16	65.5
17544	2023-06-02T08:45:18	16.1	65
17545	2023-06-02T08:55:18	16.3	63.5
17546	2023-06-02T09:05:18	16.5	63.5
17547	2023-06-02T09:15:18	16.8	62.5
17548	2023-06-02T09:25:18	16.8	60.5
17549	2023-06-02T09:35:18	17.2	59.5
17550	2023-06-02T09:45:18	17.5	60
17551	2023-06-02T09:55:19	17.6	59
17552	2023-06-02T10:05:19	17.7	58.5
17553	2023-06-02T10:15:18	18	57
17554	2023-06-02T10:25:18	18.3	56.5
17555	2023-06-02T10:35:18	18.7	56
17556	2023-06-02T10:55:18	19.1	53
17557	2023-06-02T11:05:18	19.4	51
17558	2023-06-02T11:15:18	19.8	50.5
17559	2023-06-02T11:25:18	20.2	49.5
17560	2023-06-02T11:35:18	20.4	49
17561	2023-06-02T11:55:18	21.3	44.5
17562	2023-06-02T12:05:18	23.1	42.5
17563	2023-06-02T12:15:18	26.9	35
17564	2023-06-02T12:25:18	29.1	30
17565	2023-06-02T12:35:18	30.6	29
17566	2023-06-02T12:45:18	31.5	27
17567	2023-06-02T12:55:18	32.7	25.5
17568	2023-06-02T13:05:18	33.5	23.5
17569	2023-06-02T13:15:18	34.2	23.5
17570	2023-06-02T13:25:18	34.6	21.5
17571	2023-06-02T13:35:18	35.5	20.5
17572	2023-06-02T13:45:18	36.1	21
17573	2023-06-02T13:55:18	36.7	20
17574	2023-06-02T14:05:18	36.7	20
17575	2023-06-02T14:15:18	38	19
17576	2023-06-02T14:25:18	39.2	17
17577	2023-06-02T14:35:18	39.4	17
17578	2023-06-02T14:45:18	39.2	17.5
17579	2023-06-02T14:55:18	38.9	18
17580	2023-06-02T15:05:18	39.8	17.5
17581	2023-06-02T15:15:18	40.4	17
17582	2023-06-02T15:25:18	39.6	17
17583	2023-06-02T15:35:18	40.2	18
17584	2023-06-02T15:45:18	39.8	17.5
17585	2023-06-02T15:55:18	39.2	18.5
17586	2023-06-02T16:05:18	38.5	18.5
17587	2023-06-02T16:15:18	38.6	18
17588	2023-06-02T16:25:18	38	18
17589	2023-06-02T16:35:18	38	18.5
17590	2023-06-02T16:55:18	36.3	19
17591	2023-06-02T17:05:18	36.1	20
17592	2023-06-02T17:15:18	35.3	20.5
17593	2023-06-02T17:25:18	35.1	20.5
17594	2023-06-02T17:35:18	33.9	21.5
17595	2023-06-02T17:45:18	33.4	22
17596	2023-06-02T17:55:17	32.7	23
17597	2023-06-02T18:05:17	31.4	24
17598	2023-06-02T18:15:17	30.6	25.5
17599	2023-06-02T18:25:17	29.5	27
17600	2023-06-02T18:35:17	28.3	28
17601	2023-06-02T18:45:17	27.3	30
17602	2023-06-02T18:55:17	25.8	32
17603	2023-06-02T19:05:17	24.3	34.5
17604	2023-06-02T19:15:17	23.2	37
17605	2023-06-02T19:25:17	22.6	38
17606	2023-06-02T19:35:17	22	40
17607	2023-06-02T19:45:17	21.6	42
17608	2023-06-02T19:55:17	21	43.5
17609	2023-06-02T20:05:17	20.6	46
17610	2023-06-02T20:15:17	20.3	47.5
17611	2023-06-02T20:25:17	19.9	49
17612	2023-06-02T20:35:17	19.6	50
17613	2023-06-02T20:45:17	19	52
17614	2023-06-02T20:55:17	18.8	53
17615	2023-06-02T21:05:18	18.4	53
17616	2023-06-02T21:15:17	18.1	53.5
17617	2023-06-02T21:25:17	17.7	55
17618	2023-06-02T21:35:17	17.5	55.5
17619	2023-06-02T21:45:17	17.2	57.5
17620	2023-06-02T21:55:17	16.8	59
17621	2023-06-02T22:05:17	16.4	60
17622	2023-06-02T22:15:17	16.1	61
17623	2023-06-02T22:25:17	15.8	62.5
17624	2023-06-02T22:35:17	15.4	63
17625	2023-06-02T22:45:17	15.2	63.5
17626	2023-06-02T22:55:17	15	63.5
17627	2023-06-02T23:05:17	14.8	63.5
17628	2023-06-02T23:15:17	14.7	63
17629	2023-06-02T23:25:17	14.6	63
17630	2023-06-02T23:35:17	14.3	63.5
17631	2023-06-02T23:45:17	14.2	63.5
17632	2023-06-02T23:55:17	14.2	62.5
17633	2023-06-03T00:05:17	14.2	62
17634	2023-06-03T00:15:17	14.2	62
17635	2023-06-03T00:25:17	14	62
17636	2023-06-03T00:35:17	14	62.5
17637	2023-06-03T00:45:17	13.9	63
17638	2023-06-03T00:55:17	13.8	63.5
17639	2023-06-03T01:05:17	13.6	63.5
17640	2023-06-03T01:15:17	13.5	64
17641	2023-06-03T01:25:17	13.4	64.5
17642	2023-06-03T01:35:17	13.1	66
17643	2023-06-03T01:45:17	12.8	67.5
17644	2023-06-03T01:55:17	12.7	68
17645	2023-06-03T02:05:17	12.7	67.5
17646	2023-06-03T02:15:17	12.7	67.5
17647	2023-06-03T02:25:17	12.7	68
17648	2023-06-03T02:35:17	12.4	69.5
17649	2023-06-03T02:45:17	12.2	70
17650	2023-06-03T02:55:17	12	71
17651	2023-06-03T03:05:17	12	71.5
17652	2023-06-03T03:15:17	11.7	72.5
17653	2023-06-03T03:25:17	11.5	74
17654	2023-06-03T03:35:17	11.4	74.5
17655	2023-06-03T03:45:17	11.4	74.5
17656	2023-06-03T03:55:17	11.4	75
17657	2023-06-03T04:05:17	11.3	75.5
17658	2023-06-03T04:15:17	11.3	76
17659	2023-06-03T04:25:17	11.3	76
17660	2023-06-03T04:35:17	11.5	76
17661	2023-06-03T04:45:17	11.5	76
17662	2023-06-03T04:55:17	11.6	76
17663	2023-06-03T05:05:17	11.9	75
17664	2023-06-03T05:15:17	12.2	74.5
17665	2023-06-03T05:25:17	12.4	74
17666	2023-06-03T05:35:17	12.7	72
17667	2023-06-03T05:45:17	12.8	72
17668	2023-06-03T05:55:17	13.1	71
17669	2023-06-03T06:05:17	13.4	69.5
17670	2023-06-03T06:15:17	13.6	71
17671	2023-06-03T06:25:17	13.8	69.5
17672	2023-06-03T06:35:17	14.1	69
17673	2023-06-03T06:45:17	14.2	69.5
17674	2023-06-03T06:55:16	14.6	67.5
17675	2023-06-03T07:05:17	14.8	67.5
17676	2023-06-03T07:15:16	15.2	66.5
17677	2023-06-03T07:25:16	15.5	65
17678	2023-06-03T07:35:16	15.8	65.5
17679	2023-06-03T07:45:16	16.1	63.5
17680	2023-06-03T07:55:16	16.3	63.5
17681	2023-06-03T08:05:16	16.7	63.5
17682	2023-06-03T08:15:16	17	62.5
17683	2023-06-03T08:25:16	17.4	60
17684	2023-06-03T08:35:16	17.5	61.5
17685	2023-06-03T08:45:16	17.9	59
17686	2023-06-03T08:55:16	18.1	58.5
17687	2023-06-03T09:05:16	18.4	59
17688	2023-06-03T09:15:17	18.9	56.5
17689	2023-06-03T09:25:16	19.3	55.5
17690	2023-06-03T09:35:16	19.5	54.5
17691	2023-06-03T09:45:16	19.9	54.5
17692	2023-06-03T09:55:16	20.3	54
17693	2023-06-03T10:05:16	20.7	53.5
17694	2023-06-03T10:15:16	21.3	51.5
17695	2023-06-03T10:25:16	21.6	52
17696	2023-06-03T10:35:16	22.1	50
17697	2023-06-03T10:45:16	22.5	48
17698	2023-06-03T10:55:16	22.7	48.5
17699	2023-06-03T11:05:16	22.6	48.5
17700	2023-06-03T11:15:17	23	49
17701	2023-06-03T11:25:16	23.1	48
17702	2023-06-03T11:35:16	23.4	48
17703	2023-06-03T11:45:16	23.7	47.5
17704	2023-06-03T11:55:16	24.1	46.5
17705	2023-06-03T12:05:16	25.7	43
17706	2023-06-03T12:15:16	30	35
17707	2023-06-03T12:25:16	32.1	31
17708	2023-06-03T12:35:16	33.1	29
17709	2023-06-03T12:45:16	34.4	28
17710	2023-06-03T12:55:16	36.6	24.5
17711	2023-06-03T13:05:16	36	24.5
17712	2023-06-03T13:15:16	36.6	24
17713	2023-06-03T13:25:16	38.4	23
17714	2023-06-03T13:35:16	39.2	21
17715	2023-06-03T13:45:16	39.3	21
17716	2023-06-03T13:55:16	39.4	21
17717	2023-06-03T14:05:16	37.6	23
17718	2023-06-03T14:15:16	39.5	20.5
17719	2023-06-03T14:25:16	34.5	26
17720	2023-06-03T14:35:16	38.3	22
17721	2023-06-03T14:45:16	38.8	21
17722	2023-06-03T14:55:35	38.9	20
17723	2023-06-03T15:05:16	39.7	20.5
17724	2023-06-03T15:15:16	35.2	24
17725	2023-06-03T15:25:16	35.8	23.5
17726	2023-06-03T15:45:16	39	20
17727	2023-06-03T15:55:16	39.3	19.5
17728	2023-06-03T16:05:16	38.8	20
17729	2023-06-03T16:15:16	39.1	19
17730	2023-06-03T16:25:16	38.8	19.5
17731	2023-06-03T16:35:16	38	20
17732	2023-06-03T16:45:16	38.1	20.5
17733	2023-06-03T16:55:16	37.2	21
17734	2023-06-03T17:05:16	36.6	21
17735	2023-06-03T17:15:16	35.5	21.5
17736	2023-06-03T17:25:16	35.4	22.5
17737	2023-06-03T17:35:16	34.7	23
17738	2023-06-03T17:45:16	34	23.5
17739	2023-06-03T18:05:15	32.4	25.5
17740	2023-06-03T18:15:15	31.4	26
17741	2023-06-03T18:25:15	30.5	27.5
17742	2023-06-03T18:35:15	27.9	31
17743	2023-06-03T18:45:15	26.6	33.5
17744	2023-06-03T18:55:15	26.8	33.5
17745	2023-06-03T19:05:16	25.6	35
17746	2023-06-03T19:15:15	24.8	36
17747	2023-06-03T19:25:15	24.2	37.5
17748	2023-06-03T19:35:15	23.5	39
17749	2023-06-03T19:45:15	23	40
17750	2023-06-03T19:55:15	22.6	41
17751	2023-06-03T20:05:15	22.2	42
17752	2023-06-03T20:15:15	22	43
17753	2023-06-03T20:25:15	21.8	44.5
17754	2023-06-03T20:35:15	21.5	46
17755	2023-06-03T20:45:15	21.4	45
17756	2023-06-03T20:55:15	21.3	45.5
17757	2023-06-03T21:05:15	21.1	46
17758	2023-06-03T21:15:15	20.7	47.5
17759	2023-06-03T21:25:15	20.3	49
17760	2023-06-03T21:35:15	20.1	50
17761	2023-06-03T21:45:15	19.7	51.5
17762	2023-06-03T21:55:15	19.4	52.5
17763	2023-06-03T22:05:15	18.9	54.5
17764	2023-06-03T22:15:15	18.6	55.5
17765	2023-06-03T22:25:15	18.3	56
17766	2023-06-03T22:35:15	18	57
17767	2023-06-03T22:45:15	17.7	58.5
17768	2023-06-03T22:55:15	17.3	59.5
17769	2023-06-03T23:05:15	17	61
17770	2023-06-03T23:15:15	16.7	62
17771	2023-06-03T23:25:15	16.5	62.5
17772	2023-06-03T23:35:15	16.1	63.5
17773	2023-06-03T23:45:15	15.9	64.5
17774	2023-06-03T23:55:15	15.7	65
17775	2023-06-04T00:05:15	15.5	65.5
17776	2023-06-04T00:15:15	15.2	66
17777	2023-06-04T00:25:15	15.1	65.5
17778	2023-06-04T00:35:15	15.1	65.5
17779	2023-06-04T00:45:15	14.9	66.5
17780	2023-06-04T00:55:15	14.7	67.5
17781	2023-06-04T01:05:15	14.6	67.5
17782	2023-06-04T01:15:15	14.3	67.5
17783	2023-06-04T01:25:15	14.3	66.5
17784	2023-06-04T01:35:15	14.2	66.5
17785	2023-06-04T01:45:15	14	67.5
17786	2023-06-04T01:55:15	13.9	67
17787	2023-06-04T02:05:15	13.6	67.5
17788	2023-06-04T02:15:15	13.5	66.5
17789	2023-06-04T02:25:15	13.5	66.5
17790	2023-06-04T02:35:15	13.3	66.5
17791	2023-06-04T02:45:15	13.5	64.5
17792	2023-06-04T02:55:15	13.4	64.5
17793	2023-06-04T03:05:15	13.2	65
17794	2023-06-04T03:15:15	13.2	65.5
17795	2023-06-04T03:25:15	13.1	65.5
17796	2023-06-04T03:35:15	12.9	66.5
17797	2023-06-04T03:45:15	12.8	66.5
17798	2023-06-04T03:55:15	13	65.5
17799	2023-06-04T04:05:15	12.9	65.5
17800	2023-06-04T04:15:15	12.9	64
17801	2023-06-04T04:25:15	13.1	64
17802	2023-06-04T04:35:15	13.1	63
17803	2023-06-04T04:45:15	13.1	63.5
17804	2023-06-04T04:55:15	13.2	62.5
17805	2023-06-04T05:05:15	13.3	60.5
17806	2023-06-04T05:15:15	13.6	59
17807	2023-06-04T05:25:15	13.8	59
17808	2023-06-04T05:35:15	13.9	59.5
17809	2023-06-04T05:45:14	14.1	58.5
17810	2023-06-04T05:55:14	14.5	58
17811	2023-06-04T06:05:14	14.8	56.5
17812	2023-06-04T06:15:14	15	56.5
17813	2023-06-04T06:25:14	15.2	56.5
17814	2023-06-04T06:35:14	15.5	56
17815	2023-06-04T06:45:15	15.8	56
17816	2023-06-04T06:55:14	16.1	54.5
17817	2023-06-04T07:05:14	16.4	53.5
17818	2023-06-04T07:15:14	16.6	53
17819	2023-06-04T07:25:14	16.7	53.5
17820	2023-06-04T07:35:14	17	52.5
17821	2023-06-04T07:45:14	17.5	51
17822	2023-06-04T07:55:14	17.9	49.5
17823	2023-06-04T08:05:14	18.1	49.5
17824	2023-06-04T08:15:14	18.4	49.5
17825	2023-06-04T08:25:14	18.7	49.5
17826	2023-06-04T08:35:14	18.9	50
17827	2023-06-04T08:55:14	19.3	49.5
17828	2023-06-04T09:05:14	19.7	47.5
17829	2023-06-04T09:15:14	19.9	46.5
17830	2023-06-04T09:25:14	20.2	46
17831	2023-06-04T09:35:14	20.6	46
17832	2023-06-04T09:45:14	21	45
17833	2023-06-04T09:55:14	21.6	44.5
17834	2023-06-04T10:05:15	21.5	44
17835	2023-06-04T10:15:14	21.9	42.5
17836	2023-06-04T10:25:15	22.3	43
17837	2023-06-04T10:35:14	22.5	40
17838	2023-06-04T10:45:14	22.8	39.5
17839	2023-06-04T10:55:14	23.1	40
17840	2023-06-04T11:05:14	23.2	38
17841	2023-06-04T11:15:14	23.4	38.5
17842	2023-06-04T11:25:14	23.7	37
17843	2023-06-04T11:35:14	24	36.5
17844	2023-06-04T11:45:14	24.2	36
17845	2023-06-04T11:55:14	24.7	33
17846	2023-06-04T12:05:14	26	32.5
17847	2023-06-04T12:15:14	29.7	25.5
17848	2023-06-04T12:25:14	31.7	22
17849	2023-06-04T12:35:14	33.2	20.5
17850	2023-06-04T12:45:14	34.1	19
17851	2023-06-04T12:55:14	35.1	18.5
17852	2023-06-04T13:05:14	35.3	18.5
17853	2023-06-04T13:15:14	36.1	17
17854	2023-06-04T13:25:14	36.7	17.5
17855	2023-06-04T13:35:14	38.2	16
17856	2023-06-04T13:45:14	38.5	16.5
17857	2023-06-04T13:55:14	39.6	16
17858	2023-06-04T14:05:14	40	15
17859	2023-06-04T14:15:14	39.5	15
17860	2023-06-04T14:25:14	40	14.5
17861	2023-06-04T14:35:14	40.1	14
17862	2023-06-04T14:45:14	39.9	14.5
17863	2023-06-04T14:55:14	39.4	14
17864	2023-06-04T15:05:14	39.9	14
17865	2023-06-04T15:15:14	40.6	13
17866	2023-06-04T15:35:14	41.1	12
17867	2023-06-04T15:45:14	40.8	12
17868	2023-06-04T15:55:14	41.4	12
17869	2023-06-04T16:05:14	41	12
17870	2023-06-04T16:15:14	39.4	12.5
17871	2023-06-04T16:25:14	40.5	12.5
17872	2023-06-04T16:35:14	40.3	12
17873	2023-06-04T16:45:14	39.4	12.5
17874	2023-06-04T16:55:13	38.7	13.5
17875	2023-06-04T17:05:13	37.8	13
17876	2023-06-04T17:15:13	37.8	13
17877	2023-06-04T17:25:13	36.9	13.5
17878	2023-06-04T17:35:13	36.2	13.5
17879	2023-06-04T17:45:13	35.9	14
17880	2023-06-04T17:55:14	34.9	15.5
17881	2023-06-04T18:05:13	33.9	16
17882	2023-06-04T18:15:13	32.8	16.5
17883	2023-06-04T18:25:13	32	18
17884	2023-06-04T18:35:13	29.1	21.5
17885	2023-06-04T18:45:13	29	22.5
17886	2023-06-04T18:55:13	28.4	22.5
17887	2023-06-04T19:05:13	26.6	25
17888	2023-06-04T19:15:13	25.3	27
17889	2023-06-04T19:25:13	24.6	29
17890	2023-06-04T19:35:13	24	31.5
17891	2023-06-04T19:45:13	23.4	34.5
17892	2023-06-04T19:55:13	22.8	36
17893	2023-06-04T20:05:13	22.3	39
17894	2023-06-04T20:15:13	21.9	37
17895	2023-06-04T20:25:13	21.5	39
17896	2023-06-04T20:35:13	21.2	39.5
17897	2023-06-04T20:45:13	20.7	40.5
17898	2023-06-04T20:55:13	20.3	41
17899	2023-06-04T21:05:13	19.8	42
17900	2023-06-04T21:15:13	19.3	43.5
17901	2023-06-04T21:25:13	19.1	44.5
17902	2023-06-04T21:35:13	18.6	45.5
17903	2023-06-04T21:45:13	18.4	45.5
17904	2023-06-04T22:15:13	17.4	48.5
17905	2023-06-04T22:25:13	17.2	49.5
17906	2023-06-04T22:35:13	16.9	49.5
17907	2023-06-04T22:45:13	16.6	50.5
17908	2023-06-04T22:55:13	16.4	51
17909	2023-06-04T23:05:13	16	52
17910	2023-06-04T23:15:13	16	53
17911	2023-06-04T23:25:13	15.6	54
17912	2023-06-04T23:35:13	15.3	54.5
17913	2023-06-04T23:45:13	15.1	55
17914	2023-06-04T23:55:13	14.9	56.5
17915	2023-06-05T00:05:13	14.7	56.5
17916	2023-06-05T00:15:13	14.5	57
17917	2023-06-05T00:25:13	14.2	57.5
17918	2023-06-05T00:35:13	14.1	58
17919	2023-06-05T00:45:13	13.9	59
17920	2023-06-05T00:55:13	13.7	60
17921	2023-06-05T01:05:13	13.4	60.5
17922	2023-06-05T01:15:13	13.2	61
17923	2023-06-05T01:25:13	13.1	61.5
17924	2023-06-05T01:35:13	12.8	62
17925	2023-06-05T01:45:13	12.8	62
17926	2023-06-05T01:55:13	12.6	62
17927	2023-06-05T02:05:13	12.6	62.5
17928	2023-06-05T02:15:13	12.5	62.5
17929	2023-06-05T02:25:13	12.5	63
17930	2023-06-05T02:35:13	12.2	63.5
17931	2023-06-05T02:45:13	12.2	64
17932	2023-06-05T02:55:13	12	64.5
17933	2023-06-05T03:05:13	11.8	65
17934	2023-06-05T03:15:13	11.8	65.5
17935	2023-06-05T03:25:13	11.6	66
17936	2023-06-05T03:35:13	11.6	66.5
17937	2023-06-05T03:45:13	11.4	66.5
17938	2023-06-05T03:55:13	11.5	66.5
17939	2023-06-05T04:05:13	11.4	67.5
17940	2023-06-05T04:15:13	11.5	67
17941	2023-06-05T04:25:13	11.6	67.5
17942	2023-06-05T04:35:13	11.6	67
17943	2023-06-05T04:45:12	12	64.5
17944	2023-06-05T04:55:12	12.2	64
17945	2023-06-05T05:05:12	12.4	64
17946	2023-06-05T05:15:13	12.7	63.5
17947	2023-06-05T05:25:12	12.8	64
17948	2023-06-05T05:35:12	13	63.5
17949	2023-06-05T05:45:13	13.5	61.5
17950	2023-06-05T05:55:12	13.7	63
17951	2023-06-05T06:05:13	13.9	63.5
17952	2023-06-05T06:15:12	14.3	61.5
17953	2023-06-05T06:25:12	14.5	61.5
17954	2023-06-05T06:35:12	14.8	62.5
17955	2023-06-05T06:45:12	15	59
17956	2023-06-05T06:55:12	15.4	59
17957	2023-06-05T07:05:12	15.7	57.5
17958	2023-06-05T07:15:12	16	57
17959	2023-06-05T07:25:12	16.2	56
17960	2023-06-05T07:35:12	16.6	55.5
17961	2023-06-05T07:45:12	16.9	54.5
17962	2023-06-05T07:55:12	17.1	54
17963	2023-06-05T08:05:12	17.5	53.5
17964	2023-06-05T08:15:12	17.6	53.5
17965	2023-06-05T08:25:12	18.1	53
17966	2023-06-05T08:35:12	18.3	51.5
17967	2023-06-05T08:45:12	18.8	51
17968	2023-06-05T08:55:12	19.2	49.5
17969	2023-06-05T09:05:12	19.4	50
17970	2023-06-05T09:15:12	19.7	47
17971	2023-06-05T09:25:12	20	49
17972	2023-06-05T09:35:12	20.3	46
17973	2023-06-05T09:45:12	20.7	48
17974	2023-06-05T09:55:12	21.2	47
17975	2023-06-05T10:05:12	21.4	46
17976	2023-06-05T10:15:12	21.9	45.5
17977	2023-06-05T10:25:12	22.2	47.5
17978	2023-06-05T10:35:12	22.6	45.5
17979	2023-06-05T10:45:12	23.1	46
17980	2023-06-05T10:55:12	23.4	45.5
17981	2023-06-05T11:05:12	23.8	46.5
17982	2023-06-05T11:15:12	24.3	45
17983	2023-06-05T11:25:12	25	42.5
17984	2023-06-05T11:35:12	25.6	39.5
17985	2023-06-05T11:45:12	26.2	37.5
17986	2023-06-05T11:55:12	25.8	37
17987	2023-06-05T12:05:12	27.1	34
17988	2023-06-05T12:15:12	30.8	28
17989	2023-06-05T12:25:12	33.5	24
17990	2023-06-05T12:35:12	34.2	22
17991	2023-06-05T12:45:12	35.5	19.5
17992	2023-06-05T12:55:12	36.7	19.5
17993	2023-06-05T13:05:12	38	17.5
17994	2023-06-05T13:15:12	38.7	17
17995	2023-06-05T13:25:12	38.8	16.5
17996	2023-06-05T13:35:12	39.6	15.5
17997	2023-06-05T13:45:12	40	14.5
17998	2023-06-05T13:55:12	40.5	14.5
17999	2023-06-05T14:05:12	41	14
18000	2023-06-05T14:15:12	41.6	13.5
18001	2023-06-05T14:25:12	42.9	13
18002	2023-06-05T14:35:12	42.4	13
18003	2023-06-05T14:45:12	42	12.5
18004	2023-06-05T14:55:12	42.4	12.5
18005	2023-06-05T15:05:12	41.3	12.5
18006	2023-06-05T15:15:12	42.1	12
18007	2023-06-05T15:25:12	41.9	12.5
18008	2023-06-05T15:35:12	43.4	11.5
18009	2023-06-05T15:45:12	43.5	11.5
18010	2023-06-05T15:55:12	43.4	11
18011	2023-06-05T16:05:12	41.8	11
18012	2023-06-05T16:15:12	41.9	12.5
18013	2023-06-05T16:25:12	42.3	11.5
18014	2023-06-05T16:35:12	42.7	12
18015	2023-06-05T16:45:11	42.3	12.5
18016	2023-06-05T16:55:11	41.7	12.5
18017	2023-06-05T17:05:11	40.5	13.5
18018	2023-06-05T17:15:11	40.2	14
18019	2023-06-05T17:25:11	39.3	14
18020	2023-06-05T17:35:12	39.2	14
18021	2023-06-05T17:45:11	38.4	14
18022	2023-06-05T17:55:11	37.4	16
18023	2023-06-05T18:05:11	36.5	17
18024	2023-06-05T18:15:11	35.5	18
18025	2023-06-05T18:25:11	33.9	19
18026	2023-06-05T18:35:11	31.4	23
18027	2023-06-05T19:05:11	28.5	28.5
18028	2023-06-05T19:15:11	27.3	33
18029	2023-06-05T19:25:11	26.4	35
18030	2023-06-05T19:35:11	25.5	37
18031	2023-06-05T19:45:12	24.8	38
18032	2023-06-05T19:55:11	24.1	37.5
18033	2023-06-05T20:05:11	23.6	37.5
18034	2023-06-05T20:15:11	23.3	36.5
18035	2023-06-05T20:25:11	22.7	39
18036	2023-06-05T20:35:11	22.3	40
18037	2023-06-05T20:45:11	21.9	42.5
18038	2023-06-05T20:55:11	21.5	41.5
18039	2023-06-05T21:05:11	21.2	44.5
18040	2023-06-05T21:15:11	21	45.5
18041	2023-06-05T21:25:11	20.4	47
18042	2023-06-05T21:35:11	20.1	46.5
18043	2023-06-05T21:45:11	19.6	46.5
18044	2023-06-05T21:55:11	19.4	47
18045	2023-06-05T22:05:11	19.2	47
18046	2023-06-05T22:15:11	19.1	48
18047	2023-06-05T22:25:11	18.6	48
18048	2023-06-05T22:35:11	18.6	49
18049	2023-06-05T22:45:11	18.4	50
18050	2023-06-05T22:55:11	18.1	51
18051	2023-06-05T23:05:11	17.9	51
18052	2023-06-05T23:15:11	18.1	51.5
18053	2023-06-05T23:25:11	17.9	52
18054	2023-06-05T23:35:11	17.8	54.5
18055	2023-06-05T23:45:11	17.3	56.5
18056	2023-06-05T23:55:11	17.2	59
18057	2023-06-06T00:05:11	16.9	61
18058	2023-06-06T00:15:11	16.7	61.5
18059	2023-06-06T00:25:11	16.7	63
18060	2023-06-06T00:35:11	16.7	64.5
18061	2023-06-06T00:45:11	16.5	65.5
18062	2023-06-06T00:55:11	16.2	67
18063	2023-06-06T01:05:11	16.1	68
18064	2023-06-06T01:15:11	16	69
18065	2023-06-06T01:25:11	15.7	70
18066	2023-06-06T01:35:11	15.5	70.5
18067	2023-06-06T01:45:11	15.5	71
18068	2023-06-06T01:55:11	15.1	72
18069	2023-06-06T02:05:11	15	73.5
18070	2023-06-06T02:15:11	14.8	74.5
18071	2023-06-06T02:25:11	14.4	75.5
18072	2023-06-06T02:35:11	14.5	76
18073	2023-06-06T02:45:11	14.7	77
18074	2023-06-06T02:55:11	14.4	77
18075	2023-06-06T03:05:11	14.3	77
18076	2023-06-06T03:15:10	14.4	77
18077	2023-06-06T03:25:11	14.5	77.5
18078	2023-06-06T03:35:11	14.4	78
18079	2023-06-06T03:45:10	14.4	78.5
18080	2023-06-06T03:55:10	14.4	79
18081	2023-06-06T04:05:10	14.5	78.5
18082	2023-06-06T04:15:10	14.5	78
18083	2023-06-06T04:25:11	14.7	77.5
18084	2023-06-06T04:35:10	14.9	77.5
18085	2023-06-06T04:45:10	15.1	77
18086	2023-06-06T04:55:11	15.5	75.5
18087	2023-06-06T05:05:11	15.4	75.5
18088	2023-06-06T05:15:10	15.5	75.5
18089	2023-06-06T05:25:10	15.5	75.5
18090	2023-06-06T05:35:10	15.6	75.5
18091	2023-06-06T05:45:10	15.7	75.5
18092	2023-06-06T05:55:10	15.9	75
18093	2023-06-06T06:05:10	16	75
18094	2023-06-06T06:15:10	16.2	74.5
18095	2023-06-06T06:25:10	16.6	73.5
18096	2023-06-06T06:35:10	16.9	72.5
18097	2023-06-06T06:45:10	17.2	72.5
18098	2023-06-06T06:55:10	17.4	70.5
18099	2023-06-06T07:05:10	17.8	69
18100	2023-06-06T07:15:10	18.1	66.5
18101	2023-06-06T07:25:10	18.4	65.5
18102	2023-06-06T07:35:10	18.7	62
18103	2023-06-06T07:45:10	19	61
18104	2023-06-06T07:55:10	19.4	57.5
18105	2023-06-06T08:15:10	19.9	55.5
18106	2023-06-06T08:25:10	20.2	52
18107	2023-06-06T08:35:10	20.5	50.5
18108	2023-06-06T08:45:10	20.8	50
18109	2023-06-06T08:55:10	21	49.5
18110	2023-06-06T09:05:10	21.4	47.5
18111	2023-06-06T09:15:10	21.7	47.5
18112	2023-06-06T09:25:10	21.9	46
18113	2023-06-06T09:35:10	22.1	44.5
18114	2023-06-06T09:45:10	22.3	45.5
18115	2023-06-06T09:55:10	22.5	44.5
18116	2023-06-06T10:05:10	22.9	45
18117	2023-06-06T10:15:10	23.1	43.5
18118	2023-06-06T10:25:10	23.4	42.5
18119	2023-06-06T10:35:10	23.6	42.5
18120	2023-06-06T10:45:10	23.9	41.5
18121	2023-06-06T10:55:10	24.3	41.5
18122	2023-06-06T11:05:10	24.6	38.5
18123	2023-06-06T11:15:10	25.1	40
18124	2023-06-06T11:25:10	25.3	38.5
18125	2023-06-06T11:35:10	25.7	35.5
18126	2023-06-06T11:45:10	26	35.5
18127	2023-06-06T11:55:10	26.6	33.5
18128	2023-06-06T12:05:10	28	30.5
18129	2023-06-06T12:15:10	31.8	24
18130	2023-06-06T12:25:10	33.7	23
18131	2023-06-06T12:35:10	36.1	19
18132	2023-06-06T12:45:10	37.3	18
18133	2023-06-06T12:55:10	38.8	16.5
18134	2023-06-06T13:05:10	39.6	14.5
18135	2023-06-06T13:15:10	40.7	17
18136	2023-06-06T13:25:10	41.8	15
18137	2023-06-06T13:35:10	35.6	22.5
18138	2023-06-06T13:45:10	35.3	22.5
18139	2023-06-06T13:55:10	38	19.5
18140	2023-06-06T14:05:10	38.9	17.5
18141	2023-06-06T14:15:10	40.4	16.5
18142	2023-06-06T14:25:10	41.3	15.5
18143	2023-06-06T14:35:10	41.7	15.5
18144	2023-06-06T14:45:10	41.9	14.5
18145	2023-06-06T14:55:10	42.5	14.5
18146	2023-06-06T15:05:09	42.6	15
18147	2023-06-06T15:15:09	42.4	15.5
18148	2023-06-06T15:25:09	41.1	16.5
18149	2023-06-06T15:35:09	41.1	17
18150	2023-06-06T15:45:09	42.2	16
18151	2023-06-06T15:55:09	42.6	15.5
18152	2023-06-06T16:05:09	42.6	15.5
18153	2023-06-06T16:15:09	42.1	14.5
18154	2023-06-06T16:25:09	41.2	16
18155	2023-06-06T16:35:09	41.1	16
18156	2023-06-06T16:45:09	41	16
18157	2023-06-06T16:55:09	40.8	16.5
18158	2023-06-06T17:05:10	39.8	17.5
18159	2023-06-06T17:15:09	39.2	17.5
18160	2023-06-06T17:25:09	38.3	18
18161	2023-06-06T17:45:09	36	20.5
18162	2023-06-06T17:55:09	34.8	21.5
18163	2023-06-06T18:05:09	34	23
18164	2023-06-06T18:15:09	33.5	23.5
18165	2023-06-06T18:25:09	31.9	25.5
18166	2023-06-06T18:35:09	29.9	29
18167	2023-06-06T18:45:09	28.7	31.5
18168	2023-06-06T18:55:09	27.9	33
18169	2023-06-06T19:05:09	27.2	34
18170	2023-06-06T19:15:09	26.4	35.5
18171	2023-06-06T19:25:09	25.8	36
18172	2023-06-06T19:35:09	25.1	37.5
18173	2023-06-06T19:45:09	24.7	39
18174	2023-06-06T19:55:09	24.1	40.5
18175	2023-06-06T20:05:09	23.7	42
18176	2023-06-06T20:15:09	23.3	44.5
18177	2023-06-06T20:25:09	22.8	45
18178	2023-06-06T20:35:09	22.4	45.5
18179	2023-06-06T20:45:09	22	47
18180	2023-06-06T20:55:09	21.6	48
18181	2023-06-06T21:05:09	21.3	49
18182	2023-06-06T21:15:09	20.9	50.5
18183	2023-06-06T21:25:09	20.5	51
18184	2023-06-06T21:35:09	20.1	52
18185	2023-06-06T21:45:09	19.7	53.5
18186	2023-06-06T21:55:09	19.5	54
18187	2023-06-06T22:05:09	19.2	55.5
18188	2023-06-06T22:15:09	19.1	55.5
18189	2023-06-06T22:25:09	18.9	56
18190	2023-06-06T22:35:09	18.7	57
18191	2023-06-06T22:45:09	18.4	58.5
18192	2023-06-06T22:55:09	18.1	59
18193	2023-06-06T23:05:09	17.8	59
18194	2023-06-06T23:15:09	17.7	60
18195	2023-06-06T23:25:09	17.3	61
18196	2023-06-06T23:35:09	17.1	61
18197	2023-06-06T23:45:09	16.8	62.5
18198	2023-06-06T23:55:09	16.5	63
18199	2023-06-07T00:05:09	16.3	64.5
18200	2023-06-07T00:15:09	16.2	64.5
18201	2023-06-07T00:25:09	16.1	65
18202	2023-06-07T00:35:09	15.9	66
18203	2023-06-07T00:45:09	15.7	66.5
18204	2023-06-07T00:55:09	15.6	67
18205	2023-06-07T01:05:09	15.4	67.5
18206	2023-06-07T01:15:09	15.2	68
18207	2023-06-07T01:25:09	15.1	68.5
18208	2023-06-07T01:35:09	14.9	69.5
18209	2023-06-07T01:45:09	14.7	70
18210	2023-06-07T01:55:09	14.6	70.5
18211	2023-06-07T02:05:09	14.7	70.5
18212	2023-06-07T02:15:08	14.2	71.5
18213	2023-06-07T02:25:08	14	72.5
18214	2023-06-07T02:35:08	13.9	73.5
18215	2023-06-07T02:45:08	13.7	74.5
18216	2023-06-07T02:55:08	13.4	75
18217	2023-06-07T03:05:08	13.3	75
18218	2023-06-07T03:15:08	13.2	76
18219	2023-06-07T03:25:08	13.1	76
18220	2023-06-07T03:35:08	13	76.5
18221	2023-06-07T03:45:08	12.9	77
18222	2023-06-07T03:55:08	12.9	77.5
18223	2023-06-07T04:05:08	12.9	77.5
18224	2023-06-07T04:15:08	12.9	77.5
18225	2023-06-07T04:25:08	13	78
18226	2023-06-07T04:35:08	13	78
18227	2023-06-07T04:45:09	13.4	77.5
18228	2023-06-07T04:55:08	13.5	77
18229	2023-06-07T05:05:08	13.5	78
18230	2023-06-07T05:15:09	13.7	78.5
18231	2023-06-07T05:25:08	13.9	78
18232	2023-06-07T05:35:08	14.4	75.5
18233	2023-06-07T05:45:08	14.7	74
18234	2023-06-07T05:55:08	15.1	74
18235	2023-06-07T06:05:08	15.4	73.5
18236	2023-06-07T06:15:08	15.7	74.5
18237	2023-06-07T06:25:08	16	74.5
18238	2023-06-07T06:35:08	16.4	73
18239	2023-06-07T06:45:08	16.6	72.5
18240	2023-06-07T06:55:08	17	72.5
18241	2023-06-07T07:05:08	17.2	72
18242	2023-06-07T07:15:08	17.6	71
18243	2023-06-07T07:25:08	17.7	70.5
18244	2023-06-07T07:35:08	17.8	70
18245	2023-06-07T07:45:08	18.3	70
18246	2023-06-07T07:55:08	18.5	69
18247	2023-06-07T08:05:08	18.8	70.5
18248	2023-06-07T08:15:08	19	68.5
18249	2023-06-07T08:25:08	19.3	68.5
18250	2023-06-07T08:35:08	19.4	66
18251	2023-06-07T08:45:08	19.8	66
18252	2023-06-07T08:55:08	19.9	64.5
18253	2023-06-07T09:05:08	20.2	60.5
18254	2023-06-07T09:15:08	20.5	62
18255	2023-06-07T09:25:08	20.7	59.5
18256	2023-06-07T09:35:08	21.1	59.5
18257	2023-06-07T09:45:08	21.5	58
18258	2023-06-07T09:55:08	21.6	56
18259	2023-06-07T10:05:08	22.1	55
18260	2023-06-07T10:15:29	22.1	54.5
18261	2023-06-07T10:25:08	22.4	55.5
18262	2023-06-07T10:35:08	22.7	53
18263	2023-06-07T10:45:08	22.8	52
18264	2023-06-07T10:55:08	23.2	51.5
18265	2023-06-07T11:05:08	23.5	49.5
18266	2023-06-07T11:15:08	23.6	49.5
18267	2023-06-07T11:25:08	23.8	48
18268	2023-06-07T11:35:08	24.3	45.5
18269	2023-06-07T11:45:08	24.5	45
18270	2023-06-07T11:55:08	25	41.5
18271	2023-06-07T12:05:08	26.3	40
18272	2023-06-07T12:15:08	30.6	33.5
18273	2023-06-07T12:25:08	32.7	28.5
18274	2023-06-07T12:35:08	34.6	27
18275	2023-06-07T12:45:08	35.9	25.5
18276	2023-06-07T12:55:08	37.8	22.5
18277	2023-06-07T13:05:08	38.2	22.5
18278	2023-06-07T13:15:08	39.4	21
18279	2023-06-07T13:25:08	39.3	21
18280	2023-06-07T13:35:08	39.9	19.5
18281	2023-06-07T13:45:08	41.3	19
18282	2023-06-07T13:55:08	39.7	20.5
18283	2023-06-07T14:05:07	40.8	19
18284	2023-06-07T14:15:07	42.3	18.5
18285	2023-06-07T14:25:08	42.2	18.5
18286	2023-06-07T14:35:07	42.8	17
18287	2023-06-07T14:45:07	43.6	16
18288	2023-06-07T14:55:07	43.3	17.5
18289	2023-06-07T15:05:07	44.3	17
18290	2023-06-07T15:15:07	43.9	16.5
18291	2023-06-07T15:25:07	44.1	16
18292	2023-06-07T15:35:07	44.8	16
18293	2023-06-07T15:45:07	43.8	16.5
18294	2023-06-07T15:55:07	43.5	16.5
18295	2023-06-07T16:05:07	43.5	16.5
18296	2023-06-07T16:15:07	42.7	17
18297	2023-06-07T16:25:07	42.1	17
18298	2023-06-07T16:35:07	42.3	17
18299	2023-06-07T16:45:07	42	17.5
18300	2023-06-07T16:55:07	41.1	17.5
18301	2023-06-07T17:05:07	40.7	18.5
18302	2023-06-07T17:15:07	40.7	18.5
18303	2023-06-07T17:25:07	39.4	19
18304	2023-06-07T17:35:07	39	20
18305	2023-06-07T17:45:07	38.4	21.5
18306	2023-06-07T17:55:07	37.7	20.5
18307	2023-06-07T18:05:07	37.2	22
18308	2023-06-07T18:15:07	36.2	23.5
18309	2023-06-07T18:25:07	34.2	25.5
18310	2023-06-07T18:35:07	31.8	29
18311	2023-06-07T18:45:07	30.8	30
18312	2023-06-07T18:55:07	30	32
18313	2023-06-07T19:05:07	28.9	37
18314	2023-06-07T19:15:07	27.6	40
18315	2023-06-07T19:25:07	26.9	41.5
18316	2023-06-07T19:35:07	26.1	44
18317	2023-06-07T19:45:07	25.5	44.5
18318	2023-06-07T19:55:07	25	46
18319	2023-06-07T20:05:07	24.3	46.5
18320	2023-06-07T20:15:07	23.8	47.5
18321	2023-06-07T20:25:07	23.4	48.5
18322	2023-06-07T20:35:07	22.9	50.5
18323	2023-06-07T20:45:07	22.5	50.5
18324	2023-06-07T20:55:07	22.1	51.5
18325	2023-06-07T21:05:07	21.8	53
18326	2023-06-07T21:15:07	21.6	53.5
18327	2023-06-07T21:25:07	21.1	55
18328	2023-06-07T21:35:07	20.9	55
18329	2023-06-07T21:45:07	20.6	56
18330	2023-06-07T21:55:07	20.3	56
18331	2023-06-07T22:05:07	19.9	58
18332	2023-06-07T22:15:07	19.6	59
18333	2023-06-07T22:25:07	19.4	59
18334	2023-06-07T22:35:07	19.1	60
18335	2023-06-07T22:45:07	18.8	61.5
18336	2023-06-07T22:55:07	18.7	62
18337	2023-06-07T23:05:07	18.5	62.5
18338	2023-06-07T23:15:07	18.3	63.5
18339	2023-06-07T23:25:07	18	64.5
18340	2023-06-07T23:35:07	17.6	65.5
18341	2023-06-07T23:45:07	17.3	65.5
18342	2023-06-07T23:55:07	17	67.5
18343	2023-06-08T00:05:07	16.9	67.5
18344	2023-06-08T00:15:07	16.8	68
18345	2023-06-08T00:25:07	16.6	68.5
18346	2023-06-08T00:35:07	16.4	69
18347	2023-06-08T00:45:06	16.1	69.5
18348	2023-06-08T00:55:07	16.1	70.5
18349	2023-06-08T01:05:06	15.9	71
18350	2023-06-08T01:15:06	15.6	71.5
18351	2023-06-08T01:25:06	15.4	72.5
18352	2023-06-08T01:35:06	15.3	73
18353	2023-06-08T01:45:06	15.2	73.5
18354	2023-06-08T01:55:06	15.1	73.5
18355	2023-06-08T02:05:06	14.9	74
18356	2023-06-08T02:15:06	14.9	74
18357	2023-06-08T02:25:06	14.9	73.5
18358	2023-06-08T02:35:06	14.6	74
18359	2023-06-08T02:45:06	14.5	74.5
18360	2023-06-08T02:55:06	14	76
18361	2023-06-08T03:05:06	14.1	76.5
18362	2023-06-08T03:15:06	14	77
18363	2023-06-08T03:25:06	13.7	77.5
18364	2023-06-08T03:35:06	13.8	77.5
18365	2023-06-08T03:45:06	14	77
18366	2023-06-08T03:55:06	14.2	76.5
18367	2023-06-08T04:05:06	14.5	75.5
18368	2023-06-08T04:15:06	14.7	74.5
18369	2023-06-08T04:25:06	14.8	74.5
18370	2023-06-08T04:35:06	14.9	74
18371	2023-06-08T04:45:06	15.4	73
18372	2023-06-08T04:55:06	15.6	72
18373	2023-06-08T05:05:06	15.7	73
18374	2023-06-08T05:15:06	15.6	72
18375	2023-06-08T05:25:06	15.8	72.5
18376	2023-06-08T05:35:06	16.1	72.5
18377	2023-06-08T05:45:06	15.9	74
18378	2023-06-08T05:55:06	16	75
18379	2023-06-08T06:05:06	16.1	75
18380	2023-06-08T06:15:06	16.4	73
18381	2023-06-08T06:25:06	16.6	73
18382	2023-06-08T06:35:06	16.9	72.5
18383	2023-06-08T06:45:07	17.1	72
18384	2023-06-08T06:55:06	17.3	72.5
18385	2023-06-08T07:05:06	17.3	70.5
18386	2023-06-08T07:15:06	17.5	70.5
18387	2023-06-08T07:25:06	17.8	70
18388	2023-06-08T07:35:06	18	71
18389	2023-06-08T07:45:06	18.2	70.5
18390	2023-06-08T07:55:06	18.1	70
18391	2023-06-08T08:05:06	18.2	71
18392	2023-06-08T08:15:06	18.2	71
18393	2023-06-08T08:25:06	18.4	71.5
18394	2023-06-08T08:35:06	18.5	71
18395	2023-06-08T08:45:06	19.3	69.5
18396	2023-06-08T08:55:06	20.3	67.5
18397	2023-06-08T09:05:06	21.5	64
18398	2023-06-08T09:15:06	22.2	57.5
18399	2023-06-08T09:25:06	22.5	53
18400	2023-06-08T09:35:06	22.3	54
18401	2023-06-08T09:45:06	22.1	55.5
18402	2023-06-08T09:55:06	22.1	56.5
18403	2023-06-08T10:05:06	22.2	56
18404	2023-06-08T10:15:06	22.7	52
18405	2023-06-08T10:25:06	22.9	53.5
18406	2023-06-08T10:35:06	23.2	52.5
18407	2023-06-08T10:45:06	23.5	51
18408	2023-06-08T10:55:06	23.8	46.5
18409	2023-06-08T11:05:06	24	46.5
18410	2023-06-08T11:15:06	24.6	47
18411	2023-06-08T11:35:06	25.2	46
18412	2023-06-08T11:45:06	25.7	45
18413	2023-06-08T11:55:06	26.4	40.5
18414	2023-06-08T12:05:06	27.7	40
18415	2023-06-08T12:15:05	31.8	33.5
18416	2023-06-08T12:25:05	34.2	30
18417	2023-06-08T12:35:05	35.8	26.5
18418	2023-06-08T12:45:06	37.6	22.5
18419	2023-06-08T12:55:05	39.4	21.5
18420	2023-06-08T13:05:05	39.7	21
18421	2023-06-08T13:15:05	37.4	20.5
18422	2023-06-08T13:25:05	32.3	25.5
18423	2023-06-08T13:35:05	30	27.5
18424	2023-06-08T13:45:05	28	32
18425	2023-06-08T13:55:05	26.9	32
18426	2023-06-08T14:05:05	25.6	35
18427	2023-06-08T14:15:05	25.3	34
18428	2023-06-08T14:25:05	25.2	35
18429	2023-06-08T14:35:05	25.8	36.5
18430	2023-06-08T14:45:05	25.7	35.5
18431	2023-06-08T14:55:05	25	39.5
18432	2023-06-08T15:05:05	24.5	41.5
18433	2023-06-08T15:15:05	24	45
18434	2023-06-08T15:25:05	24.1	44.5
18435	2023-06-08T15:35:05	24.1	46.5
18436	2023-06-08T15:45:05	24.8	45.5
18437	2023-06-08T15:55:05	28	36.5
18438	2023-06-08T16:05:05	27.8	37.5
18439	2023-06-08T16:15:05	29.6	34.5
18440	2023-06-08T16:25:05	32.6	29
18441	2023-06-08T16:35:05	35.3	25.5
18442	2023-06-08T16:45:05	35.7	23.5
18443	2023-06-08T16:55:05	36.4	23
18444	2023-06-08T17:05:05	36.4	22
18445	2023-06-08T17:15:05	36.3	23
18446	2023-06-08T17:25:05	35.9	23.5
18447	2023-06-08T17:35:05	33.8	26.5
18448	2023-06-08T17:45:05	33.3	27.5
18449	2023-06-08T17:55:05	32.8	28
18450	2023-06-08T18:05:05	32.1	30.5
18451	2023-06-08T18:15:05	30.9	34
18452	2023-06-08T18:25:05	29.9	36.5
18453	2023-06-08T18:35:05	29	35.5
18454	2023-06-08T18:45:05	27.8	37.5
18455	2023-06-08T18:55:05	26.5	39.5
18456	2023-06-08T19:05:05	24.6	44
18457	2023-06-08T19:15:05	23.7	47
18458	2023-06-08T19:25:05	22.9	49
18459	2023-06-08T19:45:05	21.8	52.5
18460	2023-06-08T19:55:05	21.4	53
18461	2023-06-08T20:05:05	21	54.5
18462	2023-06-08T20:15:05	20.6	56.5
18463	2023-06-08T20:25:05	20.1	58.5
18464	2023-06-08T20:35:05	19.9	59
18465	2023-06-08T20:45:05	19.5	60.5
18466	2023-06-08T20:55:05	19.4	61
18467	2023-06-08T21:05:05	19.2	61.5
18468	2023-06-08T21:15:05	18.9	61.5
18469	2023-06-08T21:25:05	18.9	62
18470	2023-06-08T21:35:05	18.8	64.5
18471	2023-06-08T21:45:05	18.6	65
18472	2023-06-08T21:55:05	18.5	66
18473	2023-06-08T22:05:05	18.1	68.5
18474	2023-06-08T22:15:05	17.9	68
18475	2023-06-08T22:25:05	17.6	69.5
18476	2023-06-08T22:35:05	17.4	70
18477	2023-06-08T22:45:04	17.1	71
18478	2023-06-08T22:55:04	16.8	72
18479	2023-06-08T23:05:05	16.6	72
18480	2023-06-08T23:15:04	16.4	72.5
18481	2023-06-08T23:25:04	16.3	73.5
18482	2023-06-08T23:35:04	16.2	73.5
18483	2023-06-08T23:45:04	15.9	73.5
18484	2023-06-08T23:55:04	15.9	73.5
18485	2023-06-09T00:05:04	15.7	75
18486	2023-06-09T00:15:04	15.6	74.5
18487	2023-06-09T00:25:04	15.3	75.5
18488	2023-06-09T00:35:04	15.2	76.5
18489	2023-06-09T00:45:04	15.2	77
18490	2023-06-09T00:55:04	15.1	76.5
18491	2023-06-09T01:05:04	15	77.5
18492	2023-06-09T01:15:04	14.9	77
18493	2023-06-09T01:25:04	14.7	77.5
18494	2023-06-09T01:35:04	14.7	77.5
18495	2023-06-09T01:45:04	14.5	78.5
18496	2023-06-09T01:55:04	14.5	78
18497	2023-06-09T02:05:04	14.4	78
18498	2023-06-09T02:15:04	14.4	78.5
18499	2023-06-09T02:25:04	14.3	79
18500	2023-06-09T02:35:04	14.1	80
18501	2023-06-09T02:45:04	13.8	81
18502	2023-06-09T02:55:04	13.5	82
18503	2023-06-09T03:05:04	13.6	82.5
18504	2023-06-09T03:15:04	13.3	83
18505	2023-06-09T03:25:04	13.4	82.5
18506	2023-06-09T03:35:04	13.2	83
18507	2023-06-09T03:45:04	13.2	83.5
18508	2023-06-09T03:55:04	13.4	83
18509	2023-06-09T04:05:04	13.2	83.5
18510	2023-06-09T04:15:04	13.5	82.5
18511	2023-06-09T04:25:04	13.6	82.5
18512	2023-06-09T04:35:04	13.5	82.5
18513	2023-06-09T04:45:04	13.7	82
18514	2023-06-09T04:55:04	14.1	81.5
18515	2023-06-09T05:05:04	14.4	80.5
18516	2023-06-09T05:15:04	14.7	80.5
18517	2023-06-09T05:25:04	14.8	80
18518	2023-06-09T05:35:04	15.1	79.5
18519	2023-06-09T05:45:04	15.5	78.5
18520	2023-06-09T05:55:04	15.7	78.5
18521	2023-06-09T06:05:04	15.9	79
18522	2023-06-09T06:15:04	16.2	77.5
18523	2023-06-09T06:25:04	16.4	78
18524	2023-06-09T06:35:04	16.7	77
18525	2023-06-09T06:45:04	17.3	75.5
18526	2023-06-09T06:55:04	17.6	75.5
18527	2023-06-09T07:05:04	17.9	75.5
18528	2023-06-09T07:15:04	18.5	73
18529	2023-06-09T07:25:04	19.1	70.5
18530	2023-06-09T07:35:04	19.6	70.5
18531	2023-06-09T07:45:04	20	68.5
18532	2023-06-09T07:55:04	20.4	67
18533	2023-06-09T08:05:04	20.7	64.5
18534	2023-06-09T08:15:04	21.1	59.5
18535	2023-06-09T08:25:04	21.6	56
18536	2023-06-09T08:35:04	22	53.5
18537	2023-06-09T08:45:04	22.1	53
18538	2023-06-09T08:55:04	22.7	53
18539	2023-06-09T09:05:04	23	54.5
18540	2023-06-09T09:15:04	23.1	56
18541	2023-06-09T09:25:04	23.5	54
18542	2023-06-09T09:35:04	23.7	52
18543	2023-06-09T09:45:04	23.9	52.5
18544	2023-06-09T09:55:04	24.4	50
18545	2023-06-09T10:05:04	24.6	50.5
18546	2023-06-09T10:15:04	25.1	50.5
18547	2023-06-09T10:25:04	25.8	48.5
18548	2023-06-09T10:35:04	26.9	46
18549	2023-06-09T10:45:03	27.5	44
18550	2023-06-09T10:55:03	28.3	42
18551	2023-06-09T11:05:03	29.2	38
18552	2023-06-09T11:15:03	28.1	41
18553	2023-06-09T11:25:03	26.8	48.5
18554	2023-06-09T11:35:03	26.8	44
18555	2023-06-09T11:45:03	27	43
18556	2023-06-09T11:55:03	27.9	39.5
18557	2023-06-09T12:05:03	31.2	34
18558	2023-06-09T12:15:03	33.4	30.5
18559	2023-06-09T12:25:03	34.8	26.5
18560	2023-06-09T12:35:03	35.8	26
18561	2023-06-09T12:45:03	37	24
18562	2023-06-09T12:55:03	38	23.5
18563	2023-06-09T13:05:03	39.1	22
18564	2023-06-09T13:15:03	39.5	20
18565	2023-06-09T13:25:03	40.7	20
18566	2023-06-09T13:35:03	40.9	19
18567	2023-06-09T13:45:03	41.6	17.5
18568	2023-06-09T13:55:03	42.1	18
18569	2023-06-09T14:05:03	42.8	17.5
18570	2023-06-09T14:15:03	42.7	16
18571	2023-06-09T14:25:03	43.5	18
18572	2023-06-09T14:35:03	41.8	19
18573	2023-06-09T14:45:03	43.7	17
18574	2023-06-09T14:55:03	43.4	17
18575	2023-06-09T15:05:03	43.5	17
18576	2023-06-09T15:15:03	43.9	16
18577	2023-06-09T15:25:03	44.1	16
18578	2023-06-09T15:35:03	44.5	16
18579	2023-06-09T15:45:03	44.1	15.5
18580	2023-06-09T15:55:03	44	15.5
18581	2023-06-09T16:05:03	44.2	15
18582	2023-06-09T16:15:03	44.5	15.5
18583	2023-06-09T16:25:03	42.9	16
18584	2023-06-09T16:35:03	43.7	16
18585	2023-06-09T16:45:03	43.3	15.5
18586	2023-06-09T16:55:03	42.7	16.5
18587	2023-06-09T17:05:03	42	17
18588	2023-06-09T17:15:03	41.9	16
18589	2023-06-09T17:25:03	41.7	16.5
18590	2023-06-09T17:35:03	40.9	17.5
18591	2023-06-09T17:45:03	39.9	18
18592	2023-06-09T17:55:03	39.1	19.5
18593	2023-06-09T18:05:03	37.8	20.5
18594	2023-06-09T18:15:03	37.3	21.5
18595	2023-06-09T18:25:03	35.6	22.5
18596	2023-06-09T18:35:03	34.8	24.5
18597	2023-06-09T18:45:03	34	25.5
18598	2023-06-09T18:55:03	32.7	27.5
18599	2023-06-09T19:05:03	31.1	30.5
18600	2023-06-09T19:15:03	29.7	33
18601	2023-06-09T19:25:03	28.9	34.5
18602	2023-06-09T19:35:03	28.1	37
18603	2023-06-09T19:45:03	27.6	38.5
18604	2023-06-09T19:55:03	27	39.5
18605	2023-06-09T20:05:03	26.6	41
18606	2023-06-09T20:15:03	26.1	41.5
18607	2023-06-09T20:25:03	25.6	42.5
18608	2023-06-09T20:35:03	25.1	44
18609	2023-06-09T20:45:03	24.7	44.5
18610	2023-06-09T20:55:03	24.2	45.5
18611	2023-06-09T21:05:03	23.8	47.5
18612	2023-06-09T21:15:03	23.5	48
18613	2023-06-09T21:25:03	23.1	49
18614	2023-06-09T21:35:03	22.6	50.5
18615	2023-06-09T21:45:03	22.3	51
18616	2023-06-09T21:55:03	22	52
18617	2023-06-09T22:05:03	21.8	52
18618	2023-06-09T22:15:02	21.4	53
18619	2023-06-09T22:25:02	21.2	55
18620	2023-06-09T22:35:02	20.7	56
18621	2023-06-09T22:45:02	20.6	56
18622	2023-06-09T22:55:02	20.4	56.5
18623	2023-06-09T23:05:02	20.1	57
18624	2023-06-09T23:15:02	19.9	57.5
18625	2023-06-09T23:25:02	19.8	58
18626	2023-06-09T23:35:02	19.5	59.5
18627	2023-06-09T23:45:02	19.1	60.5
18628	2023-06-09T23:55:02	18.9	61
18629	2023-06-10T00:05:02	18.7	61.5
18630	2023-06-10T00:15:02	18.5	62.5
18631	2023-06-10T00:25:02	18.2	63
18632	2023-06-10T00:35:02	18	63
18633	2023-06-10T00:45:02	17.9	63
18634	2023-06-10T00:55:02	17.7	63.5
18635	2023-06-10T01:05:02	17.6	64
18636	2023-06-10T01:15:02	17.4	64.5
18637	2023-06-10T01:25:02	17.4	65.5
18638	2023-06-10T01:35:02	17.2	65.5
18639	2023-06-10T01:45:02	17.1	66
18640	2023-06-10T01:55:02	17	65.5
18641	2023-06-10T02:05:02	16.8	66
18642	2023-06-10T02:15:02	16.7	66.5
18643	2023-06-10T02:25:02	16.5	67.5
18644	2023-06-10T02:35:02	16.5	68
18645	2023-06-10T02:45:02	16.3	68
18646	2023-06-10T02:55:02	16.6	67
18647	2023-06-10T03:05:02	16.4	68
18648	2023-06-10T03:15:02	16.2	68.5
18649	2023-06-10T03:25:02	15.9	69.5
18650	2023-06-10T03:35:02	16	70
18651	2023-06-10T03:45:02	16	70
18652	2023-06-10T03:55:02	16	70.5
18653	2023-06-10T04:05:02	15.7	71
18654	2023-06-10T04:15:02	15.7	71
18655	2023-06-10T04:25:02	15.8	71
18656	2023-06-10T04:35:02	16	70.5
18657	2023-06-10T04:45:02	16.3	70.5
18658	2023-06-10T04:55:02	16.5	70.5
18659	2023-06-10T05:05:02	16.8	70
18660	2023-06-10T05:15:02	17	69
18661	2023-06-10T05:25:02	17.3	68.5
18662	2023-06-10T05:35:02	17.6	68
18663	2023-06-10T05:45:02	17.8	67.5
18664	2023-06-10T05:55:02	18	67
18665	2023-06-10T06:05:02	18.2	67
18666	2023-06-10T06:15:02	18.5	67
18667	2023-06-10T06:25:02	18.9	66.5
18668	2023-06-10T06:35:02	19.2	64
18669	2023-06-10T06:45:02	19.5	64.5
18670	2023-06-10T06:55:02	19.7	64
18671	2023-06-10T07:05:02	20	63.5
18672	2023-06-10T07:15:02	20.3	63.5
18673	2023-06-10T07:25:02	20.5	62.5
18674	2023-06-10T07:35:02	20.9	62.5
18675	2023-06-10T07:45:02	21.1	61.5
18676	2023-06-10T07:55:02	21.6	61
18677	2023-06-10T08:05:02	21.7	59
18678	2023-06-10T08:15:02	22	59
18679	2023-06-10T08:25:02	22.3	58
18680	2023-06-10T08:35:02	22.7	56.5
18681	2023-06-10T08:45:02	23	54.5
18682	2023-06-10T08:55:02	23.4	53
18683	2023-06-10T09:05:01	23.6	52.5
18684	2023-06-10T09:15:02	23.8	52.5
18685	2023-06-10T09:25:01	24.1	51.5
18686	2023-06-10T09:35:01	24.3	50
18687	2023-06-10T09:45:01	24.5	47.5
18688	2023-06-10T09:55:01	24.8	47
18689	2023-06-10T10:05:01	25.1	47.5
18690	2023-06-10T10:15:01	25.3	46
18691	2023-06-10T10:25:01	25.6	45.5
18692	2023-06-10T10:35:01	25.8	45
18693	2023-06-10T10:45:01	26.3	45.5
18694	2023-06-10T10:55:01	26.5	45
18695	2023-06-10T11:05:01	27.4	43.5
18696	2023-06-10T11:15:01	27.6	44
18697	2023-06-10T11:25:01	27.9	42
18698	2023-06-10T11:35:01	28.2	40.5
18699	2023-06-10T11:45:01	28.4	41.5
18700	2023-06-10T11:55:01	29	38.5
18701	2023-06-10T12:05:01	33.6	32
18702	2023-06-10T12:15:01	36.4	27
18703	2023-06-10T12:25:02	37.9	24.5
18704	2023-06-10T12:35:01	38.8	24
18705	2023-06-10T12:45:01	37.5	25.5
18706	2023-06-10T12:55:01	40.6	22.5
18707	2023-06-10T13:05:01	39.9	22.5
18708	2023-06-10T13:15:01	42.5	19.5
18709	2023-06-10T13:25:01	40.6	21
18710	2023-06-10T13:35:01	40.5	20.5
18711	2023-06-10T13:45:01	40.8	21
18712	2023-06-10T14:05:01	42.3	18.5
18713	2023-06-10T14:15:01	42.7	18
18714	2023-06-10T14:25:01	43.5	17.5
18715	2023-06-10T14:35:01	42.1	19
18716	2023-06-10T14:45:01	44.3	17
18717	2023-06-10T14:55:01	46	16
18718	2023-06-10T15:05:01	45.1	16.5
18719	2023-06-10T15:15:01	45.2	16.5
18720	2023-06-10T15:25:01	45.1	16
18721	2023-06-10T15:35:01	44.5	17
18722	2023-06-10T15:45:01	45.1	16.5
18723	2023-06-10T15:55:01	44.5	17
18724	2023-06-10T16:05:01	44.5	17
18725	2023-06-10T16:15:01	43.5	17
18726	2023-06-10T16:25:01	43.1	18
18727	2023-06-10T16:35:01	43.2	17
18728	2023-06-10T16:45:01	43.4	17
18729	2023-06-10T16:55:01	43.6	17
18730	2023-06-10T17:05:01	43.3	17
18731	2023-06-10T17:15:01	43.1	17
18732	2023-06-10T17:25:01	42.4	17.5
18733	2023-06-10T17:35:01	41.7	18
18734	2023-06-10T17:45:01	40.6	19.5
18735	2023-06-10T17:55:01	39.5	20.5
18736	2023-06-10T18:05:01	38.5	21.5
18737	2023-06-10T18:15:01	38.3	22.5
18738	2023-06-10T18:25:01	37	24
18739	2023-06-10T18:35:01	34.1	27.5
18740	2023-06-10T18:45:01	32.6	30
18741	2023-06-10T18:55:01	33.2	30
18742	2023-06-10T19:05:01	31.5	32.5
18743	2023-06-10T19:15:01	30.4	35
18744	2023-06-10T19:25:01	29.7	36.5
18745	2023-06-10T19:35:01	29	37
18746	2023-06-10T19:45:01	28.6	38.5
18747	2023-06-10T19:55:01	28	39.5
18748	2023-06-10T20:05:01	27.7	40.5
18749	2023-06-10T20:15:01	27.3	41.5
18750	2023-06-10T20:25:01	26.9	42.5
18751	2023-06-10T20:35:00	26.4	43.5
18752	2023-06-10T20:45:01	26.1	44
18753	2023-06-10T20:55:00	25.8	44
18754	2023-06-10T21:05:00	25.5	45.5
18755	2023-06-10T21:15:00	25.1	45.5
18756	2023-06-10T21:25:00	24.9	45.5
18757	2023-06-10T21:35:01	24.7	46
18758	2023-06-10T21:45:00	24.5	46.5
18759	2023-06-10T21:55:00	24.3	47
18760	2023-06-10T22:05:00	24.1	48
18761	2023-06-10T22:15:00	23.9	48.5
18762	2023-06-10T22:25:00	23.6	49.5
18763	2023-06-10T22:35:00	23.4	50.5
18764	2023-06-10T22:45:00	23.1	51.5
18765	2023-06-10T22:55:00	22.9	52
18766	2023-06-10T23:05:00	22.8	52.5
18767	2023-06-10T23:15:00	22.6	53
18768	2023-06-10T23:25:00	22.4	53.5
18769	2023-06-10T23:35:00	22.3	54.5
18770	2023-06-10T23:45:00	22	55.5
18771	2023-06-10T23:55:00	21.9	56.5
18772	2023-06-11T00:05:00	21.7	57.5
18773	2023-06-11T00:15:00	21.5	58
18774	2023-06-11T00:25:00	21.4	59
18775	2023-06-11T00:35:00	21.2	59.5
18776	2023-06-11T00:45:00	21	61
18777	2023-06-11T00:55:00	20.8	61.5
18778	2023-06-11T01:05:00	20.5	62.5
18779	2023-06-11T01:15:00	20.5	63
18780	2023-06-11T01:25:00	20.2	63.5
18781	2023-06-11T01:35:00	20.2	64.5
18782	2023-06-11T01:45:00	19.8	65.5
18783	2023-06-11T01:55:00	19.5	66.5
18784	2023-06-11T02:05:00	19.1	68
18785	2023-06-11T02:15:00	19	68.5
18786	2023-06-11T02:25:00	18.8	69
18787	2023-06-11T02:35:00	18.6	70
18788	2023-06-11T02:45:00	18.4	71
18789	2023-06-11T02:55:00	18.4	71.5
18790	2023-06-11T03:05:00	18.2	71.5
18791	2023-06-11T03:15:00	18.2	72.5
18792	2023-06-11T03:25:00	18	73
18793	2023-06-11T03:35:00	17.9	73.5
18794	2023-06-11T03:45:00	17.6	74.5
18795	2023-06-11T03:55:00	17.8	74.5
18796	2023-06-11T04:05:00	17.7	75
18797	2023-06-11T04:15:00	17.7	75.5
18798	2023-06-11T04:25:00	17.9	76
18799	2023-06-11T04:35:00	18.1	75
18800	2023-06-11T04:45:00	18.4	75
18801	2023-06-11T04:55:00	18.5	74.5
18802	2023-06-11T05:05:00	18.8	74
18803	2023-06-11T05:15:00	18.9	74
18804	2023-06-11T05:25:00	19.2	73.5
18805	2023-06-11T05:35:00	19.4	72.5
18806	2023-06-11T05:45:00	19.5	72
18807	2023-06-11T05:55:00	19.7	71
18808	2023-06-11T06:05:00	19.9	70.5
18809	2023-06-11T06:15:00	20.1	70
18810	2023-06-11T06:25:00	20.3	69.5
18811	2023-06-11T06:35:00	20.8	68
18812	2023-06-11T06:45:00	20.9	67
18813	2023-06-11T06:55:00	21.2	66.5
18814	2023-06-11T07:05:00	21.4	65
18815	2023-06-11T07:14:59	21.6	65
18816	2023-06-11T07:24:59	21.9	64
18817	2023-06-11T07:34:59	22.1	62
18818	2023-06-11T07:44:59	22.3	61
18819	2023-06-11T07:54:59	22.5	60
18820	2023-06-11T08:04:59	22.8	59.5
18821	2023-06-11T08:14:59	23	58
18822	2023-06-11T08:24:59	23.4	57
18823	2023-06-11T08:34:59	23.5	55
18824	2023-06-11T08:44:59	23.9	54
18825	2023-06-11T08:54:59	24.1	53.5
18826	2023-06-11T09:04:59	24.3	52.5
18827	2023-06-11T09:14:59	24.7	54.5
18828	2023-06-11T09:24:59	24.9	52.5
18829	2023-06-11T09:34:59	24.9	52
18830	2023-06-11T09:44:59	25.2	50
18831	2023-06-11T09:54:59	25.4	49
18832	2023-06-11T10:04:59	25.6	45.5
18833	2023-06-11T10:14:59	25.7	45
18834	2023-06-11T10:24:59	25.9	43
18835	2023-06-11T10:34:59	26.2	42.5
18836	2023-06-11T10:44:59	26.4	41.5
18837	2023-06-11T10:54:59	26.7	40
18838	2023-06-11T11:04:59	26.9	38
18839	2023-06-11T11:14:59	27	36.5
18840	2023-06-11T11:24:59	27.4	36
18841	2023-06-11T11:34:59	27.6	35
18842	2023-06-11T11:44:59	27.9	32
18843	2023-06-11T11:54:59	28.8	30
18844	2023-06-11T12:04:59	32.3	26
18845	2023-06-11T12:14:59	34.3	21.5
18846	2023-06-11T12:24:59	36.1	20
18847	2023-06-11T12:34:59	36.8	18
18848	2023-06-11T12:44:59	38.2	17
18849	2023-06-11T12:54:59	39.1	16
18850	2023-06-11T13:04:59	39.5	15.5
18851	2023-06-11T13:14:59	40.7	15.5
18852	2023-06-11T13:24:59	41.3	14.5
18853	2023-06-11T13:34:59	42	14.5
18854	2023-06-11T13:44:59	41.9	14.5
18855	2023-06-11T13:54:59	43.3	13.5
18856	2023-06-11T14:04:59	43.5	14
18857	2023-06-11T14:24:59	44.6	13
18858	2023-06-11T14:34:59	45.2	12.5
18859	2023-06-11T14:44:59	45.2	13
18860	2023-06-11T14:54:59	46.2	12
18861	2023-06-11T15:04:59	46.1	12.5
18862	2023-06-11T15:14:59	45.9	12.5
18863	2023-06-11T15:24:59	45.6	12.5
18864	2023-06-11T15:34:59	45.1	13
18865	2023-06-11T15:44:59	45.3	13
18866	2023-06-11T15:54:59	46.1	12
18867	2023-06-11T16:04:59	46.2	12
18868	2023-06-11T16:24:59	45.2	12
18869	2023-06-11T16:34:59	44.5	12.5
18870	2023-06-11T16:44:59	44.6	12
18871	2023-06-11T16:54:59	44.4	12
18872	2023-06-11T17:04:59	43.2	13
18873	2023-06-11T17:14:59	42.4	13.5
18874	2023-06-11T17:24:59	42.7	14
18875	2023-06-11T17:34:59	41.7	14
18876	2023-06-11T17:44:59	40.2	15
18877	2023-06-11T17:54:59	39.5	15.5
18878	2023-06-11T18:05:17	39.2	16.5
18879	2023-06-11T18:14:59	38.2	17
18880	2023-06-11T18:24:59	37.3	18.5
18881	2023-06-11T18:34:59	34.2	21.5
18882	2023-06-11T18:44:59	32.6	24.5
18883	2023-06-11T18:54:58	31.7	25.5
18884	2023-06-11T19:04:58	31.1	26
18885	2023-06-11T19:14:58	30	28.5
18886	2023-06-11T19:24:58	29.3	30.5
18887	2023-06-11T19:34:58	28.6	31.5
18888	2023-06-11T19:44:58	27.8	32.5
18889	2023-06-11T19:54:58	27.1	33.5
18890	2023-06-11T20:04:58	26.7	34
18891	2023-06-11T20:14:58	26.1	34.5
18892	2023-06-11T20:24:58	25.7	34.5
18893	2023-06-11T20:34:58	25.4	36
18894	2023-06-11T20:44:58	24.8	38.5
18895	2023-06-11T20:54:58	24.3	40.5
18896	2023-06-11T21:04:58	23.9	42
18897	2023-06-11T21:14:58	23.8	42.5
18898	2023-06-11T21:24:58	23.5	41.5
18899	2023-06-11T21:34:58	23.2	43
18900	2023-06-11T21:44:58	22.8	43.5
18901	2023-06-11T21:54:58	22.4	45
18902	2023-06-11T22:04:58	22	46.5
18903	2023-06-11T22:14:58	21.7	46.5
18904	2023-06-11T22:24:58	21.4	47.5
18905	2023-06-11T22:34:58	21.1	48.5
18906	2023-06-11T22:44:58	20.7	50
18907	2023-06-11T22:54:58	20.5	50.5
18908	2023-06-11T23:04:58	20.2	51.5
18909	2023-06-11T23:14:58	19.8	53
18910	2023-06-11T23:24:58	19.4	54
18911	2023-06-11T23:34:58	19.1	54.5
18912	2023-06-11T23:44:58	19	55
18913	2023-06-11T23:54:58	18.9	56
18914	2023-06-12T00:04:58	18.5	57.5
18915	2023-06-12T00:14:58	18.5	58
18916	2023-06-12T00:24:58	18.3	58
18917	2023-06-12T00:34:58	18.2	58
18918	2023-06-12T00:44:58	18.5	55.5
18919	2023-06-12T00:54:58	18.7	54
18920	2023-06-12T01:04:58	18.7	53
18921	2023-06-12T01:14:58	18.8	53
18922	2023-06-12T01:24:58	18.8	52.5
18923	2023-06-12T01:34:58	18.6	53
18924	2023-06-12T01:44:58	18.5	53.5
18925	2023-06-12T01:54:58	18.5	54
18926	2023-06-12T02:04:58	18.1	56
18927	2023-06-12T02:14:58	17.7	58
18928	2023-06-12T02:24:58	17	61
18929	2023-06-12T02:34:58	16.6	62
18930	2023-06-12T02:44:58	16.4	63
18931	2023-06-12T02:54:58	16.4	63
18932	2023-06-12T03:04:58	16.4	63.5
18933	2023-06-12T03:14:58	16.1	64
18934	2023-06-12T03:24:58	16.1	65
18935	2023-06-12T03:34:58	15.8	65
18936	2023-06-12T03:44:58	16	64.5
18937	2023-06-12T03:54:58	15.7	66
18938	2023-06-12T04:04:58	15.7	66.5
18939	2023-06-12T04:14:58	15.8	66.5
18940	2023-06-12T04:24:58	15.9	66
18941	2023-06-12T04:34:58	16.2	65
18942	2023-06-12T04:44:58	16.5	63.5
18943	2023-06-12T04:54:58	16.6	64.5
18944	2023-06-12T05:04:58	16.6	64
18945	2023-06-12T05:14:58	17	63.5
18946	2023-06-12T05:24:58	17.1	63.5
18947	2023-06-12T05:34:58	17.5	61.5
18948	2023-06-12T05:44:57	17.9	61.5
18949	2023-06-12T05:54:57	18.1	61.5
18950	2023-06-12T06:04:57	18.3	62
18951	2023-06-12T06:14:57	18.6	61
18952	2023-06-12T06:24:57	18.8	60.5
18953	2023-06-12T06:34:57	19.2	60.5
18954	2023-06-12T06:44:57	19.5	60
18955	2023-06-12T06:54:57	19.8	59.5
18956	2023-06-12T07:04:57	20.1	57
18957	2023-06-12T07:14:57	20.3	56.5
18958	2023-06-12T07:24:57	20.6	56
18959	2023-06-12T07:34:57	20.8	55
18960	2023-06-12T07:44:57	21.1	55
18961	2023-06-12T07:54:58	21.4	53.5
18962	2023-06-12T08:04:57	21.6	53.5
18963	2023-06-12T08:14:57	21.8	52.5
18964	2023-06-12T08:24:57	22.1	52.5
18965	2023-06-12T08:34:57	22.4	52
18966	2023-06-12T08:44:57	22.6	50
18967	2023-06-12T08:54:57	22.8	49
18968	2023-06-12T09:04:57	23.1	48.5
18969	2023-06-12T09:14:57	23.4	45.5
18970	2023-06-12T09:24:57	23.6	44
18971	2023-06-12T09:34:57	23.9	40
18972	2023-06-12T09:44:57	24.3	39
18973	2023-06-12T09:54:57	24.5	39.5
18974	2023-06-12T10:04:57	24.6	38
18975	2023-06-12T10:14:57	24.9	36
18976	2023-06-12T10:24:57	25.1	37
18977	2023-06-12T10:34:57	25.3	38.5
18978	2023-06-12T10:44:57	25.7	38
18979	2023-06-12T10:54:57	25.9	38
18980	2023-06-12T11:04:57	26	38
18981	2023-06-12T11:14:57	26.7	34
18982	2023-06-12T11:24:57	27.1	33.5
18983	2023-06-12T11:34:57	27.3	34
18984	2023-06-12T12:04:57	31.8	25.5
18985	2023-06-12T12:14:57	34	23
18986	2023-06-12T12:34:57	37	20
18987	2023-06-12T12:44:57	38.6	18
18988	2023-06-12T12:54:57	39.4	17
18989	2023-06-12T13:04:57	40.2	16.5
18990	2023-06-12T13:14:57	39.2	17.5
18991	2023-06-12T13:24:57	40.4	17
18992	2023-06-12T13:34:57	41.5	16
18993	2023-06-12T13:44:57	41.5	15.5
18994	2023-06-12T13:54:57	41.7	16
18995	2023-06-12T14:04:57	43	15
18996	2023-06-12T14:14:57	43.6	14.5
18997	2023-06-12T14:24:57	40.4	16
18998	2023-06-12T14:34:57	42	15
18999	2023-06-12T14:44:57	43.9	14.5
19000	2023-06-12T14:54:57	43.6	14
19001	2023-06-12T15:04:57	44.9	13.5
19002	2023-06-12T15:14:57	43.5	14
19003	2023-06-12T15:24:57	45.2	13.5
19004	2023-06-12T15:34:57	45.8	13
19005	2023-06-12T15:44:57	44.9	13
19006	2023-06-12T15:54:57	44.4	13.5
19007	2023-06-12T16:04:57	43.7	13.5
19008	2023-06-12T16:14:57	41.9	14.5
19009	2023-06-12T16:24:57	42	15
19010	2023-06-12T16:34:57	42.1	14
19011	2023-06-12T16:44:57	41.2	15
19012	2023-06-12T16:54:57	40.4	15.5
19013	2023-06-12T17:04:57	40.6	15.5
19014	2023-06-12T17:14:57	40.3	16
19015	2023-06-12T17:24:56	38.9	16.5
19016	2023-06-12T17:34:56	38	17
19017	2023-06-12T17:44:56	38.4	17
19018	2023-06-12T17:54:56	37.6	18
19019	2023-06-12T18:04:56	37.3	18.5
19020	2023-06-12T18:14:56	36	19.5
19021	2023-06-12T18:24:56	34.6	20.5
19022	2023-06-12T18:34:56	31.6	24
19023	2023-06-12T18:44:56	30.2	25.5
19024	2023-06-12T18:54:56	30.6	25
19025	2023-06-12T19:04:56	29.3	27.5
19026	2023-06-12T19:14:56	27.9	29.5
19027	2023-06-12T19:24:57	27	30.5
19028	2023-06-12T19:34:56	26.6	31.5
19029	2023-06-12T19:44:56	26	33.5
19030	2023-06-12T19:54:56	25.6	34
19031	2023-06-12T20:04:56	25.1	34
19032	2023-06-12T20:14:56	24.6	35
19033	2023-06-12T20:24:56	24.3	35.5
19034	2023-06-12T20:34:56	23.9	36.5
19035	2023-06-12T20:44:56	23.5	37
19036	2023-06-12T20:54:56	23.4	37
19037	2023-06-12T21:04:56	23	37.5
19038	2023-06-12T21:14:56	22.8	38
19039	2023-06-12T21:24:56	22.4	39.5
19040	2023-06-12T21:34:56	22	40.5
19041	2023-06-12T21:44:56	21.6	43
19042	2023-06-12T21:54:56	21.3	44.5
19043	2023-06-12T22:04:56	21.1	41
19044	2023-06-12T22:14:56	21.2	39
19045	2023-06-12T22:24:56	21	39.5
19046	2023-06-12T22:34:56	20.9	39.5
19047	2023-06-12T22:54:56	20.5	40
19048	2023-06-12T23:04:56	20.3	40
19049	2023-06-12T23:14:56	20	40.5
19050	2023-06-12T23:24:56	20	39.5
19051	2023-06-12T23:34:56	19.9	39.5
19052	2023-06-12T23:44:56	19.7	39.5
19053	2023-06-12T23:54:56	19.5	40.5
19054	2023-06-13T00:04:56	19.4	41
19055	2023-06-13T00:14:56	19.2	41
19056	2023-06-13T00:24:56	19.1	41.5
19057	2023-06-13T00:34:56	19	41.5
19058	2023-06-13T00:44:56	18.8	42.5
19059	2023-06-13T00:54:56	18.6	42.5
19060	2023-06-13T01:04:56	18.5	43
19061	2023-06-13T01:14:56	18.4	43.5
19062	2023-06-13T01:24:56	18.1	44
19063	2023-06-13T01:34:56	17.9	45
19064	2023-06-13T01:44:56	17.7	46
19065	2023-06-13T01:54:56	17.5	46
19066	2023-06-13T02:04:56	17.4	46.5
19067	2023-06-13T02:14:56	17	47.5
19068	2023-06-13T02:24:56	16.9	48
19069	2023-06-13T02:34:56	16.7	49
19070	2023-06-13T02:44:56	16.6	49
19071	2023-06-13T02:54:56	16.5	50
19072	2023-06-13T03:04:56	16.3	50.5
19073	2023-06-13T03:14:56	16.1	51.5
19074	2023-06-13T03:24:55	16.1	51.5
19075	2023-06-13T03:34:55	16	52
19076	2023-06-13T03:44:55	16	52.5
19077	2023-06-13T03:54:55	15.9	53
19078	2023-06-13T04:04:55	15.8	53.5
19079	2023-06-13T04:14:55	15.8	54
19080	2023-06-13T04:24:55	15.7	54.5
19081	2023-06-13T04:34:55	15.7	55
19082	2023-06-13T04:44:55	15.7	55
19083	2023-06-13T04:54:55	15.8	55
19084	2023-06-13T05:04:55	15.9	55
19085	2023-06-13T05:14:55	16	55
19086	2023-06-13T05:24:55	16.1	55.5
19087	2023-06-13T05:34:55	16.3	55.5
19088	2023-06-13T05:44:55	16.4	56
19089	2023-06-13T05:54:55	16.7	55.5
19090	2023-06-13T06:04:55	16.9	54.5
19091	2023-06-13T06:14:55	17.2	52.5
19092	2023-06-13T06:24:55	17.3	52.5
19093	2023-06-13T06:34:55	17.4	51.5
19094	2023-06-13T06:44:55	17.6	50
19095	2023-06-13T06:54:55	17.9	44
19096	2023-06-13T07:04:55	18	43.5
19097	2023-06-13T07:14:55	18.5	42.5
19098	2023-06-13T07:24:55	18.6	42
19099	2023-06-13T07:34:55	18.7	42.5
19100	2023-06-13T07:44:55	18.9	42.5
19101	2023-06-13T07:54:55	19	40.5
19102	2023-06-13T08:04:55	19.1	38.5
19103	2023-06-13T08:14:55	19.4	37.5
19104	2023-06-13T08:24:55	19.4	37
19105	2023-06-13T08:34:55	19.7	38
19106	2023-06-13T08:44:55	19.9	36.5
19107	2023-06-13T08:54:55	20.1	35
19108	2023-06-13T09:04:55	20.3	34.5
19109	2023-06-13T09:14:55	20.6	34.5
19110	2023-06-13T09:24:55	20.9	34
19111	2023-06-13T09:34:55	21	34
19112	2023-06-13T09:44:55	21.3	34
19113	2023-06-13T09:54:55	21.6	33
19114	2023-06-13T10:04:55	21.6	34
19115	2023-06-13T10:14:55	21.9	32
19116	2023-06-13T10:24:55	22.2	30.5
19117	2023-06-13T10:34:55	22.5	33
19118	2023-06-13T10:44:55	22.8	31.5
19119	2023-06-13T10:54:55	23.2	32
19120	2023-06-13T11:04:55	23.6	30.5
19121	2023-06-13T11:14:55	23.8	31.5
19122	2023-06-13T11:24:55	24.3	30.5
19123	2023-06-13T11:34:55	24.3	30
19124	2023-06-13T11:44:55	25	28.5
19125	2023-06-13T11:54:55	25.9	27
19126	2023-06-13T12:04:55	29.6	23.5
19127	2023-06-13T12:14:55	31.7	20
19128	2023-06-13T12:24:55	33.2	19
19129	2023-06-13T12:34:55	34.7	18
19130	2023-06-13T12:44:55	35.6	15.5
19131	2023-06-13T12:54:55	36.3	15.5
19132	2023-06-13T13:04:55	36.8	14.5
19133	2023-06-13T13:14:55	37.7	14.5
19134	2023-06-13T13:24:55	37.6	14.5
19135	2023-06-13T13:34:55	38.2	14
19136	2023-06-13T13:44:55	39	13.5
19137	2023-06-13T13:54:55	38.7	14
19138	2023-06-13T14:04:55	38.1	14
19139	2023-06-13T14:14:55	40.3	13.5
19140	2023-06-13T14:24:55	40.9	12
19141	2023-06-13T14:34:55	40.1	12.5
19142	2023-06-13T14:44:55	40.4	13
19143	2023-06-13T14:54:55	39.4	13
19144	2023-06-13T15:04:55	42	11.5
19145	2023-06-13T15:14:55	41	12
19146	2023-06-13T15:24:54	41.1	12.5
19147	2023-06-13T15:34:54	41.1	12
19148	2023-06-13T15:44:54	42	11.5
19149	2023-06-13T15:54:54	41.6	11.5
19150	2023-06-13T16:04:54	39.7	13.5
19151	2023-06-13T16:14:54	40.6	12
19152	2023-06-13T16:24:54	41.3	11.5
19153	2023-06-13T16:34:54	40.3	13
19154	2023-06-13T16:44:54	40	13.5
19155	2023-06-13T16:54:54	38.3	13
19156	2023-06-13T17:04:54	38.4	14
19157	2023-06-13T17:24:54	36.9	13.5
19158	2023-06-13T17:34:54	36.6	14.5
19159	2023-06-13T17:44:54	35.7	15
19160	2023-06-13T17:54:54	35.6	15.5
19161	2023-06-13T18:04:54	34.7	16.5
19162	2023-06-13T18:14:54	34.1	16.5
19163	2023-06-13T18:24:54	33.4	17
19164	2023-06-13T18:34:54	30.1	20.5
19165	2023-06-13T18:44:54	28.6	22
19166	2023-06-13T18:54:54	28.6	22.5
19167	2023-06-13T19:04:54	27.7	24.5
19168	2023-06-13T19:14:54	26.3	25.5
19169	2023-06-13T19:24:54	25.9	28.5
19170	2023-06-13T19:34:54	25.2	29
19171	2023-06-13T19:44:54	24.4	29.5
19172	2023-06-13T19:54:54	23.9	30.5
19173	2023-06-13T20:04:54	23.3	32.5
19174	2023-06-13T20:14:54	22.9	34
19175	2023-06-13T20:24:54	22.6	35.5
19176	2023-06-13T20:34:54	22.1	37.5
19177	2023-06-13T20:44:54	21.5	38
19178	2023-06-13T20:54:54	21.2	39
19179	2023-06-13T21:04:54	20.8	40.5
19180	2023-06-13T21:14:54	20.4	41.5
19181	2023-06-13T21:24:54	20	42.5
19182	2023-06-13T21:34:54	19.5	42
19183	2023-06-13T21:44:54	19.2	43.5
19184	2023-06-13T21:54:54	18.8	44
19185	2023-06-13T22:04:54	18.7	45
19186	2023-06-13T22:14:54	18.4	45
19187	2023-06-13T22:24:54	18.1	45.5
19188	2023-06-13T22:34:54	17.9	45.5
19189	2023-06-13T22:44:54	17.6	46.5
19190	2023-06-13T22:54:54	17.3	47.5
19191	2023-06-13T23:04:54	16.9	48
19192	2023-06-13T23:14:54	16.7	48.5
19193	2023-06-13T23:24:54	16.5	48.5
19194	2023-06-13T23:34:54	16.3	49
19195	2023-06-13T23:44:54	16.1	49.5
19196	2023-06-13T23:54:54	15.8	49.5
19197	2023-06-14T00:04:54	15.6	50.5
19198	2023-06-14T00:14:54	15.5	50
19199	2023-06-14T00:24:54	15.5	50
19200	2023-06-14T00:34:54	15.2	51
19201	2023-06-14T00:44:54	14.8	52
19202	2023-06-14T00:54:54	14.8	52
19203	2023-06-14T01:04:54	14.4	53
19204	2023-06-14T01:14:54	14.1	54
19205	2023-06-14T01:24:54	13.9	55
19206	2023-06-14T01:34:54	13.7	56
19207	2023-06-14T01:44:54	13.8	55.5
19208	2023-06-14T01:54:54	13.6	55.5
19209	2023-06-14T02:04:53	13.4	57
19210	2023-06-14T02:14:53	13.4	57
19211	2023-06-14T02:24:53	13.3	56.5
19212	2023-06-14T02:34:53	13.2	57
19213	2023-06-14T02:44:53	13.3	56.5
19214	2023-06-14T02:54:53	13	57.5
19215	2023-06-14T03:04:53	12.8	58.5
19216	2023-06-14T03:14:53	12.7	59
19217	2023-06-14T03:24:53	12.5	60
19218	2023-06-14T03:34:53	12.3	60
19219	2023-06-14T03:44:53	12.5	59.5
19220	2023-06-14T03:54:53	12.5	59.5
19221	2023-06-14T04:04:53	12.5	60
19222	2023-06-14T04:14:53	12.6	59.5
19223	2023-06-14T04:24:53	12.8	59
19224	2023-06-14T04:34:53	12.7	59.5
19225	2023-06-14T04:44:53	12.8	60
19226	2023-06-14T04:54:53	13	60
19227	2023-06-14T05:04:53	13.2	59.5
19228	2023-06-14T05:14:53	13.5	59.5
19229	2023-06-14T05:24:53	13.6	60.5
19230	2023-06-14T05:34:53	13.8	61
19231	2023-06-14T05:44:53	14.2	61.5
19232	2023-06-14T05:54:53	14.4	62
19233	2023-06-14T06:04:53	14.8	61.5
19234	2023-06-14T06:14:53	15.2	61
19235	2023-06-14T06:24:53	15.5	60
19236	2023-06-14T06:34:53	15.9	58
19237	2023-06-14T06:44:53	16.4	56
19238	2023-06-14T06:54:53	16.5	55.5
19239	2023-06-14T07:04:53	16.9	55
19240	2023-06-14T07:14:53	17.1	55
19241	2023-06-14T07:24:53	17.4	55.5
19242	2023-06-14T07:34:53	17.7	54.5
19243	2023-06-14T07:44:53	18.1	53
19244	2023-06-14T07:54:53	18.3	52
19245	2023-06-14T08:04:53	18.5	52.5
19246	2023-06-14T08:14:53	18.7	52.5
19247	2023-06-14T08:24:53	19	51
19248	2023-06-14T08:34:53	19.4	49
19249	2023-06-14T08:44:53	19.6	47.5
19250	2023-06-14T08:54:53	19.8	49
19251	2023-06-14T09:04:53	20.2	47
19252	2023-06-14T09:14:53	20.5	46.5
19253	2023-06-14T09:24:53	20.7	45.5
19254	2023-06-14T09:34:53	21	45.5
19255	2023-06-14T09:44:53	21.3	44
19256	2023-06-14T09:54:53	21.6	42
19257	2023-06-14T10:04:53	21.9	39
19258	2023-06-14T10:14:53	22.1	40.5
19259	2023-06-14T10:24:53	22.3	39.5
19260	2023-06-14T10:34:53	22.7	36
19261	2023-06-14T10:44:53	22.7	37.5
19262	2023-06-14T10:54:53	23.4	36.5
19263	2023-06-14T11:04:53	23.4	35
19264	2023-06-14T11:14:53	23.8	33.5
19265	2023-06-14T11:24:53	23.6	32.5
19266	2023-06-14T11:34:53	24.1	32.5
19267	2023-06-14T11:44:53	25.1	32
19268	2023-06-14T11:54:53	26.5	30
19269	2023-06-14T12:04:53	30.3	25
19270	2023-06-14T12:14:53	34	21
19271	2023-06-14T12:24:53	33.5	21
19272	2023-06-14T12:34:53	29.8	26.5
19273	2023-06-14T12:44:53	30.6	25.5
19274	2023-06-14T12:54:53	34.6	21.5
19275	2023-06-14T13:04:53	36.3	19
19276	2023-06-14T13:14:53	38.2	18
19277	2023-06-14T13:24:53	38	18
19278	2023-06-14T13:34:52	39.9	16
19279	2023-06-14T13:44:52	40.5	16
19280	2023-06-14T13:54:52	38.7	16.5
19281	2023-06-14T14:04:52	40	15.5
19282	2023-06-14T14:14:52	40.8	15
19283	2023-06-14T14:24:52	41.5	14
19284	2023-06-14T14:34:52	42.3	13.5
19285	2023-06-14T14:44:52	42.5	13
19286	2023-06-14T14:54:52	41.6	13.5
19287	2023-06-14T15:04:52	42.6	13
19288	2023-06-14T15:14:52	43	12.5
19289	2023-06-14T15:24:52	42.6	13
19290	2023-06-14T15:34:52	43.5	12.5
19291	2023-06-14T15:44:52	43.7	12
19292	2023-06-14T15:54:52	42.2	13
19293	2023-06-14T16:04:52	41.6	13
19294	2023-06-14T16:14:52	41.4	13.5
19295	2023-06-14T16:24:52	41	14
19296	2023-06-14T16:34:52	39.9	14
19297	2023-06-14T16:44:52	39.6	14
19298	2023-06-14T16:54:52	39.7	14.5
19299	2023-06-14T17:04:52	38.5	15.5
19300	2023-06-14T17:14:52	37.9	16.5
19301	2023-06-14T17:24:52	37.5	15.5
19302	2023-06-14T17:34:52	37.7	16
19303	2023-06-14T17:54:52	35.7	18.5
19304	2023-06-14T18:04:52	34.8	19
19305	2023-06-14T18:14:52	34	20
19306	2023-06-14T18:24:52	33.2	21.5
19307	2023-06-14T18:34:52	29.8	25.5
19308	2023-06-14T18:44:52	28.4	27
19309	2023-06-14T18:54:52	29	27
19310	2023-06-14T19:04:52	27.8	28
19311	2023-06-14T19:14:52	26.3	31
19312	2023-06-14T19:24:52	25.5	33
19313	2023-06-14T19:34:52	25	35
19314	2023-06-14T19:44:52	24.4	37.5
19315	2023-06-14T19:54:52	24	39
19316	2023-06-14T20:04:52	23.5	40.5
19317	2023-06-14T20:14:52	23	41.5
19318	2023-06-14T20:24:52	22.7	41
19319	2023-06-14T20:34:52	22.3	42.5
19320	2023-06-14T20:44:52	21.9	43
19321	2023-06-14T20:54:52	21.4	44.5
19322	2023-06-14T21:04:52	21	46
19323	2023-06-14T21:14:52	20.6	47
19324	2023-06-14T21:24:52	20.2	47.5
19325	2023-06-14T21:34:52	19.9	49
19326	2023-06-14T21:44:52	19.5	49.5
19327	2023-06-14T21:54:52	19.1	50.5
19328	2023-06-14T22:04:52	18.8	52
19329	2023-06-14T22:14:52	18.5	52.5
19330	2023-06-14T22:24:52	18.2	53.5
19331	2023-06-14T22:34:52	18	54.5
19332	2023-06-14T22:44:52	17.6	56
19333	2023-06-14T22:54:52	17.4	56.5
19334	2023-06-14T23:04:52	17.3	57
19335	2023-06-14T23:14:52	17	58
19336	2023-06-14T23:24:52	16.8	59
19337	2023-06-14T23:34:52	16.7	59
19338	2023-06-14T23:44:52	16.4	59.5
19339	2023-06-14T23:54:52	16.2	60.5
19340	2023-06-15T00:04:52	15.9	61.5
19341	2023-06-15T00:14:52	15.8	61.5
19342	2023-06-15T00:24:52	15.7	61.5
19343	2023-06-15T00:34:52	15.8	61.5
19344	2023-06-15T00:44:52	15.6	62
19345	2023-06-15T00:54:51	15.5	62.5
19346	2023-06-15T01:04:51	15.3	63
19347	2023-06-15T01:14:51	15.2	63
19348	2023-06-15T01:24:51	15.1	63
19349	2023-06-15T01:34:51	15.1	63
19350	2023-06-15T01:44:51	15.1	62.5
19351	2023-06-15T01:54:51	14.9	63
19352	2023-06-15T02:04:51	14.7	63.5
19353	2023-06-15T02:14:51	14.7	64
19354	2023-06-15T02:24:51	14.5	65
19355	2023-06-15T02:34:51	14.3	65.5
19356	2023-06-15T02:44:51	14	67
19357	2023-06-15T02:54:51	14	67.5
19358	2023-06-15T03:04:51	13.8	68
19359	2023-06-15T03:14:51	13.8	68
19360	2023-06-15T03:24:51	13.8	67.5
19361	2023-06-15T03:34:51	13.8	67.5
19362	2023-06-15T03:44:51	13.7	68
19363	2023-06-15T03:54:51	13.6	68.5
19364	2023-06-15T04:04:51	13.6	69
19365	2023-06-15T04:15:10	13.4	69.5
19366	2023-06-15T04:24:51	13.2	70.5
19367	2023-06-15T04:34:51	13.2	71
19368	2023-06-15T04:44:51	13.3	71
19369	2023-06-15T04:54:51	13.4	71
19370	2023-06-15T05:04:51	13.4	71.5
19371	2023-06-15T05:14:51	13.5	72
19372	2023-06-15T05:24:51	13.7	72
19373	2023-06-15T05:34:51	14.1	71.5
19374	2023-06-15T05:44:51	14.9	69
19375	2023-06-15T05:54:51	15.4	67.5
19376	2023-06-15T06:04:51	15.5	67.5
19377	2023-06-15T06:14:51	15.6	67
19378	2023-06-15T06:24:51	16	65.5
19379	2023-06-15T06:34:51	16.3	63
19380	2023-06-15T06:44:51	16.4	63
19381	2023-06-15T06:54:51	16.7	61
19382	2023-06-15T07:04:51	17.1	59.5
19383	2023-06-15T07:14:51	17.5	59.5
19384	2023-06-15T07:24:51	17.8	58
19385	2023-06-15T07:34:51	18.1	57.5
19386	2023-06-15T07:44:51	18.2	57.5
19387	2023-06-15T07:54:51	18.6	58
19388	2023-06-15T08:04:51	18.7	56.5
19389	2023-06-15T08:14:51	19.2	56
19390	2023-06-15T08:24:51	19.4	55
19391	2023-06-15T08:34:51	19.9	54
19392	2023-06-15T08:44:51	20.2	53
19393	2023-06-15T08:54:51	20.4	53.5
19394	2023-06-15T09:04:51	20.8	51.5
19395	2023-06-15T09:14:51	21	50.5
19396	2023-06-15T09:24:51	21.4	49
19397	2023-06-15T09:34:51	21.6	48
19398	2023-06-15T09:44:51	21.9	47.5
19399	2023-06-15T09:54:51	22.1	44.5
19400	2023-06-15T10:04:51	22.5	44.5
19401	2023-06-15T10:14:51	22.8	41.5
19402	2023-06-15T10:24:51	23.2	41.5
19403	2023-06-15T10:34:51	23.2	40
19404	2023-06-15T10:44:51	23.5	39
19405	2023-06-15T10:54:51	23.7	38
19406	2023-06-15T11:04:51	24.1	37
19407	2023-06-15T11:14:51	24.3	35.5
19408	2023-06-15T11:24:51	24.6	35
19409	2023-06-15T11:34:51	25.1	34.5
19410	2023-06-15T11:44:51	25.6	32.5
19411	2023-06-15T11:54:51	26.5	30
19412	2023-06-15T12:04:51	30	25
19413	2023-06-15T12:14:51	32.7	22
19414	2023-06-15T12:24:51	35.1	19
19415	2023-06-15T12:34:51	37	17.5
19416	2023-06-15T12:44:50	37.8	17.5
19417	2023-06-15T12:54:50	34.7	20.5
19418	2023-06-15T13:04:50	38.3	16.5
19419	2023-06-15T13:14:50	40.6	15
19420	2023-06-15T13:24:50	36.9	17
19421	2023-06-15T13:34:50	36.5	18
19422	2023-06-15T13:44:50	40	15
19423	2023-06-15T13:54:50	42.7	13.5
19424	2023-06-15T14:04:50	41.9	13.5
19425	2023-06-15T14:14:50	35.3	18
19426	2023-06-15T14:24:50	33.8	20
19427	2023-06-15T14:34:50	33.5	20.5
19428	2023-06-15T14:44:50	34	19.5
19429	2023-06-15T14:54:50	32.4	21
19430	2023-06-15T15:04:50	31.1	23
19431	2023-06-15T15:14:50	30	24.5
19432	2023-06-15T15:24:50	35.6	19.5
19433	2023-06-15T15:34:50	38.5	16.5
19434	2023-06-15T15:44:50	32.7	21
19435	2023-06-15T15:54:50	39.2	16
19436	2023-06-15T16:04:50	39.7	16
19437	2023-06-15T16:14:50	39.5	16
19438	2023-06-15T16:24:50	39.2	16
19439	2023-06-15T16:34:50	40.8	15
19440	2023-06-15T16:44:50	40.2	15.5
19441	2023-06-15T16:54:50	37	17.5
19442	2023-06-15T17:04:50	39.5	16
19443	2023-06-15T17:14:50	39.1	16
19444	2023-06-15T17:24:50	38.8	16
19445	2023-06-15T17:34:50	38.2	16.5
19446	2023-06-15T17:44:50	38	17
19447	2023-06-15T17:54:50	37.1	17.5
19448	2023-06-15T18:04:50	36.7	18.5
19449	2023-06-15T18:14:50	35	19.5
19450	2023-06-15T18:24:50	34.5	20
19451	2023-06-15T18:34:50	31.4	24
19452	2023-06-15T18:44:50	29.9	26.5
19453	2023-06-15T18:54:50	30.4	27
19454	2023-06-15T19:04:50	29.2	31
19455	2023-06-15T19:14:50	27.4	34.5
19456	2023-06-15T19:24:50	26.4	37.5
19457	2023-06-15T19:34:50	25.6	37.5
19458	2023-06-15T19:44:50	24.7	40.5
19459	2023-06-15T19:54:50	24.1	49
19460	2023-06-15T20:04:50	23.6	48.5
19461	2023-06-15T20:14:50	22.9	50.5
19462	2023-06-15T20:24:50	22.4	47.5
19463	2023-06-15T20:34:50	22.1	47
19464	2023-06-15T20:44:50	21.6	46.5
19465	2023-06-15T20:54:50	21.3	47
19466	2023-06-15T21:04:50	20.9	47.5
19467	2023-06-15T21:14:50	20.6	49.5
19468	2023-06-15T21:24:50	20.2	50.5
19469	2023-06-15T21:34:50	20	50.5
19470	2023-06-15T21:44:50	19.7	51
19471	2023-06-15T21:54:50	19.5	52.5
19472	2023-06-15T22:04:50	19.4	51.5
19473	2023-06-15T22:14:50	19.2	52.5
19474	2023-06-15T22:24:50	18.9	53
19475	2023-06-15T22:34:50	18.5	54.5
19476	2023-06-15T22:44:50	18.4	55.5
19477	2023-06-15T22:54:50	18	56.5
19478	2023-06-15T23:04:50	17.9	56.5
19479	2023-06-15T23:14:49	17.5	57.5
19480	2023-06-15T23:24:49	17.4	59
19481	2023-06-15T23:34:49	17	58.5
19482	2023-06-15T23:44:49	16.8	62.5
19483	2023-06-15T23:54:49	16.4	62
19484	2023-06-16T00:04:49	16.3	62.5
19485	2023-06-16T00:14:49	16.1	63.5
19486	2023-06-16T00:24:49	16	64
19487	2023-06-16T00:34:49	15.6	66
19488	2023-06-16T00:44:49	15.1	65.5
19489	2023-06-16T00:54:49	15.1	66.5
19490	2023-06-16T01:04:49	15	67.5
19491	2023-06-16T01:14:49	14.7	68
19492	2023-06-16T01:24:49	14.6	68
19493	2023-06-16T01:34:49	14.4	69
19494	2023-06-16T01:44:49	14.3	68
19495	2023-06-16T01:54:49	14	69.5
19496	2023-06-16T02:04:49	14	70
19497	2023-06-16T02:14:49	14	70.5
19498	2023-06-16T02:24:49	13.8	70.5
19499	2023-06-16T02:34:49	13.7	71.5
19500	2023-06-16T02:44:49	13.6	71.5
19501	2023-06-16T02:54:49	13.5	72
19502	2023-06-16T03:04:49	13.3	73
19503	2023-06-16T03:14:49	13	73.5
19504	2023-06-16T03:24:49	12.9	74.5
19505	2023-06-16T03:34:49	12.8	75.5
19506	2023-06-16T03:44:49	12.7	75.5
19507	2023-06-16T03:54:49	12.7	77.5
19508	2023-06-16T04:04:49	12.7	76.5
19509	2023-06-16T04:14:49	12.8	76
19510	2023-06-16T04:24:49	12.8	76.5
19511	2023-06-16T04:34:49	12.9	75.5
19512	2023-06-16T04:44:49	13	75.5
19513	2023-06-16T04:54:49	13.2	75.5
19514	2023-06-16T05:04:49	13.5	76
19515	2023-06-16T05:14:49	13.6	74
19516	2023-06-16T05:24:49	13.9	75
19517	2023-06-16T05:34:49	14.1	77
19518	2023-06-16T05:44:49	14.7	75
19519	2023-06-16T05:54:49	14.8	75
19520	2023-06-16T06:04:49	15	76
19521	2023-06-16T06:14:49	15.2	73.5
19522	2023-06-16T06:24:49	15.6	70.5
19523	2023-06-16T06:34:49	15.9	69
19524	2023-06-16T06:44:49	16.4	65
19525	2023-06-16T06:54:49	17	62
19526	2023-06-16T07:04:49	17.3	62
19527	2023-06-16T07:14:49	17.3	61
19528	2023-06-16T07:24:49	17.6	60.5
19529	2023-06-16T07:34:49	17.8	58
19530	2023-06-16T07:44:49	18.2	57
19531	2023-06-16T07:54:49	18.7	54
19532	2023-06-16T08:04:49	19.1	54.5
19533	2023-06-16T08:14:49	19.5	52.5
19534	2023-06-16T08:24:49	19.5	53
19535	2023-06-16T08:34:49	20.1	48
19536	2023-06-16T08:44:49	20	52.5
19537	2023-06-16T08:54:49	20.3	51
19538	2023-06-16T09:04:49	20.7	46
19539	2023-06-16T09:14:49	21.4	46.5
19540	2023-06-16T09:24:49	21.5	40
19541	2023-06-16T09:34:49	22.1	37
19542	2023-06-16T09:44:49	22.4	36.5
19543	2023-06-16T09:54:49	22.6	36.5
19544	2023-06-16T10:04:49	23	35.5
19545	2023-06-16T10:14:49	23.2	33
19546	2023-06-16T10:24:49	23.5	33.5
19547	2023-06-16T10:34:49	23.9	31.5
19548	2023-06-16T10:44:49	24.2	31
19549	2023-06-16T10:54:49	24.3	31.5
19550	2023-06-16T11:04:48	24.8	31
19551	2023-06-16T11:14:48	24.8	31
19552	2023-06-16T11:24:48	24.9	31
19553	2023-06-16T11:34:48	25.7	30
19554	2023-06-16T11:44:48	26.2	31
19555	2023-06-16T11:54:48	25.7	32
19556	2023-06-16T12:04:48	26.4	31.5
19557	2023-06-16T12:14:48	29.2	28.5
19558	2023-06-16T12:24:48	29.5	26.5
19559	2023-06-16T12:34:48	30.2	26.5
19560	2023-06-16T12:44:48	30.7	23.5
19561	2023-06-16T12:54:48	32.1	21
19562	2023-06-16T13:04:48	29	25
19563	2023-06-16T13:14:48	28.4	25.5
19564	2023-06-16T13:24:48	34.4	20.5
19565	2023-06-16T13:34:48	36.2	19
19566	2023-06-16T13:44:49	36.1	17.5
19567	2023-06-16T13:54:48	39.4	16.5
19568	2023-06-16T14:04:48	41.2	14.5
19569	2023-06-16T14:14:48	42.6	13.5
19570	2023-06-16T14:24:48	42.2	13.5
19571	2023-06-16T14:34:48	41.3	14
19572	2023-06-16T14:44:48	42.2	13.5
19573	2023-06-16T15:04:48	37.8	16
19574	2023-06-16T15:14:48	39.8	13.5
19575	2023-06-16T15:24:48	39.2	14
19576	2023-06-16T15:34:48	38.1	16
19577	2023-06-16T15:44:48	41	13
19578	2023-06-16T15:54:48	41	14
19579	2023-06-16T16:04:48	40.8	13.5
19580	2023-06-16T16:14:48	40.7	14
19581	2023-06-16T16:24:48	43.3	12
19582	2023-06-16T16:34:48	41.2	13
19583	2023-06-16T16:44:48	38.5	15.5
19584	2023-06-16T16:54:48	37.8	15.5
19585	2023-06-16T17:04:48	40.8	14.5
19586	2023-06-16T17:14:48	40.3	14.5
19587	2023-06-16T17:24:48	40.2	14.5
19588	2023-06-16T17:34:48	39.4	15.5
19589	2023-06-16T17:44:48	38.5	16
19590	2023-06-16T17:54:48	37.6	17
19591	2023-06-16T18:04:48	37.4	17.5
19592	2023-06-16T18:14:48	36.5	19
19593	2023-06-16T18:24:48	35.4	20
19594	2023-06-16T18:34:48	32.2	24
19595	2023-06-16T18:44:48	32.1	23
19596	2023-06-16T18:54:48	29.9	30.5
19597	2023-06-16T19:04:48	28.9	31.5
19598	2023-06-16T19:14:48	27.6	33.5
19599	2023-06-16T19:24:48	26.8	35
19600	2023-06-16T19:34:48	26.1	35.5
19601	2023-06-16T19:44:48	25.4	36
19602	2023-06-16T19:54:48	24.8	40
19603	2023-06-16T20:04:48	24.4	41.5
19604	2023-06-16T20:14:48	23.9	42
19605	2023-06-16T20:24:48	23.3	41
19606	2023-06-16T20:34:48	23	40
19607	2023-06-16T20:44:48	23.1	40
19608	2023-06-16T20:54:48	22.9	41.5
19609	2023-06-16T21:04:48	22.8	41.5
19610	2023-06-16T21:14:48	22.2	44
19611	2023-06-16T21:24:48	21.5	45.5
19612	2023-06-16T21:34:47	21.3	45
19613	2023-06-16T21:44:47	20.9	46
19614	2023-06-16T21:54:47	20.7	47.5
19615	2023-06-16T22:04:47	20.4	48
19616	2023-06-16T22:14:47	20.2	48
19617	2023-06-16T22:24:47	20	46.5
19618	2023-06-16T22:34:47	20	48.5
19619	2023-06-16T22:44:47	19.8	49
19620	2023-06-16T22:54:47	19.6	49.5
19621	2023-06-16T23:04:47	19.6	49
19622	2023-06-16T23:14:47	19.2	50.5
19623	2023-06-16T23:24:47	19	49.5
19624	2023-06-16T23:34:47	18.8	51.5
19625	2023-06-16T23:44:47	18.5	54
19626	2023-06-16T23:54:47	18.3	53.5
19627	2023-06-17T00:04:47	17.9	53.5
19628	2023-06-17T00:14:47	17.7	54.5
19629	2023-06-17T00:24:47	17.3	57.5
19630	2023-06-17T00:34:47	17	59.5
19631	2023-06-17T00:44:47	16.9	59.5
19632	2023-06-17T00:54:47	16.6	61.5
19633	2023-06-17T01:04:47	16.2	63
19634	2023-06-17T01:14:47	16.2	64
19635	2023-06-17T01:24:47	16	64
19636	2023-06-17T01:34:47	15.8	65.5
19637	2023-06-17T01:44:47	15.5	65.5
19638	2023-06-17T01:54:47	15.4	65.5
19639	2023-06-17T02:04:47	15.1	66.5
19640	2023-06-17T02:14:47	14.9	67
19641	2023-06-17T02:24:47	14.7	67.5
19642	2023-06-17T02:34:47	14.6	68.5
19643	2023-06-17T02:44:47	14.3	69
19644	2023-06-17T02:54:47	14.2	70
19645	2023-06-17T03:04:47	14	70.5
19646	2023-06-17T03:14:47	13.7	70.5
19647	2023-06-17T03:24:47	13.8	73
19648	2023-06-17T03:34:47	13.7	74.5
19649	2023-06-17T03:44:48	13.5	74
19650	2023-06-17T03:54:47	13.5	74
19651	2023-06-17T04:04:47	13.5	73
19652	2023-06-17T04:14:47	13.5	73.5
19653	2023-06-17T04:24:47	13.5	74
19654	2023-06-17T04:34:47	13.7	73.5
19655	2023-06-17T04:44:47	13.8	74
19656	2023-06-17T04:54:47	14	74
19657	2023-06-17T05:04:47	14.2	73.5
19658	2023-06-17T05:14:47	14.5	73.5
19659	2023-06-17T05:24:47	14.8	73
19660	2023-06-17T05:34:47	15.1	71.5
19661	2023-06-17T05:44:47	15.2	70.5
19662	2023-06-17T05:54:47	15.6	68.5
19663	2023-06-17T06:04:47	15.9	68.5
19664	2023-06-17T06:14:47	16.2	67
19665	2023-06-17T06:24:47	16.5	65
19666	2023-06-17T06:35:03	16.5	64.5
19667	2023-06-17T06:44:47	16.9	64
19668	2023-06-17T06:54:47	17.3	62.5
19669	2023-06-17T07:04:47	17.6	61.5
19670	2023-06-17T07:14:47	18.4	60.5
19671	2023-06-17T07:24:47	18.5	61
19672	2023-06-17T07:34:47	19.1	58.5
19673	2023-06-17T07:44:47	19.1	58
19674	2023-06-17T07:54:47	19.6	57.5
19675	2023-06-17T08:04:47	20.1	55
19676	2023-06-17T08:14:47	20.3	53
19677	2023-06-17T08:24:47	20.7	50
19678	2023-06-17T08:34:47	21	49
19679	2023-06-17T08:44:47	20.9	49.5
19680	2023-06-17T08:54:47	21.5	48.5
19681	2023-06-17T09:04:47	21.7	47.5
19682	2023-06-17T09:14:46	22.2	45
19683	2023-06-17T09:24:46	22.6	44
19684	2023-06-17T09:34:46	22.7	43.5
19685	2023-06-17T09:44:46	23.2	41.5
19686	2023-06-17T09:54:46	23.7	41
19687	2023-06-17T10:04:46	24.2	39.5
19688	2023-06-17T10:14:46	24.5	39
19689	2023-06-17T10:24:46	24.9	37.5
19690	2023-06-17T10:34:46	24.9	37.5
19691	2023-06-17T10:45:04	25.6	31.5
19692	2023-06-17T10:54:46	25.4	32.5
19693	2023-06-17T11:04:46	25.8	28.5
19694	2023-06-17T11:14:46	26.4	27
19695	2023-06-17T11:24:46	26.4	29
19696	2023-06-17T11:34:46	26.7	27.5
19697	2023-06-17T11:44:46	27.2	28
19698	2023-06-17T11:54:46	27.9	27
19699	2023-06-17T12:04:46	30.3	23.5
19700	2023-06-17T12:14:46	32.2	20.5
19701	2023-06-17T12:24:46	34.8	19
19702	2023-06-17T12:34:46	37.3	18
19703	2023-06-17T12:44:46	37.3	17.5
19704	2023-06-17T12:54:46	36.3	18
19705	2023-06-17T13:04:47	37.8	16.5
19706	2023-06-17T13:14:46	39.4	17
19707	2023-06-17T13:24:46	38.4	16
19708	2023-06-17T13:34:46	38.2	15.5
19709	2023-06-17T13:44:46	39.3	15
19710	2023-06-17T13:54:46	41.4	18
19711	2023-06-17T14:04:46	43	13.5
19712	2023-06-17T14:24:46	42.8	14
19713	2023-06-17T14:34:46	41.7	14
19714	2023-06-17T14:44:46	41.6	14.5
19715	2023-06-17T14:54:46	43.4	12.5
19716	2023-06-17T15:04:46	44.4	15
19717	2023-06-17T15:14:46	42.6	13.5
19718	2023-06-17T15:24:46	41	13.5
19719	2023-06-17T15:34:46	39.7	14.5
19720	2023-06-17T15:44:46	38.8	15.5
19721	2023-06-17T15:54:46	36.8	16.5
19722	2023-06-17T16:04:46	36.8	17
19723	2023-06-17T16:14:46	37.4	16.5
19724	2023-06-17T16:24:46	36.9	17.5
19725	2023-06-17T16:34:46	36.2	17.5
19726	2023-06-17T16:44:46	35.1	18.5
19727	2023-06-17T16:54:46	33.8	20.5
19728	2023-06-17T17:04:46	33.7	21
19729	2023-06-17T17:14:46	35.2	19.5
19730	2023-06-17T17:24:46	34.7	19
19731	2023-06-17T17:34:46	35	18.5
19732	2023-06-17T17:44:46	35.1	20
19733	2023-06-17T17:54:46	35.7	20
19734	2023-06-17T18:04:46	34.4	24
19735	2023-06-17T18:14:46	33.7	26.5
19736	2023-06-17T18:24:46	33.3	28.5
19737	2023-06-17T18:34:46	32	29.5
19738	2023-06-17T18:44:46	30.6	31.5
19739	2023-06-17T18:54:46	29.4	33
19740	2023-06-17T19:04:46	28.4	34.5
19741	2023-06-17T19:14:46	27.8	35.5
19742	2023-06-17T19:24:46	27.1	36.5
19743	2023-06-17T19:34:46	26.3	37.5
19744	2023-06-17T19:44:46	25.8	38.5
19745	2023-06-17T19:54:45	25.2	41.5
19746	2023-06-17T20:04:45	24.8	45
19747	2023-06-17T20:14:45	24.5	46.5
19748	2023-06-17T20:24:45	24.1	47.5
19749	2023-06-17T20:34:45	23.6	47.5
19750	2023-06-17T20:44:45	23.3	50.5
19751	2023-06-17T20:54:45	22.9	45.5
19752	2023-06-17T21:04:45	22.5	46.5
19753	2023-06-17T21:14:45	22.1	45
19754	2023-06-17T21:24:45	21.7	47
19755	2023-06-17T21:34:45	21.5	50
19756	2023-06-17T21:44:45	21.1	49.5
19757	2023-06-17T21:54:45	20.8	50
19758	2023-06-17T22:04:45	20.5	50
19759	2023-06-17T22:14:45	20.3	53
19760	2023-06-17T22:24:45	19.9	52
19761	2023-06-17T22:34:45	19.7	53.5
19762	2023-06-17T22:44:45	19.4	54.5
19763	2023-06-17T22:54:45	19.2	56
19764	2023-06-17T23:04:45	18.8	56
19765	2023-06-17T23:14:45	18.6	57.5
19766	2023-06-17T23:24:45	18.4	58
19767	2023-06-17T23:34:45	18.3	58.5
19768	2023-06-17T23:44:45	17.9	59
19769	2023-06-17T23:54:45	17.6	59
19770	2023-06-18T00:04:45	17.5	61
19771	2023-06-18T00:14:45	17.3	61.5
19772	2023-06-18T00:24:45	17.1	62
19773	2023-06-18T00:34:45	16.9	63.5
19774	2023-06-18T00:44:45	16.7	62.5
19775	2023-06-18T00:54:45	16.6	62.5
19776	2023-06-18T01:04:45	16.4	64
19777	2023-06-18T01:14:45	16.2	65
19778	2023-06-18T01:24:45	16.1	67
19779	2023-06-18T01:34:45	16	64
19780	2023-06-18T01:44:45	15.9	63.5
19781	2023-06-18T01:54:45	15.7	63.5
19782	2023-06-18T02:04:45	15.5	65.5
19783	2023-06-18T02:14:45	15.3	67
19784	2023-06-18T02:24:45	15.2	68
19785	2023-06-18T02:34:45	15	68.5
19786	2023-06-18T02:44:45	15	67.5
19787	2023-06-18T02:54:45	14.8	68
19788	2023-06-18T03:04:45	14.7	69
19789	2023-06-18T03:14:45	14.5	71
19790	2023-06-18T03:24:45	14.5	69
19791	2023-06-18T03:34:45	14.5	69.5
19792	2023-06-18T03:44:45	14.6	70
19793	2023-06-18T03:54:45	14.5	68.5
19794	2023-06-18T04:04:45	14.6	68.5
19795	2023-06-18T04:14:45	14.6	69.5
19796	2023-06-18T04:24:45	14.6	69.5
19797	2023-06-18T04:34:45	14.6	70
19798	2023-06-18T04:44:45	14.5	71
19799	2023-06-18T04:54:45	14.7	71.5
19800	2023-06-18T05:14:45	15	70.5
19801	2023-06-18T05:24:45	15.4	69
19802	2023-06-18T05:34:45	15.7	69.5
19803	2023-06-18T05:44:45	15.9	68
19804	2023-06-18T05:54:45	16.3	66
19805	2023-06-18T06:04:45	16.6	65
19806	2023-06-18T06:14:45	17	62.5
19807	2023-06-18T06:24:45	17.4	62.5
19808	2023-06-18T06:34:45	17.6	61
19809	2023-06-18T06:44:45	18.1	61.5
19810	2023-06-18T06:54:45	18.5	60
19811	2023-06-18T07:14:45	19.3	55
19812	2023-06-18T07:24:45	20	53.5
19813	2023-06-18T07:34:45	20.4	53.5
19814	2023-06-18T07:44:44	20.8	53
19815	2023-06-18T07:54:44	21.1	52
19816	2023-06-18T08:04:44	21.8	50.5
19817	2023-06-18T08:24:44	21.9	45.5
19818	2023-06-18T08:34:44	22.3	45.5
19819	2023-06-18T08:44:44	22.6	44.5
19820	2023-06-18T08:54:44	23	44
19821	2023-06-18T09:04:45	23.2	44
19822	2023-06-18T09:14:44	23.3	43.5
19823	2023-06-18T09:24:44	23.7	41
19824	2023-06-18T09:34:44	24.1	41.5
19825	2023-06-18T09:44:44	24.4	40.5
19826	2023-06-18T09:54:44	24.7	39
19827	2023-06-18T10:14:44	25.5	34.5
19828	2023-06-18T10:24:44	25.8	35.5
19829	2023-06-18T10:34:44	26	36
19830	2023-06-18T10:44:44	26.2	31
19831	2023-06-18T10:54:44	26.7	32
19832	2023-06-18T11:04:44	26.9	32
19833	2023-06-18T11:14:44	27.4	31.5
19834	2023-06-18T11:24:44	27.5	31.5
19835	2023-06-18T11:34:44	28.3	31.5
19836	2023-06-18T11:44:44	28.9	31
19837	2023-06-18T11:54:44	29.7	28.5
19838	2023-06-18T12:04:44	31.3	27
19839	2023-06-18T12:14:44	35.4	22
19840	2023-06-18T12:24:44	37.4	19
19841	2023-06-18T12:34:44	37.6	19.5
19842	2023-06-18T12:44:44	40.2	17
19843	2023-06-18T12:54:44	43.3	14.5
19844	2023-06-18T13:04:44	44.4	14
19845	2023-06-18T13:14:44	42.8	15.5
19846	2023-06-18T13:24:44	40.5	16.5
19847	2023-06-18T13:34:44	38.2	18.5
19848	2023-06-18T13:44:44	38.9	18.5
19849	2023-06-18T13:54:44	39.7	17
19850	2023-06-18T14:04:44	44.1	14.5
19851	2023-06-18T14:14:44	44.2	14
19852	2023-06-18T14:24:44	42.7	14.5
19853	2023-06-18T14:34:44	40.8	16.5
19854	2023-06-18T14:44:44	40.8	16
19855	2023-06-18T14:54:44	40.9	16
19856	2023-06-18T15:04:44	43.4	14.5
19857	2023-06-18T15:14:44	43.7	14.5
19858	2023-06-18T15:24:44	46.8	12.5
19859	2023-06-18T15:34:44	48.3	11.5
19860	2023-06-18T15:44:44	47.9	12
19861	2023-06-18T15:54:44	48.8	11.5
19862	2023-06-18T16:04:44	47.7	12
19863	2023-06-18T16:14:44	46.3	13
19864	2023-06-18T16:24:44	46.9	12.5
19865	2023-06-18T16:34:44	41.3	16
19866	2023-06-18T16:44:44	39.8	16.5
19867	2023-06-18T16:54:44	38.3	18
19868	2023-06-18T17:04:44	37.8	19
19869	2023-06-18T17:14:44	37.5	20.5
19870	2023-06-18T17:24:44	36.2	21.5
19871	2023-06-18T17:34:44	35	23.5
19872	2023-06-18T17:44:44	34.3	24
19873	2023-06-18T17:54:44	33.4	25.5
19874	2023-06-18T18:04:44	32.8	26.5
19875	2023-06-18T18:14:44	32.5	27.5
19876	2023-06-18T18:24:44	32.2	28.5
19877	2023-06-18T18:34:44	31.8	30.5
19878	2023-06-18T18:44:44	31.4	33
19879	2023-06-18T18:54:43	31.2	34.5
19880	2023-06-18T19:04:43	30.7	36
19881	2023-06-18T19:14:43	30.3	36.5
19882	2023-06-18T19:24:44	30	36
19883	2023-06-18T19:34:43	29.6	38
19884	2023-06-18T19:44:43	29.4	38.5
19885	2023-06-18T19:54:43	29	38
19886	2023-06-18T20:04:43	28.7	37.5
19887	2023-06-18T20:14:43	28.4	38.5
19888	2023-06-18T20:24:43	27.9	37
19889	2023-06-18T20:34:43	27.8	39.5
19890	2023-06-18T20:44:43	27.5	40.5
19891	2023-06-18T20:54:43	27.2	43
19892	2023-06-18T21:04:43	26.3	44
19893	2023-06-18T21:14:43	25.9	43.5
19894	2023-06-18T21:24:43	25.7	43.5
19895	2023-06-18T21:34:43	25.9	43.5
19896	2023-06-18T21:44:43	25.6	45.5
19897	2023-06-18T21:54:43	24.9	45.5
19898	2023-06-18T22:04:43	24.6	47
19899	2023-06-18T22:14:43	24.3	49
19900	2023-06-18T22:24:43	24.2	48.5
19901	2023-06-18T22:34:43	24.1	48.5
19902	2023-06-18T22:44:43	23.7	50.5
19903	2023-06-18T22:54:43	23.5	50.5
19904	2023-06-18T23:04:43	23.2	52.5
19905	2023-06-18T23:14:43	23.1	53.5
19906	2023-06-18T23:24:43	22.9	54
19907	2023-06-18T23:34:43	22.6	55
19908	2023-06-18T23:44:43	22.7	55.5
19909	2023-06-18T23:54:43	22.7	58.5
19910	2023-06-19T00:04:43	22.5	56.5
19911	2023-06-19T00:14:43	22.3	55.5
19912	2023-06-19T00:24:43	22.4	55.5
19913	2023-06-19T00:34:43	22.7	55.5
19914	2023-06-19T00:44:43	22.7	56.5
19915	2023-06-19T00:54:43	22.4	59
19916	2023-06-19T01:04:43	21.8	64
19917	2023-06-19T01:14:43	19.3	87.5
19918	2023-06-19T01:24:43	18.5	93
19919	2023-06-19T01:34:43	18.4	94
19920	2023-06-19T01:44:43	18.4	94
19921	2023-06-19T01:54:43	18.5	92.5
19922	2023-06-19T02:04:43	18.4	92
19923	2023-06-19T02:14:43	18.6	87.5
19924	2023-06-19T02:24:43	18.9	83
19925	2023-06-19T02:34:43	19.5	78
19926	2023-06-19T02:44:43	19.8	74.5
19927	2023-06-19T02:54:43	20.1	72
19928	2023-06-19T03:04:43	19.9	71.5
19929	2023-06-19T03:14:43	20	70.5
19930	2023-06-19T03:24:43	20.1	70.5
19931	2023-06-19T03:34:43	20.1	71
19932	2023-06-19T03:44:43	20	71.5
19933	2023-06-19T03:54:43	19.7	74
19934	2023-06-19T04:04:43	19.6	75.5
19935	2023-06-19T04:14:43	19.5	77
19936	2023-06-19T04:24:43	19.5	77.5
19937	2023-06-19T04:34:43	19.6	77
19938	2023-06-19T04:44:43	19.9	76
19939	2023-06-19T04:54:43	20	76
19940	2023-06-19T05:04:42	20	75.5
19941	2023-06-19T05:14:42	20.3	75.5
19942	2023-06-19T05:24:42	20.3	76
19943	2023-06-19T05:34:42	20.5	75.5
19944	2023-06-19T05:44:42	20.8	75
19945	2023-06-19T05:54:42	21	75.5
19946	2023-06-19T06:04:42	21.2	75
19947	2023-06-19T06:14:42	21.6	74.5
19948	2023-06-19T06:24:42	21.9	71.5
19949	2023-06-19T06:34:42	22.3	70
19950	2023-06-19T06:44:42	22.6	67.5
19951	2023-06-19T06:54:42	23.1	64
19952	2023-06-19T07:04:42	23.7	62.5
19953	2023-06-19T07:14:42	23.9	60.5
19954	2023-06-19T07:24:42	24.1	59.5
19955	2023-06-19T07:34:42	24.3	59
19956	2023-06-19T07:44:42	24.3	59
19957	2023-06-19T07:54:42	24.3	59.5
19958	2023-06-19T08:04:42	24.6	60
19959	2023-06-19T08:14:42	24.7	60.5
19960	2023-06-19T08:24:42	24.4	60
19961	2023-06-19T08:34:42	24.3	62
19962	2023-06-19T08:44:42	24.3	62.5
19963	2023-06-19T08:54:42	24.6	63
19964	2023-06-19T09:04:42	25.4	61
19965	2023-06-19T09:14:42	25.6	60
19966	2023-06-19T09:24:42	25.7	58.5
19967	2023-06-19T09:34:42	26.5	55
19968	2023-06-19T09:44:42	27.1	52.5
19969	2023-06-19T09:54:42	26.9	53
19970	2023-06-19T10:04:42	26.8	53.5
19971	2023-06-19T10:14:42	27.1	54.5
19972	2023-06-19T10:24:42	27.3	53
19973	2023-06-19T10:34:42	27.5	53
19974	2023-06-19T10:44:42	28	52
19975	2023-06-19T10:54:42	28.4	50.5
19976	2023-06-19T11:04:42	28.7	49.5
19977	2023-06-19T11:14:42	28.7	49
19978	2023-06-19T11:24:42	29	48.5
19979	2023-06-19T11:34:42	29.3	46.5
19980	2023-06-19T11:54:42	29.7	47
19981	2023-06-19T12:14:42	31.6	42
19982	2023-06-19T12:24:42	34.2	37
19983	2023-06-19T12:34:42	34.7	36
19984	2023-06-19T12:44:42	34.2	37.5
19985	2023-06-19T12:54:42	34.2	37.5
19986	2023-06-19T13:04:42	34.7	36
19987	2023-06-19T13:14:42	36.8	32.5
19988	2023-06-19T13:24:42	34.6	34.5
19989	2023-06-19T13:34:42	32.7	37.5
19990	2023-06-19T13:44:42	32.7	37.5
19991	2023-06-19T13:54:42	35.3	33.5
19992	2023-06-19T14:04:42	35.3	30.5
19993	2023-06-19T14:14:42	32.2	36.5
19994	2023-06-19T14:24:42	32.9	36.5
19995	2023-06-19T14:34:42	37	30
19996	2023-06-19T14:44:42	36.3	30.5
19997	2023-06-19T14:54:42	34.7	33.5
19998	2023-06-19T15:04:42	36.1	31
19999	2023-06-19T15:14:42	34.6	34
20000	2023-06-19T15:24:41	32.1	37.5
20001	2023-06-19T15:34:41	32.9	38
20002	2023-06-19T15:44:42	34.5	34.5
20003	2023-06-19T15:54:41	36.3	33
20004	2023-06-19T16:04:41	39	29
20005	2023-06-19T16:14:42	40.4	27
20006	2023-06-19T16:24:41	40.1	27
20007	2023-06-19T16:34:41	38.1	29.5
20008	2023-06-19T16:44:41	35.5	33.5
20009	2023-06-19T16:54:41	35.2	34
20010	2023-06-19T17:04:41	34.9	34.5
20011	2023-06-19T17:14:41	36.5	31.5
20012	2023-06-19T17:24:41	37.4	30.5
20013	2023-06-19T17:34:41	38	30
20014	2023-06-19T17:44:41	37.3	30.5
20015	2023-06-19T17:54:41	37.8	30.5
20016	2023-06-19T18:04:42	37.7	30.5
20017	2023-06-19T18:14:41	35	34
20018	2023-06-19T18:34:41	32.6	39.5
20019	2023-06-19T18:44:41	31.7	42
20020	2023-06-19T18:54:41	30.8	43.5
20021	2023-06-19T19:04:41	30.2	45.5
20022	2023-06-19T19:14:41	29.7	47
20023	2023-06-19T19:24:41	29	48.5
20024	2023-06-19T19:34:41	28.5	50.5
20025	2023-06-19T19:44:41	28.1	52.5
20026	2023-06-19T19:54:41	27.6	53.5
20027	2023-06-19T20:04:41	27.2	55
20028	2023-06-19T20:14:41	26.9	56
20029	2023-06-19T20:24:41	26.6	57
20030	2023-06-19T20:34:41	26	59
20031	2023-06-19T20:44:41	25.7	60
20032	2023-06-19T20:54:41	25.6	61
20033	2023-06-19T21:04:41	25.4	61.5
20034	2023-06-19T21:14:41	25.3	62
20035	2023-06-19T21:24:41	25.4	62
20036	2023-06-19T21:34:41	25.3	62
20037	2023-06-19T21:44:41	25.2	61
20038	2023-06-19T21:54:41	25.5	58.5
20039	2023-06-19T22:04:41	25.4	57.5
20040	2023-06-19T22:14:41	25.6	57.5
20041	2023-06-19T22:24:41	25.3	60
20042	2023-06-19T22:34:41	25.2	60.5
20043	2023-06-19T22:44:41	25	61.5
20044	2023-06-19T22:54:41	24.7	62.5
20045	2023-06-19T23:04:41	24.8	61.5
20046	2023-06-19T23:14:41	24.8	62
20047	2023-06-19T23:24:41	24.6	62.5
20048	2023-06-19T23:34:41	24.3	65
20049	2023-06-19T23:44:41	24.4	65.5
20050	2023-06-19T23:54:41	24.2	66
20051	2023-06-20T00:04:41	24	66.5
20052	2023-06-20T00:14:41	23.9	68
20053	2023-06-20T00:24:41	23.6	78
20054	2023-06-20T00:34:41	22.7	84
20055	2023-06-20T00:44:41	22.8	83
20056	2023-06-20T00:54:41	22.5	82
20057	2023-06-20T01:04:41	22.4	81
20058	2023-06-20T01:14:41	22.2	82
20059	2023-06-20T01:24:40	22	82.5
20060	2023-06-20T01:34:40	21.7	83
20061	2023-06-20T01:44:40	21.7	84.5
20062	2023-06-20T01:54:40	21.4	84
20063	2023-06-20T02:04:40	21.2	85.5
20064	2023-06-20T02:14:40	21.1	86
20065	2023-06-20T02:24:40	20.9	87
20066	2023-06-20T02:34:40	20.7	87.5
20067	2023-06-20T02:44:40	20.4	88
20068	2023-06-20T02:54:40	20.2	88
20069	2023-06-20T03:04:40	19.9	88.5
20070	2023-06-20T03:14:40	19.8	89.5
20071	2023-06-20T03:24:40	19.7	89
20072	2023-06-20T03:34:40	19.7	90
20073	2023-06-20T03:44:40	19.6	89
20074	2023-06-20T03:54:40	19.5	88.5
20075	2023-06-20T04:04:40	19.6	88.5
20076	2023-06-20T04:14:40	19.6	88.5
20077	2023-06-20T04:24:40	19.5	89
20078	2023-06-20T04:34:40	19.6	88
20079	2023-06-20T04:44:41	19.6	89
20080	2023-06-20T04:54:40	19.6	89
20081	2023-06-20T05:04:40	19.8	89
20082	2023-06-20T05:14:40	19.8	89
20083	2023-06-20T05:24:40	20	89
20084	2023-06-20T05:34:40	20.2	89
20085	2023-06-20T05:44:40	20.4	89.5
20086	2023-06-20T05:54:41	20.6	88
20087	2023-06-20T06:04:40	20.8	87.5
20088	2023-06-20T06:14:40	21	85.5
20089	2023-06-20T06:24:40	21.2	83
20090	2023-06-20T06:34:40	21.3	83
20091	2023-06-20T06:44:40	21.6	83
20092	2023-06-20T06:54:40	21.9	82
20093	2023-06-20T07:04:40	22	81.5
20094	2023-06-20T07:14:40	22.4	79.5
20095	2023-06-20T07:24:40	23	76
20096	2023-06-20T07:34:40	23.5	73.5
20097	2023-06-20T07:44:40	24	73
20098	2023-06-20T07:54:40	24.3	72
20099	2023-06-20T08:04:40	24.4	71
20100	2023-06-20T08:14:40	24.6	72
20101	2023-06-20T08:24:40	24.6	69.5
20102	2023-06-20T08:34:40	24.7	69.5
20103	2023-06-20T08:44:40	24.8	68
20104	2023-06-20T08:54:40	25	68
20105	2023-06-20T09:04:40	25.2	67
20106	2023-06-20T09:14:40	25.6	64
20107	2023-06-20T09:24:40	25.9	63.5
20108	2023-06-20T09:34:40	26.2	61
20109	2023-06-20T09:44:40	26.6	59.5
20110	2023-06-20T09:54:40	26.7	59
20111	2023-06-20T10:04:40	27	56.5
20112	2023-06-20T10:14:40	27.4	50.5
20113	2023-06-20T10:24:40	27.7	53
20114	2023-06-20T10:34:40	28.1	51
20115	2023-06-20T10:44:40	28.5	48.5
20116	2023-06-20T10:54:40	28.9	47.5
20117	2023-06-20T11:04:40	29.3	48
20118	2023-06-20T11:14:40	29.6	46.5
20119	2023-06-20T11:24:40	30	45.5
20120	2023-06-20T11:34:40	30.3	44
20121	2023-06-20T11:44:39	30.8	42.5
20122	2023-06-20T11:54:40	31.4	41.5
20123	2023-06-20T12:04:39	31.8	42
20124	2023-06-20T12:14:39	35.7	35
20125	2023-06-20T12:24:39	38.3	30.5
20126	2023-06-20T12:34:39	39.1	29.5
20127	2023-06-20T12:44:39	41.9	25.5
20128	2023-06-20T12:54:39	43.4	25
20129	2023-06-20T13:04:39	42.9	24.5
20130	2023-06-20T13:14:39	45.3	22.5
20131	2023-06-20T13:24:39	46.5	20.5
20132	2023-06-20T13:34:39	45.3	20
20133	2023-06-20T13:44:39	46.9	18
20134	2023-06-20T13:54:39	47.6	16
20135	2023-06-20T14:04:39	45.5	17
20136	2023-06-20T14:14:39	44.4	18.5
20137	2023-06-20T14:24:39	45.8	17.5
20138	2023-06-20T14:34:39	41.7	20
20139	2023-06-20T14:44:39	38.5	23.5
20140	2023-06-20T14:54:39	38	23.5
20141	2023-06-20T15:04:40	40.8	21
20142	2023-06-20T15:14:39	39.3	22.5
20143	2023-06-20T15:24:39	41.3	21
20144	2023-06-20T15:34:39	40.3	22.5
20145	2023-06-20T15:44:39	42.8	19
20146	2023-06-20T15:54:39	39.9	22.5
20147	2023-06-20T16:04:39	39.5	23
20148	2023-06-20T16:14:39	37.8	24.5
20149	2023-06-20T16:24:39	36.3	27
20150	2023-06-20T16:34:39	34.9	28.5
20151	2023-06-20T16:44:39	34.2	30
20152	2023-06-20T16:54:39	34.1	30.5
20153	2023-06-20T17:04:39	34.6	32.5
20154	2023-06-20T17:14:39	34.2	32
20155	2023-06-20T17:24:39	33.6	32.5
20156	2023-06-20T17:34:39	33	33
20157	2023-06-20T17:44:39	32.8	33
20158	2023-06-20T17:54:39	32.7	33
20159	2023-06-20T18:04:39	34.2	34.5
20160	2023-06-20T18:14:39	32.3	37
20161	2023-06-20T18:24:39	31.3	42.5
20162	2023-06-20T18:34:39	30.5	42
20163	2023-06-20T18:44:39	29.9	43.5
20164	2023-06-20T18:54:39	29.4	44.5
20165	2023-06-20T19:04:39	28.8	45
20166	2023-06-20T19:14:39	28.7	45.5
20167	2023-06-20T19:24:39	24.7	92
20168	2023-06-20T19:34:39	24.9	94
20169	2023-06-20T19:44:39	24.6	95.5
20170	2023-06-20T19:54:39	23.3	96
20171	2023-06-20T20:04:39	23.1	96.5
20172	2023-06-20T20:14:39	23.7	97
20173	2023-06-20T20:24:39	23.8	97
20174	2023-06-20T20:34:39	23.9	97
20175	2023-06-20T20:44:39	23.4	96.5
20176	2023-06-20T20:54:39	23.1	96.5
20177	2023-06-20T21:04:39	23	96.5
20178	2023-06-20T21:14:39	22.7	96
20179	2023-06-20T21:24:39	22.6	93
20180	2023-06-20T21:34:39	22.4	93
20181	2023-06-20T21:44:39	22.3	93
20182	2023-06-20T21:54:39	22.2	92.5
20183	2023-06-20T22:04:39	21.8	92
20184	2023-06-20T22:14:39	21.7	89.5
20185	2023-06-20T22:24:39	21.6	86
20186	2023-06-20T22:34:39	21.5	85.5
20187	2023-06-20T22:44:39	21.1	85.5
20188	2023-06-20T22:54:38	21	86.5
20189	2023-06-20T23:04:39	21.2	87.5
20190	2023-06-20T23:14:38	21.1	87
20191	2023-06-20T23:24:39	20.7	86.5
20192	2023-06-20T23:34:38	20.6	87
20193	2023-06-20T23:44:38	20.3	87
20194	2023-06-20T23:54:38	20.2	88
20195	2023-06-21T00:04:38	20.4	88.5
20196	2023-06-21T00:14:38	20.2	88.5
20197	2023-06-21T00:24:38	20.2	88
20198	2023-06-21T00:34:38	20.2	88
20199	2023-06-21T00:44:38	20.1	88.5
20200	2023-06-21T00:54:38	19.9	88
20201	2023-06-21T01:04:38	19.9	89
20202	2023-06-21T01:14:38	19.9	88.5
20203	2023-06-21T01:24:38	19.9	89
20204	2023-06-21T01:34:38	19.8	88.5
20205	2023-06-21T01:44:38	19.6	89.5
20206	2023-06-21T01:54:38	19.5	89.5
20207	2023-06-21T02:04:38	19.4	89.5
20208	2023-06-21T02:14:38	19.4	89.5
20209	2023-06-21T02:24:38	19.3	90
20210	2023-06-21T02:34:38	19.2	89.5
20211	2023-06-21T02:44:38	19.3	89.5
20212	2023-06-21T02:54:38	19.6	87.5
20213	2023-06-21T03:04:38	19.7	86
20214	2023-06-21T03:14:38	18.9	96
20215	2023-06-21T03:24:38	18.5	98
20216	2023-06-21T03:34:38	18.3	98.5
20217	2023-06-21T03:44:38	18.5	99
20218	2023-06-21T03:54:38	18.8	99
20219	2023-06-21T04:04:38	18.8	99
20220	2023-06-21T04:14:38	18.7	99
20221	2023-06-21T04:24:38	19	99
20222	2023-06-21T04:34:38	19	99
20223	2023-06-21T04:44:38	19.1	99
20224	2023-06-21T04:54:38	18.9	99
20225	2023-06-21T05:04:38	18.7	99
20226	2023-06-21T05:14:38	18.8	99.5
20227	2023-06-21T05:24:38	19.2	99
20228	2023-06-21T05:34:38	19.6	98.5
20229	2023-06-21T05:44:38	20.1	98
20230	2023-06-21T05:54:38	19.9	98
20231	2023-06-21T06:04:38	19.9	98
20232	2023-06-21T06:14:38	20.1	98
20233	2023-06-21T06:24:38	20.3	98
20234	2023-06-21T06:34:38	20.7	98
20235	2023-06-21T06:44:38	20.5	98
20236	2023-06-21T06:54:38	20.6	98.5
20237	2023-06-21T07:14:38	21.6	95.5
20238	2023-06-21T07:24:38	21.5	91
20239	2023-06-21T07:34:38	21.9	85
20240	2023-06-21T07:44:38	21.9	83.5
20241	2023-06-21T07:54:38	22.3	81.5
20242	2023-06-21T08:04:38	22.7	78.5
20243	2023-06-21T08:14:38	22.2	81
20244	2023-06-21T08:24:38	22.1	84.5
20245	2023-06-21T08:34:38	22.2	81
20246	2023-06-21T08:44:38	22.6	80.5
20247	2023-06-21T08:54:38	23.1	78.5
20248	2023-06-21T09:04:38	23.3	78.5
20249	2023-06-21T09:14:38	23.1	79
20250	2023-06-21T09:24:37	22.8	80
20251	2023-06-21T09:34:37	22.6	79
20252	2023-06-21T09:44:37	22.6	77
20253	2023-06-21T09:54:37	22.7	76
20254	2023-06-21T10:04:37	23	74
20255	2023-06-21T10:14:37	23.5	73
20256	2023-06-21T10:24:37	23.4	73.5
20257	2023-06-21T10:34:37	23.8	71.5
20258	2023-06-21T10:44:37	24.7	69.5
20259	2023-06-21T10:54:37	25.1	68.5
20260	2023-06-21T11:04:37	25.1	67.5
20261	2023-06-21T11:24:37	25.5	66.5
20262	2023-06-21T11:34:37	25.8	65.5
20263	2023-06-21T11:44:37	26	62.5
20264	2023-06-21T11:54:37	26.4	61
20265	2023-06-21T12:04:37	27.2	58.5
20266	2023-06-21T12:14:37	29.3	51.5
20267	2023-06-21T12:24:37	31	46.5
20268	2023-06-21T12:34:37	33.7	41
20269	2023-06-21T12:44:37	33.6	39.5
20270	2023-06-21T12:54:37	34.8	36.5
20271	2023-06-21T13:04:37	35.7	34.5
20272	2023-06-21T13:14:37	34.8	38
20273	2023-06-21T13:24:37	36.5	32.5
20274	2023-06-21T13:34:37	38.7	30
20275	2023-06-21T13:44:38	37.2	32.5
20276	2023-06-21T13:54:37	35.9	31.5
20277	2023-06-21T14:04:37	39.3	29.5
20278	2023-06-21T14:14:37	36.4	31.5
20279	2023-06-21T14:24:37	39.9	27
20280	2023-06-21T14:34:37	38.8	29.5
20281	2023-06-21T14:44:37	39.9	27.5
20282	2023-06-21T14:54:37	36.3	31.5
20283	2023-06-21T15:04:37	40.7	26
20284	2023-06-21T15:14:37	37.2	29
20285	2023-06-21T15:24:37	39.5	25
20286	2023-06-21T15:34:37	37	31
20287	2023-06-21T15:54:37	34.9	35.5
20288	2023-06-21T16:04:37	34.8	34
20289	2023-06-21T16:14:37	35	34.5
20290	2023-06-21T16:24:37	36.1	33.5
20291	2023-06-21T16:34:37	35.7	33.5
20292	2023-06-21T16:44:37	38.6	29.5
20293	2023-06-21T16:54:37	37.7	30
20294	2023-06-21T17:04:37	40.4	26.5
20295	2023-06-21T17:14:37	40.2	25.5
20296	2023-06-21T17:24:37	40.3	27
20297	2023-06-21T17:34:37	39.5	29
20298	2023-06-21T17:44:37	39.2	29
20299	2023-06-21T17:54:37	38.6	29
20300	2023-06-21T18:04:37	37.7	30
20301	2023-06-21T18:14:37	35.9	33
20302	2023-06-21T18:24:37	34.2	37
20303	2023-06-21T18:34:37	32.6	41
20304	2023-06-21T18:44:37	32.9	41
20305	2023-06-21T18:54:37	32.4	41.5
20306	2023-06-21T19:04:37	31.2	45.5
20307	2023-06-21T19:14:37	30.2	47.5
20308	2023-06-21T19:24:37	29.5	48.5
20309	2023-06-21T19:34:37	28.9	50.5
20310	2023-06-21T19:44:37	28.4	52
20311	2023-06-21T19:54:37	27.9	53
20312	2023-06-21T20:04:37	27.5	54.5
20313	2023-06-21T20:14:36	27.2	56
20314	2023-06-21T20:24:36	26.8	56.5
20315	2023-06-21T20:34:36	26.7	57.5
20316	2023-06-21T20:44:36	26.3	57.5
20317	2023-06-21T20:54:36	26.2	59
20318	2023-06-21T21:04:36	26.1	59.5
20319	2023-06-21T21:14:36	26	59.5
20320	2023-06-21T21:24:36	25.9	59.5
20321	2023-06-21T21:34:36	25.7	60.5
20322	2023-06-21T21:44:36	25.6	61
20323	2023-06-21T21:54:36	25.5	61.5
20324	2023-06-21T22:04:36	25.2	62
20325	2023-06-21T22:14:36	25.2	62
20326	2023-06-21T22:24:36	25.3	62
20327	2023-06-21T22:34:36	25.1	63
20328	2023-06-21T22:44:36	24.9	64.5
20329	2023-06-21T22:54:36	24.6	67
20330	2023-06-21T23:04:36	24.4	67
20331	2023-06-21T23:14:36	24.1	67.5
20332	2023-06-21T23:24:36	24.1	68.5
20333	2023-06-21T23:34:36	23.7	70
20334	2023-06-21T23:44:36	23.4	70.5
20335	2023-06-21T23:54:36	23.2	72
20336	2023-06-22T00:04:36	23.1	72.5
20337	2023-06-22T00:14:36	23	73.5
20338	2023-06-22T00:24:36	23	73.5
20339	2023-06-22T00:44:36	22.2	80.5
20340	2023-06-22T00:54:36	21.7	83
20341	2023-06-22T01:04:36	21.5	84
20342	2023-06-22T01:14:36	21.4	85.5
20343	2023-06-22T01:24:36	21.1	85.5
20344	2023-06-22T01:34:36	21	86
20345	2023-06-22T01:44:36	20.9	86
20346	2023-06-22T01:54:36	20.7	87
20347	2023-06-22T02:04:36	20.6	87
20348	2023-06-22T02:14:36	20.4	87
20349	2023-06-22T02:24:36	20.5	87
20350	2023-06-22T02:34:36	20.3	87
20351	2023-06-22T02:44:36	20.2	87.5
20352	2023-06-22T02:54:36	20	88
20353	2023-06-22T03:04:36	19.9	88
20354	2023-06-22T03:14:36	19.8	88
20355	2023-06-22T03:24:36	19.8	88
20356	2023-06-22T03:34:36	19.7	88.5
20357	2023-06-22T03:44:36	19.6	88.5
20358	2023-06-22T03:54:36	19.8	88.5
20359	2023-06-22T04:04:36	19.6	88.5
20360	2023-06-22T04:14:36	19.7	88.5
20361	2023-06-22T04:24:36	19.8	88
20362	2023-06-22T04:34:36	20	87.5
20363	2023-06-22T04:44:36	20.2	87
20364	2023-06-22T04:54:36	20.2	86
20365	2023-06-22T05:04:36	20.4	86
20366	2023-06-22T05:14:36	20.6	85.5
20367	2023-06-22T05:24:36	20.9	85
20368	2023-06-22T05:34:36	20.9	85
20369	2023-06-22T05:44:36	21	84
20370	2023-06-22T05:54:36	21.3	83
20371	2023-06-22T06:04:36	21.5	82.5
20372	2023-06-22T06:14:36	21.7	82
20373	2023-06-22T06:24:36	21.9	81.5
20374	2023-06-22T06:34:35	22.3	81
20375	2023-06-22T06:44:36	22.7	79.5
20376	2023-06-22T06:54:35	23.1	78.5
20377	2023-06-22T07:04:36	23.4	74
20378	2023-06-22T07:14:35	23.7	74
20379	2023-06-22T07:24:35	24.3	70
20380	2023-06-22T07:34:35	24.7	69
20381	2023-06-22T07:44:35	24.9	69
20382	2023-06-22T07:54:35	25.2	69
20383	2023-06-22T08:04:35	25.4	68.5
20384	2023-06-22T08:14:35	25.6	68
20385	2023-06-22T08:24:35	25.9	66
20386	2023-06-22T08:34:35	26.2	66
20387	2023-06-22T08:44:35	27	62.5
20388	2023-06-22T08:54:35	27.9	60
20389	2023-06-22T09:04:35	28.1	58
20390	2023-06-22T09:14:35	27.8	59
20391	2023-06-22T09:24:35	28	59.5
20392	2023-06-22T09:34:35	28.9	57
20393	2023-06-22T09:44:35	29.7	54.5
20394	2023-06-22T09:54:35	30.1	53
20395	2023-06-22T10:04:35	30.1	53.5
20396	2023-06-22T10:14:35	30.2	52.5
20397	2023-06-22T10:24:35	30.4	52.5
20398	2023-06-22T10:34:35	30.6	52.5
20399	2023-06-22T10:44:35	30.9	51.5
20400	2023-06-22T10:54:35	31.5	49.5
20401	2023-06-22T11:04:35	31.9	48.5
20402	2023-06-22T11:14:35	32.4	48
20403	2023-06-22T11:24:35	32.8	47
20404	2023-06-22T11:34:35	32.8	47.5
20405	2023-06-22T11:44:35	32.5	47.5
20406	2023-06-22T11:54:35	33.1	46.5
20407	2023-06-22T12:04:35	33.7	44.5
20408	2023-06-22T12:14:35	34.8	42.5
20409	2023-06-22T12:24:35	33.4	46
20410	2023-06-22T12:34:35	32.6	47.5
20411	2023-06-22T12:44:35	31.9	49.5
20412	2023-06-22T12:54:35	32.3	49
20413	2023-06-22T13:04:35	32.3	50
20414	2023-06-22T13:14:35	33.4	48.5
20415	2023-06-22T13:34:35	36.5	41
20416	2023-06-22T13:44:35	34.5	45
20417	2023-06-22T13:54:35	37.3	38
20418	2023-06-22T14:04:35	32.6	47.5
20419	2023-06-22T14:14:35	31.5	51
20420	2023-06-22T14:24:35	31.4	51
20421	2023-06-22T14:34:35	32.6	48.5
20422	2023-06-22T14:44:35	36.9	38
20423	2023-06-22T14:54:35	35	41
20424	2023-06-22T15:04:35	39	33
20425	2023-06-22T15:14:35	39.9	32.5
20426	2023-06-22T15:24:35	40.7	31
20427	2023-06-22T15:34:35	37.6	35
20428	2023-06-22T15:44:35	40.6	31.5
20429	2023-06-22T15:54:35	38.3	34.5
20430	2023-06-22T16:04:35	40.3	31
20431	2023-06-22T16:14:35	41.9	29
20432	2023-06-22T16:24:34	40.4	30.5
20433	2023-06-22T16:34:34	40.4	32
20434	2023-06-22T16:44:34	39.6	32.5
20435	2023-06-22T16:54:34	38.2	33.5
20436	2023-06-22T17:04:34	38.5	31.5
20437	2023-06-22T17:14:34	36.5	33
20438	2023-06-22T17:24:34	33.8	37.5
20439	2023-06-22T17:34:34	32.5	41
20440	2023-06-22T17:44:35	31.5	41.5
20441	2023-06-22T17:54:34	32.1	39.5
20442	2023-06-22T18:04:34	31	40
20443	2023-06-22T18:14:34	30.3	41
20444	2023-06-22T18:24:34	28.3	80.5
20445	2023-06-22T18:34:34	24.8	92
20446	2023-06-22T18:44:35	24.9	91.5
20447	2023-06-22T18:54:34	25.6	74.5
20448	2023-06-22T19:04:34	25.8	72
20449	2023-06-22T19:14:34	26.2	59
20450	2023-06-22T19:34:34	26	59
20451	2023-06-22T19:44:34	25.8	58.5
20452	2023-06-22T19:54:35	24.7	81
20453	2023-06-22T20:04:34	20.7	94
20454	2023-06-22T20:14:34	20.3	95.5
20455	2023-06-22T20:24:34	19.9	97
20456	2023-06-22T20:34:34	19.6	97.5
20457	2023-06-22T20:44:34	19.3	97.5
20458	2023-06-22T20:54:34	19.1	98
20459	2023-06-22T21:04:34	19.1	98
20460	2023-06-22T21:14:34	18.9	98.5
20461	2023-06-22T21:24:34	18.9	98.5
20462	2023-06-22T21:34:34	18.9	98.5
20463	2023-06-22T21:44:34	18.9	98.5
20464	2023-06-22T21:54:34	18.9	98.5
20465	2023-06-22T22:04:34	18.9	99
20466	2023-06-22T22:14:34	19	99
20467	2023-06-22T22:24:34	19.1	99
20468	2023-06-22T22:34:34	19.2	99
20469	2023-06-22T22:44:34	19.2	99
20470	2023-06-22T22:54:34	19.1	98.5
20471	2023-06-22T23:04:34	19.2	98.5
20472	2023-06-22T23:14:34	19.1	99
20473	2023-06-22T23:24:34	19.2	99
20474	2023-06-22T23:34:34	19.1	99
20475	2023-06-22T23:44:34	19.2	99
20476	2023-06-22T23:54:34	19.1	98.5
20477	2023-06-23T00:04:34	19.1	98.5
20478	2023-06-23T00:14:34	18.9	98.5
20479	2023-06-23T00:24:34	18.7	98
20480	2023-06-23T00:34:34	18.3	98.5
20481	2023-06-23T00:44:34	17.5	98.5
20482	2023-06-23T00:54:34	17.2	99.5
20483	2023-06-23T01:04:34	17.2	99.5
20484	2023-06-23T01:14:34	17.1	99.5
20485	2023-06-23T01:24:34	17.1	99.5
20486	2023-06-23T01:34:34	17.1	100
20487	2023-06-23T01:44:34	17	100
20488	2023-06-23T01:54:34	16.9	100
20489	2023-06-23T02:04:34	16.8	100
20490	2023-06-23T02:14:34	16.8	100
20491	2023-06-23T02:24:34	16.7	100
20492	2023-06-23T02:34:34	16.6	100
20493	2023-06-23T02:44:34	16.7	100
20494	2023-06-23T02:54:34	16.9	100
20495	2023-06-23T03:04:34	16.9	100
20496	2023-06-23T03:14:34	16.9	100
20497	2023-06-23T03:24:34	16.9	100
20498	2023-06-23T03:34:33	16.9	99.5
20499	2023-06-23T03:44:33	17.1	100
20500	2023-06-23T03:54:33	17.1	100
20501	2023-06-23T04:04:33	17.2	100
20502	2023-06-23T04:14:33	17.3	100
20503	2023-06-23T04:24:33	17.4	100
20504	2023-06-23T04:34:33	17.4	100
20505	2023-06-23T04:44:33	17.3	99.5
20506	2023-06-23T04:54:33	17.5	100
20507	2023-06-23T05:04:33	17.5	100
20508	2023-06-23T05:14:33	17.5	100
20509	2023-06-23T05:24:33	17.6	99.5
20510	2023-06-23T05:34:33	17.7	100
20511	2023-06-23T05:44:33	17.8	99.5
20512	2023-06-23T05:54:33	17.7	99.5
20513	2023-06-23T06:04:33	18	100
20514	2023-06-23T06:14:33	18.4	100
20515	2023-06-23T06:24:33	18.5	100
20516	2023-06-23T06:34:33	18.6	99.5
20517	2023-06-23T06:44:33	18.8	99.5
20518	2023-06-23T06:54:33	19.1	100
20519	2023-06-23T07:04:33	18.8	99.5
20520	2023-06-23T07:14:33	19.2	99.5
20521	2023-06-23T07:24:33	19.8	99.5
20522	2023-06-23T07:34:33	19.7	99
20523	2023-06-23T07:54:33	20.1	99
20524	2023-06-23T08:04:34	19.9	98.5
20525	2023-06-23T08:14:33	19.9	98
20526	2023-06-23T08:24:33	20.5	99
20527	2023-06-23T08:34:33	20.7	98
20528	2023-06-23T08:44:33	20.6	97.5
20529	2023-06-23T08:54:33	21.4	96
20530	2023-06-23T09:04:33	21.2	96.5
20531	2023-06-23T09:14:33	21.9	95.5
20532	2023-06-23T09:24:33	22.1	96
20533	2023-06-23T09:34:33	22.3	93.5
20534	2023-06-23T09:44:33	22.8	63
20535	2023-06-23T09:54:33	22.9	60.5
20536	2023-06-23T10:04:33	23.1	58
20537	2023-06-23T10:14:33	23	59.5
20538	2023-06-23T10:24:33	23.2	59
20539	2023-06-23T10:34:33	23.7	56
20540	2023-06-23T10:44:33	23.6	57
20541	2023-06-23T10:54:33	23.9	54
20542	2023-06-23T11:04:33	23.8	54
20543	2023-06-23T11:14:33	24.7	50
20544	2023-06-23T11:24:33	23.9	50.5
20545	2023-06-23T11:34:33	24.4	50
20546	2023-06-23T11:44:33	24.9	47.5
20547	2023-06-23T11:54:33	25.6	45
20548	2023-06-23T12:04:33	25.6	45
20549	2023-06-23T12:14:33	26.1	42.5
20550	2023-06-23T12:24:33	30.1	37.5
20551	2023-06-23T12:34:33	30.7	32.5
20552	2023-06-23T12:44:33	31.3	32
20553	2023-06-23T12:54:33	30.4	34
20554	2023-06-23T13:04:33	29.3	35
20555	2023-06-23T13:14:33	32.1	30
20556	2023-06-23T13:24:33	30.1	31.5
20557	2023-06-23T13:34:33	28.6	35
20558	2023-06-23T13:44:33	27.7	37
20559	2023-06-23T13:54:33	28	37.5
20560	2023-06-23T14:04:32	28	37
20561	2023-06-23T14:14:32	28.7	35.5
20562	2023-06-23T14:24:32	28.8	36
20563	2023-06-23T14:34:32	27.6	37.5
20564	2023-06-23T14:44:32	27.9	36.5
20565	2023-06-23T14:54:33	27.9	37.5
20566	2023-06-23T15:04:32	28.3	35
20567	2023-06-23T15:14:32	28.1	36
20568	2023-06-23T15:24:32	28.2	36
20569	2023-06-23T15:34:32	27.8	38
20570	2023-06-23T15:44:32	27.5	37
20571	2023-06-23T15:54:32	27.7	36
20572	2023-06-23T16:04:32	30.4	32
20573	2023-06-23T16:14:32	32.5	28
20574	2023-06-23T16:24:32	29.4	33
20575	2023-06-23T16:34:32	32.6	27
20576	2023-06-23T16:44:32	30.2	31
20577	2023-06-23T16:54:32	30.4	30.5
20578	2023-06-23T17:04:33	30.6	31
20579	2023-06-23T17:14:32	29.1	31.5
20580	2023-06-23T17:24:32	33.3	27.5
20581	2023-06-23T17:34:32	35.1	24
20582	2023-06-23T17:44:32	35.5	24.5
20583	2023-06-23T17:54:32	34.9	25.5
20584	2023-06-23T18:04:32	34.3	26.5
20585	2023-06-23T18:14:32	33.2	32
20586	2023-06-23T18:24:32	30.9	37.5
20587	2023-06-23T18:34:32	28.5	43
20588	2023-06-23T18:44:32	27.8	45
20589	2023-06-23T18:54:32	28	44.5
20590	2023-06-23T19:04:32	27.2	44.5
20591	2023-06-23T19:14:32	25.5	50
20592	2023-06-23T19:24:32	24.7	49
20593	2023-06-23T19:34:32	24	51.5
20594	2023-06-23T19:44:32	23.4	54
20595	2023-06-23T19:54:32	22.8	60
20596	2023-06-23T20:14:32	21.9	62
20597	2023-06-23T20:24:32	21.5	60
20598	2023-06-23T20:34:32	21.2	61
20599	2023-06-23T20:44:32	20.8	62
20600	2023-06-23T20:54:32	20.5	65
20601	2023-06-23T21:04:32	20.2	65.5
20602	2023-06-23T21:14:32	19.9	64
20603	2023-06-23T21:24:32	19.6	65
20604	2023-06-23T21:34:32	19.4	65
20605	2023-06-23T21:44:32	19.1	66
20606	2023-06-23T21:54:32	18.9	69.5
20607	2023-06-23T22:04:32	18.7	69
20608	2023-06-23T22:14:32	18.4	70
20609	2023-06-23T22:24:32	18.1	70
20610	2023-06-23T22:34:32	17.9	71
20611	2023-06-23T22:44:32	17.7	72
20612	2023-06-23T22:54:32	17.5	73.5
20613	2023-06-23T23:04:32	17.3	73.5
20614	2023-06-23T23:14:32	17.2	75
20615	2023-06-23T23:24:32	16.9	76
20616	2023-06-23T23:34:32	16.9	76.5
20617	2023-06-23T23:44:32	16.6	77
20618	2023-06-24T00:04:32	16.3	77
20619	2023-06-24T00:14:32	16.1	77
20620	2023-06-24T00:24:32	15.9	77.5
20621	2023-06-24T00:34:32	15.7	79.5
20622	2023-06-24T00:44:31	15.6	80.5
20623	2023-06-24T00:54:31	15.4	81
20624	2023-06-24T01:04:32	15.3	82
20625	2023-06-24T01:14:31	15.1	83
20626	2023-06-24T01:24:31	15	83
20627	2023-06-24T01:34:31	14.9	83
20628	2023-06-24T01:44:31	14.7	84
20629	2023-06-24T01:54:31	14.5	85
20630	2023-06-24T02:04:31	14.4	85
20631	2023-06-24T02:14:32	14.4	85.5
20632	2023-06-24T02:24:31	14.3	85
20633	2023-06-24T02:34:31	14.1	85.5
20634	2023-06-24T02:44:31	14.1	86
20635	2023-06-24T02:54:32	14	86.5
20636	2023-06-24T03:04:31	13.7	87
20637	2023-06-24T03:14:31	13.7	87
20638	2023-06-24T03:24:31	13.6	87.5
20639	2023-06-24T03:34:31	13.6	87
20640	2023-06-24T03:44:31	13.6	86.5
20641	2023-06-24T03:54:31	13.7	87
20642	2023-06-24T04:04:31	13.6	87
20643	2023-06-24T04:14:31	13.7	87
20644	2023-06-24T04:34:31	13.8	87
20645	2023-06-24T04:44:31	13.9	87.5
20646	2023-06-24T04:54:51	14.1	87.5
20647	2023-06-24T05:04:31	14.4	86.5
20648	2023-06-24T05:14:31	14.6	87
20649	2023-06-24T05:24:31	14.9	85.5
20650	2023-06-24T05:34:31	14.9	85
20651	2023-06-24T05:44:31	15.2	85.5
20652	2023-06-24T05:54:31	15.6	83.5
20653	2023-06-24T06:04:31	15.9	82
20654	2023-06-24T06:14:31	16.3	80.5
20655	2023-06-24T06:24:31	16.6	79
20656	2023-06-24T06:29:38	16.7	78
20657	2023-06-24T06:39:38	16.9	79
20658	2023-06-24T06:49:38	17.3	79
20659	2023-06-24T06:59:38	17.6	78
20660	2023-06-24T07:09:38	18	75.5
20661	2023-06-24T07:19:38	18.6	75
20662	2023-06-24T07:29:38	19	70.5
20663	2023-06-24T07:39:38	19.3	70
20664	2023-06-24T07:49:38	19.6	69
20665	2023-06-24T07:59:38	20.1	69
20666	2023-06-24T08:09:38	20.4	66.5
20667	2023-06-24T08:19:38	20.8	64
20668	2023-06-24T08:29:38	21.1	62.5
20669	2023-06-24T08:39:38	21.4	61
20670	2023-06-24T08:49:38	21.5	55
20671	2023-06-24T08:59:38	22	53.5
20672	2023-06-24T09:09:38	22.1	51
20673	2023-06-24T09:19:38	22.6	50
20674	2023-06-24T09:29:38	22.6	50.5
20675	2023-06-24T09:39:38	22.9	48.5
20676	2023-06-24T09:49:38	23.2	49.5
20677	2023-06-24T09:59:38	23.6	46.5
20678	2023-06-24T10:09:38	23.4	46.5
20679	2023-06-24T10:19:38	24	45.5
20680	2023-06-24T10:29:38	24.2	44
20681	2023-06-24T10:39:38	24.4	42.5
20682	2023-06-24T10:49:38	24.8	41
20683	2023-06-24T10:59:38	25	39.5
20684	2023-06-24T11:09:38	25.3	39.5
20685	2023-06-24T11:19:38	25.4	40
20686	2023-06-24T11:29:38	25.9	38
20687	2023-06-24T11:39:38	26.1	38.5
20688	2023-06-24T11:49:38	26.5	37
20689	2023-06-24T11:59:38	26.9	37
20690	2023-06-24T12:09:38	28.7	32.5
20691	2023-06-24T12:19:37	33.6	26
20692	2023-06-24T12:29:37	36.6	23
20693	2023-06-24T12:39:38	38.4	20
20694	2023-06-24T12:49:37	40.3	19
20695	2023-06-24T12:59:37	40	19
20696	2023-06-24T13:09:37	41.7	17.5
20697	2023-06-24T13:19:37	42.3	16
20698	2023-06-24T13:29:38	43	17
20699	2023-06-24T13:39:37	44.5	15.5
20700	2023-06-24T13:49:37	43.7	16
20701	2023-06-24T13:59:37	44.9	15.5
20702	2023-06-24T14:09:38	44.5	15.5
20703	2023-06-24T14:19:37	42.8	17
20704	2023-06-24T14:29:37	43.9	16
20705	2023-06-24T14:39:37	45.3	14.5
20706	2023-06-24T14:49:37	44.5	15
20707	2023-06-24T14:59:37	45.5	14
20708	2023-06-24T15:09:37	44.4	14.5
20709	2023-06-24T15:19:37	45.7	14
20710	2023-06-24T15:29:37	46.1	13.5
20711	2023-06-24T15:39:37	46.2	13.5
20712	2023-06-24T15:49:37	45.8	12.5
20713	2023-06-24T15:59:37	46.8	12.5
20714	2023-06-24T16:09:37	46.1	13
20715	2023-06-24T16:19:37	46	13.5
20716	2023-06-24T16:29:38	46.3	13
20717	2023-06-24T16:39:37	44.9	13
20718	2023-06-24T16:49:37	45.7	13
20719	2023-06-24T16:59:37	43.7	14.5
20720	2023-06-24T17:09:37	44	14.5
20721	2023-06-24T17:19:37	43.7	15
20722	2023-06-24T17:29:37	41.9	16
20723	2023-06-24T17:39:37	41.3	16.5
20724	2023-06-24T17:49:37	41.2	17
20725	2023-06-24T17:59:57	40.2	17.5
20726	2023-06-24T18:09:37	39.6	18.5
20727	2023-06-24T18:19:37	38.9	19
20728	2023-06-24T18:29:37	35.6	22.5
20729	2023-06-24T18:39:37	34	25.5
20730	2023-06-24T18:49:37	32.6	28
20731	2023-06-24T18:59:37	31.7	30
20732	2023-06-24T19:09:37	31	31
20733	2023-06-24T19:19:37	30.1	33
20734	2023-06-24T19:29:37	29.2	36
20735	2023-06-24T19:39:37	28.6	37
20736	2023-06-24T19:49:37	28.1	41
20737	2023-06-24T19:59:37	27.5	41
20738	2023-06-24T20:09:37	26.8	42.5
20739	2023-06-24T20:19:37	26.3	44.5
20740	2023-06-24T20:29:37	25.7	45.5
20741	2023-06-24T20:39:37	25.2	46.5
20742	2023-06-24T20:49:37	24.9	47
20743	2023-06-24T20:59:37	24.5	46.5
20744	2023-06-24T21:09:37	24.1	47.5
20745	2023-06-24T21:19:37	23.7	48
20746	2023-06-24T21:29:37	23.5	48.5
20747	2023-06-24T21:39:37	23.1	48.5
20748	2023-06-24T21:49:37	22.8	49.5
20749	2023-06-24T21:59:37	22.4	51
20750	2023-06-24T22:09:37	22.2	51.5
20751	2023-06-24T22:19:37	21.8	52.5
20752	2023-06-24T22:29:37	21.7	51.5
20753	2023-06-24T22:39:37	21.8	48.5
20754	2023-06-24T22:49:37	21.5	51.5
20755	2023-06-24T22:59:37	21.2	53
20756	2023-06-24T23:09:37	20.9	54.5
20757	2023-06-24T23:19:37	20.6	55
20758	2023-06-24T23:29:37	20.3	56
20759	2023-06-24T23:39:37	20.1	56
20760	2023-06-24T23:49:37	19.8	57
20761	2023-06-24T23:59:36	19.7	58
20762	2023-06-25T00:09:37	19.5	58.5
20763	2023-06-25T00:19:37	19.1	59.5
20764	2023-06-25T00:29:36	18.9	60
20765	2023-06-25T00:39:37	18.8	61
20766	2023-06-25T00:49:37	18.6	61.5
20767	2023-06-25T00:59:36	18.4	61.5
20768	2023-06-25T01:09:59	18.3	62
20769	2023-06-25T01:19:36	18	62.5
20770	2023-06-25T01:29:37	17.9	63
20771	2023-06-25T01:39:36	17.7	64
20772	2023-06-25T01:49:36	17.6	64.5
20773	2023-06-25T01:59:36	17.3	65.5
20774	2023-06-25T02:09:36	17.3	65.5
20775	2023-06-25T02:19:36	17.2	66.5
20776	2023-06-25T02:29:36	17.1	66.5
20777	2023-06-25T02:39:36	17	66.5
20778	2023-06-25T02:49:36	16.9	67
20779	2023-06-25T02:59:36	16.7	68
20780	2023-06-25T03:09:36	16.5	68.5
20781	2023-06-25T03:19:36	16.3	69.5
20782	2023-06-25T03:29:36	16.2	71
20783	2023-06-25T03:39:36	15.9	73
20784	2023-06-25T03:49:36	15.8	75
20785	2023-06-25T03:59:36	15.7	74
20786	2023-06-25T04:09:36	15.7	74.5
20787	2023-06-25T04:19:36	15.9	74
20788	2023-06-25T04:29:36	16	73.5
20789	2023-06-25T04:39:36	16.1	73
20790	2023-06-25T04:49:36	16.3	72.5
20791	2023-06-25T04:59:36	16.4	72.5
20792	2023-06-25T05:09:36	16.5	72.5
20793	2023-06-25T05:19:36	16.8	72
20794	2023-06-25T05:29:36	17	71
20795	2023-06-25T05:39:36	17.3	70
20796	2023-06-25T05:49:36	17.7	69
20797	2023-06-25T05:59:36	17.9	69
20798	2023-06-25T06:09:36	18.2	68
20799	2023-06-25T06:19:36	18.5	67
20800	2023-06-25T06:29:36	19	66
20801	2023-06-25T06:39:36	19.5	64.5
20802	2023-06-25T06:49:36	19.7	63
20803	2023-06-25T06:59:36	20	61.5
20804	2023-06-25T07:09:36	20.6	60
20805	2023-06-25T07:19:36	20.9	59
20806	2023-06-25T07:29:36	21.3	58.5
20807	2023-06-25T07:39:36	21.6	57
20808	2023-06-25T07:49:36	21.9	58
20809	2023-06-25T07:59:36	22.1	55
20810	2023-06-25T08:09:36	22.5	53
20811	2023-06-25T08:19:36	22.9	50.5
20812	2023-06-25T08:29:36	23.1	49
20813	2023-06-25T08:39:36	23.5	45.5
20814	2023-06-25T08:49:36	23.8	45
20815	2023-06-25T08:59:36	24.2	39
20816	2023-06-25T09:09:36	24.5	39.5
20817	2023-06-25T09:19:36	24.8	40
20818	2023-06-25T09:29:36	25	41
20819	2023-06-25T09:39:36	25.1	41.5
20820	2023-06-25T09:49:36	25.3	40
20821	2023-06-25T09:59:36	25.7	37.5
20822	2023-06-25T10:09:36	25.8	35
20823	2023-06-25T10:19:36	26	37
20824	2023-06-25T10:29:36	26.3	34.5
20825	2023-06-25T10:39:36	26.6	33.5
20826	2023-06-25T10:49:36	26.7	34
20827	2023-06-25T10:59:35	27.1	33
20828	2023-06-25T11:09:35	27.4	32.5
20829	2023-06-25T11:19:35	27.6	32.5
20830	2023-06-25T11:29:35	27.8	31.5
20831	2023-06-25T11:39:35	28.2	30.5
20832	2023-06-25T11:49:35	28.4	29
20833	2023-06-25T11:59:35	28.9	28.5
20834	2023-06-25T12:09:35	30.5	26.5
20835	2023-06-25T12:19:35	35.3	21
20836	2023-06-25T12:29:35	38.1	18.5
20837	2023-06-25T12:39:36	39.3	17.5
20838	2023-06-25T12:49:35	40.8	17
20839	2023-06-25T12:59:35	42	15.5
20840	2023-06-25T13:09:35	42.6	14.5
20841	2023-06-25T13:19:35	42.7	14.5
20842	2023-06-25T13:29:35	43.4	14
20843	2023-06-25T13:39:35	44.6	13.5
20844	2023-06-25T13:49:35	45.9	13
20845	2023-06-25T13:59:35	46	12
20846	2023-06-25T14:09:35	46.3	11.5
20847	2023-06-25T14:19:35	46	12
20848	2023-06-25T14:29:35	46.4	11.5
20849	2023-06-25T14:39:35	47.1	11.5
20850	2023-06-25T14:49:35	47.1	11.5
20851	2023-06-25T14:59:35	47.3	11.5
20852	2023-06-25T15:09:35	48	11
20853	2023-06-25T15:19:35	47.8	11.5
20854	2023-06-25T15:29:35	47.3	11
20855	2023-06-25T15:39:35	47.9	11
20856	2023-06-25T15:49:35	47	11.5
20857	2023-06-25T15:59:35	47	11.5
20858	2023-06-25T16:09:35	48	11.5
20859	2023-06-25T16:19:35	48.2	11.5
20860	2023-06-25T16:29:35	47.4	11.5
20861	2023-06-25T16:39:35	46.5	11.5
20862	2023-06-25T16:49:35	45.3	12
20863	2023-06-25T16:59:35	45.3	12.5
20864	2023-06-25T17:09:35	45.1	13
20865	2023-06-25T17:19:35	44.4	13
20866	2023-06-25T17:29:35	43.4	13.5
20867	2023-06-25T17:39:35	42.7	13.5
20868	2023-06-25T17:49:35	42.5	14
20869	2023-06-25T17:59:35	42.1	14.5
20870	2023-06-25T18:09:35	41	16
20871	2023-06-25T18:19:35	40.2	16
20872	2023-06-25T18:29:35	37.6	19.5
20873	2023-06-25T18:39:35	35.4	24
20874	2023-06-25T18:49:35	34.2	25
20875	2023-06-25T18:59:35	33.7	31.5
20876	2023-06-25T19:09:35	32.6	35.5
20877	2023-06-25T19:19:35	31.7	37
20878	2023-06-25T19:29:35	30.8	40
20879	2023-06-25T19:39:35	30.2	41
20880	2023-06-25T19:49:35	29.5	40.5
20881	2023-06-25T19:59:35	28.8	42.5
20882	2023-06-25T20:09:35	28.4	42.5
20883	2023-06-25T20:19:35	27.9	43
20884	2023-06-25T20:29:35	27.3	41.5
20885	2023-06-25T20:39:35	26.8	43.5
20886	2023-06-25T20:49:35	26.5	44.5
20887	2023-06-25T20:59:35	26.2	45.5
20888	2023-06-25T21:09:35	25.8	47
20889	2023-06-25T21:19:35	25.3	47.5
20890	2023-06-25T21:29:35	24.8	50
20891	2023-06-25T21:49:35	24.2	52
20892	2023-06-25T21:59:35	23.8	53.5
20893	2023-06-25T22:09:35	23.6	52
20894	2023-06-25T22:19:35	23.2	55
20895	2023-06-25T22:29:35	23	54.5
20896	2023-06-25T22:39:35	22.7	55.5
20897	2023-06-25T22:49:34	22.3	56.5
20898	2023-06-25T22:59:34	22.2	57.5
20899	2023-06-25T23:09:34	21.8	58
20900	2023-06-25T23:19:34	21.5	57.5
20901	2023-06-25T23:29:34	21.4	58.5
20902	2023-06-25T23:39:34	21.1	60
20903	2023-06-25T23:49:34	20.9	60.5
20904	2023-06-25T23:59:34	20.6	61
20905	2023-06-26T00:09:34	20.3	62.5
20906	2023-06-26T00:19:34	20.2	64
20907	2023-06-26T00:29:34	20	64.5
20908	2023-06-26T00:39:34	19.7	64.5
20909	2023-06-26T00:49:34	19.5	64
20910	2023-06-26T00:59:34	19.4	66
20911	2023-06-26T01:09:34	19.3	66.5
20912	2023-06-26T01:19:34	19	66.5
20913	2023-06-26T01:29:34	18.8	66.5
20914	2023-06-26T01:39:34	18.6	67.5
20915	2023-06-26T01:49:34	18.4	69
20916	2023-06-26T01:59:34	18.3	69
20917	2023-06-26T02:09:34	18.1	68.5
20918	2023-06-26T02:19:34	18	70.5
20919	2023-06-26T02:29:34	17.9	70.5
20920	2023-06-26T02:39:34	17.8	71
20921	2023-06-26T02:49:34	17.5	71.5
20922	2023-06-26T02:59:34	17.3	72
20923	2023-06-26T03:09:34	17.4	73
20924	2023-06-26T03:19:34	17.2	72.5
20925	2023-06-26T03:29:34	17.1	73.5
20926	2023-06-26T03:39:34	17.1	73.5
20927	2023-06-26T03:49:34	17	74
20928	2023-06-26T03:59:34	17	73.5
20929	2023-06-26T04:09:34	17.1	74
20930	2023-06-26T04:19:34	17.1	73.5
20931	2023-06-26T04:29:34	17.2	72
20932	2023-06-26T04:39:34	17.3	73.5
20933	2023-06-26T04:49:34	17.6	72.5
20934	2023-06-26T04:59:34	17.7	72.5
20935	2023-06-26T05:09:34	18	72.5
20936	2023-06-26T05:19:34	18.3	70
20937	2023-06-26T05:29:34	18.7	69.5
20938	2023-06-26T05:39:34	19.1	66.5
20939	2023-06-26T05:49:34	19.4	66.5
20940	2023-06-26T05:59:34	19.7	66
20941	2023-06-26T06:09:34	20.1	65.5
20942	2023-06-26T06:19:34	20.6	64
20943	2023-06-26T06:29:34	21.3	60
20944	2023-06-26T06:39:34	21.8	57.5
20945	2023-06-26T06:59:34	22.7	56
20946	2023-06-26T07:09:34	23.1	55.5
20947	2023-06-26T07:19:34	23.6	54.5
20948	2023-06-26T07:29:34	24	53
20949	2023-06-26T07:39:34	24.5	54.5
20950	2023-06-26T07:49:34	25.1	53
20951	2023-06-26T07:59:34	25.5	47.5
20952	2023-06-26T08:09:34	25.8	47.5
20953	2023-06-26T08:19:34	26	48.5
20954	2023-06-26T08:29:34	26.4	48
20955	2023-06-26T08:39:34	26.6	47
20956	2023-06-26T08:49:34	26.7	48.5
20957	2023-06-26T08:59:34	26.9	49
20958	2023-06-26T09:09:34	27.2	47
20959	2023-06-26T09:19:34	27.5	46.5
20960	2023-06-26T09:29:34	27.7	47
20961	2023-06-26T09:39:33	27.4	47
20962	2023-06-26T09:59:33	27.1	50
20963	2023-06-26T10:09:33	27.2	49.5
20964	2023-06-26T10:19:33	27	50
20965	2023-06-26T10:29:33	27.3	50.5
20966	2023-06-26T10:39:33	27.6	49
20967	2023-06-26T10:49:34	28.3	47
20968	2023-06-26T11:09:33	28.9	45
20969	2023-06-26T11:19:34	28.8	44.5
20970	2023-06-26T11:29:34	29.2	42.5
20971	2023-06-26T11:39:33	29	42.5
20972	2023-06-26T11:49:33	28.9	40.5
20973	2023-06-26T11:59:33	29	39
20974	2023-06-26T12:09:33	29.8	36.5
20975	2023-06-26T12:19:33	32.2	32
20976	2023-06-26T12:39:33	35	27.5
20977	2023-06-26T12:49:33	35.1	27.5
20978	2023-06-26T12:59:33	35.3	26.5
20979	2023-06-26T13:09:33	35.7	26.5
20980	2023-06-26T13:19:33	35.7	26.5
20981	2023-06-26T13:29:33	35	27
20982	2023-06-26T13:39:33	35.2	27.5
20983	2023-06-26T13:49:33	36.8	25
20984	2023-06-26T13:59:33	35.7	26.5
20985	2023-06-26T14:19:33	36.4	24.5
20986	2023-06-26T14:29:33	36.4	24.5
20987	2023-06-26T14:39:33	35.8	25.5
20988	2023-06-26T14:49:33	35.1	26
20989	2023-06-26T14:59:33	36.4	23
20990	2023-06-26T15:09:33	36.2	22.5
20991	2023-06-26T15:19:33	34.8	22
20992	2023-06-26T15:29:33	33.4	23.5
20993	2023-06-26T15:39:33	33.6	21.5
20994	2023-06-26T15:49:33	35.2	18.5
20995	2023-06-26T15:59:33	34.4	19.5
20996	2023-06-26T16:09:33	32.6	21.5
20997	2023-06-26T16:19:33	32.9	20.5
20998	2023-06-26T16:29:33	32.6	21
20999	2023-06-26T16:39:33	33.5	20
21000	2023-06-26T16:49:33	33.5	21
21001	2023-06-26T16:59:33	33.9	21
21002	2023-06-26T17:09:33	33	21.5
21003	2023-06-26T17:19:33	32.6	22.5
21004	2023-06-26T17:29:33	31.2	24.5
21005	2023-06-26T17:39:33	30.7	25.5
21006	2023-06-26T17:49:33	30.6	25
21007	2023-06-26T17:59:33	29.9	25
21008	2023-06-26T18:09:33	28.9	26.5
21009	2023-06-26T18:19:33	27.3	29
21010	2023-06-26T18:29:33	26.2	31
21011	2023-06-26T18:39:33	25.5	32.5
21012	2023-06-26T18:49:33	24.9	34
21013	2023-06-26T18:59:33	24.5	35.5
21014	2023-06-26T19:09:33	24.2	37
21015	2023-06-26T19:19:33	23.8	38
21016	2023-06-26T19:29:33	23.5	39
21017	2023-06-26T19:39:33	23.1	40
21018	2023-06-26T19:49:32	22.9	41
21019	2023-06-26T19:59:32	22.6	42.5
21020	2023-06-26T20:09:32	22.5	43
21021	2023-06-26T20:19:32	22.2	44
21022	2023-06-26T20:29:32	21.8	45
21023	2023-06-26T20:39:32	21.4	46
21024	2023-06-26T20:49:32	21.3	46.5
21025	2023-06-26T20:59:32	21.2	46.5
21026	2023-06-26T21:09:32	21.1	46
21027	2023-06-26T21:19:32	21.1	46.5
21028	2023-06-26T21:29:32	21.2	47
21029	2023-06-26T21:39:32	21.2	46.5
21030	2023-06-26T21:49:32	21.1	47
21031	2023-06-26T21:59:32	21	47.5
21032	2023-06-26T22:09:32	20.9	47.5
21033	2023-06-26T22:19:32	20.9	47.5
21034	2023-06-26T22:29:32	20.7	48.5
21035	2023-06-26T22:39:32	20.8	48
21036	2023-06-26T22:49:32	20.6	49
21037	2023-06-26T22:59:32	20.7	48.5
21038	2023-06-26T23:09:32	20.6	49
21039	2023-06-26T23:19:32	20.4	49
21040	2023-06-26T23:29:32	20.3	49
21041	2023-06-26T23:39:32	20.4	50
21042	2023-06-26T23:49:32	20.3	50
21043	2023-06-26T23:59:32	20.3	50
21044	2023-06-27T00:09:32	20.3	51.5
21045	2023-06-27T00:19:32	20.2	51
21046	2023-06-27T00:29:32	20.1	51.5
21047	2023-06-27T00:39:32	20.1	52
21048	2023-06-27T00:49:32	20.1	52.5
21049	2023-06-27T00:59:32	20	51.5
21050	2023-06-27T01:09:32	19.9	55
21051	2023-06-27T01:19:32	19.8	54
21052	2023-06-27T01:29:32	19.7	54.5
21053	2023-06-27T01:39:32	19.7	55.5
21054	2023-06-27T01:49:32	19.5	56.5
21055	2023-06-27T01:59:32	19.4	58.5
21056	2023-06-27T02:09:32	19.1	58.5
21057	2023-06-27T02:19:32	18.9	57
21058	2023-06-27T02:29:32	18.8	59
21059	2023-06-27T02:39:32	18.5	60
21060	2023-06-27T02:49:32	18.2	60.5
21061	2023-06-27T02:59:32	18.3	60.5
21062	2023-06-27T03:09:32	18.2	61
21063	2023-06-27T03:19:32	17.9	61
21064	2023-06-27T03:29:32	17.8	61
21065	2023-06-27T03:39:32	17.7	61.5
21066	2023-06-27T03:49:32	17.7	61.5
21067	2023-06-27T03:59:32	17.7	62
21068	2023-06-27T04:09:32	17.4	63.5
21069	2023-06-27T04:19:32	17.3	64
21070	2023-06-27T04:29:32	17.5	64
21071	2023-06-27T04:39:32	17.5	63.5
21072	2023-06-27T04:49:32	17.3	64.5
21073	2023-06-27T04:59:32	17	64.5
21074	2023-06-27T05:09:32	17.2	66.5
21075	2023-06-27T05:19:32	17.3	66.5
21076	2023-06-27T05:29:32	17.6	64.5
21077	2023-06-27T05:39:32	17.8	64.5
21078	2023-06-27T05:49:32	18.2	64
21079	2023-06-27T05:59:32	18.7	63
21080	2023-06-27T06:09:32	18.8	61.5
21081	2023-06-27T06:19:32	19	58.5
21082	2023-06-27T06:29:31	19.1	56.5
21083	2023-06-27T06:39:32	19.3	55.5
21084	2023-06-27T06:49:31	19.6	54.5
21085	2023-06-27T06:59:31	19.6	54.5
21086	2023-06-27T07:09:31	19.7	53.5
21087	2023-06-27T07:19:31	19.8	51.5
21088	2023-06-27T07:29:31	20	50
21089	2023-06-27T07:39:31	20.3	51.5
21090	2023-06-27T07:49:31	20.4	47.5
21091	2023-06-27T07:59:31	20.6	48
21092	2023-06-27T08:09:31	20.9	47
21093	2023-06-27T08:19:31	21.3	45.5
21094	2023-06-27T08:29:31	21.6	45
21095	2023-06-27T08:39:31	22.1	44
21096	2023-06-27T08:49:31	23	43
21097	2023-06-27T08:59:31	23.6	40.5
21098	2023-06-27T09:09:31	23.5	40
21099	2023-06-27T09:19:31	23.9	39.5
21100	2023-06-27T09:29:31	23.9	39.5
21101	2023-06-27T09:39:31	24.1	39.5
21102	2023-06-27T09:49:31	24.5	38
21103	2023-06-27T09:59:31	24.6	38.5
21104	2023-06-27T10:09:31	24.5	38
21105	2023-06-27T10:19:31	25.2	38.5
21106	2023-06-27T10:29:31	25.2	37
21107	2023-06-27T10:39:31	24.8	36.5
21108	2023-06-27T10:49:31	24.9	36.5
21109	2023-06-27T10:59:31	25.2	36
21110	2023-06-27T11:09:31	25.4	36
21111	2023-06-27T11:19:31	25.8	34.5
21112	2023-06-27T11:29:31	25.9	34
21113	2023-06-27T11:39:31	26.1	33
21114	2023-06-27T11:49:31	26	34.5
21115	2023-06-27T11:59:31	26.6	32.5
21116	2023-06-27T12:09:31	27	31.5
21117	2023-06-27T12:19:31	29.5	27.5
21118	2023-06-27T12:29:31	31.1	26
21119	2023-06-27T12:39:31	29.3	29
21120	2023-06-27T12:49:31	32.4	24.5
21121	2023-06-27T12:59:31	33.5	23
21122	2023-06-27T13:09:31	32.3	24.5
21123	2023-06-27T13:19:31	29.1	28.5
21124	2023-06-27T13:29:31	28	30.5
21125	2023-06-27T13:39:31	27.9	30.5
21126	2023-06-27T13:49:31	33.7	23
21127	2023-06-27T13:59:31	33.5	23
21128	2023-06-27T14:09:31	33	23.5
21129	2023-06-27T14:19:31	30.2	27.5
21130	2023-06-27T14:29:31	29.4	27.5
21131	2023-06-27T14:39:31	28.7	28.5
21132	2023-06-27T14:49:31	28.3	29
21133	2023-06-27T14:59:31	27.4	30
21134	2023-06-27T15:09:31	27.6	31
21135	2023-06-27T15:19:31	27.3	31
21136	2023-06-27T15:29:31	26.8	31
21137	2023-06-27T15:39:31	26.7	31
21138	2023-06-27T15:59:31	27.5	30.5
21139	2023-06-27T16:09:31	27.3	31.5
21140	2023-06-27T16:19:31	27.1	31
21141	2023-06-27T16:29:31	27.4	30.5
21142	2023-06-27T16:39:31	26.9	30.5
21143	2023-06-27T16:49:31	29.6	26.5
21144	2023-06-27T16:59:30	28.8	27.5
21145	2023-06-27T17:09:31	28.8	27
21146	2023-06-27T17:29:30	29.7	26
21147	2023-06-27T17:39:30	30.5	25
21148	2023-06-27T17:49:30	31.7	23.5
21149	2023-06-27T17:59:30	31	24.5
21150	2023-06-27T18:09:30	27.8	28
21151	2023-06-27T18:19:30	29.4	26.5
21152	2023-06-27T18:29:30	27.9	29
21153	2023-06-27T18:39:30	26.4	31.5
21154	2023-06-27T18:49:30	25.6	33
21155	2023-06-27T18:59:30	24.9	34
21156	2023-06-27T19:09:30	24.8	35.5
21157	2023-06-27T19:19:30	24.6	35.5
21158	2023-06-27T19:29:30	24.1	37
21159	2023-06-27T19:39:30	23.9	40
21160	2023-06-27T19:49:30	23.6	43
21161	2023-06-27T19:59:30	23.2	44
21162	2023-06-27T20:09:30	22.9	45
21163	2023-06-27T20:19:30	22.6	45
21164	2023-06-27T20:29:30	22.4	46.5
21165	2023-06-27T20:39:50	22	47
21166	2023-06-27T20:49:30	21.9	47.5
21167	2023-06-27T20:59:30	21.7	48.5
21168	2023-06-27T21:09:30	21.5	48.5
21169	2023-06-27T21:19:30	21.4	49
21170	2023-06-27T21:29:30	21.3	49.5
21171	2023-06-27T21:39:30	21.3	48.5
21172	2023-06-27T21:49:30	21.2	49.5
21173	2023-06-27T21:59:30	20.9	50
21174	2023-06-27T22:09:30	20.9	50.5
21175	2023-06-27T22:19:30	20.7	52.5
21176	2023-06-27T22:29:30	20.5	53
21177	2023-06-27T22:39:30	20.4	52.5
21178	2023-06-27T22:49:30	20.4	52.5
21179	2023-06-27T22:59:30	20.1	53.5
21180	2023-06-27T23:09:30	20	53
21181	2023-06-27T23:19:30	20	53.5
21182	2023-06-27T23:29:30	19.9	54
21183	2023-06-27T23:49:30	19.8	55.5
21184	2023-06-27T23:59:30	19.7	55
21185	2023-06-28T00:09:30	19.6	55.5
21186	2023-06-28T00:19:30	19.6	55.5
21187	2023-06-28T00:29:30	19.4	57
21188	2023-06-28T00:39:30	19.4	57
21189	2023-06-28T00:49:30	19.4	58
21190	2023-06-28T00:59:30	19.3	57
21191	2023-06-28T01:19:30	19.1	60.5
21192	2023-06-28T01:29:30	18.9	61
21193	2023-06-28T01:39:30	18.9	62.5
21194	2023-06-28T01:49:30	18.7	65.5
21195	2023-06-28T01:59:30	18.7	63.5
21196	2023-06-28T02:09:30	18.5	63.5
21197	2023-06-28T02:19:30	18.5	65
21198	2023-06-28T02:29:30	18.3	64.5
21199	2023-06-28T02:39:46	18.3	65.5
21200	2023-06-28T02:49:30	18.3	66
21201	2023-06-28T02:59:30	18.1	67
21202	2023-06-28T03:09:29	18.1	68
21203	2023-06-28T03:19:29	18	67.5
21204	2023-06-28T03:29:29	17.9	67.5
21205	2023-06-28T03:39:30	17.9	68.5
21206	2023-06-28T03:49:29	17.6	69.5
21207	2023-06-28T03:59:29	17.6	69
21208	2023-06-28T04:09:29	17.6	70.5
21209	2023-06-28T04:19:29	17.8	68.5
21210	2023-06-28T04:29:29	18	67.5
21211	2023-06-28T04:39:29	18.1	66.5
21212	2023-06-28T04:49:29	18	66.5
21213	2023-06-28T04:59:29	18.1	66.5
21214	2023-06-28T05:09:29	18.5	64
21215	2023-06-28T05:19:29	18.8	64.5
21216	2023-06-28T05:29:29	18.9	63.5
21217	2023-06-28T05:39:29	18.9	63
21218	2023-06-28T05:49:29	18.9	64
21219	2023-06-28T05:59:29	19.1	64.5
21220	2023-06-28T06:09:29	19.4	62
21221	2023-06-28T06:19:29	19.4	61
21222	2023-06-28T06:29:29	19.7	60
21223	2023-06-28T06:39:29	20	58
21224	2023-06-28T06:49:47	20.3	56
21225	2023-06-28T06:59:29	20.7	55.5
21226	2023-06-28T07:09:29	21	53.5
21227	2023-06-28T07:19:29	21.4	51.5
21228	2023-06-28T07:29:29	21.7	48
21229	2023-06-28T07:39:29	21.6	49
21230	2023-06-28T07:49:29	21.7	49.5
21231	2023-06-28T07:59:29	21.3	50.5
21232	2023-06-28T08:09:29	21	51.5
21233	2023-06-28T08:19:29	20.8	51.5
21234	2023-06-28T08:29:29	21.1	51.5
21235	2023-06-28T08:39:29	21.2	46.5
21236	2023-06-28T08:49:29	21.3	48.5
21237	2023-06-28T08:59:29	21.5	46
21238	2023-06-28T09:09:29	22	46
21239	2023-06-28T09:19:29	22.5	44
21240	2023-06-28T09:29:29	22.7	43
21241	2023-06-28T09:39:29	23.3	43
21242	2023-06-28T09:49:29	24	41.5
21243	2023-06-28T09:59:29	25.1	40
21244	2023-06-28T10:09:29	24.7	40
21245	2023-06-28T10:19:29	24.1	41.5
21246	2023-06-28T10:29:29	23.9	42
21247	2023-06-28T10:39:29	24.9	39.5
21248	2023-06-28T10:49:29	26	37.5
21249	2023-06-28T10:59:29	26.2	35.5
21250	2023-06-28T11:09:29	26.5	35
21251	2023-06-28T11:19:29	28	33
21252	2023-06-28T11:29:29	28.5	33
21253	2023-06-28T11:39:29	28	33.5
21254	2023-06-28T11:49:29	28.1	33
21255	2023-06-28T11:59:29	28.1	33.5
21256	2023-06-28T12:09:29	28.7	33.5
21257	2023-06-28T12:19:29	28.9	33
21258	2023-06-28T12:29:29	31.2	30.5
21259	2023-06-28T12:39:29	33	27
21260	2023-06-28T12:49:29	33.3	26.5
21261	2023-06-28T12:59:29	32.8	27.5
21262	2023-06-28T13:09:29	32.2	27.5
21263	2023-06-28T13:19:29	31.1	29.5
21264	2023-06-28T13:29:29	31.5	29
21265	2023-06-28T13:39:28	30.6	30.5
21266	2023-06-28T13:49:29	32	28
21267	2023-06-28T13:59:28	30.3	30.5
21268	2023-06-28T14:09:28	29.9	32
21269	2023-06-28T14:19:28	29.4	32.5
21270	2023-06-28T14:29:28	31.7	29
21271	2023-06-28T14:39:28	36.8	22.5
21272	2023-06-28T14:49:28	38.2	21
21273	2023-06-28T14:59:28	41.4	18.5
21274	2023-06-28T15:09:28	40	19.5
21275	2023-06-28T15:19:28	43.4	16.5
21276	2023-06-28T15:29:28	41.8	17.5
21277	2023-06-28T15:39:28	38	21
21278	2023-06-28T15:49:28	38	21
21279	2023-06-28T15:59:28	34	25
21280	2023-06-28T16:19:28	35.1	24
21281	2023-06-28T16:29:28	38.6	20.5
21282	2023-06-28T16:39:28	38.1	20
21283	2023-06-28T16:49:28	37.6	21.5
21284	2023-06-28T16:59:28	38.9	20
21285	2023-06-28T17:19:28	39.2	20.5
21286	2023-06-28T17:29:28	38.2	23.5
21287	2023-06-28T17:39:28	38	22
21288	2023-06-28T17:49:28	36.6	22
21289	2023-06-28T17:59:28	34.6	24.5
21290	2023-06-28T18:09:28	33.8	27.5
21291	2023-06-28T18:19:28	35.4	24
21292	2023-06-28T18:29:28	31.3	29
21293	2023-06-28T18:39:28	30.4	33
21294	2023-06-28T18:49:28	29.5	34
21295	2023-06-28T18:59:28	29.3	36
21296	2023-06-28T19:09:28	28.3	39
21297	2023-06-28T19:19:28	27.6	40
21298	2023-06-28T19:29:28	26.9	41.5
21299	2023-06-28T19:39:28	26.1	43.5
21300	2023-06-28T19:49:28	25.5	47
21301	2023-06-28T19:59:28	25	48
21302	2023-06-28T20:09:28	24.6	48
21303	2023-06-28T20:19:28	24.1	48.5
21304	2023-06-28T20:29:28	23.7	50.5
21305	2023-06-28T20:39:28	23.3	52
21306	2023-06-28T20:49:28	23	52
21307	2023-06-28T20:59:28	22.6	53
21308	2023-06-28T21:09:28	22.3	53.5
21309	2023-06-28T21:19:28	22	54.5
21310	2023-06-28T21:29:28	21.7	54.5
21311	2023-06-28T21:39:28	21.4	55.5
21312	2023-06-28T21:49:28	21.1	56.5
21313	2023-06-28T21:59:28	20.9	58
21314	2023-06-28T22:09:28	20.6	58.5
21315	2023-06-28T22:19:28	20.4	58.5
21316	2023-06-28T22:29:28	20	59.5
21317	2023-06-28T22:39:28	19.8	60
21318	2023-06-28T22:49:28	19.7	61.5
21319	2023-06-28T22:59:28	19.6	61
21320	2023-06-28T23:09:28	19.3	62
21321	2023-06-28T23:19:28	19.2	62
21322	2023-06-28T23:29:28	19.1	63.5
21323	2023-06-28T23:39:28	18.8	63.5
21324	2023-06-28T23:49:28	18.6	64
21325	2023-06-28T23:59:27	18.4	64.5
21326	2023-06-29T00:09:28	18.3	65
21327	2023-06-29T00:19:27	18.2	65
21328	2023-06-29T00:29:27	18.1	65.5
21329	2023-06-29T00:39:27	17.9	66
21330	2023-06-29T00:49:27	17.8	66
21331	2023-06-29T00:59:27	17.7	66.5
21332	2023-06-29T01:09:27	17.6	67
21333	2023-06-29T01:19:28	17.4	68
21334	2023-06-29T01:49:27	17.1	69
21335	2023-06-29T01:59:27	17	68.5
21336	2023-06-29T02:09:27	16.8	69
21337	2023-06-29T02:19:27	16.7	69.5
21338	2023-06-29T02:29:27	16.6	70.5
21339	2023-06-29T02:39:27	16.6	70
21340	2023-06-29T02:49:28	16.4	71
21341	2023-06-29T02:59:27	16.2	72
21342	2023-06-29T03:09:27	16	73
21343	2023-06-29T03:19:27	15.9	73.5
21344	2023-06-29T03:29:27	15.8	73.5
21345	2023-06-29T03:39:27	15.7	74
21346	2023-06-29T03:59:27	15.6	74.5
21347	2023-06-29T04:09:27	15.7	74.5
21348	2023-06-29T04:19:27	15.8	74
21349	2023-06-29T04:29:27	15.9	74
21350	2023-06-29T04:39:27	15.9	74
21351	2023-06-29T04:49:27	16	74.5
21352	2023-06-29T04:59:27	16.1	75.5
21353	2023-06-29T05:09:27	16.2	75.5
21354	2023-06-29T05:19:27	16.7	75
21355	2023-06-29T05:29:27	17.4	72
21356	2023-06-29T05:39:27	17.8	69.5
21357	2023-06-29T05:49:27	18.3	69.5
21358	2023-06-29T05:59:27	18.5	69
21359	2023-06-29T06:09:27	18.9	68.5
21360	2023-06-29T06:19:27	19.9	64.5
21361	2023-06-29T06:29:27	20.7	62
21362	2023-06-29T06:39:27	20.8	62.5
21363	2023-06-29T06:49:27	20.9	61.5
21364	2023-06-29T06:59:27	21.3	60
21365	2023-06-29T07:09:27	21.7	59.5
21366	2023-06-29T07:19:27	22	58.5
21367	2023-06-29T07:29:27	22.5	56.5
21368	2023-06-29T07:39:27	23	55.5
21369	2023-06-29T07:49:27	23.5	53
21370	2023-06-29T07:59:27	23.5	53.5
21371	2023-06-29T08:09:27	23.5	53
21372	2023-06-29T08:19:27	24	50
21373	2023-06-29T08:29:27	24.4	49.5
21374	2023-06-29T08:39:27	24.6	49
21375	2023-06-29T08:49:27	25	48
21376	2023-06-29T08:59:27	25.6	47
21377	2023-06-29T09:09:27	25.8	47.5
21378	2023-06-29T09:19:27	25.7	47.5
21379	2023-06-29T09:29:27	25.6	47.5
21380	2023-06-29T09:39:27	25.7	47.5
21381	2023-06-29T09:49:27	26.1	46.5
21382	2023-06-29T09:59:27	26.8	46
21383	2023-06-29T10:09:27	27.3	44
21384	2023-06-29T10:19:27	27.4	43.5
21385	2023-06-29T10:29:27	27.7	43.5
21386	2023-06-29T10:39:27	27	43.5
21387	2023-06-29T10:49:27	27	44.5
21388	2023-06-29T10:59:26	27.1	42
21389	2023-06-29T11:09:26	27.6	39
21390	2023-06-29T11:19:26	28.1	39.5
21391	2023-06-29T11:29:26	28.7	37
21392	2023-06-29T11:39:26	28.8	37.5
21393	2023-06-29T11:49:26	29	35.5
21394	2023-06-29T11:59:26	29.5	35
21395	2023-06-29T12:09:26	29.8	34
21396	2023-06-29T12:19:26	30.3	32
21397	2023-06-29T12:39:26	32.8	29.5
21398	2023-06-29T12:49:26	32.2	29.5
21399	2023-06-29T12:59:26	31.4	30.5
21400	2023-06-29T13:09:26	31.4	30
21401	2023-06-29T13:19:26	32.5	30
21402	2023-06-29T13:29:26	31.5	32
21403	2023-06-29T13:39:26	32.1	32
21404	2023-06-29T13:49:26	33.6	30
21405	2023-06-29T13:59:26	34.7	28
21406	2023-06-29T14:09:26	31.7	33
21407	2023-06-29T14:19:26	30.5	35
21408	2023-06-29T14:29:26	29.8	35.5
21409	2023-06-29T14:39:26	29.1	36
21410	2023-06-29T14:49:26	28.4	38
21411	2023-06-29T14:59:26	27.8	39.5
21412	2023-06-29T15:09:26	27.5	49.5
21413	2023-06-29T15:19:26	30.1	41
21414	2023-06-29T15:29:26	34.4	30.5
21415	2023-06-29T15:39:26	36.1	27.5
21416	2023-06-29T15:49:26	33.5	30
21417	2023-06-29T15:59:26	32.2	31.5
21418	2023-06-29T16:09:26	35.1	27.5
21419	2023-06-29T16:19:26	38.1	24.5
21420	2023-06-29T16:29:26	39.2	23
21421	2023-06-29T16:39:26	40.1	22.5
21422	2023-06-29T16:49:26	39.8	22.5
21423	2023-06-29T16:59:26	40	22
21424	2023-06-29T17:09:26	39.1	23
21425	2023-06-29T17:19:26	38.7	24
21426	2023-06-29T17:29:26	36.3	26.5
21427	2023-06-29T17:39:26	36.8	26.5
21428	2023-06-29T17:49:26	36	27
21429	2023-06-29T17:59:26	34.6	29.5
21430	2023-06-29T18:09:26	32.6	32.5
21431	2023-06-29T18:19:26	31.2	35
21432	2023-06-29T18:29:26	30.6	37
21433	2023-06-29T18:39:26	30.1	39
21434	2023-06-29T18:49:26	29.4	42.5
21435	2023-06-29T18:59:26	28.8	44
21436	2023-06-29T19:09:26	28.3	44
21437	2023-06-29T19:19:26	28.1	45.5
21438	2023-06-29T19:29:26	27.6	46.5
21439	2023-06-29T19:39:26	27.3	49
21440	2023-06-29T19:49:26	27	48.5
21441	2023-06-29T20:09:26	26.4	51
21442	2023-06-29T20:19:26	26	50
21443	2023-06-29T20:29:26	25.7	51
21444	2023-06-29T20:39:26	25.2	52.5
21445	2023-06-29T20:49:26	24.8	53.5
21446	2023-06-29T20:59:26	24.4	54.5
21447	2023-06-29T21:09:25	24.2	55
21448	2023-06-29T21:19:26	24	55.5
21449	2023-06-29T21:29:25	23.8	56.5
21450	2023-06-29T21:39:25	23.5	57
21451	2023-06-29T21:49:25	23.3	59
21452	2023-06-29T21:59:25	23.2	59.5
21453	2023-06-29T22:09:25	22.9	60
21454	2023-06-29T22:19:25	22.6	61
21455	2023-06-29T22:29:25	22.5	62
21456	2023-06-29T22:39:25	22.4	63
21457	2023-06-29T22:49:25	22	64
21458	2023-06-29T22:59:25	21.8	64.5
21459	2023-06-29T23:09:25	21.8	66
21460	2023-06-29T23:19:25	21.6	66.5
21461	2023-06-29T23:29:45	21.5	67.5
21462	2023-06-29T23:39:25	21.3	67.5
21463	2023-06-29T23:49:25	21.3	67
21464	2023-06-29T23:59:46	21.3	66.5
21465	2023-06-30T00:09:25	21	67
21466	2023-06-30T00:19:25	20.8	68.5
21467	2023-06-30T00:29:25	20.6	69.5
21468	2023-06-30T00:39:25	20.5	69
21469	2023-06-30T00:49:25	20.5	69.5
21470	2023-06-30T00:59:25	20.3	68.5
21471	2023-06-30T01:09:25	20.5	68.5
21472	2023-06-30T01:19:25	20.4	70
21473	2023-06-30T01:29:25	20.2	70.5
21474	2023-06-30T01:39:25	20.1	71
21475	2023-06-30T01:49:25	20.2	71
21476	2023-06-30T01:59:25	20.2	70.5
21477	2023-06-30T02:09:25	20.1	71.5
21478	2023-06-30T02:19:25	20.1	72.5
21479	2023-06-30T02:29:25	20.1	72
21480	2023-06-30T02:39:25	20.2	73
21481	2023-06-30T02:49:25	20.1	72
21482	2023-06-30T02:59:25	19.9	72.5
21483	2023-06-30T03:09:25	20	72
21484	2023-06-30T03:19:25	20	72.5
21485	2023-06-30T03:29:25	20	72.5
21486	2023-06-30T03:39:25	19.9	73.5
21487	2023-06-30T03:49:25	19.9	74
21488	2023-06-30T03:59:25	19.9	73
21489	2023-06-30T04:09:25	20	73.5
21490	2023-06-30T04:19:25	19.9	73.5
21491	2023-06-30T04:29:25	19.9	74
21492	2023-06-30T04:39:25	20.1	73
21493	2023-06-30T04:49:25	19.9	74
21494	2023-06-30T04:59:25	19.9	74
21495	2023-06-30T05:09:25	20.1	74
21496	2023-06-30T05:19:25	20.3	74.5
21497	2023-06-30T05:29:25	20.4	75
21498	2023-06-30T05:39:25	20.5	75
21499	2023-06-30T05:49:25	20.7	74.5
21500	2023-06-30T05:59:25	20.8	74.5
21501	2023-06-30T06:09:25	21	73
21502	2023-06-30T06:19:25	21.2	71
21503	2023-06-30T06:29:25	21.2	71.5
21504	2023-06-30T06:39:25	21	72.5
21505	2023-06-30T06:49:25	20.9	73
21506	2023-06-30T06:59:25	20.8	73.5
21507	2023-06-30T07:09:25	21.1	73
21508	2023-06-30T07:19:25	21.1	73
21509	2023-06-30T07:29:24	21.2	73.5
21510	2023-06-30T07:39:25	21.1	74.5
21511	2023-06-30T07:49:24	20.7	76
21512	2023-06-30T07:59:24	20.6	77
21513	2023-06-30T08:09:24	20.5	78
21514	2023-06-30T08:19:24	20.7	77.5
21515	2023-06-30T08:29:24	20.5	79
21516	2023-06-30T08:39:24	20.4	79.5
21517	2023-06-30T08:49:24	20.4	80
21518	2023-06-30T08:59:24	20.8	78.5
21519	2023-06-30T09:09:24	20.8	78.5
21520	2023-06-30T09:19:24	20.7	78.5
21521	2023-06-30T09:29:24	20.4	80
21522	2023-06-30T09:39:24	20.6	79.5
21523	2023-06-30T09:49:24	20.8	79
21524	2023-06-30T09:59:24	20.8	79
21525	2023-06-30T10:09:24	21	78
21526	2023-06-30T10:19:24	21.1	77
21527	2023-06-30T10:29:24	21.8	74
21528	2023-06-30T10:39:24	22.4	73
21529	2023-06-30T10:49:24	22.8	69
21530	2023-06-30T10:59:24	23.4	68
21531	2023-06-30T11:09:24	24	66.5
21532	2023-06-30T11:19:24	24.4	64.5
21533	2023-06-30T11:29:24	24.5	64.5
21534	2023-06-30T11:39:24	24.9	62.5
21535	2023-06-30T11:49:24	25.8	59.5
21536	2023-06-30T11:59:24	26.2	57.5
21537	2023-06-30T12:09:24	26.4	57
21538	2023-06-30T12:19:24	24.3	61.5
21539	2023-06-30T12:29:24	22.9	65.5
21540	2023-06-30T12:39:24	22.3	68.5
21541	2023-06-30T12:49:24	22.1	72
21542	2023-06-30T12:59:24	21.9	74
21543	2023-06-30T13:09:24	21.3	87.5
21544	2023-06-30T13:19:24	21.3	88.5
21545	2023-06-30T13:29:24	22.7	79
21546	2023-06-30T13:39:24	22.1	78.5
21547	2023-06-30T13:49:24	22.3	77.5
21548	2023-06-30T13:59:24	22.4	76.5
21549	2023-06-30T14:09:24	22.5	75
21550	2023-06-30T14:19:24	22.2	76.5
21551	2023-06-30T14:29:24	24.8	71.5
21552	2023-06-30T14:39:24	24.6	68
21553	2023-06-30T14:49:24	25.3	68
21554	2023-06-30T14:59:24	26.1	62
21555	2023-06-30T15:09:24	24.5	66.5
21556	2023-06-30T15:19:24	24.1	68.5
21557	2023-06-30T15:29:24	23.7	70
21558	2023-06-30T15:39:24	23	74
21559	2023-06-30T15:49:24	21.9	78
21560	2023-06-30T15:59:24	22.2	77
21561	2023-06-30T16:09:24	21.9	77.5
21562	2023-06-30T16:19:24	21.8	80
21563	2023-06-30T16:29:24	21.2	80
21564	2023-06-30T16:39:24	21.4	80
21565	2023-06-30T16:49:24	21.2	81
21566	2023-06-30T16:59:24	21.3	79
21567	2023-06-30T17:09:24	21.6	77.5
21568	2023-06-30T17:19:24	21.6	78
21569	2023-06-30T17:29:24	21.5	76.5
21570	2023-06-30T17:39:24	21.2	78
21571	2023-06-30T17:49:24	21	78.5
21572	2023-06-30T17:59:23	20.9	80
21573	2023-06-30T18:09:23	20.7	80.5
21574	2023-06-30T18:19:23	20.4	80.5
21575	2023-06-30T18:29:23	20.4	80
21576	2023-06-30T18:39:23	20.4	79
21577	2023-06-30T18:49:23	20.2	79
21578	2023-06-30T18:59:23	20.2	79
21579	2023-06-30T19:09:23	20.1	79.5
21580	2023-06-30T19:19:23	19.8	79.5
21581	2023-06-30T19:29:23	19.8	79
21582	2023-06-30T19:39:23	19.7	78.5
21583	2023-06-30T19:49:23	19.6	78
21584	2023-06-30T19:59:23	19.6	76.5
21585	2023-06-30T20:09:23	19.5	77
21586	2023-06-30T20:19:23	19.4	77
21587	2023-06-30T20:29:23	19.3	76.5
21588	2023-06-30T20:39:23	19.2	77
21589	2023-06-30T20:49:23	19.1	77.5
21590	2023-06-30T20:59:23	19	77.5
21591	2023-06-30T21:09:23	19	77.5
21592	2023-06-30T21:19:23	18.9	78.5
21593	2023-06-30T21:29:23	18.9	78.5
21594	2023-06-30T21:39:23	18.7	78
21595	2023-06-30T21:49:23	18.7	78.5
21596	2023-06-30T21:59:23	18.7	78.5
21597	2023-06-30T22:09:23	18.7	78
21598	2023-06-30T22:19:23	18.6	78.5
21599	2023-06-30T22:29:23	18.4	78.5
21600	2023-06-30T22:39:23	18.3	79.5
21601	2023-06-30T22:49:23	17.8	81
21602	2023-06-30T22:59:23	17.7	81.5
21603	2023-06-30T23:09:23	17.4	83
21604	2023-06-30T23:19:23	17.2	83.5
21605	2023-06-30T23:29:23	17.1	83.5
21606	2023-06-30T23:39:23	16.8	84.5
21607	2023-06-30T23:49:23	16.8	84.5
21608	2023-06-30T23:59:23	16.5	85
21609	2023-07-01T00:09:23	16.2	86.5
21610	2023-07-01T00:19:23	16	87.5
21611	2023-07-01T00:29:23	15.8	88
21612	2023-07-01T00:39:23	15.6	89
21613	2023-07-01T00:49:23	15.5	89.5
21614	2023-07-01T00:59:23	14.9	90
21615	2023-07-01T01:09:23	14.7	90
21616	2023-07-01T01:19:23	14.6	91
21617	2023-07-01T01:29:23	14.4	91.5
21618	2023-07-01T01:39:23	14.2	92.5
21619	2023-07-01T01:49:23	14	93
21620	2023-07-01T01:59:23	14	93
21621	2023-07-01T02:09:23	13.7	93.5
21622	2023-07-01T02:19:23	13.6	93.5
21623	2023-07-01T02:29:23	13.4	93
21624	2023-07-01T02:39:23	13.2	93.5
21625	2023-07-01T02:49:23	13.1	93.5
21626	2023-07-01T02:59:23	13	93.5
21627	2023-07-01T03:09:23	13	93.5
21628	2023-07-01T03:19:23	12.8	93.5
21629	2023-07-01T03:29:23	12.8	93.5
21630	2023-07-01T03:39:23	12.7	93.5
21631	2023-07-01T03:49:23	12.7	93.5
21632	2023-07-01T03:59:23	12.7	93.5
21633	2023-07-01T04:09:23	12.7	93.5
21634	2023-07-01T04:19:23	12.9	93.5
21635	2023-07-01T04:29:23	12.9	94
21636	2023-07-01T04:39:23	13.2	93.5
21637	2023-07-01T04:49:23	13.6	91
21638	2023-07-01T04:59:23	14.6	84
21639	2023-07-01T05:09:23	14.8	83
21640	2023-07-01T05:19:23	15.5	79.5
21641	2023-07-01T05:29:23	15.7	79
21642	2023-07-01T05:39:22	16.1	77.5
21643	2023-07-01T05:49:22	16.4	75.5
21644	2023-07-01T05:59:22	16.5	73
21645	2023-07-01T06:09:22	16.8	74
21646	2023-07-01T06:19:22	17.2	72.5
21647	2023-07-01T06:29:22	17.3	73.5
21648	2023-07-01T06:39:22	17.8	71
21649	2023-07-01T06:49:23	18.1	69
21650	2023-07-01T06:59:22	18.6	63.5
21651	2023-07-01T07:09:22	18.8	61.5
21652	2023-07-01T07:19:22	19.1	58.5
21653	2023-07-01T07:29:22	19.4	58.5
21654	2023-07-01T07:39:22	19.6	58.5
21655	2023-07-01T07:49:22	19.5	60.5
21656	2023-07-01T07:59:22	19.6	57.5
21657	2023-07-01T08:09:23	19.6	58.5
21658	2023-07-01T08:19:22	19.8	59.5
21659	2023-07-01T08:39:22	20.2	57
21660	2023-07-01T08:49:22	20.6	54
21661	2023-07-01T08:59:22	20.8	53
21662	2023-07-01T09:09:22	21.3	53
21663	2023-07-01T09:19:22	21.5	53.5
21664	2023-07-01T09:29:22	23	48
21665	2023-07-01T09:39:23	22.7	48
21666	2023-07-01T09:49:22	22.8	47.5
21667	2023-07-01T09:59:22	22.8	48
21668	2023-07-01T10:09:22	23.2	47
21669	2023-07-01T10:19:22	23.7	43.5
21670	2023-07-01T10:29:22	23.7	41
21671	2023-07-01T10:39:22	23.8	42
21672	2023-07-01T10:49:22	23.9	41.5
21673	2023-07-01T10:59:22	23.5	43
21674	2023-07-01T11:09:22	23.2	44.5
21675	2023-07-01T11:19:22	22.9	48
21676	2023-07-01T11:29:22	23.1	46
21677	2023-07-01T11:39:22	23.6	43.5
21678	2023-07-01T11:49:22	23.6	44.5
21679	2023-07-01T11:59:22	23.9	44.5
21680	2023-07-01T12:09:22	23.7	45
21681	2023-07-01T12:19:22	24.3	44.5
21682	2023-07-01T12:29:22	24.7	43
21683	2023-07-01T12:39:22	24.8	44
21684	2023-07-01T12:49:22	25	43
21685	2023-07-01T12:59:22	25.8	42
21686	2023-07-01T13:09:22	24.5	44
21687	2023-07-01T13:19:22	24.3	44.5
21688	2023-07-01T13:29:22	24.5	45.5
21689	2023-07-01T13:39:22	23.9	46.5
21690	2023-07-01T13:49:22	23.6	48.5
21691	2023-07-01T13:59:22	23.4	50
21692	2023-07-01T14:09:22	21.9	65.5
21693	2023-07-01T14:19:22	21.2	60.5
21694	2023-07-01T14:29:22	21.8	58.5
21695	2023-07-01T14:39:22	22.3	56.5
21696	2023-07-01T14:49:22	22.5	53.5
21697	2023-07-01T14:59:22	22.9	53.5
21698	2023-07-01T15:09:22	22.9	53.5
21699	2023-07-01T15:19:22	23	53.5
21700	2023-07-01T15:29:22	23.3	53
21701	2023-07-01T15:39:22	23.2	53.5
21702	2023-07-01T15:49:22	23.3	53
21703	2023-07-01T15:59:22	23.5	53
21704	2023-07-01T16:09:21	22.5	57
21705	2023-07-01T16:19:21	22.3	58
21706	2023-07-01T16:29:21	22	61
21707	2023-07-01T16:39:21	20.3	81
21708	2023-07-01T16:49:22	20.7	68.5
21709	2023-07-01T16:59:22	21.5	64.5
21710	2023-07-01T17:09:21	21.5	64.5
21711	2023-07-01T17:19:21	21.4	65.5
21712	2023-07-01T17:29:21	20.9	68
21713	2023-07-01T17:39:21	20.8	69
21714	2023-07-01T17:49:21	20.7	69.5
21715	2023-07-01T17:59:21	20.9	69
21716	2023-07-01T18:09:21	20.8	70
21717	2023-07-01T18:19:21	20.6	70
21718	2023-07-01T18:29:21	20.6	70.5
21719	2023-07-01T18:39:21	20.5	70.5
21720	2023-07-01T18:49:21	20.4	70
21721	2023-07-01T18:59:21	20.4	69.5
21722	2023-07-01T19:09:21	20.2	70.5
21723	2023-07-01T19:19:21	19.8	74
21724	2023-07-01T19:29:21	19.4	75.5
21725	2023-07-01T19:39:21	19.4	75.5
21726	2023-07-01T19:49:21	19.3	76
21727	2023-07-01T19:59:21	19.3	76
21728	2023-07-01T20:09:21	19.5	75.5
21729	2023-07-01T20:19:21	19.6	75.5
21730	2023-07-01T20:29:21	19.2	77
21731	2023-07-01T20:39:21	19	78.5
21732	2023-07-01T20:49:21	18.9	78.5
21733	2023-07-01T20:59:21	19.3	76.5
21734	2023-07-01T21:09:21	19.4	76.5
21735	2023-07-01T21:19:21	19	87
21736	2023-07-01T21:29:21	18	94.5
21737	2023-07-01T21:39:21	17.6	96
21738	2023-07-01T21:49:21	17.2	96.5
21739	2023-07-01T21:59:21	16.8	97
21740	2023-07-01T22:09:21	16.9	97.5
21741	2023-07-01T22:19:21	16.9	97.5
21742	2023-07-01T22:29:21	16.5	97.5
21743	2023-07-01T22:39:21	16.3	97.5
21744	2023-07-01T22:49:21	16.4	98
21745	2023-07-01T22:59:21	16.3	98
21746	2023-07-01T23:09:21	16.3	98.5
21747	2023-07-01T23:19:21	16.2	98.5
21748	2023-07-01T23:29:21	16.1	98.5
21749	2023-07-01T23:39:21	16.3	98.5
21750	2023-07-01T23:49:21	16.4	98.5
21751	2023-07-01T23:59:21	16.3	98.5
21752	2023-07-02T00:09:21	16.5	98.5
21753	2023-07-02T00:19:21	16.4	98.5
21754	2023-07-02T00:29:21	16.5	98.5
21755	2023-07-02T00:39:21	16.5	99
21756	2023-07-02T00:49:21	16.4	99
21757	2023-07-02T00:59:21	16.5	99
21758	2023-07-02T01:09:21	16.5	99
21759	2023-07-02T01:19:21	16.5	99
21760	2023-07-02T01:29:21	16.6	99
21761	2023-07-02T01:39:21	16.6	99
21762	2023-07-02T01:49:21	16.6	99
21763	2023-07-02T01:59:21	16.5	99
21764	2023-07-02T02:09:21	16.3	99
21765	2023-07-02T02:19:21	16.1	99
21766	2023-07-02T02:29:21	16.2	98.5
21767	2023-07-02T02:39:21	16	99
21768	2023-07-02T02:49:21	16	99
21769	2023-07-02T02:59:21	15.9	99
21770	2023-07-02T03:09:20	15.7	99
21771	2023-07-02T03:19:21	15.6	99
21772	2023-07-02T03:29:21	15.7	99
21773	2023-07-02T03:39:20	15.6	99
21774	2023-07-02T03:49:20	15.4	99
21775	2023-07-02T03:59:20	15.6	99
21776	2023-07-02T04:09:20	15.6	99
21777	2023-07-02T04:19:20	15.6	99
21778	2023-07-02T04:29:20	15.6	99
21779	2023-07-02T04:39:20	15.4	99
21780	2023-07-02T04:49:20	15.7	99
21781	2023-07-02T04:59:37	15.9	99
21782	2023-07-02T05:09:21	16	99
21783	2023-07-02T05:19:21	16.2	99
21784	2023-07-02T05:29:20	16.3	99
21785	2023-07-02T05:39:20	16.5	99
21786	2023-07-02T05:49:20	16.8	99.5
21787	2023-07-02T05:59:21	17.2	99.5
21788	2023-07-02T06:09:20	17.3	99
21789	2023-07-02T06:19:20	17.4	99
21790	2023-07-02T06:29:20	17.6	99
21791	2023-07-02T06:39:20	17.9	98.5
21792	2023-07-02T06:49:20	17.7	98
21793	2023-07-02T06:59:20	17.7	98
21794	2023-07-02T07:09:20	18	98
21795	2023-07-02T07:19:20	18.2	97
21796	2023-07-02T07:29:20	18.5	97
21797	2023-07-02T07:39:20	18.4	96
21798	2023-07-02T07:49:20	18.3	96
21799	2023-07-02T07:59:20	18.4	95.5
21800	2023-07-02T08:09:20	18.7	92
21801	2023-07-02T08:19:20	18.6	94.5
21802	2023-07-02T08:29:20	18.8	94.5
21803	2023-07-02T08:39:20	19	93
21804	2023-07-02T08:49:20	19.2	93.5
21805	2023-07-02T08:59:20	19.4	92
21806	2023-07-02T09:09:20	19.9	61
21807	2023-07-02T09:19:20	20.2	57.5
21808	2023-07-02T09:29:20	20.4	57.5
21809	2023-07-02T09:39:20	20.6	56
21810	2023-07-02T09:49:20	20.9	56.5
21811	2023-07-02T09:59:20	21.1	55
21812	2023-07-02T10:09:20	21.7	53
21813	2023-07-02T10:19:20	21.8	52.5
21814	2023-07-02T10:29:20	22	51.5
21815	2023-07-02T10:39:20	22.4	46.5
21816	2023-07-02T10:49:20	22.6	45.5
21817	2023-07-02T10:59:20	22.8	45
21818	2023-07-02T11:09:20	22.5	46.5
21819	2023-07-02T11:19:20	22.7	46
21820	2023-07-02T11:29:20	23.1	44
21821	2023-07-02T11:39:20	23.3	41
21822	2023-07-02T11:49:20	23.7	42
21823	2023-07-02T11:59:20	23.9	40
21824	2023-07-02T12:09:20	24.7	36
21825	2023-07-02T12:19:20	26	34
21826	2023-07-02T12:29:20	26.8	33
21827	2023-07-02T12:39:20	29.1	31
21828	2023-07-02T12:49:20	28.1	31
21829	2023-07-02T12:59:20	30	29
21830	2023-07-02T13:09:20	30.2	26
21831	2023-07-02T13:19:20	31.2	25.5
21832	2023-07-02T13:29:20	33.2	23
21833	2023-07-02T13:39:20	33	22.5
21834	2023-07-02T13:49:20	33.8	21.5
21835	2023-07-02T13:59:20	31.5	24
21836	2023-07-02T14:09:19	34.1	22
21837	2023-07-02T14:19:20	34.3	21.5
21838	2023-07-02T14:29:19	34	21.5
21839	2023-07-02T14:39:20	35.2	20.5
21840	2023-07-02T14:49:19	35.3	20
21841	2023-07-02T14:59:19	35.4	21
21842	2023-07-02T15:09:19	35.8	20
21843	2023-07-02T15:19:19	35	20.5
21844	2023-07-02T15:29:19	35.9	19.5
21845	2023-07-02T15:39:19	35.4	20
21846	2023-07-02T15:49:19	35.8	19.5
21847	2023-07-02T15:59:19	35.3	20.5
21848	2023-07-02T16:09:19	33.7	21.5
21849	2023-07-02T16:19:19	34.6	20.5
21850	2023-07-02T16:29:19	33.5	22
21851	2023-07-02T16:39:19	33.1	23
21852	2023-07-02T16:49:19	32.2	23
21853	2023-07-02T16:59:19	32.4	23
21854	2023-07-02T17:09:19	32	23.5
21855	2023-07-02T17:19:19	32.2	23
21856	2023-07-02T17:29:19	31.5	25
21857	2023-07-02T17:39:19	30.6	25.5
21858	2023-07-02T17:49:19	30.9	26
21859	2023-07-02T17:59:19	30.2	27
21860	2023-07-02T18:09:19	29.7	28
21861	2023-07-02T18:19:19	28.4	30
21862	2023-07-02T18:29:19	28.2	30.5
21863	2023-07-02T18:39:19	27.3	32.5
21864	2023-07-02T18:49:19	25.5	36
21865	2023-07-02T18:59:19	24.7	36.5
21866	2023-07-02T19:09:19	24.2	38
21867	2023-07-02T19:19:19	23.7	39
21868	2023-07-02T19:29:19	23.2	40
21869	2023-07-02T19:39:19	22.8	41.5
21870	2023-07-02T19:49:19	22.6	44
21871	2023-07-02T20:09:19	21.7	46.5
21872	2023-07-02T20:19:19	21.2	48.5
21873	2023-07-02T20:29:19	20.8	48.5
21874	2023-07-02T20:39:19	20.6	48
21875	2023-07-02T20:49:19	20.4	49.5
21876	2023-07-02T20:59:19	20.1	50
21877	2023-07-02T21:09:19	19.7	51.5
21878	2023-07-02T21:19:19	19.6	51.5
21879	2023-07-02T21:29:19	19.6	52
21880	2023-07-02T21:39:19	19.8	51.5
21881	2023-07-02T21:49:19	19.9	52.5
21882	2023-07-02T21:59:19	19.8	53
21883	2023-07-02T22:09:19	19.7	53
21884	2023-07-02T22:19:19	19.5	52
21885	2023-07-02T22:29:19	19.7	51
21886	2023-07-02T22:39:19	19.7	51
21887	2023-07-02T22:49:19	19.6	51
21888	2023-07-02T22:59:19	19.5	51.5
21889	2023-07-02T23:09:19	19.4	52.5
21890	2023-07-02T23:19:19	19.3	53.5
21891	2023-07-02T23:29:19	19.1	53.5
21892	2023-07-02T23:39:19	18.8	54.5
21893	2023-07-02T23:49:19	18.8	54.5
21894	2023-07-02T23:59:19	19	53.5
21895	2023-07-03T00:09:19	19.1	53
21896	2023-07-03T00:19:19	19.3	52.5
21897	2023-07-03T00:29:19	19.2	52
21898	2023-07-03T00:39:18	19.1	52.5
21899	2023-07-03T00:49:18	18.9	53
21900	2023-07-03T00:59:18	18.9	53.5
21901	2023-07-03T01:09:18	18.9	53.5
21902	2023-07-03T01:19:18	19	53.5
21903	2023-07-03T01:29:18	19.1	53.5
21904	2023-07-03T01:39:18	19	54
21905	2023-07-03T01:49:18	19	54.5
21906	2023-07-03T01:59:18	19.1	55
21907	2023-07-03T02:09:18	18.9	55
21908	2023-07-03T02:19:18	18.8	55.5
21909	2023-07-03T02:29:18	18.9	56
21910	2023-07-03T02:39:18	18.8	56.5
21911	2023-07-03T02:49:18	18.8	56.5
21912	2023-07-03T02:59:18	18.6	57
21913	2023-07-03T03:09:18	18.6	57.5
21914	2023-07-03T03:19:18	18.6	58
21915	2023-07-03T03:29:18	18.6	58
21916	2023-07-03T03:39:18	18.5	58
21917	2023-07-03T03:49:18	18.5	58
21918	2023-07-03T03:59:18	18.6	58
21919	2023-07-03T04:09:18	18.6	59
21920	2023-07-03T04:19:18	18.5	59
21921	2023-07-03T04:29:18	18.6	59.5
21922	2023-07-03T04:39:18	18.6	60
21923	2023-07-03T04:49:18	18.7	60
21924	2023-07-03T04:59:18	18.7	60
21925	2023-07-03T05:09:18	18.7	61
21926	2023-07-03T05:19:18	18.8	61
21927	2023-07-03T05:29:18	18.7	61
21928	2023-07-03T05:39:18	19	61
21929	2023-07-03T05:49:18	19.2	60.5
21930	2023-07-03T05:59:18	19.3	60
21931	2023-07-03T06:09:18	19.4	59.5
21932	2023-07-03T06:19:18	19.4	58
21933	2023-07-03T06:29:18	19.4	54.5
21934	2023-07-03T06:39:18	19.6	53
21935	2023-07-03T06:49:18	19.6	54
21936	2023-07-03T06:59:18	19.7	53.5
21937	2023-07-03T07:09:18	19.9	53.5
21938	2023-07-03T07:19:18	20	52.5
21939	2023-07-03T07:29:18	20.2	52
21940	2023-07-03T07:39:18	20.7	51
21941	2023-07-03T07:49:18	20.7	50
21942	2023-07-03T07:59:18	20.8	49.5
21943	2023-07-03T08:09:18	20.8	49.5
21944	2023-07-03T08:19:18	21	49
21945	2023-07-03T08:29:18	21.6	46.5
21946	2023-07-03T08:39:18	21.6	46.5
21947	2023-07-03T08:59:18	22	46.5
21948	2023-07-03T09:09:18	22.1	46.5
21949	2023-07-03T09:19:18	22.7	44
21950	2023-07-03T09:29:18	22.5	45.5
21951	2023-07-03T09:39:18	22.6	44.5
21952	2023-07-03T09:49:18	22.5	45.5
21953	2023-07-03T09:59:18	23	44
21954	2023-07-03T10:09:18	23.2	44
21955	2023-07-03T10:29:18	22.3	46
21956	2023-07-03T10:39:18	22.1	46.5
21957	2023-07-03T10:49:18	22.4	46.5
21958	2023-07-03T10:59:18	22.9	45.5
21959	2023-07-03T11:09:18	22.8	46
21960	2023-07-03T11:19:17	23.2	45.5
21961	2023-07-03T11:29:18	23.2	44.5
21962	2023-07-03T11:39:17	23.9	41.5
21963	2023-07-03T11:49:17	23.8	42
21964	2023-07-03T11:59:17	24.1	42.5
21965	2023-07-03T12:09:17	24.7	41
21966	2023-07-03T12:19:17	24.8	40
21967	2023-07-03T12:29:17	24.6	40.5
21968	2023-07-03T12:39:17	24.5	40.5
21969	2023-07-03T12:49:17	24	41
21970	2023-07-03T12:59:17	24.6	41
21971	2023-07-03T13:09:17	25.6	39.5
21972	2023-07-03T13:19:17	26.9	36.5
21973	2023-07-03T13:29:18	31.5	29.5
21974	2023-07-03T13:39:17	28.7	33
21975	2023-07-03T13:49:17	27	36
21976	2023-07-03T13:59:17	25.2	40
21977	2023-07-03T14:09:17	24.4	60
21978	2023-07-03T14:19:17	29	36.5
21979	2023-07-03T14:29:17	32.7	28.5
21980	2023-07-03T14:39:17	31.1	30.5
21981	2023-07-03T14:49:17	33.4	28
21982	2023-07-03T14:59:17	33.9	27
21983	2023-07-03T15:09:17	31.3	30.5
21984	2023-07-03T15:19:17	32.1	29.5
21985	2023-07-03T15:29:17	32.4	28
21986	2023-07-03T15:39:17	27.8	34.5
21987	2023-07-03T15:49:17	26.2	38.5
21988	2023-07-03T15:59:17	29.2	33.5
21989	2023-07-03T16:09:17	32.9	27.5
21990	2023-07-03T16:19:17	29.2	33
21991	2023-07-03T16:29:17	29.2	35.5
21992	2023-07-03T16:39:17	28	37.5
21993	2023-07-03T16:49:17	26.3	42.5
21994	2023-07-03T16:59:17	25.4	44.5
21995	2023-07-03T17:09:17	24.9	46
21996	2023-07-03T17:19:17	24.5	46.5
21997	2023-07-03T17:29:17	24	48
21998	2023-07-03T17:39:17	22.9	57
21999	2023-07-03T17:49:17	21.2	64.5
22000	2023-07-03T18:09:17	21	62.5
22001	2023-07-03T18:19:17	21.4	62
22002	2023-07-03T18:29:17	21.4	61.5
22003	2023-07-03T18:39:17	22.1	58.5
22004	2023-07-03T18:49:17	23.5	54.5
22005	2023-07-03T18:59:17	23.5	54
22006	2023-07-03T19:09:17	22.8	58
22007	2023-07-03T19:19:17	22.3	60
22008	2023-07-03T19:29:17	21.7	61.5
22009	2023-07-03T19:39:17	20.9	65
22010	2023-07-03T19:49:17	20.5	65
22011	2023-07-03T19:59:17	19.9	66
22012	2023-07-03T20:09:17	19.6	66.5
22013	2023-07-03T20:19:17	19.4	67.5
22014	2023-07-03T20:29:17	19.4	66.5
22015	2023-07-03T20:39:17	19.5	66.5
22016	2023-07-03T20:49:17	19.4	66.5
22017	2023-07-03T20:59:17	19.2	67.5
22018	2023-07-03T21:09:17	19.1	68
22019	2023-07-03T21:19:17	19	68.5
22020	2023-07-03T21:29:16	18.9	68.5
22021	2023-07-03T21:39:16	18.8	69
22022	2023-07-03T21:49:16	18.6	69.5
22023	2023-07-03T21:59:16	18.5	70
22024	2023-07-03T22:09:16	18.3	71.5
22025	2023-07-03T22:19:16	18.2	71.5
22026	2023-07-03T22:29:16	17.8	72.5
22027	2023-07-03T22:39:16	17.7	73.5
22028	2023-07-03T22:49:16	17.6	74
22029	2023-07-03T22:59:16	17.8	74
22030	2023-07-03T23:09:16	17.8	74
22031	2023-07-03T23:19:16	18	74
22032	2023-07-03T23:29:16	17.9	73.5
22033	2023-07-03T23:39:16	17.6	74.5
22034	2023-07-03T23:49:16	17.4	75
22035	2023-07-03T23:59:16	17.5	75
22036	2023-07-04T00:09:16	17.4	76
22037	2023-07-04T00:19:16	17.5	75.5
22038	2023-07-04T00:29:16	17.4	76
22039	2023-07-04T00:39:16	17.3	76.5
22040	2023-07-04T00:49:16	17	77.5
22041	2023-07-04T00:59:16	17	78
22042	2023-07-04T01:09:16	17	78
22043	2023-07-04T01:19:16	17.1	78
22044	2023-07-04T01:29:16	17	79
22045	2023-07-04T01:39:16	17.2	79
22046	2023-07-04T01:49:16	17.3	78.5
22047	2023-07-04T01:59:16	17.2	79
22048	2023-07-04T02:09:16	16.9	80
22049	2023-07-04T02:19:16	16.5	81.5
22050	2023-07-04T02:29:16	16.3	82.5
22051	2023-07-04T02:39:16	16.1	83
22052	2023-07-04T02:49:16	15.9	84
22053	2023-07-04T02:59:16	15.9	84.5
22054	2023-07-04T03:09:16	16.3	83
22055	2023-07-04T03:19:16	16.2	83
22056	2023-07-04T03:29:16	16.2	83.5
22057	2023-07-04T03:39:16	16.1	84.5
22058	2023-07-04T03:49:16	15.9	85
22059	2023-07-04T03:59:16	15.7	86.5
22060	2023-07-04T04:09:17	15.5	87.5
22061	2023-07-04T04:19:16	15.5	88
22062	2023-07-04T04:29:16	15.6	87
22063	2023-07-04T04:39:16	15.6	89.5
22064	2023-07-04T04:49:16	15.9	90
22065	2023-07-04T04:59:16	16.1	90
22066	2023-07-04T05:09:16	16.3	89.5
22067	2023-07-04T05:19:16	16.4	89
22068	2023-07-04T05:29:16	16.8	88
22069	2023-07-04T05:39:16	17.1	86.5
22070	2023-07-04T05:49:16	17.4	85
22071	2023-07-04T05:59:16	17.8	83.5
22072	2023-07-04T06:09:16	18.2	79.5
22073	2023-07-04T06:19:16	18.3	77.5
22074	2023-07-04T06:29:16	18.5	75.5
22075	2023-07-04T06:39:16	18.5	74.5
22076	2023-07-04T06:49:16	18.8	71
22077	2023-07-04T06:59:16	19.1	70.5
22078	2023-07-04T07:09:16	19.4	66.5
22079	2023-07-04T07:19:16	19.3	66
22080	2023-07-04T07:29:16	19.3	64
22081	2023-07-04T07:39:16	19.4	64
22082	2023-07-04T07:49:16	19.9	63
22083	2023-07-04T07:59:16	20	62
22084	2023-07-04T08:09:16	20.1	61.5
22085	2023-07-04T08:19:16	20.7	59
22086	2023-07-04T08:29:16	21.1	57.5
22087	2023-07-04T08:39:15	20.9	57
22088	2023-07-04T08:49:16	21	56.5
22089	2023-07-04T08:59:16	21.4	53
22090	2023-07-04T09:09:15	21.9	51
22091	2023-07-04T09:19:15	22.2	50
22092	2023-07-04T09:29:15	22.6	48.5
22093	2023-07-04T09:39:15	23.3	46
22094	2023-07-04T09:49:15	23.4	45.5
22095	2023-07-04T09:59:15	23.9	44.5
22096	2023-07-04T10:09:15	24	42
22097	2023-07-04T10:19:15	23.8	41
22098	2023-07-04T10:29:15	24	39
22099	2023-07-04T10:39:15	24.6	37
22100	2023-07-04T10:49:15	24.8	37.5
22101	2023-07-04T10:59:15	24.3	37.5
22102	2023-07-04T11:09:15	25	37.5
22103	2023-07-04T11:19:15	25.3	36.5
22104	2023-07-04T11:29:15	25.3	35
22105	2023-07-04T11:39:15	26	35.5
22106	2023-07-04T11:49:15	26.9	33.5
22107	2023-07-04T11:59:15	26.6	34
22108	2023-07-04T12:09:15	27.5	33
22109	2023-07-04T12:19:15	30.5	28
22110	2023-07-04T12:29:16	30.4	28
22111	2023-07-04T12:39:15	32	25.5
22112	2023-07-04T12:49:15	29.9	28.5
22113	2023-07-04T12:59:15	32.7	26.5
22114	2023-07-04T13:09:15	33.8	24.5
22115	2023-07-04T13:19:15	32.7	25.5
22116	2023-07-04T13:29:15	31.3	28
22117	2023-07-04T13:39:15	31.7	27.5
22118	2023-07-04T13:49:15	32	26.5
22119	2023-07-04T13:59:15	31.1	28
22120	2023-07-04T14:09:15	30.7	28.5
22121	2023-07-04T14:19:15	30.7	29
22122	2023-07-04T14:29:15	32	28
22123	2023-07-04T14:39:15	31.1	29
22124	2023-07-04T14:49:15	30.3	29
22125	2023-07-04T14:59:15	31.1	29.5
22126	2023-07-04T15:09:15	31.4	29.5
22127	2023-07-04T15:19:15	35	24.5
22128	2023-07-04T15:29:15	35.3	24
22129	2023-07-04T15:39:15	30.8	29.5
22130	2023-07-04T15:49:15	30.7	29
22131	2023-07-04T15:59:15	28.8	33
22132	2023-07-04T16:09:15	27.9	34
22133	2023-07-04T16:19:15	27.5	35.5
22134	2023-07-04T16:29:15	24.7	61.5
22135	2023-07-04T16:39:15	20.8	88.5
22136	2023-07-04T16:49:15	19.9	94
22137	2023-07-04T16:59:15	19.7	95.5
22138	2023-07-04T17:09:15	20.2	95.5
22139	2023-07-04T17:19:33	21.5	97.5
22140	2023-07-04T17:29:15	24.6	96
22141	2023-07-04T17:39:15	27.9	95
22142	2023-07-04T17:49:15	29.1	74
22143	2023-07-04T17:59:15	29.3	48.5
22144	2023-07-04T18:09:15	29.6	47
22145	2023-07-04T18:19:15	28.1	55
22146	2023-07-04T18:29:15	29.2	52
22147	2023-07-04T18:39:15	29.2	48.5
22148	2023-07-04T18:49:14	27.1	55
22149	2023-07-04T18:59:14	25.6	62
22150	2023-07-04T19:09:14	24.3	58.5
22151	2023-07-04T19:19:14	23.1	60.5
22152	2023-07-04T19:29:14	22.5	61.5
22153	2023-07-04T19:39:14	22.2	64.5
22154	2023-07-04T19:49:14	22	66
22155	2023-07-04T19:59:14	21.7	69.5
22156	2023-07-04T20:09:14	21.4	69
22157	2023-07-04T20:19:14	21.1	69
22158	2023-07-04T20:29:14	20.8	69.5
22159	2023-07-04T20:39:14	20.5	70.5
22160	2023-07-04T20:49:14	20.2	71
22161	2023-07-04T20:59:14	19.9	73
22162	2023-07-04T21:09:14	19.6	74.5
22163	2023-07-04T21:19:14	19.5	73.5
22164	2023-07-04T21:29:14	19.2	73.5
22165	2023-07-04T21:39:14	19	74
22166	2023-07-04T21:49:14	18.7	75
22167	2023-07-04T21:59:14	18.6	75
22168	2023-07-04T22:09:14	18.5	75
22169	2023-07-04T22:19:14	18.3	75.5
22170	2023-07-04T22:29:14	18.1	73.5
22171	2023-07-04T22:39:14	18.2	74.5
22172	2023-07-04T22:49:14	18.1	75
22173	2023-07-04T22:59:14	17.9	75.5
22174	2023-07-04T23:09:14	17.7	76
22175	2023-07-04T23:19:14	17.7	76.5
22176	2023-07-04T23:29:14	17.7	76.5
22177	2023-07-04T23:39:14	17.4	77.5
22178	2023-07-04T23:49:14	17.4	78
22179	2023-07-04T23:59:14	17.4	78.5
22180	2023-07-05T00:09:14	17.7	78.5
22181	2023-07-05T00:19:14	16.3	93.5
22182	2023-07-05T00:39:14	17.3	96.5
22183	2023-07-05T00:49:14	16.8	96.5
22184	2023-07-05T00:59:14	16.7	97
22185	2023-07-05T01:09:14	16.8	97.5
22186	2023-07-05T01:19:14	16.7	97.5
22187	2023-07-05T01:29:14	16.8	97.5
22188	2023-07-05T01:39:14	17	98
22189	2023-07-05T01:49:14	16.9	98
22190	2023-07-05T01:59:14	16.7	98
22191	2023-07-05T02:09:14	16.5	98
22192	2023-07-05T02:19:14	16.5	98.5
22193	2023-07-05T02:29:14	16.5	98.5
22194	2023-07-05T02:39:14	16.6	98.5
22195	2023-07-05T02:49:14	16.5	98.5
22196	2023-07-05T02:59:14	16.4	98.5
22197	2023-07-05T03:09:14	16.6	99
22198	2023-07-05T03:19:14	16.7	98.5
22199	2023-07-05T03:29:14	17	98.5
22200	2023-07-05T03:39:14	17.1	98.5
22201	2023-07-05T03:49:14	17.3	98.5
22202	2023-07-05T03:59:14	17.3	98.5
22203	2023-07-05T04:09:14	17.3	98.5
22204	2023-07-05T04:19:14	17.3	98.5
22205	2023-07-05T04:29:14	17.4	99
22206	2023-07-05T04:39:14	17.6	99
22207	2023-07-05T04:49:14	17.4	99
22208	2023-07-05T04:59:14	16.9	99
22209	2023-07-05T05:09:14	16.7	99
22210	2023-07-05T05:19:14	16.7	99
22211	2023-07-05T05:29:14	16.6	99.5
22212	2023-07-05T05:39:14	16.9	99
22213	2023-07-05T05:49:14	17.1	99
22214	2023-07-05T05:59:13	17.2	98.5
22215	2023-07-05T06:09:13	16.9	99
22216	2023-07-05T06:19:13	16.5	98.5
22217	2023-07-05T06:29:13	16.2	98.5
22218	2023-07-05T06:39:13	15.9	99
22219	2023-07-05T06:49:13	15.4	98.5
22220	2023-07-05T06:59:13	15.5	99
22221	2023-07-05T07:09:13	16	99
22222	2023-07-05T07:19:13	16.2	99
22223	2023-07-05T07:29:13	16.1	98.5
22224	2023-07-05T07:39:14	15.7	98.5
22225	2023-07-05T07:49:13	15.8	98.5
22226	2023-07-05T07:59:13	16.6	98.5
22227	2023-07-05T08:09:13	16.7	98
22228	2023-07-05T08:19:13	16.8	97.5
22229	2023-07-05T08:29:13	17.1	96
22230	2023-07-05T08:39:13	17.5	96
22231	2023-07-05T08:49:13	17.2	97
22232	2023-07-05T08:59:13	17.2	96
22233	2023-07-05T09:09:13	17.7	96
22234	2023-07-05T09:19:13	17.9	93
22235	2023-07-05T09:29:13	17.7	95
22236	2023-07-05T09:39:13	18	95.5
22237	2023-07-05T09:49:13	18.8	92
22238	2023-07-05T09:59:13	19.3	90
22239	2023-07-05T10:09:13	19.3	90
22240	2023-07-05T10:19:13	19	83
22241	2023-07-05T10:29:13	19.1	49
22242	2023-07-05T10:39:13	19.5	49
22243	2023-07-05T10:49:13	20.1	47
22244	2023-07-05T10:59:13	20.3	45.5
22245	2023-07-05T11:09:13	20	45.5
22246	2023-07-05T11:19:13	20.1	46
22247	2023-07-05T11:29:13	20.2	45
22248	2023-07-05T11:39:13	20.4	44
22249	2023-07-05T11:49:13	20.8	43
22250	2023-07-05T11:59:13	21.1	41
22251	2023-07-05T12:09:13	21.5	40.5
22252	2023-07-05T12:19:13	24.8	34
22253	2023-07-05T12:29:13	26.4	31
22254	2023-07-05T12:39:13	25.9	32
22255	2023-07-05T12:49:13	27.5	29.5
22256	2023-07-05T12:59:13	27.8	29.5
22257	2023-07-05T13:09:13	28.4	27
22258	2023-07-05T13:19:13	28.6	27.5
22259	2023-07-05T13:29:13	28.9	27.5
22260	2023-07-05T13:39:13	29.9	24
22261	2023-07-05T13:49:13	30.8	24.5
22262	2023-07-05T13:59:13	31.7	23.5
22263	2023-07-05T14:09:13	31.9	23.5
22264	2023-07-05T14:19:13	30.7	24.5
22265	2023-07-05T14:29:13	32	22.5
22266	2023-07-05T14:39:13	32.4	22.5
22267	2023-07-05T14:49:13	32.8	22
22268	2023-07-05T14:59:13	33	21.5
22269	2023-07-05T15:09:13	32.1	22.5
22270	2023-07-05T15:19:13	31.2	24
22271	2023-07-05T15:29:13	28.9	27
22272	2023-07-05T15:39:13	31.4	23.5
22273	2023-07-05T15:49:13	28.6	27
22274	2023-07-05T15:59:13	29	26
22275	2023-07-05T16:09:13	29.6	26
22276	2023-07-05T16:19:13	31.9	23
22277	2023-07-05T16:29:13	32.9	23
22278	2023-07-05T16:39:13	31.2	24
22279	2023-07-05T16:49:13	33	22.5
22280	2023-07-05T16:59:12	31.7	23
22281	2023-07-05T17:09:12	31.5	23
22282	2023-07-05T17:19:30	32	23
22283	2023-07-05T17:29:13	30.7	24.5
22284	2023-07-05T17:39:12	30.6	25.5
22285	2023-07-05T17:49:12	30.6	25.5
22286	2023-07-05T17:59:12	30.3	25.5
22287	2023-07-05T18:09:12	30.2	26.5
22288	2023-07-05T18:19:12	27.6	29
22289	2023-07-05T18:29:12	28.7	28
22290	2023-07-05T18:39:12	28.4	28.5
22291	2023-07-05T18:49:12	26.3	31.5
22292	2023-07-05T18:59:12	25.3	36
22293	2023-07-05T19:09:12	25.2	35.5
22294	2023-07-05T19:19:12	23.9	38.5
22295	2023-07-05T19:29:12	23.5	38.5
22296	2023-07-05T19:39:12	23.3	41
22297	2023-07-05T19:49:12	22.7	43.5
22298	2023-07-05T19:59:12	22.4	44.5
22299	2023-07-05T20:09:12	22.1	48
22300	2023-07-05T20:19:12	21.8	49
22301	2023-07-05T20:29:12	21.5	48
22302	2023-07-05T20:39:12	21.1	48.5
22303	2023-07-05T20:49:12	20.9	50
22304	2023-07-05T20:59:12	20.7	51
22305	2023-07-05T21:09:12	20.5	50.5
22306	2023-07-05T21:19:12	20.3	52.5
22307	2023-07-05T21:29:12	20	55.5
22308	2023-07-05T21:39:12	20	56.5
22309	2023-07-05T21:49:12	19.9	56.5
22310	2023-07-05T21:59:12	19.7	57
22311	2023-07-05T22:09:12	19.6	54.5
22312	2023-07-05T22:19:12	19.6	56.5
22313	2023-07-05T22:29:12	19.3	57
22314	2023-07-05T22:39:12	19.2	59.5
22315	2023-07-05T22:49:12	19.1	60.5
22316	2023-07-05T22:59:12	18.9	59.5
22317	2023-07-05T23:09:12	18.5	61.5
22318	2023-07-05T23:19:12	17.9	65
22319	2023-07-05T23:29:12	17.8	65.5
22320	2023-07-05T23:39:12	17.8	66.5
22321	2023-07-05T23:49:12	17.7	66.5
22322	2023-07-05T23:59:12	17.7	67
22323	2023-07-06T00:09:12	17.5	67
22324	2023-07-06T00:19:12	17.3	66.5
22325	2023-07-06T00:29:12	17	69
22326	2023-07-06T00:39:12	17.1	67
22327	2023-07-06T00:49:12	16.8	68.5
22328	2023-07-06T00:59:12	16.7	69.5
22329	2023-07-06T01:09:12	16.6	68.5
22330	2023-07-06T01:19:12	16.6	67.5
22331	2023-07-06T01:29:12	16.3	70
22332	2023-07-06T01:39:12	16	68.5
22333	2023-07-06T01:49:12	15.7	71
22334	2023-07-06T01:59:12	15.2	72
22335	2023-07-06T02:09:12	15	72.5
22336	2023-07-06T02:19:12	14.8	72.5
22337	2023-07-06T02:29:12	14.6	75
22338	2023-07-06T02:39:12	14.3	77
22339	2023-07-06T02:49:12	14	78.5
22340	2023-07-06T02:59:12	13.8	78.5
22341	2023-07-06T03:09:12	13.7	78.5
22342	2023-07-06T03:19:12	13.6	79.5
22343	2023-07-06T03:29:11	13.3	80.5
22344	2023-07-06T03:39:11	13.2	79.5
22345	2023-07-06T03:49:11	13.1	79
22346	2023-07-06T03:59:11	13.2	78
22347	2023-07-06T04:09:11	13	79.5
22348	2023-07-06T04:19:12	13	79.5
22349	2023-07-06T04:29:12	13	79
22350	2023-07-06T04:39:12	13.1	78.5
22351	2023-07-06T04:49:11	13.2	79
22352	2023-07-06T04:59:11	13.4	80
22353	2023-07-06T05:09:11	13.5	79.5
22354	2023-07-06T05:19:11	13.7	79.5
22355	2023-07-06T05:29:11	13.8	79
22356	2023-07-06T05:39:11	14.1	77.5
22357	2023-07-06T05:59:11	14.8	75.5
22358	2023-07-06T06:09:11	14.9	76
22359	2023-07-06T06:19:11	15.3	74.5
22360	2023-07-06T06:29:11	15.7	68.5
22361	2023-07-06T06:39:29	16	66.5
22362	2023-07-06T06:49:11	16.3	65.5
22363	2023-07-06T06:59:11	16.9	64.5
22364	2023-07-06T07:19:11	17	59
22365	2023-07-06T07:29:11	17.4	61
22366	2023-07-06T07:39:11	17.8	59.5
22367	2023-07-06T07:49:11	18	58.5
22368	2023-07-06T07:59:11	18.3	56
22369	2023-07-06T08:09:11	18.5	56.5
22370	2023-07-06T08:19:11	18.8	57
22371	2023-07-06T08:29:11	18.8	56.5
22372	2023-07-06T08:39:11	18.9	56
22373	2023-07-06T08:49:11	19.4	53.5
22374	2023-07-06T08:59:11	19.8	53
22375	2023-07-06T09:09:11	19.9	51
22376	2023-07-06T09:19:11	20.3	50
22377	2023-07-06T09:29:11	20.4	50
22378	2023-07-06T09:39:11	20.6	48
22379	2023-07-06T09:49:11	20.8	48
22380	2023-07-06T09:59:11	21.1	47
22381	2023-07-06T10:09:11	21.6	43.5
22382	2023-07-06T10:29:11	22.3	37
22383	2023-07-06T10:39:11	22.6	39
22384	2023-07-06T10:49:11	22.6	37
22385	2023-07-06T10:59:11	22.8	34
22386	2023-07-06T11:09:11	23.2	34.5
22387	2023-07-06T11:19:11	23.1	34.5
22388	2023-07-06T11:29:11	23.3	34.5
22389	2023-07-06T11:39:11	23.5	33.5
22390	2023-07-06T11:49:11	23.8	34
22391	2023-07-06T11:59:11	24	34
22392	2023-07-06T12:09:11	24.7	29
22393	2023-07-06T12:19:11	29.3	24.5
22394	2023-07-06T12:29:11	31.7	22
22395	2023-07-06T12:39:11	31.7	19.5
22396	2023-07-06T12:49:11	34.4	18.5
22397	2023-07-06T12:59:11	36	17
22398	2023-07-06T13:09:11	35.4	18
22399	2023-07-06T13:19:11	35.1	17.5
22400	2023-07-06T13:29:11	39.8	15.5
22401	2023-07-06T13:39:11	38.2	16
22402	2023-07-06T13:49:11	40.2	14.5
22403	2023-07-06T13:59:11	41.2	15
22404	2023-07-06T14:09:11	37.6	16
22405	2023-07-06T14:19:11	42	14
22406	2023-07-06T14:29:11	40.5	15
22407	2023-07-06T14:39:11	39.9	15
22408	2023-07-06T14:49:11	41.9	14.5
22409	2023-07-06T14:59:10	41.3	14.5
22410	2023-07-06T15:09:10	41.8	14
22411	2023-07-06T15:19:10	41.1	15
22412	2023-07-06T15:29:10	41	14.5
22413	2023-07-06T15:39:10	41.4	14.5
22414	2023-07-06T15:49:10	42.6	13.5
22415	2023-07-06T15:59:10	41.8	14
22416	2023-07-06T16:09:10	43.7	13
22417	2023-07-06T16:19:10	42.8	13.5
22418	2023-07-06T16:29:10	43.5	13
22419	2023-07-06T16:39:11	41.1	14
22420	2023-07-06T16:49:10	41.7	14
22421	2023-07-06T16:59:10	42.2	13
22422	2023-07-06T17:09:10	41.7	14
22423	2023-07-06T17:19:10	40.1	14.5
22424	2023-07-06T17:29:10	40.8	14.5
22425	2023-07-06T17:39:10	40.3	15.5
22426	2023-07-06T17:49:10	40.3	15.5
22427	2023-07-06T17:59:10	38.9	16
22428	2023-07-06T18:09:10	37.8	16
22429	2023-07-06T18:19:10	37.8	18.5
22430	2023-07-06T18:29:10	36.7	17.5
22431	2023-07-06T18:39:10	35.5	20
22432	2023-07-06T18:49:10	32.9	23
22433	2023-07-06T18:59:10	31.3	28.5
22434	2023-07-06T19:09:10	30.1	31.5
22435	2023-07-06T19:19:10	29	34.5
22436	2023-07-06T19:29:10	27.8	36.5
22437	2023-07-06T19:39:10	27	38.5
22438	2023-07-06T19:49:11	26.2	39.5
22439	2023-07-06T19:59:10	25.6	42.5
22440	2023-07-06T20:09:10	25	43
22441	2023-07-06T20:19:10	24.3	43.5
22442	2023-07-06T20:29:10	23.9	43.5
22443	2023-07-06T20:39:10	23.4	45.5
22444	2023-07-06T20:49:10	22.8	45.5
22445	2023-07-06T20:59:10	22.3	47.5
22446	2023-07-06T21:09:10	21.9	48
22447	2023-07-06T21:19:10	21.5	49.5
22448	2023-07-06T21:29:10	20.9	50.5
22449	2023-07-06T21:39:10	20.6	50
22450	2023-07-06T21:49:10	20.4	51
22451	2023-07-06T21:59:10	20.2	52.5
22452	2023-07-06T22:09:10	19.8	53
22453	2023-07-06T22:19:10	19.5	53.5
22454	2023-07-06T22:29:10	19.1	55.5
22455	2023-07-06T22:39:10	18.7	56.5
22456	2023-07-06T22:49:10	18.6	55.5
22457	2023-07-06T22:59:10	18.3	55
22458	2023-07-06T23:09:10	18.3	56
22459	2023-07-06T23:19:10	18	57.5
22460	2023-07-06T23:29:10	17.8	56.5
22461	2023-07-06T23:39:10	17.6	57.5
22462	2023-07-06T23:49:10	17.5	58
22463	2023-07-06T23:59:10	17.3	59
22464	2023-07-07T00:09:10	17.1	59
22465	2023-07-07T00:19:10	16.8	61
22466	2023-07-07T00:29:10	16.6	61
22467	2023-07-07T00:39:10	16.4	61
22468	2023-07-07T00:49:10	16.3	60.5
22469	2023-07-07T00:59:10	16.1	61.5
22470	2023-07-07T01:09:10	15.9	61.5
22471	2023-07-07T01:19:10	15.7	62
22472	2023-07-07T01:29:10	15.6	63
22473	2023-07-07T01:39:10	15.4	64
22474	2023-07-07T01:49:10	15.2	64
22475	2023-07-07T01:59:10	14.9	65
22476	2023-07-07T02:09:09	14.8	67
22477	2023-07-07T02:19:09	14.7	66
22478	2023-07-07T02:29:09	14.5	67.5
22479	2023-07-07T02:39:09	14.5	67
22480	2023-07-07T02:49:09	14.3	67.5
22481	2023-07-07T02:59:10	14.1	69.5
22482	2023-07-07T03:09:09	13.8	72
22483	2023-07-07T03:19:10	13.8	71.5
22484	2023-07-07T03:29:09	13.6	73
22485	2023-07-07T03:39:09	13.4	73.5
22486	2023-07-07T03:49:09	13.4	73
22487	2023-07-07T03:59:09	13.5	71.5
22488	2023-07-07T04:09:09	13.6	71
22489	2023-07-07T04:29:10	13.8	71
22490	2023-07-07T04:39:10	13.8	70.5
22491	2023-07-07T04:49:09	13.9	71
22492	2023-07-07T04:59:09	14	71
22493	2023-07-07T05:09:09	14.2	70
22494	2023-07-07T05:19:09	14.5	70
22495	2023-07-07T05:29:09	14.6	69.5
22496	2023-07-07T05:39:09	15	68
22497	2023-07-07T05:49:09	15.3	67
22498	2023-07-07T05:59:09	15.5	67
22499	2023-07-07T06:09:09	15.8	66.5
22500	2023-07-07T06:19:09	16.3	64
22501	2023-07-07T06:29:09	16.7	63.5
22502	2023-07-07T06:39:09	17.1	62.5
22503	2023-07-07T06:49:09	17.5	63.5
22504	2023-07-07T06:59:09	17.8	64
22505	2023-07-07T07:09:09	18.1	60.5
22506	2023-07-07T07:19:09	18.5	59.5
22507	2023-07-07T07:29:09	18.7	59
22508	2023-07-07T07:39:09	19.2	57.5
22509	2023-07-07T07:49:09	19.5	58
22510	2023-07-07T07:59:09	20	57.5
22511	2023-07-07T08:09:09	20.2	58
22512	2023-07-07T08:19:09	20.6	57
22513	2023-07-07T08:29:09	20.9	56
22514	2023-07-07T08:39:09	21.3	55
22515	2023-07-07T08:49:09	21.7	55.5
22516	2023-07-07T08:59:09	22	54
22517	2023-07-07T09:09:09	22.3	53
22518	2023-07-07T09:19:09	22.8	51.5
22519	2023-07-07T09:29:09	23.3	50.5
22520	2023-07-07T09:39:09	23.7	49
22521	2023-07-07T09:49:09	24.1	48.5
22522	2023-07-07T09:59:09	24.5	47.5
22523	2023-07-07T10:09:09	24.9	45
22524	2023-07-07T10:19:09	25.5	42.5
22525	2023-07-07T10:29:09	25.6	42
22526	2023-07-07T10:39:09	26.1	41
22527	2023-07-07T10:49:09	26.5	40.5
22528	2023-07-07T10:59:09	26.8	40
22529	2023-07-07T11:09:09	26.8	38
22530	2023-07-07T11:19:09	26.9	37
22531	2023-07-07T11:39:09	27.9	33.5
22532	2023-07-07T11:49:09	28.3	31.5
22533	2023-07-07T11:59:09	28.5	31.5
22534	2023-07-07T12:09:09	29.5	29
22535	2023-07-07T12:19:09	34.3	22
22536	2023-07-07T12:29:09	37.5	18.5
22537	2023-07-07T12:39:09	40	17
22538	2023-07-07T12:49:09	41	15.5
22539	2023-07-07T12:59:09	43.6	15
22540	2023-07-07T13:09:09	45.4	14
22541	2023-07-07T13:19:09	45.6	13
22542	2023-07-07T13:29:09	45.4	14
22543	2023-07-07T13:39:09	46.2	12
22544	2023-07-07T13:49:08	47.8	12
22545	2023-07-07T13:59:08	49.2	11.5
22546	2023-07-07T14:09:08	49.9	11
22547	2023-07-07T14:19:08	47.8	10.5
22548	2023-07-07T14:29:08	49.2	10.5
22549	2023-07-07T14:39:08	50	10.5
22550	2023-07-07T14:49:09	50.9	10.5
22551	2023-07-07T14:59:08	49	11.5
22552	2023-07-07T15:09:08	50.1	11
22553	2023-07-07T15:19:08	50.6	10.5
22554	2023-07-07T15:29:08	47.2	12
22555	2023-07-07T15:39:08	49.6	11
22556	2023-07-07T15:49:08	50.3	11
22557	2023-07-07T15:59:08	49.5	10.5
22558	2023-07-07T16:09:08	47.4	11.5
22559	2023-07-07T16:19:08	48.6	11
22560	2023-07-07T16:29:08	47	11.5
22561	2023-07-07T16:39:08	47.7	11
22562	2023-07-07T16:49:08	47.3	11.5
22563	2023-07-07T16:59:08	47	11.5
22564	2023-07-07T17:09:08	46.1	12
22565	2023-07-07T17:19:08	45.3	12.5
22566	2023-07-07T17:29:08	44.6	13
22567	2023-07-07T17:39:09	43.7	13
22568	2023-07-07T17:49:08	43.1	13.5
22569	2023-07-07T17:59:08	42.2	14
22570	2023-07-07T18:09:08	41.1	15
22571	2023-07-07T18:19:08	40.5	16
22572	2023-07-07T18:29:08	39.7	17.5
22573	2023-07-07T18:39:08	38.8	19
22574	2023-07-07T18:49:08	36.5	22.5
22575	2023-07-07T18:59:08	34.7	24
22576	2023-07-07T19:09:08	33.6	24.5
22577	2023-07-07T19:19:08	32.9	25.5
22578	2023-07-07T19:29:08	32	27
22579	2023-07-07T19:39:08	31.4	28
22580	2023-07-07T19:49:08	30.6	29.5
22581	2023-07-07T19:59:08	30.2	30.5
22582	2023-07-07T20:09:08	29.7	32.5
22583	2023-07-07T20:19:08	29.2	34
22584	2023-07-07T20:29:08	28.6	35
22585	2023-07-07T20:39:08	27.8	36.5
22586	2023-07-07T20:49:08	27.5	37.5
22587	2023-07-07T20:59:08	27.4	37
22588	2023-07-07T21:09:08	27.2	33
22589	2023-07-07T21:19:08	27.3	33
22590	2023-07-07T21:29:08	26.9	32
22591	2023-07-07T21:39:08	26.8	32.5
22592	2023-07-07T21:49:08	26.6	32.5
22593	2023-07-07T21:59:08	26.5	32
22594	2023-07-07T22:09:08	26.4	33
22595	2023-07-07T22:19:08	26.1	33
22596	2023-07-07T22:29:08	25.9	33
22597	2023-07-07T22:39:08	25.8	33.5
22598	2023-07-07T22:49:08	25.6	33.5
22599	2023-07-07T22:59:08	25.4	34.5
22600	2023-07-07T23:09:08	25.1	36
22601	2023-07-07T23:19:08	24.5	39
22602	2023-07-07T23:29:08	24.1	39.5
22603	2023-07-07T23:39:08	24	40
22604	2023-07-07T23:49:08	24	40.5
22605	2023-07-07T23:59:08	23.7	42
22606	2023-07-08T00:09:08	23.4	42
22607	2023-07-08T00:19:08	23.1	42.5
22608	2023-07-08T00:29:08	23.1	43
22609	2023-07-08T00:39:08	22.7	44
22610	2023-07-08T00:49:08	22.7	43
22611	2023-07-08T00:59:08	22.4	44
22612	2023-07-08T01:09:08	22.2	43.5
22613	2023-07-08T01:19:07	22	45.5
22614	2023-07-08T01:29:07	21.8	45.5
22615	2023-07-08T01:39:07	21.7	45.5
22616	2023-07-08T01:49:07	21.4	48
22617	2023-07-08T01:59:07	21	51
22618	2023-07-08T02:09:07	20.8	52
22619	2023-07-08T02:19:07	20.5	52.5
22620	2023-07-08T02:29:07	20.6	53
22621	2023-07-08T02:39:07	20.6	53
22622	2023-07-08T02:49:07	20.5	54.5
22623	2023-07-08T02:59:07	20.5	55.5
22624	2023-07-08T03:09:07	20.3	55.5
22625	2023-07-08T03:19:07	20.3	55
22626	2023-07-08T03:29:07	20.2	56.5
22627	2023-07-08T03:39:07	20	58
22628	2023-07-08T03:49:07	19.8	59.5
22629	2023-07-08T03:59:07	20	59.5
22630	2023-07-08T04:09:07	20	74
22631	2023-07-08T04:19:07	19.6	70
22632	2023-07-08T04:29:07	19.6	73
22633	2023-07-08T04:39:07	19.9	76
22634	2023-07-08T04:49:07	20	66
22635	2023-07-08T04:59:07	20.3	65.5
22636	2023-07-08T05:09:07	20.4	66.5
22637	2023-07-08T05:19:07	20.7	62.5
22638	2023-07-08T05:29:07	20.9	59.5
22639	2023-07-08T05:39:07	21.3	60.5
22640	2023-07-08T05:49:07	21.3	59
22641	2023-07-08T05:59:07	21.6	56.5
22642	2023-07-08T06:09:07	22	56
22643	2023-07-08T06:19:07	22.7	55
22644	2023-07-08T06:29:07	23.3	54
22645	2023-07-08T06:39:07	23.8	53.5
22646	2023-07-08T06:49:07	24.1	53.5
22647	2023-07-08T06:59:07	24.3	54.5
22648	2023-07-08T07:09:07	24.4	54
22649	2023-07-08T07:19:07	24.3	55
22650	2023-07-08T07:29:07	24.5	54.5
22651	2023-07-08T07:39:07	24.6	55.5
22652	2023-07-08T07:49:07	24.5	54
22653	2023-07-08T07:59:07	24.8	53
22654	2023-07-08T08:09:07	25	54.5
22655	2023-07-08T08:19:07	25.1	53
22656	2023-07-08T08:29:07	25.8	44
22657	2023-07-08T08:39:07	26.1	43.5
22658	2023-07-08T08:49:07	26.2	44
22659	2023-07-08T08:59:07	26.5	43.5
22660	2023-07-08T09:09:07	26.9	41.5
22661	2023-07-08T09:19:07	27.1	39
22662	2023-07-08T09:29:07	27.3	37.5
22663	2023-07-08T09:39:07	27.5	37.5
22664	2023-07-08T09:49:07	27.7	37
22665	2023-07-08T09:59:07	27.6	37.5
22666	2023-07-08T10:09:07	27.9	37
22667	2023-07-08T10:19:07	28	37.5
22668	2023-07-08T10:29:07	28.2	37
22669	2023-07-08T10:39:07	28.3	38
22670	2023-07-08T10:49:07	28.3	38
22671	2023-07-08T10:59:07	28.5	39.5
22672	2023-07-08T11:09:07	28.7	39.5
22673	2023-07-08T11:19:07	28.9	39.5
22674	2023-07-08T11:29:06	29.1	40
22675	2023-07-08T11:39:07	29.4	39.5
22676	2023-07-08T11:49:06	29.4	39
22677	2023-07-08T11:59:06	29.9	37.5
22678	2023-07-08T12:09:06	30.8	36
22679	2023-07-08T12:19:06	34.1	30
22680	2023-07-08T12:29:06	36.8	26.5
22681	2023-07-08T12:39:06	38	24.5
22682	2023-07-08T12:49:06	39	23.5
22683	2023-07-08T12:59:06	40.9	21.5
22684	2023-07-08T13:09:06	41	20
22685	2023-07-08T13:19:06	44.8	18
22686	2023-07-08T13:29:06	43.9	17.5
22687	2023-07-08T13:39:06	45.9	17.5
22688	2023-07-08T13:49:06	47.2	16
22689	2023-07-08T13:59:06	44.7	17
22690	2023-07-08T14:09:06	46	17
22691	2023-07-08T14:19:06	47.3	16
22692	2023-07-08T14:29:06	47.6	16
22693	2023-07-08T14:39:06	50.5	14
22694	2023-07-08T14:49:06	49.6	13.5
22695	2023-07-08T15:09:06	50	14
22696	2023-07-08T15:19:06	50.2	13.5
22697	2023-07-08T15:29:06	47.2	15
22698	2023-07-08T15:39:06	46.7	15.5
22699	2023-07-08T15:49:06	49.7	14
22700	2023-07-08T15:59:06	50.6	13.5
22701	2023-07-08T16:09:06	51.2	13
22702	2023-07-08T16:19:06	50.6	13
22703	2023-07-08T16:29:06	48.7	14.5
22704	2023-07-08T16:39:06	49.9	14.5
22705	2023-07-08T16:49:06	48.4	15.5
22706	2023-07-08T16:59:06	48.6	15
22707	2023-07-08T17:09:06	48.2	15.5
22708	2023-07-08T17:19:06	47.4	16
22709	2023-07-08T17:29:06	46.8	16.5
22710	2023-07-08T17:39:06	46	17
22711	2023-07-08T17:49:06	45.1	17
22712	2023-07-08T17:59:06	44.1	18.5
22713	2023-07-08T18:09:06	43.3	19
22714	2023-07-08T18:19:06	42.6	20.5
22715	2023-07-08T18:29:06	41.7	21.5
22716	2023-07-08T18:39:06	39.8	23.5
22717	2023-07-08T18:49:06	38.6	24.5
22718	2023-07-08T18:59:06	38	28.5
22719	2023-07-08T19:09:06	36.4	30.5
22720	2023-07-08T19:19:06	35.1	32
22721	2023-07-08T19:29:06	34.1	33
22722	2023-07-08T19:39:06	33.3	34.5
22723	2023-07-08T19:49:06	32.3	35.5
22724	2023-07-08T19:59:06	31.3	38
22725	2023-07-08T20:09:06	30.9	39
22726	2023-07-08T20:19:06	30.5	40
22727	2023-07-08T20:29:06	30.3	41
22728	2023-07-08T20:39:06	29.9	42.5
22729	2023-07-08T20:49:06	29.5	42.5
22730	2023-07-08T20:59:06	29	44
22731	2023-07-08T21:09:06	28.7	44.5
22732	2023-07-08T21:19:06	28.3	45.5
22733	2023-07-08T21:29:06	27.9	46.5
22734	2023-07-08T21:39:06	27.6	47.5
22735	2023-07-08T21:49:06	27.3	48.5
22736	2023-07-08T21:59:06	27.2	48.5
22737	2023-07-08T22:09:06	26.7	51.5
22738	2023-07-08T22:19:06	26.5	52.5
22739	2023-07-08T22:29:06	26.3	53
22740	2023-07-08T22:39:06	25.8	53
22741	2023-07-08T22:49:06	25.6	53
22742	2023-07-08T22:59:06	25.5	53
22743	2023-07-08T23:09:06	25.2	54.5
22744	2023-07-08T23:19:06	24.8	56
22745	2023-07-08T23:29:06	24.6	57.5
22746	2023-07-08T23:39:06	24.4	58.5
22747	2023-07-08T23:49:06	24.1	59.5
22748	2023-07-08T23:59:06	24	60.5
22749	2023-07-09T00:09:05	23.9	61.5
22750	2023-07-09T00:19:05	23.6	62
22751	2023-07-09T00:29:05	23.4	62
22752	2023-07-09T00:39:05	23.3	61.5
22753	2023-07-09T00:49:05	22.9	62
22754	2023-07-09T00:59:05	22.7	62.5
22755	2023-07-09T01:09:05	22.5	65.5
22756	2023-07-09T01:19:05	22.4	63.5
22757	2023-07-09T01:29:06	22.3	64
22758	2023-07-09T01:39:05	22.1	65
22759	2023-07-09T01:49:05	21.8	65.5
22760	2023-07-09T01:59:05	21.8	66
22761	2023-07-09T02:09:05	21.5	67
22762	2023-07-09T02:19:05	21.3	67
22763	2023-07-09T02:29:05	21.1	68
22764	2023-07-09T02:39:05	21.1	68.5
22765	2023-07-09T02:49:05	20.8	70
22766	2023-07-09T02:59:05	20.7	71.5
22767	2023-07-09T03:09:05	20.5	71
22768	2023-07-09T03:19:05	20.3	72
22769	2023-07-09T03:29:05	20.2	73
22770	2023-07-09T03:39:05	19.9	73.5
22771	2023-07-09T03:49:05	19.9	73.5
22772	2023-07-09T03:59:05	19.8	73
22773	2023-07-09T04:09:05	19.8	73.5
22774	2023-07-09T04:19:05	19.7	73
22775	2023-07-09T04:29:05	19.8	74.5
22776	2023-07-09T04:39:05	19.6	74.5
22777	2023-07-09T04:49:05	19.9	75
22778	2023-07-09T04:59:05	20.1	75
22779	2023-07-09T05:09:05	20.3	74.5
22780	2023-07-09T05:19:05	20.4	75
22781	2023-07-09T05:29:05	20.7	73.5
22782	2023-07-09T05:39:05	20.9	71.5
22783	2023-07-09T05:49:05	21.3	72.5
22784	2023-07-09T05:59:05	21.6	72.5
22785	2023-07-09T06:09:05	21.9	70
22786	2023-07-09T06:19:05	22.2	67
22787	2023-07-09T06:29:05	22.5	67
22788	2023-07-09T06:39:05	22.7	67.5
22789	2023-07-09T06:49:05	23	66.5
22790	2023-07-09T06:59:05	23.6	64
22791	2023-07-09T07:09:05	23.9	62
22792	2023-07-09T07:19:05	24.2	62
22793	2023-07-09T07:29:05	24.4	62
22794	2023-07-09T07:39:05	24.6	62.5
22795	2023-07-09T07:49:05	25.1	60.5
22796	2023-07-09T07:59:05	25.3	60
22797	2023-07-09T08:09:05	25.7	59
22798	2023-07-09T08:19:05	26.1	58.5
22799	2023-07-09T08:29:05	26.5	55.5
22800	2023-07-09T08:39:05	26.9	55
22801	2023-07-09T08:49:05	27.1	54
22802	2023-07-09T08:59:05	27.4	52.5
22803	2023-07-09T09:09:05	28.1	50.5
22804	2023-07-09T09:19:05	28.3	49
22805	2023-07-09T09:29:05	29.1	47.5
22806	2023-07-09T09:39:05	29.3	46.5
22807	2023-07-09T09:49:05	29.6	45
22808	2023-07-09T09:59:05	30	45
22809	2023-07-09T10:09:05	30.1	45
22810	2023-07-09T10:19:05	30.4	42.5
22811	2023-07-09T10:29:05	30.8	41.5
22812	2023-07-09T10:39:04	31.2	39.5
22813	2023-07-09T10:49:04	31.5	37.5
22814	2023-07-09T10:59:04	31.8	36
22815	2023-07-09T11:09:04	32.2	35.5
22816	2023-07-09T11:19:05	32.5	36
22817	2023-07-09T11:29:04	32.9	33
22818	2023-07-09T11:39:04	33.5	31
22819	2023-07-09T11:49:04	33.9	30.5
22820	2023-07-09T11:59:04	34.8	29.5
22821	2023-07-09T12:09:04	36.2	25.5
22822	2023-07-09T12:19:04	39.4	22
22823	2023-07-09T12:29:04	41.3	23
22824	2023-07-09T12:39:04	40.3	24
22825	2023-07-09T12:49:04	41.4	22.5
22826	2023-07-09T12:59:04	41.8	20
22827	2023-07-09T13:09:04	44.3	18
22828	2023-07-09T13:19:04	43.7	18
22829	2023-07-09T13:29:04	44.7	18
22830	2023-07-09T13:39:04	41.8	21
22831	2023-07-09T13:49:04	40.5	22
22832	2023-07-09T13:59:04	39.3	24
22833	2023-07-09T14:09:04	40.3	22.5
22834	2023-07-09T14:19:04	42.1	21.5
22835	2023-07-09T14:29:04	45.2	18
22836	2023-07-09T14:39:04	46.5	17
22837	2023-07-09T14:49:04	45.4	18
22838	2023-07-09T14:59:04	42.8	19.5
22839	2023-07-09T15:09:04	41.5	21
22840	2023-07-09T15:19:04	40.4	22
22841	2023-07-09T15:29:04	39	23
22842	2023-07-09T15:39:04	37.9	25.5
22843	2023-07-09T15:49:04	37.3	26
22844	2023-07-09T15:59:04	36.7	27.5
22845	2023-07-09T16:09:04	36.3	30
22846	2023-07-09T16:19:04	36.1	32
22847	2023-07-09T16:29:04	37.9	32
22848	2023-07-09T16:39:04	38	30.5
22849	2023-07-09T16:49:04	37.6	32.5
22850	2023-07-09T16:59:04	37.2	34
22851	2023-07-09T17:09:04	37.2	32.5
22852	2023-07-09T17:19:04	36.9	36.5
22853	2023-07-09T17:29:04	37	38.5
22854	2023-07-09T17:39:04	36.4	38.5
22855	2023-07-09T17:49:04	36.2	40
22856	2023-07-09T17:59:04	35.6	42
22857	2023-07-09T18:09:04	35.6	41.5
22858	2023-07-09T18:19:04	35.2	40.5
22859	2023-07-09T18:29:04	35.2	41
22860	2023-07-09T18:39:04	34.4	43
22861	2023-07-09T18:49:04	34.4	43.5
22862	2023-07-09T18:59:04	33.3	45
22863	2023-07-09T19:09:04	33.1	45.5
22864	2023-07-09T19:19:04	32.6	46.5
22865	2023-07-09T19:29:04	31.9	46
22866	2023-07-09T19:39:04	31.4	48.5
22867	2023-07-09T19:49:04	30.8	47.5
22868	2023-07-09T19:59:04	30.5	50
22869	2023-07-09T20:09:04	30	49
22870	2023-07-09T20:19:04	29.6	50.5
22871	2023-07-09T20:29:04	29.3	49
22872	2023-07-09T20:39:04	28.9	49.5
22873	2023-07-09T20:49:04	28.6	51.5
22874	2023-07-09T20:59:04	28.4	52.5
22875	2023-07-09T21:09:04	28.1	53
22876	2023-07-09T21:19:04	27.7	55
22877	2023-07-09T21:29:04	27.4	57
22878	2023-07-09T21:39:04	27.4	56.5
22879	2023-07-09T21:49:03	27.3	55.5
22880	2023-07-09T21:59:03	26.8	54
22881	2023-07-09T22:09:03	26.6	55.5
22882	2023-07-09T22:19:03	26.3	54.5
22883	2023-07-09T22:29:03	25.9	55
22884	2023-07-09T22:39:03	25.6	57
22885	2023-07-09T22:49:03	25.5	59
22886	2023-07-09T22:59:03	25.4	60
22887	2023-07-09T23:09:03	25.2	59.5
22888	2023-07-09T23:19:03	24.9	60
22889	2023-07-09T23:29:03	24.8	60
22890	2023-07-09T23:39:03	24.5	61.5
22891	2023-07-09T23:49:03	24.3	62.5
22892	2023-07-09T23:59:03	24.3	63.5
22893	2023-07-10T00:09:03	24.1	64
22894	2023-07-10T00:19:03	24	64.5
22895	2023-07-10T00:29:03	23.8	66
22896	2023-07-10T00:39:03	23.6	66
22897	2023-07-10T00:49:03	23.6	66.5
22898	2023-07-10T00:59:03	23.5	67
22899	2023-07-10T01:09:03	23.4	67.5
22900	2023-07-10T01:19:03	23.4	67.5
22901	2023-07-10T01:29:03	23.2	68
22902	2023-07-10T01:39:03	23	68
22903	2023-07-10T01:49:03	23.3	67.5
22904	2023-07-10T01:59:03	23.2	68.5
22905	2023-07-10T02:09:03	23.1	68.5
22906	2023-07-10T02:19:03	22.9	69
22907	2023-07-10T02:29:03	22.7	69
22908	2023-07-10T02:39:03	22.5	69.5
22909	2023-07-10T02:49:03	22.4	70.5
22910	2023-07-10T02:59:03	22.2	70
22911	2023-07-10T03:09:03	22.5	68
22912	2023-07-10T03:19:03	22.8	68
22913	2023-07-10T03:29:03	23.1	67
22914	2023-07-10T03:39:03	23.3	67
22915	2023-07-10T03:49:03	23	69
22916	2023-07-10T03:59:03	23.3	69.5
22917	2023-07-10T04:09:03	23.3	70.5
22918	2023-07-10T04:19:03	23.4	70
22919	2023-07-10T04:29:03	23.5	70.5
22920	2023-07-10T04:39:03	23.7	70
22921	2023-07-10T04:49:03	23.8	70
22922	2023-07-10T04:59:03	23.8	70.5
22923	2023-07-10T05:09:03	23.8	71
22924	2023-07-10T05:19:03	24	71
22925	2023-07-10T05:29:03	24.2	70.5
22926	2023-07-10T05:39:03	24.2	71
22927	2023-07-10T05:49:03	24.1	71
22928	2023-07-10T05:59:03	24.3	71
22929	2023-07-10T06:09:03	24.6	70.5
22930	2023-07-10T06:19:03	24.7	70
22931	2023-07-10T06:29:03	24.9	70.5
22932	2023-07-10T06:39:03	25	69.5
22933	2023-07-10T06:49:03	25.2	68.5
22934	2023-07-10T06:59:03	25.3	68.5
22935	2023-07-10T07:09:03	25.5	68.5
22936	2023-07-10T07:19:03	25.8	68.5
22937	2023-07-10T07:29:03	26.1	69
22938	2023-07-10T07:39:03	26.5	66.5
22939	2023-07-10T07:49:02	26.7	65.5
22940	2023-07-10T07:59:02	27.2	64.5
22941	2023-07-10T08:09:02	27.4	62.5
22942	2023-07-10T08:19:02	27.7	61.5
22943	2023-07-10T08:29:02	28	60.5
22944	2023-07-10T08:39:02	27.8	60
22945	2023-07-10T08:49:02	28	58
22946	2023-07-10T08:59:02	28.1	58
22947	2023-07-10T09:09:02	28.3	57
22948	2023-07-10T09:19:02	28.4	57
22949	2023-07-10T09:29:03	28.7	56.5
22950	2023-07-10T09:39:02	29.1	56
22951	2023-07-10T09:49:02	29.5	55
22952	2023-07-10T09:59:02	29.5	55
22953	2023-07-10T10:09:02	29.6	55
22954	2023-07-10T10:19:02	29.2	56
22955	2023-07-10T10:29:02	29.8	50
22956	2023-07-10T10:39:02	30.3	50
22957	2023-07-10T10:49:02	30.6	49
22958	2023-07-10T10:59:02	30.5	46.5
22959	2023-07-10T11:09:02	30.5	47
22960	2023-07-10T11:19:02	30.9	42.5
22961	2023-07-10T11:29:02	30.9	44
22962	2023-07-10T11:39:02	31.1	42.5
22963	2023-07-10T11:49:02	31.2	41.5
22964	2023-07-10T11:59:02	31.3	40
22965	2023-07-10T12:09:02	31.5	37.5
22966	2023-07-10T12:19:02	34.2	33.5
22967	2023-07-10T12:29:02	34.9	31
22968	2023-07-10T12:39:02	36.3	29
22969	2023-07-10T12:49:02	36.7	27.5
22970	2023-07-10T12:59:02	37.8	28
22971	2023-07-10T13:09:02	38.2	26
22972	2023-07-10T13:19:02	36.9	28.5
22973	2023-07-10T13:29:02	39.4	25
22974	2023-07-10T13:39:02	38.8	24.5
22975	2023-07-10T13:49:02	39.9	23
22976	2023-07-10T13:59:02	40.1	23.5
22977	2023-07-10T14:09:02	39.5	24
22978	2023-07-10T14:19:02	40.2	23
22979	2023-07-10T14:29:02	40.9	22
22980	2023-07-10T14:39:02	40.4	21.5
22981	2023-07-10T14:49:02	40.5	21.5
22982	2023-07-10T14:59:02	40.1	21.5
22983	2023-07-10T15:09:02	40.6	20.5
22984	2023-07-10T15:19:02	39.5	23
22985	2023-07-10T15:29:02	39.8	21
22986	2023-07-10T15:39:02	38.5	23
22987	2023-07-10T15:49:02	39.5	23
22988	2023-07-10T15:59:02	39.8	22
22989	2023-07-10T16:09:02	38.5	23
22990	2023-07-10T16:19:02	38.8	23
22991	2023-07-10T16:29:02	37.5	23.5
22992	2023-07-10T16:39:02	37.2	24
22993	2023-07-10T16:49:02	37.2	24.5
22994	2023-07-10T16:59:02	36.8	25
22995	2023-07-10T17:09:02	36.6	25.5
22996	2023-07-10T17:19:02	36.1	26.5
22997	2023-07-10T17:29:02	35.9	27.5
22998	2023-07-10T17:39:02	35.5	26.5
22999	2023-07-10T17:49:02	35.1	28
23000	2023-07-10T17:59:02	34.9	28
23001	2023-07-10T18:09:01	34.1	29.5
23002	2023-07-10T18:19:02	33.8	31
23003	2023-07-10T18:29:02	33.1	32.5
23004	2023-07-10T18:39:01	32.3	31.5
23005	2023-07-10T18:49:01	31.8	33.5
23006	2023-07-10T18:59:01	31.2	39
23007	2023-07-10T19:09:01	30.3	40.5
23008	2023-07-10T19:19:01	29.7	42
23009	2023-07-10T19:29:01	29	42.5
23010	2023-07-10T19:39:01	28.5	44
23011	2023-07-10T19:49:01	27.9	45
23012	2023-07-10T19:59:01	27.5	47.5
23013	2023-07-10T20:09:01	27.1	46
23014	2023-07-10T20:19:01	26.8	46.5
23015	2023-07-10T20:29:01	26.5	48.5
23016	2023-07-10T20:39:01	26.2	50
23017	2023-07-10T20:49:01	26	50.5
23018	2023-07-10T20:59:01	25.8	51
23019	2023-07-10T21:09:01	25.4	52
23020	2023-07-10T21:19:01	25.2	53
23021	2023-07-10T21:29:01	24.9	53.5
23022	2023-07-10T21:39:01	24.6	54
23023	2023-07-10T21:49:01	24.3	51.5
23024	2023-07-10T21:59:01	24.2	54.5
23025	2023-07-10T22:09:01	23.9	55
23026	2023-07-10T22:19:01	23.8	55.5
23027	2023-07-10T22:29:01	23.5	57.5
23028	2023-07-10T22:39:01	23.4	56.5
23029	2023-07-10T22:49:01	23.2	57
23030	2023-07-10T22:59:01	23	58.5
23031	2023-07-10T23:09:01	22.7	57.5
23032	2023-07-10T23:19:01	22.5	57.5
23033	2023-07-10T23:29:01	22.3	58.5
23034	2023-07-10T23:39:01	22.1	60
23035	2023-07-10T23:49:01	22	61
23036	2023-07-10T23:59:01	21.7	62
23037	2023-07-11T00:09:01	21.6	62
23038	2023-07-11T00:19:01	21.4	63.5
23039	2023-07-11T00:29:01	21.3	64
23040	2023-07-11T00:39:01	21.1	66
23041	2023-07-11T00:49:01	20.9	65
23042	2023-07-11T00:59:01	20.8	65
23043	2023-07-11T01:09:01	20.6	65.5
23044	2023-07-11T01:19:01	20.5	66.5
23045	2023-07-11T01:29:01	20.3	67
23046	2023-07-11T01:39:01	20.2	68
23047	2023-07-11T01:49:01	19.9	68.5
23048	2023-07-11T01:59:01	19.8	69
23049	2023-07-11T02:09:01	19.6	70
23050	2023-07-11T02:19:01	19.7	69.5
23051	2023-07-11T02:29:01	19.5	69
23052	2023-07-11T02:39:01	19.4	70
23053	2023-07-11T02:49:01	19.3	70.5
23054	2023-07-11T02:59:01	19.1	70.5
23055	2023-07-11T03:09:01	19.1	71
23056	2023-07-11T03:19:01	18.8	71.5
23057	2023-07-11T03:29:01	18.8	73
23058	2023-07-11T03:39:01	18.8	73
23059	2023-07-11T03:49:01	18.7	74
23060	2023-07-11T03:59:01	18.7	73.5
23061	2023-07-11T04:09:01	18.8	73
23062	2023-07-11T04:19:01	18.7	71.5
23063	2023-07-11T04:29:00	18.8	71
23064	2023-07-11T04:39:01	18.9	71.5
23065	2023-07-11T04:49:00	19	72
23066	2023-07-11T04:59:00	19	72.5
23067	2023-07-11T05:09:00	19.2	72.5
23068	2023-07-11T05:19:00	19.4	71
23069	2023-07-11T05:29:00	19.6	71.5
23070	2023-07-11T05:39:00	19.8	70.5
23071	2023-07-11T05:49:00	20	67
23072	2023-07-11T05:59:01	20.3	67.5
23073	2023-07-11T06:09:00	20.5	64
23074	2023-07-11T06:19:00	20.9	64
23075	2023-07-11T06:29:00	21	64
23076	2023-07-11T06:39:00	21.4	63
23077	2023-07-11T06:49:00	21.7	63
23078	2023-07-11T06:59:00	21.7	62.5
23079	2023-07-11T07:09:00	22	62
23080	2023-07-11T07:19:00	22.3	61.5
23081	2023-07-11T07:29:00	22.8	59
23082	2023-07-11T07:39:00	23.2	59
23083	2023-07-11T07:49:00	23.5	58
23084	2023-07-11T07:59:00	24	57
23085	2023-07-11T08:09:00	24.4	56.5
23086	2023-07-11T08:19:00	24.8	56.5
23087	2023-07-11T08:29:00	25	55.5
23088	2023-07-11T08:39:00	25.2	56
23089	2023-07-11T08:49:00	25.4	55.5
23090	2023-07-11T08:59:00	25.9	54.5
23091	2023-07-11T09:09:00	26.2	54
23092	2023-07-11T09:19:00	26.7	53
23093	2023-07-11T09:29:00	27.5	52
23094	2023-07-11T09:39:00	28	50.5
23095	2023-07-11T09:49:00	28.7	49.5
23096	2023-07-11T09:59:00	29.1	50.5
23097	2023-07-11T10:09:00	29.4	49.5
23098	2023-07-11T10:19:00	29.6	48.5
23099	2023-07-11T10:29:00	29.8	47.5
23100	2023-07-11T10:39:00	30.3	46
23101	2023-07-11T10:49:00	30.5	45
23102	2023-07-11T10:59:00	30.7	44.5
23103	2023-07-11T11:09:00	30.9	42.5
23104	2023-07-11T11:19:00	31.5	40
23105	2023-07-11T11:29:00	31.6	41.5
23106	2023-07-11T11:39:00	32	41.5
23107	2023-07-11T11:49:00	32.3	41.5
23108	2023-07-11T11:59:00	32.8	40
23109	2023-07-11T12:09:00	33.7	39
23110	2023-07-11T12:19:00	36.9	33.5
23111	2023-07-11T12:29:00	38.2	31.5
23112	2023-07-11T12:39:00	39.6	29
23113	2023-07-11T12:49:00	38.9	30
23114	2023-07-11T12:59:00	40	29
23115	2023-07-11T13:09:00	41.5	27.5
23116	2023-07-11T13:19:00	43.4	25
23117	2023-07-11T13:29:00	42.8	24.5
23118	2023-07-11T13:39:00	44.5	23.5
23119	2023-07-11T13:49:00	44	24
23120	2023-07-11T13:59:00	45.7	23
23121	2023-07-11T14:09:00	45.1	22.5
23122	2023-07-11T14:19:00	46.5	21
23123	2023-07-11T14:29:00	45.7	21.5
23124	2023-07-11T14:39:00	46.1	21
23125	2023-07-11T14:49:00	46.5	21
23126	2023-07-11T14:59:00	45.1	22
23127	2023-07-11T15:09:00	42.5	24.5
23128	2023-07-11T15:19:00	39.9	27.5
23129	2023-07-11T15:29:00	39.4	29
23130	2023-07-11T15:38:59	37.9	29.5
23131	2023-07-11T15:48:59	36.7	31
23132	2023-07-11T15:59:00	36.1	34.5
23133	2023-07-11T16:08:59	31.9	61.5
23134	2023-07-11T16:18:59	31.4	50
23135	2023-07-11T16:28:59	31.7	45.5
23136	2023-07-11T16:38:59	32.5	41
23137	2023-07-11T16:48:59	33.4	38.5
23138	2023-07-11T16:58:59	33.6	40
23139	2023-07-11T17:08:59	38.3	33
23140	2023-07-11T17:18:59	36.7	34.5
23141	2023-07-11T17:28:59	39.2	32.5
23142	2023-07-11T17:38:59	35.9	37.5
23143	2023-07-11T17:48:59	34.1	41.5
23144	2023-07-11T17:58:59	33.1	43
23145	2023-07-11T18:08:59	32.6	42.5
23146	2023-07-11T18:18:59	31.5	67
23147	2023-07-11T18:28:59	29.8	60
23148	2023-07-11T18:38:59	29.6	57
23149	2023-07-11T18:48:59	29.8	55.5
23150	2023-07-11T18:58:59	29.6	53.5
23151	2023-07-11T19:08:59	29.7	49
23152	2023-07-11T19:18:59	27.5	75
23153	2023-07-11T19:28:59	25.9	90
23154	2023-07-11T19:38:59	25.6	84
23155	2023-07-11T19:48:59	24.7	79.5
23156	2023-07-11T19:58:59	24.7	75.5
23157	2023-07-11T20:08:59	24.8	74.5
23158	2023-07-11T20:18:59	25	72
23159	2023-07-11T20:28:59	22.6	92.5
23160	2023-07-11T20:38:59	22	95
23161	2023-07-11T20:48:59	22.3	96
23162	2023-07-11T20:58:59	21.9	96
23163	2023-07-11T21:08:59	21.8	96.5
23164	2023-07-11T21:18:59	21.6	97
23165	2023-07-11T21:28:59	21.1	97
23166	2023-07-11T21:38:59	20.8	97.5
23167	2023-07-11T21:48:59	20.7	97.5
23168	2023-07-11T21:58:59	20.6	97.5
23169	2023-07-11T22:08:59	20.3	97.5
23170	2023-07-11T22:28:59	20.4	98
23171	2023-07-11T22:38:59	20.4	98
23172	2023-07-11T22:48:59	20.4	98
23173	2023-07-11T22:58:59	20.2	98
23174	2023-07-11T23:08:59	20.3	98.5
23175	2023-07-11T23:18:59	20.1	98
23176	2023-07-11T23:28:59	20.2	98.5
23177	2023-07-11T23:38:59	20.3	98.5
23178	2023-07-11T23:48:59	20.1	98.5
23179	2023-07-11T23:58:59	20.1	98.5
23180	2023-07-12T00:08:59	20.1	98.5
23181	2023-07-12T00:18:59	20.2	98.5
23182	2023-07-12T00:28:59	20.2	98.5
23183	2023-07-12T00:38:59	20.3	98.5
23184	2023-07-12T00:48:59	20.2	98.5
23185	2023-07-12T00:58:59	20.3	99
23186	2023-07-12T01:08:59	20.2	99
23187	2023-07-12T01:18:59	19.9	98.5
23188	2023-07-12T01:28:59	19.7	98.5
23189	2023-07-12T01:38:59	19.6	99
23190	2023-07-12T01:48:59	19.4	99
23191	2023-07-12T01:58:59	19.4	99
23192	2023-07-12T02:08:59	19.3	99
23193	2023-07-12T02:18:58	19.2	99
23194	2023-07-12T02:28:59	19	99
23195	2023-07-12T02:38:58	19	99
23196	2023-07-12T02:48:58	18.8	99
23197	2023-07-12T02:58:58	18.7	99
23198	2023-07-12T03:08:58	18.8	99
23199	2023-07-12T03:18:59	18.7	99
23200	2023-07-12T03:28:58	18.6	99
23201	2023-07-12T03:38:58	18.7	99
23202	2023-07-12T03:48:59	18.7	99.5
23203	2023-07-12T03:58:58	18.8	99.5
23204	2023-07-12T04:08:58	18.9	99.5
23205	2023-07-12T04:18:58	19.2	99.5
23206	2023-07-12T04:28:58	19.5	99.5
23207	2023-07-12T04:38:58	19.6	99.5
23208	2023-07-12T04:48:58	19.7	99.5
23209	2023-07-12T04:58:58	20	99.5
23210	2023-07-12T05:08:58	20.2	99
23211	2023-07-12T05:18:58	20.4	99
23212	2023-07-12T05:28:58	20.6	99
23213	2023-07-12T05:38:58	20.8	99
23214	2023-07-12T05:48:58	20.7	99
23215	2023-07-12T05:58:58	20.9	99
23216	2023-07-12T06:08:58	21.2	99
23217	2023-07-12T06:18:58	21.6	99
23218	2023-07-12T06:28:58	21.9	99
23219	2023-07-12T06:38:58	22.1	99
23220	2023-07-12T06:48:58	22.1	99
23221	2023-07-12T06:58:58	22.4	99
23222	2023-07-12T07:08:58	22.7	98.5
23223	2023-07-12T07:18:58	22.9	98
23224	2023-07-12T07:28:58	23.1	98
23225	2023-07-12T07:38:58	23.8	98
23226	2023-07-12T07:48:58	23.9	97
23227	2023-07-12T07:58:58	23.6	97
23228	2023-07-12T08:08:58	23.5	97
23229	2023-07-12T08:18:58	24	98
23230	2023-07-12T08:28:58	24.4	96.5
23231	2023-07-12T08:38:58	24.7	96
23232	2023-07-12T08:48:58	24.8	93.5
23233	2023-07-12T08:58:58	25	94
23234	2023-07-12T09:08:58	24.9	92.5
23235	2023-07-12T09:18:58	24.7	89.5
23236	2023-07-12T09:28:58	25.5	60.5
23237	2023-07-12T09:38:58	25.7	57.5
23238	2023-07-12T09:48:58	25.9	57.5
23239	2023-07-12T09:58:58	25.8	56.5
23240	2023-07-12T10:08:58	26.2	52.5
23241	2023-07-12T10:18:58	26.6	53.5
23242	2023-07-12T10:28:58	27.4	50.5
23243	2023-07-12T10:38:58	27.4	51.5
23244	2023-07-12T10:48:58	27.6	52
23245	2023-07-12T10:58:58	27.8	50.5
23246	2023-07-12T11:08:58	28.1	49.5
23247	2023-07-12T11:18:58	28.2	48.5
23248	2023-07-12T11:28:58	28.7	48
23249	2023-07-12T11:38:58	28.8	49.5
23250	2023-07-12T11:48:58	28.7	48.5
23251	2023-07-12T11:58:58	29.2	47
23252	2023-07-12T12:08:58	29	46
23253	2023-07-12T12:18:57	29.5	45
23254	2023-07-12T12:28:57	30.9	40
23255	2023-07-12T12:38:57	30.8	40.5
23256	2023-07-12T12:48:57	31.2	39
23257	2023-07-12T12:58:57	31	39.5
23258	2023-07-12T13:08:57	34.4	34.5
23259	2023-07-12T13:18:57	34.6	33.5
23260	2023-07-12T13:28:57	33.4	37
23261	2023-07-12T13:38:57	34.8	32.5
23262	2023-07-12T13:48:57	34.4	32
23263	2023-07-12T13:58:58	33.1	34
23264	2023-07-12T14:08:57	34.1	31.5
23265	2023-07-12T14:18:57	35.7	28.5
23266	2023-07-12T14:28:57	34.4	29
23267	2023-07-12T14:38:57	33.7	30.5
23268	2023-07-12T14:48:57	33	32
23269	2023-07-12T14:58:57	34.6	29.5
23270	2023-07-12T15:08:57	33.3	31.5
23271	2023-07-12T15:18:57	33.1	31.5
23272	2023-07-12T15:28:57	33.6	31
23273	2023-07-12T15:38:57	33.4	32.5
23274	2023-07-12T15:48:57	32.3	33.5
23275	2023-07-12T15:58:57	30.8	37
23276	2023-07-12T16:08:57	29.9	39.5
23277	2023-07-12T16:18:57	29	40.5
23278	2023-07-12T16:28:58	28.5	42
23279	2023-07-12T16:38:57	28.1	44
23280	2023-07-12T16:48:57	28	44
23281	2023-07-12T16:58:57	27.7	44
23282	2023-07-12T17:08:57	27.2	44.5
23283	2023-07-12T17:18:57	27.2	43.5
23284	2023-07-12T17:28:57	26.9	44
23285	2023-07-12T17:38:57	26.9	44
23286	2023-07-12T17:48:57	26.8	44
23287	2023-07-12T17:58:57	26.3	44.5
23288	2023-07-12T18:08:57	26.4	46.5
23289	2023-07-12T18:18:57	26	45.5
23290	2023-07-12T18:28:57	25.8	46.5
23291	2023-07-12T18:38:57	25.6	48
23292	2023-07-12T18:48:57	25	50.5
23293	2023-07-12T18:58:57	24.7	51
23294	2023-07-12T19:08:57	24.4	53
23295	2023-07-12T19:18:57	24	55.5
23296	2023-07-12T19:28:57	24	58
23297	2023-07-12T19:38:57	23.8	58
23298	2023-07-12T19:48:57	23.4	59
23299	2023-07-12T19:58:57	23.1	61.5
23300	2023-07-12T20:08:57	23	62.5
23301	2023-07-12T20:18:57	23	63
23302	2023-07-12T20:28:57	22.8	63.5
23303	2023-07-12T20:38:57	22.2	64.5
23304	2023-07-12T20:48:57	21.8	65
23305	2023-07-12T20:58:57	21.4	65.5
23306	2023-07-12T21:08:57	21.2	64.5
23307	2023-07-12T21:18:57	21.3	63.5
23308	2023-07-12T21:28:57	20.9	64.5
23309	2023-07-12T21:38:57	20.6	64.5
23310	2023-07-12T21:48:57	20.5	63.5
23311	2023-07-12T21:58:57	20.3	64
23312	2023-07-12T22:08:57	20	62.5
23313	2023-07-12T22:18:57	20.2	60.5
23314	2023-07-12T22:28:56	20.3	60
23315	2023-07-12T22:38:56	20.2	60
23316	2023-07-12T22:48:56	19.8	61
23317	2023-07-12T22:58:56	19.7	62
23318	2023-07-12T23:08:56	19.2	64
23319	2023-07-12T23:18:56	19	65.5
23320	2023-07-12T23:28:56	19	65
23321	2023-07-12T23:38:56	18.7	66
23322	2023-07-12T23:48:56	18.8	64
23323	2023-07-12T23:58:56	18.6	64.5
23324	2023-07-13T00:08:56	18.4	66
23325	2023-07-13T00:18:56	18.1	66.5
23326	2023-07-13T00:28:56	17.8	69
23327	2023-07-13T00:38:56	17.6	69.5
23328	2023-07-13T00:48:56	17.5	70
23329	2023-07-13T00:58:56	17.2	70
23330	2023-07-13T01:08:56	17.1	71
23331	2023-07-13T01:18:56	17	71
23332	2023-07-13T01:28:56	16.8	72
23333	2023-07-13T01:38:56	16.5	75
23334	2023-07-13T01:48:56	16.5	75
23335	2023-07-13T01:58:56	16.2	77
23336	2023-07-13T02:08:56	16	77.5
23337	2023-07-13T02:18:56	15.9	78
23338	2023-07-13T02:28:56	15.6	79.5
23339	2023-07-13T02:38:56	15.5	79.5
23340	2023-07-13T02:48:56	15.3	79
23341	2023-07-13T02:58:56	15.3	78
23342	2023-07-13T03:08:56	15.2	79
23343	2023-07-13T03:28:56	14.9	81.5
23344	2023-07-13T03:38:56	14.9	80.5
23345	2023-07-13T03:48:56	14.8	81.5
23346	2023-07-13T03:58:56	14.8	80.5
23347	2023-07-13T04:08:56	14.7	82
23348	2023-07-13T04:18:56	14.8	81
23349	2023-07-13T04:28:56	14.8	82.5
23350	2023-07-13T04:39:15	15	81.5
23351	2023-07-13T04:48:56	15.3	79
23352	2023-07-13T04:58:56	15.5	79.5
23353	2023-07-13T05:08:56	15.5	80
23354	2023-07-13T05:18:56	15.6	80
23355	2023-07-13T05:28:56	15.6	81.5
23356	2023-07-13T05:39:16	15.8	81.5
23357	2023-07-13T05:48:56	16	82.5
23358	2023-07-13T05:58:56	16.3	77
23359	2023-07-13T06:08:56	16.6	72.5
23360	2023-07-13T06:18:56	16.6	79
23361	2023-07-13T06:28:56	16.6	74
23362	2023-07-13T06:39:13	17	73
23363	2023-07-13T06:48:56	17.4	71.5
23364	2023-07-13T06:58:56	18	65.5
23365	2023-07-13T07:08:56	18.4	66.5
23366	2023-07-13T07:18:56	18.7	65
23367	2023-07-13T07:28:56	18.9	65.5
23368	2023-07-13T07:38:56	19.3	63.5
23369	2023-07-13T07:48:56	19.5	63
23370	2023-07-13T07:58:56	19.9	60
23371	2023-07-13T08:08:56	20.2	57.5
23372	2023-07-13T08:18:56	20.5	52.5
23373	2023-07-13T08:28:56	20.8	50.5
23374	2023-07-13T08:38:56	21.2	49.5
23375	2023-07-13T08:48:56	21.2	49.5
23376	2023-07-13T08:58:56	21.6	46.5
23377	2023-07-13T09:08:56	21.7	47
23378	2023-07-13T09:18:56	22.1	44.5
23379	2023-07-13T09:28:56	22.3	45
23380	2023-07-13T09:38:56	22.6	42.5
23381	2023-07-13T09:48:56	22.9	42.5
23382	2023-07-13T09:58:55	23.3	41
23383	2023-07-13T10:08:55	23	42
23384	2023-07-13T10:18:55	23.1	41.5
23385	2023-07-13T10:28:55	23.4	42.5
23386	2023-07-13T10:38:55	23.7	41
23387	2023-07-13T10:48:55	23.9	38.5
23388	2023-07-13T10:58:55	24.1	38
23389	2023-07-13T11:08:55	24	39
23390	2023-07-13T11:18:55	24.4	38
23391	2023-07-13T11:28:55	24.9	37.5
23392	2023-07-13T11:38:55	25.3	38
23393	2023-07-13T11:48:55	25.3	38.5
23394	2023-07-13T11:58:55	26.1	34.5
23395	2023-07-13T12:08:55	26.5	33.5
23396	2023-07-13T12:18:55	26.3	34
23397	2023-07-13T12:28:55	27.7	31.5
23398	2023-07-13T12:38:55	28.2	31
23399	2023-07-13T12:48:55	30.5	26.5
23400	2023-07-13T12:58:55	31.9	25
23401	2023-07-13T13:08:55	33.2	23
23402	2023-07-13T13:18:55	34.2	22.5
23403	2023-07-13T13:28:55	32.9	24
23404	2023-07-13T13:38:55	36.2	20
23405	2023-07-13T13:48:55	32.4	23.5
23406	2023-07-13T13:58:55	35.4	20.5
23407	2023-07-13T14:08:55	36.4	20
23408	2023-07-13T14:18:55	38.7	19
23409	2023-07-13T14:28:55	38.3	20
23410	2023-07-13T14:38:55	37.8	18.5
23411	2023-07-13T14:48:55	38.5	17
23412	2023-07-13T14:58:55	39.5	17.5
23413	2023-07-13T15:08:55	38.7	18.5
23414	2023-07-13T15:18:55	37.6	18.5
23415	2023-07-13T15:28:55	38.9	18
23416	2023-07-13T15:38:55	40.5	17
23417	2023-07-13T15:48:55	38.4	18.5
23418	2023-07-13T15:58:55	38.2	18.5
23419	2023-07-13T16:08:55	37.2	18.5
23420	2023-07-13T16:18:55	37.7	19.5
23421	2023-07-13T16:28:55	39.2	17.5
23422	2023-07-13T16:38:55	38.6	18.5
23423	2023-07-13T16:48:55	36.5	19.5
23424	2023-07-13T16:58:55	36.5	20
23425	2023-07-13T17:08:55	36.1	20
23426	2023-07-13T17:18:55	36.3	21.5
23427	2023-07-13T17:28:55	32.3	25.5
23428	2023-07-13T17:58:55	32.6	25
23429	2023-07-13T18:08:55	32.9	24.5
23430	2023-07-13T18:18:55	32.5	24.5
23431	2023-07-13T18:28:55	31	26.5
23432	2023-07-13T18:38:55	30.3	28.5
23433	2023-07-13T18:48:55	29.2	29.5
23434	2023-07-13T18:58:55	28.7	30.5
23435	2023-07-13T19:08:55	28	33.5
23436	2023-07-13T19:18:55	27.2	34.5
23437	2023-07-13T19:28:55	26.8	36
23438	2023-07-13T19:38:55	26.4	40.5
23439	2023-07-13T19:48:55	25.7	42
23440	2023-07-13T19:58:55	25.1	42.5
23441	2023-07-13T20:08:54	24.3	43.5
23442	2023-07-13T20:18:54	24.2	44
23443	2023-07-13T20:28:54	23.9	44.5
23444	2023-07-13T20:38:54	23.8	46
23445	2023-07-13T20:48:54	23.2	47
23446	2023-07-13T20:58:54	22.4	51
23447	2023-07-13T21:08:54	22	52.5
23448	2023-07-13T21:18:54	21.7	53.5
23449	2023-07-13T21:28:54	21.4	51.5
23450	2023-07-13T21:38:54	21.2	52.5
23451	2023-07-13T21:48:54	20.9	55.5
23452	2023-07-13T21:58:54	20.5	57
23453	2023-07-13T22:08:54	20.2	58
23454	2023-07-13T22:18:54	20	59
23455	2023-07-13T22:28:54	19.8	59.5
23456	2023-07-13T22:38:55	19.5	59.5
23457	2023-07-13T22:48:54	19.3	61
23458	2023-07-13T22:58:54	19.1	62
23459	2023-07-13T23:08:54	18.9	62.5
23460	2023-07-13T23:18:54	18.6	64
23461	2023-07-13T23:28:54	18.4	65
23462	2023-07-13T23:38:54	18.2	66
23463	2023-07-13T23:48:54	17.8	66.5
23464	2023-07-13T23:58:54	17.7	65.5
23465	2023-07-14T00:08:54	17.5	66.5
23466	2023-07-14T00:18:54	17.4	65.5
23467	2023-07-14T00:28:54	17.2	66
23468	2023-07-14T00:38:54	17.1	66.5
23469	2023-07-14T00:48:54	16.9	68
23470	2023-07-14T00:58:55	16.7	68.5
23471	2023-07-14T01:08:54	16.6	69.5
23472	2023-07-14T01:18:54	16.4	71.5
23473	2023-07-14T01:28:54	16.2	72.5
23474	2023-07-14T01:38:54	16	73
23475	2023-07-14T01:48:54	15.9	74
23476	2023-07-14T01:58:54	15.7	74
23477	2023-07-14T02:08:54	15.5	73
23478	2023-07-14T02:18:54	15.4	73
23479	2023-07-14T02:38:54	15.2	74.5
23480	2023-07-14T02:48:54	15.1	75
23481	2023-07-14T02:58:55	14.9	73.5
23482	2023-07-14T03:08:54	14.7	74.5
23483	2023-07-14T03:18:54	14.6	76
23484	2023-07-14T03:28:54	14.6	78
23485	2023-07-14T03:38:54	14.8	78
23486	2023-07-14T03:48:54	14.8	78
23487	2023-07-14T03:58:54	14.6	79.5
23488	2023-07-14T04:18:54	15.1	78
23489	2023-07-14T04:28:54	15.2	76
23490	2023-07-14T04:38:54	15.5	74.5
23491	2023-07-14T04:48:54	15.9	73
23492	2023-07-14T04:58:54	16.1	72
23493	2023-07-14T05:08:54	16.2	72
23494	2023-07-14T05:18:54	16.3	72
23495	2023-07-14T05:28:54	16.5	70.5
23496	2023-07-14T05:38:54	16.5	71
23497	2023-07-14T05:48:54	16.9	69.5
23498	2023-07-14T05:58:54	17.2	68.5
23499	2023-07-14T06:08:54	17.1	69.5
23500	2023-07-14T06:18:54	17.5	68
23501	2023-07-14T06:28:54	17.8	67
23502	2023-07-14T06:38:54	17.8	68
23503	2023-07-14T06:48:54	18.4	66.5
23504	2023-07-14T06:58:54	18.6	65.5
23505	2023-07-14T07:08:54	18.9	65
23506	2023-07-14T07:28:53	19.4	64
23507	2023-07-14T07:38:53	20	62
23508	2023-07-14T07:48:53	20.4	61.5
23509	2023-07-14T07:58:53	21.1	59
23510	2023-07-14T08:08:53	22	56
23511	2023-07-14T08:18:53	22.5	53
23512	2023-07-14T08:28:53	23	53
23513	2023-07-14T08:38:53	23.5	51
23514	2023-07-14T08:48:53	23.8	51
23515	2023-07-14T08:58:53	23.9	51.5
23516	2023-07-14T09:08:53	24.4	49.5
23517	2023-07-14T09:18:53	24.7	49
23518	2023-07-14T09:28:53	25.1	46.5
23519	2023-07-14T09:38:53	25.3	46
23520	2023-07-14T09:48:53	25.5	46.5
23521	2023-07-14T09:58:53	25.8	46
23522	2023-07-14T10:08:53	26.1	43.5
23523	2023-07-14T10:18:53	26.3	42
23524	2023-07-14T10:28:53	26.6	40
23525	2023-07-14T10:38:53	26.9	41.5
23526	2023-07-14T10:48:53	27.1	38.5
23527	2023-07-14T10:58:53	27.4	36
23528	2023-07-14T11:08:53	27.7	35
23529	2023-07-14T11:18:53	28.3	35.5
23530	2023-07-14T11:28:53	28.6	34
23531	2023-07-14T11:38:53	28.9	33.5
23532	2023-07-14T11:48:53	29.3	33.5
23533	2023-07-14T11:58:53	29.1	32.5
23534	2023-07-14T12:08:53	29.4	30.5
23535	2023-07-14T12:18:53	31.4	26.5
23536	2023-07-14T12:28:53	34.1	24
23537	2023-07-14T12:38:53	35.6	23
23538	2023-07-14T12:48:53	38.3	21.5
23539	2023-07-14T12:58:53	38.4	20
23540	2023-07-14T13:08:53	38.4	21
23541	2023-07-14T13:18:53	40.3	18.5
23542	2023-07-14T13:28:53	40	18.5
23543	2023-07-14T13:38:53	41.9	18
23544	2023-07-14T13:48:53	37.6	21.5
23545	2023-07-14T13:58:53	35.5	23.5
23546	2023-07-14T14:08:53	42.4	18
23547	2023-07-14T14:18:53	44.8	16
23548	2023-07-14T14:28:53	44.3	15.5
23549	2023-07-14T14:38:53	45.8	14.5
23550	2023-07-14T14:48:53	46.5	15
23551	2023-07-14T14:58:53	47.4	14.5
23552	2023-07-14T15:08:53	46.9	14
23553	2023-07-14T15:18:53	46.1	15
23554	2023-07-14T15:28:53	47.8	13.5
23555	2023-07-14T15:38:53	48.2	13.5
23556	2023-07-14T15:48:53	49	13
23557	2023-07-14T15:58:53	47.3	14
23558	2023-07-14T16:08:53	47.5	14
23559	2023-07-14T16:18:53	46.5	15
23560	2023-07-14T16:28:53	46.8	14.5
23561	2023-07-14T16:38:53	47.8	13.5
23562	2023-07-14T16:48:53	47.5	14
23563	2023-07-14T16:58:53	47.4	14
23564	2023-07-14T17:08:53	45	15.5
23565	2023-07-14T17:18:53	45.8	15.5
23566	2023-07-14T17:28:53	41.8	18.5
23567	2023-07-14T17:38:53	37.5	22
23568	2023-07-14T17:48:53	36.5	24.5
23569	2023-07-14T17:58:53	37.9	25
23570	2023-07-14T18:08:53	36.8	26
23571	2023-07-14T18:18:53	38.7	25.5
23572	2023-07-14T18:28:53	39.4	26
23573	2023-07-14T18:38:53	37.3	27
23574	2023-07-14T18:48:52	34.3	30.5
23575	2023-07-14T18:58:52	33.1	34
23576	2023-07-14T19:08:52	32.2	35
23577	2023-07-14T19:18:52	31.3	39
23578	2023-07-14T19:28:52	30.5	41
23579	2023-07-14T19:38:52	30.2	39.5
23580	2023-07-14T19:48:52	29.7	39
23581	2023-07-14T19:58:52	29.3	39
23582	2023-07-14T20:08:52	28.8	40.5
23583	2023-07-14T20:18:52	28.3	43
23584	2023-07-14T20:28:52	27.6	44
23585	2023-07-14T20:38:52	27.2	45
23586	2023-07-14T20:48:52	26.7	47
23587	2023-07-14T20:58:52	26.1	48
23588	2023-07-14T21:08:52	25.7	50.5
23589	2023-07-14T21:18:52	25.4	52
23590	2023-07-14T21:28:52	24.9	52.5
23591	2023-07-14T21:38:52	24.7	52.5
23592	2023-07-14T21:48:52	24.4	51.5
23593	2023-07-14T21:58:52	24	53
23594	2023-07-14T22:08:52	23.6	54
23595	2023-07-14T22:18:52	23.5	55.5
23596	2023-07-14T22:28:52	23.2	56.5
23597	2023-07-14T22:38:52	22.9	57.5
23598	2023-07-14T22:48:52	22.8	58
23599	2023-07-14T22:58:52	22.4	58.5
23600	2023-07-14T23:08:52	22.1	61
23601	2023-07-14T23:18:52	22	62
23602	2023-07-14T23:28:52	21.7	62.5
23603	2023-07-14T23:38:52	21.4	63.5
23604	2023-07-14T23:48:52	21.3	62.5
23605	2023-07-14T23:58:52	21.1	64.5
23606	2023-07-15T00:08:52	20.9	65.5
23607	2023-07-15T00:18:52	20.7	66
23608	2023-07-15T00:28:52	20.5	66
23609	2023-07-15T00:38:52	20.5	65.5
23610	2023-07-15T00:48:52	20.3	65
23611	2023-07-15T00:58:52	20.1	65
23612	2023-07-15T01:08:52	20	65.5
23613	2023-07-15T01:18:52	19.8	65.5
23614	2023-07-15T01:28:52	19.7	66.5
23615	2023-07-15T01:38:52	19.5	67
23616	2023-07-15T01:48:52	19.4	67.5
23617	2023-07-15T01:58:52	19.3	68.5
23618	2023-07-15T02:08:52	19.2	68
23619	2023-07-15T02:18:52	19	68.5
23620	2023-07-15T02:28:52	19	70
23621	2023-07-15T02:38:52	18.9	69.5
23622	2023-07-15T02:48:52	19.1	70
23623	2023-07-15T02:58:52	19.1	70.5
23624	2023-07-15T03:08:52	19	70.5
23625	2023-07-15T03:18:52	19.2	70.5
23626	2023-07-15T03:28:52	19.1	71.5
23627	2023-07-15T03:38:52	18.7	71
23628	2023-07-15T03:48:52	18.5	71.5
23629	2023-07-15T03:58:52	18.4	70.5
23630	2023-07-15T04:08:52	18.4	70.5
23631	2023-07-15T04:18:52	18.5	73.5
23632	2023-07-15T04:28:52	18.3	74
23633	2023-07-15T04:38:52	18.5	74
23634	2023-07-15T04:48:52	18.5	74
23635	2023-07-15T04:58:52	18.6	73
23636	2023-07-15T05:08:52	18.8	72.5
23637	2023-07-15T05:18:52	19	74
23638	2023-07-15T05:28:52	19.3	73
23639	2023-07-15T05:38:51	19.9	71
23640	2023-07-15T05:48:51	20.3	68
23641	2023-07-15T05:58:51	20.2	67
23642	2023-07-15T06:08:51	20.5	65.5
23643	2023-07-15T06:18:51	20.9	64.5
23644	2023-07-15T06:28:51	21.4	63
23645	2023-07-15T06:38:51	21.8	62
23646	2023-07-15T06:48:51	22.5	61.5
23647	2023-07-15T07:08:51	23.7	56
23648	2023-07-15T07:18:51	23.8	56.5
23649	2023-07-15T07:28:51	24.2	56.5
23650	2023-07-15T07:38:51	24.1	56.5
23651	2023-07-15T07:48:51	24.7	54.5
23652	2023-07-15T07:58:51	25.6	52
23653	2023-07-15T08:08:51	25.8	51
23654	2023-07-15T08:18:51	25.9	51
23655	2023-07-15T08:28:51	26.4	50
23656	2023-07-15T08:38:51	27.5	49
23657	2023-07-15T08:48:51	27.8	46.5
23658	2023-07-15T08:58:51	28.1	47.5
23659	2023-07-15T09:08:51	28.2	48
23660	2023-07-15T09:18:51	27.7	48
23661	2023-07-15T09:28:51	27.4	47
23662	2023-07-15T09:38:51	28	49.5
23663	2023-07-15T09:48:51	28.2	47.5
23664	2023-07-15T09:58:51	28.1	47
23665	2023-07-15T10:08:51	28.6	45
23666	2023-07-15T10:18:51	29.2	44
23667	2023-07-15T10:28:51	29.5	43
23668	2023-07-15T10:38:51	29.8	43
23669	2023-07-15T10:48:51	29.8	42.5
23670	2023-07-15T10:58:51	30.1	44
23671	2023-07-15T11:08:51	30.4	44.5
23672	2023-07-15T11:18:51	30.8	42.5
23673	2023-07-15T11:28:51	30.8	39.5
23674	2023-07-15T11:38:51	31.4	38
23675	2023-07-15T11:48:51	31.5	39.5
23676	2023-07-15T11:58:51	32.5	37
23677	2023-07-15T12:08:51	33.5	35
23678	2023-07-15T12:18:51	33.7	37
23679	2023-07-15T12:28:51	33.7	36.5
23680	2023-07-15T12:38:51	33.3	37.5
23681	2023-07-15T12:48:51	37.6	31
23682	2023-07-15T12:58:51	39.6	27
23683	2023-07-15T13:08:51	41.4	24.5
23684	2023-07-15T13:18:51	41.1	24.5
23685	2023-07-15T13:28:51	40.1	25.5
23686	2023-07-15T13:38:51	40.3	25
23687	2023-07-15T13:48:51	36.3	30
23688	2023-07-15T13:58:51	35.3	33.5
23689	2023-07-15T14:08:51	34.3	33.5
23690	2023-07-15T14:18:51	33.8	34.5
23691	2023-07-15T14:28:51	32.8	36
23692	2023-07-15T14:38:51	32	40
23693	2023-07-15T14:48:51	31.4	43.5
23694	2023-07-15T14:58:51	31.4	45
23695	2023-07-15T15:08:51	36.6	35
23696	2023-07-15T15:18:51	39.2	31.5
23697	2023-07-15T15:28:50	40.4	29.5
23698	2023-07-15T15:38:51	41.3	28
23699	2023-07-15T15:48:51	41.3	28
23700	2023-07-15T15:58:50	40.7	29
23701	2023-07-15T16:08:50	40.3	30.5
23702	2023-07-15T16:18:50	40.9	29.5
23703	2023-07-15T16:28:50	40.8	29
23704	2023-07-15T16:38:51	42.1	28.5
23705	2023-07-15T16:48:50	41.9	28.5
23706	2023-07-15T16:58:50	41.4	29
23707	2023-07-15T17:08:50	41.4	29
23708	2023-07-15T17:18:50	41.3	29
23709	2023-07-15T17:28:50	40.1	30
23710	2023-07-15T17:38:50	40.1	29.5
23711	2023-07-15T17:48:50	37.2	34.5
23712	2023-07-15T17:58:50	34.6	38.5
23713	2023-07-15T18:08:51	33.6	41
23714	2023-07-15T18:18:50	32.1	43.5
23715	2023-07-15T18:28:50	31.9	44.5
23716	2023-07-15T18:38:50	30.8	47
23717	2023-07-15T18:48:50	30.6	47
23718	2023-07-15T18:58:50	30.2	48.5
23719	2023-07-15T19:08:50	30	49.5
23720	2023-07-15T19:18:50	29.5	50.5
23721	2023-07-15T19:28:50	26.4	85
23722	2023-07-15T19:38:50	22.5	91.5
23723	2023-07-15T19:48:50	23.4	95
23724	2023-07-15T19:58:50	22.1	95
23725	2023-07-15T20:08:50	21.6	95.5
23726	2023-07-15T20:18:50	21.4	96
23727	2023-07-15T20:28:50	22	97
23728	2023-07-15T20:38:50	21.5	96.5
23729	2023-07-15T20:48:50	21.5	97
23730	2023-07-15T20:58:50	21.4	97
23731	2023-07-15T21:08:50	21	97
23732	2023-07-15T21:18:50	21.1	97.5
23733	2023-07-15T21:28:50	21	97.5
23734	2023-07-15T21:38:50	20.7	97.5
23735	2023-07-15T21:48:50	20.6	97.5
23736	2023-07-15T21:58:50	20.5	97.5
23737	2023-07-15T22:08:50	20.4	98
23738	2023-07-15T22:18:50	20.3	98
23739	2023-07-15T22:38:50	20.5	98.5
23740	2023-07-15T22:48:50	20.2	98.5
23741	2023-07-15T22:58:50	20.2	98.5
23742	2023-07-15T23:08:50	19.7	98.5
23743	2023-07-15T23:18:50	19.3	98.5
23744	2023-07-15T23:28:50	19.2	98.5
23745	2023-07-15T23:38:50	18.9	98.5
23746	2023-07-15T23:48:50	18.8	99
23747	2023-07-15T23:58:50	18.8	99
23748	2023-07-16T00:08:50	18.6	99
23749	2023-07-16T00:18:50	18.5	99
23750	2023-07-16T00:28:50	18.4	99
23751	2023-07-16T00:38:50	18.2	99
23752	2023-07-16T00:48:50	18.2	99.5
23753	2023-07-16T00:58:50	18	99.5
23754	2023-07-16T01:08:50	17.7	99
23755	2023-07-16T01:18:50	17.5	99
23756	2023-07-16T01:28:50	17.3	99
23757	2023-07-16T01:38:50	17.2	99.5
23758	2023-07-16T01:48:50	17.1	99.5
23759	2023-07-16T01:58:50	17.1	99.5
23760	2023-07-16T02:08:50	17.2	99.5
23761	2023-07-16T02:18:50	17.1	99.5
23762	2023-07-16T02:28:49	16.9	99.5
23763	2023-07-16T02:38:49	16.9	99.5
23764	2023-07-16T02:48:49	16.7	99.5
23765	2023-07-16T02:58:49	16.4	99.5
23766	2023-07-16T03:08:49	16.2	99.5
23767	2023-07-16T03:18:49	16.2	99.5
23768	2023-07-16T03:28:49	16.3	99.5
23769	2023-07-16T03:38:49	16.5	100
23770	2023-07-16T03:48:49	16.6	100
23771	2023-07-16T03:58:49	16.5	100
23772	2023-07-16T04:08:49	16.6	100
23773	2023-07-16T04:18:49	16.4	100
23774	2023-07-16T04:28:49	16.3	100
23775	2023-07-16T04:48:49	16.6	100
23776	2023-07-16T04:58:49	16.6	100
23777	2023-07-16T05:08:49	16.5	99.5
23778	2023-07-16T05:18:49	16.7	100
23779	2023-07-16T05:28:49	16.9	100
23780	2023-07-16T05:38:49	17	100
23781	2023-07-16T05:48:49	16.8	99.5
23782	2023-07-16T05:58:49	16.8	99.5
23783	2023-07-16T06:08:49	17	100
23784	2023-07-16T06:18:49	17.2	100
23785	2023-07-16T06:28:49	17.5	100
23786	2023-07-16T06:38:49	18	100
23787	2023-07-16T06:48:49	18.6	100
23788	2023-07-16T06:58:49	18.8	99.5
23789	2023-07-16T07:08:49	18.9	99
23790	2023-07-16T07:18:49	19.2	98.5
23791	2023-07-16T07:28:49	19.5	98
23792	2023-07-16T07:38:49	20	99
23793	2023-07-16T07:48:49	19.6	97.5
23794	2023-07-16T07:58:49	19.4	98
23795	2023-07-16T08:08:49	19.6	97.5
23796	2023-07-16T08:18:49	19.9	98
23797	2023-07-16T08:28:49	20	97
23798	2023-07-16T08:38:49	20.7	98
23799	2023-07-16T08:48:49	21.2	97
23800	2023-07-16T08:58:49	21.8	96.5
23801	2023-07-16T09:08:49	21.7	93.5
23802	2023-07-16T09:18:49	21.3	93
23803	2023-07-16T09:28:49	21.5	96
23804	2023-07-16T09:38:49	21.5	93
23805	2023-07-16T09:48:49	22	61
23806	2023-07-16T09:58:49	22.3	55
23807	2023-07-16T10:08:49	22.4	53.5
23808	2023-07-16T10:18:49	22.6	53
23809	2023-07-16T10:28:49	23.4	52
23810	2023-07-16T10:48:49	23.5	49.5
23811	2023-07-16T10:58:49	23.7	48
23812	2023-07-16T11:08:49	23.4	49.5
23813	2023-07-16T11:18:49	23.3	49
23814	2023-07-16T11:28:49	23.6	49
23815	2023-07-16T11:38:49	23.8	48
23816	2023-07-16T11:48:49	24.2	45.5
23817	2023-07-16T11:58:49	23.8	44.5
23818	2023-07-16T12:08:49	24.7	43
23819	2023-07-16T12:18:49	26.5	40
23820	2023-07-16T12:28:49	27.4	37.5
23821	2023-07-16T12:38:49	27.6	36.5
23822	2023-07-16T12:48:49	29.3	33.5
23823	2023-07-16T12:58:49	29	34.5
23824	2023-07-16T13:08:49	30.4	31.5
23825	2023-07-16T13:18:48	31.1	30
23826	2023-07-16T13:28:48	32	29
23827	2023-07-16T13:38:48	32.8	29
23828	2023-07-16T13:48:48	33.7	27.5
23829	2023-07-16T13:58:48	34.3	25.5
23830	2023-07-16T14:08:48	34.8	25
23831	2023-07-16T14:18:48	34.4	25
23832	2023-07-16T14:28:48	35.6	25
23833	2023-07-16T14:38:48	35.1	25.5
23834	2023-07-16T14:48:48	32.5	28.5
23835	2023-07-16T14:58:48	31.4	30.5
23836	2023-07-16T15:08:48	34	28
23837	2023-07-16T15:18:48	35.4	24.5
23838	2023-07-16T15:28:48	36.5	25
23839	2023-07-16T15:38:48	36.3	24
23840	2023-07-16T15:48:48	36.9	24
23841	2023-07-16T15:58:48	33.7	27.5
23842	2023-07-16T16:08:48	31.2	33
23843	2023-07-16T16:18:48	32.4	31
23844	2023-07-16T16:28:48	35.9	25.5
23845	2023-07-16T16:38:48	33.4	28
23846	2023-07-16T16:48:48	29.4	34.5
23847	2023-07-16T16:58:48	29.2	36.5
23848	2023-07-16T17:08:48	34	30
23849	2023-07-16T17:18:48	36.8	25
23850	2023-07-16T17:28:48	36	25
23851	2023-07-16T17:38:48	33.6	29
23852	2023-07-16T17:48:48	34.1	28
23853	2023-07-16T17:58:48	33.3	29.5
23854	2023-07-16T18:08:48	33.1	30
23855	2023-07-16T18:18:48	30.7	33.5
23856	2023-07-16T18:28:48	30	34.5
23857	2023-07-16T18:38:48	29.8	37
23858	2023-07-16T18:48:48	29.1	37.5
23859	2023-07-16T18:58:48	28.5	41.5
23860	2023-07-16T19:08:48	27.4	46.5
23861	2023-07-16T19:18:48	26.5	49.5
23862	2023-07-16T19:38:48	25.2	53
23863	2023-07-16T19:48:48	24.6	55
23864	2023-07-16T19:58:48	24	56.5
23865	2023-07-16T20:08:48	23.7	58
23866	2023-07-16T20:18:48	23.1	57.5
23867	2023-07-16T20:28:48	22.9	59.5
23868	2023-07-16T20:38:48	22.4	60
23869	2023-07-16T20:48:48	22.1	61
23870	2023-07-16T20:58:48	21.8	63.5
23871	2023-07-16T21:08:48	21.6	63.5
23872	2023-07-16T21:18:48	21.4	64
23873	2023-07-16T21:28:48	21.4	64
23874	2023-07-16T21:38:48	21.3	64.5
23875	2023-07-16T21:48:48	21.3	65
23876	2023-07-16T21:58:48	21.3	65.5
23877	2023-07-16T22:08:48	21	66
23878	2023-07-16T22:18:48	20.9	66.5
23879	2023-07-16T22:28:48	20.5	69.5
23880	2023-07-16T22:38:48	20.2	71
23881	2023-07-16T22:48:48	20.1	70
23882	2023-07-16T22:58:48	19.9	70
23883	2023-07-16T23:08:48	19.6	71
23884	2023-07-16T23:18:48	19.3	71.5
23885	2023-07-16T23:28:48	19.1	74
23886	2023-07-16T23:38:47	18.9	75.5
23887	2023-07-16T23:48:47	18.7	76.5
23888	2023-07-16T23:58:47	18.6	77
23889	2023-07-17T00:08:47	18.6	77.5
23890	2023-07-17T00:18:47	18.4	78
23891	2023-07-17T00:28:47	18.2	78.5
23892	2023-07-17T00:38:47	18.3	78.5
23893	2023-07-17T00:48:47	18	78.5
23894	2023-07-17T00:58:47	18	78
23895	2023-07-17T01:08:47	17.9	78
23896	2023-07-17T01:18:47	17.8	78.5
23897	2023-07-17T01:28:47	17.7	79
23898	2023-07-17T01:38:47	17.8	79.5
23899	2023-07-17T01:48:47	17.7	80
23900	2023-07-17T01:58:47	17.7	79.5
23901	2023-07-17T02:08:47	17.8	79.5
23902	2023-07-17T02:18:47	17.7	80
23903	2023-07-17T02:28:47	17.8	79.5
23904	2023-07-17T02:38:47	17.5	80.5
23905	2023-07-17T02:48:47	17.2	82
23906	2023-07-17T02:58:47	17.2	82.5
23907	2023-07-17T03:09:08	17	83
23908	2023-07-17T03:18:47	16.9	83.5
23909	2023-07-17T03:28:47	16.6	84
23910	2023-07-17T03:38:47	16.5	84.5
23911	2023-07-17T03:48:47	16.6	83.5
23912	2023-07-17T03:58:47	16.5	84
23913	2023-07-17T04:08:47	16.4	84.5
23914	2023-07-17T04:18:47	16.3	86
23915	2023-07-17T04:28:47	16.3	86
23916	2023-07-17T04:38:47	16.2	85
23917	2023-07-17T04:48:47	16.4	85.5
23918	2023-07-17T04:58:47	16.4	86.5
23919	2023-07-17T05:18:47	16.6	84.5
23920	2023-07-17T05:28:47	16.7	85
23921	2023-07-17T05:38:47	16.8	84.5
23922	2023-07-17T05:48:47	17.6	83
23923	2023-07-17T05:58:47	18	80
23924	2023-07-17T06:08:47	18.2	79.5
23925	2023-07-17T06:18:47	18.8	75.5
23926	2023-07-17T06:28:47	18.8	74.5
23927	2023-07-17T06:38:47	18.8	75
23928	2023-07-17T06:48:47	18.7	78.5
23929	2023-07-17T06:58:47	19.1	75.5
23930	2023-07-17T07:08:47	19.8	69
23931	2023-07-17T07:18:47	20.1	67
23932	2023-07-17T07:28:47	20.4	66.5
23933	2023-07-17T07:38:47	20.8	63.5
23934	2023-07-17T07:48:47	21.2	64
23935	2023-07-17T07:58:47	21.5	60.5
23936	2023-07-17T08:08:47	21.8	56.5
23937	2023-07-17T08:18:47	22.2	55
23938	2023-07-17T08:28:47	22.2	54
23939	2023-07-17T08:38:47	22.8	52.5
23940	2023-07-17T08:48:47	23	51
23941	2023-07-17T08:58:47	23.2	49.5
23942	2023-07-17T09:08:47	23.4	48
23943	2023-07-17T09:18:47	23.3	49.5
23944	2023-07-17T09:28:47	23.4	49.5
23945	2023-07-17T09:38:47	24.3	46
23946	2023-07-17T09:48:47	24.3	43
23947	2023-07-17T09:58:47	24.9	43
23948	2023-07-17T10:08:47	25.5	44.5
23949	2023-07-17T10:18:47	25.5	43
23950	2023-07-17T10:28:47	25.5	42
23951	2023-07-17T10:38:46	25.3	42.5
23952	2023-07-17T10:48:46	25.8	42
23953	2023-07-17T10:58:46	26.1	40
23954	2023-07-17T11:08:46	26	37.5
23955	2023-07-17T11:18:47	26.4	37
23956	2023-07-17T11:28:46	26.6	36
23957	2023-07-17T11:38:46	26.6	37
23958	2023-07-17T11:48:47	26.7	36.5
23959	2023-07-17T11:58:46	26.5	37.5
23960	2023-07-17T12:08:46	27.4	34.5
23961	2023-07-17T12:18:46	30.1	32
23962	2023-07-17T12:28:46	31.7	30
23963	2023-07-17T12:38:46	33.3	27
23964	2023-07-17T12:48:46	31.3	30
23965	2023-07-17T12:58:46	34.4	26.5
23966	2023-07-17T13:08:46	33.6	26.5
23967	2023-07-17T13:18:46	32.7	27
23968	2023-07-17T13:28:46	34.6	25
23969	2023-07-17T13:48:46	34.3	24.5
23970	2023-07-17T13:58:46	37	22
23971	2023-07-17T14:08:46	36.9	21
23972	2023-07-17T14:18:46	35.4	24
23973	2023-07-17T14:28:46	35.5	22
23974	2023-07-17T14:38:46	37.3	20
23975	2023-07-17T14:48:46	38.9	19
23976	2023-07-17T14:58:46	38.6	18.5
23977	2023-07-17T15:08:46	38.2	18.5
23978	2023-07-17T15:18:46	39.3	18
23979	2023-07-17T15:28:46	38.2	18.5
23980	2023-07-17T15:38:46	39.5	17.5
23981	2023-07-17T15:58:46	38	18
23982	2023-07-17T16:08:46	37.7	18.5
23983	2023-07-17T16:18:46	36.4	19
23984	2023-07-17T16:28:46	37.3	19
23985	2023-07-17T16:39:03	37	19
23986	2023-07-17T16:48:46	35.4	20.5
23987	2023-07-17T16:58:46	37.1	19
23988	2023-07-17T17:08:46	37	19
23989	2023-07-17T17:18:46	36.8	19
23990	2023-07-17T17:28:46	36.9	19.5
23991	2023-07-17T17:38:46	36	20.5
23992	2023-07-17T17:48:46	35.5	20.5
23993	2023-07-17T17:58:46	34.2	22
23994	2023-07-17T18:08:46	33.9	22
23995	2023-07-17T18:18:46	33.6	22.5
23996	2023-07-17T18:28:46	33.2	23.5
23997	2023-07-17T18:38:46	32.4	23.5
23998	2023-07-17T18:48:46	31.2	26
23999	2023-07-17T18:58:46	29.1	30
24000	2023-07-17T19:08:46	28.3	34
24001	2023-07-17T19:18:46	27.7	37.5
24002	2023-07-17T19:28:46	27.1	39.5
24003	2023-07-17T19:38:46	26.3	41
24004	2023-07-17T19:48:46	25.8	43.5
24005	2023-07-17T19:58:46	25.3	45
24006	2023-07-17T20:08:46	24.8	44.5
24007	2023-07-17T20:18:46	24.2	45.5
24008	2023-07-17T20:28:45	23.7	44
24009	2023-07-17T20:38:45	23.3	45.5
24010	2023-07-17T20:48:45	22.9	47.5
24011	2023-07-17T20:58:45	22.4	50
24012	2023-07-17T21:08:46	22.1	48.5
24013	2023-07-17T21:18:45	21.8	51
24014	2023-07-17T21:28:45	21.4	53
24015	2023-07-17T21:38:45	21.1	55.5
24016	2023-07-17T21:48:45	20.8	55.5
24017	2023-07-17T21:58:45	20.6	56.5
24018	2023-07-17T22:08:45	20.3	57.5
24019	2023-07-17T22:18:45	19.9	59.5
24020	2023-07-17T22:28:45	19.6	60
24021	2023-07-17T22:38:45	19.4	61
24022	2023-07-17T22:48:45	19.2	60
24023	2023-07-17T22:58:45	19	60.5
24024	2023-07-17T23:08:45	18.8	61.5
24025	2023-07-17T23:18:45	18.5	63.5
24026	2023-07-17T23:28:45	18.4	63.5
24027	2023-07-17T23:38:45	18.2	64.5
24028	2023-07-17T23:48:45	18	66
24029	2023-07-17T23:58:45	17.7	66.5
24030	2023-07-18T00:08:45	17.6	67
24031	2023-07-18T00:18:45	17.4	67.5
24032	2023-07-18T00:28:45	17.4	68
24033	2023-07-18T00:38:45	17.3	68.5
24034	2023-07-18T00:48:45	17.3	68.5
24035	2023-07-18T00:58:45	17	69.5
24036	2023-07-18T01:08:45	16.6	70
24037	2023-07-18T01:18:45	16.4	69.5
24038	2023-07-18T01:28:45	16.3	68.5
24039	2023-07-18T01:38:45	16.1	69.5
24040	2023-07-18T01:48:45	16	70
24041	2023-07-18T01:58:45	15.7	70.5
24042	2023-07-18T02:08:45	15.6	71.5
24043	2023-07-18T02:18:45	15.3	72.5
24044	2023-07-18T02:28:45	15.2	72.5
24045	2023-07-18T02:38:45	15.2	73.5
24046	2023-07-18T02:48:45	15	74.5
24047	2023-07-18T02:58:45	14.8	74.5
24048	2023-07-18T03:08:45	14.6	75.5
24049	2023-07-18T03:18:45	14.6	76
24050	2023-07-18T03:28:45	14.5	76.5
24051	2023-07-18T03:38:45	14.3	76.5
24052	2023-07-18T03:48:45	14.2	77.5
24053	2023-07-18T03:58:45	14.2	77
24054	2023-07-18T04:08:45	14.1	76.5
24055	2023-07-18T04:18:45	14.3	77
24056	2023-07-18T04:28:45	14.6	74.5
24057	2023-07-18T04:38:45	15	73.5
24058	2023-07-18T04:48:45	15	72.5
24059	2023-07-18T04:58:45	14.9	73.5
24060	2023-07-18T05:08:45	15	73.5
24061	2023-07-18T05:18:45	15.3	73
24062	2023-07-18T05:28:45	15.4	72.5
24063	2023-07-18T05:38:45	15.6	72
24064	2023-07-18T05:48:45	15.9	71
24065	2023-07-18T05:58:45	15.9	71.5
24066	2023-07-18T06:08:45	16.4	69.5
24067	2023-07-18T06:18:45	16.8	67.5
24068	2023-07-18T06:28:45	17.4	65.5
24069	2023-07-18T06:38:45	17.6	64.5
24070	2023-07-18T06:48:45	18	63.5
24071	2023-07-18T06:58:45	18.4	61
24072	2023-07-18T07:08:45	18.6	60
24073	2023-07-18T07:18:45	18.9	60
24074	2023-07-18T07:28:45	19.2	61
24075	2023-07-18T07:38:45	19.4	59.5
24076	2023-07-18T07:48:45	19.6	59
24077	2023-07-18T07:58:45	19.8	59
24078	2023-07-18T08:08:45	20	56.5
24079	2023-07-18T08:18:44	20.5	56.5
24080	2023-07-18T08:28:45	20.9	56
24081	2023-07-18T08:38:44	21.3	54.5
24082	2023-07-18T08:48:44	21.4	55
24083	2023-07-18T08:58:45	21.5	53.5
24084	2023-07-18T09:08:44	22.1	51.5
24085	2023-07-18T09:18:44	22.3	52.5
24086	2023-07-18T09:28:44	23.2	49.5
24087	2023-07-18T09:38:44	24.2	46.5
24088	2023-07-18T09:48:44	24.9	44.5
24089	2023-07-18T09:58:44	24.6	45
24090	2023-07-18T10:08:44	25.1	45
24091	2023-07-18T10:18:44	25.5	43
24092	2023-07-18T10:28:44	26.1	42
24093	2023-07-18T10:38:44	26.4	40
24094	2023-07-18T10:48:44	25.7	42
24095	2023-07-18T10:58:44	25.5	42.5
24096	2023-07-18T11:08:44	25.4	42
24097	2023-07-18T11:18:44	25.6	42.5
24098	2023-07-18T11:28:44	26	44
24099	2023-07-18T11:38:44	26.8	41
24100	2023-07-18T11:48:44	27.8	41
24101	2023-07-18T11:58:44	28.1	40
24102	2023-07-18T12:08:44	28.5	39
24103	2023-07-18T12:18:44	29.8	37
24104	2023-07-18T12:28:44	32	33.5
24105	2023-07-18T12:38:44	33.3	31.5
24106	2023-07-18T12:48:44	35.7	27
24107	2023-07-18T13:08:44	37.3	25.5
24108	2023-07-18T13:18:44	38.4	24.5
24109	2023-07-18T13:28:44	40.6	22.5
24110	2023-07-18T13:38:44	39.8	21.5
24111	2023-07-18T13:48:44	40	22.5
24112	2023-07-18T13:58:44	39	23.5
24113	2023-07-18T14:08:44	37.8	25
24114	2023-07-18T14:18:44	39	24.5
24115	2023-07-18T14:28:44	39.7	23
24116	2023-07-18T14:38:44	39.7	23.5
24117	2023-07-18T14:48:44	41.5	21
24118	2023-07-18T14:58:44	44.1	18.5
24119	2023-07-18T15:08:44	44.4	19
24120	2023-07-18T15:18:44	40.2	22
24121	2023-07-18T15:28:44	38.7	24
24122	2023-07-18T15:38:44	38.9	25
24123	2023-07-18T15:48:44	38.6	24
24124	2023-07-18T15:58:44	38.2	24.5
24125	2023-07-18T16:08:44	40.8	23
24126	2023-07-18T16:18:44	40.9	22
24127	2023-07-18T16:28:44	38.1	25.5
24128	2023-07-18T16:38:44	33.8	31
24129	2023-07-18T16:48:44	31.9	34.5
24130	2023-07-18T16:58:44	31	36
24131	2023-07-18T17:08:44	31.2	36.5
24132	2023-07-18T17:18:44	30	39
24133	2023-07-18T17:28:44	32.9	41
24134	2023-07-18T17:38:44	30.7	47.5
24135	2023-07-18T17:48:44	29.6	47.5
24136	2023-07-18T17:58:44	28.3	50.5
24137	2023-07-18T18:08:44	28	54.5
24138	2023-07-18T18:18:44	27.8	55
24139	2023-07-18T18:28:44	26.7	56.5
24140	2023-07-18T18:38:44	25.7	58.5
24141	2023-07-18T18:48:43	25	72
24142	2023-07-18T18:58:43	24.4	64
24143	2023-07-18T19:08:43	24.1	65
24144	2023-07-18T19:18:43	23.9	67.5
24145	2023-07-18T19:28:43	24.1	69
24146	2023-07-18T19:38:43	24.3	69
24147	2023-07-18T19:48:43	24.4	68
24148	2023-07-18T19:58:43	23.9	68
24149	2023-07-18T20:08:43	23.7	69
24150	2023-07-18T20:18:43	23.6	69
24151	2023-07-18T20:28:43	23.5	68.5
24152	2023-07-18T20:38:43	23.2	70
24153	2023-07-18T20:48:43	23	71.5
24154	2023-07-18T20:58:43	22.6	72.5
24155	2023-07-18T21:08:43	22.5	74
24156	2023-07-18T21:18:43	22.2	73
24157	2023-07-18T21:38:43	22	68.5
24158	2023-07-18T21:48:43	21.7	68.5
24159	2023-07-18T21:58:43	21.6	70
24160	2023-07-18T22:08:43	21.2	72.5
24161	2023-07-18T22:18:43	21.2	73
24162	2023-07-18T22:28:43	21.1	74.5
24163	2023-07-18T22:38:43	20.9	72
24164	2023-07-18T22:48:43	20.8	70
24165	2023-07-18T22:58:43	20.4	71.5
24166	2023-07-18T23:08:43	20.1	72
24167	2023-07-18T23:18:43	20.2	71
24168	2023-07-18T23:28:43	20	71
24169	2023-07-18T23:38:43	20	72
24170	2023-07-18T23:48:43	19.9	74
24171	2023-07-18T23:58:43	19.6	74.5
24172	2023-07-19T00:08:43	19.6	75
24173	2023-07-19T00:18:43	19.8	75
24174	2023-07-19T00:28:43	19.9	73.5
24175	2023-07-19T00:38:43	19.6	74.5
24176	2023-07-19T00:48:43	19.3	76.5
24177	2023-07-19T00:58:43	19.2	76.5
24178	2023-07-19T01:08:43	19.4	75.5
24179	2023-07-19T01:18:43	19.3	76.5
24180	2023-07-19T01:28:43	19.1	76
24181	2023-07-19T01:38:43	19.1	77
24182	2023-07-19T01:48:43	18.7	78
24183	2023-07-19T01:58:43	18.6	77.5
24184	2023-07-19T02:08:43	18.3	78.5
24185	2023-07-19T02:18:43	18.1	79
24186	2023-07-19T02:28:43	17.9	80.5
24187	2023-07-19T02:38:43	17.9	80.5
24188	2023-07-19T02:48:43	17.8	81.5
24189	2023-07-19T02:58:43	17.6	81.5
24190	2023-07-19T03:08:43	17.5	82.5
24191	2023-07-19T03:18:43	17.4	83
24192	2023-07-19T03:28:43	17.4	83.5
24193	2023-07-19T03:48:43	17.2	84.5
24194	2023-07-19T03:58:43	17	84.5
24195	2023-07-19T04:08:43	17	85
24196	2023-07-19T04:18:43	17.1	85.5
24197	2023-07-19T04:28:43	17.1	85
24198	2023-07-19T04:38:43	17.2	85.5
24199	2023-07-19T04:48:43	17.1	86
24200	2023-07-19T04:58:43	17.4	85
24201	2023-07-19T05:08:43	17.6	83.5
24202	2023-07-19T05:18:43	18.6	81
24203	2023-07-19T05:28:43	19.2	79.5
24204	2023-07-19T05:38:43	19.5	78
24205	2023-07-19T05:48:42	19.8	77.5
24206	2023-07-19T05:58:42	20	76.5
24207	2023-07-19T06:08:43	20.3	75.5
24208	2023-07-19T06:18:42	20.6	73.5
24209	2023-07-19T06:28:42	20.9	72.5
24210	2023-07-19T06:38:42	21.4	70
24211	2023-07-19T06:48:42	21.8	68
24212	2023-07-19T06:58:42	22	67
24213	2023-07-19T07:08:42	22.2	66.5
24214	2023-07-19T07:18:42	22.5	64.5
24215	2023-07-19T07:28:42	22.8	64
24216	2023-07-19T07:38:43	22.9	63
24217	2023-07-19T07:48:42	23.2	62.5
24218	2023-07-19T07:58:42	23.3	59.5
24219	2023-07-19T08:08:42	23.8	56.5
24220	2023-07-19T08:18:42	23.9	55.5
24221	2023-07-19T08:28:42	24.1	55
24222	2023-07-19T08:38:43	24.4	51.5
24223	2023-07-19T08:48:42	24.6	52
24224	2023-07-19T08:58:42	24.8	49.5
24225	2023-07-19T09:08:43	24.9	48
24226	2023-07-19T09:18:42	25.3	47.5
24227	2023-07-19T09:28:43	25.5	44.5
24228	2023-07-19T09:38:42	25.9	44
24229	2023-07-19T09:48:42	26.1	43
24230	2023-07-19T09:58:42	26.4	41.5
24231	2023-07-19T10:08:42	26.6	42.5
24232	2023-07-19T10:18:42	27.2	41
24233	2023-07-19T10:28:42	27.2	40.5
24234	2023-07-19T10:38:42	28	39.5
24235	2023-07-19T10:48:42	28.4	39.5
24236	2023-07-19T10:58:42	28.9	38
24237	2023-07-19T11:08:42	29.4	36.5
24238	2023-07-19T11:18:42	30	37.5
24239	2023-07-19T11:28:42	29.5	37
24240	2023-07-19T11:38:42	29.8	38.5
24241	2023-07-19T11:48:42	29.7	39
24242	2023-07-19T11:58:42	30	38
24243	2023-07-19T12:08:42	30.5	37
24244	2023-07-19T12:18:42	31.9	36
24245	2023-07-19T12:28:42	32.1	33.5
24246	2023-07-19T12:38:42	32.4	32
24247	2023-07-19T12:48:42	33	31
24248	2023-07-19T12:58:42	34.3	29
24249	2023-07-19T13:08:42	34.2	27.5
24250	2023-07-19T13:18:42	35.1	26
24251	2023-07-19T13:28:42	34.9	27.5
24252	2023-07-19T13:38:42	36	27
24253	2023-07-19T13:48:42	35.4	29
24254	2023-07-19T13:58:42	36.9	26
24255	2023-07-19T14:08:42	34.7	27.5
24256	2023-07-19T14:18:42	36.2	25.5
24257	2023-07-19T14:28:42	35.6	25.5
24258	2023-07-19T14:38:42	36.6	25
24259	2023-07-19T14:48:42	35.6	26.5
24260	2023-07-19T14:58:42	36.6	25.5
24261	2023-07-19T15:08:42	36.7	25.5
24262	2023-07-19T15:18:42	36.9	25
24263	2023-07-19T15:28:42	37.4	24
24264	2023-07-19T15:38:42	35	26.5
24265	2023-07-19T15:48:42	35.9	25
24266	2023-07-19T15:58:41	34.6	26
24267	2023-07-19T16:08:41	34.4	26.5
24268	2023-07-19T16:18:41	37.3	24.5
24269	2023-07-19T16:28:41	36.9	23.5
24270	2023-07-19T16:38:41	36.7	23
24271	2023-07-19T16:48:41	35	24.5
24272	2023-07-19T16:58:41	32.6	27.5
24273	2023-07-19T17:08:41	33.8	26.5
24274	2023-07-19T17:18:41	34.8	25.5
24275	2023-07-19T17:28:41	32.5	28
24276	2023-07-19T17:38:41	30.2	31.5
24277	2023-07-19T17:48:41	28.9	33.5
24278	2023-07-19T17:58:41	28.2	35
24279	2023-07-19T18:08:41	27.7	36.5
24280	2023-07-19T18:18:41	28	36.5
24281	2023-07-19T18:28:41	28.8	34.5
24282	2023-07-19T18:38:41	28.2	35.5
24283	2023-07-19T18:48:41	27.4	37
24284	2023-07-19T18:58:41	26.5	38.5
24285	2023-07-19T19:08:41	26.1	39
24286	2023-07-19T19:18:41	25.7	39.5
24287	2023-07-19T19:28:41	25.3	41
24288	2023-07-19T19:38:41	25.1	42.5
24289	2023-07-19T19:48:41	24.8	42.5
24290	2023-07-19T19:58:41	24.7	42.5
24291	2023-07-19T20:08:41	24.5	42.5
24292	2023-07-19T20:18:41	24.1	43.5
24293	2023-07-19T20:28:41	24	43.5
24294	2023-07-19T20:38:41	23.8	44
24295	2023-07-19T20:48:41	23.7	44.5
24296	2023-07-19T20:58:41	23.6	45
24297	2023-07-19T21:08:41	23.4	46
24298	2023-07-19T21:18:41	23.2	46
24299	2023-07-19T21:28:41	23.2	46
24300	2023-07-19T21:38:41	22.9	46.5
24301	2023-07-19T21:48:41	22.7	47
24302	2023-07-19T21:58:41	22.6	46.5
24303	2023-07-19T22:08:41	22.2	45.5
24304	2023-07-19T22:18:41	22.1	46
24305	2023-07-19T22:28:41	22.1	45
24306	2023-07-19T22:38:41	21.9	44.5
24307	2023-07-19T22:48:41	21.8	46
24308	2023-07-19T22:58:41	21.5	46.5
24309	2023-07-19T23:08:41	21.3	47.5
24310	2023-07-19T23:18:41	21.1	48
24311	2023-07-19T23:28:41	20.9	49
24312	2023-07-19T23:38:41	20.6	50.5
24313	2023-07-19T23:48:41	20.3	52.5
24314	2023-07-19T23:58:41	20	53.5
24315	2023-07-20T00:08:41	19.6	55
24316	2023-07-20T00:28:41	19	57
24317	2023-07-20T00:38:41	18.8	58.5
24318	2023-07-20T00:48:41	18.6	59.5
24319	2023-07-20T00:58:41	18.3	60.5
24320	2023-07-20T01:08:41	18	61
24321	2023-07-20T01:18:41	18.1	60.5
24322	2023-07-20T01:28:41	17.7	61.5
24323	2023-07-20T01:38:41	17.5	62.5
24324	2023-07-20T01:48:41	17.3	64
24325	2023-07-20T01:58:41	17.2	65
24326	2023-07-20T02:08:41	16.9	66
24327	2023-07-20T02:18:40	17	66
24328	2023-07-20T02:28:40	17	67.5
24329	2023-07-20T02:38:40	16.5	68
24330	2023-07-20T02:48:40	16.5	68
24331	2023-07-20T02:58:40	16.2	70
24332	2023-07-20T03:08:40	16.1	71.5
24333	2023-07-20T03:18:40	16.1	72.5
24334	2023-07-20T03:28:40	16	73
24335	2023-07-20T03:38:40	15.9	75
24336	2023-07-20T03:48:40	15.7	74.5
24337	2023-07-20T03:58:40	15.7	73.5
24338	2023-07-20T04:08:40	15.6	75
24339	2023-07-20T04:18:40	15.6	74
24340	2023-07-20T04:28:40	15.4	74.5
24341	2023-07-20T04:38:40	15.5	75
24342	2023-07-20T04:48:40	15.5	75.5
24343	2023-07-20T04:58:40	15.5	77
24344	2023-07-20T05:08:40	15.6	76.5
24345	2023-07-20T05:18:40	15.8	75
24346	2023-07-20T05:28:40	16.1	76
24347	2023-07-20T05:38:40	16.7	73.5
24348	2023-07-20T05:48:40	17	73
24349	2023-07-20T05:58:40	17.3	72
24350	2023-07-20T06:08:40	17.9	66
24351	2023-07-20T06:18:40	18.5	65
24352	2023-07-20T06:28:40	19	63.5
24353	2023-07-20T06:38:40	19.3	62.5
24354	2023-07-20T06:48:40	19.5	61.5
24355	2023-07-20T06:58:40	19.7	61.5
24356	2023-07-20T07:08:40	20	60.5
24357	2023-07-20T07:18:40	20.2	60
24358	2023-07-20T07:28:40	20.3	60
24359	2023-07-20T07:38:40	20.6	59
24360	2023-07-20T07:48:40	20.7	59.5
24361	2023-07-20T07:58:40	21.3	57
24362	2023-07-20T08:08:40	21.5	55.5
24363	2023-07-20T08:18:40	21.6	54.5
24364	2023-07-20T08:28:40	21.3	56
24365	2023-07-20T08:38:40	21.3	56
24366	2023-07-20T08:48:40	21.6	54
24367	2023-07-20T08:58:40	21.9	52
24368	2023-07-20T09:08:40	21.8	53.5
24369	2023-07-20T09:18:40	21.7	52
24370	2023-07-20T09:28:40	22.4	50
24371	2023-07-20T09:38:40	22.4	47.5
24372	2023-07-20T09:48:40	23.1	47.5
24373	2023-07-20T09:58:40	23.1	47
24374	2023-07-20T10:08:40	23.2	46
24375	2023-07-20T10:18:40	22.8	45.5
24376	2023-07-20T10:28:40	23.3	41
24377	2023-07-20T10:38:40	23.8	42.5
24378	2023-07-20T10:48:40	24	43.5
24379	2023-07-20T10:58:40	24.3	41.5
24380	2023-07-20T11:08:40	24	42.5
24381	2023-07-20T11:18:40	24.3	40.5
24382	2023-07-20T11:28:40	24.3	39
24383	2023-07-20T11:38:40	24.5	33
24384	2023-07-20T11:48:40	24.5	35
24385	2023-07-20T12:08:40	25.7	32
24386	2023-07-20T12:18:40	29.1	25.5
24387	2023-07-20T12:28:40	30.3	25.5
24388	2023-07-20T12:38:40	31.9	22.5
24389	2023-07-20T12:48:40	33.3	20
24390	2023-07-20T12:58:40	33.5	20
24391	2023-07-20T13:08:39	31.7	21.5
24392	2023-07-20T13:18:40	35.3	17.5
24393	2023-07-20T13:28:39	35.4	18.5
24394	2023-07-20T13:38:39	37.5	16.5
24395	2023-07-20T13:48:39	37.8	16
24396	2023-07-20T13:58:39	37.9	15.5
24397	2023-07-20T14:08:39	37.7	16
24398	2023-07-20T14:18:39	38.9	16.5
24399	2023-07-20T14:28:39	40.8	14.5
24400	2023-07-20T14:38:40	37.8	15.5
24401	2023-07-20T14:48:39	37.4	16.5
24402	2023-07-20T14:58:39	37.4	16
24403	2023-07-20T15:08:39	39.9	15.5
24404	2023-07-20T15:18:39	40.2	14.5
24405	2023-07-20T15:28:39	41	14
24406	2023-07-20T15:38:39	38.3	15
24407	2023-07-20T15:48:39	36	18
24408	2023-07-20T15:58:39	36.1	17
24409	2023-07-20T16:08:39	34	19
24410	2023-07-20T16:18:39	35.7	18.5
24411	2023-07-20T16:38:39	35	18.5
24412	2023-07-20T16:48:39	33.3	20
24413	2023-07-20T16:58:39	33.5	20.5
24414	2023-07-20T17:08:39	32.9	20
24415	2023-07-20T17:18:39	32.7	20.5
24416	2023-07-20T17:28:39	31.3	21.5
24417	2023-07-20T17:38:39	31.4	23.5
24418	2023-07-20T17:48:39	30.6	23
24419	2023-07-20T17:58:39	29.1	25
24420	2023-07-20T18:08:39	28.3	26.5
24421	2023-07-20T18:18:39	27.8	27
24422	2023-07-20T18:28:39	27.5	27.5
24423	2023-07-20T18:38:39	27.5	32
24424	2023-07-20T18:48:39	27.1	34.5
24425	2023-07-20T18:58:39	26.6	34.5
24426	2023-07-20T19:08:39	26.1	37.5
24427	2023-07-20T19:18:39	25.4	38.5
24428	2023-07-20T19:28:39	25.1	38.5
24429	2023-07-20T19:38:39	24.5	40
24430	2023-07-20T19:48:39	24.2	40.5
24431	2023-07-20T19:58:39	23.9	40.5
24432	2023-07-20T20:08:39	23.6	41
24433	2023-07-20T20:18:39	23.5	41
24434	2023-07-20T20:38:39	22.8	45
24435	2023-07-20T20:48:39	22.6	45.5
24436	2023-07-20T20:58:39	22.2	46.5
24437	2023-07-20T21:08:39	21.8	47.5
24438	2023-07-20T21:18:39	21.7	48.5
24439	2023-07-20T21:28:39	21.5	49
24440	2023-07-20T21:38:39	21.3	51.5
24441	2023-07-20T21:48:39	20.9	51.5
24442	2023-07-20T21:58:39	20.7	53.5
24443	2023-07-20T22:08:39	20.6	51.5
24444	2023-07-20T22:18:39	20.4	52
24445	2023-07-20T22:28:39	20.1	52.5
24446	2023-07-20T22:38:39	20	55
24447	2023-07-20T22:48:39	19.9	56.5
24448	2023-07-20T22:58:39	19.6	56
24449	2023-07-20T23:08:39	19.2	58
24450	2023-07-20T23:18:39	19	59.5
24451	2023-07-20T23:28:38	18.7	61
24452	2023-07-20T23:38:38	18.3	62
24453	2023-07-20T23:48:38	18	61.5
24454	2023-07-20T23:58:38	17.8	61
24455	2023-07-21T00:08:38	17.7	60.5
24456	2023-07-21T00:18:39	17.5	62
24457	2023-07-21T00:28:38	17.3	63
24458	2023-07-21T00:38:38	17.2	62
24459	2023-07-21T00:48:38	17	63.5
24460	2023-07-21T01:08:38	16.7	64.5
24461	2023-07-21T01:18:38	16.4	65.5
24462	2023-07-21T01:28:38	16.3	66.5
24463	2023-07-21T01:38:38	16.1	66
24464	2023-07-21T01:48:38	16.1	64
24465	2023-07-21T01:58:38	16.3	64
24466	2023-07-21T02:08:38	16.3	66
24467	2023-07-21T02:18:38	16.1	67.5
24468	2023-07-21T02:28:38	16	69
24469	2023-07-21T02:38:38	15.8	69.5
24470	2023-07-21T02:48:38	15.9	68
24471	2023-07-21T02:58:39	16.1	69.5
24472	2023-07-21T03:08:38	16.1	70
24473	2023-07-21T03:18:38	15.9	70
24474	2023-07-21T03:28:38	15.7	70
24475	2023-07-21T03:38:38	15.7	71
24476	2023-07-21T03:48:38	15.8	71
24477	2023-07-21T03:58:38	15.9	70.5
24478	2023-07-21T04:08:38	15.9	71
24479	2023-07-21T04:18:38	16.1	70.5
24480	2023-07-21T04:28:38	16.2	71.5
24481	2023-07-21T04:38:38	16.4	70
24482	2023-07-21T04:48:38	16.5	71.5
24483	2023-07-21T04:58:38	16.6	70.5
24484	2023-07-21T05:08:38	16.8	71.5
24485	2023-07-21T05:18:38	17	69
24486	2023-07-21T05:28:38	17.3	68
24487	2023-07-21T05:38:39	17.4	67
24488	2023-07-21T05:48:38	17.7	65.5
24489	2023-07-21T05:58:38	17.9	64
24490	2023-07-21T06:08:38	18.3	61.5
24491	2023-07-21T06:18:38	18.4	60
24492	2023-07-21T06:28:38	18.5	59.5
24493	2023-07-21T06:38:38	18.6	58.5
24494	2023-07-21T06:48:38	19.1	57.5
24495	2023-07-21T06:58:38	19.3	56
24496	2023-07-21T07:08:38	19.6	53.5
24497	2023-07-21T07:18:38	19.9	53
24498	2023-07-21T07:28:38	20.4	51
24499	2023-07-21T07:38:38	21	49
24500	2023-07-21T07:48:38	21.2	49.5
24501	2023-07-21T07:58:38	21.5	49.5
24502	2023-07-21T08:08:38	21.5	47
24503	2023-07-21T08:18:38	22.2	46.5
24504	2023-07-21T08:28:38	22.3	44
24505	2023-07-21T08:38:38	22.7	43.5
24506	2023-07-21T08:48:38	23	41
24507	2023-07-21T08:58:38	23.2	40.5
24508	2023-07-21T09:08:38	22.9	42.5
24509	2023-07-21T09:18:38	23.7	40
24510	2023-07-21T09:28:38	24.3	38.5
24511	2023-07-21T09:38:38	24.6	39.5
24512	2023-07-21T09:48:38	24.1	39
24513	2023-07-21T09:58:38	24.5	39.5
24514	2023-07-21T10:08:38	24.9	39
24515	2023-07-21T10:18:38	25.3	39
24516	2023-07-21T10:28:37	25.9	38.5
24517	2023-07-21T10:38:37	25.8	37.5
24518	2023-07-21T10:48:38	25.3	37
24519	2023-07-21T10:58:37	25.4	39
24520	2023-07-21T11:08:37	25.1	39.5
24521	2023-07-21T11:18:37	25	41
24522	2023-07-21T11:28:37	25.2	38.5
24523	2023-07-21T11:38:37	25.9	37.5
24524	2023-07-21T11:48:37	25.4	38.5
24525	2023-07-21T11:58:37	24.3	41
24526	2023-07-21T12:08:37	23.7	42.5
24527	2023-07-21T12:18:37	22.3	46.5
24528	2023-07-21T12:28:37	21.9	49.5
24529	2023-07-21T12:38:37	19.6	88.5
24530	2023-07-21T12:48:37	18.7	82.5
24531	2023-07-21T12:58:37	18.1	88
24532	2023-07-21T13:08:37	17.8	92
24533	2023-07-21T13:18:37	17.5	93
24534	2023-07-21T13:28:38	17.7	92
24535	2023-07-21T13:38:37	17.7	91.5
24536	2023-07-21T13:48:37	17.6	94
24537	2023-07-21T13:58:37	19.4	94
24538	2023-07-21T14:08:37	20.9	83.5
24539	2023-07-21T14:18:37	23.4	73
24540	2023-07-21T14:28:37	23.9	55
24541	2023-07-21T14:38:37	24	53.5
24542	2023-07-21T14:48:37	24.8	51
24543	2023-07-21T14:58:37	24.9	51
24544	2023-07-21T15:08:37	28.8	40.5
24545	2023-07-21T15:18:37	25.5	48
24546	2023-07-21T15:28:37	24.6	50.5
24547	2023-07-21T15:38:37	23.1	52.5
24548	2023-07-21T15:48:37	22.8	56
24549	2023-07-21T15:58:37	22.8	54
24550	2023-07-21T16:08:37	24.5	50.5
24551	2023-07-21T16:18:37	23.6	53
24552	2023-07-21T16:28:37	24	51.5
24553	2023-07-21T16:38:37	28.3	42.5
24554	2023-07-21T16:48:37	28.2	42.5
24555	2023-07-21T16:58:37	24.1	50.5
24556	2023-07-21T17:08:37	27.1	43.5
24557	2023-07-21T17:18:37	26.5	43.5
24558	2023-07-21T17:28:37	26.3	46
24559	2023-07-21T17:38:37	26	46
24560	2023-07-21T17:48:37	26.3	45.5
24561	2023-07-21T17:58:37	24.9	47.5
24562	2023-07-21T18:08:37	24.2	49.5
24563	2023-07-21T18:18:37	22.1	56
24564	2023-07-21T18:28:37	22.5	53.5
24565	2023-07-21T18:38:37	22.6	53.5
24566	2023-07-21T18:48:37	21.9	55
24567	2023-07-21T18:58:37	21.4	55.5
24568	2023-07-21T19:08:37	20.5	58
24569	2023-07-21T19:18:37	20.2	59
24570	2023-07-21T19:28:37	19.8	60.5
24571	2023-07-21T19:38:37	19.4	61
24572	2023-07-21T19:48:37	19.3	61
24573	2023-07-21T19:58:37	19.2	61.5
24574	2023-07-21T20:08:37	19	61.5
24575	2023-07-21T20:18:37	18.9	61.5
24576	2023-07-21T20:28:36	18.8	61.5
24577	2023-07-21T20:38:37	18.8	61.5
24578	2023-07-21T20:48:36	18.6	62.5
24579	2023-07-21T20:58:36	18.4	63.5
24580	2023-07-21T21:08:36	18.2	64.5
24581	2023-07-21T21:18:36	18.1	64
24582	2023-07-21T21:28:36	17.7	65
24583	2023-07-21T21:38:36	17.6	66
24584	2023-07-21T21:48:36	17.5	66
24585	2023-07-21T21:58:36	17.2	66
24586	2023-07-21T22:08:36	17.3	66
24587	2023-07-21T22:18:36	17.2	67.5
24588	2023-07-21T22:28:36	17	68.5
24589	2023-07-21T22:38:36	17.1	67
24590	2023-07-21T22:48:36	17	69.5
24591	2023-07-21T22:58:36	16.9	71
24592	2023-07-21T23:08:36	16.6	73
24593	2023-07-21T23:18:36	16.1	74.5
24594	2023-07-21T23:28:36	15.9	76.5
24595	2023-07-21T23:38:36	15.9	77
24596	2023-07-21T23:48:36	16.2	76
24597	2023-07-21T23:58:36	16.1	76.5
24598	2023-07-22T00:08:36	15.9	76.5
24599	2023-07-22T00:18:36	15.8	77.5
24600	2023-07-22T00:28:36	15.2	78.5
24601	2023-07-22T00:38:37	15.2	79.5
24602	2023-07-22T00:48:36	15.3	79
24603	2023-07-22T00:58:36	14.9	80
24604	2023-07-22T01:08:36	14.7	81
24605	2023-07-22T01:18:36	14.6	82.5
24606	2023-07-22T01:28:36	14.3	83.5
24607	2023-07-22T01:38:36	14.2	84
24608	2023-07-22T01:48:36	13.9	84
24609	2023-07-22T01:58:36	13.8	84.5
24610	2023-07-22T02:08:36	13.6	85.5
24611	2023-07-22T02:18:37	13.6	85.5
24612	2023-07-22T02:28:36	13.4	86
24613	2023-07-22T02:38:36	13.3	85.5
24614	2023-07-22T02:48:36	13.2	86.5
24615	2023-07-22T02:58:36	13	86.5
24616	2023-07-22T03:08:36	12.9	87
24617	2023-07-22T03:18:36	12.8	87
24618	2023-07-22T03:28:36	12.7	87.5
24619	2023-07-22T03:38:36	12.6	88
24620	2023-07-22T03:48:36	12.4	88
24621	2023-07-22T03:58:36	12.5	87.5
24622	2023-07-22T04:08:36	12.5	88
24623	2023-07-22T04:18:36	12.4	88.5
24624	2023-07-22T04:28:36	12.5	88
24625	2023-07-22T04:38:36	12.6	88
24626	2023-07-22T04:48:36	12.7	88
24627	2023-07-22T04:58:36	12.9	88
24628	2023-07-22T05:18:36	13.2	88.5
24629	2023-07-22T05:28:36	13.6	88.5
24630	2023-07-22T05:38:36	14	86
24631	2023-07-22T05:48:36	14.6	84
24632	2023-07-22T05:58:36	15.4	82.5
24633	2023-07-22T06:08:36	15.7	80
24634	2023-07-22T06:18:36	16	79
24635	2023-07-22T06:28:36	16.4	79.5
24636	2023-07-22T06:38:36	16.6	77.5
24637	2023-07-22T06:48:36	17	76
24638	2023-07-22T06:58:36	17.2	75
24639	2023-07-22T07:08:36	17.5	74.5
24640	2023-07-22T07:18:36	17.6	74
24641	2023-07-22T07:38:36	19.3	66
24642	2023-07-22T07:48:36	19.6	63.5
24643	2023-07-22T07:58:36	19.7	63.5
24644	2023-07-22T08:08:36	19.7	64
24645	2023-07-22T08:18:36	20	64.5
24646	2023-07-22T08:28:36	20.4	61.5
24647	2023-07-22T08:38:36	20.3	59
24648	2023-07-22T08:48:36	20.3	60
24649	2023-07-22T08:58:35	21.3	54.5
24650	2023-07-22T09:08:35	21.7	52.5
24651	2023-07-22T09:18:36	22.1	52
24652	2023-07-22T09:28:35	22	53
24653	2023-07-22T09:38:35	21.9	53
24654	2023-07-22T09:48:35	22.4	51.5
24655	2023-07-22T09:58:35	22.8	52
24656	2023-07-22T10:08:35	22.8	51
24657	2023-07-22T10:18:35	22.9	49
24658	2023-07-22T10:28:35	22.9	45.5
24659	2023-07-22T10:38:35	23.3	46
24660	2023-07-22T10:48:35	24	45
24661	2023-07-22T10:58:35	24	44.5
24662	2023-07-22T11:08:35	24.2	44
24663	2023-07-22T11:18:35	24.2	44.5
24664	2023-07-22T11:28:35	24.2	43.5
24665	2023-07-22T11:38:35	25	41
24666	2023-07-22T11:48:35	25.5	40
24667	2023-07-22T11:58:35	25.7	38.5
24668	2023-07-22T12:08:35	26.4	38
24669	2023-07-22T12:18:35	29.3	31.5
24670	2023-07-22T12:28:35	27.9	32.5
24671	2023-07-22T12:38:35	30.5	29
24672	2023-07-22T12:48:35	32.1	25
24673	2023-07-22T12:58:35	33.1	24
24674	2023-07-22T13:08:35	33.7	23
24675	2023-07-22T13:18:35	33	24
24676	2023-07-22T13:28:35	33.3	24
24677	2023-07-22T13:38:35	33.9	23
24678	2023-07-22T13:58:35	33.1	23.5
24679	2023-07-22T14:08:35	33.8	22.5
24680	2023-07-22T14:18:35	33.4	23
24681	2023-07-22T14:28:35	30.9	25.5
24682	2023-07-22T14:38:35	32.5	25
24683	2023-07-22T14:48:35	31	26
24684	2023-07-22T14:58:35	33.6	22.5
24685	2023-07-22T15:08:35	30.5	26
24686	2023-07-22T15:18:35	34.2	22.5
24687	2023-07-22T15:28:35	34.3	21
24688	2023-07-22T15:38:35	34.5	21
24689	2023-07-22T15:48:35	36	20.5
24690	2023-07-22T15:58:35	36.4	19.5
24691	2023-07-22T16:08:35	35.7	20.5
24692	2023-07-22T16:18:35	35.7	21
24693	2023-07-22T16:28:35	35.7	20
24694	2023-07-22T16:38:35	34.8	22
24695	2023-07-22T16:48:35	34	22.5
24696	2023-07-22T16:58:35	34.3	22.5
24697	2023-07-22T17:18:35	33.6	23.5
24698	2023-07-22T17:28:35	32.8	24
24699	2023-07-22T17:38:35	32.4	24.5
24700	2023-07-22T18:38:35	27.6	31.5
24701	2023-07-22T18:48:34	27.5	34.5
24702	2023-07-22T18:58:34	26.8	38.5
24703	2023-07-22T19:08:34	26.7	39.5
24704	2023-07-22T19:18:34	26.1	40.5
24705	2023-07-22T19:28:34	26.1	40
24706	2023-07-22T19:38:34	25.5	42
24707	2023-07-22T19:48:34	25	41
24708	2023-07-22T19:58:35	24.4	42
24709	2023-07-22T20:08:34	23.9	45
24710	2023-07-22T20:18:34	23.5	46
24711	2023-07-22T20:28:34	23	47.5
24712	2023-07-22T20:48:34	22.4	49
24713	2023-07-22T21:08:34	21.9	51.5
24714	2023-07-22T21:18:34	22.1	51.5
24715	2023-07-22T21:28:34	21.7	51
24716	2023-07-22T21:38:34	21.7	52.5
24717	2023-07-22T21:48:34	21.7	52.5
24718	2023-07-22T21:58:34	21.3	54
24719	2023-07-22T22:08:34	20.9	54
24720	2023-07-22T22:18:34	20.6	54.5
24721	2023-07-22T22:28:34	20.1	56
24722	2023-07-22T22:38:34	19.8	55.5
24723	2023-07-22T22:48:34	19.6	57
24724	2023-07-22T22:58:34	19.4	57.5
24725	2023-07-22T23:08:34	19.2	59
24726	2023-07-22T23:18:34	19	59.5
24727	2023-07-22T23:28:34	18.9	60.5
24728	2023-07-22T23:38:34	18.8	62
24729	2023-07-22T23:48:34	18.5	63
24730	2023-07-22T23:58:34	18.4	64
24731	2023-07-23T00:08:34	18.1	65.5
24732	2023-07-23T00:18:34	17.9	66
24733	2023-07-23T00:28:34	17.9	67
24734	2023-07-23T00:38:34	17.8	65.5
24735	2023-07-23T00:48:34	18.1	64.5
24736	2023-07-23T00:58:34	18.3	63.5
24737	2023-07-23T01:08:34	18.6	63
24738	2023-07-23T01:18:34	18.4	63.5
24739	2023-07-23T01:28:34	18.3	63.5
24740	2023-07-23T01:38:34	18.3	63.5
24741	2023-07-23T01:58:34	17.5	68.5
24742	2023-07-23T02:08:34	17	69
24743	2023-07-23T02:18:34	16.8	70.5
24744	2023-07-23T02:28:34	16.7	71.5
24745	2023-07-23T02:38:34	16.3	72
24746	2023-07-23T02:48:34	16.3	72.5
24747	2023-07-23T03:18:34	15.7	74.5
24748	2023-07-23T03:28:34	15.6	75.5
24749	2023-07-23T03:38:34	15.4	76.5
24750	2023-07-23T03:48:34	15.3	77
24751	2023-07-23T03:58:34	15.2	77
24752	2023-07-23T04:08:34	15.1	77.5
24753	2023-07-23T04:18:34	15.2	77
24754	2023-07-23T04:28:34	15.4	75
24755	2023-07-23T04:38:34	16	73
24756	2023-07-23T04:48:34	16.3	72.5
24757	2023-07-23T04:58:34	17	69
24758	2023-07-23T05:08:34	17.6	68
24759	2023-07-23T05:28:34	18.1	68
24760	2023-07-23T05:38:34	18.3	66.5
24761	2023-07-23T05:48:33	18.3	66.5
24762	2023-07-23T05:58:34	18.4	66.5
24763	2023-07-23T06:08:33	18.6	66
24764	2023-07-23T06:18:33	18.8	64.5
24765	2023-07-23T06:28:34	18.7	64
24766	2023-07-23T06:38:33	19.3	63
24767	2023-07-23T06:48:33	19.7	60
24768	2023-07-23T06:58:33	20	59.5
24769	2023-07-23T07:08:34	19.9	59
24770	2023-07-23T07:18:33	19.9	59
24771	2023-07-23T07:28:33	20.2	57.5
24772	2023-07-23T07:38:33	20.6	56.5
24773	2023-07-23T07:48:33	20.7	56
24774	2023-07-23T07:58:33	21.2	54
24775	2023-07-23T08:08:33	21.7	52.5
24776	2023-07-23T08:18:33	22.3	51.5
24777	2023-07-23T08:28:34	22.9	48.5
24778	2023-07-23T08:38:33	23.1	48
24779	2023-07-23T08:48:33	23.2	49
24780	2023-07-23T08:58:33	23.7	48
24781	2023-07-23T09:08:33	23.9	47
24782	2023-07-23T09:18:33	23.9	46.5
24783	2023-07-23T09:28:33	24.1	46
24784	2023-07-23T09:38:33	24.1	47
24785	2023-07-23T09:48:33	24.5	45.5
24786	2023-07-23T09:58:33	24.8	45.5
24787	2023-07-23T10:08:33	25.1	45
24788	2023-07-23T10:18:33	25	46
24789	2023-07-23T10:28:33	25.5	44.5
24790	2023-07-23T10:38:33	26	44
24791	2023-07-23T10:48:33	26.4	43
24792	2023-07-23T10:58:33	27	41.5
24793	2023-07-23T11:08:33	27	41.5
24794	2023-07-23T11:18:33	26.8	42
24795	2023-07-23T11:28:33	27.6	41
24796	2023-07-23T11:38:33	27.8	40
24797	2023-07-23T11:48:33	27.7	38
24798	2023-07-23T11:58:33	28.1	38.5
24799	2023-07-23T12:08:33	28.3	38
24800	2023-07-23T12:18:33	28.9	36.5
24801	2023-07-23T12:28:33	29.6	35
24802	2023-07-23T12:38:33	31.3	32
24803	2023-07-23T12:48:33	30.9	32
24804	2023-07-23T12:58:33	31.3	32.5
24805	2023-07-23T13:08:33	31	33
24806	2023-07-23T13:18:33	30.4	33.5
24807	2023-07-23T13:28:33	31	32
24808	2023-07-23T13:38:33	31.8	30.5
24809	2023-07-23T13:48:33	30.2	32.5
24810	2023-07-23T13:58:33	29.7	33.5
24811	2023-07-23T14:08:33	29.6	33.5
24812	2023-07-23T14:18:33	31.4	31
24813	2023-07-23T14:28:33	30.7	32.5
24814	2023-07-23T14:38:33	31.3	31.5
24815	2023-07-23T14:48:33	31.2	32
24816	2023-07-23T14:58:33	30.4	34.5
24817	2023-07-23T15:08:33	32.1	30.5
24818	2023-07-23T15:18:33	31.9	30.5
24819	2023-07-23T15:28:33	31	32
24820	2023-07-23T15:38:32	31.9	30
24821	2023-07-23T15:48:33	31.6	30.5
24822	2023-07-23T15:58:32	30.5	32
24823	2023-07-23T16:08:32	31.1	31.5
24824	2023-07-23T16:18:32	32.5	29.5
24825	2023-07-23T16:28:32	32.3	30.5
24826	2023-07-23T16:38:32	30.5	32.5
24827	2023-07-23T16:48:32	31.1	31.5
24828	2023-07-23T16:58:32	29.7	34
24829	2023-07-23T17:08:32	29.6	35.5
24830	2023-07-23T17:18:32	28.9	36.5
24831	2023-07-23T17:28:32	28.4	37
24832	2023-07-23T17:38:32	28.8	37
24833	2023-07-23T17:48:32	30.7	33
24834	2023-07-23T17:58:32	30.7	33
24835	2023-07-23T18:08:32	29.2	35.5
24836	2023-07-23T18:18:32	28.7	36
24837	2023-07-23T18:28:32	27.9	37
24838	2023-07-23T18:38:32	27.3	37
24839	2023-07-23T18:48:32	26.7	38
24840	2023-07-23T18:58:32	26.5	39
24841	2023-07-23T19:08:32	26.1	43
24842	2023-07-23T19:18:32	25.8	43
24843	2023-07-23T19:28:32	25.3	46
24844	2023-07-23T19:38:32	25.1	45.5
24845	2023-07-23T19:48:32	24.8	46
24846	2023-07-23T19:58:32	24.6	46
24847	2023-07-23T20:08:32	24.5	46.5
24848	2023-07-23T20:18:32	24.4	47.5
24849	2023-07-23T20:28:32	24.3	47.5
24850	2023-07-23T20:38:32	24.2	47.5
24851	2023-07-23T20:48:32	24.3	53
24852	2023-07-23T20:58:32	23.1	90.5
24853	2023-07-23T21:08:32	22.3	85
24854	2023-07-23T21:18:32	22.3	68
24855	2023-07-23T21:28:32	22.4	71.5
24856	2023-07-23T21:38:32	22.1	71
24857	2023-07-23T21:48:32	22	71.5
24858	2023-07-23T21:58:32	21.7	73
24859	2023-07-23T22:08:32	21.6	73.5
24860	2023-07-23T22:18:32	21.6	77.5
24861	2023-07-23T22:28:32	20.9	75
24862	2023-07-23T22:38:32	20.7	73
24863	2023-07-23T22:48:32	20.3	89.5
24864	2023-07-23T22:58:32	20	93.5
24865	2023-07-23T23:08:32	19.6	94
24866	2023-07-23T23:18:32	19.5	94
24867	2023-07-23T23:28:32	19.6	94
24868	2023-07-23T23:38:32	19.2	92.5
24869	2023-07-23T23:48:32	19.3	92.5
24870	2023-07-23T23:58:32	19.2	91
24871	2023-07-24T00:08:32	19.4	91.5
24872	2023-07-24T00:18:32	19.3	90.5
24873	2023-07-24T00:28:32	19.6	89
24874	2023-07-24T00:38:32	19.4	89.5
24875	2023-07-24T00:48:32	19.2	88.5
24876	2023-07-24T00:58:32	19	89
24877	2023-07-24T01:08:32	18.9	89
24878	2023-07-24T01:18:32	18.8	89
24879	2023-07-24T01:28:32	18.5	89.5
24880	2023-07-24T01:38:32	18.5	89.5
24881	2023-07-24T01:48:32	18.3	89
24882	2023-07-24T01:58:32	18.2	90
24883	2023-07-24T02:08:32	18	91
24884	2023-07-24T02:18:31	17.9	90.5
24885	2023-07-24T02:28:31	18.2	90
24886	2023-07-24T02:38:32	18.5	89.5
24887	2023-07-24T02:48:31	18.4	88.5
24888	2023-07-24T02:58:31	18.4	88.5
24889	2023-07-24T03:08:31	18.2	88.5
24890	2023-07-24T03:18:32	18.4	88
24891	2023-07-24T03:28:31	18.5	88
24892	2023-07-24T03:38:31	18.6	87.5
24893	2023-07-24T03:48:31	18.5	88
24894	2023-07-24T03:58:31	18.6	88
24895	2023-07-24T04:08:32	18.5	88
24896	2023-07-24T04:18:31	18.5	88.5
24897	2023-07-24T04:28:31	18.2	89.5
24898	2023-07-24T04:38:31	18.6	89.5
24899	2023-07-24T04:48:31	18.5	89.5
24900	2023-07-24T04:58:31	18.4	89.5
24901	2023-07-24T05:08:31	18.5	89.5
24902	2023-07-24T05:18:31	18.6	90
24903	2023-07-24T05:28:31	18.7	89.5
24904	2023-07-24T05:38:31	18.7	89
24905	2023-07-24T05:48:31	18.9	89
24906	2023-07-24T05:58:31	19.1	88
24907	2023-07-24T06:08:31	19.2	84.5
24908	2023-07-24T06:18:31	19.4	86
24909	2023-07-24T06:28:31	19.5	86.5
24910	2023-07-24T06:38:31	19.7	86.5
24911	2023-07-24T06:48:32	19.9	85
24912	2023-07-24T06:58:31	20.3	84.5
24913	2023-07-24T07:08:31	19.7	94.5
24914	2023-07-24T07:18:31	19	97
24915	2023-07-24T07:28:31	18.9	97.5
24916	2023-07-24T07:38:31	18.7	97.5
24917	2023-07-24T07:48:31	19	98
24918	2023-07-24T07:58:31	19.2	98
24919	2023-07-24T08:08:31	19.6	97.5
24920	2023-07-24T08:18:31	20.1	97
24921	2023-07-24T08:28:31	20	96.5
24922	2023-07-24T08:38:31	20.2	96.5
24923	2023-07-24T08:48:31	20.6	96.5
24924	2023-07-24T08:58:31	20.7	96
24925	2023-07-24T09:08:31	21.5	95.5
24926	2023-07-24T09:18:31	21.4	95.5
24927	2023-07-24T09:28:31	21.8	95.5
24928	2023-07-24T09:38:31	21.1	95.5
24929	2023-07-24T09:48:31	20.7	95.5
24930	2023-07-24T09:58:31	20.5	95.5
24931	2023-07-24T10:08:31	20.3	96.5
24932	2023-07-24T10:18:31	20.1	97.5
24933	2023-07-24T10:28:31	19.9	97.5
24934	2023-07-24T10:38:31	19.7	98
24935	2023-07-24T10:48:31	19.5	98
24936	2023-07-24T10:58:31	19.4	98
24937	2023-07-24T11:08:31	19.5	98
24938	2023-07-24T11:18:31	19.9	98.5
24939	2023-07-24T11:28:31	20.7	98
24940	2023-07-24T11:38:31	20.9	98
24941	2023-07-24T11:48:31	20.9	97.5
24942	2023-07-24T11:58:31	21.6	98
24943	2023-07-24T12:08:31	21.8	97
24944	2023-07-24T12:18:31	21.9	97
24945	2023-07-24T12:28:31	23	98
24946	2023-07-24T12:38:31	23.5	95
24947	2023-07-24T12:48:30	25.4	92.5
24948	2023-07-24T12:58:30	24.8	89.5
24949	2023-07-24T13:08:30	27.3	90.5
24950	2023-07-24T13:18:30	28.1	84
24951	2023-07-24T13:28:30	29.6	46
24952	2023-07-24T13:38:30	30.4	43.5
24953	2023-07-24T13:48:30	30.9	40.5
24954	2023-07-24T13:58:30	31.5	38.5
24955	2023-07-24T14:08:30	31.7	38
24956	2023-07-24T14:18:30	31.6	39.5
24957	2023-07-24T14:28:30	32.1	40
24958	2023-07-24T14:38:30	32.3	38.5
24959	2023-07-24T14:48:30	28	48
24960	2023-07-24T14:58:30	26.2	53
24961	2023-07-24T15:08:30	25.4	56
24962	2023-07-24T15:18:30	22.7	75.5
24963	2023-07-24T15:28:30	20.7	93.5
24964	2023-07-24T15:38:30	20.4	95
24965	2023-07-24T15:48:30	20.7	96.5
24966	2023-07-24T15:58:30	20.5	96.5
24967	2023-07-24T16:08:30	20.5	97
24968	2023-07-24T16:18:30	20.5	97.5
24969	2023-07-24T16:28:30	23.7	96
24970	2023-07-24T16:38:30	24.6	95
24971	2023-07-24T16:48:30	25	94.5
24972	2023-07-24T16:58:30	25.2	95
24973	2023-07-24T17:08:30	25.6	95.5
24974	2023-07-24T17:18:30	25.1	95
24975	2023-07-24T17:28:30	23.7	95.5
24976	2023-07-24T17:38:30	24.4	95.5
24977	2023-07-24T17:48:30	24.3	95.5
24978	2023-07-24T17:58:30	23.8	95.5
24979	2023-07-24T18:08:30	24.8	95.5
24980	2023-07-24T18:18:30	24.7	95.5
24981	2023-07-24T18:28:30	24.3	95.5
24982	2023-07-24T18:38:30	23.6	95.5
24983	2023-07-24T18:48:30	21.7	96
24984	2023-07-24T18:58:30	20.9	96
24985	2023-07-24T19:08:30	20.5	96
24986	2023-07-24T19:18:30	20.2	96
24987	2023-07-24T19:28:30	20	96
24988	2023-07-24T19:38:30	19.7	96.5
24989	2023-07-24T19:48:30	19.3	97.5
24990	2023-07-24T19:58:30	19	97.5
24991	2023-07-24T20:08:30	18.9	97
24992	2023-07-24T20:18:30	18.8	97
24993	2023-07-24T20:28:30	18.7	97.5
24994	2023-07-24T20:38:30	18.5	97.5
24995	2023-07-24T20:48:30	18	97.5
24996	2023-07-24T20:58:30	17.8	98
24997	2023-07-24T21:08:30	17.8	98
24998	2023-07-24T21:18:30	17.9	98
24999	2023-07-24T21:28:30	17.7	98
25000	2023-07-24T21:38:30	17.4	98
25001	2023-07-24T21:48:30	17.3	98
25002	2023-07-24T21:58:30	17.3	98.5
25003	2023-07-24T22:08:30	17.7	98.5
25004	2023-07-24T22:18:30	17.7	98.5
25005	2023-07-24T22:28:30	17.8	98.5
25006	2023-07-24T22:38:30	17.9	98.5
25007	2023-07-24T22:48:30	17.8	98
25008	2023-07-24T22:58:30	17.8	97
25009	2023-07-24T23:08:29	17.8	95
25010	2023-07-24T23:18:30	17.9	93.5
25011	2023-07-24T23:28:29	17.8	93.5
25012	2023-07-24T23:38:29	17.7	92
25013	2023-07-24T23:48:29	17.6	91.5
25014	2023-07-24T23:58:29	17.6	92
25015	2023-07-25T00:08:29	17.4	93
25016	2023-07-25T00:18:29	17	93.5
25017	2023-07-25T00:28:29	16.8	94
25018	2023-07-25T00:38:29	16.5	95.5
25019	2023-07-25T00:48:29	16.3	95.5
25020	2023-07-25T00:58:29	16.2	96
25021	2023-07-25T01:08:29	16.2	96
25022	2023-07-25T01:18:29	16.3	96
25023	2023-07-25T01:28:29	16.5	95.5
25024	2023-07-25T01:38:29	16.7	94.5
25025	2023-07-25T01:48:29	16.6	95
25026	2023-07-25T01:58:29	16.4	98.5
25027	2023-07-25T02:08:29	16.5	99
25028	2023-07-25T02:18:29	16.4	99
25029	2023-07-25T02:28:29	16.5	99
25030	2023-07-25T02:38:29	16.2	99.5
25031	2023-07-25T02:48:29	16.2	99.5
25032	2023-07-25T02:58:29	16.3	99.5
25033	2023-07-25T03:08:29	16	99.5
25034	2023-07-25T03:18:29	16	99.5
25035	2023-07-25T03:28:29	15.9	99.5
25036	2023-07-25T03:38:29	15.9	99.5
25037	2023-07-25T03:48:29	15.9	99.5
25038	2023-07-25T03:58:29	15.8	99.5
25039	2023-07-25T04:08:29	15.9	100
25040	2023-07-25T04:18:29	15.9	100
25041	2023-07-25T04:28:29	15.7	100
25042	2023-07-25T04:38:29	15.7	100
25043	2023-07-25T04:48:29	15.8	100
25044	2023-07-25T04:58:29	15.8	100
25045	2023-07-25T05:08:29	15.9	100
25046	2023-07-25T05:18:29	15.9	100
25047	2023-07-25T05:28:29	15.9	100
25048	2023-07-25T05:38:29	16.1	100
25049	2023-07-25T05:48:29	16.1	100
25050	2023-07-25T05:58:29	15.9	100
25051	2023-07-25T06:08:29	16.2	100
25052	2023-07-25T06:18:29	16.3	100
25053	2023-07-25T06:28:29	16.5	100
25054	2023-07-25T06:38:29	16.7	99.5
25055	2023-07-25T06:48:29	16.7	99.5
25056	2023-07-25T06:58:29	16.5	99
25057	2023-07-25T07:08:29	16.7	99
25058	2023-07-25T07:18:29	17.1	99
25059	2023-07-25T07:28:29	17.5	98.5
25060	2023-07-25T07:38:29	17.6	98.5
25061	2023-07-25T07:48:29	18	98.5
25062	2023-07-25T07:58:29	18.2	98.5
25063	2023-07-25T08:08:29	18	98.5
25064	2023-07-25T08:18:29	18.3	99
25065	2023-07-25T08:28:29	18.6	99
25066	2023-07-25T08:38:29	18.9	99.5
25067	2023-07-25T08:48:29	19.2	98
25068	2023-07-25T08:58:29	19.7	98
25069	2023-07-25T09:08:29	20.1	98
25070	2023-07-25T09:18:29	20.4	97
25071	2023-07-25T09:28:29	19.8	95
25072	2023-07-25T09:38:29	17.5	98
25073	2023-07-25T09:48:29	17.2	99
25074	2023-07-25T09:58:29	17.2	99.5
25075	2023-07-25T10:08:29	16.9	99.5
25076	2023-07-25T10:18:29	16.6	100
25077	2023-07-25T10:28:29	17.2	100
25078	2023-07-25T10:38:29	17.6	100
25079	2023-07-25T10:48:29	17.1	100
25080	2023-07-25T10:58:29	16.1	99.5
25081	2023-07-25T11:08:29	16.1	99.5
25082	2023-07-25T11:18:28	15.9	100
25083	2023-07-25T11:28:28	16	100
25084	2023-07-25T11:38:28	16.5	100
25085	2023-07-25T11:48:28	17	99.5
25086	2023-07-25T11:58:28	16.4	99.5
25087	2023-07-25T12:08:28	17	99.5
25088	2023-07-25T12:18:28	18.5	99
25089	2023-07-25T12:28:28	18.2	98.5
25090	2023-07-25T12:38:28	19.3	98
25091	2023-07-25T12:48:28	19.3	98
25092	2023-07-25T12:58:28	19.6	97.5
25093	2023-07-25T13:08:28	20.2	97.5
25094	2023-07-25T13:18:28	20.1	97
25095	2023-07-25T13:28:28	20.9	97
25096	2023-07-25T13:38:28	21.2	97
25097	2023-07-25T13:48:28	24.5	97
25098	2023-07-25T13:58:28	21.9	97
25099	2023-07-25T14:08:28	21.1	97
25100	2023-07-25T14:18:28	21.3	97
25101	2023-07-25T14:28:28	21.1	97
25102	2023-07-25T14:38:28	21.1	97
25103	2023-07-25T14:48:28	19.2	97.5
25104	2023-07-25T14:58:28	18.2	97.5
25105	2023-07-25T15:08:28	17.5	97.5
25106	2023-07-25T15:18:28	17.2	98
25107	2023-07-25T15:28:28	17	99.5
25108	2023-07-25T15:38:28	15.7	99
25109	2023-07-25T15:48:28	15.6	99
25110	2023-07-25T15:58:28	14.9	99
25111	2023-07-25T16:08:28	14.7	99
25112	2023-07-25T16:18:28	15	100
25113	2023-07-25T16:28:28	14.6	100
25114	2023-07-25T16:38:28	14.4	100
25115	2023-07-25T16:48:28	14.2	99.5
25116	2023-07-25T16:58:28	14.2	100
25117	2023-07-25T17:08:28	14	100
25118	2023-07-25T17:18:28	14.1	100
25119	2023-07-25T17:28:28	14.1	100
25120	2023-07-25T17:38:28	14.3	100
25121	2023-07-25T17:48:28	14.3	100
25122	2023-07-25T17:58:28	14.3	100
25123	2023-07-25T18:08:28	14.2	100
25124	2023-07-25T18:18:28	14.2	100
25125	2023-07-25T18:28:28	14.3	100
25126	2023-07-25T18:38:28	14.2	100
25127	2023-07-25T18:48:28	14.2	100
25128	2023-07-25T18:58:28	14.1	100
25129	2023-07-25T19:08:28	14.1	100
25130	2023-07-25T19:18:28	14	100
25131	2023-07-25T19:28:28	14	100
25132	2023-07-25T19:38:28	14.1	100
25133	2023-07-25T19:48:28	13.9	100
25134	2023-07-25T19:58:28	14	100
25135	2023-07-25T20:08:28	14	100
25136	2023-07-25T20:18:28	14	100
25137	2023-07-25T20:28:28	13.9	100
25138	2023-07-25T20:38:28	14	100
25139	2023-07-25T20:48:28	14	100
25140	2023-07-25T20:58:28	14	100
25141	2023-07-25T21:08:28	14	100
25142	2023-07-25T21:18:28	14	100
25143	2023-07-25T21:28:28	14	100
25144	2023-07-25T21:38:28	13.9	100
25145	2023-07-25T21:48:28	13.9	100
25146	2023-07-25T21:58:28	14	100
25147	2023-07-25T22:08:28	13.9	100
25148	2023-07-25T22:18:28	14	100
25149	2023-07-25T22:28:28	14	100
25150	2023-07-25T22:38:28	14.1	100
25151	2023-07-25T22:48:27	14	100
25152	2023-07-25T22:58:27	14.2	100
25153	2023-07-25T23:08:27	14.1	100
25154	2023-07-25T23:18:27	14	100
25155	2023-07-25T23:28:27	14	100
25156	2023-07-25T23:38:27	13.9	100
25157	2023-07-25T23:48:27	14	100
25158	2023-07-25T23:58:27	13.8	100
25159	2023-07-26T00:08:27	13.9	100
25160	2023-07-26T00:18:27	13.7	100
25161	2023-07-26T00:28:27	13.8	100
25162	2023-07-26T00:38:27	13.8	100
25163	2023-07-26T00:48:27	13.7	100
25164	2023-07-26T00:58:27	13.5	100
25165	2023-07-26T01:08:27	13.3	100
25166	2023-07-26T01:18:27	13.2	100
25167	2023-07-26T01:28:27	13.1	100
25168	2023-07-26T01:38:27	13	100
25169	2023-07-26T01:48:27	13	100
25170	2023-07-26T01:58:27	12.9	100
25171	2023-07-26T02:08:27	12.7	100
25172	2023-07-26T02:18:27	12.7	100
25173	2023-07-26T02:28:27	12.8	100
25174	2023-07-26T02:38:27	12.8	100
25175	2023-07-26T02:48:27	12.8	100
25176	2023-07-26T02:58:27	12.8	100
25177	2023-07-26T03:08:27	12.8	100
25178	2023-07-26T03:18:27	12.7	100
25179	2023-07-26T03:28:27	12.7	100
25180	2023-07-26T03:38:27	12.7	100
25181	2023-07-26T03:48:27	12.8	100
25182	2023-07-26T03:58:27	12.8	100
25183	2023-07-26T04:08:27	12.9	100
25184	2023-07-26T04:18:27	12.9	100
25185	2023-07-26T04:28:27	12.8	100
25186	2023-07-26T04:38:27	12.8	100
25187	2023-07-26T04:48:27	12.9	100
25188	2023-07-26T04:58:27	13	100
25189	2023-07-26T05:08:27	13	100
25190	2023-07-26T05:18:27	13.1	100
25191	2023-07-26T05:28:27	13.3	100
25192	2023-07-26T05:38:27	13.2	100
25193	2023-07-26T05:48:27	13.2	100
25194	2023-07-26T06:08:27	13.4	100
25195	2023-07-26T06:18:27	13.4	100
25196	2023-07-26T06:28:27	13.4	100
25197	2023-07-26T06:38:27	13.5	100
25198	2023-07-26T06:48:27	13.8	100
25199	2023-07-26T06:58:27	13.7	100
25200	2023-07-26T07:08:27	13.8	100
25201	2023-07-26T07:18:27	14.1	100
25202	2023-07-26T07:28:27	14.3	100
25203	2023-07-26T07:38:27	14.1	100
25204	2023-07-26T07:48:27	14.5	100
25205	2023-07-26T07:58:27	14.9	100
25206	2023-07-26T08:08:27	14.6	100
25207	2023-07-26T08:18:27	14.7	100
25208	2023-07-26T08:28:27	14.7	100
25209	2023-07-26T08:38:27	15.2	100
25210	2023-07-26T08:48:27	15.8	100
25211	2023-07-26T08:58:27	16.1	100
25212	2023-07-26T09:08:27	16.2	99.5
25213	2023-07-26T09:18:27	16.2	99.5
25214	2023-07-26T09:28:27	16	99.5
25215	2023-07-26T09:38:45	15.9	99.5
25216	2023-07-26T09:48:27	16.5	99.5
25217	2023-07-26T09:58:27	16.8	99.5
25218	2023-07-26T10:08:27	17.3	100
25219	2023-07-26T10:18:27	18.1	100
25220	2023-07-26T10:28:27	18.5	99.5
25221	2023-07-26T10:38:27	18.4	99
25222	2023-07-26T10:48:27	19.1	99.5
25223	2023-07-26T10:58:27	19	97.5
25224	2023-07-26T11:08:27	19	96.5
25225	2023-07-26T11:18:27	18.8	98
25226	2023-07-26T11:28:27	19	97
25227	2023-07-26T11:38:26	20	98
25228	2023-07-26T11:48:26	20.6	96
25229	2023-07-26T11:58:26	20.2	92.5
25230	2023-07-26T12:08:26	19.6	94.5
25231	2023-07-26T12:18:26	20.2	58
25232	2023-07-26T12:28:26	20.4	53
25233	2023-07-26T12:38:26	21.1	50.5
25234	2023-07-26T12:48:26	21.9	50
25235	2023-07-26T12:58:26	23.2	45
25236	2023-07-26T13:18:26	23.8	45.5
25237	2023-07-26T13:28:26	26.3	38.5
25238	2023-07-26T13:38:26	26.4	35.5
25239	2023-07-26T13:48:26	27.7	34
25240	2023-07-26T13:58:26	24	39.5
25241	2023-07-26T14:08:26	21.5	48.5
25242	2023-07-26T14:18:26	21.4	43.5
25243	2023-07-26T14:28:26	21.8	44
25244	2023-07-26T14:38:26	24.8	39
25245	2023-07-26T14:48:26	26.9	38
25246	2023-07-26T14:58:26	27.4	36.5
25247	2023-07-26T15:08:26	28.6	32
25248	2023-07-26T15:18:26	28.9	32
25249	2023-07-26T15:28:26	28.9	32
25250	2023-07-26T15:38:26	24.3	38.5
25251	2023-07-26T15:48:26	27	37.5
25252	2023-07-26T15:58:26	24.9	40
25253	2023-07-26T16:08:26	25.1	38.5
25254	2023-07-26T16:18:26	28.6	35.5
25255	2023-07-26T16:28:26	28.8	33.5
25256	2023-07-26T16:38:26	25.9	39
25257	2023-07-26T16:48:26	26.5	39
25258	2023-07-26T16:58:26	27.3	37
25259	2023-07-26T17:08:26	26.7	39
25260	2023-07-26T17:18:26	27.4	36
25261	2023-07-26T17:28:26	27.6	37
25262	2023-07-26T17:38:26	27.1	38.5
25263	2023-07-26T17:48:26	24.7	43.5
25264	2023-07-26T17:58:26	23.2	47
25265	2023-07-26T18:08:26	24	46
25266	2023-07-26T18:18:26	22	51.5
25267	2023-07-26T18:28:26	22.7	50.5
25268	2023-07-26T18:38:26	22.3	51.5
25269	2023-07-26T18:48:26	20.5	56.5
25270	2023-07-26T18:58:26	19.8	57
25271	2023-07-26T19:08:26	19.3	62.5
25272	2023-07-26T19:18:26	18.9	67
25273	2023-07-26T19:28:26	18.5	70.5
25274	2023-07-26T19:38:26	18.2	68
25275	2023-07-26T19:48:26	17.7	71
25276	2023-07-26T19:58:26	17.5	70.5
25277	2023-07-26T20:08:26	17.3	73.5
25278	2023-07-26T20:18:26	17.1	74.5
25279	2023-07-26T20:28:26	16.8	74.5
25280	2023-07-26T20:38:26	16.8	76.5
25281	2023-07-26T20:48:26	16.4	78
25282	2023-07-26T20:58:26	16.4	77.5
25283	2023-07-26T21:08:26	16.3	79
25284	2023-07-26T21:18:26	16.1	80
25285	2023-07-26T21:28:26	15.9	79.5
25286	2023-07-26T21:38:26	15.9	81.5
25287	2023-07-26T21:48:26	15.8	81
25288	2023-07-26T21:58:26	15.9	80
25289	2023-07-26T22:08:26	15.8	81.5
25290	2023-07-26T22:18:25	16	79
25291	2023-07-26T22:28:25	15.6	82
25292	2023-07-26T22:38:25	15.3	82.5
25293	2023-07-26T22:48:25	15.3	80.5
25294	2023-07-26T22:58:25	15.5	76.5
25295	2023-07-26T23:08:25	15.3	81.5
25296	2023-07-26T23:18:25	15.8	73.5
25297	2023-07-26T23:28:25	16.1	70.5
25298	2023-07-26T23:38:25	16.1	71
25299	2023-07-26T23:48:25	16	72
25300	2023-07-26T23:58:25	16.1	71.5
25301	2023-07-27T00:08:25	15.9	72.5
25302	2023-07-27T00:18:25	15.7	72.5
25303	2023-07-27T00:28:25	15.2	79.5
25304	2023-07-27T00:38:25	14.7	82
25305	2023-07-27T00:48:25	14.2	84
25306	2023-07-27T00:58:25	14.2	84
25307	2023-07-27T01:08:25	14	85.5
25308	2023-07-27T01:18:25	14	86
25309	2023-07-27T01:28:25	14	86
25310	2023-07-27T01:38:25	14.1	86
25311	2023-07-27T01:48:25	14.1	86
25312	2023-07-27T01:58:25	14.1	87
25313	2023-07-27T02:08:25	14.1	86
25314	2023-07-27T02:18:25	14.2	86.5
25315	2023-07-27T02:28:25	14.1	86.5
25316	2023-07-27T02:38:25	14.1	86.5
25317	2023-07-27T02:48:25	14.2	87
25318	2023-07-27T02:58:25	14.2	86.5
25319	2023-07-27T03:08:25	14.2	86.5
25320	2023-07-27T03:18:25	14.1	87
25321	2023-07-27T03:28:25	14.1	87
25322	2023-07-27T03:38:25	14.2	86.5
25323	2023-07-27T03:48:25	14.3	87.5
25324	2023-07-27T03:58:25	14.2	88.5
25325	2023-07-27T04:08:25	14.3	88
25326	2023-07-27T04:18:25	14.3	87.5
25327	2023-07-27T04:28:25	14.4	87.5
25328	2023-07-27T04:49:27	14.5	88
25329	2023-07-27T04:49:27	14.6	88
25330	2023-07-27T04:58:25	14.8	87
25331	2023-07-27T05:08:25	15	86
25332	2023-07-27T05:18:25	15.1	88
25333	2023-07-27T05:28:25	15.1	87
25334	2023-07-27T05:38:25	15.5	83.5
25335	2023-07-27T05:48:25	15.8	82.5
25336	2023-07-27T05:58:25	16	82
25337	2023-07-27T06:08:25	16.2	83
25338	2023-07-27T06:18:25	16.3	84.5
25339	2023-07-27T06:28:25	16.6	85
25340	2023-07-27T06:38:25	16.9	83.5
25341	2023-07-27T06:48:25	16.7	79
25342	2023-07-27T06:58:25	17.1	82.5
25343	2023-07-27T07:08:25	17.7	78.5
25344	2023-07-27T07:18:25	17.3	78.5
25345	2023-07-27T07:28:42	17.5	78
25346	2023-07-27T07:38:25	18	76
25347	2023-07-27T07:48:25	18.4	73.5
25348	2023-07-27T07:58:25	18	76
25349	2023-07-27T08:08:25	18.4	75
25350	2023-07-27T08:18:25	18.7	77
25351	2023-07-27T08:28:25	19.1	74.5
25352	2023-07-27T08:38:25	18.9	75
25353	2023-07-27T08:48:25	18.5	76
25354	2023-07-27T08:58:25	18.3	74.5
25355	2023-07-27T09:08:25	18.3	77
25356	2023-07-27T09:18:25	18.2	73.5
25357	2023-07-27T09:28:25	18.5	72
25358	2023-07-27T09:38:25	18.9	68.5
25359	2023-07-27T09:48:24	19.4	66
25360	2023-07-27T09:58:24	20.1	64
25361	2023-07-27T10:08:24	20.7	62
25362	2023-07-27T10:18:24	21.9	59
25363	2023-07-27T10:28:24	22.2	56.5
25364	2023-07-27T10:38:24	22.2	56
25365	2023-07-27T10:48:24	21.8	56.5
25366	2023-07-27T10:58:24	21.7	56.5
25367	2023-07-27T11:08:24	21.6	56.5
25368	2023-07-27T11:18:24	21.7	59
25369	2023-07-27T11:28:24	20.1	69.5
25370	2023-07-27T11:38:24	19.1	80.5
25371	2023-07-27T11:48:24	18.8	84
25372	2023-07-27T11:58:24	18.6	87.5
25373	2023-07-27T12:08:24	18.8	85.5
25374	2023-07-27T12:18:24	19.9	83.5
25375	2023-07-27T12:28:24	20.6	79.5
25376	2023-07-27T12:38:24	21.3	75
25377	2023-07-27T12:48:24	21.1	75.5
25378	2023-07-27T12:58:24	20.9	71
25379	2023-07-27T13:08:24	21.5	72.5
25380	2023-07-27T13:18:24	22.2	64.5
25381	2023-07-27T13:28:24	22.3	64
25382	2023-07-27T13:38:24	22.1	65
25383	2023-07-27T13:48:24	22.1	64.5
25384	2023-07-27T13:58:24	22	65
25385	2023-07-27T14:08:24	22.3	65.5
25386	2023-07-27T14:18:24	22.7	65.5
25387	2023-07-27T14:28:24	23.4	62
25388	2023-07-27T14:38:24	24.3	59.5
25389	2023-07-27T14:48:24	25.7	55
25390	2023-07-27T14:58:24	25.3	52.5
25391	2023-07-27T15:08:24	25	55
25392	2023-07-27T15:18:24	24.7	56.5
25393	2023-07-27T15:28:24	24.3	57.5
25394	2023-07-27T15:38:24	24.3	57.5
25395	2023-07-27T15:48:24	24.3	57.5
25396	2023-07-27T15:58:24	24.2	58
25397	2023-07-27T16:08:24	24.3	58
25398	2023-07-27T16:18:24	24.4	56.5
25399	2023-07-27T16:28:24	24.4	57.5
25400	2023-07-27T16:38:24	24.4	58
25401	2023-07-27T16:48:24	24.2	58.5
25402	2023-07-27T16:58:24	24	59.5
25403	2023-07-27T17:08:24	23.8	59.5
25404	2023-07-27T17:18:24	23.7	59.5
25405	2023-07-27T17:28:24	23.6	60
25406	2023-07-27T17:38:24	23.5	60.5
25407	2023-07-27T17:48:24	23.3	61.5
25408	2023-07-27T17:58:24	22.5	65
25409	2023-07-27T18:08:24	22.4	69.5
25410	2023-07-27T18:18:24	22	67
25411	2023-07-27T18:28:24	22.1	67.5
25412	2023-07-27T18:38:24	22	68
25413	2023-07-27T18:48:24	22	68.5
25414	2023-07-27T18:58:24	21.9	68.5
25415	2023-07-27T19:08:24	21.7	70.5
25416	2023-07-27T19:18:24	21.6	73
25417	2023-07-27T19:28:24	21.5	74.5
25418	2023-07-27T19:38:46	21.4	75.5
25419	2023-07-27T19:48:24	21.3	75
25420	2023-07-27T19:58:24	21.1	74
25421	2023-07-27T20:08:24	21.1	72
25422	2023-07-27T20:18:23	21.2	71.5
25423	2023-07-27T20:28:23	21.1	72
25424	2023-07-27T20:38:23	21.1	71
25425	2023-07-27T20:48:23	21	71.5
25426	2023-07-27T20:58:23	21	73
25427	2023-07-27T21:08:23	20.8	73.5
25428	2023-07-27T21:18:23	20.6	74
25429	2023-07-27T21:28:23	20.6	74.5
25430	2023-07-27T21:38:23	20.5	75.5
25431	2023-07-27T21:48:23	20.5	74
25432	2023-07-27T21:58:23	20.4	75
25433	2023-07-27T22:08:23	20.4	75.5
25434	2023-07-27T22:18:23	20.3	77.5
25435	2023-07-27T22:28:23	20.1	79
25436	2023-07-27T22:38:23	20	80
25437	2023-07-27T22:48:23	19.9	79.5
25438	2023-07-27T22:58:23	19.9	79.5
25439	2023-07-27T23:08:23	19.8	80.5
25440	2023-07-27T23:18:23	19.7	81
25441	2023-07-27T23:28:23	19.8	81.5
25442	2023-07-27T23:38:23	19.6	82.5
25443	2023-07-27T23:48:23	19.7	82
25444	2023-07-27T23:58:23	19.5	83
25445	2023-07-28T00:08:23	19.5	84
25446	2023-07-28T00:18:23	19.5	83.5
25447	2023-07-28T00:28:23	19.4	83.5
25448	2023-07-28T00:38:23	19.4	83.5
25449	2023-07-28T00:48:23	19.3	84.5
25450	2023-07-28T00:58:23	19.1	85
25451	2023-07-28T01:08:23	18.7	85.5
25452	2023-07-28T01:18:23	18.5	86.5
25453	2023-07-28T01:28:23	18.5	86
25454	2023-07-28T01:38:23	18.5	86
25455	2023-07-28T01:48:23	18.4	87
25456	2023-07-28T01:58:23	18.2	86.5
25457	2023-07-28T02:08:23	18.3	87
25458	2023-07-28T02:18:23	18.2	87.5
25459	2023-07-28T02:28:23	18.1	87.5
25460	2023-07-28T02:38:23	18.1	88
25461	2023-07-28T02:48:23	18.2	88.5
25462	2023-07-28T02:58:23	18.1	87.5
25463	2023-07-28T03:08:23	18.2	87.5
25464	2023-07-28T03:18:23	18.1	87.5
25465	2023-07-28T03:28:23	18.1	88
25466	2023-07-28T03:38:23	18.2	87.5
25467	2023-07-28T03:48:23	18.2	87.5
25468	2023-07-28T03:58:23	18.3	88.5
25469	2023-07-28T04:08:23	18.1	91.5
25470	2023-07-28T04:18:23	17.7	93
25471	2023-07-28T04:28:23	17.7	94.5
25472	2023-07-28T04:38:23	17.6	95
25473	2023-07-28T04:48:23	17.6	96.5
25474	2023-07-28T04:58:23	17.5	97
25475	2023-07-28T05:08:23	17.4	97.5
25476	2023-07-28T05:18:23	17.6	97.5
25477	2023-07-28T05:28:23	17.5	98
25478	2023-07-28T05:38:23	17.6	98
25479	2023-07-28T05:48:23	17.6	98
25480	2023-07-28T05:58:23	17.5	98
25481	2023-07-28T06:08:23	17.6	98
25482	2023-07-28T06:18:23	17.7	98.5
25483	2023-07-28T06:28:23	17.8	98.5
25484	2023-07-28T06:38:23	17.7	98.5
25485	2023-07-28T06:48:23	17.7	98.5
25486	2023-07-28T06:58:23	17.7	98.5
25487	2023-07-28T07:08:23	17.8	98.5
25488	2023-07-28T07:18:22	17.8	98.5
25489	2023-07-28T07:28:22	17.7	98.5
25490	2023-07-28T07:38:22	18	98.5
25491	2023-07-28T07:48:22	18.1	98
25492	2023-07-28T07:58:22	18.2	98
25493	2023-07-28T08:08:22	18.7	97.5
25494	2023-07-28T08:18:22	19.3	97.5
25495	2023-07-28T08:28:22	19.5	97
25496	2023-07-28T08:38:22	19.9	97
25497	2023-07-28T08:48:22	20.2	96.5
25498	2023-07-28T08:58:22	20.2	96.5
25499	2023-07-28T09:08:22	20.5	96.5
25500	2023-07-28T09:18:22	21	97
25501	2023-07-28T09:28:22	21	98
25502	2023-07-28T09:38:22	21	97.5
25503	2023-07-28T09:48:22	21.1	97.5
25504	2023-07-28T09:58:22	21.6	96
25505	2023-07-28T10:08:22	21.6	96
25506	2023-07-28T10:18:22	21.6	96
25507	2023-07-28T10:28:22	21.9	95.5
25508	2023-07-28T10:38:22	22.2	96
25509	2023-07-28T10:48:22	22.1	95.5
25510	2023-07-28T10:58:22	22.3	94.5
25511	2023-07-28T11:08:22	22.5	94
25512	2023-07-28T11:18:22	22.2	92.5
25513	2023-07-28T11:28:22	20.3	96.5
25514	2023-07-28T11:38:22	19.9	98
25515	2023-07-28T11:48:22	20.2	98.5
25516	2023-07-28T11:58:22	20.3	98.5
25517	2023-07-28T12:08:22	20.2	98.5
25518	2023-07-28T12:18:22	20.3	99
25519	2023-07-28T12:28:22	20.1	99
25520	2023-07-28T12:38:22	19.9	99
25521	2023-07-28T12:48:22	19.7	99
25522	2023-07-28T12:58:22	19.5	99
25523	2023-07-28T13:08:22	19.7	99
25524	2023-07-28T13:18:22	19.5	99
25525	2023-07-28T13:28:22	19.7	99
25526	2023-07-28T13:38:22	19.7	99
25527	2023-07-28T13:48:22	19.6	99
25528	2023-07-28T13:58:22	19.5	99
25529	2023-07-28T14:08:22	19.2	99
25530	2023-07-28T14:18:22	19.3	99
25531	2023-07-28T14:28:22	19.3	99
25532	2023-07-28T14:38:22	19.2	99
25533	2023-07-28T14:48:22	19	99
25534	2023-07-28T14:58:22	19	99
25535	2023-07-28T15:08:22	19.2	99
25536	2023-07-28T15:18:22	19.1	99.5
25537	2023-07-28T15:28:22	19	99
25538	2023-07-28T15:38:22	19.3	99
25539	2023-07-28T15:48:22	19.2	99
25540	2023-07-28T15:58:22	19.3	99
25541	2023-07-28T16:08:22	19.5	99
25542	2023-07-28T16:18:22	19.9	98.5
25543	2023-07-28T16:28:22	20.1	98
25544	2023-07-28T16:38:22	20.3	98
25545	2023-07-28T16:48:22	20.6	98
25546	2023-07-28T16:58:22	20.6	97.5
25547	2023-07-28T17:08:22	20.5	97.5
25548	2023-07-28T17:18:40	20.4	97.5
25549	2023-07-28T17:28:22	20	97.5
25550	2023-07-28T17:38:22	19.9	97.5
25551	2023-07-28T17:48:21	21.5	97.5
25552	2023-07-28T17:58:22	20.4	97.5
25553	2023-07-28T18:08:21	19.9	97.5
25554	2023-07-28T18:18:21	19.7	98
25555	2023-07-28T18:28:21	19.4	98.5
25556	2023-07-28T18:38:21	19.3	99
25557	2023-07-28T18:48:21	19.2	99
25558	2023-07-28T18:58:21	19	99
25559	2023-07-28T19:08:21	18.9	99
25560	2023-07-28T19:18:21	18.9	99
25561	2023-07-28T19:28:21	18.7	99
25562	2023-07-28T19:38:21	18.7	99
25563	2023-07-28T19:48:21	18.5	99
25564	2023-07-28T19:58:21	18.3	99
25565	2023-07-28T20:08:21	18.1	99
25566	2023-07-28T20:18:21	18	99
25567	2023-07-28T20:28:21	18	99.5
25568	2023-07-28T20:38:21	18	99.5
25569	2023-07-28T20:48:21	17.9	99.5
25570	2023-07-28T20:58:21	17.7	99.5
25571	2023-07-28T21:08:21	17.5	99.5
25572	2023-07-28T21:18:21	17.4	99.5
25573	2023-07-28T21:28:21	17.3	99.5
25574	2023-07-28T21:38:21	17.2	99.5
25575	2023-07-28T21:48:21	17.1	99.5
25576	2023-07-28T21:58:21	17.2	99.5
25577	2023-07-28T22:08:21	17.2	99.5
25578	2023-07-28T22:18:21	16.9	99.5
25579	2023-07-28T22:28:21	16.8	99.5
25580	2023-07-28T22:38:21	16.9	99.5
25581	2023-07-28T22:48:21	16.9	99.5
25582	2023-07-28T22:58:21	16.9	99.5
25583	2023-07-28T23:08:21	16.9	99.5
25584	2023-07-28T23:18:21	16.8	99.5
25585	2023-07-28T23:28:21	16.8	99.5
25586	2023-07-28T23:38:21	16.9	99.5
25587	2023-07-28T23:48:21	17	100
25588	2023-07-28T23:58:21	16.9	99.5
25589	2023-07-29T00:08:21	16.8	100
25590	2023-07-29T00:18:21	16.9	100
25591	2023-07-29T00:28:21	16.9	100
25592	2023-07-29T00:38:21	16.9	100
25593	2023-07-29T00:48:21	16.8	100
25594	2023-07-29T00:58:21	16.9	100
25595	2023-07-29T01:08:21	16.6	100
25596	2023-07-29T01:18:21	16.6	100
25597	2023-07-29T01:28:21	16.4	99.5
25598	2023-07-29T01:38:21	16.4	99.5
25599	2023-07-29T01:48:21	16.3	100
25600	2023-07-29T01:58:21	16.5	100
25601	2023-07-29T02:08:21	16.6	100
25602	2023-07-29T02:18:21	16.5	100
25603	2023-07-29T02:28:21	16.6	100
25604	2023-07-29T02:38:21	16.6	100
25605	2023-07-29T02:48:21	16.6	100
25606	2023-07-29T02:58:21	16.6	100
25607	2023-07-29T03:08:21	16.6	100
25608	2023-07-29T03:18:21	16.5	100
25609	2023-07-29T03:28:21	16.4	100
25610	2023-07-29T03:38:21	16.5	100
25611	2023-07-29T03:48:21	16.7	100
25612	2023-07-29T03:58:21	16.8	100
25613	2023-07-29T04:08:21	16.8	100
25614	2023-07-29T04:18:21	17	100
25615	2023-07-29T04:28:21	16.9	100
25616	2023-07-29T04:38:21	17	100
25617	2023-07-29T04:48:21	17	100
25618	2023-07-29T04:58:21	17.2	100
25619	2023-07-29T05:08:21	17.3	100
25620	2023-07-29T05:18:21	17.4	99.5
25621	2023-07-29T05:28:21	17.5	99.5
25622	2023-07-29T05:38:20	17.6	99.5
25623	2023-07-29T05:48:20	17.9	99
25624	2023-07-29T05:58:20	17.9	99
25625	2023-07-29T06:08:20	18	98.5
25626	2023-07-29T06:18:20	18.1	98.5
25627	2023-07-29T06:28:20	18.3	98.5
25628	2023-07-29T06:38:20	18.4	98.5
25629	2023-07-29T06:48:20	18.5	98.5
25630	2023-07-29T06:58:20	18.7	98
25631	2023-07-29T07:08:20	18.7	98
25632	2023-07-29T07:18:20	19.1	98
25633	2023-07-29T07:28:20	19.8	97.5
25634	2023-07-29T07:38:20	20	97.5
25635	2023-07-29T07:48:20	20.5	97.5
25636	2023-07-29T07:58:20	20.5	97.5
25637	2023-07-29T08:08:20	20.8	97.5
25638	2023-07-29T08:18:20	21.1	97.5
25639	2023-07-29T08:28:20	20.8	97.5
25640	2023-07-29T08:38:20	20.8	97
25641	2023-07-29T08:48:20	19.5	97.5
25642	2023-07-29T08:58:20	19.5	97.5
25643	2023-07-29T09:08:20	19.3	97.5
25644	2023-07-29T09:18:20	19.5	97.5
25645	2023-07-29T09:28:20	20	97.5
25646	2023-07-29T09:38:20	20.4	97.5
25647	2023-07-29T09:48:20	21	97.5
25648	2023-07-29T09:58:20	21.3	97.5
25649	2023-07-29T10:08:20	21.4	97.5
25650	2023-07-29T10:18:20	21.3	97.5
25651	2023-07-29T10:28:20	21.5	97
25652	2023-07-29T10:38:20	22.1	97
25653	2023-07-29T10:48:20	22.2	97
25654	2023-07-29T10:58:20	22.6	97
25655	2023-07-29T11:08:20	22.9	97
25656	2023-07-29T11:18:20	23.2	97
25657	2023-07-29T11:28:20	24	97
25658	2023-07-29T11:38:20	23.9	99
25659	2023-07-29T11:48:20	23.8	96.5
25660	2023-07-29T11:58:20	24	94.5
25661	2023-07-29T12:08:20	24	94
25662	2023-07-29T12:18:20	25.9	95
25663	2023-07-29T12:28:20	27.1	48.5
25664	2023-07-29T12:48:20	27.6	48
25665	2023-07-29T12:58:20	27.9	47
25666	2023-07-29T13:08:20	28.6	47
25667	2023-07-29T13:18:20	29.4	43.5
25668	2023-07-29T13:28:20	30.7	43.5
25669	2023-07-29T13:38:20	30.6	40.5
25670	2023-07-29T13:48:20	30.3	41.5
25671	2023-07-29T13:58:20	32.5	38.5
25672	2023-07-29T14:08:20	31.3	38
25673	2023-07-29T14:18:20	30.6	43
25674	2023-07-29T14:28:20	32.8	37
25675	2023-07-29T14:38:20	32	38
25676	2023-07-29T14:48:20	32.8	36.5
25677	2023-07-29T14:58:20	32.7	36
25678	2023-07-29T15:08:20	32.2	38
25679	2023-07-29T15:18:20	31.8	39.5
25680	2023-07-29T15:28:20	33.3	37
25681	2023-07-29T15:38:19	33.5	37
25682	2023-07-29T15:48:20	31.6	40.5
25683	2023-07-29T15:58:19	33.8	37.5
25684	2023-07-29T16:08:19	32.8	37.5
25685	2023-07-29T16:18:19	33.6	37.5
25686	2023-07-29T16:28:19	33.1	37.5
25687	2023-07-29T16:38:19	34	36
25688	2023-07-29T16:48:19	31.4	41
25689	2023-07-29T16:58:19	30.4	44.5
25690	2023-07-29T17:08:19	28.4	49
25691	2023-07-29T17:18:19	27.4	51.5
25692	2023-07-29T17:28:19	26.5	54.5
25693	2023-07-29T17:38:19	25.8	57
25694	2023-07-29T17:48:19	25.2	58.5
25695	2023-07-29T17:58:19	25	60
25696	2023-07-29T18:08:19	24.7	61
25697	2023-07-29T18:18:19	24.3	62.5
25698	2023-07-29T18:28:19	24.2	63.5
25699	2023-07-29T18:38:19	23.8	64
25700	2023-07-29T18:48:19	23.4	64.5
25701	2023-07-29T18:58:19	23.1	66
25702	2023-07-29T19:08:19	22.8	67
25703	2023-07-29T19:18:19	22.5	68.5
25704	2023-07-29T19:28:19	22.4	68.5
25705	2023-07-29T19:38:19	22.3	69.5
25706	2023-07-29T19:48:19	22.2	70.5
25707	2023-07-29T19:58:19	22.1	71
25708	2023-07-29T20:08:19	22.1	71.5
25709	2023-07-29T20:18:19	22	73.5
25710	2023-07-29T20:28:19	22	73
25711	2023-07-29T20:38:19	22	75
25712	2023-07-29T20:48:19	21.9	77
25713	2023-07-29T20:58:19	21.5	78.5
25714	2023-07-29T21:08:19	20.2	92
25715	2023-07-29T21:18:19	20.3	87.5
25716	2023-07-29T21:28:19	19.9	91
25717	2023-07-29T21:38:19	19.8	93
25718	2023-07-29T21:48:19	19.6	95.5
25719	2023-07-29T21:58:19	19.5	96.5
25720	2023-07-29T22:08:19	19.3	97
25721	2023-07-29T22:18:19	19.3	97.5
25722	2023-07-29T22:28:19	19.3	97.5
25723	2023-07-29T22:38:19	19.1	97.5
25724	2023-07-29T22:48:19	18.5	97.5
25725	2023-07-29T22:58:19	18	97.5
25726	2023-07-29T23:08:19	17.6	97.5
25727	2023-07-29T23:18:19	18.1	98
25728	2023-07-29T23:28:38	18.2	98.5
25729	2023-07-29T23:38:19	18	98
25730	2023-07-29T23:48:19	17.9	98.5
25731	2023-07-29T23:58:19	17.7	98.5
25732	2023-07-30T00:08:19	17.6	98.5
25733	2023-07-30T00:18:19	17.7	98.5
25734	2023-07-30T00:28:19	17.8	99
25735	2023-07-30T00:38:19	17.7	99
25736	2023-07-30T00:48:19	17.8	99
25737	2023-07-30T00:58:19	17.8	99
25738	2023-07-30T01:08:19	17.9	99
25739	2023-07-30T01:18:19	17.8	99
25740	2023-07-30T01:28:19	17.9	99
25741	2023-07-30T01:38:19	17.9	99.5
25742	2023-07-30T01:48:19	18.1	99.5
25743	2023-07-30T01:58:36	18.1	99.5
25744	2023-07-30T02:08:19	18	99.5
25745	2023-07-30T02:18:18	18.1	99.5
25746	2023-07-30T02:28:18	17.9	99.5
25747	2023-07-30T02:38:18	17.9	99.5
25748	2023-07-30T02:48:18	17.9	99.5
25749	2023-07-30T02:58:18	17.9	99.5
25750	2023-07-30T03:08:18	18.1	99.5
25751	2023-07-30T03:18:19	18	99.5
25752	2023-07-30T03:28:18	17.9	99.5
25753	2023-07-30T03:38:18	17.9	99.5
25754	2023-07-30T03:48:18	17.9	99.5
25755	2023-07-30T03:58:18	17.9	99.5
25756	2023-07-30T04:08:18	17.6	99.5
25757	2023-07-30T04:18:18	17.5	99.5
25758	2023-07-30T04:28:18	17.4	99.5
25759	2023-07-30T04:38:18	17.4	99.5
25760	2023-07-30T04:48:18	17.6	99.5
25761	2023-07-30T04:58:18	17.5	99.5
25762	2023-07-30T05:08:18	17.6	99.5
25763	2023-07-30T05:18:18	17.7	99.5
25764	2023-07-30T05:28:18	17.8	99.5
25765	2023-07-30T05:48:18	18.2	99
25766	2023-07-30T05:58:18	18.4	99
25767	2023-07-30T06:08:18	18.3	98.5
25768	2023-07-30T06:18:18	18.1	98.5
25769	2023-07-30T06:28:18	18	98.5
25770	2023-07-30T06:38:18	18	98.5
25771	2023-07-30T06:48:18	18.1	98.5
25772	2023-07-30T06:58:18	18.3	98.5
25773	2023-07-30T07:08:18	18.3	98.5
25774	2023-07-30T07:18:18	18.4	98.5
25775	2023-07-30T07:28:18	18.6	98.5
25776	2023-07-30T07:38:18	18.9	98.5
25777	2023-07-30T07:48:18	19.1	98
25778	2023-07-30T07:58:18	19.6	98
25779	2023-07-30T08:08:18	19.6	98
25780	2023-07-30T08:18:18	19.5	97.5
25781	2023-07-30T08:28:18	19.8	97.5
25782	2023-07-30T08:38:18	19.9	97.5
25783	2023-07-30T08:48:18	20	97.5
25784	2023-07-30T08:58:18	19.7	97.5
25785	2023-07-30T09:08:18	19.7	98
25786	2023-07-30T09:18:18	20.2	99
25787	2023-07-30T09:28:18	20.4	98.5
25788	2023-07-30T09:38:18	20.8	98.5
25789	2023-07-30T09:48:18	21.3	98
25790	2023-07-30T09:58:18	20.4	96
25791	2023-07-30T10:08:18	20	97.5
25792	2023-07-30T10:18:18	19.4	97.5
25793	2023-07-30T10:28:18	19.8	98.5
25794	2023-07-30T10:38:18	20.4	97
25795	2023-07-30T10:48:18	21.2	98.5
25796	2023-07-30T10:58:18	21.4	97.5
25797	2023-07-30T11:08:18	21.3	97
25798	2023-07-30T11:18:18	22.1	96
25799	2023-07-30T11:28:18	21.5	64
25800	2023-07-30T11:38:18	21.6	62
25801	2023-07-30T11:48:18	21.8	62.5
25802	2023-07-30T12:08:18	22.8	57
25803	2023-07-30T12:18:18	22.4	62.5
25804	2023-07-30T12:28:18	23.5	54
25805	2023-07-30T12:38:18	23.8	52.5
25806	2023-07-30T12:48:18	23.7	52
25807	2023-07-30T12:58:18	27	44
25808	2023-07-30T13:08:18	24.3	50.5
25809	2023-07-30T13:18:17	24.2	51
25810	2023-07-30T13:28:17	25.8	43.5
25811	2023-07-30T13:38:17	24.4	48
25812	2023-07-30T13:48:17	26.6	39
25813	2023-07-30T13:58:17	28.8	37
25814	2023-07-30T14:08:17	29.8	33.5
25815	2023-07-30T14:28:17	28.6	34
25816	2023-07-30T14:38:17	30.5	32
25817	2023-07-30T14:48:17	31	30.5
25818	2023-07-30T14:58:17	32.5	28.5
25819	2023-07-30T15:08:17	29.3	34
25820	2023-07-30T15:18:17	32.9	28.5
25821	2023-07-30T15:28:17	29.1	32.5
25822	2023-07-30T15:38:17	26.6	35.5
25823	2023-07-30T15:48:17	31.2	30.5
25824	2023-07-30T15:58:17	30.9	30
25825	2023-07-30T16:08:17	29.9	31
25826	2023-07-30T16:18:17	30	30.5
25827	2023-07-30T16:28:17	27	36
25828	2023-07-30T16:38:17	25.8	40.5
25829	2023-07-30T16:48:17	25.8	39
25830	2023-07-30T16:58:17	25.3	40
25831	2023-07-30T17:08:17	25.3	39.5
25832	2023-07-30T17:18:17	24.8	40
25833	2023-07-30T17:28:17	24.4	41.5
25834	2023-07-30T17:38:17	24	43
25835	2023-07-30T17:48:17	23.2	46
25836	2023-07-30T17:58:17	22.6	49
25837	2023-07-30T18:08:17	22.1	48
25838	2023-07-30T18:18:17	21.9	50
25839	2023-07-30T18:28:17	21.6	52
25840	2023-07-30T18:38:17	21.2	53
25841	2023-07-30T18:48:17	20.6	59
25842	2023-07-30T18:58:17	20.4	62.5
25843	2023-07-30T19:08:17	20.1	63
25844	2023-07-30T19:18:17	19.9	66.5
25845	2023-07-30T19:28:17	19.6	64.5
25846	2023-07-30T19:38:17	19.2	62
25847	2023-07-30T19:48:17	19	64.5
25848	2023-07-30T19:58:17	18.7	66
25849	2023-07-30T20:08:17	18.5	65
25850	2023-07-30T20:18:17	18.3	68
25851	2023-07-30T20:28:17	18.1	69.5
25852	2023-07-30T20:38:17	17.9	69.5
25853	2023-07-30T20:48:17	17.9	70
25854	2023-07-30T20:58:17	17.8	69.5
25855	2023-07-30T21:08:17	17.4	70
25856	2023-07-30T21:18:17	17.4	69.5
25857	2023-07-30T21:28:17	17.3	69
25858	2023-07-30T21:38:17	17.1	71
25859	2023-07-30T21:48:17	17	71.5
25860	2023-07-30T21:58:17	17	70.5
25861	2023-07-30T22:08:17	17.2	69.5
25862	2023-07-30T22:18:17	17.3	69
25863	2023-07-30T22:28:17	17.4	69.5
25864	2023-07-30T22:38:17	17.4	70.5
25865	2023-07-30T22:48:17	17.4	70.5
25866	2023-07-30T22:58:17	17.4	70.5
25867	2023-07-30T23:08:17	17.4	69
25868	2023-07-30T23:18:17	17.4	69.5
25869	2023-07-30T23:28:17	17.3	70
25870	2023-07-30T23:38:17	17	70.5
25871	2023-07-30T23:48:17	16.7	72
25872	2023-07-30T23:58:17	16.5	72
25873	2023-07-31T00:08:16	16.4	72.5
25874	2023-07-31T00:18:16	16.3	74
25875	2023-07-31T00:28:16	16.1	75.5
25876	2023-07-31T00:38:16	16	73
25877	2023-07-31T00:48:16	16.3	70.5
25878	2023-07-31T00:58:16	16.3	71.5
25879	2023-07-31T01:08:16	16.3	72
25880	2023-07-31T01:18:16	16.3	70.5
25881	2023-07-31T01:28:16	16.3	70
25882	2023-07-31T01:38:16	16.2	71
25883	2023-07-31T01:48:16	16.2	70
25884	2023-07-31T01:58:16	16.3	69.5
25885	2023-07-31T02:08:16	16.3	70
25886	2023-07-31T02:18:16	16.3	69
25887	2023-07-31T02:28:16	16.3	69
25888	2023-07-31T02:38:16	16.2	69.5
25889	2023-07-31T02:48:16	16.3	69
25890	2023-07-31T02:58:16	16.4	69
25891	2023-07-31T03:08:16	16.3	69
25892	2023-07-31T03:18:16	16.3	69
25893	2023-07-31T03:28:16	16.1	72
25894	2023-07-31T03:38:16	15.9	73.5
25895	2023-07-31T03:48:16	15.7	73.5
25896	2023-07-31T03:58:16	15.6	73.5
25897	2023-07-31T04:08:16	15.6	74
25898	2023-07-31T04:18:16	15.6	75.5
25899	2023-07-31T04:28:16	15.4	76
25900	2023-07-31T04:38:16	15.4	76
25901	2023-07-31T04:48:16	15.5	76
25902	2023-07-31T04:58:16	15.4	78.5
25903	2023-07-31T05:08:16	15.5	77.5
25904	2023-07-31T05:18:16	15.5	77
25905	2023-07-31T05:28:16	15.9	75.5
25906	2023-07-31T05:38:16	16.5	74.5
25907	2023-07-31T05:48:16	17	72.5
25908	2023-07-31T05:58:16	17.4	68.5
25909	2023-07-31T06:08:16	17.7	68.5
25910	2023-07-31T06:18:16	18.1	66
25911	2023-07-31T06:28:16	18.1	65.5
25912	2023-07-31T06:38:16	18.9	62.5
25913	2023-07-31T06:48:16	19.2	62.5
25914	2023-07-31T06:58:16	19.2	62
25915	2023-07-31T07:08:16	19.1	62
25916	2023-07-31T07:18:16	19.6	60.5
25917	2023-07-31T07:28:16	19.7	59.5
25918	2023-07-31T07:38:16	19.8	59
25919	2023-07-31T07:48:16	20.2	58
25920	2023-07-31T07:58:16	20.5	56
25921	2023-07-31T08:08:16	20.8	56.5
25922	2023-07-31T08:18:16	20.9	55
25923	2023-07-31T08:28:16	20.8	54.5
25924	2023-07-31T08:38:16	21.2	54.5
25925	2023-07-31T08:48:16	21.5	54.5
25926	2023-07-31T08:58:16	21.3	55.5
25927	2023-07-31T09:08:16	21.5	54.5
25928	2023-07-31T09:18:16	22	55
25929	2023-07-31T09:28:16	22.1	53
25930	2023-07-31T09:38:16	22.4	52.5
25931	2023-07-31T09:48:16	22.7	51
25932	2023-07-31T09:58:16	23.4	49
25933	2023-07-31T10:08:16	23.2	50.5
25934	2023-07-31T10:18:16	23.1	49.5
25935	2023-07-31T10:28:16	23.4	51
25936	2023-07-31T10:38:16	23.6	49.5
25937	2023-07-31T10:48:16	23.9	49.5
25938	2023-07-31T10:58:15	23.9	49.5
25939	2023-07-31T11:08:15	23.9	48.5
25940	2023-07-31T11:18:16	24.4	47.5
25941	2023-07-31T11:28:16	24.3	47.5
25942	2023-07-31T11:38:15	24.2	47
25943	2023-07-31T11:48:16	24.9	48
25944	2023-07-31T11:58:15	24.5	47.5
25945	2023-07-31T12:08:15	24.9	46
25946	2023-07-31T12:18:15	25.8	45
25947	2023-07-31T12:28:15	27.3	41
25948	2023-07-31T12:38:15	27.5	41.5
25949	2023-07-31T12:48:15	26.7	43.5
25950	2023-07-31T12:58:15	26.2	43.5
25951	2023-07-31T13:08:15	26.2	45
25952	2023-07-31T13:18:15	26	44
25953	2023-07-31T13:28:15	25.9	46
25954	2023-07-31T13:38:15	26	45
25955	2023-07-31T13:48:15	25.7	46
25956	2023-07-31T13:58:15	25.7	46
25957	2023-07-31T14:08:15	25.6	46.5
25958	2023-07-31T14:18:15	24.9	49
25959	2023-07-31T14:28:15	24.5	49
25960	2023-07-31T14:38:15	24.4	50.5
25961	2023-07-31T14:48:15	25.1	50
25962	2023-07-31T14:58:15	25.1	50
25963	2023-07-31T15:08:15	26.2	48
25964	2023-07-31T15:18:15	26.8	46.5
25965	2023-07-31T15:28:15	26.4	47.5
25966	2023-07-31T15:38:15	26	49
25967	2023-07-31T15:48:15	24.9	50.5
25968	2023-07-31T15:58:15	24.6	51
25969	2023-07-31T16:08:15	22.5	77.5
25970	2023-07-31T16:18:15	22.2	76
25971	2023-07-31T16:28:15	22.6	70
25972	2023-07-31T16:38:15	21.9	66
25973	2023-07-31T16:48:15	22.2	68
25974	2023-07-31T16:58:15	22.3	65
25975	2023-07-31T17:08:15	22.5	68.5
25976	2023-07-31T17:18:15	22.5	71.5
25977	2023-07-31T17:28:15	22.3	71
25978	2023-07-31T17:38:15	22.1	69.5
25979	2023-07-31T17:48:15	22.1	64.5
25980	2023-07-31T17:58:15	21.2	78.5
25981	2023-07-31T18:08:15	21.2	74.5
25982	2023-07-31T18:18:15	19.4	87
25983	2023-07-31T18:28:15	18.9	90.5
25984	2023-07-31T18:38:15	18.5	90.5
25985	2023-07-31T18:48:15	18.4	92.5
25986	2023-07-31T18:58:15	18.3	92.5
25987	2023-07-31T19:08:15	18.1	93
25988	2023-07-31T19:18:15	18.2	93
25989	2023-07-31T19:28:15	18.2	93.5
25990	2023-07-31T19:38:15	18.2	91.5
25991	2023-07-31T19:48:15	18.1	89.5
25992	2023-07-31T19:58:15	18.1	92
25993	2023-07-31T20:08:15	18	94
25994	2023-07-31T20:18:15	18	94
25995	2023-07-31T20:28:15	18.1	94
25996	2023-07-31T20:38:15	17.9	95
25997	2023-07-31T20:48:15	17.9	94.5
25998	2023-07-31T20:58:15	18.1	94.5
25999	2023-07-31T21:08:15	18	94
26000	2023-07-31T21:18:15	18.1	94
26001	2023-07-31T21:28:14	18.1	94
26002	2023-07-31T21:38:14	18.2	93.5
26003	2023-07-31T21:48:14	18.1	92
26004	2023-07-31T21:58:14	18.1	93
26005	2023-07-31T22:08:14	18.1	94
26006	2023-07-31T22:18:14	18	94
26007	2023-07-31T22:28:14	18.1	94
26008	2023-07-31T22:38:14	18	94.5
26009	2023-07-31T22:48:14	18	95
26010	2023-07-31T22:58:14	17.8	93.5
26011	2023-07-31T23:08:14	17.7	93.5
26012	2023-07-31T23:18:14	17.6	94.5
26013	2023-07-31T23:28:14	17.4	96
26014	2023-07-31T23:38:14	17.1	97.5
26015	2023-07-31T23:48:14	17.1	98
26016	2023-07-31T23:58:14	17.2	98.5
26017	2023-08-01T00:08:14	17.4	98.5
26018	2023-08-01T00:18:14	17.5	98.5
26019	2023-08-01T00:28:14	17.6	98.5
26020	2023-08-01T00:38:14	17.6	98.5
26021	2023-08-01T00:48:14	17.4	98.5
26022	2023-08-01T00:58:14	17	98.5
26023	2023-08-01T01:08:14	17	98.5
26024	2023-08-01T01:18:14	16.9	99
26025	2023-08-01T01:28:14	16.9	99
26026	2023-08-01T01:38:14	16.9	99
26027	2023-08-01T01:48:14	16.9	99
26028	2023-08-01T01:58:14	16.8	99
26029	2023-08-01T02:08:14	16.8	99
26030	2023-08-01T02:18:14	16.8	99
26031	2023-08-01T02:28:14	16.8	99
26032	2023-08-01T02:38:14	16.9	99
26033	2023-08-01T02:48:14	16.8	99
26034	2023-08-01T02:58:14	16.9	99
26035	2023-08-01T03:08:14	17	99
26036	2023-08-01T03:18:14	17	99
26037	2023-08-01T03:28:14	16.7	99.5
26038	2023-08-01T03:38:14	16.6	99.5
26039	2023-08-01T03:48:14	16.5	99.5
26040	2023-08-01T03:58:14	16.7	99.5
26041	2023-08-01T04:08:14	16.6	99.5
26042	2023-08-01T04:18:14	16.7	99.5
26043	2023-08-01T04:28:14	16.7	99.5
26044	2023-08-01T04:38:14	16.9	99.5
26045	2023-08-01T04:48:14	16.9	99.5
26046	2023-08-01T04:58:14	16.9	99.5
26047	2023-08-01T05:08:14	17	99.5
26048	2023-08-01T05:18:14	17.2	99.5
26049	2023-08-01T05:28:14	17.2	99.5
26050	2023-08-01T05:38:14	17	99.5
26051	2023-08-01T05:48:14	16.7	99.5
26052	2023-08-01T05:58:14	16.5	99.5
26053	2023-08-01T06:08:14	16.5	99.5
26054	2023-08-01T06:18:14	16.5	99.5
26055	2023-08-01T06:28:14	16.5	99.5
26056	2023-08-01T06:38:14	16.6	99.5
26057	2023-08-01T06:48:14	16.5	99.5
26058	2023-08-01T06:58:14	16.6	99.5
26059	2023-08-01T07:08:14	16.6	99.5
26060	2023-08-01T07:18:14	16.6	99.5
26061	2023-08-01T07:28:14	16.6	99.5
26062	2023-08-01T07:38:14	16.6	99.5
26063	2023-08-01T07:48:14	16.8	99
26064	2023-08-01T07:58:14	16.7	99
26065	2023-08-01T08:08:14	16.9	99
26066	2023-08-01T08:18:14	17.1	99
26067	2023-08-01T08:28:14	17.1	98.5
26068	2023-08-01T08:38:14	17	98.5
26069	2023-08-01T08:48:14	16.9	98.5
26070	2023-08-01T08:58:14	17	98.5
26071	2023-08-01T09:08:14	17.2	98.5
26072	2023-08-01T09:18:13	17.2	98.5
26073	2023-08-01T09:28:13	17.4	98.5
26074	2023-08-01T09:38:13	17.6	98
26075	2023-08-01T09:48:13	18.6	98
26076	2023-08-01T09:58:14	18.5	97.5
26077	2023-08-01T10:08:13	18.2	98
26078	2023-08-01T10:18:13	18.5	98
26079	2023-08-01T10:28:13	18.7	98
26080	2023-08-01T10:38:13	19.5	98
26081	2023-08-01T10:48:13	19.5	99
26082	2023-08-01T10:58:13	19.8	97.5
26083	2023-08-01T11:08:13	20	98
26084	2023-08-01T11:18:13	20	97
26085	2023-08-01T11:28:13	20.5	95
26086	2023-08-01T11:38:13	20.6	96
26087	2023-08-01T11:48:13	20.6	95
26088	2023-08-01T11:58:13	21.1	94.5
26089	2023-08-01T12:08:13	22	93.5
26090	2023-08-01T12:18:13	24.3	81
26091	2023-08-01T12:28:13	25.9	43
26092	2023-08-01T12:38:13	25.6	44.5
26093	2023-08-01T12:48:13	27.3	42.5
26094	2023-08-01T12:58:13	26.9	41
26095	2023-08-01T13:08:13	28.6	37
26096	2023-08-01T13:18:13	27.4	41
26097	2023-08-01T13:28:13	28.4	37
26098	2023-08-01T13:38:13	28.1	38.5
26099	2023-08-01T13:48:13	26.3	44
26100	2023-08-01T13:58:13	25.1	44.5
26101	2023-08-01T14:08:13	24.4	46.5
26102	2023-08-01T14:18:13	28.8	38.5
26103	2023-08-01T14:28:13	27.8	41.5
26104	2023-08-01T14:38:13	29.1	39
26105	2023-08-01T14:48:13	29.2	36
26106	2023-08-01T14:58:13	26.8	39
26107	2023-08-01T15:08:13	26.7	42
26108	2023-08-01T15:18:13	27	39.5
26109	2023-08-01T15:28:13	27.5	40
26110	2023-08-01T15:38:13	30.1	36.5
26111	2023-08-01T15:48:13	29.6	35
26112	2023-08-01T15:58:13	29	36
26113	2023-08-01T16:08:13	28.1	37.5
26114	2023-08-01T16:18:13	30	32.5
26115	2023-08-01T16:28:13	30	33.5
26116	2023-08-01T16:38:13	29.6	33
26117	2023-08-01T16:48:13	29.8	33.5
26118	2023-08-01T16:58:13	29.8	33.5
26119	2023-08-01T17:08:13	29.6	34.5
26120	2023-08-01T17:18:13	26.9	38.5
26121	2023-08-01T17:28:13	27	38.5
26122	2023-08-01T17:38:13	24.7	44
26123	2023-08-01T17:48:13	23.7	46.5
26124	2023-08-01T17:58:13	23.4	47.5
26125	2023-08-01T18:08:13	23.4	46.5
26126	2023-08-01T18:18:13	23	48.5
26127	2023-08-01T18:28:13	22.7	50
26128	2023-08-01T19:48:12	20.2	59.5
26129	2023-08-01T19:58:12	20	58.5
26130	2023-08-01T20:08:12	19.7	61.5
26131	2023-08-01T20:18:12	19.4	63.5
26132	2023-08-01T20:28:12	19	65
26133	2023-08-01T20:38:12	18.8	64.5
26134	2023-08-01T20:48:12	18.4	66
26135	2023-08-01T20:58:12	18.3	66.5
26136	2023-08-01T21:18:12	18	68
26137	2023-08-01T21:28:12	17.9	68
26138	2023-08-01T21:38:12	17.8	69
26139	2023-08-01T21:48:12	17.7	69
26140	2023-08-01T21:58:12	17.7	68.5
26141	2023-08-01T22:08:12	17.4	69
26142	2023-08-01T22:18:12	17.3	70
26143	2023-08-01T22:28:12	17.1	70.5
26144	2023-08-01T22:38:12	17.3	71
26145	2023-08-01T22:48:12	17.1	72
26146	2023-08-01T22:58:12	17.1	73
26147	2023-08-01T23:08:12	17.1	71.5
26148	2023-08-01T23:18:12	17	73
26149	2023-08-01T23:28:12	17.2	72
26150	2023-08-01T23:38:12	17.1	72
26151	2023-08-01T23:48:12	17	72.5
26152	2023-08-01T23:58:12	17	72.5
26153	2023-08-02T00:08:12	16.8	72.5
26154	2023-08-02T00:18:12	16.9	72
26155	2023-08-02T00:28:12	16.9	72.5
26156	2023-08-02T00:38:12	16.6	72.5
26157	2023-08-02T00:48:12	17	71.5
26158	2023-08-02T00:58:12	17.2	71
26159	2023-08-02T01:08:12	17.1	72.5
26160	2023-08-02T01:18:12	17	72.5
26161	2023-08-02T01:28:12	17.1	71.5
26162	2023-08-02T01:38:12	17.4	70
26163	2023-08-02T01:48:12	17.3	70.5
26164	2023-08-02T01:58:12	17.1	71
26165	2023-08-02T02:08:12	17.3	69.5
26166	2023-08-02T02:18:12	17.4	70.5
26167	2023-08-02T02:28:12	17.5	70.5
26168	2023-08-02T02:38:12	17.5	71
26169	2023-08-02T02:48:12	17.4	71
26170	2023-08-02T02:58:12	17.3	71.5
26171	2023-08-02T03:08:12	17.4	74
26172	2023-08-02T03:18:12	17.3	74.5
26173	2023-08-02T03:28:12	17.2	73.5
26174	2023-08-02T03:38:12	17.4	73.5
26175	2023-08-02T03:48:12	16.9	81.5
26176	2023-08-02T03:58:12	16.4	83.5
26177	2023-08-02T04:08:12	16.1	90
26178	2023-08-02T04:18:12	16	92.5
26179	2023-08-02T04:28:12	15.9	93
26180	2023-08-02T04:38:12	16	93.5
26181	2023-08-02T04:48:12	15.9	93
26182	2023-08-02T04:58:12	16	92.5
26183	2023-08-02T05:08:12	16.2	94
26184	2023-08-02T05:18:12	16.2	95.5
26185	2023-08-02T05:28:12	16.4	95.5
26186	2023-08-02T05:38:12	16.4	95.5
26187	2023-08-02T05:48:12	16.4	95.5
26188	2023-08-02T05:58:12	16.5	95
26189	2023-08-02T06:08:12	16.6	96
26190	2023-08-02T06:18:12	16.8	96
26191	2023-08-02T06:28:12	17.2	95
26192	2023-08-02T06:38:12	17.3	95
26193	2023-08-02T06:48:11	17.3	94.5
26194	2023-08-02T06:58:11	18	93
26195	2023-08-02T07:08:11	18.2	91.5
26196	2023-08-02T07:18:11	18.5	90.5
26197	2023-08-02T07:28:11	18.1	93
26198	2023-08-02T07:38:11	17.7	96
26199	2023-08-02T07:48:11	17.6	97
26200	2023-08-02T07:58:11	17.7	96.5
26201	2023-08-02T08:08:11	17.8	97
26202	2023-08-02T08:18:11	17.7	96.5
26203	2023-08-02T08:28:11	17.6	96.5
26204	2023-08-02T08:38:11	17.7	95
26205	2023-08-02T08:48:11	17.7	95.5
26206	2023-08-02T08:58:11	17.8	97.5
26207	2023-08-02T09:08:11	17.7	97.5
26208	2023-08-02T09:18:11	17.7	98.5
26209	2023-08-02T09:28:11	17.9	98.5
26210	2023-08-02T09:38:11	18	99
26211	2023-08-02T09:48:11	17.9	99
26212	2023-08-02T09:58:11	17.8	99
26213	2023-08-02T10:08:11	17.8	99
26214	2023-08-02T10:18:11	17.8	98.5
26215	2023-08-02T10:28:11	17.9	98.5
26216	2023-08-02T10:38:11	18.3	98.5
26217	2023-08-02T10:48:11	18.4	98.5
26218	2023-08-02T10:58:11	18.4	98
26219	2023-08-02T11:08:11	18.4	98
26220	2023-08-02T11:18:11	18.5	98
26221	2023-08-02T11:28:11	18.4	98
26222	2023-08-02T11:38:11	18.5	98
26223	2023-08-02T11:48:11	18.8	97.5
26224	2023-08-02T11:58:11	19.1	97.5
26225	2023-08-02T12:08:11	19.1	97.5
26226	2023-08-02T12:18:11	19.5	97
26227	2023-08-02T12:28:11	19.6	97
26228	2023-08-02T12:38:11	20	97
26229	2023-08-02T12:48:11	19.8	96.5
26230	2023-08-02T12:58:11	19.8	96.5
26231	2023-08-02T13:08:11	19.8	96.5
26232	2023-08-02T13:18:11	19.8	96.5
26233	2023-08-02T13:28:11	20.1	96.5
26234	2023-08-02T13:38:11	20.2	96.5
26235	2023-08-02T13:48:11	20.7	96.5
26236	2023-08-02T13:58:11	20.4	96.5
26237	2023-08-02T14:08:11	20.3	96.5
26238	2023-08-02T14:18:11	20.2	96.5
26239	2023-08-02T14:28:11	20.1	96.5
26240	2023-08-02T14:38:11	19.9	96.5
26241	2023-08-02T14:48:11	20	96.5
26242	2023-08-02T14:58:11	20.5	96.5
26243	2023-08-02T15:08:11	22.4	96.5
26244	2023-08-02T15:18:11	22.7	96.5
26245	2023-08-02T15:28:11	25	96.5
26246	2023-08-02T15:38:11	24.1	96.5
26247	2023-08-02T15:48:11	23.3	96.5
26248	2023-08-02T15:58:11	22.5	96.5
26249	2023-08-02T16:08:11	22.4	96.5
26250	2023-08-02T16:18:11	22.4	96.5
26251	2023-08-02T16:28:11	22.1	96.5
26252	2023-08-02T16:38:11	21.8	96.5
26253	2023-08-02T16:48:11	19.7	97
26254	2023-08-02T16:58:11	19.2	97
26255	2023-08-02T17:08:11	19.3	98
26256	2023-08-02T17:18:11	19.1	98.5
26257	2023-08-02T17:28:11	19.2	99
26258	2023-08-02T17:38:11	19.7	99
26259	2023-08-02T17:48:10	22.1	98
26260	2023-08-02T17:58:10	19.9	98
26261	2023-08-02T18:08:10	19.7	98
26262	2023-08-02T18:18:10	19.4	98
26263	2023-08-02T18:28:10	19.2	98
26264	2023-08-02T18:38:10	19.2	98
26265	2023-08-02T18:48:10	19.2	98
26266	2023-08-02T18:58:10	19.4	99
26267	2023-08-02T19:08:10	18.6	99
26268	2023-08-02T19:18:10	18.2	99.5
26269	2023-08-02T19:28:10	18.2	99.5
26270	2023-08-02T19:38:10	18.2	99.5
26271	2023-08-02T19:48:10	18.3	99.5
26272	2023-08-02T19:58:10	18	99.5
26273	2023-08-02T20:08:10	17.8	99.5
26274	2023-08-02T20:18:10	17.7	99.5
26275	2023-08-02T20:28:10	17.7	99.5
26276	2023-08-02T20:38:10	17.8	99.5
26277	2023-08-02T20:48:10	17.9	99.5
26278	2023-08-02T20:58:10	17.8	99.5
26279	2023-08-02T21:08:10	17.9	99.5
26280	2023-08-02T21:18:10	17.7	99.5
26281	2023-08-02T21:28:10	17.8	99.5
26282	2023-08-02T21:38:10	17.7	99.5
26283	2023-08-02T21:48:10	17.6	99.5
26284	2023-08-02T21:58:10	17.9	99
26285	2023-08-02T22:08:10	18	99
26286	2023-08-02T22:18:10	17.8	98.5
26287	2023-08-02T22:28:10	18	98.5
26288	2023-08-02T22:38:10	18.1	96.5
26289	2023-08-02T22:48:10	18.3	95.5
26290	2023-08-02T22:58:10	18	96.5
26291	2023-08-02T23:08:10	18.2	96.5
26292	2023-08-02T23:18:10	18.5	96.5
26293	2023-08-02T23:28:10	18.3	96
26294	2023-08-02T23:38:10	18.6	95
26295	2023-08-02T23:48:10	18.8	93.5
26296	2023-08-02T23:58:10	19	71
26297	2023-08-03T00:08:10	19	70
26298	2023-08-03T00:18:10	18.9	70.5
26299	2023-08-03T00:28:10	19.1	67.5
26300	2023-08-03T00:38:10	19.1	68.5
26301	2023-08-03T00:48:10	19.1	68
26302	2023-08-03T00:58:10	19.2	67.5
26303	2023-08-03T01:08:10	19.1	70
26304	2023-08-03T01:18:10	19.2	69
26305	2023-08-03T01:28:10	19.3	67.5
26306	2023-08-03T01:38:10	19.4	66.5
26307	2023-08-03T01:48:10	19.3	66.5
26308	2023-08-03T01:58:10	19.3	65.5
26309	2023-08-03T02:08:10	19.2	63.5
26310	2023-08-03T02:18:10	16	93
26311	2023-08-03T02:28:10	15.6	96
26312	2023-08-03T02:38:10	15.4	96.5
26313	2023-08-03T02:48:10	15.3	97
26314	2023-08-03T02:58:10	15.5	97.5
26315	2023-08-03T03:08:10	15.6	97.5
26316	2023-08-03T03:18:10	15.7	97.5
26317	2023-08-03T03:28:10	15.8	97
26318	2023-08-03T03:38:10	16.1	96
26319	2023-08-03T03:48:10	16.4	96
26320	2023-08-03T03:58:10	16.5	92.5
26321	2023-08-03T04:08:10	16.8	91.5
26322	2023-08-03T04:18:10	16.9	91.5
26323	2023-08-03T04:28:10	17	89
26324	2023-08-03T04:38:09	17.1	86.5
26325	2023-08-03T04:48:09	17.2	86.5
26326	2023-08-03T04:58:09	17.1	85.5
26327	2023-08-03T05:08:09	17.6	74.5
26328	2023-08-03T05:18:09	17.6	73
26329	2023-08-03T05:28:09	17.3	74
26330	2023-08-03T05:38:09	16.9	78.5
26331	2023-08-03T05:48:09	17.1	78
26332	2023-08-03T05:58:09	17.4	76
26333	2023-08-03T06:08:09	17.2	75.5
26334	2023-08-03T06:18:09	17.3	77.5
26335	2023-08-03T06:28:09	17.6	77
26336	2023-08-03T06:38:09	17.6	76.5
26337	2023-08-03T06:48:09	17.8	74.5
26338	2023-08-03T06:58:09	17.9	71
26339	2023-08-03T07:08:09	18	70.5
26340	2023-08-03T07:18:09	18.1	70.5
26341	2023-08-03T07:28:09	18.3	69
26342	2023-08-03T07:38:09	18.7	68.5
26343	2023-08-03T07:48:09	18.9	66
26344	2023-08-03T07:58:09	18.8	65
26345	2023-08-03T08:08:09	18.7	67
26346	2023-08-03T08:18:09	18.3	70
26347	2023-08-03T08:28:09	18.2	70
26348	2023-08-03T08:38:09	18.1	71
26349	2023-08-03T08:48:09	18	70
26350	2023-08-03T08:58:09	18	71
26351	2023-08-03T09:08:09	17.7	73
26352	2023-08-03T09:18:09	16.5	85.5
26353	2023-08-03T09:28:09	16.7	80.5
26354	2023-08-03T09:38:09	16.9	79
26355	2023-08-03T09:48:09	17.4	77
26356	2023-08-03T09:58:09	17.4	81
26357	2023-08-03T10:08:09	17.2	80.5
26358	2023-08-03T10:18:09	17	84
26359	2023-08-03T10:28:09	17.3	79
26360	2023-08-03T10:38:09	18	75
26361	2023-08-03T10:48:09	18.4	74
26362	2023-08-03T10:58:09	19.3	72.5
26363	2023-08-03T11:08:09	19.7	70
26364	2023-08-03T11:18:09	19	81
26365	2023-08-03T11:28:09	19.6	71.5
26366	2023-08-03T11:38:09	20	76.5
26367	2023-08-03T11:48:09	17.9	87
26368	2023-08-03T11:58:09	18.5	80.5
26369	2023-08-03T12:08:09	19.1	74
26370	2023-08-03T12:18:09	19.5	72
26371	2023-08-03T12:28:09	20.2	69
26372	2023-08-03T12:38:09	20.8	66
26373	2023-08-03T12:48:09	20.6	64.5
26374	2023-08-03T12:58:09	21	63.5
26375	2023-08-03T13:08:09	23.4	58
26376	2023-08-03T13:18:09	23.3	58.5
26377	2023-08-03T13:28:09	26.1	52.5
26378	2023-08-03T13:38:09	26.3	48
26379	2023-08-03T13:48:09	25.7	49
26380	2023-08-03T13:58:09	26.6	45
26381	2023-08-03T14:08:09	25.3	48.5
26382	2023-08-03T14:18:09	25.1	49.5
26383	2023-08-03T14:28:09	26.9	45
26384	2023-08-03T14:38:09	25.1	49.5
26385	2023-08-03T14:48:09	28.9	39
26386	2023-08-03T14:58:09	28	40.5
26387	2023-08-03T15:08:09	24.5	49.5
26388	2023-08-03T15:18:09	28.2	40.5
26389	2023-08-03T15:28:09	24.6	47.5
26390	2023-08-03T15:38:09	26.2	44.5
26391	2023-08-03T15:48:08	29.5	37.5
26392	2023-08-03T15:58:08	26.2	44.5
26393	2023-08-03T16:08:08	25.1	47.5
26394	2023-08-03T16:18:08	23.3	52
26395	2023-08-03T16:28:08	22.1	57
26396	2023-08-03T16:38:08	22.8	54.5
26397	2023-08-03T16:48:08	22.4	56.5
26398	2023-08-03T16:58:08	26.4	47.5
26399	2023-08-03T17:08:08	27.6	45
26400	2023-08-03T17:18:08	28.1	44.5
26401	2023-08-03T17:28:08	25.8	50.5
26402	2023-08-03T17:38:08	22.5	58
26403	2023-08-03T17:48:08	21.5	62.5
26404	2023-08-03T17:58:08	21.2	63.5
26405	2023-08-03T18:08:08	20.9	65.5
26406	2023-08-03T18:18:08	20.4	67.5
26407	2023-08-03T18:28:08	20.2	69.5
26408	2023-08-03T18:38:08	20.1	70.5
26409	2023-08-03T18:48:08	19.7	73
26410	2023-08-03T18:58:08	19.4	72.5
26411	2023-08-03T19:08:08	19	73
26412	2023-08-03T19:18:08	18.5	73
26413	2023-08-03T19:28:08	18.3	74
26414	2023-08-03T19:38:08	18	74.5
26415	2023-08-03T19:48:08	17.8	75
26416	2023-08-03T19:58:08	17.8	76
26417	2023-08-03T20:08:08	17.7	77
26418	2023-08-03T20:18:08	17.4	78
26419	2023-08-03T20:38:08	17.2	77
26420	2023-08-03T20:48:08	17	77.5
26421	2023-08-03T20:58:08	17.1	78.5
26422	2023-08-03T21:08:08	16.8	83
26423	2023-08-03T21:18:08	16.7	84.5
26424	2023-08-03T21:28:08	16.6	84
26425	2023-08-03T21:38:08	16.4	86.5
26426	2023-08-03T21:48:08	16.8	82.5
26427	2023-08-03T21:58:08	16.8	82
26428	2023-08-03T22:08:08	16.5	83
26429	2023-08-03T22:18:08	16.4	84
26430	2023-08-03T22:28:08	16.5	84
26431	2023-08-03T22:38:08	16.4	84
26432	2023-08-03T22:48:08	16.2	85
26433	2023-08-03T22:58:08	16.2	88
26434	2023-08-03T23:08:08	16.2	86
26435	2023-08-03T23:18:08	16.1	87.5
26436	2023-08-03T23:28:08	15.9	89.5
26437	2023-08-03T23:38:08	15.5	89.5
26438	2023-08-03T23:48:08	15.5	91
26439	2023-08-03T23:58:08	15.7	89.5
26440	2023-08-04T00:08:08	15.4	88
26441	2023-08-04T00:18:08	15.5	88
26442	2023-08-04T00:28:08	15.7	89.5
26443	2023-08-04T00:38:08	15.7	90.5
26444	2023-08-04T00:48:08	15.8	90.5
26445	2023-08-04T00:58:08	15.9	90
26446	2023-08-04T01:08:08	15.9	90.5
26447	2023-08-04T01:18:08	16.1	89
26448	2023-08-04T01:28:08	15.9	90
26449	2023-08-04T01:38:08	16	89
26450	2023-08-04T01:48:08	15.9	91
26451	2023-08-04T01:58:08	15.8	91.5
26452	2023-08-04T02:08:08	15.9	91.5
26453	2023-08-04T02:18:08	15.8	91.5
26454	2023-08-04T02:28:08	15.8	91
26455	2023-08-04T02:38:08	15.8	90.5
26456	2023-08-04T02:48:08	15.8	91.5
26457	2023-08-04T02:58:07	15.9	92
26458	2023-08-04T03:08:08	15.8	92
26459	2023-08-04T03:18:08	15.6	91
26460	2023-08-04T03:28:07	15.6	92
26461	2023-08-04T03:38:07	15.6	93
26462	2023-08-04T03:48:07	15.6	94.5
26463	2023-08-04T03:58:07	15.4	94.5
26464	2023-08-04T04:08:07	14.9	97
26465	2023-08-04T04:18:07	14.8	97.5
26466	2023-08-04T04:28:07	14.9	98
26467	2023-08-04T04:38:07	14.8	98
26468	2023-08-04T04:48:07	14.7	98.5
26469	2023-08-04T04:58:07	14.8	98.5
26470	2023-08-04T05:08:07	14.8	98.5
26471	2023-08-04T05:18:07	14.8	98.5
26472	2023-08-04T05:28:07	14.8	98.5
26473	2023-08-04T05:38:07	14.9	98.5
26474	2023-08-04T05:48:07	15.2	99
26475	2023-08-04T05:58:07	15.2	99
26476	2023-08-04T06:08:07	15.2	99
26477	2023-08-04T06:18:07	15.2	99
26478	2023-08-04T06:28:07	15.4	99
26479	2023-08-04T06:38:07	15.5	99
26480	2023-08-04T06:48:07	15.9	99
26481	2023-08-04T06:58:07	16.1	98.5
26482	2023-08-04T07:08:07	16.1	98.5
26483	2023-08-04T07:18:07	16.5	98.5
26484	2023-08-04T07:28:07	16.6	98.5
26485	2023-08-04T07:38:07	16.5	98.5
26486	2023-08-04T07:48:07	16.7	98.5
26487	2023-08-04T07:58:07	16.6	98.5
26488	2023-08-04T08:08:07	17	98.5
26489	2023-08-04T08:18:07	17.5	98.5
26490	2023-08-04T08:28:07	17.5	98.5
26491	2023-08-04T08:38:07	17.9	98.5
26492	2023-08-04T08:48:07	18.3	98.5
26493	2023-08-04T08:58:07	18.3	98.5
26494	2023-08-04T09:08:07	18.4	95.5
26495	2023-08-04T09:18:07	18.4	93
26496	2023-08-04T09:28:07	18.4	91.5
26497	2023-08-04T09:38:07	18.3	92.5
26498	2023-08-04T09:48:07	18.7	84.5
26499	2023-08-04T09:58:07	19.3	83
26500	2023-08-04T10:08:07	19.6	83
26501	2023-08-04T10:18:07	19.6	82.5
26502	2023-08-04T10:28:07	19.4	81
26503	2023-08-04T10:38:07	19.9	81
26504	2023-08-04T10:48:07	20.1	81.5
26505	2023-08-04T10:58:07	21.3	77.5
26506	2023-08-04T11:08:07	20.8	77.5
26507	2023-08-04T11:18:07	20.3	77.5
26508	2023-08-04T11:28:07	20.3	78
26509	2023-08-04T11:38:07	20.1	77.5
26510	2023-08-04T11:48:07	19.9	78.5
26511	2023-08-04T11:58:07	19.8	79
26512	2023-08-04T12:08:07	19.7	80
26513	2023-08-04T12:18:07	20.5	75
26514	2023-08-04T12:28:07	20.5	73.5
26515	2023-08-04T12:38:07	20.8	72
26516	2023-08-04T12:48:07	20.8	72
26517	2023-08-04T12:58:07	21	72.5
26518	2023-08-04T13:08:07	20.1	75
26519	2023-08-04T13:18:07	19.9	75.5
26520	2023-08-04T13:28:07	20.4	76.5
26521	2023-08-04T13:38:07	20.7	77
26522	2023-08-04T13:48:07	20.7	74
26523	2023-08-04T13:58:07	20.8	75.5
26524	2023-08-04T14:08:07	21.4	71.5
26525	2023-08-04T14:18:07	22.6	70
26526	2023-08-04T14:28:07	22.9	64
26527	2023-08-04T14:38:06	22.8	66.5
26528	2023-08-04T14:48:06	22.2	65
26529	2023-08-04T14:58:07	21.3	71.5
26530	2023-08-04T15:08:06	20.8	74
26531	2023-08-04T15:18:06	20.7	75
26532	2023-08-04T15:28:06	20.6	71
26533	2023-08-04T15:48:06	18.8	83.5
26534	2023-08-04T16:08:06	17.9	89.5
26535	2023-08-04T16:18:06	17.5	94
26536	2023-08-04T16:28:06	17.3	95.5
26537	2023-08-04T16:38:06	16.9	96
26538	2023-08-04T16:48:06	16.8	96
26539	2023-08-04T16:58:06	16.6	97
26540	2023-08-04T17:08:06	16.3	97
26541	2023-08-04T17:18:06	16	97.5
26542	2023-08-04T17:28:06	15.7	97.5
26543	2023-08-04T17:38:06	15.7	98
26544	2023-08-04T17:48:06	15.7	98
26545	2023-08-04T17:58:06	15.6	98
26546	2023-08-04T18:08:06	15.7	98.5
26547	2023-08-04T18:18:06	15.7	98.5
26548	2023-08-04T18:28:06	15.4	98.5
26549	2023-08-04T18:38:06	15.3	98.5
26550	2023-08-04T18:48:06	15.3	98.5
26551	2023-08-04T18:58:06	15.4	98.5
26552	2023-08-04T19:08:06	15.3	98.5
26553	2023-08-04T19:18:06	15.3	98.5
26554	2023-08-04T19:28:06	15.2	98.5
26555	2023-08-04T19:38:06	15.2	98.5
26556	2023-08-04T19:48:06	15.1	99
26557	2023-08-04T19:58:06	15.1	99
26558	2023-08-04T20:08:06	15.1	99
26559	2023-08-04T20:18:06	15.1	99
26560	2023-08-04T20:28:06	15.2	99
26561	2023-08-04T20:38:06	15.1	99
26562	2023-08-04T20:48:06	15.1	99
26563	2023-08-04T20:58:06	15	99
26564	2023-08-04T21:08:06	15.1	99
26565	2023-08-04T21:18:06	15	99
26566	2023-08-04T21:28:06	14.9	99
26567	2023-08-04T21:38:06	14.9	99
26568	2023-08-04T21:48:06	15	99
26569	2023-08-04T21:58:06	14.9	99
26570	2023-08-04T22:08:06	14.9	99
26571	2023-08-04T22:18:06	14.9	99.5
26572	2023-08-04T22:28:06	14.9	99
26573	2023-08-04T22:38:06	14.8	99.5
26574	2023-08-04T22:48:06	14.7	99
26575	2023-08-04T22:58:06	14.7	99.5
26576	2023-08-04T23:08:06	14.8	99.5
26577	2023-08-04T23:18:06	14.7	99
26578	2023-08-04T23:28:06	14.6	99.5
26579	2023-08-04T23:38:06	14.7	99.5
26580	2023-08-04T23:48:06	14.6	99.5
26581	2023-08-04T23:58:06	14.7	99.5
26582	2023-08-05T00:08:06	14.7	99.5
26583	2023-08-05T00:18:06	14.6	99.5
26584	2023-08-05T00:28:06	14.5	99.5
26585	2023-08-05T00:38:06	14.6	99.5
26586	2023-08-05T00:48:06	14.5	99.5
26587	2023-08-05T00:58:06	14.4	99.5
26588	2023-08-05T01:08:06	14.1	99.5
26589	2023-08-05T01:18:06	14	99
26590	2023-08-05T01:28:06	13.9	99.5
26591	2023-08-05T01:38:06	13.8	99
26592	2023-08-05T01:48:06	13.6	99
26593	2023-08-05T01:58:06	13.4	99
26594	2023-08-05T02:08:06	13.4	99
26595	2023-08-05T02:18:06	13.3	99
26596	2023-08-05T02:28:05	13	99
26597	2023-08-05T02:38:05	12.9	99
26598	2023-08-05T02:48:05	12.8	99
26599	2023-08-05T02:58:05	12.7	99
26600	2023-08-05T03:08:05	12.7	99.5
26601	2023-08-05T03:18:05	12.5	99
26602	2023-08-05T03:28:05	12.5	99.5
26603	2023-08-05T03:38:05	12.5	99.5
26604	2023-08-05T03:48:24	12.3	99.5
26605	2023-08-05T03:58:05	12.3	99.5
26606	2023-08-05T04:08:05	12.3	99.5
26607	2023-08-05T04:18:05	12.3	99.5
26608	2023-08-05T04:28:05	12.2	99.5
26609	2023-08-05T04:38:05	12.1	99.5
26610	2023-08-05T04:48:05	12.3	99.5
26611	2023-08-05T04:58:05	12.4	99.5
26612	2023-08-05T05:08:05	12.4	99.5
26613	2023-08-05T05:18:05	12.4	100
26614	2023-08-05T05:28:05	12.6	100
26615	2023-08-05T05:38:05	12.7	100
26616	2023-08-05T05:48:05	12.9	100
26617	2023-08-05T05:58:05	13.5	100
26618	2023-08-05T06:08:05	13.7	100
26619	2023-08-05T06:18:05	13.9	100
26620	2023-08-05T06:28:05	14.1	100
26621	2023-08-05T06:38:05	14.2	99.5
26622	2023-08-05T06:48:05	14.4	100
26623	2023-08-05T06:58:05	14.5	99.5
26624	2023-08-05T07:08:05	14.6	99.5
26625	2023-08-05T07:18:05	14.9	99.5
26626	2023-08-05T07:28:05	15.3	99.5
26627	2023-08-05T07:38:05	15.3	99.5
26628	2023-08-05T07:48:05	15.4	98.5
26629	2023-08-05T07:58:05	16	96.5
26630	2023-08-05T08:08:05	16.5	92.5
26631	2023-08-05T08:18:05	16.1	91
26632	2023-08-05T08:28:05	17	88
26633	2023-08-05T08:38:05	17.1	86
26634	2023-08-05T08:48:05	17.1	85
26635	2023-08-05T08:58:05	17.8	84.5
26636	2023-08-05T09:08:05	17.2	85.5
26637	2023-08-05T09:18:05	17.6	82.5
26638	2023-08-05T09:28:05	18.1	80.5
26639	2023-08-05T09:38:05	17.8	79.5
26640	2023-08-05T09:48:05	18.8	78.5
26641	2023-08-05T09:58:05	18.7	79
26642	2023-08-05T10:08:05	18.8	77.5
26643	2023-08-05T10:18:05	18.6	76
26644	2023-08-05T10:28:05	18.8	76
26645	2023-08-05T10:38:05	19.3	74
26646	2023-08-05T10:48:05	19.4	72
26647	2023-08-05T10:58:05	19.6	70.5
26648	2023-08-05T11:08:05	19.9	68
26649	2023-08-05T11:18:05	19.9	66.5
26650	2023-08-05T11:28:05	20.3	67.5
26651	2023-08-05T11:38:05	20.6	64
26652	2023-08-05T11:48:05	20.9	63
26653	2023-08-05T11:58:05	21.5	63.5
26654	2023-08-05T12:08:05	21.9	59.5
26655	2023-08-05T12:18:05	24	55
26656	2023-08-05T12:28:05	27.3	42.5
26657	2023-08-05T12:38:05	26.6	44
26658	2023-08-05T12:48:05	28.8	37
26659	2023-08-05T12:58:05	30	35
26660	2023-08-05T13:08:05	31.7	32.5
26661	2023-08-05T13:18:05	31.5	33
26662	2023-08-05T13:28:05	32.4	32
26663	2023-08-05T13:38:05	33.6	30.5
26664	2023-08-05T13:48:05	33.3	30.5
26665	2023-08-05T13:58:05	34.3	30.5
26666	2023-08-05T14:08:05	32.9	31
26667	2023-08-05T14:18:04	32	35
26668	2023-08-05T14:28:04	28.1	42
26669	2023-08-05T14:38:04	26.5	45.5
26670	2023-08-05T14:48:04	26.9	43.5
26671	2023-08-05T14:58:04	25.1	44.5
26672	2023-08-05T15:08:04	24.6	46.5
26673	2023-08-05T15:18:04	24.1	47
26674	2023-08-05T15:28:04	24.7	45
26675	2023-08-05T15:38:04	26.9	42.5
26676	2023-08-05T15:48:04	29.1	38
26677	2023-08-05T15:58:04	29.9	36
26678	2023-08-05T16:08:04	30.1	36.5
26679	2023-08-05T16:18:04	25.8	45.5
26680	2023-08-05T16:28:04	24.2	49.5
26681	2023-08-05T16:38:04	23.5	51.5
26682	2023-08-05T16:48:04	23.1	52.5
26683	2023-08-05T16:58:04	22.9	54
26684	2023-08-05T17:08:04	22.4	54.5
26685	2023-08-05T17:18:05	22.1	57.5
26686	2023-08-05T17:28:04	21.9	60.5
26687	2023-08-05T17:38:04	21.9	66
26688	2023-08-05T17:48:04	21.7	70.5
26689	2023-08-05T17:58:04	21.7	71.5
26690	2023-08-05T18:08:04	21.3	71
26691	2023-08-05T18:18:04	21.1	71.5
26692	2023-08-05T18:28:04	21.1	75
26693	2023-08-05T18:38:04	21	75.5
26694	2023-08-05T18:48:04	20.8	74.5
26695	2023-08-05T18:58:04	20.4	70.5
26696	2023-08-05T19:08:04	20	72.5
26697	2023-08-05T19:18:04	19.5	77
26698	2023-08-05T19:28:04	19.2	78.5
26699	2023-08-05T19:38:04	18.9	80
26700	2023-08-05T19:48:04	17.8	93
26701	2023-08-05T19:58:04	17.4	95.5
26702	2023-08-05T20:08:04	17.1	96
26703	2023-08-05T20:18:04	17.1	96.5
26704	2023-08-05T20:28:04	16.7	96.5
26705	2023-08-05T20:38:04	16.4	97
26706	2023-08-05T20:48:04	16.6	97.5
26707	2023-08-05T20:58:04	16.2	97
26708	2023-08-05T21:08:04	16	97.5
26709	2023-08-05T21:18:04	15.9	97.5
26710	2023-08-05T21:28:04	15.9	98
26711	2023-08-05T21:38:05	15.8	98
26712	2023-08-05T21:48:04	15.9	98
26713	2023-08-05T21:58:04	16.1	98.5
26714	2023-08-05T22:08:04	15.7	98
26715	2023-08-05T22:18:04	15.5	98
26716	2023-08-05T22:28:04	15.5	98.5
26717	2023-08-05T22:38:04	15.5	98
26718	2023-08-05T22:48:04	15.4	98.5
26719	2023-08-05T22:58:04	15.2	98.5
26720	2023-08-05T23:08:04	15.2	98.5
26721	2023-08-05T23:18:04	15.1	98.5
26722	2023-08-05T23:28:04	15.2	98.5
26723	2023-08-05T23:38:04	15.4	99
26724	2023-08-05T23:48:04	15.3	99
26725	2023-08-05T23:58:04	15.1	98.5
26726	2023-08-06T00:08:04	15	98.5
26727	2023-08-06T00:18:04	15.1	99
26728	2023-08-06T00:28:04	14.9	98.5
26729	2023-08-06T00:38:04	14.9	98.5
26730	2023-08-06T00:48:04	14.8	98.5
26731	2023-08-06T00:58:04	15	98.5
26732	2023-08-06T01:08:04	15	98.5
26733	2023-08-06T01:18:03	15.1	99
26734	2023-08-06T01:28:04	15.2	98.5
26735	2023-08-06T01:38:03	15.2	98.5
26736	2023-08-06T01:48:03	15.4	98.5
26737	2023-08-06T01:58:03	15.3	98.5
26738	2023-08-06T02:08:03	15.4	98.5
26739	2023-08-06T02:18:03	15.1	98.5
26740	2023-08-06T02:28:03	15.1	98.5
26741	2023-08-06T02:38:03	14.9	98.5
26742	2023-08-06T02:48:03	14.7	99
26743	2023-08-06T02:58:03	14.5	99
26744	2023-08-06T03:08:03	14.5	99
26745	2023-08-06T03:18:03	14.2	99
26746	2023-08-06T03:28:03	14.2	98.5
26747	2023-08-06T03:38:04	14.4	98.5
26748	2023-08-06T03:48:03	14.2	99
26749	2023-08-06T03:58:03	14.3	98.5
26750	2023-08-06T04:08:04	14.3	98.5
26751	2023-08-06T04:18:03	14.1	99
26752	2023-08-06T04:28:03	14.1	99
26753	2023-08-06T04:38:03	13.8	99.5
26754	2023-08-06T04:48:03	13.9	99.5
26755	2023-08-06T04:58:03	13.9	99.5
26756	2023-08-06T05:08:03	13.9	99.5
26757	2023-08-06T05:18:03	13.9	99.5
26758	2023-08-06T05:28:03	13.9	99.5
26759	2023-08-06T05:38:03	13.9	99.5
26760	2023-08-06T05:48:03	13.9	99.5
26761	2023-08-06T05:58:03	13.9	99.5
26762	2023-08-06T06:08:03	14.1	99.5
26763	2023-08-06T06:18:03	14.1	99.5
26764	2023-08-06T06:28:03	13.8	99
26765	2023-08-06T06:38:03	13.7	99.5
26766	2023-08-06T06:48:03	13.7	99.5
26767	2023-08-06T06:58:03	13.8	100
26768	2023-08-06T07:08:03	13.9	100
26769	2023-08-06T07:18:03	14.2	100
26770	2023-08-06T07:28:03	14.5	100
26771	2023-08-06T07:38:03	14.2	100
26772	2023-08-06T07:48:03	14	100
26773	2023-08-06T07:58:03	14.1	100
26774	2023-08-06T08:08:03	13.9	100
26775	2023-08-06T08:18:03	13.9	100
26776	2023-08-06T08:28:03	13.9	100
26777	2023-08-06T08:38:03	13.9	100
26778	2023-08-06T08:48:03	13.8	100
26779	2023-08-06T08:58:03	13.8	100
26780	2023-08-06T09:08:03	14	100
26781	2023-08-06T09:18:03	14	100
26782	2023-08-06T09:28:03	14	100
26783	2023-08-06T09:38:03	14.4	100
26784	2023-08-06T09:48:03	14.2	99.5
26785	2023-08-06T09:58:03	14.3	99.5
26786	2023-08-06T10:08:03	14.2	99.5
26787	2023-08-06T10:18:03	14.1	99.5
26788	2023-08-06T10:28:03	14.1	99.5
26789	2023-08-06T10:38:03	14.3	99.5
26790	2023-08-06T10:48:03	14.3	99.5
26791	2023-08-06T10:58:03	14.2	99.5
26792	2023-08-06T11:08:03	14.2	99.5
26793	2023-08-06T11:18:03	14.3	99.5
26794	2023-08-06T11:28:03	14.3	99.5
26795	2023-08-06T11:38:03	14.6	99.5
26796	2023-08-06T11:48:03	15	99.5
26797	2023-08-06T11:58:03	14.9	99
26798	2023-08-06T12:08:03	15	99
26799	2023-08-06T12:18:03	14.9	99
26800	2023-08-06T12:28:03	15.4	99
26801	2023-08-06T12:38:03	15.7	98.5
26802	2023-08-06T12:48:03	15.4	98.5
26803	2023-08-06T12:58:03	16	98.5
26804	2023-08-06T13:08:03	16.6	98.5
26805	2023-08-06T13:18:03	17	95.5
26806	2023-08-06T13:28:03	17.8	97
26807	2023-08-06T13:38:03	17.7	97
26808	2023-08-06T13:48:03	18	97.5
26809	2023-08-06T13:58:03	18.3	70.5
26810	2023-08-06T14:08:02	18.5	67.5
26811	2023-08-06T14:18:02	19.2	65
26812	2023-08-06T14:28:02	18.9	62.5
26813	2023-08-06T14:38:02	18	67
26814	2023-08-06T14:48:02	17.7	66.5
26815	2023-08-06T14:58:02	17.5	67.5
26816	2023-08-06T15:08:02	17.5	68.5
26817	2023-08-06T15:18:02	16	91.5
26818	2023-08-06T15:28:02	16.3	94.5
26819	2023-08-06T15:38:02	18.8	84.5
26820	2023-08-06T15:48:02	17.8	78.5
26821	2023-08-06T15:58:02	17.1	76
26822	2023-08-06T16:08:02	16.4	79.5
26823	2023-08-06T16:18:02	14.8	92.5
26824	2023-08-06T16:28:02	14.2	96
26825	2023-08-06T16:38:02	14.2	96
26826	2023-08-06T16:48:02	14.8	91.5
26827	2023-08-06T16:58:02	15	84
26828	2023-08-06T17:08:02	15.1	82
26829	2023-08-06T17:18:02	15.3	78.5
26830	2023-08-06T17:28:02	15.3	77
26831	2023-08-06T17:38:02	15.4	78
26832	2023-08-06T17:48:02	15.5	77.5
26833	2023-08-06T17:58:02	15.5	75.5
26834	2023-08-06T18:08:02	15.7	76
26835	2023-08-06T18:18:02	16	74
26836	2023-08-06T18:28:02	15.9	74.5
26837	2023-08-06T18:38:02	15.6	74
26838	2023-08-06T18:48:02	15.7	72
26839	2023-08-06T18:58:02	15.7	71
26840	2023-08-06T19:08:02	15.5	71.5
26841	2023-08-06T19:18:02	15.4	70
26842	2023-08-06T19:28:02	15.3	71
26843	2023-08-06T19:38:02	15.1	71
26844	2023-08-06T19:48:02	15	72.5
26845	2023-08-06T19:58:02	13.4	90
26846	2023-08-06T20:08:02	12.9	96
26847	2023-08-06T20:18:02	12.6	97
26848	2023-08-06T20:28:02	12.5	97.5
26849	2023-08-06T20:38:02	12.3	98
26850	2023-08-06T20:48:02	12.1	98
26851	2023-08-06T20:58:02	12.1	98
26852	2023-08-06T21:08:02	12.2	98.5
26853	2023-08-06T21:18:02	12.2	98.5
26854	2023-08-06T21:28:02	12.2	98.5
26855	2023-08-06T21:38:02	12.2	99
26856	2023-08-06T21:48:02	12.2	98.5
26857	2023-08-06T21:58:02	12.2	99
26858	2023-08-06T22:08:02	12.1	99
26859	2023-08-06T22:18:02	12.3	98.5
26860	2023-08-06T22:28:02	12.3	99
26861	2023-08-06T22:38:02	12.5	98.5
26862	2023-08-06T22:48:02	12.5	98.5
26863	2023-08-06T22:58:02	12.6	98.5
26864	2023-08-06T23:08:02	12.6	98.5
26865	2023-08-06T23:18:02	12.6	98.5
26866	2023-08-06T23:28:02	12.6	98.5
26867	2023-08-06T23:38:02	12.6	98.5
26868	2023-08-06T23:48:02	12.6	98.5
26869	2023-08-06T23:58:02	12.5	98.5
26870	2023-08-07T00:08:02	12.7	98.5
26871	2023-08-07T00:18:02	12.6	98.5
26872	2023-08-07T00:28:02	12.7	98.5
26873	2023-08-07T00:38:02	12.5	98.5
26874	2023-08-07T00:48:02	12.6	98.5
26875	2023-08-07T00:58:02	12.4	98.5
26876	2023-08-07T01:08:02	12.3	98.5
26877	2023-08-07T01:18:02	12.4	98.5
26878	2023-08-07T01:28:02	12.5	98
26879	2023-08-07T01:38:02	12.6	98.5
26880	2023-08-07T01:48:02	12.5	98.5
26881	2023-08-07T01:58:02	12.4	98
26882	2023-08-07T02:08:02	12.1	97.5
26883	2023-08-07T02:18:02	12	98
26884	2023-08-07T02:28:02	11.8	98
26885	2023-08-07T02:38:02	11.8	98
26886	2023-08-07T02:48:02	11.8	98
26887	2023-08-07T02:58:01	11.6	98
26888	2023-08-07T03:08:01	11.6	98
26889	2023-08-07T03:18:01	11.6	98
26890	2023-08-07T03:28:01	11.5	98
26891	2023-08-07T03:38:01	11.5	98
26892	2023-08-07T03:48:01	11.9	98
26893	2023-08-07T03:58:01	12.1	98
26894	2023-08-07T04:08:01	12.1	98
26895	2023-08-07T04:18:01	12.2	97.5
26896	2023-08-07T04:28:01	12.3	97.5
26897	2023-08-07T04:38:01	12.4	97.5
26898	2023-08-07T04:48:01	12.4	97
26899	2023-08-07T04:58:01	12.5	97
26900	2023-08-07T05:08:01	12.5	97
26901	2023-08-07T05:18:01	12.7	85.5
26902	2023-08-07T05:28:01	12.9	84
26903	2023-08-07T05:38:01	13	83.5
26904	2023-08-07T05:48:01	13.2	83
26905	2023-08-07T05:58:01	13.3	83
26906	2023-08-07T06:08:01	13	83.5
26907	2023-08-07T06:18:01	12.8	84.5
26908	2023-08-07T06:28:01	13.6	83
26909	2023-08-07T06:38:01	13.7	81.5
26910	2023-08-07T06:48:01	13.9	80.5
26911	2023-08-07T06:58:01	14	80.5
26912	2023-08-07T07:08:01	14.3	80.5
26913	2023-08-07T07:18:01	14.6	79
26914	2023-08-07T07:28:01	14.8	78
26915	2023-08-07T07:38:01	14.9	75
26916	2023-08-07T07:48:01	15	74.5
26917	2023-08-07T07:58:01	15.3	70.5
26918	2023-08-07T08:08:01	15.7	67
26919	2023-08-07T08:18:01	15.8	66
26920	2023-08-07T08:28:01	16.1	64
26921	2023-08-07T08:38:01	16.3	63.5
26922	2023-08-07T08:48:01	16.3	63.5
26923	2023-08-07T08:58:01	17.1	61
26924	2023-08-07T09:08:01	17.3	59
26925	2023-08-07T09:18:01	17.2	59
26926	2023-08-07T09:28:01	17.2	60.5
26927	2023-08-07T09:38:01	17.8	54
26928	2023-08-07T09:48:01	18.1	54.5
26929	2023-08-07T09:58:01	18.5	54
26930	2023-08-07T10:08:01	18.3	55.5
26931	2023-08-07T10:18:01	18.2	55.5
26932	2023-08-07T10:28:01	18.6	55
26933	2023-08-07T10:38:01	18.5	53.5
26934	2023-08-07T10:48:01	18.4	55.5
26935	2023-08-07T10:58:01	18.2	54
26936	2023-08-07T11:08:01	18.4	54.5
26937	2023-08-07T11:18:01	18.3	54
26938	2023-08-07T11:28:01	18.1	54
26939	2023-08-07T11:38:01	18.6	54.5
26940	2023-08-07T11:48:01	19.1	53
26941	2023-08-07T11:58:01	19.3	53
26942	2023-08-07T12:08:01	19.6	52.5
26943	2023-08-07T12:18:01	19.4	49
26944	2023-08-07T12:28:01	21.4	44.5
26945	2023-08-07T12:38:01	22.9	42.5
26946	2023-08-07T12:48:01	23.9	43.5
26947	2023-08-07T12:58:01	22.7	44
26948	2023-08-07T13:08:01	22.3	42.5
26949	2023-08-07T13:18:01	20.5	49
26950	2023-08-07T13:28:01	19.8	50.5
26951	2023-08-07T13:38:01	25.7	39
26952	2023-08-07T13:48:01	27.1	34.5
26953	2023-08-07T13:58:01	23.5	41
26954	2023-08-07T14:08:01	21.6	46
26955	2023-08-07T14:18:01	21.2	48
26956	2023-08-07T14:28:01	20.2	49
26957	2023-08-07T14:38:01	20.1	51
26958	2023-08-07T14:48:01	20.3	50.5
26959	2023-08-07T14:58:01	24	44.5
26960	2023-08-07T15:08:01	29	33.5
26961	2023-08-07T15:18:00	28.4	33.5
26962	2023-08-07T15:28:00	28.7	32.5
26963	2023-08-07T15:38:00	22.5	43.5
26964	2023-08-07T15:48:00	22	45.5
26965	2023-08-07T15:58:00	21.3	47.5
26966	2023-08-07T16:08:00	22.7	43.5
26967	2023-08-07T16:18:00	28.1	33.5
26968	2023-08-07T16:28:00	28.7	33.5
26969	2023-08-07T16:38:00	24.6	41.5
26970	2023-08-07T16:48:00	27.8	35
26971	2023-08-07T16:58:00	27.7	34
26972	2023-08-07T17:08:00	26.2	36
26973	2023-08-07T17:18:00	23.9	41.5
26974	2023-08-07T17:28:00	21.8	46.5
26975	2023-08-07T17:38:00	24	41.5
26976	2023-08-07T17:48:00	23.4	43
26977	2023-08-07T17:58:00	21	48
26978	2023-08-07T18:08:00	20.2	51
26979	2023-08-07T18:18:00	19.9	52
26980	2023-08-07T18:28:00	19.5	54
26981	2023-08-07T18:38:00	19.2	55
26982	2023-08-07T18:48:00	18.7	58
26983	2023-08-07T18:58:00	18.4	59.5
26984	2023-08-07T19:08:00	18	60.5
26985	2023-08-07T19:18:00	17.8	62
26986	2023-08-07T19:28:00	17.5	62.5
26987	2023-08-07T19:38:00	17.3	64
26988	2023-08-07T19:48:00	17.2	64.5
26989	2023-08-07T19:58:00	17.2	64.5
26990	2023-08-07T20:08:00	17	65
26991	2023-08-07T20:18:00	16.6	65.5
26992	2023-08-07T20:28:00	16.4	66.5
26993	2023-08-07T20:38:00	16.4	67.5
26994	2023-08-07T20:48:00	16.1	67
26995	2023-08-07T20:58:00	16.3	66
26996	2023-08-07T21:08:00	16.2	66.5
26997	2023-08-07T21:18:00	16.2	66.5
26998	2023-08-07T21:28:00	16	66.5
26999	2023-08-07T21:38:00	15.9	67
27000	2023-08-07T21:48:00	15.8	67
27001	2023-08-07T21:58:00	16	66.5
27002	2023-08-07T22:08:00	15.9	67
27003	2023-08-07T22:18:00	15.6	68
27004	2023-08-07T22:28:00	15.6	67.5
27005	2023-08-07T22:38:00	15.5	68
27006	2023-08-07T22:48:00	15.5	68
27007	2023-08-07T22:58:00	15.4	68
27008	2023-08-07T23:08:00	15.5	68
27009	2023-08-07T23:18:00	15.2	70
27010	2023-08-07T23:28:00	14.9	71.5
27011	2023-08-07T23:38:00	14.8	72
27012	2023-08-07T23:48:00	14.6	73
27013	2023-08-07T23:58:00	14.6	74
27014	2023-08-08T00:08:00	14.7	74
27015	2023-08-08T00:18:00	14.8	74.5
27016	2023-08-08T00:28:00	14.6	75
27017	2023-08-08T00:38:00	14.7	74.5
27018	2023-08-08T00:48:00	14.8	75.5
27019	2023-08-08T00:58:00	14.6	77.5
27020	2023-08-08T01:08:00	14.2	78.5
27021	2023-08-08T01:18:00	14	80
27022	2023-08-08T01:28:00	14	81.5
27023	2023-08-08T01:38:00	14	82.5
27024	2023-08-08T01:48:00	13.9	83.5
27025	2023-08-08T01:58:00	13.4	85
27026	2023-08-08T02:08:00	13.1	86
27027	2023-08-08T02:18:00	13.3	87
27028	2023-08-08T02:28:00	13.2	87
27029	2023-08-08T02:38:00	13.4	87
27030	2023-08-08T02:47:59	13.6	85.5
27031	2023-08-08T02:57:59	13.7	83
27032	2023-08-08T03:07:59	13.6	83
27033	2023-08-08T03:18:00	13.7	82
27034	2023-08-08T03:27:59	13.8	81.5
27035	2023-08-08T03:37:59	13.7	82.5
27036	2023-08-08T03:47:59	13.6	83
27037	2023-08-08T03:57:59	13.7	82.5
27038	2023-08-08T04:07:59	13.3	83.5
27039	2023-08-08T04:17:59	13.6	83
27040	2023-08-08T04:27:59	13.6	83
27041	2023-08-08T04:37:59	13.7	82.5
27042	2023-08-08T04:47:59	13.9	81.5
27043	2023-08-08T04:57:59	13.9	81
27044	2023-08-08T05:07:59	14	82
27045	2023-08-08T05:17:59	13.8	82
27046	2023-08-08T05:27:59	13.7	82
27047	2023-08-08T05:37:59	14	81
27048	2023-08-08T05:47:59	14.3	79.5
27049	2023-08-08T05:57:59	14.7	77.5
27050	2023-08-08T06:07:59	14.9	77.5
27051	2023-08-08T06:17:59	15.1	76.5
27052	2023-08-08T06:27:59	15.3	75
27053	2023-08-08T06:37:59	15.6	74
27054	2023-08-08T06:47:59	15.9	73.5
27055	2023-08-08T06:57:59	16.1	72.5
27056	2023-08-08T07:07:59	16.3	70.5
27057	2023-08-08T07:17:59	16.4	71
27058	2023-08-08T07:27:59	16.7	69
27059	2023-08-08T07:37:59	16.8	69
27060	2023-08-08T07:57:59	17.3	64
27061	2023-08-08T08:07:59	17.4	65
27062	2023-08-08T08:17:59	17.8	64
27063	2023-08-08T08:27:59	18	63.5
27064	2023-08-08T08:37:59	18.3	62
27065	2023-08-08T08:47:59	18.4	61.5
27066	2023-08-08T08:57:59	18.7	60.5
27067	2023-08-08T09:07:59	18.8	60
27068	2023-08-08T09:17:59	19	60.5
27069	2023-08-08T09:27:59	19.5	60.5
27070	2023-08-08T09:37:59	19.6	59
27071	2023-08-08T09:47:59	19.7	56
27072	2023-08-08T09:57:59	20	56
27073	2023-08-08T10:07:59	20	55.5
27074	2023-08-08T10:17:59	20.4	56
27075	2023-08-08T10:27:59	20.4	54
27076	2023-08-08T10:37:59	20.5	55.5
27077	2023-08-08T10:47:59	20.9	51.5
27078	2023-08-08T10:57:59	20.8	48.5
27079	2023-08-08T11:07:59	20.9	47
27080	2023-08-08T11:17:59	21.2	44.5
27081	2023-08-08T11:27:59	22	46
27082	2023-08-08T11:37:59	23.1	43
27083	2023-08-08T11:47:59	23.3	44
27084	2023-08-08T11:57:59	23.2	43
27085	2023-08-08T12:07:59	23.5	44.5
27086	2023-08-08T12:17:59	25.6	41.5
27087	2023-08-08T12:27:59	26.6	36.5
27088	2023-08-08T12:37:59	28.1	35
27089	2023-08-08T12:47:59	29.2	32
27090	2023-08-08T12:57:59	30.1	30.5
27091	2023-08-08T13:07:59	29.8	31
27092	2023-08-08T13:17:59	29.2	32
27093	2023-08-08T13:27:59	30	30.5
27094	2023-08-08T13:37:59	29.9	30
27095	2023-08-08T13:47:59	28.4	32.5
27096	2023-08-08T13:57:59	28.7	33
27097	2023-08-08T14:07:59	31	27.5
27098	2023-08-08T14:17:59	31.2	28.5
27099	2023-08-08T14:27:58	28.5	30.5
27100	2023-08-08T14:37:58	30.2	28.5
27101	2023-08-08T14:47:58	30.7	28.5
27102	2023-08-08T14:57:58	31	28
27103	2023-08-08T15:07:58	31.4	28.5
27104	2023-08-08T15:17:58	31.6	28
27105	2023-08-08T15:27:58	33.3	26
27106	2023-08-08T15:37:58	30.3	29.5
27107	2023-08-08T15:47:58	26.6	38
27108	2023-08-08T15:57:58	26	38.5
27109	2023-08-08T16:07:58	25.5	38.5
27110	2023-08-08T16:17:59	25.3	39
27111	2023-08-08T16:27:58	25.5	39.5
27112	2023-08-08T16:37:58	24.2	41.5
27113	2023-08-08T16:47:58	24.1	42.5
27114	2023-08-08T16:57:58	23.6	44
27115	2023-08-08T17:07:58	23.7	45
27116	2023-08-08T17:17:58	23.2	47
27117	2023-08-08T17:27:58	23.1	47.5
27118	2023-08-08T17:37:58	22.7	46
27119	2023-08-08T17:47:58	22.6	46.5
27120	2023-08-08T17:57:58	22.3	48
27121	2023-08-08T18:07:58	22.2	48.5
27122	2023-08-08T18:17:58	21.9	50
27123	2023-08-08T18:27:58	21.6	51
27124	2023-08-08T18:37:58	21.6	52.5
27125	2023-08-08T18:47:58	21.4	54.5
27126	2023-08-08T18:57:58	21.1	56
27127	2023-08-08T19:07:58	21.1	57
27128	2023-08-08T19:17:58	20.5	60
27129	2023-08-08T19:27:58	20.3	60.5
27130	2023-08-08T19:37:58	20.3	61.5
27131	2023-08-08T19:47:58	20.3	62.5
27132	2023-08-08T19:57:58	20.2	63
27133	2023-08-08T20:07:58	20	62.5
27134	2023-08-08T20:17:58	19.9	63.5
27135	2023-08-08T20:27:58	19.9	65.5
27136	2023-08-08T20:37:58	19.7	66
27137	2023-08-08T20:47:58	19.6	65.5
27138	2023-08-08T20:57:58	19.4	63
27139	2023-08-08T21:07:58	19.4	63.5
27140	2023-08-08T21:17:58	19.4	64
27141	2023-08-08T21:27:58	19.2	65
27142	2023-08-08T21:37:58	19.2	64
27143	2023-08-08T21:47:58	19.1	66
27144	2023-08-08T21:57:58	18.9	65
27145	2023-08-08T22:07:58	19	65
27146	2023-08-08T22:17:58	19	64
27147	2023-08-08T22:27:58	19	65
27148	2023-08-08T22:37:58	18.9	64
27149	2023-08-08T22:47:58	18.8	64
27150	2023-08-08T22:57:58	18.7	64
27151	2023-08-08T23:07:58	18.8	64.5
27152	2023-08-08T23:17:58	18.6	69
27153	2023-08-08T23:27:58	17.7	81
27154	2023-08-08T23:37:58	17.6	73.5
27155	2023-08-08T23:47:58	17.7	71.5
27156	2023-08-08T23:57:58	17.9	70.5
27157	2023-08-09T00:07:58	17.9	69.5
27158	2023-08-09T00:17:58	18	69.5
27159	2023-08-09T00:27:58	18	69.5
27160	2023-08-09T00:37:58	18	68.5
27161	2023-08-09T00:47:57	18.1	67
27162	2023-08-09T00:57:57	18.2	67
27163	2023-08-09T01:07:57	18.1	66.5
27164	2023-08-09T01:17:57	18.2	66
27165	2023-08-09T01:27:57	18.3	65
27166	2023-08-09T01:37:57	18.2	65.5
27167	2023-08-09T01:47:57	18.1	66.5
27168	2023-08-09T01:57:57	18	67
27169	2023-08-09T02:07:57	17.9	68.5
27170	2023-08-09T02:17:57	17.8	69.5
27171	2023-08-09T02:27:57	17.7	70
27172	2023-08-09T02:37:57	17.5	70.5
27173	2023-08-09T02:47:57	17.5	71
27174	2023-08-09T02:57:57	17.6	69.5
27175	2023-08-09T03:07:57	17.5	69
27176	2023-08-09T03:17:57	17.7	68.5
27177	2023-08-09T03:27:57	17.8	67.5
27178	2023-08-09T03:37:57	17.8	67.5
27179	2023-08-09T03:47:57	17.9	67.5
27180	2023-08-09T03:57:57	17.8	67.5
27181	2023-08-09T04:07:57	18	67
27182	2023-08-09T04:17:57	17.9	67.5
27183	2023-08-09T04:27:57	17.8	68.5
27184	2023-08-09T04:37:57	17.9	68.5
27185	2023-08-09T04:47:57	17.9	67.5
27186	2023-08-09T04:57:57	18.1	66.5
27187	2023-08-09T05:17:57	18.4	65.5
27188	2023-08-09T05:27:57	18.5	65
27189	2023-08-09T05:37:57	18.5	65.5
27190	2023-08-09T05:47:57	18.6	66
27191	2023-08-09T05:57:57	18.6	66.5
27192	2023-08-09T06:07:57	18.6	66.5
27193	2023-08-09T06:17:57	18.7	67
27194	2023-08-09T06:27:57	18.6	67.5
27195	2023-08-09T06:37:57	18.5	68.5
27196	2023-08-09T06:47:57	18.5	69.5
27197	2023-08-09T06:57:57	18.5	69
27198	2023-08-09T07:07:57	18.4	70
27199	2023-08-09T07:17:57	18.4	70.5
27200	2023-08-09T07:27:57	18.4	71.5
27201	2023-08-09T07:37:57	18.5	71.5
27202	2023-08-09T07:47:57	18.6	71
27203	2023-08-09T07:57:57	18.5	71.5
27204	2023-08-09T08:07:57	18.4	72.5
27205	2023-08-09T08:17:57	18.4	73.5
27206	2023-08-09T08:27:57	18.8	71.5
27207	2023-08-09T08:37:57	19.2	70.5
27208	2023-08-09T08:47:57	19.4	70
27209	2023-08-09T08:57:57	19.2	69.5
27210	2023-08-09T09:07:57	19.2	70.5
27211	2023-08-09T09:17:57	19.2	71
27212	2023-08-09T09:27:57	19.6	70
27213	2023-08-09T09:37:57	19.8	68.5
27214	2023-08-09T09:47:57	20.3	68
27215	2023-08-09T09:57:57	20.8	65
27216	2023-08-09T10:07:57	21.2	64
27217	2023-08-09T10:17:57	21.6	63.5
27218	2023-08-09T10:27:57	21.8	63
27219	2023-08-09T10:37:57	22	62.5
27220	2023-08-09T10:47:57	21.9	61.5
27221	2023-08-09T10:57:57	21.8	62.5
27222	2023-08-09T11:07:57	22.1	61
27223	2023-08-09T11:17:57	22.3	60.5
27224	2023-08-09T11:27:57	22.4	60.5
27225	2023-08-09T11:37:57	22.2	60
27226	2023-08-09T11:47:56	22.5	59
27227	2023-08-09T11:57:56	22.1	60.5
27228	2023-08-09T12:07:56	22.5	58.5
27229	2023-08-09T12:17:57	22.7	59
27230	2023-08-09T12:27:56	22.9	58
27231	2023-08-09T12:37:56	23	56.5
27232	2023-08-09T12:47:56	24.1	53.5
27233	2023-08-09T12:57:56	25.1	50.5
27234	2023-08-09T13:07:56	25.6	51
27235	2023-08-09T13:17:56	25.6	49
27236	2023-08-09T13:27:56	25.6	50
27237	2023-08-09T13:37:56	26.8	47.5
27238	2023-08-09T13:47:56	29	44
27239	2023-08-09T13:57:56	31.5	38
27240	2023-08-09T14:07:56	32.7	35
27241	2023-08-09T14:17:56	32.6	35
27242	2023-08-09T14:27:56	34.4	32
27243	2023-08-09T14:37:56	32	36
27244	2023-08-09T14:47:56	33.2	34.5
27245	2023-08-09T14:57:56	32.8	35.5
27246	2023-08-09T15:07:56	33.2	34
27247	2023-08-09T15:17:56	32.3	34.5
27248	2023-08-09T15:27:56	31.6	37
27249	2023-08-09T15:37:56	33	34.5
27250	2023-08-09T15:47:56	32.6	35.5
27251	2023-08-09T15:57:56	28.2	43.5
27252	2023-08-09T16:07:56	27.9	43.5
27253	2023-08-09T16:17:56	26	48
27254	2023-08-09T16:27:56	25.5	49
27255	2023-08-09T16:37:56	25.1	50
27256	2023-08-09T16:47:56	24.6	50.5
27257	2023-08-09T16:57:56	24.1	51.5
27258	2023-08-09T17:07:56	24	53
27259	2023-08-09T17:27:56	22.8	78
27260	2023-08-09T17:37:56	22	79.5
27261	2023-08-09T17:47:56	22.6	74.5
27262	2023-08-09T17:57:56	22.3	74
27263	2023-08-09T18:07:56	21.8	75.5
27264	2023-08-09T18:17:56	21.8	80.5
27265	2023-08-09T18:27:56	21.8	80
27266	2023-08-09T18:37:56	21.4	79.5
27267	2023-08-09T18:47:56	21.1	81
27268	2023-08-09T18:57:56	21	81.5
27269	2023-08-09T19:07:56	21.1	82
27270	2023-08-09T19:17:56	21.1	80.5
27271	2023-08-09T19:27:56	20.9	81
27272	2023-08-09T19:37:56	20.9	81.5
27273	2023-08-09T19:47:56	20.7	82
27274	2023-08-09T19:57:56	20.2	81.5
27275	2023-08-09T20:07:56	20.2	83
27276	2023-08-09T20:17:56	20.2	83.5
27277	2023-08-09T20:27:56	20.2	83.5
27278	2023-08-09T20:37:56	19.7	84.5
27279	2023-08-09T20:47:56	19.7	84
27280	2023-08-09T20:57:56	19.5	85
27281	2023-08-09T21:07:56	19.2	84.5
27282	2023-08-09T21:17:56	18.8	85.5
27283	2023-08-09T21:27:56	18.7	85
27284	2023-08-09T21:37:56	18.6	86
27285	2023-08-09T21:47:56	18.6	85.5
27286	2023-08-09T21:57:56	18.3	83.5
27287	2023-08-09T22:07:56	18.1	80.5
27288	2023-08-09T22:17:55	18	78.5
27289	2023-08-09T22:27:55	17.8	75.5
27290	2023-08-09T22:37:55	17.7	72
27291	2023-08-09T22:47:55	17.5	73
27292	2023-08-09T22:57:55	17.5	74
27293	2023-08-09T23:07:55	17.6	72.5
27294	2023-08-09T23:17:55	17.5	72.5
27295	2023-08-09T23:27:55	17.6	72.5
27296	2023-08-09T23:37:55	17.4	74.5
27297	2023-08-09T23:47:55	17.1	75.5
27298	2023-08-09T23:57:55	16.9	78.5
27299	2023-08-10T00:07:55	16.7	81.5
27300	2023-08-10T00:17:55	16.7	80
27301	2023-08-10T00:27:55	16.6	83.5
27302	2023-08-10T00:37:55	16.5	83
27303	2023-08-10T00:47:55	16.3	82
27304	2023-08-10T00:57:55	16.2	82
27305	2023-08-10T01:07:55	16	81
27306	2023-08-10T01:17:55	16	81
27307	2023-08-10T01:27:55	15.9	80.5
27308	2023-08-10T01:37:55	15.7	80
27309	2023-08-10T01:47:56	15.5	80.5
27310	2023-08-10T01:57:55	15.4	82
27311	2023-08-10T02:07:55	15.2	82
27312	2023-08-10T02:17:55	15.2	81
27313	2023-08-10T02:27:55	15.1	82
27314	2023-08-10T02:37:55	14.8	84.5
27315	2023-08-10T02:47:55	14.8	83.5
27316	2023-08-10T02:57:55	14.6	84
27317	2023-08-10T03:07:55	14.4	86.5
27318	2023-08-10T03:17:55	14.1	87.5
27319	2023-08-10T03:27:55	14	88
27320	2023-08-10T03:37:56	13.9	88.5
27321	2023-08-10T03:47:55	13.8	89
27322	2023-08-10T03:57:55	13.7	88.5
27323	2023-08-10T04:07:55	13.6	89.5
27324	2023-08-10T04:17:55	13.6	89
27325	2023-08-10T04:27:55	13.6	89
27326	2023-08-10T04:37:55	13.5	90
27327	2023-08-10T04:47:55	13.6	89.5
27328	2023-08-10T04:57:55	13.6	90
27329	2023-08-10T05:07:55	13.7	90
27330	2023-08-10T05:17:55	14.1	89.5
27331	2023-08-10T05:27:55	14.4	89
27332	2023-08-10T05:37:55	14.3	89
27333	2023-08-10T05:47:55	14.2	90
27334	2023-08-10T05:57:55	14.2	90.5
27335	2023-08-10T06:07:55	14.5	90.5
27336	2023-08-10T06:17:55	14.8	90
27337	2023-08-10T06:27:55	15.1	89
27338	2023-08-10T06:37:55	15.3	88.5
27339	2023-08-10T06:47:55	15.4	88.5
27340	2023-08-10T06:57:55	15.6	88
27341	2023-08-10T07:07:55	15.7	88
27342	2023-08-10T07:17:55	16.1	86.5
27343	2023-08-10T07:27:55	16.3	85.5
27344	2023-08-10T07:37:55	16.3	86
27345	2023-08-10T07:47:55	16.6	85.5
27346	2023-08-10T07:57:55	16.7	85.5
27347	2023-08-10T08:07:55	17	85
27348	2023-08-10T08:17:55	17.3	85
27349	2023-08-10T08:27:55	17.4	84
27350	2023-08-10T08:37:55	17.8	84.5
27351	2023-08-10T08:47:55	17.9	82.5
27352	2023-08-10T08:57:55	18.2	82.5
27353	2023-08-10T09:07:55	18.5	83
27354	2023-08-10T09:17:55	18.7	82
27355	2023-08-10T09:27:55	19.1	80
27356	2023-08-10T09:37:55	19.2	79.5
27357	2023-08-10T09:47:55	19.4	79.5
27358	2023-08-10T09:57:55	19.8	76.5
27359	2023-08-10T10:07:54	20	74.5
27360	2023-08-10T10:17:54	20.3	73
27361	2023-08-10T10:37:54	21	69
27362	2023-08-10T10:47:54	21.1	70
27363	2023-08-10T10:57:54	21.3	64
27364	2023-08-10T11:07:54	21.5	62.5
27365	2023-08-10T11:17:54	21.8	66
27366	2023-08-10T11:27:54	22.1	62
27367	2023-08-10T11:37:54	22.2	58.5
27368	2023-08-10T11:47:54	22.8	57
27369	2023-08-10T11:57:54	23.1	58
27370	2023-08-10T12:07:54	24	54
27371	2023-08-10T12:17:54	28.3	44.5
27372	2023-08-10T12:27:54	32	36.5
27373	2023-08-10T12:37:54	35.2	30
27374	2023-08-10T12:47:54	36	28
27375	2023-08-10T12:57:54	36.9	28
27376	2023-08-10T13:07:54	37.9	27
27377	2023-08-10T13:17:54	39.2	25.5
27378	2023-08-10T13:27:54	40.3	24
27379	2023-08-10T13:37:54	40.4	22.5
27380	2023-08-10T13:47:54	41.3	22
27381	2023-08-10T13:57:54	41.1	22
27382	2023-08-10T14:07:54	42.8	19
27383	2023-08-10T14:17:54	42.8	19
27384	2023-08-10T14:27:54	43.9	18.5
27385	2023-08-10T14:37:54	44.9	18
27386	2023-08-10T14:47:54	44.5	18
27387	2023-08-10T14:57:54	45.5	16.5
27388	2023-08-10T15:07:54	45.9	16
27389	2023-08-10T15:17:54	45.6	17
27390	2023-08-10T15:27:54	45.7	16
27391	2023-08-10T15:37:54	46.6	15.5
27392	2023-08-10T15:47:54	45.7	15
27393	2023-08-10T15:57:54	46.1	15.5
27394	2023-08-10T16:07:54	45	15.5
27395	2023-08-10T16:17:54	44.9	14
27396	2023-08-10T16:27:54	45.2	14
27397	2023-08-10T16:37:54	45.4	15
27398	2023-08-10T16:47:54	44.4	15.5
27399	2023-08-10T16:57:54	43.6	15
27400	2023-08-10T17:07:54	42.7	15
27401	2023-08-10T17:27:54	41.4	18.5
27402	2023-08-10T17:37:54	40.4	18.5
27403	2023-08-10T17:47:54	34.6	25
27404	2023-08-10T17:57:54	32.6	28.5
27405	2023-08-10T18:07:54	31.3	30
27406	2023-08-10T18:17:54	30.3	32
27407	2023-08-10T18:27:54	29.4	34
27408	2023-08-10T18:37:54	28.9	40
27409	2023-08-10T18:47:54	28.1	43.5
27410	2023-08-10T18:57:54	27.1	45
27411	2023-08-10T19:07:54	26.6	47
27412	2023-08-10T19:17:54	26.1	48
27413	2023-08-10T19:27:54	25.4	50.5
27414	2023-08-10T19:37:54	25.1	49.5
27415	2023-08-10T19:47:54	24.5	50
27416	2023-08-10T19:57:54	23.9	51
27417	2023-08-10T20:07:54	23.5	52.5
27418	2023-08-10T20:17:54	23.2	53
27419	2023-08-10T20:27:54	22.9	55
27420	2023-08-10T20:37:54	22.5	56
27421	2023-08-10T20:47:54	22.2	57.5
27422	2023-08-10T20:57:54	22	58
27423	2023-08-10T21:07:54	21.6	58.5
27424	2023-08-10T21:17:54	21.3	59
27425	2023-08-10T21:27:53	21	60.5
27426	2023-08-10T21:37:53	20.9	61
27427	2023-08-10T21:47:53	20.6	61
27428	2023-08-10T21:57:53	20.4	63
27429	2023-08-10T22:07:53	20.3	63
27430	2023-08-10T22:17:53	20	65
27431	2023-08-10T22:27:53	20	64
27432	2023-08-10T22:37:53	19.8	65.5
27433	2023-08-10T22:47:54	19.6	65
27434	2023-08-10T22:57:53	19.4	66.5
27435	2023-08-10T23:07:53	19	68
27436	2023-08-10T23:17:53	18.8	68
27437	2023-08-10T23:27:53	18.7	68.5
27438	2023-08-10T23:37:53	18.5	69.5
27439	2023-08-10T23:47:53	18.4	70
27440	2023-08-10T23:57:53	18.3	70.5
27441	2023-08-11T00:07:53	18	71
27442	2023-08-11T00:17:53	17.8	73.5
27443	2023-08-11T00:27:53	17.5	74
27444	2023-08-11T00:37:53	17.4	75
27445	2023-08-11T00:47:53	17.4	75.5
27446	2023-08-11T00:57:53	17.2	76
27447	2023-08-11T01:07:53	17.2	75.5
27448	2023-08-11T01:17:53	17.1	76.5
27449	2023-08-11T01:27:53	17	77
27450	2023-08-11T01:37:53	16.8	77.5
27451	2023-08-11T01:47:53	16.7	77.5
27452	2023-08-11T01:57:53	16.5	78.5
27453	2023-08-11T02:07:53	16.1	79.5
27454	2023-08-11T02:17:53	16.1	80.5
27455	2023-08-11T02:27:53	16	81
27456	2023-08-11T02:37:53	15.9	80
27457	2023-08-11T02:47:53	15.8	82
27458	2023-08-11T02:57:53	15.7	82
27459	2023-08-11T03:07:53	15.5	83
27460	2023-08-11T03:17:53	15.4	82.5
27461	2023-08-11T03:27:53	15.4	82
27462	2023-08-11T03:37:53	15	84
27463	2023-08-11T03:47:53	15.2	84
27464	2023-08-11T03:57:53	15	84.5
27465	2023-08-11T04:07:53	15	85
27466	2023-08-11T04:17:53	14.9	85.5
27467	2023-08-11T04:27:53	14.9	85.5
27468	2023-08-11T04:37:53	14.9	86
27469	2023-08-11T04:47:53	14.9	85.5
27470	2023-08-11T04:57:53	15	86
27471	2023-08-11T05:07:53	15.1	85.5
27472	2023-08-11T05:17:53	15.1	86
27473	2023-08-11T05:27:53	15.2	86
27474	2023-08-11T05:37:53	15.3	86.5
27475	2023-08-11T05:47:53	15.5	86
27476	2023-08-11T05:57:53	15.7	86
27477	2023-08-11T06:07:53	15.9	85
27478	2023-08-11T06:17:53	16.1	84.5
27479	2023-08-11T06:27:53	16.3	84.5
27480	2023-08-11T06:37:53	16.5	83
27481	2023-08-11T06:47:53	16.8	82.5
27482	2023-08-11T06:57:53	17	81
27483	2023-08-11T07:07:53	17.2	81
27484	2023-08-11T07:17:53	17.4	78.5
27485	2023-08-11T07:27:53	17.7	78
27486	2023-08-11T07:37:53	18.1	79
27487	2023-08-11T07:47:53	18.3	78
27488	2023-08-11T07:57:53	18.6	78
27489	2023-08-11T08:17:53	19.1	77.5
27490	2023-08-11T08:27:53	19.3	78
27491	2023-08-11T08:37:53	19.4	77.5
27492	2023-08-11T08:47:53	19.9	75
27493	2023-08-11T08:57:53	20	75
27494	2023-08-11T09:07:53	20.4	74.5
27495	2023-08-11T09:17:53	20.8	70
27496	2023-08-11T09:27:52	21.3	70
27497	2023-08-11T09:37:52	21.7	65.5
27498	2023-08-11T09:47:52	21.8	65
27499	2023-08-11T09:57:52	22.2	65.5
27500	2023-08-11T10:07:52	22.3	68
27501	2023-08-11T10:17:52	22.8	63
27502	2023-08-11T10:27:52	23	63
27503	2023-08-11T10:37:52	23.1	63
27504	2023-08-11T10:47:52	23.4	62.5
27505	2023-08-11T10:57:52	23.6	62
27506	2023-08-11T11:07:52	23.8	65.5
27507	2023-08-11T11:17:52	24	63.5
27508	2023-08-11T11:27:52	24.5	61.5
27509	2023-08-11T11:37:52	24.9	60.5
27510	2023-08-11T11:47:52	25.5	58
27511	2023-08-11T11:57:52	26.2	55.5
27512	2023-08-11T12:07:52	27.1	52.5
27513	2023-08-11T12:17:52	31.3	45
27514	2023-08-11T12:27:52	33.7	38.5
27515	2023-08-11T12:37:52	35.2	35
27516	2023-08-11T12:47:52	37.1	30.5
27517	2023-08-11T12:57:52	37.9	30.5
27518	2023-08-11T13:07:52	39	28
27519	2023-08-11T13:17:52	40.4	26.5
27520	2023-08-11T13:27:52	41.6	26.5
27521	2023-08-11T13:37:52	42.3	26.5
27522	2023-08-11T13:47:52	42.1	25
27523	2023-08-11T13:57:52	42.1	25.5
27524	2023-08-11T14:07:52	43.1	24
27525	2023-08-11T14:17:52	42.9	23.5
27526	2023-08-11T14:27:52	43.4	23.5
27527	2023-08-11T14:37:52	43.9	22.5
27528	2023-08-11T14:47:52	44.4	23
27529	2023-08-11T14:57:52	44	21.5
27530	2023-08-11T15:07:52	45.7	20
27531	2023-08-11T15:17:52	45.4	20.5
27532	2023-08-11T15:27:52	44.6	20.5
27533	2023-08-11T15:37:52	44.6	21
27534	2023-08-11T15:47:52	45	19
27535	2023-08-11T15:57:52	44.7	20
27536	2023-08-11T16:07:52	45.9	21
27537	2023-08-11T16:17:52	45.7	19.5
27538	2023-08-11T16:37:52	44.8	19.5
27539	2023-08-11T16:47:52	44.2	22.5
27540	2023-08-11T16:57:52	43.6	20.5
27541	2023-08-11T17:07:52	43.5	21.5
27542	2023-08-11T17:27:52	40.9	25
27543	2023-08-11T17:37:52	40.5	27
27544	2023-08-11T17:47:52	36.5	35.5
27545	2023-08-11T17:57:52	34.9	38.5
27546	2023-08-11T18:07:52	33.8	42.5
27547	2023-08-11T18:17:52	33.1	44
27548	2023-08-11T18:27:52	32.3	45.5
27549	2023-08-11T18:37:52	31	48
27550	2023-08-11T18:47:52	30.2	49.5
27551	2023-08-11T18:57:52	29.6	52
27552	2023-08-11T19:07:52	29.2	52.5
27553	2023-08-11T19:17:52	28.7	54.5
27554	2023-08-11T19:32:59	28	57.5
27555	2023-08-11T19:52:59	27.1	57.5
27556	2023-08-11T20:02:59	26.8	59.5
27557	2023-08-11T20:12:59	26.5	60.5
27558	2023-08-11T20:22:59	26.2	61
27559	2023-08-11T20:32:59	25.9	61.5
27560	2023-08-11T20:42:59	25.6	62.5
27561	2023-08-11T20:52:58	25.5	64
27562	2023-08-11T21:02:59	25	63
27563	2023-08-11T21:12:58	24.7	64
27564	2023-08-11T21:22:58	24.5	66
27565	2023-08-11T21:32:58	24.4	66.5
27566	2023-08-11T21:42:58	24.1	67
27567	2023-08-11T21:52:58	23.8	68.5
27568	2023-08-11T22:02:58	23.7	68.5
27569	2023-08-11T22:12:58	23.4	69.5
27570	2023-08-11T22:22:58	23.4	69.5
27571	2023-08-11T22:32:58	23.3	69
27572	2023-08-11T22:42:58	23.4	69.5
27573	2023-08-11T22:52:58	23.3	70
27574	2023-08-11T23:02:58	23	71
27575	2023-08-11T23:12:58	22.8	71.5
27576	2023-08-11T23:22:58	22.6	72
27577	2023-08-11T23:32:58	22.5	72
27578	2023-08-11T23:42:58	22.4	72.5
27579	2023-08-11T23:52:58	22.5	72.5
27580	2023-08-12T00:02:58	22.4	72.5
27581	2023-08-12T00:12:58	22.1	74.5
27582	2023-08-12T00:22:58	21.9	76
27583	2023-08-12T00:32:58	22.1	76
27584	2023-08-12T00:42:58	22	76
27585	2023-08-12T00:52:58	21.8	76.5
27586	2023-08-12T01:02:58	21.9	76
27587	2023-08-12T01:12:58	21.9	76
27588	2023-08-12T01:22:58	21.4	78.5
27589	2023-08-12T01:32:58	21.4	78
27590	2023-08-12T01:42:58	21.2	79
27591	2023-08-12T01:52:58	21.2	78
27592	2023-08-12T02:02:58	21.2	77.5
27593	2023-08-12T02:12:58	21	77.5
27594	2023-08-12T02:22:58	21.2	77
27595	2023-08-12T02:32:58	21.1	76.5
27596	2023-08-12T02:42:58	21.2	76.5
27597	2023-08-12T02:52:58	21.6	76
27598	2023-08-12T03:02:58	21.5	76.5
27599	2023-08-12T03:12:58	21.6	76.5
27600	2023-08-12T03:22:58	21.5	79
27601	2023-08-12T03:32:58	21.4	78
27602	2023-08-12T03:52:58	21.4	80.5
27603	2023-08-12T04:02:58	21.2	80.5
27604	2023-08-12T04:12:58	21.2	81.5
27605	2023-08-12T04:22:58	21.1	81.5
27606	2023-08-12T04:32:58	20.9	82
27607	2023-08-12T04:42:58	21.1	82.5
27608	2023-08-12T04:52:58	21	82
27609	2023-08-12T05:02:58	21.1	82.5
27610	2023-08-12T05:12:58	21.3	82.5
27611	2023-08-12T05:22:58	21.2	82
27612	2023-08-12T05:32:58	21.5	81.5
27613	2023-08-12T05:42:58	21.4	82.5
27614	2023-08-12T05:52:58	21.3	82.5
27615	2023-08-12T06:02:58	21.5	82.5
27616	2023-08-12T06:12:58	21.8	80
27617	2023-08-12T06:22:58	21.9	79.5
27618	2023-08-12T06:32:58	22.3	78.5
27619	2023-08-12T06:42:58	22.5	75.5
27620	2023-08-12T06:52:58	22.5	75.5
27621	2023-08-12T07:02:58	22.4	75
27622	2023-08-12T07:12:57	22.7	75
27623	2023-08-12T07:22:57	23.1	74.5
27624	2023-08-12T07:32:57	23.1	75
27625	2023-08-12T07:42:57	23.1	74.5
27626	2023-08-12T07:52:57	23.5	73.5
27627	2023-08-12T08:02:57	23.6	74.5
27628	2023-08-12T08:12:57	23.7	75.5
27629	2023-08-12T08:22:57	23.8	74.5
27630	2023-08-12T08:32:57	24.1	74
27631	2023-08-12T08:42:57	24.4	72.5
27632	2023-08-12T08:52:57	24.7	71.5
27633	2023-08-12T09:02:57	25.4	68.5
27634	2023-08-12T09:12:57	26.4	68
27635	2023-08-12T09:22:57	26.9	65
27636	2023-08-12T09:32:57	27	62.5
27637	2023-08-12T09:42:57	26.8	64
27638	2023-08-12T09:52:57	27.2	63.5
27639	2023-08-12T10:02:57	27	62.5
27640	2023-08-12T10:12:57	27.2	62
27641	2023-08-12T10:22:57	27.7	60
27642	2023-08-12T10:32:57	28.4	58
27643	2023-08-12T10:42:57	29.2	56.5
27644	2023-08-12T10:52:57	27.9	59
27645	2023-08-12T11:02:57	23.5	92
27646	2023-08-12T11:12:57	23.3	95.5
27647	2023-08-12T11:22:57	24.9	97
27648	2023-08-12T11:32:57	25.3	96.5
27649	2023-08-12T11:42:57	24.8	97
27650	2023-08-12T11:52:57	25.1	97
27651	2023-08-12T12:02:57	25.6	97.5
27652	2023-08-12T12:12:57	27.4	97.5
27653	2023-08-12T12:22:57	30	96.5
27654	2023-08-12T12:32:57	28.8	95.5
27655	2023-08-12T12:42:57	28.5	97.5
27656	2023-08-12T12:52:57	29.3	98
27657	2023-08-12T13:02:57	31.5	95.5
27658	2023-08-12T13:12:57	32.2	94.5
27659	2023-08-12T13:22:57	34.5	93
27660	2023-08-12T13:32:57	35	90.5
27661	2023-08-12T13:42:57	34.6	87
27662	2023-08-12T13:52:57	36.8	91
27663	2023-08-12T14:02:57	37.9	43
27664	2023-08-12T14:12:57	32.8	49.5
27665	2023-08-12T14:22:57	30.3	58
27666	2023-08-12T14:32:57	29.4	72.5
27667	2023-08-12T14:42:57	26.5	83.5
27668	2023-08-12T14:52:57	25.4	88.5
27669	2023-08-12T15:02:57	23.9	94.5
27670	2023-08-12T15:12:57	24.3	96.5
27671	2023-08-12T15:22:57	23.1	95
27672	2023-08-12T15:32:57	22.3	96.5
27673	2023-08-12T15:42:57	22.6	97.5
27674	2023-08-12T15:52:57	22.9	98
27675	2023-08-12T16:02:57	23.1	98
27676	2023-08-12T16:12:57	22.8	98
27677	2023-08-12T16:22:57	22.7	98
27678	2023-08-12T16:32:57	23.2	98.5
27679	2023-08-12T16:42:57	23.6	98.5
27680	2023-08-12T16:52:57	23.3	98.5
27681	2023-08-12T17:02:57	23.6	98
27682	2023-08-12T17:12:57	23.1	98
27683	2023-08-12T17:22:56	26.1	97
27684	2023-08-12T17:32:56	25.7	96
27685	2023-08-12T17:42:56	23.3	96
27686	2023-08-12T17:52:56	22.8	96
27687	2023-08-12T18:02:56	22.5	96
27688	2023-08-12T18:12:56	22.2	96.5
27689	2023-08-12T18:22:56	22	96.5
27690	2023-08-12T18:32:56	21.8	96.5
27691	2023-08-12T18:42:56	21.5	96.5
27692	2023-08-12T18:52:56	21.2	98
27693	2023-08-12T19:02:56	21.4	98.5
27694	2023-08-12T19:12:56	21	98.5
27695	2023-08-12T19:22:56	21	99
27696	2023-08-12T19:32:56	21	99
27697	2023-08-12T19:42:56	21	99
27698	2023-08-12T19:52:56	21	99
27699	2023-08-12T20:02:56	21.2	99
27700	2023-08-12T20:12:56	21.1	99
27701	2023-08-12T20:22:56	21.1	99
27702	2023-08-12T20:32:56	20.9	99
27703	2023-08-12T20:42:56	20.9	99
27704	2023-08-12T20:52:56	20.7	99
27705	2023-08-12T21:02:56	20.4	99
27706	2023-08-12T21:12:56	20.3	99
27707	2023-08-12T21:22:56	20.2	99
27708	2023-08-12T21:32:56	20.1	99
27709	2023-08-12T21:42:56	19.9	99
27710	2023-08-12T21:52:56	19.9	99
27711	2023-08-12T22:02:56	19.8	99.5
27712	2023-08-12T22:12:56	19.7	99
27713	2023-08-12T22:22:56	19.5	99
27714	2023-08-12T22:32:56	19.4	99
27715	2023-08-12T22:42:56	19.4	99
27716	2023-08-12T22:52:56	19.3	99.5
27717	2023-08-12T23:02:56	19.2	99.5
27718	2023-08-12T23:12:56	19.2	99
27719	2023-08-12T23:22:56	19.1	99.5
27720	2023-08-12T23:32:56	19	99.5
27721	2023-08-12T23:42:56	19	99.5
27722	2023-08-12T23:52:56	19.2	99.5
27723	2023-08-13T00:02:56	18.9	99.5
27724	2023-08-13T00:12:56	18.8	99.5
27725	2023-08-13T00:22:56	18.6	99.5
27726	2023-08-13T00:32:56	18.5	99.5
27727	2023-08-13T00:42:56	18.6	99.5
27728	2023-08-13T00:52:56	18.5	99.5
27729	2023-08-13T01:02:56	18.7	99.5
27730	2023-08-13T01:12:56	18.5	99.5
27731	2023-08-13T01:22:56	18.4	99.5
27732	2023-08-13T01:32:56	18.5	99.5
27733	2023-08-13T01:42:56	18.7	99.5
27734	2023-08-13T01:52:56	18.7	99.5
27735	2023-08-13T02:02:56	18.7	99.5
27736	2023-08-13T02:12:56	18.5	99.5
27737	2023-08-13T02:22:56	18.6	100
27738	2023-08-13T02:32:56	18.6	100
27739	2023-08-13T02:42:56	18.5	100
27740	2023-08-13T02:52:56	18.5	100
27741	2023-08-13T03:02:56	18.5	100
27742	2023-08-13T03:12:56	18.4	100
27743	2023-08-13T03:22:56	18.5	100
27744	2023-08-13T03:32:56	18.3	100
27745	2023-08-13T03:42:56	18.4	100
27746	2023-08-13T03:52:56	18.3	100
27747	2023-08-13T04:02:55	18.5	100
27748	2023-08-13T04:12:55	18.3	100
27749	2023-08-13T04:22:55	18.4	100
27750	2023-08-13T04:32:55	18.5	100
27751	2023-08-13T04:52:55	18.4	100
27752	2023-08-13T05:02:56	18.5	100
27753	2023-08-13T05:12:55	18.7	100
27754	2023-08-13T05:22:55	18.7	100
27755	2023-08-13T05:32:55	18.8	100
27756	2023-08-13T05:42:55	19	100
27757	2023-08-13T05:52:55	19.1	100
27758	2023-08-13T06:02:55	19.3	100
27759	2023-08-13T06:12:55	19.4	100
27760	2023-08-13T06:22:55	19.7	99.5
27761	2023-08-13T06:32:55	20.1	99.5
27762	2023-08-13T06:42:55	20.4	99
27763	2023-08-13T06:52:55	20.5	98.5
27764	2023-08-13T07:02:55	20.8	98.5
27765	2023-08-13T07:12:55	21	98
27766	2023-08-13T07:22:55	21.4	97.5
27767	2023-08-13T07:32:55	21.2	97.5
27768	2023-08-13T07:42:55	21.3	97.5
27769	2023-08-13T07:52:55	21.8	97.5
27770	2023-08-13T08:02:55	21.7	97.5
27771	2023-08-13T08:12:55	22.1	97.5
27772	2023-08-13T08:22:55	22.3	97.5
27773	2023-08-13T08:32:55	22.8	97.5
27774	2023-08-13T08:42:55	22.8	97.5
27775	2023-08-13T08:52:55	23.1	97.5
27776	2023-08-13T09:02:55	23.6	97.5
27777	2023-08-13T09:12:55	23.8	97.5
27778	2023-08-13T09:22:55	24	97.5
27779	2023-08-13T09:32:55	24.5	97.5
27780	2023-08-13T09:42:55	25.1	97.5
27781	2023-08-13T09:52:55	25.5	97.5
27782	2023-08-13T10:02:55	25.6	99
27783	2023-08-13T10:12:55	25.9	98.5
27784	2023-08-13T10:22:55	26.1	98.5
27785	2023-08-13T10:32:55	25.8	96.5
27786	2023-08-13T10:42:55	25.8	96.5
27787	2023-08-13T10:52:55	25.8	95
27788	2023-08-13T11:02:55	25	95.5
27789	2023-08-13T11:12:55	25	96.5
27790	2023-08-13T11:22:55	25.8	73.5
27791	2023-08-13T11:32:55	26.3	67.5
27792	2023-08-13T11:42:55	27.2	63.5
27793	2023-08-13T11:52:55	27.5	60.5
27794	2023-08-13T12:02:55	28.6	60
27795	2023-08-13T12:12:55	31	54
27796	2023-08-13T12:22:55	34.8	45
27797	2023-08-13T12:32:55	34.8	40
27798	2023-08-13T12:42:55	35.5	38.5
27799	2023-08-13T12:52:55	37.8	38
27800	2023-08-13T13:02:55	38.4	35
27801	2023-08-13T13:12:55	40.5	33
27802	2023-08-13T13:22:55	39.8	33
27803	2023-08-13T13:32:55	34.3	42.5
27804	2023-08-13T13:42:55	33.3	44
27805	2023-08-13T13:52:55	38.9	35.5
27806	2023-08-13T14:02:55	37.8	36.5
27807	2023-08-13T14:12:55	42.3	32
27808	2023-08-13T14:22:55	37.1	38.5
27809	2023-08-13T14:32:55	37.6	35.5
27810	2023-08-13T14:42:55	36.5	36.5
27811	2023-08-13T14:52:55	35.7	38.5
27812	2023-08-13T15:02:54	33.5	44
27813	2023-08-13T15:12:54	31.7	47.5
27814	2023-08-13T15:22:55	30.8	46.5
27815	2023-08-13T15:32:54	30.4	51.5
27816	2023-08-13T15:42:54	31.2	51.5
27817	2023-08-13T15:52:54	31.1	50.5
27818	2023-08-13T16:02:54	30.5	51
27819	2023-08-13T16:12:54	30.5	53
27820	2023-08-13T16:22:54	29.9	56
27821	2023-08-13T16:32:54	29.5	56.5
27822	2023-08-13T16:42:54	29.3	58.5
27823	2023-08-13T16:52:54	29.2	61
27824	2023-08-13T17:02:54	29.6	60
27825	2023-08-13T17:12:54	29.9	58
27826	2023-08-13T17:22:54	29.6	60
27827	2023-08-13T17:32:54	29.4	60
27828	2023-08-13T17:42:54	28.8	63.5
27829	2023-08-13T17:52:54	28.3	63
27830	2023-08-13T18:02:54	28.6	64.5
27831	2023-08-13T18:12:54	28.4	62.5
27832	2023-08-13T18:22:54	28	65.5
27833	2023-08-13T18:32:54	27.6	67.5
27834	2023-08-13T18:42:54	27.1	68
27835	2023-08-13T18:52:54	26.8	70
27836	2023-08-13T19:02:54	26.4	68
27837	2023-08-13T19:12:54	27	68.5
27838	2023-08-13T19:22:54	27.1	67
27839	2023-08-13T19:42:54	27.2	66.5
27840	2023-08-13T19:52:54	27.1	67
27841	2023-08-13T20:02:54	27.3	67
27842	2023-08-13T20:12:54	27.2	67.5
27843	2023-08-13T20:22:54	27.2	66
27844	2023-08-13T20:32:54	27.1	66
27845	2023-08-13T20:42:54	27.1	66.5
27846	2023-08-13T20:52:54	27.3	66
27847	2023-08-13T21:02:54	26.9	67
27848	2023-08-13T21:12:54	26.4	68.5
27849	2023-08-13T21:22:54	26.3	70
27850	2023-08-13T21:32:54	26.1	70
27851	2023-08-13T21:42:54	26.1	70.5
27852	2023-08-13T21:52:54	26	71
27853	2023-08-13T22:02:54	25.7	71.5
27854	2023-08-13T22:12:54	25.8	71
27855	2023-08-13T22:22:54	25.6	70.5
27856	2023-08-13T22:32:54	25.5	73
27857	2023-08-13T22:42:54	25.4	73
27858	2023-08-13T22:52:54	25.4	73.5
27859	2023-08-13T23:02:54	25.4	72.5
27860	2023-08-13T23:12:54	25	72.5
27861	2023-08-13T23:22:54	24.8	74.5
27862	2023-08-13T23:32:54	25	74.5
27863	2023-08-13T23:52:54	24.9	75
27864	2023-08-14T00:02:54	24.6	75.5
27865	2023-08-14T00:12:54	24.7	75.5
27866	2023-08-14T00:22:54	24.6	75.5
27867	2023-08-14T00:32:54	24.7	75.5
27868	2023-08-14T00:42:53	24.4	76.5
27869	2023-08-14T00:52:54	23.6	78
27870	2023-08-14T01:02:53	23.4	80
27871	2023-08-14T01:12:53	23.2	80.5
27872	2023-08-14T01:22:53	23	81.5
27873	2023-08-14T01:32:53	23.2	82
27874	2023-08-14T01:42:53	23.1	83.5
27875	2023-08-14T01:52:53	23.1	84
27876	2023-08-14T02:02:53	22.9	83.5
27877	2023-08-14T02:12:53	22.8	84.5
27878	2023-08-14T02:22:53	22.6	84.5
27879	2023-08-14T02:32:53	22.7	84.5
27880	2023-08-14T02:42:53	22.5	84
27881	2023-08-14T02:52:53	22.2	85.5
27882	2023-08-14T03:02:53	22	86
27883	2023-08-14T03:12:53	22	86
27884	2023-08-14T03:22:53	22	84.5
27885	2023-08-14T03:32:53	21.8	84.5
27886	2023-08-14T03:42:53	21.8	85
27887	2023-08-14T03:52:53	21.4	85.5
27888	2023-08-14T04:02:53	21.3	86
27889	2023-08-14T04:12:54	21.1	87
27890	2023-08-14T04:22:53	21.2	87.5
27891	2023-08-14T04:32:53	21.1	88
27892	2023-08-14T04:42:53	21.1	88
27893	2023-08-14T04:52:53	21	87.5
27894	2023-08-14T05:02:53	21.1	88
27895	2023-08-14T05:12:53	21.3	87.5
27896	2023-08-14T05:22:53	21.4	87
27897	2023-08-14T05:32:53	21.6	87
27898	2023-08-14T05:42:53	21.5	86.5
27899	2023-08-14T05:52:53	21.6	87.5
27900	2023-08-14T06:02:53	21.9	87
27901	2023-08-14T06:12:53	22.3	86
27902	2023-08-14T06:22:53	22.6	85
27903	2023-08-14T06:32:53	22.6	85
27904	2023-08-14T06:42:53	22.6	85
27905	2023-08-14T06:52:53	22.4	86
27906	2023-08-14T07:02:53	22.5	85
27907	2023-08-14T07:12:53	22.7	85
27908	2023-08-14T07:22:53	22.8	84.5
27909	2023-08-14T07:32:53	22.9	84
27910	2023-08-14T07:42:53	23.2	84
27911	2023-08-14T07:52:53	23.3	82.5
27912	2023-08-14T08:02:53	23.5	82
27913	2023-08-14T08:12:53	23.7	82
27914	2023-08-14T08:32:53	23.9	80
27915	2023-08-14T08:42:53	24.3	79.5
27916	2023-08-14T08:52:53	24.9	78.5
27917	2023-08-14T09:02:53	25.4	76
27918	2023-08-14T09:12:53	26	72
27919	2023-08-14T09:22:53	26.4	72
27920	2023-08-14T09:32:53	26.7	71.5
27921	2023-08-14T09:42:53	26.6	69
27922	2023-08-14T09:52:53	27.1	65
27923	2023-08-14T10:02:53	27.3	65
27924	2023-08-14T10:12:53	27.8	64
27925	2023-08-14T10:22:53	27.9	62
27926	2023-08-14T10:32:53	28	62
27927	2023-08-14T10:42:52	27.9	60.5
27928	2023-08-14T10:52:52	28.1	62.5
27929	2023-08-14T11:02:52	28.3	63.5
27930	2023-08-14T11:12:52	28.5	65
27931	2023-08-14T11:22:52	28.5	63.5
27932	2023-08-14T11:32:52	29	61
27933	2023-08-14T11:42:52	29.4	60.5
27934	2023-08-14T12:02:52	29.5	59
27935	2023-08-14T12:12:52	30.1	59
27936	2023-08-14T12:22:52	32	52
27937	2023-08-14T12:32:52	33.2	47.5
27938	2023-08-14T12:42:52	33.2	48.5
27939	2023-08-14T12:52:52	32.6	50
27940	2023-08-14T13:02:52	31.5	54
27941	2023-08-14T13:12:52	31.2	53.5
27942	2023-08-14T13:22:52	30.9	55.5
27943	2023-08-14T13:32:53	30.3	56
27944	2023-08-14T13:42:53	30.2	61
27945	2023-08-14T13:52:52	30.3	62.5
27946	2023-08-14T14:02:52	30.3	59
27947	2023-08-14T14:12:52	29.8	65.5
27948	2023-08-14T14:22:52	29.6	67
27949	2023-08-14T14:32:52	29.4	66.5
27950	2023-08-14T14:42:52	29.5	66.5
27951	2023-08-14T14:52:52	29.8	65
27952	2023-08-14T15:02:52	30	65
27953	2023-08-14T15:12:52	31.5	62
27954	2023-08-14T15:22:52	32.9	53
27955	2023-08-14T15:32:52	32.7	53
27956	2023-08-14T15:42:52	35.2	47.5
27957	2023-08-14T15:52:52	37.3	42
27958	2023-08-14T16:02:52	38.4	40.5
27959	2023-08-14T16:12:52	39	40.5
27960	2023-08-14T16:22:52	38.7	40
27961	2023-08-14T16:32:52	38.5	40
27962	2023-08-14T16:42:52	39.7	39
27963	2023-08-14T16:52:52	38.1	43
27964	2023-08-14T17:02:52	38	43
27965	2023-08-14T17:12:52	39	40.5
27966	2023-08-14T17:22:52	39.6	39
27967	2023-08-14T17:32:52	39.5	42
27968	2023-08-14T17:42:52	38.2	45.5
27969	2023-08-14T17:52:52	35.3	51
27970	2023-08-14T18:02:52	33.8	53.5
27971	2023-08-14T18:12:52	32.9	54.5
27972	2023-08-14T18:22:52	32.1	56
27973	2023-08-14T18:32:52	31	57
27974	2023-08-14T18:42:52	30.2	58.5
27975	2023-08-14T18:52:52	29.8	58.5
27976	2023-08-14T19:02:52	29.2	59.5
27977	2023-08-14T19:12:52	28.7	59.5
27978	2023-08-14T19:22:52	28.4	62.5
27979	2023-08-14T19:32:52	28	64
27980	2023-08-14T19:42:52	27.7	65
27981	2023-08-14T19:52:52	27.3	65.5
27982	2023-08-14T20:02:52	26.8	67.5
27983	2023-08-14T20:12:52	26.7	67.5
27984	2023-08-14T20:22:52	26.3	66.5
27985	2023-08-14T20:32:52	26.1	68.5
27986	2023-08-14T20:42:52	25.8	69
27987	2023-08-14T20:52:52	25.7	68.5
27988	2023-08-14T21:02:52	25.2	70
27989	2023-08-14T21:12:51	24.9	72
27990	2023-08-14T21:22:51	24.8	73
27991	2023-08-14T21:32:51	24.7	73
27992	2023-08-14T21:42:51	24.4	74.5
27993	2023-08-14T21:52:51	24.2	75.5
27994	2023-08-14T22:02:51	24.1	76.5
27995	2023-08-14T22:12:51	23.9	77
27996	2023-08-14T22:22:51	23.7	78
27997	2023-08-14T22:32:51	23.6	78
27998	2023-08-14T22:42:51	23.4	78.5
27999	2023-08-14T22:52:51	23.3	78.5
28000	2023-08-14T23:12:51	23	80
28001	2023-08-14T23:22:51	22.9	80.5
28002	2023-08-14T23:32:51	22.7	81
28003	2023-08-14T23:42:51	22.5	81.5
28004	2023-08-14T23:52:51	22.5	82
28005	2023-08-15T00:02:51	22.3	81
28006	2023-08-15T00:12:51	22.2	82.5
28007	2023-08-15T00:22:51	22.1	83
28008	2023-08-15T00:32:51	22.1	82.5
28009	2023-08-15T00:42:51	21.9	83
28010	2023-08-15T00:52:51	21.8	83.5
28011	2023-08-15T01:02:51	21.7	83
28012	2023-08-15T01:12:51	21.5	83.5
28013	2023-08-15T01:22:51	21.5	83
28014	2023-08-15T01:32:51	21.7	83
28015	2023-08-15T01:42:51	21.8	83
28016	2023-08-15T01:52:51	21.6	83.5
28017	2023-08-15T02:02:51	21.5	84
28018	2023-08-15T02:12:51	21.2	84
28019	2023-08-15T02:22:51	21.2	84.5
28020	2023-08-15T02:32:51	21.4	83.5
28021	2023-08-15T02:42:51	21.2	84.5
28022	2023-08-15T02:52:51	21.2	85
28023	2023-08-15T03:02:51	21.2	85.5
28024	2023-08-15T03:12:51	21.2	85.5
28025	2023-08-15T03:22:51	21.1	86
28026	2023-08-15T03:32:51	20.9	86
28027	2023-08-15T03:42:51	20.9	86.5
28028	2023-08-15T03:52:51	20.6	87
28029	2023-08-15T04:02:51	20.4	87.5
28030	2023-08-15T04:12:51	20.3	87.5
28031	2023-08-15T04:22:51	20.2	88
28032	2023-08-15T04:32:51	20.3	88
28033	2023-08-15T04:42:51	20.5	87.5
28034	2023-08-15T04:52:51	20.5	87.5
28035	2023-08-15T05:12:51	20.7	87.5
28036	2023-08-15T05:22:51	20.9	87
28037	2023-08-15T05:32:51	21.1	86
28038	2023-08-15T05:42:51	21.5	85
28039	2023-08-15T05:52:51	21.8	84
28040	2023-08-15T06:02:51	21.8	84
28041	2023-08-15T06:12:51	21.8	84.5
28042	2023-08-15T06:22:51	21.8	85
28043	2023-08-15T06:42:51	21.9	86
28044	2023-08-15T06:52:51	22.1	86.5
28045	2023-08-15T07:02:51	22.6	85.5
28046	2023-08-15T07:12:51	23.1	85.5
28047	2023-08-15T07:22:51	23.6	84
28048	2023-08-15T07:32:51	24	83
28049	2023-08-15T07:42:50	24.3	80.5
28050	2023-08-15T08:02:50	24	79
28051	2023-08-15T08:12:50	23.8	81
28052	2023-08-15T08:22:50	23.9	80
28053	2023-08-15T08:32:50	23.9	80.5
28054	2023-08-15T08:42:50	24.2	80.5
28055	2023-08-15T09:02:50	25.7	77.5
28056	2023-08-15T09:12:50	26.1	77
28057	2023-08-15T09:22:50	26.7	75.5
28058	2023-08-15T09:32:50	27	75
28059	2023-08-15T09:42:50	27.1	72.5
28060	2023-08-15T09:52:50	27.2	72
28061	2023-08-15T10:02:50	27	71.5
28062	2023-08-15T10:12:50	27.2	71.5
28063	2023-08-15T10:22:50	27.5	68
28064	2023-08-15T10:32:50	27.6	66.5
28065	2023-08-15T10:42:50	27.2	67.5
28066	2023-08-15T10:52:50	27.1	72.5
28067	2023-08-15T11:02:50	27.8	66
28068	2023-08-15T11:12:50	28.2	62
28069	2023-08-15T11:22:50	28.5	60.5
28070	2023-08-15T11:32:50	28.6	61.5
28071	2023-08-15T11:42:50	28.9	60
28072	2023-08-15T11:52:50	28.8	57
28073	2023-08-15T12:02:50	28.8	54.5
28074	2023-08-15T12:12:50	29.6	54.5
28075	2023-08-15T12:22:50	31.6	49.5
28076	2023-08-15T12:32:50	32.7	47
28077	2023-08-15T12:42:50	33.2	45
28078	2023-08-15T12:52:50	34.5	42.5
28079	2023-08-15T13:02:50	34.3	42.5
28080	2023-08-15T13:12:50	33.3	44.5
28081	2023-08-15T13:22:50	33.9	42.5
28082	2023-08-15T13:32:50	35.4	42
28083	2023-08-15T13:42:50	34.1	44
28084	2023-08-15T13:52:50	33.5	45.5
28085	2023-08-15T14:02:50	32.9	45.5
28086	2023-08-15T14:12:50	32.4	49
28087	2023-08-15T14:22:50	31.5	48.5
28088	2023-08-15T14:32:50	33.6	43
28089	2023-08-15T14:42:50	33.9	43
28090	2023-08-15T14:52:50	32.9	45.5
28091	2023-08-15T15:02:50	32	45
28092	2023-08-15T15:12:50	32.8	45.5
28093	2023-08-15T15:22:50	35.5	38.5
28094	2023-08-15T15:32:50	36.6	36.5
28095	2023-08-15T15:42:50	36.7	37.5
28096	2023-08-15T15:52:50	37.7	34
28097	2023-08-15T16:02:50	37.9	34
28098	2023-08-15T16:12:50	38.7	33.5
28099	2023-08-15T16:22:50	39	33
28100	2023-08-15T16:32:50	37.1	34.5
28101	2023-08-15T16:42:50	38.9	33
28102	2023-08-15T16:52:50	39.8	32.5
28103	2023-08-15T17:02:50	39.4	32.5
28104	2023-08-15T17:12:50	38	32.5
28105	2023-08-15T17:22:50	37.1	34.5
28106	2023-08-15T17:32:50	38	33
28107	2023-08-15T17:42:50	37.2	35.5
28108	2023-08-15T17:52:50	34.1	40.5
28109	2023-08-15T18:02:50	33	41
28110	2023-08-15T18:12:50	32.3	46.5
28111	2023-08-15T18:22:50	31.6	48
28112	2023-08-15T18:32:49	30.8	51.5
28113	2023-08-15T18:42:49	30.2	54
28114	2023-08-15T18:52:49	29.6	56.5
28115	2023-08-15T19:02:49	29.2	58.5
28116	2023-08-15T19:12:49	28.5	60.5
28117	2023-08-15T19:22:49	28.1	61.5
28118	2023-08-15T19:32:49	27.8	61.5
28119	2023-08-15T19:42:49	27	62
28120	2023-08-15T19:52:49	26.7	63
28121	2023-08-15T20:02:49	26.2	64
28122	2023-08-15T20:12:49	25.8	66.5
28123	2023-08-15T20:22:49	25.7	67
28124	2023-08-15T20:32:49	25.2	68
28125	2023-08-15T20:42:49	25.1	68
28126	2023-08-15T20:52:49	24.9	69
28127	2023-08-15T21:02:49	24.6	69.5
28128	2023-08-15T21:12:49	24.4	70.5
28129	2023-08-15T21:22:49	24.4	70.5
28130	2023-08-15T21:32:49	24	71.5
28131	2023-08-15T21:42:49	24	72
28132	2023-08-15T21:52:49	23.7	73
28133	2023-08-15T22:02:49	23.5	73.5
28134	2023-08-15T22:12:49	23.5	73.5
28135	2023-08-15T22:22:49	23.2	74
28136	2023-08-15T22:32:49	23.4	74.5
28137	2023-08-15T22:42:49	23.3	75
28138	2023-08-15T22:52:49	23	75.5
28139	2023-08-15T23:02:49	23	76
28140	2023-08-15T23:12:49	22.8	75.5
28141	2023-08-15T23:22:49	22.8	75.5
28142	2023-08-15T23:32:49	22.8	75.5
28143	2023-08-15T23:42:49	22.6	77.5
28144	2023-08-15T23:52:49	22.6	77
28145	2023-08-16T00:02:49	22.5	76.5
28146	2023-08-16T00:12:49	22.4	77
28147	2023-08-16T00:22:49	22.4	77.5
28148	2023-08-16T00:32:49	22.1	77.5
28149	2023-08-16T00:42:49	21.5	79
28150	2023-08-16T00:52:49	21.6	78.5
28151	2023-08-16T01:02:49	21.6	79
28152	2023-08-16T01:12:49	21.6	79
28153	2023-08-16T01:22:49	21.2	79.5
28154	2023-08-16T01:32:49	21.1	80.5
28155	2023-08-16T01:42:49	21.1	80.5
28156	2023-08-16T01:52:49	21	81
28157	2023-08-16T02:02:49	20.8	81
28158	2023-08-16T02:12:49	20.7	81
28159	2023-08-16T02:22:49	20.8	81.5
28160	2023-08-16T02:32:49	20.5	81.5
28161	2023-08-16T02:42:49	20.9	81.5
28162	2023-08-16T02:52:49	20.9	83.5
28163	2023-08-16T03:02:49	20.9	83.5
28164	2023-08-16T03:12:49	21	83.5
28165	2023-08-16T03:22:49	21	83.5
28166	2023-08-16T03:32:49	20.9	84.5
28167	2023-08-16T03:52:49	20.7	86
28168	2023-08-16T04:02:49	20.7	86.5
28169	2023-08-16T04:12:48	20.6	86
28170	2023-08-16T04:22:49	20.7	84.5
28171	2023-08-16T04:32:48	20.8	83
28172	2023-08-16T04:42:48	20.9	83.5
28173	2023-08-16T05:12:48	21.2	80.5
28174	2023-08-16T05:22:48	21.1	81.5
28175	2023-08-16T05:32:48	21	84
28176	2023-08-16T05:42:48	21	84
28177	2023-08-16T05:52:48	20.9	84.5
28178	2023-08-16T06:02:48	21.1	84.5
28179	2023-08-16T06:12:48	21.5	83
28180	2023-08-16T06:22:48	21.4	83
28181	2023-08-16T06:32:48	21.3	83.5
28182	2023-08-16T06:42:48	21.5	83.5
28183	2023-08-16T06:52:49	21.7	83.5
28184	2023-08-16T07:02:48	21.7	83.5
28185	2023-08-16T07:12:48	21.9	82.5
28186	2023-08-16T07:22:48	22.2	82
28187	2023-08-16T07:32:48	22.2	83
28188	2023-08-16T07:42:48	22.3	83.5
28189	2023-08-16T07:52:48	22.4	83
28190	2023-08-16T08:02:48	22.5	83.5
28191	2023-08-16T08:12:48	22.8	82.5
28192	2023-08-16T08:22:48	23.1	82.5
28193	2023-08-16T08:32:48	23.3	82.5
28194	2023-08-16T08:42:48	23.5	81.5
28195	2023-08-16T08:52:48	23.7	80
28196	2023-08-16T09:02:48	24.1	79
28197	2023-08-16T09:12:48	24.2	78
28198	2023-08-16T09:22:48	24.8	76
28199	2023-08-16T09:32:48	25.5	73.5
28200	2023-08-16T09:42:48	25.4	73.5
28201	2023-08-16T09:52:48	25.8	72
28202	2023-08-16T10:02:48	25.8	73
28203	2023-08-16T10:12:48	25.8	72.5
28204	2023-08-16T10:22:48	25.8	75
28205	2023-08-16T10:32:48	26	73.5
28206	2023-08-16T10:42:48	26.5	71.5
28207	2023-08-16T10:52:48	27.2	71
28208	2023-08-16T11:02:48	27.8	68
28209	2023-08-16T11:12:48	27.8	68.5
28210	2023-08-16T11:22:48	28	69.5
28211	2023-08-16T11:32:48	28.1	67
28212	2023-08-16T11:42:48	28.5	66
28213	2023-08-16T11:52:48	28.8	66
28214	2023-08-16T12:02:48	29.6	63
28215	2023-08-16T12:12:48	30.5	60.5
28216	2023-08-16T12:22:48	32.5	55.5
28217	2023-08-16T12:32:48	34.9	49
28218	2023-08-16T12:42:48	36.3	44.5
28219	2023-08-16T12:52:48	36.9	44
28220	2023-08-16T13:02:48	38.2	40.5
28221	2023-08-16T13:12:48	39.4	38.5
28222	2023-08-16T13:22:48	39.5	39
28223	2023-08-16T13:32:48	40.7	36.5
28224	2023-08-16T13:42:48	41.1	35.5
28225	2023-08-16T13:52:48	41.2	35
28226	2023-08-16T14:02:48	42.5	31.5
28227	2023-08-16T14:12:48	42.7	32
28228	2023-08-16T14:22:48	43.7	31.5
28229	2023-08-16T14:32:48	43	32
28230	2023-08-16T14:42:48	40.1	36.5
28231	2023-08-16T14:52:48	36.6	33
28232	2023-08-16T15:02:47	36.3	32
28233	2023-08-16T15:12:47	38.7	30
28234	2023-08-16T15:22:47	37.2	33.5
28235	2023-08-16T15:32:47	35.1	37
28236	2023-08-16T15:42:47	34.9	37
28237	2023-08-16T15:52:47	35.4	38.5
28238	2023-08-16T16:02:47	38.2	35.5
28239	2023-08-16T16:12:47	39.7	33.5
28240	2023-08-16T16:22:47	36.8	40
28241	2023-08-16T16:32:47	34.6	45
28242	2023-08-16T16:52:47	32.7	46
28243	2023-08-16T17:02:47	33.4	44
28244	2023-08-16T17:12:47	31.7	48
28245	2023-08-16T17:22:47	31.6	46.5
28246	2023-08-16T17:32:47	31.3	48
28247	2023-08-16T17:42:47	30.6	50
28248	2023-08-16T17:52:47	30.3	51.5
28249	2023-08-16T18:02:47	30	52
28250	2023-08-16T18:12:47	29.3	54.5
28251	2023-08-16T18:22:47	29.1	55
28252	2023-08-16T18:32:47	28.9	58.5
28253	2023-08-16T18:42:47	28.6	59.5
28254	2023-08-16T18:52:47	28	61
28255	2023-08-16T19:02:47	27.6	60.5
28256	2023-08-16T19:12:47	27.4	62
28257	2023-08-16T19:22:47	27.2	62.5
28258	2023-08-16T19:32:47	26.8	63.5
28259	2023-08-16T19:42:47	26.6	64.5
28260	2023-08-16T19:52:47	26.3	67
28261	2023-08-16T20:02:47	26.3	66.5
28262	2023-08-16T20:12:47	26.1	67
28263	2023-08-16T20:22:47	25.8	68
28264	2023-08-16T20:32:47	25.7	70
28265	2023-08-16T20:42:47	25.4	73.5
28266	2023-08-16T20:52:47	25.4	73
28267	2023-08-16T21:02:47	25.1	74
28268	2023-08-16T21:22:47	24.8	76.5
28269	2023-08-16T21:32:47	24.6	76
28270	2023-08-16T21:42:47	24.4	76.5
28271	2023-08-16T21:52:47	24.3	77
28272	2023-08-16T22:02:47	24.2	77.5
28273	2023-08-16T22:12:47	23.9	78.5
28274	2023-08-16T22:22:47	23.7	77.5
28275	2023-08-16T22:32:47	23.4	77.5
28276	2023-08-16T22:42:47	23.2	79.5
28277	2023-08-16T22:52:47	23.2	80
28278	2023-08-16T23:02:47	23.1	78.5
28279	2023-08-16T23:12:47	22.8	77.5
28280	2023-08-16T23:22:47	22.6	78.5
28281	2023-08-16T23:32:47	22.3	79.5
28282	2023-08-16T23:42:47	22.2	79.5
28283	2023-08-16T23:52:47	22.2	80
28284	2023-08-17T00:02:47	22.1	80
28285	2023-08-17T00:12:47	22	80.5
28286	2023-08-17T00:22:47	21.8	81
28287	2023-08-17T00:32:47	21.7	81
28288	2023-08-17T00:42:47	21.5	80.5
28289	2023-08-17T00:52:47	21.4	81
28290	2023-08-17T01:02:47	21.4	80.5
28291	2023-08-17T01:12:47	21.3	81
28292	2023-08-17T01:22:47	21.1	81
28293	2023-08-17T01:32:47	21	81
28294	2023-08-17T01:42:46	20.9	81
28295	2023-08-17T01:52:46	20.6	81.5
28296	2023-08-17T02:02:46	20.6	82.5
28297	2023-08-17T02:12:46	20.5	82.5
28298	2023-08-17T02:22:46	20.3	83
28299	2023-08-17T02:32:46	20.3	83
28300	2023-08-17T02:42:46	20.2	83
28301	2023-08-17T02:52:46	20.2	83
28302	2023-08-17T03:02:46	20	84
28303	2023-08-17T03:12:46	20	84
28304	2023-08-17T03:32:47	19.7	85
28305	2023-08-17T03:42:47	19.6	85.5
28306	2023-08-17T03:52:46	19.6	86
28307	2023-08-17T04:02:46	19.6	86
28308	2023-08-17T04:12:46	19.6	86
28309	2023-08-17T04:22:46	19.5	84.5
28310	2023-08-17T04:32:46	19.4	85.5
28311	2023-08-17T04:42:46	19.4	86
28312	2023-08-17T04:52:46	19.5	86.5
28313	2023-08-17T05:02:46	19.7	86.5
28314	2023-08-17T05:12:46	20	86
28315	2023-08-17T05:22:46	20.3	85.5
28316	2023-08-17T05:32:46	20.5	84.5
28317	2023-08-17T05:42:46	20.6	84
28318	2023-08-17T05:52:46	20.7	84
28319	2023-08-17T06:02:46	20.9	83.5
28320	2023-08-17T06:12:46	21.1	83.5
28321	2023-08-17T06:22:46	21.2	83
28322	2023-08-17T06:32:46	21.2	83.5
28323	2023-08-17T06:42:46	21.3	83
28324	2023-08-17T06:52:46	21.6	82.5
28325	2023-08-17T07:02:46	21.7	82
28326	2023-08-17T07:12:46	21.9	82
28327	2023-08-17T07:22:46	21.8	82.5
28328	2023-08-17T07:32:46	21.8	83
28329	2023-08-17T07:42:46	22.1	82
28330	2023-08-17T07:52:46	22.2	81.5
28331	2023-08-17T08:02:46	22.2	82
28332	2023-08-17T08:12:46	22.8	79.5
28333	2023-08-17T08:22:46	23	79
28334	2023-08-17T08:32:46	23.2	79
28335	2023-08-17T08:42:46	23.4	78
28336	2023-08-17T08:52:46	23.8	77.5
28337	2023-08-17T09:02:46	24.1	76
28338	2023-08-17T09:12:46	24.3	75
28339	2023-08-17T09:22:46	24.2	76.5
28340	2023-08-17T09:32:46	24.6	75
28341	2023-08-17T09:42:46	25	73
28342	2023-08-17T09:52:46	25.4	72
28343	2023-08-17T10:02:46	25	73
28344	2023-08-17T10:12:46	25.4	72
28345	2023-08-17T10:22:46	25.6	70.5
28346	2023-08-17T10:32:46	26.3	69.5
28347	2023-08-17T10:42:46	26	69.5
28348	2023-08-17T10:52:46	25.6	71
28349	2023-08-17T11:02:46	25.4	71
28350	2023-08-17T11:12:46	25.6	70.5
28351	2023-08-17T11:22:46	25.8	71
28352	2023-08-17T11:32:46	26.5	68.5
28353	2023-08-17T11:42:46	26.8	67.5
28354	2023-08-17T11:52:46	26.3	68.5
28355	2023-08-17T12:02:45	26.2	69.5
28356	2023-08-17T12:12:45	26.9	68
28357	2023-08-17T12:22:45	29.3	61
28358	2023-08-17T12:32:45	29.9	59
28359	2023-08-17T12:42:45	30.6	53.5
28360	2023-08-17T12:52:45	30.9	54.5
28361	2023-08-17T13:02:45	31.1	53
28362	2023-08-17T13:12:45	31.1	54.5
28363	2023-08-17T13:22:45	31.1	55
28364	2023-08-17T13:32:45	31.8	54.5
28365	2023-08-17T13:42:45	32.3	52
28366	2023-08-17T13:52:46	33.7	49
28367	2023-08-17T14:02:45	35.4	46
28368	2023-08-17T14:12:45	37.5	41.5
28369	2023-08-17T14:22:45	38.4	39
28370	2023-08-17T14:32:45	39.3	37.5
28371	2023-08-17T14:42:45	40.1	36
28372	2023-08-17T14:52:45	41.2	35
28373	2023-08-17T15:02:45	38.2	38.5
28374	2023-08-17T15:12:45	39.7	36.5
28375	2023-08-17T15:22:45	40.5	35
28376	2023-08-17T15:32:45	40.8	35
28377	2023-08-17T15:42:45	41.7	33.5
28378	2023-08-17T15:52:45	38	39
28379	2023-08-17T16:02:45	36	43.5
28380	2023-08-17T16:12:45	34.6	45.5
28381	2023-08-17T16:22:45	33.5	49.5
28382	2023-08-17T16:32:45	34.4	47
28383	2023-08-17T16:42:45	34.6	46.5
28384	2023-08-17T16:52:45	33.5	50
28385	2023-08-17T17:02:45	33.5	51.5
28386	2023-08-17T17:12:45	34.3	48
28387	2023-08-17T17:22:45	33.9	48
28388	2023-08-17T17:42:45	32.6	51.5
28389	2023-08-17T17:52:45	31.5	55
28390	2023-08-17T18:02:45	30.7	56.5
28391	2023-08-17T18:12:45	29.9	58.5
28392	2023-08-17T18:22:45	29.6	60
28393	2023-08-17T18:32:45	29.1	61.5
28394	2023-08-17T18:42:45	28.6	63
28395	2023-08-17T18:52:45	28.6	64.5
28396	2023-08-17T19:12:45	27.9	67
28397	2023-08-17T19:22:45	27.6	68
28398	2023-08-17T19:32:45	26.9	69.5
28399	2023-08-17T19:42:45	26.8	70
28400	2023-08-17T19:52:45	26.5	70.5
28401	2023-08-17T20:02:45	26.3	72
28402	2023-08-17T20:12:45	26.1	72.5
28403	2023-08-17T20:22:45	26.1	74
28404	2023-08-17T20:42:45	25.6	75
28405	2023-08-17T20:52:45	25.5	75.5
28406	2023-08-17T21:02:45	25.1	76.5
28407	2023-08-17T21:12:45	25	77.5
28408	2023-08-17T21:22:45	25	78
28409	2023-08-17T21:42:45	24.5	79.5
28410	2023-08-17T21:52:45	24.5	80
28411	2023-08-17T22:02:45	24.5	80
28412	2023-08-17T22:12:45	24.3	80.5
28413	2023-08-17T22:22:45	24.2	81
28414	2023-08-17T22:32:45	24.1	81.5
28415	2023-08-17T22:42:44	23.9	81.5
28416	2023-08-17T22:52:44	23.7	82.5
28417	2023-08-17T23:02:44	23.6	82.5
28418	2023-08-17T23:12:44	23.5	83
28419	2023-08-17T23:22:44	23.3	83
28420	2023-08-17T23:32:44	23.1	83
28421	2023-08-17T23:42:44	23.1	83.5
28422	2023-08-17T23:52:44	22.9	83.5
28423	2023-08-18T00:02:44	22.8	84
28424	2023-08-18T00:12:44	22.6	84
28425	2023-08-18T00:22:44	22.5	84.5
28426	2023-08-18T00:32:44	22.4	84
28427	2023-08-18T00:42:44	22.2	84.5
28428	2023-08-18T00:52:44	22.1	84
28429	2023-08-18T01:02:44	21.8	84
28430	2023-08-18T01:12:44	21.7	84.5
28431	2023-08-18T01:22:44	21.2	85.5
28432	2023-08-18T01:32:44	21.3	85.5
28433	2023-08-18T01:42:44	21.3	85
28434	2023-08-18T01:52:44	21.2	84
28435	2023-08-18T02:02:44	21	83
28436	2023-08-18T02:12:44	20.7	84
28437	2023-08-18T02:22:44	20.7	84
28438	2023-08-18T02:32:44	20.5	84.5
28439	2023-08-18T02:42:44	20.4	84.5
28440	2023-08-18T02:52:44	20.2	85
28441	2023-08-18T03:02:44	20.2	84.5
28442	2023-08-18T03:12:44	20.2	84.5
28443	2023-08-18T03:22:44	19.9	84.5
28444	2023-08-18T03:32:44	19.9	83
28445	2023-08-18T03:42:44	19.5	83.5
28446	2023-08-18T03:52:44	19.5	84
28447	2023-08-18T04:02:44	19.3	84
28448	2023-08-18T04:12:44	19.1	85
28449	2023-08-18T04:22:44	19	85
28450	2023-08-18T04:32:44	19	84
28451	2023-08-18T04:42:44	19	85
28452	2023-08-18T04:52:44	19	85.5
28453	2023-08-18T05:02:44	19.1	83.5
28454	2023-08-18T05:12:44	19.1	83
28455	2023-08-18T05:22:44	19	83.5
28456	2023-08-18T05:32:44	19.2	84
28457	2023-08-18T05:42:44	19.2	84
28458	2023-08-18T05:52:44	19.2	84.5
28459	2023-08-18T06:02:44	19.4	85
28460	2023-08-18T06:12:44	19.4	89
28461	2023-08-18T06:22:44	19.5	90.5
28462	2023-08-18T06:32:44	19.6	90.5
28463	2023-08-18T06:42:44	19.8	90.5
28464	2023-08-18T06:52:44	19.9	90.5
28465	2023-08-18T07:02:44	20	90.5
28466	2023-08-18T07:12:44	20.3	90.5
28467	2023-08-18T07:22:44	20.3	89.5
28468	2023-08-18T07:32:44	20.4	88.5
28469	2023-08-18T07:42:44	20.6	87.5
28470	2023-08-18T07:52:44	21	85
28471	2023-08-18T08:02:44	21.3	85
28472	2023-08-18T08:12:44	21.3	84
28473	2023-08-18T08:22:44	21.6	84.5
28474	2023-08-18T08:32:44	21.9	82
28475	2023-08-18T08:42:44	22	80.5
28476	2023-08-18T08:52:44	22.3	78
28477	2023-08-18T09:02:43	22.8	77
28478	2023-08-18T09:12:43	22.8	79
28479	2023-08-18T09:22:43	23	75
28480	2023-08-18T09:32:43	23.2	75
28481	2023-08-18T09:42:43	23.4	75.5
28482	2023-08-18T09:52:43	23.6	75
28483	2023-08-18T10:02:43	24.1	74.5
28484	2023-08-18T10:12:43	24.3	72.5
28485	2023-08-18T10:22:43	24.5	70.5
28486	2023-08-18T10:32:43	25	71.5
28487	2023-08-18T10:42:43	25.4	72
28488	2023-08-18T10:52:43	25.7	71.5
28489	2023-08-18T11:02:43	25.8	69.5
28490	2023-08-18T11:12:43	26.2	65.5
28491	2023-08-18T11:22:43	26.7	66
28492	2023-08-18T11:32:43	27	62.5
28493	2023-08-18T11:42:43	27.5	60.5
28494	2023-08-18T11:52:43	28.1	58
28495	2023-08-18T12:02:43	28.8	55.5
28496	2023-08-18T12:12:43	29.7	52.5
28497	2023-08-18T12:22:43	32.6	48
28498	2023-08-18T12:32:43	34.7	42
28499	2023-08-18T12:42:43	36.6	39
28500	2023-08-18T12:52:43	37.4	35.5
28501	2023-08-18T13:02:43	38	34.5
28502	2023-08-18T13:12:43	40.5	32.5
28503	2023-08-18T13:22:43	41.5	30
28504	2023-08-18T13:32:43	42.2	30
28505	2023-08-18T13:42:43	43.3	28
28506	2023-08-18T13:52:43	44.2	27
28507	2023-08-18T14:02:43	44.9	25.5
28508	2023-08-18T14:12:43	45.5	25
28509	2023-08-18T14:22:43	45.9	24.5
28510	2023-08-18T14:32:43	46.4	24
28511	2023-08-18T14:42:43	47.1	23
28512	2023-08-18T14:52:43	47.1	22
28513	2023-08-18T15:02:43	47.9	20.5
28514	2023-08-18T15:12:43	48.4	21.5
28515	2023-08-18T15:22:43	48.1	21
28516	2023-08-18T15:32:43	46.4	22.5
28517	2023-08-18T15:42:43	47.1	20.5
28518	2023-08-18T15:52:43	47.8	20.5
28519	2023-08-18T16:02:43	47.7	21.5
28520	2023-08-18T16:12:43	48.1	20.5
28521	2023-08-18T16:22:43	47.8	21
28522	2023-08-18T16:32:43	46.9	20
28523	2023-08-18T16:42:43	46.8	21
28524	2023-08-18T16:52:43	46.1	22
28525	2023-08-18T17:02:43	45.1	24.5
28526	2023-08-18T17:12:43	45	25
28527	2023-08-18T17:22:43	44.1	27
28528	2023-08-18T17:32:43	43.7	29
28529	2023-08-18T17:42:43	42.1	34.5
28530	2023-08-18T17:52:43	39.8	39
28531	2023-08-18T18:02:43	38.3	42
28532	2023-08-18T18:12:43	37.1	41.5
28533	2023-08-18T18:22:43	36	42.5
28534	2023-08-18T18:32:43	34.9	44
28535	2023-08-18T18:42:43	33.9	45.5
28536	2023-08-18T18:52:43	33.2	47
28537	2023-08-18T19:02:43	32.6	48
28538	2023-08-18T19:12:43	32	49.5
28539	2023-08-18T19:22:43	31.3	50.5
28540	2023-08-18T19:32:43	31	52
28541	2023-08-18T19:42:43	30.6	53
28542	2023-08-18T19:52:43	30.1	54
28543	2023-08-18T20:02:43	29.9	54.5
28544	2023-08-18T20:12:43	29.5	55.5
28545	2023-08-18T20:22:43	29.1	56.5
28546	2023-08-18T20:32:43	29	56
28547	2023-08-18T20:42:43	28.3	58
28548	2023-08-18T20:52:43	28.2	58
28549	2023-08-18T21:02:43	28.1	59.5
28550	2023-08-18T21:12:43	27.9	60
28551	2023-08-18T21:22:43	27.9	58.5
28552	2023-08-18T21:32:43	27.6	58.5
28553	2023-08-18T21:42:43	27.5	60
28554	2023-08-18T21:52:42	27.3	55.5
28555	2023-08-18T22:02:42	27	56.5
28556	2023-08-18T22:12:42	26.8	59.5
28557	2023-08-18T22:22:42	26.6	61.5
28558	2023-08-18T22:32:42	26.5	62
28559	2023-08-18T22:42:42	26.3	63
28560	2023-08-18T22:52:42	26.1	64.5
28561	2023-08-18T23:02:42	25.8	66.5
28562	2023-08-18T23:12:42	25.6	66
28563	2023-08-18T23:22:42	25.4	67.5
28564	2023-08-18T23:32:42	25.2	68
28565	2023-08-18T23:42:42	25.2	68
28566	2023-08-18T23:52:42	24.8	68.5
28567	2023-08-19T00:02:42	24.6	69.5
28568	2023-08-19T00:12:42	24.5	69.5
28569	2023-08-19T00:22:42	24.3	70.5
28570	2023-08-19T00:32:42	24.2	71
28571	2023-08-19T00:42:42	24.1	70.5
28572	2023-08-19T00:52:42	23.9	71.5
28573	2023-08-19T01:02:42	23.6	72.5
28574	2023-08-19T01:12:42	23.6	72
28575	2023-08-19T01:22:42	23.4	72
28576	2023-08-19T01:32:42	23.2	72.5
28577	2023-08-19T01:42:42	23.2	72.5
28578	2023-08-19T01:52:42	23.1	72
28579	2023-08-19T02:02:42	22.9	73
28580	2023-08-19T02:12:42	22.5	73.5
28581	2023-08-19T02:22:42	22.5	74
28582	2023-08-19T02:32:42	22.3	75
28583	2023-08-19T02:42:42	22.3	75
28584	2023-08-19T02:52:42	22	75.5
28585	2023-08-19T03:02:42	22	76
28586	2023-08-19T03:12:42	21.8	76
28587	2023-08-19T03:22:42	21.7	76
28588	2023-08-19T03:32:42	21.6	76.5
28589	2023-08-19T03:42:42	21.4	77
28590	2023-08-19T03:52:42	21.3	77
28591	2023-08-19T04:02:42	21.1	77.5
28592	2023-08-19T04:12:42	21.1	77.5
28593	2023-08-19T04:22:42	21.1	77
28594	2023-08-19T04:32:42	20.8	77.5
28595	2023-08-19T04:42:42	20.9	77.5
28596	2023-08-19T04:52:42	20.8	78
28597	2023-08-19T05:02:42	20.5	79.5
28598	2023-08-19T05:12:42	20.8	79.5
28599	2023-08-19T05:22:42	20.9	78
28600	2023-08-19T05:32:42	20.8	78
28601	2023-08-19T05:42:42	20.9	79
28602	2023-08-19T05:52:42	21.1	79.5
28603	2023-08-19T06:02:42	21.3	79.5
28604	2023-08-19T06:12:42	21.4	79.5
28605	2023-08-19T06:22:42	21.6	80
28606	2023-08-19T06:32:42	21.9	79.5
28607	2023-08-19T06:42:42	22.1	79
28608	2023-08-19T06:52:42	22.2	77.5
28609	2023-08-19T07:02:42	22.6	76.5
28610	2023-08-19T07:12:42	22.8	76.5
28611	2023-08-19T07:22:42	23	76.5
28612	2023-08-19T07:32:42	23.3	74
28613	2023-08-19T07:42:42	23.7	73.5
28614	2023-08-19T07:52:42	23.9	71.5
28615	2023-08-19T08:02:41	24.1	70
28616	2023-08-19T08:12:41	24.5	69.5
28617	2023-08-19T08:22:41	24.8	69
28618	2023-08-19T08:32:41	25.3	65
28619	2023-08-19T08:42:41	26.2	62
28620	2023-08-19T08:52:41	26.9	60
28621	2023-08-19T09:02:41	27.5	58.5
28622	2023-08-19T09:12:41	27.7	58
28623	2023-08-19T09:22:41	27.8	62
28624	2023-08-19T09:32:41	27.8	58.5
28625	2023-08-19T09:42:41	28.2	59.5
28626	2023-08-19T09:52:41	28.7	55
28627	2023-08-19T10:02:41	29.7	52.5
28628	2023-08-19T10:12:41	30.2	52
28629	2023-08-19T10:22:41	30.7	52.5
28630	2023-08-19T10:32:41	30.7	50.5
28631	2023-08-19T10:42:41	30.6	50.5
28632	2023-08-19T10:52:41	30.7	51.5
28633	2023-08-19T11:02:41	30.9	50.5
28634	2023-08-19T11:12:41	30.9	53.5
28635	2023-08-19T11:22:41	31.5	52
28636	2023-08-19T11:32:41	31.7	48
28637	2023-08-19T11:42:41	31.8	49
28638	2023-08-19T11:52:41	31.7	49.5
28639	2023-08-19T12:02:41	31.6	49
28640	2023-08-19T12:12:41	31.5	49
28641	2023-08-19T12:22:41	31.3	50.5
28642	2023-08-19T12:32:41	31	50
28643	2023-08-19T12:42:41	30.5	51
28644	2023-08-19T12:52:41	30.2	52.5
28645	2023-08-19T13:02:41	29.9	54
28646	2023-08-19T13:12:41	30	54.5
28647	2023-08-19T13:22:41	30	56
28648	2023-08-19T13:32:41	29.8	56.5
28649	2023-08-19T13:42:41	29.8	60
28650	2023-08-19T13:52:41	30	58
28651	2023-08-19T14:02:41	30	58.5
28652	2023-08-19T14:12:41	30.2	56.5
28653	2023-08-19T14:22:41	30.9	55
28654	2023-08-19T14:32:41	32.3	51.5
28655	2023-08-19T14:42:41	33.9	46.5
28656	2023-08-19T14:52:41	34.7	44
28657	2023-08-19T15:02:41	33.9	46
28658	2023-08-19T15:12:41	32.9	48.5
28659	2023-08-19T15:22:41	33.4	49.5
28660	2023-08-19T15:32:41	33.4	49.5
28661	2023-08-19T15:42:41	33.4	49.5
28662	2023-08-19T15:52:41	35.1	44.5
28663	2023-08-19T16:02:41	35	44.5
28664	2023-08-19T16:12:41	33.1	48
28665	2023-08-19T16:22:41	31.6	52
28666	2023-08-19T16:32:41	31	53.5
28667	2023-08-19T16:42:41	30.7	55.5
28668	2023-08-19T16:52:41	30.6	57
28669	2023-08-19T17:02:41	31	56.5
28670	2023-08-19T17:12:41	30.6	58
28671	2023-08-19T17:22:41	30.3	59
28672	2023-08-19T17:32:41	30	60
28673	2023-08-19T17:42:41	30.4	59
28674	2023-08-19T17:52:41	29.6	62
28675	2023-08-19T18:02:40	29.3	62
28676	2023-08-19T18:12:40	29.3	63.5
28677	2023-08-19T18:22:40	29.3	63
28678	2023-08-19T18:32:40	28.8	65
28679	2023-08-19T18:42:40	28.2	67.5
28680	2023-08-19T18:52:40	28.1	68.5
28681	2023-08-19T19:02:40	27.9	69
28682	2023-08-19T19:12:40	27.7	70
28683	2023-08-19T19:22:40	27.5	70.5
28684	2023-08-19T19:32:40	27.4	69.5
28685	2023-08-19T19:42:40	27.2	70.5
28686	2023-08-19T19:52:40	26.9	71.5
28687	2023-08-19T20:02:40	26.8	71.5
28688	2023-08-19T20:12:40	26.9	72
28689	2023-08-19T20:22:40	26.8	72.5
28690	2023-08-19T20:32:40	26.4	74
28691	2023-08-19T20:42:40	26.3	74
28692	2023-08-19T20:52:40	26.2	73.5
28693	2023-08-19T21:02:40	26.1	74
28694	2023-08-19T21:12:40	26	75
28695	2023-08-19T21:22:40	25.8	75.5
28696	2023-08-19T21:32:40	25.8	76
28697	2023-08-19T21:42:40	25.7	77
28698	2023-08-19T21:52:40	25.5	77.5
28699	2023-08-19T22:02:40	25.4	78
28700	2023-08-19T22:12:40	25.1	78
28701	2023-08-19T22:22:40	25	79
28702	2023-08-19T22:32:40	24.8	80
28703	2023-08-19T22:42:40	24.6	80.5
28704	2023-08-19T22:52:40	24.5	81
28705	2023-08-19T23:02:40	24.2	82
28706	2023-08-19T23:12:40	24.1	82.5
28707	2023-08-19T23:22:40	23.9	82.5
28708	2023-08-19T23:32:40	23.8	83
28709	2023-08-19T23:42:40	23.5	83
28710	2023-08-19T23:52:40	23.6	83
28711	2023-08-20T00:02:40	23.5	83.5
28712	2023-08-20T00:12:40	23.3	84
28713	2023-08-20T00:22:40	23.2	84
28714	2023-08-20T00:32:40	23.2	84
28715	2023-08-20T00:42:40	23.1	84.5
28716	2023-08-20T00:52:40	22.9	85
28717	2023-08-20T01:02:40	22.8	85
28718	2023-08-20T01:12:40	22.6	85.5
28719	2023-08-20T01:22:40	22.5	86
28720	2023-08-20T01:32:40	22.3	86.5
28721	2023-08-20T01:42:40	22.1	87
28722	2023-08-20T01:52:40	22	87
28723	2023-08-20T02:02:40	21.8	88
28724	2023-08-20T02:12:40	21.8	87.5
28725	2023-08-20T02:22:40	21.7	87.5
28726	2023-08-20T02:32:40	21.5	88
28727	2023-08-20T02:42:40	21.4	88.5
28728	2023-08-20T02:52:40	21.3	88
28729	2023-08-20T03:02:40	21.2	87.5
28730	2023-08-20T03:12:40	21	87.5
28731	2023-08-20T03:22:40	21	88
28732	2023-08-20T03:32:40	21.1	87.5
28733	2023-08-20T03:42:40	20.9	88
28734	2023-08-20T03:52:40	21	88
28735	2023-08-20T04:02:40	21.1	88
28736	2023-08-20T04:12:39	20.9	87.5
28737	2023-08-20T04:22:39	20.9	88
28738	2023-08-20T04:32:39	20.8	88
28739	2023-08-20T04:42:39	20.8	89
28740	2023-08-20T04:52:39	20.8	89
28741	2023-08-20T05:02:39	20.9	88.5
28742	2023-08-20T05:12:39	21.1	87.5
28743	2023-08-20T05:22:39	21.2	87.5
28744	2023-08-20T05:32:39	21.4	87
28745	2023-08-20T05:42:39	21.8	86.5
28746	2023-08-20T05:52:39	22	86
28747	2023-08-20T06:02:39	22.1	86.5
28748	2023-08-20T06:12:39	22	86.5
28749	2023-08-20T06:22:39	21.9	87
28750	2023-08-20T06:32:39	22	87
28751	2023-08-20T06:42:39	22.2	86.5
28752	2023-08-20T06:52:39	22.6	86
28753	2023-08-20T07:02:39	23	84.5
28754	2023-08-20T07:12:39	23.1	84
28755	2023-08-20T07:22:39	23.2	84.5
28756	2023-08-20T07:32:39	23.4	83
28757	2023-08-20T07:42:39	23.6	82.5
28758	2023-08-20T07:52:39	23.9	80.5
28759	2023-08-20T08:02:39	24.1	80.5
28760	2023-08-20T08:12:39	24.3	80.5
28761	2023-08-20T08:22:39	24.5	80.5
28762	2023-08-20T08:32:39	24.7	80
28763	2023-08-20T08:42:39	25	79
28764	2023-08-20T08:52:39	25	79.5
28765	2023-08-20T09:02:39	25.3	77.5
28766	2023-08-20T09:12:39	25.6	76
28767	2023-08-20T09:22:39	25.9	77
28768	2023-08-20T09:32:39	26.2	75.5
28769	2023-08-20T09:42:39	26.4	74.5
28770	2023-08-20T09:52:39	26.7	74.5
28771	2023-08-20T10:02:39	26.9	73
28772	2023-08-20T10:12:39	27.2	72
28773	2023-08-20T10:22:39	27.6	69.5
28774	2023-08-20T10:32:39	27.8	69.5
28775	2023-08-20T10:42:39	28	68.5
28776	2023-08-20T10:52:39	28.1	67
28777	2023-08-20T11:02:39	28.6	65.5
28778	2023-08-20T11:12:39	28.8	66.5
28779	2023-08-20T11:22:39	29.1	65.5
28780	2023-08-20T11:32:39	29.5	63
28781	2023-08-20T11:42:39	30	62.5
28782	2023-08-20T11:52:39	30.4	62
28783	2023-08-20T12:02:39	31.4	57.5
28784	2023-08-20T12:12:39	34.5	50.5
28785	2023-08-20T12:22:39	37.9	41
28786	2023-08-20T12:32:39	40.3	35.5
28787	2023-08-20T12:42:39	42	31
28788	2023-08-20T12:52:39	44.3	27.5
28789	2023-08-20T13:02:39	45.7	27.5
28790	2023-08-20T13:12:39	46.4	26
28791	2023-08-20T13:22:39	46.4	25.5
28792	2023-08-20T13:32:39	48.5	22.5
28793	2023-08-20T13:42:39	49.7	22.5
28794	2023-08-20T13:52:39	49.6	23.5
28795	2023-08-20T14:02:39	50	22.5
28796	2023-08-20T14:12:39	50.8	21.5
28797	2023-08-20T14:22:39	50.8	21.5
28798	2023-08-20T14:32:39	49.8	22
28799	2023-08-20T14:42:39	49.9	22.5
28800	2023-08-20T14:52:39	49.9	21.5
28801	2023-08-20T15:02:39	50.2	22.5
28802	2023-08-20T15:12:39	51.2	21.5
28803	2023-08-20T15:22:38	50.4	21.5
28804	2023-08-20T15:32:39	50.7	20.5
28805	2023-08-20T15:42:39	50.1	21
28806	2023-08-20T15:52:38	49.8	21.5
28807	2023-08-20T16:02:38	49.5	21
28808	2023-08-20T16:12:38	49.1	20.5
28809	2023-08-20T16:22:38	48.2	22
28810	2023-08-20T16:32:38	47.6	22.5
28811	2023-08-20T16:42:38	46.4	25
28812	2023-08-20T16:52:38	45	25
28813	2023-08-20T17:02:38	44.1	25.5
28814	2023-08-20T17:12:38	43.5	27.5
28815	2023-08-20T17:22:38	42.3	28.5
28816	2023-08-20T17:32:38	41.8	30.5
28817	2023-08-20T17:42:38	39.4	36
28818	2023-08-20T17:52:38	37.8	42
28819	2023-08-20T18:02:38	36.9	42
28820	2023-08-20T18:12:38	35.9	45
28821	2023-08-20T18:22:38	35.3	49.5
28822	2023-08-20T18:32:38	34.4	50.5
28823	2023-08-20T18:42:38	33.9	50
28824	2023-08-20T18:52:38	33.4	51
28825	2023-08-20T19:02:38	32.9	52
28826	2023-08-20T19:12:38	32.4	54
28827	2023-08-20T19:22:38	31.9	54
28828	2023-08-20T19:32:38	31.4	54.5
28829	2023-08-20T19:42:38	31	55.5
28830	2023-08-20T19:52:38	30.8	55.5
28831	2023-08-20T20:02:38	30.5	56.5
28832	2023-08-20T20:12:38	30.2	57
28833	2023-08-20T20:22:38	29.9	58
28834	2023-08-20T20:32:38	29.7	59
28835	2023-08-20T20:42:38	29.3	59
28836	2023-08-20T20:52:38	29	60.5
28837	2023-08-20T21:02:38	28.8	61
28838	2023-08-20T21:12:38	28.5	61
28839	2023-08-20T21:22:38	28.3	62
28840	2023-08-20T21:32:38	28	62.5
28841	2023-08-20T21:42:38	27.7	63.5
28842	2023-08-20T21:52:38	27.3	66
28843	2023-08-20T22:02:38	26.9	67.5
28844	2023-08-20T22:12:38	26.9	66
28845	2023-08-20T22:22:38	26.8	67
28846	2023-08-20T22:32:38	26.6	68
28847	2023-08-20T22:42:38	26.5	69
28848	2023-08-20T22:52:38	26.2	69
28849	2023-08-20T23:02:38	26.2	69.5
28850	2023-08-20T23:12:38	26	70.5
28851	2023-08-20T23:22:38	25.8	70.5
28852	2023-08-20T23:32:38	25.5	71
28853	2023-08-20T23:42:38	25.5	71
28854	2023-08-20T23:52:38	25.3	71.5
28855	2023-08-21T00:02:38	25.1	72
28856	2023-08-21T00:12:38	25	73
28857	2023-08-21T00:22:38	24.7	73
28858	2023-08-21T00:32:38	24.6	73
28859	2023-08-21T00:42:38	24.6	73.5
28860	2023-08-21T00:52:38	24.3	74.5
28861	2023-08-21T01:02:38	24.1	75
28862	2023-08-21T01:12:38	24	75.5
28863	2023-08-21T01:22:38	23.9	75.5
28864	2023-08-21T01:32:38	23.7	76
28865	2023-08-21T01:42:38	23.7	76.5
28866	2023-08-21T01:52:38	23.5	77
28867	2023-08-21T02:02:38	23.5	77.5
28868	2023-08-21T02:12:38	23.3	77.5
28869	2023-08-21T02:22:38	23.2	78.5
28870	2023-08-21T02:32:38	23	78.5
28871	2023-08-21T02:42:37	22.8	79
28872	2023-08-21T02:52:37	22.9	79
28873	2023-08-21T03:02:37	22.6	79.5
28874	2023-08-21T03:12:37	22.4	79.5
28875	2023-08-21T03:22:37	22.4	80
28876	2023-08-21T03:32:37	22.3	80.5
28877	2023-08-21T03:42:37	22.2	81
28878	2023-08-21T03:52:37	22	81
28879	2023-08-21T04:02:37	22	81.5
28880	2023-08-21T04:12:37	22	81
28881	2023-08-21T04:22:37	21.9	81.5
28882	2023-08-21T04:32:37	21.8	81.5
28883	2023-08-21T04:42:37	21.7	82
28884	2023-08-21T04:52:37	21.9	82
28885	2023-08-21T05:02:37	21.9	81.5
28886	2023-08-21T05:12:37	21.9	82.5
28887	2023-08-21T05:22:37	21.9	82
28888	2023-08-21T05:32:37	22	82
28889	2023-08-21T05:42:37	22	82
28890	2023-08-21T05:52:37	22.1	82
28891	2023-08-21T06:02:37	22.4	82
28892	2023-08-21T06:12:37	22.5	82
28893	2023-08-21T06:22:37	22.8	82
28894	2023-08-21T06:32:37	22.9	81.5
28895	2023-08-21T06:42:37	23.1	81.5
28896	2023-08-21T06:52:37	23.3	80.5
28897	2023-08-21T07:02:37	23.4	81.5
28898	2023-08-21T07:12:37	23.6	81
28899	2023-08-21T07:22:37	23.8	80.5
28900	2023-08-21T07:32:37	24	80.5
28901	2023-08-21T07:42:37	24.2	79.5
28902	2023-08-21T07:52:37	24.3	79
28903	2023-08-21T08:02:37	24.5	77
28904	2023-08-21T08:12:37	24.8	78
28905	2023-08-21T08:22:37	24.9	76
28906	2023-08-21T08:32:37	25.2	76.5
28907	2023-08-21T08:42:37	25.5	74
28908	2023-08-21T08:52:37	25.6	74
28909	2023-08-21T09:02:37	25.8	72.5
28910	2023-08-21T09:12:37	26.2	70.5
28911	2023-08-21T09:22:37	26.4	67.5
28912	2023-08-21T09:32:37	26.5	69.5
28913	2023-08-21T09:42:37	26.8	69
28914	2023-08-21T09:52:37	27	68.5
28915	2023-08-21T10:02:37	27.2	68
28916	2023-08-21T10:12:37	27.5	67
28917	2023-08-21T10:22:37	27.8	63.5
28918	2023-08-21T10:32:37	28	64.5
28919	2023-08-21T10:42:37	28.4	62
28920	2023-08-21T10:52:37	28.7	60.5
28921	2023-08-21T11:02:37	29	60.5
28922	2023-08-21T11:12:37	29.2	56
28923	2023-08-21T11:22:37	29.5	56
28924	2023-08-21T11:32:37	29.8	57
28925	2023-08-21T11:42:37	30.2	56.5
28926	2023-08-21T11:52:37	30.7	53.5
28927	2023-08-21T12:02:37	31.6	51.5
28928	2023-08-21T12:12:37	34.9	45.5
28929	2023-08-21T12:22:37	39	37
28930	2023-08-21T12:32:37	40.8	32.5
28931	2023-08-21T12:42:37	43.5	28.5
28932	2023-08-21T12:52:36	44.3	29
28933	2023-08-21T13:02:36	45.2	27
28934	2023-08-21T13:12:36	46.4	25.5
28935	2023-08-21T13:22:36	47	24
28936	2023-08-21T13:32:37	46.7	25
28937	2023-08-21T13:42:36	46.9	24
28938	2023-08-21T13:52:36	49.1	20.5
28939	2023-08-21T14:02:36	47.8	22.5
28940	2023-08-21T14:12:37	48.7	22.5
28941	2023-08-21T14:22:36	49.6	20.5
28942	2023-08-21T14:32:36	50	19.5
28943	2023-08-21T14:42:36	50.7	19
28944	2023-08-21T14:52:36	49.5	19.5
28945	2023-08-21T15:02:36	51.3	20
28946	2023-08-21T15:12:36	51.8	18.5
28947	2023-08-21T15:22:36	52.2	18
28948	2023-08-21T15:32:36	50.4	18.5
28949	2023-08-21T15:42:36	50.3	18.5
28950	2023-08-21T15:52:36	49.5	20.5
28951	2023-08-21T16:02:36	49.7	21
28952	2023-08-21T16:12:37	49.5	20.5
28953	2023-08-21T16:22:36	48.6	21.5
28954	2023-08-21T16:32:36	49	21.5
28955	2023-08-21T16:42:36	46.7	23
28956	2023-08-21T16:52:36	45.8	24.5
28957	2023-08-21T17:02:36	44.7	26.5
28958	2023-08-21T17:12:36	43.5	28.5
28959	2023-08-21T17:22:36	43.1	29.5
28960	2023-08-21T17:32:36	40.8	34.5
28961	2023-08-21T17:42:36	39.1	38
28962	2023-08-21T17:52:36	37.4	41
28963	2023-08-21T18:02:36	36.2	44
28964	2023-08-21T18:22:36	34.8	47
28965	2023-08-21T18:32:36	34.1	50
28966	2023-08-21T18:42:36	33.7	51.5
28967	2023-08-21T18:52:36	33.1	52.5
28968	2023-08-21T19:02:36	32.5	54.5
28969	2023-08-21T19:12:36	32.1	54
28970	2023-08-21T19:22:36	31.6	54
28971	2023-08-21T19:32:36	31.2	54.5
28972	2023-08-21T19:42:36	31	56.5
28973	2023-08-21T19:52:36	30.4	56
28974	2023-08-21T20:02:36	30.1	58
28975	2023-08-21T20:12:36	29.8	58
28976	2023-08-21T20:22:36	29.6	59.5
28977	2023-08-21T20:32:36	29.3	61
28978	2023-08-21T20:42:36	29	61
28979	2023-08-21T20:52:36	28.7	62.5
28980	2023-08-21T21:02:36	28.6	63
28981	2023-08-21T21:12:36	28.4	63.5
28982	2023-08-21T21:22:36	28.1	64.5
28983	2023-08-21T21:32:36	28	63
28984	2023-08-21T21:42:36	27.7	64.5
28985	2023-08-21T21:52:36	27.4	65.5
28986	2023-08-21T22:02:36	27.1	65.5
28987	2023-08-21T22:12:36	26.9	67
28988	2023-08-21T22:22:36	26.9	67
28989	2023-08-21T22:32:36	26.6	67.5
28990	2023-08-21T22:42:36	26.3	68
28991	2023-08-21T22:52:36	26.2	68
28992	2023-08-21T23:02:36	26	69
28993	2023-08-21T23:12:36	25.8	70
28994	2023-08-21T23:22:36	25.5	70.5
28995	2023-08-21T23:32:36	25.4	70.5
28996	2023-08-21T23:42:36	25.3	71
28997	2023-08-21T23:52:36	25.2	72
28998	2023-08-22T00:02:36	24.8	72.5
28999	2023-08-22T00:12:36	24.7	73
29000	2023-08-22T00:22:36	24.5	73.5
29001	2023-08-22T00:32:36	24.5	74
29002	2023-08-22T00:42:36	24.3	74
29003	2023-08-22T00:52:35	24.1	74.5
29004	2023-08-22T01:02:35	24.1	75
29005	2023-08-22T01:12:36	23.9	75
29006	2023-08-22T01:22:35	23.8	75.5
29007	2023-08-22T01:32:35	23.7	76
29008	2023-08-22T01:42:35	23.6	76.5
29009	2023-08-22T01:52:35	23.5	76.5
29010	2023-08-22T02:02:35	23.4	77
29011	2023-08-22T02:12:35	23.3	77.5
29012	2023-08-22T02:22:35	23	78
29013	2023-08-22T02:32:35	23.1	78.5
29014	2023-08-22T02:42:35	22.9	78.5
29015	2023-08-22T02:52:35	22.7	78.5
29016	2023-08-22T03:02:35	22.6	79.5
29017	2023-08-22T03:12:35	22.5	80
29018	2023-08-22T03:22:35	22.3	80.5
29019	2023-08-22T03:32:35	22.3	80.5
29020	2023-08-22T03:42:35	22.1	81
29021	2023-08-22T03:52:35	22	81
29022	2023-08-22T04:02:35	22	80.5
29023	2023-08-22T04:12:35	22	81
29024	2023-08-22T04:22:35	21.9	81.5
29025	2023-08-22T04:32:35	21.8	82
29026	2023-08-22T04:42:35	21.8	82.5
29027	2023-08-22T04:52:35	21.6	82.5
29028	2023-08-22T05:02:35	21.6	83
29029	2023-08-22T05:12:35	21.7	82.5
29030	2023-08-22T05:22:35	21.9	82.5
29031	2023-08-22T05:32:35	21.9	82.5
29032	2023-08-22T05:42:35	22	82.5
29033	2023-08-22T05:52:35	22.1	83
29034	2023-08-22T06:02:35	22.3	83
29035	2023-08-22T06:12:35	22.4	83
29036	2023-08-22T06:22:35	22.6	82
29037	2023-08-22T06:32:35	22.7	81.5
29038	2023-08-22T06:42:35	22.9	81
29039	2023-08-22T06:52:35	23.1	81.5
29040	2023-08-22T07:02:35	23.3	81
29041	2023-08-22T07:12:35	23.5	81
29042	2023-08-22T07:22:35	23.7	81
29043	2023-08-22T07:32:35	23.8	81
29044	2023-08-22T07:42:35	24.1	78.5
29045	2023-08-22T07:52:35	24.2	79.5
29046	2023-08-22T08:02:35	24.5	78
29047	2023-08-22T08:12:35	24.7	76.5
29048	2023-08-22T08:22:35	25	77
29049	2023-08-22T08:32:35	25.1	74.5
29050	2023-08-22T08:42:35	25.1	74
29051	2023-08-22T08:52:35	25.6	72.5
29052	2023-08-22T09:02:35	25.9	66.5
29053	2023-08-22T09:12:35	26.2	67
29054	2023-08-22T09:22:35	26.4	65
29055	2023-08-22T09:32:35	26.6	65
29056	2023-08-22T09:42:35	26.8	60
29057	2023-08-22T09:52:35	27.2	61.5
29058	2023-08-22T10:12:35	28.1	58.5
29059	2023-08-22T10:22:35	27.9	58.5
29060	2023-08-22T10:32:35	28.2	56.5
29061	2023-08-22T10:42:35	28.5	56
29062	2023-08-22T10:52:35	28.6	54
29063	2023-08-22T11:02:34	28.8	54
29064	2023-08-22T11:12:34	29	54
29065	2023-08-22T11:22:34	29.1	54.5
29066	2023-08-22T11:32:34	29.5	54.5
29067	2023-08-22T11:42:34	29.8	52
29068	2023-08-22T11:52:34	30.3	51
29069	2023-08-22T12:02:34	30.8	51.5
29070	2023-08-22T12:12:34	33.6	46
29071	2023-08-22T12:22:34	36.2	38.5
29072	2023-08-22T12:32:34	36.8	37
29073	2023-08-22T12:42:34	39.1	32.5
29074	2023-08-22T12:52:34	40.2	33
29075	2023-08-22T13:02:34	42.8	29
29076	2023-08-22T13:12:34	41.4	31
29077	2023-08-22T13:22:34	41.7	29.5
29078	2023-08-22T13:32:34	42.5	28.5
29079	2023-08-22T13:42:34	43.5	27
29080	2023-08-22T13:52:34	43.9	27
29081	2023-08-22T14:02:34	44	27.5
29082	2023-08-22T14:12:34	44.7	26
29083	2023-08-22T14:22:34	44.2	26
29084	2023-08-22T14:32:34	44.6	26
29085	2023-08-22T14:42:34	46.2	23.5
29086	2023-08-22T14:52:34	46.8	23
29087	2023-08-22T15:02:34	45.9	23.5
29088	2023-08-22T15:12:34	45.2	25
29089	2023-08-22T15:22:34	45.7	24.5
29090	2023-08-22T15:32:34	47.1	23
29091	2023-08-22T15:42:34	47.5	22
29092	2023-08-22T15:52:34	47.9	22.5
29093	2023-08-22T16:02:34	46.2	23.5
29094	2023-08-22T16:12:34	46	23
29095	2023-08-22T16:22:34	45.7	25
29096	2023-08-22T16:32:34	43.1	27
29097	2023-08-22T16:42:34	39.8	31
29098	2023-08-22T16:52:34	37.7	35
29099	2023-08-22T17:02:34	37.1	37.5
29100	2023-08-22T17:12:34	36.1	38.5
29101	2023-08-22T17:22:34	34.9	41
29102	2023-08-22T17:32:34	34.6	41.5
29103	2023-08-22T17:42:34	34.3	46
29104	2023-08-22T17:52:34	33.8	48
29105	2023-08-22T18:02:34	33.3	50
29106	2023-08-22T18:12:34	33	51
29107	2023-08-22T18:22:34	32.6	52
29108	2023-08-22T18:32:34	31.9	53.5
29109	2023-08-22T18:42:34	31.2	54
29110	2023-08-22T18:52:34	30.9	54
29111	2023-08-22T19:02:34	30.6	54
29112	2023-08-22T19:12:34	30.1	56
29113	2023-08-22T19:22:34	30.2	54
29114	2023-08-22T19:32:34	29.9	55
29115	2023-08-22T19:42:34	29.6	56
29116	2023-08-22T19:52:34	29.1	57
29117	2023-08-22T20:02:34	28.5	58
29118	2023-08-22T20:12:50	28.1	58.5
29119	2023-08-22T20:22:34	28	59
29120	2023-08-22T20:32:34	27.8	58
29121	2023-08-22T20:42:34	27.7	58.5
29122	2023-08-22T20:52:34	27.7	58.5
29123	2023-08-22T21:02:34	27.6	60.5
29124	2023-08-22T21:12:34	27.2	61
29125	2023-08-22T21:22:34	27	62
29126	2023-08-22T21:32:34	26.7	62
29127	2023-08-22T21:42:34	26.5	64.5
29128	2023-08-22T21:52:34	26.2	65
29129	2023-08-22T22:02:34	26	65
29130	2023-08-22T22:12:34	25.7	65
29131	2023-08-22T22:32:33	25.4	66
29132	2023-08-22T22:42:33	24.7	67
29133	2023-08-22T22:52:33	24.9	66.5
29134	2023-08-22T23:02:34	24.6	68
29135	2023-08-22T23:12:33	24.4	68
29136	2023-08-22T23:22:33	24.2	69
29137	2023-08-22T23:32:33	24.1	69
29138	2023-08-22T23:42:33	24.1	70
29139	2023-08-22T23:52:33	23.9	71.5
29140	2023-08-23T00:02:33	23.8	72
29141	2023-08-23T00:12:33	23.5	72
29142	2023-08-23T00:22:33	23.3	72.5
29143	2023-08-23T00:32:33	23.3	73
29144	2023-08-23T00:42:33	23	73.5
29145	2023-08-23T00:52:33	23	74
29146	2023-08-23T01:02:33	22.7	74
29147	2023-08-23T01:12:33	22.6	74.5
29148	2023-08-23T01:22:33	22.4	74.5
29149	2023-08-23T01:32:33	22.4	75
29150	2023-08-23T01:42:33	22.3	75
29151	2023-08-23T01:52:50	22.1	75.5
29152	2023-08-23T02:02:33	21.9	76
29153	2023-08-23T02:12:33	21.8	76.5
29154	2023-08-23T02:22:33	21.8	76.5
29155	2023-08-23T02:32:33	21.6	77
29156	2023-08-23T02:42:33	21.5	77.5
29157	2023-08-23T02:52:33	21.4	77
29158	2023-08-23T03:02:33	21.3	77.5
29159	2023-08-23T03:12:33	21.1	77.5
29160	2023-08-23T03:22:33	20.9	78
29161	2023-08-23T03:32:33	20.8	78.5
29162	2023-08-23T03:42:33	20.8	78.5
29163	2023-08-23T03:52:33	20.7	78.5
29164	2023-08-23T04:02:33	20.6	79
29165	2023-08-23T04:12:33	20.4	79
29166	2023-08-23T04:22:33	20.2	79
29167	2023-08-23T04:32:33	20.4	79
29168	2023-08-23T04:42:33	20.2	79.5
29169	2023-08-23T04:52:33	20.2	79.5
29170	2023-08-23T05:02:33	20.3	79.5
29171	2023-08-23T05:12:33	20.3	79.5
29172	2023-08-23T05:22:33	20.3	79.5
29173	2023-08-23T05:32:33	20.4	79
29174	2023-08-23T05:42:33	20.6	79
29175	2023-08-23T05:52:33	20.7	79
29176	2023-08-23T06:02:33	20.8	79
29177	2023-08-23T06:12:33	20.9	79
29178	2023-08-23T06:22:33	21.1	78.5
29179	2023-08-23T06:32:33	21.4	76.5
29180	2023-08-23T06:42:33	21.4	76
29181	2023-08-23T06:52:33	21.7	75.5
29182	2023-08-23T07:02:33	21.8	76
29183	2023-08-23T07:12:33	22.1	75.5
29184	2023-08-23T07:22:33	22.1	74.5
29185	2023-08-23T07:32:33	22.4	73.5
29186	2023-08-23T07:42:33	22.4	73
29187	2023-08-23T07:52:33	22.6	73
29188	2023-08-23T08:02:33	22.8	73
29189	2023-08-23T08:12:33	23.1	72.5
29190	2023-08-23T08:22:33	23.2	72.5
29191	2023-08-23T08:32:33	23.5	71.5
29192	2023-08-23T08:42:32	23.7	71.5
29193	2023-08-23T08:52:33	23.9	69.5
29194	2023-08-23T09:02:32	24	70
29195	2023-08-23T09:12:32	24.2	69.5
29196	2023-08-23T09:22:32	24.5	68.5
29197	2023-08-23T09:32:32	24.5	66.5
29198	2023-08-23T09:42:32	24.8	66
29199	2023-08-23T09:52:32	25	64.5
29200	2023-08-23T10:02:32	25.3	66.5
29201	2023-08-23T10:12:32	25.5	64
29202	2023-08-23T10:22:32	25.7	64
29203	2023-08-23T10:32:32	26.1	62.5
29204	2023-08-23T10:42:32	26.4	60.5
29205	2023-08-23T10:52:32	26.6	58.5
29206	2023-08-23T11:02:32	27	57.5
29207	2023-08-23T11:12:32	27.2	56
29208	2023-08-23T11:22:32	27.6	54.5
29209	2023-08-23T11:32:32	27.9	54
29210	2023-08-23T11:42:32	28.2	54.5
29211	2023-08-23T11:52:32	29	51
29212	2023-08-23T12:02:32	29.6	46.5
29213	2023-08-23T12:12:32	33	41
29214	2023-08-23T12:22:32	36.6	34
29215	2023-08-23T12:32:32	38	33.5
29216	2023-08-23T12:42:32	39.3	32
29217	2023-08-23T12:52:32	41.4	27.5
29218	2023-08-23T13:02:32	43.2	25
29219	2023-08-23T13:12:32	43.7	22
29220	2023-08-23T13:22:32	44.5	20
29221	2023-08-23T13:32:32	44.4	21.5
29222	2023-08-23T13:42:32	45.3	20
29223	2023-08-23T13:52:32	46	19
29224	2023-08-23T14:02:32	46.2	19
29225	2023-08-23T14:12:32	46.7	19.5
29226	2023-08-23T14:22:32	44.2	21
29227	2023-08-23T14:32:32	45.1	20.5
29228	2023-08-23T14:42:32	47.3	18.5
29229	2023-08-23T14:52:32	45.9	20.5
29230	2023-08-23T15:02:32	45.9	20
29231	2023-08-23T15:12:32	43	23
29232	2023-08-23T15:22:32	41.5	23.5
29233	2023-08-23T15:32:32	41.7	25.5
29234	2023-08-23T15:42:32	41.7	25
29235	2023-08-23T15:52:32	39.5	28
29236	2023-08-23T16:02:32	38	30
29237	2023-08-23T16:12:32	37.3	32
29238	2023-08-23T16:22:32	38.4	30
29239	2023-08-23T16:32:32	40.7	28.5
29240	2023-08-23T16:42:32	39.7	30
29241	2023-08-23T16:52:32	39.8	30
29242	2023-08-23T17:02:32	38.6	30.5
29243	2023-08-23T17:12:32	37.6	32.5
29244	2023-08-23T17:22:32	37.3	33.5
29245	2023-08-23T17:32:32	35.9	36
29246	2023-08-23T17:42:32	34.7	40.5
29247	2023-08-23T17:52:32	33.7	45.5
29248	2023-08-23T18:02:32	32.7	47
29249	2023-08-23T18:12:32	31.9	47
29250	2023-08-23T18:22:32	31.3	49
29251	2023-08-23T18:32:32	30.8	50
29252	2023-08-23T18:42:32	30.2	53
29253	2023-08-23T18:52:32	29.7	53.5
29254	2023-08-23T19:02:32	29.3	54.5
29255	2023-08-23T19:12:32	29	54.5
29256	2023-08-23T19:22:32	28.6	56
29257	2023-08-23T19:32:32	28.2	55.5
29258	2023-08-23T19:42:32	27.8	57
29259	2023-08-23T19:52:31	27.6	58
29260	2023-08-23T20:02:32	27.3	59
29261	2023-08-23T20:12:32	27.1	59.5
29262	2023-08-23T20:32:31	26.7	61
29263	2023-08-23T20:42:31	26.3	61.5
29264	2023-08-23T20:52:31	26.1	62
29265	2023-08-23T21:02:31	26	62.5
29266	2023-08-23T21:12:31	25.7	63
29267	2023-08-23T21:22:31	25.7	62.5
29268	2023-08-23T21:32:31	25.5	63
29269	2023-08-23T21:42:31	25.2	63
29270	2023-08-23T21:52:31	25	63.5
29271	2023-08-23T22:02:31	24.8	63.5
29272	2023-08-23T22:12:31	24.5	64
29273	2023-08-23T22:22:31	24.4	64
29274	2023-08-23T22:32:31	24.1	63
29275	2023-08-23T22:42:31	24.1	64
29276	2023-08-23T22:52:31	23.8	64
29277	2023-08-23T23:02:31	23.7	65.5
29278	2023-08-23T23:12:31	23.3	66.5
29279	2023-08-23T23:22:31	23.2	66.5
29280	2023-08-23T23:32:31	23	66.5
29281	2023-08-23T23:42:31	22.9	66
29282	2023-08-23T23:52:31	22.8	68
29283	2023-08-24T00:02:31	22.6	67.5
29284	2023-08-24T00:12:31	22.4	67.5
29285	2023-08-24T00:22:31	22.4	66.5
29286	2023-08-24T00:32:31	22.4	65.5
29287	2023-08-24T00:42:31	22.3	65
29288	2023-08-24T00:52:31	22.1	65.5
29289	2023-08-24T01:02:31	22.2	65
29290	2023-08-24T01:12:31	21.9	67.5
29291	2023-08-24T01:22:31	21.9	68.5
29292	2023-08-24T01:32:31	21.8	69
29293	2023-08-24T01:42:31	21.8	68
29294	2023-08-24T01:52:31	21.7	68.5
29295	2023-08-24T02:02:31	21.6	69.5
29296	2023-08-24T02:12:31	21.5	70
29297	2023-08-24T02:22:31	21.4	69.5
29298	2023-08-24T02:32:31	21.4	70
29299	2023-08-24T02:42:31	21.3	70
29300	2023-08-24T02:52:31	21.4	68
29301	2023-08-24T03:02:31	21.2	70.5
29302	2023-08-24T03:12:31	21	70.5
29303	2023-08-24T03:22:31	21	69.5
29304	2023-08-24T03:32:31	20.9	69
29305	2023-08-24T03:42:31	20.8	70.5
29306	2023-08-24T03:52:31	20.6	71
29307	2023-08-24T04:02:31	20.5	71.5
29308	2023-08-24T04:12:31	20.5	72
29309	2023-08-24T04:22:31	20.6	71
29310	2023-08-24T04:32:31	20.7	70.5
29311	2023-08-24T04:42:31	20.6	71
29312	2023-08-24T04:52:31	20.5	71.5
29313	2023-08-24T05:02:31	20.7	71
29314	2023-08-24T05:12:31	21	70.5
29315	2023-08-24T05:22:31	21.2	70
29316	2023-08-24T05:32:31	21.3	70
29317	2023-08-24T05:42:31	21.4	69
29318	2023-08-24T05:52:31	21.5	69
29319	2023-08-24T06:02:31	21.8	68.5
29320	2023-08-24T06:12:30	21.8	70
29321	2023-08-24T06:22:31	22	72
29322	2023-08-24T06:32:30	22.1	69
29323	2023-08-24T06:42:30	22.3	68.5
29324	2023-08-24T06:52:30	22.1	69
29325	2023-08-24T07:02:30	21.7	69.5
29326	2023-08-24T07:12:30	21.7	71
29327	2023-08-24T07:22:30	21.9	72.5
29328	2023-08-24T07:32:30	22.2	70
29329	2023-08-24T07:42:30	22.3	69.5
29330	2023-08-24T07:52:30	22.6	69
29331	2023-08-24T08:02:30	22.6	69
29332	2023-08-24T08:12:30	23	68
29333	2023-08-24T08:22:30	23.1	67.5
29334	2023-08-24T08:32:30	23.4	68
29335	2023-08-24T08:42:30	23.6	66.5
29336	2023-08-24T08:52:30	24	68
29337	2023-08-24T09:02:30	24.2	66
29338	2023-08-24T09:12:30	24.5	64.5
29339	2023-08-24T09:22:30	24.9	64.5
29340	2023-08-24T09:32:30	25.3	64
29341	2023-08-24T09:42:30	25.7	63
29342	2023-08-24T09:52:30	26.1	63
29343	2023-08-24T10:02:30	26.7	62
29344	2023-08-24T10:12:30	27.1	60
29345	2023-08-24T10:22:30	27.6	59
29346	2023-08-24T10:32:30	27.7	60
29347	2023-08-24T10:42:30	28	58.5
29348	2023-08-24T10:52:30	28.3	58.5
29349	2023-08-24T11:02:30	28.7	58.5
29350	2023-08-24T11:12:30	29.1	55.5
29351	2023-08-24T11:22:30	29.6	56
29352	2023-08-24T11:32:30	30	53
29353	2023-08-24T11:42:30	30.8	52
29354	2023-08-24T11:52:30	31.9	48.5
29355	2023-08-24T12:02:30	33.1	47
29356	2023-08-24T12:12:30	34.1	45
29357	2023-08-24T12:22:30	37.5	38.5
29358	2023-08-24T12:32:30	40.1	33.5
29359	2023-08-24T12:42:30	39.6	35
29360	2023-08-24T12:52:30	41	31.5
29361	2023-08-24T13:02:30	40.8	31.5
29362	2023-08-24T13:12:30	42.1	32
29363	2023-08-24T13:22:30	39.2	36
29364	2023-08-24T13:32:30	41.5	32.5
29365	2023-08-24T13:42:30	36.3	42.5
29366	2023-08-24T13:52:30	34	47.5
29367	2023-08-24T14:02:30	30.6	67
29368	2023-08-24T14:12:30	30.2	60.5
29369	2023-08-24T14:22:30	26.2	93
29370	2023-08-24T14:32:30	26.1	95
29371	2023-08-24T14:42:30	26.6	96
29372	2023-08-24T14:52:30	26.5	96.5
29373	2023-08-24T15:02:30	26.4	97
29374	2023-08-24T15:12:30	26.3	97
29375	2023-08-24T15:22:30	27.8	98
29376	2023-08-24T15:32:30	28.8	97.5
29377	2023-08-24T15:42:30	29.4	97.5
29378	2023-08-24T15:52:30	29.2	95.5
29379	2023-08-24T16:02:30	28.7	93.5
29380	2023-08-24T16:12:30	28	93
29381	2023-08-24T16:22:30	27.7	92.5
29382	2023-08-24T16:32:29	27.2	92
29383	2023-08-24T16:42:29	27	91
29384	2023-08-24T17:02:29	25.6	94
29385	2023-08-24T17:12:29	24.9	96.5
29386	2023-08-24T17:22:29	24.8	96.5
29387	2023-08-24T17:32:29	24.4	97
29388	2023-08-24T17:42:29	24.4	97.5
29389	2023-08-24T17:52:29	24.2	97.5
29390	2023-08-24T18:02:29	24	97.5
29391	2023-08-24T18:12:29	23.7	97
29392	2023-08-24T18:22:29	24	98
29393	2023-08-24T18:32:30	23.4	97.5
29394	2023-08-24T18:42:29	23.5	98
29395	2023-08-24T18:52:29	23.1	98
29396	2023-08-24T19:02:29	23.1	98
29397	2023-08-24T19:12:29	22.8	98
29398	2023-08-24T19:22:29	22.5	98.5
29399	2023-08-24T19:32:29	22.2	98.5
29400	2023-08-24T19:42:29	22.5	98.5
29401	2023-08-24T19:52:29	22.3	98.5
29402	2023-08-24T20:02:29	22	98.5
29403	2023-08-24T20:12:29	22	98.5
29404	2023-08-24T20:22:29	22.1	98.5
29405	2023-08-24T20:32:29	22.1	98.5
29406	2023-08-24T20:42:29	21.8	98.5
29407	2023-08-24T20:52:29	21.6	98.5
29408	2023-08-24T21:02:29	21.6	98.5
29409	2023-08-24T21:12:29	21.6	98.5
29410	2023-08-24T21:22:29	21.5	98.5
29411	2023-08-24T21:32:29	21.4	99
29412	2023-08-24T21:42:29	21.4	99
29413	2023-08-24T21:52:29	21.4	99
29414	2023-08-24T22:02:29	21.3	98.5
29415	2023-08-24T22:12:29	21	98.5
29416	2023-08-24T22:22:29	21	98.5
29417	2023-08-24T22:42:29	20.9	99
29418	2023-08-24T22:52:29	20.8	98.5
29419	2023-08-24T23:02:29	20.8	99
29420	2023-08-24T23:12:29	20.7	99
29421	2023-08-24T23:22:29	20.5	98.5
29422	2023-08-24T23:32:29	20.1	98.5
29423	2023-08-24T23:42:29	20	98.5
29424	2023-08-24T23:52:29	20.3	99
29425	2023-08-25T00:02:29	20.2	99
29426	2023-08-25T00:12:29	20	99
29427	2023-08-25T00:22:29	20	99
29428	2023-08-25T00:32:29	19.8	99
29429	2023-08-25T00:42:29	19.8	99
29430	2023-08-25T00:52:29	19.8	99
29431	2023-08-25T01:02:29	19.7	99
29432	2023-08-25T01:12:29	19.6	99
29433	2023-08-25T01:22:50	19.5	99
29434	2023-08-25T01:32:29	19.4	99
29435	2023-08-25T01:42:29	19.3	99
29436	2023-08-25T01:52:29	19.3	99
29437	2023-08-25T02:02:29	19.3	99
29438	2023-08-25T02:12:29	19.3	99
29439	2023-08-25T02:22:29	19.1	99
29440	2023-08-25T02:32:29	19.1	99
29441	2023-08-25T02:42:29	19.1	99
29442	2023-08-25T02:52:29	19	99
29443	2023-08-25T03:02:28	19.1	99
29444	2023-08-25T03:12:28	19	99
29445	2023-08-25T03:22:28	18.9	99
29446	2023-08-25T03:32:28	18.8	99
29447	2023-08-25T03:42:28	18.8	99
29448	2023-08-25T03:52:29	18.8	99
29449	2023-08-25T04:02:28	18.8	99
29450	2023-08-25T04:12:28	18.7	99
29451	2023-08-25T04:22:28	18.6	99.5
29452	2023-08-25T04:32:28	18.6	99
29453	2023-08-25T04:42:28	18.8	99.5
29454	2023-08-25T04:52:28	18.8	99.5
29455	2023-08-25T05:02:28	19.1	99.5
29456	2023-08-25T05:12:28	19.3	99.5
29457	2023-08-25T05:22:28	19.5	99.5
29458	2023-08-25T05:32:28	19.4	99.5
29459	2023-08-25T05:42:28	19.4	99.5
29460	2023-08-25T05:52:28	19.1	99.5
29461	2023-08-25T06:02:28	19.1	99.5
29462	2023-08-25T06:12:28	19.3	100
29463	2023-08-25T06:22:28	19.4	100
29464	2023-08-25T06:32:28	19.5	100
29465	2023-08-25T06:42:28	19.5	100
29466	2023-08-25T06:52:28	19.5	100
29467	2023-08-25T07:02:28	19.3	100
29468	2023-08-25T07:12:28	19.4	100
29469	2023-08-25T07:22:28	19.2	100
29470	2023-08-25T07:32:28	19	100
29471	2023-08-25T07:42:28	19	100
29472	2023-08-25T07:52:28	19	100
29473	2023-08-25T08:02:28	18.9	100
29474	2023-08-25T08:12:28	18.8	100
29475	2023-08-25T08:22:28	18.9	100
29476	2023-08-25T08:32:28	19.2	100
29477	2023-08-25T08:42:28	19.7	100
29478	2023-08-25T08:52:28	20.1	99.5
29479	2023-08-25T09:02:28	20.4	100
29480	2023-08-25T09:12:28	20.8	100
29481	2023-08-25T09:22:28	20.4	100
29482	2023-08-25T09:32:28	20.6	100
29483	2023-08-25T09:42:28	20.5	100
29484	2023-08-25T09:52:28	20.7	100
29485	2023-08-25T10:02:28	20.7	100
29486	2023-08-25T10:12:28	21.1	99.5
29487	2023-08-25T10:22:28	21.8	99
29488	2023-08-25T10:32:28	22.3	98.5
29489	2023-08-25T10:42:28	23.1	98
29490	2023-08-25T10:52:28	23.6	97.5
29491	2023-08-25T11:02:28	23.9	97.5
29492	2023-08-25T11:12:28	24.1	97.5
29493	2023-08-25T11:22:28	24.3	97.5
29494	2023-08-25T11:32:28	24.3	96.5
29495	2023-08-25T11:42:28	24.3	96
29496	2023-08-25T11:52:28	24.1	96
29497	2023-08-25T12:02:28	24.3	95
29498	2023-08-25T12:12:28	24.8	95.5
29499	2023-08-25T12:22:28	25	96
29500	2023-08-25T12:32:28	25.3	96.5
29501	2023-08-25T12:42:28	26.9	95.5
29502	2023-08-25T12:52:28	26.6	95.5
29503	2023-08-25T13:02:28	28.8	93
29504	2023-08-25T13:12:27	29.8	56.5
29505	2023-08-25T13:22:27	31.7	48.5
29506	2023-08-25T13:32:27	30.7	49.5
29507	2023-08-25T13:42:27	32.1	48
29508	2023-08-25T13:52:27	31.9	45.5
29509	2023-08-25T14:02:27	30.1	49.5
29510	2023-08-25T14:12:27	32.5	43
29511	2023-08-25T14:22:27	34.5	40
29512	2023-08-25T14:32:27	35.3	37
29513	2023-08-25T14:42:27	35.7	36
29514	2023-08-25T14:52:27	36.6	34.5
29515	2023-08-25T15:02:27	36.6	35.5
29516	2023-08-25T15:12:27	35.4	37
29517	2023-08-25T15:22:27	36.8	35
29518	2023-08-25T15:32:27	33.9	40.5
29519	2023-08-25T15:42:27	37.4	35
29520	2023-08-25T15:52:27	37.9	34
29521	2023-08-25T16:02:27	37.5	35
29522	2023-08-25T16:12:27	37.4	35.5
29523	2023-08-25T16:22:27	36	38
29524	2023-08-25T16:32:27	35.2	39.5
29525	2023-08-25T16:42:27	33.9	41.5
29526	2023-08-25T16:52:27	31.9	45
29527	2023-08-25T17:02:27	31	47
29528	2023-08-25T17:12:27	29.6	51
29529	2023-08-25T17:22:27	28.9	54.5
29530	2023-08-25T17:32:27	28.1	57.5
29531	2023-08-25T17:42:27	27.9	57
29532	2023-08-25T17:52:27	27.4	59.5
29533	2023-08-25T18:02:27	27	65.5
29534	2023-08-25T18:12:27	26.5	68.5
29535	2023-08-25T18:22:27	26.2	70
29536	2023-08-25T18:32:27	25.9	70.5
29537	2023-08-25T18:42:27	25.6	69
29538	2023-08-25T18:52:27	25.4	69.5
29539	2023-08-25T19:02:27	25.2	71
29540	2023-08-25T19:12:27	24.9	71.5
29541	2023-08-25T19:22:27	24.8	69
29542	2023-08-25T19:32:27	24.6	72
29543	2023-08-25T19:42:27	24.3	72.5
29544	2023-08-25T19:52:27	24.2	74
29545	2023-08-25T20:02:27	24.2	74
29546	2023-08-25T20:12:27	24.1	75
29547	2023-08-25T20:22:27	24.2	73.5
29548	2023-08-25T20:32:27	24.2	76.5
29549	2023-08-25T20:42:27	24.1	76
29550	2023-08-25T20:52:27	24.1	74
29551	2023-08-25T21:02:27	23.9	74
29552	2023-08-25T21:12:27	23.7	74.5
29553	2023-08-25T21:22:27	23.7	76.5
29554	2023-08-25T21:32:27	23.5	76.5
29555	2023-08-25T21:42:27	23.5	76.5
29556	2023-08-25T21:52:27	23.6	78
29557	2023-08-25T22:02:27	23.3	74.5
29558	2023-08-25T22:12:27	23.4	75.5
29559	2023-08-25T22:22:27	23.2	83
29560	2023-08-25T22:32:27	22.1	86
29561	2023-08-25T22:42:27	21.7	89
29562	2023-08-25T22:52:27	21	92.5
29563	2023-08-25T23:02:27	20.9	95
29564	2023-08-25T23:12:27	20.7	96
29565	2023-08-25T23:22:27	20.5	96.5
29566	2023-08-25T23:32:27	20.6	97
29567	2023-08-25T23:42:26	20.3	97
29568	2023-08-25T23:52:26	19.7	97
29569	2023-08-26T00:02:26	19.6	97
29570	2023-08-26T00:12:26	19.6	97.5
29571	2023-08-26T00:22:26	19.6	97.5
29572	2023-08-26T00:32:26	19.5	97.5
29573	2023-08-26T00:42:26	19.5	98
29574	2023-08-26T00:52:26	19.5	98
29575	2023-08-26T01:02:26	19.6	98
29576	2023-08-26T01:12:26	19.8	98.5
29577	2023-08-26T01:22:26	19.7	98.5
29578	2023-08-26T01:32:26	19.8	98.5
29579	2023-08-26T01:42:26	19.8	98.5
29580	2023-08-26T01:52:26	19.7	98.5
29581	2023-08-26T02:02:26	19.7	98.5
29582	2023-08-26T02:12:26	19.7	98.5
29583	2023-08-26T02:22:26	19.6	98.5
29584	2023-08-26T02:32:26	19.6	98.5
29585	2023-08-26T02:42:26	19.6	98.5
29586	2023-08-26T02:52:26	19.5	98.5
29587	2023-08-26T03:02:26	19.4	98.5
29588	2023-08-26T03:12:26	19.4	98.5
29589	2023-08-26T03:22:26	19.3	98.5
29590	2023-08-26T03:32:26	19.2	98.5
29591	2023-08-26T03:42:27	19.1	98.5
29592	2023-08-26T03:52:26	19	98.5
29593	2023-08-26T04:02:26	19	98.5
29594	2023-08-26T04:12:26	18.8	98.5
29595	2023-08-26T04:22:26	18.9	98.5
29596	2023-08-26T04:32:26	18.7	98.5
29597	2023-08-26T04:42:26	18.5	98.5
29598	2023-08-26T04:52:26	18.4	98.5
29599	2023-08-26T05:02:26	18.5	98.5
29600	2023-08-26T05:12:26	18.5	99
29601	2023-08-26T05:22:26	18.4	99
29602	2023-08-26T05:32:26	18.6	99
29603	2023-08-26T05:42:26	18.6	99
29604	2023-08-26T05:52:26	18.7	99
29605	2023-08-26T06:02:26	18.7	99
29606	2023-08-26T06:12:26	18.8	99
29607	2023-08-26T06:22:26	18.8	99
29608	2023-08-26T06:32:26	18.9	99
29609	2023-08-26T06:42:26	19.3	99.5
29610	2023-08-26T06:52:26	19.2	99
29611	2023-08-26T07:02:26	19	99
29612	2023-08-26T07:12:26	18.8	98.5
29613	2023-08-26T07:22:26	18.8	99
29614	2023-08-26T07:32:26	18.6	98.5
29615	2023-08-26T07:42:26	18.7	99
29616	2023-08-26T07:52:26	18.4	99
29617	2023-08-26T08:02:26	18.3	99
29618	2023-08-26T08:12:26	19.1	99
29619	2023-08-26T08:22:26	19.4	98.5
29620	2023-08-26T08:32:26	20	98.5
29621	2023-08-26T08:42:26	19.9	97.5
29622	2023-08-26T08:52:26	20	98.5
29623	2023-08-26T09:02:26	20.7	98.5
29624	2023-08-26T09:12:26	21.4	99
29625	2023-08-26T09:22:26	21.9	98.5
29626	2023-08-26T09:32:26	22.3	98.5
29627	2023-08-26T09:42:26	21.9	97.5
29628	2023-08-26T09:52:26	22	98
29629	2023-08-26T10:02:26	21.9	97.5
29630	2023-08-26T10:12:26	21.5	98
29631	2023-08-26T10:22:26	21	97
29632	2023-08-26T10:32:25	20.6	97
29633	2023-08-26T10:42:25	21.3	98.5
29634	2023-08-26T10:52:26	20.9	96.5
29635	2023-08-26T11:02:25	20.5	96
29636	2023-08-26T11:12:25	20.3	97.5
29637	2023-08-26T11:22:25	20.2	97
29638	2023-08-26T11:32:25	19.9	96
29639	2023-08-26T11:42:25	19.9	97
29640	2023-08-26T11:52:25	20.2	97
29641	2023-08-26T12:02:25	20.3	97.5
29642	2023-08-26T12:12:25	19.8	96
29643	2023-08-26T12:22:25	20	96.5
29644	2023-08-26T12:32:25	20.2	96.5
29645	2023-08-26T12:52:25	20.3	96.5
29646	2023-08-26T13:02:25	20	96.5
29647	2023-08-26T13:12:25	20.2	78
29648	2023-08-26T13:22:25	20.4	67
29649	2023-08-26T13:32:25	20.3	70
29650	2023-08-26T13:42:25	20.7	71
29651	2023-08-26T13:52:25	20.6	68
29652	2023-08-26T14:02:25	20.8	66.5
29653	2023-08-26T14:12:25	24.1	55
29654	2023-08-26T14:22:25	24.1	53.5
29655	2023-08-26T14:32:25	24	56
29656	2023-08-26T14:42:25	26	48.5
29657	2023-08-26T14:52:25	25	52.5
29658	2023-08-26T15:02:25	26.1	49
29659	2023-08-26T15:12:25	29	41.5
29660	2023-08-26T15:22:25	30.5	40.5
29661	2023-08-26T15:32:25	32.7	38.5
29662	2023-08-26T15:42:25	30.5	40
29663	2023-08-26T15:52:25	25.8	48.5
29664	2023-08-26T16:02:25	24.3	52.5
29665	2023-08-26T16:12:25	23.2	57
29666	2023-08-26T16:22:25	22.7	58
29667	2023-08-26T16:32:25	22.5	62
29668	2023-08-26T16:42:25	22.6	66
29669	2023-08-26T16:52:25	22.8	66
29670	2023-08-26T17:02:25	22.9	65.5
29671	2023-08-26T17:12:25	23.7	64.5
29672	2023-08-26T17:22:25	23.2	65.5
29673	2023-08-26T17:32:25	23.2	65.5
29674	2023-08-26T17:42:25	22.6	66.5
29675	2023-08-26T17:52:25	22.1	67.5
29676	2023-08-26T18:02:25	21.8	68.5
29677	2023-08-26T18:12:25	21.4	70.5
29678	2023-08-26T18:22:25	21	72
29679	2023-08-26T18:42:25	20.5	76
29680	2023-08-26T18:52:25	20	79.5
29681	2023-08-26T19:02:25	19.9	79
29682	2023-08-26T19:12:25	19.6	79.5
29683	2023-08-26T19:22:25	19.7	81
29684	2023-08-26T19:32:25	19.5	81.5
29685	2023-08-26T19:42:25	19.5	81
29686	2023-08-26T19:52:25	19.5	81
29687	2023-08-26T20:02:25	19.1	82
29688	2023-08-26T20:12:25	18.8	82.5
29689	2023-08-26T20:22:25	18.6	84
29690	2023-08-26T20:32:25	18.5	85
29691	2023-08-26T20:42:24	18.4	85
29692	2023-08-26T20:52:24	18.4	84.5
29693	2023-08-26T21:02:24	18.2	85.5
29694	2023-08-26T21:12:24	18.1	86.5
29695	2023-08-26T21:22:24	17.9	86
29696	2023-08-26T21:32:24	17.8	86.5
29697	2023-08-26T21:42:24	17.6	87.5
29698	2023-08-26T21:52:24	17.5	87.5
29699	2023-08-26T22:02:24	17.4	88
29700	2023-08-26T22:12:25	17.5	87.5
29701	2023-08-26T22:22:24	17.5	87.5
29702	2023-08-26T22:32:24	17.4	87.5
29703	2023-08-26T22:42:24	17.4	87.5
29704	2023-08-26T22:52:24	17.3	87
29705	2023-08-26T23:02:24	17.3	87.5
29706	2023-08-26T23:12:24	17.1	88.5
29707	2023-08-26T23:22:24	17.2	88.5
29708	2023-08-26T23:32:24	17.1	88.5
29709	2023-08-26T23:42:24	17.4	87
29710	2023-08-26T23:52:24	17.3	87.5
29711	2023-08-27T00:02:24	17.2	88
29712	2023-08-27T00:22:24	17.2	87.5
29713	2023-08-27T00:32:24	17.2	88
29714	2023-08-27T00:42:24	17.1	89
29715	2023-08-27T00:52:24	16.9	89
29716	2023-08-27T01:02:24	16.9	90
29717	2023-08-27T01:12:24	16.9	89
29718	2023-08-27T01:22:24	17	90
29719	2023-08-27T01:32:24	17.1	90.5
29720	2023-08-27T01:42:24	17	90
29721	2023-08-27T01:52:24	17	90.5
29722	2023-08-27T02:02:24	17	90.5
29723	2023-08-27T02:12:24	16.9	91
29724	2023-08-27T02:22:24	16.8	91
29725	2023-08-27T02:32:24	16.7	91.5
29726	2023-08-27T02:42:24	16.7	92
29727	2023-08-27T02:52:24	16.6	91.5
29728	2023-08-27T03:02:24	16.6	91.5
29729	2023-08-27T03:12:24	16.8	91.5
29730	2023-08-27T03:22:24	16.7	92
29731	2023-08-27T03:32:24	16.7	92
29732	2023-08-27T03:42:24	16.7	92
29733	2023-08-27T03:52:24	16.7	92.5
29734	2023-08-27T04:02:24	16.7	92.5
29735	2023-08-27T04:12:24	16.5	92
29736	2023-08-27T04:22:24	16.5	93
29737	2023-08-27T04:32:24	16.3	93.5
29738	2023-08-27T04:42:24	16.3	93.5
29739	2023-08-27T04:52:24	16.3	93.5
29740	2023-08-27T05:02:24	16.1	93.5
29741	2023-08-27T05:12:24	16.1	94
29742	2023-08-27T05:22:24	16.1	93.5
29743	2023-08-27T05:32:24	16.2	93
29744	2023-08-27T05:42:24	16.3	93
29745	2023-08-27T05:52:24	16.7	92.5
29746	2023-08-27T06:02:24	16.7	92
29747	2023-08-27T06:12:24	16.8	92
29748	2023-08-27T06:22:24	16.9	90.5
29749	2023-08-27T06:32:24	17.2	91
29750	2023-08-27T06:42:24	17.2	91
29751	2023-08-27T06:52:24	17.2	89.5
29752	2023-08-27T07:02:24	17.4	89.5
29753	2023-08-27T07:12:24	17.7	88.5
29754	2023-08-27T07:22:24	18.2	87.5
29755	2023-08-27T07:32:24	18.5	85.5
29756	2023-08-27T07:42:24	18.7	84
29757	2023-08-27T07:52:24	18.6	84
29758	2023-08-27T08:02:24	18.6	84.5
29759	2023-08-27T08:12:24	18.5	84
29760	2023-08-27T08:22:24	18.7	84
29761	2023-08-27T08:32:23	18.8	83.5
29762	2023-08-27T08:42:23	19.1	82.5
29763	2023-08-27T08:52:23	19.6	81
29764	2023-08-27T09:02:23	20.1	79.5
29765	2023-08-27T09:12:23	20.1	79
29766	2023-08-27T09:22:23	20.4	78.5
29767	2023-08-27T09:32:23	20.3	77.5
29768	2023-08-27T09:42:23	20.3	78.5
29769	2023-08-27T09:52:24	20.6	75.5
29770	2023-08-27T10:02:23	20.9	75
29771	2023-08-27T10:12:23	21.1	74
29772	2023-08-27T10:22:23	21.5	72
29773	2023-08-27T10:32:23	21.6	71
29774	2023-08-27T10:42:23	22	72
29775	2023-08-27T10:52:23	22.1	70
29776	2023-08-27T11:02:23	22.1	68
29777	2023-08-27T11:12:23	22.3	67.5
29778	2023-08-27T11:22:23	22.8	66
29779	2023-08-27T11:32:23	22.9	65
29780	2023-08-27T11:42:23	23.3	62.5
29781	2023-08-27T11:52:23	23.7	59.5
29782	2023-08-27T12:02:23	22.8	63.5
29783	2023-08-27T12:12:23	22.6	61
29784	2023-08-27T12:22:23	23	62
29785	2023-08-27T12:32:23	22.4	62.5
29786	2023-08-27T12:42:23	21.9	65.5
29787	2023-08-27T12:52:23	21.8	67.5
29788	2023-08-27T13:02:23	21.6	69.5
29789	2023-08-27T13:12:23	21.7	67
29790	2023-08-27T13:22:23	22.2	65
29791	2023-08-27T13:32:23	21.9	67
29792	2023-08-27T13:42:23	21.9	63.5
29793	2023-08-27T13:52:23	21.6	64.5
29794	2023-08-27T14:02:23	21	64.5
29795	2023-08-27T14:12:23	20.6	67
29796	2023-08-27T14:22:23	20.4	66
29797	2023-08-27T14:32:23	20.1	66
29798	2023-08-27T14:42:23	20.2	67.5
29799	2023-08-27T14:52:23	20.1	68.5
29800	2023-08-27T15:02:23	20.1	68
29801	2023-08-27T15:12:23	19.7	69.5
29802	2023-08-27T15:22:23	19.6	71.5
29803	2023-08-27T15:32:23	19.5	71
29804	2023-08-27T15:42:23	19.3	70.5
29805	2023-08-27T15:52:23	19.1	71.5
29806	2023-08-27T16:02:23	19	71.5
29807	2023-08-27T16:12:23	19	71.5
29808	2023-08-27T16:22:23	19.2	72
29809	2023-08-27T16:32:23	19	71.5
29810	2023-08-27T16:42:23	18.9	72.5
29811	2023-08-27T16:52:23	18.9	72
29812	2023-08-27T17:02:23	18.5	72.5
29813	2023-08-27T17:12:23	18.5	73
29814	2023-08-27T17:22:23	18.5	73.5
29815	2023-08-27T17:32:23	18.3	73.5
29816	2023-08-27T17:42:23	18.3	73.5
29817	2023-08-27T17:52:23	18.3	74
29818	2023-08-27T18:02:23	18.1	74.5
29819	2023-08-27T18:12:23	17.9	75
29820	2023-08-27T18:22:23	17.9	75
29821	2023-08-27T18:32:23	17.8	75
29822	2023-08-27T18:42:23	17.6	75
29823	2023-08-27T18:52:23	17.5	76
29824	2023-08-27T19:02:23	17.4	76
29825	2023-08-27T19:12:22	17.4	75
29826	2023-08-27T19:22:22	17.3	75.5
29827	2023-08-27T19:32:22	17.4	75.5
29828	2023-08-27T19:42:22	17.3	74.5
29829	2023-08-27T19:52:22	17.2	75
29830	2023-08-27T20:02:22	17.2	76.5
29831	2023-08-27T20:12:22	17.2	75
29832	2023-08-27T20:22:22	17.3	75
29833	2023-08-27T20:32:22	17.1	75
29834	2023-08-27T20:42:22	17.1	75.5
29835	2023-08-27T20:52:22	16.9	76.5
29836	2023-08-27T21:02:22	16.8	77
29837	2023-08-27T21:12:22	16.8	77
29838	2023-08-27T21:22:22	16.6	78.5
29839	2023-08-27T21:32:22	16.6	78.5
29840	2023-08-27T21:42:22	16.3	80
29841	2023-08-27T21:52:22	16.3	81
29842	2023-08-27T22:02:22	16.1	82
29843	2023-08-27T22:12:22	16.1	82.5
29844	2023-08-27T22:22:22	16.1	83.5
29845	2023-08-27T22:32:22	15.8	84.5
29846	2023-08-27T22:42:22	15.7	85
29847	2023-08-27T22:52:22	15.7	84.5
29848	2023-08-27T23:02:22	15.7	85.5
29849	2023-08-27T23:12:22	15.4	87.5
29850	2023-08-27T23:22:22	15.2	88
29851	2023-08-27T23:32:22	15.2	88
29852	2023-08-27T23:42:22	15.1	89
29853	2023-08-27T23:52:22	15	89
29854	2023-08-28T00:02:22	14.9	89
29855	2023-08-28T00:12:22	14.8	89.5
29856	2023-08-28T00:22:22	14.8	90.5
29857	2023-08-28T00:32:22	14.6	90.5
29858	2023-08-28T00:42:22	14.6	90.5
29859	2023-08-28T00:52:22	14.7	89.5
29860	2023-08-28T01:02:22	14.6	89
29861	2023-08-28T01:12:22	14.6	89.5
29862	2023-08-28T01:22:22	14.7	89.5
29863	2023-08-28T01:32:22	14.6	90.5
29864	2023-08-28T01:42:22	14.5	90
29865	2023-08-28T01:52:22	14.5	90.5
29866	2023-08-28T02:02:22	14.5	91
29867	2023-08-28T02:12:22	14.4	91.5
29868	2023-08-28T02:22:22	14.4	91.5
29869	2023-08-28T02:32:22	14.2	92
29870	2023-08-28T02:42:22	14.1	92
29871	2023-08-28T02:52:22	14.2	91.5
29872	2023-08-28T03:02:22	14.1	91
29873	2023-08-28T03:12:22	14	91.5
29874	2023-08-28T03:22:22	14	92
29875	2023-08-28T03:32:22	13.8	92.5
29876	2023-08-28T03:42:22	13.8	92.5
29877	2023-08-28T03:52:22	13.9	92.5
29878	2023-08-28T04:02:22	13.9	93
29879	2023-08-28T04:12:22	14	92.5
29880	2023-08-28T04:22:22	13.9	93
29881	2023-08-28T04:32:22	14	93
29882	2023-08-28T04:52:22	14	93
29883	2023-08-28T05:02:22	13.9	93
29884	2023-08-28T05:12:22	13.8	93
29885	2023-08-28T05:22:22	14	93
29886	2023-08-28T05:32:22	14.2	93
29887	2023-08-28T05:42:22	14.2	91.5
29888	2023-08-28T05:52:22	14.1	91.5
29889	2023-08-28T06:02:22	14.1	91
29890	2023-08-28T06:12:22	14.2	90.5
29891	2023-08-28T06:22:22	14.3	90.5
29892	2023-08-28T06:32:22	14.3	90.5
29893	2023-08-28T06:42:22	14.3	90.5
29894	2023-08-28T06:52:22	14.4	91
29895	2023-08-28T07:02:21	14.6	91.5
29896	2023-08-28T07:12:21	14.9	91
29897	2023-08-28T07:22:21	15.5	89.5
29898	2023-08-28T07:32:21	15.6	88.5
29899	2023-08-28T07:42:21	15.7	88.5
29900	2023-08-28T07:52:21	15.8	86.5
29901	2023-08-28T08:02:21	16	85.5
29902	2023-08-28T08:12:21	15.9	86.5
29903	2023-08-28T08:22:21	16.1	86
29904	2023-08-28T08:32:21	16.1	85.5
29905	2023-08-28T08:42:22	16.1	86
29906	2023-08-28T08:52:22	16.2	85.5
29907	2023-08-28T09:02:21	16.3	85
29908	2023-08-28T09:12:21	16.4	84.5
29909	2023-08-28T09:22:21	16.7	83
29910	2023-08-28T09:32:21	17.1	81.5
29911	2023-08-28T09:42:21	17.5	80.5
29912	2023-08-28T09:52:21	17.7	79.5
29913	2023-08-28T10:02:21	18.3	75.5
29914	2023-08-28T10:12:21	18.9	73.5
29915	2023-08-28T10:22:21	19.5	70
29916	2023-08-28T10:32:21	20	66
29917	2023-08-28T10:42:21	20	65.5
29918	2023-08-28T10:52:21	20.2	64.5
29919	2023-08-28T11:02:21	20.3	62
29920	2023-08-28T11:12:21	20.4	61.5
29921	2023-08-28T11:22:21	20.8	57.5
29922	2023-08-28T11:32:21	21	57.5
29923	2023-08-28T11:42:21	21.6	55
29924	2023-08-28T11:52:21	21.8	54
29925	2023-08-28T12:02:21	21.5	55.5
29926	2023-08-28T12:12:21	21.2	54
29927	2023-08-28T12:22:21	20.8	58
29928	2023-08-28T12:32:21	20.6	58
29929	2023-08-28T12:42:21	20.3	59.5
29930	2023-08-28T12:52:21	20.1	60
29931	2023-08-28T13:02:21	20	61
29932	2023-08-28T13:12:21	20	61.5
29933	2023-08-28T13:22:21	20.2	60.5
29934	2023-08-28T13:32:21	20.3	60
29935	2023-08-28T13:42:21	20.2	58
29936	2023-08-28T13:52:21	20.1	58
29937	2023-08-28T14:02:21	20	59
29938	2023-08-28T14:12:21	20	61.5
29939	2023-08-28T14:22:21	20.1	60
29940	2023-08-28T14:32:21	20	60
29941	2023-08-28T14:42:21	19.9	59.5
29942	2023-08-28T14:52:21	19.6	61
29943	2023-08-28T15:02:21	19.5	62
29944	2023-08-28T15:12:21	19.4	62
29945	2023-08-28T15:22:21	19.4	61.5
29946	2023-08-28T15:32:21	19.2	61
29947	2023-08-28T15:42:21	19.1	61.5
29948	2023-08-28T15:52:21	18.8	62.5
29949	2023-08-28T16:02:21	18.7	63
29950	2023-08-28T16:12:21	18.5	65
29951	2023-08-28T16:22:21	18.2	66
29952	2023-08-28T16:32:21	18.3	68.5
29953	2023-08-28T16:42:21	18.1	69
29954	2023-08-28T16:52:21	17.8	69.5
29955	2023-08-28T17:02:21	17.6	71.5
29956	2023-08-28T17:12:21	17.5	72
29957	2023-08-28T17:22:21	17.4	75
29958	2023-08-28T17:32:21	17.2	78
29959	2023-08-28T17:42:21	16.9	78.5
29960	2023-08-28T17:52:21	16.6	80
29961	2023-08-28T18:02:21	16.6	80
29962	2023-08-28T18:12:21	16.6	79.5
29963	2023-08-28T18:22:21	16.4	80.5
29964	2023-08-28T18:32:21	16.5	81
29965	2023-08-28T18:42:20	16.3	81
29966	2023-08-28T18:52:21	16.4	80
29967	2023-08-28T19:02:20	16.3	79
29968	2023-08-28T19:12:20	16	80
29969	2023-08-28T19:22:20	16	80
29970	2023-08-28T19:32:20	16.1	80.5
29971	2023-08-28T19:42:20	15.9	81.5
29972	2023-08-28T19:52:20	15.6	82.5
29973	2023-08-28T20:02:20	15.5	83.5
29974	2023-08-28T20:12:20	15.4	84
29975	2023-08-28T20:22:20	15.6	83
29976	2023-08-28T20:32:20	15.4	83.5
29977	2023-08-28T20:42:20	15.3	84.5
29978	2023-08-28T20:52:20	15.1	85
29979	2023-08-28T21:02:20	15	85
29980	2023-08-28T21:12:20	14.8	84.5
29981	2023-08-28T21:22:20	14.4	86
29982	2023-08-28T21:32:20	14.3	86
29983	2023-08-28T21:42:20	14.3	85.5
29984	2023-08-28T21:52:20	14.2	86
29985	2023-08-28T22:02:20	14.1	87
29986	2023-08-28T22:12:20	14.1	88
29987	2023-08-28T22:22:20	13.9	88
29988	2023-08-28T22:32:20	14.1	87.5
29989	2023-08-28T22:42:20	14.2	87.5
29990	2023-08-28T22:52:20	14.3	87
29991	2023-08-28T23:02:20	14.4	86.5
29992	2023-08-28T23:12:20	14.6	86.5
29993	2023-08-28T23:22:20	14.6	86.5
29994	2023-08-28T23:32:20	14.5	86.5
29995	2023-08-28T23:42:20	14.6	88
29996	2023-08-28T23:52:20	14.6	87
29997	2023-08-29T00:02:20	14.4	88
29998	2023-08-29T00:12:20	14.3	89
29999	2023-08-29T00:22:20	14.4	88
30000	2023-08-29T00:32:20	14.1	88.5
30001	2023-08-29T00:42:20	14.3	87
30002	2023-08-29T00:52:20	14.2	88.5
30003	2023-08-29T01:02:20	14.1	89
30004	2023-08-29T01:12:20	14.1	89.5
30005	2023-08-29T01:22:20	14	89.5
30006	2023-08-29T01:32:20	14	89
30007	2023-08-29T01:42:20	13.9	90
30008	2023-08-29T01:52:20	13.9	90
30009	2023-08-29T02:02:20	13.9	90
30010	2023-08-29T02:12:20	13.7	90.5
30011	2023-08-29T02:22:20	13.6	91
30012	2023-08-29T02:32:20	13.8	90.5
30013	2023-08-29T02:42:20	13.7	90.5
30014	2023-08-29T02:52:20	13.7	90
30015	2023-08-29T03:02:20	13.8	89.5
30016	2023-08-29T03:12:20	13.9	89.5
30017	2023-08-29T03:22:20	13.9	89.5
30018	2023-08-29T03:32:20	13.9	90.5
30019	2023-08-29T03:42:20	13.8	90
30020	2023-08-29T03:52:20	13.8	90.5
30021	2023-08-29T04:02:20	13.7	91
30022	2023-08-29T04:12:20	13.5	91
30023	2023-08-29T04:22:20	13.3	92
30024	2023-08-29T04:32:20	13.2	92
30025	2023-08-29T04:42:20	13.1	92.5
30026	2023-08-29T04:52:20	13	93
30027	2023-08-29T05:02:20	13	93
30028	2023-08-29T05:12:20	13	93
30029	2023-08-29T05:22:20	13.2	92.5
30030	2023-08-29T05:32:20	13.2	92.5
30031	2023-08-29T05:42:20	13.4	92.5
30032	2023-08-29T05:52:20	13.6	92.5
30033	2023-08-29T06:02:20	13.7	91.5
30034	2023-08-29T06:12:20	13.9	91
30035	2023-08-29T06:22:20	14	90.5
30036	2023-08-29T06:32:20	14.2	90.5
30037	2023-08-29T06:42:20	14.3	90
30038	2023-08-29T06:52:20	14.4	90
30039	2023-08-29T07:02:19	14.6	89.5
30040	2023-08-29T07:12:19	14.8	88.5
30041	2023-08-29T07:22:19	15.2	87.5
30042	2023-08-29T07:32:19	15.3	87.5
30043	2023-08-29T07:42:19	15.5	86.5
30044	2023-08-29T07:52:19	15.6	86.5
30045	2023-08-29T08:02:19	15.7	86
30046	2023-08-29T08:12:19	15.7	87
30047	2023-08-29T08:22:19	15.9	85.5
30048	2023-08-29T08:32:19	16	83.5
30049	2023-08-29T08:42:19	16.2	83
30050	2023-08-29T08:52:19	16.2	81.5
30051	2023-08-29T09:02:19	16.4	81
30052	2023-08-29T09:12:19	16.6	80
30053	2023-08-29T09:22:19	16.9	81
30054	2023-08-29T09:32:19	17	80
30055	2023-08-29T09:42:19	17.3	79
30056	2023-08-29T09:52:19	17.7	79.5
30057	2023-08-29T10:02:19	18.1	76.5
30058	2023-08-29T10:12:19	18.3	75.5
30059	2023-08-29T10:22:19	18.5	73.5
30060	2023-08-29T10:32:19	18.6	73.5
30061	2023-08-29T10:42:19	19.3	69.5
30062	2023-08-29T10:52:19	20.1	66
30063	2023-08-29T11:02:19	21	64
30064	2023-08-29T11:12:19	21.2	64.5
30065	2023-08-29T11:22:19	21.5	62
30066	2023-08-29T11:32:19	21.6	62.5
30067	2023-08-29T11:42:19	21.5	63
30068	2023-08-29T11:52:19	21.4	62.5
30069	2023-08-29T12:02:19	21	63
30070	2023-08-29T12:12:19	20.4	64
30071	2023-08-29T12:22:19	20.3	65.5
30072	2023-08-29T12:32:19	20.5	64.5
30073	2023-08-29T12:42:19	20.5	64.5
30074	2023-08-29T12:52:19	21.3	65
30075	2023-08-29T13:02:19	21.4	60
30076	2023-08-29T13:12:19	21.2	61
30077	2023-08-29T13:22:19	21.3	58.5
30078	2023-08-29T13:42:19	22.3	58.5
30079	2023-08-29T13:52:19	22.7	54.5
30080	2023-08-29T14:02:19	22.2	56
30081	2023-08-29T14:12:19	21.4	61
30082	2023-08-29T14:22:19	21.3	62
30083	2023-08-29T14:32:19	21.8	59.5
30084	2023-08-29T14:42:19	21.6	58.5
30085	2023-08-29T14:52:19	21.3	57.5
30086	2023-08-29T15:02:19	21.1	63
30087	2023-08-29T15:12:19	20.7	65.5
30088	2023-08-29T15:22:19	20.5	64.5
30089	2023-08-29T15:32:19	22	58.5
30090	2023-08-29T15:42:19	21.7	54.5
30091	2023-08-29T15:52:19	22	56
30092	2023-08-29T16:02:19	26.1	44.5
30093	2023-08-29T16:12:19	26.4	43
30094	2023-08-29T16:22:19	21.3	57
30095	2023-08-29T16:32:19	20.2	62
30096	2023-08-29T16:42:19	19.7	64.5
30097	2023-08-29T16:52:19	19.4	66
30098	2023-08-29T17:02:19	19.1	68
30099	2023-08-29T17:12:19	18.8	68.5
30100	2023-08-29T17:22:19	18.4	69
30101	2023-08-29T17:32:19	18.3	71
30102	2023-08-29T17:42:19	18	71.5
30103	2023-08-29T17:52:19	17.9	73
30104	2023-08-29T18:02:19	17.7	74
30105	2023-08-29T18:12:18	17.6	74.5
30106	2023-08-29T18:22:18	17.6	75.5
30107	2023-08-29T18:32:18	17.4	76.5
30108	2023-08-29T18:42:18	17.4	77
30109	2023-08-29T18:52:18	17.2	78.5
30110	2023-08-29T19:02:18	17.1	79.5
30111	2023-08-29T19:12:18	16.8	80
30112	2023-08-29T19:22:18	16.8	79.5
30113	2023-08-29T19:32:18	16.5	80.5
30114	2023-08-29T19:42:18	16.5	80
30115	2023-08-29T19:52:18	16.5	80.5
30116	2023-08-29T20:02:18	16.5	80
30117	2023-08-29T20:12:18	16.4	79.5
30118	2023-08-29T20:22:18	16.4	80
30119	2023-08-29T20:32:18	16.3	80.5
30120	2023-08-29T20:42:18	16.3	80.5
30121	2023-08-29T20:52:18	16.3	80.5
30122	2023-08-29T21:02:18	16.1	80.5
30123	2023-08-29T21:12:18	16.2	80
30124	2023-08-29T21:22:18	16	79.5
30125	2023-08-29T21:32:18	15.9	81
30126	2023-08-29T21:42:18	15.6	81.5
30127	2023-08-29T21:52:18	15.3	82.5
30128	2023-08-29T22:02:18	15	83.5
30129	2023-08-29T22:22:18	14.6	84.5
30130	2023-08-29T22:32:18	14.4	85.5
30131	2023-08-29T22:42:18	14.3	86
30132	2023-08-29T22:52:18	14.1	86.5
30133	2023-08-29T23:02:18	14	86.5
30134	2023-08-29T23:12:18	13.9	86.5
30135	2023-08-29T23:22:18	13.9	87
30136	2023-08-29T23:32:18	13.8	88
30137	2023-08-29T23:42:18	13.9	87.5
30138	2023-08-29T23:52:18	14	87.5
30139	2023-08-30T00:02:18	14	87
30140	2023-08-30T00:12:18	14	87.5
30141	2023-08-30T00:22:18	14	87.5
30142	2023-08-30T00:32:18	14	88
30143	2023-08-30T00:42:18	14	88
30144	2023-08-30T00:52:18	14.1	88.5
30145	2023-08-30T01:02:18	14.1	89
30146	2023-08-30T01:12:18	14	88.5
30147	2023-08-30T01:22:18	14	89
30148	2023-08-30T01:32:18	14	89
30149	2023-08-30T01:42:18	14	89
30150	2023-08-30T01:52:18	13.9	89
30151	2023-08-30T02:02:18	14	89.5
30152	2023-08-30T02:12:18	14	89.5
30153	2023-08-30T02:22:18	13.9	89
30154	2023-08-30T02:32:18	13.8	89.5
30155	2023-08-30T02:42:18	13.8	89
30156	2023-08-30T02:52:18	13.8	88
30157	2023-08-30T03:02:18	14	87
30158	2023-08-30T03:12:18	14.1	86.5
30159	2023-08-30T03:22:18	14.1	87
30160	2023-08-30T03:32:18	14	87.5
30161	2023-08-30T03:42:18	13.9	88
30162	2023-08-30T03:52:18	14	87.5
30163	2023-08-30T04:02:18	14	87
30164	2023-08-30T04:12:18	14	87.5
30165	2023-08-30T04:22:18	13.9	88.5
30166	2023-08-30T04:32:18	13.8	89
30167	2023-08-30T04:42:18	13.8	88
30168	2023-08-30T04:52:18	13.8	88
30169	2023-08-30T05:02:18	13.7	88.5
30170	2023-08-30T05:12:18	13.5	89
30171	2023-08-30T05:22:18	13.8	88.5
30172	2023-08-30T05:32:18	13.8	89
30173	2023-08-30T05:42:18	14	88.5
30174	2023-08-30T05:52:18	14.2	85.5
30175	2023-08-30T06:02:18	14.3	85
30176	2023-08-30T06:12:18	14.3	85.5
30177	2023-08-30T06:22:18	14.5	85
30178	2023-08-30T06:32:18	14.7	84
30179	2023-08-30T06:42:18	15	83.5
30180	2023-08-30T06:52:17	15.3	82.5
30181	2023-08-30T07:02:17	15.5	82.5
30182	2023-08-30T07:12:17	15.6	80.5
30183	2023-08-30T07:22:17	15.8	80.5
30184	2023-08-30T07:32:17	15.9	79.5
30185	2023-08-30T07:42:17	16	79
30186	2023-08-30T07:52:17	16.1	79
30187	2023-08-30T08:02:17	16.4	79
30188	2023-08-30T08:12:17	16.7	78
30189	2023-08-30T08:22:17	17	76
30190	2023-08-30T08:32:17	17.1	76
30191	2023-08-30T08:42:17	17.4	75.5
30192	2023-08-30T08:52:17	18.1	72.5
30193	2023-08-30T09:02:17	18.2	71.5
30194	2023-08-30T09:12:17	18.2	71.5
30195	2023-08-30T09:22:17	18.5	72
30196	2023-08-30T09:32:18	18.8	70.5
30197	2023-08-30T09:42:17	19.2	69
30198	2023-08-30T09:52:17	19.9	68
30199	2023-08-30T10:02:17	19.8	65
30200	2023-08-30T10:12:17	20	65.5
30201	2023-08-30T10:22:17	20	66
30202	2023-08-30T10:32:17	19.8	66.5
30203	2023-08-30T10:42:17	19.8	66.5
30204	2023-08-30T10:52:17	20	65.5
30205	2023-08-30T11:02:17	20.2	63.5
30206	2023-08-30T11:12:17	20.3	64.5
30207	2023-08-30T11:22:17	20.3	63
30208	2023-08-30T11:32:17	20.5	61
30209	2023-08-30T11:42:17	21	58
30210	2023-08-30T11:52:17	21.3	58
30211	2023-08-30T12:02:17	21.5	56
30212	2023-08-30T12:12:17	24.1	46.5
30213	2023-08-30T12:22:17	26.5	41.5
30214	2023-08-30T12:32:17	27.1	40
30215	2023-08-30T12:42:17	28.2	36.5
30216	2023-08-30T12:52:17	29.4	35
30217	2023-08-30T13:02:17	28.9	36.5
30218	2023-08-30T13:12:17	30.4	30.5
30219	2023-08-30T13:22:17	30.5	32
30220	2023-08-30T13:32:17	29.5	32.5
30221	2023-08-30T13:42:17	28.4	36.5
30222	2023-08-30T13:52:17	26.7	39.5
30223	2023-08-30T14:02:17	27.7	39
30224	2023-08-30T14:12:17	27.4	39
30225	2023-08-30T14:22:17	27.8	40.5
30226	2023-08-30T14:32:17	29.8	35
30227	2023-08-30T14:52:17	27.9	38.5
30228	2023-08-30T15:02:17	28.7	36
30229	2023-08-30T15:12:17	29.8	34
30230	2023-08-30T15:22:17	27.5	39
30231	2023-08-30T15:32:17	27.2	38.5
30232	2023-08-30T15:42:17	28.7	36.5
30233	2023-08-30T15:52:17	28.8	36.5
30234	2023-08-30T16:02:17	29.4	35.5
30235	2023-08-30T16:12:17	28.5	37
30236	2023-08-30T16:22:17	26.3	43
30237	2023-08-30T16:32:17	27.1	41.5
30238	2023-08-30T16:42:17	26.6	42.5
30239	2023-08-30T16:52:17	24.2	46.5
30240	2023-08-30T17:02:17	23	45.5
30241	2023-08-30T17:12:16	22.3	48
30242	2023-08-30T17:22:16	22	50.5
30243	2023-08-30T17:32:16	21.5	51
30244	2023-08-30T17:42:16	21	52.5
30245	2023-08-30T17:52:16	20.7	53
30246	2023-08-30T18:02:16	20.6	55
30247	2023-08-30T18:12:17	20.2	58
30248	2023-08-30T18:22:17	20.2	58.5
30249	2023-08-30T18:32:16	20.1	57.5
30250	2023-08-30T18:42:16	19.9	61
30251	2023-08-30T18:52:17	17.6	91.5
30252	2023-08-30T19:02:16	16.7	94
30253	2023-08-30T19:12:16	16.6	96
30254	2023-08-30T19:22:16	16.1	96
30255	2023-08-30T19:32:16	16	96.5
30256	2023-08-30T19:42:16	16.3	97
30257	2023-08-30T19:52:16	16	97
30258	2023-08-30T20:02:16	15.8	97.5
30259	2023-08-30T20:12:16	15.7	97.5
30260	2023-08-30T20:22:16	15.7	97.5
30261	2023-08-30T20:32:16	15.7	98
30262	2023-08-30T20:42:16	15.8	98
30263	2023-08-30T20:52:16	15.4	98
30264	2023-08-30T21:02:16	15.1	98.5
30265	2023-08-30T21:12:16	14.9	98
30266	2023-08-30T21:22:16	14.6	98
30267	2023-08-30T21:32:16	14.4	98.5
30268	2023-08-30T21:42:16	14.4	98.5
30269	2023-08-30T21:52:16	14.3	98.5
30270	2023-08-30T22:02:16	14.2	98.5
30271	2023-08-30T22:12:16	14	99
30272	2023-08-30T22:22:16	14	99
30273	2023-08-30T22:32:16	13.9	99
30274	2023-08-30T22:42:16	14	99
30275	2023-08-30T22:52:16	13.9	99
30276	2023-08-30T23:02:16	13.9	99
30277	2023-08-30T23:12:16	13.9	99
30278	2023-08-30T23:22:16	14	99
30279	2023-08-30T23:32:16	13.8	99.5
30280	2023-08-30T23:42:16	13.7	99.5
30281	2023-08-30T23:52:16	13.5	99.5
30282	2023-08-31T00:02:16	13.4	99.5
30283	2023-08-31T00:12:16	13.6	99.5
30284	2023-08-31T00:22:16	13.6	99.5
30285	2023-08-31T00:32:16	13.3	99.5
30286	2023-08-31T00:42:16	13.1	99.5
30287	2023-08-31T00:52:16	13	99.5
30288	2023-08-31T01:02:16	13	99.5
30289	2023-08-31T01:12:16	12.9	99.5
30290	2023-08-31T01:22:16	12.9	99.5
30291	2023-08-31T01:32:16	13.1	99.5
30292	2023-08-31T01:42:16	13	99.5
30293	2023-08-31T01:52:16	13	99.5
30294	2023-08-31T02:02:16	13	99.5
30295	2023-08-31T02:12:16	13.1	100
30296	2023-08-31T02:22:16	13.2	99.5
30297	2023-08-31T02:32:16	13.1	100
30298	2023-08-31T02:42:16	13.1	99.5
30299	2023-08-31T02:52:16	13.1	99.5
30300	2023-08-31T03:02:16	12.9	99.5
30301	2023-08-31T03:12:16	12.9	99.5
30302	2023-08-31T03:22:16	13.1	100
30303	2023-08-31T03:32:16	13.1	100
30304	2023-08-31T03:42:16	13.3	100
30305	2023-08-31T03:52:16	13.3	100
30306	2023-08-31T04:02:16	13.4	100
30307	2023-08-31T04:12:16	13.4	100
30308	2023-08-31T04:22:16	13.3	100
30309	2023-08-31T04:32:16	13.3	100
30310	2023-08-31T04:42:16	13.4	100
30311	2023-08-31T04:52:16	13.4	100
30312	2023-08-31T05:02:16	13.5	100
30313	2023-08-31T05:12:16	13.4	100
30314	2023-08-31T05:22:16	13.4	100
30315	2023-08-31T05:32:16	13.5	100
30316	2023-08-31T05:42:16	13.6	100
30317	2023-08-31T05:52:15	13.6	100
30318	2023-08-31T06:02:15	13.8	100
30319	2023-08-31T06:12:15	13.9	100
30320	2023-08-31T06:22:15	14.2	100
30321	2023-08-31T06:32:15	14.7	100
30322	2023-08-31T06:42:15	14.7	100
30323	2023-08-31T06:52:15	14.6	100
30324	2023-08-31T07:02:15	14.4	100
30325	2023-08-31T07:12:15	14.4	100
30326	2023-08-31T07:22:15	14.4	100
30327	2023-08-31T07:32:15	14.6	100
30328	2023-08-31T07:42:15	15	100
30329	2023-08-31T07:52:15	15.2	100
30330	2023-08-31T08:02:15	15.3	99.5
30331	2023-08-31T08:12:16	15.5	99.5
30332	2023-08-31T08:22:15	15.6	99
30333	2023-08-31T08:32:15	15.9	99.5
30334	2023-08-31T08:42:15	16.1	99
30335	2023-08-31T08:52:15	16.4	98.5
30336	2023-08-31T09:02:15	16.4	98
30337	2023-08-31T09:12:15	16.5	97.5
30338	2023-08-31T09:22:16	16.6	98
30339	2023-08-31T09:32:15	17	97.5
30340	2023-08-31T09:42:15	17.2	96.5
30341	2023-08-31T09:52:15	17.4	97
30342	2023-08-31T10:02:15	17.6	96.5
30343	2023-08-31T10:12:15	18.1	94
30344	2023-08-31T10:22:15	18.3	95.5
30345	2023-08-31T10:32:15	19.1	97.5
30346	2023-08-31T10:42:15	19.4	95.5
30347	2023-08-31T10:52:15	19.5	95.5
30348	2023-08-31T11:02:15	19.5	94.5
30349	2023-08-31T11:12:15	19.6	61.5
30350	2023-08-31T11:22:15	19.6	56.5
30351	2023-08-31T11:32:15	19.8	55.5
30352	2023-08-31T11:42:15	20	53
30353	2023-08-31T11:52:15	20.7	53.5
30354	2023-08-31T12:02:15	21.5	52.5
30355	2023-08-31T12:12:15	23.6	45
30356	2023-08-31T12:22:15	22.6	48.5
30357	2023-08-31T12:32:15	23.9	44.5
30358	2023-08-31T12:42:15	24.1	45
30359	2023-08-31T12:52:15	22.7	47.5
30360	2023-08-31T13:02:15	21.3	51
30361	2023-08-31T13:12:15	20.6	54
30362	2023-08-31T13:22:15	20.5	55.5
30363	2023-08-31T13:32:15	20.6	56.5
30364	2023-08-31T13:42:15	20.8	54
30365	2023-08-31T13:52:15	21.1	52.5
30366	2023-08-31T14:02:15	21.1	51
30367	2023-08-31T14:12:15	21.3	53
30368	2023-08-31T14:22:15	21.4	52
30369	2023-08-31T14:32:15	21.6	51
30370	2023-08-31T14:42:15	20.9	52.5
30371	2023-08-31T14:52:15	20.4	54.5
30372	2023-08-31T15:02:15	20	56
30373	2023-08-31T15:12:15	19.8	57
30374	2023-08-31T15:22:15	20.3	57.5
30375	2023-08-31T15:32:15	20.9	55.5
30376	2023-08-31T15:42:15	21.3	54.5
30377	2023-08-31T15:52:15	20.3	57
30378	2023-08-31T16:02:15	19.9	56
30379	2023-08-31T16:12:15	19.6	56.5
30380	2023-08-31T16:22:15	19.4	58.5
30381	2023-08-31T16:42:15	19.3	62
30382	2023-08-31T16:52:14	19	63.5
30383	2023-08-31T17:02:15	18.8	67.5
30384	2023-08-31T17:12:14	18.7	70.5
30385	2023-08-31T17:22:14	18.5	70
30386	2023-08-31T17:32:14	18.3	72.5
30387	2023-08-31T17:42:14	18.1	72.5
30388	2023-08-31T17:52:14	17.9	78
30389	2023-08-31T18:02:15	17.9	77
30390	2023-08-31T18:12:14	17.5	77.5
30391	2023-08-31T18:22:14	17.3	79.5
30392	2023-08-31T18:32:14	17.3	82
30393	2023-08-31T18:42:14	17.3	81.5
30394	2023-08-31T18:52:14	17.3	81.5
30395	2023-08-31T19:02:14	17.3	80.5
30396	2023-08-31T19:12:14	17.1	81
30397	2023-08-31T19:22:14	17.1	78.5
30398	2023-08-31T19:32:14	17.1	80
30399	2023-08-31T19:42:14	17	82.5
30400	2023-08-31T19:52:14	17	84
30401	2023-08-31T20:02:14	17	81
30402	2023-08-31T20:12:14	16.9	84.5
30403	2023-08-31T20:22:14	16.8	84
30404	2023-08-31T20:32:14	16.8	85
30405	2023-08-31T20:42:14	16.7	86
30406	2023-08-31T20:52:14	16.7	86.5
30407	2023-08-31T21:02:14	16.7	84.5
30408	2023-08-31T21:12:14	16.5	86
30409	2023-08-31T21:22:14	16.6	86.5
30410	2023-08-31T21:32:14	16.5	86.5
30411	2023-08-31T21:42:14	16.5	87
30412	2023-08-31T21:52:14	16.5	87
30413	2023-08-31T22:02:14	16.4	87.5
30414	2023-08-31T22:12:14	16.4	88
30415	2023-08-31T22:22:14	16.4	88
30416	2023-08-31T22:32:14	16.4	88.5
30417	2023-08-31T22:42:14	16.3	89
30418	2023-08-31T22:52:14	16.2	88
30419	2023-08-31T23:02:14	16.2	88.5
30420	2023-08-31T23:12:14	16.3	89.5
30421	2023-08-31T23:22:14	16.3	89.5
30422	2023-08-31T23:32:14	16.1	89.5
30423	2023-08-31T23:42:14	16.1	90
30424	2023-08-31T23:52:14	16	91.5
30425	2023-09-01T00:02:14	15.9	91.5
30426	2023-09-01T00:12:14	16	91
30427	2023-09-01T00:22:14	15.9	92.5
30428	2023-09-01T00:32:14	16	93
30429	2023-09-01T00:42:14	15.7	92
30430	2023-09-01T00:52:14	15.7	91.5
30431	2023-09-01T01:02:14	15.6	91
30432	2023-09-01T01:12:14	15.6	91.5
30433	2023-09-01T01:22:14	15.6	93.5
30434	2023-09-01T01:32:14	15.6	92
30435	2023-09-01T01:42:14	15.7	92
30436	2023-09-01T01:52:14	15.8	91
30437	2023-09-01T02:02:14	15.9	90.5
30438	2023-09-01T02:12:14	15.9	90
30439	2023-09-01T02:22:14	15.9	90.5
30440	2023-09-01T02:32:14	16	90.5
30441	2023-09-01T02:42:14	16	91.5
30442	2023-09-01T02:52:14	16.1	91
30443	2023-09-01T03:02:14	16.1	91
30444	2023-09-01T03:12:14	16.1	90.5
30445	2023-09-01T03:22:14	16.3	90
30446	2023-09-01T03:32:14	16.6	89
30447	2023-09-01T03:42:14	16.9	87.5
30448	2023-09-01T03:52:14	16.9	87.5
30449	2023-09-01T04:02:14	17	86.5
30450	2023-09-01T04:12:14	16.9	87
30451	2023-09-01T04:22:14	17	87
30452	2023-09-01T04:32:14	16.9	88
30453	2023-09-01T04:42:14	16.9	88.5
30454	2023-09-01T04:52:13	16.6	92.5
30455	2023-09-01T05:02:13	16.2	94.5
30456	2023-09-01T05:12:13	15.9	97
30457	2023-09-01T05:22:13	16.1	97.5
30458	2023-09-01T05:32:13	15.9	98
30459	2023-09-01T05:42:13	16.1	98
30460	2023-09-01T05:52:13	16.1	98
30461	2023-09-01T06:02:13	16.3	98.5
30462	2023-09-01T06:12:13	16.3	98
30463	2023-09-01T06:22:13	16.5	98
30464	2023-09-01T06:32:13	16.6	98
30465	2023-09-01T06:42:13	16.8	97.5
30466	2023-09-01T06:52:13	16.9	97.5
30467	2023-09-01T07:02:13	17	97
30468	2023-09-01T07:12:13	17.1	96
30469	2023-09-01T07:22:13	17.3	96
30470	2023-09-01T07:32:13	17.3	96
30471	2023-09-01T07:42:13	17.5	95
30472	2023-09-01T07:52:13	17.6	93
30473	2023-09-01T08:02:13	18	92.5
30474	2023-09-01T08:12:13	18.3	91
30475	2023-09-01T08:22:13	18.6	89
30476	2023-09-01T08:32:13	19	89
30477	2023-09-01T08:42:13	19.4	87.5
30478	2023-09-01T08:52:13	19.6	86.5
30479	2023-09-01T09:02:13	19.5	89.5
30480	2023-09-01T09:12:13	19.5	92
30481	2023-09-01T09:22:13	19.6	89
30482	2023-09-01T09:32:13	20	82
30483	2023-09-01T09:42:13	20.5	79.5
30484	2023-09-01T09:52:13	20.8	78
30485	2023-09-01T10:02:13	21.2	74.5
30486	2023-09-01T10:12:13	21.6	72
30487	2023-09-01T10:22:13	22.2	72.5
30488	2023-09-01T10:32:13	22.5	70.5
30489	2023-09-01T10:42:13	22.6	69
30490	2023-09-01T10:52:13	22.7	68.5
30491	2023-09-01T11:02:13	23.1	67.5
30492	2023-09-01T11:12:13	23.4	66
30493	2023-09-01T11:22:13	23.7	66.5
30494	2023-09-01T11:32:13	23.9	65
30495	2023-09-01T11:42:13	24.1	65
30496	2023-09-01T11:52:13	24.2	62
30497	2023-09-01T12:02:13	23.6	65
30498	2023-09-01T12:12:13	25.8	58
30499	2023-09-01T12:22:13	25.2	59.5
30500	2023-09-01T12:32:13	25.1	58.5
30501	2023-09-01T12:42:13	25.3	58
30502	2023-09-01T12:52:13	24.7	59.5
30503	2023-09-01T13:02:13	24.1	62.5
30504	2023-09-01T13:12:13	23.5	62.5
30505	2023-09-01T13:22:13	23.9	62
30506	2023-09-01T13:32:13	26.9	53.5
30507	2023-09-01T13:42:13	25	58.5
30508	2023-09-01T13:52:13	23.9	62.5
30509	2023-09-01T14:02:13	24.3	64.5
30510	2023-09-01T14:12:13	27.2	54
30511	2023-09-01T14:22:13	28.5	51
30512	2023-09-01T14:32:13	29.1	50
30513	2023-09-01T14:42:13	26.8	55.5
30514	2023-09-01T14:52:13	26.8	54.5
30515	2023-09-01T15:02:13	29.5	48
30516	2023-09-01T15:12:13	29.5	47.5
30517	2023-09-01T15:22:13	26.7	54
30518	2023-09-01T15:32:12	28.8	48.5
30519	2023-09-01T15:42:12	31.8	40
30520	2023-09-01T15:52:12	30.3	44
30521	2023-09-01T16:02:12	30.1	43
30522	2023-09-01T16:12:12	26.1	52.5
30523	2023-09-01T16:22:12	25.3	56
30524	2023-09-01T16:32:12	24.8	58
30525	2023-09-01T16:42:12	25.4	56.5
30526	2023-09-01T16:52:12	24.9	58
30527	2023-09-01T17:02:12	24.5	60.5
30528	2023-09-01T17:12:12	24.4	61
30529	2023-09-01T17:22:12	23.9	62.5
30530	2023-09-01T17:32:12	23.4	64
30531	2023-09-01T17:42:12	23	67
30532	2023-09-01T18:12:12	21.9	74
30533	2023-09-01T18:22:12	21.6	75.5
30534	2023-09-01T18:32:12	21.2	75.5
30535	2023-09-01T18:42:12	20.8	77
30536	2023-09-01T18:52:12	20.5	77.5
30537	2023-09-01T19:02:12	20.3	78.5
30538	2023-09-01T19:12:12	20.1	80
30539	2023-09-01T19:22:12	19.9	81
30540	2023-09-01T19:32:12	19.7	82
30541	2023-09-01T19:42:12	19.5	82
30542	2023-09-01T19:52:12	19.4	82.5
30543	2023-09-01T20:02:12	19.2	83
30544	2023-09-01T20:12:12	19.1	83
30545	2023-09-01T20:22:12	19.1	83
30546	2023-09-01T20:32:12	19.2	82.5
30547	2023-09-01T20:42:12	19.2	82.5
30548	2023-09-01T20:52:12	19.3	83
30549	2023-09-01T21:02:12	19.2	83
30550	2023-09-01T21:12:12	19.1	83.5
30551	2023-09-01T21:22:12	18.9	84.5
30552	2023-09-01T21:32:12	18.6	85.5
30553	2023-09-01T21:42:12	18.4	86
30554	2023-09-01T21:52:12	18.1	86.5
30555	2023-09-01T22:02:12	17.9	87
30556	2023-09-01T22:12:12	17.8	87
30557	2023-09-01T22:22:12	17.7	87
30558	2023-09-01T22:32:12	17.5	87.5
30559	2023-09-01T22:42:12	17.4	87.5
30560	2023-09-01T22:52:12	17.3	88
30561	2023-09-01T23:02:12	17.3	88
30562	2023-09-01T23:12:12	17	88
30563	2023-09-01T23:22:12	17	88
30564	2023-09-01T23:32:12	17	88.5
30565	2023-09-01T23:42:12	16.7	89
30566	2023-09-01T23:52:12	16.8	89
30567	2023-09-02T00:02:12	16.7	89
30568	2023-09-02T00:12:12	16.6	89.5
30569	2023-09-02T00:22:12	16.5	89
30570	2023-09-02T00:32:12	16.4	89
30571	2023-09-02T00:42:12	16.3	89.5
30572	2023-09-02T00:52:12	16.4	89.5
30573	2023-09-02T01:02:12	16.5	88.5
30574	2023-09-02T01:12:12	16.3	88.5
30575	2023-09-02T01:22:12	16.2	88.5
30576	2023-09-02T01:32:12	16.1	89.5
30577	2023-09-02T01:42:12	15.8	90
30578	2023-09-02T01:52:12	15.7	90.5
30579	2023-09-02T02:02:12	15.6	90.5
30580	2023-09-02T02:12:12	15.4	90.5
30581	2023-09-02T02:22:11	15.3	91
30582	2023-09-02T02:32:11	15.2	91
30583	2023-09-02T02:42:11	15.2	91
30584	2023-09-02T02:52:11	15.2	91.5
30585	2023-09-02T03:02:11	15	91
30586	2023-09-02T03:12:11	14.9	91
30587	2023-09-02T03:22:11	14.9	91.5
30588	2023-09-02T03:32:11	14.7	91.5
30589	2023-09-02T03:42:11	14.9	90.5
30590	2023-09-02T03:52:11	14.8	91.5
30591	2023-09-02T04:02:11	14.8	92.5
30592	2023-09-02T04:12:11	14.8	92.5
30593	2023-09-02T04:22:11	14.8	92.5
30594	2023-09-02T04:32:11	14.7	92.5
30595	2023-09-02T04:42:11	14.6	93
30596	2023-09-02T04:52:11	14.5	93
30597	2023-09-02T05:02:11	14.4	93.5
30598	2023-09-02T05:12:11	14.4	93
30599	2023-09-02T05:22:11	14.5	93.5
30600	2023-09-02T05:32:11	14.5	93.5
30601	2023-09-02T05:42:11	14.7	93
30602	2023-09-02T05:52:11	14.7	93.5
30603	2023-09-02T06:02:11	14.9	94
30604	2023-09-02T06:12:11	15	94.5
30605	2023-09-02T06:22:11	15	95
30606	2023-09-02T06:32:11	15.2	94.5
30607	2023-09-02T06:42:11	15.5	94.5
30608	2023-09-02T06:52:11	16	94
30609	2023-09-02T07:02:11	16.3	93
30610	2023-09-02T07:12:11	16.7	91.5
30611	2023-09-02T07:22:11	16.9	90.5
30612	2023-09-02T07:32:11	17.1	90
30613	2023-09-02T07:42:11	17.4	89
30614	2023-09-02T07:52:11	17.4	88.5
30615	2023-09-02T08:02:11	17.6	88.5
30616	2023-09-02T08:12:11	17.9	88.5
30617	2023-09-02T08:22:11	18.2	85
30618	2023-09-02T08:32:11	18.5	85.5
30619	2023-09-02T08:42:11	18.7	85
30620	2023-09-02T08:52:11	18.9	84.5
30621	2023-09-02T09:02:11	19	85
30622	2023-09-02T09:12:11	19.3	84
30623	2023-09-02T09:22:11	19.5	83
30624	2023-09-02T09:32:11	19.6	84.5
30625	2023-09-02T09:42:11	19.8	83
30626	2023-09-02T09:52:11	20	84.5
30627	2023-09-02T10:02:11	20.3	83
30628	2023-09-02T10:12:11	20.3	83.5
30629	2023-09-02T10:22:11	20.8	81
30630	2023-09-02T10:32:11	21.1	78
30631	2023-09-02T10:42:11	21.8	73
30632	2023-09-02T10:52:11	22	75
30633	2023-09-02T11:02:11	22.1	74.5
30634	2023-09-02T11:12:11	22.4	73
30635	2023-09-02T11:22:11	22.6	75
30636	2023-09-02T11:32:11	23.1	73.5
30637	2023-09-02T11:42:11	23.6	70.5
30638	2023-09-02T11:52:11	24.3	67
30639	2023-09-02T12:02:11	25.3	64
30640	2023-09-02T12:12:11	29.3	49.5
30641	2023-09-02T12:22:11	32.8	43
30642	2023-09-02T12:32:11	35.7	36
30643	2023-09-02T12:42:11	38.2	34
30644	2023-09-02T12:52:11	39.5	30.5
30645	2023-09-02T13:02:11	40	28
30646	2023-09-02T13:12:11	39.9	28.5
30647	2023-09-02T13:22:11	42.7	26.5
30648	2023-09-02T13:32:11	44.1	24
30649	2023-09-02T13:42:11	44.5	24.5
30650	2023-09-02T13:52:10	45.7	23
30651	2023-09-02T14:02:10	46.3	22
30652	2023-09-02T14:12:10	45.8	23.5
30653	2023-09-02T14:22:10	46.6	20.5
30654	2023-09-02T14:32:10	47.2	20
30655	2023-09-02T14:42:10	47.5	20.5
30656	2023-09-02T14:52:10	46	21
30657	2023-09-02T15:02:10	46.1	20
30658	2023-09-02T15:12:10	46	19
30659	2023-09-02T15:22:10	46.8	19.5
30660	2023-09-02T15:32:10	46.4	19
30661	2023-09-02T15:52:10	45.2	18.5
30662	2023-09-02T16:12:10	45.4	20.5
30663	2023-09-02T16:22:10	45.4	21
30664	2023-09-02T16:32:10	43.9	23
30665	2023-09-02T16:42:10	38.9	28.5
30666	2023-09-02T16:52:10	36.2	33
30667	2023-09-02T17:02:10	35.2	35.5
30668	2023-09-02T17:12:10	33.6	38
30669	2023-09-02T17:22:10	32.7	40
30670	2023-09-02T17:32:10	31.8	42.5
30671	2023-09-02T17:42:10	31.1	45
30672	2023-09-02T17:52:10	30.3	48
30673	2023-09-02T18:02:10	29.7	49.5
30674	2023-09-02T18:12:10	29.1	52
30675	2023-09-02T18:22:10	28.5	55
30676	2023-09-02T18:32:10	28	56
30677	2023-09-02T18:42:10	27.4	57.5
30678	2023-09-02T18:52:10	26.9	58.5
30679	2023-09-02T19:02:10	26.4	60.5
30680	2023-09-02T19:12:10	26	61.5
30681	2023-09-02T19:22:10	25.6	62.5
30682	2023-09-02T19:32:10	25.3	62.5
30683	2023-09-02T19:42:10	25	64
30684	2023-09-02T19:52:10	24.6	64.5
30685	2023-09-02T20:02:10	24.3	66
30686	2023-09-02T20:12:10	24	66
30687	2023-09-02T20:22:10	23.8	67.5
30688	2023-09-02T20:32:10	23.5	68
30689	2023-09-02T20:42:10	23.3	68.5
30690	2023-09-02T20:52:10	22.9	69.5
30691	2023-09-02T21:02:10	22.8	70.5
30692	2023-09-02T21:12:10	22.5	71
30693	2023-09-02T21:22:10	22.4	71.5
30694	2023-09-02T21:32:10	22.2	72.5
30695	2023-09-02T21:42:10	21.8	73
30696	2023-09-02T21:52:10	21.6	73.5
30697	2023-09-02T22:02:10	21.4	74
30698	2023-09-02T22:12:10	21.3	74
30699	2023-09-02T22:22:10	21	74.5
30700	2023-09-02T22:32:10	20.9	75
30701	2023-09-02T22:42:10	20.8	75.5
30702	2023-09-02T22:52:10	20.6	75.5
30703	2023-09-02T23:02:10	20.5	76.5
30704	2023-09-02T23:12:10	20.5	76.5
30705	2023-09-02T23:22:10	20.2	77
30706	2023-09-02T23:32:10	20	77.5
30707	2023-09-02T23:42:10	20	78
30708	2023-09-02T23:52:10	20	78
30709	2023-09-03T00:02:10	19.7	78.5
30710	2023-09-03T00:12:10	19.6	79
30711	2023-09-03T00:22:10	19.3	79.5
30712	2023-09-03T00:32:10	19.3	79
30713	2023-09-03T00:42:10	19.1	79.5
30714	2023-09-03T00:52:10	19	80
30715	2023-09-03T01:02:09	18.9	80.5
30716	2023-09-03T01:12:10	18.9	80
30717	2023-09-03T01:22:09	18.6	81.5
30718	2023-09-03T01:32:09	18.6	82
30719	2023-09-03T01:42:10	18.5	82
30720	2023-09-03T01:52:09	18.3	82.5
30721	2023-09-03T02:02:09	18.2	82.5
30722	2023-09-03T02:12:09	18.1	83.5
30723	2023-09-03T02:22:09	18	83.5
30724	2023-09-03T02:32:09	17.9	83.5
30725	2023-09-03T02:42:09	17.7	84
30726	2023-09-03T02:52:09	17.6	84.5
30727	2023-09-03T03:02:09	17.4	84.5
30728	2023-09-03T03:12:09	17.2	85
30729	2023-09-03T03:22:09	17.2	85
30730	2023-09-03T03:32:09	17.2	86
30731	2023-09-03T03:42:09	17.1	86
30732	2023-09-03T03:52:09	16.9	86
30733	2023-09-03T04:02:09	17	86.5
30734	2023-09-03T04:12:09	16.9	86.5
30735	2023-09-03T04:22:09	16.8	86
30736	2023-09-03T04:32:09	16.7	87
30737	2023-09-03T04:42:09	16.6	87
30738	2023-09-03T04:52:09	16.7	87.5
30739	2023-09-03T05:02:09	16.6	88
30740	2023-09-03T05:12:09	16.7	88
30741	2023-09-03T05:22:09	16.7	87.5
30742	2023-09-03T05:32:09	16.9	88
30743	2023-09-03T05:42:09	17	88
30744	2023-09-03T05:52:09	17	87.5
30745	2023-09-03T06:02:09	17.3	87.5
30746	2023-09-03T06:12:09	17.5	87
30747	2023-09-03T06:22:09	17.6	85.5
30748	2023-09-03T06:32:09	17.9	86
30749	2023-09-03T06:42:09	18.1	85.5
30750	2023-09-03T06:52:09	18.4	85
30751	2023-09-03T07:02:09	18.6	84
30752	2023-09-03T07:12:09	18.9	83.5
30753	2023-09-03T07:22:09	19.1	83.5
30754	2023-09-03T07:32:09	19.3	83.5
30755	2023-09-03T07:42:09	19.4	84
30756	2023-09-03T07:52:09	19.7	83
30757	2023-09-03T08:02:09	19.8	82.5
30758	2023-09-03T08:12:09	20.2	82
30759	2023-09-03T08:22:09	20.5	81
30760	2023-09-03T08:32:09	20.9	80
30761	2023-09-03T08:42:09	21.2	79.5
30762	2023-09-03T08:52:09	21.4	78
30763	2023-09-03T09:02:09	21.6	78
30764	2023-09-03T09:12:09	22.1	76
30765	2023-09-03T09:22:09	22.6	75
30766	2023-09-03T09:32:25	22.9	74.5
30767	2023-09-03T09:42:09	23.3	73.5
30768	2023-09-03T09:52:09	23.5	72
30769	2023-09-03T10:02:09	23.6	71.5
30770	2023-09-03T10:12:09	23.7	73
30771	2023-09-03T10:22:09	23.7	71
30772	2023-09-03T10:32:09	24.1	71
30773	2023-09-03T10:42:09	24.4	69
30774	2023-09-03T10:52:09	24.6	68
30775	2023-09-03T11:02:09	24.9	67.5
30776	2023-09-03T11:12:09	25.2	66
30777	2023-09-03T11:22:09	25.5	63.5
30778	2023-09-03T11:32:09	25.9	63
30779	2023-09-03T11:42:09	26.5	62.5
30780	2023-09-03T11:52:09	27.1	60
30781	2023-09-03T12:02:09	28	56.5
30782	2023-09-03T12:12:08	30.5	49
30783	2023-09-03T12:22:08	33.3	43
30784	2023-09-03T12:32:08	35	40
30785	2023-09-03T12:42:08	35.9	36.5
30786	2023-09-03T12:52:08	36.2	35.5
30787	2023-09-03T13:02:08	35.9	36
30788	2023-09-03T13:12:08	37.2	35
30789	2023-09-03T13:22:08	38.1	32
30790	2023-09-03T13:32:08	38.4	31
30791	2023-09-03T13:42:08	38.5	32
30792	2023-09-03T13:52:08	40.3	30
30793	2023-09-03T14:02:08	41.2	27.5
30794	2023-09-03T14:12:08	39.7	29
30795	2023-09-03T14:22:08	39.3	29.5
30796	2023-09-03T14:32:08	39.3	29
30797	2023-09-03T14:42:08	40.3	28.5
30798	2023-09-03T14:52:08	39.9	28.5
30799	2023-09-03T15:02:08	39.2	28.5
30800	2023-09-03T15:22:08	38.7	29.5
30801	2023-09-03T15:32:08	38.9	27.5
30802	2023-09-03T15:42:08	37.3	30.5
30803	2023-09-03T15:52:08	36.6	31
30804	2023-09-03T16:02:08	35.5	34
30805	2023-09-03T16:12:08	35.7	35
30806	2023-09-03T16:22:08	36.7	32.5
30807	2023-09-03T16:32:08	35.3	34.5
30808	2023-09-03T16:42:08	32.4	40
30809	2023-09-03T16:52:08	31.3	42
30810	2023-09-03T17:02:08	30.5	43.5
30811	2023-09-03T17:12:08	29.7	46
30812	2023-09-03T17:22:08	28.8	48.5
30813	2023-09-03T17:32:08	28.1	50
30814	2023-09-03T17:42:08	27.6	53
30815	2023-09-03T17:52:08	27	55
30816	2023-09-03T18:02:08	26.3	57
30817	2023-09-03T18:12:08	25.8	58.5
30818	2023-09-03T18:22:08	25.4	60.5
30819	2023-09-03T18:32:08	25	62
30820	2023-09-03T18:42:08	24.6	62.5
30821	2023-09-03T18:52:08	24.1	64.5
30822	2023-09-03T19:02:08	23.7	65.5
30823	2023-09-03T19:12:08	23.4	66.5
30824	2023-09-03T19:22:08	23.1	67.5
30825	2023-09-03T19:32:08	22.8	67.5
30826	2023-09-03T19:42:08	22.6	68.5
30827	2023-09-03T19:52:08	22.3	69.5
30828	2023-09-03T20:02:08	22.2	70.5
30829	2023-09-03T20:12:08	21.9	71
30830	2023-09-03T20:22:08	21.6	72
30831	2023-09-03T20:32:08	21.3	73.5
30832	2023-09-03T20:42:08	21	73.5
30833	2023-09-03T20:52:08	20.7	74.5
30834	2023-09-03T21:02:08	20.5	75.5
30835	2023-09-03T21:12:08	20.4	76
30836	2023-09-03T21:22:08	20	76.5
30837	2023-09-03T21:32:08	19.9	77
30838	2023-09-03T21:42:08	19.7	78
30839	2023-09-03T21:52:08	19.7	78
30840	2023-09-03T22:02:08	19.5	78
30841	2023-09-03T22:12:08	19.4	77.5
30842	2023-09-03T22:22:08	19.4	78.5
30843	2023-09-03T22:32:07	19.1	79
30844	2023-09-03T22:42:08	18.9	80
30845	2023-09-03T22:52:07	18.7	80.5
30846	2023-09-03T23:02:07	18.5	81
30847	2023-09-03T23:12:07	18.5	80.5
30848	2023-09-03T23:22:07	18.4	80.5
30849	2023-09-03T23:32:07	18.4	80.5
30850	2023-09-03T23:42:07	18.3	80.5
30851	2023-09-03T23:52:07	18.1	80.5
30852	2023-09-04T00:02:07	17.9	81
30853	2023-09-04T00:12:07	17.8	81
30854	2023-09-04T00:22:07	17.6	82
30855	2023-09-04T00:32:07	17.5	82
30856	2023-09-04T00:42:07	17.4	82.5
30857	2023-09-04T00:52:07	17.3	82.5
30858	2023-09-04T01:02:07	17.1	83
30859	2023-09-04T01:12:07	17	83.5
30860	2023-09-04T01:22:07	16.9	84
30861	2023-09-04T01:32:07	16.9	84
30862	2023-09-04T01:42:07	16.8	84
30863	2023-09-04T01:52:07	16.8	84
30864	2023-09-04T02:02:07	16.8	84
30865	2023-09-04T02:12:07	16.7	84
30866	2023-09-04T02:22:07	16.6	84
30867	2023-09-04T02:32:07	16.6	84.5
30868	2023-09-04T02:42:07	16.5	84.5
30869	2023-09-04T02:52:07	16.2	85
30870	2023-09-04T03:02:07	16.3	85.5
30871	2023-09-04T03:12:07	16.1	86
30872	2023-09-04T03:22:07	16	86.5
30873	2023-09-04T03:32:07	15.9	86.5
30874	2023-09-04T03:42:07	15.8	86.5
30875	2023-09-04T03:52:07	15.7	87
30876	2023-09-04T04:02:07	15.6	87
30877	2023-09-04T04:12:07	15.5	87.5
30878	2023-09-04T04:22:07	15.4	87.5
30879	2023-09-04T04:32:07	15.3	88
30880	2023-09-04T04:42:07	15.2	88
30881	2023-09-04T04:52:07	15.2	88.5
30882	2023-09-04T05:02:07	15.2	88
30883	2023-09-04T05:12:07	15.3	87.5
30884	2023-09-04T05:22:07	15.4	87.5
30885	2023-09-04T05:32:07	15.4	87.5
30886	2023-09-04T05:42:07	15.4	87.5
30887	2023-09-04T05:52:07	15.6	87
30888	2023-09-04T06:02:07	15.7	86.5
30889	2023-09-04T06:12:07	15.7	86
30890	2023-09-04T06:22:07	16.1	85.5
30891	2023-09-04T06:32:08	16.4	85
30892	2023-09-04T06:42:07	16.6	84.5
30893	2023-09-04T06:52:07	16.9	84.5
30894	2023-09-04T07:02:07	17	83.5
30895	2023-09-04T07:12:07	17.3	82.5
30896	2023-09-04T07:22:07	17.6	82.5
30897	2023-09-04T07:32:07	17.9	81.5
30898	2023-09-04T07:42:07	18.3	81.5
30899	2023-09-04T07:52:07	18.5	79
30900	2023-09-04T08:02:07	18.8	78
30901	2023-09-04T08:12:07	19.1	77.5
30902	2023-09-04T08:22:07	19.3	77
30903	2023-09-04T08:32:07	19.5	75.5
30904	2023-09-04T08:42:07	19.9	74
30905	2023-09-04T08:52:07	20.3	72
30906	2023-09-04T09:02:07	20.6	71
30907	2023-09-04T09:12:07	20.9	69.5
30908	2023-09-04T09:22:07	21.3	68
30909	2023-09-04T09:32:07	21.4	67
30910	2023-09-04T09:42:07	21.7	66
30911	2023-09-04T09:52:07	22	63
30912	2023-09-04T10:02:07	22.3	59
30913	2023-09-04T10:12:06	22.7	56
30914	2023-09-04T10:22:06	23	54
30915	2023-09-04T10:32:06	23.3	54
30916	2023-09-04T10:42:06	23.4	53
30917	2023-09-04T10:52:06	23.6	52
30918	2023-09-04T11:02:06	24	51
30919	2023-09-04T11:12:06	24.2	51.5
30920	2023-09-04T11:22:06	24.5	50.5
30921	2023-09-04T11:32:06	24.7	49
30922	2023-09-04T11:42:06	25.3	45
30923	2023-09-04T11:52:06	25.8	43.5
30924	2023-09-04T12:02:06	26.7	40.5
30925	2023-09-04T12:12:06	31.4	37.5
30926	2023-09-04T12:22:06	35	31.5
30927	2023-09-04T12:32:06	36.8	29
30928	2023-09-04T12:42:06	38.3	26.5
30929	2023-09-04T12:52:06	39.7	23.5
30930	2023-09-04T13:02:06	41	22.5
30931	2023-09-04T13:12:06	41.6	22
30932	2023-09-04T13:22:06	43.2	20.5
30933	2023-09-04T13:32:06	43.9	19
30934	2023-09-04T13:42:06	44.9	19
30935	2023-09-04T13:52:06	45.6	18.5
30936	2023-09-04T14:02:06	45.7	18.5
30937	2023-09-04T14:12:06	46.3	17
30938	2023-09-04T14:22:06	46.9	16
30939	2023-09-04T14:32:06	46.6	16
30940	2023-09-04T14:42:06	47.1	16
30941	2023-09-04T14:52:06	47.1	15
30942	2023-09-04T15:02:06	47.1	15.5
30943	2023-09-04T15:12:06	47.4	15.5
30944	2023-09-04T15:22:06	47.7	15
30945	2023-09-04T15:32:06	47.5	15
30946	2023-09-04T15:42:06	47.4	14.5
30947	2023-09-04T15:52:06	47.9	15.5
30948	2023-09-04T16:02:06	47.5	14.5
30949	2023-09-04T16:12:06	46.9	14.5
30950	2023-09-04T16:22:06	45.9	15.5
30951	2023-09-04T16:32:06	43.8	17
30952	2023-09-04T16:42:06	38.3	21
30953	2023-09-04T16:52:06	36.5	23.5
30954	2023-09-04T17:02:06	36	24.5
30955	2023-09-04T17:12:06	34.2	26.5
30956	2023-09-04T17:22:06	32.8	29
30957	2023-09-04T17:42:06	30.7	32
30958	2023-09-04T18:12:06	28.7	34.5
30959	2023-09-04T18:22:06	28.2	36
30960	2023-09-04T18:32:06	27.6	37.5
30961	2023-09-04T18:42:06	27	39
30962	2023-09-04T18:52:06	26.6	41
30963	2023-09-04T19:02:06	26.1	42
30964	2023-09-04T19:12:06	25.8	43.5
30965	2023-09-04T19:22:06	25.3	44
30966	2023-09-04T19:32:06	25	45
30967	2023-09-04T19:42:06	24.6	46
30968	2023-09-04T19:52:06	24.3	47.5
30969	2023-09-04T20:02:06	24	48
30970	2023-09-04T20:12:06	23.8	49
30971	2023-09-04T20:22:06	23.5	50
30972	2023-09-04T20:32:06	23.4	50.5
30973	2023-09-04T20:42:06	23.2	52.5
30974	2023-09-04T20:52:06	23	53
30975	2023-09-04T21:02:06	22.7	54
30976	2023-09-04T21:12:06	22.4	55
30977	2023-09-04T21:22:06	22.3	55.5
30978	2023-09-04T21:32:06	22.1	56.5
30979	2023-09-04T21:42:05	21.8	57.5
30980	2023-09-04T21:52:05	21.7	58.5
30981	2023-09-04T22:02:05	21.5	59.5
30982	2023-09-04T22:12:05	21.3	60
30983	2023-09-04T22:22:05	21.3	60.5
30984	2023-09-04T22:32:05	21.1	60.5
30985	2023-09-04T22:42:05	20.9	62
30986	2023-09-04T22:52:05	20.7	62.5
30987	2023-09-04T23:02:05	20.6	63
30988	2023-09-04T23:12:05	20.3	64
30989	2023-09-04T23:22:05	20.2	64.5
30990	2023-09-04T23:32:05	19.9	65
30991	2023-09-04T23:42:05	19.7	66
30992	2023-09-04T23:52:05	19.6	66
30993	2023-09-05T00:02:05	19.6	66.5
30994	2023-09-05T00:12:05	19.4	67
30995	2023-09-05T00:22:05	19.2	67
30996	2023-09-05T00:32:05	19.1	67
30997	2023-09-05T00:42:05	18.9	67
30998	2023-09-05T00:52:05	18.9	67
30999	2023-09-05T01:02:05	18.7	68
31000	2023-09-05T01:12:05	18.4	68.5
31001	2023-09-05T01:22:05	18.3	69.5
31002	2023-09-05T01:32:05	18.2	70
31003	2023-09-05T01:42:05	18	69.5
31004	2023-09-05T01:52:05	17.9	70.5
31005	2023-09-05T02:02:05	17.5	71
31006	2023-09-05T02:12:05	17.5	70.5
31007	2023-09-05T02:22:05	17.5	69.5
31008	2023-09-05T02:32:05	17.4	69
31009	2023-09-05T02:42:05	17.2	69.5
31010	2023-09-05T02:52:05	17.1	69
31011	2023-09-05T03:02:05	17.2	68
31012	2023-09-05T03:12:05	17	68
31013	2023-09-05T03:22:05	17	66.5
31014	2023-09-05T03:32:05	16.9	68
31015	2023-09-05T03:42:05	16.7	67.5
31016	2023-09-05T03:52:05	16.6	68.5
31017	2023-09-05T04:02:05	16.6	68
31018	2023-09-05T04:12:05	16.4	68
31019	2023-09-05T04:22:05	16.4	68
31020	2023-09-05T04:32:05	16.3	68
31021	2023-09-05T04:42:05	16.3	68.5
31022	2023-09-05T04:52:05	16.2	69
31023	2023-09-05T05:02:05	16.3	68
31024	2023-09-05T05:12:05	16.3	68
31025	2023-09-05T05:22:05	16.2	68.5
31026	2023-09-05T05:32:05	16.3	69
31027	2023-09-05T05:42:05	16.4	68.5
31028	2023-09-05T05:52:05	16.5	68.5
31029	2023-09-05T06:02:05	16.6	68
31030	2023-09-05T06:12:05	16.9	67.5
31031	2023-09-05T06:22:05	17.1	68
31032	2023-09-05T06:32:05	17.3	67.5
31033	2023-09-05T06:42:05	17.4	67
31034	2023-09-05T06:52:05	17.7	66.5
31035	2023-09-05T07:02:05	18	66.5
31036	2023-09-05T07:12:05	18.2	67
31037	2023-09-05T07:22:05	18.6	66
31038	2023-09-05T07:32:05	18.7	65.5
31039	2023-09-05T07:42:05	19	66
31040	2023-09-05T07:52:05	19.1	67
31041	2023-09-05T08:02:05	19.4	64
31042	2023-09-05T08:12:05	19.6	64.5
31043	2023-09-05T08:22:05	19.9	64.5
31044	2023-09-05T08:32:04	20.1	64.5
31045	2023-09-05T08:42:04	20.4	63
31046	2023-09-05T08:52:04	20.9	62
31047	2023-09-05T09:02:04	21.2	60.5
31048	2023-09-05T09:12:05	21.5	58.5
31049	2023-09-05T09:22:04	21.6	58
31050	2023-09-05T09:32:04	22	58.5
31051	2023-09-05T09:42:04	22.3	56
31052	2023-09-05T09:52:04	22.4	57.5
31053	2023-09-05T10:02:04	22.8	56
31054	2023-09-05T10:12:04	23.1	55.5
31055	2023-09-05T10:22:04	23.3	54.5
31056	2023-09-05T10:32:04	23.5	55.5
31057	2023-09-05T10:42:04	23.7	53.5
31058	2023-09-05T10:52:04	24.1	51.5
31059	2023-09-05T11:02:04	24.3	52.5
31060	2023-09-05T11:12:04	24.7	50.5
31061	2023-09-05T11:22:04	25	53
31062	2023-09-05T11:32:04	25.3	51.5
31063	2023-09-05T11:42:04	25.8	50.5
31064	2023-09-05T11:52:04	26.4	48
31065	2023-09-05T12:02:04	27.4	46
31066	2023-09-05T12:12:04	32.1	37
31067	2023-09-05T12:22:04	35.4	31
31068	2023-09-05T12:32:04	38	27.5
31069	2023-09-05T12:42:04	39.5	26
31070	2023-09-05T12:52:04	40.5	24
31071	2023-09-05T13:02:04	41.8	23
31072	2023-09-05T13:12:04	42.6	22
31073	2023-09-05T13:22:04	44	20.5
31074	2023-09-05T13:32:04	44.6	19.5
31075	2023-09-05T13:42:04	45.3	18.5
31076	2023-09-05T13:52:04	46.4	18
31077	2023-09-05T14:02:04	46.5	17.5
31078	2023-09-05T14:12:04	47	17
31079	2023-09-05T14:22:04	47.2	17
31080	2023-09-05T14:32:04	47.6	16.5
31081	2023-09-05T14:42:04	47.8	17
31082	2023-09-05T14:52:04	47.9	16.5
31083	2023-09-05T15:02:04	48.3	16.5
31084	2023-09-05T15:12:04	48	16.5
31085	2023-09-05T15:22:04	48.4	16
31086	2023-09-05T15:32:04	48	16.5
31087	2023-09-05T15:42:04	47.5	16.5
31088	2023-09-05T15:52:04	47.2	17
31089	2023-09-05T16:02:04	46.9	17
31090	2023-09-05T16:12:04	46.3	18
31091	2023-09-05T16:22:04	45.7	18.5
31092	2023-09-05T16:32:04	43.3	20
31093	2023-09-05T16:42:04	38.2	26
31094	2023-09-05T16:52:04	36.4	29
31095	2023-09-05T17:02:04	35.4	30
31096	2023-09-05T17:12:04	34.2	32
31097	2023-09-05T17:22:04	33.1	34
31098	2023-09-05T17:32:04	32.1	36
31099	2023-09-05T17:42:04	31.3	38
31100	2023-09-05T17:52:04	30.4	39.5
31101	2023-09-05T18:02:04	29.7	41
31102	2023-09-05T18:12:04	29.2	42.5
31103	2023-09-05T18:22:04	28.5	43.5
31104	2023-09-05T18:32:04	27.9	45
31105	2023-09-05T18:42:04	27.5	45
31106	2023-09-05T18:52:04	27.1	46
31107	2023-09-05T19:02:04	26.7	48.5
31108	2023-09-05T19:12:04	26.2	48.5
31109	2023-09-05T19:22:04	25.9	48
31110	2023-09-05T19:32:04	25.5	49
31111	2023-09-05T19:42:04	25.2	49.5
31112	2023-09-05T19:52:04	24.9	50.5
31113	2023-09-05T20:02:04	24.6	52
31114	2023-09-05T20:12:04	24.2	54
31115	2023-09-05T20:22:03	23.7	55.5
31116	2023-09-05T20:32:03	23.5	55.5
31117	2023-09-05T20:42:03	23.2	54.5
31118	2023-09-05T20:52:03	23.1	55
31119	2023-09-05T21:02:03	22.7	55.5
31120	2023-09-05T21:12:03	22.6	55.5
31121	2023-09-05T21:22:03	22.3	56.5
31122	2023-09-05T21:32:03	22.1	56.5
31123	2023-09-05T21:42:03	22	57.5
31124	2023-09-05T21:52:03	21.9	56.5
31125	2023-09-05T22:02:03	21.7	59
31126	2023-09-05T22:12:03	21.3	60.5
31127	2023-09-05T22:22:03	20.8	61
31128	2023-09-05T22:32:03	20.7	61.5
31129	2023-09-05T22:42:03	20.6	62
31130	2023-09-05T22:52:03	20.4	62.5
31131	2023-09-05T23:02:03	19.9	63.5
31132	2023-09-05T23:12:03	19.8	63.5
31133	2023-09-05T23:22:03	19.6	65
31134	2023-09-05T23:32:03	19.4	66
31135	2023-09-05T23:42:03	19.2	66.5
31136	2023-09-05T23:52:03	19	67.5
31137	2023-09-06T00:02:03	18.9	67.5
31138	2023-09-06T00:12:03	18.7	67
31139	2023-09-06T00:22:03	18.6	67
31140	2023-09-06T00:32:03	18.6	66.5
31141	2023-09-06T00:42:03	18.5	67.5
31142	2023-09-06T00:52:03	18.3	68
31143	2023-09-06T01:02:03	18.1	68.5
31144	2023-09-06T01:12:03	17.9	69
31145	2023-09-06T01:22:03	17.7	70
31146	2023-09-06T01:32:03	17.5	70
31147	2023-09-06T01:42:03	17.4	70
31148	2023-09-06T01:52:03	17.2	71
31149	2023-09-06T02:02:03	16.9	71
31150	2023-09-06T02:12:03	16.8	71.5
31151	2023-09-06T02:22:03	16.7	71.5
31152	2023-09-06T02:32:03	16.4	72
31153	2023-09-06T02:42:03	16.4	73
31154	2023-09-06T02:52:03	16.1	73
31155	2023-09-06T03:02:03	16	73.5
31156	2023-09-06T03:12:03	15.7	74
31157	2023-09-06T03:22:03	15.7	74.5
31158	2023-09-06T03:32:03	15.6	75
31159	2023-09-06T03:42:03	15.5	74.5
31160	2023-09-06T03:52:03	15.4	75
31161	2023-09-06T04:02:21	15.2	75.5
31162	2023-09-06T04:12:03	15.1	76.5
31163	2023-09-06T04:22:03	15	77
31164	2023-09-06T04:32:03	15	76.5
31165	2023-09-06T04:42:03	14.9	76.5
31166	2023-09-06T04:52:03	15	76.5
31167	2023-09-06T05:02:03	14.9	76.5
31168	2023-09-06T05:12:03	15.1	76.5
31169	2023-09-06T05:22:03	15.3	75
31170	2023-09-06T05:32:03	15.6	73.5
31171	2023-09-06T05:42:03	15.1	76.5
31172	2023-09-06T05:52:03	14.8	76.5
31173	2023-09-06T06:02:03	14.9	76.5
31174	2023-09-06T06:12:03	14.9	78
31175	2023-09-06T06:22:03	15	78.5
31176	2023-09-06T06:32:03	15.2	77.5
31177	2023-09-06T06:42:03	15.4	76.5
31178	2023-09-06T06:52:03	15.6	76.5
31179	2023-09-06T07:02:03	15.8	76
31180	2023-09-06T07:12:03	16.2	77
31181	2023-09-06T07:22:03	16.3	77
31182	2023-09-06T07:32:02	16.7	76
31183	2023-09-06T07:42:02	16.9	75
31184	2023-09-06T07:52:03	17.2	74
31185	2023-09-06T08:02:02	17.6	73.5
31186	2023-09-06T08:12:02	17.8	73.5
31187	2023-09-06T08:22:02	18.1	72.5
31188	2023-09-06T08:32:02	18.3	73
31189	2023-09-06T08:42:02	18.7	73.5
31190	2023-09-06T08:52:02	19	71
31191	2023-09-06T09:02:02	19.1	70
31192	2023-09-06T09:12:02	19.5	70
31193	2023-09-06T09:32:02	20	68.5
31194	2023-09-06T09:42:02	20.6	66.5
31195	2023-09-06T09:52:02	20.7	66.5
31196	2023-09-06T10:02:02	21	65.5
31197	2023-09-06T10:12:02	21.4	64.5
31198	2023-09-06T10:22:02	21.7	64.5
31199	2023-09-06T10:32:02	21.9	62.5
31200	2023-09-06T10:42:02	22.2	61
31201	2023-09-06T10:52:02	22.6	60.5
31202	2023-09-06T11:02:02	22.9	59.5
31203	2023-09-06T11:12:02	23.3	60
31204	2023-09-06T11:22:02	23.7	57
31205	2023-09-06T11:32:02	24	58.5
31206	2023-09-06T11:42:02	24.6	56.5
31207	2023-09-06T11:52:02	25.2	54
31208	2023-09-06T12:02:02	26.3	51
31209	2023-09-06T12:12:02	31.3	39.5
31210	2023-09-06T12:22:02	34.3	34
31211	2023-09-06T12:32:02	36.9	30.5
31212	2023-09-06T12:42:02	38.5	28
31213	2023-09-06T12:52:02	39.5	26.5
31214	2023-09-06T13:02:02	40.8	25
31215	2023-09-06T13:12:02	41.8	24
31216	2023-09-06T13:22:02	42.7	22.5
31217	2023-09-06T13:32:02	43.5	22
31218	2023-09-06T13:42:02	44	21.5
31219	2023-09-06T13:52:02	45.3	20.5
31220	2023-09-06T14:02:02	45.6	20
31221	2023-09-06T14:12:02	45.9	19
31222	2023-09-06T14:22:02	46.2	18.5
31223	2023-09-06T14:32:02	46.5	18
31224	2023-09-06T14:42:02	46.3	18.5
31225	2023-09-06T14:52:02	46.8	18
31226	2023-09-06T15:02:02	47.4	17.5
31227	2023-09-06T15:12:02	47.4	17
31228	2023-09-06T15:22:02	47.4	16.5
31229	2023-09-06T15:32:02	46.8	17
31230	2023-09-06T15:42:02	46.7	17
31231	2023-09-06T15:52:02	46.5	18
31232	2023-09-06T16:02:02	46.3	18
31233	2023-09-06T16:12:02	46.1	18
31234	2023-09-06T16:22:02	45.1	18.5
31235	2023-09-06T16:32:02	41.4	21.5
31236	2023-09-06T16:42:02	37.6	26
31237	2023-09-06T16:52:02	36	28
31238	2023-09-06T17:02:02	34.8	29.5
31239	2023-09-06T17:12:02	33.8	30.5
31240	2023-09-06T17:22:02	32.7	34
31241	2023-09-06T17:32:02	31.7	36.5
31242	2023-09-06T17:42:02	30.6	38
31243	2023-09-06T17:52:02	30.1	41
31244	2023-09-06T18:02:02	29.3	43
31245	2023-09-06T18:12:02	28.8	43.5
31246	2023-09-06T18:22:02	28	46
31247	2023-09-06T18:32:02	27.4	47.5
31248	2023-09-06T18:42:02	26.8	50
31249	2023-09-06T18:52:02	26.2	51
31250	2023-09-06T19:02:02	26	50.5
31251	2023-09-06T19:12:01	25.7	52.5
31252	2023-09-06T19:22:01	25	54.5
31253	2023-09-06T19:32:01	24.3	57.5
31254	2023-09-06T19:42:01	24.2	58.5
31255	2023-09-06T19:52:01	23.7	60
31256	2023-09-06T20:02:01	23.3	60
31257	2023-09-06T20:12:01	23	61
31258	2023-09-06T20:22:01	22.8	61.5
31259	2023-09-06T20:32:01	22.4	62.5
31260	2023-09-06T20:42:01	22	63
31261	2023-09-06T20:52:01	21.9	63.5
31262	2023-09-06T21:02:01	21.5	64.5
31263	2023-09-06T21:12:01	21.3	65
31264	2023-09-06T21:22:01	21.1	66
31265	2023-09-06T21:32:01	20.9	66.5
31266	2023-09-06T21:42:01	20.5	67
31267	2023-09-06T21:52:01	20.3	68
31268	2023-09-06T22:02:01	20	68.5
31269	2023-09-06T22:12:01	19.8	68.5
31270	2023-09-06T22:22:01	19.6	69
31271	2023-09-06T22:32:01	19.4	69.5
31272	2023-09-06T22:42:01	19.2	70.5
31273	2023-09-06T22:52:01	19.1	71
31274	2023-09-06T23:02:01	18.8	71.5
31275	2023-09-06T23:12:01	18.8	71.5
31276	2023-09-06T23:22:01	18.8	71.5
31277	2023-09-06T23:32:01	18.5	72
31278	2023-09-06T23:42:01	18.4	72.5
31279	2023-09-06T23:52:01	18.3	72.5
31280	2023-09-07T00:02:01	17.9	73.5
31281	2023-09-07T00:12:01	18	73.5
31282	2023-09-07T00:22:01	17.8	74
31283	2023-09-07T00:32:01	17.7	73.5
31284	2023-09-07T00:42:01	17.5	73.5
31285	2023-09-07T00:52:01	17.4	74
31286	2023-09-07T01:02:01	17.4	74
31287	2023-09-07T01:12:01	17.1	74.5
31288	2023-09-07T01:22:01	16.8	75
31289	2023-09-07T01:32:01	16.8	75.5
31290	2023-09-07T01:42:01	16.8	75.5
31291	2023-09-07T01:52:01	16.6	75.5
31292	2023-09-07T02:02:01	16.6	75.5
31293	2023-09-07T02:12:01	16.4	76.5
31294	2023-09-07T02:22:01	16.4	76.5
31295	2023-09-07T02:32:01	16.4	76
31296	2023-09-07T02:42:01	16.4	76.5
31297	2023-09-07T02:52:01	16.1	76.5
31298	2023-09-07T03:02:01	16.1	77
31299	2023-09-07T03:12:01	16.1	76.5
31300	2023-09-07T03:22:01	16	77
31301	2023-09-07T03:32:01	15.9	77
31302	2023-09-07T03:42:01	15.8	77
31303	2023-09-07T03:52:01	15.8	77.5
31304	2023-09-07T04:02:01	15.6	77.5
31305	2023-09-07T04:12:01	15.6	78
31306	2023-09-07T04:22:01	15.4	78.5
31307	2023-09-07T04:32:01	15.5	78.5
31308	2023-09-07T04:42:01	15.3	79
31309	2023-09-07T04:52:01	15.2	79.5
31310	2023-09-07T05:02:01	15.1	79.5
31311	2023-09-07T05:12:01	15.2	80.5
31312	2023-09-07T05:22:01	15.3	80
31313	2023-09-07T05:32:01	15.1	80.5
31314	2023-09-07T05:42:01	15.4	79.5
31315	2023-09-07T05:52:01	15.5	79.5
31316	2023-09-07T06:02:01	15.7	79.5
31317	2023-09-07T06:12:01	15.9	79
31318	2023-09-07T06:22:01	16.3	79
31319	2023-09-07T06:32:00	16.5	79
31320	2023-09-07T06:42:00	16.8	78
31321	2023-09-07T06:52:00	17.1	77.5
31322	2023-09-07T07:02:00	17.3	77.5
31323	2023-09-07T07:12:00	17.4	78.5
31324	2023-09-07T07:22:00	17.5	80
31325	2023-09-07T07:32:00	17.8	79
31326	2023-09-07T07:42:00	18	81.5
31327	2023-09-07T07:52:00	18.2	81
31328	2023-09-07T08:02:00	18.5	78
31329	2023-09-07T08:12:00	18.7	78
31330	2023-09-07T08:22:00	19	77.5
31331	2023-09-07T08:32:00	19.1	76.5
31332	2023-09-07T08:42:00	19.4	77
31333	2023-09-07T08:52:00	19.7	74.5
31334	2023-09-07T09:02:00	19.9	73.5
31335	2023-09-07T09:12:00	20.3	73
31336	2023-09-07T09:22:00	20.7	72
31337	2023-09-07T09:32:00	20.7	72.5
31338	2023-09-07T09:42:00	21	70
31339	2023-09-07T09:52:00	21.4	71.5
31340	2023-09-07T10:02:00	21.7	70.5
31341	2023-09-07T10:12:00	21.9	69
31342	2023-09-07T10:22:00	22.4	67.5
31343	2023-09-07T10:32:00	22.8	65.5
31344	2023-09-07T10:42:00	23.1	64.5
31345	2023-09-07T10:52:00	23.4	64.5
31346	2023-09-07T11:02:00	23.8	65.5
31347	2023-09-07T11:12:00	24.1	63.5
31348	2023-09-07T11:22:00	24.4	61
31349	2023-09-07T11:32:00	24.8	60
31350	2023-09-07T11:42:00	25.3	59
31351	2023-09-07T11:52:00	25.8	57.5
31352	2023-09-07T12:02:00	26.9	55.5
31353	2023-09-07T12:12:00	31.6	44
31354	2023-09-07T12:22:00	35	37
31355	2023-09-07T12:32:00	37.5	33.5
31356	2023-09-07T12:42:00	39.3	30
31357	2023-09-07T12:52:00	40.5	27.5
31358	2023-09-07T13:02:00	41.8	26.5
31359	2023-09-07T13:12:00	42.9	25.5
31360	2023-09-07T13:22:00	44.4	24.5
31361	2023-09-07T13:42:00	45.5	22.5
31362	2023-09-07T13:52:00	45.9	21.5
31363	2023-09-07T14:02:00	46.8	21.5
31364	2023-09-07T14:12:19	47	19.5
31365	2023-09-07T14:22:00	47.4	19.5
31366	2023-09-07T14:32:00	47.9	18.5
31367	2023-09-07T14:42:00	48.3	19
31368	2023-09-07T14:52:00	48.5	18.5
31369	2023-09-07T15:02:00	48.4	18.5
31370	2023-09-07T15:12:00	48.7	18
31371	2023-09-07T15:22:00	48.3	18
31372	2023-09-07T15:32:00	48	18
31373	2023-09-07T15:42:00	48	18.5
31374	2023-09-07T15:52:00	47.6	18.5
31375	2023-09-07T16:02:00	47.1	19
31376	2023-09-07T16:12:00	46.8	19
31377	2023-09-07T16:22:00	45.6	20.5
31378	2023-09-07T16:32:00	40.9	25.5
31379	2023-09-07T16:42:00	38.8	27.5
31380	2023-09-07T16:52:00	37	30.5
31381	2023-09-07T17:02:00	36.8	31.5
31382	2023-09-07T17:12:00	35.6	33.5
31383	2023-09-07T17:22:00	34.3	35.5
31384	2023-09-07T17:32:00	32.9	39
31385	2023-09-07T17:42:00	32	42
31386	2023-09-07T17:52:00	31.1	44
31387	2023-09-07T18:02:00	30.4	45.5
31388	2023-09-07T18:12:00	30	46.5
31389	2023-09-07T18:21:59	29.2	48.5
31390	2023-09-07T18:31:59	28.7	49.5
31391	2023-09-07T18:41:59	28.1	51
31392	2023-09-07T18:51:59	27.6	52
31393	2023-09-07T19:01:59	27.2	53
31394	2023-09-07T19:11:59	26.6	55
31395	2023-09-07T19:21:59	26.3	56.5
31396	2023-09-07T19:31:59	25.9	57
31397	2023-09-07T19:41:59	25.4	57.5
31398	2023-09-07T19:51:59	25.2	57
31399	2023-09-07T20:01:59	25.1	56
31400	2023-09-07T20:11:59	25.2	54
31401	2023-09-07T20:21:59	25.1	54
31402	2023-09-07T20:31:59	24.8	54
31403	2023-09-07T20:41:59	24.8	56
31404	2023-09-07T20:51:59	24.5	57
31405	2023-09-07T21:01:59	23.9	59.5
31406	2023-09-07T21:11:59	23.7	61
31407	2023-09-07T21:21:59	23.5	61
31408	2023-09-07T21:31:59	23.2	61
31409	2023-09-07T21:41:59	22.9	62
31410	2023-09-07T21:51:59	23	60
31411	2023-09-07T22:01:59	23.1	59.5
31412	2023-09-07T22:11:59	22.8	62.5
31413	2023-09-07T22:21:59	22.4	63.5
31414	2023-09-07T22:31:59	22.2	65
31415	2023-09-07T22:41:59	21.7	66
31416	2023-09-07T22:51:59	21.6	66.5
31417	2023-09-07T23:01:59	21.7	66
31418	2023-09-07T23:11:59	21.3	67
31419	2023-09-07T23:21:59	21.2	68
31420	2023-09-07T23:31:59	20.9	69
31421	2023-09-07T23:41:59	20.6	70.5
31422	2023-09-07T23:51:59	20.6	71.5
31423	2023-09-08T00:01:59	20.4	71.5
31424	2023-09-08T00:11:59	20.1	72
31425	2023-09-08T00:21:59	19.9	73.5
31426	2023-09-08T00:31:59	19.6	74.5
31427	2023-09-08T00:41:59	19.7	75
31428	2023-09-08T00:51:59	19.5	75.5
31429	2023-09-08T01:01:59	19.4	75.5
31430	2023-09-08T01:11:59	19.2	76
31431	2023-09-08T01:21:59	19.1	76
31432	2023-09-08T01:31:59	18.9	76
31433	2023-09-08T01:41:59	18.8	77.5
31434	2023-09-08T01:51:59	18.5	78
31435	2023-09-08T02:01:59	18.3	78.5
31436	2023-09-08T02:11:59	18.1	79
31437	2023-09-08T02:21:59	18	79.5
31438	2023-09-08T02:31:59	17.9	80
31439	2023-09-08T02:41:59	17.8	79.5
31440	2023-09-08T02:51:59	17.7	80.5
31441	2023-09-08T03:01:59	17.5	80
31442	2023-09-08T03:11:59	17.3	81
31443	2023-09-08T03:21:59	17.4	80
31444	2023-09-08T03:31:59	17.4	80
31445	2023-09-08T03:41:59	17.3	80
31446	2023-09-08T03:51:59	17.2	81
31447	2023-09-08T04:01:59	16.9	82
31448	2023-09-08T04:11:59	16.8	83
31449	2023-09-08T04:21:59	16.7	83.5
31450	2023-09-08T04:31:59	16.6	83.5
31451	2023-09-08T04:41:59	16.5	84.5
31452	2023-09-08T04:51:58	16.3	84.5
31453	2023-09-08T05:01:59	16.4	84
31454	2023-09-08T05:11:58	16.3	84.5
31455	2023-09-08T05:21:58	16.4	84.5
31456	2023-09-08T05:31:58	16.4	84
31457	2023-09-08T05:41:58	16.5	84.5
31458	2023-09-08T05:51:58	16.5	85
31459	2023-09-08T06:01:58	16.8	85.5
31460	2023-09-08T06:11:58	16.8	85
31461	2023-09-08T06:21:58	17.1	85.5
31462	2023-09-08T06:31:58	17.4	85
31463	2023-09-08T06:41:58	17.6	84.5
31464	2023-09-08T06:51:58	17.8	85
31465	2023-09-08T07:01:58	18.1	84
31466	2023-09-08T07:11:58	18.3	84.5
31467	2023-09-08T07:21:58	18.4	84
31468	2023-09-08T07:31:58	18.5	83.5
31469	2023-09-08T07:41:58	18.7	82.5
31470	2023-09-08T07:51:58	19	81.5
31471	2023-09-08T08:01:58	19.3	80.5
31472	2023-09-08T08:11:58	19.6	80.5
31473	2023-09-08T08:21:58	19.7	79.5
31474	2023-09-08T08:31:58	20.1	79
31475	2023-09-08T08:41:58	20.2	79
31476	2023-09-08T08:51:58	20.3	79.5
31477	2023-09-08T09:01:58	20.7	79.5
31478	2023-09-08T09:11:58	21	78.5
31479	2023-09-08T09:21:58	21.1	78.5
31480	2023-09-08T09:31:58	21.3	78.5
31481	2023-09-08T09:41:58	21.7	77.5
31482	2023-09-08T09:51:58	21.9	77
31483	2023-09-08T10:01:58	22.2	76.5
31484	2023-09-08T10:11:58	22.4	76
31485	2023-09-08T10:21:58	22.9	74.5
31486	2023-09-08T10:31:58	23.3	74.5
31487	2023-09-08T10:41:58	23.5	73
31488	2023-09-08T10:51:58	23.9	73.5
31489	2023-09-08T11:01:58	24.3	72
31490	2023-09-08T11:11:58	24.5	70.5
31491	2023-09-08T11:21:58	24.9	68.5
31492	2023-09-08T11:31:58	25.3	66
31493	2023-09-08T11:41:58	25.9	64
31494	2023-09-08T11:51:58	26.5	62
31495	2023-09-08T12:01:58	27.6	60.5
31496	2023-09-08T12:11:58	32.1	47
31497	2023-09-08T12:21:58	34.4	41
31498	2023-09-08T12:31:58	36.6	37
31499	2023-09-08T12:41:58	38.7	33.5
31500	2023-09-08T12:51:58	40.6	30.5
31501	2023-09-08T13:02:13	41.4	28.5
31502	2023-09-08T13:11:58	41.9	29.5
31503	2023-09-08T13:21:58	42.7	27.5
31504	2023-09-08T13:31:58	44.5	26.5
31505	2023-09-08T13:41:58	45.4	25
31506	2023-09-08T13:51:58	44	26
31507	2023-09-08T14:01:58	46.4	23.5
31508	2023-09-08T14:11:58	46.6	21.5
31509	2023-09-08T14:21:58	46.9	22
31510	2023-09-08T14:31:58	47.6	22
31511	2023-09-08T14:41:58	48.3	20
31512	2023-09-08T14:51:58	48	21
31513	2023-09-08T15:01:58	48.5	20.5
31514	2023-09-08T15:11:58	48.1	20.5
31515	2023-09-08T15:21:58	48.1	19.5
31516	2023-09-08T15:31:58	46.7	20.5
31517	2023-09-08T15:41:58	47.4	21
31518	2023-09-08T15:51:58	47.2	20.5
31519	2023-09-08T16:01:58	46.5	21.5
31520	2023-09-08T16:11:58	46.3	22.5
31521	2023-09-08T16:21:58	45.5	23
31522	2023-09-08T16:31:58	40.4	28.5
31523	2023-09-08T16:41:58	38.8	30
31524	2023-09-08T16:51:57	37.2	33.5
31525	2023-09-08T17:01:57	36.8	35
31526	2023-09-08T17:11:57	36.1	37
31527	2023-09-08T17:21:57	34.7	42
31528	2023-09-08T17:31:57	33.4	45.5
31529	2023-09-08T17:41:57	32.6	48
31530	2023-09-08T17:51:57	31.7	49.5
31531	2023-09-08T18:01:57	31.1	51.5
31532	2023-09-08T18:11:57	30.3	52.5
31533	2023-09-08T18:21:57	29.7	54
31534	2023-09-08T18:31:57	29.1	54.5
31535	2023-09-08T18:41:57	28.4	56.5
31536	2023-09-08T18:51:57	28.1	57
31537	2023-09-08T19:01:57	27.5	58
31538	2023-09-08T19:11:57	27.1	59
31539	2023-09-08T19:21:57	26.9	59.5
31540	2023-09-08T19:31:57	26.4	60.5
31541	2023-09-08T19:41:57	26.4	61
31542	2023-09-08T19:51:57	26	62.5
31543	2023-09-08T20:01:57	25.8	63
31544	2023-09-08T20:11:57	25.7	63.5
31545	2023-09-08T20:21:57	25.2	65
31546	2023-09-08T20:31:57	25.1	65
31547	2023-09-08T20:41:57	24.1	67.5
31548	2023-09-08T20:51:57	23.9	69.5
31549	2023-09-08T21:01:57	23.9	68.5
31550	2023-09-08T21:11:57	23.6	70
31551	2023-09-08T21:21:57	23.3	70.5
31552	2023-09-08T21:31:57	23.1	71.5
31553	2023-09-08T21:41:57	22.9	72
31554	2023-09-08T21:51:57	22.8	71.5
31555	2023-09-08T22:01:57	22.7	71.5
31556	2023-09-08T22:11:57	22.3	72.5
31557	2023-09-08T22:21:57	22	74.5
31558	2023-09-08T22:31:57	21.9	74.5
31559	2023-09-08T22:41:57	21.7	74
31560	2023-09-08T22:51:57	21.4	74.5
31561	2023-09-08T23:01:57	21.3	74.5
31562	2023-09-08T23:11:57	21.2	74.5
31563	2023-09-08T23:21:57	20.9	75.5
31564	2023-09-08T23:31:57	20.9	75.5
31565	2023-09-08T23:41:57	20.6	76.5
31566	2023-09-08T23:51:57	20.4	78
31567	2023-09-09T00:01:57	20.2	77
31568	2023-09-09T00:11:57	20.1	77.5
31569	2023-09-09T00:21:57	20	77.5
31570	2023-09-09T00:31:57	19.7	78
31571	2023-09-09T00:41:57	19.5	78.5
31572	2023-09-09T00:51:57	19.4	79
31573	2023-09-09T01:01:57	19.4	79
31574	2023-09-09T01:11:57	19.1	79
31575	2023-09-09T01:21:57	19	79.5
31576	2023-09-09T01:31:57	18.9	79.5
31577	2023-09-09T01:41:57	18.7	80
31578	2023-09-09T01:51:57	18.6	81
31579	2023-09-09T02:01:57	18.5	81
31580	2023-09-09T02:11:57	18.3	81.5
31581	2023-09-09T02:21:57	18.4	80.5
31582	2023-09-09T02:31:57	18.3	80.5
31583	2023-09-09T02:41:57	18.3	80.5
31584	2023-09-09T02:51:57	18	81.5
31585	2023-09-09T03:01:57	17.9	82
31586	2023-09-09T03:11:56	17.8	82.5
31587	2023-09-09T03:21:57	17.6	83
31588	2023-09-09T03:31:56	17.5	83
31589	2023-09-09T03:41:56	17.4	83.5
31590	2023-09-09T03:51:56	17.4	83
31591	2023-09-09T04:01:56	17.2	82.5
31592	2023-09-09T04:11:56	17.1	83
31593	2023-09-09T04:21:56	17.1	83.5
31594	2023-09-09T04:31:56	17	83.5
31595	2023-09-09T04:41:56	16.8	84
31596	2023-09-09T04:51:56	16.8	83
31597	2023-09-09T05:01:56	16.8	84
31598	2023-09-09T05:11:56	16.7	85
31599	2023-09-09T05:21:56	16.7	84.5
31600	2023-09-09T05:31:56	16.8	85.5
31601	2023-09-09T05:41:56	17	85
31602	2023-09-09T05:51:56	17	84.5
31603	2023-09-09T06:01:56	17.2	85
31604	2023-09-09T06:11:56	17.3	84.5
31605	2023-09-09T06:21:56	17.4	85
31606	2023-09-09T06:31:56	17.7	86
31607	2023-09-09T06:41:56	18	87.5
31608	2023-09-09T06:51:56	18.1	86
31609	2023-09-09T07:01:56	18.5	87
31610	2023-09-09T07:11:56	18.7	87.5
31611	2023-09-09T07:21:56	19	88.5
31612	2023-09-09T07:31:56	19.2	87.5
31613	2023-09-09T07:41:56	19.5	86.5
31614	2023-09-09T07:51:56	19.6	85.5
31615	2023-09-09T08:01:56	19.8	85.5
31616	2023-09-09T08:11:56	20.1	84.5
31617	2023-09-09T08:21:56	20.4	84.5
31618	2023-09-09T08:31:56	20.5	84.5
31619	2023-09-09T08:41:56	20.8	84
31620	2023-09-09T08:51:56	21	83.5
31621	2023-09-09T09:01:56	21.5	83
31622	2023-09-09T09:11:56	21.5	82
31623	2023-09-09T09:21:56	21.8	81
31624	2023-09-09T09:31:56	22.3	78.5
31625	2023-09-09T09:41:56	22.5	78.5
31626	2023-09-09T09:51:56	22.7	77.5
31627	2023-09-09T10:01:56	23	77.5
31628	2023-09-09T10:11:56	23.3	77
31629	2023-09-09T10:21:56	23.7	74.5
31630	2023-09-09T10:31:56	24	74.5
31631	2023-09-09T10:41:56	24.2	73
31632	2023-09-09T10:51:56	24.6	66
31633	2023-09-09T11:01:56	25.1	69.5
31634	2023-09-09T11:11:56	25.3	66
31635	2023-09-09T11:21:56	25.8	63
31636	2023-09-09T11:31:56	26.2	58.5
31637	2023-09-09T11:41:56	26.8	57.5
31638	2023-09-09T11:51:56	27.6	56
31639	2023-09-09T12:01:56	28.7	53
31640	2023-09-09T12:11:56	33.5	42
31641	2023-09-09T12:21:56	35.9	36.5
31642	2023-09-09T12:31:56	38.1	34
31643	2023-09-09T12:41:56	39.7	30.5
31644	2023-09-09T12:51:56	40.9	28
31645	2023-09-09T13:01:56	42.5	26.5
31646	2023-09-09T13:11:56	43.6	24.5
31647	2023-09-09T13:21:56	43	26
31648	2023-09-09T13:31:56	45.2	24
31649	2023-09-09T13:41:56	46	22
31650	2023-09-09T13:51:56	47.2	21.5
31651	2023-09-09T14:01:56	47.5	21
31652	2023-09-09T14:11:56	47.7	19.5
31653	2023-09-09T14:21:56	48.9	19
31654	2023-09-09T14:31:55	48.1	19.5
31655	2023-09-09T14:41:55	48.4	19.5
31656	2023-09-09T14:51:55	48.1	19.5
31657	2023-09-09T15:01:55	49	19
31658	2023-09-09T15:11:55	49	18.5
31659	2023-09-09T15:21:55	48.8	19.5
31660	2023-09-09T15:31:55	49	20.5
31661	2023-09-09T15:41:55	48.7	19.5
31662	2023-09-09T15:51:55	48.1	19.5
31663	2023-09-09T16:01:55	47.7	21
31664	2023-09-09T16:11:55	46.8	21
31665	2023-09-09T16:21:55	44.7	23.5
31666	2023-09-09T16:31:55	40.3	28.5
31667	2023-09-09T16:41:55	38.6	30
31668	2023-09-09T16:51:55	37.4	32.5
31669	2023-09-09T17:01:55	36.4	34
31670	2023-09-09T17:11:55	35.5	36.5
31671	2023-09-09T17:21:55	34.4	39.5
31672	2023-09-09T17:31:55	33.3	44
31673	2023-09-09T17:41:55	32.5	47
31674	2023-09-09T17:51:55	31.8	49
31675	2023-09-09T18:01:55	31.1	50
31676	2023-09-09T18:11:55	30.4	50.5
31677	2023-09-09T18:21:55	29.8	51.5
31678	2023-09-09T18:31:55	29.3	52
31679	2023-09-09T18:41:55	28.9	53
31680	2023-09-09T18:51:55	28.3	55
31681	2023-09-09T19:01:55	28.1	55
31682	2023-09-09T19:11:55	27.6	56
31683	2023-09-09T19:21:55	27.2	57.5
31684	2023-09-09T19:31:55	26.7	58.5
31685	2023-09-09T19:41:55	26.6	59
31686	2023-09-09T19:51:55	26.2	59.5
31687	2023-09-09T20:01:55	26	60.5
31688	2023-09-09T20:11:55	25.8	60.5
31689	2023-09-09T20:21:55	25.5	60.5
31690	2023-09-09T20:31:55	25.2	62
31691	2023-09-09T20:41:55	25.1	63
31692	2023-09-09T20:51:55	24.7	63.5
31693	2023-09-09T21:01:55	24.4	64.5
31694	2023-09-09T21:11:55	24.3	65.5
31695	2023-09-09T21:21:55	24	66.5
31696	2023-09-09T21:31:55	23.9	66
31697	2023-09-09T21:41:55	23.7	66.5
31698	2023-09-09T21:51:55	23.3	69
31699	2023-09-09T22:01:55	23	70
31700	2023-09-09T22:11:55	23	69.5
31701	2023-09-09T22:21:55	22.7	70
31702	2023-09-09T22:31:55	22.4	71.5
31703	2023-09-09T22:41:55	22.1	71.5
31704	2023-09-09T22:51:55	22	72
31705	2023-09-09T23:01:55	21.7	73
31706	2023-09-09T23:11:55	21.5	73.5
31707	2023-09-09T23:21:55	21.3	74
31708	2023-09-09T23:31:55	21.2	74
31709	2023-09-09T23:41:55	21	74.5
31710	2023-09-09T23:51:55	20.9	74.5
31711	2023-09-10T00:01:55	20.6	75.5
31712	2023-09-10T00:11:55	20.5	74.5
31713	2023-09-10T00:21:55	20.1	76.5
31714	2023-09-10T00:31:55	20.1	76
31715	2023-09-10T00:41:55	19.9	76.5
31716	2023-09-10T00:51:55	19.9	76
31717	2023-09-10T01:01:55	19.6	76.5
31718	2023-09-10T01:11:55	19.5	76.5
31719	2023-09-10T01:21:55	19.2	77
31720	2023-09-10T01:31:54	19.3	77
31721	2023-09-10T01:41:54	19.1	77.5
31722	2023-09-10T01:51:54	18.9	78
31723	2023-09-10T02:01:54	18.8	78
31724	2023-09-10T02:11:54	18.7	78
31725	2023-09-10T02:21:54	18.6	79
31726	2023-09-10T02:31:54	18.4	79.5
31727	2023-09-10T02:41:54	18.3	79.5
31728	2023-09-10T02:51:54	18.4	79
31729	2023-09-10T03:01:54	18.1	80
31730	2023-09-10T03:11:54	18	79.5
31731	2023-09-10T03:21:54	17.9	80
31732	2023-09-10T03:31:54	17.7	80
31733	2023-09-10T03:41:54	17.7	80
31734	2023-09-10T03:51:54	17.5	80.5
31735	2023-09-10T04:01:54	17.4	80
31736	2023-09-10T04:11:54	17.4	80.5
31737	2023-09-10T04:21:54	17.1	81.5
31738	2023-09-10T04:31:54	17	82
31739	2023-09-10T04:41:54	16.9	82
31740	2023-09-10T04:51:54	16.6	83
31741	2023-09-10T05:01:54	16.6	83
31742	2023-09-10T05:11:54	16.7	83
31743	2023-09-10T05:21:54	16.7	83
31744	2023-09-10T05:31:54	16.6	83
31745	2023-09-10T05:41:54	16.8	84
31746	2023-09-10T05:51:55	16.8	83.5
31747	2023-09-10T06:01:54	17.1	83
31748	2023-09-10T06:11:54	17.2	82.5
31749	2023-09-10T06:21:54	17.4	83
31750	2023-09-10T06:31:54	17.4	83.5
31751	2023-09-10T06:41:54	17.6	83.5
31752	2023-09-10T06:51:54	18	83
31753	2023-09-10T07:01:54	18.1	82.5
31754	2023-09-10T07:11:54	18.4	82
31755	2023-09-10T07:21:54	18.7	82
31756	2023-09-10T07:31:54	18.8	82.5
31757	2023-09-10T07:41:54	19.2	82
31758	2023-09-10T07:51:54	19.4	81
31759	2023-09-10T08:01:54	19.5	81.5
31760	2023-09-10T08:11:54	19.8	81.5
31761	2023-09-10T08:21:54	20	81
31762	2023-09-10T08:31:54	20.3	81
31763	2023-09-10T08:41:54	20.8	80
31764	2023-09-10T08:51:54	21	79
31765	2023-09-10T09:01:54	21	79.5
31766	2023-09-10T09:11:54	21.1	80
31767	2023-09-10T09:21:54	21.3	78
31768	2023-09-10T09:31:54	21.7	77
31769	2023-09-10T09:41:54	22.1	73
31770	2023-09-10T09:51:54	22.3	73.5
31771	2023-09-10T10:01:54	22.7	72
31772	2023-09-10T10:11:54	23	71.5
31773	2023-09-10T10:21:54	23.3	68.5
31774	2023-09-10T10:31:54	23.9	66
31775	2023-09-10T10:41:54	24.2	62
31776	2023-09-10T10:51:54	24.6	61.5
31777	2023-09-10T11:01:54	24.7	60
31778	2023-09-10T11:11:54	25.1	58.5
31779	2023-09-10T11:21:54	25.5	55
31780	2023-09-10T11:31:54	26	51.5
31781	2023-09-10T11:41:54	26.4	51
31782	2023-09-10T11:51:54	27.1	47.5
31783	2023-09-10T12:01:54	28.3	47.5
31784	2023-09-10T12:11:54	33.5	35.5
31785	2023-09-10T12:21:53	36.7	29.5
31786	2023-09-10T12:31:53	38.7	27.5
31787	2023-09-10T12:41:53	41	24.5
31788	2023-09-10T12:51:53	42.6	22
31789	2023-09-10T13:01:53	43.6	21
31790	2023-09-10T13:11:53	44.7	21
31791	2023-09-10T13:21:53	45.1	19
31792	2023-09-10T13:31:53	45.8	19
31793	2023-09-10T13:41:53	46.8	18
31794	2023-09-10T13:51:54	47.7	17
31795	2023-09-10T14:01:53	47.2	18
31796	2023-09-10T14:11:53	47.2	18
31797	2023-09-10T14:21:53	47.6	17.5
31798	2023-09-10T14:31:53	47.9	16.5
31799	2023-09-10T14:41:53	47.1	17.5
31800	2023-09-10T14:51:53	47.5	17
31801	2023-09-10T15:01:54	47.9	16.5
31802	2023-09-10T15:11:54	47.3	16.5
31803	2023-09-10T15:21:53	47.5	17.5
31804	2023-09-10T15:31:54	48.2	16
31805	2023-09-10T15:41:53	48.1	15.5
31806	2023-09-10T15:51:53	47.2	17
31807	2023-09-10T16:01:53	46.5	16
31808	2023-09-10T16:11:53	46.3	16.5
31809	2023-09-10T16:21:53	43.8	18
31810	2023-09-10T16:31:53	39.7	21
31811	2023-09-10T16:41:54	38.3	25
31812	2023-09-10T16:51:53	37.2	25
31813	2023-09-10T17:01:53	36.3	33
31814	2023-09-10T17:11:53	35.4	35.5
31815	2023-09-10T17:21:53	33.9	38
31816	2023-09-10T17:31:53	33	39.5
31817	2023-09-10T17:41:53	31.9	41.5
31818	2023-09-10T17:51:53	31.2	42.5
31819	2023-09-10T18:01:53	30.4	45.5
31820	2023-09-10T18:11:53	29.9	44.5
31821	2023-09-10T18:21:53	29.2	46.5
31822	2023-09-10T18:31:53	28.7	45.5
31823	2023-09-10T18:41:53	27.9	50.5
31824	2023-09-10T18:51:53	27.5	52
31825	2023-09-10T19:01:53	27.2	53
31826	2023-09-10T19:11:53	26.7	53
31827	2023-09-10T19:21:53	26.1	53.5
31828	2023-09-10T19:31:53	25.8	55
31829	2023-09-10T19:41:53	25.3	56.5
31830	2023-09-10T19:51:53	24.8	57.5
31831	2023-09-10T20:01:53	24.7	57.5
31832	2023-09-10T20:11:53	24.3	58.5
31833	2023-09-10T20:21:53	24.2	57
31834	2023-09-10T20:31:53	23.7	59
31835	2023-09-10T20:41:53	23.4	60.5
31836	2023-09-10T20:51:53	23.2	61
31837	2023-09-10T21:01:53	22.9	61
31838	2023-09-10T21:11:53	22.6	62.5
31839	2023-09-10T21:21:53	22.4	62.5
31840	2023-09-10T21:31:53	22.2	63
31841	2023-09-10T21:41:53	22	64
31842	2023-09-10T21:51:53	21.8	64
31843	2023-09-10T22:01:53	21.6	64.5
31844	2023-09-10T22:11:53	21.2	65
31845	2023-09-10T22:21:53	21	66.5
31846	2023-09-10T22:31:53	20.9	66
31847	2023-09-10T22:41:53	20.6	67
31848	2023-09-10T22:51:53	20.7	66.5
31849	2023-09-10T23:01:53	20.5	67
31850	2023-09-10T23:11:53	20.2	69
31851	2023-09-10T23:21:53	20	69.5
31852	2023-09-10T23:31:53	19.9	69.5
31853	2023-09-10T23:41:53	19.7	70.5
31854	2023-09-10T23:51:53	19.8	70
31855	2023-09-11T00:01:52	19.4	71.5
31856	2023-09-11T00:11:52	19.2	72.5
31857	2023-09-11T00:21:52	19.3	71.5
31858	2023-09-11T00:31:52	19	72.5
31859	2023-09-11T00:41:52	19	72.5
31860	2023-09-11T00:51:52	18.6	75
31861	2023-09-11T01:01:52	18.2	75.5
31862	2023-09-11T01:11:52	18.1	76
31863	2023-09-11T01:21:52	18.1	76
31864	2023-09-11T01:31:52	18	77
31865	2023-09-11T01:41:52	17.7	77.5
31866	2023-09-11T01:51:52	17.8	77
31867	2023-09-11T02:01:52	17.5	77.5
31868	2023-09-11T02:11:52	17.4	78
31869	2023-09-11T02:21:53	17.2	79
31870	2023-09-11T02:31:52	17.1	79.5
31871	2023-09-11T02:41:52	17.1	79
31872	2023-09-11T02:51:52	17	80.5
31873	2023-09-11T03:01:52	16.8	80
31874	2023-09-11T03:11:52	16.8	80
31875	2023-09-11T03:21:52	16.7	80.5
31876	2023-09-11T03:31:52	16.6	80.5
31877	2023-09-11T03:41:52	16.5	81.5
31878	2023-09-11T03:51:52	16.3	82
31879	2023-09-11T04:01:52	16.4	82
31880	2023-09-11T04:11:52	16.2	81
31881	2023-09-11T04:21:52	16.4	80.5
31882	2023-09-11T04:31:52	16.1	81
31883	2023-09-11T04:41:52	15.9	82
31884	2023-09-11T04:51:52	15.9	82.5
31885	2023-09-11T05:01:52	15.9	82.5
31886	2023-09-11T05:11:52	16	82.5
31887	2023-09-11T05:21:52	15.8	83
31888	2023-09-11T05:31:52	16	83.5
31889	2023-09-11T05:41:52	15.9	84
31890	2023-09-11T05:51:52	16.2	83.5
31891	2023-09-11T06:01:52	16.3	84.5
31892	2023-09-11T06:11:52	16.5	84.5
31893	2023-09-11T06:21:52	16.7	84
31894	2023-09-11T06:31:52	17	84.5
31895	2023-09-11T06:41:52	17.2	85.5
31896	2023-09-11T06:51:52	17.5	84.5
31897	2023-09-11T07:01:52	17.7	84
31898	2023-09-11T07:11:52	17.9	83.5
31899	2023-09-11T07:21:52	18.1	82.5
31900	2023-09-11T07:31:52	18.5	81.5
31901	2023-09-11T07:41:52	18.7	81
31902	2023-09-11T07:51:52	18.9	80.5
31903	2023-09-11T08:01:52	19.2	80
31904	2023-09-11T08:11:52	19.5	79.5
31905	2023-09-11T08:21:52	19.8	79
31906	2023-09-11T08:31:52	20	78
31907	2023-09-11T08:41:52	20.3	77
31908	2023-09-11T08:51:52	20.6	77.5
31909	2023-09-11T09:01:52	20.8	76.5
31910	2023-09-11T09:11:52	21	76
31911	2023-09-11T09:21:52	21.4	74.5
31912	2023-09-11T09:31:52	21.5	74
31913	2023-09-11T09:41:52	22	73
31914	2023-09-11T09:51:52	22.1	73
31915	2023-09-11T10:01:52	22.6	71
31916	2023-09-11T10:11:52	22.9	70.5
31917	2023-09-11T10:21:52	23.2	71
31918	2023-09-11T10:31:52	23.8	68
31919	2023-09-11T10:41:52	24.1	67
31920	2023-09-11T10:51:51	24.4	67
31921	2023-09-11T11:01:51	24.7	65
31922	2023-09-11T11:11:52	25.4	62
31923	2023-09-11T11:21:51	25.7	62
31924	2023-09-11T11:31:51	26.2	58.5
31925	2023-09-11T11:41:51	26.8	57
31926	2023-09-11T11:51:51	27.4	55
31927	2023-09-11T12:01:51	28.6	50
31928	2023-09-11T12:11:51	33.1	40
31929	2023-09-11T12:21:51	36.3	35
31930	2023-09-11T12:31:51	38.6	30
31931	2023-09-11T12:41:51	40.7	27.5
31932	2023-09-11T12:51:51	41.5	25.5
31933	2023-09-11T13:01:51	42.2	24.5
31934	2023-09-11T13:11:51	43.2	24.5
31935	2023-09-11T13:21:51	44.2	22
31936	2023-09-11T13:31:51	45.3	23
31937	2023-09-11T13:41:51	45.6	20.5
31938	2023-09-11T13:51:51	46.7	18.5
31939	2023-09-11T14:01:51	47.7	19
31940	2023-09-11T14:11:51	48.2	18.5
31941	2023-09-11T14:21:52	48.1	17.5
31942	2023-09-11T14:31:51	47.2	19
31943	2023-09-11T14:41:51	46.9	19
31944	2023-09-11T14:51:51	48.7	18
31945	2023-09-11T15:01:51	49	17.5
31946	2023-09-11T15:11:51	48.4	18
31947	2023-09-11T15:21:51	47.4	19
31948	2023-09-11T15:31:51	47.3	18.5
31949	2023-09-11T15:41:51	47.3	19.5
31950	2023-09-11T15:51:51	46.2	19.5
31951	2023-09-11T16:01:51	45.3	20
31952	2023-09-11T16:11:51	45.1	21.5
31953	2023-09-11T16:21:51	44.2	21.5
31954	2023-09-11T16:31:51	40.1	27
31955	2023-09-11T16:41:51	39.8	29
31956	2023-09-11T16:51:51	37.4	35
31957	2023-09-11T17:01:51	36.2	38.5
31958	2023-09-11T17:11:51	35.1	41.5
31959	2023-09-11T17:21:51	34.4	40.5
31960	2023-09-11T17:31:51	33.3	44.5
31961	2023-09-11T17:41:51	32.6	45.5
31962	2023-09-11T17:51:51	31.7	46
31963	2023-09-11T18:01:51	30.8	50.5
31964	2023-09-11T18:11:51	30.3	52
31965	2023-09-11T18:21:51	29.8	51.5
31966	2023-09-11T18:31:51	29.1	53
31967	2023-09-11T18:41:51	28.9	52
31968	2023-09-11T18:51:51	28.4	53.5
31969	2023-09-11T19:01:51	27.8	55
31970	2023-09-11T19:11:51	27.5	55.5
31971	2023-09-11T19:21:51	27.3	56
31972	2023-09-11T19:31:51	26.8	56.5
31973	2023-09-11T19:41:51	26.8	57
31974	2023-09-11T19:51:51	26.4	57
31975	2023-09-11T20:01:51	26	56
31976	2023-09-11T20:11:51	25.5	59
31977	2023-09-11T20:21:51	25.4	59
31978	2023-09-11T20:31:51	25	60.5
31979	2023-09-11T20:41:51	25	60
31980	2023-09-11T20:51:51	24.7	60.5
31981	2023-09-11T21:01:51	24.5	60.5
31982	2023-09-11T21:11:51	24.3	60.5
31983	2023-09-11T21:21:51	24.2	60.5
31984	2023-09-11T21:31:51	24	61
31985	2023-09-11T21:41:51	23.9	61.5
31986	2023-09-11T21:52:12	23.8	60.5
31987	2023-09-11T22:01:51	23.7	61
31988	2023-09-11T22:11:51	23.4	63
31989	2023-09-11T22:21:51	23.2	64
31990	2023-09-11T22:31:50	22.8	67
31991	2023-09-11T22:41:50	22.4	69.5
31992	2023-09-11T22:51:50	22.3	70.5
31993	2023-09-11T23:01:50	22.1	71
31994	2023-09-11T23:11:50	22	71.5
31995	2023-09-11T23:21:50	21.9	72
31996	2023-09-11T23:31:50	21.9	71.5
31997	2023-09-11T23:41:50	21.6	72.5
31998	2023-09-11T23:51:50	21.3	73.5
31999	2023-09-12T00:01:50	21.2	73.5
32000	2023-09-12T00:11:50	20.9	73.5
32001	2023-09-12T00:21:50	20.9	73
32002	2023-09-12T00:31:50	20.8	74.5
32003	2023-09-12T00:41:50	20.5	75
32004	2023-09-12T00:51:50	20.2	76
32005	2023-09-12T01:01:50	20.3	76
32006	2023-09-12T01:11:50	20.1	77
32007	2023-09-12T01:21:50	20	76.5
32008	2023-09-12T01:31:50	20.1	75.5
32009	2023-09-12T01:41:50	19.7	76.5
32010	2023-09-12T01:51:50	19.7	77
32011	2023-09-12T02:01:50	19.6	77.5
32012	2023-09-12T02:11:50	19.5	78
32013	2023-09-12T02:21:50	19.5	78.5
32014	2023-09-12T02:31:50	19.4	79
32015	2023-09-12T02:41:50	19.4	78
32016	2023-09-12T02:51:50	19.1	79
32017	2023-09-12T03:01:50	19.2	79.5
32018	2023-09-12T03:11:50	19.1	79.5
32019	2023-09-12T03:21:50	19.1	79.5
32020	2023-09-12T03:31:50	19.1	79.5
32021	2023-09-12T03:41:50	19.2	80
32022	2023-09-12T03:51:50	19.1	79.5
32023	2023-09-12T04:01:50	18.9	80.5
32024	2023-09-12T04:12:07	18.9	80.5
32025	2023-09-12T04:21:50	18.8	81
32026	2023-09-12T04:31:50	18.8	81
32027	2023-09-12T04:41:50	19	80
32028	2023-09-12T04:51:50	18.9	81.5
32029	2023-09-12T05:01:50	18.7	82
32030	2023-09-12T05:11:50	18.3	83
32031	2023-09-12T05:21:50	18.4	84
32032	2023-09-12T05:41:50	18.2	84
32033	2023-09-12T05:51:50	18.3	84.5
32034	2023-09-12T06:01:50	18.3	84.5
32035	2023-09-12T06:11:50	18.4	84.5
32036	2023-09-12T06:21:50	18.7	84
32037	2023-09-12T06:31:50	19	83.5
32038	2023-09-12T06:41:50	19.1	83.5
32039	2023-09-12T06:51:50	19.3	83.5
32040	2023-09-12T07:01:50	19.3	83
32041	2023-09-12T07:11:50	19.6	81
32042	2023-09-12T07:21:50	19.9	80
32043	2023-09-12T07:31:50	20.2	79
32044	2023-09-12T07:41:50	20.8	77.5
32045	2023-09-12T07:51:50	21	76.5
32046	2023-09-12T08:01:50	21.3	75.5
32047	2023-09-12T08:11:50	21.5	75
32048	2023-09-12T08:21:50	21.9	74.5
32049	2023-09-12T08:31:50	21.8	75.5
32050	2023-09-12T08:41:50	22.1	73.5
32051	2023-09-12T08:51:50	22.2	72.5
32052	2023-09-12T09:01:49	22.8	73
32053	2023-09-12T09:11:50	23.3	71
32054	2023-09-12T09:21:49	23.8	69
32055	2023-09-12T09:31:49	23.7	70
32056	2023-09-12T09:41:49	23.9	65
32057	2023-09-12T09:51:49	24.4	65.5
32058	2023-09-12T10:01:49	24.8	63
32059	2023-09-12T10:11:49	25.2	62.5
32060	2023-09-12T10:21:49	25.5	59.5
32061	2023-09-12T10:31:49	25.8	60.5
32062	2023-09-12T10:41:49	26.1	59.5
32063	2023-09-12T10:51:49	26.4	59.5
32064	2023-09-12T11:01:49	26.7	58
32065	2023-09-12T11:11:49	26.9	57.5
32066	2023-09-12T11:21:49	27.3	56.5
32067	2023-09-12T11:31:49	27.7	55
32068	2023-09-12T11:41:49	28.3	51.5
32069	2023-09-12T11:51:49	29.1	47.5
32070	2023-09-12T12:01:49	30	44
32071	2023-09-12T12:11:49	33.1	37
32072	2023-09-12T12:21:49	34.5	33.5
32073	2023-09-12T12:31:49	36.4	29.5
32074	2023-09-12T12:41:49	37.1	29
32075	2023-09-12T12:51:49	38.3	27.5
32076	2023-09-12T13:01:49	40.6	25.5
32077	2023-09-12T13:11:49	41.6	23.5
32078	2023-09-12T13:21:49	42.7	22.5
32079	2023-09-12T13:31:49	41	23.5
32080	2023-09-12T13:41:49	37.2	26
32081	2023-09-12T13:51:49	38.4	25.5
32082	2023-09-12T14:01:49	41	24.5
32083	2023-09-12T14:11:49	42.4	21.5
32084	2023-09-12T14:21:49	43.2	20.5
32085	2023-09-12T14:31:49	45	20
32086	2023-09-12T14:41:49	44.7	19
32087	2023-09-12T14:51:49	43.6	20.5
32088	2023-09-12T15:01:49	44.3	19
32089	2023-09-12T15:11:49	43.8	18.5
32090	2023-09-12T15:21:49	44.3	17
32091	2023-09-12T15:31:49	43.6	18
32092	2023-09-12T15:41:49	42.9	18.5
32093	2023-09-12T15:51:49	44.1	19.5
32094	2023-09-12T16:01:49	43.2	20.5
32095	2023-09-12T16:11:49	41	24
32096	2023-09-12T16:21:49	41.3	25.5
32097	2023-09-12T16:31:49	38.3	30
32098	2023-09-12T16:41:49	37.8	30.5
32099	2023-09-12T16:51:49	36.1	31.5
32100	2023-09-12T17:01:49	34.9	35.5
32101	2023-09-12T17:11:49	33.6	40
32102	2023-09-12T17:21:49	32.5	41
32103	2023-09-12T17:31:49	31.2	42.5
32104	2023-09-12T17:41:49	30.6	42.5
32105	2023-09-12T17:51:49	29.5	43
32106	2023-09-12T18:01:49	29	45.5
32107	2023-09-12T18:11:49	28.4	48
32108	2023-09-12T18:21:49	27.7	47
32109	2023-09-12T18:31:49	27.4	46.5
32110	2023-09-12T18:41:49	27.3	47
32111	2023-09-12T18:51:49	27.4	45
32112	2023-09-12T19:01:49	27.4	43.5
32113	2023-09-12T19:11:49	27	44
32114	2023-09-12T19:21:49	26.7	44
32115	2023-09-12T19:31:49	26.5	43.5
32116	2023-09-12T19:41:49	25.9	44.5
32117	2023-09-12T19:51:49	25.6	45
32118	2023-09-12T20:01:48	25.3	45.5
32119	2023-09-12T20:11:48	25	49
32120	2023-09-12T20:21:48	24.5	54
32121	2023-09-12T20:31:48	24.1	56
32122	2023-09-12T20:41:48	24	57
32123	2023-09-12T20:51:48	23.8	58
32124	2023-09-12T21:01:48	23.7	59.5
32125	2023-09-12T21:11:48	23.4	61
32126	2023-09-12T21:21:48	23.2	62
32127	2023-09-12T21:31:48	23	63.5
32128	2023-09-12T21:41:48	22.8	64.5
32129	2023-09-12T21:51:48	22.6	66
32130	2023-09-12T22:01:48	22.7	66.5
32131	2023-09-12T22:11:48	22.5	67
32132	2023-09-12T22:21:48	22.3	68
32133	2023-09-12T22:31:48	22.3	68
32134	2023-09-12T22:41:48	22.2	68.5
32135	2023-09-12T22:51:48	22.1	69
32136	2023-09-12T23:01:48	22	69.5
32137	2023-09-12T23:11:48	21.9	69.5
32138	2023-09-12T23:21:48	21.7	70
32139	2023-09-12T23:31:48	21.6	70.5
32140	2023-09-12T23:41:48	21.6	71
32141	2023-09-12T23:51:48	21.4	71.5
32142	2023-09-13T00:01:48	21.5	71.5
32143	2023-09-13T00:11:48	21.3	72
32144	2023-09-13T00:21:48	21.1	72
32145	2023-09-13T00:31:48	21	72.5
32146	2023-09-13T00:41:48	20.7	73
32147	2023-09-13T00:51:48	20.7	73
32148	2023-09-13T01:01:48	20.7	73.5
32149	2023-09-13T01:11:48	20.6	73.5
32150	2023-09-13T01:21:48	20.6	73.5
32151	2023-09-13T01:31:48	20.4	74
32152	2023-09-13T01:41:48	20.4	74
32153	2023-09-13T01:51:48	20.3	74
32154	2023-09-13T02:01:48	20.3	74
32155	2023-09-13T02:11:48	20.2	74.5
32156	2023-09-13T02:21:48	20	75
32157	2023-09-13T02:31:48	20.2	75
32158	2023-09-13T02:41:48	20.3	75
32159	2023-09-13T02:51:48	20.1	75.5
32160	2023-09-13T03:01:48	20.1	76
32161	2023-09-13T03:11:48	20	76
32162	2023-09-13T03:21:48	20	76
32163	2023-09-13T03:31:48	20	76
32164	2023-09-13T03:41:48	20	76
32165	2023-09-13T03:51:48	20.1	76
32166	2023-09-13T04:01:48	19.9	77
32167	2023-09-13T04:11:48	19.8	77
32168	2023-09-13T04:21:48	19.8	77.5
32169	2023-09-13T04:31:48	19.7	78
32170	2023-09-13T04:41:48	19.6	78.5
32171	2023-09-13T04:51:48	19.6	79.5
32172	2023-09-13T05:01:48	19.4	81
32173	2023-09-13T05:11:48	19.4	81.5
32174	2023-09-13T05:21:48	19.4	83
32175	2023-09-13T05:31:48	19.3	84
32176	2023-09-13T05:41:48	19.1	85.5
32177	2023-09-13T05:51:48	19	86
32178	2023-09-13T06:01:48	19	86
32179	2023-09-13T06:11:48	19.1	86
32180	2023-09-13T06:31:47	19.2	86
32181	2023-09-13T06:41:48	19.1	86.5
32182	2023-09-13T06:51:47	19.4	86
32183	2023-09-13T07:01:47	19.6	85.5
32184	2023-09-13T07:11:47	19.5	84.5
32185	2023-09-13T07:21:47	19.7	84.5
32186	2023-09-13T07:31:47	19.9	84
32187	2023-09-13T07:41:47	20.2	82.5
32188	2023-09-13T07:51:47	20.1	83.5
32189	2023-09-13T08:01:47	20.1	83
32190	2023-09-13T08:11:47	20.4	82.5
32191	2023-09-13T08:21:47	20.4	81.5
32192	2023-09-13T08:31:47	20.7	80.5
32193	2023-09-13T08:41:47	20.8	80
32194	2023-09-13T08:51:47	20.8	80
32195	2023-09-13T09:01:47	21.1	78
32196	2023-09-13T09:11:47	21.4	77
32197	2023-09-13T09:21:47	21.5	75.5
32198	2023-09-13T09:31:47	21.8	75.5
32199	2023-09-13T09:41:47	22.3	72
32200	2023-09-13T09:51:47	22.3	72
32201	2023-09-13T10:01:47	22.5	72.5
32202	2023-09-13T10:11:47	22.5	72
32203	2023-09-13T10:21:47	22.7	72
32204	2023-09-13T10:31:47	23.4	69.5
32205	2023-09-13T10:41:47	23.4	69
32206	2023-09-13T10:51:47	23.6	67.5
32207	2023-09-13T11:01:47	23.5	66.5
32208	2023-09-13T11:11:47	23.4	65.5
32209	2023-09-13T11:21:47	23.5	65.5
32210	2023-09-13T11:31:47	23.8	64
32211	2023-09-13T11:41:47	23.9	64.5
32212	2023-09-13T11:51:47	23.8	64.5
32213	2023-09-13T12:01:47	23.6	66.5
32214	2023-09-13T12:11:47	24	63.5
32215	2023-09-13T12:21:47	24.2	62
32216	2023-09-13T12:31:47	24.7	63
32217	2023-09-13T12:41:47	26.1	60.5
32218	2023-09-13T12:51:47	27.9	53.5
32219	2023-09-13T13:01:47	29.7	48
32220	2023-09-13T13:11:47	27.1	52.5
32221	2023-09-13T13:21:47	26.8	53.5
32222	2023-09-13T13:31:47	28.5	50
32223	2023-09-13T13:41:47	30.2	44
32224	2023-09-13T13:51:47	29.1	49
32225	2023-09-13T14:01:47	33	40
32226	2023-09-13T14:11:47	32.3	39
32227	2023-09-13T14:21:47	31.3	40
32228	2023-09-13T14:31:47	33.4	34.5
32229	2023-09-13T14:41:47	35	32
32230	2023-09-13T14:51:47	31.1	39
32231	2023-09-13T15:01:47	28.8	44
32232	2023-09-13T15:11:47	32.4	38
32233	2023-09-13T15:21:47	33.5	34.5
32234	2023-09-13T15:31:47	34	34
32235	2023-09-13T15:41:47	33.8	33.5
32236	2023-09-13T15:51:47	31.6	37.5
32237	2023-09-13T16:01:47	28.4	41
32238	2023-09-13T16:11:47	27.3	44
32239	2023-09-13T16:21:47	26.7	45
32240	2023-09-13T16:31:47	25.8	47
32241	2023-09-13T16:41:46	25.6	48.5
32242	2023-09-13T16:51:46	25.3	50
32243	2023-09-13T17:01:46	25.2	51.5
32244	2023-09-13T17:11:46	24.7	53.5
32245	2023-09-13T17:21:46	25.3	53.5
32246	2023-09-13T17:31:46	24.7	56
32247	2023-09-13T17:41:46	24.3	57
32248	2023-09-13T17:51:46	24.1	58
32249	2023-09-13T18:01:46	23.6	59
32250	2023-09-13T18:11:46	23.5	60.5
32251	2023-09-13T18:21:46	23.1	61.5
32252	2023-09-13T18:31:46	22.9	62
32253	2023-09-13T18:41:46	22.6	62.5
32254	2023-09-13T18:51:46	22.5	64
32255	2023-09-13T19:01:46	22.1	65
32256	2023-09-13T19:11:46	22	65.5
32257	2023-09-13T19:21:46	21.8	66
32258	2023-09-13T19:31:46	21.5	67
32259	2023-09-13T19:41:46	21.1	67.5
32260	2023-09-13T19:51:46	20.9	68
32261	2023-09-13T20:01:46	20.7	68.5
32262	2023-09-13T20:11:46	20.7	69
32263	2023-09-13T20:21:46	20.5	69
32264	2023-09-13T20:31:46	20.5	69
32265	2023-09-13T20:41:46	20.5	70
32266	2023-09-13T20:51:46	20.6	70
32267	2023-09-13T21:01:46	20.5	69
32268	2023-09-13T21:11:46	20.2	70.5
32269	2023-09-13T21:21:46	19.9	71.5
32270	2023-09-13T21:31:46	19.7	73
32271	2023-09-13T21:41:46	19.6	73.5
32272	2023-09-13T21:51:46	19.3	74.5
32273	2023-09-13T22:01:46	19	76
32274	2023-09-13T22:11:46	19	75
32275	2023-09-13T22:21:46	18.9	75
32276	2023-09-13T22:31:46	18.7	76
32277	2023-09-13T22:41:46	19	75.5
32278	2023-09-13T22:51:46	18.8	75.5
32279	2023-09-13T23:01:46	19.1	75.5
32280	2023-09-13T23:11:46	19	76
32281	2023-09-13T23:21:46	19	76
32282	2023-09-13T23:31:46	19.1	76
32283	2023-09-13T23:41:46	18.9	77
32284	2023-09-13T23:51:46	18.3	79
32285	2023-09-14T00:01:46	18.2	79.5
32286	2023-09-14T00:11:46	18.4	78.5
32287	2023-09-14T00:21:46	18.4	79
32288	2023-09-14T00:31:46	18.4	78.5
32289	2023-09-14T00:41:46	18.6	77.5
32290	2023-09-14T00:51:46	18.5	77.5
32291	2023-09-14T01:01:46	18.6	76.5
32292	2023-09-14T01:11:46	18.7	76.5
32293	2023-09-14T01:21:46	18.6	76.5
32294	2023-09-14T01:31:46	18.6	77
32295	2023-09-14T01:41:46	18.5	77
32296	2023-09-14T01:51:46	18.5	76
32297	2023-09-14T02:01:46	18.4	76
32298	2023-09-14T02:11:46	18.4	75.5
32299	2023-09-14T02:21:46	18.2	76.5
32300	2023-09-14T02:31:46	18.2	76.5
32301	2023-09-14T02:41:46	18.2	76
32302	2023-09-14T02:51:46	18.1	76
32303	2023-09-14T03:01:46	17.6	77
32304	2023-09-14T03:11:46	17.4	77
32305	2023-09-14T03:21:46	17.4	76
32306	2023-09-14T03:31:45	17.4	73
32307	2023-09-14T03:41:45	17.2	74
32308	2023-09-14T03:51:45	17	74
32309	2023-09-14T04:01:45	16.9	74
32310	2023-09-14T04:11:45	16.7	74.5
32311	2023-09-14T04:21:45	16.3	74.5
32312	2023-09-14T04:31:45	16	75.5
32313	2023-09-14T04:41:45	15.8	76.5
32314	2023-09-14T04:51:46	15.7	77
32315	2023-09-14T05:01:45	15.5	77.5
32316	2023-09-14T05:11:45	15.4	77.5
32317	2023-09-14T05:21:45	15.4	77
32318	2023-09-14T05:31:45	15.3	76
32319	2023-09-14T05:41:45	15.4	76
32320	2023-09-14T05:51:45	15.4	76.5
32321	2023-09-14T06:01:45	15.8	75
32322	2023-09-14T06:11:45	15.9	74
32323	2023-09-14T06:21:45	16	74
32324	2023-09-14T06:31:45	16.2	73.5
32325	2023-09-14T06:41:45	16.3	72
32326	2023-09-14T06:51:45	16.3	71
32327	2023-09-14T07:01:45	16.7	70.5
32328	2023-09-14T07:11:45	16.8	70.5
32329	2023-09-14T07:21:45	17	70.5
32330	2023-09-14T07:31:45	17.2	69.5
32331	2023-09-14T07:41:45	17	71
32332	2023-09-14T07:51:45	16.8	71.5
32333	2023-09-14T08:01:45	16.8	72.5
32334	2023-09-14T08:11:45	16.8	72
32335	2023-09-14T08:21:45	16.9	73.5
32336	2023-09-14T08:31:45	17	73.5
32337	2023-09-14T08:41:45	17.2	73
32338	2023-09-14T08:51:45	17.4	73.5
32339	2023-09-14T09:01:45	17.5	73
32340	2023-09-14T09:11:45	17.8	72
32341	2023-09-14T09:21:45	18	71
32342	2023-09-14T09:31:45	18.2	71
32343	2023-09-14T09:41:45	18.5	71
32344	2023-09-14T09:51:45	18.9	70
32345	2023-09-14T10:01:45	19.8	67
32346	2023-09-14T10:11:45	20.6	64.5
32347	2023-09-14T10:21:45	20.8	63.5
32348	2023-09-14T10:31:45	20.8	62.5
32349	2023-09-14T10:41:45	21	61.5
32350	2023-09-14T10:51:45	21.1	59.5
32351	2023-09-14T11:01:45	21.3	60.5
32352	2023-09-14T11:11:45	21.3	59.5
32353	2023-09-14T11:21:45	21.3	59
32354	2023-09-14T11:31:45	21.4	59
32355	2023-09-14T11:41:45	21.8	57.5
32356	2023-09-14T11:51:45	22.4	57
32357	2023-09-14T12:01:45	23.9	53.5
32358	2023-09-14T12:11:45	28.8	39.5
32359	2023-09-14T12:21:45	31.8	35
32360	2023-09-14T12:31:45	34.2	31
32361	2023-09-14T12:41:45	35.8	28
32362	2023-09-14T12:51:45	36.6	27
32363	2023-09-14T13:01:45	37.2	25.5
32364	2023-09-14T13:11:45	39.1	24.5
32365	2023-09-14T13:21:45	39.3	24
32366	2023-09-14T13:31:45	40.4	22
32367	2023-09-14T13:41:45	40.6	22
32368	2023-09-14T13:51:45	41.3	21.5
32369	2023-09-14T14:01:45	41.3	21.5
32370	2023-09-14T14:11:45	42.5	20.5
32371	2023-09-14T14:21:44	43	19.5
32372	2023-09-14T14:31:45	42.8	19
32373	2023-09-14T14:41:44	42.4	18.5
32374	2023-09-14T14:51:44	41.6	19.5
32375	2023-09-14T15:01:44	41.6	19
32376	2023-09-14T15:11:44	41.5	19
32377	2023-09-14T15:21:44	40.7	20
32378	2023-09-14T15:31:44	41.6	19.5
32379	2023-09-14T15:41:44	41.8	19
32380	2023-09-14T15:51:44	41	19.5
32381	2023-09-14T16:01:44	40.1	20.5
32382	2023-09-14T16:11:44	39	21.5
32383	2023-09-14T16:21:44	35.9	25
32384	2023-09-14T16:31:44	33.2	28
32385	2023-09-14T16:41:44	32.4	28.5
32386	2023-09-14T16:51:44	29.9	32
32387	2023-09-14T17:01:44	28.9	33.5
32388	2023-09-14T17:11:44	27.2	36.5
32389	2023-09-14T17:21:44	26.5	37.5
32390	2023-09-14T17:31:44	25.5	39
32391	2023-09-14T17:41:44	25.3	41.5
32392	2023-09-14T17:51:44	24.6	43.5
32393	2023-09-14T18:01:44	24.1	46.5
32394	2023-09-14T18:11:44	23.6	47.5
32395	2023-09-14T18:21:44	23.1	48.5
32396	2023-09-14T18:31:44	22.7	50
32397	2023-09-14T18:41:44	22.3	50.5
32398	2023-09-14T18:51:44	21.9	51.5
32399	2023-09-14T19:01:44	21.3	53
32400	2023-09-14T19:11:44	20.8	55.5
32401	2023-09-14T19:21:44	20.4	56.5
32402	2023-09-14T19:31:44	20.3	56.5
32403	2023-09-14T19:41:44	20	58
32404	2023-09-14T19:51:44	19.4	60
32405	2023-09-14T20:01:44	19.3	60
32406	2023-09-14T20:11:44	19	61
32407	2023-09-14T20:21:44	18.8	62
32408	2023-09-14T20:31:44	18.6	63
32409	2023-09-14T20:41:44	18.3	64
32410	2023-09-14T20:51:44	18.2	64.5
32411	2023-09-14T21:01:44	17.9	65
32412	2023-09-14T21:11:44	17.9	65.5
32413	2023-09-14T21:21:44	17.5	67
32414	2023-09-14T21:31:44	17.4	67.5
32415	2023-09-14T21:41:44	17.1	68
32416	2023-09-14T21:51:44	16.8	68.5
32417	2023-09-14T22:01:44	16.6	69.5
32418	2023-09-14T22:11:44	16.4	70
32419	2023-09-14T22:21:44	16.1	71
32420	2023-09-14T22:31:44	15.9	72
32421	2023-09-14T22:41:44	15.7	72.5
32422	2023-09-14T22:51:44	15.6	73
32423	2023-09-14T23:01:44	15.3	74
32424	2023-09-14T23:11:44	15.4	74
32425	2023-09-14T23:21:44	15.2	74.5
32426	2023-09-14T23:31:44	15	75.5
32427	2023-09-14T23:41:44	14.9	76
32428	2023-09-14T23:51:44	14.7	76.5
32429	2023-09-15T00:01:44	14.6	77
32430	2023-09-15T00:11:44	14.4	77.5
32431	2023-09-15T00:21:44	14.2	77.5
32432	2023-09-15T00:31:44	14.2	78.5
32433	2023-09-15T00:41:44	14.1	78.5
32434	2023-09-15T00:51:44	14	79
32435	2023-09-15T01:01:44	14	79
32436	2023-09-15T01:11:44	13.8	79
32437	2023-09-15T01:21:44	13.8	79.5
32438	2023-09-15T01:31:44	13.6	80
32439	2023-09-15T01:41:43	13.6	80
32440	2023-09-15T01:51:43	13.3	80
32441	2023-09-15T02:01:43	13.3	81
32442	2023-09-15T02:11:43	13.1	81.5
32443	2023-09-15T02:21:43	13	81.5
32444	2023-09-15T02:31:43	13	82
32445	2023-09-15T02:41:43	12.9	82
32446	2023-09-15T02:51:43	12.9	81.5
32447	2023-09-15T03:01:43	12.9	82.5
32448	2023-09-15T03:11:43	12.8	82.5
32449	2023-09-15T03:21:43	12.7	83
32450	2023-09-15T03:31:43	12.7	83
32451	2023-09-15T03:41:43	12.6	83
32452	2023-09-15T03:51:43	12.5	83
32453	2023-09-15T04:01:43	12.4	84
32454	2023-09-15T04:11:43	12.4	84
32455	2023-09-15T04:21:43	12.2	84.5
32456	2023-09-15T04:31:43	12.2	84.5
32457	2023-09-15T04:41:43	12.1	85.5
32458	2023-09-15T04:51:43	12.1	86
32459	2023-09-15T05:01:43	12	86.5
32460	2023-09-15T05:11:43	11.9	86.5
32461	2023-09-15T05:21:43	11.9	87
32462	2023-09-15T05:31:43	11.9	87
32463	2023-09-15T05:41:43	12	87
32464	2023-09-15T05:51:43	12.1	86
32465	2023-09-15T06:01:43	12.2	86
32466	2023-09-15T06:11:43	12.4	85.5
32467	2023-09-15T06:21:43	12.7	85
32468	2023-09-15T06:31:43	12.8	85
32469	2023-09-15T06:41:43	13	84.5
32470	2023-09-15T06:51:43	13.1	84
32471	2023-09-15T07:01:43	13.4	84
32472	2023-09-15T07:11:43	13.8	83.5
32473	2023-09-15T07:21:43	14	82.5
32474	2023-09-15T07:31:43	14.2	83.5
32475	2023-09-15T07:41:43	14.5	82.5
32476	2023-09-15T07:51:43	14.8	81.5
32477	2023-09-15T08:01:43	15	83
32478	2023-09-15T08:11:43	15.4	81
32479	2023-09-15T08:21:43	15.7	81.5
32480	2023-09-15T08:31:43	16.1	81
32481	2023-09-15T08:41:43	16.3	79.5
32482	2023-09-15T08:51:43	16.7	78.5
32483	2023-09-15T09:01:43	17	78.5
32484	2023-09-15T09:11:43	17.6	79
32485	2023-09-15T09:21:43	18	77
32486	2023-09-15T09:31:43	18.3	76.5
32487	2023-09-15T09:41:43	18.8	75.5
32488	2023-09-15T09:51:43	19.2	75
32489	2023-09-15T10:01:43	19.4	74
32490	2023-09-15T10:11:43	19.9	73
32491	2023-09-15T10:21:43	20.3	71.5
32492	2023-09-15T10:31:43	20.6	69
32493	2023-09-15T10:41:43	20.9	69
32494	2023-09-15T10:51:43	21.5	67
32495	2023-09-15T11:01:43	21.8	66.5
32496	2023-09-15T11:11:43	22.2	65
32497	2023-09-15T11:21:43	22.6	62.5
32498	2023-09-15T11:31:43	23.2	61
32499	2023-09-15T11:41:43	23.8	60
32500	2023-09-15T11:51:43	24.7	56
32501	2023-09-15T12:01:43	26.2	52
32502	2023-09-15T12:11:43	28.2	46
32503	2023-09-15T12:21:43	30.2	41.5
32504	2023-09-15T12:31:43	32.9	36
32505	2023-09-15T12:41:43	35.7	30.5
32506	2023-09-15T12:51:43	37.5	29
32507	2023-09-15T13:01:43	37.2	29
32508	2023-09-15T13:11:43	37.2	29
32509	2023-09-15T13:21:43	37.7	29
32510	2023-09-15T13:31:43	39.5	26.5
32511	2023-09-15T13:41:43	40.7	25
32512	2023-09-15T13:51:43	41.4	24.5
32513	2023-09-15T14:01:43	42.6	23
32514	2023-09-15T14:11:42	41.3	24.5
32515	2023-09-15T14:21:43	42.4	22.5
32516	2023-09-15T14:31:42	42.9	22.5
32517	2023-09-15T14:41:43	43	22.5
32518	2023-09-15T14:51:42	43.3	22
32519	2023-09-15T15:01:42	41.7	23.5
32520	2023-09-15T15:11:42	41.8	23.5
32521	2023-09-15T15:21:42	42.1	24
32522	2023-09-15T15:31:42	43	22.5
32523	2023-09-15T15:41:42	42.3	23.5
32524	2023-09-15T15:51:42	42.2	23
32525	2023-09-15T16:01:42	42.1	24
32526	2023-09-15T16:11:42	41	23.5
32527	2023-09-15T16:21:42	36.1	29.5
32528	2023-09-15T16:31:42	34.1	33
32529	2023-09-15T16:41:42	33.1	34
32530	2023-09-15T16:51:43	32.3	37
32531	2023-09-15T17:01:42	31.8	38.5
32532	2023-09-15T17:11:42	30.6	40
32533	2023-09-15T17:21:42	29.6	41.5
32534	2023-09-15T17:31:42	28.7	43
32535	2023-09-15T17:41:42	28.1	45.5
32536	2023-09-15T17:51:42	27.5	46.5
32537	2023-09-15T18:01:42	27	46
32538	2023-09-15T18:11:42	26.5	46.5
32539	2023-09-15T18:21:42	26.2	47
32540	2023-09-15T18:31:42	25.8	48
32541	2023-09-15T18:41:42	25.4	49
32542	2023-09-15T18:51:42	25.2	50
32543	2023-09-15T19:01:42	24.8	52
32544	2023-09-15T19:11:42	24.6	53
32545	2023-09-15T19:21:42	24.3	54
32546	2023-09-15T19:31:42	24	55
32547	2023-09-15T19:41:42	23.6	56.5
32548	2023-09-15T19:51:42	23.4	57
32549	2023-09-15T20:01:42	23.2	58
32550	2023-09-15T20:11:42	23	59
32551	2023-09-15T20:21:42	22.7	60
32552	2023-09-15T20:31:42	22.4	61.5
32553	2023-09-15T20:41:42	22.2	62
32554	2023-09-15T20:51:42	22.2	62
32555	2023-09-15T21:01:42	22	62.5
32556	2023-09-15T21:11:42	21.6	64.5
32557	2023-09-15T21:21:42	21.2	66
32558	2023-09-15T21:31:42	21.1	66.5
32559	2023-09-15T21:41:42	20.8	67
32560	2023-09-15T21:51:42	20.7	68
32561	2023-09-15T22:01:42	20.5	67.5
32562	2023-09-15T22:11:42	20.5	68.5
32563	2023-09-15T22:21:42	20.4	68.5
32564	2023-09-15T22:31:42	20.1	69.5
32565	2023-09-15T22:41:42	19.9	70.5
32566	2023-09-15T22:51:42	19.5	71.5
32567	2023-09-15T23:01:42	19.5	72.5
32568	2023-09-15T23:11:42	19.2	73
32569	2023-09-15T23:21:42	18.9	74
32570	2023-09-15T23:31:42	18.9	74
32571	2023-09-15T23:41:42	18.8	74
32572	2023-09-15T23:51:42	18.6	74
32573	2023-09-16T00:01:42	18.4	74
32574	2023-09-16T00:11:42	18.1	75.5
32575	2023-09-16T00:21:42	17.9	75.5
32576	2023-09-16T00:31:41	17.8	76.5
32577	2023-09-16T00:41:42	17.7	77.5
32578	2023-09-16T00:51:41	17.6	77.5
32579	2023-09-16T01:01:41	17.5	78
32580	2023-09-16T01:11:42	17.3	78.5
32581	2023-09-16T01:21:41	17.2	78.5
32582	2023-09-16T01:31:41	17	78.5
32583	2023-09-16T01:41:41	17	79
32584	2023-09-16T01:51:41	16.9	79
32585	2023-09-16T02:01:41	16.8	79.5
32586	2023-09-16T02:11:41	16.7	80
32587	2023-09-16T02:21:41	16.4	81
32588	2023-09-16T02:31:41	16.3	81.5
32589	2023-09-16T02:41:41	16.2	81.5
32590	2023-09-16T02:51:41	16.1	81.5
32591	2023-09-16T03:01:41	15.9	81.5
32592	2023-09-16T03:11:41	15.9	81
32593	2023-09-16T03:21:41	15.7	82.5
32594	2023-09-16T03:31:41	15.8	83
32595	2023-09-16T03:41:41	15.6	84
32596	2023-09-16T03:51:41	15.4	85
32597	2023-09-16T04:01:41	15.4	85
32598	2023-09-16T04:11:41	15.3	84
32599	2023-09-16T04:21:41	15.3	84
32600	2023-09-16T04:31:41	15.1	83.5
32601	2023-09-16T04:41:41	15	83.5
32602	2023-09-16T04:51:41	14.9	83.5
32603	2023-09-16T05:01:41	14.9	85
32604	2023-09-16T05:11:41	14.8	83.5
32605	2023-09-16T05:21:41	14.9	84.5
32606	2023-09-16T05:31:41	14.9	84.5
32607	2023-09-16T05:41:41	15	83.5
32608	2023-09-16T05:51:41	15	83
32609	2023-09-16T06:01:41	15.2	84
32610	2023-09-16T06:11:41	15.3	84.5
32611	2023-09-16T06:21:41	15.3	85.5
32612	2023-09-16T06:31:41	15.5	85.5
32613	2023-09-16T06:41:41	15.7	86
32614	2023-09-16T06:51:41	15.9	87
32615	2023-09-16T07:01:41	16.1	87.5
32616	2023-09-16T07:11:41	16.4	87.5
32617	2023-09-16T07:21:41	16.5	88
32618	2023-09-16T07:31:41	16.8	87
32619	2023-09-16T07:41:41	17.3	87
32620	2023-09-16T07:51:41	17.2	87
32621	2023-09-16T08:01:41	17.5	86
32622	2023-09-16T08:11:41	17.8	85
32623	2023-09-16T08:21:41	18	84
32624	2023-09-16T08:31:41	18.2	84.5
32625	2023-09-16T08:41:41	18.6	83
32626	2023-09-16T08:51:41	18.8	81.5
32627	2023-09-16T09:01:41	19.3	78
32628	2023-09-16T09:11:41	19.7	79
32629	2023-09-16T09:21:41	19.8	76.5
32630	2023-09-16T09:31:41	20.3	76.5
32631	2023-09-16T09:41:41	20.4	75
32632	2023-09-16T09:51:41	20.8	74.5
32633	2023-09-16T10:01:41	21.1	73.5
32634	2023-09-16T10:11:41	21.6	71.5
32635	2023-09-16T10:21:41	22	69.5
32636	2023-09-16T10:31:41	22.7	68
32637	2023-09-16T10:41:41	23.6	66
32638	2023-09-16T10:51:41	24.9	60.5
32639	2023-09-16T11:01:41	26.1	56.5
32640	2023-09-16T11:11:41	26.5	57
32641	2023-09-16T11:21:41	26.2	56
32642	2023-09-16T11:31:41	26.6	56.5
32643	2023-09-16T11:41:41	27.5	53
32644	2023-09-16T11:51:41	28	51
32645	2023-09-16T12:01:40	28.5	47
32646	2023-09-16T12:11:40	30.8	43.5
32647	2023-09-16T12:21:40	33.2	37.5
32648	2023-09-16T12:31:40	30.8	43
32649	2023-09-16T12:41:40	30.4	45
32650	2023-09-16T12:51:40	31.8	42.5
32651	2023-09-16T13:01:40	36.8	33.5
32652	2023-09-16T13:11:40	36.6	32.5
32653	2023-09-16T13:21:40	39.3	29.5
32654	2023-09-16T13:31:40	41.1	27
32655	2023-09-16T13:41:40	36.1	32
32656	2023-09-16T13:51:40	33.3	37
32657	2023-09-16T14:01:40	31.8	39.5
32658	2023-09-16T14:11:40	31.3	41.5
32659	2023-09-16T14:21:40	31.9	41
32660	2023-09-16T14:31:40	33.5	37.5
32661	2023-09-16T14:41:40	36.4	33.5
32662	2023-09-16T14:51:40	32.4	38.5
32663	2023-09-16T15:01:40	31.1	42
32664	2023-09-16T15:11:40	30.8	42
32665	2023-09-16T15:21:40	30.3	45.5
32666	2023-09-16T15:31:40	29.8	46.5
32667	2023-09-16T15:41:40	29.2	48
32668	2023-09-16T15:51:40	28.9	49
32669	2023-09-16T16:01:40	28.7	50
32670	2023-09-16T16:11:40	28.1	52
32671	2023-09-16T16:21:40	28.2	53
32672	2023-09-16T16:31:40	27.8	56
32673	2023-09-16T16:41:40	27.6	57
32674	2023-09-16T16:51:40	27.3	58.5
32675	2023-09-16T17:01:40	27.1	59
32676	2023-09-16T17:11:40	26.6	60
32677	2023-09-16T17:21:40	25.9	61.5
32678	2023-09-16T17:31:40	25.3	63
32679	2023-09-16T17:41:40	25.4	66
32680	2023-09-16T17:51:40	25.3	70
32681	2023-09-16T18:01:40	25	70
32682	2023-09-16T18:11:40	24.8	70
32683	2023-09-16T18:21:40	24.5	69
32684	2023-09-16T18:31:40	24.1	69.5
32685	2023-09-16T18:41:40	23.8	70
32686	2023-09-16T18:51:40	23.5	72
32687	2023-09-16T19:01:40	23.6	71.5
32688	2023-09-16T19:11:40	23.5	72
32689	2023-09-16T19:21:40	23.5	72
32690	2023-09-16T19:31:40	23.5	72.5
32691	2023-09-16T19:41:40	23.4	73
32692	2023-09-16T19:51:40	23.1	73.5
32693	2023-09-16T20:01:40	22.9	74
32694	2023-09-16T20:11:40	22.6	75.5
32695	2023-09-16T20:21:40	22.4	76
32696	2023-09-16T20:31:40	22.4	75.5
32697	2023-09-16T20:41:40	22.1	76
32698	2023-09-16T20:51:40	21.7	77.5
32699	2023-09-16T21:01:40	21.5	77.5
32700	2023-09-16T21:11:40	21.4	78.5
32701	2023-09-16T21:21:40	21.2	79
32702	2023-09-16T21:31:40	21.2	79
32703	2023-09-16T21:41:40	21	78
32704	2023-09-16T21:51:40	20.7	78.5
32705	2023-09-16T22:01:40	20.5	79.5
32706	2023-09-16T22:11:40	20.3	80
32707	2023-09-16T22:21:39	20.3	81
32708	2023-09-16T22:31:39	20	81
32709	2023-09-16T22:41:39	19.8	81.5
32710	2023-09-16T22:51:39	19.8	81.5
32711	2023-09-16T23:01:39	19.4	80.5
32712	2023-09-16T23:11:39	19.2	83
32713	2023-09-16T23:21:39	19.2	82.5
32714	2023-09-16T23:31:39	19.1	82.5
32715	2023-09-16T23:41:39	19	83
32716	2023-09-16T23:51:39	18.9	83
32717	2023-09-17T00:01:39	18.8	83.5
32718	2023-09-17T00:11:39	18.7	83.5
32719	2023-09-17T00:21:39	18.5	84
32720	2023-09-17T00:31:39	18.5	84
32721	2023-09-17T00:41:39	18.3	83.5
32722	2023-09-17T00:51:39	18.3	84.5
32723	2023-09-17T01:01:39	18.5	83
32724	2023-09-17T01:11:39	18.3	84
32725	2023-09-17T01:21:39	18.4	83.5
32726	2023-09-17T01:31:39	18.4	84
32727	2023-09-17T01:41:39	18.5	84
32728	2023-09-17T01:51:39	18.4	84
32729	2023-09-17T02:01:39	18.4	85
32730	2023-09-17T02:11:39	18.1	85
32731	2023-09-17T02:21:39	17.8	86
32732	2023-09-17T02:31:39	17.7	87
32733	2023-09-17T02:41:39	17.5	87.5
32734	2023-09-17T02:51:39	17.6	88
32735	2023-09-17T03:01:39	17.4	88
32736	2023-09-17T03:11:39	17.4	88
32737	2023-09-17T03:21:39	17.4	88.5
32738	2023-09-17T03:31:39	17.3	88.5
32739	2023-09-17T03:41:39	17.2	88
32740	2023-09-17T03:51:39	17.3	88
32741	2023-09-17T04:01:39	17.2	88.5
32742	2023-09-17T04:11:39	17.1	89
32743	2023-09-17T04:21:39	17.1	89.5
32744	2023-09-17T04:31:39	17	88
32745	2023-09-17T04:41:39	16.8	88.5
32746	2023-09-17T04:51:39	16.9	89
32747	2023-09-17T05:01:39	16.8	89.5
32748	2023-09-17T05:11:39	16.6	89.5
32749	2023-09-17T05:21:39	16.6	90.5
32750	2023-09-17T05:31:39	16.8	90.5
32751	2023-09-17T05:41:39	16.7	90.5
32752	2023-09-17T05:51:39	16.8	90
32753	2023-09-17T06:01:39	16.8	90
32754	2023-09-17T06:11:39	16.9	89.5
32755	2023-09-17T06:21:39	17.4	89.5
32756	2023-09-17T06:31:39	17.8	88.5
32757	2023-09-17T06:41:39	18	87.5
32758	2023-09-17T06:51:39	18.5	86.5
32759	2023-09-17T07:01:39	18.7	84.5
32760	2023-09-17T07:11:39	18.9	84.5
32761	2023-09-17T07:21:39	19.1	83.5
32762	2023-09-17T07:31:39	19.4	84
32763	2023-09-17T07:41:39	19.6	85.5
32764	2023-09-17T07:51:39	19.8	84.5
32765	2023-09-17T08:01:39	19.9	84.5
32766	2023-09-17T08:11:39	20.1	83.5
32767	2023-09-17T08:21:39	20.5	82
32768	2023-09-17T08:31:39	20.6	80.5
32769	2023-09-17T08:41:39	20.7	80
32770	2023-09-17T08:51:39	21.1	78.5
32771	2023-09-17T09:01:39	21.6	77
32772	2023-09-17T09:11:39	21.8	76
32773	2023-09-17T09:21:38	22.2	75.5
32774	2023-09-17T09:31:38	22.7	72
32775	2023-09-17T09:41:38	23.1	71
32776	2023-09-17T09:51:38	23.7	68.5
32777	2023-09-17T10:01:38	24.2	68
32778	2023-09-17T10:11:38	24.6	67
32779	2023-09-17T10:21:38	25.2	64
32780	2023-09-17T10:31:38	25.6	60
32781	2023-09-17T10:41:38	26.2	59
32782	2023-09-17T11:01:38	26.9	57
32783	2023-09-17T11:11:38	27.5	52
32784	2023-09-17T11:21:38	28	52.5
32785	2023-09-17T11:31:38	28.8	50
32786	2023-09-17T11:41:38	29.1	48.5
32787	2023-09-17T11:51:38	29.3	47.5
32788	2023-09-17T12:01:38	30.4	43.5
32789	2023-09-17T12:11:38	32.1	41.5
32790	2023-09-17T12:21:38	33.6	37
32791	2023-09-17T12:31:38	34.2	36
32792	2023-09-17T12:41:38	35.2	34.5
32793	2023-09-17T12:51:38	39.4	29
32794	2023-09-17T13:01:38	38.7	30
32795	2023-09-17T13:11:38	39.7	29
32796	2023-09-17T13:21:38	42.7	25.5
32797	2023-09-17T13:31:38	42.3	25.5
32798	2023-09-17T13:41:38	43.5	24
32799	2023-09-17T13:51:38	44	24
32800	2023-09-17T14:01:38	45.5	23
32801	2023-09-17T14:11:38	43.8	23.5
32802	2023-09-17T14:21:38	44.9	22.5
32803	2023-09-17T14:31:38	44.3	23.5
32804	2023-09-17T14:41:38	42.8	25
32805	2023-09-17T14:51:38	40.3	26.5
32806	2023-09-17T15:01:38	40.7	27.5
32807	2023-09-17T15:11:38	40.2	28
32808	2023-09-17T15:21:38	38	31
32809	2023-09-17T15:31:38	38.2	31
32810	2023-09-17T15:41:38	37.6	33
32811	2023-09-17T15:51:38	37.6	33
32812	2023-09-17T16:01:38	38.5	31
32813	2023-09-17T16:11:38	37.3	33.5
32814	2023-09-17T16:21:38	35.7	35.5
32815	2023-09-17T16:31:38	34.2	38.5
32816	2023-09-17T16:41:38	33.5	40.5
32817	2023-09-17T16:51:38	33	43
32818	2023-09-17T17:01:38	32.4	45.5
32819	2023-09-17T17:11:38	31.5	49.5
32820	2023-09-17T17:21:38	30.7	51.5
32821	2023-09-17T17:31:38	29.6	53
32822	2023-09-17T17:41:38	29.3	55
32823	2023-09-17T17:51:38	29.1	56.5
32824	2023-09-17T18:01:38	28.7	57.5
32825	2023-09-17T18:11:38	28.1	57.5
32826	2023-09-17T18:21:38	27.7	58.5
32827	2023-09-17T18:31:38	27.3	59.5
32828	2023-09-17T18:41:38	26.9	60.5
32829	2023-09-17T18:51:38	26.6	61
32830	2023-09-17T19:01:38	26.2	62
32831	2023-09-17T19:11:38	25.8	63
32832	2023-09-17T19:21:38	25.6	63.5
32833	2023-09-17T19:31:38	25.5	62.5
32834	2023-09-17T19:41:38	25.1	64.5
32835	2023-09-17T19:51:38	24.8	65
32836	2023-09-17T20:01:38	24.5	65.5
32837	2023-09-17T20:11:37	24.1	67
32838	2023-09-17T20:21:37	23.9	67.5
32839	2023-09-17T20:31:37	23.6	68
32840	2023-09-17T20:41:37	23.4	68
32841	2023-09-17T20:51:37	23.3	68
32842	2023-09-17T21:01:37	23.1	68
32843	2023-09-17T21:11:37	22.7	68.5
32844	2023-09-17T21:21:37	22.5	69.5
32845	2023-09-17T21:31:37	22.4	69.5
32846	2023-09-17T21:41:37	22.2	69.5
32847	2023-09-17T21:51:37	21.9	72.5
32848	2023-09-17T22:01:37	21.7	72.5
32849	2023-09-17T22:11:37	21.5	73
32850	2023-09-17T22:21:37	21.5	73.5
32851	2023-09-17T22:31:37	21.3	74
32852	2023-09-17T22:41:37	21.2	74.5
32853	2023-09-17T22:51:37	21.1	74.5
32854	2023-09-17T23:01:37	20.8	75
32855	2023-09-17T23:11:37	20.9	75
32856	2023-09-17T23:21:37	20.7	76.5
32857	2023-09-17T23:31:37	20.6	76
32858	2023-09-17T23:41:37	20.6	75.5
32859	2023-09-17T23:51:37	20.6	76
32860	2023-09-18T00:01:37	20.4	77
32861	2023-09-18T00:11:37	20.4	77
32862	2023-09-18T00:21:37	20.6	76
32863	2023-09-18T00:31:37	20.5	77
32864	2023-09-18T00:41:37	20.4	76.5
32865	2023-09-18T00:51:37	20.2	77
32866	2023-09-18T01:01:37	20.3	77
32867	2023-09-18T01:11:37	20.2	77.5
32868	2023-09-18T01:21:37	20	85
32869	2023-09-18T01:31:37	20.2	82.5
32870	2023-09-18T01:41:37	20.5	76.5
32871	2023-09-18T01:51:37	20.4	77
32872	2023-09-18T02:01:37	20.7	75
32873	2023-09-18T02:11:37	20.9	75
32874	2023-09-18T02:21:37	20.8	74.5
32875	2023-09-18T02:31:37	20.6	76
32876	2023-09-18T02:41:37	20.6	75
32877	2023-09-18T02:51:37	19.8	86.5
32878	2023-09-18T03:01:37	20	80
32879	2023-09-18T03:11:37	20.3	79
32880	2023-09-18T03:21:37	20.3	78.5
32881	2023-09-18T03:31:37	20.6	76.5
32882	2023-09-18T03:41:37	20.8	76.5
32883	2023-09-18T03:51:37	18.8	93.5
32884	2023-09-18T04:01:37	18.6	95
32885	2023-09-18T04:11:37	18.7	96.5
32886	2023-09-18T04:21:37	18.8	96.5
32887	2023-09-18T04:31:37	18.7	96.5
32888	2023-09-18T04:41:37	18.4	96.5
32889	2023-09-18T04:51:37	18.5	97
32890	2023-09-18T05:01:37	18.2	97
32891	2023-09-18T05:11:37	18.4	97.5
32892	2023-09-18T05:21:37	18.5	97.5
32893	2023-09-18T05:31:37	18.5	97.5
32894	2023-09-18T05:41:37	18.4	97.5
32895	2023-09-18T05:51:37	18.2	97.5
32896	2023-09-18T06:01:37	18.2	97.5
32897	2023-09-18T06:11:37	18.2	98
32898	2023-09-18T06:21:37	18.4	98
32899	2023-09-18T06:31:36	18.3	98
32900	2023-09-18T06:41:36	18.4	98
32901	2023-09-18T06:51:36	18.6	98
32902	2023-09-18T07:01:36	18.5	98
32903	2023-09-18T07:11:36	18.6	98
32904	2023-09-18T07:21:36	18.6	98
32905	2023-09-18T07:31:36	18.8	98
32906	2023-09-18T07:41:36	18.9	98
32907	2023-09-18T07:51:36	18.9	98
32908	2023-09-18T08:01:36	18.4	98
32909	2023-09-18T08:11:36	18.3	98.5
32910	2023-09-18T08:21:36	18.2	98.5
32911	2023-09-18T08:31:36	18.3	98.5
32912	2023-09-18T08:41:36	18.3	98
32913	2023-09-18T08:51:36	18.5	98
32914	2023-09-18T09:01:36	18.7	98
32915	2023-09-18T09:11:36	18.8	98
32916	2023-09-18T09:21:36	19	97.5
32917	2023-09-18T09:31:36	19.1	97.5
32918	2023-09-18T09:41:36	19.2	97
32919	2023-09-18T09:51:36	19.4	96.5
32920	2023-09-18T10:01:36	19.4	96
32921	2023-09-18T10:11:36	19.7	95
32922	2023-09-18T10:21:36	19.9	91
32923	2023-09-18T10:31:36	20.3	89
32924	2023-09-18T10:41:36	20.6	88
32925	2023-09-18T10:51:36	21.1	85
32926	2023-09-18T11:01:36	21.5	72
32927	2023-09-18T11:11:36	21.6	70
32928	2023-09-18T11:21:36	22.1	69
32929	2023-09-18T11:31:36	22.5	66.5
32930	2023-09-18T11:41:36	22.9	64.5
32931	2023-09-18T11:51:36	23.1	61.5
32932	2023-09-18T12:01:36	23.4	59.5
32933	2023-09-18T12:11:36	23.5	58.5
32934	2023-09-18T12:21:36	23.7	58.5
32935	2023-09-18T12:31:36	24.2	57.5
32936	2023-09-18T12:41:36	24.5	56
32937	2023-09-18T12:51:36	24.6	56.5
32938	2023-09-18T13:01:36	26.5	51.5
32939	2023-09-18T13:11:36	26.5	52
32940	2023-09-18T13:21:36	26.7	51
32941	2023-09-18T13:31:36	26.2	52
32942	2023-09-18T13:41:36	29.5	44.5
32943	2023-09-18T13:51:36	28.8	45.5
32944	2023-09-18T14:01:36	30.9	40.5
32945	2023-09-18T14:11:36	30.1	42.5
32946	2023-09-18T14:21:36	31.8	39.5
32947	2023-09-18T14:31:36	32.6	37.5
32948	2023-09-18T14:41:36	32.6	37.5
32949	2023-09-18T14:51:36	32.4	37.5
32950	2023-09-18T15:01:36	34.2	34.5
32951	2023-09-18T15:11:36	34.4	34
32952	2023-09-18T15:21:36	34.3	34.5
32953	2023-09-18T15:31:36	34.7	34
32954	2023-09-18T15:41:36	31.7	38
32955	2023-09-18T15:51:36	32.9	36
32956	2023-09-18T16:01:36	31.3	39
32957	2023-09-18T16:11:36	28.8	44
32958	2023-09-18T16:21:36	27.1	48.5
32959	2023-09-18T16:31:35	26.4	51
32960	2023-09-18T16:41:36	25.7	53
32961	2023-09-18T16:51:36	25.2	56
32962	2023-09-18T17:01:35	24.8	55.5
32963	2023-09-18T17:11:36	24.6	57
32964	2023-09-18T17:21:35	19.5	92
32965	2023-09-18T17:31:35	19.2	94
32966	2023-09-18T17:41:35	17.9	94.5
32967	2023-09-18T17:51:35	17.6	95.5
32968	2023-09-18T18:01:35	17.4	96.5
32969	2023-09-18T18:11:35	17.5	96.5
32970	2023-09-18T18:21:35	17	97
32971	2023-09-18T18:31:35	17.3	97.5
32972	2023-09-18T18:41:35	17.3	97.5
32973	2023-09-18T18:51:35	17.2	97.5
32974	2023-09-18T19:01:35	17.1	97.5
32975	2023-09-18T19:11:35	17.1	97.5
32976	2023-09-18T19:21:35	17.1	98
32977	2023-09-18T19:31:35	17.2	98
32978	2023-09-18T19:41:35	17	98
32979	2023-09-18T19:51:35	17.1	98
32980	2023-09-18T20:01:35	16.9	98
32981	2023-09-18T20:11:35	16.9	98
32982	2023-09-18T20:21:35	16.9	98
32983	2023-09-18T20:31:35	16.5	98
32984	2023-09-18T20:41:35	16.4	98
32985	2023-09-18T20:51:35	16.3	98
32986	2023-09-18T21:01:35	16.5	98.5
32987	2023-09-18T21:11:35	16.3	98.5
32988	2023-09-18T21:21:35	16.2	98.5
32989	2023-09-18T21:31:35	16.1	98.5
32990	2023-09-18T21:41:35	16	98.5
32991	2023-09-18T21:51:35	16	98.5
32992	2023-09-18T22:01:35	15.9	98.5
32993	2023-09-18T22:11:35	16	98.5
32994	2023-09-18T22:21:35	16.1	99
32995	2023-09-18T22:31:35	15.9	98.5
32996	2023-09-18T22:41:35	15.9	99
32997	2023-09-18T22:51:35	16.2	99
32998	2023-09-18T23:01:35	16.4	99
32999	2023-09-18T23:11:35	16.4	99
33000	2023-09-18T23:21:35	16.5	99
33001	2023-09-18T23:31:35	16.5	99
33002	2023-09-18T23:41:35	16.6	98.5
33003	2023-09-18T23:51:35	16.4	98.5
33004	2023-09-19T00:01:35	16.3	98.5
33005	2023-09-19T00:11:35	16.4	98.5
33006	2023-09-19T00:21:35	16.3	98.5
33007	2023-09-19T00:31:35	16.2	98.5
33008	2023-09-19T00:41:35	16.1	98.5
33009	2023-09-19T00:51:35	16.1	98.5
33010	2023-09-19T01:01:35	16.4	98.5
33011	2023-09-19T01:11:35	16.6	98.5
33012	2023-09-19T01:21:35	16.7	98.5
33013	2023-09-19T01:31:35	17	99
33014	2023-09-19T01:41:35	16.9	99
33015	2023-09-19T01:51:35	16.9	98.5
33016	2023-09-19T02:01:35	16.9	98.5
33017	2023-09-19T02:11:35	17	98.5
33018	2023-09-19T02:21:35	17	98.5
33019	2023-09-19T02:31:35	17	98.5
33020	2023-09-19T02:41:35	17	98.5
33021	2023-09-19T02:51:35	17.1	98.5
33022	2023-09-19T03:01:35	16.6	98.5
33023	2023-09-19T03:11:35	16.1	99
33024	2023-09-19T03:21:35	16.1	99
33025	2023-09-19T03:31:35	16	99.5
33026	2023-09-19T03:41:35	16	99.5
33027	2023-09-19T03:51:35	16	99.5
33028	2023-09-19T04:01:35	15.9	99.5
33029	2023-09-19T04:11:34	16	99.5
33030	2023-09-19T04:21:35	16	100
33031	2023-09-19T04:31:34	16	99.5
33032	2023-09-19T04:41:34	15.8	100
33033	2023-09-19T04:51:34	15.8	100
33034	2023-09-19T05:01:34	15.7	100
33035	2023-09-19T05:11:34	15.6	100
33036	2023-09-19T05:21:34	15.6	100
33037	2023-09-19T05:31:34	15.4	100
33038	2023-09-19T05:41:34	15.4	100
33039	2023-09-19T05:51:34	15.4	100
33040	2023-09-19T06:01:34	15.3	100
33041	2023-09-19T06:21:34	15.1	100
33042	2023-09-19T06:31:34	15	100
33043	2023-09-19T06:41:34	15	100
33044	2023-09-19T06:51:34	15.2	100
33045	2023-09-19T07:01:34	15.2	100
33046	2023-09-19T07:11:34	15.3	100
33047	2023-09-19T07:21:34	15.6	100
33048	2023-09-19T07:31:34	16	100
33049	2023-09-19T07:41:34	16.2	100
33050	2023-09-19T07:51:34	16.4	100
33051	2023-09-19T08:01:34	16.4	100
33052	2023-09-19T08:11:34	16.4	100
33053	2023-09-19T08:21:34	16.6	100
33054	2023-09-19T08:31:34	16.9	99.5
33055	2023-09-19T08:41:34	17.4	99.5
33056	2023-09-19T08:51:34	18	99.5
33057	2023-09-19T09:01:34	18.1	99
33058	2023-09-19T09:11:34	17.9	99
33059	2023-09-19T09:21:34	17.6	98.5
33060	2023-09-19T09:31:34	17.4	99
33061	2023-09-19T09:41:34	17.8	99
33062	2023-09-19T09:51:34	18.1	98.5
33063	2023-09-19T10:01:34	18	98.5
33064	2023-09-19T10:11:34	18.1	98.5
33065	2023-09-19T10:21:34	18.8	98
33066	2023-09-19T10:31:34	19.1	98
33067	2023-09-19T10:41:34	19.6	96
33068	2023-09-19T10:51:34	20.1	97.5
33069	2023-09-19T11:01:34	20.8	96
33070	2023-09-19T11:11:34	20.4	94.5
33071	2023-09-19T11:21:34	20.7	93
33072	2023-09-19T11:31:34	20.7	93
33073	2023-09-19T11:41:34	20.4	90.5
33074	2023-09-19T11:51:34	20.9	90
33075	2023-09-19T12:01:34	22.7	94
33076	2023-09-19T12:11:34	25.5	44
33077	2023-09-19T12:21:34	27.2	38.5
33078	2023-09-19T12:31:34	28	37.5
33079	2023-09-19T12:41:34	29.4	35.5
33080	2023-09-19T12:51:34	29.4	35.5
33081	2023-09-19T13:01:34	30.3	35
33082	2023-09-19T13:11:34	30	33.5
33083	2023-09-19T13:21:34	29.9	33
33084	2023-09-19T13:31:34	30.5	33
33085	2023-09-19T13:41:34	31.5	30.5
33086	2023-09-19T13:51:34	30.3	32
33087	2023-09-19T14:01:34	30.9	31
33088	2023-09-19T14:11:34	31.9	29
33089	2023-09-19T14:21:34	31.2	30.5
33090	2023-09-19T14:31:34	30.1	31.5
33091	2023-09-19T14:41:34	26.7	39
33092	2023-09-19T15:01:34	25.1	41.5
33093	2023-09-19T15:11:34	26.2	40.5
33094	2023-09-19T15:21:33	26.6	39.5
33095	2023-09-19T15:31:33	26	41
33096	2023-09-19T15:41:33	25.6	42
33097	2023-09-19T15:51:33	27.5	38
33098	2023-09-19T16:01:33	26.5	41.5
33099	2023-09-19T16:11:33	25.1	45
33100	2023-09-19T16:21:33	26.8	41.5
33101	2023-09-19T16:31:33	26.2	43.5
33102	2023-09-19T16:41:33	25.2	47.5
33103	2023-09-19T16:51:33	24.8	46
33104	2023-09-19T17:01:33	23.7	51
33105	2023-09-19T17:11:33	22.9	52
33106	2023-09-19T17:21:33	22.3	57.5
33107	2023-09-19T17:31:33	21.8	59
33108	2023-09-19T17:41:33	21.2	64.5
33109	2023-09-19T17:51:33	20.8	68
33110	2023-09-19T18:01:33	20.6	68
33111	2023-09-19T18:11:33	20.1	69
33112	2023-09-19T18:21:33	19.8	68.5
33113	2023-09-19T18:31:33	19.6	69.5
33114	2023-09-19T18:41:33	19.4	69.5
33115	2023-09-19T18:51:33	19.2	70
33116	2023-09-19T19:01:33	18.9	71.5
33117	2023-09-19T19:11:33	18.7	69
33118	2023-09-19T19:21:33	18.5	68.5
33119	2023-09-19T19:31:33	18.1	71
33120	2023-09-19T19:41:33	18	71.5
33121	2023-09-19T19:51:33	17.9	70.5
33122	2023-09-19T20:01:33	17.7	74
33123	2023-09-19T20:11:33	17.5	71
33124	2023-09-19T20:21:33	17.7	69
33125	2023-09-19T20:31:33	17.5	68
33126	2023-09-19T20:41:33	17.5	71
33127	2023-09-19T20:51:33	17.2	73.5
33128	2023-09-19T21:01:33	17	74.5
33129	2023-09-19T21:11:33	16.7	76.5
33130	2023-09-19T21:21:33	16.4	78
33131	2023-09-19T21:31:33	16.4	77
33132	2023-09-19T21:41:33	16.4	76.5
33133	2023-09-19T21:51:33	16.2	77
33134	2023-09-19T22:01:33	16.2	77
33135	2023-09-19T22:11:33	16	78
33136	2023-09-19T22:21:33	15.8	78.5
33137	2023-09-19T22:31:33	15.8	79.5
33138	2023-09-19T22:41:33	15.6	80
33139	2023-09-19T22:51:33	15.4	81
33140	2023-09-19T23:01:33	15.1	83
33141	2023-09-19T23:11:33	14.9	83
33142	2023-09-19T23:21:33	14.8	83.5
33143	2023-09-19T23:31:33	14.7	84.5
33144	2023-09-19T23:41:33	14.7	84.5
33145	2023-09-19T23:51:33	14.6	84.5
33146	2023-09-20T00:01:33	14.5	84.5
33147	2023-09-20T00:11:33	14.4	84.5
33148	2023-09-20T00:21:33	14.4	85
33149	2023-09-20T00:31:33	14.4	85
33150	2023-09-20T00:41:33	14.4	85
33151	2023-09-20T00:51:33	14.4	85.5
33152	2023-09-20T01:01:33	14.3	85.5
33153	2023-09-20T01:11:33	14.3	85.5
33154	2023-09-20T01:21:33	14.2	86.5
33155	2023-09-20T01:31:33	14	87
33156	2023-09-20T01:41:33	13.9	87.5
33157	2023-09-20T01:51:33	13.7	88
33158	2023-09-20T02:01:33	13.7	88.5
33159	2023-09-20T02:11:33	13.7	88
33160	2023-09-20T02:21:33	13.5	88.5
33161	2023-09-20T02:31:32	13.4	89
33162	2023-09-20T02:41:32	13.5	89
33163	2023-09-20T02:51:32	13.4	89
33164	2023-09-20T03:01:32	13.2	89.5
33165	2023-09-20T03:11:32	13.2	89.5
33166	2023-09-20T03:21:32	13.2	89.5
33167	2023-09-20T03:31:32	13.1	90
33168	2023-09-20T03:41:32	13.2	90
33169	2023-09-20T03:51:32	13	90
33170	2023-09-20T04:01:32	13	90.5
33171	2023-09-20T04:11:32	12.9	90.5
33172	2023-09-20T04:21:32	12.8	91
33173	2023-09-20T04:31:32	12.7	91.5
33174	2023-09-20T04:41:32	12.8	91
33175	2023-09-20T04:51:32	12.7	91
33176	2023-09-20T05:01:32	12.7	91
33177	2023-09-20T05:11:32	12.6	91.5
33178	2023-09-20T05:21:32	12.5	91.5
33179	2023-09-20T05:31:32	12.6	91.5
33180	2023-09-20T05:41:32	12.6	91
33181	2023-09-20T05:51:32	12.8	91
33182	2023-09-20T06:01:32	13	91
33183	2023-09-20T06:11:32	13.1	91
33184	2023-09-20T06:21:32	13.1	91.5
33185	2023-09-20T06:31:32	13.1	91.5
33186	2023-09-20T06:41:33	13.1	92
33187	2023-09-20T06:51:32	13.5	92
33188	2023-09-20T07:01:32	13.6	92
33189	2023-09-20T07:11:32	13.7	92
33190	2023-09-20T07:21:32	13.8	92
33191	2023-09-20T07:31:32	13.7	92.5
33192	2023-09-20T07:41:32	13.8	92
33193	2023-09-20T07:51:32	14.2	91
33194	2023-09-20T08:01:32	14.6	89
33195	2023-09-20T08:11:32	14.9	88
33196	2023-09-20T08:21:32	15	87.5
33197	2023-09-20T08:31:32	15	88
33198	2023-09-20T08:41:32	15.4	86.5
33199	2023-09-20T08:51:32	15.6	84.5
33200	2023-09-20T09:01:32	16.1	82
33201	2023-09-20T09:11:32	16.3	83
33202	2023-09-20T09:21:32	16.7	84.5
33203	2023-09-20T09:31:32	17.2	82
33204	2023-09-20T09:41:32	17.8	79
33205	2023-09-20T09:51:32	18.4	76
33206	2023-09-20T10:01:32	18.9	71.5
33207	2023-09-20T10:11:32	19.3	73.5
33208	2023-09-20T10:21:32	19.5	71
33209	2023-09-20T10:31:32	20.2	64
33210	2023-09-20T10:41:32	20.8	61.5
33211	2023-09-20T10:51:32	21.3	60
33212	2023-09-20T11:01:32	21.5	56
33213	2023-09-20T11:11:32	21.7	58
33214	2023-09-20T11:21:32	22.1	55
33215	2023-09-20T11:31:32	22.3	54
33216	2023-09-20T11:41:32	22.7	52.5
33217	2023-09-20T11:51:32	23.2	50.5
33218	2023-09-20T12:01:32	25.2	45
33219	2023-09-20T12:11:32	28.6	38
33220	2023-09-20T12:21:32	30.4	35.5
33221	2023-09-20T12:31:32	31.1	32.5
33222	2023-09-20T12:41:32	32.8	32.5
33223	2023-09-20T12:51:32	33.5	29.5
33224	2023-09-20T13:01:32	33.9	28
33225	2023-09-20T13:11:32	34.8	28
33226	2023-09-20T13:21:32	34.3	27.5
33227	2023-09-20T13:31:32	35.2	26.5
33228	2023-09-20T13:41:32	35.8	26.5
33229	2023-09-20T13:51:32	36.7	25.5
33230	2023-09-20T14:01:32	36.7	24
33231	2023-09-20T14:11:32	37.8	23
33232	2023-09-20T14:21:32	37.1	24.5
33233	2023-09-20T14:31:31	37.9	24
33234	2023-09-20T14:41:32	37.8	24.5
33235	2023-09-20T14:51:32	37.7	23.5
33236	2023-09-20T15:01:31	38.9	23
33237	2023-09-20T15:11:31	38.8	23.5
33238	2023-09-20T15:21:31	38.4	23
33239	2023-09-20T15:31:31	37.6	24
33240	2023-09-20T15:41:31	37.5	24.5
33241	2023-09-20T15:51:31	37.5	25
33242	2023-09-20T16:01:31	36.7	26
33243	2023-09-20T16:11:31	35.9	26.5
33244	2023-09-20T16:21:31	34	29
33245	2023-09-20T16:31:31	31.2	33
33246	2023-09-20T16:41:31	30.2	37
33247	2023-09-20T16:51:32	30	41
33248	2023-09-20T17:01:31	28.9	45.5
33249	2023-09-20T17:11:31	27.9	49
33250	2023-09-20T17:21:31	26.8	50
33251	2023-09-20T17:31:31	26.2	51
33252	2023-09-20T17:41:31	25.4	52
33253	2023-09-20T17:51:31	24.8	51.5
33254	2023-09-20T18:01:31	24.5	54
33255	2023-09-20T18:11:31	24.1	54
33256	2023-09-20T18:21:31	23.6	57
33257	2023-09-20T18:31:31	23.2	58.5
33258	2023-09-20T18:41:31	22.9	59.5
33259	2023-09-20T18:51:31	22.3	61.5
33260	2023-09-20T19:01:31	22.1	62
33261	2023-09-20T19:11:31	21.8	61
33262	2023-09-20T19:21:31	21.5	64
33263	2023-09-20T19:31:31	21.2	65
33264	2023-09-20T19:41:31	21	64.5
33265	2023-09-20T19:51:31	20.6	66.5
33266	2023-09-20T20:01:31	20.4	68
33267	2023-09-20T20:11:31	20.1	67.5
33268	2023-09-20T20:21:31	20	68
33269	2023-09-20T20:31:31	19.5	69
33270	2023-09-20T20:41:31	19.3	69
33271	2023-09-20T20:51:31	19.1	69
33272	2023-09-20T21:01:31	19	69.5
33273	2023-09-20T21:11:31	18.7	70
33274	2023-09-20T21:21:31	18.4	72
33275	2023-09-20T21:31:31	18.3	72
33276	2023-09-20T21:41:31	18.1	71.5
33277	2023-09-20T21:51:31	17.8	73
33278	2023-09-20T22:01:31	17.7	73.5
33279	2023-09-20T22:11:31	17.5	74.5
33280	2023-09-20T22:21:31	17.3	75
33281	2023-09-20T22:31:31	17.1	75.5
33282	2023-09-20T22:41:31	17	76.5
33283	2023-09-20T22:51:31	16.8	76
33284	2023-09-20T23:01:31	16.8	75.5
33285	2023-09-20T23:11:31	16.7	75.5
33286	2023-09-20T23:21:31	16.5	76.5
33287	2023-09-20T23:31:31	16.5	76.5
33288	2023-09-20T23:41:31	16.5	77
33289	2023-09-20T23:51:31	16.3	78
33290	2023-09-21T00:01:31	16.2	79
33291	2023-09-21T00:11:31	16.1	78.5
33292	2023-09-21T00:21:31	16.1	78.5
33293	2023-09-21T00:31:31	15.8	79.5
33294	2023-09-21T00:41:31	16	79.5
33295	2023-09-21T00:51:31	16.1	79.5
33296	2023-09-21T01:01:31	16	79.5
33297	2023-09-21T01:11:31	15.9	80
33298	2023-09-21T01:21:30	16.2	79
33299	2023-09-21T01:31:30	15.8	80.5
33300	2023-09-21T01:41:30	15.9	81
33301	2023-09-21T01:51:30	15.9	81.5
33302	2023-09-21T02:01:30	16	81.5
33303	2023-09-21T02:11:30	16.2	81.5
33304	2023-09-21T02:21:30	16.2	81.5
33305	2023-09-21T02:31:30	16.2	81
33306	2023-09-21T02:41:30	16.3	81
33307	2023-09-21T02:51:30	16.2	81
33308	2023-09-21T03:01:30	16.4	80.5
33309	2023-09-21T03:11:30	16.4	81.5
33310	2023-09-21T03:21:31	16.3	82.5
33311	2023-09-21T03:31:30	16.4	84.5
33312	2023-09-21T03:41:30	16.3	84.5
33313	2023-09-21T03:51:30	16.3	84
33314	2023-09-21T04:01:30	16.3	85
33315	2023-09-21T04:11:30	16.3	86.5
33316	2023-09-21T04:21:30	16.1	86.5
33317	2023-09-21T04:31:30	16.1	86.5
33318	2023-09-21T04:41:30	16.1	89
33319	2023-09-21T04:51:30	16.1	89.5
33320	2023-09-21T05:01:30	16.2	90.5
33321	2023-09-21T05:11:30	16.3	90
33322	2023-09-21T05:21:30	16.3	90.5
33323	2023-09-21T05:31:30	16.5	90.5
33324	2023-09-21T05:41:30	16.3	90.5
33325	2023-09-21T05:51:30	16.1	91.5
33326	2023-09-21T06:01:30	16.1	92
33327	2023-09-21T06:11:30	16.1	92
33328	2023-09-21T06:21:30	16	92
33329	2023-09-21T06:31:30	16.2	92
33330	2023-09-21T06:41:30	16.3	94
33331	2023-09-21T06:51:30	16.3	92.5
33332	2023-09-21T07:01:30	16.5	92
33333	2023-09-21T07:11:30	16.7	91.5
33334	2023-09-21T07:21:30	16.8	91.5
33335	2023-09-21T07:31:30	17.2	91
33336	2023-09-21T07:41:30	17.4	89
33337	2023-09-21T07:51:30	17.5	89
33338	2023-09-21T08:01:30	17.5	89.5
33339	2023-09-21T08:11:30	17.7	89
33340	2023-09-21T08:21:30	18	88
33341	2023-09-21T08:31:30	18	88
33342	2023-09-21T08:41:30	18.2	88.5
33343	2023-09-21T08:51:30	18.4	88.5
33344	2023-09-21T09:01:30	18.8	86.5
33345	2023-09-21T09:11:30	19.2	85.5
33346	2023-09-21T09:21:30	19.5	84
33347	2023-09-21T09:31:30	20	85
33348	2023-09-21T09:41:30	20.4	82.5
33349	2023-09-21T09:51:30	20.5	83
33350	2023-09-21T10:01:30	20.9	82.5
33351	2023-09-21T10:11:30	20.9	82
33352	2023-09-21T10:21:30	21.2	83
33353	2023-09-21T10:31:30	21.7	81
33354	2023-09-21T10:41:30	22.1	78
33355	2023-09-21T10:51:30	22.4	76.5
33356	2023-09-21T11:01:30	22.5	77
33357	2023-09-21T11:11:30	23.6	73.5
33358	2023-09-21T11:21:30	23.9	70.5
33359	2023-09-21T11:31:30	24.2	68.5
33360	2023-09-21T11:41:30	24.4	68
33361	2023-09-21T11:51:30	24.2	69
33362	2023-09-21T12:01:30	24.1	68.5
33363	2023-09-21T12:11:30	24.5	67.5
33364	2023-09-21T12:21:30	24.6	67.5
33365	2023-09-21T12:31:30	24.7	68
33366	2023-09-21T12:41:30	25.4	63
33367	2023-09-21T12:51:29	25.5	64.5
33368	2023-09-21T13:01:29	25.5	63
33369	2023-09-21T13:11:29	25.7	61.5
33370	2023-09-21T13:21:29	27.9	56
33371	2023-09-21T13:31:29	28.1	54.5
33372	2023-09-21T13:41:29	28	54
33373	2023-09-21T13:51:29	26.3	59
33374	2023-09-21T14:01:29	25.5	62
33375	2023-09-21T14:11:29	25.5	65.5
33376	2023-09-21T14:21:29	27.1	60
33377	2023-09-21T14:31:29	26.3	60
33378	2023-09-21T14:41:29	26.1	62
33379	2023-09-21T14:51:29	26.5	62
33380	2023-09-21T15:01:29	25.9	62.5
33381	2023-09-21T15:11:29	25.6	64
33382	2023-09-21T15:21:29	25.3	65.5
33383	2023-09-21T15:31:29	24.8	68
33384	2023-09-21T15:41:29	24.5	73.5
33385	2023-09-21T15:51:29	24.2	75.5
33386	2023-09-21T16:01:29	24	76.5
33387	2023-09-21T16:11:29	24	75.5
33388	2023-09-21T16:21:29	23.8	75.5
33389	2023-09-21T16:31:29	23.7	75.5
33390	2023-09-21T16:41:29	23.4	73.5
33391	2023-09-21T16:51:29	23.2	76
33392	2023-09-21T17:01:29	22.9	74.5
33393	2023-09-21T17:11:29	22.7	75.5
33394	2023-09-21T17:21:29	22.4	78.5
33395	2023-09-21T17:31:29	22.3	77.5
33396	2023-09-21T17:41:29	22.3	77.5
33397	2023-09-21T17:51:29	20.7	87
33398	2023-09-21T18:01:29	17.9	93.5
33399	2023-09-21T18:11:29	17.2	94.5
33400	2023-09-21T18:21:29	16.8	95.5
33401	2023-09-21T18:31:29	16.5	96
33402	2023-09-21T18:41:29	16.3	96.5
33403	2023-09-21T18:51:29	16.1	96.5
33404	2023-09-21T19:01:29	15.8	97
33405	2023-09-21T19:11:49	15.8	97
33406	2023-09-21T19:41:29	15.6	97.5
33407	2023-09-21T19:51:29	15.6	98
33408	2023-09-21T20:01:29	15.7	98
33409	2023-09-21T20:11:29	15.8	98
33410	2023-09-21T20:21:29	15.7	98
33411	2023-09-21T20:31:29	15.5	98
33412	2023-09-21T20:41:29	15.7	98
33413	2023-09-21T20:51:29	15.5	98
33414	2023-09-21T21:01:29	15.3	98
33415	2023-09-21T21:11:29	15.2	98
33416	2023-09-21T21:21:29	15.1	98
33417	2023-09-21T21:31:29	15.3	98.5
33418	2023-09-21T21:41:29	15.1	98.5
33419	2023-09-21T21:51:29	15.1	98.5
33420	2023-09-21T22:01:29	15.1	98.5
33421	2023-09-21T22:11:29	15.2	98.5
33422	2023-09-21T22:21:29	15.2	98.5
33423	2023-09-21T22:31:29	15.3	99
33424	2023-09-21T22:41:29	15.1	99
33425	2023-09-21T22:51:29	15.2	99
33426	2023-09-21T23:01:29	15.1	99
33427	2023-09-21T23:11:29	15.1	99
33428	2023-09-21T23:21:29	14.9	98.5
33429	2023-09-21T23:31:28	14.8	99
33430	2023-09-21T23:41:28	14.6	98.5
33431	2023-09-21T23:51:28	14.6	99
33432	2023-09-22T00:01:28	14.5	99
33433	2023-09-22T00:11:28	14.4	98.5
33434	2023-09-22T00:21:28	14.3	99
33435	2023-09-22T00:31:28	14.1	99
33436	2023-09-22T00:41:28	14	99
33437	2023-09-22T00:51:28	14	99
33438	2023-09-22T01:01:28	13.8	99
33439	2023-09-22T01:11:28	13.8	99
33440	2023-09-22T01:21:28	13.6	98.5
33441	2023-09-22T01:31:28	13.7	99
33442	2023-09-22T01:41:28	13.6	99
33443	2023-09-22T01:51:28	13.6	99
33444	2023-09-22T02:01:28	13.6	99
33445	2023-09-22T02:11:28	13.4	99
33446	2023-09-22T02:21:28	13.4	99
33447	2023-09-22T02:31:28	13.4	99
33448	2023-09-22T02:41:28	13.2	99
33449	2023-09-22T02:51:28	13.2	99
33450	2023-09-22T03:01:28	13.2	99
33451	2023-09-22T03:11:28	13.2	99
33452	2023-09-22T03:21:28	13.3	99
33453	2023-09-22T03:31:49	13.5	99.5
33454	2023-09-22T03:41:28	13.4	99.5
33455	2023-09-22T03:51:28	13.4	99.5
33456	2023-09-22T04:01:28	13.2	99
33457	2023-09-22T04:11:28	13.2	99
33458	2023-09-22T04:21:28	13.2	99
33459	2023-09-22T04:31:28	13.1	99.5
33460	2023-09-22T04:41:28	13.3	99.5
33461	2023-09-22T04:51:28	13.4	99.5
33462	2023-09-22T05:01:28	13.4	99.5
33463	2023-09-22T05:11:28	13.3	99.5
33464	2023-09-22T05:21:28	13.5	99.5
33465	2023-09-22T05:31:28	13.5	99.5
33466	2023-09-22T05:41:28	13.7	99.5
33467	2023-09-22T05:51:28	13.8	99.5
33468	2023-09-22T06:01:28	13.5	99.5
33469	2023-09-22T06:11:28	13.5	99.5
33470	2023-09-22T06:21:28	13.7	99.5
33471	2023-09-22T06:31:28	13.7	99.5
33472	2023-09-22T06:41:28	13.9	100
33473	2023-09-22T06:51:28	13.8	99.5
33474	2023-09-22T07:01:28	13.9	99.5
33475	2023-09-22T07:11:28	13.8	99.5
33476	2023-09-22T07:21:28	14	100
33477	2023-09-22T07:31:28	14.2	100
33478	2023-09-22T07:41:28	14.3	99.5
33479	2023-09-22T07:51:28	14.5	99.5
33480	2023-09-22T08:01:28	14.7	99.5
33481	2023-09-22T08:11:28	14.5	99.5
33482	2023-09-22T08:21:28	14.5	99.5
33483	2023-09-22T08:31:28	14.7	99.5
33484	2023-09-22T08:41:28	15.1	99.5
33485	2023-09-22T08:51:28	15.1	99.5
33486	2023-09-22T09:01:28	15.7	99
33487	2023-09-22T09:11:28	15.7	98.5
33488	2023-09-22T09:21:28	15.5	98.5
33489	2023-09-22T09:31:28	15.8	98.5
33490	2023-09-22T09:41:28	16.2	98
33491	2023-09-22T09:51:28	16.5	98
33492	2023-09-22T10:01:28	15.9	98
33493	2023-09-22T10:11:28	16	98
33494	2023-09-22T10:21:28	16.5	98
33495	2023-09-22T10:31:28	16.1	98
33496	2023-09-22T10:41:28	16.4	98
33497	2023-09-22T10:51:28	16.6	98
33498	2023-09-22T11:01:28	16.8	99
33499	2023-09-22T11:11:28	17.3	99
33500	2023-09-22T11:21:28	17.9	99.5
33501	2023-09-22T11:31:28	18.5	99
33502	2023-09-22T11:41:28	18.8	98
33503	2023-09-22T11:51:28	18.9	98
33504	2023-09-22T12:01:28	19.1	97.5
33505	2023-09-22T12:11:28	19.7	96
33506	2023-09-22T12:21:27	21.7	99
33507	2023-09-22T12:31:27	25.2	96
33508	2023-09-22T12:41:27	26.3	87.5
33509	2023-09-22T12:51:27	24.1	96
33510	2023-09-22T13:01:27	24.3	90.5
33511	2023-09-22T13:11:27	25.9	95
33512	2023-09-22T13:21:27	29.3	35.5
33513	2023-09-22T13:31:27	29.5	33
33514	2023-09-22T13:41:27	30	34
33515	2023-09-22T13:51:27	30	33
33516	2023-09-22T14:01:27	30.8	31.5
33517	2023-09-22T14:11:27	30.5	30
33518	2023-09-22T14:21:27	31.3	28.5
33519	2023-09-22T14:31:27	31.6	29.5
33520	2023-09-22T14:41:27	30.7	29
33521	2023-09-22T14:51:27	31.5	27.5
33522	2023-09-22T15:01:27	31.3	28
33523	2023-09-22T15:11:28	30.2	31
33524	2023-09-22T15:21:27	27.3	33
33525	2023-09-22T15:31:27	24.3	39
33526	2023-09-22T15:41:27	23.5	44
33527	2023-09-22T15:51:27	23.2	45
33528	2023-09-22T16:01:27	22.8	47.5
33529	2023-09-22T16:11:27	21.9	56.5
33530	2023-09-22T16:21:27	18.5	92
33531	2023-09-22T16:31:27	17.4	93.5
33532	2023-09-22T16:41:27	16.7	95
33533	2023-09-22T16:51:27	16.8	95
33534	2023-09-22T17:01:27	16.4	96
33535	2023-09-22T17:11:27	16.5	96.5
33536	2023-09-22T17:21:27	16.7	97
33537	2023-09-22T17:31:27	16.1	96.5
33538	2023-09-22T17:41:27	16.3	97
33539	2023-09-22T17:51:27	16.1	97
33540	2023-09-22T18:01:27	15.6	97
33541	2023-09-22T18:11:27	15.4	97
33542	2023-09-22T18:21:27	14.7	97
33543	2023-09-22T18:31:27	14.7	97.5
33544	2023-09-22T18:41:27	14.9	98
33545	2023-09-22T18:51:27	15	98
33546	2023-09-22T19:01:27	14.8	98
33547	2023-09-22T19:11:27	14.9	98
33548	2023-09-22T19:21:27	14.9	98
33549	2023-09-22T19:31:27	14.9	98
33550	2023-09-22T19:41:27	14.5	98
33551	2023-09-22T19:51:27	14.1	98
33552	2023-09-22T20:01:27	14	98
33553	2023-09-22T20:11:27	13.9	98
33554	2023-09-22T20:21:27	13.7	98
33555	2023-09-22T20:31:27	13.9	98.5
33556	2023-09-22T20:41:27	13.9	98.5
33557	2023-09-22T20:51:27	13.8	98.5
33558	2023-09-22T21:01:27	13.7	98.5
33559	2023-09-22T21:11:27	13.5	98.5
33560	2023-09-22T21:21:27	13.3	98.5
33561	2023-09-22T21:31:27	13.2	98
33562	2023-09-22T21:41:27	13.2	98
33563	2023-09-22T21:51:27	13.1	98
33564	2023-09-22T22:01:27	12.9	98
33565	2023-09-22T22:11:27	12.7	98
33566	2023-09-22T22:21:27	12.7	98.5
33567	2023-09-22T22:31:27	13	98.5
33568	2023-09-22T22:41:27	12.9	98
33569	2023-09-22T22:51:27	12.7	98
33570	2023-09-22T23:01:27	12.7	98
33571	2023-09-22T23:11:27	12.5	98
33572	2023-09-22T23:21:27	12.3	98
33573	2023-09-22T23:31:26	12.1	98
33574	2023-09-22T23:41:26	12	98
33575	2023-09-22T23:51:26	11.7	98
33576	2023-09-23T00:01:26	11.7	98
33577	2023-09-23T00:11:26	11.6	98.5
33578	2023-09-23T00:21:26	11.5	98.5
33579	2023-09-23T00:31:26	11.5	98.5
33580	2023-09-23T00:41:26	11.5	98.5
33581	2023-09-23T00:51:26	11.4	98
33582	2023-09-23T01:01:26	11.3	98
33583	2023-09-23T01:11:26	11.3	98.5
33584	2023-09-23T01:21:26	11.3	98.5
33585	2023-09-23T01:31:26	11.3	98.5
33586	2023-09-23T01:41:26	11.2	98.5
33587	2023-09-23T01:51:26	11.2	98.5
33588	2023-09-23T02:01:26	11.2	98.5
33589	2023-09-23T02:11:26	11.3	98.5
33590	2023-09-23T02:21:26	11.5	98.5
33591	2023-09-23T02:31:26	11.2	98.5
33592	2023-09-23T02:41:26	11	98
33593	2023-09-23T02:51:26	10.7	98.5
33594	2023-09-23T03:01:26	10.4	98.5
33595	2023-09-23T03:11:26	10.4	98.5
33596	2023-09-23T03:21:26	10.1	98.5
33597	2023-09-23T03:31:26	10	98.5
33598	2023-09-23T03:41:26	9.7	99
33599	2023-09-23T03:51:26	9.6	99
33600	2023-09-23T04:01:26	9.7	99
33601	2023-09-23T04:11:26	9.5	99
33602	2023-09-23T04:21:26	9.3	99
33603	2023-09-23T04:31:26	9.2	99
33604	2023-09-23T04:41:26	9.2	99
33605	2023-09-23T04:51:26	9.1	99
33606	2023-09-23T05:01:26	9	99
33607	2023-09-23T05:11:26	9.1	99
33608	2023-09-23T05:21:26	9.1	99
33609	2023-09-23T05:31:26	8.8	99
33610	2023-09-23T05:41:26	8.8	99.5
33611	2023-09-23T05:51:26	8.8	99.5
33612	2023-09-23T06:01:26	9	99.5
33613	2023-09-23T06:11:26	9.2	99.5
33614	2023-09-23T06:21:26	9.6	99.5
33615	2023-09-23T06:31:26	9.8	99.5
33616	2023-09-23T06:41:26	9.9	100
33617	2023-09-23T06:51:26	10.1	100
33618	2023-09-23T07:01:26	10.1	100
33619	2023-09-23T07:11:26	10.3	100
33620	2023-09-23T07:21:26	10.4	100
33621	2023-09-23T07:31:26	10.3	100
33622	2023-09-23T07:41:26	10.4	100
33623	2023-09-23T07:51:26	10.6	100
33624	2023-09-23T08:01:26	11	100
33625	2023-09-23T08:11:26	11.8	100
33626	2023-09-23T08:21:26	12.5	100
33627	2023-09-23T08:31:26	13	99.5
33628	2023-09-23T08:41:26	13.4	99
33629	2023-09-23T09:01:26	14.1	84
33630	2023-09-23T09:11:26	14.4	78.5
33631	2023-09-23T09:21:26	14.5	77
33632	2023-09-23T09:31:26	15	74
33633	2023-09-23T09:41:26	15.1	73
33634	2023-09-23T09:51:26	15.3	70
33635	2023-09-23T10:01:26	15.5	69
33636	2023-09-23T10:11:26	16	64.5
33637	2023-09-23T10:21:26	16.2	64.5
33638	2023-09-23T10:31:26	16.6	65
33639	2023-09-23T10:41:26	16.7	63.5
33640	2023-09-23T10:51:26	16.9	61
33641	2023-09-23T11:01:26	17.3	60
33642	2023-09-23T11:11:26	17.8	62
33643	2023-09-23T11:21:26	17.9	59.5
33644	2023-09-23T11:31:26	17.7	60
33645	2023-09-23T11:41:26	18.6	57.5
33646	2023-09-23T11:51:26	18.8	55
33647	2023-09-23T12:01:26	19	54
33648	2023-09-23T12:11:26	20.1	48.5
33649	2023-09-23T12:21:26	21.7	45.5
33650	2023-09-23T12:31:26	21.1	49.5
33651	2023-09-23T12:41:26	20	51.5
33652	2023-09-23T12:51:26	22.4	46.5
33653	2023-09-23T13:01:26	21.4	46
33654	2023-09-23T13:11:26	21.3	47.5
33655	2023-09-23T13:21:25	20.2	50.5
33656	2023-09-23T13:31:25	20.4	50.5
33657	2023-09-23T13:41:25	19.8	51
33658	2023-09-23T13:51:26	19.6	52.5
33659	2023-09-23T14:01:25	19.9	50
33660	2023-09-23T14:11:25	20.1	51
33661	2023-09-23T14:21:25	19.3	54.5
33662	2023-09-23T14:31:25	18.6	56.5
33663	2023-09-23T14:41:25	18	62.5
33664	2023-09-23T14:51:25	18.1	59.5
33665	2023-09-23T15:01:25	18.4	65.5
33666	2023-09-23T15:11:25	18.9	65
33667	2023-09-23T15:21:25	20	61
33668	2023-09-23T15:31:25	19.5	63.5
33669	2023-09-23T15:41:25	19.2	64
33670	2023-09-23T15:51:25	18.8	65
33671	2023-09-23T16:01:25	21.2	59
33672	2023-09-23T16:11:25	18.6	64.5
33673	2023-09-23T16:21:25	17.9	64
33674	2023-09-23T16:31:25	17.9	61
33675	2023-09-23T16:41:25	17.7	64
33676	2023-09-23T16:51:25	17.4	63
33677	2023-09-23T17:01:25	16.8	64
33678	2023-09-23T17:11:25	16	66
33679	2023-09-23T17:21:25	15.7	70
33680	2023-09-23T17:31:25	15.2	71.5
33681	2023-09-23T17:41:25	14.6	75
33682	2023-09-23T17:51:25	14.2	76.5
33683	2023-09-23T18:01:25	14	76.5
33684	2023-09-23T18:11:25	13.8	77.5
33685	2023-09-23T18:21:25	13.7	77
33686	2023-09-23T18:31:25	13.6	78
33687	2023-09-23T18:41:25	13.4	78
33688	2023-09-23T18:51:25	13.4	79
33689	2023-09-23T19:01:25	13.3	80.5
33690	2023-09-23T19:11:25	13.2	81.5
33691	2023-09-23T19:21:25	13.2	81.5
33692	2023-09-23T19:31:25	12.9	81.5
33693	2023-09-23T19:41:25	12.5	83
33694	2023-09-23T19:51:25	12.5	83.5
33695	2023-09-23T20:01:25	12.3	85
33696	2023-09-23T20:11:25	12	85
33697	2023-09-23T20:21:25	11.8	86
33698	2023-09-23T20:31:25	11.7	86.5
33699	2023-09-23T20:41:25	11.6	87
33700	2023-09-23T20:51:25	11.6	87
33701	2023-09-23T21:01:25	11.3	86.5
33702	2023-09-23T21:11:25	11.2	87
33703	2023-09-23T21:21:25	11.2	87
33704	2023-09-23T21:31:25	11.1	87.5
33705	2023-09-23T21:41:25	10.9	88.5
33706	2023-09-23T21:51:25	10.7	88.5
33707	2023-09-23T22:01:25	10.5	89.5
33708	2023-09-23T22:11:25	10.5	90
33709	2023-09-23T22:21:25	10.3	89.5
33710	2023-09-23T22:31:25	10.2	90.5
33711	2023-09-23T22:41:25	10.1	90.5
33712	2023-09-23T22:51:25	10	90.5
33713	2023-09-23T23:01:25	9.9	90.5
33714	2023-09-23T23:11:25	9.9	91
33715	2023-09-23T23:21:25	9.7	90.5
33716	2023-09-23T23:31:25	9.6	91
33717	2023-09-23T23:41:25	9.5	91
33718	2023-09-23T23:51:25	9.4	91.5
33719	2023-09-24T00:01:25	9.2	91
33720	2023-09-24T00:11:25	9.2	91
33721	2023-09-24T00:21:25	9.1	92
33722	2023-09-24T00:31:25	8.9	92
33723	2023-09-24T00:41:25	8.8	92.5
33724	2023-09-24T00:51:25	8.7	92
33725	2023-09-24T01:01:25	8.6	91.5
33726	2023-09-24T01:11:25	8.6	91.5
33727	2023-09-24T01:21:25	8.4	92
33728	2023-09-24T01:31:25	8.4	92
33729	2023-09-24T01:41:25	8.2	92
33730	2023-09-24T01:51:25	8.2	92
33731	2023-09-24T02:01:25	8	92.5
33732	2023-09-24T02:11:25	8	93
33733	2023-09-24T02:21:25	7.9	93
33734	2023-09-24T02:31:24	7.8	92.5
33735	2023-09-24T02:41:25	7.7	92.5
33736	2023-09-24T02:51:24	7.6	92.5
33737	2023-09-24T03:01:24	7.5	93
33738	2023-09-24T03:11:24	7.5	93.5
33739	2023-09-24T03:21:24	7.3	93.5
33740	2023-09-24T03:31:24	7.4	94
33741	2023-09-24T03:41:24	7.2	94
33742	2023-09-24T03:51:24	7.1	93.5
33743	2023-09-24T04:01:24	7	94
33744	2023-09-24T04:11:24	7	94
33745	2023-09-24T04:21:24	6.9	94
33746	2023-09-24T04:31:24	6.8	93.5
33747	2023-09-24T04:41:24	6.8	94.5
33748	2023-09-24T04:51:24	6.7	94.5
33749	2023-09-24T05:01:25	6.7	93.5
33750	2023-09-24T05:11:24	6.5	94
33751	2023-09-24T05:21:24	6.5	94
33752	2023-09-24T05:31:24	6.5	94.5
33753	2023-09-24T05:41:24	6.4	94.5
33754	2023-09-24T05:51:24	6.5	94.5
33755	2023-09-24T06:01:24	6.7	94.5
33756	2023-09-24T06:11:24	6.9	94.5
33757	2023-09-24T06:21:24	7	94.5
33758	2023-09-24T06:31:24	7.2	95
33759	2023-09-24T06:41:24	7.5	95
33760	2023-09-24T06:51:24	7.7	95.5
33761	2023-09-24T07:01:24	7.9	96.5
33762	2023-09-24T07:11:24	8.1	97
33763	2023-09-24T07:21:24	8.6	97
33764	2023-09-24T07:31:24	8.8	97
33765	2023-09-24T07:41:24	8.9	96
33766	2023-09-24T07:51:24	9.3	96.5
33767	2023-09-24T08:01:24	9.8	95.5
33768	2023-09-24T08:11:24	10.3	94.5
33769	2023-09-24T08:21:24	10.5	94
33770	2023-09-24T08:31:24	10.7	94.5
33771	2023-09-24T08:41:24	11.1	93
33772	2023-09-24T08:51:24	11.4	92
33773	2023-09-24T09:01:24	11.8	90
33774	2023-09-24T09:11:24	12.2	89
33775	2023-09-24T09:21:24	12.5	88
33776	2023-09-24T09:31:24	12.8	86.5
33777	2023-09-24T09:41:24	13.1	85.5
33778	2023-09-24T09:51:24	13.5	84
33779	2023-09-24T10:01:24	13.7	82.5
33780	2023-09-24T10:11:24	14.1	79.5
33781	2023-09-24T10:21:24	14.4	77
33782	2023-09-24T10:31:24	14.8	74
33783	2023-09-24T10:41:24	15.1	72
33784	2023-09-24T10:51:24	15.3	70.5
33785	2023-09-24T11:01:24	15.6	69.5
33786	2023-09-24T11:11:24	16.2	67.5
33787	2023-09-24T11:21:24	16.5	65.5
33788	2023-09-24T11:31:24	16.8	65
33789	2023-09-24T11:41:24	17.4	63
33790	2023-09-24T11:51:24	18.3	55.5
33791	2023-09-24T12:01:24	21.2	51.5
33792	2023-09-24T12:11:24	25.5	41
33793	2023-09-24T12:21:24	27.2	33.5
33794	2023-09-24T12:31:24	28.8	31
33795	2023-09-24T12:41:24	29.7	29
33796	2023-09-24T12:51:24	30.9	28.5
33797	2023-09-24T13:01:24	32	25.5
33798	2023-09-24T13:11:24	33.2	25
33799	2023-09-24T13:21:24	33.9	24.5
33800	2023-09-24T13:31:24	35.4	23.5
33801	2023-09-24T13:41:24	36	22.5
33802	2023-09-24T13:51:24	35.9	22
33803	2023-09-24T14:01:24	35.8	22
33804	2023-09-24T14:11:24	36.3	20.5
33805	2023-09-24T14:21:24	36.8	21
33806	2023-09-24T14:41:24	37.7	18
33807	2023-09-24T14:51:24	37.8	19
33808	2023-09-24T15:01:24	38.4	19.5
33809	2023-09-24T15:11:24	37.3	19.5
33810	2023-09-24T15:21:24	37.5	19.5
33811	2023-09-24T15:31:24	37.5	19
33812	2023-09-24T15:41:24	37	20
33813	2023-09-24T15:51:24	36.5	20
33814	2023-09-24T16:01:24	35.7	21
33815	2023-09-24T16:11:24	29.6	26.5
33816	2023-09-24T16:21:23	28	30.5
33817	2023-09-24T16:31:24	27.5	33.5
33818	2023-09-24T16:41:24	25.6	35.5
33819	2023-09-24T16:51:23	24.3	36.5
33820	2023-09-24T17:01:23	23.4	40.5
33821	2023-09-24T17:11:23	22.6	43.5
33822	2023-09-24T17:21:23	21.8	45.5
33823	2023-09-24T17:31:23	21.4	47.5
33824	2023-09-24T17:41:23	20.5	51.5
33825	2023-09-24T17:51:23	20	53.5
33826	2023-09-24T18:01:23	19.7	55.5
33827	2023-09-24T18:11:23	18.8	57
33828	2023-09-24T18:21:23	18.3	58
33829	2023-09-24T18:31:23	18.1	59.5
33830	2023-09-24T18:41:23	17.5	60.5
33831	2023-09-24T18:51:23	17.1	61
33832	2023-09-24T19:01:23	16.7	62
33833	2023-09-24T19:11:23	16.3	63.5
33834	2023-09-24T19:21:23	16.3	64
33835	2023-09-24T19:31:23	15.5	64
33836	2023-09-24T19:41:23	15.3	65
33837	2023-09-24T19:51:23	15	66.5
33838	2023-09-24T20:01:23	14.9	67
33839	2023-09-24T20:11:23	14.5	69
33840	2023-09-24T20:21:23	14.4	69
33841	2023-09-24T20:31:23	14.1	69.5
33842	2023-09-24T20:41:23	14	70.5
33843	2023-09-24T20:51:23	13.8	70
33844	2023-09-24T21:21:23	13.8	66
33845	2023-09-24T21:31:23	13.6	65.5
33846	2023-09-24T21:41:23	13.5	65
33847	2023-09-24T21:51:23	13.5	64.5
33848	2023-09-24T22:01:23	13.4	64
33849	2023-09-24T22:11:23	13.4	63
33850	2023-09-24T22:21:23	13.4	62.5
33851	2023-09-24T22:31:23	12.8	68
33852	2023-09-24T22:41:23	12.4	69.5
33853	2023-09-24T22:51:23	12.2	71
33854	2023-09-24T23:01:23	11.9	71.5
33855	2023-09-24T23:11:23	11.7	74
33856	2023-09-24T23:21:23	11.4	74.5
33857	2023-09-24T23:31:23	11.2	74.5
33858	2023-09-24T23:41:23	11.1	75.5
33859	2023-09-24T23:51:23	11.1	75.5
33860	2023-09-25T00:01:23	11	75
33861	2023-09-25T00:11:41	10.8	75.5
33862	2023-09-25T00:21:23	10.7	76.5
33863	2023-09-25T00:31:23	10.5	77
33864	2023-09-25T00:41:23	10.4	77
33865	2023-09-25T00:51:23	10.1	77.5
33866	2023-09-25T01:01:23	10	78.5
33867	2023-09-25T01:11:23	9.9	79
33868	2023-09-25T01:21:23	9.7	79.5
33869	2023-09-25T01:31:23	9.7	79
33870	2023-09-25T01:41:23	9.7	80
33871	2023-09-25T01:51:23	9.4	80
33872	2023-09-25T02:01:23	9.3	80.5
33873	2023-09-25T02:11:23	9.5	80
33874	2023-09-25T02:21:23	9.4	80
33875	2023-09-25T02:31:23	9.3	81
33876	2023-09-25T02:41:23	9.2	81
33877	2023-09-25T02:51:23	8.9	82.5
33878	2023-09-25T03:01:23	8.8	83
33879	2023-09-25T03:11:23	8.7	83.5
33880	2023-09-25T03:21:23	8.7	83
33881	2023-09-25T03:31:23	8.5	83.5
33882	2023-09-25T03:41:23	8.2	85
33883	2023-09-25T03:51:23	8	85
33884	2023-09-25T04:01:23	7.9	85.5
33885	2023-09-25T04:11:23	7.7	86
33886	2023-09-25T04:21:23	7.7	86.5
33887	2023-09-25T04:31:23	7.7	87
33888	2023-09-25T04:41:23	7.7	87.5
33889	2023-09-25T04:51:23	7.6	88
33890	2023-09-25T05:01:23	7.5	87.5
33891	2023-09-25T05:11:23	7.3	87.5
33892	2023-09-25T05:21:23	7.2	88.5
33893	2023-09-25T05:31:23	7.1	88.5
33894	2023-09-25T05:41:23	7.1	87.5
33895	2023-09-25T05:51:23	7.1	88
33896	2023-09-25T06:01:23	7.2	88.5
33897	2023-09-25T06:11:23	7.2	88.5
33898	2023-09-25T06:21:23	7.4	89.5
33899	2023-09-25T06:31:23	7.6	90
33900	2023-09-25T06:41:23	7.9	90
33901	2023-09-25T06:51:23	8.2	90
33902	2023-09-25T07:01:22	8.3	90.5
33903	2023-09-25T07:11:23	8.8	88.5
33904	2023-09-25T07:21:23	9	89
33905	2023-09-25T07:31:22	9.2	88
33906	2023-09-25T07:41:22	9.4	87
33907	2023-09-25T07:51:22	9.5	87
33908	2023-09-25T08:01:22	9.8	86.5
33909	2023-09-25T08:11:22	10.2	85
33910	2023-09-25T08:21:22	10.4	84
33911	2023-09-25T08:31:22	10.7	83
33912	2023-09-25T08:41:22	11.1	81.5
33913	2023-09-25T08:51:22	11.2	82
33914	2023-09-25T09:01:22	11.4	82.5
33915	2023-09-25T09:11:22	11.5	81.5
33916	2023-09-25T09:21:22	12.1	80
33917	2023-09-25T09:31:22	12.1	79.5
33918	2023-09-25T09:41:22	12.7	78
33919	2023-09-25T09:51:22	13.2	74.5
33920	2023-09-25T10:01:22	13.7	72.5
33921	2023-09-25T10:11:22	13.8	73
33922	2023-09-25T10:21:22	14	73
33923	2023-09-25T10:31:22	14.7	69.5
33924	2023-09-25T10:41:22	15.2	68.5
33925	2023-09-25T10:51:22	15.6	66
33926	2023-09-25T11:01:22	15.9	65.5
33927	2023-09-25T11:11:22	16.1	66
33928	2023-09-25T11:21:22	16.6	63
33929	2023-09-25T11:31:22	17.2	60
33930	2023-09-25T11:41:22	17.6	62
33931	2023-09-25T11:51:22	18.5	59
33932	2023-09-25T12:01:22	21.9	48.5
33933	2023-09-25T12:11:22	25.7	39.5
33934	2023-09-25T12:21:22	28.5	35
33935	2023-09-25T12:31:22	29.7	33
33936	2023-09-25T12:41:22	31.6	30.5
33937	2023-09-25T12:51:22	32.8	27.5
33938	2023-09-25T13:01:22	33.5	25.5
33939	2023-09-25T13:11:22	34.7	25.5
33940	2023-09-25T13:21:22	35.5	25
33941	2023-09-25T13:31:22	36.3	24
33942	2023-09-25T13:41:22	36.2	23.5
33943	2023-09-25T13:51:22	37	23.5
33944	2023-09-25T14:01:22	37.7	22.5
33945	2023-09-25T14:11:22	39.3	21
33946	2023-09-25T14:21:22	39.6	20.5
33947	2023-09-25T14:31:22	40	20.5
33948	2023-09-25T14:41:22	39.8	20
33949	2023-09-25T14:51:22	39.7	20.5
33950	2023-09-25T15:01:22	40	20
33951	2023-09-25T15:11:22	39.9	20
33952	2023-09-25T15:21:22	39	20.5
33953	2023-09-25T15:31:22	37.8	21
33954	2023-09-25T15:41:22	37.5	21.5
33955	2023-09-25T15:51:22	34.9	23.5
33956	2023-09-25T16:01:22	35	24
33957	2023-09-25T16:11:22	30.2	30.5
33958	2023-09-25T16:21:22	28.6	33.5
33959	2023-09-25T16:31:22	28.7	35
33960	2023-09-25T16:41:22	26.8	38.5
33961	2023-09-25T16:51:22	25.7	41
33962	2023-09-25T17:01:22	24.6	45
33963	2023-09-25T17:11:22	23.9	46.5
33964	2023-09-25T17:21:22	23	50
33965	2023-09-25T17:31:22	22.7	50.5
33966	2023-09-25T17:41:22	22.2	52.5
33967	2023-09-25T17:51:22	21.5	54.5
33968	2023-09-25T18:01:22	21	57.5
33969	2023-09-25T18:11:22	20.5	58.5
33970	2023-09-25T18:31:22	19.6	61
33971	2023-09-25T18:41:22	19	61.5
33972	2023-09-25T18:51:21	18.7	63
33973	2023-09-25T19:01:21	18.5	64
33974	2023-09-25T19:11:21	18.1	65
33975	2023-09-25T19:21:21	17.9	65.5
33976	2023-09-25T19:31:21	17.6	66.5
33977	2023-09-25T19:41:21	17.4	67
33978	2023-09-25T19:51:21	17	68
33979	2023-09-25T20:01:21	16.9	69
33980	2023-09-25T20:11:21	16.6	69.5
33981	2023-09-25T20:21:21	16.5	70
33982	2023-09-25T20:31:21	16.3	70
33983	2023-09-25T20:41:21	16.2	70.5
33984	2023-09-25T20:51:21	15.8	71.5
33985	2023-09-25T21:01:21	15.6	72
33986	2023-09-25T21:11:21	15.4	73
33987	2023-09-25T21:21:21	15	74
33988	2023-09-25T21:31:21	14.8	74
33989	2023-09-25T21:41:21	14.5	74.5
33990	2023-09-25T21:51:21	14.2	75.5
33991	2023-09-25T22:01:21	14.1	77
33992	2023-09-25T22:11:21	13.9	77
33993	2023-09-25T22:21:21	13.8	77.5
33994	2023-09-25T22:31:21	13.7	77.5
33995	2023-09-25T22:41:21	13	80.5
33996	2023-09-25T22:51:21	13	80.5
33997	2023-09-25T23:01:21	13	81
33998	2023-09-25T23:11:21	12.7	81.5
33999	2023-09-25T23:21:21	12.7	81.5
34000	2023-09-25T23:31:21	12.4	82
34001	2023-09-25T23:41:21	12.3	81.5
34002	2023-09-25T23:51:21	12.1	81
34003	2023-09-26T00:01:21	11.8	81.5
34004	2023-09-26T00:11:21	11.8	82
34005	2023-09-26T00:21:21	11.7	83
34006	2023-09-26T00:31:21	11.6	83.5
34007	2023-09-26T00:41:21	11.5	82
34008	2023-09-26T00:51:21	11.3	82.5
34009	2023-09-26T01:01:21	11.1	83.5
34010	2023-09-26T01:11:21	11	83.5
34011	2023-09-26T01:21:21	11	82.5
34012	2023-09-26T01:31:21	10.8	84
34013	2023-09-26T01:41:21	10.6	84
34014	2023-09-26T01:51:21	10.6	84
34015	2023-09-26T02:01:21	10.4	85
34016	2023-09-26T02:11:21	10.3	85
34017	2023-09-26T02:21:21	10.2	85.5
34018	2023-09-26T02:31:21	10.2	86
34019	2023-09-26T02:41:21	10	86
34020	2023-09-26T02:51:21	9.9	86
34021	2023-09-26T03:01:21	9.9	85.5
34022	2023-09-26T03:11:21	9.7	86.5
34023	2023-09-26T03:21:21	9.6	87
34024	2023-09-26T03:31:21	9.5	87
34025	2023-09-26T03:41:21	9.3	87
34026	2023-09-26T03:51:21	9.3	87
34027	2023-09-26T04:01:21	9.2	87
34028	2023-09-26T04:11:21	9.1	87.5
34029	2023-09-26T04:21:21	9.1	88
34030	2023-09-26T04:31:21	8.9	88
34031	2023-09-26T04:41:21	8.8	87.5
34032	2023-09-26T04:51:21	8.8	87.5
34033	2023-09-26T05:01:21	8.7	88.5
34034	2023-09-26T05:11:21	8.6	89
34035	2023-09-26T05:21:21	8.7	88
34036	2023-09-26T05:31:21	8.6	88
34037	2023-09-26T05:41:21	8.5	88.5
34038	2023-09-26T05:51:21	8.4	89
34039	2023-09-26T06:01:21	8.5	89.5
34040	2023-09-26T06:11:21	8.9	89.5
34041	2023-09-26T06:21:21	8.9	89
34042	2023-09-26T06:31:21	9	90
34043	2023-09-26T06:41:21	9.2	90.5
34044	2023-09-26T06:51:21	9.4	92
34045	2023-09-26T07:01:21	9.7	92
34046	2023-09-26T07:11:21	10	93.5
34047	2023-09-26T07:21:21	10.4	94
34048	2023-09-26T07:31:21	10.6	93.5
34049	2023-09-26T07:41:21	10.9	93.5
34050	2023-09-26T07:51:21	11.3	93
34051	2023-09-26T08:01:21	11.5	92.5
34052	2023-09-26T08:11:21	11.6	92.5
34053	2023-09-26T08:21:21	11.8	92
34054	2023-09-26T08:31:21	12.2	92
34055	2023-09-26T08:41:21	12.4	92
34056	2023-09-26T08:51:21	12.6	91
34057	2023-09-26T09:01:21	12.8	89.5
34058	2023-09-26T09:11:21	13.1	87
34059	2023-09-26T09:21:20	13.7	85.5
34060	2023-09-26T09:31:20	14.2	84.5
34061	2023-09-26T09:41:20	14.1	84
34062	2023-09-26T09:51:20	14.8	82
34063	2023-09-26T10:01:20	15.2	80
34064	2023-09-26T10:11:20	15.5	80.5
34065	2023-09-26T10:21:20	15.4	80.5
34066	2023-09-26T10:31:20	16	79
34067	2023-09-26T10:41:20	16.2	78.5
34068	2023-09-26T10:51:20	16.7	76
34069	2023-09-26T11:01:20	16.9	74.5
34070	2023-09-26T11:11:20	17.1	75
34071	2023-09-26T11:21:20	17.5	72
34072	2023-09-26T11:31:20	17.8	71.5
34073	2023-09-26T11:41:20	18.5	70
34074	2023-09-26T11:51:20	19.3	67
34075	2023-09-26T12:01:20	22.9	57
34076	2023-09-26T12:11:20	27	46.5
34077	2023-09-26T12:21:20	29.6	40
34078	2023-09-26T12:31:20	31.3	36.5
34079	2023-09-26T12:41:20	33.2	32.5
34080	2023-09-26T12:51:20	33.7	31.5
34081	2023-09-26T13:01:20	35.3	30
34082	2023-09-26T13:11:20	35.8	28.5
34083	2023-09-26T13:21:20	36.9	26.5
34084	2023-09-26T13:31:20	37.3	26.5
34085	2023-09-26T13:41:22	38.6	25
34086	2023-09-26T13:51:20	38.9	26
34087	2023-09-26T14:01:20	38.3	26.5
34088	2023-09-26T14:11:20	38.6	26
34089	2023-09-26T14:21:20	39.2	25.5
34090	2023-09-26T14:31:20	39.5	24.5
34091	2023-09-26T14:41:20	39.2	25
34092	2023-09-26T14:51:20	38.1	25.5
34093	2023-09-26T15:01:20	39.2	24.5
34094	2023-09-26T15:11:20	38.7	24
34095	2023-09-26T15:21:20	38.3	25
34096	2023-09-26T15:31:20	38.3	25
34097	2023-09-26T15:41:20	37.5	24.5
34098	2023-09-26T15:51:20	37.3	25.5
34099	2023-09-26T16:01:20	35.9	28
34100	2023-09-26T16:11:20	32	33.5
34101	2023-09-26T16:21:20	30.2	37.5
34102	2023-09-26T16:31:20	29.7	38.5
34103	2023-09-26T16:41:20	28.1	43.5
34104	2023-09-26T16:51:20	27.2	46.5
34105	2023-09-26T17:01:20	26.3	51.5
34106	2023-09-26T17:11:20	25.4	53
34107	2023-09-26T17:21:20	24.5	53.5
34108	2023-09-26T17:31:20	23.7	56
34109	2023-09-26T17:41:20	23.2	57.5
34110	2023-09-26T17:51:20	22.7	59
34111	2023-09-26T18:01:20	22.1	62
34112	2023-09-26T18:11:20	21.8	63
34113	2023-09-26T18:21:20	21.4	63
34114	2023-09-26T18:31:20	20.9	63.5
34115	2023-09-26T18:41:20	20.3	65.5
34116	2023-09-26T18:51:20	20.2	66
34117	2023-09-26T19:01:20	19.9	67
34118	2023-09-26T19:21:20	19.3	68
34119	2023-09-26T19:31:20	19	69.5
34120	2023-09-26T19:41:20	18.8	70
34121	2023-09-26T19:51:19	18.6	71
34122	2023-09-26T20:01:19	18.3	71
34123	2023-09-26T20:11:19	18	71.5
34124	2023-09-26T20:21:19	17.7	72.5
34125	2023-09-26T20:31:19	17.6	73.5
34126	2023-09-26T20:41:19	17.3	74
34127	2023-09-26T20:51:19	16.9	74.5
34128	2023-09-26T21:01:19	16.6	75.5
34129	2023-09-26T21:11:19	16.6	75.5
34130	2023-09-26T21:21:19	16.4	75
34131	2023-09-26T21:31:19	16.2	75.5
34132	2023-09-26T21:41:19	16	77
34133	2023-09-26T21:51:19	16	76.5
34134	2023-09-26T22:01:19	15.6	78.5
34135	2023-09-26T22:11:19	15.4	79
34136	2023-09-26T22:21:19	15.4	78.5
34137	2023-09-26T22:31:19	15.2	79
34138	2023-09-26T22:41:19	15.1	80
34139	2023-09-26T22:51:19	14.9	81
34140	2023-09-26T23:01:19	14.8	80.5
34141	2023-09-26T23:11:19	14.9	80
34142	2023-09-26T23:21:19	14.7	80.5
34143	2023-09-26T23:31:20	14.5	81
34144	2023-09-26T23:41:19	14.5	81
34145	2023-09-26T23:51:19	14.2	81
34146	2023-09-27T00:01:19	13.9	82.5
34147	2023-09-27T00:11:20	13.7	82.5
34148	2023-09-27T00:21:19	13.6	82.5
34149	2023-09-27T00:31:19	13.5	83.5
34150	2023-09-27T00:41:19	13.3	84
34151	2023-09-27T00:51:19	13.3	83
34152	2023-09-27T01:01:19	13.3	83
34153	2023-09-27T01:11:19	13	84
34154	2023-09-27T01:21:19	12.8	84
34155	2023-09-27T01:31:19	12.6	84.5
34156	2023-09-27T01:41:19	12.6	85
34157	2023-09-27T01:51:19	12.5	85.5
34158	2023-09-27T02:01:19	12.2	86.5
34159	2023-09-27T02:11:19	12.2	87
34160	2023-09-27T02:21:19	12.2	87.5
34161	2023-09-27T02:31:19	11.9	88
34162	2023-09-27T02:41:19	12.1	89
34163	2023-09-27T02:51:19	12.1	89
34164	2023-09-27T03:01:19	12	87.5
34165	2023-09-27T03:11:19	11.6	87.5
34166	2023-09-27T03:21:19	11.4	87.5
34167	2023-09-27T03:31:19	11.4	87.5
34168	2023-09-27T03:41:19	11.3	87
34169	2023-09-27T03:51:19	11.2	88.5
34170	2023-09-27T04:01:19	11.2	88.5
34171	2023-09-27T04:11:19	11	87
34172	2023-09-27T04:21:19	10.8	88
34173	2023-09-27T04:31:19	10.9	90
34174	2023-09-27T04:41:19	10.6	89
34175	2023-09-27T04:51:19	10.5	89.5
34176	2023-09-27T05:01:19	10.4	90
34177	2023-09-27T05:11:19	10.1	90.5
34178	2023-09-27T05:21:19	10.3	90.5
34179	2023-09-27T05:31:19	10.2	91
34180	2023-09-27T05:41:19	10.3	90.5
34181	2023-09-27T05:51:19	10.3	90.5
34182	2023-09-27T06:01:19	10.2	90.5
34183	2023-09-27T06:11:19	10.4	91
34184	2023-09-27T06:21:19	10.6	92.5
34185	2023-09-27T06:31:19	10.8	93
34186	2023-09-27T06:41:19	11.1	93.5
34187	2023-09-27T06:51:19	11.3	93.5
34188	2023-09-27T07:01:19	11.6	94.5
34189	2023-09-27T07:11:19	12	95
34190	2023-09-27T07:21:19	12.2	94.5
34191	2023-09-27T07:31:19	12.4	94
34192	2023-09-27T07:41:19	12.7	93.5
34193	2023-09-27T07:51:19	13	92
34194	2023-09-27T08:01:19	13.3	92
34195	2023-09-27T08:11:19	13.5	91.5
34196	2023-09-27T08:21:19	13.6	92
34197	2023-09-27T08:31:19	14	90.5
34198	2023-09-27T08:41:19	14.5	89
34199	2023-09-27T08:51:19	14.8	89
34200	2023-09-27T09:01:18	15.2	88
34201	2023-09-27T09:11:18	15.6	87.5
34202	2023-09-27T09:21:19	15.7	86.5
34203	2023-09-27T09:31:18	16	86.5
34204	2023-09-27T09:41:18	16.3	84.5
34205	2023-09-27T09:51:18	16.5	84.5
34206	2023-09-27T10:01:18	16.8	83
34207	2023-09-27T10:11:18	17.1	82.5
34208	2023-09-27T10:21:19	17.6	79
34209	2023-09-27T10:31:18	18	77
34210	2023-09-27T10:41:18	18.5	76
34211	2023-09-27T10:51:18	18.7	74.5
34212	2023-09-27T11:01:18	19.1	72
34213	2023-09-27T11:11:18	19.5	73
34214	2023-09-27T11:21:18	20.1	70.5
34215	2023-09-27T11:31:18	20.7	68.5
34216	2023-09-27T11:41:18	21.6	67
34217	2023-09-27T11:51:18	22.4	63
34218	2023-09-27T12:01:18	25.6	53.5
34219	2023-09-27T12:11:18	27.6	48.5
34220	2023-09-27T12:21:18	30.6	43
34221	2023-09-27T12:31:18	33	37
34222	2023-09-27T12:41:18	34.7	34
34223	2023-09-27T12:51:18	35.9	32.5
34224	2023-09-27T13:01:18	37.4	29.5
34225	2023-09-27T13:11:18	38	29.5
34226	2023-09-27T13:21:18	39.4	27.5
34227	2023-09-27T13:31:18	39.1	26.5
34228	2023-09-27T13:41:18	39.9	25.5
34229	2023-09-27T13:51:18	40.5	24
34230	2023-09-27T14:01:18	41.3	23.5
34231	2023-09-27T14:11:18	42	22.5
34232	2023-09-27T14:21:18	41.6	23
34233	2023-09-27T14:31:18	42.4	22
34234	2023-09-27T14:41:18	42.5	21.5
34235	2023-09-27T14:51:18	42.5	21.5
34236	2023-09-27T15:01:18	42.6	21.5
34237	2023-09-27T15:11:18	42.5	21
34238	2023-09-27T15:21:18	41.8	21
34239	2023-09-27T15:31:18	39	24.5
34240	2023-09-27T15:41:18	38.1	24.5
34241	2023-09-27T15:51:18	38.1	25
34242	2023-09-27T16:01:18	37.1	26
34243	2023-09-27T16:11:18	33.8	31
34244	2023-09-27T16:21:18	31.9	33.5
34245	2023-09-27T16:41:18	29.5	41.5
34246	2023-09-27T16:51:18	27.5	48
34247	2023-09-27T17:01:18	26.6	50
34248	2023-09-27T17:11:18	25.8	50
34249	2023-09-27T17:21:18	25.1	51.5
34250	2023-09-27T17:31:18	24.2	53.5
34251	2023-09-27T17:41:18	23.9	54.5
34252	2023-09-27T17:51:18	23.2	57
34253	2023-09-27T18:01:18	22.8	58
34254	2023-09-27T18:11:18	22.5	60
34255	2023-09-27T18:21:18	22	61.5
34256	2023-09-27T18:31:18	21.6	63
34257	2023-09-27T18:41:18	21.3	63
34258	2023-09-27T18:51:18	20.8	64
34259	2023-09-27T19:01:18	20.5	65
34260	2023-09-27T19:11:18	20.2	66
34261	2023-09-27T19:21:18	19.9	66.5
34262	2023-09-27T19:31:18	19.8	67.5
34263	2023-09-27T19:41:18	19.6	66.5
34264	2023-09-27T19:51:18	19.1	67.5
34265	2023-09-27T20:01:18	18.9	68.5
34266	2023-09-27T20:11:17	18.6	69.5
34267	2023-09-27T20:21:17	18.4	70.5
34268	2023-09-27T20:31:17	18.2	70.5
34269	2023-09-27T20:41:17	17.8	71
34270	2023-09-27T20:51:17	17.4	72.5
34271	2023-09-27T21:01:17	17.4	72.5
34272	2023-09-27T21:11:17	17.2	74
34273	2023-09-27T21:21:17	17	74.5
34274	2023-09-27T21:31:17	16.9	75.5
34275	2023-09-27T21:41:17	16.6	75.5
34276	2023-09-27T21:51:17	16.5	76
34277	2023-09-27T22:01:17	16.3	76.5
34278	2023-09-27T22:11:17	16.3	75.5
34279	2023-09-27T22:21:17	16.1	76
34280	2023-09-27T22:31:17	16.1	76.5
34281	2023-09-27T22:41:17	16	77
34282	2023-09-27T22:51:17	15.9	77.5
34283	2023-09-27T23:01:37	15.8	78.5
34284	2023-09-27T23:11:17	15.7	79
34285	2023-09-27T23:21:17	15.6	79.5
34286	2023-09-27T23:31:17	15.6	79
34287	2023-09-27T23:41:17	15.4	79.5
34288	2023-09-27T23:51:17	15.4	80
34289	2023-09-28T00:01:17	15.1	80.5
34290	2023-09-28T00:11:17	15	81.5
34291	2023-09-28T00:21:17	15.1	82
34292	2023-09-28T00:31:17	15	82
34293	2023-09-28T00:41:17	15.1	83
34294	2023-09-28T00:51:17	14.9	83.5
34295	2023-09-28T01:01:17	14.9	83
34296	2023-09-28T01:11:17	14.8	83.5
34297	2023-09-28T01:31:17	14.8	84
34298	2023-09-28T01:41:17	14.8	84
34299	2023-09-28T01:51:17	14.7	85
34300	2023-09-28T02:01:17	14.7	85
34301	2023-09-28T02:11:17	14.7	85
34302	2023-09-28T02:21:17	14.6	85.5
34303	2023-09-28T02:31:17	14.5	86
34304	2023-09-28T02:41:17	14.5	86.5
34305	2023-09-28T02:51:17	14.6	87
34306	2023-09-28T03:01:17	14.6	87
34307	2023-09-28T03:11:17	14.6	86.5
34308	2023-09-28T03:21:17	14.7	87.5
34309	2023-09-28T03:31:17	14.5	87.5
34310	2023-09-28T03:41:17	14.5	87.5
34311	2023-09-28T03:51:17	14.4	87.5
34312	2023-09-28T04:01:17	14.5	88
34313	2023-09-28T04:11:17	14.2	88.5
34314	2023-09-28T04:21:17	14.1	88.5
34315	2023-09-28T04:31:17	13.7	90
34316	2023-09-28T04:41:17	13.5	91
34317	2023-09-28T04:51:17	13.5	91
34318	2023-09-28T05:01:17	13.3	91
34319	2023-09-28T05:11:17	13.2	91.5
34320	2023-09-28T05:21:17	13.2	91
34321	2023-09-28T05:31:17	13.1	90.5
34322	2023-09-28T05:41:17	13.1	90.5
34323	2023-09-28T05:51:17	13.1	90.5
34324	2023-09-28T06:01:17	13	91
34325	2023-09-28T06:11:17	13	91
34326	2023-09-28T06:21:17	13.1	91.5
34327	2023-09-28T06:31:17	13.3	91.5
34328	2023-09-28T06:41:17	13.4	90.5
34329	2023-09-28T06:51:17	13.7	90
34330	2023-09-28T07:01:17	13.9	89.5
34331	2023-09-28T07:11:17	14	89
34332	2023-09-28T07:21:17	14.8	85
34333	2023-09-28T07:31:17	14.8	84.5
34334	2023-09-28T07:41:17	15	84
34335	2023-09-28T07:51:17	15.3	82.5
34336	2023-09-28T08:01:17	15.7	81
34337	2023-09-28T08:11:17	15.8	81
34338	2023-09-28T08:21:17	16.1	77
34339	2023-09-28T08:31:16	16.1	80
34340	2023-09-28T08:41:17	16.4	78.5
34341	2023-09-28T08:51:16	16.5	78.5
34342	2023-09-28T09:01:17	17.1	76.5
34343	2023-09-28T09:11:16	17.4	75
34344	2023-09-28T09:21:16	17.9	74
34345	2023-09-28T09:31:16	18.4	75
34346	2023-09-28T09:41:16	19	70.5
34347	2023-09-28T09:51:16	19.2	71
34348	2023-09-28T10:01:17	19.6	70
34349	2023-09-28T10:11:16	19.8	71.5
34350	2023-09-28T10:21:17	20.4	68.5
34351	2023-09-28T10:31:16	20.8	67.5
34352	2023-09-28T10:41:16	21.3	62.5
34353	2023-09-28T10:51:16	21.5	61.5
34354	2023-09-28T11:01:16	21.9	60.5
34355	2023-09-28T11:11:16	22.3	58.5
34356	2023-09-28T11:21:16	22.5	59.5
34357	2023-09-28T11:31:16	23.2	52
34358	2023-09-28T11:41:16	23.9	51
34359	2023-09-28T11:51:16	24.7	49
34360	2023-09-28T12:01:16	27.3	41.5
34361	2023-09-28T12:11:16	28.4	39
34362	2023-09-28T12:21:16	30	36
34363	2023-09-28T12:31:16	31	32.5
34364	2023-09-28T12:41:16	32.3	30.5
34365	2023-09-28T12:51:16	32.9	30
34366	2023-09-28T13:01:16	32.8	33
34367	2023-09-28T13:11:16	32.9	31.5
34368	2023-09-28T13:21:16	34.7	29
34369	2023-09-28T13:31:16	35.5	28
34370	2023-09-28T13:41:16	36.3	28
34371	2023-09-28T14:01:16	35.8	27.5
34372	2023-09-28T14:11:16	37.4	25.5
34373	2023-09-28T14:21:16	37.9	26.5
34374	2023-09-28T14:31:16	40.2	24
34375	2023-09-28T14:41:16	39.1	24
34376	2023-09-28T15:01:16	39.2	24.5
34377	2023-09-28T15:11:16	38.8	25
34378	2023-09-28T15:21:16	40.6	24
34379	2023-09-28T15:31:16	40.2	24.5
34380	2023-09-28T15:41:16	39.3	25
34381	2023-09-28T15:51:16	37.7	27
34382	2023-09-28T16:01:16	37.3	27.5
34383	2023-09-28T16:11:16	34.9	32
34384	2023-09-28T16:21:16	32.4	38.5
34385	2023-09-28T16:31:16	31.4	42
34386	2023-09-28T16:41:16	29.9	44.5
34387	2023-09-28T17:01:16	27.8	48
34388	2023-09-28T17:11:16	26.9	51
34389	2023-09-28T17:21:16	26.3	54
34390	2023-09-28T17:31:16	25.8	56
34391	2023-09-28T17:51:16	24.8	57
34392	2023-09-28T18:01:16	24.4	57.5
34393	2023-09-28T18:11:16	24	58.5
34394	2023-09-28T18:21:16	23.5	59.5
34395	2023-09-28T18:31:16	23.2	60.5
34396	2023-09-28T18:41:16	22.6	61
34397	2023-09-28T18:51:16	22.3	62
34398	2023-09-28T19:01:16	22.1	63
34399	2023-09-28T19:11:15	21.9	63
34400	2023-09-28T19:21:15	21.7	63.5
34401	2023-09-28T19:31:15	21.4	65
34402	2023-09-28T19:41:15	21.1	65.5
34403	2023-09-28T19:51:15	20.8	66
34404	2023-09-28T20:01:15	20.6	67.5
34405	2023-09-28T20:11:15	20.4	68
34406	2023-09-28T20:21:15	20.1	68.5
34407	2023-09-28T20:31:15	19.8	68.5
34408	2023-09-28T20:41:15	19.3	71
34409	2023-09-28T20:51:15	19.4	71.5
34410	2023-09-28T21:01:15	18.9	72
34411	2023-09-28T21:11:15	18.9	72
34412	2023-09-28T21:21:15	18.7	73
34413	2023-09-28T21:31:15	18.5	74
34414	2023-09-28T21:41:15	18.5	74
34415	2023-09-28T21:51:15	18.5	74
34416	2023-09-28T22:01:15	18.3	75
34417	2023-09-28T22:11:15	18.1	75.5
34418	2023-09-28T22:21:15	17.8	75.5
34419	2023-09-28T22:31:15	17.7	75.5
34420	2023-09-28T22:41:15	17.6	77
34421	2023-09-28T22:51:15	17.2	78
34422	2023-09-28T23:01:15	16.9	79.5
34423	2023-09-28T23:11:15	16.9	79.5
34424	2023-09-28T23:21:15	16.7	79.5
34425	2023-09-28T23:31:15	16.4	80.5
34426	2023-09-28T23:41:15	16.4	81
34427	2023-09-28T23:51:15	16.3	80.5
34428	2023-09-29T00:01:15	16.2	80.5
34429	2023-09-29T00:11:15	16.1	80
34430	2023-09-29T00:21:15	15.8	80.5
34431	2023-09-29T00:31:15	15.7	81.5
34432	2023-09-29T00:41:15	15.6	81.5
34433	2023-09-29T00:51:15	15.6	82
34434	2023-09-29T01:01:15	15.5	81.5
34435	2023-09-29T01:11:15	15.6	81
34436	2023-09-29T01:21:15	15.5	81.5
34437	2023-09-29T01:31:15	15.2	82.5
34438	2023-09-29T01:41:15	15.2	82
34439	2023-09-29T01:51:15	15.2	82.5
34440	2023-09-29T02:01:15	15.2	82
34441	2023-09-29T02:11:15	15.4	82
34442	2023-09-29T02:21:15	15.6	82
34443	2023-09-29T02:31:15	15.6	82.5
34444	2023-09-29T02:41:15	15.7	82.5
34445	2023-09-29T02:51:15	15.8	83
34446	2023-09-29T03:01:15	15.7	83.5
34447	2023-09-29T03:11:15	15.7	83.5
34448	2023-09-29T03:21:15	15.8	84
34449	2023-09-29T03:31:15	15.8	84
34450	2023-09-29T03:41:15	15.6	84.5
34451	2023-09-29T03:51:15	15.8	84.5
34452	2023-09-29T04:01:15	15.9	84.5
34453	2023-09-29T04:11:15	15.8	85
34454	2023-09-29T04:21:15	15.8	85
34455	2023-09-29T04:31:15	15.9	85.5
34456	2023-09-29T04:41:15	15.8	85.5
34457	2023-09-29T04:51:15	15.8	85.5
34458	2023-09-29T05:01:15	15.7	86
34459	2023-09-29T05:11:15	15.8	86
34460	2023-09-29T05:21:15	15.8	86
34461	2023-09-29T05:31:15	15.9	86.5
34462	2023-09-29T05:41:15	15.7	86.5
34463	2023-09-29T05:51:15	15.6	87.5
34464	2023-09-29T06:01:15	15.7	87.5
34465	2023-09-29T06:11:15	15.9	87.5
34466	2023-09-29T06:21:14	16.1	87
34467	2023-09-29T06:31:14	16	87
34468	2023-09-29T06:41:15	16.2	87.5
34469	2023-09-29T06:51:15	16.4	87
34470	2023-09-29T07:01:14	16.8	85.5
34471	2023-09-29T07:11:14	16.8	85.5
34472	2023-09-29T07:21:14	16.8	86
34473	2023-09-29T07:31:14	16.9	86
34474	2023-09-29T07:41:14	16.8	86
34475	2023-09-29T07:51:14	16.8	85
34476	2023-09-29T08:01:14	17.2	82.5
34477	2023-09-29T08:11:14	17.5	81
34478	2023-09-29T08:21:14	18.1	78
34479	2023-09-29T08:31:14	18	78
34480	2023-09-29T08:36:08	18.3	78
34481	2023-09-29T08:46:08	18.5	77
34482	2023-09-29T08:56:08	18.8	77
34483	2023-09-29T09:06:08	19.1	77
34484	2023-09-29T09:16:08	19.1	77
34485	2023-09-29T09:26:08	19.5	77
34486	2023-09-29T09:36:08	19.8	76.5
34487	2023-09-29T09:46:08	20.4	74.5
34488	2023-09-29T09:56:08	21.2	72.5
34489	2023-09-29T10:06:08	22.1	67
34490	2023-09-29T10:16:08	23	63
34491	2023-09-29T10:26:08	23.7	61.5
34492	2023-09-29T10:36:08	24.1	58.5
34493	2023-09-29T10:46:08	24.5	57
34494	2023-09-29T10:56:08	24.8	57
34495	2023-09-29T11:06:08	25.1	55
34496	2023-09-29T11:16:08	25.2	55
34497	2023-09-29T11:26:08	25.6	54
34498	2023-09-29T11:36:08	25.9	54
34499	2023-09-29T11:46:08	26.3	53
34500	2023-09-29T11:56:08	27.1	49
34501	2023-09-29T12:16:08	31.3	38.5
34502	2023-09-29T12:26:08	28.4	46.5
34503	2023-09-29T12:36:08	27.4	47.5
34504	2023-09-29T12:46:08	26.9	52
34505	2023-09-29T12:56:08	26.8	53
34506	2023-09-29T13:06:08	29.1	47.5
34507	2023-09-29T13:16:08	30.4	45
34508	2023-09-29T13:26:08	27.6	51
34509	2023-09-29T13:36:08	27.2	52
34510	2023-09-29T13:46:08	27.5	51
34511	2023-09-29T13:56:08	26.6	53
34512	2023-09-29T14:06:08	25.8	52
34513	2023-09-29T14:16:08	25.1	54.5
34514	2023-09-29T14:26:08	24.8	54.5
34515	2023-09-29T14:36:08	24.7	54
34516	2023-09-29T14:46:08	24.7	55
34517	2023-09-29T14:56:08	24.5	55
34518	2023-09-29T15:06:08	24.7	54
34519	2023-09-29T15:16:08	24.7	52.5
34520	2023-09-29T15:26:08	24.1	54
34521	2023-09-29T15:36:08	23.8	53
34522	2023-09-29T15:46:08	23.7	55
34523	2023-09-29T15:56:08	23.2	55
34524	2023-09-29T16:06:08	23.1	55.5
34525	2023-09-29T16:16:08	22.9	57
34526	2023-09-29T16:26:08	22.7	56.5
34527	2023-09-29T16:36:08	22.5	57
34528	2023-09-29T16:46:08	22.1	58.5
34529	2023-09-29T16:56:07	21.8	58.5
34530	2023-09-29T17:06:07	21.5	59.5
34531	2023-09-29T17:16:07	21.1	61
34532	2023-09-29T17:26:07	20.7	62
34533	2023-09-29T17:36:07	20.6	63
34534	2023-09-29T17:46:07	20.4	64
34535	2023-09-29T17:56:07	20.6	63.5
34536	2023-09-29T18:06:07	20.8	63
34537	2023-09-29T18:26:07	20.7	64
34538	2023-09-29T18:36:07	20.7	65
34539	2023-09-29T18:46:07	20.4	66.5
34540	2023-09-29T18:56:07	20.1	68
34541	2023-09-29T19:06:07	19.9	69
34542	2023-09-29T19:16:07	19.6	70.5
34543	2023-09-29T19:26:07	19.6	72
34544	2023-09-29T19:36:07	19.5	72.5
34545	2023-09-29T19:46:07	19.3	74
34546	2023-09-29T19:56:07	19.1	75
34547	2023-09-29T20:06:07	18.6	75
34548	2023-09-29T20:16:07	18.2	77
34549	2023-09-29T20:26:07	18.2	78
34550	2023-09-29T20:36:07	18	78.5
34551	2023-09-29T20:46:07	17.9	79.5
34552	2023-09-29T20:56:07	17.7	80.5
34553	2023-09-29T21:06:07	17.7	80.5
34554	2023-09-29T21:16:07	17.8	81
34555	2023-09-29T21:26:07	17.7	81.5
34556	2023-09-29T21:36:08	17.6	81.5
34557	2023-09-29T21:46:07	17.3	82.5
34558	2023-09-29T21:56:07	17.4	82.5
34559	2023-09-29T22:06:07	17.3	82.5
34560	2023-09-29T22:16:07	17.4	82.5
34561	2023-09-29T22:26:07	17.4	82.5
34562	2023-09-29T22:36:07	17.2	83
34563	2023-09-29T22:46:07	16.9	84
34564	2023-09-29T22:56:07	16.8	84.5
34565	2023-09-29T23:06:07	17	83.5
34566	2023-09-29T23:16:07	17.3	82.5
34567	2023-09-29T23:26:07	17.4	82.5
34568	2023-09-29T23:36:07	17.6	82
34569	2023-09-29T23:46:07	17.5	82
34570	2023-09-29T23:56:07	17.6	81.5
34571	2023-09-30T00:06:07	17.6	82
34572	2023-09-30T00:16:07	17.5	82
34573	2023-09-30T00:26:07	17.6	82.5
34574	2023-09-30T00:36:07	17.6	82
34575	2023-09-30T00:46:07	17.1	83
34576	2023-09-30T00:56:07	17.2	84
34577	2023-09-30T01:06:07	17.1	84.5
34578	2023-09-30T01:16:07	17	85
34579	2023-09-30T01:26:07	16.9	85.5
34580	2023-09-30T01:36:07	16.9	85.5
34581	2023-09-30T01:46:07	16.8	85
34582	2023-09-30T01:56:07	17.1	84.5
34583	2023-09-30T02:06:07	16.9	85
34584	2023-09-30T02:16:07	16.9	85.5
34585	2023-09-30T02:26:07	17	85
34586	2023-09-30T02:36:07	16.8	84.5
34587	2023-09-30T02:46:07	16.7	85
34588	2023-09-30T02:56:07	16.6	85.5
34589	2023-09-30T03:06:07	16.5	86
34590	2023-09-30T03:16:07	16.5	86
34591	2023-09-30T03:26:07	16.5	85
34592	2023-09-30T03:36:07	16.3	86
34593	2023-09-30T03:46:07	16.1	86.5
34594	2023-09-30T03:56:07	16.1	86.5
34595	2023-09-30T04:06:07	16.1	86
34596	2023-09-30T04:16:07	16	86.5
34597	2023-09-30T04:26:06	15.8	85.5
34598	2023-09-30T04:36:06	15.9	85.5
34599	2023-09-30T04:46:06	16	85
34600	2023-09-30T04:56:06	15.8	85.5
34601	2023-09-30T05:06:06	15.8	86
34602	2023-09-30T05:16:06	15.5	87
34603	2023-09-30T05:26:06	15.1	87.5
34604	2023-09-30T05:36:06	15.1	88
34605	2023-09-30T05:46:06	15.1	87
34606	2023-09-30T05:56:06	14.9	86.5
34607	2023-09-30T06:06:06	14.9	87
34608	2023-09-30T06:16:06	15	86
34609	2023-09-30T06:26:06	15.2	85.5
34610	2023-09-30T06:36:06	15.7	84.5
34611	2023-09-30T06:46:06	15.9	83
34612	2023-09-30T06:56:06	15.5	84.5
34613	2023-09-30T07:06:06	15.5	84
34614	2023-09-30T07:16:06	15.8	83.5
34615	2023-09-30T07:26:06	16	83
34616	2023-09-30T07:36:06	16.1	81.5
34617	2023-09-30T07:46:06	16.2	81
34618	2023-09-30T07:56:06	16.3	80.5
34619	2023-09-30T08:06:06	16.6	80
34620	2023-09-30T08:16:06	16.7	79.5
34621	2023-09-30T08:26:06	16.8	80
34622	2023-09-30T08:36:06	17	79
34623	2023-09-30T08:46:06	17.2	78.5
34624	2023-09-30T08:56:06	17.4	78
34625	2023-09-30T09:06:06	17.6	77
34626	2023-09-30T09:16:06	17.8	77.5
34627	2023-09-30T09:26:06	18.1	76
34628	2023-09-30T09:36:06	18.3	72.5
34629	2023-09-30T09:46:06	18.6	70.5
34630	2023-09-30T09:56:06	18.9	70.5
34631	2023-09-30T10:06:06	19.3	69.5
34632	2023-09-30T10:16:06	19.6	67.5
34633	2023-09-30T10:26:06	20	67
34634	2023-09-30T10:36:06	20.3	66.5
34635	2023-09-30T10:46:06	20.4	65.5
34636	2023-09-30T10:56:06	20.7	63
34637	2023-09-30T11:06:06	20.9	62.5
34638	2023-09-30T11:16:06	21.3	60.5
34639	2023-09-30T11:26:06	22	57.5
34640	2023-09-30T11:36:06	22.9	56.5
34641	2023-09-30T11:46:06	23.6	53.5
34642	2023-09-30T11:56:06	23.4	53.5
34643	2023-09-30T12:06:06	25.2	48
34644	2023-09-30T12:16:06	27.5	41
34645	2023-09-30T12:26:06	29.9	38
34646	2023-09-30T12:36:06	29.7	37
34647	2023-09-30T12:46:06	31.9	32
34648	2023-09-30T12:56:06	31.4	33
34649	2023-09-30T13:06:06	28.1	39.5
34650	2023-09-30T13:16:06	27.3	39
34651	2023-09-30T13:26:06	27.8	39
34652	2023-09-30T13:36:06	29.4	35.5
34653	2023-09-30T13:56:06	27.7	37.5
34654	2023-09-30T14:06:06	26.8	38
34655	2023-09-30T14:16:06	31	31
34656	2023-09-30T14:26:06	33	27.5
34657	2023-09-30T14:36:06	33.1	27.5
34658	2023-09-30T14:46:06	34	27.5
34659	2023-09-30T14:56:06	34.1	26
34660	2023-09-30T15:06:06	34.2	25.5
34661	2023-09-30T15:16:05	33.9	26
34662	2023-09-30T15:26:05	33.3	26.5
34663	2023-09-30T15:36:05	32.8	27
34664	2023-09-30T15:46:05	31.9	27.5
34665	2023-09-30T15:56:05	31.1	29
34666	2023-09-30T16:06:05	30	32
34667	2023-09-30T16:16:05	27.8	37.5
34668	2023-09-30T16:26:05	26.4	41
34669	2023-09-30T16:36:05	25.6	42
34670	2023-09-30T16:46:05	24.5	46
34671	2023-09-30T16:56:05	23.9	48
34672	2023-09-30T17:06:05	23.1	52
34673	2023-09-30T17:16:05	22.3	54.5
34674	2023-09-30T17:26:05	21.9	57
34675	2023-09-30T17:36:05	21.2	58.5
34676	2023-09-30T17:46:05	20.7	59.5
34677	2023-09-30T17:56:05	20.4	61
34678	2023-09-30T18:06:05	20	62
34679	2023-09-30T18:16:05	19.6	62.5
34680	2023-09-30T18:26:05	19.3	64
34681	2023-09-30T18:36:05	18.8	65
34682	2023-09-30T18:46:05	18.4	65.5
34683	2023-09-30T18:56:05	18.4	66
34684	2023-09-30T19:06:05	18.1	67.5
34685	2023-09-30T19:16:05	17.8	67.5
34686	2023-09-30T19:26:05	17.5	69
34687	2023-09-30T19:36:05	17.3	69.5
34688	2023-09-30T19:46:05	17.3	70
34689	2023-09-30T19:56:05	16.9	70.5
34690	2023-09-30T20:06:05	16.7	71.5
34691	2023-09-30T20:16:05	16.5	71.5
34692	2023-09-30T20:26:05	16.4	72.5
34693	2023-09-30T20:36:05	16.2	73
34694	2023-09-30T20:46:05	16	73.5
34695	2023-09-30T20:56:05	15.8	74.5
34696	2023-09-30T21:06:05	15.7	74
34697	2023-09-30T21:16:05	15.3	75
34698	2023-09-30T21:26:05	15.2	76
34699	2023-09-30T21:36:05	15.1	76
34700	2023-09-30T21:46:05	14.6	79.5
34701	2023-09-30T21:56:05	14.6	79.5
34702	2023-09-30T22:06:05	14.4	79
34703	2023-09-30T22:16:05	14.1	79
34704	2023-09-30T22:26:05	14	79.5
34705	2023-09-30T22:36:05	13.8	80
34706	2023-09-30T22:46:05	13.7	81
34707	2023-09-30T22:56:05	13.5	81
34708	2023-09-30T23:06:05	13.4	81
34709	2023-09-30T23:16:05	13.4	81.5
34710	2023-09-30T23:26:05	13.3	80.5
34711	2023-09-30T23:36:05	13.1	81.5
34712	2023-09-30T23:46:05	13	81
34713	2023-09-30T23:56:05	12.7	82.5
34714	2023-10-01T00:06:05	12.7	81.5
34715	2023-10-01T00:16:05	12.6	82
34716	2023-10-01T00:26:05	12.5	82
34717	2023-10-01T00:36:05	12.3	82.5
34718	2023-10-01T00:46:05	12.2	83
34719	2023-10-01T01:06:05	11.8	83.5
34720	2023-10-01T01:16:05	11.8	83.5
34721	2023-10-01T01:26:05	11.6	84
34722	2023-10-01T01:36:05	11.6	83.5
34723	2023-10-01T01:46:05	11.5	84
34724	2023-10-01T01:56:05	11.5	84.5
34725	2023-10-01T02:06:05	11.4	84
34726	2023-10-01T02:16:05	11.2	84.5
34727	2023-10-01T02:26:05	11.2	84
34728	2023-10-01T02:36:05	11.2	84.5
34729	2023-10-01T02:46:04	11.1	84
34730	2023-10-01T02:56:05	10.9	84.5
34731	2023-10-01T03:06:04	10.8	85.5
34732	2023-10-01T03:16:04	10.7	86.5
34733	2023-10-01T03:26:04	10.6	86.5
34734	2023-10-01T03:36:04	10.5	86.5
34735	2023-10-01T03:46:04	10.4	86.5
34736	2023-10-01T03:56:04	10.3	87
34737	2023-10-01T04:06:04	10.4	87
34738	2023-10-01T04:16:04	10.2	86.5
34739	2023-10-01T04:26:04	10.2	86.5
34740	2023-10-01T04:36:04	10.1	87
34741	2023-10-01T04:46:04	10	87.5
34742	2023-10-01T04:56:04	10	87.5
34743	2023-10-01T05:06:04	9.8	87.5
34744	2023-10-01T05:16:04	9.8	88
34745	2023-10-01T05:26:04	9.7	88
34746	2023-10-01T05:36:04	9.7	88.5
34747	2023-10-01T05:46:04	9.7	88
34748	2023-10-01T05:56:04	9.7	88.5
34749	2023-10-01T06:06:04	9.7	89.5
34750	2023-10-01T06:16:04	9.8	89
34751	2023-10-01T06:26:04	9.9	89
34752	2023-10-01T06:36:04	10.2	89.5
34753	2023-10-01T06:46:04	10.3	90.5
34754	2023-10-01T06:56:04	10.6	91.5
34755	2023-10-01T07:06:04	10.9	92
34756	2023-10-01T07:16:04	11.2	92
34757	2023-10-01T07:26:04	11.5	92.5
34758	2023-10-01T07:36:04	11.9	92
34759	2023-10-01T07:46:04	12.3	90
34760	2023-10-01T07:56:04	12.6	89
34761	2023-10-01T08:06:04	12.8	89.5
34762	2023-10-01T08:16:04	13.1	88
34763	2023-10-01T08:26:04	13.4	86.5
34764	2023-10-01T08:36:04	13.8	86
34765	2023-10-01T08:46:04	14	85
34766	2023-10-01T08:56:04	14.2	84.5
34767	2023-10-01T09:06:04	14.7	83.5
34768	2023-10-01T09:16:04	15	82.5
34769	2023-10-01T09:26:04	15.1	82.5
34770	2023-10-01T09:36:04	15.8	81
34771	2023-10-01T09:46:04	15.7	80.5
34772	2023-10-01T09:56:04	15.8	80
34773	2023-10-01T10:06:04	16.1	79.5
34774	2023-10-01T10:16:04	16.4	78.5
34775	2023-10-01T10:26:04	16.8	75.5
34776	2023-10-01T10:36:04	17.3	73
34777	2023-10-01T10:46:04	17.5	73
34778	2023-10-01T10:56:04	18	70
34779	2023-10-01T11:06:04	18.1	72
34780	2023-10-01T11:16:04	18.5	70
34781	2023-10-01T11:26:04	19	67.5
34782	2023-10-01T11:36:04	19.6	66.5
34783	2023-10-01T11:46:04	20.4	63
34784	2023-10-01T11:56:04	22	57.5
34785	2023-10-01T12:06:04	26	46.5
34786	2023-10-01T12:16:04	28.8	41
34787	2023-10-01T12:26:04	31	37
34788	2023-10-01T12:36:04	33	34
34789	2023-10-01T12:46:04	33.6	31.5
34790	2023-10-01T12:56:04	34.6	30.5
34791	2023-10-01T13:06:04	36.7	28.5
34792	2023-10-01T13:16:04	37.4	27.5
34793	2023-10-01T13:26:04	38.4	25.5
34794	2023-10-01T13:36:04	39.3	24.5
34795	2023-10-01T13:46:04	39.9	24
34796	2023-10-01T13:56:04	40.9	23
34797	2023-10-01T14:06:04	41.3	23
34798	2023-10-01T14:16:04	40.4	23
34799	2023-10-01T14:26:04	37.9	25.5
34800	2023-10-01T14:36:04	37.9	25.5
34801	2023-10-01T14:56:04	37	27.5
34802	2023-10-01T15:06:04	36.9	27.5
34803	2023-10-01T15:16:04	37	26.5
34804	2023-10-01T15:26:04	37.8	26.5
34805	2023-10-01T15:36:04	37.2	27
34806	2023-10-01T15:46:04	37.5	27
34807	2023-10-01T15:56:04	36.2	28
34808	2023-10-01T16:16:03	31.7	35.5
34809	2023-10-01T16:26:03	29.7	40
34810	2023-10-01T16:36:03	28.6	43.5
34811	2023-10-01T16:46:03	27.8	47
34812	2023-10-01T16:56:03	26.9	50
34813	2023-10-01T17:06:03	26.1	52
34814	2023-10-01T17:16:03	25.4	53.5
34815	2023-10-01T17:26:03	24.7	55.5
34816	2023-10-01T17:36:03	24.2	56.5
34817	2023-10-01T17:46:03	23.6	58
34818	2023-10-01T17:56:03	23.1	59
34819	2023-10-01T18:06:03	22.6	60.5
34820	2023-10-01T18:16:03	22.3	61
34821	2023-10-01T18:26:03	21.6	63
34822	2023-10-01T18:36:03	21.2	63.5
34823	2023-10-01T18:46:03	20.9	64.5
34824	2023-10-01T18:56:03	20.6	65
34825	2023-10-01T19:06:03	20.3	66
34826	2023-10-01T19:16:03	20.1	66.5
34827	2023-10-01T19:26:03	19.7	67.5
34828	2023-10-01T19:36:03	19.4	68.5
34829	2023-10-01T19:46:03	19.1	69.5
34830	2023-10-01T19:56:03	18.9	69.5
34831	2023-10-01T20:06:03	18.6	70.5
34832	2023-10-01T20:16:03	18.2	72
34833	2023-10-01T21:26:03	16.6	75
34834	2023-10-01T21:36:03	16.4	75
34835	2023-10-01T21:46:03	16.3	74.5
34836	2023-10-01T22:06:03	15.6	77
34837	2023-10-01T22:16:03	15.5	78
34838	2023-10-01T22:26:03	15.3	78
34839	2023-10-01T22:36:03	15.3	76
34840	2023-10-01T22:46:03	15.1	77
34841	2023-10-01T22:56:03	14.9	78
34842	2023-10-01T23:06:03	14.6	78.5
34843	2023-10-01T23:16:03	14.5	78.5
34844	2023-10-01T23:26:03	14.5	79
34845	2023-10-01T23:36:03	14.4	78.5
34846	2023-10-01T23:46:03	14.2	79
34847	2023-10-01T23:56:03	14	80.5
34848	2023-10-02T00:06:03	13.9	80.5
34849	2023-10-02T00:16:03	13.8	80.5
34850	2023-10-02T00:26:03	13.6	80
34851	2023-10-02T00:36:03	13.6	80
34852	2023-10-02T00:46:03	13.4	80.5
34853	2023-10-02T00:56:03	13.4	81
34854	2023-10-02T01:06:03	13.3	81
34855	2023-10-02T01:16:03	13.2	81.5
34856	2023-10-02T01:26:03	13.2	82
34857	2023-10-02T01:36:03	13.2	81.5
34858	2023-10-02T01:46:03	12.9	82.5
34859	2023-10-02T01:56:03	12.9	82
34860	2023-10-02T02:06:03	12.9	82
34861	2023-10-02T02:16:03	12.7	82.5
34862	2023-10-02T02:26:03	12.6	83.5
34863	2023-10-02T02:36:03	12.5	84
34864	2023-10-02T02:46:03	12.4	84
34865	2023-10-02T02:56:03	12.3	84
34866	2023-10-02T03:06:03	12.1	84.5
34867	2023-10-02T03:16:03	12.1	84.5
34868	2023-10-02T03:26:02	12	84.5
34869	2023-10-02T03:36:02	12	85.5
34870	2023-10-02T03:46:02	12	85.5
34871	2023-10-02T03:56:02	11.9	86
34872	2023-10-02T04:06:02	11.9	86.5
34873	2023-10-02T04:16:02	11.8	86.5
34874	2023-10-02T04:26:02	11.6	86
34875	2023-10-02T04:36:02	11.5	86
34876	2023-10-02T04:46:03	11.5	86
34877	2023-10-02T04:56:02	11.5	87
34878	2023-10-02T05:06:02	11.4	87
34879	2023-10-02T05:16:02	11.3	86
34880	2023-10-02T05:26:02	11.2	87
34881	2023-10-02T05:36:02	11.3	87.5
34882	2023-10-02T05:46:02	11.3	87
34883	2023-10-02T05:56:02	11.4	87.5
34884	2023-10-02T06:06:02	11.3	88.5
34885	2023-10-02T06:16:02	11.3	88.5
34886	2023-10-02T06:26:02	11.6	89.5
34887	2023-10-02T06:36:02	11.8	89.5
34888	2023-10-02T06:46:02	11.9	89.5
34889	2023-10-02T06:56:02	12.1	90.5
34890	2023-10-02T07:06:02	12.4	90.5
34891	2023-10-02T07:16:02	12.7	91
34892	2023-10-02T07:26:02	12.8	92
34893	2023-10-02T07:36:02	13.1	91.5
34894	2023-10-02T07:46:02	13.5	91
34895	2023-10-02T07:56:02	13.6	91
34896	2023-10-02T08:06:02	14.3	90
34897	2023-10-02T08:16:02	14.9	88.5
34898	2023-10-02T08:26:02	15.4	86.5
34899	2023-10-02T08:36:02	15.8	85.5
34900	2023-10-02T08:46:02	16.3	84
34901	2023-10-02T08:56:02	16.7	81
34902	2023-10-02T09:06:02	17.1	80
34903	2023-10-02T09:16:02	17.3	79.5
34904	2023-10-02T09:26:02	17.5	79
34905	2023-10-02T09:36:02	17.8	77
34906	2023-10-02T09:46:02	18.3	76.5
34907	2023-10-02T09:56:02	18.7	75
34908	2023-10-02T10:06:02	19	75.5
34909	2023-10-02T10:16:02	19.5	72.5
34910	2023-10-02T10:26:02	19.8	70.5
34911	2023-10-02T10:36:02	20.4	69
34912	2023-10-02T10:46:02	20.9	65
34913	2023-10-02T10:56:02	21.1	63
34914	2023-10-02T11:06:02	21.4	64
34915	2023-10-02T11:16:02	21.9	61
34916	2023-10-02T11:26:02	22.2	62.5
34917	2023-10-02T11:36:02	22.5	61
34918	2023-10-02T11:46:02	23	60
34919	2023-10-02T11:56:02	24.7	56
34920	2023-10-02T12:06:02	29.2	44
34921	2023-10-02T12:16:02	32.1	38
34922	2023-10-02T12:26:02	34.2	34
34923	2023-10-02T12:36:02	35.8	31.5
34924	2023-10-02T12:46:02	36.9	29.5
34925	2023-10-02T12:56:02	38.6	27
34926	2023-10-02T13:06:02	39.1	26
34927	2023-10-02T13:16:02	39.9	25
34928	2023-10-02T13:26:02	41.1	23.5
34929	2023-10-02T13:36:02	39.7	24
34930	2023-10-02T13:46:02	39.4	24
34931	2023-10-02T13:56:02	38.8	25
34932	2023-10-02T14:06:02	40.1	24
34933	2023-10-02T14:16:02	42	22
34934	2023-10-02T14:26:02	42.1	22
34935	2023-10-02T14:36:02	42.4	22
34936	2023-10-02T14:46:02	43	21.5
34937	2023-10-02T14:56:02	43.4	21
34938	2023-10-02T15:06:02	42.7	21.5
34939	2023-10-02T15:16:02	41.9	22
34940	2023-10-02T15:26:02	40.2	24.5
34941	2023-10-02T15:36:02	39.5	25
34942	2023-10-02T15:46:01	38.7	25.5
34943	2023-10-02T15:56:02	37.3	28
34944	2023-10-02T16:06:01	36.1	29
34945	2023-10-02T16:16:01	34.6	33
34946	2023-10-02T16:26:01	32	40
34947	2023-10-02T16:36:01	31	43.5
34948	2023-10-02T16:46:01	30	46
34949	2023-10-02T16:56:01	28.7	49
34950	2023-10-02T17:06:01	28.2	50.5
34951	2023-10-02T17:16:01	27.3	51
34952	2023-10-02T17:26:01	26.6	52
34953	2023-10-02T17:36:01	25.8	52.5
34954	2023-10-02T17:46:01	25.4	54.5
34955	2023-10-02T17:56:01	24.9	56
34956	2023-10-02T18:06:01	24.2	58
34957	2023-10-02T18:16:01	24	58.5
34958	2023-10-02T18:26:01	23.6	59.5
34959	2023-10-02T18:36:01	23.1	61
34960	2023-10-02T18:46:01	22.8	61
34961	2023-10-02T18:56:01	21.1	65.5
34962	2023-10-02T19:06:01	20.1	69.5
34963	2023-10-02T19:16:01	19.5	71.5
34964	2023-10-02T19:26:01	19.1	73
34965	2023-10-02T19:36:01	18.8	74.5
34966	2023-10-02T19:46:01	18.5	75
34967	2023-10-02T19:56:01	18.1	75.5
34968	2023-10-02T20:06:01	17.8	77
34969	2023-10-02T20:16:01	17.4	78
34970	2023-10-02T20:26:01	17.3	79
34971	2023-10-02T20:36:01	17	79
34972	2023-10-02T20:46:01	16.9	80
34973	2023-10-02T20:56:01	16.6	81.5
34974	2023-10-02T21:06:01	17.7	77
34975	2023-10-02T21:16:01	18	75
34976	2023-10-02T21:26:01	17.5	75.5
34977	2023-10-02T21:36:01	17.6	75
34978	2023-10-02T21:46:01	17.4	75.5
34979	2023-10-02T21:56:01	17.1	76.5
34980	2023-10-02T22:06:01	17	76.5
34981	2023-10-02T22:16:01	16.7	77
34982	2023-10-02T22:26:01	16.3	77.5
34983	2023-10-02T22:36:01	16.1	78
34984	2023-10-02T22:46:01	16.1	79
34985	2023-10-02T22:56:01	15.9	78
34986	2023-10-02T23:06:01	15.7	79.5
34987	2023-10-02T23:16:02	15.5	79
34988	2023-10-02T23:26:01	15.2	81
34989	2023-10-02T23:36:01	15.2	80.5
34990	2023-10-02T23:46:01	14.9	81.5
34991	2023-10-02T23:56:01	14.8	82.5
34992	2023-10-03T00:06:01	14.6	82.5
34993	2023-10-03T00:16:01	14.5	82.5
34994	2023-10-03T00:26:01	14.2	82.5
34995	2023-10-03T00:36:01	14.1	83.5
34996	2023-10-03T00:46:01	14	84.5
34997	2023-10-03T00:56:01	13.8	84
34998	2023-10-03T01:06:01	13.7	83.5
34999	2023-10-03T01:16:01	13.5	85
35000	2023-10-03T01:36:01	13.3	86
35001	2023-10-03T01:46:01	13.2	86
35002	2023-10-03T01:56:01	13.2	86.5
35003	2023-10-03T02:06:01	13.2	87
35004	2023-10-03T02:16:01	13.1	87
35005	2023-10-03T02:26:01	13.2	88
35006	2023-10-03T02:36:01	13.3	88.5
35007	2023-10-03T02:46:01	13.2	87
35008	2023-10-03T02:56:01	13.1	86.5
35009	2023-10-03T03:06:00	13.2	87
35010	2023-10-03T03:16:00	13.2	87.5
35011	2023-10-03T03:26:00	13.3	87.5
35012	2023-10-03T03:36:00	13.3	88
35013	2023-10-03T03:46:00	13.3	88.5
35014	2023-10-03T03:56:00	13.2	88.5
35015	2023-10-03T04:06:00	13.1	89.5
35016	2023-10-03T04:16:00	12.9	90.5
35017	2023-10-03T04:26:00	12.7	91
35018	2023-10-03T04:36:00	12.8	91.5
35019	2023-10-03T04:46:00	12.7	91.5
35020	2023-10-03T04:56:00	12.7	91.5
35021	2023-10-03T05:06:00	12.6	91.5
35022	2023-10-03T05:16:00	12.6	91.5
35023	2023-10-03T05:26:00	12.6	91.5
35024	2023-10-03T05:36:00	12.7	91
35025	2023-10-03T05:46:00	12.6	91.5
35026	2023-10-03T05:56:00	12.7	91
35027	2023-10-03T06:06:00	12.7	91
35028	2023-10-03T06:16:00	12.7	91.5
35029	2023-10-03T06:26:00	12.8	91.5
35030	2023-10-03T06:36:00	13.1	91.5
35031	2023-10-03T06:46:00	13.1	91.5
35032	2023-10-03T06:56:00	13.2	92
35033	2023-10-03T07:06:00	13.4	92
35034	2023-10-03T07:16:00	13.5	92
35035	2023-10-03T07:26:00	13.7	91.5
35036	2023-10-03T07:46:00	15	86
35037	2023-10-03T07:56:00	16.2	79
35038	2023-10-03T08:06:00	17	77
35039	2023-10-03T08:16:00	17.5	73.5
35040	2023-10-03T08:26:00	18	72.5
35041	2023-10-03T08:36:00	18.4	73
35042	2023-10-03T08:46:00	19.7	70
35043	2023-10-03T08:56:00	21.1	64.5
35044	2023-10-03T09:06:00	22.1	60
35045	2023-10-03T09:16:00	22.9	55.5
35046	2023-10-03T09:26:00	23.4	53
35047	2023-10-03T09:36:00	23.6	52.5
35048	2023-10-03T09:46:00	24.3	52.5
35049	2023-10-03T09:56:00	25	50.5
35050	2023-10-03T10:06:00	25.1	50
35051	2023-10-03T10:16:00	25	51
35052	2023-10-03T10:26:00	24.9	51
35053	2023-10-03T10:36:00	25	52
35054	2023-10-03T10:46:00	24.8	53.5
35055	2023-10-03T10:56:00	24.4	54.5
35056	2023-10-03T11:06:00	24.2	55
35057	2023-10-03T11:16:00	24	56.5
35058	2023-10-03T11:26:00	23.8	57
35059	2023-10-03T11:36:00	23.8	56.5
35060	2023-10-03T11:46:00	24.1	55.5
35061	2023-10-03T11:56:00	24	55
35062	2023-10-03T12:06:00	24.3	54
35063	2023-10-03T12:16:00	24.3	54
35064	2023-10-03T12:26:00	24.1	54
35065	2023-10-03T12:36:00	24.3	52.5
35066	2023-10-03T12:46:00	24.9	51.5
35067	2023-10-03T12:56:00	25.1	51.5
35068	2023-10-03T13:06:00	24.9	53
35069	2023-10-03T13:16:00	25	51
35070	2023-10-03T13:26:00	24.9	52
35071	2023-10-03T13:36:00	24.6	53
35072	2023-10-03T13:46:00	24.3	54
35073	2023-10-03T13:56:00	24.1	54.5
35074	2023-10-03T14:06:00	24.2	55
35075	2023-10-03T14:16:00	24	55
35076	2023-10-03T14:25:59	23.8	56
35077	2023-10-03T14:35:59	23.7	56.5
35078	2023-10-03T14:45:59	20.4	91.5
35079	2023-10-03T14:55:59	19.4	93.5
35080	2023-10-03T15:05:59	19	95
35081	2023-10-03T15:15:59	18.4	95
35082	2023-10-03T15:25:59	17.9	95.5
35083	2023-10-03T15:35:59	17.3	96
35084	2023-10-03T15:45:59	16.9	96.5
35085	2023-10-03T15:55:59	16.5	97
35086	2023-10-03T16:05:59	16.3	97
35087	2023-10-03T16:15:59	16.2	97.5
35088	2023-10-03T16:25:59	15.9	97.5
35089	2023-10-03T16:35:59	15.9	97.5
35090	2023-10-03T16:46:00	15.9	98
35091	2023-10-03T16:55:59	15.7	98
35092	2023-10-03T17:05:59	15.4	98
35093	2023-10-03T17:15:59	15.3	98
35094	2023-10-03T17:25:59	15.4	98
35095	2023-10-03T17:35:59	14.9	98
35096	2023-10-03T17:45:59	14.8	98
35097	2023-10-03T17:55:59	14.5	98
35098	2023-10-03T18:05:59	14.4	98
35099	2023-10-03T18:15:59	14.2	98
35100	2023-10-03T18:25:59	14.1	98
35101	2023-10-03T18:35:59	14.2	98.5
35102	2023-10-03T18:45:59	14	98.5
35103	2023-10-03T18:55:59	13.9	98.5
35104	2023-10-03T19:05:59	13.8	98.5
35105	2023-10-03T19:15:59	13.7	98.5
35106	2023-10-03T19:25:59	13.5	98.5
35107	2023-10-03T19:35:59	13.4	98.5
35108	2023-10-03T19:45:59	13.5	98.5
35109	2023-10-03T19:55:59	13.5	98.5
35110	2023-10-03T20:05:59	13.4	98.5
35111	2023-10-03T20:15:59	13.2	98.5
35112	2023-10-03T20:25:59	13.2	98.5
35113	2023-10-03T20:35:59	13.1	98.5
35114	2023-10-03T20:45:59	13	98.5
35115	2023-10-03T20:55:59	12.8	98.5
35116	2023-10-03T21:05:59	12.6	98.5
35117	2023-10-03T21:15:59	12.6	98.5
35118	2023-10-03T21:25:59	12.3	98.5
35119	2023-10-03T21:35:59	12.1	98.5
35120	2023-10-03T21:45:59	12.2	98.5
35121	2023-10-03T21:55:59	12.3	98.5
35122	2023-10-03T22:05:59	12.2	99
35123	2023-10-03T22:15:59	12.1	99
35124	2023-10-03T22:25:59	11.9	98.5
35125	2023-10-03T22:35:59	12	98.5
35126	2023-10-03T22:45:59	11.9	99
35127	2023-10-03T22:55:59	11.6	98.5
35128	2023-10-03T23:05:59	11.3	98.5
35129	2023-10-03T23:15:59	11.1	98.5
35130	2023-10-03T23:25:59	10.9	98.5
35131	2023-10-03T23:35:59	10.7	99
35132	2023-10-03T23:45:59	10.5	99
35133	2023-10-03T23:55:59	10.4	99
35134	2023-10-04T00:05:59	10.2	99
35135	2023-10-04T00:15:59	10.1	99
35136	2023-10-04T00:25:59	10	99
35137	2023-10-04T00:35:59	10	99
35138	2023-10-04T00:45:59	9.8	99
35139	2023-10-04T00:55:59	9.6	99
35140	2023-10-04T01:05:59	9.5	99
35141	2023-10-04T01:15:59	9.5	99
35142	2023-10-04T01:25:59	9.5	99.5
35143	2023-10-04T01:35:59	9.5	99
35144	2023-10-04T01:45:59	9.1	99
35145	2023-10-04T01:55:59	9	99
35146	2023-10-04T02:05:59	8.8	99
35147	2023-10-04T02:15:59	8.9	99
35148	2023-10-04T02:25:59	8.7	99
35149	2023-10-04T02:35:59	8.7	99.5
35150	2023-10-04T02:45:59	8.6	99.5
35151	2023-10-04T02:55:59	8.3	99
35152	2023-10-04T03:05:59	8.3	99
35153	2023-10-04T03:15:59	8.2	99.5
35154	2023-10-04T03:25:59	8.1	99.5
35155	2023-10-04T03:35:59	8	99.5
35156	2023-10-04T03:45:59	7.9	99.5
35157	2023-10-04T03:55:59	7.8	99.5
35158	2023-10-04T04:05:59	7.7	99.5
35159	2023-10-04T04:15:59	7.6	99.5
35160	2023-10-04T04:25:59	7.7	99.5
35161	2023-10-04T04:35:59	7.5	99.5
35162	2023-10-04T04:45:58	7.4	99.5
35163	2023-10-04T04:55:58	7.4	99.5
35164	2023-10-04T05:05:58	7.3	99.5
35165	2023-10-04T05:15:58	7.4	99.5
35166	2023-10-04T05:25:58	7.2	99.5
35167	2023-10-04T05:35:58	7.3	100
35168	2023-10-04T05:45:58	7.2	100
35169	2023-10-04T05:55:58	7.3	100
35170	2023-10-04T06:05:58	7.5	100
35171	2023-10-04T06:15:58	7.6	100
35172	2023-10-04T06:25:58	7.7	100
35173	2023-10-04T06:35:58	7.9	100
35174	2023-10-04T06:45:58	8	100
35175	2023-10-04T06:55:58	8.2	100
35176	2023-10-04T07:05:58	8.7	100
35177	2023-10-04T07:15:58	8.8	100
35178	2023-10-04T07:25:58	9.1	100
35179	2023-10-04T07:35:58	9.7	100
35180	2023-10-04T07:45:58	10.3	100
35181	2023-10-04T07:55:59	10.7	99.5
35182	2023-10-04T08:05:58	11	99.5
35183	2023-10-04T08:15:58	11.3	99
35184	2023-10-04T08:25:58	11.4	99
35185	2023-10-04T08:35:58	11.8	99
35186	2023-10-04T08:45:58	12.1	98.5
35187	2023-10-04T08:55:58	12.4	98.5
35188	2023-10-04T09:05:58	12.7	98
35189	2023-10-04T09:15:58	13	98
35190	2023-10-04T09:25:58	13.4	98
35191	2023-10-04T09:35:58	13.6	97.5
35192	2023-10-04T09:45:58	13.9	97.5
35193	2023-10-04T09:55:58	14.3	97.5
35194	2023-10-04T10:05:58	14.4	97.5
35195	2023-10-04T10:15:58	15.2	97.5
35196	2023-10-04T10:25:58	15.3	97.5
35197	2023-10-04T10:35:58	15.3	97.5
35198	2023-10-04T10:45:58	15.7	97.5
35199	2023-10-04T10:55:58	16	98.5
35200	2023-10-04T11:05:58	17.1	99
35201	2023-10-04T11:15:58	17.8	98.5
35202	2023-10-04T11:25:58	19.5	97
35203	2023-10-04T11:35:58	20.7	96
35204	2023-10-04T11:45:58	22	96
35205	2023-10-04T11:55:58	23.6	95
35206	2023-10-04T12:05:58	22	90
35207	2023-10-04T12:15:58	22.8	86.5
35208	2023-10-04T12:25:58	22	91.5
35209	2023-10-04T12:35:58	21.5	91
35210	2023-10-04T12:45:58	21.2	80
35211	2023-10-04T12:55:58	21.6	47.5
35212	2023-10-04T13:05:58	21.6	45
35213	2023-10-04T13:15:58	22.5	43.5
35214	2023-10-04T13:25:58	22.8	42
35215	2023-10-04T13:35:58	23.7	41
35216	2023-10-04T13:45:58	24.3	39
35217	2023-10-04T13:55:58	24.6	37
35218	2023-10-04T14:05:58	24.6	36.5
35219	2023-10-04T14:15:58	24.1	37.5
35220	2023-10-04T14:25:58	23.2	40
35221	2023-10-04T14:35:58	23.2	39.5
35222	2023-10-04T14:45:58	22.1	42.5
35223	2023-10-04T14:55:58	21.6	44
35224	2023-10-04T15:05:58	21.4	44.5
35225	2023-10-04T15:15:58	22.1	43.5
35226	2023-10-04T15:25:58	21.4	44.5
35227	2023-10-04T15:35:58	21.3	46
35228	2023-10-04T15:45:58	20.5	46.5
35229	2023-10-04T15:55:58	19.9	50
35230	2023-10-04T16:05:58	19.3	49.5
35231	2023-10-04T16:15:58	18.9	51.5
35232	2023-10-04T16:25:58	18.6	56.5
35233	2023-10-04T16:35:58	18.2	61.5
35234	2023-10-04T16:45:58	17.8	62.5
35235	2023-10-04T16:55:58	17.4	62.5
35236	2023-10-04T17:05:58	17	65
35237	2023-10-04T17:15:58	16.6	65
35238	2023-10-04T17:25:57	16.3	67
35239	2023-10-04T17:35:57	15.8	68
35240	2023-10-04T17:45:57	15.5	69.5
35241	2023-10-04T17:55:57	15.2	71
35242	2023-10-04T18:05:57	14.8	72
35243	2023-10-04T18:15:57	14.6	74
35244	2023-10-04T18:25:57	14.3	75
35245	2023-10-04T18:35:57	13.8	74.5
35246	2023-10-04T18:45:57	13.5	75.5
35247	2023-10-04T18:55:57	13.2	77.5
35248	2023-10-04T19:05:57	12.8	78.5
35249	2023-10-04T19:15:57	12.6	78.5
35250	2023-10-04T19:25:57	12.3	79.5
35251	2023-10-04T19:35:57	12.1	80.5
35252	2023-10-04T19:55:57	11.6	81.5
35253	2023-10-04T20:05:57	11.5	82
35254	2023-10-04T20:15:57	11.4	82
35255	2023-10-04T20:25:57	11	83
35256	2023-10-04T20:35:57	10.8	83.5
35257	2023-10-04T20:45:57	10.8	83
35258	2023-10-04T20:55:57	10.5	83.5
35259	2023-10-04T21:05:57	10.4	84
35260	2023-10-04T21:25:57	10.1	84.5
35261	2023-10-04T21:35:57	10	85
35262	2023-10-04T21:45:57	9.8	84.5
35263	2023-10-04T21:55:57	9.5	85.5
35264	2023-10-04T22:05:57	9.4	87
35265	2023-10-04T22:15:57	9.2	87
35266	2023-10-04T22:25:57	9.2	86.5
35267	2023-10-04T22:35:57	9.2	87
35268	2023-10-04T22:45:57	9.1	87
35269	2023-10-04T22:55:57	8.8	88
35270	2023-10-04T23:05:57	8.8	87.5
35271	2023-10-04T23:15:57	8.7	88.5
35272	2023-10-04T23:25:57	8.6	88
35273	2023-10-04T23:35:57	8.5	88.5
35274	2023-10-04T23:45:57	8.4	89.5
35275	2023-10-04T23:55:57	8.2	89
35276	2023-10-05T00:05:57	8	90
35277	2023-10-05T00:15:57	8.2	89.5
35278	2023-10-05T00:25:57	8.1	89.5
35279	2023-10-05T00:35:57	8.1	90
35280	2023-10-05T00:45:57	7.9	90
35281	2023-10-05T00:55:57	7.8	90.5
35282	2023-10-05T01:05:57	7.8	90.5
35283	2023-10-05T01:15:57	7.8	91.5
35284	2023-10-05T01:25:57	7.6	91.5
35285	2023-10-05T01:35:57	7.3	92.5
35286	2023-10-05T01:45:57	7.2	93
35287	2023-10-05T01:55:57	7.3	93
35288	2023-10-05T02:05:57	7.4	91.5
35289	2023-10-05T02:15:57	7.5	91.5
35290	2023-10-05T02:25:57	7.5	92
35291	2023-10-05T02:35:57	7.6	92
35292	2023-10-05T02:45:57	7.6	92.5
35293	2023-10-05T02:55:57	7.5	93
35294	2023-10-05T03:05:57	7.6	93
35295	2023-10-05T03:15:57	7.6	93
35296	2023-10-05T03:25:57	7.7	93.5
35297	2023-10-05T03:35:57	7.6	93.5
35298	2023-10-05T03:45:57	7.7	93.5
35299	2023-10-05T03:55:57	7.8	94
35300	2023-10-05T04:05:57	7.6	94.5
35301	2023-10-05T04:15:57	7.8	94.5
35302	2023-10-05T04:25:57	7.8	94.5
35303	2023-10-05T04:35:57	7.9	95
35304	2023-10-05T04:45:57	7.8	95
35305	2023-10-05T04:55:57	7.8	95.5
35306	2023-10-05T05:05:57	7.7	96
35307	2023-10-05T05:15:57	7.8	96
35308	2023-10-05T05:25:57	7.6	96.5
35309	2023-10-05T05:35:57	7.6	96.5
35310	2023-10-05T05:45:57	7.7	97
35311	2023-10-05T05:55:57	7.8	97
35312	2023-10-05T06:05:57	7.6	97
35313	2023-10-05T06:15:57	7.9	97
35314	2023-10-05T06:25:57	8.1	97
35315	2023-10-05T06:35:57	8.3	97
35316	2023-10-05T06:45:57	8.5	97
35317	2023-10-05T06:55:57	8.8	97
35318	2023-10-05T07:05:57	9.1	96.5
35319	2023-10-05T07:15:57	9.4	96
35320	2023-10-05T07:25:57	9.8	94
35321	2023-10-05T07:35:57	10.2	92.5
35322	2023-10-05T07:45:57	10.4	92
35323	2023-10-05T07:55:57	10.7	91.5
35324	2023-10-05T08:15:57	11.3	90.5
35325	2023-10-05T08:25:57	11.6	89.5
35326	2023-10-05T08:35:57	12.2	87.5
35327	2023-10-05T08:45:57	12.5	86
35328	2023-10-05T08:55:57	12.6	84.5
35329	2023-10-05T09:05:57	12.4	84
35330	2023-10-05T09:15:57	12.9	82.5
35331	2023-10-05T09:25:57	13.2	80.5
35332	2023-10-05T09:35:57	13.4	79.5
35333	2023-10-05T09:45:57	13.8	77.5
35334	2023-10-05T09:55:56	14.1	77
35335	2023-10-05T10:05:56	14.5	75.5
35336	2023-10-05T10:15:56	15.4	73.5
35337	2023-10-05T10:25:56	15.7	71.5
35338	2023-10-05T10:35:56	16.2	69.5
35339	2023-10-05T10:45:56	16.6	68.5
35340	2023-10-05T10:55:56	17	66.5
35341	2023-10-05T11:05:56	17.9	61.5
35342	2023-10-05T11:15:56	18	62
35343	2023-10-05T11:25:56	18.8	60
35344	2023-10-05T11:35:56	19.6	56
35345	2023-10-05T11:45:56	20	53
35346	2023-10-05T11:55:56	20	53.5
35347	2023-10-05T12:05:56	19.9	53
35348	2023-10-05T12:15:56	19.5	54.5
35349	2023-10-05T12:25:56	18.8	55
35350	2023-10-05T12:35:56	18.2	57
35351	2023-10-05T12:45:56	18.3	58.5
35352	2023-10-05T12:55:56	18.3	58
35353	2023-10-05T13:05:56	18.1	59
35354	2023-10-05T13:15:56	18	59.5
35355	2023-10-05T13:25:56	17.9	60
35356	2023-10-05T13:35:56	17.7	61
35357	2023-10-05T13:45:56	17.7	61
35358	2023-10-05T13:55:56	17.6	61
35359	2023-10-05T14:05:56	17.5	61.5
35360	2023-10-05T14:15:56	17.5	62
35361	2023-10-05T14:25:56	17.5	62.5
35362	2023-10-05T14:35:56	17.3	62
35363	2023-10-05T14:45:56	17.3	64
35364	2023-10-05T14:55:56	17.1	64
35365	2023-10-05T15:05:56	17.2	64.5
35366	2023-10-05T15:15:56	17.6	62.5
35367	2023-10-05T15:25:56	17.4	63
35368	2023-10-05T15:35:56	17.1	63.5
35369	2023-10-05T15:45:56	17.1	65
35370	2023-10-05T15:55:56	16.9	67.5
35371	2023-10-05T16:05:56	16.6	69.5
35372	2023-10-05T16:15:56	16.3	71.5
35373	2023-10-05T16:25:56	16.1	72
35374	2023-10-05T16:35:56	15.8	74.5
35375	2023-10-05T16:45:56	15.4	74.5
35376	2023-10-05T16:55:56	14.8	77.5
35377	2023-10-05T17:05:56	14.4	79.5
35378	2023-10-05T17:15:56	14.1	79.5
35379	2023-10-05T17:25:56	13.7	79.5
35380	2023-10-05T17:35:56	13.4	80
35381	2023-10-05T17:45:56	13.4	79.5
35382	2023-10-05T17:55:56	13.4	80.5
35383	2023-10-05T18:05:56	13.2	82
35384	2023-10-05T18:15:56	13.1	82
35385	2023-10-05T18:25:56	13	82
35386	2023-10-05T18:35:56	12.9	82.5
35387	2023-10-05T18:45:56	12.8	83
35388	2023-10-05T18:55:56	12.7	83.5
35389	2023-10-05T19:05:56	12.4	84
35390	2023-10-05T19:15:56	12.4	84.5
35391	2023-10-05T19:25:56	12.1	85
35392	2023-10-05T19:35:56	11.8	86.5
35393	2023-10-05T19:45:56	11.5	86.5
35394	2023-10-05T19:55:56	11.1	88
35395	2023-10-05T20:05:56	11	88.5
35396	2023-10-05T20:15:56	10.9	87.5
35397	2023-10-05T20:25:56	10.8	88
35398	2023-10-05T20:35:56	10.9	88.5
35399	2023-10-05T20:45:56	11	88
35400	2023-10-05T20:55:56	11	88
35401	2023-10-05T21:05:56	10.8	88.5
35402	2023-10-05T21:15:56	10.6	89
35403	2023-10-05T21:25:56	10.6	89
35404	2023-10-05T21:35:56	10.4	90
35405	2023-10-05T21:45:56	10.1	91
35406	2023-10-05T21:55:56	9.8	91.5
35407	2023-10-05T22:05:56	9.8	91.5
35408	2023-10-05T22:15:55	9.7	92
35409	2023-10-05T22:25:56	9.5	92
35410	2023-10-05T22:35:55	9.3	92.5
35411	2023-10-05T22:45:55	9.1	93
35412	2023-10-05T22:55:55	8.9	93.5
35413	2023-10-05T23:05:55	8.8	93.5
35414	2023-10-05T23:15:55	8.5	93
35415	2023-10-05T23:25:55	8.4	93.5
35416	2023-10-05T23:35:55	8.2	94
35417	2023-10-05T23:45:55	8	94
35418	2023-10-05T23:55:55	8	94.5
35419	2023-10-06T00:05:55	7.9	94.5
35420	2023-10-06T00:15:55	7.9	94.5
35421	2023-10-06T00:25:55	7.9	94.5
35422	2023-10-06T00:35:55	7.6	94
35423	2023-10-06T00:45:55	7.5	94
35424	2023-10-06T00:55:55	7.3	94
35425	2023-10-06T01:05:55	7.1	94
35426	2023-10-06T01:15:55	6.9	94.5
35427	2023-10-06T01:25:55	7	95
35428	2023-10-06T01:35:55	6.9	95
35429	2023-10-06T01:45:55	6.8	94
35430	2023-10-06T01:55:55	6.5	94.5
35431	2023-10-06T02:05:55	6.4	95
35432	2023-10-06T02:15:55	6.4	95
35433	2023-10-06T02:25:55	6.3	94.5
35434	2023-10-06T02:35:55	6.3	94.5
35435	2023-10-06T02:45:55	6.1	94.5
35436	2023-10-06T02:55:55	6	94.5
35437	2023-10-06T03:05:55	5.8	95
35438	2023-10-06T03:15:55	5.8	95.5
35439	2023-10-06T03:25:55	5.8	95.5
35440	2023-10-06T03:35:55	5.7	95.5
35441	2023-10-06T03:45:55	5.7	95.5
35442	2023-10-06T03:55:55	5.5	95.5
35443	2023-10-06T04:05:55	5.5	95.5
35444	2023-10-06T04:15:55	5.5	96
35445	2023-10-06T04:25:55	5.7	95.5
35446	2023-10-06T04:35:55	5.6	95
35447	2023-10-06T04:45:55	5.8	95
35448	2023-10-06T04:55:55	5.4	95.5
35449	2023-10-06T05:05:55	5.2	96
35450	2023-10-06T05:15:55	5.2	96
35451	2023-10-06T05:25:55	5.5	97
35452	2023-10-06T05:35:55	5.9	97.5
35453	2023-10-06T05:45:55	6.2	97.5
35454	2023-10-06T05:55:55	6.4	97.5
35455	2023-10-06T06:05:55	6.5	97.5
35456	2023-10-06T06:15:55	6.8	97.5
35457	2023-10-06T06:25:55	7.1	97.5
35458	2023-10-06T06:35:55	7.3	97
35459	2023-10-06T06:45:55	7.6	96.5
35460	2023-10-06T06:55:55	7.7	97
35461	2023-10-06T07:05:55	7.8	97.5
35462	2023-10-06T07:15:55	7.7	97.5
35463	2023-10-06T07:25:55	7.7	97.5
35464	2023-10-06T07:35:55	7.6	98
35465	2023-10-06T07:45:55	7.7	98
35466	2023-10-06T07:55:55	8.1	98.5
35467	2023-10-06T08:05:55	8.3	98.5
35468	2023-10-06T08:15:55	8.5	98.5
35469	2023-10-06T08:25:55	9	97.5
35470	2023-10-06T08:35:55	9.3	96
35471	2023-10-06T08:45:55	9.8	95
35472	2023-10-06T08:55:55	10.1	92.5
35473	2023-10-06T09:05:55	10.5	91
35474	2023-10-06T09:15:55	10.9	90.5
35475	2023-10-06T09:25:55	11.4	88.5
35476	2023-10-06T09:35:55	11.6	88.5
35477	2023-10-06T09:45:55	11.9	87
35478	2023-10-06T09:55:55	12.3	85.5
35479	2023-10-06T10:05:55	12.6	84.5
35480	2023-10-06T10:15:55	12.9	82.5
35481	2023-10-06T10:25:55	13.3	80.5
35482	2023-10-06T10:35:55	13.4	80.5
35483	2023-10-06T10:45:55	14.1	77.5
35484	2023-10-06T10:55:55	14.5	75
35485	2023-10-06T11:05:55	16.1	69.5
35486	2023-10-06T11:15:55	17.8	63.5
35487	2023-10-06T11:25:55	18.9	55
35488	2023-10-06T11:35:55	19.6	55.5
35489	2023-10-06T11:45:55	20	52
35490	2023-10-06T11:55:55	21	50
35491	2023-10-06T12:05:55	21.4	49.5
35492	2023-10-06T12:15:55	21.8	47
35493	2023-10-06T12:25:55	22.6	45.5
35494	2023-10-06T12:35:55	23.3	45
35495	2023-10-06T12:45:55	24.3	41.5
35496	2023-10-06T12:55:55	24.6	41.5
35497	2023-10-06T13:05:55	23.7	43.5
35498	2023-10-06T13:15:55	24.3	42.5
35499	2023-10-06T13:25:55	24.9	40.5
35500	2023-10-06T13:35:55	25.3	39.5
35501	2023-10-06T13:45:55	24.2	41.5
35502	2023-10-06T13:55:55	23.9	42
35503	2023-10-06T14:05:55	24.8	41.5
35504	2023-10-06T14:15:55	24.9	40
35505	2023-10-06T14:25:55	23.4	40.5
35506	2023-10-06T14:35:55	22.6	43
35507	2023-10-06T14:45:54	22.1	42
35508	2023-10-06T14:55:54	22.3	39
35509	2023-10-06T15:05:54	22	40.5
35510	2023-10-06T15:15:54	22	41
35511	2023-10-06T15:25:54	21.6	43
35512	2023-10-06T15:35:54	21.1	47.5
35513	2023-10-06T15:45:54	20.4	54
35514	2023-10-06T15:55:54	19.7	55.5
35515	2023-10-06T16:05:54	19.2	57
35516	2023-10-06T16:15:54	18.6	60
35517	2023-10-06T16:25:54	18.2	60.5
35518	2023-10-06T16:35:54	17.6	62
35519	2023-10-06T16:45:54	17	64.5
35520	2023-10-06T16:55:54	16.4	67
35521	2023-10-06T17:05:54	15.9	69.5
35522	2023-10-06T17:15:54	15.6	70.5
35523	2023-10-06T17:25:54	15.3	71.5
35524	2023-10-06T17:35:54	14.9	71
35525	2023-10-06T17:45:54	14.5	72
35526	2023-10-06T17:55:54	14	70
35527	2023-10-06T18:05:54	13.7	71
35528	2023-10-06T18:15:54	13.4	73
35529	2023-10-06T18:25:54	13.1	75
35530	2023-10-06T18:36:12	12.9	75.5
35531	2023-10-06T18:45:54	12.7	76
35532	2023-10-06T18:55:54	12.5	75.5
35533	2023-10-06T19:05:54	12.4	76
35534	2023-10-06T19:15:54	12.1	76
35535	2023-10-06T19:25:54	11.9	77
35536	2023-10-06T19:35:54	11.6	78
35537	2023-10-06T19:45:54	11.4	79
35538	2023-10-06T19:55:54	11.2	80.5
35539	2023-10-06T20:05:54	10.9	81
35540	2023-10-06T20:15:54	10.7	81
35541	2023-10-06T20:25:54	10.7	82
35542	2023-10-06T20:35:54	10.5	82
35543	2023-10-06T20:45:54	10.3	82.5
35544	2023-10-06T20:55:54	10.1	83
35545	2023-10-06T21:05:54	9.9	84
35546	2023-10-06T21:15:54	9.6	85
35547	2023-10-06T21:25:54	9.4	85
35548	2023-10-06T21:35:54	9.3	85
35549	2023-10-06T21:45:54	9.2	86
35550	2023-10-06T21:55:54	9	86
35551	2023-10-06T22:05:54	9	87
35552	2023-10-06T22:15:54	9	87
35553	2023-10-06T22:25:54	8.7	87
35554	2023-10-06T22:35:54	8.7	87
35555	2023-10-06T22:45:54	8.4	87.5
35556	2023-10-06T22:55:54	8.2	88.5
35557	2023-10-06T23:05:54	8.3	88.5
35558	2023-10-06T23:15:54	8.1	88.5
35559	2023-10-06T23:25:54	8.1	88.5
35560	2023-10-06T23:35:54	7.8	89.5
35561	2023-10-06T23:45:54	7.7	89
35562	2023-10-06T23:55:54	7.7	91
35563	2023-10-07T00:05:54	7.5	90.5
35564	2023-10-07T00:15:54	7.6	90.5
35565	2023-10-07T00:25:54	7.4	92
35566	2023-10-07T00:35:54	7.3	91.5
35567	2023-10-07T00:45:54	7.2	92.5
35568	2023-10-07T00:55:54	7.1	92.5
35569	2023-10-07T01:05:54	7.2	93
35570	2023-10-07T01:15:54	7	92.5
35571	2023-10-07T01:25:54	7.1	93
35572	2023-10-07T01:35:54	6.8	93
35573	2023-10-07T01:45:54	6.7	93
35574	2023-10-07T01:55:54	6.6	94
35575	2023-10-07T02:05:54	6.5	93.5
35576	2023-10-07T02:15:54	6.4	92.5
35577	2023-10-07T02:25:54	6.6	91.5
35578	2023-10-07T02:35:54	7	91.5
35579	2023-10-07T02:45:54	7.2	91
35580	2023-10-07T02:55:54	7.4	89.5
35581	2023-10-07T03:05:54	7.1	88.5
35582	2023-10-07T03:15:54	6.9	90
35583	2023-10-07T03:25:54	6.7	89.5
35584	2023-10-07T03:35:54	6.4	91
35585	2023-10-07T03:45:54	6.5	91
35586	2023-10-07T03:55:54	6.4	92
35587	2023-10-07T04:05:54	6.5	92.5
35588	2023-10-07T04:15:54	6.7	93.5
35589	2023-10-07T04:25:54	6.2	93
35590	2023-10-07T04:35:54	6.1	94.5
35591	2023-10-07T04:45:54	5.8	95
35592	2023-10-07T04:55:54	5.6	95.5
35593	2023-10-07T05:05:54	5.9	96
35594	2023-10-07T05:15:54	6	95.5
35595	2023-10-07T05:25:54	6.3	94.5
35596	2023-10-07T05:35:54	6.3	94
35597	2023-10-07T05:45:54	6	93.5
35598	2023-10-07T05:56:14	6.1	94
35599	2023-10-07T06:05:54	6	94
35600	2023-10-07T06:15:54	6.3	94
35601	2023-10-07T06:25:54	6.3	94.5
35602	2023-10-07T06:35:54	6.2	94.5
35603	2023-10-07T06:45:54	6.7	95
35604	2023-10-07T06:55:54	7.2	95
35605	2023-10-07T07:05:53	7.8	93
35606	2023-10-07T07:15:53	8.3	91.5
35607	2023-10-07T07:25:53	8.9	89.5
35608	2023-10-07T07:35:53	9.1	89
35609	2023-10-07T07:45:54	9.3	90
35610	2023-10-07T07:55:53	9.8	89.5
35611	2023-10-07T08:05:53	9.8	89
35612	2023-10-07T08:15:53	10.2	88.5
35613	2023-10-07T08:25:53	11.1	85
35614	2023-10-07T08:35:53	12.1	80
35615	2023-10-07T08:45:53	12.7	78.5
35616	2023-10-07T08:55:53	13	78
35617	2023-10-07T09:05:53	13.4	77
35618	2023-10-07T09:15:53	13.7	77.5
35619	2023-10-07T09:25:53	14.2	75
35620	2023-10-07T09:35:53	14.8	73
35621	2023-10-07T09:45:53	15.3	71
35622	2023-10-07T09:55:53	15.9	69
35623	2023-10-07T10:05:53	16.4	66.5
35624	2023-10-07T10:15:53	16.6	66
35625	2023-10-07T10:25:53	17.1	65.5
35626	2023-10-07T10:35:53	17.5	64
35627	2023-10-07T10:45:53	17.9	60.5
35628	2023-10-07T10:55:53	18	59.5
35629	2023-10-07T11:05:53	18.3	56.5
35630	2023-10-07T11:15:53	18.5	53.5
35631	2023-10-07T11:25:53	18.6	53.5
35632	2023-10-07T11:35:53	18.7	53
35633	2023-10-07T11:45:53	19.1	51.5
35634	2023-10-07T11:55:53	19.4	52
35635	2023-10-07T12:05:53	19.7	51.5
35636	2023-10-07T12:15:53	19.9	51
35637	2023-10-07T12:25:53	20.4	49.5
35638	2023-10-07T12:35:53	20.7	49
35639	2023-10-07T12:45:53	21.2	47
35640	2023-10-07T12:55:53	21.4	45.5
35641	2023-10-07T13:05:53	22.6	43
35642	2023-10-07T13:15:53	24.6	39
35643	2023-10-07T13:25:53	25	37.5
35644	2023-10-07T13:35:53	24.6	38
35645	2023-10-07T13:45:53	24.4	38.5
35646	2023-10-07T13:55:58	24.7	37
35647	2023-10-07T14:06:01	24.6	37.5
35648	2023-10-07T14:15:57	26.1	36.5
35649	2023-10-07T14:25:54	26.7	35
35650	2023-10-07T14:35:53	26.7	33.5
35651	2023-10-07T14:45:53	27.1	34.5
35652	2023-10-07T14:55:53	26.5	34
35653	2023-10-07T15:05:53	26.5	35
35654	2023-10-07T15:15:54	26.4	34.5
35655	2023-10-07T15:25:55	26.1	32.5
35656	2023-10-07T15:35:53	25.7	33.5
35657	2023-10-07T15:45:53	24.9	35.5
35658	2023-10-07T15:55:57	24.3	37
35659	2023-10-07T16:06:01	22.9	40.5
35660	2023-10-07T16:15:53	22.2	42.5
35661	2023-10-07T16:26:00	21.7	45
35662	2023-10-07T16:35:53	21	47.5
35663	2023-10-07T16:45:53	20.4	49.5
35664	2023-10-07T16:55:53	19.9	50
35665	2023-10-07T17:05:56	19.6	50
35666	2023-10-07T17:15:57	19.6	50.5
35667	2023-10-07T17:25:53	19.3	50.5
35668	2023-10-07T17:36:03	19.1	51
35669	2023-10-07T17:45:53	19.1	51.5
35670	2023-10-07T17:55:53	18.9	51.5
35671	2023-10-07T18:05:53	18.8	51.5
35672	2023-10-07T18:15:53	18.7	51
35673	2023-10-07T18:25:53	18.6	50
35674	2023-10-07T18:35:58	18.3	50.5
35675	2023-10-07T18:45:52	18	52
35676	2023-10-07T18:56:01	17.7	53
35677	2023-10-07T19:05:52	17.5	53.5
35678	2023-10-07T19:15:52	17.3	55
35679	2023-10-07T19:25:52	17.1	56.5
35680	2023-10-07T19:35:56	16.8	57.5
35681	2023-10-07T19:45:57	16.6	58
35682	2023-10-07T19:55:52	16.7	57
35683	2023-10-07T20:05:52	17	56.5
35684	2023-10-07T20:15:52	16.9	56
35685	2023-10-07T20:25:52	17	54.5
35686	2023-10-07T20:35:59	16.9	54
35687	2023-10-07T20:45:55	17	53
35688	2023-10-07T20:55:52	17.1	53
35689	2023-10-07T21:05:57	17	53
35690	2023-10-07T21:15:54	17	52.5
35691	2023-10-07T21:25:52	17	52.5
35692	2023-10-07T21:35:52	17.1	52.5
35693	2023-10-07T21:45:52	16.9	53
35694	2023-10-07T21:55:52	16.6	54
35695	2023-10-07T22:05:54	16.3	55.5
35696	2023-10-07T22:15:52	16.1	57
35697	2023-10-07T22:25:52	15.7	59
35698	2023-10-07T22:35:52	15.5	59.5
35699	2023-10-07T22:45:52	15.2	61
35700	2023-10-07T22:55:59	15	62
35701	2023-10-07T23:05:52	14.8	63
35702	2023-10-07T23:15:52	14.8	62.5
35703	2023-10-07T23:25:52	14.9	62
35704	2023-10-07T23:35:52	15	60
35705	2023-10-07T23:46:01	15.1	58.5
35706	2023-10-07T23:55:52	15.3	57
35707	2023-10-08T00:05:55	15.5	55.5
35708	2023-10-08T00:15:52	15.6	54.5
35709	2023-10-08T00:25:55	15.6	54
35710	2023-10-08T00:35:52	15.4	54
35711	2023-10-08T00:45:58	15.3	54
35712	2023-10-08T00:55:52	15.3	54
35713	2023-10-08T01:05:52	15.7	52
35714	2023-10-08T01:15:52	15.9	51.5
35715	2023-10-08T01:25:52	16.2	51.5
35716	2023-10-08T01:35:52	16.1	52.5
35717	2023-10-08T01:45:52	16.3	52
35718	2023-10-08T01:55:59	16	51.5
35719	2023-10-08T02:05:52	16.2	50
35720	2023-10-08T02:15:52	16	51
35721	2023-10-08T02:25:59	15.7	52.5
35722	2023-10-08T02:35:52	15.6	53
35723	2023-10-08T02:46:02	15.4	53.5
35724	2023-10-08T02:56:02	15.2	54.5
35725	2023-10-08T03:05:52	15.1	54.5
35726	2023-10-08T03:16:01	15	55
35727	2023-10-08T03:25:52	14.7	56.5
35728	2023-10-08T03:35:58	14.4	57
35729	2023-10-08T03:46:02	14.4	57
35730	2023-10-08T03:55:52	14.3	57.5
35731	2023-10-08T04:05:59	14.2	58
35732	2023-10-08T04:15:52	14	60.5
35733	2023-10-08T04:25:52	13.5	62
35734	2023-10-08T04:35:52	13.7	61.5
35735	2023-10-08T04:45:52	13.5	63.5
35736	2023-10-08T04:55:52	13	68
35737	2023-10-08T05:05:52	12.7	70
35738	2023-10-08T05:15:52	12.5	71
35739	2023-10-08T05:25:52	12.4	71
35740	2023-10-08T05:35:54	12.3	71.5
35741	2023-10-08T05:45:52	12.2	72.5
35742	2023-10-08T05:55:52	12.3	72.5
35743	2023-10-08T06:05:52	12.3	74
35744	2023-10-08T06:16:03	12.3	75
35745	2023-10-08T06:25:52	12.4	75.5
35746	2023-10-08T06:35:52	12.3	76.5
35747	2023-10-08T06:45:52	12.3	77.5
35748	2023-10-08T06:55:54	12.2	78
35749	2023-10-08T07:05:51	12.4	78
35750	2023-10-08T07:16:00	12.6	77.5
35751	2023-10-08T07:25:51	12.8	74.5
35752	2023-10-08T07:36:03	13.3	68
35753	2023-10-08T07:45:52	13.8	66.5
35754	2023-10-08T07:55:51	14.1	66.5
35755	2023-10-08T08:05:51	14.3	64
35756	2023-10-08T08:15:51	14.8	66
35757	2023-10-08T08:25:52	15.1	62
35758	2023-10-08T08:35:51	15.4	61.5
35759	2023-10-08T08:45:51	15.7	59.5
35760	2023-10-08T08:55:51	16	59
35761	2023-10-08T09:05:56	16.3	57.5
35762	2023-10-08T09:16:05	16.6	56
35763	2023-10-08T09:25:51	17	54
35764	2023-10-08T09:35:51	17.5	54
35765	2023-10-08T09:45:51	18	52
35766	2023-10-08T09:55:56	18.5	51.5
35767	2023-10-08T10:05:51	18.9	50.5
35768	2023-10-08T10:16:01	19.3	49.5
35769	2023-10-08T10:25:51	19.8	48.5
35770	2023-10-08T10:36:00	20.2	47.5
35771	2023-10-08T10:45:54	20.6	46
35772	2023-10-08T10:55:54	21.1	44
35773	2023-10-08T11:06:02	22.1	43.5
35774	2023-10-08T11:15:51	23.2	43
35775	2023-10-08T11:25:52	24.2	41
35776	2023-10-08T11:36:00	24.7	40.5
35777	2023-10-08T11:45:51	24.8	39
35778	2023-10-08T11:55:51	25.3	37.5
35779	2023-10-08T12:05:51	26	37
35780	2023-10-08T12:16:00	26.5	36.5
35781	2023-10-08T12:25:51	27.1	35
35782	2023-10-08T12:35:51	27.3	34
35783	2023-10-08T12:45:51	27.8	33.5
35784	2023-10-08T12:55:51	28.6	33
35785	2023-10-08T13:05:51	28.8	33.5
35786	2023-10-08T13:15:51	29.6	33
35787	2023-10-08T13:25:53	29.8	32.5
35788	2023-10-08T13:35:59	30.1	32
35789	2023-10-08T13:45:51	30.6	31
35790	2023-10-08T13:55:51	30.6	31.5
35791	2023-10-08T14:05:51	31.1	31
35792	2023-10-08T14:15:51	31.4	30
35793	2023-10-08T14:25:51	31.7	30.5
35794	2023-10-08T14:35:51	31.2	30.5
35795	2023-10-08T14:45:51	31	30
35796	2023-10-08T14:55:51	31.2	30.5
35797	2023-10-08T15:06:00	29.8	32
35798	2023-10-08T15:15:51	29.5	32.5
35799	2023-10-08T15:25:51	28.7	34
35800	2023-10-08T15:35:51	29.2	33.5
35801	2023-10-08T15:45:51	28.9	35.5
35802	2023-10-08T15:55:58	28.1	36
35803	2023-10-08T16:05:51	26.7	40.5
35804	2023-10-08T16:15:51	25.8	43
35805	2023-10-08T16:25:51	25.3	46.5
35806	2023-10-08T16:35:51	24.5	51
35807	2023-10-08T16:45:51	23.7	50.5
35808	2023-10-08T16:55:51	23	52
35809	2023-10-08T17:05:53	22.3	52.5
35810	2023-10-08T17:15:53	21.7	54
35811	2023-10-08T17:25:55	21.3	55.5
35812	2023-10-08T17:35:58	20.8	58
35813	2023-10-08T17:45:53	20.4	60
35814	2023-10-08T17:55:50	20.1	61
35815	2023-10-08T18:05:57	19.7	62
35816	2023-10-08T18:15:51	19.5	63
35817	2023-10-08T18:25:59	19.2	62.5
35818	2023-10-08T18:35:55	19	64
35819	2023-10-08T18:45:50	18.6	64.5
35820	2023-10-08T18:55:50	18.3	66
35821	2023-10-08T19:05:59	18.1	66.5
35822	2023-10-08T19:15:50	17.8	67
35823	2023-10-08T19:25:50	17.5	67.5
35824	2023-10-08T19:35:50	17.4	67.5
35825	2023-10-08T19:55:50	16.6	69.5
35826	2023-10-08T20:05:50	16.5	70.5
35827	2023-10-08T20:15:50	16.1	72
35828	2023-10-08T20:25:50	15.9	72.5
35829	2023-10-08T20:35:50	15.8	72
35830	2023-10-08T20:45:50	15.6	73
35831	2023-10-08T20:55:50	15.4	74
35832	2023-10-08T21:05:50	15.3	74.5
35833	2023-10-08T21:15:50	14.9	75
35834	2023-10-08T21:25:50	14.8	76
35835	2023-10-08T21:35:50	14.6	76
35836	2023-10-08T21:45:50	14.5	77
35837	2023-10-08T21:55:50	14.3	76.5
35838	2023-10-08T22:05:50	14.1	77.5
35839	2023-10-08T22:15:50	13.9	77.5
35840	2023-10-08T22:25:50	13.8	78.5
35841	2023-10-08T22:35:52	13.5	79
35842	2023-10-08T22:45:50	13.3	80
35843	2023-10-08T22:55:50	13.3	79
35844	2023-10-08T23:05:50	13.1	80.5
35845	2023-10-08T23:15:50	12.9	81
35846	2023-10-08T23:25:50	12.7	81.5
35847	2023-10-08T23:35:50	12.7	81
35848	2023-10-08T23:45:51	12.5	80.5
35849	2023-10-08T23:55:50	12.4	81.5
35850	2023-10-09T00:05:50	12.4	81
35851	2023-10-09T00:15:50	12.3	81.5
35852	2023-10-09T00:25:50	12.1	81.5
35853	2023-10-09T00:35:50	12.1	82
35854	2023-10-09T00:45:51	12	83
35855	2023-10-09T00:55:50	12	82
35856	2023-10-09T01:06:13	11.9	83
35857	2023-10-09T01:15:50	11.7	83
35858	2023-10-09T01:25:50	11.8	83
35859	2023-10-09T01:35:50	11.8	83
35860	2023-10-09T01:45:50	11.7	84
35861	2023-10-09T01:55:50	11.7	84
35862	2023-10-09T02:05:50	11.9	82
35863	2023-10-09T02:15:50	11.7	82.5
35864	2023-10-09T02:25:50	11.7	83.5
35865	2023-10-09T02:35:50	11.6	83.5
35866	2023-10-09T02:45:50	11.7	83.5
35867	2023-10-09T02:55:50	11.5	83.5
35868	2023-10-09T03:05:50	11.4	83.5
35869	2023-10-09T03:15:50	11.2	84.5
35870	2023-10-09T03:25:50	11.4	84.5
35871	2023-10-09T03:35:50	11.4	84
35872	2023-10-09T03:45:50	11.5	84
35873	2023-10-09T03:55:50	11.4	84.5
35874	2023-10-09T04:05:50	11.4	85
35875	2023-10-09T04:15:50	11.5	85
35876	2023-10-09T04:25:50	11.2	85.5
35877	2023-10-09T04:35:50	11.3	85
35878	2023-10-09T04:45:50	11.6	84.5
35879	2023-10-09T04:55:50	11.8	84.5
35880	2023-10-09T05:05:50	11.8	84.5
35881	2023-10-09T05:15:50	11.5	85
35882	2023-10-09T05:25:50	11.4	85.5
35883	2023-10-09T05:35:50	11.7	84.5
35884	2023-10-09T05:45:50	12.1	83
35885	2023-10-09T05:55:50	12.6	81
35886	2023-10-09T06:05:50	12.9	79.5
35887	2023-10-09T06:15:50	13.2	79
35888	2023-10-09T06:25:50	13	80.5
35889	2023-10-09T06:35:50	13	80.5
35890	2023-10-09T06:45:50	12.9	81.5
35891	2023-10-09T06:55:50	13.2	80
35892	2023-10-09T07:05:50	13.6	81.5
35893	2023-10-09T07:15:49	14	78
35894	2023-10-09T07:25:49	14.2	75.5
35895	2023-10-09T07:35:49	14.5	76
35896	2023-10-09T07:46:10	14.9	76
35897	2023-10-09T07:55:49	15.2	75
35898	2023-10-09T08:05:49	15.3	74.5
35899	2023-10-09T08:15:49	15.7	72
35900	2023-10-09T08:25:49	16	70.5
35901	2023-10-09T08:35:49	16.3	69.5
35902	2023-10-09T08:45:49	16.6	69.5
35903	2023-10-09T08:55:49	16.9	69
35904	2023-10-09T09:05:49	17.2	69.5
35905	2023-10-09T09:15:49	17.6	69
35906	2023-10-09T09:25:49	18.2	65.5
35907	2023-10-09T09:35:49	18.7	64.5
35908	2023-10-09T09:45:49	19.3	63.5
35909	2023-10-09T09:55:49	20	61.5
35910	2023-10-09T10:05:49	20.5	60
35911	2023-10-09T10:15:49	20.8	59
35912	2023-10-09T10:25:49	20.9	59
35913	2023-10-09T10:35:49	21.4	58.5
35914	2023-10-09T10:45:49	22.5	54.5
35915	2023-10-09T10:55:49	22.5	53.5
35916	2023-10-09T11:05:49	22.2	54.5
35917	2023-10-09T11:15:49	22	55
35918	2023-10-09T11:25:49	22.1	55.5
35919	2023-10-09T11:35:49	22.3	56
35920	2023-10-09T11:45:49	22.7	53.5
35921	2023-10-09T11:55:49	23	54.5
35922	2023-10-09T12:05:49	23.4	51.5
35923	2023-10-09T12:15:49	25.8	45.5
35924	2023-10-09T12:25:49	25.7	44
35925	2023-10-09T12:35:49	26.4	43
35926	2023-10-09T12:45:49	27.7	40
35927	2023-10-09T12:55:49	28	39
35928	2023-10-09T13:05:49	28.4	37.5
35929	2023-10-09T13:15:49	28.6	36
35930	2023-10-09T13:25:49	29.1	35
35931	2023-10-09T13:35:49	29.9	34.5
35932	2023-10-09T13:45:49	30.3	32
35933	2023-10-09T13:55:49	30	32
35934	2023-10-09T14:05:49	29	33.5
35935	2023-10-09T14:15:49	28.9	33.5
35936	2023-10-09T14:25:49	29.4	34
35937	2023-10-09T14:35:49	29.1	33
35938	2023-10-09T14:45:49	28.3	34
35939	2023-10-09T14:55:49	30.2	31.5
35940	2023-10-09T15:05:49	28.4	34
35941	2023-10-09T15:15:49	27.7	35
35942	2023-10-09T15:25:49	26.8	38
35943	2023-10-09T15:35:49	26.5	39.5
35944	2023-10-09T15:45:49	26	41
35945	2023-10-09T15:55:49	25.5	43
35946	2023-10-09T16:05:49	25.1	45.5
35947	2023-10-09T16:15:49	24.4	46.5
35948	2023-10-09T16:25:49	24	47
35949	2023-10-09T16:35:49	23.6	48
35950	2023-10-09T16:45:49	23.2	49.5
35951	2023-10-09T16:55:49	22.9	50
35952	2023-10-09T17:05:49	22.3	55.5
35953	2023-10-09T17:15:49	21.9	56.5
35954	2023-10-09T17:25:49	21.6	55.5
35955	2023-10-09T17:35:49	21.1	56
35956	2023-10-09T17:45:48	20.6	58.5
35957	2023-10-09T17:55:48	20.1	59.5
35958	2023-10-09T18:05:48	20.1	59.5
35959	2023-10-09T18:15:48	19.9	60.5
35960	2023-10-09T18:25:48	19.4	62
35961	2023-10-09T18:35:48	19.2	62.5
35962	2023-10-09T18:45:48	19.2	63
35963	2023-10-09T18:55:48	19.1	63.5
35964	2023-10-09T19:05:48	19	64.5
35965	2023-10-09T19:15:48	18.8	65.5
35966	2023-10-09T19:25:48	18.4	67
35967	2023-10-09T19:35:48	17.9	69
35968	2023-10-09T19:45:48	17.7	70.5
35969	2023-10-09T19:55:48	17.5	71
35970	2023-10-09T20:05:48	17.3	70.5
35971	2023-10-09T20:15:48	17	72
35972	2023-10-09T20:25:48	16.7	73.5
35973	2023-10-09T20:35:48	16.4	75
35974	2023-10-09T20:45:48	16.2	75.5
35975	2023-10-09T20:55:48	16	76
35976	2023-10-09T21:05:48	15.8	76.5
35977	2023-10-09T21:15:48	15.5	77.5
35978	2023-10-09T21:25:48	15.3	78.5
35979	2023-10-09T21:35:48	15	79
35980	2023-10-09T21:45:48	14.8	79.5
35981	2023-10-09T21:55:48	14.7	80
35982	2023-10-09T22:05:48	14.6	80
35983	2023-10-09T22:15:48	14.4	80
35984	2023-10-09T22:25:48	14.3	81
35985	2023-10-09T22:35:48	14.2	80.5
35986	2023-10-09T22:45:48	14.1	81
35987	2023-10-09T22:55:48	13.9	81.5
35988	2023-10-09T23:05:48	13.8	82
35989	2023-10-09T23:15:48	13.6	82.5
35990	2023-10-09T23:25:48	13.4	83
35991	2023-10-09T23:35:48	13.3	85
35992	2023-10-09T23:45:48	13.1	85
35993	2023-10-09T23:55:48	12.8	85
35994	2023-10-10T00:05:48	12.8	85
35995	2023-10-10T00:15:48	12.7	85
35996	2023-10-10T00:25:48	12.5	86
35997	2023-10-10T00:35:48	12.3	86
35998	2023-10-10T00:45:48	12.4	86
35999	2023-10-10T00:55:48	12.2	85.5
36000	2023-10-10T01:05:48	12.1	88
36001	2023-10-10T01:15:48	11.9	88
36002	2023-10-10T01:25:48	11.8	88
36003	2023-10-10T01:35:48	11.6	88.5
36004	2023-10-10T01:45:48	11.5	89
36005	2023-10-10T01:55:48	11.5	89
36006	2023-10-10T02:05:48	11.5	89.5
36007	2023-10-10T02:15:48	11.3	89
36008	2023-10-10T02:25:48	11.3	89.5
36009	2023-10-10T02:35:48	11.1	89.5
36010	2023-10-10T02:45:48	10.9	90.5
36011	2023-10-10T02:55:48	11	90.5
36012	2023-10-10T03:05:48	10.8	90.5
36013	2023-10-10T03:15:48	10.8	91
36014	2023-10-10T03:25:48	10.6	91
36015	2023-10-10T03:35:48	10.3	91
36016	2023-10-10T03:45:48	10.4	92
36017	2023-10-10T03:55:48	10.3	92
36018	2023-10-10T04:05:48	10.3	92
36019	2023-10-10T04:15:48	10.4	92
36020	2023-10-10T04:25:48	10.4	91.5
36021	2023-10-10T04:35:48	10.3	92.5
36022	2023-10-10T04:45:48	10.3	93
36023	2023-10-10T04:55:48	10.1	92.5
36024	2023-10-10T05:05:48	10.1	93
36025	2023-10-10T05:15:48	9.9	93
36026	2023-10-10T05:25:48	9.8	93
36027	2023-10-10T05:35:48	9.8	93
36028	2023-10-10T05:45:48	9.8	92.5
36029	2023-10-10T05:55:48	9.8	92.5
36030	2023-10-10T06:05:48	9.9	93
36031	2023-10-10T06:15:48	9.9	93
36032	2023-10-10T06:25:48	10.2	93
36033	2023-10-10T06:35:48	10.3	93
36034	2023-10-10T06:45:47	10.5	93
36035	2023-10-10T06:55:48	10.6	93
36036	2023-10-10T07:05:47	10.9	93
36037	2023-10-10T07:15:47	11.3	91.5
36038	2023-10-10T07:25:48	11.6	91
36039	2023-10-10T07:35:47	12.1	90
36040	2023-10-10T07:45:47	12.7	87.5
36041	2023-10-10T07:55:47	12.9	86
36042	2023-10-10T08:05:48	13.6	82
36043	2023-10-10T08:15:47	13.9	75
36044	2023-10-10T08:25:47	14.6	74.5
36045	2023-10-10T08:35:47	15.1	73.5
36046	2023-10-10T08:45:47	15.6	71.5
36047	2023-10-10T08:55:47	16.4	71.5
36048	2023-10-10T09:05:47	17	71
36049	2023-10-10T09:15:47	17.4	71
36050	2023-10-10T09:25:47	17.8	70
36051	2023-10-10T09:35:47	18.2	70
36052	2023-10-10T09:45:47	18.4	68.5
36053	2023-10-10T09:55:47	18.9	68.5
36054	2023-10-10T10:05:47	19.2	67
36055	2023-10-10T10:15:47	19.6	65.5
36056	2023-10-10T10:25:47	19.8	64.5
36057	2023-10-10T10:35:47	20.3	63.5
36058	2023-10-10T10:45:47	20.8	62
36059	2023-10-10T10:55:47	21.1	61.5
36060	2023-10-10T11:05:47	22	59
36061	2023-10-10T11:15:47	22.7	57
36062	2023-10-10T11:25:47	23.4	55.5
36063	2023-10-10T11:35:47	23.7	54.5
36064	2023-10-10T11:45:47	24.1	53.5
36065	2023-10-10T11:55:47	24.5	52.5
36066	2023-10-10T12:05:47	24.9	51.5
36067	2023-10-10T12:15:47	25	51.5
36068	2023-10-10T12:35:47	25.9	49
36069	2023-10-10T12:45:47	26	47.5
36070	2023-10-10T12:55:47	26.2	47.5
36071	2023-10-10T13:05:47	26.4	46.5
36072	2023-10-10T13:15:47	27.5	42
36073	2023-10-10T13:25:47	28.1	37.5
36074	2023-10-10T13:35:47	28.5	37
36075	2023-10-10T13:45:47	29.3	35
36076	2023-10-10T13:55:47	30	33.5
36077	2023-10-10T14:05:47	29.7	31.5
36078	2023-10-10T14:15:47	29.4	33.5
36079	2023-10-10T14:25:47	29.3	33.5
36080	2023-10-10T14:35:47	29.5	32.5
36081	2023-10-10T14:45:47	29.3	31
36082	2023-10-10T14:55:47	29	31
36083	2023-10-10T15:05:47	29.8	31
36084	2023-10-10T15:15:47	29.7	31
36085	2023-10-10T15:25:47	29.4	32.5
36086	2023-10-10T15:35:47	29.2	33
36087	2023-10-10T15:45:47	28.9	34
36088	2023-10-10T15:55:47	26.6	40.5
36089	2023-10-10T16:05:47	25.4	45
36090	2023-10-10T16:15:47	24.4	47.5
36091	2023-10-10T16:25:47	23.8	48.5
36092	2023-10-10T16:35:47	23.4	50.5
36093	2023-10-10T16:45:47	22.7	53
36094	2023-10-10T16:55:47	22.2	55
36095	2023-10-10T17:05:47	21.6	57.5
36096	2023-10-10T17:15:47	21.2	58.5
36097	2023-10-10T17:25:47	20.8	58.5
36098	2023-10-10T17:35:47	20.6	59
36099	2023-10-10T17:45:46	20.4	58.5
36100	2023-10-10T17:55:46	20.2	59.5
36101	2023-10-10T18:05:46	20.1	60
36102	2023-10-10T18:15:46	19.8	61
36103	2023-10-10T18:25:46	19.6	62
36104	2023-10-10T18:35:46	19.3	63.5
36105	2023-10-10T18:45:46	18.8	65
36106	2023-10-10T18:55:46	18.4	67
36107	2023-10-10T19:05:46	18.1	68
36108	2023-10-10T19:15:46	17.8	68.5
36109	2023-10-10T19:25:46	17.5	68.5
36110	2023-10-10T19:35:46	17.1	69.5
36111	2023-10-10T19:45:46	16.8	71
36112	2023-10-10T19:55:46	16.6	71.5
36113	2023-10-10T20:05:46	16.4	72
36114	2023-10-10T20:15:46	16.2	73
36115	2023-10-10T20:25:46	15.9	73.5
36116	2023-10-10T20:35:46	15.8	74
36117	2023-10-10T20:45:46	15.6	74
36118	2023-10-10T20:55:46	15.5	74.5
36119	2023-10-10T21:05:46	15.4	74.5
36120	2023-10-10T21:15:46	15.3	75
36121	2023-10-10T21:25:46	15.1	76
36122	2023-10-10T21:35:46	15.2	76
36123	2023-10-10T21:45:46	15.1	75.5
36124	2023-10-10T21:55:46	15.1	75.5
36125	2023-10-10T22:05:46	14.9	76.5
36126	2023-10-10T22:15:46	15.1	76.5
36127	2023-10-10T22:25:46	15	77
36128	2023-10-10T22:35:46	14.8	77.5
36129	2023-10-10T22:45:46	14.7	78.5
36130	2023-10-10T22:55:46	14.5	79
36131	2023-10-10T23:05:46	14.4	79.5
36132	2023-10-10T23:15:46	14.2	80
36133	2023-10-10T23:25:46	13.8	81.5
36134	2023-10-10T23:35:46	13.6	82
36135	2023-10-10T23:45:46	13.3	82.5
36136	2023-10-10T23:55:46	13.4	82.5
36137	2023-10-11T00:05:46	13.4	82.5
36138	2023-10-11T00:15:46	13.4	82.5
36139	2023-10-11T00:25:46	13.3	82
36140	2023-10-11T00:35:46	13.1	83
36141	2023-10-11T00:45:46	12.9	83.5
36142	2023-10-11T00:55:46	12.8	85
36143	2023-10-11T01:05:46	12.6	85.5
36144	2023-10-11T01:15:46	12.2	86
36145	2023-10-11T01:25:46	12.1	86.5
36146	2023-10-11T01:35:46	11.9	86.5
36147	2023-10-11T01:45:46	11.8	86.5
36148	2023-10-11T01:55:46	11.6	86.5
36149	2023-10-11T02:05:46	11.5	86.5
36150	2023-10-11T02:15:46	11.3	87
36151	2023-10-11T02:25:46	11.2	87.5
36152	2023-10-11T02:35:46	11.1	87.5
36153	2023-10-11T02:45:46	11	88
36154	2023-10-11T02:55:46	10.8	87.5
36155	2023-10-11T03:05:46	10.6	88
36156	2023-10-11T03:15:46	10.6	88
36157	2023-10-11T03:25:46	10.5	89
36158	2023-10-11T03:35:46	10.5	88.5
36159	2023-10-11T03:45:46	10.5	88
36160	2023-10-11T03:55:46	10.3	88.5
36161	2023-10-11T04:05:46	10.1	89
36162	2023-10-11T04:15:46	10.1	89.5
36163	2023-10-11T04:25:46	10	89.5
36164	2023-10-11T04:35:46	9.9	89.5
36165	2023-10-11T04:45:46	9.8	90
36166	2023-10-11T04:55:46	9.7	90
36167	2023-10-11T05:05:46	9.6	90
36168	2023-10-11T05:15:46	9.5	90
36169	2023-10-11T05:25:46	9.4	90.5
36170	2023-10-11T05:35:46	9.4	91
36171	2023-10-11T05:45:46	9.4	91.5
36172	2023-10-11T05:55:46	9.1	92
36173	2023-10-11T06:05:46	9.3	91.5
36174	2023-10-11T06:15:46	9.3	92
36175	2023-10-11T06:25:46	9.4	92
36176	2023-10-11T06:35:46	9.7	92
36177	2023-10-11T06:45:46	9.7	92
36178	2023-10-11T06:55:46	10.1	92
36179	2023-10-11T07:05:46	10.4	92.5
36180	2023-10-11T07:15:46	10.4	92.5
36181	2023-10-11T07:25:45	10.9	91.5
36182	2023-10-11T07:35:45	11.5	90.5
36183	2023-10-11T07:45:45	11.6	90.5
36184	2023-10-11T07:55:45	12	88.5
36185	2023-10-11T08:05:45	12.7	86
36186	2023-10-11T08:15:45	13.4	82.5
36187	2023-10-11T08:25:45	13.8	81.5
36188	2023-10-11T08:35:45	14.2	79.5
36189	2023-10-11T08:45:45	14.6	76.5
36190	2023-10-11T08:55:45	15.1	75.5
36191	2023-10-11T09:05:45	15.7	75
36192	2023-10-11T09:15:45	16.1	73
36193	2023-10-11T09:25:45	16.4	71.5
36194	2023-10-11T09:35:45	17	71
36195	2023-10-11T09:45:46	17.4	69
36196	2023-10-11T09:55:45	18.1	65.5
36197	2023-10-11T10:05:45	18.4	65
36198	2023-10-11T10:15:45	19	63.5
36199	2023-10-11T10:25:45	19.6	61
36200	2023-10-11T10:35:45	20	61
36201	2023-10-11T10:45:45	20.6	60.5
36202	2023-10-11T10:55:45	21.2	59
36203	2023-10-11T11:05:45	22.9	52.5
36204	2023-10-11T11:15:45	24.2	48.5
36205	2023-10-11T11:25:45	25.3	44
36206	2023-10-11T11:35:45	26.1	41.5
36207	2023-10-11T11:45:45	26.8	41
36208	2023-10-11T11:55:45	27.6	39.5
36209	2023-10-11T12:05:45	28.3	38
36210	2023-10-11T12:15:45	28.7	36.5
36211	2023-10-11T12:25:45	29.2	36.5
36212	2023-10-11T12:35:45	29.8	36.5
36213	2023-10-11T12:45:45	30.2	35
36214	2023-10-11T12:55:45	31.1	33.5
36215	2023-10-11T13:05:45	30.8	34
36216	2023-10-11T13:15:45	31.1	33
36217	2023-10-11T13:25:45	31.6	32.5
36218	2023-10-11T13:35:45	31.9	31.5
36219	2023-10-11T13:45:45	31.9	31.5
36220	2023-10-11T13:55:45	32.7	31
36221	2023-10-11T14:05:45	32.7	30
36222	2023-10-11T14:15:45	32.9	30
36223	2023-10-11T14:25:45	33	29.5
36224	2023-10-11T14:35:45	32.9	31
36225	2023-10-11T14:45:45	33.1	28.5
36226	2023-10-11T14:55:45	33.4	29.5
36227	2023-10-11T15:05:45	33.4	29
36228	2023-10-11T15:15:45	32.9	29.5
36229	2023-10-11T15:25:45	32.5	30.5
36230	2023-10-11T15:35:45	32.4	30.5
36231	2023-10-11T15:45:45	31.8	31.5
36232	2023-10-11T15:55:45	30.5	34
36233	2023-10-11T16:05:45	28.9	39
36234	2023-10-11T16:15:45	28.2	41.5
36235	2023-10-11T16:25:45	27.4	45
36236	2023-10-11T16:35:45	26.4	47.5
36237	2023-10-11T16:45:45	25.7	48
36238	2023-10-11T16:55:45	24.7	50.5
36239	2023-10-11T17:05:45	24.2	52
36240	2023-10-11T17:15:45	23.7	54
36241	2023-10-11T17:25:45	23	55.5
36242	2023-10-11T17:35:45	22.5	54.5
36243	2023-10-11T17:45:45	22.2	55.5
36244	2023-10-11T17:55:45	21.7	57.5
36245	2023-10-11T18:05:44	21.2	59.5
36246	2023-10-11T18:15:44	20.8	61
36247	2023-10-11T18:25:44	20.7	61.5
36248	2023-10-11T18:35:44	20.2	63
36249	2023-10-11T18:45:44	19.9	64
36250	2023-10-11T18:55:44	19.4	65
36251	2023-10-11T19:05:44	19.2	65
36252	2023-10-11T19:15:44	18.9	66.5
36253	2023-10-11T19:25:45	18.6	67
36254	2023-10-11T19:35:44	18.3	68
36255	2023-10-11T19:45:44	18	69
36256	2023-10-11T19:55:44	17.5	69
36257	2023-10-11T20:05:45	17.4	70
36258	2023-10-11T20:15:44	17.2	71
36259	2023-10-11T20:25:44	17	71.5
36260	2023-10-11T20:35:44	16.8	72.5
36261	2023-10-11T20:45:44	16.7	73
36262	2023-10-11T20:55:44	16.5	73.5
36263	2023-10-11T21:05:44	16.3	74
36264	2023-10-11T21:15:44	16.2	74.5
36265	2023-10-11T21:25:44	16	74.5
36266	2023-10-11T21:35:44	15.9	75.5
36267	2023-10-11T21:45:44	15.7	76
36268	2023-10-11T21:55:44	15.7	76
36269	2023-10-11T22:05:44	16.1	72
36270	2023-10-11T22:15:44	16.6	70
36271	2023-10-11T22:25:44	16.9	68.5
36272	2023-10-11T22:35:44	17	68
36273	2023-10-11T22:45:44	17.7	66.5
36274	2023-10-11T22:55:44	18.1	64.5
36275	2023-10-11T23:05:44	18.3	64
36276	2023-10-11T23:15:44	18.4	63.5
36277	2023-10-11T23:25:44	18.5	63
36278	2023-10-11T23:35:44	18.3	64
36279	2023-10-11T23:45:44	18.1	64.5
36280	2023-10-11T23:55:44	17.8	65.5
36281	2023-10-12T00:05:44	17.5	66.5
36282	2023-10-12T00:15:44	17.3	67.5
36283	2023-10-12T00:25:44	17.2	67.5
36284	2023-10-12T00:35:44	17.1	68
36285	2023-10-12T00:45:44	17	68.5
36286	2023-10-12T00:55:44	17	68.5
36287	2023-10-12T01:05:44	16.8	68.5
36288	2023-10-12T01:15:44	16.9	68.5
36289	2023-10-12T01:25:44	16.9	68
36290	2023-10-12T01:35:44	17	68
36291	2023-10-12T01:45:44	17.1	67
36292	2023-10-12T01:55:44	17.2	66.5
36293	2023-10-12T02:05:44	17.2	66
36294	2023-10-12T02:15:44	17.4	65.5
36295	2023-10-12T02:25:44	17.6	64.5
36296	2023-10-12T02:35:44	17.5	65
36297	2023-10-12T02:45:44	17.6	64.5
36298	2023-10-12T02:55:44	17.5	64.5
36299	2023-10-12T03:05:44	17.7	64
36300	2023-10-12T03:15:44	17.6	64
36301	2023-10-12T03:25:44	17.5	64
36302	2023-10-12T03:35:44	17.4	64.5
36303	2023-10-12T03:45:44	17.5	64
36304	2023-10-12T03:55:44	17.6	63.5
36305	2023-10-12T04:05:44	17.4	65
36306	2023-10-12T04:15:44	17.1	66
36307	2023-10-12T04:25:44	16.6	69
36308	2023-10-12T04:35:44	16.6	68.5
36309	2023-10-12T04:45:44	16.4	69.5
36310	2023-10-12T04:55:44	16.4	69.5
36311	2023-10-12T05:05:44	16.1	70.5
36312	2023-10-12T05:15:44	15.9	72
36313	2023-10-12T05:25:44	15.7	73
36314	2023-10-12T05:35:44	15.6	73.5
36315	2023-10-12T05:45:43	15.9	73
36316	2023-10-12T05:55:43	15.8	73.5
36317	2023-10-12T06:05:43	15.8	74
36318	2023-10-12T06:15:43	15.8	74
36319	2023-10-12T06:25:43	15.9	75.5
36320	2023-10-12T06:35:43	16	75
36321	2023-10-12T06:45:43	16.3	73
36322	2023-10-12T06:56:04	16.8	71.5
36323	2023-10-12T07:05:43	16.8	74
36324	2023-10-12T07:15:43	17.2	71.5
36325	2023-10-12T07:25:43	17.5	70.5
36326	2023-10-12T07:35:43	17.7	69.5
36327	2023-10-12T07:45:43	18.1	70.5
36328	2023-10-12T07:55:43	18.4	69
36329	2023-10-12T08:05:43	18.8	66.5
36330	2023-10-12T08:15:43	19.1	66
36331	2023-10-12T08:25:43	19.4	64.5
36332	2023-10-12T08:35:43	19.7	64
36333	2023-10-12T08:45:43	20.2	63.5
36334	2023-10-12T08:55:43	20.9	62.5
36335	2023-10-12T09:05:43	21.3	60
36336	2023-10-12T09:15:43	21.9	57.5
36337	2023-10-12T09:25:43	22.5	56.5
36338	2023-10-12T09:35:43	22.5	55
36339	2023-10-12T09:45:43	23.3	51.5
36340	2023-10-12T09:55:43	24	49
36341	2023-10-12T10:05:43	24.2	48
36342	2023-10-12T10:15:43	24.3	47
36343	2023-10-12T10:25:43	24.3	48
36344	2023-10-12T10:35:43	24.4	48.5
36345	2023-10-12T10:45:43	24.4	48.5
36346	2023-10-12T10:55:43	24.3	48.5
36347	2023-10-12T11:05:43	24.3	49
36348	2023-10-12T11:15:43	24.2	49.5
36349	2023-10-12T11:25:43	24	51.5
36350	2023-10-12T11:35:43	24.1	51.5
36351	2023-10-12T11:45:43	24.1	49.5
36352	2023-10-12T11:55:43	24.2	49.5
36353	2023-10-12T12:05:43	23.9	50
36354	2023-10-12T12:15:43	23.8	50.5
36355	2023-10-12T12:25:43	23.6	50.5
36356	2023-10-12T12:35:43	23.8	50.5
36357	2023-10-12T12:45:43	23.7	50
36358	2023-10-12T12:55:43	23.7	50
36359	2023-10-12T13:05:43	23.9	50
36360	2023-10-12T13:15:43	24.4	49.5
36361	2023-10-12T13:25:43	24.7	48.5
36362	2023-10-12T13:35:43	24.8	48
36363	2023-10-12T13:45:43	25.3	46.5
36364	2023-10-12T13:55:43	25.4	46
36365	2023-10-12T14:05:43	25.4	47
36366	2023-10-12T14:15:43	25.1	48.5
36367	2023-10-12T14:25:43	24.7	49.5
36368	2023-10-12T14:35:43	24.3	51
36369	2023-10-12T14:45:43	24	52
36370	2023-10-12T14:55:43	23.9	52.5
36371	2023-10-12T15:05:43	23.7	53
36372	2023-10-12T15:15:43	23.5	53.5
36373	2023-10-12T15:25:43	23.3	54
36374	2023-10-12T15:35:43	23	55.5
36375	2023-10-12T15:45:43	22.9	55
36376	2023-10-12T15:55:43	22.8	55.5
36377	2023-10-12T16:05:43	22.6	55
36378	2023-10-12T16:15:43	22.4	56
36379	2023-10-12T16:25:42	22.2	56.5
36380	2023-10-12T16:35:42	22	55
36381	2023-10-12T16:45:42	22	53
36382	2023-10-12T16:55:42	21.8	52
36383	2023-10-12T17:05:42	21.8	52
36384	2023-10-12T17:15:42	21.5	52.5
36385	2023-10-12T17:25:42	21.5	52.5
36386	2023-10-12T17:35:42	21.3	53
36387	2023-10-12T17:45:42	21.3	53
36388	2023-10-12T17:55:42	21.2	54
36389	2023-10-12T18:05:42	20.8	55.5
36390	2023-10-12T18:15:42	20.8	56.5
36391	2023-10-12T18:25:42	20.6	59
36392	2023-10-12T18:35:42	20.4	60.5
36393	2023-10-12T18:45:42	20.2	61.5
36394	2023-10-12T18:55:42	20	64
36395	2023-10-12T19:05:42	19.7	65
36396	2023-10-12T19:15:42	19.6	66
36397	2023-10-12T19:25:42	19.4	66.5
36398	2023-10-12T19:35:42	19.3	68
36399	2023-10-12T19:45:42	19.4	68.5
36400	2023-10-12T19:55:42	19.3	68
36401	2023-10-12T20:05:42	19.3	68
36402	2023-10-12T20:15:42	19	70
36403	2023-10-12T20:25:42	18.9	70
36404	2023-10-12T20:35:42	18.9	70.5
36405	2023-10-12T20:45:42	18.7	72
36406	2023-10-12T20:55:42	18.7	72.5
36407	2023-10-12T21:05:42	18.5	72.5
36408	2023-10-12T21:15:42	18.5	73.5
36409	2023-10-12T21:25:42	18.6	70.5
36410	2023-10-12T21:35:42	18.7	70
36411	2023-10-12T21:45:42	18.8	70.5
36412	2023-10-12T21:55:42	18.5	73
36413	2023-10-12T22:05:42	18.6	67.5
36414	2023-10-12T22:15:42	18.9	64
36415	2023-10-12T22:25:42	19.1	63
36416	2023-10-12T22:35:42	19.2	62.5
36417	2023-10-12T22:45:42	18.9	63.5
36418	2023-10-12T22:55:42	18.9	64.5
36419	2023-10-12T23:05:42	18.8	65
36420	2023-10-12T23:15:42	18.6	65
36421	2023-10-12T23:25:42	18.6	66
36422	2023-10-12T23:35:42	18.5	68.5
36423	2023-10-12T23:45:42	18.4	66.5
36424	2023-10-12T23:55:42	18.5	69
36425	2023-10-13T00:05:42	18.4	70.5
36426	2023-10-13T00:15:42	18.5	71
36427	2023-10-13T00:25:42	18.4	72.5
36428	2023-10-13T00:35:42	18.3	70
36429	2023-10-13T00:45:42	18.2	70
36430	2023-10-13T00:55:42	18.2	68
36431	2023-10-13T01:05:42	18.2	67
36432	2023-10-13T01:15:42	18.2	69
36433	2023-10-13T01:25:42	18.2	67
36434	2023-10-13T01:35:42	18.4	65
36435	2023-10-13T01:45:42	18.4	65
36436	2023-10-13T01:55:42	18.3	66
36437	2023-10-13T02:05:42	18.3	64.5
36438	2023-10-13T02:15:42	17.5	67.5
36439	2023-10-13T02:25:42	17.3	69.5
36440	2023-10-13T02:35:42	16.7	73
36441	2023-10-13T02:45:42	16.4	73.5
36442	2023-10-13T02:55:42	16.2	76
36443	2023-10-13T03:05:41	15.8	76.5
36444	2023-10-13T03:15:41	15.6	76.5
36445	2023-10-13T03:25:41	15.4	76.5
36446	2023-10-13T03:35:41	15.3	76
36447	2023-10-13T03:45:41	15.2	75
36448	2023-10-13T03:55:41	15	76.5
36449	2023-10-13T04:05:41	14.8	77
36450	2023-10-13T04:15:41	14.6	77.5
36451	2023-10-13T04:25:41	14.6	79
36452	2023-10-13T04:35:41	14.5	78
36453	2023-10-13T04:45:41	14.4	78
36454	2023-10-13T04:55:41	14.2	78
36455	2023-10-13T05:05:41	14.2	79.5
36456	2023-10-13T05:15:41	14.2	79.5
36457	2023-10-13T05:25:41	14.1	79.5
36458	2023-10-13T05:35:41	14.1	79.5
36459	2023-10-13T05:45:41	13.9	80
36460	2023-10-13T05:55:41	13.8	81
36461	2023-10-13T06:05:41	13.8	81
36462	2023-10-13T06:15:41	13.9	81.5
36463	2023-10-13T06:25:41	13.7	82
36464	2023-10-13T06:35:41	13.8	82.5
36465	2023-10-13T06:45:41	13.9	82.5
36466	2023-10-13T06:55:41	14	82.5
36467	2023-10-13T07:05:41	14.2	82.5
36468	2023-10-13T07:15:41	14.5	81.5
36469	2023-10-13T07:25:41	14.7	81.5
36470	2023-10-13T07:35:41	15	83
36471	2023-10-13T07:45:41	15.4	79.5
36472	2023-10-13T07:55:41	15.7	79
36473	2023-10-13T08:05:41	16.3	76.5
36474	2023-10-13T08:15:41	16.7	74.5
36475	2023-10-13T08:25:41	17.3	73.5
36476	2023-10-13T08:35:41	17.4	71
36477	2023-10-13T08:45:41	18	69
36478	2023-10-13T08:55:41	18.2	69
36479	2023-10-13T09:05:41	18.1	68
36480	2023-10-13T09:15:41	18	70.5
36481	2023-10-13T09:25:41	18.7	66.5
36482	2023-10-13T09:35:41	19.4	65.5
36483	2023-10-13T09:45:41	20.3	60.5
36484	2023-10-13T09:55:41	21.7	52
36485	2023-10-13T10:05:41	22.4	48
36486	2023-10-13T10:15:41	23.1	45
36487	2023-10-13T10:25:41	23.6	44
36488	2023-10-13T10:35:41	23.9	42.5
36489	2023-10-13T10:45:41	24.4	39
36490	2023-10-13T10:55:41	24.9	37
36491	2023-10-13T11:05:41	26.2	35
36492	2023-10-13T11:15:41	27.3	33
36493	2023-10-13T11:25:41	28	31.5
36494	2023-10-13T11:35:41	28.8	30.5
36495	2023-10-13T11:45:41	29.5	29
36496	2023-10-13T11:55:41	29.8	27.5
36497	2023-10-13T12:05:41	30.2	27.5
36498	2023-10-13T12:25:41	31	26.5
36499	2023-10-13T12:35:41	31.3	26.5
36500	2023-10-13T12:45:41	31.7	26
36501	2023-10-13T12:55:41	32.1	25.5
36502	2023-10-13T13:05:41	32.4	24.5
36503	2023-10-13T13:15:41	33	24
36504	2023-10-13T13:25:41	32.6	24
36505	2023-10-13T13:35:41	33	24.5
36506	2023-10-13T13:45:41	33.2	24
36507	2023-10-13T13:55:41	33.5	23.5
36508	2023-10-13T14:05:41	33.2	23
36509	2023-10-13T14:15:41	33.6	23
36510	2023-10-13T14:25:40	33.9	22
36511	2023-10-13T14:35:40	34.2	23
36512	2023-10-13T14:45:41	34.5	23
36513	2023-10-13T14:55:40	34.3	22.5
36514	2023-10-13T15:05:40	34.2	22
36515	2023-10-13T15:15:40	33.5	21
36516	2023-10-13T15:25:40	33.5	21.5
36517	2023-10-13T15:35:40	33.1	22
36518	2023-10-13T15:45:40	32.4	23
36519	2023-10-13T15:55:40	31	25
36520	2023-10-13T16:05:40	29.4	26.5
36521	2023-10-13T16:15:40	28.7	27
36522	2023-10-13T16:25:40	27.9	28.5
36523	2023-10-13T16:35:40	27.1	31
36524	2023-10-13T16:45:40	26.4	31.5
36525	2023-10-13T16:55:40	25.9	30.5
36526	2023-10-13T17:05:40	25.6	30.5
36527	2023-10-13T17:15:40	25.1	31
36528	2023-10-13T17:25:40	24.6	38.5
36529	2023-10-13T17:35:40	24.4	33
36530	2023-10-13T17:45:40	24.5	30.5
36531	2023-10-13T17:55:40	24.7	29.5
36532	2023-10-13T18:05:40	24.6	30
36533	2023-10-13T18:15:40	24.3	31
36534	2023-10-13T18:25:40	24.1	32
36535	2023-10-13T18:35:40	24	33.5
36536	2023-10-13T18:45:40	23.8	35
36537	2023-10-13T18:55:40	23.9	33.5
36538	2023-10-13T19:05:40	24.7	31
36539	2023-10-13T19:15:40	25.1	30.5
36540	2023-10-13T19:25:40	25.3	30.5
36541	2023-10-13T19:35:40	25.5	30
36542	2023-10-13T19:45:40	25.4	30.5
36543	2023-10-13T19:55:40	25.2	31
36544	2023-10-13T20:05:40	25.3	31.5
36545	2023-10-13T20:15:40	25.1	31.5
36546	2023-10-13T20:25:40	25.3	31.5
36547	2023-10-13T20:35:40	25.3	31.5
36548	2023-10-13T20:45:40	25.1	32.5
36549	2023-10-13T20:55:40	25.1	32
36550	2023-10-13T21:05:40	25.2	31.5
36551	2023-10-13T21:15:40	25.1	32
36552	2023-10-13T21:25:40	24.8	32.5
36553	2023-10-13T21:35:40	24.8	32.5
36554	2023-10-13T21:45:40	24.6	33
36555	2023-10-13T21:55:58	24.6	33.5
36556	2023-10-13T22:05:40	24.6	34
36557	2023-10-13T22:15:40	24.2	36.5
36558	2023-10-13T22:25:40	23.6	51.5
36559	2023-10-13T22:35:40	22.9	41
36560	2023-10-13T22:45:40	22.9	43.5
36561	2023-10-13T22:55:40	22.1	71.5
36562	2023-10-13T23:05:40	18.7	89.5
36563	2023-10-13T23:15:40	19.2	89.5
36564	2023-10-13T23:25:40	20.1	85.5
36565	2023-10-13T23:35:40	20.9	77
36566	2023-10-13T23:45:40	22.3	51.5
36567	2023-10-13T23:55:40	22.7	49.5
36568	2023-10-14T00:05:40	23	49.5
36569	2023-10-14T00:15:40	23.1	50
36570	2023-10-14T00:25:39	23.2	50
36571	2023-10-14T00:35:39	23.1	50.5
36572	2023-10-14T00:45:39	23.1	51
36573	2023-10-14T00:55:40	23.2	52
36574	2023-10-14T01:05:39	23.1	52
36575	2023-10-14T01:15:39	22.9	52.5
36576	2023-10-14T01:25:39	22.8	53
36577	2023-10-14T01:35:39	22.7	54
36578	2023-10-14T01:45:40	22.6	55
36579	2023-10-14T01:55:39	22.5	55.5
36580	2023-10-14T02:05:39	22.4	56
36581	2023-10-14T02:15:39	22.5	56.5
36582	2023-10-14T02:25:39	22.4	57
36583	2023-10-14T02:35:39	22.4	57.5
36584	2023-10-14T02:45:39	22.2	58
36585	2023-10-14T02:55:39	22.2	57.5
36586	2023-10-14T03:05:39	22.1	57.5
36587	2023-10-14T03:15:39	22.1	58
36588	2023-10-14T03:25:39	19.2	87
36589	2023-10-14T03:35:39	17.7	93
36590	2023-10-14T03:45:39	17.2	94.5
36591	2023-10-14T03:55:39	16.6	95
36592	2023-10-14T04:05:39	16.3	96
36593	2023-10-14T04:15:39	16.2	96.5
36594	2023-10-14T04:25:39	16.4	96.5
36595	2023-10-14T04:35:39	16.7	96.5
36596	2023-10-14T04:45:39	16.7	96.5
36597	2023-10-14T04:55:39	16.7	96.5
36598	2023-10-14T05:05:39	16.6	96.5
36599	2023-10-14T05:15:39	16.9	97
36600	2023-10-14T05:25:39	17	96.5
36601	2023-10-14T05:35:39	17.2	96
36602	2023-10-14T05:45:39	17.2	95.5
36603	2023-10-14T05:55:39	17.4	95.5
36604	2023-10-14T06:05:39	17.5	95
36605	2023-10-14T06:15:39	17.6	95
36606	2023-10-14T06:25:39	17.6	95
36607	2023-10-14T06:35:39	17.8	95
36608	2023-10-14T06:45:39	17.9	95
36609	2023-10-14T06:55:39	17.9	95
36610	2023-10-14T07:05:39	18	95
36611	2023-10-14T07:15:39	18	94
36612	2023-10-14T07:25:39	17.2	96
36613	2023-10-14T07:35:39	17.5	96
36614	2023-10-14T07:45:39	17.5	95.5
36615	2023-10-14T07:55:39	16.5	97
36616	2023-10-14T08:05:39	16	97.5
36617	2023-10-14T08:15:39	15.6	98
36618	2023-10-14T08:25:39	15.6	98
36619	2023-10-14T08:35:39	15.6	98.5
36620	2023-10-14T08:45:39	15.6	98.5
36621	2023-10-14T08:55:39	15.7	98.5
36622	2023-10-14T09:05:39	15.8	99
36623	2023-10-14T09:15:39	15.7	99
36624	2023-10-14T09:35:39	15.5	99
36625	2023-10-14T09:45:39	15.3	99
36626	2023-10-14T09:55:39	15.3	99
36627	2023-10-14T10:05:39	15.2	99
36628	2023-10-14T10:15:39	15.3	99
36629	2023-10-14T10:25:39	15.2	99
36630	2023-10-14T10:35:39	15	99
36631	2023-10-14T10:45:39	14.8	99
36632	2023-10-14T10:55:39	15	99.5
36633	2023-10-14T11:05:39	14.8	99
36634	2023-10-14T11:25:38	14.8	99.5
36635	2023-10-14T11:35:39	14.7	99.5
36636	2023-10-14T11:45:39	14.5	99.5
36637	2023-10-14T11:55:38	14.3	99.5
36638	2023-10-14T12:05:38	14.4	99.5
36639	2023-10-14T12:15:38	14.6	99.5
36640	2023-10-14T12:25:38	14.6	99.5
36641	2023-10-14T12:35:39	14.4	99.5
36642	2023-10-14T12:45:38	14.2	99.5
36643	2023-10-14T12:55:38	15.2	99.5
36644	2023-10-14T13:05:38	16.6	99.5
36645	2023-10-14T13:15:38	17.3	99
36646	2023-10-14T13:25:38	16.6	98
36647	2023-10-14T13:35:38	15.6	97
36648	2023-10-14T13:45:38	15.3	98
36649	2023-10-14T13:55:38	16.5	98.5
36650	2023-10-14T14:05:38	17.3	98.5
36651	2023-10-14T14:15:39	17.1	97
36652	2023-10-14T14:25:38	14.9	96.5
36653	2023-10-14T14:35:38	14.8	96.5
36654	2023-10-14T14:45:38	14.6	97.5
36655	2023-10-14T14:55:38	16.9	99
36656	2023-10-14T15:05:38	16.2	98.5
36657	2023-10-14T15:15:38	16.5	97
36658	2023-10-14T15:25:38	17.5	97
36659	2023-10-14T15:35:38	15.3	96.5
36660	2023-10-14T15:45:38	14.7	95.5
36661	2023-10-14T15:55:38	14.4	96.5
36662	2023-10-14T16:05:38	14.2	97
36663	2023-10-14T16:15:38	14	96.5
36664	2023-10-14T16:25:38	13.8	96.5
36665	2023-10-14T16:35:38	13.8	96.5
36666	2023-10-14T16:45:38	13.5	96.5
36667	2023-10-14T16:55:38	13.4	96
36668	2023-10-14T17:05:38	13.4	97
36669	2023-10-14T17:15:38	13.1	96
36670	2023-10-14T17:25:38	13.1	96.5
36671	2023-10-14T17:35:38	13	96
36672	2023-10-14T17:45:38	12.8	96
36673	2023-10-14T17:55:38	12.7	96
36674	2023-10-14T18:05:38	12.6	96
36675	2023-10-14T18:15:38	12.4	95.5
36676	2023-10-14T18:25:38	12.3	96.5
36677	2023-10-14T18:35:38	12.1	96.5
36678	2023-10-15T05:15:37	8.9	91.5
36679	2023-10-15T05:25:37	8.9	92
36680	2023-10-15T05:35:37	8.8	92.5
36681	2023-10-15T05:45:37	8.8	92.5
36682	2023-10-15T05:55:37	8.7	93
36683	2023-10-15T06:05:37	8.7	94
36684	2023-10-15T06:15:37	8.3	95
36685	2023-10-15T06:25:37	8.2	95.5
36686	2023-10-15T06:35:37	8.2	96
36687	2023-10-15T06:45:37	8	96
36688	2023-10-15T06:55:37	8.1	96.5
36689	2023-10-15T07:05:37	8.1	96.5
36690	2023-10-15T07:15:37	8.5	95
36691	2023-10-15T07:25:37	8.8	93.5
36692	2023-10-15T07:35:37	9	91.5
36693	2023-10-15T07:45:37	8.8	91
36694	2023-10-15T07:55:37	8.6	91.5
36695	2023-10-15T08:05:37	8.4	92.5
36696	2023-10-15T08:15:37	8.4	92.5
36697	2023-10-15T08:25:37	8.8	92
36698	2023-10-15T08:35:37	9.1	90.5
36699	2023-10-15T08:45:37	9.3	89
36700	2023-10-15T08:55:37	9.9	86.5
36701	2023-10-15T09:05:37	10.5	83.5
36702	2023-10-15T09:15:37	10.6	77.5
36703	2023-10-15T09:25:37	11.2	72
36704	2023-10-15T09:35:37	11.6	71
36705	2023-10-15T09:45:37	11.9	65.5
36706	2023-10-15T09:55:37	11.7	62
36707	2023-10-15T10:05:37	11.4	61.5
36708	2023-10-15T10:15:37	11.7	59.5
36709	2023-10-15T10:25:37	12.2	57.5
36710	2023-10-15T10:35:37	12.3	57
36711	2023-10-15T10:45:37	12	57
36712	2023-10-15T10:55:37	12.5	57.5
36713	2023-10-15T11:05:37	13.8	51
36714	2023-10-15T11:15:37	15.3	47.5
36715	2023-10-15T11:25:37	16.1	47
36716	2023-10-15T11:35:37	13	57.5
36717	2023-10-15T11:45:37	13.6	56
36718	2023-10-15T11:55:37	15.4	50
36719	2023-10-15T12:05:37	15.6	42.5
36720	2023-10-15T12:15:37	14	49.5
36721	2023-10-15T12:25:37	14	49
36722	2023-10-15T12:35:37	15.3	45.5
36723	2023-10-15T12:45:37	17	39.5
36724	2023-10-15T12:55:37	16.5	39
36725	2023-10-15T13:05:37	16.3	40.5
36726	2023-10-15T13:15:54	16.3	40.5
36727	2023-10-15T13:25:37	15.9	42
36728	2023-10-15T13:35:37	18.3	37
36729	2023-10-15T13:45:37	19	37
36730	2023-10-15T13:55:37	19.5	36
36731	2023-10-15T14:05:37	19.9	34.5
36732	2023-10-15T14:15:37	20.5	34.5
36733	2023-10-15T14:25:37	20.3	32
36734	2023-10-15T14:35:37	20.5	27.5
36735	2023-10-15T14:45:37	20.2	25
36736	2023-10-15T14:55:37	20.5	24.5
36737	2023-10-15T15:05:37	20.5	26.5
36738	2023-10-15T15:15:37	20.1	27
36739	2023-10-15T15:25:37	20.1	28.5
36740	2023-10-15T15:35:37	20	29
36741	2023-10-15T15:45:37	19	30.5
36742	2023-10-15T15:55:37	18.8	31
36743	2023-10-15T16:05:37	16.1	35.5
36744	2023-10-15T16:15:37	15.2	37
36745	2023-10-15T16:25:37	14.4	40.5
36746	2023-10-15T16:35:36	13.7	44
36747	2023-10-15T16:45:36	13.2	51
36748	2023-10-15T16:55:36	12.5	54.5
36749	2023-10-15T17:05:36	12	55
36750	2023-10-15T17:15:36	11.5	58
36751	2023-10-15T17:25:36	11.1	59
36752	2023-10-15T17:35:36	10.8	60.5
36753	2023-10-15T17:45:36	10.3	62.5
36754	2023-10-15T17:55:36	9.9	64
36755	2023-10-15T18:05:36	9.7	65
36756	2023-10-15T18:15:36	9.4	65
36757	2023-10-15T18:25:36	9	68
36758	2023-10-15T18:35:36	8.8	69
36759	2023-10-15T18:45:36	8.6	71
36760	2023-10-15T18:55:36	8.2	71.5
36761	2023-10-15T19:05:36	7.8	73.5
36762	2023-10-15T19:15:36	7.5	74.5
36763	2023-10-15T19:25:36	7.2	75
36764	2023-10-15T19:35:36	7.2	75
36765	2023-10-15T19:45:36	6.9	76.5
36766	2023-10-15T19:55:36	6.7	78
36767	2023-10-15T20:05:36	6.5	79
36768	2023-10-15T20:15:36	6.2	80.5
36769	2023-10-15T20:25:36	6	81
36770	2023-10-15T20:35:36	5.9	81
36771	2023-10-15T20:45:36	5.6	81.5
36772	2023-10-15T20:55:54	5.5	82
36773	2023-10-15T21:05:36	5.3	83
36774	2023-10-15T21:15:36	5.1	84
36775	2023-10-15T21:25:36	4.9	84.5
36776	2023-10-15T21:35:36	4.7	85
36777	2023-10-15T21:45:36	4.6	85.5
36778	2023-10-15T21:55:36	4.5	86
36779	2023-10-15T22:05:36	4.4	85.5
36780	2023-10-15T22:15:36	4.1	87
36781	2023-10-15T22:25:36	4.1	87.5
36782	2023-10-15T22:35:36	4	88
36783	2023-10-15T22:45:36	3.7	88.5
36784	2023-10-15T22:55:36	3.8	88.5
36785	2023-10-15T23:05:36	3.7	89.5
36786	2023-10-15T23:15:36	3.5	89.5
36787	2023-10-15T23:25:36	3.4	89.5
36788	2023-10-15T23:35:36	3.3	89.5
36789	2023-10-15T23:45:36	3.2	90
36790	2023-10-15T23:55:36	3.1	90.5
36791	2023-10-16T00:05:36	2.9	91.5
36792	2023-10-16T00:15:36	2.9	91.5
36793	2023-10-16T00:25:36	2.7	92
36794	2023-10-16T00:35:36	2.6	92
36795	2023-10-16T00:45:36	2.6	92
36796	2023-10-16T00:55:36	2.5	92.5
36797	2023-10-16T01:05:36	2.4	93
36798	2023-10-16T01:15:36	2.2	93.5
36799	2023-10-16T01:25:36	2.2	94
36800	2023-10-16T01:35:36	2.1	94.5
36801	2023-10-16T01:45:36	2.2	94
36802	2023-10-16T01:55:36	2.1	94
36803	2023-10-16T02:05:36	2	94
36804	2023-10-16T02:15:36	1.9	94
36805	2023-10-16T02:25:36	1.7	94.5
36806	2023-10-16T02:35:36	1.7	94
36807	2023-10-16T02:45:36	1.7	94.5
36808	2023-10-16T02:55:36	1.6	94
36809	2023-10-16T03:05:36	1.5	94.5
36810	2023-10-16T03:15:36	1.5	95
36811	2023-10-16T03:25:36	1.4	95
36812	2023-10-16T03:35:36	1.4	95
36813	2023-10-16T03:45:36	1.4	95.5
36814	2023-10-16T03:55:36	1.4	95.5
36815	2023-10-16T04:05:36	1.5	95
36816	2023-10-16T04:15:36	1.7	94.5
36817	2023-10-16T04:25:36	1.6	94.5
36818	2023-10-16T04:35:36	1.7	94.5
36819	2023-10-16T04:45:36	1.7	94
36820	2023-10-16T04:55:36	1.6	94
36821	2023-10-16T05:05:36	1.6	94
36822	2023-10-16T05:15:36	1.5	94
36823	2023-10-16T05:25:36	1.5	94.5
36824	2023-10-16T05:35:36	1.5	94.5
36825	2023-10-16T05:45:36	1.4	94.5
36826	2023-10-16T05:55:36	1.5	94.5
36827	2023-10-16T06:05:36	1.6	94
36828	2023-10-16T06:15:36	1.7	94
36829	2023-10-16T06:25:36	1.9	93.5
36830	2023-10-16T06:35:36	1.9	93
36831	2023-10-16T06:45:36	2.2	92.5
36832	2023-10-16T06:55:36	2.3	92.5
36833	2023-10-16T07:05:36	2.5	93
36834	2023-10-16T07:15:36	2.7	92
36835	2023-10-16T07:25:36	3.1	91
36836	2023-10-16T07:35:36	3.5	90
36837	2023-10-16T07:45:36	3.9	88.5
36838	2023-10-16T07:55:36	4.6	87
36839	2023-10-16T08:05:36	5	86.5
36840	2023-10-16T08:15:36	5.1	86.5
36841	2023-10-16T08:25:36	5.6	85.5
36842	2023-10-16T08:35:36	5.9	86
36843	2023-10-16T08:45:36	6	86
36844	2023-10-16T08:55:36	6.1	85
36845	2023-10-16T09:05:36	6.5	84.5
36846	2023-10-16T09:15:54	6.6	84.5
36847	2023-10-16T09:25:36	6.9	84
36848	2023-10-16T09:35:36	7.3	83
36849	2023-10-16T09:45:36	7.5	81.5
36850	2023-10-16T09:55:36	7.9	80.5
36851	2023-10-16T10:05:36	8.2	78.5
36852	2023-10-16T10:15:36	8.5	76.5
36853	2023-10-16T10:25:36	9.1	72.5
36854	2023-10-16T10:35:36	9.4	71.5
36855	2023-10-16T10:45:36	9.7	69.5
36856	2023-10-16T10:55:36	10.2	68
36857	2023-10-16T11:05:36	11.7	60
36858	2023-10-16T11:15:36	13.3	54.5
36859	2023-10-16T11:25:36	14.5	49.5
36860	2023-10-16T11:35:36	15.5	47.5
36861	2023-10-16T11:45:36	16.3	43.5
36862	2023-10-16T11:55:36	17.1	42
36863	2023-10-16T12:05:36	17.9	39
36864	2023-10-16T12:15:36	18.7	37.5
36865	2023-10-16T12:25:36	19.1	36
36866	2023-10-16T12:35:36	19.4	34.5
36867	2023-10-16T12:45:36	19.9	33.5
36868	2023-10-16T12:55:36	20.1	33
36869	2023-10-16T13:05:36	21.1	33
36870	2023-10-16T13:15:36	21.6	31
36871	2023-10-16T13:25:36	21.1	31.5
36872	2023-10-16T13:35:36	22.4	31
36873	2023-10-16T13:45:36	22.7	30.5
36874	2023-10-16T13:55:36	23.8	31
36875	2023-10-16T14:05:36	23.2	30.5
36876	2023-10-16T14:15:36	23	29.5
36877	2023-10-16T14:25:36	22.2	30
36878	2023-10-16T14:35:36	22.3	30.5
36879	2023-10-16T14:45:36	22.5	30.5
36880	2023-10-16T14:55:35	22.5	29.5
36881	2023-10-16T15:05:35	21.8	32
36882	2023-10-16T15:15:35	21.5	32.5
36883	2023-10-16T15:25:35	19.2	36.5
36884	2023-10-16T15:35:35	17.6	38
36885	2023-10-16T15:45:35	17.5	39
36886	2023-10-16T15:55:35	15.9	42.5
36887	2023-10-16T16:05:35	15.1	45
36888	2023-10-16T16:15:35	14.5	47
36889	2023-10-16T16:25:35	13.9	49
36890	2023-10-16T16:35:35	13.4	50.5
36891	2023-10-16T16:45:35	13.3	53
36892	2023-10-16T16:55:35	13.1	54
36893	2023-10-16T17:05:35	12.7	56.5
36894	2023-10-16T17:15:35	12.4	57.5
36895	2023-10-16T17:25:35	12	58.5
36896	2023-10-16T17:35:35	11.6	60
36897	2023-10-16T17:45:35	11.3	61
36898	2023-10-16T17:55:35	11.1	62
36899	2023-10-16T18:05:35	10.8	62.5
36900	2023-10-16T18:15:35	10.6	63
36901	2023-10-16T18:25:35	10.4	64.5
36902	2023-10-16T18:35:35	10.1	65
36903	2023-10-16T18:45:35	9.7	66.5
36904	2023-10-16T18:55:35	9.6	67.5
36905	2023-10-16T19:05:35	9.5	67
36906	2023-10-16T19:15:35	9.3	67.5
36907	2023-10-16T19:25:35	9	68.5
36908	2023-10-16T19:35:35	8.7	70
36909	2023-10-16T19:45:35	8.4	70.5
36910	2023-10-16T19:55:35	8.3	70.5
36911	2023-10-16T20:05:35	8.1	71
36912	2023-10-16T20:15:35	7.8	71.5
36913	2023-10-16T20:25:35	7.7	72.5
36914	2023-10-16T20:35:35	7.5	72.5
36915	2023-10-16T20:45:35	7.2	73
36916	2023-10-16T20:55:35	7.1	73
36917	2023-10-16T21:05:35	6.9	74
36918	2023-10-16T21:15:35	6.7	74.5
36919	2023-10-16T21:25:36	6.4	74.5
36920	2023-10-16T21:35:35	6.3	74.5
36921	2023-10-16T21:45:35	6.3	73.5
36922	2023-10-16T21:55:35	6.4	73
36923	2023-10-16T22:05:35	6.2	74
36924	2023-10-16T22:15:35	6	74.5
36925	2023-10-16T22:25:35	6	75.5
36926	2023-10-16T22:35:35	5.7	76.5
36927	2023-10-16T22:45:35	5.6	77
36928	2023-10-16T22:55:35	5.5	78
36929	2023-10-16T23:05:35	5.4	78.5
36930	2023-10-16T23:15:35	5.2	79.5
36931	2023-10-16T23:25:35	4.9	80.5
36932	2023-10-16T23:35:35	4.8	80.5
36933	2023-10-16T23:45:35	4.6	81.5
36934	2023-10-16T23:55:35	4.4	83
36935	2023-10-17T00:05:35	4.2	82.5
36936	2023-10-17T00:15:35	4.4	80
36937	2023-10-17T00:25:35	4.3	82
36938	2023-10-17T00:35:35	4.4	82
36939	2023-10-17T00:45:35	4.4	81.5
36940	2023-10-17T00:55:35	4.2	82
36941	2023-10-17T01:05:35	4.3	81.5
36942	2023-10-17T01:15:35	4.2	82.5
36943	2023-10-17T01:25:35	4.2	81.5
36944	2023-10-17T01:35:35	4.2	82
36945	2023-10-17T01:45:35	4.1	82
36946	2023-10-17T01:55:35	4.1	82.5
36947	2023-10-17T02:05:35	4	82.5
36948	2023-10-17T02:15:35	4.1	82
36949	2023-10-17T02:25:35	4.2	82
36950	2023-10-17T02:35:35	4	82
36951	2023-10-17T02:45:35	4.2	82.5
36952	2023-10-17T02:55:35	3.9	82.5
36953	2023-10-17T03:05:35	3.9	83
36954	2023-10-17T03:15:35	3.9	84
36955	2023-10-17T03:25:35	4.1	83
36956	2023-10-17T03:35:35	4	83.5
36957	2023-10-17T03:45:35	4.2	83.5
36958	2023-10-17T03:55:35	4.1	83.5
36959	2023-10-17T04:05:35	4	83
36960	2023-10-17T04:15:35	4	84
36961	2023-10-17T04:25:35	4	84.5
36962	2023-10-17T04:35:35	4	85
36963	2023-10-17T04:45:35	4	84.5
36964	2023-10-17T04:55:35	4.1	85
36965	2023-10-17T05:05:35	4.2	84.5
36966	2023-10-17T05:15:35	4.1	85.5
36967	2023-10-17T05:25:35	4.1	86
36968	2023-10-17T05:35:35	4.1	86
36969	2023-10-17T05:45:35	4	87
36970	2023-10-17T05:55:35	3.9	88
36971	2023-10-17T06:05:35	4.1	86
36972	2023-10-17T06:15:35	4.5	83.5
36973	2023-10-17T06:25:35	4.7	83
36974	2023-10-17T06:35:35	4.6	84
36975	2023-10-17T06:45:35	4.7	83.5
36976	2023-10-17T06:55:35	5	83.5
36977	2023-10-17T07:05:35	5.2	83.5
36978	2023-10-17T07:15:35	5.6	81
36979	2023-10-17T07:25:35	5.8	81.5
36980	2023-10-17T07:35:35	6.3	80
36981	2023-10-17T07:45:35	6.5	79
36982	2023-10-17T07:55:35	6.8	78.5
36983	2023-10-17T08:05:35	7.1	77
36984	2023-10-17T08:15:35	7.3	76
36985	2023-10-17T08:25:35	7.7	75.5
36986	2023-10-17T08:35:35	7.9	74.5
36987	2023-10-17T08:45:35	8.2	74
36988	2023-10-17T08:55:35	8.8	71.5
36989	2023-10-17T09:05:35	8.9	70
36990	2023-10-17T09:15:35	9.3	69.5
36991	2023-10-17T09:25:35	9.3	69
36992	2023-10-17T09:35:35	9.8	69.5
36993	2023-10-17T09:45:35	10.2	67.5
36994	2023-10-17T09:55:35	10.5	66
36995	2023-10-17T10:05:35	10.9	66.5
36996	2023-10-17T10:15:35	11.4	64
36997	2023-10-17T10:25:35	11.8	64
36998	2023-10-17T10:35:34	11.7	63
36999	2023-10-17T10:45:35	12.2	60.5
37000	2023-10-17T10:55:35	12.8	60
37001	2023-10-17T11:05:35	13.4	58
37002	2023-10-17T11:15:34	13.2	58.5
37003	2023-10-17T11:25:34	13	58
37004	2023-10-17T11:35:34	12.9	59
37005	2023-10-17T11:45:34	13.3	58.5
37006	2023-10-17T11:55:34	14.9	55.5
37007	2023-10-17T12:05:34	15.3	54.5
37008	2023-10-17T12:15:34	16	51
37009	2023-10-17T12:25:34	15.7	51.5
37010	2023-10-17T12:35:34	16.2	51.5
37011	2023-10-17T12:45:34	15.9	53
37012	2023-10-17T12:55:34	15.5	53
37013	2023-10-17T13:05:34	15.6	53
37014	2023-10-17T13:15:34	15.7	51.5
37015	2023-10-17T13:25:34	17.3	48.5
37016	2023-10-17T13:35:34	19.9	42.5
37017	2023-10-17T13:45:34	18.6	45.5
37018	2023-10-17T13:55:34	17.9	48
37019	2023-10-17T14:05:52	20.4	41.5
37020	2023-10-17T14:15:34	18.9	43.5
37021	2023-10-17T14:25:34	17.6	47.5
37022	2023-10-17T14:35:34	17	50
37023	2023-10-17T14:45:34	16.7	51
37024	2023-10-17T14:55:34	16.1	52
37025	2023-10-17T15:05:34	15.2	54.5
37026	2023-10-17T15:15:34	14.5	57
37027	2023-10-17T15:25:34	14	58
37028	2023-10-17T15:35:34	14.1	58
37029	2023-10-17T15:45:34	13.8	59.5
37030	2023-10-17T15:55:34	13.3	62
37031	2023-10-17T16:05:34	12.6	64
37032	2023-10-17T16:15:34	12	66.5
37033	2023-10-17T16:25:34	11.7	68
37034	2023-10-17T16:35:34	11.2	69
37035	2023-10-17T16:45:34	10.9	70.5
37036	2023-10-17T16:55:34	10.6	71.5
37037	2023-10-17T17:05:34	10.5	73
37038	2023-10-17T17:15:34	10.1	73
37039	2023-10-17T17:25:34	10	73.5
37040	2023-10-17T17:35:34	9.9	74
37041	2023-10-17T17:45:34	9.6	75
37042	2023-10-17T17:55:34	9.6	75.5
37043	2023-10-17T18:05:34	9.5	75.5
37044	2023-10-17T18:15:34	9.4	75.5
37045	2023-10-17T18:25:34	9.4	76
37046	2023-10-17T18:35:34	9.4	76
37047	2023-10-17T18:45:34	9.3	76
37048	2023-10-17T18:55:34	9.2	76.5
37049	2023-10-17T19:05:34	9	77
37050	2023-10-17T19:15:34	9	77.5
37051	2023-10-17T19:25:34	8.9	78
37052	2023-10-17T19:35:34	8.6	78.5
37053	2023-10-17T19:45:34	8.5	79
37054	2023-10-17T19:55:34	8.3	79
37055	2023-10-17T20:05:34	8.3	79.5
37056	2023-10-17T20:15:34	8.1	80
37057	2023-10-17T20:25:34	8	80.5
37058	2023-10-17T20:35:34	7.9	80.5
37059	2023-10-17T20:45:34	7.9	81
37060	2023-10-17T20:55:34	7.7	81.5
37061	2023-10-17T21:05:34	7.5	82
37062	2023-10-17T21:15:34	7.4	82.5
37063	2023-10-17T21:25:34	7.3	83
37064	2023-10-17T21:35:34	7.3	83.5
37065	2023-10-17T21:45:34	7.2	84.5
37066	2023-10-17T21:55:34	6.9	85
37067	2023-10-17T22:05:34	6.6	86.5
37068	2023-10-17T22:15:34	6.6	86.5
37069	2023-10-17T22:25:34	6.6	86.5
37070	2023-10-17T22:35:34	6.4	87
37071	2023-10-17T22:45:34	6.6	86.5
37072	2023-10-17T22:55:34	6.4	87
37073	2023-10-17T23:05:34	6.1	88
37074	2023-10-17T23:15:34	5.9	88.5
37075	2023-10-17T23:25:34	5.8	89.5
37076	2023-10-17T23:35:34	5.7	90
37077	2023-10-17T23:45:34	5.8	90
37078	2023-10-17T23:55:34	5.7	90
37079	2023-10-18T00:05:34	5.7	90
37080	2023-10-18T00:15:34	5.4	90.5
37081	2023-10-18T00:25:34	5.2	91
37082	2023-10-18T00:35:34	5.3	91.5
37083	2023-10-18T00:45:34	5.2	91.5
37084	2023-10-18T00:55:34	4.9	92.5
37085	2023-10-18T01:05:34	4.8	92.5
37086	2023-10-18T01:15:34	4.9	92.5
37087	2023-10-18T01:25:34	4.8	93
37088	2023-10-18T01:35:34	4.8	92.5
37089	2023-10-18T01:45:34	4.7	93
37090	2023-10-18T01:55:34	4.6	94
37091	2023-10-18T02:05:34	4.7	93
37092	2023-10-18T02:15:34	4.5	93
37093	2023-10-18T02:25:34	4.2	93
37094	2023-10-18T02:35:34	4.2	93
37095	2023-10-18T02:45:34	4	93
37096	2023-10-18T02:55:34	4.2	94
37097	2023-10-18T03:05:34	4.4	94.5
37098	2023-10-18T03:15:34	4.2	94
37099	2023-10-18T03:25:34	4	94
37100	2023-10-18T03:35:34	4	94.5
37101	2023-10-18T03:45:34	4.2	94
37102	2023-10-18T04:05:33	4.2	94.5
37103	2023-10-18T04:15:33	4.2	95
37104	2023-10-18T04:25:33	4.3	95
37105	2023-10-18T04:35:33	4.1	95
37106	2023-10-18T04:45:33	4.2	95
37107	2023-10-18T04:55:33	4	95
37108	2023-10-18T05:05:33	4	95.5
37109	2023-10-18T05:15:33	4.4	95
37110	2023-10-18T05:25:33	4.7	94.5
37111	2023-10-18T05:35:33	4.9	93.5
37112	2023-10-18T05:45:33	5	93
37113	2023-10-18T05:55:33	5.3	92
37114	2023-10-18T06:05:33	5.5	91.5
37115	2023-10-18T06:15:33	5.6	91
37116	2023-10-18T06:25:33	5.8	90.5
37117	2023-10-18T06:35:33	6.1	89
37118	2023-10-18T06:45:33	6.2	89
37119	2023-10-18T06:55:33	6.3	88.5
37120	2023-10-18T07:05:33	6.6	88
37121	2023-10-18T07:15:33	6.9	88
37122	2023-10-18T07:25:33	7.1	86.5
37123	2023-10-18T07:35:33	7.3	87.5
37124	2023-10-18T07:45:33	7.2	88
37125	2023-10-18T07:55:33	7.6	84.5
37126	2023-10-18T08:05:33	8	83.5
37127	2023-10-18T08:15:33	8	83.5
37128	2023-10-18T08:25:33	8.4	82.5
37129	2023-10-18T08:35:33	8.9	81
37130	2023-10-18T08:45:33	9.2	79
37131	2023-10-18T08:55:33	9.5	78.5
37132	2023-10-18T09:05:33	9.9	77
37133	2023-10-18T09:15:33	10.2	76.5
37134	2023-10-18T09:25:33	10.2	76
37135	2023-10-18T09:35:33	10.6	74
37136	2023-10-18T09:45:33	11.3	71.5
37137	2023-10-18T09:55:33	12	73
37138	2023-10-18T10:05:33	12	72
37139	2023-10-18T10:15:33	12.2	72
37140	2023-10-18T10:25:33	12.1	72
37141	2023-10-18T10:35:33	12.2	73
37142	2023-10-18T10:45:33	12.5	72.5
37143	2023-10-18T10:55:33	12.8	70
37144	2023-10-18T11:05:33	13	68.5
37145	2023-10-18T11:15:33	13.4	66.5
37146	2023-10-18T11:25:33	13.4	65.5
37147	2023-10-18T11:35:33	13.6	66
37148	2023-10-18T11:45:33	13.8	67.5
37149	2023-10-18T11:55:33	14.1	66.5
37150	2023-10-18T12:05:33	14	65.5
37151	2023-10-18T12:15:33	14.1	66
37152	2023-10-18T12:25:33	13.9	67
37153	2023-10-18T12:35:33	13.4	68.5
37154	2023-10-18T12:45:33	12.9	69.5
37155	2023-10-18T12:55:33	12.7	70.5
37156	2023-10-18T13:05:33	12.6	71.5
37157	2023-10-18T13:15:33	12.6	71
37158	2023-10-18T13:25:33	12.4	77
37159	2023-10-18T13:35:33	11.8	84
37160	2023-10-18T13:45:33	12	86
37161	2023-10-18T13:55:33	12	87
37162	2023-10-18T14:05:33	11.8	86
37163	2023-10-18T14:15:33	11.7	85.5
37164	2023-10-18T14:25:33	11.6	85
37165	2023-10-18T14:35:33	12.3	90.5
37166	2023-10-18T14:45:33	12.1	89
37167	2023-10-18T14:55:33	12.1	88
37168	2023-10-18T15:05:33	11.8	88
37169	2023-10-18T15:15:33	11.9	91
37170	2023-10-18T15:25:33	11.9	89.5
37171	2023-10-18T15:35:33	11.4	87
37172	2023-10-18T15:45:33	11.1	86
37173	2023-10-18T15:55:33	10.9	85
37174	2023-10-18T16:05:33	10.7	85
37175	2023-10-18T16:15:33	10.8	84
37176	2023-10-18T16:25:33	10.6	84
37177	2023-10-18T16:35:33	10.6	84
37178	2023-10-18T16:45:33	10.7	84
37179	2023-10-18T16:55:33	10.5	85.5
37180	2023-10-18T17:05:33	10.5	87
37181	2023-10-18T17:15:33	10.5	86.5
37182	2023-10-18T17:25:33	10.6	88.5
37183	2023-10-18T17:35:33	10.5	86.5
37184	2023-10-18T17:45:33	10.5	87
37185	2023-10-18T17:55:33	10.3	92
37186	2023-10-18T18:05:33	10.1	95.5
37187	2023-10-18T18:15:33	9.9	96.5
37188	2023-10-18T18:25:33	9.9	96.5
37189	2023-10-18T18:35:33	9.8	97
37190	2023-10-18T18:45:33	9.9	97
37191	2023-10-18T18:55:33	9.8	97.5
37192	2023-10-18T19:05:33	9.7	97.5
37193	2023-10-18T19:15:33	9.7	97.5
37194	2023-10-18T19:25:33	9.5	98
37195	2023-10-18T19:35:33	9.6	98
37196	2023-10-18T19:45:33	9.6	98
37197	2023-10-18T19:55:33	9.8	98
37198	2023-10-18T20:05:33	9.8	98
37199	2023-10-18T20:15:33	9.7	98
37200	2023-10-18T20:25:33	9.7	98.5
37201	2023-10-18T20:35:33	9.8	98.5
37202	2023-10-18T20:45:33	9.7	98.5
37203	2023-10-18T20:55:32	9.8	98.5
37204	2023-10-18T21:05:32	9.8	98.5
37205	2023-10-18T21:15:32	9.7	98.5
37206	2023-10-18T21:25:32	9.8	98.5
37207	2023-10-18T21:35:32	9.8	98.5
37208	2023-10-18T21:45:32	9.8	98.5
37209	2023-10-18T21:55:32	9.6	98.5
37210	2023-10-18T22:05:32	9.7	98.5
37211	2023-10-18T22:15:32	9.7	98.5
37212	2023-10-18T22:25:32	9.9	99
37213	2023-10-18T22:35:32	9.9	98.5
37214	2023-10-18T22:45:32	10	99
37215	2023-10-18T22:55:32	10.1	99
37216	2023-10-18T23:05:32	10.1	99
37217	2023-10-18T23:15:32	10.2	99
37218	2023-10-18T23:25:32	10.2	99
37219	2023-10-18T23:35:32	10.1	99
37220	2023-10-18T23:45:32	10.2	99
37221	2023-10-18T23:55:32	10.2	99
37222	2023-10-19T00:05:32	10.3	99
37223	2023-10-19T00:15:32	10.3	99
37224	2023-10-19T00:25:32	10.3	99
37225	2023-10-19T00:35:32	10.3	99
37226	2023-10-19T00:45:32	10.4	99
37227	2023-10-19T00:55:32	10.5	99
37228	2023-10-19T01:05:32	10.6	99
37229	2023-10-19T01:15:32	10.7	99
37230	2023-10-19T01:25:32	10.6	99
37231	2023-10-19T01:35:32	10.7	98.5
37232	2023-10-19T01:45:32	10.8	98.5
37233	2023-10-19T01:55:32	10.6	98.5
37234	2023-10-19T02:05:32	10.8	98.5
37235	2023-10-19T02:15:32	10.8	98.5
37236	2023-10-19T02:25:32	10.9	98.5
37237	2023-10-19T02:35:32	11	98.5
37238	2023-10-19T02:45:32	11	98.5
37239	2023-10-19T02:55:32	11	98.5
37240	2023-10-19T03:05:32	10.9	98
37241	2023-10-19T03:15:32	11.1	98
37242	2023-10-19T03:25:32	11.1	98
37243	2023-10-19T03:35:32	10.9	98
37244	2023-10-19T03:45:32	10.8	98
37245	2023-10-19T03:55:32	10.5	98
37246	2023-10-19T04:05:32	10.1	98
37247	2023-10-19T04:15:32	9.8	98
37248	2023-10-19T04:25:32	9.7	98
37249	2023-10-19T04:35:32	9.4	98
37250	2023-10-19T04:45:32	9.3	98.5
37251	2023-10-19T04:55:32	9.3	98.5
37252	2023-10-19T05:05:32	9.2	98.5
37253	2023-10-19T05:15:32	9.3	99
37254	2023-10-19T05:25:32	9.1	99
37255	2023-10-19T05:35:32	9	99
37256	2023-10-19T05:45:32	9	99
37257	2023-10-19T05:55:32	8.9	99
37258	2023-10-19T06:05:32	9	99
37259	2023-10-19T06:15:32	9	99
37260	2023-10-19T06:25:32	9.1	99
37261	2023-10-19T06:35:32	9.3	99.5
37262	2023-10-19T06:45:32	9.5	99.5
37263	2023-10-19T06:55:32	9.7	99.5
37264	2023-10-19T07:05:32	10.1	99.5
37265	2023-10-19T07:15:32	10.1	99.5
37266	2023-10-19T07:25:32	10.3	99.5
37267	2023-10-19T07:35:32	10.6	99
37268	2023-10-19T07:45:32	10.8	99
37269	2023-10-19T07:55:32	11.2	98.5
37270	2023-10-19T08:05:32	11.6	98.5
37271	2023-10-19T08:15:32	12	98.5
37272	2023-10-19T08:25:54	12.4	98.5
37273	2023-10-19T08:35:32	12.5	98
37274	2023-10-19T08:45:32	12.8	98
37275	2023-10-19T08:55:32	12.9	97.5
37276	2023-10-19T09:05:32	13	97.5
37277	2023-10-19T09:15:32	13.5	97.5
37278	2023-10-19T09:25:32	13.9	97
37279	2023-10-19T09:35:32	14.4	96.5
37280	2023-10-19T09:45:32	14.6	96.5
37281	2023-10-19T09:55:32	14.9	96.5
37282	2023-10-19T10:05:32	14.7	96.5
37283	2023-10-19T10:15:32	14.5	96.5
37284	2023-10-19T10:25:32	14.3	96.5
37285	2023-10-19T10:35:32	14.2	96.5
37286	2023-10-19T10:45:32	14.1	96.5
37287	2023-10-19T10:55:32	14.3	96.5
37288	2023-10-19T11:05:32	14.3	96.5
37289	2023-10-19T11:15:32	14.5	96.5
37290	2023-10-19T11:25:32	14.4	96.5
37291	2023-10-19T11:35:32	14.4	96.5
37292	2023-10-19T11:45:32	14.7	96.5
37293	2023-10-19T11:55:32	14.8	96.5
37294	2023-10-19T12:05:32	15.2	96.5
37295	2023-10-19T12:15:31	15.6	96.5
37296	2023-10-19T12:25:32	15.7	96.5
37297	2023-10-19T12:35:31	15.6	96.5
37298	2023-10-19T12:45:31	15.8	96.5
37299	2023-10-19T12:55:31	15.7	96.5
37300	2023-10-19T13:05:31	15.8	96.5
37301	2023-10-19T13:15:31	15.7	96.5
37302	2023-10-19T13:25:31	15.7	96.5
37303	2023-10-19T13:35:31	15.6	96.5
37304	2023-10-19T13:45:31	15.6	96.5
37305	2023-10-19T13:55:31	15.7	96.5
37306	2023-10-19T14:05:31	15.6	96.5
37307	2023-10-19T14:15:31	15.6	96.5
37308	2023-10-19T14:25:31	15.6	96.5
37309	2023-10-19T14:35:31	15.8	96.5
37310	2023-10-19T14:45:31	16.1	96.5
37311	2023-10-19T14:55:31	16.1	96.5
37312	2023-10-19T15:05:31	15.7	96.5
37313	2023-10-19T15:15:31	15.7	96.5
37314	2023-10-19T15:25:31	15.8	96.5
37315	2023-10-19T15:35:31	15.6	96.5
37316	2023-10-19T15:45:31	15.7	96.5
37317	2023-10-19T15:55:31	15.7	96.5
37318	2023-10-19T16:05:31	15.6	96.5
37319	2023-10-19T16:15:31	15.6	96.5
37320	2023-10-19T16:25:31	15.7	96.5
37321	2023-10-19T16:35:32	15.6	97
37322	2023-10-19T16:45:31	15.5	96.5
37323	2023-10-19T16:55:31	15.4	96.5
37324	2023-10-19T17:05:31	15.4	96.5
37325	2023-10-19T17:15:31	15.3	96.5
37326	2023-10-19T17:25:31	15.2	97
37327	2023-10-19T17:35:31	15.2	97
37328	2023-10-19T17:45:31	15.1	96.5
37329	2023-10-19T17:55:31	15.1	96.5
37330	2023-10-19T18:05:31	15.1	97
37331	2023-10-19T18:15:31	15.2	97
37332	2023-10-19T18:25:31	15	97
37333	2023-10-19T18:35:31	15	97
37334	2023-10-19T18:45:31	15	97
37335	2023-10-19T18:55:31	15	97
37336	2023-10-19T19:05:31	14.9	97
37337	2023-10-19T19:15:31	15	97
37338	2023-10-19T19:25:31	14.7	97
37339	2023-10-19T19:35:31	14.9	97
37340	2023-10-19T19:45:31	15	97
37341	2023-10-19T20:05:31	14.8	97
37342	2023-10-19T20:15:31	14.7	97
37343	2023-10-19T20:25:31	14.8	97
37344	2023-10-19T20:55:31	14.7	97
37345	2023-10-19T21:05:31	14.8	97
37346	2023-10-19T21:15:31	14.7	97
37347	2023-10-19T21:25:31	14.8	97
37348	2023-10-19T21:35:31	14.7	97
37349	2023-10-19T21:45:31	14.8	97
37350	2023-10-19T21:55:31	14.6	97
37351	2023-10-19T22:05:31	14.6	97
37352	2023-10-19T22:15:31	14.4	97
37353	2023-10-19T22:25:31	14.3	97
37354	2023-10-19T22:35:31	14.4	97
37355	2023-10-19T22:45:31	14.2	97
37356	2023-10-19T22:55:31	14.3	97
37357	2023-10-19T23:05:31	14.4	97
37358	2023-10-19T23:15:31	14.3	97
37359	2023-10-19T23:25:31	14.3	97
37360	2023-10-19T23:35:31	14.3	97
37361	2023-10-19T23:45:31	14.2	97
37362	2023-10-19T23:55:31	14.2	97
37363	2023-10-20T00:05:31	14.2	97
37364	2023-10-20T00:15:30	14.2	97
37365	2023-10-20T00:25:30	14.1	97
37366	2023-10-20T00:35:30	14	97
37367	2023-10-20T00:45:49	14	97
37368	2023-10-20T00:55:30	14.1	97
37369	2023-10-20T01:05:30	14.1	97
37370	2023-10-20T01:15:30	14.1	97
37371	2023-10-20T01:25:30	14.1	97
37372	2023-10-20T01:35:30	14.1	97
37373	2023-10-20T01:45:30	14	97
37374	2023-10-20T01:55:30	14	97
37375	2023-10-20T02:05:30	13.9	97
37376	2023-10-20T02:15:30	13.9	97
37377	2023-10-20T02:25:30	13.9	97
37378	2023-10-20T02:35:30	13.9	97
37379	2023-10-20T02:45:30	13.8	97
37380	2023-10-20T02:55:30	13.8	97.5
37381	2023-10-20T03:05:30	13.7	97.5
37382	2023-10-20T03:15:30	13.9	97.5
37383	2023-10-20T03:25:30	14	97.5
37384	2023-10-20T03:35:30	14	97.5
37385	2023-10-20T03:45:30	14	97.5
37386	2023-10-20T03:55:30	14	97.5
37387	2023-10-20T04:05:30	14	97.5
37388	2023-10-20T04:15:30	14.1	97.5
37389	2023-10-20T04:25:30	14.1	97.5
37390	2023-10-20T04:35:30	14.1	97.5
37391	2023-10-20T04:45:30	14.1	97.5
37392	2023-10-20T05:05:30	14.2	97.5
37393	2023-10-20T05:15:30	14.2	97.5
37394	2023-10-20T05:25:30	14.1	97.5
37395	2023-10-20T05:35:30	14.1	97.5
37396	2023-10-20T05:45:30	14.1	97.5
37397	2023-10-20T05:55:30	14.1	97.5
37398	2023-10-20T06:05:30	14	97.5
37399	2023-10-20T06:15:30	14	97.5
37400	2023-10-20T06:25:30	14	97.5
37401	2023-10-20T06:35:30	14	97.5
37402	2023-10-20T06:45:30	14	97.5
37403	2023-10-20T06:55:30	14.1	97.5
37404	2023-10-20T07:05:30	14.1	97.5
37405	2023-10-20T07:15:30	14.2	97.5
37406	2023-10-20T07:25:30	14.4	97.5
37407	2023-10-20T07:35:30	14.3	97.5
37408	2023-10-20T07:45:30	14.2	97.5
37409	2023-10-20T07:55:30	14.3	97.5
37410	2023-10-20T08:05:30	14.2	97.5
37411	2023-10-20T08:25:30	14.2	97.5
37412	2023-10-20T08:35:30	14.4	97.5
37413	2023-10-20T08:45:30	14.6	97.5
37414	2023-10-20T08:55:30	14.7	97.5
37415	2023-10-20T09:05:30	14.7	97.5
37416	2023-10-20T09:15:30	14.9	97.5
37417	2023-10-20T09:25:30	14.8	97.5
37418	2023-10-20T09:35:30	15.1	97.5
37419	2023-10-20T09:45:30	15.2	97.5
37420	2023-10-20T09:55:30	15.5	97.5
37421	2023-10-20T10:05:30	15.5	97.5
37422	2023-10-20T10:15:30	15.5	97.5
37423	2023-10-20T10:25:30	16.1	97.5
37424	2023-10-20T10:35:30	16.4	97.5
37425	2023-10-20T10:45:30	16.7	97.5
37426	2023-10-20T10:55:30	17	97.5
37427	2023-10-20T11:05:30	17.8	97.5
37428	2023-10-20T11:15:30	18.1	97.5
37429	2023-10-20T11:25:30	18.5	97.5
37430	2023-10-20T11:35:30	18.6	97
37431	2023-10-20T11:45:30	19.7	97
37432	2023-10-20T11:55:30	19.4	98
37433	2023-10-20T12:05:30	18.9	97
37434	2023-10-20T12:15:30	18.9	97
37435	2023-10-20T12:25:30	18.9	97
37436	2023-10-20T12:35:30	18.7	97
37437	2023-10-20T12:45:30	18.6	97
37438	2023-10-20T12:55:30	18.3	97.5
37439	2023-10-20T13:05:29	18.2	97.5
37440	2023-10-20T13:15:29	18.3	97
37441	2023-10-20T13:25:29	17.9	96
37442	2023-10-20T13:35:29	17.8	96.5
37443	2023-10-20T13:45:29	17.7	96.5
37444	2023-10-20T13:55:29	17.4	96
37445	2023-10-20T14:05:29	17.2	96
37446	2023-10-20T14:15:29	17	96
37447	2023-10-20T14:25:29	16.6	96.5
37448	2023-10-20T14:35:29	16.1	97
37449	2023-10-20T14:45:29	15.7	97.5
37450	2023-10-20T14:55:29	15.2	98
37451	2023-10-20T15:05:29	15.1	98.5
37452	2023-10-20T15:15:29	15.2	98.5
37453	2023-10-20T15:25:29	15.1	98.5
37454	2023-10-20T15:35:29	15	98.5
37455	2023-10-20T15:45:29	14.8	98.5
37456	2023-10-20T15:55:29	15.2	99.5
37457	2023-10-20T16:05:29	14.6	99
37458	2023-10-20T16:15:29	14.7	99
37459	2023-10-20T16:25:29	14.8	99.5
37460	2023-10-20T16:35:29	14.8	99
37461	2023-10-20T16:45:29	14.5	99
37462	2023-10-20T16:55:29	14.1	99
37463	2023-10-20T17:05:29	13.9	99
37464	2023-10-20T17:15:29	13.6	99
37465	2023-10-20T17:25:29	13.6	99
37466	2023-10-20T17:35:29	13.3	99
37467	2023-10-20T17:45:29	13	99
37468	2023-10-20T17:55:29	12.8	99
37469	2023-10-20T18:05:29	12.6	99
37470	2023-10-20T18:15:29	12.5	99
37471	2023-10-20T18:25:29	12.2	99
37472	2023-10-20T18:35:29	12.1	99
37473	2023-10-20T18:45:29	12.1	99
37474	2023-10-20T18:55:29	12.4	99
37475	2023-10-20T19:05:29	12.9	99.5
37476	2023-10-20T19:15:29	13.1	99.5
37477	2023-10-20T19:25:29	13.3	99
37478	2023-10-20T19:35:29	13.4	99
37479	2023-10-20T19:45:29	13.4	99
37480	2023-10-20T19:55:29	13.6	99
37481	2023-10-20T20:05:29	13.7	99
37482	2023-10-20T20:15:29	13.8	92.5
37483	2023-10-20T20:25:29	14	86.5
37484	2023-10-20T20:35:29	14.2	84.5
37485	2023-10-20T20:45:29	14	86
37486	2023-10-20T20:55:29	14.2	85.5
37487	2023-10-20T21:05:29	14.2	86.5
37488	2023-10-20T21:15:29	13.6	89
37489	2023-10-20T21:25:29	13.9	87
37490	2023-10-20T21:35:29	13.8	90
37491	2023-10-20T21:45:29	13.6	90
37492	2023-10-20T21:55:29	13.6	92
37493	2023-10-20T22:05:29	13.7	89
37494	2023-10-20T22:15:29	13.7	88
37495	2023-10-20T22:25:29	14.2	84
37496	2023-10-20T22:35:29	14.9	80.5
37497	2023-10-20T22:45:29	15.5	78
37498	2023-10-20T23:05:29	15.8	74
37499	2023-10-20T23:15:29	15.9	73.5
37500	2023-10-20T23:25:29	16.3	71
37501	2023-10-20T23:35:29	16.5	70
37502	2023-10-20T23:45:29	16.7	68.5
37503	2023-10-20T23:55:29	16.9	67.5
37504	2023-10-21T00:05:29	16.8	68
37505	2023-10-21T00:15:29	16.7	69
37506	2023-10-21T00:25:29	16.9	68
37507	2023-10-21T00:35:29	16.8	69.5
37508	2023-10-21T00:45:29	16.4	73.5
37509	2023-10-21T00:55:29	16.2	75.5
37510	2023-10-21T01:05:29	16.1	76
37511	2023-10-21T01:15:28	16.1	75
37512	2023-10-21T01:25:28	16.1	74.5
37513	2023-10-21T01:35:28	16.2	74
37514	2023-10-21T01:45:28	16.1	75.5
37515	2023-10-21T01:55:28	16.1	76.5
37516	2023-10-21T02:05:28	16	76.5
37517	2023-10-21T02:15:28	16.1	74.5
37518	2023-10-21T02:25:28	16	75
37519	2023-10-21T02:35:28	15.9	75
37520	2023-10-21T02:45:28	16	75
37521	2023-10-21T02:55:28	15.8	75
37522	2023-10-21T03:05:28	15.8	75
37523	2023-10-21T03:15:28	15.6	76
37524	2023-10-21T03:25:28	15.5	75.5
37525	2023-10-21T03:35:28	15.6	75.5
37526	2023-10-21T03:45:28	15.6	75
37527	2023-10-21T03:55:28	15.5	75.5
37528	2023-10-21T04:05:28	15.5	75.5
37529	2023-10-21T04:15:28	15.4	76
37530	2023-10-21T04:25:28	15.5	75.5
37531	2023-10-21T04:35:28	15.6	75.5
37532	2023-10-21T04:45:28	15.7	76.5
37533	2023-10-21T04:55:28	15.6	77
37534	2023-10-21T05:05:28	15	79
37535	2023-10-21T05:15:28	15	79
37536	2023-10-21T05:25:28	15.3	79
37537	2023-10-21T05:35:28	15.3	79
37538	2023-10-21T05:45:28	15.2	79
37539	2023-10-21T05:55:28	15.2	79.5
37540	2023-10-21T06:05:28	15.2	79.5
37541	2023-10-21T06:15:28	15	79
37542	2023-10-21T06:25:28	15	78.5
37543	2023-10-21T06:35:28	15	77.5
37544	2023-10-21T06:45:28	14.8	78
37545	2023-10-21T06:55:28	14.7	79.5
37546	2023-10-21T07:05:28	14.9	79.5
37547	2023-10-21T07:15:28	15	78.5
37548	2023-10-21T07:25:28	15	78.5
37549	2023-10-21T07:35:28	15	77
37550	2023-10-21T07:45:28	15.3	76
37551	2023-10-21T07:55:28	15.5	73
37552	2023-10-21T08:05:28	15.5	73.5
37553	2023-10-21T08:15:28	15.1	74.5
37554	2023-10-21T08:25:28	15.5	74
37555	2023-10-21T08:35:28	15.3	74.5
37556	2023-10-21T08:45:28	15.4	74
37557	2023-10-21T08:55:28	16	73
37558	2023-10-21T09:05:28	16.1	70.5
37559	2023-10-21T09:15:28	16.1	71
37560	2023-10-21T09:25:28	16.1	70
37561	2023-10-21T09:35:28	15.7	71.5
37562	2023-10-21T09:45:28	16.2	71
37563	2023-10-21T09:55:28	16.4	69
37564	2023-10-21T10:05:28	16.6	69
37565	2023-10-21T10:15:28	16.9	66.5
37566	2023-10-21T10:25:28	17.6	63
37567	2023-10-21T10:35:28	17.8	61.5
37568	2023-10-21T10:45:28	17.6	62.5
37569	2023-10-21T10:55:28	18.2	61.5
37570	2023-10-21T11:05:28	19.8	56
37571	2023-10-21T11:15:28	19.8	52.5
37572	2023-10-21T11:25:28	19.6	51.5
37573	2023-10-21T11:35:28	19.5	53
37574	2023-10-21T11:45:28	21.7	47
37575	2023-10-21T11:55:28	21.5	47
37576	2023-10-21T12:05:28	22.3	44
37577	2023-10-21T12:15:28	22.5	43.5
37578	2023-10-21T12:25:28	22.5	44
37579	2023-10-21T12:35:28	22.8	43.5
37580	2023-10-21T12:45:28	21.9	46.5
37581	2023-10-21T12:55:28	22.2	46
37582	2023-10-21T13:05:28	23.2	43.5
37583	2023-10-21T13:15:28	23.6	39
37584	2023-10-21T13:25:27	23.8	38.5
37585	2023-10-21T13:35:27	24.4	38
37586	2023-10-21T13:45:27	24.3	37
37587	2023-10-21T13:55:27	24.9	37
37588	2023-10-21T14:05:27	25.1	36.5
37589	2023-10-21T14:15:27	25.1	35.5
37590	2023-10-21T14:25:27	25.1	36.5
37591	2023-10-21T14:35:27	25.4	36
37592	2023-10-21T14:45:27	24.9	36
37593	2023-10-21T14:55:27	25.2	36.5
37594	2023-10-21T15:05:27	24.1	38
37595	2023-10-21T15:15:27	25.5	37
37596	2023-10-21T15:25:27	24.2	39.5
37597	2023-10-21T15:35:27	23.1	43
37598	2023-10-21T15:45:27	22.6	44.5
37599	2023-10-21T15:55:27	21.2	46
37600	2023-10-21T16:05:28	20.5	47.5
37601	2023-10-21T16:15:27	19.6	51
37602	2023-10-21T16:25:27	19.1	52
37603	2023-10-21T16:35:27	18.8	53.5
37604	2023-10-21T16:45:27	18.7	55.5
37605	2023-10-21T16:55:27	18.3	62
37606	2023-10-21T17:05:27	17.8	61
37607	2023-10-21T17:15:27	17.4	64
37608	2023-10-21T17:25:27	17	65.5
37609	2023-10-21T17:35:27	16.6	67
37610	2023-10-21T17:45:27	15.9	68.5
37611	2023-10-21T17:55:27	15.4	70
37612	2023-10-21T18:05:27	15	72.5
37613	2023-10-21T18:15:27	14.7	72.5
37614	2023-10-21T18:25:27	14.3	74
37615	2023-10-21T18:35:27	14	76
37616	2023-10-21T18:45:27	13.7	76
37617	2023-10-21T18:55:27	13.6	76
37618	2023-10-21T19:05:27	13.8	76
37619	2023-10-21T19:15:27	13.5	74.5
37620	2023-10-21T19:25:27	13.5	73
37621	2023-10-21T19:35:27	13.2	73
37622	2023-10-21T19:45:27	13	75.5
37623	2023-10-21T19:55:27	12.6	77.5
37624	2023-10-21T20:05:27	12.7	73
37625	2023-10-21T20:15:27	12.7	69.5
37626	2023-10-21T20:35:27	12.5	70
37627	2023-10-21T20:45:27	12.7	68.5
37628	2023-10-21T20:55:27	13.1	65
37629	2023-10-21T21:15:27	13.4	64
37630	2023-10-21T21:25:27	13.5	63
37631	2023-10-21T21:35:27	13.4	64
37632	2023-10-21T21:45:27	13.2	64
37633	2023-10-21T21:55:27	12.9	66
37634	2023-10-21T22:05:27	12.7	66.5
37635	2023-10-21T22:15:27	12.7	67
37636	2023-10-21T22:25:27	12.6	67.5
37637	2023-10-21T22:35:27	12.6	67.5
37638	2023-10-21T22:45:27	11.7	74
37639	2023-10-21T22:55:27	11.1	76.5
37640	2023-10-21T23:05:27	10.7	78.5
37641	2023-10-21T23:15:27	10.4	81
37642	2023-10-21T23:25:27	10.1	81.5
37643	2023-10-21T23:35:27	10	83
37644	2023-10-21T23:45:27	10	83
37645	2023-10-21T23:55:27	9.9	82
37646	2023-10-22T00:05:27	10.1	83
37647	2023-10-22T00:15:27	10.1	83
37648	2023-10-22T00:25:27	9.6	85
37649	2023-10-22T00:35:27	9.3	86.5
37650	2023-10-22T00:45:27	9	87.5
37651	2023-10-22T00:55:27	8.7	88
37652	2023-10-22T01:05:27	8.5	89
37653	2023-10-22T01:15:27	8.5	89.5
37654	2023-10-22T01:25:27	8.2	90
37655	2023-10-22T01:35:27	8.1	90.5
37656	2023-10-22T01:45:27	7.9	90.5
37657	2023-10-22T01:55:27	8	91
37658	2023-10-22T02:05:27	7.8	91.5
37659	2023-10-22T02:15:26	7.8	91.5
37660	2023-10-22T02:25:26	7.6	92
37661	2023-10-22T02:35:26	7.6	91.5
37662	2023-10-22T02:45:26	7.7	92
37663	2023-10-22T02:55:26	7.7	92
37664	2023-10-22T03:05:26	7.4	92.5
37665	2023-10-22T03:15:26	7.4	93
37666	2023-10-22T03:25:26	7.3	93.5
37667	2023-10-22T03:35:26	7.2	94
37668	2023-10-22T03:45:26	7.1	94.5
37669	2023-10-22T03:55:26	7.1	94.5
37670	2023-10-22T04:05:26	7.4	94
37671	2023-10-22T04:15:26	7.7	92
37672	2023-10-22T04:25:26	7.6	92.5
37673	2023-10-22T04:35:26	8	90
37674	2023-10-22T04:45:26	8.3	89
37675	2023-10-22T04:55:26	8.5	88
37676	2023-10-22T05:05:26	8.7	87.5
37677	2023-10-22T05:15:26	8.6	87.5
37678	2023-10-22T05:25:26	8.4	88
37679	2023-10-22T05:35:26	8.7	87
37680	2023-10-22T05:45:26	8.8	86
37681	2023-10-22T05:55:26	9	85.5
37682	2023-10-22T06:05:26	9.1	84.5
37683	2023-10-22T06:15:26	9.2	85
37684	2023-10-22T06:25:26	9.2	85.5
37685	2023-10-22T06:35:26	9.6	84.5
37686	2023-10-22T06:45:26	9.9	84.5
37687	2023-10-22T06:55:26	10.4	81.5
37688	2023-10-22T07:05:26	11	79
37689	2023-10-22T07:15:26	11.3	77
37690	2023-10-22T07:25:26	11.6	75.5
37691	2023-10-22T07:35:26	11.8	75
37692	2023-10-22T07:45:26	11.6	75.5
37693	2023-10-22T07:55:26	12	74.5
37694	2023-10-22T08:05:26	12.3	73
37695	2023-10-22T08:15:26	12.4	73
37696	2023-10-22T08:25:26	12.9	71.5
37697	2023-10-22T08:35:26	13.1	71
37698	2023-10-22T08:45:26	13.3	70.5
37699	2023-10-22T08:55:26	13.4	70.5
37700	2023-10-22T09:05:26	13.7	67.5
37701	2023-10-22T09:15:26	14.1	66
37702	2023-10-22T09:25:26	14.4	65.5
37703	2023-10-22T09:35:26	14.6	64
37704	2023-10-22T09:45:26	14.8	64
37705	2023-10-22T09:55:26	15	62.5
37706	2023-10-22T10:05:26	15.3	62.5
37707	2023-10-22T10:15:26	15.7	60.5
37708	2023-10-22T10:25:26	16	59.5
37709	2023-10-22T10:35:26	16.3	57.5
37710	2023-10-22T10:45:26	16.2	57
37711	2023-10-22T10:55:26	16.4	56.5
37712	2023-10-22T11:05:26	17	55.5
37713	2023-10-22T11:15:26	17.7	54
37714	2023-10-22T11:25:26	18.3	51
37715	2023-10-22T11:35:26	18.6	51
37716	2023-10-22T11:45:26	18.2	52.5
37717	2023-10-22T11:55:26	19.2	50
37718	2023-10-22T12:05:26	20	46
37719	2023-10-22T12:15:26	19.6	47
37720	2023-10-22T12:25:26	20	46
37721	2023-10-22T12:35:26	20.8	45
37722	2023-10-22T12:45:26	21.9	41.5
37723	2023-10-22T12:55:26	21.2	44.5
37724	2023-10-22T13:05:26	21.9	42.5
37725	2023-10-22T13:15:26	22.9	40.5
37726	2023-10-22T13:25:26	20.1	46.5
37727	2023-10-22T13:35:26	19.5	47.5
37728	2023-10-22T13:45:26	20.5	44
37729	2023-10-22T13:55:26	19.2	48
37730	2023-10-22T14:05:26	19	49
37731	2023-10-22T14:15:26	21.1	44.5
37732	2023-10-22T14:25:26	21.6	43
37733	2023-10-22T14:35:26	19.2	47.5
37734	2023-10-22T14:45:26	19	49.5
37735	2023-10-22T14:55:26	18.4	51.5
37736	2023-10-22T15:05:26	17.9	53.5
37737	2023-10-22T15:15:26	18.4	55
37738	2023-10-22T15:25:26	19.1	53
37739	2023-10-22T15:35:26	18.1	57
37740	2023-10-22T15:45:25	17.4	61
37741	2023-10-22T15:55:26	17	63.5
37742	2023-10-22T16:05:26	16.8	65
37743	2023-10-22T16:15:26	16.3	66.5
37744	2023-10-22T16:25:25	15.9	68.5
37745	2023-10-22T16:35:25	15.2	71
37746	2023-10-22T16:45:25	14.9	72.5
37747	2023-10-22T16:55:25	14.7	73
37748	2023-10-22T17:05:25	14.4	74.5
37749	2023-10-22T17:15:25	14.1	76
37750	2023-10-22T17:25:25	13.7	77
37751	2023-10-22T17:35:25	13.4	76.5
37752	2023-10-22T17:45:25	13.1	76.5
37753	2023-10-22T17:55:25	13	77.5
37754	2023-10-22T18:05:25	13	78
37755	2023-10-22T18:15:25	12.7	78.5
37756	2023-10-22T18:25:25	12.5	79.5
37757	2023-10-22T18:35:25	12.3	80.5
37758	2023-10-22T18:45:25	12.1	81
37759	2023-10-22T18:55:25	12	81
37760	2023-10-22T19:05:25	12.1	81.5
37761	2023-10-22T19:15:25	11.8	81.5
37762	2023-10-22T19:25:25	11.7	81.5
37763	2023-10-22T19:35:25	11.4	82.5
37764	2023-10-22T19:45:25	11.3	83
37765	2023-10-22T19:55:25	11.3	83.5
37766	2023-10-22T20:05:25	11.2	83.5
37767	2023-10-22T20:15:25	11	83.5
37768	2023-10-22T20:25:25	11	84
37769	2023-10-22T20:35:25	10.9	84.5
37770	2023-10-22T20:45:25	10.9	85
37771	2023-10-22T20:55:25	10.7	85.5
37772	2023-10-22T21:05:25	10.7	86
37773	2023-10-22T21:15:25	10.6	86
37774	2023-10-22T21:25:25	10.5	86.5
37775	2023-10-22T21:35:25	10.4	87
37776	2023-10-22T21:45:25	10.1	87.5
37777	2023-10-22T21:55:25	9.8	88.5
37778	2023-10-22T22:05:25	9.6	89
37779	2023-10-22T22:15:25	9.3	90
37780	2023-10-22T22:25:25	9	90
37781	2023-10-22T22:35:25	8.8	90.5
37782	2023-10-22T22:45:25	8.7	91
37783	2023-10-22T22:55:25	8.6	90.5
37784	2023-10-22T23:05:25	8.4	90.5
37785	2023-10-22T23:15:25	8.2	91
37786	2023-10-22T23:25:25	8	91.5
37787	2023-10-22T23:35:25	7.9	91.5
37788	2023-10-22T23:45:25	7.8	92.5
37789	2023-10-22T23:55:25	7.6	92
37790	2023-10-23T00:05:25	7.5	91.5
37791	2023-10-23T00:15:25	7.3	92
37792	2023-10-23T00:25:25	7.2	92.5
37793	2023-10-23T00:35:25	7	93
37794	2023-10-23T00:45:25	7	93
37795	2023-10-23T00:55:25	6.8	93
37796	2023-10-23T01:05:25	6.7	92.5
37797	2023-10-23T01:15:25	6.5	93
37798	2023-10-23T01:25:25	6.5	93.5
37799	2023-10-23T01:35:25	6.4	93
37800	2023-10-23T01:45:25	6.3	93.5
37801	2023-10-23T01:55:25	6.1	93.5
37802	2023-10-23T02:05:25	5.9	94
37803	2023-10-23T02:15:25	5.9	94
37804	2023-10-23T02:25:25	5.8	94.5
37805	2023-10-23T02:35:25	5.7	94.5
37806	2023-10-23T02:45:25	5.6	94.5
37807	2023-10-23T02:55:25	5.4	94.5
37808	2023-10-23T03:05:25	5.4	94
37809	2023-10-23T03:15:25	5.4	94.5
37810	2023-10-23T03:25:25	5.2	94.5
37811	2023-10-23T03:35:25	5.1	95
37812	2023-10-23T03:45:25	4.8	95
37813	2023-10-23T03:55:25	4.8	95
37814	2023-10-23T04:05:25	4.9	95.5
37815	2023-10-23T04:15:25	4.7	95
37816	2023-10-23T04:25:25	4.7	95.5
37817	2023-10-23T04:35:25	4.6	95.5
37818	2023-10-23T04:45:25	4.5	96
37819	2023-10-23T04:55:25	4.5	96
37820	2023-10-23T05:05:25	4.5	96.5
37821	2023-10-23T05:15:25	4.5	96.5
37822	2023-10-23T05:25:25	4.2	96.5
37823	2023-10-23T05:35:25	4.3	96.5
37824	2023-10-23T05:45:25	4.2	97
37825	2023-10-23T05:55:25	4.1	97
37826	2023-10-23T06:05:25	4.2	97
37827	2023-10-23T06:15:25	4.2	97
37828	2023-10-23T06:25:25	4.8	97.5
37829	2023-10-23T06:35:25	5.3	98
37830	2023-10-23T06:45:25	5.7	97.5
37831	2023-10-23T06:55:25	5.8	97
37832	2023-10-23T07:05:25	6	96.5
37833	2023-10-23T07:15:25	6.4	96
37834	2023-10-23T07:25:25	6.7	94
37835	2023-10-23T07:35:25	7.1	93
37836	2023-10-23T07:45:25	7.4	91.5
37837	2023-10-23T07:55:25	7.7	91
37838	2023-10-23T08:05:25	8.1	90
37839	2023-10-23T08:15:25	8.5	88
37840	2023-10-23T08:25:25	8.8	86.5
37841	2023-10-23T08:35:25	9.2	85
37842	2023-10-23T08:45:25	9.4	84
37843	2023-10-23T08:55:25	9.7	83.5
37844	2023-10-23T09:05:25	10	82.5
37845	2023-10-23T09:15:25	10.2	81.5
37846	2023-10-23T09:25:25	10.3	81.5
37847	2023-10-23T09:35:25	10.6	80.5
37848	2023-10-23T09:45:25	10.7	82
37849	2023-10-23T09:55:25	10.8	82.5
37850	2023-10-23T10:05:24	11.1	82.5
37851	2023-10-23T10:15:24	11.1	82
37852	2023-10-23T10:25:24	11.2	82
37853	2023-10-23T10:35:24	11.3	82
37854	2023-10-23T10:45:24	11.6	81
37855	2023-10-23T10:55:24	12.1	79
37856	2023-10-23T11:05:24	12.4	79
37857	2023-10-23T11:15:24	12.8	78
37858	2023-10-23T11:25:24	13	77
37859	2023-10-23T11:35:24	13.1	75.5
37860	2023-10-23T11:45:24	12.8	76.5
37861	2023-10-23T11:55:24	12.8	77
37862	2023-10-23T12:05:24	12.7	84
37863	2023-10-23T12:15:24	12.3	90
37864	2023-10-23T12:25:24	12.5	90.5
37865	2023-10-23T12:35:24	12.3	91
37866	2023-10-23T12:45:24	12.4	91
37867	2023-10-23T12:55:24	12.4	90.5
37868	2023-10-23T13:05:24	12.4	87
37869	2023-10-23T13:15:24	12.2	91
37870	2023-10-23T13:25:24	12.1	94
37871	2023-10-23T13:35:24	11.9	95.5
37872	2023-10-23T13:45:24	12.3	96.5
37873	2023-10-23T13:55:24	12.4	96
37874	2023-10-23T14:05:24	12.6	95
37875	2023-10-23T14:15:24	13.1	93.5
37876	2023-10-23T14:25:24	13	93.5
37877	2023-10-23T14:35:24	13	92.5
37878	2023-10-23T14:45:24	13.5	88.5
37879	2023-10-23T14:55:24	13	88.5
37880	2023-10-23T15:05:24	13	90
37881	2023-10-23T15:15:24	12.7	88.5
37882	2023-10-23T15:25:24	12.7	88.5
37883	2023-10-23T15:35:24	12.8	86.5
37884	2023-10-23T15:45:24	12.9	86.5
37885	2023-10-23T15:55:24	12.8	86.5
37886	2023-10-23T16:05:24	12.8	85.5
37887	2023-10-23T16:15:24	12.7	87.5
37888	2023-10-23T16:25:24	12.8	86
37889	2023-10-23T16:35:24	12.6	87
37890	2023-10-23T16:45:24	12.3	87
37891	2023-10-23T16:55:24	12.3	87.5
37892	2023-10-23T17:05:24	12.3	87.5
37893	2023-10-23T17:15:24	12.2	88.5
37894	2023-10-23T17:25:24	12.3	88.5
37895	2023-10-23T17:35:24	12.1	92
37896	2023-10-23T17:45:24	12.1	91.5
37897	2023-10-23T18:05:24	12	92
37898	2023-10-23T18:15:24	11.9	92.5
37899	2023-10-23T18:25:24	12.1	92.5
37900	2023-10-23T18:35:24	11.9	93.5
37901	2023-10-23T18:45:24	11.8	94
37902	2023-10-23T18:55:24	11.7	95.5
37903	2023-10-23T19:05:24	11.6	96.5
37904	2023-10-23T19:15:24	11.6	97
37905	2023-10-23T19:25:24	11.6	97
37906	2023-10-23T19:35:24	11.5	97.5
37907	2023-10-23T19:45:24	11.6	97.5
37908	2023-10-23T19:55:24	11.6	97.5
37909	2023-10-23T20:05:24	11.6	97.5
37910	2023-10-23T20:15:24	11.5	97.5
37911	2023-10-23T20:25:24	11.3	97.5
37912	2023-10-23T20:35:24	11.4	97.5
37913	2023-10-23T20:45:24	11.4	97.5
37914	2023-10-23T20:55:24	11.3	97.5
37915	2023-10-23T21:05:24	11.2	98
37916	2023-10-23T21:15:24	11.2	98
37917	2023-10-23T21:25:24	11.3	98
37918	2023-10-23T21:35:24	11.3	98
37919	2023-10-23T21:45:24	11.2	98
37920	2023-10-23T21:55:24	11.1	98
37921	2023-10-23T22:05:24	11.4	98
37922	2023-10-23T22:15:24	11.3	98
37923	2023-10-23T22:25:24	11.3	98
37924	2023-10-23T22:35:24	11.2	98
37925	2023-10-23T22:45:24	11.2	98.5
37926	2023-10-23T22:55:24	11.1	98.5
37927	2023-10-23T23:05:24	11.1	98.5
37928	2023-10-23T23:15:24	11.1	98.5
37929	2023-10-23T23:25:24	11.1	98.5
37930	2023-10-23T23:35:24	11	98.5
37931	2023-10-23T23:45:24	10.9	98.5
37932	2023-10-23T23:55:24	10.9	98.5
37933	2023-10-24T00:05:23	11	99
37934	2023-10-24T00:15:23	11.2	99
37935	2023-10-24T00:25:23	11.3	99
37936	2023-10-24T00:35:23	11.2	99
37937	2023-10-24T00:45:23	11.2	99
37938	2023-10-24T00:55:23	11.2	99
37939	2023-10-24T01:05:23	11.2	99
37940	2023-10-24T01:15:23	11.2	99
37941	2023-10-24T01:25:23	11.2	99
37942	2023-10-24T01:35:23	11.2	99
37943	2023-10-24T01:45:23	11.2	99
37944	2023-10-24T01:55:23	11.2	99
37945	2023-10-24T02:05:23	11.2	99
37946	2023-10-24T02:15:23	11.1	99
37947	2023-10-24T02:25:23	11.2	99
37948	2023-10-24T02:35:23	11.1	99
37949	2023-10-24T02:45:23	11.1	99
37950	2023-10-24T02:55:23	11.1	99
37951	2023-10-24T03:05:23	11	99
37952	2023-10-24T03:15:23	11.2	99
37953	2023-10-24T03:25:23	11	99
37954	2023-10-24T03:35:23	11.1	99
37955	2023-10-24T03:45:23	10.9	99
37956	2023-10-24T03:55:23	11	99
37957	2023-10-24T04:05:23	11	99.5
37958	2023-10-24T04:15:23	10.9	99
37959	2023-10-24T04:25:23	10.9	99
37960	2023-10-24T04:35:23	10.9	99
37961	2023-10-24T04:45:23	11	99.5
37962	2023-10-24T04:55:23	10.9	99.5
37963	2023-10-24T05:05:23	10.9	99
37964	2023-10-24T05:15:23	10.9	99.5
37965	2023-10-24T05:25:23	11	99.5
37966	2023-10-24T05:35:23	11	99.5
37967	2023-10-24T05:45:23	11.1	99.5
37968	2023-10-24T05:55:23	11.1	99.5
37969	2023-10-24T06:05:23	11.1	99.5
37970	2023-10-24T06:15:23	11.1	99.5
37971	2023-10-24T06:25:23	11.1	99.5
37972	2023-10-24T06:35:23	11.3	99.5
37973	2023-10-24T06:45:23	11.2	99.5
37974	2023-10-24T06:55:23	11.3	99.5
37975	2023-10-24T07:05:23	11.3	99.5
37976	2023-10-24T07:15:23	11.5	99.5
37977	2023-10-24T07:25:23	11.5	99.5
37978	2023-10-24T07:35:23	11.5	99.5
37979	2023-10-24T07:45:23	11.5	99.5
37980	2023-10-24T07:55:23	11.7	99.5
37981	2023-10-24T08:05:23	11.7	99
37982	2023-10-24T08:15:23	11.7	99
37983	2023-10-24T08:25:23	11.7	99
37984	2023-10-24T08:35:23	11.8	99
37985	2023-10-24T08:45:23	11.8	99
37986	2023-10-24T08:55:23	11.9	99
37987	2023-10-24T09:05:23	12	99
37988	2023-10-24T09:15:23	12	99
37989	2023-10-24T09:25:23	12.1	98.5
37990	2023-10-24T09:35:23	12.1	98.5
37991	2023-10-24T09:55:23	12.3	98.5
37992	2023-10-24T10:05:23	12.2	98.5
37993	2023-10-24T10:15:23	12.4	98.5
37994	2023-10-24T10:25:23	12.5	98.5
37995	2023-10-24T10:35:23	12.6	98
37996	2023-10-24T10:45:23	12.8	98
37997	2023-10-24T10:55:23	12.8	98
37998	2023-10-24T11:05:23	12.8	98
37999	2023-10-24T11:15:23	12.9	98
38000	2023-10-24T11:25:23	13	97.5
38001	2023-10-24T11:35:23	13	97.5
38002	2023-10-24T11:45:23	13.2	97.5
38003	2023-10-24T11:55:23	13.3	97.5
38004	2023-10-24T12:05:23	13.5	97.5
38005	2023-10-24T12:15:23	13.7	97
38006	2023-10-24T12:25:23	13.7	97
38007	2023-10-24T12:35:23	13.9	97
38008	2023-10-24T12:45:23	14.1	97
38009	2023-10-24T12:55:23	13.8	97
38010	2023-10-24T13:05:23	14.2	96.5
38011	2023-10-24T13:15:23	14.2	96.5
38012	2023-10-24T13:25:23	14.3	97
38013	2023-10-24T13:35:23	14.6	96.5
38014	2023-10-24T13:45:23	14.5	97
38015	2023-10-24T13:55:23	14.5	96.5
38016	2023-10-24T14:05:23	14.3	97
38017	2023-10-24T14:15:23	14.3	97
38018	2023-10-24T14:25:23	14.8	97
38019	2023-10-24T14:35:23	14.8	97
38020	2023-10-24T14:45:22	14.5	97
38021	2023-10-24T14:55:23	14.2	97
38022	2023-10-24T15:05:22	13.9	97
38023	2023-10-24T15:15:22	13.8	97
38024	2023-10-24T15:25:22	13.6	97
38025	2023-10-24T15:35:22	13.3	97
38026	2023-10-24T15:45:22	13.1	97
38027	2023-10-24T15:55:22	13	97
38028	2023-10-24T16:05:22	12.9	97
38029	2023-10-24T16:15:22	12.7	97
38030	2023-10-24T16:25:22	12.4	97
38031	2023-10-24T16:35:22	12.2	97
38032	2023-10-24T16:45:22	12.2	97
38033	2023-10-24T16:55:22	12.1	97
38034	2023-10-24T17:05:22	12	97
38035	2023-10-24T17:15:22	11.8	97
38036	2023-10-24T17:25:22	11.7	97
38037	2023-10-24T17:35:22	11.7	97
38038	2023-10-24T17:45:22	11.7	97
38039	2023-10-24T17:55:22	11.6	97
38040	2023-10-24T18:05:22	11.6	97
38041	2023-10-24T18:15:22	11.6	97
38042	2023-10-24T18:25:22	11.5	97.5
38043	2023-10-24T18:35:22	11.2	97.5
38044	2023-10-24T18:45:22	11.1	97
38045	2023-10-24T18:55:22	10.9	97
38046	2023-10-24T19:05:22	11	97.5
38047	2023-10-24T19:15:22	10.9	97
38048	2023-10-24T19:25:22	10.7	97.5
38049	2023-10-24T19:35:22	10.9	97.5
38050	2023-10-24T19:45:22	10.9	98
38051	2023-10-24T19:55:22	10.6	98
38052	2023-10-24T20:05:22	10.2	98.5
38053	2023-10-24T20:15:22	9.9	99
38054	2023-10-24T20:25:22	9.6	99
38055	2023-10-24T20:35:22	9.6	99
38056	2023-10-24T20:45:22	9.4	99
38057	2023-10-24T20:55:22	9.2	99
38058	2023-10-24T21:05:22	9	99
38059	2023-10-24T21:15:22	8.9	99
38060	2023-10-24T21:25:22	8.7	99
38061	2023-10-24T21:35:22	8.5	99
38062	2023-10-24T21:45:22	8.3	99
38063	2023-10-24T21:55:22	8.3	99
38064	2023-10-24T22:05:22	8.5	99
38065	2023-10-24T22:15:22	8.5	99.5
38066	2023-10-24T22:25:22	8.2	99
38067	2023-10-24T22:35:22	8.1	99
38068	2023-10-24T22:45:22	8	99
38069	2023-10-24T22:55:22	8	99
38070	2023-10-24T23:05:22	8	99.5
38071	2023-10-24T23:15:22	7.9	99.5
38072	2023-10-24T23:25:22	7.9	99.5
38073	2023-10-24T23:35:22	7.7	99.5
38074	2023-10-24T23:45:22	7.8	99.5
38075	2023-10-24T23:55:22	7.7	99.5
38076	2023-10-25T00:05:22	7.9	99.5
38077	2023-10-25T00:15:22	7.9	99.5
38078	2023-10-25T00:25:22	7.9	99.5
38079	2023-10-25T00:35:22	7.9	100
38080	2023-10-25T00:45:22	8	99.5
38081	2023-10-25T00:55:22	7.9	99.5
38082	2023-10-25T01:05:22	7.6	99.5
38083	2023-10-25T01:15:22	7.6	99.5
38084	2023-10-25T01:25:22	7.5	99.5
38085	2023-10-25T01:35:22	7.3	99.5
38086	2023-10-25T01:45:22	7.2	99.5
38087	2023-10-25T01:55:22	7.4	99.5
38088	2023-10-25T02:05:22	7.4	99.5
38089	2023-10-25T02:15:22	7.4	99.5
38090	2023-10-25T02:25:22	7.5	99.5
38091	2023-10-25T02:35:22	7.5	99.5
38092	2023-10-25T02:45:22	7.6	100
38093	2023-10-25T02:55:22	7.8	100
38094	2023-10-25T03:05:22	8	100
38095	2023-10-25T03:15:22	7.7	100
38096	2023-10-25T03:25:22	7.5	100
38097	2023-10-25T03:35:22	7.8	100
38098	2023-10-25T03:45:22	7.7	100
38099	2023-10-25T03:55:22	7.4	100
38100	2023-10-25T04:05:22	7.1	100
38101	2023-10-25T04:15:22	7	99.5
38102	2023-10-25T04:25:22	6.7	99.5
38103	2023-10-25T04:35:22	6.4	99.5
38104	2023-10-25T04:45:22	6.6	99.5
38105	2023-10-25T04:55:22	6.4	99.5
38106	2023-10-25T05:05:22	6.5	100
38107	2023-10-25T05:15:22	6.7	100
38108	2023-10-25T05:25:22	6.8	100
38109	2023-10-25T05:35:22	6.9	100
38110	2023-10-25T05:45:22	6.7	100
38111	2023-10-25T05:55:22	6.6	100
38112	2023-10-25T06:05:22	6.8	100
38113	2023-10-25T06:15:22	6.8	100
38114	2023-10-25T06:25:22	6.8	100
38115	2023-10-25T06:35:22	7.2	100
38116	2023-10-25T06:45:22	7.3	100
38117	2023-10-25T06:55:22	7	100
38118	2023-10-25T07:05:22	7.1	100
38119	2023-10-25T07:15:22	7.4	100
38120	2023-10-25T07:25:22	7.8	100
38121	2023-10-25T07:35:22	8.2	100
38122	2023-10-25T07:45:22	8.7	100
38123	2023-10-25T07:55:22	9.1	100
38124	2023-10-25T08:05:22	9.5	99.5
38125	2023-10-25T08:15:21	10	99.5
38126	2023-10-25T08:25:22	10.3	99.5
38127	2023-10-25T08:35:21	10.7	99
38128	2023-10-25T08:45:21	11	99
38129	2023-10-25T08:55:21	11	98.5
38130	2023-10-25T09:05:21	11.2	98.5
38131	2023-10-25T09:15:21	11.4	98.5
38132	2023-10-25T09:25:21	11.5	98
38133	2023-10-25T09:35:21	12	98
38134	2023-10-25T09:45:22	11.8	98
38135	2023-10-25T09:55:22	11.8	98
38136	2023-10-25T10:05:21	12	98
38137	2023-10-25T10:15:21	12.3	97.5
38138	2023-10-25T10:25:21	12.5	97.5
38139	2023-10-25T10:35:21	12.7	97.5
38140	2023-10-25T10:45:22	13	97.5
38141	2023-10-25T10:55:21	13.2	97.5
38142	2023-10-25T11:05:21	13.6	97.5
38143	2023-10-25T11:15:21	13.6	97.5
38144	2023-10-25T11:25:21	13.6	97.5
38145	2023-10-25T11:35:21	13.8	97.5
38146	2023-10-25T11:45:21	13.9	94.5
38147	2023-10-25T11:55:21	13.6	94.5
38148	2023-10-25T12:05:21	13.5	94.5
38149	2023-10-25T12:15:21	13.4	94.5
38150	2023-10-25T12:25:21	13.2	94.5
38151	2023-10-25T12:35:21	13	94.5
38152	2023-10-25T12:45:21	13	94.5
38153	2023-10-25T12:55:21	13.2	94.5
38154	2023-10-25T13:05:21	13.2	94.5
38155	2023-10-25T13:15:21	13.4	94.5
38156	2023-10-25T13:25:21	13.8	94.5
38157	2023-10-25T13:35:21	13.6	94.5
38158	2023-10-25T13:45:21	13.8	94.5
38159	2023-10-25T13:55:21	13.8	94.5
38160	2023-10-25T14:05:21	14	94.5
38161	2023-10-25T14:15:21	13.8	94.5
38162	2023-10-25T14:25:21	13.2	94.5
38163	2023-10-25T14:45:21	13	94.5
38164	2023-10-25T14:55:21	13.1	94.5
38165	2023-10-25T15:05:21	13	94.5
38166	2023-10-25T15:15:21	13.1	95
38167	2023-10-25T15:25:21	12.7	94.5
38168	2023-10-25T15:35:21	12.9	94.5
38169	2023-10-25T15:45:21	13.3	94.5
38170	2023-10-25T15:55:21	12.7	94.5
38171	2023-10-25T16:05:21	12.7	94.5
38172	2023-10-25T16:15:21	12.6	95
38173	2023-10-25T16:25:21	12.3	94.5
38174	2023-10-25T16:35:21	12.3	94.5
38175	2023-10-25T16:45:21	12.5	94.5
38176	2023-10-25T16:55:21	12.9	94.5
38177	2023-10-25T17:05:21	13.1	94.5
38178	2023-10-25T17:15:21	13	94.5
38179	2023-10-25T17:25:21	12.8	94.5
38180	2023-10-25T17:35:21	12.5	94.5
38181	2023-10-25T17:45:21	13	94.5
38182	2023-10-25T17:55:21	12.9	94.5
38183	2023-10-25T18:05:21	13	94.5
38184	2023-10-25T18:15:21	13.2	94.5
38185	2023-10-25T18:25:21	12.1	94.5
38186	2023-10-25T18:35:21	12	95
38187	2023-10-25T18:45:21	11.9	94.5
38188	2023-10-25T18:55:21	12.3	94.5
38189	2023-10-25T19:05:21	12.3	95
38190	2023-10-25T19:15:21	12.3	95
38191	2023-10-25T19:25:21	11.8	94.5
38192	2023-10-25T19:35:21	11.7	95
38193	2023-10-25T19:45:21	11.7	94.5
38194	2023-10-25T19:55:21	11.7	95
38195	2023-10-25T20:05:21	11.8	95
38196	2023-10-25T20:15:21	11.8	94.5
38197	2023-10-25T20:25:21	11.7	94.5
38198	2023-10-25T20:35:21	11.5	94.5
38199	2023-10-25T20:45:21	11.5	94.5
38200	2023-10-25T20:55:21	11.5	94.5
38201	2023-10-25T21:05:21	11.5	94.5
38202	2023-10-25T21:15:21	11.6	94.5
38203	2023-10-25T21:25:21	11.7	94.5
38204	2023-10-25T21:35:21	11.7	94.5
38205	2023-10-25T21:45:21	11.7	94.5
38206	2023-10-25T21:55:21	11.9	94.5
38207	2023-10-25T22:05:20	11.8	94.5
38208	2023-10-25T22:15:20	11.9	94.5
38209	2023-10-25T22:25:20	11.9	94.5
38210	2023-10-25T22:35:20	11.9	94.5
38211	2023-10-25T22:45:20	11.7	94.5
38212	2023-10-25T22:55:20	11.7	94.5
38213	2023-10-25T23:05:20	11.7	94.5
38214	2023-10-25T23:15:20	11.7	94.5
38215	2023-10-25T23:25:20	11.6	94.5
38216	2023-10-25T23:35:20	11.3	94.5
38217	2023-10-25T23:45:20	11.3	94.5
38218	2023-10-25T23:55:20	11.6	94.5
38219	2023-10-26T00:05:20	11.5	94.5
38220	2023-10-26T00:15:20	11.3	95
38221	2023-10-26T00:25:20	11.5	95
38222	2023-10-26T00:35:20	11.4	95
38223	2023-10-26T00:45:20	11.6	95
38224	2023-10-26T00:55:20	11.6	95
38225	2023-10-26T01:05:20	11.8	95
38226	2023-10-26T01:15:20	11.7	95
38227	2023-10-26T01:25:20	11.6	95
38228	2023-10-26T01:35:20	11.4	95
38229	2023-10-26T01:45:20	11.4	95
38230	2023-10-26T01:55:20	11.5	95
38231	2023-10-26T02:05:20	11.5	95
38232	2023-10-26T02:15:20	11.5	95
38233	2023-10-26T02:25:20	11.6	95
38234	2023-10-26T02:35:20	11.8	95
38235	2023-10-26T02:45:20	11.6	95
38236	2023-10-26T02:55:20	11.5	95
38237	2023-10-26T03:05:20	11.3	95
38238	2023-10-26T03:15:41	10.9	95
38239	2023-10-26T03:25:20	10.9	95
38240	2023-10-26T03:35:20	10.7	95
38241	2023-10-26T03:45:20	10.6	95
38242	2023-10-26T03:55:20	10.4	95
38243	2023-10-26T04:05:20	10.3	95
38244	2023-10-26T04:15:20	10.1	95.5
38245	2023-10-26T04:25:20	10	96.5
38246	2023-10-26T04:35:20	9.9	97
38247	2023-10-26T04:45:20	9.5	97
38248	2023-10-26T04:55:20	9.4	97
38249	2023-10-26T05:05:20	9.3	97
38250	2023-10-26T05:15:20	9.3	97.5
38251	2023-10-26T05:25:20	9.3	98
38252	2023-10-26T05:35:20	9.3	98
38253	2023-10-26T05:45:20	9.3	98
38254	2023-10-26T05:55:20	9.4	98
38255	2023-10-26T06:05:20	9.3	98
38256	2023-10-26T06:15:20	9.4	98
38257	2023-10-26T06:25:20	9.4	98
38258	2023-10-26T06:35:20	9.5	98
38259	2023-10-26T06:45:20	9.6	98
38260	2023-10-26T06:55:20	9.7	98
38261	2023-10-26T07:05:20	9.8	98
38262	2023-10-26T07:15:20	10	98
38263	2023-10-26T07:25:20	10.3	98
38264	2023-10-26T07:35:20	10.4	98
38265	2023-10-26T07:45:20	10.7	98
38266	2023-10-26T07:55:20	11	98
38267	2023-10-26T08:05:20	11.2	98
38268	2023-10-26T08:15:20	11.5	98
38269	2023-10-26T08:25:20	11.6	98
38270	2023-10-26T08:35:20	11.6	98
38271	2023-10-26T08:45:20	11.5	98.5
38272	2023-10-26T08:55:20	11.2	98
38273	2023-10-26T09:05:20	11	98
38274	2023-10-26T09:15:20	11.1	98
38275	2023-10-26T09:25:20	11.1	98
38276	2023-10-26T09:35:20	11.4	98
38277	2023-10-26T09:45:20	11.6	98
38278	2023-10-26T09:55:20	11.7	98
38279	2023-10-26T10:05:20	11.8	98
38280	2023-10-26T10:15:20	11.9	98
38281	2023-10-26T10:25:20	11.8	98
38282	2023-10-26T10:35:20	11.8	98
38283	2023-10-26T10:45:20	11.9	98
38284	2023-10-26T10:55:20	12.2	98
38285	2023-10-26T11:05:20	12.9	98
38286	2023-10-26T11:15:20	13.8	95.5
38287	2023-10-26T11:25:20	14.1	95.5
38288	2023-10-26T11:35:20	13.7	96
38289	2023-10-26T11:45:20	14.1	95.5
38290	2023-10-26T11:55:20	15.2	95.5
38291	2023-10-26T12:05:20	16.1	95.5
38292	2023-10-26T12:15:20	15.9	95.5
38293	2023-10-26T12:25:20	16.7	95.5
38294	2023-10-26T12:35:20	16.9	95.5
38295	2023-10-26T12:45:20	17.8	95.5
38296	2023-10-26T12:55:20	18.4	95.5
38297	2023-10-26T13:05:19	17.9	95.5
38298	2023-10-26T13:15:19	17.3	95.5
38299	2023-10-26T13:25:19	17.3	95.5
38300	2023-10-26T13:35:19	16.9	95.5
38301	2023-10-26T13:45:19	16.6	95.5
38302	2023-10-26T13:55:19	15.9	95.5
38303	2023-10-26T14:05:19	15.6	95.5
38304	2023-10-26T14:15:19	15.4	95.5
38305	2023-10-26T14:25:19	15.1	95.5
38306	2023-10-26T14:35:19	15	97.5
38307	2023-10-26T14:45:19	14.8	98
38308	2023-10-26T14:55:19	14.7	98.5
38309	2023-10-26T15:05:19	14.4	98.5
38310	2023-10-26T15:15:19	14.3	99
38311	2023-10-26T15:25:19	14.1	99
38312	2023-10-26T15:35:19	14.1	99.5
38313	2023-10-26T15:45:19	13.9	99
38314	2023-10-26T15:55:19	13.9	99.5
38315	2023-10-26T16:05:19	13.6	100
38316	2023-10-26T16:15:19	13.6	100
38317	2023-10-26T16:25:19	13.4	100
38318	2023-10-26T16:35:19	13.2	100
38319	2023-10-26T16:45:19	13	99.5
38320	2023-10-26T16:55:19	12.9	100
38321	2023-10-26T17:05:19	12.8	100
38322	2023-10-26T17:15:19	12.7	100
38323	2023-10-26T17:25:19	12.7	100
38324	2023-10-26T17:35:19	12.6	100
38325	2023-10-26T17:45:19	12.7	100
38326	2023-10-26T17:55:19	12.6	100
38327	2023-10-26T18:05:19	12.5	100
38328	2023-10-26T18:15:19	12.4	100
38329	2023-10-26T18:25:19	12.3	100
38330	2023-10-26T18:35:19	12.2	100
38331	2023-10-26T18:45:19	12.1	100
38332	2023-10-26T18:55:19	12	100
38333	2023-10-26T19:05:19	12	100
38334	2023-10-26T19:15:19	11.8	100
38335	2023-10-26T19:25:19	11.8	100
38336	2023-10-26T19:35:19	11.9	100
38337	2023-10-26T19:45:19	11.8	100
38338	2023-10-26T19:55:19	11.8	100
38339	2023-10-26T20:05:19	11.7	100
38340	2023-10-26T20:15:19	11.7	100
38341	2023-10-26T20:25:19	11.5	100
38342	2023-10-26T20:35:19	11.4	100
38343	2023-10-26T20:45:19	11.3	100
38344	2023-10-26T20:55:19	11.3	100
38345	2023-10-26T21:05:19	11.3	100
38346	2023-10-26T21:15:19	11.3	100
38347	2023-10-26T21:25:19	11.2	100
38348	2023-10-26T21:35:19	11.1	100
38349	2023-10-26T21:45:19	11.1	100
38350	2023-10-26T21:55:19	11	100
38351	2023-10-26T22:05:19	11	100
38352	2023-10-26T22:15:19	11.1	100
38353	2023-10-26T22:25:19	10.9	100
38354	2023-10-26T22:35:19	10.8	100
38355	2023-10-26T22:45:19	10.8	100
38356	2023-10-26T22:55:19	10.8	100
38357	2023-10-26T23:05:19	10.7	100
38358	2023-10-26T23:15:19	10.7	100
38359	2023-10-26T23:25:19	10.6	100
38360	2023-10-26T23:35:19	10.7	100
38361	2023-10-26T23:45:19	10.6	100
38362	2023-10-26T23:55:19	10.5	100
38363	2023-10-27T00:05:19	10.5	100
38364	2023-10-27T00:15:19	10.5	100
38365	2023-10-27T00:25:19	10.5	100
38366	2023-10-27T00:35:19	10.5	100
38367	2023-10-27T00:45:19	10.5	100
38368	2023-10-27T00:55:19	10.6	100
38369	2023-10-27T01:05:19	10.4	100
38370	2023-10-27T01:15:19	10.4	100
38371	2023-10-27T01:25:19	10.4	100
38372	2023-10-27T01:35:19	10.4	100
38373	2023-10-27T01:45:19	10.3	100
38374	2023-10-27T01:55:19	10.2	100
38375	2023-10-27T02:05:19	10.3	100
38376	2023-10-27T02:15:19	10.2	100
38377	2023-10-27T02:25:19	10.2	100
38378	2023-10-27T02:35:19	10.2	100
38379	2023-10-27T02:45:18	10.2	100
38380	2023-10-27T02:55:18	10.2	100
38381	2023-10-27T03:05:19	10.1	100
38382	2023-10-27T03:15:18	10.1	100
38383	2023-10-27T03:25:18	10.1	100
38384	2023-10-27T03:35:18	10	100
38385	2023-10-27T03:45:18	10	100
38386	2023-10-27T03:55:18	10.1	100
38387	2023-10-27T04:05:18	10	100
38388	2023-10-27T04:15:18	10.1	100
38389	2023-10-27T04:25:18	10	100
38390	2023-10-27T04:35:18	10	100
38391	2023-10-27T04:45:18	10	100
38392	2023-10-27T04:55:18	10	100
38393	2023-10-27T05:05:18	10.1	100
38394	2023-10-27T05:15:18	10.1	100
38395	2023-10-27T05:25:18	10	100
38396	2023-10-27T05:35:18	10.1	99.5
38397	2023-10-27T05:45:18	10	99.5
38398	2023-10-27T05:55:18	9.9	99.5
38399	2023-10-27T06:05:18	10.3	99.5
38400	2023-10-27T06:15:18	10.5	99.5
38401	2023-10-27T06:25:18	10.4	99.5
38402	2023-10-27T06:35:18	10.5	99
38403	2023-10-27T06:45:18	10.5	99
38404	2023-10-27T06:55:18	10.5	99
38405	2023-10-27T07:05:18	10.5	99
38406	2023-10-27T07:15:18	10.5	99
38407	2023-10-27T07:25:18	10.7	99
38408	2023-10-27T07:35:18	10.8	99
38409	2023-10-27T07:45:18	10.8	99
38410	2023-10-27T07:55:18	10.5	99
38411	2023-10-27T08:05:18	10.5	99
38412	2023-10-27T08:15:18	10.4	99
38413	2023-10-27T08:25:18	10.5	99
38414	2023-10-27T08:35:18	10.6	99
38415	2023-10-27T08:45:18	10.8	99
38416	2023-10-27T08:55:18	10.9	99
38417	2023-10-27T09:05:18	11	99
38418	2023-10-27T09:15:18	11.1	99
38419	2023-10-27T09:25:18	11.1	98.5
38420	2023-10-27T09:35:18	11.3	98.5
38421	2023-10-27T09:45:18	11.3	98.5
38422	2023-10-27T09:55:18	11.7	98.5
38423	2023-10-27T10:05:18	11.7	98.5
38424	2023-10-27T10:15:18	11.9	98.5
38425	2023-10-27T10:25:18	12.4	98.5
38426	2023-10-27T10:35:18	12.6	98.5
38427	2023-10-27T10:45:18	12.5	98.5
38428	2023-10-27T10:55:19	13.8	98.5
38429	2023-10-27T11:05:18	13.3	100
38430	2023-10-27T11:15:18	12.5	100
38431	2023-10-27T11:25:18	12.7	100
38432	2023-10-27T11:35:18	13.7	100
38433	2023-10-27T11:45:18	14.2	98.5
38434	2023-10-27T11:55:18	15.3	98.5
38435	2023-10-27T12:05:18	14.3	98
38436	2023-10-27T12:15:18	14.9	88.5
38437	2023-10-27T12:25:18	16.3	85.5
38438	2023-10-27T12:35:18	17.3	77
38439	2023-10-27T12:45:18	18	78.5
38440	2023-10-27T12:55:18	18.2	75
38441	2023-10-27T13:05:18	18.4	67.5
38442	2023-10-27T13:15:18	17.7	65
38443	2023-10-27T13:25:18	16.7	70
38444	2023-10-27T13:35:18	15.5	93
38445	2023-10-27T13:45:18	13.4	97
38446	2023-10-27T13:55:18	13.2	98.5
38447	2023-10-27T14:05:18	13	98.5
38448	2023-10-27T14:15:18	12.7	100
38449	2023-10-27T14:25:18	12.9	100
38450	2023-10-27T14:35:18	13	100
38451	2023-10-27T14:45:18	15	100
38452	2023-10-27T14:55:18	14.3	99.5
38453	2023-10-27T15:05:18	13.4	99.5
38454	2023-10-27T15:15:18	13.1	99.5
38455	2023-10-27T15:25:18	12.8	100
38456	2023-10-27T15:35:18	12.7	100
38457	2023-10-27T15:45:18	12.9	100
38458	2023-10-27T15:55:18	12.6	100
38459	2023-10-27T16:05:18	12.5	100
38460	2023-10-27T16:15:18	12.5	100
38461	2023-10-27T16:25:18	12.3	100
38462	2023-10-27T16:35:18	12.2	100
38463	2023-10-27T16:45:18	11.9	100
38464	2023-10-27T16:55:18	11.6	100
38465	2023-10-27T17:05:18	11.2	100
38466	2023-10-27T17:15:18	11.1	100
38467	2023-10-27T17:25:18	11.2	100
38468	2023-10-27T17:35:17	10.9	100
38469	2023-10-27T17:45:17	10.8	100
38470	2023-10-27T17:55:17	11.1	100
38471	2023-10-27T18:05:17	11	100
38472	2023-10-27T18:15:17	11.3	100
38473	2023-10-27T18:25:17	11.1	100
38474	2023-10-27T18:35:17	11.1	100
38475	2023-10-27T18:45:17	10.6	100
38476	2023-10-27T18:55:17	10.4	100
38477	2023-10-27T19:05:17	10.2	100
38478	2023-10-27T19:15:17	9.7	100
38479	2023-10-27T19:25:17	9.8	100
38480	2023-10-27T19:35:17	10.2	100
38481	2023-10-27T19:45:17	10.8	100
38482	2023-10-27T19:55:17	11.1	100
38483	2023-10-27T20:05:18	11.4	100
38484	2023-10-27T20:15:17	11.1	100
38485	2023-10-27T20:25:17	10.7	100
38486	2023-10-27T20:35:17	10.7	100
38487	2023-10-27T20:45:17	10.8	100
38488	2023-10-27T20:55:17	10.8	100
38489	2023-10-27T21:05:17	10.5	100
38490	2023-10-27T21:15:17	10.6	100
38491	2023-10-27T21:25:17	10.5	100
38492	2023-10-27T21:35:17	10.4	100
38493	2023-10-27T21:45:17	10.3	100
38494	2023-10-27T21:55:17	10.3	100
38495	2023-10-27T22:05:17	10.4	100
38496	2023-10-27T22:15:17	10.5	100
38497	2023-10-27T22:25:17	10.6	100
38498	2023-10-27T22:35:17	10.2	100
38499	2023-10-27T22:45:17	10.2	100
38500	2023-10-27T22:55:17	10.1	100
38501	2023-10-27T23:05:17	10.2	100
38502	2023-10-27T23:15:17	10.1	100
38503	2023-10-27T23:25:17	10	100
38504	2023-10-27T23:35:17	10	100
38505	2023-10-27T23:45:17	10.2	100
38506	2023-10-27T23:55:17	10	100
38507	2023-10-28T00:05:17	9.8	100
38508	2023-10-28T00:15:17	9.9	100
38509	2023-10-28T00:25:17	9.8	100
38510	2023-10-28T00:35:17	9.8	100
38511	2023-10-28T00:45:17	9.8	100
38512	2023-10-28T00:55:17	9.7	95
38513	2023-10-28T01:05:17	9.7	95.5
38514	2023-10-28T01:15:17	9.8	95.5
38515	2023-10-28T01:25:17	9.6	95.5
38516	2023-10-28T01:35:17	9.9	95.5
38517	2023-10-28T01:45:17	9.5	95.5
38518	2023-10-28T01:55:17	9.3	95.5
38519	2023-10-28T02:05:17	9.7	95.5
38520	2023-10-28T02:15:17	9.9	95.5
38521	2023-10-28T02:25:17	10	95.5
38522	2023-10-28T02:35:17	10.1	95.5
38523	2023-10-28T02:45:17	10.2	95.5
38524	2023-10-28T02:55:17	10.2	95.5
38525	2023-10-28T03:05:17	10.1	95.5
38526	2023-10-28T03:15:17	10.3	95.5
38527	2023-10-28T03:25:17	10.4	95.5
38528	2023-10-28T03:35:17	10.2	95.5
38529	2023-10-28T03:45:17	10.1	95.5
38530	2023-10-28T03:55:17	10.2	95.5
38531	2023-10-28T04:05:17	10.4	95.5
38532	2023-10-28T04:15:17	10.5	95.5
38533	2023-10-28T04:25:17	10.2	95.5
38534	2023-10-28T04:35:17	9.9	95.5
38535	2023-10-28T04:45:17	9.9	95.5
38536	2023-10-28T04:55:17	10.2	95.5
38537	2023-10-28T05:05:17	10.4	95.5
38538	2023-10-28T05:15:17	10.5	95.5
38539	2023-10-28T05:25:17	10.7	95.5
38540	2023-10-28T05:35:17	10.6	95.5
38541	2023-10-28T05:45:17	10.7	95.5
38542	2023-10-28T05:55:17	10.9	95.5
38543	2023-10-28T06:05:17	11.1	95.5
38544	2023-10-28T06:15:17	11.2	95.5
38545	2023-10-28T06:25:17	11.3	95.5
38546	2023-10-28T06:35:17	11.3	95.5
38547	2023-10-28T06:45:17	11.5	95.5
38548	2023-10-28T06:55:17	11.6	95.5
38549	2023-10-28T07:05:17	11.5	95.5
38550	2023-10-28T07:15:17	11.3	95.5
38551	2023-10-28T07:25:17	11.6	95.5
38552	2023-10-28T07:35:17	11.6	97
38553	2023-10-28T07:45:17	11.7	98
38554	2023-10-28T07:55:17	12.2	98.5
38555	2023-10-28T08:05:17	12.4	99
38556	2023-10-28T08:15:17	12.6	99.5
38557	2023-10-28T08:25:17	12.5	92.5
38558	2023-10-28T08:35:17	12.6	89.5
38559	2023-10-28T08:45:17	12.9	88.5
38560	2023-10-28T08:55:16	13	88
38561	2023-10-28T09:05:16	13	86
38562	2023-10-28T09:15:16	13.2	86
38563	2023-10-28T09:25:16	13.5	87.5
38564	2023-10-28T09:35:16	13.8	83.5
38565	2023-10-28T09:45:16	14.1	83.5
38566	2023-10-28T09:55:16	14.3	83.5
38567	2023-10-28T10:05:16	14.7	80.5
38568	2023-10-28T10:15:16	14.8	79.5
38569	2023-10-28T10:25:16	14.8	79.5
38570	2023-10-28T10:35:16	14.8	76
38571	2023-10-28T10:45:16	14.7	68
38572	2023-10-28T10:55:16	15	69
38573	2023-10-28T11:05:16	15.4	66.5
38574	2023-10-28T11:15:16	15.8	66
38575	2023-10-28T11:25:16	15.5	67
38576	2023-10-28T11:35:16	14.7	69.5
38577	2023-10-28T11:45:16	14.2	77
38578	2023-10-28T11:55:16	14	90
38579	2023-10-28T12:05:16	12.8	94.5
38580	2023-10-28T12:15:16	12.5	95.5
38581	2023-10-28T12:25:16	12.6	96
38582	2023-10-28T12:35:16	12.9	95.5
38583	2023-10-28T12:45:16	12.8	96
38584	2023-10-28T12:55:16	12.5	99
38585	2023-10-28T13:05:16	12	100
38586	2023-10-28T13:15:16	12.1	100
38587	2023-10-28T13:25:16	12.2	100
38588	2023-10-28T13:35:16	12.2	100
38589	2023-10-28T13:45:16	12.3	100
38590	2023-10-28T13:55:16	12.3	100
38591	2023-10-28T14:05:16	12.5	100
38592	2023-10-28T14:15:16	12.6	100
38593	2023-10-28T14:25:16	12.7	100
38594	2023-10-28T14:35:16	12.4	100
38595	2023-10-28T14:45:16	12.4	100
38596	2023-10-28T14:55:16	12.4	100
38597	2023-10-28T15:05:16	12.3	100
38598	2023-10-28T15:15:16	12.3	100
38599	2023-10-28T15:25:16	12.2	100
38600	2023-10-28T15:35:16	12.1	100
38601	2023-10-28T15:45:16	12.2	100
38602	2023-10-28T15:55:16	12.1	100
38603	2023-10-28T16:05:16	12	100
38604	2023-10-28T16:15:16	11.8	100
38605	2023-10-28T16:25:16	11.9	100
38606	2023-10-28T16:35:16	11.8	100
38607	2023-10-28T16:45:16	11.9	100
38608	2023-10-28T16:55:16	11.8	100
38609	2023-10-28T17:05:16	11.4	100
38610	2023-10-28T17:15:16	11.5	100
38611	2023-10-28T17:25:16	11.5	100
38612	2023-10-28T17:35:16	11.4	100
38613	2023-10-28T17:45:16	11.2	100
38614	2023-10-28T17:55:16	11.3	100
38615	2023-10-28T18:05:16	11.3	100
38616	2023-10-28T18:15:16	11.3	100
38617	2023-10-28T18:25:16	11.2	100
38618	2023-10-28T18:35:16	11.2	100
38619	2023-10-28T18:45:16	11.2	100
38620	2023-10-28T18:55:16	11.2	100
38621	2023-10-28T19:05:16	11.2	100
38622	2023-10-28T19:15:16	11.2	100
38623	2023-10-28T19:25:16	11.4	100
38624	2023-10-28T19:35:16	11.4	100
38625	2023-10-28T19:45:16	11.5	100
38626	2023-10-28T19:55:16	11.4	100
38627	2023-10-28T20:05:16	11.4	100
38628	2023-10-28T20:15:16	11.3	100
38629	2023-10-28T20:25:16	11.2	100
38630	2023-10-28T20:35:16	11.2	100
38631	2023-10-28T20:45:16	11.1	100
38632	2023-10-28T20:55:16	11.5	100
38633	2023-10-28T21:05:16	11.8	100
38634	2023-10-28T21:15:16	11.9	100
38635	2023-10-28T21:25:16	11.7	100
38636	2023-10-28T21:35:16	11.4	100
38637	2023-10-28T21:45:16	11.2	100
38638	2023-10-28T21:55:16	11.1	100
38639	2023-10-28T22:05:16	11.2	100
38640	2023-10-28T22:15:16	11.1	100
38641	2023-10-28T22:25:16	11.1	100
38642	2023-10-28T22:35:16	11.1	100
38643	2023-10-28T22:45:33	11.1	100
38644	2023-10-28T22:55:16	11	100
38645	2023-10-28T23:05:16	10.9	100
38646	2023-10-28T23:15:15	11	100
38647	2023-10-28T23:25:15	10.9	100
38648	2023-10-28T23:35:15	10.9	100
38649	2023-10-28T23:45:15	10.8	100
38650	2023-10-28T23:55:15	10.7	100
38651	2023-10-29T00:05:15	10.7	100
38652	2023-10-29T00:15:15	10.6	100
38653	2023-10-29T00:25:15	10.7	100
38654	2023-10-29T00:35:15	10.7	100
38655	2023-10-29T00:45:15	10.7	100
38656	2023-10-29T00:55:15	10.7	100
38657	2023-10-29T01:05:15	10.8	100
38658	2023-10-29T01:15:15	10.7	100
38659	2023-10-29T01:25:15	10.6	100
38660	2023-10-29T01:35:15	10.5	100
38661	2023-10-29T01:45:15	10.5	100
38662	2023-10-29T01:55:15	10.5	100
38663	2023-10-29T02:05:15	10.4	100
38664	2023-10-29T02:15:15	10.5	100
38665	2023-10-29T02:25:15	10.5	100
38666	2023-10-29T02:35:15	10.3	100
38667	2023-10-29T02:45:15	10.4	100
38668	2023-10-29T02:55:15	10.4	100
38669	2023-10-29T03:05:15	10.4	100
38670	2023-10-29T03:15:15	10.2	100
38671	2023-10-29T03:25:15	11.2	100
38672	2023-10-29T03:35:15	11.5	100
38673	2023-10-29T03:45:15	10.8	100
38674	2023-10-29T03:55:15	10.4	100
38675	2023-10-29T04:05:15	10.4	100
38676	2023-10-29T04:15:15	10.6	100
38677	2023-10-29T04:25:15	10.4	100
38678	2023-10-29T04:35:15	10.3	100
38679	2023-10-29T04:45:15	10.3	100
38680	2023-10-29T04:55:15	10.2	100
38681	2023-10-29T05:05:15	10.2	100
38682	2023-10-29T05:15:15	10.2	100
38683	2023-10-29T05:25:15	10.2	100
38684	2023-10-29T05:35:15	10.2	100
38685	2023-10-29T05:45:15	10.3	100
38686	2023-10-29T05:55:15	10.3	100
38687	2023-10-29T06:05:15	10.2	100
38688	2023-10-29T06:15:15	10.3	100
38689	2023-10-29T06:25:15	10.4	100
38690	2023-10-29T06:35:15	10.4	100
38691	2023-10-29T06:45:15	10.4	100
38692	2023-10-29T06:55:15	10.3	100
38693	2023-10-29T07:05:15	10.4	100
38694	2023-10-29T07:15:15	10.5	100
38695	2023-10-29T07:25:15	10.6	100
38696	2023-10-29T07:35:15	10.5	100
38697	2023-10-29T07:45:15	10.6	100
38698	2023-10-29T07:55:15	10.7	96
38699	2023-10-29T08:05:15	10.8	95.5
38700	2023-10-29T08:15:15	11	95.5
38701	2023-10-29T08:25:15	11.2	95.5
38702	2023-10-29T08:35:15	11.4	95.5
38703	2023-10-29T08:45:15	11.6	95.5
38704	2023-10-29T08:55:15	11.7	95.5
38705	2023-10-29T09:05:15	12	95.5
38706	2023-10-29T09:15:15	12.2	95.5
38707	2023-10-29T09:25:15	12.6	95.5
38708	2023-10-29T09:35:15	12.6	95.5
38709	2023-10-29T09:45:15	12.8	95.5
38710	2023-10-29T09:55:15	12.9	95.5
38711	2023-10-29T10:05:15	12.7	95.5
38712	2023-10-29T10:15:15	13.1	95.5
38713	2023-10-29T10:25:15	13.4	95.5
38714	2023-10-29T10:35:15	13.5	95.5
38715	2023-10-29T10:45:15	14.1	95.5
38716	2023-10-29T10:55:15	14.5	95.5
38717	2023-10-29T11:05:15	14.7	95.5
38718	2023-10-29T11:15:15	15	95
38719	2023-10-29T11:25:15	15.4	95.5
38720	2023-10-29T11:35:15	15.4	95
38721	2023-10-29T11:45:15	15.4	95.5
38722	2023-10-29T11:55:15	15.1	95.5
38723	2023-10-29T12:05:15	14.6	95
38724	2023-10-29T12:15:15	14.7	95
38725	2023-10-29T12:25:15	15.3	95
38726	2023-10-29T12:35:15	15.5	95
38727	2023-10-29T12:45:15	15.3	95
38728	2023-10-29T12:55:15	15.2	95
38729	2023-10-29T13:05:15	15.7	95
38730	2023-10-29T13:15:15	15.5	95
38731	2023-10-29T13:25:15	15.3	95
38732	2023-10-29T13:35:14	15.2	95
38733	2023-10-29T13:45:14	15.4	95
38734	2023-10-29T13:55:15	15.4	95
38735	2023-10-29T14:05:14	15.2	95
38736	2023-10-29T14:15:14	15.4	95
38737	2023-10-29T14:25:14	15.3	95
38738	2023-10-29T14:35:14	15.1	95
38739	2023-10-29T14:45:14	15	95
38740	2023-10-29T14:55:14	14.8	95
38741	2023-10-29T15:05:14	14.7	95
38742	2023-10-29T15:15:14	14.4	95
38743	2023-10-29T15:25:14	14.4	95
38744	2023-10-29T15:35:14	14.3	95
38745	2023-10-29T15:45:14	14.2	95
38746	2023-10-29T15:55:14	14	95
38747	2023-10-29T16:05:14	14	95
38748	2023-10-29T16:15:14	13.7	95
38749	2023-10-29T16:25:14	13.6	95
38750	2023-10-29T16:35:14	13.5	95
38751	2023-10-29T16:45:14	13.2	95
38752	2023-10-29T16:55:14	13.2	95
38753	2023-10-29T17:05:14	12.9	95
38754	2023-10-29T17:15:14	12.8	95
38755	2023-10-29T17:25:14	12.7	95
38756	2023-10-29T17:35:14	12.5	95
38757	2023-10-29T17:45:14	12.3	95.5
38758	2023-10-29T17:55:14	12.2	95.5
38759	2023-10-29T18:05:14	12.2	95
38760	2023-10-29T18:15:14	12	95
38761	2023-10-29T18:25:14	12	95.5
38762	2023-10-29T18:35:14	11.8	96
38763	2023-10-29T18:45:14	11.9	96.5
38764	2023-10-29T18:55:14	11.8	96.5
38765	2023-10-29T19:05:14	11.8	96.5
38766	2023-10-29T19:15:14	11.9	96.5
38767	2023-10-29T19:25:14	12	96.5
38768	2023-10-29T19:35:14	12.1	97
38769	2023-10-29T19:45:14	12.1	97
38770	2023-10-29T19:55:14	12.1	97
38771	2023-10-29T20:05:14	12.1	97
38772	2023-10-29T20:15:14	12.2	97
38773	2023-10-29T20:25:14	12.2	96.5
38774	2023-10-29T20:35:14	12.3	97
38775	2023-10-29T20:45:14	12.4	97
38776	2023-10-29T20:55:14	12.4	97
38777	2023-10-29T21:05:14	12.3	97
38778	2023-10-29T21:15:14	12.4	97
38779	2023-10-29T21:25:14	12.4	97
38780	2023-10-29T21:35:14	12.3	97
38781	2023-10-29T21:45:14	12.2	97
38782	2023-10-29T21:55:14	12	97
38783	2023-10-29T22:05:14	11.8	97
38784	2023-10-29T22:15:14	11.9	97
38785	2023-10-29T22:25:14	12	97
38786	2023-10-29T22:35:14	12	96.5
38787	2023-10-29T22:45:14	12.1	96.5
38788	2023-10-29T22:55:14	12.1	96.5
38789	2023-10-29T23:05:14	12.1	96.5
38790	2023-10-29T23:15:14	12.1	96.5
38791	2023-10-29T23:25:14	12.2	96.5
38792	2023-10-29T23:35:14	12.2	96
38793	2023-10-29T23:45:14	12	96
38794	2023-10-29T23:55:14	12	96
38795	2023-10-30T00:05:14	12	96
38796	2023-10-30T00:15:14	11.9	96
38797	2023-10-30T00:25:14	12	96
38798	2023-10-30T00:35:14	12	96
38799	2023-10-30T00:45:14	12.1	96
38800	2023-10-30T00:55:14	12	95.5
38801	2023-10-30T01:05:14	11.9	95.5
38802	2023-10-30T01:15:14	11.9	95.5
38803	2023-10-30T01:25:14	11.8	95.5
38804	2023-10-30T01:35:14	11.8	95.5
38805	2023-10-30T01:45:14	11.9	95.5
38806	2023-10-30T01:55:14	11.7	96
38807	2023-10-30T02:05:14	11.6	95.5
38808	2023-10-30T02:15:14	11.6	95.5
38809	2023-10-30T02:25:14	11.5	95.5
38810	2023-10-30T02:35:14	11.3	95.5
38811	2023-10-30T02:45:14	11.3	96
38812	2023-10-30T02:55:14	11.1	95.5
38813	2023-10-30T03:05:14	11.1	95.5
38814	2023-10-30T03:15:14	11	96
38815	2023-10-30T03:25:14	11.1	96
38816	2023-10-30T03:35:13	11.1	96
38817	2023-10-30T03:45:13	11.1	96
38818	2023-10-30T03:55:14	11.1	95.5
38819	2023-10-30T04:05:13	11.1	95.5
38820	2023-10-30T04:15:13	11.2	96
38821	2023-10-30T04:25:13	11.1	95.5
38822	2023-10-30T04:35:13	11.1	96
38823	2023-10-30T04:45:13	11.1	96
38824	2023-10-30T04:55:13	11.1	96
38825	2023-10-30T05:05:13	11.1	96
38826	2023-10-30T05:15:13	11	96
38827	2023-10-30T05:25:13	11.1	96
38828	2023-10-30T05:35:13	11.1	96
38829	2023-10-30T05:45:13	11.2	96
38830	2023-10-30T05:55:13	11.1	96
38831	2023-10-30T06:05:13	11.1	96
38832	2023-10-30T06:15:13	11.1	96
38833	2023-10-30T06:25:13	11.2	96
38834	2023-10-30T06:35:13	11.2	96
38835	2023-10-30T06:45:13	11.2	96
38836	2023-10-30T06:55:13	11.3	95.5
38837	2023-10-30T07:05:13	11.6	95.5
38838	2023-10-30T07:15:13	11.8	96
38839	2023-10-30T07:25:13	11.8	95.5
38840	2023-10-30T07:35:13	11.8	96
38841	2023-10-30T07:45:13	12.1	95.5
38842	2023-10-30T07:55:13	12.7	95.5
38843	2023-10-30T08:05:13	13.1	95.5
38844	2023-10-30T08:15:13	13	95.5
38845	2023-10-30T08:25:13	13.2	95.5
38846	2023-10-30T08:35:13	13.1	95.5
38847	2023-10-30T08:45:13	13	95.5
38848	2023-10-30T08:55:13	13.1	95.5
38849	2023-10-30T09:05:13	13.4	95.5
38850	2023-10-30T09:15:13	13.7	95.5
38851	2023-10-30T09:25:13	14	95.5
38852	2023-10-30T09:35:13	14.6	95.5
38853	2023-10-30T09:45:13	15.6	95.5
38854	2023-10-30T09:55:13	16.2	95.5
38855	2023-10-30T10:05:13	16.2	95.5
38856	2023-10-30T10:15:13	16.7	95.5
38857	2023-10-30T10:25:13	17	95
38858	2023-10-30T10:35:13	17	95
38859	2023-10-30T10:45:13	16.6	95.5
38860	2023-10-30T10:55:13	16.4	95.5
38861	2023-10-30T11:05:13	16.1	95.5
38862	2023-10-30T11:15:13	16.2	95.5
38863	2023-10-30T11:25:13	15.9	95.5
38864	2023-10-30T11:35:13	15.8	95.5
38865	2023-10-30T11:45:13	15.8	95
38866	2023-10-30T11:55:13	15.8	95.5
38867	2023-10-30T12:05:13	15.8	95
38868	2023-10-30T12:15:13	15.8	95.5
38869	2023-10-30T12:25:13	15.7	95
38870	2023-10-30T12:35:13	15.8	95.5
38871	2023-10-30T12:45:13	15.7	95.5
38872	2023-10-30T12:55:13	15.5	95
38873	2023-10-30T13:05:13	15.4	95.5
38874	2023-10-30T13:15:13	15.2	95
38875	2023-10-30T13:25:13	15.2	95.5
38876	2023-10-30T13:35:13	15.1	95.5
38877	2023-10-30T13:45:13	15.2	95.5
38878	2023-10-30T13:55:13	15	95.5
38879	2023-10-30T14:05:13	15	95.5
38880	2023-10-30T14:15:30	14.9	95.5
38881	2023-10-30T14:25:13	15	95.5
38882	2023-10-30T14:35:13	14.9	95.5
38883	2023-10-30T14:45:13	14.7	95.5
38884	2023-10-30T14:55:13	14.6	95.5
38885	2023-10-30T15:05:13	14.6	95.5
38886	2023-10-30T15:15:13	14.3	95.5
38887	2023-10-30T15:25:13	14.2	95.5
38888	2023-10-30T15:35:13	14.2	95.5
38889	2023-10-30T15:45:13	14.2	95.5
38890	2023-10-30T15:55:13	14	95.5
38891	2023-10-30T16:05:13	13.8	95.5
38892	2023-10-30T16:15:13	13.6	95.5
38893	2023-10-30T16:25:13	13.6	95.5
38894	2023-10-30T16:35:13	13.6	95.5
38895	2023-10-30T16:45:13	13.5	95.5
38896	2023-10-30T16:55:13	13.4	95.5
38897	2023-10-30T17:05:13	13.4	95.5
38898	2023-10-30T17:15:13	13.3	95.5
38899	2023-10-30T17:25:13	13.2	95.5
38900	2023-10-30T17:35:12	13.2	95.5
38901	2023-10-30T17:45:12	13.3	95.5
38902	2023-10-30T17:55:12	13.1	95.5
38903	2023-10-30T18:05:31	13.2	95.5
38904	2023-10-30T18:15:12	13.1	95.5
38905	2023-10-30T18:25:12	13	95.5
38906	2023-10-30T18:35:12	13	95.5
38907	2023-10-30T18:45:12	13	95.5
38908	2023-10-30T19:05:12	12.9	95.5
38909	2023-10-30T19:15:12	13	96
38910	2023-10-30T19:25:12	12.9	96
38911	2023-10-30T19:35:12	12.9	96
38912	2023-10-30T19:45:12	12.8	96
38913	2023-10-30T19:55:12	12.7	96.5
38914	2023-10-30T20:05:12	12.6	96.5
38915	2023-10-30T20:15:12	12.5	96.5
38916	2023-10-30T20:25:12	12.4	96
38917	2023-10-30T20:35:12	12.4	96.5
38918	2023-10-30T20:45:12	12.3	96.5
38919	2023-10-30T20:55:12	12.3	96.5
38920	2023-10-30T21:05:12	12.1	96.5
38921	2023-10-30T21:15:12	12.2	96.5
38922	2023-10-30T21:25:12	12.1	96.5
38923	2023-10-30T21:35:12	12.1	96.5
38924	2023-10-30T21:45:12	12	96.5
38925	2023-10-30T21:55:12	12	96.5
38926	2023-10-30T22:05:12	11.9	96.5
38927	2023-10-30T22:15:12	11.9	96.5
38928	2023-10-30T22:25:12	11.8	96.5
38929	2023-10-30T22:35:12	11.7	96.5
38930	2023-10-30T22:45:12	12	96.5
38931	2023-10-30T22:55:12	12.1	96.5
38932	2023-10-30T23:05:12	12	96.5
38933	2023-10-30T23:15:12	11.8	96.5
38934	2023-10-30T23:25:12	11.7	96.5
38935	2023-10-30T23:35:12	11.7	96.5
38936	2023-10-30T23:45:12	11.7	96.5
38937	2023-10-30T23:55:33	11.6	96.5
38938	2023-10-31T00:05:12	11.3	96.5
38939	2023-10-31T00:15:12	11.2	96.5
38940	2023-10-31T00:25:12	11.1	96.5
38941	2023-10-31T00:35:12	11.1	96.5
38942	2023-10-31T00:45:12	10.8	96.5
38943	2023-10-31T00:55:12	10.8	96.5
38944	2023-10-31T01:05:12	10.9	96.5
38945	2023-10-31T01:15:12	11	96.5
38946	2023-10-31T01:25:12	10.9	96.5
38947	2023-10-31T01:35:12	10.7	96.5
38948	2023-10-31T01:45:12	10.1	96.5
38949	2023-10-31T01:55:12	9.8	96.5
38950	2023-10-31T02:05:12	9.7	96.5
38951	2023-10-31T02:15:12	9.8	96.5
38952	2023-10-31T02:25:12	10.1	96.5
38953	2023-10-31T02:35:12	10.4	96.5
38954	2023-10-31T02:45:12	10.5	96.5
38955	2023-10-31T02:55:12	10.5	96.5
38956	2023-10-31T03:05:12	10.6	96.5
38957	2023-10-31T03:15:12	10.7	96.5
38958	2023-10-31T03:25:12	10.6	96.5
38959	2023-10-31T03:35:12	10.5	96.5
38960	2023-10-31T03:45:12	10.1	96.5
38961	2023-10-31T03:55:12	10.1	96.5
38962	2023-10-31T04:05:12	10	96.5
38963	2023-10-31T04:15:12	10.1	96.5
38964	2023-10-31T04:25:12	10.2	96.5
38965	2023-10-31T04:35:12	10.1	96.5
38966	2023-10-31T04:45:12	10.2	96
38967	2023-10-31T04:55:12	10.1	96.5
38968	2023-10-31T05:05:12	10	96
38969	2023-10-31T05:15:12	9.9	96
38970	2023-10-31T05:25:12	9.8	96
38971	2023-10-31T05:35:12	9.9	96.5
38972	2023-10-31T05:45:12	9.9	96
38973	2023-10-31T05:55:12	10	96
38974	2023-10-31T06:05:12	10.1	96
38975	2023-10-31T06:15:12	10	96
38976	2023-10-31T06:25:12	10.2	96
38977	2023-10-31T06:35:12	10	96
38978	2023-10-31T06:45:12	10	96
38979	2023-10-31T06:55:12	9.9	96
38980	2023-10-31T07:05:12	9.9	96
38981	2023-10-31T07:15:12	10	96
38982	2023-10-31T07:25:12	10	96
38983	2023-10-31T07:35:12	10.1	96
38984	2023-10-31T07:45:12	10.1	96
38985	2023-10-31T07:55:11	10.3	96
38986	2023-10-31T08:05:11	10.5	96
38987	2023-10-31T08:15:11	10.7	96
38988	2023-10-31T08:25:11	10.9	96
38989	2023-10-31T08:35:11	11.1	96
38990	2023-10-31T08:45:11	11.2	96
38991	2023-10-31T08:55:11	11.6	96
38992	2023-10-31T09:05:11	11.7	96
38993	2023-10-31T09:15:11	11.5	96
38994	2023-10-31T09:25:11	11.6	96
38995	2023-10-31T09:35:11	11.6	96
38996	2023-10-31T09:45:11	11.6	96
38997	2023-10-31T09:55:11	11.6	96
38998	2023-10-31T10:05:11	11.8	96
38999	2023-10-31T10:15:11	12.1	96
39000	2023-10-31T10:25:11	12	96
39001	2023-10-31T10:35:11	12.4	96
39002	2023-10-31T10:45:11	12.9	96
39003	2023-10-31T10:55:11	13.1	96
39004	2023-10-31T11:05:11	12.9	96
39005	2023-10-31T11:15:11	13	96
39006	2023-10-31T11:25:11	12.6	95.5
39007	2023-10-31T11:35:11	12.5	96
39008	2023-10-31T11:45:11	12.7	95.5
39009	2023-10-31T11:55:11	12.7	95.5
39010	2023-10-31T12:05:11	12.5	96
39011	2023-10-31T12:15:11	12	96
39012	2023-10-31T12:25:11	12.7	96
39013	2023-10-31T12:35:11	12.4	96
39014	2023-10-31T12:45:11	12.1	96
39015	2023-10-31T12:55:11	12.3	96
39016	2023-10-31T13:05:11	12.1	96
39017	2023-10-31T13:15:11	12.1	96
39018	2023-10-31T13:25:11	12	96
39019	2023-10-31T13:35:11	12.3	96
39020	2023-10-31T13:45:11	12.3	96
39021	2023-10-31T13:55:11	12.1	96
39022	2023-10-31T14:05:11	12.3	96
39023	2023-10-31T14:15:11	14.3	96
39024	2023-10-31T14:25:11	12.8	96
39025	2023-10-31T14:35:11	12.4	96
39026	2023-10-31T14:45:11	12.3	96
39027	2023-10-31T14:55:11	12.2	96
39028	2023-10-31T15:05:11	11.9	96
39029	2023-10-31T15:15:11	11.8	96
39030	2023-10-31T15:25:11	11.8	96
39031	2023-10-31T15:35:11	11.7	96
39032	2023-10-31T15:45:11	11.7	96
39033	2023-10-31T15:55:11	11.5	96
39034	2023-10-31T16:05:11	11.4	96
39035	2023-10-31T16:15:11	11.3	96
39036	2023-10-31T16:25:11	11.2	96
39037	2023-10-31T16:35:11	11.2	96
39038	2023-10-31T16:45:11	11.1	96
39039	2023-10-31T16:55:11	11	96
39040	2023-10-31T17:05:11	11.1	96
39041	2023-10-31T17:15:11	11.1	96
39042	2023-10-31T17:25:11	10.9	96
39043	2023-10-31T17:35:11	10.8	96
39044	2023-10-31T17:45:11	10.8	96
39045	2023-10-31T17:55:11	10.8	96
39046	2023-10-31T18:05:11	10.9	96
39047	2023-10-31T18:15:11	10.8	96
39048	2023-10-31T18:25:11	10.7	96
39049	2023-10-31T18:35:11	10.8	96
39050	2023-10-31T18:45:11	10.8	96
39051	2023-10-31T18:55:11	10.9	96
39052	2023-10-31T19:05:11	10.9	96
39053	2023-10-31T19:15:11	11	96
39054	2023-10-31T19:25:11	11.1	96
39055	2023-10-31T19:35:11	11.2	96
39056	2023-10-31T19:45:11	11.3	96
39057	2023-10-31T19:55:11	11.4	96
39058	2023-10-31T20:05:11	11.3	96
39059	2023-10-31T20:15:11	11	96
39060	2023-10-31T20:25:11	10.8	96
39061	2023-10-31T20:35:11	10.7	96
39062	2023-10-31T20:45:11	10.7	96
39063	2023-10-31T20:55:11	10.8	96
39064	2023-10-31T21:05:11	10.7	96
39065	2023-10-31T21:15:11	10.5	96
39066	2023-10-31T21:25:11	10.5	96
39067	2023-10-31T21:35:11	10.8	96
39068	2023-10-31T21:45:11	10.7	96
39069	2023-10-31T21:55:11	10.8	96
39070	2023-10-31T22:05:11	10.8	96
39071	2023-10-31T22:15:11	10.5	96
39072	2023-10-31T22:25:11	10.8	96
39073	2023-10-31T22:35:10	10.5	96
39074	2023-10-31T22:45:11	10.1	96
39075	2023-10-31T22:55:10	10.1	96
39076	2023-10-31T23:05:10	10.2	96
39077	2023-10-31T23:15:10	10.5	96
39078	2023-10-31T23:25:10	10.7	96
39079	2023-10-31T23:35:10	10.9	96
39080	2023-10-31T23:45:10	10.8	96
39081	2023-10-31T23:55:10	11	96
39082	2023-11-01T00:05:10	11.1	96
39083	2023-11-01T00:15:10	11.1	96
39084	2023-11-01T00:25:10	11	96
39085	2023-11-01T00:35:10	11.1	96
39086	2023-11-01T00:45:10	11.3	96
39087	2023-11-01T00:55:10	11	96
39088	2023-11-01T01:05:10	11.2	96
39089	2023-11-01T01:15:10	11.2	96
39090	2023-11-01T01:25:10	11	96
39091	2023-11-01T01:35:10	10.7	96
39092	2023-11-01T01:45:10	10.4	96
39093	2023-11-01T01:55:10	10.3	96
39094	2023-11-01T02:05:10	10.7	96
39095	2023-11-01T02:15:10	10.5	96
39096	2023-11-01T02:25:10	10.3	96
39097	2023-11-01T02:35:10	10.4	96
39098	2023-11-01T02:45:10	10.5	96
39099	2023-11-01T02:55:10	10.5	96
39100	2023-11-01T03:05:10	10.2	96
39101	2023-11-01T03:15:10	10.2	96
39102	2023-11-01T03:25:10	10.4	96
39103	2023-11-01T03:35:10	10.4	96
39104	2023-11-01T03:45:10	10.4	96
39105	2023-11-01T03:55:10	10.2	96
39106	2023-11-01T04:05:10	10.1	96
39107	2023-11-01T04:15:10	9.7	96
39108	2023-11-01T04:25:10	9.2	96
39109	2023-11-01T04:35:10	8.6	96
39110	2023-11-01T04:45:10	8.6	96
39111	2023-11-01T04:55:10	8.5	96
39112	2023-11-01T05:05:10	8.3	96
39113	2023-11-01T05:15:10	8.2	96
39114	2023-11-01T05:25:10	8.4	96
39115	2023-11-01T05:35:10	8.4	96
39116	2023-11-01T05:45:10	8.2	96
39117	2023-11-01T05:55:10	8.3	96
39118	2023-11-01T06:05:10	8.2	96
39119	2023-11-01T06:15:10	8	96
39120	2023-11-01T06:25:10	8.1	96
39121	2023-11-01T06:35:10	8	96
39122	2023-11-01T06:45:10	7.9	96
39123	2023-11-01T06:55:10	7.7	96
39124	2023-11-01T07:05:10	8	96
39125	2023-11-01T07:15:10	8.1	96
39126	2023-11-01T07:25:10	8.6	96.5
39127	2023-11-01T07:35:10	8.9	96
39128	2023-11-01T07:45:10	9.1	96
39129	2023-11-01T07:55:10	9.3	96
39130	2023-11-01T08:05:10	9.5	96
39131	2023-11-01T08:15:10	9.6	96
39132	2023-11-01T08:25:10	10	96
39133	2023-11-01T08:35:10	10.4	96
39134	2023-11-01T08:45:10	10.8	96
39135	2023-11-01T08:55:10	11.1	96
39136	2023-11-01T09:05:10	11.5	96
39137	2023-11-01T09:15:10	12	96
39138	2023-11-01T09:25:10	12.6	96
39139	2023-11-01T09:35:10	12.8	96
39140	2023-11-01T09:45:10	13.3	96
39141	2023-11-01T09:55:10	13.7	96
39142	2023-11-01T10:05:10	13.9	96
39143	2023-11-01T10:15:10	14.2	96
39144	2023-11-01T10:25:10	14.2	96
39145	2023-11-01T10:35:10	14.6	96
39146	2023-11-01T10:45:10	15.5	96
39147	2023-11-01T10:55:10	15.8	96
39148	2023-11-01T11:05:10	16.7	96
39149	2023-11-01T11:15:10	17	96
39150	2023-11-01T11:25:10	16.8	96
39151	2023-11-01T11:35:10	16.8	96
39152	2023-11-01T11:45:10	17.1	96
39153	2023-11-01T11:55:10	18.3	96
39154	2023-11-01T12:05:10	19.4	95.5
39155	2023-11-01T12:15:10	19.2	95.5
39156	2023-11-01T12:25:10	18.1	98.5
39157	2023-11-01T12:35:10	18.3	99
39158	2023-11-01T12:45:10	17.9	97.5
39159	2023-11-01T12:55:10	18.4	99.5
39160	2023-11-01T13:05:10	19.7	88.5
39161	2023-11-01T13:15:10	20.5	48
39162	2023-11-01T13:25:09	20.3	50.5
39163	2023-11-01T13:35:09	19.7	53
39164	2023-11-01T13:45:09	18.6	54.5
39165	2023-11-01T13:55:09	17.9	59
39166	2023-11-01T14:05:09	17.5	60
39167	2023-11-01T14:15:09	17.2	63.5
39168	2023-11-01T14:25:09	16.8	68.5
39169	2023-11-01T14:35:09	16.6	75.5
39170	2023-11-01T14:45:09	16.4	76
39171	2023-11-01T14:55:09	16.1	73.5
39172	2023-11-01T15:05:09	15.7	71
39173	2023-11-01T15:15:09	15.6	67
39174	2023-11-01T15:25:09	15.5	65
39175	2023-11-01T15:35:09	15.4	63.5
39176	2023-11-01T15:45:09	14.9	68
39177	2023-11-01T15:55:09	14.6	76
39178	2023-11-01T16:05:09	14	77
39179	2023-11-01T16:15:09	13.7	84.5
39180	2023-11-01T16:25:09	13.4	83.5
39181	2023-11-01T16:35:09	13.4	79.5
39182	2023-11-01T16:45:09	13.2	84.5
39183	2023-11-01T16:55:09	13.1	85
39184	2023-11-01T17:05:09	13.1	86
39185	2023-11-01T17:15:09	12.8	93
39186	2023-11-01T17:25:09	12	97.5
39187	2023-11-01T17:35:09	11.7	98.5
39188	2023-11-01T17:45:09	11.6	98.5
39189	2023-11-01T17:55:09	11.5	99.5
39190	2023-11-01T18:05:09	11.3	99
39191	2023-11-01T18:15:09	11.4	99
39192	2023-11-01T18:25:09	11.4	98
39193	2023-11-01T18:35:09	11.4	97
39194	2023-11-01T18:45:09	11.4	97
39195	2023-11-01T18:55:09	11.1	98
39196	2023-11-01T19:05:09	10.9	99.5
39197	2023-11-01T19:15:09	10.8	100
39198	2023-11-01T19:25:09	10.6	100
39199	2023-11-01T19:35:09	10.1	100
39200	2023-11-01T19:45:09	9.9	100
39201	2023-11-01T19:55:09	9.9	100
39202	2023-11-01T20:05:09	10	100
39203	2023-11-01T20:15:09	9.8	99.5
39204	2023-11-01T20:25:09	9.4	100
39205	2023-11-01T20:35:09	9.5	100
39206	2023-11-01T20:45:09	8.9	100
39207	2023-11-01T20:55:09	8.6	100
39208	2023-11-01T21:05:09	8.3	100
39209	2023-11-01T21:15:09	8.1	100
39210	2023-11-01T21:25:09	7.9	100
39211	2023-11-01T21:35:09	8	100
39212	2023-11-01T21:45:09	7.8	100
39213	2023-11-01T21:55:09	7.7	100
39214	2023-11-01T22:05:09	7.5	100
39215	2023-11-01T22:15:09	7.4	100
39216	2023-11-01T22:25:09	7.7	100
39217	2023-11-01T22:35:09	7.9	100
39218	2023-11-01T22:45:09	7.8	100
39219	2023-11-01T22:55:09	8.2	100
39220	2023-11-01T23:05:09	8	100
39221	2023-11-01T23:15:09	7.8	100
39222	2023-11-01T23:25:09	8.4	100
39223	2023-11-01T23:35:09	8.9	99.5
39224	2023-11-01T23:45:09	8.8	99.5
39225	2023-11-01T23:55:09	8.8	99
39226	2023-11-02T00:05:09	8.7	99.5
39227	2023-11-02T00:15:09	8	100
39228	2023-11-02T00:25:09	7.6	100
39229	2023-11-02T00:35:09	7.4	100
39230	2023-11-02T00:45:09	7.4	100
39231	2023-11-02T00:55:09	7.3	100
39232	2023-11-02T01:05:09	7.3	100
39233	2023-11-02T01:15:09	7.5	100
39234	2023-11-02T01:25:09	7.3	100
39235	2023-11-02T01:35:09	7.4	100
39236	2023-11-02T01:45:09	7.6	100
39237	2023-11-02T01:55:09	7.6	100
39238	2023-11-02T02:05:09	7.7	100
39239	2023-11-02T02:15:09	7.8	100
39240	2023-11-02T02:25:09	8.3	100
39241	2023-11-02T02:35:09	8.7	100
39242	2023-11-02T02:45:09	9.1	99
39243	2023-11-02T02:55:09	9.1	96
39244	2023-11-02T03:05:09	9.3	92
39245	2023-11-02T03:15:09	9	93
39246	2023-11-02T03:25:09	8.9	95.5
39247	2023-11-02T03:35:09	8.8	97
39248	2023-11-02T03:45:09	8.7	96.5
39249	2023-11-02T03:55:09	8.9	94
39250	2023-11-02T04:05:09	9.2	92.5
39251	2023-11-02T04:15:09	9.3	91
39252	2023-11-02T04:25:09	9.6	91
39253	2023-11-02T04:35:09	9.7	89.5
39254	2023-11-02T04:45:09	9.7	89
39255	2023-11-02T04:55:09	9.8	89.5
39256	2023-11-02T05:05:09	9.9	90
39257	2023-11-02T05:15:09	9.5	93
39258	2023-11-02T05:25:09	9.3	98
39259	2023-11-02T05:35:08	9.1	100
39260	2023-11-02T05:45:08	9.3	100
39261	2023-11-02T05:55:08	9.2	100
39262	2023-11-02T06:05:08	9.5	100
39263	2023-11-02T06:15:08	9.5	100
39264	2023-11-02T06:25:08	9.5	100
39265	2023-11-02T06:35:08	9.5	100
39266	2023-11-02T06:45:08	9.5	100
39267	2023-11-02T06:55:08	9.5	100
39268	2023-11-02T07:05:08	9.8	100
39269	2023-11-02T07:15:08	9.7	100
39270	2023-11-02T07:25:08	9.9	100
39271	2023-11-02T07:35:08	9.8	100
39272	2023-11-02T07:45:08	9.9	100
39273	2023-11-02T07:55:08	9.9	100
39274	2023-11-02T08:05:08	9.9	100
39275	2023-11-02T08:15:08	10.1	100
39276	2023-11-02T08:25:08	10.3	100
39277	2023-11-02T08:35:08	10.5	100
39278	2023-11-02T08:55:08	11.4	100
39279	2023-11-02T09:05:08	10.9	100
39280	2023-11-02T09:15:08	11.3	100
39281	2023-11-02T09:25:08	11	100
39282	2023-11-02T09:35:08	11.3	100
39283	2023-11-02T09:45:08	11.3	100
39284	2023-11-02T09:55:08	11.2	100
39285	2023-11-02T10:05:08	11.5	100
39286	2023-11-02T10:25:08	11.6	100
39287	2023-11-02T10:35:08	11.9	100
39288	2023-11-02T10:45:08	11.9	100
39289	2023-11-02T10:55:08	12	100
39290	2023-11-02T11:05:08	12	100
39291	2023-11-02T11:15:08	12.1	100
39292	2023-11-02T11:25:08	12.1	100
39293	2023-11-02T11:35:08	12.2	100
39294	2023-11-02T11:45:08	12.1	100
39295	2023-11-02T11:55:08	12.3	100
39296	2023-11-02T12:05:08	12.5	100
39297	2023-11-02T12:15:08	12.5	99.5
39298	2023-11-02T12:25:08	12.4	100
39299	2023-11-02T12:35:08	12.5	100
39300	2023-11-02T12:45:08	12.5	98.5
39301	2023-11-02T12:55:08	12.5	98
39302	2023-11-02T13:05:08	12.6	99.5
39303	2023-11-02T13:15:08	12.5	96.5
39304	2023-11-02T13:25:08	12.6	96.5
39305	2023-11-02T13:35:08	12.7	97.5
39306	2023-11-02T13:45:08	12.5	97.5
39307	2023-11-02T13:55:08	12.5	83.5
39308	2023-11-02T14:05:08	12.6	77
39309	2023-11-02T14:15:08	12.5	71
39310	2023-11-02T14:25:08	12.5	69.5
39311	2023-11-02T14:35:08	12.4	70
39312	2023-11-02T14:45:08	12.5	68
39313	2023-11-02T14:55:08	12.5	67.5
39314	2023-11-02T15:05:08	12.4	68.5
39315	2023-11-02T15:15:08	12.4	69
39316	2023-11-02T15:25:08	12.3	68
39317	2023-11-02T15:35:08	12.1	70.5
39318	2023-11-02T15:45:08	11.9	71.5
39319	2023-11-02T15:55:08	11.7	72
39320	2023-11-02T16:05:08	11.2	76.5
39321	2023-11-02T16:15:08	10.8	76
39322	2023-11-02T16:25:08	10.9	76
39323	2023-11-02T16:35:08	11	77
39324	2023-11-02T16:45:08	11.2	75
39325	2023-11-02T16:55:08	11.1	74
39326	2023-11-02T17:05:08	11.3	83
39327	2023-11-02T17:15:08	10.7	79
39328	2023-11-02T17:25:08	11	75.5
39329	2023-11-02T17:35:08	10.8	89
39330	2023-11-02T17:45:08	10	98.5
39331	2023-11-02T17:55:08	9.7	96
39332	2023-11-02T18:05:08	9.5	95.5
39333	2023-11-02T18:15:08	9.4	100
39334	2023-11-02T18:25:08	9.2	100
39335	2023-11-02T18:35:08	8.9	100
39336	2023-11-02T18:45:08	8.9	100
39337	2023-11-02T18:55:08	8.6	100
39338	2023-11-02T19:05:08	8.2	100
39339	2023-11-02T19:15:08	7.9	100
39340	2023-11-02T19:25:08	7.6	100
39341	2023-11-02T19:35:08	7.5	100
39342	2023-11-02T19:45:08	7.3	100
39343	2023-11-02T19:55:08	7.4	100
39344	2023-11-02T20:05:08	7.3	100
39345	2023-11-02T20:15:08	7.4	100
39346	2023-11-02T20:25:08	7.4	100
39347	2023-11-02T20:35:08	7.3	100
39348	2023-11-02T20:45:08	7.2	100
39349	2023-11-02T20:55:08	7.1	100
39350	2023-11-02T21:05:08	7.1	100
39351	2023-11-02T21:15:08	7	100
39352	2023-11-02T21:25:08	6.9	100
39353	2023-11-02T21:35:07	6.9	100
39354	2023-11-02T21:45:08	6.9	100
39355	2023-11-02T21:55:07	6.8	100
39356	2023-11-02T22:05:07	6.8	100
39357	2023-11-02T22:15:07	6.8	100
39358	2023-11-02T22:25:07	6.6	100
39359	2023-11-02T22:35:07	6.2	100
39360	2023-11-02T22:45:07	6.7	100
39361	2023-11-02T22:55:07	6.9	100
39362	2023-11-02T23:05:07	7	100
39363	2023-11-02T23:15:07	7	100
39364	2023-11-02T23:25:07	6.9	100
39365	2023-11-02T23:35:07	6.6	100
39366	2023-11-02T23:45:07	6.6	100
39367	2023-11-02T23:55:07	6.6	100
39368	2023-11-03T00:05:07	6.5	100
39369	2023-11-03T00:15:07	6.5	100
39370	2023-11-03T00:25:07	6.8	100
39371	2023-11-03T00:35:07	7	100
39372	2023-11-03T00:45:07	7.2	100
39373	2023-11-03T00:55:07	7.2	100
39374	2023-11-03T02:05:07	7.6	92.5
39375	2023-11-03T02:15:07	7.7	90
39376	2023-11-03T02:25:07	7.8	89.5
39377	2023-11-03T02:35:07	7.9	88.5
39378	2023-11-03T02:45:07	8	87
39379	2023-11-03T02:55:07	7.8	88.5
39380	2023-11-03T03:05:07	7.7	88.5
39381	2023-11-03T03:15:07	8	88
39382	2023-11-03T03:25:07	7.8	88
39383	2023-11-03T03:35:07	7.9	87.5
39384	2023-11-03T03:45:07	7.9	87
39385	2023-11-03T03:55:07	7.8	88
39386	2023-11-03T04:05:07	7.9	87.5
39387	2023-11-03T04:15:07	8	86.5
39388	2023-11-03T04:25:07	7.9	86.5
39389	2023-11-03T04:35:07	7.9	86
39390	2023-11-03T04:45:07	7.9	86.5
39391	2023-11-03T04:55:07	7.9	86
39392	2023-11-03T05:05:07	7.9	86.5
39393	2023-11-03T05:15:07	7.9	87.5
39394	2023-11-03T05:25:07	7.8	87
39395	2023-11-03T05:35:07	7.7	87
39396	2023-11-03T05:45:07	7.7	88.5
39397	2023-11-03T05:55:07	7.8	87
39398	2023-11-03T06:05:07	7.7	87.5
39399	2023-11-03T06:15:07	7.7	86.5
39400	2023-11-03T06:25:07	7.7	87
39401	2023-11-03T06:35:07	7.7	86.5
39402	2023-11-03T06:45:07	7.8	87.5
39403	2023-11-03T06:55:07	7.8	87.5
39404	2023-11-03T07:05:07	7.8	88
39405	2023-11-03T07:15:07	7.8	89.5
39406	2023-11-03T07:25:07	7.4	92.5
39407	2023-11-03T07:35:07	7.5	92.5
39408	2023-11-03T07:45:07	7.7	90.5
39409	2023-11-03T07:55:07	7.7	88
39410	2023-11-03T08:05:07	8	87.5
39411	2023-11-03T08:15:07	8.2	85
39412	2023-11-03T08:25:07	8.4	84.5
39413	2023-11-03T08:35:07	8.3	86
39414	2023-11-03T08:45:07	8.2	87.5
39415	2023-11-03T08:55:07	8.6	83.5
39416	2023-11-03T09:05:07	8.7	83.5
39417	2023-11-03T09:15:07	8.8	83
39418	2023-11-03T09:25:07	8.8	84
39419	2023-11-03T09:35:07	8.4	89
39420	2023-11-03T09:45:07	8.4	91
39421	2023-11-03T09:55:07	8.6	89.5
39422	2023-11-03T10:05:07	8.9	85.5
39423	2023-11-03T10:15:07	9.3	84.5
39424	2023-11-03T10:25:07	9.7	82
39425	2023-11-03T10:35:07	9.8	81.5
39426	2023-11-03T10:45:07	10.3	77.5
39427	2023-11-03T10:55:07	10.2	78
39428	2023-11-03T11:05:07	10.5	77.5
39429	2023-11-03T11:15:07	10.8	76.5
39430	2023-11-03T11:25:07	10.7	75.5
39431	2023-11-03T11:35:07	10.6	76
39432	2023-11-03T11:45:07	10.8	78
39433	2023-11-03T11:55:07	10.6	76.5
39434	2023-11-03T12:05:07	10.6	77.5
39435	2023-11-03T12:15:07	10.6	77
39436	2023-11-03T12:25:07	10.5	78
39437	2023-11-03T12:35:07	10.5	77
39438	2023-11-03T12:45:07	10.4	77
39439	2023-11-03T12:55:07	10.2	77.5
39440	2023-11-03T13:05:07	10.2	78
39441	2023-11-03T13:15:07	10.4	78
39442	2023-11-03T13:25:07	10.3	78.5
39443	2023-11-03T13:35:07	10.2	79
39444	2023-11-03T13:45:07	9.5	88
39445	2023-11-03T13:55:07	9.6	83
39446	2023-11-03T14:05:07	9.8	80.5
39447	2023-11-03T14:15:07	9.9	83
39448	2023-11-03T14:25:07	10	82
39449	2023-11-03T14:35:07	10	82
39450	2023-11-03T14:45:07	9.9	82.5
39451	2023-11-03T14:55:07	9.7	83
39452	2023-11-03T15:05:07	9.5	84.5
39453	2023-11-03T15:15:07	9.5	84
39454	2023-11-03T15:25:07	9.3	85.5
39455	2023-11-03T15:35:07	9.1	85
39456	2023-11-03T15:45:07	9.2	84.5
39457	2023-11-03T15:55:06	9.3	84.5
39458	2023-11-03T16:05:07	9	85
39459	2023-11-03T16:15:06	9	85
39460	2023-11-03T16:25:06	9	85.5
39461	2023-11-03T16:35:06	9	85
39462	2023-11-03T16:45:06	8.7	85.5
39463	2023-11-03T16:55:06	8.2	87.5
39464	2023-11-03T17:05:06	7.9	87.5
39465	2023-11-03T17:15:06	8	87.5
39466	2023-11-03T17:25:06	8.2	86
39467	2023-11-03T17:35:06	8.1	86.5
39468	2023-11-03T17:45:06	8.2	85
39469	2023-11-03T17:55:06	8.1	85.5
39470	2023-11-03T18:05:06	8	85.5
39471	2023-11-03T18:15:06	7.7	87
39472	2023-11-03T18:25:06	7.4	88
39473	2023-11-03T18:35:06	7.3	88
39474	2023-11-03T18:45:06	7.1	89
39475	2023-11-03T18:55:06	7	88
39476	2023-11-03T19:05:06	7.1	86.5
39477	2023-11-03T19:15:06	7.1	86.5
39478	2023-11-03T19:25:06	6.9	87
39479	2023-11-03T19:35:06	6.8	87.5
39480	2023-11-03T19:45:06	6.3	89.5
39481	2023-11-03T19:55:06	6	90.5
39482	2023-11-03T20:05:06	6.1	90
39483	2023-11-03T20:15:06	6.3	87.5
39484	2023-11-03T20:25:06	6.2	87
39485	2023-11-03T20:35:06	5.9	88.5
39486	2023-11-03T20:45:06	5.3	92.5
39487	2023-11-03T20:55:06	5.2	92.5
39488	2023-11-03T21:05:06	4.9	95
39489	2023-11-03T21:15:06	4.4	97
39490	2023-11-03T21:25:06	4.3	97.5
39491	2023-11-03T21:35:06	4	98.5
39492	2023-11-03T21:45:06	4	99
39493	2023-11-03T21:55:06	3.7	98.5
39494	2023-11-03T22:05:06	3.5	99
39495	2023-11-03T22:15:06	3.2	99
39496	2023-11-03T22:25:06	3.2	99.5
39497	2023-11-03T22:35:06	3.1	99.5
39498	2023-11-03T22:45:06	3	99.5
39499	2023-11-03T22:55:06	3	100
39500	2023-11-03T23:05:06	2.8	100
39501	2023-11-03T23:15:06	2.8	100
39502	2023-11-03T23:25:06	2.7	100
39503	2023-11-03T23:35:06	3.1	100
39504	2023-11-03T23:45:06	3.5	100
39505	2023-11-03T23:55:06	3.9	100
39506	2023-11-04T00:05:06	4.2	99.5
39507	2023-11-04T00:15:06	5.1	96
39508	2023-11-04T00:25:06	5.6	93
39509	2023-11-04T00:35:06	5.9	91
39510	2023-11-04T00:45:06	6.2	90
39511	2023-11-04T00:55:06	6.4	90.5
39512	2023-11-04T01:05:06	6.5	89.5
39513	2023-11-04T01:15:06	6.7	88.5
39514	2023-11-04T01:25:06	6.7	88
39515	2023-11-04T01:35:06	6.4	88.5
39516	2023-11-04T01:45:06	6.9	86
39517	2023-11-04T01:55:06	6.7	87.5
39518	2023-11-04T02:05:06	6.4	89
39519	2023-11-04T02:15:06	6.2	90.5
39520	2023-11-04T02:25:06	6.4	89.5
39521	2023-11-04T02:35:06	6.1	90
39522	2023-11-04T02:45:06	6.2	90
39523	2023-11-04T02:55:06	6.7	87.5
39524	2023-11-04T03:05:06	7	86.5
39525	2023-11-04T03:15:06	7.1	86
39526	2023-11-04T03:25:06	7	90.5
39527	2023-11-04T03:35:06	6.5	91.5
39528	2023-11-04T03:45:06	6	92.5
39529	2023-11-04T03:55:06	5.6	95
39530	2023-11-04T04:05:06	4.9	98
39531	2023-11-04T04:15:06	4.8	98.5
39532	2023-11-04T04:25:06	4.5	98.5
39533	2023-11-04T04:35:06	4.2	99.5
39534	2023-11-04T04:45:06	4.3	100
39535	2023-11-04T04:55:06	4.4	100
39536	2023-11-04T05:05:06	4.4	100
39537	2023-11-04T05:15:06	4.7	98.5
39538	2023-11-04T05:25:06	5.2	94.5
39539	2023-11-04T05:35:06	5.2	95
39540	2023-11-04T05:45:06	4.7	96.5
39541	2023-11-04T05:55:06	4.6	97.5
39542	2023-11-04T06:05:06	4.2	98.5
39543	2023-11-04T06:15:06	3.9	99
39544	2023-11-04T06:35:06	3.6	100
39545	2023-11-04T06:45:06	3.5	100
39546	2023-11-04T06:55:06	3.5	100
39547	2023-11-04T07:05:06	3.4	100
39548	2023-11-04T07:15:06	3.6	100
39549	2023-11-04T07:25:06	3.8	100
39550	2023-11-04T07:35:06	4.1	100
39551	2023-11-04T07:45:06	4.4	100
39552	2023-11-04T07:55:06	4.3	100
39553	2023-11-04T08:05:06	4.7	100
39554	2023-11-04T08:15:06	5.2	100
39555	2023-11-04T08:25:06	5.8	100
39556	2023-11-04T08:35:06	6.3	99.5
39557	2023-11-04T08:45:06	6.7	99.5
39558	2023-11-04T08:55:06	7.2	96
39559	2023-11-04T09:05:06	7.6	94
39560	2023-11-04T09:15:06	7.8	89
39561	2023-11-04T09:25:06	9.3	79.5
39562	2023-11-04T09:35:06	9.8	77
39563	2023-11-04T09:45:06	10.1	72
39564	2023-11-04T09:55:06	10.3	72.5
39565	2023-11-04T10:05:06	10.3	72.5
39566	2023-11-04T10:15:06	10.4	73.5
39567	2023-11-04T10:25:06	10.5	79
39568	2023-11-04T10:35:06	11	74.5
39569	2023-11-04T10:45:06	11.4	74
39570	2023-11-04T10:55:06	11.3	70
39571	2023-11-04T11:05:06	12	60.5
39572	2023-11-04T11:15:06	12.4	57
39573	2023-11-04T11:25:06	12	59.5
39574	2023-11-04T11:35:06	12	61
39575	2023-11-04T11:45:06	11	83.5
39576	2023-11-04T11:55:06	9.8	100
39577	2023-11-04T12:05:06	9.8	100
39578	2023-11-04T12:15:06	9.6	100
39579	2023-11-04T12:25:06	9.6	100
39580	2023-11-04T12:35:06	9.5	100
39581	2023-11-04T12:45:06	9.4	100
39582	2023-11-04T12:55:06	9.4	100
39583	2023-11-04T13:05:06	9.6	100
39584	2023-11-04T13:15:06	9.6	100
39585	2023-11-04T13:25:06	9.6	100
39586	2023-11-04T13:35:06	9.5	100
39587	2023-11-04T13:45:06	9.5	100
39588	2023-11-04T14:15:06	8.6	100
39589	2023-11-04T14:25:05	9	100
39590	2023-11-04T14:35:05	9.1	100
39591	2023-11-04T14:45:05	9	100
39592	2023-11-04T14:55:05	9.3	100
39593	2023-11-04T15:05:05	9.1	100
39594	2023-11-04T15:15:05	9.3	100
39595	2023-11-04T15:25:05	9.4	100
39596	2023-11-04T15:35:05	8.9	100
39597	2023-11-04T15:45:05	9.5	100
39598	2023-11-04T15:55:05	10.2	100
39599	2023-11-04T16:05:05	10.6	100
39600	2023-11-04T16:15:05	10.7	100
39601	2023-11-04T16:25:05	11.1	100
39602	2023-11-04T16:35:05	11	100
39603	2023-11-04T16:45:05	10.2	100
39604	2023-11-04T16:55:05	11	100
39605	2023-11-04T17:05:05	11.2	100
39606	2023-11-04T17:15:05	11.3	100
39607	2023-11-04T17:25:05	10.8	100
39608	2023-11-04T17:35:05	10.8	100
39609	2023-11-04T17:45:05	10.8	100
39610	2023-11-04T17:55:05	11	100
39611	2023-11-04T18:05:05	11.2	100
39612	2023-11-04T18:15:05	11.3	100
39613	2023-11-04T18:25:05	11.5	100
39614	2023-11-04T18:35:05	11.4	100
39615	2023-11-04T18:45:05	11.4	100
39616	2023-11-04T18:55:05	11.5	100
39617	2023-11-04T19:05:05	11.2	99.5
39618	2023-11-04T19:15:05	10.6	94
39619	2023-11-04T19:25:05	10.7	88.5
39620	2023-11-04T19:35:05	11.2	82.5
39621	2023-11-04T19:45:05	11.6	81.5
39622	2023-11-04T19:55:05	10.3	97.5
39623	2023-11-04T20:05:05	10	100
39624	2023-11-04T20:15:05	10	100
39625	2023-11-04T20:25:05	9.9	100
39626	2023-11-04T20:35:05	9.8	100
39627	2023-11-04T20:45:05	9.8	100
39628	2023-11-04T20:55:05	9.7	99.5
39629	2023-11-04T21:05:05	9.7	99
39630	2023-11-04T21:15:05	9.7	98
39631	2023-11-04T21:25:05	9.2	97.5
39632	2023-11-04T21:35:05	9.1	96.5
39633	2023-11-04T21:45:05	9	96
39634	2023-11-04T21:55:05	9.4	95.5
39635	2023-11-04T22:05:05	9.7	95.5
39636	2023-11-04T22:15:05	9.8	95.5
39637	2023-11-04T22:25:05	9.7	95.5
39638	2023-11-04T22:35:05	9.2	95.5
39639	2023-11-04T22:45:05	9.2	95.5
39640	2023-11-04T22:55:05	9.5	95.5
39641	2023-11-04T23:05:05	9.8	95.5
39642	2023-11-04T23:15:05	9.8	95.5
39643	2023-11-04T23:25:05	9.7	95.5
39644	2023-11-04T23:35:05	10	95.5
39645	2023-11-04T23:45:05	9.9	95.5
39646	2023-11-04T23:55:05	9.8	95.5
39647	2023-11-05T00:05:05	9.9	95.5
39648	2023-11-05T00:15:05	10.2	95.5
39649	2023-11-05T00:25:05	10	95.5
39650	2023-11-05T00:35:05	10.1	95.5
39651	2023-11-05T00:45:05	10.3	95.5
39652	2023-11-05T00:55:05	10.7	95.5
39653	2023-11-05T01:05:05	11	95.5
39654	2023-11-05T01:15:05	11.3	95.5
39655	2023-11-05T01:25:05	11.3	95.5
39656	2023-11-05T01:35:05	11.6	95.5
39657	2023-11-05T01:45:05	11.7	95.5
39658	2023-11-05T01:55:05	11.2	95.5
39659	2023-11-05T02:05:05	10.9	95.5
39660	2023-11-05T02:15:05	11.1	95.5
39661	2023-11-05T02:25:05	11.4	95.5
39662	2023-11-05T02:35:05	11.2	95.5
39663	2023-11-05T02:45:05	11.9	95.5
39664	2023-11-05T02:55:05	11.9	95.5
39665	2023-11-05T03:05:05	12.3	95.5
39666	2023-11-05T03:15:05	12.7	95
39667	2023-11-05T03:25:05	12.8	95.5
39668	2023-11-05T03:35:05	13.1	98.5
39669	2023-11-05T03:45:05	13	96
39670	2023-11-05T03:55:05	12.9	95.5
39671	2023-11-05T04:05:05	13.3	87
39672	2023-11-05T04:15:05	13.3	73.5
39673	2023-11-05T04:25:05	13.3	73
39674	2023-11-05T04:35:05	13.3	71
39675	2023-11-05T04:45:05	12.7	76.5
39676	2023-11-05T04:55:05	13	68.5
39677	2023-11-05T05:05:05	13	68.5
39678	2023-11-05T05:15:05	12.5	85.5
39679	2023-11-05T05:25:05	12.5	77.5
39680	2023-11-05T05:35:05	12	90
39681	2023-11-05T05:45:05	10.8	94.5
39682	2023-11-05T05:55:05	10.9	95.5
39683	2023-11-05T06:05:05	11	89
39684	2023-11-05T06:15:04	10.4	95.5
39685	2023-11-05T06:25:04	10.1	100
39686	2023-11-05T06:35:04	9.8	100
39687	2023-11-05T06:45:04	9.7	100
39688	2023-11-05T06:55:04	9.7	100
39689	2023-11-05T07:05:04	9.9	100
39690	2023-11-05T07:15:04	10.2	100
39691	2023-11-05T07:25:04	10.4	100
39692	2023-11-05T07:35:04	10.8	100
39693	2023-11-05T07:45:04	10	100
39694	2023-11-05T07:55:04	9.7	100
39695	2023-11-05T08:05:04	9.9	100
39696	2023-11-05T08:15:04	10.6	100
39697	2023-11-05T08:25:04	10.2	100
39698	2023-11-05T08:35:04	10.4	100
39699	2023-11-05T08:45:04	9.9	100
39700	2023-11-05T08:55:04	10	100
39701	2023-11-05T09:05:04	9.8	100
39702	2023-11-05T09:15:04	9.9	100
39703	2023-11-05T09:25:04	9.6	100
39704	2023-11-05T09:35:04	10	99.5
39705	2023-11-05T09:45:04	10.4	99
39706	2023-11-05T09:55:04	9.9	98.5
39707	2023-11-05T10:05:04	10	98
39708	2023-11-05T10:15:04	10.5	97.5
39709	2023-11-05T10:25:04	10.8	97
39710	2023-11-05T10:35:04	10.4	96.5
39711	2023-11-05T10:45:04	10.2	96
39712	2023-11-05T10:55:04	10	96
39713	2023-11-05T11:05:04	10.1	98.5
39714	2023-11-05T11:15:04	11	98.5
39715	2023-11-05T11:25:04	10.6	98.5
39716	2023-11-05T11:35:04	10.4	98.5
39717	2023-11-05T11:45:04	11	98.5
39718	2023-11-05T11:55:04	10.9	98.5
39719	2023-11-05T12:05:04	10.8	98.5
39720	2023-11-05T12:15:04	11.1	98.5
39721	2023-11-05T12:25:04	11.2	98.5
39722	2023-11-05T12:35:04	11.4	98.5
39723	2023-11-05T12:45:04	11.4	98.5
39724	2023-11-05T12:55:04	11.7	98
39725	2023-11-05T13:05:04	11.7	98.5
39726	2023-11-05T13:15:04	11.6	98.5
39727	2023-11-05T13:25:04	11.6	98
39728	2023-11-05T13:35:04	10.4	98.5
39729	2023-11-05T13:45:04	10.8	98
39730	2023-11-05T13:55:04	10.9	98.5
39731	2023-11-05T14:05:04	11.2	98.5
39732	2023-11-05T14:15:04	10.9	98
39733	2023-11-05T14:25:04	11.2	98
39734	2023-11-05T14:35:04	11.4	98.5
39735	2023-11-05T14:45:04	11.2	99
39736	2023-11-05T14:55:04	10.2	99.5
39737	2023-11-05T15:05:04	10.8	99.5
39738	2023-11-05T15:15:04	10.9	100
39739	2023-11-05T15:25:04	10.5	100
39740	2023-11-05T15:35:04	10.1	100
39741	2023-11-05T15:45:04	10.6	100
39742	2023-11-05T15:55:04	10.8	100
39743	2023-11-05T16:05:04	10.9	100
39744	2023-11-05T16:15:04	10.9	96
39745	2023-11-05T16:25:04	10.8	96
39746	2023-11-05T16:35:04	10.8	96
39747	2023-11-05T16:45:04	10.8	96
39748	2023-11-05T16:55:04	10.6	96
39749	2023-11-05T17:05:04	10.5	96
39750	2023-11-05T17:15:04	10.6	96
39751	2023-11-05T17:25:04	10.7	96
39752	2023-11-05T17:35:04	10.7	96
39753	2023-11-05T17:45:04	10.7	96
39754	2023-11-05T17:55:04	10.7	96
39755	2023-11-05T18:05:04	10.7	95.5
39756	2023-11-05T18:15:04	10.8	95.5
39757	2023-11-05T18:25:04	10.9	95.5
39758	2023-11-05T18:35:04	11	95.5
39759	2023-11-05T18:45:21	11	96
39760	2023-11-05T18:55:04	10.8	98
39761	2023-11-05T19:05:04	10.5	98.5
39762	2023-11-05T20:45:04	10.9	91
39763	2023-11-05T20:55:04	9.6	100
39764	2023-11-05T21:05:04	10.1	99
39765	2023-11-05T21:15:04	10.1	98
39766	2023-11-05T21:25:04	10.1	97
39767	2023-11-05T21:35:04	10.1	97
39768	2023-11-05T21:45:04	10.1	95.5
39769	2023-11-05T21:55:03	10.2	95
39770	2023-11-05T22:05:03	10.4	93.5
39771	2023-11-05T22:15:04	10.5	93
39772	2023-11-05T22:25:03	10.4	92.5
39773	2023-11-05T22:35:03	9.4	97.5
39774	2023-11-05T22:45:03	9.5	96.5
39775	2023-11-05T22:55:03	9.7	95.5
39776	2023-11-05T23:05:03	10	93.5
39777	2023-11-05T23:15:03	9.9	88.5
39778	2023-11-05T23:25:03	10.1	87
39779	2023-11-05T23:35:03	10.4	86
39780	2023-11-05T23:45:03	10.4	85
39781	2023-11-05T23:55:03	10.4	84.5
39782	2023-11-06T00:05:03	10.8	82
39783	2023-11-06T00:15:03	10.7	83
39784	2023-11-06T00:25:03	10.7	87.5
39785	2023-11-06T00:35:03	10.8	84.5
39786	2023-11-06T00:45:03	11	81.5
39787	2023-11-06T00:55:03	9.8	100
39788	2023-11-06T01:05:03	10.1	100
39789	2023-11-06T01:15:03	10.5	100
39790	2023-11-06T01:25:03	10.8	92
39791	2023-11-06T01:35:03	10.1	96.5
39792	2023-11-06T01:45:03	9.9	95
39793	2023-11-06T01:55:03	9.5	100
39794	2023-11-06T02:05:03	9.3	100
39795	2023-11-06T02:15:03	9.5	100
39796	2023-11-06T02:25:03	9.2	100
39797	2023-11-06T02:35:03	9.1	100
39798	2023-11-06T02:45:03	9.1	100
39799	2023-11-06T02:55:03	9.1	100
39800	2023-11-06T03:05:03	9	100
39801	2023-11-06T03:15:03	9.3	100
39802	2023-11-06T03:25:03	9.3	100
39803	2023-11-06T03:35:03	9.5	100
39804	2023-11-06T03:45:03	9.5	100
39805	2023-11-06T03:55:03	9.1	100
39806	2023-11-06T04:05:03	9.3	100
39807	2023-11-06T04:15:03	9.1	100
39808	2023-11-06T04:25:03	9.1	100
39809	2023-11-06T04:35:03	9.2	100
39810	2023-11-06T04:45:03	9.3	100
39811	2023-11-06T04:55:03	9.5	100
39812	2023-11-06T05:05:03	9.5	100
39813	2023-11-06T05:15:03	9.6	100
39814	2023-11-06T05:25:03	9.6	100
39815	2023-11-06T05:35:03	9.6	100
39816	2023-11-06T05:45:03	9.8	100
39817	2023-11-06T05:55:03	9.8	100
39818	2023-11-06T06:05:03	9.7	100
39819	2023-11-06T06:15:03	9.9	100
39820	2023-11-06T06:25:03	9.7	100
39821	2023-11-06T06:35:03	9.7	100
39822	2023-11-06T06:45:03	9.7	100
39823	2023-11-06T06:55:03	9.8	100
39824	2023-11-06T07:05:03	10	100
39825	2023-11-06T07:15:03	10.1	100
39826	2023-11-06T07:25:03	10.1	100
39827	2023-11-06T07:35:03	10.3	100
39828	2023-11-06T07:45:03	10.8	100
39829	2023-11-06T07:55:03	10.9	100
39830	2023-11-06T08:05:03	11	100
39831	2023-11-06T08:15:03	11	99.5
39832	2023-11-06T08:25:03	11	100
39833	2023-11-06T08:35:03	11.2	100
39834	2023-11-06T08:45:03	11.3	99.5
39835	2023-11-06T08:55:03	11.4	100
39836	2023-11-06T09:05:03	11.7	100
39837	2023-11-06T09:15:03	11.9	100
39838	2023-11-06T09:25:03	12.7	82.5
39839	2023-11-06T09:35:03	14.3	76.5
39840	2023-11-06T09:45:03	13.8	72
39841	2023-11-06T09:55:03	14	68.5
39842	2023-11-06T10:05:03	14	70.5
39843	2023-11-06T10:15:03	13.5	72
39844	2023-11-06T10:25:03	13.6	71
39845	2023-11-06T10:35:03	14	70.5
39846	2023-11-06T10:45:03	13.7	69.5
39847	2023-11-06T10:55:03	13.8	70.5
39848	2023-11-06T11:05:03	13.7	70.5
39849	2023-11-06T11:15:03	13.6	70
39850	2023-11-06T11:25:03	13.5	71
39851	2023-11-06T11:35:03	12.9	77
39852	2023-11-06T11:45:03	12.4	88.5
39853	2023-11-06T11:55:03	11.5	91
39854	2023-11-06T12:05:03	11.4	95.5
39855	2023-11-06T12:15:03	11.9	92.5
39856	2023-11-06T12:25:03	12.7	84
39857	2023-11-06T12:35:03	13.2	81
39858	2023-11-06T12:45:03	12.9	77.5
39859	2023-11-06T12:55:03	13.1	77
39860	2023-11-06T13:05:03	13.2	76.5
39861	2023-11-06T13:15:02	13.1	76
39862	2023-11-06T13:25:02	13.3	75
39863	2023-11-06T13:35:02	13.5	74.5
39864	2023-11-06T13:45:02	13.6	74.5
39865	2023-11-06T13:55:02	13.6	74
39866	2023-11-06T14:05:02	13.5	74.5
39867	2023-11-06T14:15:02	13.4	74.5
39868	2023-11-06T14:25:02	13.1	75
39869	2023-11-06T14:35:02	13.1	75.5
39870	2023-11-06T14:45:02	13	77
39871	2023-11-06T14:55:02	13	77.5
39872	2023-11-06T15:05:02	12.9	78
39873	2023-11-06T15:15:02	12.4	87.5
39874	2023-11-06T15:25:02	11.1	97.5
39875	2023-11-06T15:35:02	11	98.5
39876	2023-11-06T15:45:02	10.6	100
39877	2023-11-06T15:55:02	10.6	95.5
39878	2023-11-06T16:05:21	9.9	95.5
39879	2023-11-06T16:15:02	9.4	95
39880	2023-11-06T16:25:02	9.1	95.5
39881	2023-11-06T16:35:02	9.1	95.5
39882	2023-11-06T16:45:02	8.8	95.5
39883	2023-11-06T16:55:02	8.7	95.5
39884	2023-11-06T17:05:02	8.7	95.5
39885	2023-11-06T17:15:02	9	95.5
39886	2023-11-06T17:25:02	9	95.5
39887	2023-11-06T17:35:02	9	95.5
39888	2023-11-06T17:45:02	8.9	95.5
39889	2023-11-06T17:55:02	8.7	95.5
39890	2023-11-06T18:05:02	8.6	95.5
39891	2023-11-06T18:15:02	8.4	95.5
39892	2023-11-06T18:25:02	8.4	95.5
39893	2023-11-06T18:35:02	8.2	95.5
39894	2023-11-06T18:45:02	8	95.5
39895	2023-11-06T18:55:02	7.6	95.5
39896	2023-11-06T19:05:02	7.8	95.5
39897	2023-11-06T19:15:02	7.7	95.5
39898	2023-11-06T19:25:02	7.6	95.5
39899	2023-11-06T19:35:02	7.6	95.5
39900	2023-11-06T19:45:03	8	95.5
39901	2023-11-06T19:55:02	8.3	95.5
39902	2023-11-06T20:05:02	8.8	95.5
39903	2023-11-06T20:15:02	8.9	95.5
39904	2023-11-06T20:25:02	8.8	95.5
39905	2023-11-06T20:35:02	8.8	95.5
39906	2023-11-06T20:45:02	8.9	95.5
39907	2023-11-06T20:55:02	9.2	95.5
39908	2023-11-06T21:05:02	8.4	95.5
39909	2023-11-06T21:15:02	8.4	95.5
39910	2023-11-06T21:25:02	8.9	95.5
39911	2023-11-06T21:35:02	9.1	95.5
39912	2023-11-06T21:45:02	9	95.5
39913	2023-11-06T21:55:02	9.1	95.5
39914	2023-11-06T22:05:02	9	95.5
39915	2023-11-06T22:15:02	8.8	95.5
39916	2023-11-06T22:25:02	8.9	95.5
39917	2023-11-06T22:35:02	8.9	95.5
39918	2023-11-06T22:45:02	8.8	95.5
39919	2023-11-06T22:55:02	9.1	95.5
39920	2023-11-06T23:05:02	9.1	95.5
39921	2023-11-06T23:15:02	9.3	95.5
39922	2023-11-06T23:25:02	9.3	95.5
39923	2023-11-06T23:35:02	9.2	95.5
39924	2023-11-06T23:45:02	9.4	95.5
39925	2023-11-06T23:55:02	8.6	95.5
39926	2023-11-07T00:05:02	8.6	95.5
39927	2023-11-07T00:15:02	8.6	96
39928	2023-11-07T00:25:02	8.8	95.5
39929	2023-11-07T00:35:02	9	95.5
39930	2023-11-07T00:45:02	9.3	95.5
39931	2023-11-07T00:55:02	9.2	95.5
39932	2023-11-07T01:05:02	9.3	95.5
39933	2023-11-07T01:15:02	9.3	95.5
39934	2023-11-07T01:25:02	9.1	95.5
39935	2023-11-07T01:35:02	9.1	95.5
39936	2023-11-07T01:45:02	8.7	95.5
39937	2023-11-07T01:55:02	8.4	95.5
39938	2023-11-07T02:05:02	8.3	95.5
39939	2023-11-07T02:15:02	8.2	95.5
39940	2023-11-07T02:25:02	8.2	95.5
39941	2023-11-07T02:35:02	8	95.5
39942	2023-11-07T02:45:02	8.1	95.5
39943	2023-11-07T02:55:02	8.3	95.5
39944	2023-11-07T03:05:02	8.3	96
39945	2023-11-07T03:15:02	8.2	95.5
39946	2023-11-07T03:25:02	8.2	96
39947	2023-11-07T03:35:02	8.5	96
39948	2023-11-07T03:45:02	8.6	96
39949	2023-11-07T03:55:02	8.7	96
39950	2023-11-07T04:05:02	8.7	96
39951	2023-11-07T04:15:02	8.8	96
39952	2023-11-07T04:25:02	8.9	96
39953	2023-11-07T04:35:02	8.9	96
39954	2023-11-07T04:45:02	8.9	96
39955	2023-11-07T04:55:02	8.8	96
39956	2023-11-07T05:05:02	8.8	96
39957	2023-11-07T05:15:02	8.8	96
39958	2023-11-07T05:25:02	8.9	96
39959	2023-11-07T05:35:02	9.1	96
39960	2023-11-07T05:45:02	8.6	96
39961	2023-11-07T05:55:02	8.5	96
39962	2023-11-07T06:05:02	8.3	96
39963	2023-11-07T06:15:01	8.4	96
39964	2023-11-07T06:25:02	8.1	96
39965	2023-11-07T06:35:01	8	96
39966	2023-11-07T06:45:02	8.2	96
39967	2023-11-07T06:55:01	8.5	96
39968	2023-11-07T07:05:01	8.7	96
39969	2023-11-07T07:15:01	9.1	96
39970	2023-11-07T07:25:01	9.2	96
39971	2023-11-07T07:35:01	9.2	96
39972	2023-11-07T07:45:01	9.4	96
39973	2023-11-07T07:55:01	9.5	95.5
39974	2023-11-07T08:05:01	8.8	96
39975	2023-11-07T08:15:01	9	96
39976	2023-11-07T08:25:01	8.8	96
39977	2023-11-07T08:35:01	9	96
39978	2023-11-07T08:45:01	9.1	96
39979	2023-11-07T08:55:01	9	96
39980	2023-11-07T09:05:01	9.3	96
39981	2023-11-07T09:15:01	9.3	95.5
39982	2023-11-07T09:25:01	9.5	95.5
39983	2023-11-07T09:35:01	9.2	95.5
39984	2023-11-07T09:45:01	9.4	95.5
39985	2023-11-07T09:55:01	9.3	95.5
39986	2023-11-07T10:05:01	8.8	95.5
39987	2023-11-07T10:15:01	8.6	96
39988	2023-11-07T10:25:01	8.7	96
39989	2023-11-07T10:35:01	8.8	96
39990	2023-11-07T10:45:01	8.7	96
39991	2023-11-07T10:55:01	8.6	96
39992	2023-11-07T11:05:01	8.7	96
39993	2023-11-07T11:15:01	9.2	96
39994	2023-11-07T11:25:01	9.8	96
39995	2023-11-07T11:35:01	9.8	96
39996	2023-11-07T11:45:01	9.6	96
39997	2023-11-07T11:55:01	10	96
39998	2023-11-07T12:05:01	9.9	96
39999	2023-11-07T12:15:01	10	96
40000	2023-11-07T12:25:01	10.2	96
40001	2023-11-07T12:35:01	10.2	96
40002	2023-11-07T12:45:01	10.4	96
40003	2023-11-07T12:55:01	10.3	96
40004	2023-11-07T13:05:01	12.4	96
40005	2023-11-07T13:15:01	14.6	96
40006	2023-11-07T13:25:01	12.5	95.5
40007	2023-11-07T13:35:01	10.9	95.5
40008	2023-11-07T13:45:01	10.7	96
40009	2023-11-07T13:55:01	10.7	96
40010	2023-11-07T14:05:01	10.4	96
40011	2023-11-07T14:15:01	9.3	96
40012	2023-11-07T14:25:01	8.9	96
40013	2023-11-07T14:35:01	8.9	96
40014	2023-11-07T14:45:01	10	96
40015	2023-11-07T14:55:01	9.9	96
40016	2023-11-07T15:05:01	9	96
40017	2023-11-07T15:15:01	8.9	96
40018	2023-11-07T15:25:01	8.9	96
40019	2023-11-07T15:35:01	8.5	96
40020	2023-11-07T15:45:01	8.2	96
40021	2023-11-07T15:55:01	8.1	96
40022	2023-11-07T16:05:01	8	96
40023	2023-11-07T16:15:01	8	96
40024	2023-11-07T16:25:01	8.2	96
40025	2023-11-07T16:35:01	8	96
40026	2023-11-07T16:45:01	7.6	96
40027	2023-11-07T16:55:01	7.7	96
40028	2023-11-07T17:05:01	7.6	96
40029	2023-11-07T17:15:01	7.8	96
40030	2023-11-07T17:25:01	7.7	96
40031	2023-11-07T17:35:01	7.7	96
40032	2023-11-07T17:45:01	7.7	96
40033	2023-11-07T17:55:01	7.6	96
40034	2023-11-07T18:05:01	7.6	96
40035	2023-11-07T18:15:01	7.5	96
40036	2023-11-07T18:25:01	7.1	96
40037	2023-11-07T18:35:01	7	96
40038	2023-11-07T18:45:01	7.1	96
40039	2023-11-07T18:55:01	7.5	96.5
40040	2023-11-07T19:05:01	7.3	96
40041	2023-11-07T19:15:01	7.6	96
40042	2023-11-07T19:25:01	7.7	96
40043	2023-11-07T19:35:01	7.7	96
40044	2023-11-07T19:45:01	7.5	96
40045	2023-11-07T19:55:01	7.3	96
40046	2023-11-07T20:05:01	7.5	96
40047	2023-11-07T20:15:01	7.5	96
40048	2023-11-07T20:25:01	7.3	96
40049	2023-11-07T20:35:01	7.1	96
40050	2023-11-07T20:45:01	6.8	96
40051	2023-11-07T20:55:01	7	96
40052	2023-11-07T21:05:01	7.2	96
40053	2023-11-07T21:15:01	6.9	96
40054	2023-11-07T21:25:01	6.8	96
40055	2023-11-07T21:35:01	7.3	96
40056	2023-11-07T21:45:01	7	96
40057	2023-11-07T21:55:01	6.6	96
40058	2023-11-07T22:05:01	6.6	96
40059	2023-11-07T22:15:01	6.6	96
40060	2023-11-07T22:25:01	6.6	96
40061	2023-11-07T22:35:01	6.8	96
40062	2023-11-07T22:45:01	6.9	96
40063	2023-11-07T22:55:01	6.7	96
40064	2023-11-07T23:05:01	6.8	96
40065	2023-11-07T23:15:01	6.9	96
40066	2023-11-07T23:25:01	6.7	96
40067	2023-11-07T23:35:01	6.6	96
40068	2023-11-07T23:45:01	6.7	96
40069	2023-11-07T23:55:01	6.7	96
40070	2023-11-08T00:05:01	7.1	96
40071	2023-11-08T00:15:01	7.2	96
40072	2023-11-08T00:25:01	7.3	96
40073	2023-11-08T00:35:01	7.4	96
40074	2023-11-08T00:45:01	7.8	96
40075	2023-11-08T00:55:01	7.7	96
40076	2023-11-08T01:05:01	7.7	96
40077	2023-11-08T01:15:00	7.5	96
40078	2023-11-08T01:25:00	7.3	96
40079	2023-11-08T01:35:00	7.1	96
40080	2023-11-08T01:45:00	7.3	96
40081	2023-11-08T01:55:00	7.5	96.5
40082	2023-11-08T02:05:00	7.3	96
40083	2023-11-08T02:15:00	7.3	96.5
40084	2023-11-08T02:25:00	7.3	96
40085	2023-11-08T02:35:00	7.3	96.5
40086	2023-11-08T02:45:00	7.4	96
40087	2023-11-08T02:55:00	7.4	96.5
40088	2023-11-08T03:05:00	7.5	96
40089	2023-11-08T03:15:00	7.6	96
40090	2023-11-08T03:25:00	7.6	96
40091	2023-11-08T03:35:00	7.8	96
40092	2023-11-08T03:45:00	7.7	96
40093	2023-11-08T03:55:00	7.9	96.5
40094	2023-11-08T04:05:00	7.9	96
40095	2023-11-08T04:15:00	7.6	96
40096	2023-11-08T04:25:00	7.4	96
40097	2023-11-08T04:35:00	7.4	96
40098	2023-11-08T04:45:00	7.2	96
40099	2023-11-08T04:55:00	7.5	96
40100	2023-11-08T05:05:00	7.6	96
40101	2023-11-08T05:15:00	7.7	96
40102	2023-11-08T05:25:00	7.3	96
40103	2023-11-08T05:35:00	7.3	96
40104	2023-11-08T05:45:00	7.3	96
40105	2023-11-08T05:55:00	7.2	96
40106	2023-11-08T06:05:00	7.3	96
40107	2023-11-08T06:15:00	7.3	96
40108	2023-11-08T06:25:00	7.3	96
40109	2023-11-08T06:35:00	7.3	96
40110	2023-11-08T06:45:00	7.3	96
40111	2023-11-08T06:55:00	7.4	96
40112	2023-11-08T07:05:00	7.7	96
40113	2023-11-08T07:15:00	7.6	96
40114	2023-11-08T07:25:00	7.7	96
40115	2023-11-08T07:35:00	7.8	96
40116	2023-11-08T07:45:00	7.8	96
40117	2023-11-08T07:55:00	8.1	96
40118	2023-11-08T08:05:00	8.5	96
40119	2023-11-08T08:15:00	8.3	96
40120	2023-11-08T08:25:00	8.6	96
40121	2023-11-08T08:35:00	8.9	96
40122	2023-11-08T08:45:00	8.9	96
40123	2023-11-08T08:55:00	9.3	96
40124	2023-11-08T09:05:00	9.6	96
40125	2023-11-08T09:15:00	9.7	96
40126	2023-11-08T09:25:00	9.9	96
40127	2023-11-08T09:35:00	10.1	96
40128	2023-11-08T09:45:00	11.9	96
40129	2023-11-08T09:55:00	11.3	96
40130	2023-11-08T10:05:00	11.7	96.5
40131	2023-11-08T10:15:00	11.9	97
40132	2023-11-08T10:25:00	13.1	98.5
40133	2023-11-08T10:35:00	14.6	86
40134	2023-11-08T10:45:00	14.2	78
40135	2023-11-08T10:55:00	15.1	70
40136	2023-11-08T11:05:00	14.2	70
40137	2023-11-08T11:15:00	17.4	53.5
40138	2023-11-08T11:25:00	17.3	52.5
40139	2023-11-08T11:35:00	15.8	53.5
40140	2023-11-08T11:45:00	16.1	52.5
40141	2023-11-08T11:55:00	15.2	55
40142	2023-11-08T12:05:00	14.9	57
40143	2023-11-08T12:15:00	14.6	57
40144	2023-11-08T12:25:00	13.8	61.5
40145	2023-11-08T12:35:00	13.8	61
40146	2023-11-08T12:45:00	13.8	61.5
40147	2023-11-08T12:55:00	13.7	61.5
40148	2023-11-08T13:05:00	16.8	52
40149	2023-11-08T13:15:00	14.6	58
40150	2023-11-08T13:25:00	15	57
40151	2023-11-08T13:35:00	14.4	59.5
40152	2023-11-08T13:45:00	13.9	61.5
40153	2023-11-08T13:55:00	13.7	62
40154	2023-11-08T14:05:00	13.4	63
40155	2023-11-08T14:15:00	13.9	62
40156	2023-11-08T14:25:00	13.6	61.5
40157	2023-11-08T14:35:00	13	63.5
40158	2023-11-08T14:45:00	14.2	60
40159	2023-11-08T14:55:00	14.4	59.5
40160	2023-11-08T15:05:00	13.1	63
40161	2023-11-08T15:15:00	13.4	61
40162	2023-11-08T15:25:00	12.3	63
40163	2023-11-08T15:35:00	11.7	65
40164	2023-11-08T15:45:00	11.2	67.5
40165	2023-11-08T15:55:00	10.6	72
40166	2023-11-08T16:05:00	10	79
40167	2023-11-08T16:15:00	9.5	82
40168	2023-11-08T16:25:00	9.2	84.5
40169	2023-11-08T16:35:00	9	86
40170	2023-11-08T16:45:00	8.6	87
40171	2023-11-08T16:55:00	8.4	87.5
40172	2023-11-08T17:05:00	8.2	89
40173	2023-11-08T17:15:00	8	88
40174	2023-11-08T17:25:00	7.8	88.5
40175	2023-11-08T17:35:00	7.7	87
40176	2023-11-08T17:45:00	7.8	85.5
40177	2023-11-08T17:55:00	7.6	87
40178	2023-11-08T18:05:00	7.9	80.5
40179	2023-11-08T18:15:00	8.3	78
40180	2023-11-08T18:25:00	7.8	84
40181	2023-11-08T18:35:00	7.5	85
40182	2023-11-08T18:45:00	7	88
40183	2023-11-08T18:54:59	6.9	90
40184	2023-11-08T19:04:59	6.8	88
40185	2023-11-08T19:14:59	6.5	88.5
40186	2023-11-08T19:24:59	6.3	91
40187	2023-11-08T19:34:59	6.1	91
40188	2023-11-08T19:44:59	5.9	93
40189	2023-11-08T19:54:59	5.5	94.5
40190	2023-11-08T20:04:59	5.3	94.5
40191	2023-11-08T20:14:59	5.1	95.5
40192	2023-11-08T20:24:59	5	96
40193	2023-11-08T20:34:59	4.9	96.5
40194	2023-11-08T20:44:59	4.8	96.5
40195	2023-11-08T20:54:59	4.7	97
40196	2023-11-08T21:04:59	4.6	96.5
40197	2023-11-08T21:14:59	4.4	97
40198	2023-11-08T21:24:59	4.3	97.5
40199	2023-11-08T21:34:59	4.1	98
40200	2023-11-08T21:44:59	4	98
40201	2023-11-08T21:54:59	4	98
40202	2023-11-08T22:04:59	3.9	98
40203	2023-11-08T22:14:59	3.6	98.5
40204	2023-11-08T22:24:59	3.6	98.5
40205	2023-11-08T22:34:59	3.4	98.5
40206	2023-11-08T22:44:59	3.2	99
40207	2023-11-08T22:54:59	3.1	99.5
40208	2023-11-08T23:04:59	3.1	99.5
40209	2023-11-08T23:14:59	3.2	100
40210	2023-11-08T23:24:59	3	100
40211	2023-11-08T23:34:59	3.1	100
40212	2023-11-08T23:44:59	3	100
40213	2023-11-08T23:54:59	3	100
40214	2023-11-09T00:04:59	2.8	100
40215	2023-11-09T00:14:59	2.7	100
40216	2023-11-09T00:24:59	2.7	100
40217	2023-11-09T00:34:59	2.7	100
40218	2023-11-09T00:44:59	2.6	100
40219	2023-11-09T00:54:59	2.6	100
40220	2023-11-09T01:04:59	2.6	100
40221	2023-11-09T01:14:59	2.5	100
40222	2023-11-09T01:24:59	2.5	100
40223	2023-11-09T01:34:59	2.6	100
40224	2023-11-09T01:44:59	2.4	100
40225	2023-11-09T01:54:59	2.5	100
40226	2023-11-09T02:04:59	2.3	100
40227	2023-11-09T02:14:59	2.2	100
40228	2023-11-09T02:24:59	2.2	100
40229	2023-11-09T02:34:59	2.1	100
40230	2023-11-09T02:44:59	2	100
40231	2023-11-09T02:54:59	2	100
40232	2023-11-09T03:04:59	2	100
40233	2023-11-09T03:14:59	1.9	100
40234	2023-11-09T03:24:59	1.9	100
40235	2023-11-09T03:34:59	1.9	100
40236	2023-11-09T03:44:59	1.8	100
40237	2023-11-09T03:54:59	1.7	100
40238	2023-11-09T04:04:59	1.7	100
40239	2023-11-09T04:14:59	1.7	100
40240	2023-11-09T04:24:59	1.7	100
40241	2023-11-09T04:34:59	1.6	100
40242	2023-11-09T04:44:59	1.8	100
40243	2023-11-09T04:54:59	1.8	100
40244	2023-11-09T05:04:59	1.7	100
40245	2023-11-09T05:14:59	2	100
40246	2023-11-09T05:24:59	2	100
40247	2023-11-09T05:34:59	2.2	100
40248	2023-11-09T05:44:59	2.3	100
40249	2023-11-09T05:54:59	2.4	100
40250	2023-11-09T06:04:59	2.6	100
40251	2023-11-09T06:14:59	3	100
40252	2023-11-09T06:24:59	2.9	100
40253	2023-11-09T06:34:59	3	100
40254	2023-11-09T06:44:59	3.3	100
40255	2023-11-09T06:54:59	3.5	100
40256	2023-11-09T07:04:59	3.6	100
40257	2023-11-09T07:14:59	3.8	100
40258	2023-11-09T07:24:59	3.9	100
40259	2023-11-09T07:34:59	4.1	100
40260	2023-11-09T07:44:59	4.7	100
40261	2023-11-09T07:54:59	4.8	100
40262	2023-11-09T08:04:59	5	100
40263	2023-11-09T08:14:59	5.3	100
40264	2023-11-09T08:24:59	5.4	95.5
40265	2023-11-09T08:34:59	5.4	95.5
40266	2023-11-09T08:44:59	5.7	95.5
40267	2023-11-09T08:54:59	5.9	95.5
40268	2023-11-09T09:04:59	6.1	95.5
40269	2023-11-09T09:14:59	6.3	95.5
40270	2023-11-09T09:24:59	6.6	95.5
40271	2023-11-09T09:35:15	6.9	95.5
40272	2023-11-09T09:44:59	7.3	95.5
40273	2023-11-09T09:54:59	8.2	95.5
40274	2023-11-09T10:04:59	9	95.5
40275	2023-11-09T10:14:59	9.3	95.5
40276	2023-11-09T10:24:59	9.9	95.5
40277	2023-11-09T10:34:59	10.3	95.5
40278	2023-11-09T10:44:59	10.7	95.5
40279	2023-11-09T10:54:59	10.9	95.5
40280	2023-11-09T11:04:59	9.9	95.5
40281	2023-11-09T11:14:59	10.1	95.5
40282	2023-11-09T11:24:59	10	95.5
40283	2023-11-09T11:34:59	10	95.5
40284	2023-11-09T11:44:59	10.6	95.5
40285	2023-11-09T11:54:59	10.5	95.5
40286	2023-11-09T12:04:59	10.6	95.5
40287	2023-11-09T12:14:59	10.4	95.5
40288	2023-11-09T12:24:59	10.1	95.5
40289	2023-11-09T12:34:59	10.1	95.5
40290	2023-11-09T12:44:59	10.5	95.5
40291	2023-11-09T12:54:59	11.3	95.5
40292	2023-11-09T13:04:59	11.6	95
40293	2023-11-09T13:14:59	11.4	95.5
40294	2023-11-09T13:24:59	11.2	95.5
40295	2023-11-09T13:34:59	10.8	95.5
40296	2023-11-09T13:44:59	11	95.5
40297	2023-11-09T13:54:59	11.4	95.5
40298	2023-11-09T14:04:59	11.2	95.5
40299	2023-11-09T14:14:59	11.1	95.5
40300	2023-11-09T14:24:59	11	95.5
40301	2023-11-09T14:34:59	11	95.5
40302	2023-11-09T14:44:59	11.1	98
40303	2023-11-09T14:54:59	11	99
40304	2023-11-09T15:04:59	11	100
40305	2023-11-09T15:14:59	10.9	100
40306	2023-11-09T15:24:59	11	100
40307	2023-11-09T15:34:59	10.8	100
40308	2023-11-09T15:44:59	10.1	100
40309	2023-11-09T15:54:59	9.7	98
40310	2023-11-09T16:04:59	9.4	96.5
40311	2023-11-09T16:14:59	9.3	95.5
40312	2023-11-09T16:24:59	9.1	96.5
40313	2023-11-09T16:34:59	8.6	99
40314	2023-11-09T16:44:59	8.3	100
40315	2023-11-09T16:54:59	8.1	99
40316	2023-11-09T17:04:59	7.9	100
40317	2023-11-09T17:14:59	7.5	100
40318	2023-11-09T17:24:59	7.5	100
40319	2023-11-09T17:34:59	7.4	100
40320	2023-11-09T17:44:59	8	94.5
40321	2023-11-09T17:54:59	7.5	95
40322	2023-11-09T18:04:59	7.1	98
40323	2023-11-09T18:14:59	7.5	95
40324	2023-11-09T18:24:59	7	98.5
40325	2023-11-09T18:34:59	7.5	97.5
40326	2023-11-09T18:44:59	7.3	98.5
40327	2023-11-09T18:54:59	6.7	100
40328	2023-11-09T19:04:59	7.4	96.5
40329	2023-11-09T19:14:59	8.2	90.5
40330	2023-11-09T19:24:59	8.8	86.5
40331	2023-11-09T19:34:59	9.5	81.5
40332	2023-11-09T19:44:58	9.6	81
40333	2023-11-09T19:54:59	9.7	81
40334	2023-11-09T20:04:58	9.6	82
40335	2023-11-09T20:14:58	10.3	80.5
40336	2023-11-09T20:24:58	10.4	81
40337	2023-11-09T20:34:58	10.6	81
40338	2023-11-09T20:44:58	10.2	88
40339	2023-11-09T20:54:58	10.2	90
40340	2023-11-09T21:04:58	10.5	85.5
40341	2023-11-09T21:14:58	10.7	81.5
40342	2023-11-09T21:24:58	10.8	80.5
40343	2023-11-09T21:34:58	10.7	91.5
40344	2023-11-09T21:44:58	9.1	100
40345	2023-11-09T21:54:58	8.1	98
40346	2023-11-09T22:04:58	7.6	97
40347	2023-11-09T22:14:58	7.3	97
40348	2023-11-09T22:24:58	7.4	97
40349	2023-11-09T22:34:58	7.2	97
40350	2023-11-09T22:44:58	7.3	97
40351	2023-11-09T22:54:58	7.4	97
40352	2023-11-09T23:04:58	7.3	97
40353	2023-11-09T23:14:58	7.3	97
40354	2023-11-09T23:24:58	7.2	97.5
40355	2023-11-09T23:34:58	7.5	97.5
40356	2023-11-09T23:44:58	7.7	97.5
40357	2023-11-09T23:54:58	7.8	97.5
40358	2023-11-10T00:04:58	8	97.5
40359	2023-11-10T00:14:58	7.9	97.5
40360	2023-11-10T00:24:58	7.9	97.5
40361	2023-11-10T00:34:58	7.9	97.5
40362	2023-11-10T00:44:58	7.8	97.5
40363	2023-11-10T00:54:58	7.8	97.5
40364	2023-11-10T01:04:58	7.8	97.5
40365	2023-11-10T01:14:58	7.6	97.5
40366	2023-11-10T01:24:58	7.5	97.5
40367	2023-11-10T01:34:58	7.5	97.5
40368	2023-11-10T01:44:58	7.4	97.5
40369	2023-11-10T01:54:58	7.4	97.5
40370	2023-11-10T02:04:58	7.6	97.5
40371	2023-11-10T02:14:58	7.5	97.5
40372	2023-11-10T02:24:58	7.6	97.5
40373	2023-11-10T02:34:58	7.7	97.5
40374	2023-11-10T02:44:58	7.7	97.5
40375	2023-11-10T02:54:58	7.7	97.5
40376	2023-11-10T03:04:58	7.7	97.5
40377	2023-11-10T03:14:58	7.8	97.5
40378	2023-11-10T03:24:58	7.7	97.5
40379	2023-11-10T03:34:58	7.7	97.5
40380	2023-11-10T03:44:59	7.6	97.5
40381	2023-11-10T03:54:58	7.7	97.5
40382	2023-11-10T04:04:58	7.7	97.5
40383	2023-11-10T04:14:58	7.6	97.5
40384	2023-11-10T04:24:58	7.4	97.5
40385	2023-11-10T04:34:58	7.4	97.5
40386	2023-11-10T04:44:58	7.4	97.5
40387	2023-11-10T04:54:58	7.4	97.5
40388	2023-11-10T05:04:58	7.3	97.5
40389	2023-11-10T05:14:58	7.4	97.5
40390	2023-11-10T05:24:58	7.5	97.5
40391	2023-11-10T05:34:58	7.5	97.5
40392	2023-11-10T05:44:58	7.5	97.5
40393	2023-11-10T05:54:58	7.3	97.5
40394	2023-11-10T06:04:58	7.2	97.5
40395	2023-11-10T06:14:58	7.2	97.5
40396	2023-11-10T06:24:58	7	97.5
40397	2023-11-10T06:34:58	6.9	97.5
40398	2023-11-10T06:44:58	6.8	97.5
40399	2023-11-10T06:54:58	7.1	97.5
40400	2023-11-10T07:04:58	7.4	97
40401	2023-11-10T07:14:58	7.5	97.5
40402	2023-11-10T07:24:58	7.6	97.5
40403	2023-11-10T07:34:58	7.7	97
40404	2023-11-10T07:44:58	7.8	97
40405	2023-11-10T07:54:58	7.8	97
40406	2023-11-10T08:04:58	8	97
40407	2023-11-10T08:14:58	8	97
40408	2023-11-10T08:24:58	8.2	97
40409	2023-11-10T08:34:58	8.2	97
40410	2023-11-10T08:44:58	8.6	97
40411	2023-11-10T08:54:58	8.6	97
40412	2023-11-10T09:04:58	8.9	97
40413	2023-11-10T09:14:58	9.1	97
40414	2023-11-10T09:24:58	9.5	97
40415	2023-11-10T09:34:58	9.5	97
40416	2023-11-10T09:44:58	9.7	97
40417	2023-11-10T09:54:58	9.6	97
40418	2023-11-10T10:04:58	9.6	96.5
40419	2023-11-10T10:14:58	9.9	96.5
40420	2023-11-10T10:24:58	9.8	96.5
40421	2023-11-10T10:34:58	11.4	96.5
40422	2023-11-10T10:44:58	9.8	96.5
40423	2023-11-10T10:54:58	9.5	96.5
40424	2023-11-10T11:04:58	9.6	96.5
40425	2023-11-10T11:24:58	9.9	96.5
40426	2023-11-10T11:34:58	11.7	96.5
40427	2023-11-10T11:44:58	13.2	96.5
40428	2023-11-10T11:54:58	11.2	96
40429	2023-11-10T12:04:58	11.5	96
40430	2023-11-10T12:14:58	11.9	96
40431	2023-11-10T12:24:58	11.6	96
40432	2023-11-10T12:34:58	13.1	96
40433	2023-11-10T12:44:58	11.7	96.5
40434	2023-11-10T12:54:58	11.4	96
40435	2023-11-10T13:04:58	11.1	96.5
40436	2023-11-10T13:14:58	11	96
40437	2023-11-10T13:24:58	10.9	96
40438	2023-11-10T13:34:58	10.9	96
40439	2023-11-10T13:44:58	10.8	96
40440	2023-11-10T13:54:57	14.9	96
40441	2023-11-10T14:04:58	11.3	96
40442	2023-11-10T14:14:57	14	96.5
40443	2023-11-10T14:24:57	12	97.5
40444	2023-11-10T14:34:57	10.8	98.5
40445	2023-11-10T14:44:57	10.5	100
40446	2023-11-10T14:54:57	9.6	100
40447	2023-11-10T15:04:57	8.7	100
40448	2023-11-10T15:14:57	8.1	100
40449	2023-11-10T15:24:57	8.2	100
40450	2023-11-10T15:34:57	7.6	100
40451	2023-11-10T15:44:57	7.6	100
40452	2023-11-10T15:54:57	7.4	100
40453	2023-11-10T16:04:57	7.9	100
40454	2023-11-10T16:14:57	7.6	100
40455	2023-11-10T16:24:57	7.5	100
40456	2023-11-10T16:34:57	7.5	100
40457	2023-11-10T16:44:57	7.2	100
40458	2023-11-10T16:54:57	7.4	100
40459	2023-11-10T17:04:57	7.4	100
40460	2023-11-10T17:14:57	7.4	100
40461	2023-11-10T17:24:57	7.6	100
40462	2023-11-10T17:34:57	7	100
40463	2023-11-10T17:44:57	7.2	100
40464	2023-11-10T17:54:57	7.1	100
40465	2023-11-10T18:04:57	7.3	100
40466	2023-11-10T18:14:57	7.1	100
40467	2023-11-10T18:24:57	6.9	100
40468	2023-11-10T18:34:57	6.7	100
40469	2023-11-10T18:44:57	6.6	100
40470	2023-11-10T18:54:57	6.9	100
40471	2023-11-10T19:04:57	6.8	100
40472	2023-11-10T19:14:57	6.9	100
40473	2023-11-10T19:24:57	6.8	100
40474	2023-11-10T19:34:57	7.2	100
40475	2023-11-10T19:44:57	7.3	100
40476	2023-11-10T19:54:57	7.5	100
40477	2023-11-10T20:04:57	7.4	100
40478	2023-11-10T20:14:57	7.4	100
40479	2023-11-10T20:24:57	7.4	100
40480	2023-11-10T20:34:57	7.4	100
40481	2023-11-10T20:44:57	7.5	100
40482	2023-11-10T20:54:57	6.9	100
40483	2023-11-10T21:04:57	6.9	100
40484	2023-11-10T21:14:57	7	100
40485	2023-11-10T21:24:57	6.8	100
40486	2023-11-10T21:34:57	6.9	100
40487	2023-11-10T21:44:57	7.1	100
40488	2023-11-10T21:54:57	7.1	100
40489	2023-11-10T22:04:57	6.9	100
40490	2023-11-10T22:14:57	6.9	100
40491	2023-11-10T22:24:57	7	100
40492	2023-11-10T22:34:57	7.1	100
40493	2023-11-10T22:44:57	7	100
40494	2023-11-10T22:54:57	6.8	100
40495	2023-11-10T23:04:57	7	100
40496	2023-11-10T23:14:57	6.7	100
40497	2023-11-10T23:24:57	6.9	100
40498	2023-11-10T23:34:57	7.1	100
40499	2023-11-10T23:44:57	6.9	100
40500	2023-11-10T23:54:57	6.9	100
40501	2023-11-11T00:04:57	7	100
40502	2023-11-11T00:14:57	7.1	100
40503	2023-11-11T00:24:57	7	100
40504	2023-11-11T00:34:57	7.2	100
40505	2023-11-11T00:44:57	7.4	100
40506	2023-11-11T00:54:57	7.5	99.5
40507	2023-11-11T01:04:57	7	99
40508	2023-11-11T01:14:57	7	98.5
40509	2023-11-11T01:24:57	7.1	98.5
40510	2023-11-11T01:34:57	7.1	98
40511	2023-11-11T01:44:57	6.9	97.5
40512	2023-11-11T01:54:57	6.7	97
40513	2023-11-11T02:04:57	6.7	97
40514	2023-11-11T02:14:57	6.9	97
40515	2023-11-11T02:24:57	7.2	96.5
40516	2023-11-11T02:34:57	7.2	96.5
40517	2023-11-11T02:44:57	7.4	96.5
40518	2023-11-11T02:54:57	7.2	96.5
40519	2023-11-11T03:04:57	7.2	96.5
40520	2023-11-11T03:14:57	7.3	97
40521	2023-11-11T03:24:57	7.2	97
40522	2023-11-11T03:34:57	7.1	96.5
40523	2023-11-11T03:44:57	6.7	97
40524	2023-11-11T03:54:57	6.6	96.5
40525	2023-11-11T04:04:57	6.6	96.5
40526	2023-11-11T04:14:57	6.6	96.5
40527	2023-11-11T04:24:57	6.7	97
40528	2023-11-11T04:34:57	6.5	96.5
40529	2023-11-11T04:44:57	6.3	96.5
40530	2023-11-11T04:54:57	6.2	96.5
40531	2023-11-11T05:04:57	5.9	96.5
40532	2023-11-11T05:14:57	6.1	96.5
40533	2023-11-11T05:24:57	6.1	96.5
40534	2023-11-11T05:34:57	6.3	96.5
40535	2023-11-11T05:44:57	6.5	96.5
40536	2023-11-11T05:54:57	6.3	96.5
40537	2023-11-11T06:04:57	6.2	96.5
40538	2023-11-11T06:14:57	6.3	96.5
40539	2023-11-11T06:24:57	6.6	96.5
40540	2023-11-11T06:34:57	6.4	96.5
40541	2023-11-11T06:44:57	6.4	96.5
40542	2023-11-11T06:54:57	6.6	96.5
40543	2023-11-11T07:04:57	6.6	96.5
40544	2023-11-11T07:14:57	6.7	96.5
40545	2023-11-11T07:24:57	6.7	96.5
40546	2023-11-11T07:34:57	6.8	96.5
40547	2023-11-11T07:44:57	6.8	96.5
40548	2023-11-11T07:54:57	6.9	96.5
40549	2023-11-11T08:04:57	6.9	96.5
40550	2023-11-11T08:14:57	7	96.5
40551	2023-11-11T08:24:57	7.1	96.5
40552	2023-11-11T08:34:57	7	96.5
40553	2023-11-11T08:44:57	6.8	96.5
40554	2023-11-11T08:54:57	6.9	96.5
40555	2023-11-11T09:04:57	7.3	96.5
40556	2023-11-11T09:14:57	7.6	96.5
40557	2023-11-11T09:24:57	7.9	96.5
40558	2023-11-11T09:34:57	9.4	96.5
40559	2023-11-11T09:44:57	9.4	96.5
40560	2023-11-11T09:54:57	9.3	96.5
40561	2023-11-11T10:04:57	9.7	96.5
40562	2023-11-11T10:14:57	9.3	96.5
40563	2023-11-11T10:24:57	9	96.5
40564	2023-11-11T10:34:57	8.6	96.5
40565	2023-11-11T10:44:57	9	96.5
40566	2023-11-11T10:54:56	12	96
40567	2023-11-11T11:04:56	9.1	96.5
40568	2023-11-11T11:14:56	8.6	96.5
40569	2023-11-11T11:24:56	11.6	96.5
40570	2023-11-11T11:34:56	10.9	96
40571	2023-11-11T11:44:56	12.9	96
40572	2023-11-11T11:54:56	13.4	96
40573	2023-11-11T12:04:56	11.5	96.5
40574	2023-11-11T12:14:56	11.6	96.5
40575	2023-11-11T12:24:56	14.9	96
40576	2023-11-11T12:34:56	15.4	96.5
40577	2023-11-11T12:44:56	12.3	96.5
40578	2023-11-11T12:54:56	13.5	96.5
40579	2023-11-11T13:04:56	11.6	96
40580	2023-11-11T13:14:56	10.7	96
40581	2023-11-11T13:24:56	10.1	96
40582	2023-11-11T13:34:56	9.9	96.5
40583	2023-11-11T13:44:56	9.7	99
40584	2023-11-11T13:54:56	10.2	99
40585	2023-11-11T14:04:56	12.3	98.5
40586	2023-11-11T14:14:56	10.6	99
40587	2023-11-11T14:24:56	11.5	99
40588	2023-11-11T14:34:56	11.2	99
40589	2023-11-11T14:44:56	10.6	99
40590	2023-11-11T14:54:56	9.5	99
40591	2023-11-11T15:04:56	10	100
40592	2023-11-11T15:14:56	9.6	97
40593	2023-11-11T15:24:56	9.7	80.5
40594	2023-11-11T15:34:56	9.1	71.5
40595	2023-11-11T15:44:56	9	71.5
40596	2023-11-11T15:54:56	8.5	72.5
40597	2023-11-11T16:04:56	8.4	72.5
40598	2023-11-11T16:14:56	8	74.5
40599	2023-11-11T16:24:56	7.4	76
40600	2023-11-11T16:34:56	7.5	76
40601	2023-11-11T16:44:56	7.3	77.5
40602	2023-11-11T16:54:56	6.9	80
40603	2023-11-11T17:04:56	6.8	82
40604	2023-11-11T17:14:56	6.8	83
40605	2023-11-11T17:24:56	6.7	84.5
40606	2023-11-11T17:34:56	6.4	85.5
40607	2023-11-11T17:44:56	6.2	85.5
40608	2023-11-11T17:54:56	6.3	84.5
40609	2023-11-11T18:04:56	6.1	84.5
40610	2023-11-11T18:14:56	6	85.5
40611	2023-11-11T18:24:56	5.7	87.5
40612	2023-11-11T18:34:56	5.6	88.5
40613	2023-11-11T18:44:56	6	85.5
40614	2023-11-11T18:54:56	6.1	85
40615	2023-11-11T19:04:56	5.8	86.5
40616	2023-11-11T19:14:56	5.6	88.5
40617	2023-11-11T19:24:56	5.9	88
40618	2023-11-11T19:34:56	6.1	88
40619	2023-11-11T19:44:56	6.3	94
40620	2023-11-11T19:54:56	6.3	95
40621	2023-11-11T20:04:56	6.3	95.5
40622	2023-11-11T20:14:56	6.6	95
40623	2023-11-11T20:24:56	6.3	98.5
40624	2023-11-11T20:34:56	6	100
40625	2023-11-11T20:44:56	6	100
40626	2023-11-11T20:54:56	5.6	100
40627	2023-11-11T21:04:56	5.3	100
40628	2023-11-11T21:14:56	5.3	100
40629	2023-11-11T21:24:56	5.3	100
40630	2023-11-11T21:34:56	5.1	100
40631	2023-11-11T21:44:56	5.1	100
40632	2023-11-11T21:54:56	5.2	100
40633	2023-11-11T22:04:56	5.2	100
40634	2023-11-11T22:14:56	5.1	100
40635	2023-11-11T22:24:56	5	100
40636	2023-11-11T22:34:56	5	100
40637	2023-11-11T22:44:56	5	100
40638	2023-11-11T22:54:56	4.8	100
40639	2023-11-11T23:04:56	4.3	100
40640	2023-11-11T23:14:56	4.4	100
40641	2023-11-11T23:24:56	4.4	100
40642	2023-11-11T23:35:17	4.5	100
40643	2023-11-11T23:44:56	4.5	100
40644	2023-11-11T23:54:56	4.7	100
40645	2023-11-12T00:04:56	4.6	100
40646	2023-11-12T00:14:56	4.8	100
40647	2023-11-12T00:24:56	4.8	100
40648	2023-11-12T00:34:56	4.9	100
40649	2023-11-12T00:44:56	4.9	100
40650	2023-11-12T00:54:56	4.9	100
40651	2023-11-12T01:04:56	5	100
40652	2023-11-12T01:14:56	4.8	100
40653	2023-11-12T01:24:56	4.9	100
40654	2023-11-12T01:34:56	4.9	100
40655	2023-11-12T01:44:56	4.9	100
40656	2023-11-12T01:54:56	4.9	100
40657	2023-11-12T02:04:56	4.4	100
40658	2023-11-12T02:14:56	3.9	100
40659	2023-11-12T02:24:56	3.8	100
40660	2023-11-12T02:34:56	3.6	100
40661	2023-11-12T02:44:56	3.5	100
40662	2023-11-12T02:54:56	3.2	100
40663	2023-11-12T03:04:56	3.1	100
40664	2023-11-12T03:14:56	3.1	100
40665	2023-11-12T03:24:56	3.1	100
40666	2023-11-12T03:34:56	3.1	100
40667	2023-11-12T03:44:56	3.1	100
40668	2023-11-12T03:54:56	3	100
40669	2023-11-12T04:04:56	2.8	100
40670	2023-11-12T04:14:56	2.8	100
40671	2023-11-12T04:24:56	2.6	100
40672	2023-11-12T04:34:56	2.7	100
40673	2023-11-12T04:44:56	2.6	100
40674	2023-11-12T04:54:56	2.5	100
40675	2023-11-12T05:04:56	2.6	100
40676	2023-11-12T05:14:56	2.4	100
40677	2023-11-12T05:24:56	2.4	100
40678	2023-11-12T05:34:56	2.3	100
40679	2023-11-12T05:44:56	2.3	100
40680	2023-11-12T05:54:56	2.5	100
40681	2023-11-12T06:04:56	2.3	100
40682	2023-11-12T06:14:56	2.3	100
40683	2023-11-12T06:24:56	2.3	100
40684	2023-11-12T06:34:56	2.4	100
40685	2023-11-12T06:44:56	2.2	100
40686	2023-11-12T06:54:56	2.2	100
40687	2023-11-12T07:04:56	2.3	100
40688	2023-11-12T07:14:56	2.3	100
40689	2023-11-12T07:24:56	2.5	100
40690	2023-11-12T07:34:56	2.7	100
40691	2023-11-12T07:44:56	2.9	100
40692	2023-11-12T07:54:56	3	100
40693	2023-11-12T08:04:56	3.3	100
40694	2023-11-12T08:14:56	3.5	100
40695	2023-11-12T08:24:56	3.7	100
40696	2023-11-12T08:34:56	4	100
40697	2023-11-12T08:44:56	4.1	100
40698	2023-11-12T08:54:56	4.4	100
40699	2023-11-12T09:04:56	4.8	100
40700	2023-11-12T09:14:56	5.2	100
40701	2023-11-12T09:24:56	6	100
40702	2023-11-12T09:34:56	6.2	100
40703	2023-11-12T09:44:56	6.1	100
40704	2023-11-12T09:54:56	6.1	100
40705	2023-11-12T10:04:56	6.3	100
40706	2023-11-12T10:14:56	6.5	100
40707	2023-11-12T10:24:56	6.5	100
40708	2023-11-12T10:34:56	6.6	100
40709	2023-11-12T10:44:56	6.9	100
40710	2023-11-12T10:54:56	7	100
40711	2023-11-12T11:04:56	7	100
40712	2023-11-12T11:14:56	7	98
40713	2023-11-12T11:24:56	7.1	97.5
40714	2023-11-12T11:34:56	7.4	96
40715	2023-11-12T11:44:55	7.9	93.5
40716	2023-11-12T11:54:56	8.3	92.5
40717	2023-11-12T12:04:55	8.7	91.5
40718	2023-11-12T12:14:55	8.9	87.5
40719	2023-11-12T12:24:55	9	87.5
40720	2023-11-12T12:34:55	8.6	89.5
40721	2023-11-12T12:44:55	8.6	91
40722	2023-11-12T12:54:55	8.6	88.5
40723	2023-11-12T13:04:55	8.4	91
40724	2023-11-12T13:14:55	8.3	90.5
40725	2023-11-12T13:24:55	8.2	92.5
40726	2023-11-12T13:34:55	8.1	93
40727	2023-11-12T13:44:55	8.1	94
40728	2023-11-12T13:54:55	8	93.5
40729	2023-11-12T14:04:55	7.7	93.5
40730	2023-11-12T14:14:55	7.5	98.5
40731	2023-11-12T14:24:55	7.3	99
40732	2023-11-12T14:34:55	7.1	100
40733	2023-11-12T14:44:55	7.2	100
40734	2023-11-12T14:54:55	7.2	100
40735	2023-11-12T15:04:55	7.2	100
40736	2023-11-12T15:14:55	7.1	100
40737	2023-11-12T15:24:55	7	100
40738	2023-11-12T15:34:55	7	100
40739	2023-11-12T15:44:55	7	100
40740	2023-11-12T15:54:55	6.8	100
40741	2023-11-12T16:04:55	6.8	100
40742	2023-11-12T16:14:55	6.6	100
40743	2023-11-12T16:24:55	6.5	100
40744	2023-11-12T16:34:55	6.5	100
40745	2023-11-12T16:44:55	6.4	100
40746	2023-11-12T16:54:55	6.4	100
40747	2023-11-12T17:04:55	6.4	100
40748	2023-11-12T17:14:55	6.3	100
40749	2023-11-12T17:24:55	6.4	100
40750	2023-11-12T17:34:55	6.5	100
40751	2023-11-12T17:44:55	6.3	100
40752	2023-11-12T17:54:55	6.2	100
40753	2023-11-12T18:04:55	6.3	100
40754	2023-11-12T18:14:55	6.2	100
40755	2023-11-12T18:24:55	6.3	100
40756	2023-11-12T18:34:55	6.2	100
40757	2023-11-12T18:44:55	6.2	100
40758	2023-11-12T18:54:55	6.3	99
40759	2023-11-12T19:04:55	6.2	98.5
40760	2023-11-12T19:14:55	6.2	98
40761	2023-11-12T19:24:55	6.2	97.5
40762	2023-11-12T19:34:55	6.2	96.5
40763	2023-11-12T19:44:55	6.3	96
40764	2023-11-12T19:54:55	6.2	96
40765	2023-11-12T20:04:55	6.1	96
40766	2023-11-12T20:14:55	6.2	96
40767	2023-11-12T20:24:55	6.1	96
40768	2023-11-12T20:34:55	6.1	96
40769	2023-11-12T20:44:55	6	96
40770	2023-11-12T20:54:55	6	96
40771	2023-11-12T21:04:55	6	96
40772	2023-11-12T21:14:55	6.1	96
40773	2023-11-12T21:24:55	6.1	96
40774	2023-11-12T21:34:55	6	96
40775	2023-11-12T21:44:55	6.2	96
40776	2023-11-12T21:54:55	6.2	96
40777	2023-11-12T22:04:55	6.3	96
40778	2023-11-12T22:14:55	6.3	96
40779	2023-11-12T22:24:55	6.3	96
40780	2023-11-12T22:34:55	6.4	96
40781	2023-11-12T22:44:55	6.5	96
40782	2023-11-12T22:54:55	6.5	96
40783	2023-11-12T23:04:55	6.6	96
40784	2023-11-12T23:14:55	6.7	96
40785	2023-11-12T23:24:55	6.7	96
40786	2023-11-12T23:34:55	6.7	96
40787	2023-11-12T23:44:55	6.7	96
40788	2023-11-12T23:54:55	6.9	96
40789	2023-11-13T00:04:55	6.9	96.5
40790	2023-11-13T00:14:55	7	96
40791	2023-11-13T00:24:55	6.8	96
40792	2023-11-13T00:34:55	7	96.5
40793	2023-11-13T00:54:55	7	96.5
40794	2023-11-13T01:04:55	7.1	96.5
40795	2023-11-13T01:14:55	7.2	96.5
40796	2023-11-13T01:24:55	7.2	96.5
40797	2023-11-13T01:34:55	7.3	96.5
40798	2023-11-13T01:44:55	7.4	96.5
40799	2023-11-13T01:54:55	7.4	96.5
40800	2023-11-13T02:04:55	7.5	96.5
40801	2023-11-13T02:14:55	7.5	96.5
40802	2023-11-13T02:24:55	7.7	96.5
40803	2023-11-13T02:34:55	7.6	96.5
40804	2023-11-13T02:44:55	9.4	96.5
40805	2023-11-13T02:54:55	10.1	96.5
40806	2023-11-13T03:04:55	10.5	96
40807	2023-11-13T03:14:55	10.6	96.5
40808	2023-11-13T03:24:55	10.8	96.5
40809	2023-11-13T03:34:55	11	96.5
40810	2023-11-13T03:44:55	11	96.5
40811	2023-11-13T03:54:55	11.1	96.5
40812	2023-11-13T04:04:55	11.1	96
40813	2023-11-13T04:14:55	11.2	96
40814	2023-11-13T04:24:55	11	96
40815	2023-11-13T04:34:55	11.1	96
40816	2023-11-13T04:44:55	11.3	96.5
40817	2023-11-13T04:54:55	11.5	96.5
40818	2023-11-13T05:04:55	11.4	96.5
40819	2023-11-13T05:14:55	11.3	96.5
40820	2023-11-13T05:24:55	11.4	96
40821	2023-11-13T05:34:55	11.3	96.5
40822	2023-11-13T05:44:55	11	96.5
40823	2023-11-13T05:54:55	10.9	96.5
40824	2023-11-13T06:04:55	10.9	96
40825	2023-11-13T06:14:55	10.8	96.5
40826	2023-11-13T06:24:55	10.9	96
40827	2023-11-13T06:34:55	10.9	96.5
40828	2023-11-13T06:44:55	10.6	96.5
40829	2023-11-13T06:54:55	10.5	96.5
40830	2023-11-13T07:04:55	10.4	96.5
40831	2023-11-13T07:14:55	10.4	96.5
40832	2023-11-13T07:24:55	10.3	96
40833	2023-11-13T07:34:54	10.3	96.5
40834	2023-11-13T07:44:55	10.2	96.5
40835	2023-11-13T07:54:54	10.2	96
40836	2023-11-13T08:04:54	10.2	96
40837	2023-11-13T08:14:54	10.2	96.5
40838	2023-11-13T08:24:54	10.4	96.5
40839	2023-11-13T08:34:54	10.5	96.5
40840	2023-11-13T08:44:54	10.5	96.5
40841	2023-11-13T08:54:54	10.6	96.5
40842	2023-11-13T09:04:54	10.7	96.5
40843	2023-11-13T09:14:54	11.5	96.5
40844	2023-11-13T09:24:54	12	96.5
40845	2023-11-13T09:34:54	12.4	96.5
40846	2023-11-13T09:44:54	12.5	96.5
40847	2023-11-13T09:54:54	12.6	96.5
40848	2023-11-13T10:04:54	12.5	96.5
40849	2023-11-13T10:14:54	12.7	96.5
40850	2023-11-13T10:24:54	13.1	96.5
40851	2023-11-13T10:34:54	13.3	96.5
40852	2023-11-13T10:44:54	13.4	96.5
40853	2023-11-13T10:54:54	13	96.5
40854	2023-11-13T11:04:54	12.9	96.5
40855	2023-11-13T11:14:54	13	96.5
40856	2023-11-13T11:24:54	13	96.5
40857	2023-11-13T11:34:54	13.2	97
40858	2023-11-13T11:44:54	13.4	96.5
40859	2023-11-13T11:54:54	13.9	96.5
40860	2023-11-13T12:04:54	14.1	96.5
40861	2023-11-13T12:14:54	14.1	96.5
40862	2023-11-13T12:24:54	14.2	96.5
40863	2023-11-13T12:34:54	14.4	96.5
40864	2023-11-13T12:44:54	14.5	96.5
40865	2023-11-13T12:54:54	14.1	96.5
40866	2023-11-13T13:04:54	13.9	96.5
40867	2023-11-13T13:14:54	14.2	96.5
40868	2023-11-13T13:24:54	14.5	96.5
40869	2023-11-13T13:34:54	14.3	96.5
40870	2023-11-13T13:44:54	14.8	96.5
40871	2023-11-13T13:54:54	14.5	96.5
40872	2023-11-13T14:04:54	14.2	96.5
40873	2023-11-13T14:14:54	14.8	96.5
40874	2023-11-13T14:24:54	13.8	96.5
40875	2023-11-13T14:34:54	13.8	96.5
40876	2023-11-13T14:44:54	13.6	96.5
40877	2023-11-13T14:54:54	13.9	96.5
40878	2023-11-13T15:04:54	14.3	96.5
40879	2023-11-13T15:14:54	14	96.5
40880	2023-11-13T15:24:54	13.8	96.5
40881	2023-11-13T15:34:54	13.8	96.5
40882	2023-11-13T15:44:54	13.7	96
40883	2023-11-13T15:54:54	13.8	96.5
40884	2023-11-13T16:04:54	13.8	96.5
40885	2023-11-13T16:14:54	14	96.5
40886	2023-11-13T16:24:54	14.1	96.5
40887	2023-11-13T16:34:54	14.3	96.5
40888	2023-11-13T16:44:54	14.8	96.5
40889	2023-11-13T16:54:54	15.1	96.5
40890	2023-11-13T17:04:54	14.1	96
40891	2023-11-13T17:14:54	14.1	96
40892	2023-11-13T17:24:54	14.1	96.5
40893	2023-11-13T17:34:54	14.1	96
40894	2023-11-13T17:44:54	14.2	96
40895	2023-11-13T17:54:54	14.5	96
40896	2023-11-13T18:04:54	14.5	96
40897	2023-11-13T18:14:54	14.5	96.5
40898	2023-11-13T18:24:54	14.7	96
40899	2023-11-13T18:34:54	15.1	96
40900	2023-11-13T18:44:54	15.3	96
40901	2023-11-13T18:54:54	15.5	96
40902	2023-11-13T19:04:54	15.6	96
40903	2023-11-13T19:14:54	15.6	96
40904	2023-11-13T19:24:54	15.7	96
40905	2023-11-13T19:34:54	15.6	96
40906	2023-11-13T19:44:54	14.8	96
40907	2023-11-13T19:54:54	14.7	96
40908	2023-11-13T20:04:54	14.9	96
40909	2023-11-13T20:14:54	15.1	96
40910	2023-11-13T20:24:54	15.4	96
40911	2023-11-13T20:34:54	14.9	96
40912	2023-11-13T20:44:54	13.7	99
40913	2023-11-13T20:54:53	13.5	99
40914	2023-11-13T21:04:54	13.3	99
40915	2023-11-13T21:14:53	13.1	99
40916	2023-11-13T21:24:53	12.9	99
40917	2023-11-13T21:34:53	12.9	99
40918	2023-11-13T21:44:53	12.9	99
40919	2023-11-13T21:54:53	12.8	100
40920	2023-11-13T22:04:53	12.6	100
40921	2023-11-13T22:14:53	12.7	100
40922	2023-11-13T22:24:53	12.7	99.5
40923	2023-11-13T22:34:53	12.7	96.5
40924	2023-11-13T22:44:53	12.6	95
40925	2023-11-13T22:54:53	12.6	93.5
40926	2023-11-13T23:04:53	12.5	92
40927	2023-11-13T23:14:53	12.4	92.5
40928	2023-11-13T23:24:53	12.3	92.5
40929	2023-11-13T23:34:53	12.3	92
40930	2023-11-13T23:44:53	12.5	90.5
40931	2023-11-13T23:54:53	12.4	92
40932	2023-11-14T00:04:53	12.4	92.5
40933	2023-11-14T00:14:53	12.5	91.5
40934	2023-11-14T00:24:54	12.5	91.5
40935	2023-11-14T00:34:53	12.5	90.5
40936	2023-11-14T00:44:53	12.5	90
40937	2023-11-14T00:54:53	12.4	88.5
40938	2023-11-14T01:04:53	12.3	87.5
40939	2023-11-14T01:14:53	12.4	87.5
40940	2023-11-14T01:24:53	12.2	87
40941	2023-11-14T01:34:53	12.2	87.5
40942	2023-11-14T01:44:53	12	87.5
40943	2023-11-14T01:54:53	12	86.5
40944	2023-11-14T02:04:53	12	86.5
40945	2023-11-14T02:14:53	11.8	86
40946	2023-11-14T02:24:53	11.8	85
40947	2023-11-14T02:34:53	11.8	85
40948	2023-11-14T02:44:53	11.7	85
40949	2023-11-14T02:54:53	11.8	86
40950	2023-11-14T03:04:53	11.8	86.5
40951	2023-11-14T03:14:53	11.9	87
40952	2023-11-14T03:24:53	11.8	86.5
40953	2023-11-14T03:34:53	11.9	86.5
40954	2023-11-14T03:44:53	11.9	86
40955	2023-11-14T03:54:53	12.1	85
40956	2023-11-14T04:04:53	12.1	85
40957	2023-11-14T04:14:53	12.2	85
40958	2023-11-14T04:24:53	12	84.5
40959	2023-11-14T04:34:53	12.1	83.5
40960	2023-11-14T04:44:53	12.1	83.5
40961	2023-11-14T04:54:53	12.1	84
40962	2023-11-14T05:04:53	12	83.5
40963	2023-11-14T05:14:53	12.1	82.5
40964	2023-11-14T05:24:53	12.1	82.5
40965	2023-11-14T05:34:53	12.1	83.5
40966	2023-11-14T05:44:53	12	83.5
40967	2023-11-14T05:54:53	12	83.5
40968	2023-11-14T06:04:53	11.9	83.5
40969	2023-11-14T06:14:53	11.9	82.5
40970	2023-11-14T06:24:53	12	82
40971	2023-11-14T06:34:53	11.9	81
40972	2023-11-14T06:44:53	12	80.5
40973	2023-11-14T06:54:53	11.9	81
40974	2023-11-14T07:04:53	11.7	83
40975	2023-11-14T07:14:53	11.8	83
40976	2023-11-14T07:24:53	11.6	82.5
40977	2023-11-14T07:34:53	11.6	82.5
40978	2023-11-14T07:44:53	11.7	83
40979	2023-11-14T07:54:53	11.8	82.5
40980	2023-11-14T08:04:53	12.1	80
40981	2023-11-14T08:14:53	12.3	78
40982	2023-11-14T08:24:53	12.5	77.5
40983	2023-11-14T08:34:53	12.6	77
40984	2023-11-14T08:44:53	12.6	76
40985	2023-11-14T08:54:53	12.6	76
40986	2023-11-14T09:04:53	12.7	75
40987	2023-11-14T09:14:53	12.9	74.5
40988	2023-11-14T09:24:53	13	73.5
40989	2023-11-14T09:34:53	13.2	72.5
40990	2023-11-14T09:44:53	13.1	73.5
40991	2023-11-14T09:54:53	13.1	72.5
40992	2023-11-14T10:04:53	13.1	73.5
40993	2023-11-14T10:14:53	13.1	73
40994	2023-11-14T10:24:53	13.2	74
40995	2023-11-14T10:34:53	13.1	72.5
40996	2023-11-14T10:44:53	13.3	72.5
40997	2023-11-14T10:54:53	13.3	72
40998	2023-11-14T11:14:53	13.6	69.5
40999	2023-11-14T11:24:53	14	67.5
41000	2023-11-14T11:34:52	14.3	66.5
41001	2023-11-14T11:44:52	14.6	66
41002	2023-11-14T11:54:52	14.5	66.5
41003	2023-11-14T12:04:52	15.1	64.5
41004	2023-11-14T12:14:52	14.9	70
41005	2023-11-14T12:24:52	14.4	67
41006	2023-11-14T12:34:52	14.4	67
41007	2023-11-14T12:44:52	14.2	68
41008	2023-11-14T12:54:52	14	68.5
41009	2023-11-14T13:04:52	14	69
41010	2023-11-14T13:14:52	13.8	69.5
41011	2023-11-14T13:24:52	13.7	69
41012	2023-11-14T13:34:52	13.8	69
41013	2023-11-14T13:44:52	13.6	69
41014	2023-11-14T13:54:52	13.5	70
41015	2023-11-14T14:04:52	13.4	71.5
41016	2023-11-14T14:14:52	13.3	73.5
41017	2023-11-14T14:24:52	13.1	72
41018	2023-11-14T14:34:52	13.1	71.5
41019	2023-11-14T14:44:52	13.1	72.5
41020	2023-11-14T14:54:52	13	72.5
41021	2023-11-14T15:04:52	12.8	73.5
41022	2023-11-14T15:14:52	12.7	74
41023	2023-11-14T15:24:52	12.7	73.5
41024	2023-11-14T15:34:52	12.5	74.5
41025	2023-11-14T15:44:52	12.4	73.5
41026	2023-11-14T15:54:52	12.4	73.5
41027	2023-11-14T16:04:52	12.4	73.5
41028	2023-11-14T16:14:52	12.4	72
41029	2023-11-14T16:24:52	12.4	72
41030	2023-11-14T16:34:52	12.4	71.5
41031	2023-11-14T16:44:52	12.4	71.5
41032	2023-11-14T16:54:52	12.4	73.5
41033	2023-11-14T17:04:52	12.1	76.5
41034	2023-11-14T17:14:52	11.8	78.5
41035	2023-11-14T17:24:52	11.5	86.5
41036	2023-11-14T17:34:52	11	88
41037	2023-11-14T17:44:52	10.4	95.5
41038	2023-11-14T17:54:52	10.4	96.5
41039	2023-11-14T18:04:52	10.4	97.5
41040	2023-11-14T18:14:52	10.5	97
41041	2023-11-14T18:24:52	10.5	97
41042	2023-11-14T18:34:52	10.4	99.5
41043	2023-11-14T18:44:52	10.4	100
41044	2023-11-14T18:54:52	10.4	100
41045	2023-11-14T19:04:52	10.5	100
41046	2023-11-14T19:14:52	10.5	100
41047	2023-11-14T19:24:52	10.5	100
41048	2023-11-14T19:34:52	10.7	100
41049	2023-11-14T19:44:52	10.9	100
41050	2023-11-14T19:54:52	10.9	99
41051	2023-11-14T20:04:52	11.2	96.5
41052	2023-11-14T20:14:52	11.4	94.5
41053	2023-11-14T20:24:52	11.4	94.5
41054	2023-11-14T20:34:52	11	98
41055	2023-11-14T20:44:52	10.8	100
41056	2023-11-14T20:54:52	10.9	100
41057	2023-11-14T21:04:52	10.8	100
41058	2023-11-14T21:14:52	10.9	100
41059	2023-11-14T21:24:52	11	99
41060	2023-11-14T21:34:52	10.9	99
41061	2023-11-14T21:44:52	10.9	99
41062	2023-11-14T21:54:52	10.9	98.5
41063	2023-11-14T22:04:52	11.1	98
41064	2023-11-14T22:14:52	11.1	97
41065	2023-11-14T22:24:52	11.2	95
41066	2023-11-14T22:34:52	11.3	86.5
41067	2023-11-14T22:44:52	11.4	85
41068	2023-11-14T22:54:52	11.4	84
41069	2023-11-14T23:04:52	11.3	84
41070	2023-11-14T23:14:52	11.4	86
41071	2023-11-14T23:24:52	11.3	86.5
41072	2023-11-14T23:34:52	11.5	85
41073	2023-11-14T23:44:52	11.5	85
41074	2023-11-14T23:54:52	11.5	85
41075	2023-11-15T00:04:52	11.5	84.5
41076	2023-11-15T00:14:52	11.6	82.5
41077	2023-11-15T00:24:52	11.7	81.5
41078	2023-11-15T00:34:52	11.7	81.5
41079	2023-11-15T00:44:52	11.5	82
41080	2023-11-15T00:54:52	11.5	84
41081	2023-11-15T01:04:52	11.5	84.5
41082	2023-11-15T01:14:52	11.5	84.5
41083	2023-11-15T01:24:52	11.5	84.5
41084	2023-11-15T01:34:52	11.4	84.5
41085	2023-11-15T01:44:52	11.5	84.5
41086	2023-11-15T01:54:52	11.4	83.5
41087	2023-11-15T02:04:51	11.5	83.5
41088	2023-11-15T02:15:14	11.4	83.5
41089	2023-11-15T02:24:51	11.5	83
41090	2023-11-15T02:34:51	11.5	82.5
41091	2023-11-15T02:44:51	11.5	83
41092	2023-11-15T02:54:51	10.5	94
41093	2023-11-15T03:04:51	10.3	95
41094	2023-11-15T03:14:51	10.1	94.5
41095	2023-11-15T03:24:51	10	97.5
41096	2023-11-15T03:34:51	10	97.5
41097	2023-11-15T03:44:51	10.1	95
41098	2023-11-15T03:54:51	10.3	94
41099	2023-11-15T04:04:51	10.4	91
41100	2023-11-15T04:14:51	9.9	99.5
41101	2023-11-15T04:24:51	9.8	100
41102	2023-11-15T04:34:51	9.7	100
41103	2023-11-15T04:44:51	9.7	100
41104	2023-11-15T04:54:51	9.9	100
41105	2023-11-15T05:04:51	10	99.5
41106	2023-11-15T05:14:51	10.2	99
41107	2023-11-15T05:24:51	9.6	100
41108	2023-11-15T05:34:51	9.5	100
41109	2023-11-15T05:44:51	9.5	100
41110	2023-11-15T05:54:51	9.4	100
41111	2023-11-15T06:04:51	9.5	100
41112	2023-11-15T06:14:51	9.6	100
41113	2023-11-15T06:24:51	9.6	100
41114	2023-11-15T06:34:51	9.7	100
41115	2023-11-15T06:44:51	9.7	100
41116	2023-11-15T06:54:51	9.9	100
41117	2023-11-15T07:04:51	9.7	100
41118	2023-11-15T07:14:51	9.6	100
41119	2023-11-15T07:24:51	9.6	100
41120	2023-11-15T07:34:51	9.5	100
41121	2023-11-15T07:44:51	9.6	100
41122	2023-11-15T07:54:51	9.5	100
41123	2023-11-15T08:04:51	9.7	100
41124	2023-11-15T08:14:51	9.7	100
41125	2023-11-15T08:24:51	9.7	100
41126	2023-11-15T08:34:51	9.9	100
41127	2023-11-15T08:44:51	10	100
41128	2023-11-15T08:54:51	10	100
41129	2023-11-15T09:04:51	10.1	100
41130	2023-11-15T09:14:51	10.1	100
41131	2023-11-15T09:24:51	10	100
41132	2023-11-15T09:34:51	10.1	100
41133	2023-11-15T09:44:51	10.3	100
41134	2023-11-15T09:54:51	10.3	100
41135	2023-11-15T10:04:51	10.3	100
41136	2023-11-15T10:14:51	10.4	100
41137	2023-11-15T10:24:51	10.6	100
41138	2023-11-15T10:34:51	10.7	100
41139	2023-11-15T10:44:51	10.7	100
41140	2023-11-15T10:54:51	10.9	100
41141	2023-11-15T11:04:51	11.2	100
41142	2023-11-15T11:14:51	11.3	98.5
41143	2023-11-15T11:24:51	11.4	98
41144	2023-11-15T11:34:51	11.5	99
41145	2023-11-15T11:44:51	11.1	99.5
41146	2023-11-15T11:54:51	10.3	100
41147	2023-11-15T12:04:51	10.3	100
41148	2023-11-15T12:14:51	10.3	100
41149	2023-11-15T12:24:51	10.3	100
41150	2023-11-15T12:34:51	10.5	100
41151	2023-11-15T12:44:51	10.7	100
41152	2023-11-15T12:54:51	11	99.5
41153	2023-11-15T13:04:51	11.3	100
41154	2023-11-15T13:14:51	12.6	93.5
41155	2023-11-15T13:24:51	12.9	78.5
41156	2023-11-15T13:34:51	14.1	75.5
41157	2023-11-15T13:44:51	14.8	70
41158	2023-11-15T13:54:51	14.8	68.5
41159	2023-11-15T14:04:51	14.8	66
41160	2023-11-15T14:14:51	15.4	63.5
41161	2023-11-15T14:24:51	14.7	65.5
41162	2023-11-15T14:34:51	14	67
41163	2023-11-15T14:54:51	13.3	66.5
41164	2023-11-15T15:04:51	13	67.5
41165	2023-11-15T15:14:51	12.7	69.5
41166	2023-11-15T15:24:51	12.6	69.5
41167	2023-11-15T15:34:51	12.4	70
41168	2023-11-15T15:44:51	12	70.5
41169	2023-11-15T15:54:51	11.9	72
41170	2023-11-15T16:04:51	11.6	73
41171	2023-11-15T16:14:51	11.4	74
41172	2023-11-15T16:24:51	11.2	75
41173	2023-11-15T16:34:51	11.2	75.5
41174	2023-11-15T16:44:51	11.3	74.5
41175	2023-11-15T16:54:51	11.3	74
41176	2023-11-15T17:04:51	11.3	74
41177	2023-11-15T17:14:51	11.3	73.5
41178	2023-11-15T17:24:51	11.4	73
41179	2023-11-15T17:34:50	11.4	72.5
41180	2023-11-15T17:44:51	11.4	72
41181	2023-11-15T17:54:50	11.3	72
41182	2023-11-15T18:04:50	10.9	74.5
41183	2023-11-15T18:14:50	10.8	75
41184	2023-11-15T18:24:50	10.6	76
41185	2023-11-15T18:34:50	10.5	75.5
41186	2023-11-15T18:44:50	10.4	75
41187	2023-11-15T18:54:50	10.5	75
41188	2023-11-15T19:04:50	10.6	74.5
41189	2023-11-15T19:14:50	10.6	75
41190	2023-11-15T19:24:50	10.4	76
41191	2023-11-15T19:34:50	10.4	76.5
41192	2023-11-15T19:44:50	10.4	76.5
41193	2023-11-15T19:54:50	10.4	77
41194	2023-11-15T20:04:50	10.2	77.5
41195	2023-11-15T20:14:50	10.1	78
41196	2023-11-15T20:24:50	10.2	78.5
41197	2023-11-15T20:34:50	10.2	79.5
41198	2023-11-15T20:44:50	10.2	80
41199	2023-11-15T20:54:50	10.3	80.5
41200	2023-11-15T21:04:50	10.4	80.5
41201	2023-11-15T21:14:50	10.4	82.5
41202	2023-11-15T21:24:50	9.3	95
41203	2023-11-15T21:34:50	9.1	99.5
41204	2023-11-15T21:44:50	9.2	100
41205	2023-11-15T21:54:50	9	100
41206	2023-11-15T22:04:50	9	100
41207	2023-11-15T22:14:50	9	100
41208	2023-11-15T22:25:10	9.1	100
41209	2023-11-15T22:34:50	9.1	100
41210	2023-11-15T22:44:50	9	100
41211	2023-11-15T22:54:50	8.7	100
41212	2023-11-15T23:04:50	8.7	100
41213	2023-11-15T23:14:50	8.6	100
41214	2023-11-15T23:24:50	8.5	100
41215	2023-11-15T23:34:50	8.6	100
41216	2023-11-15T23:44:50	8.6	100
41217	2023-11-15T23:54:50	8.5	100
41218	2023-11-16T00:04:50	8.6	100
41219	2023-11-16T00:14:50	8.6	100
41220	2023-11-16T00:24:50	8.7	100
41221	2023-11-16T00:34:51	8.5	100
41222	2023-11-16T00:44:50	8.5	100
41223	2023-11-16T00:54:50	8.7	100
41224	2023-11-16T01:04:50	8.6	100
41225	2023-11-16T01:14:50	8.5	100
41226	2023-11-16T01:24:50	8.5	100
41227	2023-11-16T01:34:50	8.4	100
41228	2023-11-16T01:44:50	8.4	100
41229	2023-11-16T01:54:50	8.4	100
41230	2023-11-16T02:04:50	8.4	100
41231	2023-11-16T02:14:50	8.3	100
41232	2023-11-16T02:24:50	8.4	100
41233	2023-11-16T02:34:50	8.4	100
41234	2023-11-16T02:44:50	8.5	100
41235	2023-11-16T02:54:50	8.4	100
41236	2023-11-16T03:04:50	8.5	97.5
41237	2023-11-16T03:14:50	8.4	96.5
41238	2023-11-16T03:24:50	8.2	97.5
41239	2023-11-16T03:34:50	8.2	99
41240	2023-11-16T03:44:50	8.1	98.5
41241	2023-11-16T03:54:50	8.2	98
41242	2023-11-16T04:04:50	8.3	99
41243	2023-11-16T04:14:50	8.4	100
41244	2023-11-16T04:24:50	8.4	97.5
41245	2023-11-16T04:34:50	8.3	97
41246	2023-11-16T04:44:50	8.4	97.5
41247	2023-11-16T04:54:50	8.2	98
41248	2023-11-16T05:04:50	8	97.5
41249	2023-11-16T05:14:50	8.2	98
41250	2023-11-16T05:24:50	8	98
41251	2023-11-16T05:34:50	8	98.5
41252	2023-11-16T05:44:50	8.1	96.5
41253	2023-11-16T05:54:50	7.9	96
41254	2023-11-16T06:04:50	7.9	99.5
41255	2023-11-16T06:14:50	8	99.5
41256	2023-11-16T06:24:50	8.1	100
41257	2023-11-16T06:34:50	8.2	100
41258	2023-11-16T06:44:50	8.2	100
41259	2023-11-16T06:54:50	8.1	98.5
41260	2023-11-16T07:04:50	8.2	99.5
41261	2023-11-16T07:14:50	8.1	99.5
41262	2023-11-16T07:24:50	8.2	100
41263	2023-11-16T07:34:50	8.1	99
41264	2023-11-16T07:44:50	8	98.5
41265	2023-11-16T07:54:50	8.1	100
41266	2023-11-16T08:04:50	8.2	100
41267	2023-11-16T08:14:50	8.5	99.5
41268	2023-11-16T08:24:50	8.6	99
41269	2023-11-16T08:34:50	8.7	100
41270	2023-11-16T08:44:50	8.8	99.5
41271	2023-11-16T08:54:50	8.8	100
41272	2023-11-16T09:04:50	9	99
41273	2023-11-16T09:14:50	9	97
41274	2023-11-16T09:24:50	9	98
41275	2023-11-16T09:34:50	9.1	97.5
41276	2023-11-16T09:44:50	9.2	96.5
41277	2023-11-16T09:54:50	9.2	97
41278	2023-11-16T10:04:50	9.1	96.5
41279	2023-11-16T10:14:50	9.1	96
41280	2023-11-16T10:24:50	9.1	97.5
41281	2023-11-16T10:34:50	9.3	98.5
41282	2023-11-16T10:44:50	9.2	97.5
41283	2023-11-16T10:54:50	9.4	96.5
41284	2023-11-16T11:04:50	9.3	97
41285	2023-11-16T11:14:50	9.7	94.5
41286	2023-11-16T11:24:50	9.9	93
41287	2023-11-16T11:34:50	9.7	92.5
41288	2023-11-16T11:44:50	9.9	93.5
41289	2023-11-16T11:54:50	9.7	93
41290	2023-11-16T12:05:05	9.9	92.5
41291	2023-11-16T12:14:49	9.7	94
41292	2023-11-16T12:24:49	9.6	95
41293	2023-11-16T12:34:49	9.6	97.5
41294	2023-11-16T12:44:49	9.6	97.5
41295	2023-11-16T12:54:49	9.7	98
41296	2023-11-16T13:04:49	9.6	99
41297	2023-11-16T13:14:49	9.6	98.5
41298	2023-11-16T13:24:49	9.6	99.5
41299	2023-11-16T13:34:49	9.5	98.5
41300	2023-11-16T13:44:49	9.6	98.5
41301	2023-11-16T13:54:49	9.7	99
41302	2023-11-16T14:04:49	9.5	99.5
41303	2023-11-16T14:14:49	9.5	100
41304	2023-11-16T14:24:49	9.6	99
41305	2023-11-16T14:34:49	9.6	99
41306	2023-11-16T14:44:49	9.5	98.5
41307	2023-11-16T14:54:49	9.5	99
41308	2023-11-16T15:04:49	9.6	98.5
41309	2023-11-16T15:14:49	9.5	96
41310	2023-11-16T15:24:49	9.5	96
41311	2023-11-16T15:34:49	9.4	95.5
41312	2023-11-16T15:44:49	9.2	95
41313	2023-11-16T15:54:49	9.3	96.5
41314	2023-11-16T16:04:49	9	94.5
41315	2023-11-16T16:14:49	8.9	94.5
41316	2023-11-16T16:24:49	8.8	94
41317	2023-11-16T16:34:49	8.6	96
41318	2023-11-16T16:44:49	8.4	96
41319	2023-11-16T16:54:49	8.2	96.5
41320	2023-11-16T17:04:49	8.3	97
41321	2023-11-16T17:14:49	8	99
41322	2023-11-16T17:24:49	8.2	100
41323	2023-11-16T17:34:49	8.2	100
41324	2023-11-16T17:44:49	8.2	100
41325	2023-11-16T17:54:49	8.2	100
41326	2023-11-16T18:04:49	8.3	100
41327	2023-11-16T18:14:49	8.1	100
41328	2023-11-16T18:24:49	8	100
41329	2023-11-16T18:34:49	8	100
41330	2023-11-16T18:44:49	8	100
41331	2023-11-16T18:54:49	8	100
41332	2023-11-16T19:04:49	8	100
41333	2023-11-16T19:14:49	8	100
41334	2023-11-16T19:24:49	8	100
41335	2023-11-16T19:34:49	8	100
41336	2023-11-16T19:44:49	8	100
41337	2023-11-16T19:54:49	7.9	100
41338	2023-11-16T20:04:49	8	100
41339	2023-11-16T20:14:49	7.9	100
41340	2023-11-16T20:24:49	7.9	100
41341	2023-11-16T20:34:49	7.8	100
41342	2023-11-16T20:44:49	7.9	99.5
41343	2023-11-16T20:54:49	7.9	99.5
41344	2023-11-16T21:04:49	7.8	99.5
41345	2023-11-16T21:14:49	7.8	100
41346	2023-11-16T21:24:49	7.8	99.5
41347	2023-11-16T21:34:49	7.8	99.5
41348	2023-11-16T21:39:56	7.9	99.5
41349	2023-11-16T21:49:56	7.8	99.5
41350	2023-11-16T21:59:56	7.7	100
41351	2023-11-16T22:09:56	7.7	99
41352	2023-11-16T22:19:56	7.7	100
41353	2023-11-16T22:29:56	7.6	100
41354	2023-11-16T22:39:56	7.6	100
41355	2023-11-16T22:49:56	7.5	100
41356	2023-11-16T22:59:56	7.5	100
41357	2023-11-16T23:09:56	7.4	100
41358	2023-11-16T23:19:56	7.5	100
41359	2023-11-16T23:29:56	7.4	100
41360	2023-11-16T23:39:56	7.5	100
41361	2023-11-16T23:49:56	7.3	100
41362	2023-11-16T23:59:56	7.2	100
41363	2023-11-17T00:09:56	7.3	100
41364	2023-11-17T00:19:56	7.2	100
41365	2023-11-17T00:29:56	7.1	100
41366	2023-11-17T00:39:56	7.2	100
41367	2023-11-17T00:49:56	7.3	100
41368	2023-11-17T00:59:56	7.3	100
41369	2023-11-17T01:09:56	7.1	100
41370	2023-11-17T01:19:56	7.1	100
41371	2023-11-17T01:29:56	7.1	100
41372	2023-11-17T01:39:56	7.1	100
41373	2023-11-17T01:49:56	7.1	100
41374	2023-11-17T01:59:56	7	100
41375	2023-11-17T02:09:56	7.1	100
41376	2023-11-17T02:19:56	7	100
41377	2023-11-17T02:29:56	7	100
41378	2023-11-17T02:39:56	7	100
41379	2023-11-17T02:49:56	6.9	100
41380	2023-11-17T02:59:56	6.9	100
41381	2023-11-17T03:09:56	6.9	100
41382	2023-11-17T03:19:56	6.8	100
41383	2023-11-17T03:29:56	6.9	100
41384	2023-11-17T03:39:56	6.8	100
41385	2023-11-17T03:49:56	6.7	100
41386	2023-11-17T03:59:56	6.7	100
41387	2023-11-17T04:09:56	6.7	100
41388	2023-11-17T04:19:56	6.7	100
41389	2023-11-17T04:29:56	6.6	100
41390	2023-11-17T04:39:56	6.7	100
41391	2023-11-17T04:49:56	6.6	100
41392	2023-11-17T04:59:56	6.6	100
41393	2023-11-17T05:09:56	6.6	100
41394	2023-11-17T05:19:56	6.7	100
41395	2023-11-17T05:29:56	6.6	100
41396	2023-11-17T05:39:56	6.6	100
41397	2023-11-17T05:49:56	6.7	100
41398	2023-11-17T05:59:56	6.6	100
41399	2023-11-17T06:09:56	6.6	100
41400	2023-11-17T06:19:56	6.6	100
41401	2023-11-17T06:29:56	6.6	100
41402	2023-11-17T06:39:56	6.7	100
41403	2023-11-17T06:49:56	6.7	100
41404	2023-11-17T06:59:56	6.6	100
41405	2023-11-17T07:09:56	6.7	100
41406	2023-11-17T07:19:56	6.8	100
41407	2023-11-17T07:29:56	6.7	100
41408	2023-11-17T07:39:56	6.6	100
41409	2023-11-17T07:49:56	6.6	100
41410	2023-11-17T07:59:56	6.6	100
41411	2023-11-17T08:09:56	6.7	100
41412	2023-11-17T08:19:56	6.7	100
41413	2023-11-17T08:29:56	6.7	100
41414	2023-11-17T08:39:56	6.7	100
41415	2023-11-17T08:49:56	6.6	100
41416	2023-11-17T08:59:56	6.8	100
41417	2023-11-17T09:09:56	6.8	100
41418	2023-11-17T09:19:56	6.9	100
41419	2023-11-17T09:29:56	6.7	100
41420	2023-11-17T09:39:56	6.9	100
41421	2023-11-17T09:49:56	6.9	100
41422	2023-11-17T09:59:55	6.9	100
41423	2023-11-17T10:09:55	6.8	100
41424	2023-11-17T10:19:55	6.8	100
41425	2023-11-17T10:29:55	6.8	100
41426	2023-11-17T10:39:55	6.8	100
41427	2023-11-17T10:49:55	6.9	100
41428	2023-11-17T10:59:55	6.9	100
41429	2023-11-17T11:09:55	6.8	100
41430	2023-11-17T11:19:55	7	100
41431	2023-11-17T11:29:55	7	100
41432	2023-11-17T11:39:55	7.1	100
41433	2023-11-17T11:49:55	7	100
41434	2023-11-17T11:59:55	7	100
41435	2023-11-17T12:09:55	6.7	100
41436	2023-11-17T12:19:55	6.7	100
41437	2023-11-17T12:29:55	6.6	100
41438	2023-11-17T12:39:55	6.7	100
41439	2023-11-17T12:49:56	6.7	100
41440	2023-11-17T12:59:55	6.9	100
41441	2023-11-17T13:09:55	7.1	100
41442	2023-11-17T13:19:55	7.2	99.5
41443	2023-11-17T13:29:55	7.4	99
41444	2023-11-17T13:39:55	7.7	98
41445	2023-11-17T13:49:56	8.2	95.5
41446	2023-11-17T13:59:55	7.7	96
41447	2023-11-17T14:09:55	7.5	97.5
41448	2023-11-17T14:19:55	7.4	97
41449	2023-11-17T14:29:55	7.3	97
41450	2023-11-17T14:39:55	7.2	96.5
41451	2023-11-17T14:49:55	7.2	97
41452	2023-11-17T14:59:55	7.3	97
41453	2023-11-17T15:09:55	7.2	97.5
41454	2023-11-17T15:19:55	7.4	97
41455	2023-11-17T15:29:55	7.3	97
41456	2023-11-17T15:39:55	7.2	97
41457	2023-11-17T15:49:55	7.1	96
41458	2023-11-17T15:59:55	7.2	96.5
41459	2023-11-17T16:09:55	7	96.5
41460	2023-11-17T16:19:55	6.8	97
41461	2023-11-17T16:29:55	6.8	97
41462	2023-11-17T16:39:55	6.7	96
41463	2023-11-17T16:49:55	6.6	96
41464	2023-11-17T16:59:55	6.7	96.5
41465	2023-11-17T17:09:55	6.8	96.5
41466	2023-11-17T17:19:55	6.8	96.5
41467	2023-11-17T17:29:55	7	96.5
41468	2023-11-17T17:39:55	7	97
41469	2023-11-17T17:49:55	7.1	97.5
41470	2023-11-17T17:59:55	7	98
41471	2023-11-17T18:09:55	7	97.5
41472	2023-11-17T18:19:55	6.8	99.5
41473	2023-11-17T18:29:55	6.9	100
41474	2023-11-17T18:39:55	6.7	100
41475	2023-11-17T18:49:55	6.7	99.5
41476	2023-11-17T18:59:55	6.6	99
41477	2023-11-17T19:09:55	6.7	98
41478	2023-11-17T19:19:55	6.7	98.5
41479	2023-11-17T19:29:55	6.7	98
41480	2023-11-17T19:39:55	6.7	98.5
41481	2023-11-17T19:49:55	6.8	98
41482	2023-11-17T19:59:55	6.8	98
41483	2023-11-17T20:09:55	6.8	97.5
41484	2023-11-17T20:19:55	6.8	97.5
41485	2023-11-17T20:29:55	6.8	98
41486	2023-11-17T20:39:55	6.8	97.5
41487	2023-11-17T20:49:55	6.9	96.5
41488	2023-11-17T20:59:55	6.9	97
41489	2023-11-17T21:09:55	6.9	97
41490	2023-11-17T21:19:55	6.9	97.5
41491	2023-11-17T21:29:55	6.8	97.5
41492	2023-11-17T21:39:56	6.9	97
41493	2023-11-17T21:49:55	6.9	97.5
41494	2023-11-17T21:59:55	6.9	97.5
41495	2023-11-17T22:09:55	7	97
41496	2023-11-17T22:19:55	7	97.5
41497	2023-11-17T22:29:55	6.9	97.5
41498	2023-11-17T22:39:55	6.9	98
41499	2023-11-17T22:49:55	6.9	98.5
41500	2023-11-17T22:59:55	7	98
41501	2023-11-17T23:09:55	6.9	98
41502	2023-11-17T23:19:55	6.9	98.5
41503	2023-11-17T23:29:55	7	98.5
41504	2023-11-17T23:39:55	6.9	98
41505	2023-11-17T23:49:55	6.9	98
41506	2023-11-17T23:59:55	7	98
41507	2023-11-18T00:09:55	7	98
41508	2023-11-18T00:19:55	6.9	97.5
41509	2023-11-18T00:29:55	6.9	98.5
41510	2023-11-18T00:39:55	6.8	98.5
41511	2023-11-18T00:49:55	6.7	98.5
41512	2023-11-18T00:59:55	6.5	99
41513	2023-11-18T01:09:55	6.7	99
41514	2023-11-18T01:19:55	6.7	98
41515	2023-11-18T01:29:55	6.7	98
41516	2023-11-18T01:39:55	6.5	98.5
41517	2023-11-18T01:49:55	6.5	98.5
41518	2023-11-18T01:59:56	6.4	99.5
41519	2023-11-18T02:09:55	6.3	100
41520	2023-11-18T02:19:55	6.5	99.5
41521	2023-11-18T02:29:55	6.4	99
41522	2023-11-18T02:39:55	6.5	99
41523	2023-11-18T02:49:55	6.6	100
41524	2023-11-18T02:59:55	6.3	100
41525	2023-11-18T03:09:55	6.2	100
41526	2023-11-18T03:19:55	6.1	100
41527	2023-11-18T03:29:55	6	100
41528	2023-11-18T03:39:55	6	100
41529	2023-11-18T03:49:55	5.9	100
41530	2023-11-18T03:59:55	6	100
41531	2023-11-18T04:09:55	5.7	100
41532	2023-11-18T04:19:55	5.8	100
41533	2023-11-18T04:29:55	5.8	100
41534	2023-11-18T04:39:55	5.7	99.5
41535	2023-11-18T04:49:55	5.6	99.5
41536	2023-11-18T04:59:55	5.5	99.5
41537	2023-11-18T05:09:55	5.4	98
41538	2023-11-18T05:19:55	5.4	97
41539	2023-11-18T05:29:55	5.4	100
41540	2023-11-18T05:39:55	5.3	99
41541	2023-11-18T05:49:55	5.3	99.5
41542	2023-11-18T06:09:55	5.3	100
41543	2023-11-18T06:19:55	5.2	100
41544	2023-11-18T06:29:55	5	100
41545	2023-11-18T06:39:55	5.1	100
41546	2023-11-18T06:49:55	5.1	100
41547	2023-11-18T06:59:55	5	100
41548	2023-11-18T07:09:55	5.1	100
41549	2023-11-18T07:19:55	5.2	100
41550	2023-11-18T07:29:55	5.4	100
41551	2023-11-18T07:39:55	5.5	100
41552	2023-11-18T07:49:55	5.6	99
41553	2023-11-18T07:59:55	5.7	99
41554	2023-11-18T08:09:55	5.9	99.5
41555	2023-11-18T08:19:55	6	99
41556	2023-11-18T08:29:55	6.2	99
41557	2023-11-18T08:39:55	6.4	99
41558	2023-11-18T08:49:54	6.5	98.5
41559	2023-11-18T08:59:54	6.6	97.5
41560	2023-11-18T09:09:54	6.9	97.5
41561	2023-11-18T09:19:54	7	96
41562	2023-11-18T09:29:54	7.3	95.5
41563	2023-11-18T09:39:54	7.4	95.5
41564	2023-11-18T09:49:54	7.7	95.5
41565	2023-11-18T09:59:54	7.9	94.5
41566	2023-11-18T10:09:54	8.1	94
41567	2023-11-18T10:19:54	8.2	94.5
41568	2023-11-18T10:29:54	8.2	95
41569	2023-11-18T10:39:54	8.3	94.5
41570	2023-11-18T10:49:54	8.2	95
41571	2023-11-18T10:59:54	8.3	94.5
41572	2023-11-18T11:09:54	8.2	93.5
41573	2023-11-18T11:19:54	8.2	92
41574	2023-11-18T11:29:54	8.1	93
41575	2023-11-18T11:39:54	8.3	94
41576	2023-11-18T11:49:54	8.3	92.5
41577	2023-11-18T11:59:54	8.3	91
41578	2023-11-18T12:09:54	8.3	92.5
41579	2023-11-18T12:19:54	8.3	92
41580	2023-11-18T12:29:54	8.3	91.5
41581	2023-11-18T12:39:54	8.4	94.5
41582	2023-11-18T12:49:54	8.4	94
41583	2023-11-18T12:59:54	8.6	95
41584	2023-11-18T13:09:54	8.5	93.5
41585	2023-11-18T13:19:54	8.5	94
41586	2023-11-18T13:29:54	8.6	93.5
41587	2023-11-18T13:39:54	8.7	92
41588	2023-11-18T13:49:54	8.6	91.5
41589	2023-11-18T13:59:54	8.7	93.5
41590	2023-11-18T14:09:54	8.8	95
41591	2023-11-18T14:19:54	9	94
41592	2023-11-18T14:29:54	9.2	93.5
41593	2023-11-18T14:39:54	9	92.5
41594	2023-11-18T14:49:54	9	95
41595	2023-11-18T14:59:54	8.8	96
41596	2023-11-18T15:09:54	8.9	95.5
41597	2023-11-18T15:19:54	8.7	97
41598	2023-11-18T15:29:54	8.7	96.5
41599	2023-11-18T15:39:54	8.6	96
41600	2023-11-18T15:49:54	8.5	95.5
41601	2023-11-18T15:59:54	8.4	95
41602	2023-11-18T16:09:54	8.5	96.5
41603	2023-11-18T16:19:54	8.5	97.5
41604	2023-11-18T16:29:54	8.3	98
41605	2023-11-18T16:39:54	8.5	98
41606	2023-11-18T16:49:54	8.4	97.5
41607	2023-11-18T16:59:54	8.4	98
41608	2023-11-18T17:09:54	8.4	97.5
41609	2023-11-18T17:19:54	8.4	95.5
41610	2023-11-18T17:29:54	8.4	97.5
41611	2023-11-18T17:39:54	8.5	97.5
41612	2023-11-18T17:49:54	8.4	98
41613	2023-11-18T17:59:54	8.4	96.5
41614	2023-11-18T18:09:54	8.5	98.5
41615	2023-11-18T18:19:54	8.4	98
41616	2023-11-18T18:29:54	8.4	96.5
41617	2023-11-18T18:39:54	8.5	96.5
41618	2023-11-18T18:49:54	8.5	95.5
41619	2023-11-18T18:59:54	8.6	92.5
41620	2023-11-18T19:09:54	8.6	89
41621	2023-11-18T19:19:54	8.6	90
41622	2023-11-18T19:29:54	8.6	89.5
41623	2023-11-18T19:39:54	8.7	90
41624	2023-11-18T19:49:54	8.6	93
41625	2023-11-18T19:59:54	8.6	92.5
41626	2023-11-18T20:09:54	9	82
41627	2023-11-18T20:19:54	9.3	81
41628	2023-11-18T20:29:54	9.5	81.5
41629	2023-11-18T20:39:54	9.5	81.5
41630	2023-11-18T20:49:54	9.6	82
41631	2023-11-18T20:59:54	9.7	82.5
41632	2023-11-18T21:09:54	9.6	87.5
41633	2023-11-18T21:19:54	9.6	90.5
41634	2023-11-18T21:29:54	8.9	94
41635	2023-11-18T21:39:54	8.7	96
41636	2023-11-18T21:49:54	8.5	100
41637	2023-11-18T21:59:54	8.6	100
41638	2023-11-18T22:09:54	8.7	100
41639	2023-11-18T22:19:54	8.8	100
41640	2023-11-18T22:29:54	8.8	100
41641	2023-11-18T22:39:54	9	100
41642	2023-11-18T22:49:54	9.1	100
41643	2023-11-18T23:09:54	9.2	100
41644	2023-11-18T23:19:54	9.3	100
41645	2023-11-18T23:29:54	9.4	100
41646	2023-11-18T23:39:54	9.5	100
41647	2023-11-18T23:49:54	9.6	100
41648	2023-11-18T23:59:54	9.6	100
41649	2023-11-19T00:09:54	9.8	100
41650	2023-11-19T00:19:54	9.9	100
41651	2023-11-19T00:29:54	9.9	100
41652	2023-11-19T00:39:54	10.1	100
41653	2023-11-19T00:49:54	10.2	100
41654	2023-11-19T00:59:54	10.3	100
41655	2023-11-19T01:09:54	10.3	100
41656	2023-11-19T01:29:54	10.4	100
41657	2023-11-19T01:39:54	10.5	100
41658	2023-11-19T01:49:54	10.5	100
41659	2023-11-19T01:59:54	10.5	100
41660	2023-11-19T02:09:54	10.5	100
41661	2023-11-19T02:19:54	10.6	100
41662	2023-11-19T02:29:54	10.6	100
41663	2023-11-19T02:39:54	10.7	100
41664	2023-11-19T02:49:54	10.6	100
41665	2023-11-19T02:59:53	10.8	100
41666	2023-11-19T03:09:54	10.9	100
41667	2023-11-19T03:19:53	10.9	100
41668	2023-11-19T03:29:53	11	100
41669	2023-11-19T03:39:53	11	100
41670	2023-11-19T03:49:53	11	100
41671	2023-11-19T03:59:53	11.1	100
41672	2023-11-19T04:09:53	11.2	100
41673	2023-11-19T04:19:53	11.2	100
41674	2023-11-19T04:29:53	11.3	100
41675	2023-11-19T04:39:53	11.3	100
41676	2023-11-19T04:49:53	11.5	100
41677	2023-11-19T04:59:53	11.6	100
41678	2023-11-19T05:09:53	11.7	100
41679	2023-11-19T05:19:53	11.9	100
41680	2023-11-19T05:29:53	12.1	100
41681	2023-11-19T05:39:53	12.3	100
41682	2023-11-19T05:49:53	12.3	100
41683	2023-11-19T05:59:53	12.3	100
41684	2023-11-19T06:09:53	12.2	100
41685	2023-11-19T06:19:53	12	100
41686	2023-11-19T06:29:53	12	100
41687	2023-11-19T06:39:53	12.1	100
41688	2023-11-19T06:49:53	12.1	100
41689	2023-11-19T06:59:53	12.2	100
41690	2023-11-19T07:09:53	12.5	100
41691	2023-11-19T07:19:53	12.4	100
41692	2023-11-19T07:29:53	12.4	100
41693	2023-11-19T07:39:53	12.3	100
41694	2023-11-19T07:49:53	12.5	100
41695	2023-11-19T07:59:53	12.4	100
41696	2023-11-19T08:09:53	12.2	100
41697	2023-11-19T08:19:53	12.3	100
41698	2023-11-19T08:29:53	12.6	100
41699	2023-11-19T08:39:53	12.8	100
41700	2023-11-19T08:49:53	12.9	100
41701	2023-11-19T08:59:53	12.4	100
41702	2023-11-19T09:09:53	12.3	100
41703	2023-11-19T09:19:53	12.5	100
41704	2023-11-19T09:29:53	12.7	100
41705	2023-11-19T09:39:53	12.9	100
41706	2023-11-19T09:49:53	13.1	100
41707	2023-11-19T09:59:53	13.3	100
41708	2023-11-19T10:09:53	13.5	100
41709	2023-11-19T10:19:53	13.9	100
41710	2023-11-19T10:29:53	13.9	100
41711	2023-11-19T10:39:53	14.1	100
41712	2023-11-19T10:49:53	14.2	100
41713	2023-11-19T10:59:53	14.1	100
41714	2023-11-19T11:09:53	14.2	100
41715	2023-11-19T11:19:53	14.2	100
41716	2023-11-19T11:29:53	14	100
41717	2023-11-19T11:39:53	14.5	100
41718	2023-11-19T11:49:53	14.5	100
41719	2023-11-19T11:59:53	14.3	100
41720	2023-11-19T12:09:53	14.5	100
41721	2023-11-19T12:19:53	16.4	99
41722	2023-11-19T12:29:53	17.3	99.5
41723	2023-11-19T12:39:53	17.8	97
41724	2023-11-19T12:49:53	18.5	79.5
41725	2023-11-19T12:59:53	17.3	75.5
41726	2023-11-19T13:09:53	18.2	70.5
41727	2023-11-19T13:19:53	16.2	77
41728	2023-11-19T13:29:53	15.7	77.5
41729	2023-11-19T13:39:53	16.7	75
41730	2023-11-19T13:49:53	15.9	76.5
41731	2023-11-19T13:59:53	15.7	78
41732	2023-11-19T14:09:53	15.5	78
41733	2023-11-19T14:19:53	15.6	80
41734	2023-11-19T14:29:53	16.5	77
41735	2023-11-19T14:39:53	16.2	77.5
41736	2023-11-19T14:49:53	15.9	77.5
41737	2023-11-19T14:59:53	15.7	71.5
41738	2023-11-19T15:09:53	15.4	71
41739	2023-11-19T15:19:53	15	72
41740	2023-11-19T15:29:53	14.6	72.5
41741	2023-11-19T15:39:53	14.5	72
41742	2023-11-19T15:49:53	14.5	72.5
41743	2023-11-19T15:59:53	14.3	73
41744	2023-11-19T16:09:53	14.3	73.5
41745	2023-11-19T16:19:53	14.2	74
41746	2023-11-19T16:29:53	14.2	74
41747	2023-11-19T16:39:53	14	76
41748	2023-11-19T16:49:52	13.9	75.5
41749	2023-11-19T16:59:52	13.9	76.5
41750	2023-11-19T17:09:52	14	76
41751	2023-11-19T17:19:52	14	75.5
41752	2023-11-19T17:29:53	14	74.5
41753	2023-11-19T17:39:52	13.8	78
41754	2023-11-19T17:49:52	13.7	78
41755	2023-11-19T17:59:52	13.7	77
41756	2023-11-19T18:09:52	13.6	77.5
41757	2023-11-19T18:19:52	13.3	80
41758	2023-11-19T18:29:52	13.3	80
41759	2023-11-19T18:39:52	13.4	79
41760	2023-11-19T18:49:52	13.3	79.5
41761	2023-11-19T18:59:52	13.4	78.5
41762	2023-11-19T19:09:52	13.6	77.5
41763	2023-11-19T19:19:52	13.6	76
41764	2023-11-19T19:29:52	13.5	75
41765	2023-11-19T19:39:52	13.4	75
41766	2023-11-19T19:49:52	13.3	75
41767	2023-11-19T19:59:52	13.3	75
41768	2023-11-19T20:09:52	13.2	75.5
41769	2023-11-19T20:19:52	13.1	75
41770	2023-11-19T20:29:52	13	75
41771	2023-11-19T20:39:52	12.9	75.5
41772	2023-11-19T20:49:52	12.9	76.5
41773	2023-11-19T20:59:52	12.7	76.5
41774	2023-11-19T21:09:52	12.7	76
41775	2023-11-19T21:19:52	12.8	75.5
41776	2023-11-19T21:29:52	12.7	77
41777	2023-11-19T21:39:52	12.6	78
41778	2023-11-19T21:49:52	12.6	77.5
41779	2023-11-19T21:59:52	12.5	77.5
41780	2023-11-19T22:09:52	12.4	76.5
41781	2023-11-19T22:19:52	12.4	76
41782	2023-11-19T22:29:52	12.5	75.5
41783	2023-11-19T22:39:52	12.3	75
41784	2023-11-19T22:49:52	12	75
41785	2023-11-19T22:59:52	12.2	75.5
41786	2023-11-19T23:09:52	12.1	73.5
41787	2023-11-19T23:19:52	12.2	73.5
41788	2023-11-19T23:29:52	12.1	74
41789	2023-11-19T23:39:52	12.3	74
41790	2023-11-19T23:49:52	12.2	74
41791	2023-11-19T23:59:52	12.2	73.5
41792	2023-11-20T00:09:52	12.4	73
41793	2023-11-20T00:19:52	12.3	72.5
41794	2023-11-20T00:29:52	12.4	73
41795	2023-11-20T00:39:52	12.3	73.5
41796	2023-11-20T00:49:52	12.5	73.5
41797	2023-11-20T00:59:52	12.6	73
41798	2023-11-20T01:09:52	12.7	73
41799	2023-11-20T01:19:52	12.6	72.5
41800	2023-11-20T01:29:52	12.7	72.5
41801	2023-11-20T01:39:52	12.6	73
41802	2023-11-20T01:49:52	12.5	74
41803	2023-11-20T01:59:52	12.5	74.5
41804	2023-11-20T02:09:52	12.5	74.5
41805	2023-11-20T02:19:52	12.5	75
41806	2023-11-20T02:29:52	12.5	75
41807	2023-11-20T02:39:52	12.5	75.5
41808	2023-11-20T02:49:52	12.4	76
41809	2023-11-20T02:59:52	12.4	75
41810	2023-11-20T03:09:52	12.5	74
41811	2023-11-20T03:19:52	12.5	75
41812	2023-11-20T03:29:52	12.5	75
41813	2023-11-20T03:39:52	12.5	74.5
41814	2023-11-20T03:49:52	12.5	75
41815	2023-11-20T03:59:52	12.2	76.5
41816	2023-11-20T04:09:52	12	79
41817	2023-11-20T04:19:52	11.9	79.5
41818	2023-11-20T04:29:52	12	79
41819	2023-11-20T04:39:52	12	78.5
41820	2023-11-20T04:49:52	12.1	78.5
41821	2023-11-20T04:59:52	12.1	77.5
41822	2023-11-20T05:09:52	12	77
41823	2023-11-20T05:19:52	12	77.5
41824	2023-11-20T05:29:52	11.9	77
41825	2023-11-20T05:39:52	11.9	77
41826	2023-11-20T05:49:52	12	76
41827	2023-11-20T05:59:52	12	74.5
41828	2023-11-20T06:09:52	11.9	75
41829	2023-11-20T06:19:52	12	75
41830	2023-11-20T06:29:52	12	74.5
41831	2023-11-20T06:39:52	11.9	75
41832	2023-11-20T06:49:52	11.9	75.5
41833	2023-11-20T06:59:52	11.9	74.5
41834	2023-11-20T07:09:51	11.9	74.5
41835	2023-11-20T07:19:51	11.9	75
41836	2023-11-20T07:29:51	11.9	75
41837	2023-11-20T07:39:51	12	75
41838	2023-11-20T07:49:51	11.8	76
41839	2023-11-20T07:59:51	11.9	75
41840	2023-11-20T08:09:51	11.9	76
41841	2023-11-20T08:19:51	11.6	79
41842	2023-11-20T08:29:51	11.5	79.5
41843	2023-11-20T08:39:51	10.7	96.5
41844	2023-11-20T08:49:51	10.3	98
41845	2023-11-20T08:59:51	10.4	99.5
41846	2023-11-20T09:09:51	10.2	96.5
41847	2023-11-20T09:19:51	10.1	98
41848	2023-11-20T09:29:51	10	100
41849	2023-11-20T09:39:51	10.2	100
41850	2023-11-20T09:49:51	10.3	100
41851	2023-11-20T09:59:51	10.2	100
41852	2023-11-20T10:09:51	10.2	100
41853	2023-11-20T10:19:51	10.3	100
41854	2023-11-20T10:29:51	10.5	99.5
41855	2023-11-20T10:39:51	10.8	99.5
41856	2023-11-20T10:49:51	11	92.5
41857	2023-11-20T10:59:51	11.1	89
41858	2023-11-20T11:09:51	10.7	90.5
41859	2023-11-20T11:19:51	10.5	98.5
41860	2023-11-20T11:29:51	10.9	95
41861	2023-11-20T11:39:51	11.1	91.5
41862	2023-11-20T11:49:51	11.3	88
41863	2023-11-20T11:59:51	10.9	92
41864	2023-11-20T12:09:51	10.4	96.5
41865	2023-11-20T12:19:51	10.8	93.5
41866	2023-11-20T12:29:51	11.7	90
41867	2023-11-20T12:39:51	13	85
41868	2023-11-20T12:49:51	11.9	85
41869	2023-11-20T12:59:51	11.8	86.5
41870	2023-11-20T13:09:51	11	95
41871	2023-11-20T13:19:51	10.2	100
41872	2023-11-20T13:29:51	10.2	100
41873	2023-11-20T13:39:51	10.3	100
41874	2023-11-20T13:49:51	10.7	100
41875	2023-11-20T13:59:51	11.9	100
41876	2023-11-20T14:09:51	12.8	96.5
41877	2023-11-20T14:19:51	13.1	92
41878	2023-11-20T14:29:51	11.9	86
41879	2023-11-20T14:39:51	11.5	88
41880	2023-11-20T14:49:51	11.3	88
41881	2023-11-20T14:59:51	11.2	87
41882	2023-11-20T15:09:51	10.9	87
41883	2023-11-20T15:19:51	10.8	85.5
41884	2023-11-20T15:29:51	10.6	84
41885	2023-11-20T15:39:51	10.3	84.5
41886	2023-11-20T15:49:51	10.2	86
41887	2023-11-20T15:59:51	10.1	88
41888	2023-11-20T16:09:51	10.1	88.5
41889	2023-11-20T16:19:51	10.1	88.5
41890	2023-11-20T16:29:51	10.1	87
41891	2023-11-20T16:39:51	10.2	87
41892	2023-11-20T16:49:51	10.2	85.5
41893	2023-11-20T16:59:51	10.2	85
41894	2023-11-20T17:09:51	10.3	84
41895	2023-11-20T17:19:51	10.4	84.5
41896	2023-11-20T17:29:51	10.3	85.5
41897	2023-11-20T17:39:51	10.3	85
41898	2023-11-20T17:49:51	10.4	83
41899	2023-11-20T17:59:51	10.5	82.5
41900	2023-11-20T18:09:51	10.2	87.5
41901	2023-11-20T18:19:51	9.7	91.5
41902	2023-11-20T18:29:51	9.3	94.5
41903	2023-11-20T18:39:51	9.4	94
41904	2023-11-20T18:49:51	9.4	93
41905	2023-11-20T18:59:51	9.3	92.5
41906	2023-11-20T19:09:51	9.4	93
41907	2023-11-20T19:19:51	9	97.5
41908	2023-11-20T19:29:51	9	98
41909	2023-11-20T19:39:51	8.7	98.5
41910	2023-11-20T19:49:51	8.7	100
41911	2023-11-20T19:59:51	8.7	100
41912	2023-11-20T20:09:51	8.7	100
41913	2023-11-20T20:19:51	8.7	100
41914	2023-11-20T20:29:51	8.7	100
41915	2023-11-20T20:39:51	8.7	100
41916	2023-11-20T20:49:51	8.7	100
41917	2023-11-20T20:59:51	8.6	100
41918	2023-11-20T21:09:51	8.7	100
41919	2023-11-20T21:19:51	8.6	100
41920	2023-11-20T21:29:51	8.5	100
41921	2023-11-20T21:39:51	8.5	100
41922	2023-11-20T21:49:51	8.4	100
41923	2023-11-20T21:59:51	8.4	100
41924	2023-11-20T22:09:51	8.5	100
41925	2023-11-20T22:19:51	8.6	100
41926	2023-11-20T22:29:51	8.6	100
41927	2023-11-20T22:39:51	8.7	100
41928	2023-11-20T22:49:51	8.8	99.5
41929	2023-11-20T22:59:51	8.8	99.5
41930	2023-11-20T23:09:51	8.8	99.5
41931	2023-11-20T23:19:50	8.9	99.5
41932	2023-11-20T23:29:51	9	99.5
41933	2023-11-20T23:39:50	9.1	99.5
41934	2023-11-20T23:49:50	9.1	99
41935	2023-11-20T23:59:50	9.1	99
41936	2023-11-21T00:09:50	9.1	99.5
41937	2023-11-21T00:19:50	9.1	98
41938	2023-11-21T00:29:50	9.2	98.5
41939	2023-11-21T00:39:50	9.3	98.5
41940	2023-11-21T00:49:50	9.3	98
41941	2023-11-21T00:59:50	9.3	98
41942	2023-11-21T01:09:50	9.3	97.5
41943	2023-11-21T01:19:50	9.2	99
41944	2023-11-21T01:29:50	9.2	99
41945	2023-11-21T01:39:50	8.9	100
41946	2023-11-21T01:49:50	8.7	100
41947	2023-11-21T01:59:50	8.8	100
41948	2023-11-21T02:09:50	8.7	100
41949	2023-11-21T02:19:50	8.6	100
41950	2023-11-21T02:29:50	8.6	100
41951	2023-11-21T02:39:50	8.6	100
41952	2023-11-21T02:49:50	8.6	100
41953	2023-11-21T02:59:50	8.5	100
41954	2023-11-21T03:09:50	8.6	100
41955	2023-11-21T03:19:50	8.5	100
41956	2023-11-21T03:29:50	8.5	100
41957	2023-11-21T03:39:50	8.4	100
41958	2023-11-21T03:49:50	8.4	100
41959	2023-11-21T03:59:50	8.4	100
41960	2023-11-21T04:09:50	8.5	100
41961	2023-11-21T04:19:50	8.6	100
41962	2023-11-21T04:29:50	8.6	100
41963	2023-11-21T04:39:50	8.6	100
41964	2023-11-21T04:49:50	8.6	100
41965	2023-11-21T04:59:50	8.6	100
41966	2023-11-21T05:09:50	8.7	99.5
41967	2023-11-21T05:19:50	8.6	100
41968	2023-11-21T05:29:50	8.7	99.5
41969	2023-11-21T05:39:50	8.6	100
41970	2023-11-21T05:49:50	8.5	100
41971	2023-11-21T05:59:50	8.5	100
41972	2023-11-21T06:09:50	8.6	100
41973	2023-11-21T06:19:50	8.5	100
41974	2023-11-21T06:29:50	8.5	100
41975	2023-11-21T06:39:50	8.4	100
41976	2023-11-21T06:49:50	8.5	100
41977	2023-11-21T06:59:50	8.5	100
41978	2023-11-21T07:09:50	8.4	100
41979	2023-11-21T07:19:50	8.5	100
41980	2023-11-21T07:29:50	8.4	100
41981	2023-11-21T07:39:50	8.7	100
41982	2023-11-21T07:49:51	8.6	100
41983	2023-11-21T07:59:50	8.5	100
41984	2023-11-21T08:09:50	8.7	100
41985	2023-11-21T08:19:50	8.6	100
41986	2023-11-21T08:29:50	8.7	100
41987	2023-11-21T08:39:50	8.7	100
41988	2023-11-21T08:49:50	8.8	100
41989	2023-11-21T08:59:50	8.8	100
41990	2023-11-21T09:09:50	8.7	100
41991	2023-11-21T09:19:50	9.1	100
41992	2023-11-21T09:29:50	8.9	100
41993	2023-11-21T09:39:50	8.9	100
41994	2023-11-21T09:49:50	9.2	100
41995	2023-11-21T09:59:50	9.1	100
41996	2023-11-21T10:09:50	9	100
41997	2023-11-21T10:19:50	9.1	100
41998	2023-11-21T10:29:50	9.3	100
41999	2023-11-21T10:39:50	9.4	100
42000	2023-11-21T10:49:50	9.3	100
42001	2023-11-21T10:59:50	9.3	100
42002	2023-11-21T11:09:50	9.3	100
42003	2023-11-21T11:20:08	9.3	100
42004	2023-11-21T11:29:50	9.3	100
42005	2023-11-21T11:39:50	9.3	100
42006	2023-11-21T11:49:50	9.6	100
42007	2023-11-21T11:59:50	9.5	100
42008	2023-11-21T12:09:50	9.6	100
42009	2023-11-21T12:19:50	9.6	100
42010	2023-11-21T12:29:50	9.7	100
42011	2023-11-21T12:39:50	9.7	99.5
42012	2023-11-21T12:49:50	9.7	99
42013	2023-11-21T12:59:50	9.9	99
42014	2023-11-21T13:09:50	10	99
42015	2023-11-21T13:19:50	9.9	99
42016	2023-11-21T13:29:50	10	98.5
42017	2023-11-21T13:39:50	10.1	98
42018	2023-11-21T13:49:50	10.2	97.5
42019	2023-11-21T13:59:50	10.2	97
42020	2023-11-21T14:09:50	10.2	98
42021	2023-11-21T14:19:50	10.2	97.5
42022	2023-11-21T14:29:50	10.1	97
42023	2023-11-21T14:39:50	10.2	98
42024	2023-11-21T14:49:50	10.5	97
42025	2023-11-21T14:59:50	10.2	96.5
42026	2023-11-21T15:09:50	10.3	98
42027	2023-11-21T15:19:50	10.3	97.5
42028	2023-11-21T15:29:50	10.1	98.5
42029	2023-11-21T15:39:50	10	97.5
42030	2023-11-21T15:49:50	9.8	99
42031	2023-11-21T15:59:50	9.6	99.5
42032	2023-11-21T16:09:50	9.6	100
42033	2023-11-21T16:19:50	9.4	100
42034	2023-11-21T16:29:50	9.3	100
42035	2023-11-21T16:39:50	9.1	100
42036	2023-11-21T16:49:50	9	100
42037	2023-11-21T16:59:49	8.9	100
42038	2023-11-21T17:09:50	8.8	100
42039	2023-11-21T17:19:50	8.8	100
42040	2023-11-21T17:29:49	8.8	100
42041	2023-11-21T17:39:49	8.7	99
42042	2023-11-21T17:49:49	8.8	100
42043	2023-11-21T17:59:49	8.8	100
42044	2023-11-21T18:09:49	8.8	100
42045	2023-11-21T18:19:49	8.8	99.5
42046	2023-11-21T18:29:49	8.8	100
42047	2023-11-21T18:39:49	8.9	100
42048	2023-11-21T18:49:49	8.8	100
42049	2023-11-21T18:59:49	8.9	100
42050	2023-11-21T19:09:49	8.9	100
42051	2023-11-21T19:19:49	8.8	99
42052	2023-11-21T19:29:49	8.8	100
42053	2023-11-21T19:39:49	8.9	99.5
42054	2023-11-21T19:49:49	8.8	100
42055	2023-11-21T19:59:49	8.9	100
42056	2023-11-21T20:09:49	8.9	99.5
42057	2023-11-21T20:19:49	8.9	99.5
42058	2023-11-21T20:29:49	9	100
42059	2023-11-21T20:39:49	8.9	100
42060	2023-11-21T20:49:49	8.8	98.5
42061	2023-11-21T20:59:49	8.9	98
42062	2023-11-21T21:09:49	8.9	100
42063	2023-11-21T21:19:49	8.8	100
42064	2023-11-21T21:29:49	8.8	100
42065	2023-11-21T21:39:49	8.9	100
42066	2023-11-21T21:49:49	9	99.5
42067	2023-11-21T21:59:49	8.9	99
42068	2023-11-21T22:09:49	8.9	99.5
42069	2023-11-21T22:19:49	9	100
42070	2023-11-21T22:29:49	8.9	100
42071	2023-11-21T22:39:49	8.9	100
42072	2023-11-21T22:49:49	8.9	100
42073	2023-11-21T22:59:49	9	100
42074	2023-11-21T23:09:49	8.9	100
42075	2023-11-21T23:19:49	9	98.5
42076	2023-11-21T23:29:49	8.7	95
42077	2023-11-21T23:39:49	8.6	95.5
42078	2023-11-21T23:49:49	8.5	94.5
42079	2023-11-21T23:59:49	8.4	95
42080	2023-11-22T00:09:49	8.2	94.5
42081	2023-11-22T00:19:49	8	95
42082	2023-11-22T00:29:49	7.8	94.5
42083	2023-11-22T00:39:49	7.7	95
42084	2023-11-22T00:49:49	7.6	97
42085	2023-11-22T00:59:49	7.5	95.5
42086	2023-11-22T01:09:49	7.4	95.5
42087	2023-11-22T01:19:49	7.3	94.5
42088	2023-11-22T01:29:49	7.2	96.5
42089	2023-11-22T01:39:49	7.1	95
42090	2023-11-22T01:49:49	7	96
42091	2023-11-22T01:59:49	6.7	94
42092	2023-11-22T02:09:49	6.7	92.5
42093	2023-11-22T02:19:49	6.5	93.5
42094	2023-11-22T02:29:49	6.5	94
42095	2023-11-22T02:39:49	6.3	91.5
42096	2023-11-22T02:49:49	6.3	90
42097	2023-11-22T02:59:49	6.2	90.5
42098	2023-11-22T03:09:49	6.1	94
42099	2023-11-22T03:19:49	6	90
42100	2023-11-22T03:29:49	6	92.5
42101	2023-11-22T03:39:49	5.9	93.5
42102	2023-11-22T03:49:49	6	93
42103	2023-11-22T03:59:49	6	92.5
42104	2023-11-22T04:09:49	5.9	93.5
42105	2023-11-22T04:19:49	5.8	92.5
42106	2023-11-22T04:29:49	5.7	92.5
42107	2023-11-22T04:39:49	5.6	90
42108	2023-11-22T04:49:49	5.4	87.5
42109	2023-11-22T04:59:49	5.3	88
42110	2023-11-22T05:09:49	5.2	88
42111	2023-11-22T05:19:49	5.1	88
42112	2023-11-22T05:29:49	4.7	89.5
42113	2023-11-22T05:39:49	4.5	89.5
42114	2023-11-22T05:49:49	4.3	91
42115	2023-11-22T05:59:49	4.2	89.5
42116	2023-11-22T06:09:49	4.1	88.5
42117	2023-11-22T06:29:49	3.9	91.5
42118	2023-11-22T06:39:49	3.6	90
42119	2023-11-22T06:49:49	3.4	89
42120	2023-11-22T06:59:49	3.3	89
42121	2023-11-22T07:09:49	3.1	90
42122	2023-11-22T07:19:49	3	91
42123	2023-11-22T07:29:49	3	92
42124	2023-11-22T07:39:49	2.9	92.5
42125	2023-11-22T07:49:49	2.9	91.5
42126	2023-11-22T07:59:49	2.8	92
42127	2023-11-22T08:09:49	2.9	90
42128	2023-11-22T08:19:49	2.9	89
42129	2023-11-22T08:29:49	2.9	89.5
42130	2023-11-22T08:39:49	2.9	90
42131	2023-11-22T08:49:49	3	92.5
42132	2023-11-22T08:59:49	3.3	93
42133	2023-11-22T09:09:49	3.6	87.5
42134	2023-11-22T09:19:49	3.9	89
42135	2023-11-22T09:29:49	3.9	83.5
42136	2023-11-22T09:39:49	4.2	87.5
42137	2023-11-22T09:49:49	4	85
42138	2023-11-22T09:59:49	4.2	82.5
42139	2023-11-22T10:09:49	4.4	82.5
42140	2023-11-22T10:19:49	4.7	81
42141	2023-11-22T10:29:49	4.7	78.5
42142	2023-11-22T10:39:49	4.6	78.5
42143	2023-11-22T10:49:49	4.9	80
42144	2023-11-22T10:59:49	5.4	78
42145	2023-11-22T11:09:49	5.7	77
42146	2023-11-22T11:19:49	5.7	76.5
42147	2023-11-22T11:29:49	5.5	76
42148	2023-11-22T11:39:49	5.4	75.5
42149	2023-11-22T11:49:49	5.3	76.5
42150	2023-11-22T11:59:49	5.3	77.5
42151	2023-11-22T12:09:49	5.2	75.5
42152	2023-11-22T12:19:49	5.3	77
42153	2023-11-22T12:29:49	5.2	76
42154	2023-11-22T12:39:49	5.2	78
42155	2023-11-22T12:49:49	5.3	78.5
42156	2023-11-22T12:59:49	5.6	76.5
42157	2023-11-22T13:09:49	5.6	78
42158	2023-11-22T13:19:49	5.6	78.5
42159	2023-11-22T13:29:49	5.8	78
42160	2023-11-22T13:39:49	5.5	77.5
42161	2023-11-22T13:49:49	5.3	74
42162	2023-11-22T13:59:49	5.3	74
42163	2023-11-22T14:09:49	5.2	76.5
42164	2023-11-22T14:19:49	5.2	77.5
42165	2023-11-22T14:29:49	5	78.5
42166	2023-11-22T14:39:49	5	83.5
42167	2023-11-22T14:49:49	5	83.5
42168	2023-11-22T14:59:49	5.1	82
42169	2023-11-22T15:09:49	4.8	78
42170	2023-11-22T15:19:49	4.8	78
42171	2023-11-22T15:29:49	4.7	80.5
42172	2023-11-22T15:39:49	4.7	86.5
42173	2023-11-22T15:49:49	4.7	82.5
42174	2023-11-22T16:09:49	4.4	86.5
42175	2023-11-22T16:19:49	4.2	83
42176	2023-11-22T16:29:49	3.8	84
42177	2023-11-22T16:39:49	3.8	88
42178	2023-11-22T16:49:49	3.6	88
42179	2023-11-22T16:59:49	3.5	90
42180	2023-11-22T17:09:49	3.4	89.5
42181	2023-11-22T17:19:49	3.4	89.5
42182	2023-11-22T17:29:49	3.4	90
42183	2023-11-22T17:39:49	3.4	90.5
42184	2023-11-22T17:49:49	3.5	87.5
42185	2023-11-22T17:59:49	3.3	88
42186	2023-11-22T18:09:49	3.1	91
42187	2023-11-22T18:19:49	3	91
42188	2023-11-22T18:29:49	2.7	90
42189	2023-11-22T18:39:49	2.7	92
42190	2023-11-22T18:49:49	2.7	89.5
42191	2023-11-22T18:59:49	2.8	91
42192	2023-11-22T19:09:49	2.8	93
42193	2023-11-22T19:19:49	2.6	93
42194	2023-11-22T19:29:49	2.6	92.5
42195	2023-11-22T19:39:49	2.6	91.5
42196	2023-11-22T19:49:49	2.5	90
42197	2023-11-22T20:09:49	2.3	93.5
42198	2023-11-22T20:19:49	2.2	92.5
42199	2023-11-22T20:29:49	2.1	90.5
42200	2023-11-22T20:39:49	2.1	92.5
42201	2023-11-22T20:49:49	1.9	93
42202	2023-11-22T20:59:48	1.7	93.5
42203	2023-11-22T21:09:48	1.7	93.5
42204	2023-11-22T21:19:48	1.5	92.5
42205	2023-11-22T21:29:48	1.6	94
42206	2023-11-22T21:39:48	1.6	94
42207	2023-11-22T21:49:49	1.4	92.5
42208	2023-11-22T21:59:49	1.3	93.5
42209	2023-11-22T22:09:48	1.3	94.5
42210	2023-11-22T22:19:49	1.3	93.5
42211	2023-11-22T22:29:48	1.4	92.5
42212	2023-11-22T22:39:48	1.4	91.5
42213	2023-11-22T22:49:48	1.1	93
42214	2023-11-22T22:59:49	1.2	94
42215	2023-11-22T23:09:49	1	93
42216	2023-11-22T23:19:49	1	95.5
42217	2023-11-22T23:29:48	1	94.5
42218	2023-11-22T23:39:48	1.1	95
42219	2023-11-22T23:49:48	1	94
42220	2023-11-22T23:59:48	0.9	94
42221	2023-11-23T00:09:48	0.9	94.5
42222	2023-11-23T00:19:48	1.3	94.5
42223	2023-11-23T00:29:48	1.3	93
42224	2023-11-23T00:39:48	1.4	94
42225	2023-11-23T00:49:48	1.4	94.5
42226	2023-11-23T00:59:48	1.5	94
42227	2023-11-23T01:09:48	1.5	94
42228	2023-11-23T01:19:49	1.8	94
42229	2023-11-23T01:29:48	1.7	93.5
42230	2023-11-23T01:39:48	1.5	94
42231	2023-11-23T01:49:48	1.2	94
42232	2023-11-23T01:59:48	1.1	94.5
42233	2023-11-23T02:09:48	1.1	94
42234	2023-11-23T02:19:48	1.1	93
42235	2023-11-23T02:29:48	1	94
42236	2023-11-23T02:39:48	0.9	93.5
42237	2023-11-23T02:49:48	0.8	94.5
42238	2023-11-23T02:59:48	0.7	94
42239	2023-11-23T03:09:48	0.4	95.5
42240	2023-11-23T03:19:48	0.7	96
42241	2023-11-23T03:29:48	0.8	96
42242	2023-11-23T03:39:48	0.6	95
42243	2023-11-23T03:49:48	0.6	95
42244	2023-11-23T03:59:48	0.4	95
42245	2023-11-23T04:09:48	0.5	95.5
42246	2023-11-23T04:19:48	0.2	95.5
42247	2023-11-23T04:29:48	0.3	96
42248	2023-11-23T04:39:49	0.2	96
42249	2023-11-23T04:49:48	0.2	94.5
42250	2023-11-23T04:59:48	0	95
42251	2023-11-23T05:09:48	0.2	95.5
42252	2023-11-23T05:19:48	0.1	95.5
42253	2023-11-23T05:29:48	0.2	95
42254	2023-11-23T05:39:48	0.2	95.5
42255	2023-11-23T05:49:48	0.2	96.5
42256	2023-11-23T05:59:48	0.1	97.5
42257	2023-11-23T06:09:49	0.4	95
42258	2023-11-23T06:19:48	0.5	95
42259	2023-11-23T06:29:49	0.7	94
42260	2023-11-23T06:39:48	0.9	95
42261	2023-11-23T06:49:48	1	95.5
42262	2023-11-23T06:59:48	1.2	94
42263	2023-11-23T07:09:48	1.2	95
42264	2023-11-23T07:19:48	1.5	93.5
42265	2023-11-23T07:29:48	1.5	92
42266	2023-11-23T07:39:48	1.6	93
42267	2023-11-23T07:49:48	1.7	93
42268	2023-11-23T07:59:48	1.8	92
42269	2023-11-23T08:09:48	2	91.5
42270	2023-11-23T08:19:48	2.2	92
42271	2023-11-23T08:29:48	2.3	90.5
42272	2023-11-23T08:39:48	2.3	90
42273	2023-11-23T08:49:49	2.6	89.5
42274	2023-11-23T08:59:48	2.7	89
42275	2023-11-23T09:09:48	2.9	88.5
42276	2023-11-23T09:19:48	3.1	88
42277	2023-11-23T09:29:48	3.3	85
42278	2023-11-23T09:39:48	3.5	84
42279	2023-11-23T09:49:48	3.7	84.5
42280	2023-11-23T09:59:48	3.7	83.5
42281	2023-11-23T10:09:48	3.9	83.5
42282	2023-11-23T10:19:48	4	83
42283	2023-11-23T10:29:48	4.1	83.5
42284	2023-11-23T10:39:48	4.2	84.5
42285	2023-11-23T10:49:48	4.4	83.5
42286	2023-11-23T10:59:48	4.4	83
42287	2023-11-23T11:09:48	4.7	82
42288	2023-11-23T11:19:48	4.7	81.5
42289	2023-11-23T11:29:48	4.9	81.5
42290	2023-11-23T11:39:48	5.1	80
42291	2023-11-23T11:49:48	5.2	77.5
42292	2023-11-23T11:59:48	5.4	76.5
42293	2023-11-23T12:09:48	5.5	77
42294	2023-11-23T12:29:48	5.9	76
42295	2023-11-23T12:39:48	6	76
42296	2023-11-23T12:49:48	5.9	77.5
42297	2023-11-23T12:59:48	5.8	78.5
42298	2023-11-23T13:09:48	5.8	80
42299	2023-11-23T13:19:48	6	81
42300	2023-11-23T13:29:48	6	81
42301	2023-11-23T13:39:48	6	81
42302	2023-11-23T13:49:48	6.1	82
42303	2023-11-23T13:59:48	6.1	84
42304	2023-11-23T14:09:48	6.1	85
42305	2023-11-23T14:19:49	6.1	85.5
42306	2023-11-23T14:29:48	6	86
42307	2023-11-23T14:39:48	6	86.5
42308	2023-11-23T14:49:48	6.1	86.5
42309	2023-11-23T14:59:48	6.2	87
42310	2023-11-23T15:09:48	6.3	87.5
42311	2023-11-23T15:19:48	6.4	88
42312	2023-11-23T15:29:49	6.5	88.5
42313	2023-11-23T15:39:48	6.7	89
42314	2023-11-23T15:49:49	6.7	89
42315	2023-11-23T15:59:48	7	89
42316	2023-11-23T16:09:48	7	89
42317	2023-11-23T16:19:48	7.2	88.5
42318	2023-11-23T16:29:48	7.6	87.5
42319	2023-11-23T16:39:48	7.6	87
42320	2023-11-23T16:49:48	7.7	86.5
42321	2023-11-23T16:59:48	7.7	86.5
42322	2023-11-23T17:09:48	7.8	86
42323	2023-11-23T17:19:48	8.1	85.5
42324	2023-11-23T17:29:48	8.1	85
42325	2023-11-23T17:39:48	8.3	84.5
42326	2023-11-23T17:49:48	8.3	83.5
42327	2023-11-23T17:59:48	8.4	83
42328	2023-11-23T18:09:48	8.3	82.5
42329	2023-11-23T18:19:48	8.3	82.5
42330	2023-11-23T18:29:48	8.4	82
42331	2023-11-23T18:39:48	8.5	81
42332	2023-11-23T18:49:48	8.4	80.5
42333	2023-11-23T18:59:48	8.4	80.5
42334	2023-11-23T19:09:48	8.5	80
42335	2023-11-23T19:19:48	8.4	80
42336	2023-11-23T19:29:48	8.4	80
42337	2023-11-23T19:39:48	8.4	80
42338	2023-11-23T19:49:48	8.3	80
42339	2023-11-23T19:59:48	8.3	79
42340	2023-11-23T20:09:48	8.3	78
42341	2023-11-23T20:19:48	8.3	77
42342	2023-11-23T20:29:48	8.3	77.5
42343	2023-11-23T20:39:48	8.2	77.5
42344	2023-11-23T20:49:48	8.2	79.5
42345	2023-11-23T20:59:48	8.1	80
42346	2023-11-23T21:09:48	8.1	81
42347	2023-11-23T21:19:48	8.2	83
42348	2023-11-23T21:29:49	8.1	84
42349	2023-11-23T21:39:48	8	84.5
42350	2023-11-23T21:49:48	8	85.5
42351	2023-11-23T21:59:48	8.1	86.5
42352	2023-11-23T22:09:48	8.1	87
42353	2023-11-23T22:19:48	8.2	87.5
42354	2023-11-23T22:40:09	8.2	87
42355	2023-11-23T22:49:48	8.1	86.5
42356	2023-11-23T22:59:48	8.2	86.5
42357	2023-11-23T23:09:48	7.9	89
42358	2023-11-23T23:19:48	7.8	91
42359	2023-11-23T23:29:48	7.7	93
42360	2023-11-23T23:39:48	7.5	95
42361	2023-11-23T23:49:48	7.3	96.5
42362	2023-11-23T23:59:48	7.3	97.5
42363	2023-11-24T00:09:48	7.3	97
42364	2023-11-24T00:19:48	7.4	97.5
42365	2023-11-24T00:29:48	7.4	97.5
42366	2023-11-24T00:39:48	7.6	97
42367	2023-11-24T00:49:48	7.5	96.5
42368	2023-11-24T00:59:48	7.8	95.5
42369	2023-11-24T01:09:48	7.8	94.5
42370	2023-11-24T01:19:48	7.9	93
42371	2023-11-24T01:29:48	8.1	92
42372	2023-11-24T01:39:48	8.1	91
42373	2023-11-24T01:49:48	8.2	90.5
42374	2023-11-24T01:59:48	8.2	90.5
42375	2023-11-24T02:09:48	7.9	92.5
42376	2023-11-24T02:19:48	7.6	96
42377	2023-11-24T02:29:48	7.6	97
42378	2023-11-24T02:40:03	7.5	97.5
42379	2023-11-24T02:49:48	7.3	99
42380	2023-11-24T02:59:48	7.3	100
42381	2023-11-24T03:09:48	7.2	100
42382	2023-11-24T03:19:48	7.3	100
42383	2023-11-24T03:29:48	7.3	100
42384	2023-11-24T03:39:48	7.3	100
42385	2023-11-24T03:49:48	7.4	100
42386	2023-11-24T03:59:48	7.5	100
42387	2023-11-24T04:09:47	7.6	100
42388	2023-11-24T04:19:47	7.6	100
42389	2023-11-24T04:29:47	7.5	100
42390	2023-11-24T04:39:47	7.6	100
42391	2023-11-24T04:49:48	7.6	100
42392	2023-11-24T04:59:47	7.6	100
42393	2023-11-24T05:09:47	7.6	100
42394	2023-11-24T05:19:47	7.7	100
42395	2023-11-24T05:29:47	7.6	100
42396	2023-11-24T05:39:47	7.7	100
42397	2023-11-24T05:49:47	7.7	100
42398	2023-11-24T05:59:47	7.7	100
42399	2023-11-24T06:09:47	7.5	100
42400	2023-11-24T06:19:47	7.5	100
42401	2023-11-24T06:29:47	7.5	100
42402	2023-11-24T06:39:47	7.4	100
42403	2023-11-24T06:49:47	7.4	100
42404	2023-11-24T06:59:47	7.3	100
42405	2023-11-24T07:09:47	7.3	100
42406	2023-11-24T07:19:47	7.4	100
42407	2023-11-24T07:29:47	7.3	100
42408	2023-11-24T07:39:47	7.3	100
42409	2023-11-24T07:49:47	7.4	100
42410	2023-11-24T07:59:47	7.5	100
42411	2023-11-24T08:19:47	7.5	100
42412	2023-11-24T08:29:47	7.5	100
42413	2023-11-24T08:39:47	7.5	100
42414	2023-11-24T08:49:47	7.6	100
42415	2023-11-24T08:59:47	7.6	100
42416	2023-11-24T09:09:47	7.7	100
42417	2023-11-24T09:19:48	7.6	100
42418	2023-11-24T09:29:47	7.8	100
42419	2023-11-24T09:39:47	8	100
42420	2023-11-24T09:49:47	8.1	100
42421	2023-11-24T09:59:47	8.1	100
42422	2023-11-24T10:09:47	8.2	100
42423	2023-11-24T10:19:47	8.2	100
42424	2023-11-24T10:29:47	8.3	100
42425	2023-11-24T10:39:47	8.2	100
42426	2023-11-24T10:49:47	8	100
42427	2023-11-24T10:59:47	8.1	100
42428	2023-11-24T11:09:47	8	98.5
42429	2023-11-24T11:19:47	8	99.5
42430	2023-11-24T11:29:47	7.8	100
42431	2023-11-24T11:39:47	7.1	100
42432	2023-11-24T11:49:47	6.9	100
42433	2023-11-24T11:59:47	6.7	100
42434	2023-11-24T12:09:47	6.9	100
42435	2023-11-24T12:19:47	6.9	100
42436	2023-11-24T12:29:47	6.1	100
42437	2023-11-24T12:39:47	6.2	100
42438	2023-11-24T12:49:47	6.3	100
42439	2023-11-24T12:59:47	6.3	100
42440	2023-11-24T13:09:47	6.7	100
42441	2023-11-24T13:19:47	6.4	100
42442	2023-11-24T13:29:47	6.2	100
42443	2023-11-24T13:39:47	6.1	100
42444	2023-11-24T13:49:47	6	100
42445	2023-11-24T13:59:47	6.2	100
42446	2023-11-24T14:09:47	6.2	100
42447	2023-11-24T14:19:47	6.8	100
42448	2023-11-24T14:29:47	6.4	99.5
42449	2023-11-24T14:39:47	6.3	100
42450	2023-11-24T14:49:47	6.2	100
42451	2023-11-24T14:59:47	4.7	100
42452	2023-11-24T15:09:47	4.5	100
42453	2023-11-24T15:19:47	4.2	100
42454	2023-11-24T15:29:47	4.2	100
42455	2023-11-24T15:39:47	4.4	100
42456	2023-11-24T15:49:47	4.4	100
42457	2023-11-24T15:59:47	4.1	100
42458	2023-11-24T16:09:47	4	100
42459	2023-11-24T16:19:47	3.9	100
42460	2023-11-24T16:29:47	3.7	100
42461	2023-11-24T16:39:47	3.6	100
42462	2023-11-24T16:49:47	3.5	100
42463	2023-11-24T16:59:47	3.5	100
42464	2023-11-24T17:09:47	3.6	100
42465	2023-11-24T17:19:47	3.6	100
42466	2023-11-24T17:29:47	3.9	100
42467	2023-11-24T17:39:47	3.8	100
42468	2023-11-24T17:49:47	3.7	100
42469	2023-11-24T17:59:47	3.6	100
42470	2023-11-24T18:09:47	3.7	97.5
42471	2023-11-24T18:19:47	3.7	95.5
42472	2023-11-24T18:29:47	3.7	94.5
42473	2023-11-24T18:39:47	3.6	93.5
42474	2023-11-24T18:49:47	3.7	93
42475	2023-11-24T18:59:47	3.6	93.5
42476	2023-11-24T19:09:47	3.6	93.5
42477	2023-11-24T19:19:47	3.6	93
42478	2023-11-24T19:29:47	3.7	92.5
42479	2023-11-24T19:39:47	3.9	91.5
42480	2023-11-24T19:49:47	3.8	91.5
42481	2023-11-24T19:59:47	3.9	91
42482	2023-11-24T20:09:47	3.9	91
42483	2023-11-24T20:19:47	3.9	91
42484	2023-11-24T20:29:47	3.9	91.5
42485	2023-11-24T20:39:47	3.9	90.5
42486	2023-11-24T20:49:47	4	90.5
42487	2023-11-24T20:59:47	3.9	90.5
42488	2023-11-24T21:09:47	4	90.5
42489	2023-11-24T21:19:47	4	90
42490	2023-11-24T21:29:47	4	89.5
42491	2023-11-24T21:39:47	4.1	88.5
42492	2023-11-24T21:49:47	4.2	88.5
42493	2023-11-24T21:59:47	4.1	87.5
42494	2023-11-24T22:09:47	4	88.5
42495	2023-11-24T22:19:47	4	88.5
42496	2023-11-24T22:29:47	4.1	88.5
42497	2023-11-24T22:39:47	4.1	88
42498	2023-11-24T22:49:47	4.3	87.5
42499	2023-11-24T22:59:47	4.1	87.5
42500	2023-11-24T23:09:47	4.2	84.5
42501	2023-11-24T23:19:47	4.3	85.5
42502	2023-11-24T23:29:47	4.3	85
42503	2023-11-24T23:39:47	4.2	85
42504	2023-11-24T23:49:47	4.4	83.5
42505	2023-11-24T23:59:47	4.4	83
42506	2023-11-25T00:09:47	4.3	84.5
42507	2023-11-25T00:19:47	4.3	84.5
42508	2023-11-25T00:29:47	4.2	83
42509	2023-11-25T00:39:47	4.3	83.5
42510	2023-11-25T00:49:47	4.2	82.5
42511	2023-11-25T00:59:47	4.1	84
42512	2023-11-25T01:09:47	3.9	84
42513	2023-11-25T01:19:47	3.7	86
42514	2023-11-25T01:29:47	3.6	85
42515	2023-11-25T01:39:47	3.4	86.5
42516	2023-11-25T01:49:47	3.3	85.5
42517	2023-11-25T01:59:47	3.2	86
42518	2023-11-25T02:09:47	3.2	87.5
42519	2023-11-25T02:19:47	3.3	88.5
42520	2023-11-25T02:29:47	3.2	89
42521	2023-11-25T02:39:47	3.1	87.5
42522	2023-11-25T02:49:47	2.9	90
42523	2023-11-25T02:59:47	2.9	89.5
42524	2023-11-25T03:09:47	2.8	89.5
42525	2023-11-25T03:19:47	2.8	89.5
42526	2023-11-25T03:29:47	2.7	90
42527	2023-11-25T03:39:47	2.5	90
42528	2023-11-25T03:49:47	2.3	90
42529	2023-11-25T03:59:47	2.2	90.5
42530	2023-11-25T04:09:47	2.1	90
42531	2023-11-25T04:19:47	2.1	90.5
42532	2023-11-25T04:29:47	2.1	91
42533	2023-11-25T04:39:47	1.9	91.5
42534	2023-11-25T04:49:47	1.8	92
42535	2023-11-25T04:59:47	1.8	91.5
42536	2023-11-25T05:09:47	1.7	92
42537	2023-11-25T05:19:47	1.8	91.5
42538	2023-11-25T05:29:47	1.9	91.5
42539	2023-11-25T05:39:47	2.1	91.5
42540	2023-11-25T05:49:47	2.2	91.5
42541	2023-11-25T05:59:47	2.2	91.5
42542	2023-11-25T06:09:47	2.3	91
42543	2023-11-25T06:19:47	2.3	91
42544	2023-11-25T06:29:47	2.3	91
42545	2023-11-25T06:39:47	2.5	90.5
42546	2023-11-25T06:49:47	2.4	90
42547	2023-11-25T06:59:47	2.5	90
42548	2023-11-25T07:09:47	2.5	90
42549	2023-11-25T07:19:47	2.5	90.5
42550	2023-11-25T07:29:47	2.6	90
42551	2023-11-25T07:39:47	2.5	90.5
42552	2023-11-25T07:49:47	2.6	90.5
42553	2023-11-25T07:59:47	2.8	90.5
42554	2023-11-25T08:09:47	2.9	89.5
42555	2023-11-25T08:19:47	3	90
42556	2023-11-25T08:29:47	3.3	89.5
42557	2023-11-25T08:39:47	3.3	89
42558	2023-11-25T08:49:47	3.5	90
42559	2023-11-25T08:59:47	3.5	88.5
42560	2023-11-25T09:09:47	3.7	88.5
42561	2023-11-25T09:19:47	3.9	88
42562	2023-11-25T09:29:47	3.9	87.5
42563	2023-11-25T09:39:47	4.1	86.5
42564	2023-11-25T09:49:47	4.2	86.5
42565	2023-11-25T09:59:47	4.2	85
42566	2023-11-25T10:09:47	4.3	85
42567	2023-11-25T10:19:47	4.2	84.5
42568	2023-11-25T10:29:47	3.9	88
42569	2023-11-25T10:39:47	4	87
42570	2023-11-25T10:49:47	3.7	91.5
42571	2023-11-25T10:59:47	3.2	96
42572	2023-11-25T11:09:47	3.1	98.5
42573	2023-11-25T11:19:47	3.1	98
42574	2023-11-25T11:29:47	3.2	98.5
42575	2023-11-25T11:39:46	3.4	96.5
42576	2023-11-25T11:49:46	3.6	96.5
42577	2023-11-25T11:59:46	3.8	92.5
42578	2023-11-25T12:09:46	3.9	92
42579	2023-11-25T12:19:46	4	91.5
42580	2023-11-25T12:29:46	4.1	90.5
42581	2023-11-25T12:39:46	3.8	92.5
42582	2023-11-25T12:49:46	3.9	92
42583	2023-11-25T12:59:46	3.9	93
42584	2023-11-25T13:09:47	4	93.5
42585	2023-11-25T13:19:46	4.1	92.5
42586	2023-11-25T13:29:46	4.2	93
42587	2023-11-25T13:39:46	4.2	92.5
42588	2023-11-25T13:49:46	4.3	92.5
42589	2023-11-25T13:59:46	4.3	92
42590	2023-11-25T14:09:46	4.4	92.5
42591	2023-11-25T14:19:46	4.6	90.5
42592	2023-11-25T14:29:46	4.6	90.5
42593	2023-11-25T14:39:46	4.5	91.5
42594	2023-11-25T14:49:46	4.4	93.5
42595	2023-11-25T14:59:46	4	98
42596	2023-11-25T15:09:46	4	97.5
42597	2023-11-25T15:19:46	4.1	96.5
42598	2023-11-25T15:29:46	4.1	95.5
42599	2023-11-25T15:39:46	4.2	93.5
42600	2023-11-25T15:49:46	4.3	93
42601	2023-11-25T15:59:46	4.3	92.5
42602	2023-11-25T16:09:46	4.4	92
42603	2023-11-25T16:19:46	4.4	92
42604	2023-11-25T16:29:46	4.4	91.5
42605	2023-11-25T16:39:46	4.4	91.5
42606	2023-11-25T16:59:46	4.6	91.5
42607	2023-11-25T17:09:46	4.5	92
42608	2023-11-25T17:19:46	4.6	91.5
42609	2023-11-25T17:29:46	4.5	92
42610	2023-11-25T17:39:46	4.5	92
42611	2023-11-25T17:49:46	4.5	92
42612	2023-11-25T17:59:46	4.7	91.5
42613	2023-11-25T18:09:46	4.6	90.5
42614	2023-11-25T18:19:47	4.6	91.5
42615	2023-11-25T18:29:46	4.5	91.5
42616	2023-11-25T18:39:46	4.5	91.5
42617	2023-11-25T18:49:46	4.7	91
42618	2023-11-25T18:59:46	4.7	90
42619	2023-11-25T19:09:47	4.8	89.5
42620	2023-11-25T19:19:46	5	89
42621	2023-11-25T19:29:46	4.9	89.5
42622	2023-11-25T19:39:46	4.9	89.5
42623	2023-11-25T19:49:46	4.9	89.5
42624	2023-11-25T19:59:46	4.9	89
42625	2023-11-25T20:09:46	4.9	89.5
42626	2023-11-25T20:19:46	4.9	89
42627	2023-11-25T20:29:46	5	88
42628	2023-11-25T20:39:46	5.1	88.5
42629	2023-11-25T20:49:46	5.1	88.5
42630	2023-11-25T20:59:46	5.1	88
42631	2023-11-25T21:09:47	5.2	88
42632	2023-11-25T21:19:46	5.1	88.5
42633	2023-11-25T21:29:46	5.1	90
42634	2023-11-25T21:39:46	4.9	89.5
42635	2023-11-25T21:49:46	5.1	89.5
42636	2023-11-25T21:59:46	5	90
42637	2023-11-25T22:09:46	5	90
42638	2023-11-25T22:19:46	5	90
42639	2023-11-25T22:29:46	5	90.5
42640	2023-11-25T22:39:46	4.7	99
42641	2023-11-25T22:49:46	4.5	99.5
42642	2023-11-25T22:59:46	4.4	97.5
42643	2023-11-25T23:09:46	4.5	99.5
42644	2023-11-25T23:19:46	4.5	99.5
42645	2023-11-25T23:29:46	4.4	99
42646	2023-11-25T23:39:46	4.3	96
42647	2023-11-25T23:49:46	4.1	93
42648	2023-11-25T23:59:46	4.2	97
42649	2023-11-26T00:09:46	4.2	94.5
42650	2023-11-26T00:19:46	4.2	97.5
42651	2023-11-26T00:29:46	4.2	98
42652	2023-11-26T00:39:46	4	96.5
42653	2023-11-26T00:49:46	3.9	96.5
42654	2023-11-26T00:59:46	3.9	96
42655	2023-11-26T01:09:46	3.8	96.5
42656	2023-11-26T01:19:46	3.7	96.5
42657	2023-11-26T01:29:46	3.7	96.5
42658	2023-11-26T01:39:46	3.6	96
42659	2023-11-26T01:49:46	3.5	96
42660	2023-11-26T01:59:46	3.5	95.5
42661	2023-11-26T02:19:46	3.5	95
42662	2023-11-26T02:29:46	3.5	94.5
42663	2023-11-26T02:39:46	3.5	93.5
42664	2023-11-26T02:49:46	3.7	93
42665	2023-11-26T02:59:46	3.6	93
42666	2023-11-26T03:09:46	3.5	92
42667	2023-11-26T03:19:46	3.4	93
42668	2023-11-26T03:29:46	3.3	93.5
42669	2023-11-26T03:39:46	3.3	93
42670	2023-11-26T03:49:46	3.1	93
42671	2023-11-26T03:59:46	2.8	93.5
42672	2023-11-26T04:09:46	2.7	94
42673	2023-11-26T04:19:46	2.8	94
42674	2023-11-26T04:29:46	2.9	94
42675	2023-11-26T04:39:46	3	94
42676	2023-11-26T04:49:46	3	94
42677	2023-11-26T04:59:46	3	94
42678	2023-11-26T05:09:46	3.1	94
42679	2023-11-26T05:19:46	3.1	93
42680	2023-11-26T05:29:46	3.3	93
42681	2023-11-26T05:39:46	3.4	94
42682	2023-11-26T05:49:46	3.4	93.5
42683	2023-11-26T05:59:46	3.5	94
42684	2023-11-26T06:09:46	3.7	94
42685	2023-11-26T06:19:46	3.7	93.5
42686	2023-11-26T06:29:46	3.8	93.5
42687	2023-11-26T06:39:46	3.9	93.5
42688	2023-11-26T06:49:46	3.8	93.5
42689	2023-11-26T06:59:46	3.9	93.5
42690	2023-11-26T07:09:46	3.9	94
42691	2023-11-26T07:19:46	4.1	94
42692	2023-11-26T07:29:46	4	94
42693	2023-11-26T07:39:46	4.2	93.5
42694	2023-11-26T07:49:46	4.3	93.5
42695	2023-11-26T07:59:46	4.3	93.5
42696	2023-11-26T08:09:46	4.3	93.5
42697	2023-11-26T08:19:46	4.3	94
42698	2023-11-26T08:29:46	4.4	93.5
42699	2023-11-26T08:39:46	4.6	93.5
42700	2023-11-26T08:49:46	4.7	92.5
42701	2023-11-26T08:59:46	4.8	92.5
42702	2023-11-26T09:09:46	4.9	92.5
42703	2023-11-26T09:19:46	4.8	92.5
42704	2023-11-26T09:29:46	5	91.5
42705	2023-11-26T09:39:46	5.3	91.5
42706	2023-11-26T09:49:46	5.5	89.5
42707	2023-11-26T09:59:46	5.5	88.5
42708	2023-11-26T10:09:46	5.7	89
42709	2023-11-26T10:19:46	5.9	88
42710	2023-11-26T10:29:46	6	87.5
42711	2023-11-26T10:39:46	6.1	87
42712	2023-11-26T10:49:46	6.2	87.5
42713	2023-11-26T10:59:46	6	86.5
42714	2023-11-26T11:09:46	5.9	86.5
42715	2023-11-26T11:19:46	5.9	87
42716	2023-11-26T11:29:46	6	87
42717	2023-11-26T11:39:46	6.1	88
42718	2023-11-26T11:49:46	6.3	86
42719	2023-11-26T11:59:46	6.3	86
42720	2023-11-26T12:09:46	6.2	85.5
42721	2023-11-26T12:19:46	6.2	85.5
42722	2023-11-26T12:29:46	6	85.5
42723	2023-11-26T12:39:46	6.1	86
42724	2023-11-26T12:49:46	6.1	86.5
42725	2023-11-26T12:59:46	6	86
42726	2023-11-26T13:09:46	6	86.5
42727	2023-11-26T13:19:46	5.8	86
42728	2023-11-26T13:29:46	5.9	86.5
42729	2023-11-26T13:39:46	5.8	86.5
42730	2023-11-26T13:49:46	5.7	89
42731	2023-11-26T13:59:46	5.8	91
42732	2023-11-26T14:09:46	5.8	90.5
42733	2023-11-26T14:19:46	5.7	87.5
42734	2023-11-26T14:29:46	5.7	87.5
42735	2023-11-26T14:39:46	5.7	87.5
42736	2023-11-26T14:49:46	5.5	88.5
42737	2023-11-26T14:59:46	5.2	94
42738	2023-11-26T15:09:46	5	96.5
42739	2023-11-26T15:19:46	4.9	98
42740	2023-11-26T15:29:46	4.8	99
42741	2023-11-26T15:39:46	4.8	100
42742	2023-11-26T15:49:46	4.8	100
42743	2023-11-26T15:59:46	4.8	100
42744	2023-11-26T16:09:46	4.8	100
42745	2023-11-26T16:19:46	4.6	100
42746	2023-11-26T16:29:46	4.6	100
42747	2023-11-26T16:39:46	4.5	100
42748	2023-11-26T16:49:46	4.6	100
42749	2023-11-26T16:59:46	4.4	100
42750	2023-11-26T17:09:46	4.5	100
42751	2023-11-26T17:19:46	4.5	100
42752	2023-11-26T17:29:46	4.4	100
42753	2023-11-26T17:39:46	4.5	100
42754	2023-11-26T17:49:46	4.4	100
42755	2023-11-26T17:59:46	4.4	100
42756	2023-11-26T18:09:45	4.4	100
42757	2023-11-26T18:19:45	4.3	100
42758	2023-11-26T18:29:45	4.4	100
42759	2023-11-26T18:39:45	4.4	100
42760	2023-11-26T18:49:45	4.4	100
42761	2023-11-26T18:59:46	4.4	100
42762	2023-11-26T19:09:45	4.4	100
42763	2023-11-26T19:19:45	4.4	100
42764	2023-11-26T19:29:45	4.5	100
42765	2023-11-26T19:39:45	4.4	98.5
42766	2023-11-26T19:49:45	4.4	98
42767	2023-11-26T19:59:45	4.5	97
42768	2023-11-26T20:09:45	4.5	97
42769	2023-11-26T20:19:45	4.5	97
42770	2023-11-26T20:29:45	4.5	96.5
42771	2023-11-26T20:39:45	4.5	96.5
42772	2023-11-26T20:49:45	4.4	96
42773	2023-11-26T20:59:45	4.4	95.5
42774	2023-11-26T21:09:45	4.3	95.5
42775	2023-11-26T21:19:45	4.2	95
42776	2023-11-26T21:29:45	4.1	94
42777	2023-11-26T21:39:45	4.2	93.5
42778	2023-11-26T21:49:45	4.1	93
42779	2023-11-26T21:59:45	4.1	92.5
42780	2023-11-26T22:09:45	4.2	93
42781	2023-11-26T22:19:45	4.2	92.5
42782	2023-11-26T22:29:45	4	92.5
42783	2023-11-26T22:39:45	4.1	92.5
42784	2023-11-26T22:49:45	4.1	92
42785	2023-11-26T23:09:45	4.1	91.5
42786	2023-11-26T23:19:45	4	93
42787	2023-11-26T23:29:45	3.9	93.5
42788	2023-11-26T23:39:45	3.9	94
42789	2023-11-26T23:59:45	3.7	93
42790	2023-11-27T00:09:45	3.8	93
42791	2023-11-27T00:19:45	3.7	93.5
42792	2023-11-27T00:29:45	3.7	93
42793	2023-11-27T00:39:45	3.6	94
42794	2023-11-27T00:49:45	3.6	93.5
42795	2023-11-27T00:59:45	3.6	95
42796	2023-11-27T01:09:45	3.6	97
42797	2023-11-27T01:19:45	3.7	98.5
42798	2023-11-27T01:29:45	3.8	97.5
42799	2023-11-27T01:39:45	3.6	94.5
42800	2023-11-27T01:49:45	3.7	93.5
42801	2023-11-27T01:59:45	3.7	93.5
42802	2023-11-27T02:09:45	3.6	93
42803	2023-11-27T02:19:45	3.6	93
42804	2023-11-27T02:29:45	3.6	93.5
42805	2023-11-27T02:39:45	3.5	93.5
42806	2023-11-27T02:49:45	3.4	93.5
42807	2023-11-27T02:59:45	3.3	92.5
42808	2023-11-27T03:09:45	3.2	92.5
42809	2023-11-27T03:19:45	3.3	93
42810	2023-11-27T03:29:45	3.1	93
42811	2023-11-27T03:39:45	3	93
42812	2023-11-27T03:49:45	3.1	93.5
42813	2023-11-27T03:59:45	3	93.5
42814	2023-11-27T04:09:45	3.1	94
42815	2023-11-27T04:19:45	3	93.5
42816	2023-11-27T04:29:45	3	92.5
42817	2023-11-27T04:39:45	3.1	93
42818	2023-11-27T04:49:45	3.1	93
42819	2023-11-27T04:59:45	3	92
42820	2023-11-27T05:09:45	3.1	92
42821	2023-11-27T05:19:45	3	92
42822	2023-11-27T05:29:45	3.2	92
42823	2023-11-27T05:39:45	3.1	92
42824	2023-11-27T05:49:45	3.1	92
42825	2023-11-27T05:59:45	3.2	90.5
42826	2023-11-27T06:09:45	3.2	91.5
42827	2023-11-27T06:19:45	3.2	91.5
42828	2023-11-27T06:29:45	3.2	92.5
42829	2023-11-27T06:39:45	3.2	92
42830	2023-11-27T06:49:45	3.1	92.5
42831	2023-11-27T06:59:45	3.1	92
42832	2023-11-27T07:09:45	3.1	92.5
42833	2023-11-27T07:19:45	3.2	92
42834	2023-11-27T07:29:45	3.3	91.5
42835	2023-11-27T07:39:45	3.2	91.5
42836	2023-11-27T07:49:45	3.2	91.5
42837	2023-11-27T07:59:45	3.4	92
42838	2023-11-27T08:09:45	3.5	91.5
42839	2023-11-27T08:19:45	3.6	91.5
42840	2023-11-27T08:29:45	3.7	91.5
42841	2023-11-27T08:40:03	3.7	92.5
42842	2023-11-27T08:49:45	3.9	91.5
42843	2023-11-27T08:59:45	4	90
42844	2023-11-27T09:09:45	4.1	88.5
42845	2023-11-27T09:19:45	4.2	88
42846	2023-11-27T09:29:45	4.5	87
42847	2023-11-27T09:39:45	4.8	88.5
42848	2023-11-27T09:49:45	4.9	88.5
42849	2023-11-27T09:59:45	5	83.5
42850	2023-11-27T10:09:46	5.1	81.5
42851	2023-11-27T10:19:45	5.3	81.5
42852	2023-11-27T10:29:45	5.4	80
42853	2023-11-27T10:39:45	5.5	80
42854	2023-11-27T10:49:45	5.7	79
42855	2023-11-27T10:59:45	5.7	78
42856	2023-11-27T11:09:45	6	76.5
42857	2023-11-27T11:19:45	5.8	75
42858	2023-11-27T11:29:45	6	63
42859	2023-11-27T11:39:45	5.8	64.5
42860	2023-11-27T11:49:45	6	67
42861	2023-11-27T11:59:45	5.6	72.5
42862	2023-11-27T12:09:45	5.2	76
42863	2023-11-27T12:19:45	4.9	80
42864	2023-11-27T12:29:45	4.4	88
42865	2023-11-27T12:39:45	3.9	92
42866	2023-11-27T12:49:45	3.7	92.5
42867	2023-11-27T12:59:45	3.6	95
42868	2023-11-27T13:09:45	3.5	98.5
42869	2023-11-27T13:19:45	3.3	100
42870	2023-11-27T13:29:45	3.3	100
42871	2023-11-27T13:39:45	3.1	100
42872	2023-11-27T13:49:45	3.2	100
42873	2023-11-27T13:59:45	3.1	100
42874	2023-11-27T14:09:45	3.2	100
42875	2023-11-27T14:19:45	3.1	100
42876	2023-11-27T14:29:45	3.2	100
42877	2023-11-27T14:39:45	3.2	100
42878	2023-11-27T14:49:45	3.1	100
42879	2023-11-27T14:59:45	3.3	100
42880	2023-11-27T15:09:45	3.3	100
42881	2023-11-27T15:19:45	3.3	100
42882	2023-11-27T15:29:45	3.3	100
42883	2023-11-27T15:39:45	3.2	100
42884	2023-11-27T15:49:45	3.2	100
42885	2023-11-27T16:09:45	3.1	100
42886	2023-11-27T16:19:45	3.2	100
42887	2023-11-27T16:29:45	3.1	100
42888	2023-11-27T16:39:45	3.1	100
42889	2023-11-27T16:49:45	3	100
42890	2023-11-27T16:59:45	3.2	100
42891	2023-11-27T17:09:45	3.1	100
42892	2023-11-27T17:19:45	3.1	100
42893	2023-11-27T17:29:45	3.1	100
42894	2023-11-27T17:39:45	3	100
42895	2023-11-27T17:49:45	2.9	100
42896	2023-11-27T17:59:45	3	100
42897	2023-11-27T18:09:45	3	100
42898	2023-11-27T18:19:45	3	100
42899	2023-11-27T18:29:45	3	100
42900	2023-11-27T18:39:45	3.1	100
42901	2023-11-27T18:49:45	3.1	100
42902	2023-11-27T18:59:45	3.2	100
42903	2023-11-27T19:09:45	3.2	100
42904	2023-11-27T19:19:45	3.2	100
42905	2023-11-27T19:29:45	3.2	100
42906	2023-11-27T19:39:45	3.2	100
42907	2023-11-27T19:49:45	3.3	100
42908	2023-11-27T19:59:45	3.4	100
42909	2023-11-27T20:09:45	3.4	100
42910	2023-11-27T20:19:45	3.5	100
42911	2023-11-27T20:29:45	3.5	100
42912	2023-11-27T20:39:45	3.5	100
42913	2023-11-27T20:49:45	3.5	100
42914	2023-11-27T20:59:45	3.5	100
42915	2023-11-27T21:09:45	3.5	100
42916	2023-11-27T21:19:45	3.5	100
42917	2023-11-27T21:29:45	3.6	100
42918	2023-11-27T21:39:45	3.6	100
42919	2023-11-27T21:49:45	3.6	100
42920	2023-11-27T21:59:45	3.6	100
42921	2023-11-27T22:09:45	3.7	100
42922	2023-11-27T22:19:45	3.7	100
42923	2023-11-27T22:29:45	3.9	100
42924	2023-11-27T22:39:45	3.9	100
42925	2023-11-27T22:49:45	3.8	100
42926	2023-11-27T22:59:45	3.8	100
42927	2023-11-27T23:09:45	3.9	100
42928	2023-11-27T23:19:45	3.9	100
42929	2023-11-27T23:29:45	3.8	100
42930	2023-11-27T23:39:45	4	100
42931	2023-11-27T23:49:45	4.2	100
42932	2023-11-27T23:59:45	4.2	100
42933	2023-11-28T00:09:45	4.3	100
42934	2023-11-28T00:19:45	4.6	100
42935	2023-11-28T00:39:45	4.9	100
42936	2023-11-28T00:49:45	4.9	100
42937	2023-11-28T00:59:45	4.9	100
42938	2023-11-28T01:09:45	5	100
42939	2023-11-28T01:19:45	5.1	100
42940	2023-11-28T01:29:45	5.1	100
42941	2023-11-28T01:39:45	5.2	100
42942	2023-11-28T01:49:45	5.2	100
42943	2023-11-28T01:59:45	5.2	100
42944	2023-11-28T02:09:45	5.1	100
42945	2023-11-28T02:19:45	5.2	100
42946	2023-11-28T02:29:45	5.2	100
42947	2023-11-28T02:39:45	5.2	100
42948	2023-11-28T02:49:45	5.1	100
42949	2023-11-28T02:59:45	5.4	100
42950	2023-11-28T03:09:45	5.3	100
42951	2023-11-28T03:19:45	5.4	100
42952	2023-11-28T03:29:45	5.5	100
42953	2023-11-28T03:39:45	5.5	100
42954	2023-11-28T03:49:45	5.5	100
42955	2023-11-28T03:59:45	5.5	100
42956	2023-11-28T04:09:45	5.5	100
42957	2023-11-28T04:19:45	5.5	100
42958	2023-11-28T04:29:45	5.5	100
42959	2023-11-28T04:39:45	5.5	100
42960	2023-11-28T04:49:45	5.4	100
42961	2023-11-28T04:59:44	5.4	100
42962	2023-11-28T05:09:44	5.3	100
42963	2023-11-28T05:19:44	5.2	100
42964	2023-11-28T05:29:44	5.1	100
42965	2023-11-28T05:39:44	5	100
42966	2023-11-28T05:49:44	4.9	100
42967	2023-11-28T05:59:44	4.8	100
42968	2023-11-28T06:09:44	4.6	100
42969	2023-11-28T06:19:44	4.5	100
42970	2023-11-28T06:29:45	4.6	100
42971	2023-11-28T06:39:44	4	100
42972	2023-11-28T06:49:44	3.8	100
42973	2023-11-28T06:59:45	3.7	100
42974	2023-11-28T07:09:44	3.6	100
42975	2023-11-28T07:19:44	3.8	100
42976	2023-11-28T07:29:44	3.7	100
42977	2023-11-28T07:39:44	3.5	100
42978	2023-11-28T07:49:44	3.4	100
42979	2023-11-28T08:00:01	3.4	100
42980	2023-11-28T08:09:44	3.4	100
42981	2023-11-28T08:19:44	3.4	100
42982	2023-11-28T08:29:44	3.3	100
42983	2023-11-28T08:39:44	3.2	100
42984	2023-11-28T08:49:44	3.2	100
42985	2023-11-28T08:59:44	3	100
42986	2023-11-28T09:09:44	3.2	100
42987	2023-11-28T09:19:44	3.2	100
42988	2023-11-28T09:30:03	3.1	100
42989	2023-11-28T09:39:44	3.1	100
42990	2023-11-28T09:49:44	3.1	100
42991	2023-11-28T09:59:44	3.1	100
42992	2023-11-28T10:09:44	3.1	100
42993	2023-11-28T10:19:44	3	100
42994	2023-11-28T10:29:44	2.9	100
42995	2023-11-28T10:39:44	3	100
42996	2023-11-28T10:49:44	3	100
42997	2023-11-28T10:59:44	3	100
42998	2023-11-28T11:09:44	2.9	100
42999	2023-11-28T11:19:44	3	100
43000	2023-11-28T11:29:44	2.8	100
43001	2023-11-28T11:39:44	2.8	100
43002	2023-11-28T11:49:44	2.7	100
43003	2023-11-28T11:59:44	2.8	100
43004	2023-11-28T12:09:44	2.9	100
43005	2023-11-28T12:19:44	2.8	100
43006	2023-11-28T12:29:44	3	100
43007	2023-11-28T12:39:44	3.1	100
43008	2023-11-28T12:49:44	2.9	100
43009	2023-11-28T12:59:45	2.9	100
43010	2023-11-28T13:09:44	2.6	100
43011	2023-11-28T13:19:44	2.7	100
43012	2023-11-28T13:29:44	2.8	100
43013	2023-11-28T13:39:44	2.9	100
43014	2023-11-28T13:49:44	2.9	100
43015	2023-11-28T13:59:44	3	100
43016	2023-11-28T14:09:44	2.9	100
43017	2023-11-28T14:19:44	2.9	100
43018	2023-11-28T14:29:44	2.9	100
43019	2023-11-28T14:39:44	2.9	100
43020	2023-11-28T14:49:44	2.7	100
43021	2023-11-28T14:59:44	2.8	100
43022	2023-11-28T15:09:44	2.8	100
43023	2023-11-28T15:19:44	2.6	100
43024	2023-11-28T15:29:44	2.8	100
43025	2023-11-28T15:39:44	2.8	100
43026	2023-11-28T15:49:44	2.8	100
43027	2023-11-28T15:59:44	2.8	100
43028	2023-11-28T16:09:44	2.7	100
43029	2023-11-28T16:19:44	2.6	100
43030	2023-11-28T16:29:44	2.5	100
43031	2023-11-28T16:39:44	2.5	100
43032	2023-11-28T16:49:44	2.5	100
43033	2023-11-28T16:59:44	2.4	100
43034	2023-11-28T17:09:44	2.5	100
43035	2023-11-28T17:19:44	2.3	100
43036	2023-11-28T17:29:44	2.3	100
43037	2023-11-28T17:39:44	2.3	100
43038	2023-11-28T17:49:44	2.3	100
43039	2023-11-28T17:59:44	2.2	100
43040	2023-11-28T18:09:44	2.2	100
43041	2023-11-28T18:20:03	2.1	100
43042	2023-11-28T18:29:44	2.1	100
43043	2023-11-28T18:39:44	2.1	100
43044	2023-11-28T18:49:44	2.1	100
43045	2023-11-28T18:59:44	2.1	100
43046	2023-11-28T19:09:44	2.1	100
43047	2023-11-28T19:19:44	2.1	100
43048	2023-11-28T19:29:44	2.1	100
43049	2023-11-28T19:39:44	2	100
43050	2023-11-28T19:49:44	1.9	100
43051	2023-11-28T19:59:44	2	100
43052	2023-11-28T20:09:44	2	100
43053	2023-11-28T20:19:44	1.9	100
43054	2023-11-28T20:29:44	2	100
43055	2023-11-28T20:39:44	2	100
43056	2023-11-28T20:49:44	2	100
43057	2023-11-28T20:59:44	2	100
43058	2023-11-28T21:09:44	2	100
43059	2023-11-28T21:19:44	1.8	100
43060	2023-11-28T21:29:44	1.8	100
43061	2023-11-28T21:39:44	1.9	100
43062	2023-11-28T21:49:44	1.7	100
43063	2023-11-28T21:59:44	1.8	100
43064	2023-11-28T22:09:44	1.8	100
43065	2023-11-28T22:19:44	1.6	100
43066	2023-11-28T22:29:44	1.7	100
43067	2023-11-28T22:39:44	1.6	100
43068	2023-11-28T22:49:44	1.6	100
43069	2023-11-28T22:59:44	1.5	100
43070	2023-11-28T23:09:44	1.4	100
43071	2023-11-28T23:19:44	1.3	100
43072	2023-11-28T23:29:44	1.3	100
43073	2023-11-28T23:39:44	1.2	100
43074	2023-11-28T23:49:44	1.2	100
43075	2023-11-28T23:59:44	1.1	99.5
43076	2023-11-29T00:09:44	1.1	94.5
43077	2023-11-29T00:19:44	1	92
43078	2023-11-29T00:29:44	1.1	91
43079	2023-11-29T00:39:44	1	89
43080	2023-11-29T00:49:44	1	89
43081	2023-11-29T00:59:44	1	89
43082	2023-11-29T01:09:44	0.9	89
43083	2023-11-29T01:19:44	0.8	88.5
43084	2023-11-29T01:29:44	0.8	88.5
43085	2023-11-29T01:39:44	0.7	88
43086	2023-11-29T01:49:44	0.7	86
43087	2023-11-29T01:59:44	0.9	85
43088	2023-11-29T02:09:44	0.9	84.5
43089	2023-11-29T02:19:44	0.9	85.5
43090	2023-11-29T02:29:44	0.9	86.5
43091	2023-11-29T02:39:44	1	85.5
43092	2023-11-29T02:49:44	1.1	85
43093	2023-11-29T02:59:44	1	83
43094	2023-11-29T03:09:44	1.2	83
43095	2023-11-29T03:19:44	1	82.5
43096	2023-11-29T03:29:44	1.2	81.5
43097	2023-11-29T03:39:44	1.1	81
43098	2023-11-29T03:49:44	1.1	82.5
43099	2023-11-29T03:59:44	1.2	81.5
43100	2023-11-29T04:09:44	1.2	81.5
43101	2023-11-29T04:19:44	1.4	80.5
43102	2023-11-29T04:29:44	1.4	80.5
43103	2023-11-29T04:39:44	1.5	81
43104	2023-11-29T04:49:44	1.5	81.5
43105	2023-11-29T04:59:44	1.7	80.5
43106	2023-11-29T05:09:44	1.6	80
43107	2023-11-29T05:19:44	1.7	79.5
43108	2023-11-29T05:29:44	1.7	81
43109	2023-11-29T05:39:44	1.8	79
43110	2023-11-29T05:49:44	1.9	78.5
43111	2023-11-29T05:59:44	2	78
43112	2023-11-29T06:09:44	1.8	77
43113	2023-11-29T06:19:44	1.8	77
43114	2023-11-29T06:29:44	1.8	76
43115	2023-11-29T06:39:44	1.9	77
43116	2023-11-29T06:49:44	2	77
43117	2023-11-29T06:59:44	2	75.5
43118	2023-11-29T07:09:44	2	74.5
43119	2023-11-29T07:19:44	2.2	74.5
43120	2023-11-29T07:29:44	2.3	74.5
43121	2023-11-29T07:39:44	2.3	75.5
43122	2023-11-29T07:49:44	2.3	74.5
43123	2023-11-29T07:59:44	2.1	82
43124	2023-11-29T08:09:44	1	92.5
43125	2023-11-29T08:19:44	0.9	94.5
43126	2023-11-29T08:29:44	1	92
43127	2023-11-29T08:39:44	1.3	89
43128	2023-11-29T08:49:44	1.5	86
43129	2023-11-29T08:59:44	1.8	84
43130	2023-11-29T09:09:44	1.9	81.5
43131	2023-11-29T09:19:44	2.1	81
43132	2023-11-29T09:29:44	2.3	79
43133	2023-11-29T09:39:44	2.6	78
43134	2023-11-29T09:59:44	2.6	77.5
43135	2023-11-29T10:09:44	2.9	77
43136	2023-11-29T10:19:44	3	77
43137	2023-11-29T10:29:44	2.9	78
43138	2023-11-29T10:39:44	3.5	72.5
43139	2023-11-29T10:49:44	3.8	72.5
43140	2023-11-29T10:59:44	3.8	71
43141	2023-11-29T11:09:44	4.1	70
43142	2023-11-29T11:19:44	4.6	68.5
43143	2023-11-29T11:29:44	5.5	64
43144	2023-11-29T11:39:44	5	66
43145	2023-11-29T11:49:44	5.1	66.5
43146	2023-11-29T11:59:44	5.2	65.5
43147	2023-11-29T12:09:44	5	66
43148	2023-11-29T12:19:44	4.8	68
43149	2023-11-29T12:29:44	4.3	76
43150	2023-11-29T12:39:44	4.2	75.5
43151	2023-11-29T12:49:44	4	81
43152	2023-11-29T12:59:44	3.5	86
43153	2023-11-29T13:09:44	3.3	86
43154	2023-11-29T13:19:44	3	92.5
43155	2023-11-29T13:29:44	2.9	95.5
43156	2023-11-29T13:39:44	2.9	97
43157	2023-11-29T13:49:44	3.1	97
43158	2023-11-29T13:59:44	3	95
43159	2023-11-29T14:09:44	3.1	98.5
43160	2023-11-29T14:19:44	3	97
43161	2023-11-29T14:29:44	2.9	98.5
43162	2023-11-29T14:39:44	3.1	99
43163	2023-11-29T14:49:44	3.1	99
43164	2023-11-29T14:59:44	3.1	98.5
43165	2023-11-29T15:09:44	3	98
43166	2023-11-29T15:19:44	3.2	98
43167	2023-11-29T15:29:44	3.2	98
43168	2023-11-29T15:39:44	3.3	98.5
43169	2023-11-29T15:49:44	3.3	98
43170	2023-11-29T15:59:44	3.4	99.5
43171	2023-11-29T16:09:44	3.5	100
43172	2023-11-29T16:19:44	3.6	100
43173	2023-11-29T16:29:44	3.4	100
43174	2023-11-29T16:39:44	3.6	100
43175	2023-11-29T16:49:44	3.5	100
43176	2023-11-29T16:59:44	3.5	100
43177	2023-11-29T17:09:44	3.5	100
43178	2023-11-29T17:19:44	3.4	100
43179	2023-11-29T17:29:44	3.3	100
43180	2023-11-29T17:39:44	3.3	100
43181	2023-11-29T17:49:44	3.1	98.5
43182	2023-11-29T17:59:44	3	98
43183	2023-11-29T18:09:44	2.5	97.5
43184	2023-11-29T18:19:44	2.5	99
43185	2023-11-29T18:29:44	2.5	100
43186	2023-11-29T18:39:44	2.5	99.5
43187	2023-11-29T18:49:44	2.4	100
43188	2023-11-29T18:59:44	2.3	100
43189	2023-11-29T19:09:44	2.2	99.5
43190	2023-11-29T19:19:44	2.1	100
43191	2023-11-29T19:29:44	2.1	100
43192	2023-11-29T19:39:44	2	100
43193	2023-11-29T19:49:44	2.1	100
43194	2023-11-29T19:59:44	2	100
43195	2023-11-29T20:09:44	1.8	99.5
43196	2023-11-29T20:19:44	1.8	100
43197	2023-11-29T20:29:44	1.7	99.5
43198	2023-11-29T20:39:44	1.7	100
43199	2023-11-29T20:49:44	1.6	100
43200	2023-11-29T20:59:44	1.5	100
43201	2023-11-29T21:09:44	1.4	100
43202	2023-11-29T21:19:44	1.5	100
43203	2023-11-29T21:29:44	1.4	98.5
43204	2023-11-29T21:39:44	1.3	100
43205	2023-11-29T21:49:44	1.2	100
43206	2023-11-29T21:59:44	1.2	100
43207	2023-11-29T22:09:44	1	99.5
43208	2023-11-29T22:19:44	1	100
43209	2023-11-29T22:29:44	1	100
43210	2023-11-29T22:39:44	0.9	100
43211	2023-11-29T22:49:44	0.9	100
43212	2023-11-29T22:59:44	0.9	100
43213	2023-11-29T23:09:44	1	100
43214	2023-11-29T23:19:44	0.9	100
43215	2023-11-29T23:29:44	0.9	100
43216	2023-11-29T23:39:44	0.7	100
43217	2023-11-29T23:49:44	0.6	100
43218	2023-11-29T23:59:44	0.6	100
43219	2023-11-30T00:09:44	0.5	100
43220	2023-11-30T00:19:44	0.4	100
43221	2023-11-30T00:29:44	0.6	100
43222	2023-11-30T00:39:44	0.6	100
43223	2023-11-30T00:49:44	0.4	100
43224	2023-11-30T00:59:44	0.4	100
43225	2023-11-30T01:09:44	0.4	100
43226	2023-11-30T01:19:44	0.2	100
43227	2023-11-30T01:29:44	0.3	100
43228	2023-11-30T01:39:44	0.2	100
43229	2023-11-30T01:49:44	0.1	100
43230	2023-11-30T01:59:44	0	100
43231	2023-11-30T02:09:44	0	100
43232	2023-11-30T02:19:44	-0.1	100
43233	2023-11-30T02:29:44	-0.1	100
43234	2023-11-30T02:39:44	0	100
43235	2023-11-30T02:49:44	0	98.5
43236	2023-11-30T02:59:44	0	100
43237	2023-11-30T03:09:44	-0.1	100
43238	2023-11-30T03:19:44	0	100
43239	2023-11-30T03:29:44	0	100
43240	2023-11-30T03:39:44	0	100
43241	2023-11-30T03:49:44	0	100
43242	2023-11-30T03:59:44	0	100
43243	2023-11-30T04:09:44	0.1	100
43244	2023-11-30T04:19:44	0	99.5
43245	2023-11-30T04:29:44	0	100
43246	2023-11-30T04:39:44	-0.1	99
43247	2023-11-30T04:49:44	-0.1	100
43248	2023-11-30T04:59:44	-0.2	100
43249	2023-11-30T05:09:44	-0.1	100
43250	2023-11-30T05:19:44	-0.1	99.5
43251	2023-11-30T05:29:44	-0.2	98.5
43252	2023-11-30T05:39:44	-0.3	97.5
43253	2023-11-30T05:49:44	-0.2	100
43254	2023-11-30T05:59:44	-0.2	99.5
43255	2023-11-30T06:09:44	-0.2	100
43256	2023-11-30T06:19:44	0	100
43257	2023-11-30T06:29:44	0	100
43258	2023-11-30T06:39:44	0	100
43259	2023-11-30T06:49:44	0	100
43260	2023-11-30T06:59:44	0	100
43261	2023-11-30T07:09:44	0	100
43262	2023-11-30T07:19:44	0	100
43263	2023-11-30T07:29:44	0	100
43264	2023-11-30T07:39:44	0.1	99.5
43265	2023-11-30T07:49:44	0.2	100
43266	2023-11-30T07:59:44	0.2	100
43267	2023-11-30T08:09:44	0.2	99.5
43268	2023-11-30T08:19:44	0.3	99
43269	2023-11-30T08:29:44	0.4	98.5
43270	2023-11-30T08:39:44	0.3	99.5
43271	2023-11-30T08:49:44	0.5	99.5
43272	2023-11-30T09:09:44	0.7	100
43273	2023-11-30T09:19:44	0.9	99
43274	2023-11-30T09:29:44	1	97.5
43275	2023-11-30T09:39:44	0.9	97
43276	2023-11-30T09:49:44	1	97
43277	2023-11-30T09:59:44	1.1	97
43278	2023-11-30T10:09:44	1.2	96.5
43279	2023-11-30T10:19:44	1.3	96.5
43280	2023-11-30T10:29:44	1.4	95.5
43281	2023-11-30T10:39:44	1.5	95.5
43282	2023-11-30T10:49:44	1.7	97
43283	2023-11-30T10:59:44	2.1	96.5
43284	2023-11-30T11:09:44	2.2	94.5
43285	2023-11-30T11:19:44	2.3	95.5
43286	2023-11-30T11:29:44	2.4	96.5
43287	2023-11-30T11:39:44	2.5	95.5
43288	2023-11-30T11:49:44	2.7	96
43289	2023-11-30T11:59:44	2.9	95.5
43290	2023-11-30T12:09:44	2.6	95
43291	2023-11-30T12:19:44	2.5	96.5
43292	2023-11-30T12:29:44	2.5	95.5
43293	2023-11-30T12:39:44	2.5	96
43294	2023-11-30T12:49:44	2.5	95.5
43295	2023-11-30T12:59:44	2.6	96.5
43296	2023-11-30T13:09:44	2.5	96.5
43297	2023-11-30T13:19:44	2.7	96.5
43298	2023-11-30T13:29:44	2.7	98
43299	2023-11-30T13:39:44	2.8	97
43300	2023-11-30T13:49:44	2.8	96.5
43301	2023-11-30T13:59:44	2.8	97.5
43302	2023-11-30T14:09:44	2.8	95.5
43303	2023-11-30T14:19:44	3	95.5
43304	2023-11-30T14:29:44	2.9	95.5
43305	2023-11-30T14:39:44	2.7	97
43306	2023-11-30T14:50:04	2.8	98
43307	2023-11-30T14:59:44	2.7	96.5
43308	2023-11-30T15:09:44	2.5	97.5
43309	2023-11-30T15:19:44	2.6	97.5
43310	2023-11-30T15:29:44	2.6	96.5
43311	2023-11-30T15:39:44	2.6	95.5
43312	2023-11-30T15:49:44	2.7	98.5
43313	2023-11-30T15:59:44	2.6	96
43314	2023-11-30T16:09:44	2.4	95.5
43315	2023-11-30T16:19:44	2.6	96.5
43316	2023-11-30T16:29:44	2.6	96
43317	2023-11-30T16:39:44	2.5	98.5
43318	2023-11-30T16:49:44	2.6	99
43319	2023-11-30T16:59:44	2.6	99.5
43320	2023-11-30T17:09:44	2.5	97.5
43321	2023-11-30T17:19:44	2.5	98
43322	2023-11-30T17:29:44	2.4	99
43323	2023-11-30T17:39:44	2.4	98.5
43324	2023-11-30T17:49:44	2.5	98
43325	2023-11-30T17:59:44	2.4	96
43326	2023-11-30T18:09:44	2.4	98.5
43327	2023-11-30T18:19:43	2.5	98.5
43328	2023-11-30T18:29:44	2.5	98
43329	2023-11-30T18:39:43	2.5	99
43330	2023-11-30T18:49:44	2.6	99
43331	2023-11-30T18:59:43	2.6	99
43332	2023-11-30T19:09:43	2.6	97.5
43333	2023-11-30T19:19:43	2.7	96.5
43334	2023-11-30T19:29:43	2.6	96.5
43335	2023-11-30T19:39:43	2.7	98
43336	2023-11-30T19:49:43	2.7	96
43337	2023-11-30T19:59:43	2.8	99
43338	2023-11-30T20:09:43	2.8	97
43339	2023-11-30T20:19:43	2.7	97.5
43340	2023-11-30T20:29:43	2.8	97
43341	2023-11-30T20:39:43	2.8	97.5
43342	2023-11-30T20:49:43	2.8	97.5
43343	2023-11-30T20:59:43	2.8	97.5
43344	2023-11-30T21:09:43	2.8	97.5
43345	2023-11-30T21:19:43	2.7	96.5
43346	2023-11-30T21:29:43	2.9	96.5
43347	2023-11-30T21:39:43	2.9	96
43348	2023-11-30T21:49:43	2.8	97
43349	2023-11-30T21:59:43	2.9	97
43350	2023-11-30T22:09:43	2.8	96
43351	2023-11-30T22:19:43	2.7	95.5
43352	2023-11-30T22:29:43	2.6	95
43353	2023-11-30T22:39:43	2.7	96
43354	2023-11-30T22:49:44	2.7	95.5
43355	2023-11-30T22:59:43	2.7	97.5
43356	2023-11-30T23:09:43	2.8	97
43357	2023-11-30T23:19:43	2.8	96
43358	2023-11-30T23:29:43	2.7	94.5
43359	2023-11-30T23:39:43	2.8	95
43360	2023-11-30T23:49:43	2.9	95.5
43361	2023-11-30T23:59:43	2.8	95
43362	2023-12-01T00:09:43	2.9	95.5
43363	2023-12-01T00:19:43	2.9	94.5
43364	2023-12-01T00:29:43	2.9	95
43365	2023-12-01T00:39:43	2.9	94
43366	2023-12-01T00:49:43	2.8	94
43367	2023-12-01T01:09:43	3	95
43368	2023-12-01T01:19:43	2.9	94.5
43369	2023-12-01T01:29:43	2.8	95.5
43370	2023-12-01T01:39:43	3	95
43371	2023-12-01T01:49:43	2.9	95
43372	2023-12-01T01:59:43	2.9	96.5
43373	2023-12-01T02:09:43	2.9	96.5
43374	2023-12-01T02:19:43	2.9	95.5
43375	2023-12-01T02:29:43	2.9	96
43376	2023-12-01T02:39:43	3	95.5
43377	2023-12-01T02:49:43	2.7	95.5
43378	2023-12-01T02:59:43	2.8	95
43379	2023-12-01T03:09:43	2.7	96
43380	2023-12-01T03:19:43	2.7	94.5
43381	2023-12-01T03:29:43	2.5	94.5
43382	2023-12-01T03:39:43	2.6	94.5
43383	2023-12-01T03:49:43	2.4	94
43384	2023-12-01T03:59:43	2.3	94
43385	2023-12-01T04:09:43	2.3	95.5
43386	2023-12-01T04:19:43	2.3	95.5
43387	2023-12-01T04:29:43	2.4	95.5
43388	2023-12-01T04:39:43	2.3	95.5
43389	2023-12-01T04:49:43	2.4	95.5
43390	2023-12-01T04:59:43	2.2	95
43391	2023-12-01T05:09:43	2.1	95.5
43392	2023-12-01T05:19:43	2.1	96
43393	2023-12-01T05:29:43	2.2	95.5
43394	2023-12-01T05:39:43	2.2	96
43395	2023-12-01T05:49:43	2.1	95
43396	2023-12-01T05:59:43	2.3	96
43397	2023-12-01T06:09:43	2.1	95
43398	2023-12-01T06:19:43	2.2	96.5
43399	2023-12-01T06:29:43	2.2	95
43400	2023-12-01T06:39:43	2.1	96.5
43401	2023-12-01T06:49:43	2	95.5
43402	2023-12-01T06:59:43	2	95.5
43403	2023-12-01T07:09:43	1.8	96
43404	2023-12-01T07:19:43	1.9	95.5
43405	2023-12-01T07:29:43	1.9	95.5
43406	2023-12-01T07:39:43	1.9	96.5
43407	2023-12-01T07:49:43	1.9	96
43408	2023-12-01T07:59:43	1.9	96.5
43409	2023-12-01T08:09:43	1.8	95.5
43410	2023-12-01T08:19:43	1.9	96.5
43411	2023-12-01T08:29:43	1.9	96
43412	2023-12-01T08:39:43	1.9	96
43413	2023-12-01T08:49:43	2	96
43414	2023-12-01T08:59:43	2.1	96
43415	2023-12-01T09:09:43	2.1	95.5
43416	2023-12-01T09:19:43	2.2	95.5
43417	2023-12-01T09:29:43	2.1	95.5
43418	2023-12-01T09:39:43	2.3	95.5
43419	2023-12-01T09:49:43	2.4	95
43420	2023-12-01T09:59:43	2.5	95
43421	2023-12-01T10:09:43	2.5	95
43422	2023-12-01T10:19:43	2.4	95.5
43423	2023-12-01T10:29:43	2.5	95.5
43424	2023-12-01T10:39:43	2.5	95
43425	2023-12-01T10:49:43	2.7	95
43426	2023-12-01T10:59:43	2.6	95
43427	2023-12-01T11:09:43	2.6	95
43428	2023-12-01T11:19:43	2.7	95.5
43429	2023-12-01T11:29:43	2.7	95
43430	2023-12-01T11:39:43	2.8	95
43431	2023-12-01T11:49:43	2.7	94.5
43432	2023-12-01T11:59:43	2.8	94
43433	2023-12-01T12:09:43	2.9	94.5
43434	2023-12-01T12:19:43	2.7	94
43435	2023-12-01T12:29:43	2.7	94.5
43436	2023-12-01T12:39:43	2.8	95
43437	2023-12-01T12:49:43	2.9	95
43438	2023-12-01T12:59:43	2.9	95
43439	2023-12-01T13:09:43	2.8	94
43440	2023-12-01T13:19:43	2.9	93.5
43441	2023-12-01T13:29:43	2.9	93
43442	2023-12-01T13:39:43	2.8	94
43443	2023-12-01T13:49:43	2.9	94.5
43444	2023-12-01T13:59:43	3	95.5
43445	2023-12-01T14:09:43	2.9	95
43446	2023-12-01T14:19:43	3	95
43447	2023-12-01T14:29:43	3	95
43448	2023-12-01T14:39:43	2.9	95.5
43449	2023-12-01T14:49:43	2.9	94
43450	2023-12-01T14:59:43	2.9	94
43451	2023-12-01T15:09:43	2.8	94
43452	2023-12-01T15:19:43	2.7	93.5
43453	2023-12-01T15:29:43	2.7	94.5
43454	2023-12-01T15:39:43	2.6	95
43455	2023-12-01T15:49:43	2.5	95.5
43456	2023-12-01T15:59:43	2.6	95.5
43457	2023-12-01T16:09:43	2.6	95.5
43458	2023-12-01T16:19:43	2.6	95.5
43459	2023-12-01T16:29:43	2.6	95
43460	2023-12-01T16:39:43	2.5	95
43461	2023-12-01T16:49:43	2.5	95
43462	2023-12-01T16:59:43	2.4	95.5
43463	2023-12-01T17:10:05	2.5	95
43464	2023-12-01T17:19:43	2.5	95
43465	2023-12-01T17:29:43	2.6	94.5
43466	2023-12-01T17:39:43	2.7	94.5
43467	2023-12-01T17:49:43	2.6	94
43468	2023-12-01T17:59:43	2.6	94.5
43469	2023-12-01T18:09:43	2.6	94.5
43470	2023-12-01T18:19:43	2.6	94
43471	2023-12-01T18:29:43	2.6	95
43472	2023-12-01T18:39:43	2.5	94.5
43473	2023-12-01T18:49:43	2.5	95
43474	2023-12-01T18:59:43	2.5	95.5
43475	2023-12-01T19:09:43	2.5	95.5
43476	2023-12-01T19:19:43	2.5	95
43477	2023-12-01T19:29:43	2.4	96
43478	2023-12-01T19:39:43	2.4	96
43479	2023-12-01T19:49:43	2.5	96.5
43480	2023-12-01T19:59:43	2.2	96
43481	2023-12-01T20:19:43	2.1	96
43482	2023-12-01T20:29:43	2.1	97.5
43483	2023-12-01T20:39:43	2.1	97.5
43484	2023-12-01T20:49:43	2.1	96.5
43485	2023-12-01T20:59:43	2.2	97.5
43486	2023-12-01T21:09:43	2.1	96.5
43487	2023-12-01T21:19:43	2	97
43488	2023-12-01T21:29:43	2.1	97.5
43489	2023-12-01T21:39:43	2	97
43490	2023-12-01T21:49:43	1.9	96
43491	2023-12-01T21:59:43	1.8	96
43492	2023-12-01T22:09:43	1.7	97
43493	2023-12-01T22:19:43	1.7	96.5
43494	2023-12-01T22:29:43	1.6	95.5
43495	2023-12-01T22:39:43	1.6	96
43496	2023-12-01T22:49:43	1.6	96.5
43497	2023-12-01T22:59:43	1.6	96.5
43498	2023-12-01T23:09:43	1.6	97.5
43499	2023-12-01T23:19:43	1.6	96.5
43500	2023-12-01T23:29:43	1.5	96
43501	2023-12-01T23:39:43	1.4	95.5
43502	2023-12-01T23:49:43	1.5	96
43503	2023-12-01T23:59:43	1.5	96.5
43504	2023-12-02T00:09:43	1.4	97
43505	2023-12-02T00:19:43	1.5	97
43506	2023-12-02T00:29:43	1.4	96.5
43507	2023-12-02T00:39:43	1.4	96
43508	2023-12-02T00:49:43	1.3	95.5
43509	2023-12-02T00:59:43	1.2	96
43510	2023-12-02T01:09:43	1.2	96
43511	2023-12-02T01:19:43	1.1	95.5
43512	2023-12-02T01:29:43	1	95
43513	2023-12-02T01:39:43	0.9	95.5
43514	2023-12-02T01:49:43	0.9	95
43515	2023-12-02T01:59:43	0.9	95.5
43516	2023-12-02T02:09:43	1	96.5
43517	2023-12-02T02:19:43	0.8	95.5
43518	2023-12-02T02:29:43	0.9	95.5
43519	2023-12-02T02:39:43	0.8	95
43520	2023-12-02T02:49:43	0.8	95
43521	2023-12-02T02:59:43	0.6	94
43522	2023-12-02T03:09:43	0.6	94.5
43523	2023-12-02T03:19:43	0.6	94.5
43524	2023-12-02T03:29:43	0.5	94
43525	2023-12-02T03:39:43	0.6	95.5
43526	2023-12-02T03:49:43	0.5	93.5
43527	2023-12-02T03:59:43	0.4	93
43528	2023-12-02T04:09:43	0.3	92.5
43529	2023-12-02T04:19:43	0.3	92.5
43530	2023-12-02T04:39:43	0.4	92.5
43531	2023-12-02T04:49:43	0.3	92.5
43532	2023-12-02T04:59:43	0.2	93
43533	2023-12-02T05:19:43	0.3	92.5
43534	2023-12-02T05:29:43	0	91.5
43535	2023-12-02T05:39:43	0	91.5
43536	2023-12-02T05:49:43	0	92
43537	2023-12-02T05:59:43	0	92
43538	2023-12-02T06:09:44	0	91.5
43539	2023-12-02T06:19:43	0	94
43540	2023-12-02T06:29:43	0	92.5
43541	2023-12-02T06:39:43	0	94.5
43542	2023-12-02T06:49:43	0.1	93
43543	2023-12-02T06:59:43	0.1	92.5
43544	2023-12-02T07:09:43	0	94.5
43545	2023-12-02T07:19:43	0.1	91
43546	2023-12-02T07:29:43	0.1	91
43547	2023-12-02T07:39:43	0.1	91.5
43548	2023-12-02T07:49:43	0	89.5
43549	2023-12-02T07:59:43	0.1	91
43550	2023-12-02T08:09:43	0.1	91
43551	2023-12-02T08:19:43	0.1	89.5
43552	2023-12-02T08:29:43	0.3	92.5
43553	2023-12-02T08:39:43	0.3	91.5
43554	2023-12-02T08:49:43	0.2	90
43555	2023-12-02T08:59:43	0.2	89
43556	2023-12-02T09:09:43	0.1	90.5
43557	2023-12-02T09:19:43	0.2	91
43558	2023-12-02T09:29:43	0.2	90
43559	2023-12-02T09:39:43	0.2	91
43560	2023-12-02T09:49:43	0.3	89.5
43561	2023-12-02T10:09:43	0.2	88.5
43562	2023-12-02T10:19:43	0.1	88.5
43563	2023-12-02T10:29:43	0.2	88.5
43564	2023-12-02T10:39:43	0.3	86.5
43565	2023-12-02T10:49:43	0.1	87.5
43566	2023-12-02T10:59:43	0.2	88.5
43567	2023-12-02T11:09:43	0.2	86.5
43568	2023-12-02T11:19:43	0.2	86.5
43569	2023-12-02T11:29:43	0.1	85.5
43570	2023-12-02T11:39:43	0.2	85.5
43571	2023-12-02T11:49:43	0.3	85
43572	2023-12-02T11:59:43	0.4	86.5
43573	2023-12-02T12:09:43	0.5	87.5
43574	2023-12-02T12:19:43	0.4	85.5
43575	2023-12-02T12:29:43	0.3	83.5
43576	2023-12-02T12:39:43	0.2	84
43577	2023-12-02T12:49:43	0.3	84
43578	2023-12-02T12:59:43	0.3	83.5
43579	2023-12-02T13:09:43	0.2	84.5
43580	2023-12-02T13:19:43	0.3	86.5
43581	2023-12-02T13:29:43	0.3	87.5
43582	2023-12-02T13:39:43	0.3	86
43583	2023-12-02T13:49:43	0.3	84.5
43584	2023-12-02T13:59:43	0.2	83.5
43585	2023-12-02T14:09:43	0.1	84
43586	2023-12-02T14:19:43	0	85
43587	2023-12-02T14:30:02	0.1	84.5
43588	2023-12-02T14:39:43	0	84.5
43589	2023-12-02T14:49:43	0	83.5
43590	2023-12-02T14:59:43	0	86.5
43591	2023-12-02T15:09:43	0	84
43592	2023-12-02T15:19:43	0	88.5
43593	2023-12-02T15:29:43	0.1	88.5
43594	2023-12-02T15:39:43	0	85
43595	2023-12-02T15:49:43	0.1	85.5
43596	2023-12-02T15:59:43	0.1	86
43597	2023-12-02T16:09:43	0.1	86
43598	2023-12-02T16:19:43	0	87
43599	2023-12-02T16:30:04	0	85
43600	2023-12-02T16:39:43	0	86.5
43601	2023-12-02T16:49:43	0	84.5
43602	2023-12-02T16:59:43	0	87
43603	2023-12-02T17:09:43	0	82.5
43604	2023-12-02T17:19:43	-0.1	85.5
43605	2023-12-02T17:29:43	0	85.5
43606	2023-12-02T17:39:43	0	86.5
43607	2023-12-02T17:49:43	0.1	86
43608	2023-12-02T17:59:43	0	84.5
43609	2023-12-02T18:09:43	-0.1	82.5
43610	2023-12-02T18:19:43	-0.1	82.5
43611	2023-12-02T18:29:43	-0.2	79.5
43612	2023-12-02T18:39:43	-0.3	81
43613	2023-12-02T18:49:43	-0.3	78.5
43614	2023-12-02T18:59:59	-0.4	77.5
43615	2023-12-02T19:09:43	-0.4	78
43616	2023-12-02T19:19:43	-0.5	77
43617	2023-12-02T19:29:43	-0.7	77.5
43618	2023-12-02T19:39:43	-0.8	77
43619	2023-12-02T19:49:43	-0.7	76.5
43620	2023-12-02T19:59:43	-0.8	78.5
43621	2023-12-02T20:09:43	-0.6	78
43622	2023-12-02T20:19:43	-0.7	77
43623	2023-12-02T20:29:43	-0.7	76
43624	2023-12-02T20:39:43	-0.7	75.5
43625	2023-12-02T20:49:43	-0.9	73
43626	2023-12-02T20:59:43	-0.9	74
43627	2023-12-02T21:09:43	-0.8	75.5
43628	2023-12-02T21:19:43	-0.8	75
43629	2023-12-02T21:29:43	-0.8	75
43630	2023-12-02T21:39:43	-0.8	75.5
43631	2023-12-02T21:49:43	-0.9	76
43632	2023-12-02T21:59:43	-0.8	77
43633	2023-12-02T22:09:43	-0.8	77
43634	2023-12-02T22:19:43	-0.8	78
43635	2023-12-02T22:29:43	-0.9	76.5
43636	2023-12-02T22:39:43	-1	76.5
43637	2023-12-02T22:49:43	-0.9	77.5
43638	2023-12-02T22:59:43	-0.9	76
43639	2023-12-02T23:09:43	-0.9	76.5
43640	2023-12-02T23:19:43	-0.9	77.5
43641	2023-12-02T23:29:43	-0.9	79
43642	2023-12-02T23:39:43	-0.9	79.5
43643	2023-12-02T23:49:43	-0.8	80
43644	2023-12-02T23:59:43	-0.9	80.5
43645	2023-12-03T00:09:43	-0.9	79.5
43646	2023-12-03T00:19:43	-1	78.5
43647	2023-12-03T00:29:43	-1.1	79.5
43648	2023-12-03T00:39:43	-1	79
43649	2023-12-03T00:49:43	-1	79.5
43650	2023-12-03T00:59:43	-1	79.5
43651	2023-12-03T01:09:43	-1.1	79
43652	2023-12-03T01:19:43	-1.2	78.5
43653	2023-12-03T01:29:43	-1.4	78.5
43654	2023-12-03T01:39:43	-1.4	79.5
43655	2023-12-03T01:49:43	-1.5	80.5
43656	2023-12-03T01:59:43	-1.6	80.5
43657	2023-12-03T02:09:43	-1.8	80.5
43658	2023-12-03T02:19:43	-1.8	80.5
43659	2023-12-03T02:29:43	-1.7	80.5
43660	2023-12-03T02:39:43	-1.8	81
43661	2023-12-03T02:49:43	-1.8	81.5
43662	2023-12-03T02:59:43	-2	83
43663	2023-12-03T03:09:43	-2.1	84
43664	2023-12-03T03:20:03	-2.2	84
43665	2023-12-03T03:29:43	-2.3	86
43666	2023-12-03T03:39:43	-2.5	86.5
43667	2023-12-03T03:49:43	-2.5	88
43668	2023-12-03T03:59:43	-2.6	88.5
43669	2023-12-03T04:09:43	-2.8	89
43670	2023-12-03T04:19:43	-2.8	90
43671	2023-12-03T04:29:43	-3	90
43672	2023-12-03T04:39:43	-3	90
43673	2023-12-03T04:49:43	-2.9	90.5
43674	2023-12-03T04:59:43	-2.9	90.5
43675	2023-12-03T05:09:43	-2.9	89
43676	2023-12-03T05:19:43	-3	88.5
43677	2023-12-03T05:29:43	-3.1	89
43678	2023-12-03T05:39:43	-3.1	89.5
43679	2023-12-03T05:49:43	-3.3	89.5
43680	2023-12-03T05:59:43	-3.3	89
43681	2023-12-03T06:09:43	-3.4	89.5
43682	2023-12-03T06:19:43	-3.3	89.5
43683	2023-12-03T06:29:43	-3.4	88.5
43684	2023-12-03T06:39:43	-3.5	88.5
43685	2023-12-03T06:49:43	-3.5	89
43686	2023-12-03T06:59:43	-3.5	90
43687	2023-12-03T07:09:43	-3.5	89.5
43688	2023-12-03T07:19:43	-3.7	90
43689	2023-12-03T07:29:43	-3.7	91
43690	2023-12-03T07:39:43	-3.7	90
43691	2023-12-03T07:49:43	-3.6	90.5
43692	2023-12-03T07:59:43	-3.7	90
43693	2023-12-03T08:09:43	-3.6	90.5
43694	2023-12-03T08:19:43	-3.5	91
43695	2023-12-03T08:29:43	-3.5	91.5
43696	2023-12-03T08:39:43	-3.3	92
43697	2023-12-03T08:49:43	-3.3	92
43698	2023-12-03T08:59:43	-3	92.5
43699	2023-12-03T09:09:43	-2.9	92
43700	2023-12-03T09:19:43	-2.6	90.5
43701	2023-12-03T09:29:43	-2.5	90.5
43702	2023-12-03T09:39:43	-2.4	90
43703	2023-12-03T09:49:43	-2	86.5
43704	2023-12-03T09:59:43	-1.6	83.5
43705	2023-12-03T10:09:43	-1.4	83
43706	2023-12-03T10:19:43	-1.3	83
43707	2023-12-03T10:29:43	-1.1	82.5
43708	2023-12-03T10:39:43	-0.9	82.5
43709	2023-12-03T10:49:43	-0.8	80.5
43710	2023-12-03T10:59:43	-0.5	80
43711	2023-12-03T11:09:43	-0.3	81
43712	2023-12-03T11:19:43	0	79.5
43713	2023-12-03T11:29:43	1	74.5
43714	2023-12-03T11:39:43	1.1	75
43715	2023-12-03T11:49:43	1.2	76.5
43716	2023-12-03T11:59:43	1.6	75
43717	2023-12-03T12:09:43	3.6	68
43718	2023-12-03T12:19:43	4.8	63
43719	2023-12-03T12:29:43	5.4	63
43720	2023-12-03T12:39:43	6	57
43721	2023-12-03T12:49:43	6.6	57.5
43722	2023-12-03T12:59:43	7.2	55.5
43723	2023-12-03T13:09:43	7.7	54
43724	2023-12-03T13:19:43	8.2	50.5
43725	2023-12-03T13:29:43	9.2	52.5
43726	2023-12-03T13:39:43	8.9	53.5
43727	2023-12-03T13:49:43	9.9	57
43728	2023-12-03T13:59:43	10.4	48
43729	2023-12-03T14:09:43	10.5	49.5
43730	2023-12-03T14:19:43	10.4	48
43731	2023-12-03T14:29:43	9.6	52.5
43732	2023-12-03T14:39:43	8.5	53
43733	2023-12-03T14:49:43	7.2	59.5
43734	2023-12-03T14:59:43	6.3	62.5
43735	2023-12-03T15:09:43	5.6	65
43736	2023-12-03T15:19:43	4.9	70.5
43737	2023-12-03T15:29:43	4.5	69
43738	2023-12-03T15:39:43	4	71.5
43739	2023-12-03T15:49:43	3.7	71.5
43740	2023-12-03T15:59:43	3.3	75
43741	2023-12-03T16:09:43	3	73
43742	2023-12-03T16:19:43	2.7	76.5
43743	2023-12-03T16:29:43	2.5	76.5
43744	2023-12-03T16:39:43	2.1	78
43745	2023-12-03T16:49:43	1.9	78.5
43746	2023-12-03T16:59:43	1.6	79.5
43747	2023-12-03T17:09:43	1.6	79.5
43748	2023-12-03T17:19:43	1.3	80
43749	2023-12-03T17:29:43	1.2	82
43750	2023-12-03T17:39:43	1	81.5
43751	2023-12-03T17:49:43	0.9	83
43752	2023-12-03T17:59:43	0.8	82
43753	2023-12-03T18:09:43	0.6	83
43754	2023-12-03T18:19:43	0.6	82.5
43755	2023-12-03T18:29:43	0.4	83.5
43756	2023-12-03T18:39:43	0.3	83.5
43757	2023-12-03T18:49:43	0.2	83.5
43758	2023-12-03T18:59:43	0.1	84
43759	2023-12-03T19:09:43	0	84
43760	2023-12-03T19:19:43	0	85
43761	2023-12-03T19:29:43	-0.2	84
43762	2023-12-03T19:39:43	-0.3	86
43763	2023-12-03T19:49:43	-0.3	86
43764	2023-12-03T19:59:43	-0.3	86
43765	2023-12-03T20:09:43	-0.5	85.5
43766	2023-12-03T20:19:43	-0.5	85.5
43767	2023-12-03T20:29:43	-0.6	85
43768	2023-12-03T20:39:43	-0.8	87
43769	2023-12-03T20:49:43	-0.8	87
43770	2023-12-03T20:59:43	-1	87.5
43771	2023-12-03T21:09:43	-1.1	86
43772	2023-12-03T21:19:43	-1.2	86.5
43773	2023-12-03T21:29:43	-1.5	88
43774	2023-12-03T21:39:43	-1.3	88
43775	2023-12-03T21:49:43	-1.3	88.5
43776	2023-12-03T21:59:43	-1.3	87.5
43777	2023-12-03T22:09:43	-1.5	88
43778	2023-12-03T22:19:43	-1.5	87
43779	2023-12-03T22:29:43	-1.6	87
43780	2023-12-03T22:39:43	-1.5	87.5
43781	2023-12-03T22:49:43	-1.6	88
43782	2023-12-03T22:59:43	-1.7	84.5
43783	2023-12-03T23:09:43	-1.7	85
43784	2023-12-03T23:19:43	-1.7	85
43785	2023-12-03T23:29:43	-1.6	86
43786	2023-12-03T23:39:43	-1.5	83.5
43787	2023-12-03T23:49:43	-1.6	84
43788	2023-12-03T23:59:43	-1.8	84.5
43789	2023-12-04T00:09:43	-1.8	84
43790	2023-12-04T00:19:43	-1.8	84.5
43791	2023-12-04T00:29:43	-1.7	85.5
43792	2023-12-04T00:39:43	-1.8	84.5
43793	2023-12-04T00:49:43	-1.7	86.5
43794	2023-12-04T00:59:43	-1.8	85.5
43795	2023-12-04T01:09:43	-1.8	85
43796	2023-12-04T01:19:43	-1.7	86
43797	2023-12-04T01:29:43	-1.8	85
43798	2023-12-04T01:39:43	-1.9	86.5
43799	2023-12-04T01:49:43	-2.1	85
43800	2023-12-04T01:59:43	-2.2	86.5
43801	2023-12-04T02:09:43	-2.3	86
43802	2023-12-04T02:19:43	-2.1	86
43803	2023-12-04T02:29:43	-2.4	85
43804	2023-12-04T02:39:43	-2.3	84.5
43805	2023-12-04T02:59:43	-2.3	84.5
43806	2023-12-04T03:09:43	-2.3	85.5
43807	2023-12-04T03:29:43	-2.2	82.5
43808	2023-12-04T03:39:43	-2.5	84
43809	2023-12-04T03:49:43	-2.5	83.5
43810	2023-12-04T03:59:43	-2.9	86
43811	2023-12-04T04:09:43	-2.9	85.5
43812	2023-12-04T04:19:43	-3.1	87.5
43813	2023-12-04T04:29:43	-3	89.5
43814	2023-12-04T04:39:43	-3	91
43815	2023-12-04T04:49:43	-3	91
43816	2023-12-04T04:59:43	-2.9	90
43817	2023-12-04T05:09:43	-2.8	91
43818	2023-12-04T05:19:43	-2.5	90.5
43819	2023-12-04T05:29:43	-2.6	90.5
43820	2023-12-04T05:39:43	-2.5	90.5
43821	2023-12-04T05:49:43	-2.4	91
43822	2023-12-04T05:59:43	-2.6	89.5
43823	2023-12-04T06:09:43	-2.6	90
43824	2023-12-04T06:19:43	-2.5	90.5
43825	2023-12-04T06:29:43	-2.4	89.5
43826	2023-12-04T06:39:43	-2.2	88.5
43827	2023-12-04T06:49:43	-2.2	89
43828	2023-12-04T06:59:43	-2.1	89
43829	2023-12-04T07:09:43	-2.1	88.5
43830	2023-12-04T07:19:43	-1.9	88.5
43831	2023-12-04T07:29:43	-1.8	88.5
43832	2023-12-04T07:39:43	-1.7	88
43833	2023-12-04T07:49:43	-1.6	89
43834	2023-12-04T07:59:43	-1.6	88
43835	2023-12-04T08:09:43	-1.5	88.5
43836	2023-12-04T08:19:43	-1.6	90
43837	2023-12-04T08:29:43	-1.9	90
43838	2023-12-04T08:39:43	-1.6	90.5
43839	2023-12-04T08:49:43	-1.4	90
43840	2023-12-04T08:59:43	-1.2	89
43841	2023-12-04T09:09:43	-1	89.5
43842	2023-12-04T09:19:43	-1.1	88.5
43843	2023-12-04T09:29:43	-1.1	90
43844	2023-12-04T09:39:43	-0.9	89
43845	2023-12-04T09:49:43	-0.9	89
43846	2023-12-04T10:09:43	-0.4	89.5
43847	2023-12-04T10:19:43	-0.2	89
43848	2023-12-04T10:29:43	-0.1	88.5
43849	2023-12-04T10:39:43	-0.2	88
43850	2023-12-04T10:49:43	-0.1	89.5
43851	2023-12-04T10:59:43	0	88.5
43852	2023-12-04T11:09:43	0	88
43853	2023-12-04T11:19:43	0	88
43854	2023-12-04T11:29:43	0	88.5
43855	2023-12-04T11:39:43	0.1	87
43856	2023-12-04T11:49:43	0.2	89.5
43857	2023-12-04T12:09:43	0.4	89
43858	2023-12-04T12:19:43	0.4	89.5
43859	2023-12-04T12:29:43	0.7	91
43860	2023-12-04T12:39:43	0.6	91.5
43861	2023-12-04T12:49:43	0.5	92
43862	2023-12-04T12:59:43	0.6	92
43863	2023-12-04T13:09:43	0.7	91.5
43864	2023-12-04T13:19:43	0.7	92.5
43865	2023-12-04T13:29:43	0.6	93
43866	2023-12-04T13:39:43	0.7	92.5
43867	2023-12-04T13:49:43	0.6	93
43868	2023-12-04T13:59:43	0.6	93
43869	2023-12-04T14:09:43	0.7	94
43870	2023-12-04T14:19:43	0.7	94
43871	2023-12-04T14:29:43	0.7	94
43872	2023-12-04T14:39:43	0.7	94
43873	2023-12-04T14:49:43	0.5	93.5
43874	2023-12-04T14:59:43	0.6	94
43875	2023-12-04T15:09:43	0.7	94
43876	2023-12-04T15:19:43	0.6	94.5
43877	2023-12-04T15:29:43	0.6	94.5
43878	2023-12-04T15:39:43	0.6	94.5
43879	2023-12-04T15:49:43	0.5	95
43880	2023-12-04T15:59:43	0.4	95.5
43881	2023-12-04T16:09:43	0.3	95.5
43882	2023-12-04T16:19:43	0.3	95.5
43883	2023-12-04T16:29:43	0.3	95.5
43884	2023-12-04T16:39:43	0.1	96
43885	2023-12-04T16:49:43	0.2	96
43886	2023-12-04T16:59:43	0.2	96
43887	2023-12-04T17:09:43	0.2	96
43888	2023-12-04T17:19:43	0.2	96.5
43889	2023-12-04T17:29:43	0.4	96
43890	2023-12-04T17:39:43	0.3	96
43891	2023-12-04T17:49:43	0.2	96
43892	2023-12-04T17:59:43	0.3	96
43893	2023-12-04T18:09:43	0.4	96
43894	2023-12-04T18:19:43	0.3	96
43895	2023-12-04T18:29:43	0.2	96
43896	2023-12-04T18:39:43	0.2	96.5
43897	2023-12-04T18:49:43	0.2	96.5
43898	2023-12-04T18:59:43	0.2	96
43899	2023-12-04T19:09:43	0.2	96
43900	2023-12-04T19:19:43	0.2	96
43901	2023-12-04T19:29:43	0.2	96
43902	2023-12-04T19:39:43	0.3	96
43903	2023-12-04T19:49:43	0.4	96.5
43904	2023-12-04T19:59:43	0.6	97
43905	2023-12-04T20:09:43	0.5	96.5
43906	2023-12-04T20:19:43	0.6	97
43907	2023-12-04T20:29:43	0.5	97
43908	2023-12-04T20:39:43	0.6	97.5
43909	2023-12-04T20:49:43	0.5	98
43910	2023-12-04T20:59:43	0.6	98
43911	2023-12-04T21:09:43	0.5	97.5
43912	2023-12-04T21:19:43	0.6	97.5
43913	2023-12-04T21:29:43	0.7	98.5
43914	2023-12-04T21:39:43	0.7	98
43915	2023-12-04T21:49:43	0.7	98
43916	2023-12-04T21:59:43	0.7	98
43917	2023-12-04T22:09:43	0.8	98
43918	2023-12-04T22:19:43	0.8	98
43919	2023-12-04T22:29:43	0.8	97.5
43920	2023-12-04T22:39:43	0.9	98
43921	2023-12-04T22:49:43	0.9	97.5
43922	2023-12-04T22:59:43	1	97.5
43923	2023-12-04T23:09:43	1	97.5
43924	2023-12-04T23:19:43	1	97.5
43925	2023-12-04T23:29:43	1	98.5
43926	2023-12-04T23:39:43	1	98
43927	2023-12-04T23:49:43	1	98
43928	2023-12-04T23:59:43	1	97.5
43929	2023-12-05T00:09:43	1.1	98
43930	2023-12-05T00:19:43	1.2	97.5
43931	2023-12-05T00:29:43	1.2	98
43932	2023-12-05T00:39:43	1.2	98
43933	2023-12-05T00:49:43	1.2	97.5
43934	2023-12-05T00:59:43	1.3	97.5
43935	2023-12-05T01:09:43	1.2	97.5
43936	2023-12-05T01:19:43	1.3	97
43937	2023-12-05T01:29:43	1.3	97.5
43938	2023-12-05T01:39:43	1.3	97
43939	2023-12-05T01:49:43	1.3	97
43940	2023-12-05T01:59:43	1.3	97
43941	2023-12-05T02:09:43	1.2	97
43942	2023-12-05T02:19:43	1.4	99
43943	2023-12-05T02:29:43	1.3	99.5
43944	2023-12-05T02:39:43	2.1	100
43945	2023-12-05T02:49:43	2.3	100
43946	2023-12-05T02:59:43	2.3	100
43947	2023-12-05T03:09:43	2.1	100
43948	2023-12-05T03:19:43	2.2	100
43949	2023-12-05T03:29:43	2.2	100
43950	2023-12-05T03:39:43	2.3	100
43951	2023-12-05T03:49:43	2.3	100
43952	2023-12-05T03:59:43	2.4	100
43953	2023-12-05T04:09:43	2.9	100
43954	2023-12-05T04:19:43	3	100
43955	2023-12-05T04:29:43	3	100
43956	2023-12-05T04:39:43	3	100
43957	2023-12-05T04:49:43	3.3	100
43958	2023-12-05T04:59:43	4.1	100
43959	2023-12-05T05:09:43	4.9	96.5
43960	2023-12-05T05:19:43	5.3	95.5
43961	2023-12-05T05:29:43	5.4	95.5
43962	2023-12-05T05:39:43	5.6	94
43963	2023-12-05T05:49:43	5.6	94.5
43964	2023-12-05T05:59:43	5.5	97
43965	2023-12-05T06:09:43	5.6	96
43966	2023-12-05T06:19:43	5.7	94
43967	2023-12-05T06:29:43	5.8	92.5
43968	2023-12-05T06:39:43	6.1	91
43969	2023-12-05T06:49:43	5.9	91
43970	2023-12-05T06:59:43	6	92
43971	2023-12-05T07:09:43	5.9	91
43972	2023-12-05T07:29:43	6.3	88.5
43973	2023-12-05T07:39:43	6.3	87
43974	2023-12-05T07:49:43	6.4	88
43975	2023-12-05T07:59:43	6.6	86
43976	2023-12-05T08:09:43	6.9	83.5
43977	2023-12-05T08:19:43	6.9	82.5
43978	2023-12-05T08:29:43	7	86
43979	2023-12-05T08:39:43	6.2	89.5
43980	2023-12-05T08:49:43	6.2	89
43981	2023-12-05T08:59:43	6.4	88.5
43982	2023-12-05T09:09:43	6.9	84.5
43983	2023-12-05T09:19:43	7.4	81
43984	2023-12-05T09:29:43	7.4	81
43985	2023-12-05T09:39:43	7.8	79.5
43986	2023-12-05T09:49:43	7.8	78.5
43987	2023-12-05T09:59:43	7.8	78.5
43988	2023-12-05T10:09:43	7.9	77.5
43989	2023-12-05T10:19:43	7.8	78
43990	2023-12-05T10:29:43	7.9	76.5
43991	2023-12-05T10:39:43	7.9	76
43992	2023-12-05T10:49:43	8	76
43993	2023-12-05T10:59:43	8	76.5
43994	2023-12-05T11:09:43	7.9	76.5
43995	2023-12-05T11:19:43	8	76.5
43996	2023-12-05T11:29:43	8.1	76.5
43997	2023-12-05T11:39:43	8.1	75
43998	2023-12-05T11:49:43	8.2	75
43999	2023-12-05T11:59:43	8.3	75
44000	2023-12-05T12:09:43	8.2	75.5
44001	2023-12-05T12:19:43	8.3	75
44002	2023-12-05T12:29:43	8.3	77
44003	2023-12-05T12:39:43	7.4	82.5
44004	2023-12-05T12:49:42	7.2	83.5
44005	2023-12-05T12:59:42	7	85
44006	2023-12-05T13:09:43	6.9	85.5
44007	2023-12-05T13:19:43	6.9	90
44008	2023-12-05T13:29:42	6.8	88.5
44009	2023-12-05T13:39:42	6.9	86
44010	2023-12-05T13:49:42	6.7	85
44011	2023-12-05T13:59:42	6.5	86.5
44012	2023-12-05T14:09:42	6.4	85
44013	2023-12-05T14:19:42	6.3	86.5
44014	2023-12-05T14:29:42	6.4	85
44015	2023-12-05T14:39:43	6.1	87.5
44016	2023-12-05T14:49:42	5.8	91.5
44017	2023-12-05T14:59:42	5.5	96.5
44018	2023-12-05T15:09:42	5.4	95.5
44019	2023-12-05T15:19:42	5.3	95.5
44020	2023-12-05T15:29:42	5.2	99
44021	2023-12-05T15:39:42	5.1	98.5
44022	2023-12-05T15:49:42	5	98
44023	2023-12-05T15:59:42	4.9	96
44024	2023-12-05T16:09:42	4.9	95
44025	2023-12-05T16:20:02	4.9	95.5
44026	2023-12-05T16:29:42	4.9	94.5
44027	2023-12-05T16:39:42	4.9	95.5
44028	2023-12-05T16:49:42	4.8	95
44029	2023-12-05T16:59:42	4.8	95
44030	2023-12-05T17:09:42	4.7	95.5
44031	2023-12-05T17:19:42	4.7	94.5
44032	2023-12-05T17:29:42	4.6	94.5
44033	2023-12-05T17:39:42	4.6	95
44034	2023-12-05T17:49:42	4.4	95.5
44035	2023-12-05T17:59:42	4.4	96
44036	2023-12-05T18:09:42	4.4	96
44037	2023-12-05T18:19:42	4.3	96.5
44038	2023-12-05T18:29:42	4.3	96.5
44039	2023-12-05T18:39:42	4.2	97
44040	2023-12-05T18:49:42	4.2	97.5
44041	2023-12-05T18:59:42	4.2	98
44042	2023-12-05T19:09:42	4.2	98.5
44043	2023-12-05T19:19:42	4.2	98
44044	2023-12-05T19:29:42	4.3	97.5
44045	2023-12-05T19:39:42	4.2	98.5
44046	2023-12-05T19:49:42	4.2	99
44047	2023-12-05T19:59:42	4.1	100
44048	2023-12-05T20:09:42	4.2	100
44049	2023-12-05T20:19:42	4.1	100
44050	2023-12-05T20:39:42	4.2	99.5
44051	2023-12-05T20:49:42	4.2	99
44052	2023-12-05T20:59:42	4.2	100
44053	2023-12-05T21:09:42	4.2	100
44054	2023-12-05T21:19:42	4.3	100
44055	2023-12-05T21:29:42	4.3	100
44056	2023-12-05T21:39:42	4.2	100
44057	2023-12-05T21:49:42	4.3	100
44058	2023-12-05T21:59:42	4.2	100
44059	2023-12-05T22:09:42	4.3	100
44060	2023-12-05T22:19:42	4.3	100
44061	2023-12-05T22:29:42	4.4	100
44062	2023-12-05T22:39:42	4.2	100
44063	2023-12-05T22:49:42	4.4	100
44064	2023-12-05T22:59:42	4.4	100
44065	2023-12-05T23:09:42	4.5	100
44066	2023-12-05T23:19:42	4.5	100
44067	2023-12-05T23:29:42	4.4	100
44068	2023-12-05T23:39:42	4.5	100
44069	2023-12-05T23:49:42	4.5	100
44070	2023-12-05T23:59:42	4.6	100
44071	2023-12-06T00:09:42	4.4	100
44072	2023-12-06T00:19:42	4.5	100
44073	2023-12-06T00:29:42	4.6	100
44074	2023-12-06T00:39:42	4.6	100
44075	2023-12-06T00:49:42	4.6	100
44076	2023-12-06T00:59:42	4.6	100
44077	2023-12-06T01:09:42	4.6	100
44078	2023-12-06T01:19:42	4.7	100
44079	2023-12-06T01:29:42	4.8	100
44080	2023-12-06T01:39:42	4.8	100
44081	2023-12-06T01:49:42	4.8	100
44082	2023-12-06T01:59:42	4.8	100
44083	2023-12-06T02:09:42	5	100
44084	2023-12-06T02:19:42	4.8	100
44085	2023-12-06T02:29:42	4.8	100
44086	2023-12-06T02:39:42	4.9	100
44087	2023-12-06T02:49:42	4.9	100
44088	2023-12-06T02:59:42	4.9	100
44089	2023-12-06T03:09:42	4.9	100
44090	2023-12-06T03:19:42	4.9	100
44091	2023-12-06T03:29:42	5	100
44092	2023-12-06T03:39:42	4.9	100
44093	2023-12-06T03:49:42	5	100
44094	2023-12-06T03:59:42	4.9	100
44095	2023-12-06T04:09:42	4.9	100
44096	2023-12-06T04:29:42	5	100
44097	2023-12-06T04:39:42	4.9	100
44098	2023-12-06T04:49:42	4.9	100
44099	2023-12-06T04:59:42	4.9	100
44100	2023-12-06T05:09:42	5	100
44101	2023-12-06T05:19:42	5	100
44102	2023-12-06T05:29:42	5	100
44103	2023-12-06T05:39:42	4.9	100
44104	2023-12-06T05:49:42	4.9	100
44105	2023-12-06T05:59:42	4.8	100
44106	2023-12-06T06:09:42	4.9	100
44107	2023-12-06T06:19:42	5	100
44108	2023-12-06T06:29:42	5	100
44109	2023-12-06T06:39:42	4.9	100
44110	2023-12-06T06:49:42	5.1	99.5
44111	2023-12-06T06:59:42	5	100
44112	2023-12-06T07:09:42	5	99
44113	2023-12-06T07:19:42	4.9	99
44114	2023-12-06T07:29:42	4.7	97
44115	2023-12-06T07:39:42	4.8	94
44116	2023-12-06T07:49:42	4.8	93
44117	2023-12-06T07:59:42	4.8	93
44118	2023-12-06T08:09:42	4.7	92.5
44119	2023-12-06T08:19:42	4.6	93
44120	2023-12-06T08:29:42	4.6	93
44121	2023-12-06T08:39:42	4.6	92.5
44122	2023-12-06T08:49:42	4.6	91.5
44123	2023-12-06T08:59:42	4.7	92.5
44124	2023-12-06T09:09:42	4.8	91.5
44125	2023-12-06T09:19:42	4.8	91
44126	2023-12-06T09:29:42	4.8	90.5
44127	2023-12-06T09:39:42	4.8	91
44128	2023-12-06T09:49:42	4.8	91
44129	2023-12-06T09:59:42	4.8	90
44130	2023-12-06T10:09:42	4.9	90
44131	2023-12-06T10:19:42	5	89.5
44132	2023-12-06T10:29:42	5	90
44133	2023-12-06T10:39:42	5	89.5
44134	2023-12-06T10:49:42	5.1	89
44135	2023-12-06T10:59:42	5.1	89
44136	2023-12-06T11:09:42	5.2	90.5
44137	2023-12-06T11:19:42	5.3	89.5
44138	2023-12-06T11:29:42	5.3	88.5
44139	2023-12-06T11:39:42	5.2	89
44140	2023-12-06T11:49:42	5.3	87.5
44141	2023-12-06T11:59:42	5.4	88.5
44142	2023-12-06T12:09:42	5.4	89
44143	2023-12-06T12:19:42	5.4	88.5
44144	2023-12-06T12:29:42	5.4	88
44145	2023-12-06T12:39:42	5.4	88.5
44146	2023-12-06T12:49:42	5.4	88
44147	2023-12-06T12:59:42	5.4	88.5
44148	2023-12-06T13:09:42	5.4	88.5
44149	2023-12-06T13:19:42	5.3	88
44150	2023-12-06T13:29:42	5.3	88
44151	2023-12-06T13:39:42	5.4	88.5
44152	2023-12-06T13:49:42	5.2	89
44153	2023-12-06T13:59:42	5.4	89
44154	2023-12-06T14:09:42	5.4	89.5
44155	2023-12-06T14:19:42	5.3	89.5
44156	2023-12-06T14:29:42	5.3	89.5
44157	2023-12-06T14:39:42	5.2	90
44158	2023-12-06T14:49:42	5.2	89.5
44159	2023-12-06T14:59:42	5.1	90
44160	2023-12-06T15:09:42	5	90.5
44161	2023-12-06T15:19:42	5.2	90
44162	2023-12-06T15:29:42	5.1	90
44163	2023-12-06T15:39:42	3.6	99
44164	2023-12-06T15:49:42	3.1	100
44165	2023-12-06T15:59:42	3.4	100
44166	2023-12-06T16:09:42	3.5	100
44167	2023-12-06T16:19:42	3.5	100
44168	2023-12-06T16:29:42	3.4	100
44169	2023-12-06T16:39:42	3.6	100
44170	2023-12-06T16:49:42	3.6	100
44171	2023-12-06T16:59:42	3.6	100
44172	2023-12-06T17:09:42	3.5	100
44173	2023-12-06T17:19:42	3.6	100
44174	2023-12-06T17:29:42	3.6	100
44175	2023-12-06T17:39:42	3.7	100
44176	2023-12-06T17:49:42	3.8	100
44177	2023-12-06T17:59:41	3.9	100
44178	2023-12-06T18:09:42	3.9	100
44179	2023-12-06T18:19:42	3.9	100
44180	2023-12-06T18:29:42	3.9	100
44181	2023-12-06T18:39:41	3.9	100
44182	2023-12-06T18:49:41	3.9	100
44183	2023-12-06T18:59:41	4	100
44184	2023-12-06T19:09:41	4.1	100
44185	2023-12-06T19:19:42	4.1	100
44186	2023-12-06T19:29:41	4	99
44187	2023-12-06T19:39:41	4.2	99
44188	2023-12-06T19:49:41	4	97
44189	2023-12-06T19:59:41	4.1	97
44190	2023-12-06T20:09:42	4	96.5
44191	2023-12-06T20:19:41	3.9	96.5
44192	2023-12-06T20:29:41	4	97
44193	2023-12-06T20:39:41	3.7	98.5
44194	2023-12-06T20:49:41	3.7	99
44195	2023-12-06T20:59:41	3.2	95.5
44196	2023-12-06T21:09:41	3.1	97
44197	2023-12-06T21:19:41	3	96.5
44198	2023-12-06T21:29:41	2.9	97
44199	2023-12-06T21:39:41	2.8	96
44200	2023-12-06T21:49:41	2.9	95.5
44201	2023-12-06T21:59:41	2.9	95.5
44202	2023-12-06T22:09:41	2.9	95.5
44203	2023-12-06T22:19:42	2.8	95.5
44204	2023-12-06T22:29:42	2.8	96
44205	2023-12-06T22:39:41	3	96
44206	2023-12-06T22:49:41	3.1	95.5
44207	2023-12-06T22:59:41	3.1	95
44208	2023-12-06T23:09:41	3.4	94.5
44209	2023-12-06T23:19:41	3.5	93.5
44210	2023-12-06T23:29:41	3.6	93
44211	2023-12-06T23:39:41	3.7	92.5
44212	2023-12-06T23:49:41	3.7	93.5
44213	2023-12-06T23:59:41	3.7	91.5
44214	2023-12-07T00:09:41	3.7	91
44215	2023-12-07T00:19:41	3.7	90.5
44216	2023-12-07T00:29:42	3.7	91
44217	2023-12-07T00:39:41	3.7	92
44218	2023-12-07T00:49:41	3.6	91
44219	2023-12-07T00:59:41	3.6	90.5
44220	2023-12-07T01:09:41	3.6	90.5
44221	2023-12-07T01:19:41	3.6	91
44222	2023-12-07T01:29:41	3.5	91.5
44223	2023-12-07T01:39:41	3.5	91.5
44224	2023-12-07T01:49:41	3.4	93.5
44225	2023-12-07T01:59:41	3.2	96
44226	2023-12-07T02:09:41	2.8	96.5
44227	2023-12-07T02:19:42	2.6	97.5
44228	2023-12-07T02:29:42	2.6	97.5
44229	2023-12-07T02:39:41	2.4	97
44230	2023-12-07T02:49:41	2.2	96
44231	2023-12-07T02:59:41	2.1	97.5
44232	2023-12-07T03:09:41	1.9	97.5
44233	2023-12-07T03:19:41	1.8	97.5
44234	2023-12-07T03:29:41	1.7	97.5
44235	2023-12-07T03:39:41	1.6	98
44236	2023-12-07T03:49:41	1.4	98
44237	2023-12-07T03:59:41	1.3	98
44238	2023-12-07T04:09:41	1.3	96
44239	2023-12-07T04:19:41	1.2	96
44240	2023-12-07T04:29:42	1.1	95.5
44241	2023-12-07T04:39:41	0.9	96.5
44242	2023-12-07T04:49:41	0.7	96
44243	2023-12-07T04:59:41	0.8	97
44244	2023-12-07T05:09:41	0.5	97.5
44245	2023-12-07T05:19:41	0.5	97.5
44246	2023-12-07T05:29:41	0.4	97.5
44247	2023-12-07T05:49:41	0.2	98
44248	2023-12-07T05:59:41	0.2	97
44249	2023-12-07T06:09:41	0.1	97.5
44250	2023-12-07T06:19:41	0	97.5
44251	2023-12-07T06:29:41	0	97.5
44252	2023-12-07T06:39:41	0	97.5
44253	2023-12-07T06:49:41	-0.1	97.5
44254	2023-12-07T06:59:41	-0.1	98
44255	2023-12-07T07:09:41	-0.2	97
44256	2023-12-07T07:19:41	-0.1	98
44257	2023-12-07T07:29:41	-0.3	97.5
44258	2023-12-07T07:39:41	-0.3	97
44259	2023-12-07T07:49:41	-0.2	98
44260	2023-12-07T07:59:41	0	98.5
44261	2023-12-07T08:09:41	-0.1	98
44262	2023-12-07T08:19:41	0	98
44263	2023-12-07T08:29:41	0.1	99
44264	2023-12-07T08:39:41	0.4	98
44265	2023-12-07T08:49:41	0.5	98.5
44266	2023-12-07T08:59:41	0.7	98
44267	2023-12-07T09:09:41	0.6	99
44268	2023-12-07T09:19:41	0.7	99
44269	2023-12-07T09:39:41	1	98.5
44270	2023-12-07T09:49:41	1	99
44271	2023-12-07T09:59:41	1.1	99
44272	2023-12-07T10:09:41	1.3	99
44273	2023-12-07T10:19:41	1.6	97
44274	2023-12-07T10:29:41	2	97
44275	2023-12-07T10:39:41	2.3	97
44276	2023-12-07T10:49:41	2.6	97
44277	2023-12-07T10:59:41	2.9	97
44278	2023-12-07T11:09:41	3.3	96
44279	2023-12-07T11:19:41	3.7	95
44280	2023-12-07T11:29:41	4.9	89.5
44281	2023-12-07T11:39:41	5.3	87
44282	2023-12-07T11:49:41	5.4	91
44283	2023-12-07T11:59:41	6.2	84.5
44284	2023-12-07T12:09:41	7.9	78.5
44285	2023-12-07T12:19:41	9.3	73.5
44286	2023-12-07T12:29:41	10.8	61.5
44287	2023-12-07T12:39:41	12.1	59.5
44288	2023-12-07T12:49:41	12.2	58
44289	2023-12-07T12:59:41	12.1	56
44290	2023-12-07T13:09:41	12.6	51.5
44291	2023-12-07T13:19:41	13	54.5
44292	2023-12-07T13:29:41	11.1	63
44293	2023-12-07T13:39:41	9.6	68
44294	2023-12-07T13:49:41	9.1	70
44295	2023-12-07T13:59:41	7.8	74.5
44296	2023-12-07T14:19:41	6.7	79
44297	2023-12-07T14:29:41	6.2	80.5
44298	2023-12-07T14:39:42	5.9	82
44299	2023-12-07T14:49:41	6.2	84.5
44300	2023-12-07T14:59:41	6	84.5
44301	2023-12-07T15:09:41	5.9	88.5
44302	2023-12-07T15:19:41	5.6	87
44303	2023-12-07T15:29:41	5.5	86
44304	2023-12-07T15:39:41	5.4	88
44305	2023-12-07T15:49:41	5.1	89
44306	2023-12-07T15:59:41	5	89.5
44307	2023-12-07T16:09:41	4.7	87.5
44308	2023-12-07T16:19:41	4.7	86.5
44309	2023-12-07T16:29:41	4.4	84
44310	2023-12-07T16:39:41	4.3	82
44311	2023-12-07T16:49:41	3.9	84
44312	2023-12-07T16:59:41	3.6	89.5
44313	2023-12-07T17:09:41	3.8	90.5
44314	2023-12-07T17:19:41	3.6	91.5
44315	2023-12-07T17:29:41	3.7	91.5
44316	2023-12-07T17:39:41	3.5	91.5
44317	2023-12-07T17:49:41	3.3	90
44318	2023-12-07T17:59:41	2.8	89
44319	2023-12-07T18:09:41	2.6	91
44320	2023-12-07T18:19:41	2.7	93
44321	2023-12-07T18:29:41	2.7	90.5
44322	2023-12-07T18:39:41	2.3	91
44323	2023-12-07T18:49:41	2.4	90.5
44324	2023-12-07T18:59:41	2.4	90
44325	2023-12-07T19:09:41	2.2	91
44326	2023-12-07T19:19:41	2.3	90
44327	2023-12-07T19:29:41	2.2	92.5
44328	2023-12-07T19:39:41	2.2	91.5
44329	2023-12-07T19:49:41	1.7	91.5
44330	2023-12-07T19:59:41	1.8	91
44331	2023-12-07T20:09:41	1.6	92
44332	2023-12-07T20:19:41	1.8	94
44333	2023-12-07T20:29:41	1.8	95
44334	2023-12-07T20:39:41	1.9	94
44335	2023-12-07T20:49:41	2	94
44336	2023-12-07T20:59:41	2	95
44337	2023-12-07T21:09:41	2.1	94.5
44338	2023-12-07T21:19:41	2.2	94
44339	2023-12-07T21:29:41	2.1	94.5
44340	2023-12-07T21:39:41	2.3	94
44341	2023-12-07T21:49:41	2.4	94
44342	2023-12-07T21:59:41	2.4	94
44343	2023-12-07T22:09:41	2.3	95.5
44344	2023-12-07T22:19:41	2.2	93.5
44345	2023-12-07T22:29:41	2.1	94.5
44346	2023-12-07T22:39:41	2.2	94
44347	2023-12-07T22:49:41	2	93.5
44348	2023-12-07T22:59:41	2.1	93.5
44349	2023-12-07T23:09:41	2	94.5
44350	2023-12-07T23:19:41	1.6	94.5
44351	2023-12-07T23:29:41	1.8	94
44352	2023-12-07T23:39:41	2	95.5
44353	2023-12-07T23:49:41	2.1	94.5
44354	2023-12-07T23:59:41	2	95
44355	2023-12-08T00:09:41	2	95.5
44356	2023-12-08T00:19:41	2.1	95
44357	2023-12-08T00:29:41	2.2	94.5
44358	2023-12-08T00:39:41	2	94.5
44359	2023-12-08T00:49:41	2.2	95
44360	2023-12-08T00:59:41	2.2	94.5
44361	2023-12-08T01:09:41	2.2	95
44362	2023-12-08T01:19:41	2.1	95
44363	2023-12-08T01:29:41	1.8	95
44364	2023-12-08T01:39:41	1.8	95
44365	2023-12-08T01:49:41	1.8	96.5
44366	2023-12-08T01:59:41	2.1	95.5
44367	2023-12-08T02:09:41	1.9	95.5
44368	2023-12-08T02:19:41	1.9	96
44369	2023-12-08T02:29:41	1.9	96.5
44370	2023-12-08T02:39:41	2.2	96.5
44371	2023-12-08T02:49:41	2.2	96.5
44372	2023-12-08T03:09:41	2.1	95
44373	2023-12-08T03:19:41	2.1	96.5
44374	2023-12-08T03:29:41	2.3	95.5
44375	2023-12-08T03:39:41	2.3	95.5
44376	2023-12-08T03:49:41	2.2	94.5
44377	2023-12-08T03:59:41	2.1	95
44378	2023-12-08T04:09:41	2.4	96.5
44379	2023-12-08T04:19:41	2.3	94.5
44380	2023-12-08T04:29:41	2.3	95
44381	2023-12-08T04:39:41	2.3	95
44382	2023-12-08T04:49:41	2.3	95.5
44383	2023-12-08T04:59:41	2.5	96.5
44384	2023-12-08T05:09:41	2.5	95.5
44385	2023-12-08T05:19:41	2.4	96
44386	2023-12-08T05:29:41	2.5	95.5
44387	2023-12-08T05:39:41	2.5	96
44388	2023-12-08T05:49:41	2.6	96.5
44389	2023-12-08T05:59:41	2.5	96
44390	2023-12-08T06:09:41	2.6	96.5
44391	2023-12-08T06:19:41	2.4	96
44392	2023-12-08T06:39:41	2.5	97
44393	2023-12-08T06:49:41	2.7	97.5
44394	2023-12-08T06:59:41	2.7	98.5
44395	2023-12-08T07:09:41	2.7	97.5
44396	2023-12-08T07:19:41	2.7	96.5
44397	2023-12-08T07:29:41	2.8	96.5
44398	2023-12-08T07:39:41	2.9	97
44399	2023-12-08T07:49:41	2.9	97.5
44400	2023-12-08T07:59:41	3	97.5
44401	2023-12-08T08:09:41	3	98
44402	2023-12-08T08:19:41	3	97
44403	2023-12-08T08:29:41	3.1	97
44404	2023-12-08T08:39:41	3.2	97.5
44405	2023-12-08T08:49:41	3.3	97.5
44406	2023-12-08T08:59:41	3.3	97.5
44407	2023-12-08T09:09:41	3.4	96.5
44408	2023-12-08T09:19:41	3.5	97
44409	2023-12-08T09:29:41	3.6	96.5
44410	2023-12-08T09:39:41	3.6	95.5
44411	2023-12-08T09:49:41	3.8	96.5
44412	2023-12-08T09:59:41	3.8	96
44413	2023-12-08T10:09:41	3.9	96
44414	2023-12-08T10:19:41	3.9	97
44415	2023-12-08T10:29:41	4.1	97
44416	2023-12-08T10:39:41	4.3	96.5
44417	2023-12-08T10:49:41	4.5	96.5
44418	2023-12-08T10:59:41	4.7	96
44419	2023-12-08T11:09:41	4.8	96.5
44420	2023-12-08T11:19:41	4.8	96.5
44421	2023-12-08T11:29:41	4.9	97
44422	2023-12-08T11:39:41	5	97.5
44423	2023-12-08T11:49:41	5.1	97.5
44424	2023-12-08T11:59:41	5.1	98
44425	2023-12-08T12:09:41	5.4	98.5
44426	2023-12-08T12:19:41	5.5	98.5
44427	2023-12-08T12:29:41	5.5	98.5
44428	2023-12-08T12:39:41	5.6	98.5
44429	2023-12-08T12:49:41	5.8	98.5
44430	2023-12-08T12:59:41	5.9	98
44431	2023-12-08T13:09:41	6	98
44432	2023-12-08T13:19:41	5.9	98
44433	2023-12-08T13:29:41	5.8	99
44434	2023-12-08T13:39:41	5.8	99.5
44435	2023-12-08T13:49:41	5.9	100
44436	2023-12-08T13:59:41	6	100
44437	2023-12-08T14:09:41	6	100
44438	2023-12-08T14:19:41	6	100
44439	2023-12-08T14:29:41	6	100
44440	2023-12-08T14:39:41	6.2	100
44441	2023-12-08T14:49:41	6.3	100
44442	2023-12-08T14:59:41	6.2	100
44443	2023-12-08T15:09:41	6.3	100
44444	2023-12-08T15:19:40	6.3	100
44445	2023-12-08T15:29:40	6.3	100
44446	2023-12-08T15:49:41	6.4	100
44447	2023-12-08T15:59:40	6.4	100
44448	2023-12-08T16:09:40	6.5	100
44449	2023-12-08T16:19:40	6.6	100
44450	2023-12-08T16:29:40	6.6	100
44451	2023-12-08T16:39:40	6.7	100
44452	2023-12-08T16:49:40	6.9	100
44453	2023-12-08T16:59:40	6.7	100
44454	2023-12-08T17:09:41	6.9	100
44455	2023-12-08T17:19:40	6.9	100
44456	2023-12-08T17:29:40	7	100
44457	2023-12-08T17:39:40	7	100
44458	2023-12-08T17:49:40	7.1	100
44459	2023-12-08T17:59:40	7.2	100
44460	2023-12-08T18:09:41	7.1	100
44461	2023-12-08T18:19:40	7.2	100
44462	2023-12-08T18:29:40	7.2	100
44463	2023-12-08T18:39:40	7.2	99.5
44464	2023-12-08T18:49:40	7.2	99
44465	2023-12-08T18:59:40	7.3	99
44466	2023-12-08T19:09:40	7.3	99
44467	2023-12-08T19:29:40	7.3	98.5
44468	2023-12-08T19:39:40	7.3	98.5
44469	2023-12-08T19:49:40	7.3	98.5
44470	2023-12-08T19:59:40	7.4	99
44471	2023-12-08T20:09:40	7.4	98.5
44472	2023-12-08T20:19:40	7.4	98.5
44473	2023-12-08T20:29:40	7.4	98.5
44474	2023-12-08T20:39:40	7.5	98.5
44475	2023-12-08T20:49:40	7.4	99
44476	2023-12-08T20:59:40	7.4	98
44477	2023-12-08T21:09:40	7.4	98.5
44478	2023-12-08T21:19:40	7.4	98.5
44479	2023-12-08T21:29:40	7.4	98
44480	2023-12-08T21:39:40	7.4	98
44481	2023-12-08T21:49:40	7.4	98
44482	2023-12-08T21:59:40	7.4	99
44483	2023-12-08T22:09:40	7.5	99
44484	2023-12-08T22:19:40	7.5	99
44485	2023-12-08T22:49:40	7.5	99
44486	2023-12-08T22:59:40	7.6	99.5
44487	2023-12-08T23:09:40	7.6	100
44488	2023-12-08T23:19:40	7.6	99.5
44489	2023-12-08T23:29:40	7.6	99.5
44490	2023-12-08T23:39:40	7.5	99.5
44491	2023-12-08T23:49:40	7.6	99.5
44492	2023-12-08T23:59:40	7.5	99
44493	2023-12-09T00:09:40	7.5	99
44494	2023-12-09T00:19:40	7.4	99
44495	2023-12-09T00:29:40	7.6	98.5
44496	2023-12-09T00:39:40	7.5	98.5
44497	2023-12-09T00:49:40	7.5	98
44498	2023-12-09T00:59:40	7.4	98.5
44499	2023-12-09T01:09:40	7.5	99
44500	2023-12-09T01:19:40	7.5	98.5
44501	2023-12-09T01:29:40	7.5	99
44502	2023-12-09T01:39:40	7.6	99
44503	2023-12-09T01:49:40	7.6	99
44504	2023-12-09T01:59:40	7.6	98.5
44505	2023-12-09T02:09:40	7.6	98.5
44506	2023-12-09T02:19:40	7.5	98.5
44507	2023-12-09T02:29:40	7.6	98.5
44508	2023-12-09T02:39:40	7.5	98
44509	2023-12-09T02:49:40	7.3	98.5
44510	2023-12-09T02:59:40	7.3	98.5
44511	2023-12-09T03:09:40	7.2	98.5
44512	2023-12-09T03:19:40	7.3	99
44513	2023-12-09T03:29:40	7.2	99.5
44514	2023-12-09T03:39:40	7.1	98
44515	2023-12-09T03:49:40	7.3	99
44516	2023-12-09T03:59:40	7.4	99
44517	2023-12-09T04:09:40	7.4	99
44518	2023-12-09T04:19:40	7.3	98
44519	2023-12-09T04:29:40	7.5	99
44520	2023-12-09T04:39:40	7.3	99
44521	2023-12-09T04:49:40	7.3	98.5
44522	2023-12-09T04:59:40	7.3	98.5
44523	2023-12-09T05:09:40	7.3	98.5
44524	2023-12-09T05:19:40	7.3	97.5
44525	2023-12-09T05:29:40	7.2	97.5
44526	2023-12-09T05:39:40	7.1	97.5
44527	2023-12-09T05:49:40	7	97
44528	2023-12-09T05:59:40	7.1	97.5
44529	2023-12-09T06:09:40	7.1	98
44530	2023-12-09T06:19:40	7	98.5
44531	2023-12-09T06:29:40	7.1	98.5
44532	2023-12-09T06:39:40	7	97.5
44533	2023-12-09T06:49:40	7.1	98.5
44534	2023-12-09T06:59:40	7.1	98.5
44535	2023-12-09T07:09:40	7.1	98.5
44536	2023-12-09T07:19:40	7.1	98.5
44537	2023-12-09T07:29:40	7.2	98.5
44538	2023-12-09T07:39:40	7.2	98.5
44539	2023-12-09T07:49:40	7.2	98.5
44540	2023-12-09T07:59:40	7.1	97.5
44541	2023-12-09T08:09:40	7.1	98
44542	2023-12-09T08:19:40	7.2	98.5
44543	2023-12-09T08:29:40	7.3	98.5
44544	2023-12-09T08:39:40	7.5	98
44545	2023-12-09T08:49:40	7.6	98
44546	2023-12-09T08:59:40	7.8	98.5
44547	2023-12-09T09:09:40	7.9	98.5
44548	2023-12-09T09:19:40	7.9	98
44549	2023-12-09T09:29:40	8	97.5
44550	2023-12-09T09:39:40	8.2	97.5
44551	2023-12-09T09:49:40	8.3	97
44552	2023-12-09T09:59:40	8.2	97.5
44553	2023-12-09T10:09:40	8.3	97
44554	2023-12-09T10:19:40	8.4	97.5
44555	2023-12-09T10:29:40	8.5	97
44556	2023-12-09T10:39:40	8.7	97
44557	2023-12-09T10:49:40	8.6	96.5
44558	2023-12-09T10:59:40	8.6	97
44559	2023-12-09T11:09:40	8.7	95.5
44560	2023-12-09T11:19:40	8.8	90
44561	2023-12-09T11:29:40	9.1	86.5
44562	2023-12-09T11:39:40	9.2	84
44563	2023-12-09T11:49:40	9.2	84
44564	2023-12-09T11:59:40	9.5	82.5
44565	2023-12-09T12:09:40	10.4	78
44566	2023-12-09T12:19:40	11	77
44567	2023-12-09T12:29:39	10.5	78
44568	2023-12-09T12:39:39	10.3	75.5
44569	2023-12-09T12:49:39	10.1	75
44570	2023-12-09T12:59:39	10	77.5
44571	2023-12-09T13:09:39	9.8	78.5
44572	2023-12-09T13:19:39	9.7	85
44573	2023-12-09T13:29:39	9.5	80
44574	2023-12-09T13:39:39	9.5	80.5
44575	2023-12-09T13:49:39	9.5	83
44576	2023-12-09T13:59:39	9.2	88
44577	2023-12-09T14:09:39	8.3	89
44578	2023-12-09T14:19:39	8	92.5
44579	2023-12-09T14:29:39	7.8	94
44580	2023-12-09T14:39:39	7.6	97
44581	2023-12-09T14:49:39	7.7	97.5
44582	2023-12-09T14:59:39	7.7	99
44583	2023-12-09T15:09:39	7.9	100
44584	2023-12-09T15:19:39	7.9	99.5
44585	2023-12-09T15:29:39	7.8	97
44586	2023-12-09T15:39:39	7.7	95.5
44587	2023-12-09T15:49:39	7.8	97
44588	2023-12-09T15:59:39	7.9	96.5
44589	2023-12-09T16:09:59	7.8	93
44590	2023-12-09T16:19:39	8	88
44591	2023-12-09T16:29:39	8.1	90
44592	2023-12-09T16:39:39	8.3	90.5
44593	2023-12-09T16:49:39	8.3	89.5
44594	2023-12-09T16:59:39	8.4	89
44595	2023-12-09T17:09:39	8.5	90
44596	2023-12-09T17:19:39	8.4	91
44597	2023-12-09T17:29:39	8.4	94.5
44598	2023-12-09T17:39:39	8.4	96
44599	2023-12-09T17:49:39	8.3	97
44600	2023-12-09T17:59:39	8.3	95
44601	2023-12-09T18:09:39	8.1	100
44602	2023-12-09T18:19:39	8.2	100
44603	2023-12-09T18:29:39	8.2	100
44604	2023-12-09T18:39:39	8.2	100
44605	2023-12-09T18:49:39	8.3	100
44606	2023-12-09T18:59:39	8.4	100
44607	2023-12-09T19:09:39	8.4	100
44608	2023-12-09T19:19:39	8.5	100
44609	2023-12-09T19:29:39	8.8	100
44610	2023-12-09T19:39:39	8.8	100
44611	2023-12-09T19:49:39	8.8	100
44612	2023-12-09T19:59:39	9	100
44613	2023-12-09T20:09:39	9	100
44614	2023-12-09T20:19:39	9	100
44615	2023-12-09T20:29:39	9	100
44616	2023-12-09T20:39:39	9	100
44617	2023-12-09T20:49:39	9.1	100
44618	2023-12-09T20:59:40	9.2	100
44619	2023-12-09T21:09:39	9.5	100
44620	2023-12-09T21:19:39	9.7	100
44621	2023-12-09T21:29:39	9.7	100
44622	2023-12-09T21:39:39	9.7	100
44623	2023-12-09T21:49:39	10	100
44624	2023-12-09T21:59:39	9.5	100
44625	2023-12-09T22:09:39	9.3	100
44626	2023-12-09T22:19:39	9.4	100
44627	2023-12-09T22:29:39	9.4	100
44628	2023-12-09T22:39:39	9.4	100
44629	2023-12-09T22:49:39	9.5	100
44630	2023-12-09T22:59:39	9.6	100
44631	2023-12-09T23:09:39	9.2	100
44632	2023-12-09T23:29:39	9.1	100
44633	2023-12-09T23:39:39	9.1	100
44634	2023-12-09T23:49:39	9.2	100
44635	2023-12-09T23:59:39	9.3	100
44636	2023-12-10T00:09:39	9.4	99.5
44637	2023-12-10T00:19:39	9.4	99.5
44638	2023-12-10T00:29:39	9.4	99
44639	2023-12-10T00:39:39	9.4	99
44640	2023-12-10T00:49:39	9.5	99
44641	2023-12-10T00:59:39	9.5	99
44642	2023-12-10T01:09:39	9.5	98
44643	2023-12-10T01:19:39	9.6	97
44644	2023-12-10T01:29:39	9.6	97
44645	2023-12-10T01:39:39	8.6	97
44646	2023-12-10T01:49:39	8.7	96
44647	2023-12-10T01:59:39	8.4	95
44648	2023-12-10T02:09:39	8.1	95
44649	2023-12-10T02:19:39	7.8	95
44650	2023-12-10T02:29:39	7.9	95
44651	2023-12-10T02:39:39	8	95
44652	2023-12-10T02:49:39	8.1	95
44653	2023-12-10T02:59:39	8.2	95
44654	2023-12-10T03:09:39	8.3	95
44655	2023-12-10T03:19:39	8.5	95
44656	2023-12-10T03:29:39	8.5	95
44657	2023-12-10T03:39:39	8.6	95
44658	2023-12-10T03:49:39	8.7	95
44659	2023-12-10T03:59:39	8.7	95
44660	2023-12-10T04:09:39	8.9	95
44661	2023-12-10T04:19:39	9	95
44662	2023-12-10T04:29:39	9.1	95
44663	2023-12-10T04:39:39	9	95
44664	2023-12-10T04:49:39	9	95
44665	2023-12-10T04:59:39	9.1	95
44666	2023-12-10T05:09:39	9.1	95
44667	2023-12-10T05:19:39	9.1	95
44668	2023-12-10T05:29:39	9.2	95
44669	2023-12-10T05:39:39	9.2	95
44670	2023-12-10T05:49:39	9.1	95
44671	2023-12-10T05:59:39	9.1	95
44672	2023-12-10T06:09:39	9.2	95
44673	2023-12-10T06:19:38	9.1	95
44674	2023-12-10T06:29:39	9	95
44675	2023-12-10T06:39:39	9	95
44676	2023-12-10T06:49:39	8.9	95
44677	2023-12-10T06:59:39	9.1	95
44678	2023-12-10T07:19:38	9.2	95.5
44679	2023-12-10T07:29:38	9.1	95.5
44680	2023-12-10T07:39:38	9	95.5
44681	2023-12-10T07:49:38	9.1	95.5
44682	2023-12-10T07:59:38	9.2	95.5
44683	2023-12-10T08:09:38	9.3	95.5
44684	2023-12-10T08:19:38	8.9	95.5
44685	2023-12-10T08:29:38	8.5	95.5
44686	2023-12-10T08:39:38	8.5	95.5
44687	2023-12-10T08:49:38	8.7	95.5
44688	2023-12-10T08:59:38	8.7	95.5
44689	2023-12-10T09:09:38	8.8	95.5
44690	2023-12-10T09:19:38	9	95.5
44691	2023-12-10T09:29:38	9.1	95.5
44692	2023-12-10T09:39:38	9.3	95.5
44693	2023-12-10T09:49:38	9.4	95.5
44694	2023-12-10T09:59:38	9.5	95.5
44695	2023-12-10T10:09:38	9.3	98.5
44696	2023-12-10T10:19:38	9.5	98.5
44697	2023-12-10T10:29:38	9.7	98.5
44698	2023-12-10T10:39:38	9.8	99
44699	2023-12-10T10:49:38	9.9	100
44700	2023-12-10T10:59:38	9.8	100
44701	2023-12-10T11:09:38	10	100
44702	2023-12-10T11:19:38	10.2	99.5
44703	2023-12-10T11:29:38	10.3	99.5
44704	2023-12-10T11:39:38	10.3	99
44705	2023-12-10T11:49:38	10.3	100
44706	2023-12-10T11:59:38	10.2	95
44707	2023-12-10T12:09:38	10.3	91
44708	2023-12-10T12:19:38	10.4	82.5
44709	2023-12-10T12:29:38	10.4	77.5
44710	2023-12-10T12:39:38	10.4	78
44711	2023-12-10T12:49:38	10.5	76.5
44712	2023-12-10T12:59:38	10.6	75.5
44713	2023-12-10T13:09:38	10.6	74.5
44714	2023-12-10T13:19:38	10.8	74.5
44715	2023-12-10T13:29:38	11	74.5
44716	2023-12-10T13:39:38	11.1	75.5
44717	2023-12-10T13:49:38	11.5	74
44718	2023-12-10T13:59:38	11.6	74
44719	2023-12-10T14:09:38	11.4	74.5
44720	2023-12-10T14:19:38	11.4	74.5
44721	2023-12-10T14:29:38	11.1	75.5
44722	2023-12-10T14:39:38	11.1	75.5
44723	2023-12-10T14:49:38	11	74.5
44724	2023-12-10T14:59:38	11.1	74
44725	2023-12-10T15:09:38	10.9	74
44726	2023-12-10T15:19:38	10.8	74
44727	2023-12-10T15:29:38	10.7	74
44728	2023-12-10T15:39:38	10.7	72.5
44729	2023-12-10T15:49:38	10.6	72.5
44730	2023-12-10T15:59:38	10.6	71
44731	2023-12-10T16:09:38	10.5	70.5
44732	2023-12-10T16:19:38	10.4	70
44733	2023-12-10T16:29:38	10.4	70.5
44734	2023-12-10T16:39:38	10.2	70.5
44735	2023-12-10T16:49:38	10.3	69
44736	2023-12-10T16:59:38	10.3	68
44737	2023-12-10T17:09:38	10.3	70
44738	2023-12-10T17:19:38	10.1	69
44739	2023-12-10T17:29:38	10.5	67
44740	2023-12-10T17:39:38	10.4	67.5
44741	2023-12-10T17:49:38	10.7	65.5
44742	2023-12-10T17:59:38	11.2	63.5
44743	2023-12-10T18:09:38	11.3	63
44744	2023-12-10T18:19:38	11.5	60.5
44745	2023-12-10T18:29:38	11.6	59
44746	2023-12-10T18:39:38	11.8	56.5
44747	2023-12-10T18:49:38	11.9	55.5
44748	2023-12-10T18:59:38	12	55.5
44749	2023-12-10T19:09:38	12	54.5
44750	2023-12-10T19:19:38	11.9	55
44751	2023-12-10T19:29:38	11.8	55
44752	2023-12-10T19:39:38	12	54
44753	2023-12-10T19:49:38	12	52
44754	2023-12-10T19:59:38	12.1	52
44755	2023-12-10T20:09:38	12.2	51.5
44756	2023-12-10T20:19:38	12.2	53
44757	2023-12-10T20:29:38	11.5	60
44758	2023-12-10T20:39:38	10.7	64
44759	2023-12-10T20:49:38	10.3	76
44760	2023-12-10T20:59:38	8.7	97
44761	2023-12-10T21:09:38	8.8	98
44762	2023-12-10T21:19:38	9.4	94.5
44763	2023-12-10T21:29:38	9.6	92
44764	2023-12-10T21:39:38	9.3	93.5
44765	2023-12-10T21:49:38	9.3	93.5
44766	2023-12-10T21:59:38	9.4	92.5
44767	2023-12-10T22:09:38	9.7	91
44768	2023-12-10T22:19:38	9.5	95
44769	2023-12-10T22:29:38	8.9	100
44770	2023-12-10T22:39:38	8.8	100
44771	2023-12-10T22:49:38	8.7	100
44772	2023-12-10T22:59:38	8.7	100
44773	2023-12-10T23:09:38	8.7	100
44774	2023-12-10T23:19:38	8.8	100
44775	2023-12-10T23:29:38	9	100
44776	2023-12-10T23:39:38	9	100
44777	2023-12-10T23:49:37	9.1	100
44778	2023-12-10T23:59:37	9	100
44779	2023-12-11T00:09:37	9.1	100
44780	2023-12-11T00:19:37	9	100
44781	2023-12-11T00:29:37	9	100
44782	2023-12-11T00:39:37	9.2	100
44783	2023-12-11T00:49:37	9.3	100
44784	2023-12-11T00:59:37	9.5	100
44785	2023-12-11T01:09:37	9.5	100
44786	2023-12-11T01:19:37	9.7	100
44787	2023-12-11T01:29:37	9.8	100
44788	2023-12-11T01:39:37	9.8	100
44789	2023-12-11T01:49:37	9.8	100
44790	2023-12-11T01:59:37	10	100
44791	2023-12-11T02:09:37	10.2	100
44792	2023-12-11T02:19:37	10.1	100
44793	2023-12-11T02:29:37	10.2	100
44794	2023-12-11T02:39:37	10.1	100
44795	2023-12-11T02:49:37	10.2	100
44796	2023-12-11T02:59:37	10.1	100
44797	2023-12-11T03:09:37	10.1	100
44798	2023-12-11T03:19:37	10	100
44799	2023-12-11T03:29:37	10	100
44800	2023-12-11T03:39:37	10	100
44801	2023-12-11T03:49:37	10	100
44802	2023-12-11T03:59:37	10.1	100
44803	2023-12-11T04:09:37	10.1	100
44804	2023-12-11T04:19:37	10.1	100
44805	2023-12-11T04:29:37	10.2	100
44806	2023-12-11T04:39:37	10.2	100
44807	2023-12-11T04:49:37	10.3	98
44808	2023-12-11T04:59:37	10.2	94.5
44809	2023-12-11T05:09:37	10.3	92.5
44810	2023-12-11T05:19:37	10.4	91.5
44811	2023-12-11T05:29:37	10.6	90
44812	2023-12-11T05:39:37	10.8	88
44813	2023-12-11T05:49:37	11	87
44814	2023-12-11T05:59:37	10.9	86
44815	2023-12-11T06:09:37	11.2	84
44816	2023-12-11T06:29:37	11.1	84.5
44817	2023-12-11T06:39:37	10.9	84.5
44818	2023-12-11T06:49:37	10.8	85
44819	2023-12-11T06:59:37	10.7	85
44820	2023-12-11T07:09:37	10.8	85
44821	2023-12-11T07:19:37	10.8	85
44822	2023-12-11T07:29:37	10.9	84.5
44823	2023-12-11T07:39:37	10.9	84
44824	2023-12-11T07:49:37	11.1	84
44825	2023-12-11T07:59:37	11.2	83.5
44826	2023-12-11T08:09:37	11.3	83
44827	2023-12-11T08:29:37	11.6	81
44828	2023-12-11T08:39:37	11.8	80.5
44829	2023-12-11T08:49:37	11.8	80
44830	2023-12-11T08:59:37	11.9	79
44831	2023-12-11T09:09:37	11.8	80
44832	2023-12-11T09:19:37	11.9	79
44833	2023-12-11T09:29:37	12	78
44834	2023-12-11T09:39:37	12.2	78
44835	2023-12-11T09:49:37	12.1	78.5
44836	2023-12-11T09:59:37	12.2	78.5
44837	2023-12-11T10:09:37	12.5	77.5
44838	2023-12-11T10:19:37	12.6	77.5
44839	2023-12-11T10:29:37	12.7	76.5
44840	2023-12-11T10:39:37	12.8	76
44841	2023-12-11T10:49:37	12.8	76
44842	2023-12-11T10:59:37	13	75.5
44843	2023-12-11T11:09:37	12.9	75.5
44844	2023-12-11T11:19:37	12.9	76
44845	2023-12-11T11:29:37	12.9	75.5
44846	2023-12-11T11:39:37	12.7	76.5
44847	2023-12-11T11:49:37	12.6	77
44848	2023-12-11T11:59:37	12.5	74.5
44849	2023-12-11T12:09:37	12.5	73.5
44850	2023-12-11T12:19:37	12.7	78.5
44851	2023-12-11T12:29:37	13.8	70.5
44852	2023-12-11T12:39:37	13.6	70.5
44853	2023-12-11T12:49:37	14.3	63.5
44854	2023-12-11T12:59:37	15.9	57.5
44855	2023-12-11T13:09:37	14.5	60
44856	2023-12-11T13:19:37	13.6	64
44857	2023-12-11T13:29:37	13.2	64.5
44858	2023-12-11T13:39:37	14.1	61
44859	2023-12-11T13:49:37	13.3	63.5
44860	2023-12-11T13:59:37	12.9	64.5
44861	2023-12-11T14:09:37	12.7	65.5
44862	2023-12-11T14:19:37	12.8	65.5
44863	2023-12-11T14:29:37	12.7	68
44864	2023-12-11T14:39:37	12.5	68
44865	2023-12-11T14:49:37	12.4	66.5
44866	2023-12-11T14:59:37	12.4	68
44867	2023-12-11T15:09:37	12.3	69
44868	2023-12-11T15:19:36	12.2	69
44869	2023-12-11T15:29:36	12	69.5
44870	2023-12-11T15:39:36	12	70
44871	2023-12-11T15:49:36	12	70.5
44872	2023-12-11T15:59:36	11.9	71
44873	2023-12-11T16:09:36	11.9	71.5
44874	2023-12-11T16:19:36	11.8	71
44875	2023-12-11T16:29:36	11.6	71
44876	2023-12-11T16:39:36	11.6	70.5
44877	2023-12-11T16:49:36	11.7	70.5
44878	2023-12-11T16:59:36	11.4	72
44879	2023-12-11T17:09:36	11.4	72
44880	2023-12-11T17:19:36	11.4	71
44881	2023-12-11T17:29:36	11.4	70.5
44882	2023-12-11T17:39:36	11.4	71.5
44883	2023-12-11T17:49:36	11.3	72.5
44884	2023-12-11T17:59:36	11.2	73
44885	2023-12-11T18:09:36	11.2	73.5
44886	2023-12-11T18:19:36	11.2	74
44887	2023-12-11T18:29:36	11.3	73.5
44888	2023-12-11T18:39:36	11.3	73.5
44889	2023-12-11T18:49:36	11.3	73.5
44890	2023-12-11T18:59:36	11.2	73.5
44891	2023-12-11T19:09:36	11.1	74
44892	2023-12-11T19:19:36	11.2	74.5
44893	2023-12-11T19:29:36	11.2	74.5
44894	2023-12-11T19:39:36	11.2	74.5
44895	2023-12-11T19:49:36	11.1	74.5
44896	2023-12-11T19:59:36	11	75
44897	2023-12-11T20:09:36	10.9	75.5
44898	2023-12-11T20:19:36	10.9	76
44899	2023-12-11T20:29:36	10.8	76.5
44900	2023-12-11T20:39:36	10.8	77
44901	2023-12-11T20:49:36	10.8	77.5
44902	2023-12-11T20:59:36	10.6	78
44903	2023-12-11T21:09:36	10.4	78.5
44904	2023-12-11T21:19:36	10.4	78.5
44905	2023-12-11T21:29:36	10.1	79
44906	2023-12-11T21:39:36	10	80.5
44907	2023-12-11T21:49:36	9.9	81
44908	2023-12-11T21:59:36	9.9	81.5
44909	2023-12-11T22:09:36	9.7	82
44910	2023-12-11T22:19:36	9.6	82.5
44911	2023-12-11T22:29:36	9.6	82.5
44912	2023-12-11T22:39:36	9.5	82.5
44913	2023-12-11T22:49:36	9.5	82.5
44914	2023-12-11T22:59:36	9.5	82.5
44915	2023-12-11T23:09:36	9.4	82.5
44916	2023-12-11T23:19:36	9.6	83
44917	2023-12-11T23:29:36	9.5	83
44918	2023-12-11T23:39:36	9.4	83.5
44919	2023-12-11T23:49:36	9.4	83
44920	2023-12-11T23:59:36	9.5	83
44921	2023-12-12T00:09:36	9.5	83.5
44922	2023-12-12T00:19:36	9.5	84.5
44923	2023-12-12T00:29:36	9.5	84.5
44924	2023-12-12T00:39:36	9.3	84.5
44925	2023-12-12T00:49:36	9.3	85
44926	2023-12-12T00:59:36	9.2	85.5
44927	2023-12-12T01:09:36	9.1	87
44928	2023-12-12T01:19:36	8.9	87
44929	2023-12-12T01:29:36	8.7	87.5
44930	2023-12-12T01:39:36	8.8	88
44931	2023-12-12T01:49:36	8.7	89.5
44932	2023-12-12T01:59:36	8.6	90.5
44933	2023-12-12T02:09:36	8.4	91.5
44934	2023-12-12T02:19:36	8.3	91.5
44935	2023-12-12T02:29:36	8.3	92
44936	2023-12-12T02:39:36	8.1	91
44937	2023-12-12T02:49:36	8.2	91
44938	2023-12-12T02:59:36	8	91.5
44939	2023-12-12T03:09:36	7.9	91
44940	2023-12-12T03:19:36	7.9	92
44941	2023-12-12T03:29:36	7.8	91.5
44942	2023-12-12T03:39:36	7.8	91
44943	2023-12-12T03:49:36	7.8	91
44944	2023-12-12T03:59:36	7.8	91
44945	2023-12-12T04:09:36	7.9	91
44946	2023-12-12T04:19:36	7.9	90
44947	2023-12-12T04:29:36	7.9	90
44948	2023-12-12T04:39:36	8	91.5
44949	2023-12-12T04:49:36	8	91.5
44950	2023-12-12T04:59:36	8.1	91
44951	2023-12-12T05:09:36	8.1	91.5
44952	2023-12-12T05:19:36	8.2	92
44953	2023-12-12T05:29:36	8.3	91.5
44954	2023-12-12T05:39:36	8.2	92.5
44955	2023-12-12T05:49:36	8.3	92
44956	2023-12-12T05:59:36	8.3	92.5
44957	2023-12-12T06:09:36	8.2	92.5
44958	2023-12-12T06:19:36	8.3	93
44959	2023-12-12T06:29:36	8.3	92.5
44960	2023-12-12T06:39:36	8.3	92.5
44961	2023-12-12T06:49:36	8.4	93
44962	2023-12-12T06:59:36	8.4	93
44963	2023-12-12T07:09:36	8.5	92.5
44964	2023-12-12T07:19:36	8.5	92.5
44965	2023-12-12T07:29:36	8.5	92.5
44966	2023-12-12T07:39:36	8.4	92.5
44967	2023-12-12T07:49:36	8.5	92
44968	2023-12-12T07:59:36	8.5	92
44969	2023-12-12T08:09:36	8.7	93.5
44970	2023-12-12T08:19:36	8.7	92.5
44971	2023-12-12T08:29:36	8.9	92.5
44972	2023-12-12T08:39:35	9	92.5
44973	2023-12-12T08:49:35	9.1	92.5
44974	2023-12-12T08:59:35	9.1	90.5
44975	2023-12-12T09:09:36	9.1	91.5
44976	2023-12-12T09:19:35	9.1	91
44977	2023-12-12T09:29:35	9.2	91.5
44978	2023-12-12T09:39:35	9.1	91.5
44979	2023-12-12T09:49:35	9.2	92
44980	2023-12-12T09:59:35	9.3	94
44981	2023-12-12T10:09:35	9.3	94.5
44982	2023-12-12T10:19:35	9.3	95.5
44983	2023-12-12T10:29:35	9.2	95
44984	2023-12-12T10:39:35	9.1	96.5
44985	2023-12-12T10:49:35	9.4	98.5
44986	2023-12-12T10:59:35	10.1	99
44987	2023-12-12T11:09:35	10.2	98
44988	2023-12-12T11:19:35	9.8	99.5
44989	2023-12-12T11:29:35	9.9	100
44990	2023-12-12T11:39:35	9.7	100
44991	2023-12-12T11:49:35	9.7	100
44992	2023-12-12T11:59:35	9.7	100
44993	2023-12-12T12:09:35	9.9	100
44994	2023-12-12T12:19:35	9.8	100
44995	2023-12-12T12:29:35	9.7	100
44996	2023-12-12T12:39:35	9.8	100
44997	2023-12-12T12:49:35	9.7	100
44998	2023-12-12T12:59:35	9.7	100
44999	2023-12-12T13:09:55	9.9	100
45000	2023-12-12T13:19:35	10.4	100
45001	2023-12-12T13:29:35	10.7	99.5
45002	2023-12-12T13:39:35	10.8	99
45003	2023-12-12T13:49:35	10.9	99.5
45004	2023-12-12T13:59:35	11	98.5
45005	2023-12-12T14:09:35	11.3	97.5
45006	2023-12-12T14:19:35	11.3	98
45007	2023-12-12T14:29:35	11.2	100
45008	2023-12-12T14:39:35	11.2	100
45009	2023-12-12T14:49:35	11.2	100
45010	2023-12-12T14:59:35	11.2	100
45011	2023-12-12T15:09:35	11.1	100
45012	2023-12-12T15:19:35	11.1	100
45013	2023-12-12T15:29:35	11.2	100
45014	2023-12-12T15:39:35	11.1	100
45015	2023-12-12T15:49:35	11.2	100
45016	2023-12-12T15:59:35	11.2	100
45017	2023-12-12T16:09:35	11.1	100
45018	2023-12-12T16:19:35	11	100
45019	2023-12-12T16:29:35	10.9	100
45020	2023-12-12T16:39:35	10.9	100
45021	2023-12-12T16:59:35	11	100
45022	2023-12-12T17:09:35	11.1	100
45023	2023-12-12T17:19:35	11.2	100
45024	2023-12-12T17:29:35	11.2	100
45025	2023-12-12T17:39:35	11.3	100
45026	2023-12-12T17:49:35	11.4	100
45027	2023-12-12T17:59:35	11.3	100
45028	2023-12-12T18:09:35	11.3	100
45029	2023-12-12T18:19:35	11.3	100
45030	2023-12-12T18:29:35	11.3	100
45031	2023-12-12T18:39:35	11.2	100
45032	2023-12-12T18:49:35	11.3	99
45033	2023-12-12T18:59:35	11.3	98
45034	2023-12-12T19:19:35	11.1	98.5
45035	2023-12-12T19:29:35	11	99.5
45036	2023-12-12T19:39:35	10.9	100
45037	2023-12-12T19:49:35	10.8	100
45038	2023-12-12T19:59:35	10.7	100
45039	2023-12-12T20:09:35	10.9	100
45040	2023-12-12T20:19:35	10.9	100
45041	2023-12-12T20:29:35	11	100
45042	2023-12-12T20:39:35	11	100
45043	2023-12-12T20:49:35	10.6	100
45044	2023-12-12T20:59:35	10.5	100
45045	2023-12-12T21:09:35	10.1	100
45046	2023-12-12T21:19:35	9.9	100
45047	2023-12-12T21:29:35	9.6	100
45048	2023-12-12T21:39:35	9.6	100
45049	2023-12-12T21:49:35	9.5	100
45050	2023-12-12T21:59:35	9.5	100
45051	2023-12-12T22:09:35	9.4	100
45052	2023-12-12T22:19:35	9.4	100
45053	2023-12-12T22:29:35	9.3	100
45054	2023-12-12T22:39:35	9.2	100
45055	2023-12-12T22:49:35	9.3	100
45056	2023-12-12T22:59:35	9.1	100
45057	2023-12-12T23:09:35	9	100
45058	2023-12-12T23:19:35	8.9	99.5
45059	2023-12-12T23:29:35	8.7	99.5
45060	2023-12-12T23:39:35	8.7	99.5
45061	2023-12-12T23:49:35	8.5	99
45062	2023-12-12T23:59:35	8.6	98.5
45063	2023-12-13T00:09:35	8.5	97
45064	2023-12-13T00:19:35	8.7	97
45065	2023-12-13T00:29:35	8.6	97
45066	2023-12-13T00:39:35	8.5	96.5
45067	2023-12-13T00:49:35	8.6	96
45068	2023-12-13T00:59:35	8.5	95
45069	2023-12-13T01:09:35	8.5	95
45070	2023-12-13T01:19:35	8.5	95
45071	2023-12-13T01:29:34	8.5	95
45072	2023-12-13T01:39:34	8.4	95
45073	2023-12-13T01:49:34	8.6	95
45074	2023-12-13T01:59:34	8.4	95
45075	2023-12-13T02:09:34	8.2	95
45076	2023-12-13T02:19:34	8.2	95
45077	2023-12-13T02:29:34	8.1	95
45078	2023-12-13T02:39:35	8.2	95.5
45079	2023-12-13T02:49:34	8	95.5
45080	2023-12-13T02:59:34	8	95.5
45081	2023-12-13T03:09:34	8.1	95.5
45082	2023-12-13T03:19:34	8.1	95.5
45083	2023-12-13T03:29:34	7.9	95.5
45084	2023-12-13T03:39:34	8.1	95.5
45085	2023-12-13T03:49:34	8.2	95.5
45086	2023-12-13T03:59:34	8.2	95.5
45087	2023-12-13T04:09:34	8.4	95.5
45088	2023-12-13T04:19:34	8.3	95.5
45089	2023-12-13T04:29:34	8.4	95.5
45090	2023-12-13T04:39:34	8.2	95.5
45091	2023-12-13T04:49:34	8.2	95.5
45092	2023-12-13T04:59:34	8.3	95.5
45093	2023-12-13T05:09:34	8.1	95.5
45094	2023-12-13T05:19:34	8.1	95.5
45095	2023-12-13T05:29:34	8.1	95.5
45096	2023-12-13T05:39:34	8.1	95.5
45097	2023-12-13T05:49:34	8	95.5
45098	2023-12-13T05:59:34	8	95.5
45099	2023-12-13T06:09:34	7.9	95.5
45100	2023-12-13T06:19:34	8	95.5
45101	2023-12-13T06:29:34	8	95.5
45102	2023-12-13T06:39:34	8.1	95.5
45103	2023-12-13T06:49:34	8	95.5
45104	2023-12-13T06:59:34	8	95.5
45105	2023-12-13T07:09:34	8.1	95.5
45106	2023-12-13T07:19:34	8.1	95.5
45107	2023-12-13T07:29:34	8.1	95.5
45108	2023-12-13T07:39:34	8.2	95.5
45109	2023-12-13T07:49:34	8.1	95.5
45110	2023-12-13T07:59:34	8.2	95.5
45111	2023-12-13T08:09:34	8.2	95.5
45112	2023-12-13T08:19:34	8.2	95.5
45113	2023-12-13T08:29:34	8.3	95.5
45114	2023-12-13T08:39:34	8.5	96
45115	2023-12-13T08:49:34	8.5	95.5
45116	2023-12-13T08:59:34	8.5	95.5
45117	2023-12-13T09:09:34	8.7	95.5
45118	2023-12-13T09:19:34	8.8	95.5
45119	2023-12-13T09:29:34	8.9	95.5
45120	2023-12-13T09:39:34	9.2	95.5
45121	2023-12-13T09:49:34	9.2	95.5
45122	2023-12-13T09:59:34	9.3	95.5
45123	2023-12-13T10:09:34	9.5	95.5
45124	2023-12-13T10:19:34	9.5	95.5
45125	2023-12-13T10:29:34	9.6	95.5
45126	2023-12-13T10:39:34	9.7	95.5
45127	2023-12-13T10:49:34	9.9	95.5
45128	2023-12-13T10:59:34	10.2	95.5
45129	2023-12-13T11:09:34	10.1	95.5
45130	2023-12-13T11:19:34	10.2	95.5
45131	2023-12-13T11:29:34	9.6	95.5
45132	2023-12-13T11:39:34	9.5	95.5
45133	2023-12-13T11:49:34	9.6	95.5
45134	2023-12-13T11:59:34	9.5	95.5
45135	2023-12-13T12:09:34	9.6	95.5
45136	2023-12-13T12:19:34	9.6	95.5
45137	2023-12-13T12:29:34	9.6	95.5
45138	2023-12-13T12:39:34	9.5	95.5
45139	2023-12-13T12:59:34	9.5	96
45140	2023-12-13T13:09:34	9.2	95.5
45141	2023-12-13T13:19:34	9.3	95.5
45142	2023-12-13T13:29:34	9.1	96
45143	2023-12-13T13:39:34	9	95.5
45144	2023-12-13T13:49:34	9	95.5
45145	2023-12-13T13:59:34	8.9	95.5
45146	2023-12-13T14:09:34	8.7	95.5
45147	2023-12-13T14:19:34	8.9	96
45148	2023-12-13T14:29:34	9	96
45149	2023-12-13T14:39:34	9.3	96
45150	2023-12-13T14:49:34	9.3	96
45151	2023-12-13T14:59:34	9.2	96
45152	2023-12-13T15:09:34	9.1	96
45153	2023-12-13T15:19:34	9	96
45154	2023-12-13T15:29:34	8.7	96
45155	2023-12-13T15:39:34	8.6	96
45156	2023-12-13T15:49:34	8.5	96
45157	2023-12-13T15:59:34	8.5	96
45158	2023-12-13T16:09:34	8.5	96
45159	2023-12-13T16:19:34	8.4	96
45160	2023-12-13T16:29:34	8.3	96
45161	2023-12-13T16:39:34	8.3	96
45162	2023-12-13T16:49:34	8.2	96
45163	2023-12-13T16:59:34	8.2	96
45164	2023-12-13T17:09:34	8.3	96
45165	2023-12-13T17:19:34	8.3	96
45166	2023-12-13T17:29:34	8.2	96
45167	2023-12-13T17:39:34	8.1	96
45168	2023-12-13T17:49:34	8	96
45169	2023-12-13T17:59:34	8	96
45170	2023-12-13T18:09:34	8	96
45171	2023-12-13T18:19:34	8	96
45172	2023-12-13T18:29:34	8	96
45173	2023-12-13T18:39:34	8	96
45174	2023-12-13T18:49:34	7.9	96
45175	2023-12-13T18:59:34	7.8	96
45176	2023-12-13T19:09:34	7.6	96
45177	2023-12-13T19:19:34	7.6	96
45178	2023-12-13T19:29:34	7.6	96
45179	2023-12-13T19:39:34	7.6	96
45180	2023-12-13T19:49:34	7.5	96
45181	2023-12-13T19:59:34	7.4	96
45182	2023-12-13T20:09:34	7.5	96
45183	2023-12-13T20:19:34	7.4	96
45184	2023-12-13T20:29:34	7.4	96
45185	2023-12-13T20:39:34	7.4	96
45186	2023-12-13T20:49:34	7.4	96
45187	2023-12-13T20:59:33	7.5	96
45188	2023-12-13T21:09:33	7.4	96
45189	2023-12-13T21:19:34	7.5	96
45190	2023-12-13T21:29:33	7.4	96
45191	2023-12-13T21:39:33	7.4	96
45192	2023-12-13T21:49:33	7.5	96
45193	2023-12-13T21:59:33	7.3	96
45194	2023-12-13T22:09:33	7.4	96
45195	2023-12-13T22:19:33	7.4	96
45196	2023-12-13T22:29:33	7.5	96
45197	2023-12-13T22:39:33	7.5	96
45198	2023-12-13T22:49:33	7.5	96
45199	2023-12-13T22:59:33	7.6	96
45200	2023-12-13T23:09:33	7.5	96
45201	2023-12-13T23:19:33	7.5	96
45202	2023-12-13T23:29:33	7.5	96
45203	2023-12-13T23:39:34	7.4	96
45204	2023-12-13T23:49:33	7.5	96
45205	2023-12-13T23:59:33	7.4	96
45206	2023-12-14T00:09:33	7.3	96
45207	2023-12-14T00:19:33	7.4	96
45208	2023-12-14T00:29:33	7.3	96
45209	2023-12-14T00:39:33	7.4	96
45210	2023-12-14T00:49:33	7.4	96
45211	2023-12-14T00:59:33	7.4	96
45212	2023-12-14T01:09:33	7.4	96
45213	2023-12-14T01:19:33	7.4	96
45214	2023-12-14T01:29:33	7.5	96
45215	2023-12-14T01:39:33	7.4	96
45216	2023-12-14T01:49:33	7.5	96
45217	2023-12-14T01:59:33	7.6	96
45218	2023-12-14T02:09:34	7.6	96
45219	2023-12-14T02:19:33	7.7	96
45220	2023-12-14T02:29:33	7.6	96
45221	2023-12-14T02:39:33	7.6	96
45222	2023-12-14T02:49:33	7.5	96
45223	2023-12-14T02:59:33	7.6	96
45224	2023-12-14T03:09:33	7.7	96
45225	2023-12-14T03:19:33	7.5	96
45226	2023-12-14T03:29:33	7.5	96
45227	2023-12-14T03:39:33	7.6	96
45228	2023-12-14T03:49:33	7.6	96
45229	2023-12-14T03:59:33	7.6	96
45230	2023-12-14T04:09:33	7.6	96
45231	2023-12-14T04:19:33	7.7	96
45232	2023-12-14T04:29:33	7.7	96
45233	2023-12-14T04:39:33	7.7	96
45234	2023-12-14T04:49:33	7.7	96
45235	2023-12-14T04:59:33	7.8	96
45236	2023-12-14T05:09:33	7.7	96
45237	2023-12-14T05:19:33	7.8	96
45238	2023-12-14T05:29:33	7.8	96
45239	2023-12-14T05:39:33	7.9	96
45240	2023-12-14T05:49:33	7.8	96
45241	2023-12-14T06:09:33	7.9	96
45242	2023-12-14T06:19:33	7.8	96
45243	2023-12-14T06:29:33	8	96
45244	2023-12-14T06:39:33	7.9	96
45245	2023-12-14T06:49:33	7.8	96
45246	2023-12-14T06:59:33	7.9	96
45247	2023-12-14T07:09:33	7.8	96
45248	2023-12-14T07:19:33	7.8	96
45249	2023-12-14T07:29:33	7.8	96
45250	2023-12-14T07:39:33	7.8	96
45251	2023-12-14T07:49:33	7.8	96
45252	2023-12-14T07:59:33	7.8	96
45253	2023-12-14T08:09:33	7.8	96
45254	2023-12-14T08:19:54	7.9	96
45255	2023-12-14T08:29:33	7.8	96
45256	2023-12-14T08:39:33	7.9	96
45257	2023-12-14T08:49:33	8	96
45258	2023-12-14T08:59:33	8.1	96
45259	2023-12-14T09:09:33	8.2	96
45260	2023-12-14T09:19:33	8.3	96
45261	2023-12-14T09:29:33	8.4	95.5
45262	2023-12-14T09:39:33	8.4	96
45263	2023-12-14T09:49:33	8.4	96
45264	2023-12-14T09:59:33	8.5	96
45265	2023-12-14T10:09:33	8.5	96
45266	2023-12-14T10:19:33	8.7	96
45267	2023-12-14T10:29:33	8.7	96
45268	2023-12-14T10:39:33	8.6	95.5
45269	2023-12-14T10:49:33	8.6	95.5
45270	2023-12-14T10:59:33	8.9	95.5
45271	2023-12-14T11:09:33	8.8	95.5
45272	2023-12-14T11:19:33	8.8	95.5
45273	2023-12-14T11:29:33	8.8	96
45274	2023-12-14T11:39:33	8.9	96
45275	2023-12-14T11:49:33	9	96
45276	2023-12-14T11:59:33	9	95.5
45277	2023-12-14T12:09:33	9.1	96
45278	2023-12-14T12:19:33	9.2	96
45279	2023-12-14T12:29:33	9.2	95.5
45280	2023-12-14T12:39:33	9.2	96
45281	2023-12-14T12:49:33	8.8	95.5
45282	2023-12-14T12:59:33	8.7	96
45283	2023-12-14T13:09:33	8.8	95.5
45284	2023-12-14T13:19:33	8.7	95.5
45285	2023-12-14T13:29:33	8.7	95.5
45286	2023-12-14T13:39:33	8.7	96
45287	2023-12-14T13:49:33	8.9	95.5
45288	2023-12-14T13:59:33	8.7	95.5
45289	2023-12-14T14:09:33	8.8	96
45290	2023-12-14T14:19:33	8.8	96
45291	2023-12-14T14:29:33	8.8	95.5
45292	2023-12-14T14:39:33	8.6	95.5
45293	2023-12-14T14:49:33	8.6	96
45294	2023-12-14T14:59:33	8.5	96
45295	2023-12-14T15:09:33	8.5	96
45296	2023-12-14T15:19:33	8.4	95.5
45297	2023-12-14T15:29:33	8.4	95.5
45298	2023-12-14T15:39:33	8.3	95.5
45299	2023-12-14T15:49:33	8.4	96
45300	2023-12-14T15:59:33	8.3	95.5
45301	2023-12-14T16:09:33	8.3	96
45302	2023-12-14T16:19:33	8.2	96
45303	2023-12-14T16:29:33	8.2	96
45304	2023-12-14T16:39:33	8.3	95.5
45305	2023-12-14T16:49:33	8	95.5
45306	2023-12-14T16:59:33	7.8	95.5
45307	2023-12-14T17:09:32	7.7	96
45308	2023-12-14T17:19:32	7.8	96
45309	2023-12-14T17:29:32	7.6	96
45310	2023-12-14T17:39:32	7.9	96
45311	2023-12-14T17:49:32	7.9	96
45312	2023-12-14T17:59:32	8	96
45313	2023-12-14T18:09:32	8	96
45314	2023-12-14T18:19:32	8	96
45315	2023-12-14T18:29:32	8	96
45316	2023-12-14T18:39:32	8	96
45317	2023-12-14T18:49:32	8	96
45318	2023-12-14T18:59:32	8	96
45319	2023-12-14T19:09:32	8.1	96
45320	2023-12-14T19:19:32	8	96
45321	2023-12-14T19:29:32	7.8	96
45322	2023-12-14T19:39:32	7.8	96
45323	2023-12-14T19:49:32	7.8	96
45324	2023-12-14T19:59:52	7.8	96
45325	2023-12-14T20:09:33	7.8	96
45326	2023-12-14T20:19:32	7.7	96
45327	2023-12-14T20:29:32	7.7	96
45328	2023-12-14T20:39:32	7.8	96
45329	2023-12-14T20:49:32	7.6	96
45330	2023-12-14T20:59:32	7.6	96
45331	2023-12-14T21:09:32	7.6	96
45332	2023-12-14T21:19:32	7.4	96
45333	2023-12-14T21:29:32	7	96
45334	2023-12-14T21:39:32	6.8	96
45335	2023-12-14T21:49:32	6.8	96
45336	2023-12-14T21:59:32	6.8	96
45337	2023-12-14T22:09:32	6.6	96
45338	2023-12-14T22:19:32	6.5	96
45339	2023-12-14T22:29:32	6.4	96
45340	2023-12-14T22:39:32	6.4	96
45341	2023-12-14T22:49:32	6.3	96
45342	2023-12-14T22:59:32	6.2	96
45343	2023-12-14T23:09:32	6.2	96
45344	2023-12-14T23:19:32	6.1	96
45345	2023-12-14T23:29:32	6.2	96
45346	2023-12-14T23:39:32	6.1	96
45347	2023-12-14T23:49:32	5.9	96
45348	2023-12-14T23:59:32	5.9	96
45349	2023-12-15T00:09:32	5.8	96
45350	2023-12-15T00:19:33	5.8	96
45351	2023-12-15T00:29:33	5.8	96
45352	2023-12-15T00:39:32	5.8	96
45353	2023-12-15T00:49:32	5.7	96
45354	2023-12-15T00:59:32	5.8	96
45355	2023-12-15T01:09:32	5.7	96
45356	2023-12-15T01:19:32	5.7	96
45357	2023-12-15T01:29:32	5.5	96
45358	2023-12-15T01:39:32	5.6	96
45359	2023-12-15T01:49:32	5.6	96
45360	2023-12-15T01:59:32	5.6	96
45361	2023-12-15T02:09:32	5.6	96
45362	2023-12-15T02:19:32	5.5	96
45363	2023-12-15T02:29:32	5.6	96
45364	2023-12-15T02:39:32	5.5	96
45365	2023-12-15T02:49:32	5.6	96
45366	2023-12-15T02:59:32	5.6	96
45367	2023-12-15T03:09:32	5.5	96
45368	2023-12-15T03:19:32	5.4	96
45369	2023-12-15T03:29:32	5.4	96
45370	2023-12-15T03:39:33	5.5	96
45371	2023-12-15T03:49:32	5.6	96
45372	2023-12-15T03:59:32	5.5	96
45373	2023-12-15T04:09:32	5.6	96
45374	2023-12-15T04:19:33	5.6	96
45375	2023-12-15T04:29:32	5.5	96
45376	2023-12-15T04:39:33	5.6	96
45377	2023-12-15T04:49:32	5.6	96
45378	2023-12-15T04:59:32	5.6	96
45379	2023-12-15T05:09:32	5.6	96
45380	2023-12-15T05:19:32	5.7	96
45381	2023-12-15T05:29:32	5.7	96
45382	2023-12-15T05:39:32	5.8	96
45383	2023-12-15T05:49:32	5.8	96
45384	2023-12-15T05:59:32	5.7	96
45385	2023-12-15T06:09:32	5.7	96
45386	2023-12-15T06:19:32	5.8	96
45387	2023-12-15T06:39:32	5.8	96
45388	2023-12-15T06:49:32	5.9	96
45389	2023-12-15T06:59:32	5.9	96
45390	2023-12-15T07:09:32	6	96
45391	2023-12-15T07:19:32	5.8	96
45392	2023-12-15T07:29:32	5.8	96
45393	2023-12-15T07:39:32	5.9	96
45394	2023-12-15T07:49:32	5.9	96
45395	2023-12-15T07:59:32	6	96
45396	2023-12-15T08:09:32	6	96
45397	2023-12-15T08:19:32	6.1	96
45398	2023-12-15T08:29:32	6.1	96
45399	2023-12-15T08:39:32	6.1	96
45400	2023-12-15T08:49:32	6.1	96
45401	2023-12-15T08:59:32	6.1	96
45402	2023-12-15T09:09:32	6.2	96.5
45403	2023-12-15T09:19:32	6.5	96
45404	2023-12-15T09:29:32	6.4	96.5
45405	2023-12-15T09:39:32	6.6	96.5
45406	2023-12-15T09:49:32	6.6	96.5
45407	2023-12-15T09:59:32	6.6	96.5
45408	2023-12-15T10:09:32	6.8	96.5
45409	2023-12-15T10:19:32	7.1	96.5
45410	2023-12-15T10:29:32	7.2	96.5
45411	2023-12-15T10:39:32	7.4	96.5
45412	2023-12-15T10:49:32	7.5	96.5
45413	2023-12-15T10:59:32	7.5	96.5
45414	2023-12-15T11:09:32	7.5	96
45415	2023-12-15T11:19:32	7.5	96
45416	2023-12-15T11:29:32	7.4	96.5
45417	2023-12-15T11:39:32	7.6	96.5
45418	2023-12-15T11:49:32	7.7	96.5
45419	2023-12-15T11:59:32	7.7	96.5
45420	2023-12-15T12:09:32	7.7	96.5
45421	2023-12-15T12:19:32	7.9	96.5
45422	2023-12-15T12:29:32	8	96.5
45423	2023-12-15T12:39:32	7.9	96
45424	2023-12-15T12:49:32	8	96.5
45425	2023-12-15T12:59:32	7.8	96
45426	2023-12-15T13:09:32	7.9	96
45427	2023-12-15T13:19:32	8	96.5
45428	2023-12-15T13:29:32	8	96.5
45429	2023-12-15T13:39:32	7.9	96
45430	2023-12-15T13:49:32	7.9	96
45431	2023-12-15T13:59:32	7.9	96
45432	2023-12-15T14:09:32	7.9	96
45433	2023-12-15T14:19:32	7.8	96
45434	2023-12-15T14:29:32	7.8	96
45435	2023-12-15T14:39:32	7.7	96
45436	2023-12-15T14:49:32	7.7	96
45437	2023-12-15T14:59:32	7.8	96
45438	2023-12-15T15:09:32	7.7	96
45439	2023-12-15T15:19:32	7.7	96
45440	2023-12-15T15:29:32	7.7	96
45441	2023-12-15T15:39:32	7.6	96
45442	2023-12-15T15:49:32	7.6	96
45443	2023-12-15T15:59:32	7.7	96
45444	2023-12-15T16:09:32	7.6	96
45445	2023-12-15T16:19:32	7.6	96
45446	2023-12-15T16:29:32	7.6	96
45447	2023-12-15T16:39:31	7.6	96
45448	2023-12-15T16:49:31	7.6	96
45449	2023-12-15T16:59:31	7.6	96
45450	2023-12-15T17:09:31	7.6	96
45451	2023-12-15T17:19:31	7.6	96
45452	2023-12-15T17:29:31	7.5	96
45453	2023-12-15T17:39:31	7.2	96
45454	2023-12-15T17:49:31	7	96
45455	2023-12-15T17:59:31	7	96
45456	2023-12-15T18:09:31	7.1	96
45457	2023-12-15T18:19:31	7	96
45458	2023-12-15T18:29:31	6.8	96
45459	2023-12-15T18:39:31	6.9	96
45460	2023-12-15T18:49:31	6.8	96
45461	2023-12-15T18:59:31	6.8	96
45462	2023-12-15T19:39:31	6.9	96
45463	2023-12-15T19:49:31	6.8	96
45464	2023-12-15T19:59:31	6.9	96.5
45465	2023-12-15T20:09:31	7	96.5
45466	2023-12-15T20:19:31	6.8	96
45467	2023-12-15T20:29:31	6.8	96
45468	2023-12-15T20:39:31	6.8	96
45469	2023-12-15T20:49:31	6.9	96
45470	2023-12-15T20:59:31	6.8	96.5
45471	2023-12-15T21:09:31	6.9	96
45472	2023-12-15T21:19:31	6.9	96
45473	2023-12-15T21:29:31	6.8	96
45474	2023-12-15T21:39:31	6.9	96
45475	2023-12-15T21:49:31	6.9	96
45476	2023-12-15T21:59:31	6.9	96.5
45477	2023-12-15T22:09:31	6.9	96
45478	2023-12-15T22:19:31	6.9	96
45479	2023-12-15T22:29:31	6.8	96
45480	2023-12-15T22:39:31	6.8	96
45481	2023-12-15T22:49:31	6.8	96.5
45482	2023-12-15T22:59:31	6.8	96.5
45483	2023-12-15T23:09:31	6.6	96.5
45484	2023-12-15T23:19:49	6.3	96
45485	2023-12-15T23:29:31	6.2	96
45486	2023-12-15T23:39:31	6.1	96
45487	2023-12-15T23:49:31	6	96.5
45488	2023-12-15T23:59:31	6.1	96
45489	2023-12-16T00:09:31	6.1	96
45490	2023-12-16T00:19:31	5.9	96.5
45491	2023-12-16T00:29:31	6.1	96
45492	2023-12-16T00:39:31	6.1	96
45493	2023-12-16T00:49:31	6.1	96
45494	2023-12-16T00:59:31	6.2	96
45495	2023-12-16T01:09:31	6.2	96
45496	2023-12-16T01:19:31	6.2	96.5
45497	2023-12-16T01:29:31	6.2	96
45498	2023-12-16T01:39:31	6	96
45499	2023-12-16T01:49:31	6	96.5
45500	2023-12-16T01:59:31	6	96
45501	2023-12-16T02:09:31	6	96.5
45502	2023-12-16T02:19:31	6	96
45503	2023-12-16T02:29:31	6.1	96
45504	2023-12-16T02:39:31	6.1	96.5
45505	2023-12-16T02:49:31	6	96.5
45506	2023-12-16T02:59:31	6	96
45507	2023-12-16T03:09:31	6	96.5
45508	2023-12-16T03:19:31	6	96
45509	2023-12-16T03:29:31	6.1	96.5
45510	2023-12-16T03:39:31	6	96
45511	2023-12-16T03:49:31	5.9	96.5
45512	2023-12-16T03:59:31	5.8	96
45513	2023-12-16T04:09:31	5.8	96.5
45514	2023-12-16T04:19:31	5.7	96
45515	2023-12-16T04:29:31	5.5	96
45516	2023-12-16T04:39:31	5.5	96
45517	2023-12-16T04:49:31	5.4	96
45518	2023-12-16T04:59:31	5.5	96
45519	2023-12-16T05:09:31	5.5	96.5
45520	2023-12-16T05:19:31	5.5	96.5
45521	2023-12-16T05:29:31	5.5	96
45522	2023-12-16T05:39:31	5.6	96.5
45523	2023-12-16T05:49:31	5.6	96.5
45524	2023-12-16T05:59:31	5.4	96
45525	2023-12-16T06:09:31	5.3	96.5
45526	2023-12-16T06:19:31	5.3	96
45527	2023-12-16T06:29:31	5.4	96
45528	2023-12-16T06:39:31	5.3	96.5
45529	2023-12-16T06:49:31	5.3	96.5
45530	2023-12-16T06:59:31	5.2	96
45531	2023-12-16T07:09:31	5.2	96.5
45532	2023-12-16T07:19:31	5.1	96.5
45533	2023-12-16T07:39:31	5.1	96
45534	2023-12-16T07:49:31	5.1	96.5
45535	2023-12-16T07:59:31	5.3	96.5
45536	2023-12-16T08:09:31	5.4	96
45537	2023-12-16T08:19:31	5.4	96
45538	2023-12-16T08:29:31	5.5	96.5
45539	2023-12-16T08:39:31	5.6	96.5
45540	2023-12-16T08:49:31	5.6	96
45541	2023-12-16T08:59:31	5.8	96
45542	2023-12-16T09:09:31	5.9	96.5
45543	2023-12-16T09:19:31	6.1	96.5
45544	2023-12-16T09:29:31	6.3	96
45545	2023-12-16T09:39:31	6.5	96.5
45546	2023-12-16T09:49:31	6.6	99
45547	2023-12-16T09:59:31	6.8	99.5
45548	2023-12-16T10:09:31	7	99
45549	2023-12-16T10:19:31	7	100
45550	2023-12-16T10:29:31	7.2	97
45551	2023-12-16T10:39:31	7.3	94
45552	2023-12-16T10:49:31	7.3	93.5
45553	2023-12-16T10:59:31	7.4	92.5
45554	2023-12-16T11:09:31	7.5	92
45555	2023-12-16T11:19:31	7.6	90.5
45556	2023-12-16T11:29:31	7.7	90.5
45557	2023-12-16T11:39:31	7.8	90.5
45558	2023-12-16T11:49:31	7.9	89.5
45559	2023-12-16T11:59:31	7.7	89
45560	2023-12-16T12:09:31	7.9	88.5
45561	2023-12-16T12:19:31	9.2	87
45562	2023-12-16T12:29:31	11.2	80
45563	2023-12-16T12:39:31	12.5	74
45564	2023-12-16T12:49:31	13.3	72
45565	2023-12-16T12:59:31	13.9	67
45566	2023-12-16T13:09:31	14.6	68
45567	2023-12-16T13:19:31	12.1	74
45568	2023-12-16T13:29:31	11.6	77.5
45569	2023-12-16T13:39:31	14	67.5
45570	2023-12-16T13:49:31	15.1	64
45571	2023-12-16T13:59:31	15	61.5
45572	2023-12-16T14:09:31	14.6	57.5
45573	2023-12-16T14:19:31	15.1	58
45574	2023-12-16T14:29:31	15.5	53.5
45575	2023-12-16T14:39:31	15.2	59.5
45576	2023-12-16T14:49:31	14.3	65.5
45577	2023-12-16T14:59:31	13.1	66.5
45578	2023-12-16T15:09:31	12.3	70.5
45579	2023-12-16T15:19:31	11.4	72
45580	2023-12-16T15:29:31	10.9	75
45581	2023-12-16T15:39:30	10.4	75.5
45582	2023-12-16T15:49:30	9.9	75.5
45583	2023-12-16T15:59:31	9.1	74
45584	2023-12-16T16:09:30	8.8	77.5
45585	2023-12-16T16:19:30	8.3	76.5
45586	2023-12-16T16:29:30	8.2	78
45587	2023-12-16T16:39:30	7.9	81
45588	2023-12-16T16:49:30	7.8	83
45589	2023-12-16T16:59:30	7.4	82.5
45590	2023-12-16T17:09:30	7.2	83.5
45591	2023-12-16T17:19:30	7.1	83.5
45592	2023-12-16T17:29:30	6.9	86
45593	2023-12-16T17:39:30	6.7	86
45594	2023-12-16T17:49:30	6.4	84.5
45595	2023-12-16T17:59:30	6.4	86.5
45596	2023-12-16T18:09:30	6.2	84.5
45597	2023-12-16T18:19:30	6	85.5
45598	2023-12-16T18:29:30	5.9	85.5
45599	2023-12-16T18:39:30	5.7	87.5
45600	2023-12-16T18:49:30	5.6	87
45601	2023-12-16T18:59:30	5.3	85.5
45602	2023-12-16T19:09:48	5.2	86.5
45603	2023-12-16T19:19:30	5.2	88.5
45604	2023-12-16T19:29:30	4.9	87
45605	2023-12-16T19:39:30	4.8	87
45606	2023-12-16T19:49:30	4.7	88.5
45607	2023-12-16T19:59:30	4.6	85
45608	2023-12-16T20:09:30	4.3	88
45609	2023-12-16T20:19:30	4.3	88
45610	2023-12-16T20:29:30	4.2	89.5
45611	2023-12-16T20:39:30	4.2	89.5
45612	2023-12-16T20:49:30	4.1	87.5
45613	2023-12-16T20:59:30	3.9	89.5
45614	2023-12-16T21:09:31	3.7	88.5
45615	2023-12-16T21:19:30	3.7	89.5
45616	2023-12-16T21:29:30	3.6	90.5
45617	2023-12-16T21:39:30	3.6	90.5
45618	2023-12-16T21:49:30	3.4	90
45619	2023-12-16T21:59:30	3.4	90.5
45620	2023-12-16T22:09:30	3.3	89.5
45621	2023-12-16T22:19:30	3.1	90.5
45622	2023-12-16T22:29:30	3	90
45623	2023-12-16T22:39:31	3	90.5
45624	2023-12-16T22:49:30	2.9	91
45625	2023-12-16T22:59:30	3	90
45626	2023-12-16T23:09:30	2.9	90.5
45627	2023-12-16T23:19:30	2.7	91.5
45628	2023-12-16T23:29:30	2.8	90
45629	2023-12-16T23:39:30	2.6	91
45630	2023-12-16T23:49:31	2.4	91
45631	2023-12-16T23:59:30	2.4	92
45632	2023-12-17T00:09:30	2.4	91.5
45633	2023-12-17T00:19:30	2.3	92
45634	2023-12-17T00:29:30	2.3	91.5
45635	2023-12-17T00:49:30	2.2	92
45636	2023-12-17T00:59:30	2	92
45637	2023-12-17T01:09:30	2.1	92.5
45638	2023-12-17T01:19:30	2	92.5
45639	2023-12-17T01:29:30	2.1	90.5
45640	2023-12-17T01:39:30	1.9	91.5
45641	2023-12-17T01:49:30	2	92
45642	2023-12-17T01:59:30	1.8	92.5
45643	2023-12-17T02:09:30	1.8	92.5
45644	2023-12-17T02:19:30	1.6	92.5
45645	2023-12-17T02:29:30	1.5	92.5
45646	2023-12-17T02:39:30	1.5	93
45647	2023-12-17T02:49:30	1.5	93.5
45648	2023-12-17T02:59:30	1.5	92.5
45649	2023-12-17T03:09:30	1.5	92
45650	2023-12-17T03:19:31	1.5	93
45651	2023-12-17T03:29:30	1.3	93
45652	2023-12-17T03:39:30	1.3	93
45653	2023-12-17T03:49:30	1.1	93
45654	2023-12-17T03:59:30	1.1	93
45655	2023-12-17T04:09:30	1	94
45656	2023-12-17T04:19:30	1.1	94.5
45657	2023-12-17T04:29:31	1	95
45658	2023-12-17T04:39:30	1.1	94.5
45659	2023-12-17T04:49:30	1	95
45660	2023-12-17T04:59:30	1.1	95
45661	2023-12-17T05:09:30	1	95
45662	2023-12-17T05:19:30	1	95
45663	2023-12-17T05:29:30	0.9	93.5
45664	2023-12-17T05:39:30	0.8	94.5
45665	2023-12-17T05:49:30	0.9	95
45666	2023-12-17T05:59:30	0.7	95
45667	2023-12-17T06:09:30	0.7	95
45668	2023-12-17T06:19:30	0.7	95
45669	2023-12-17T06:29:30	0.6	95
45670	2023-12-17T06:39:30	0.6	95.5
45671	2023-12-17T06:49:30	0.6	96
45672	2023-12-17T06:59:30	0.7	95.5
45673	2023-12-17T07:09:30	0.7	95.5
45674	2023-12-17T07:19:30	0.6	95.5
45675	2023-12-17T07:29:30	0.6	95.5
45676	2023-12-17T07:39:30	0.6	95.5
45677	2023-12-17T07:49:30	0.5	95.5
45678	2023-12-17T07:59:30	0.6	95.5
45679	2023-12-17T08:09:30	0.6	96
45680	2023-12-17T08:19:30	0.7	96
45681	2023-12-17T08:29:30	0.8	96.5
45682	2023-12-17T08:39:30	1	97.5
45683	2023-12-17T08:49:30	1.1	97.5
45684	2023-12-17T08:59:30	1.2	97.5
45685	2023-12-17T09:09:30	1.4	97.5
45686	2023-12-17T09:19:30	1.5	97.5
45687	2023-12-17T09:29:30	1.7	97.5
45688	2023-12-17T09:39:30	1.8	97
45689	2023-12-17T09:49:30	1.9	98
45690	2023-12-17T09:59:30	2.1	98
45691	2023-12-17T10:09:30	2.4	98
45692	2023-12-17T10:19:30	2.5	98
45693	2023-12-17T10:29:30	2.6	98
45694	2023-12-17T10:39:30	2.8	95.5
45695	2023-12-17T10:49:30	2.9	94.5
45696	2023-12-17T10:59:30	2.9	95
45697	2023-12-17T11:09:30	3.2	94
45698	2023-12-17T11:19:31	3.3	93
45699	2023-12-17T11:29:30	3.8	91
45700	2023-12-17T11:39:30	4.7	88
45701	2023-12-17T11:49:30	4.5	88
45702	2023-12-17T11:59:30	4.9	89
45703	2023-12-17T12:09:30	6.2	87
45704	2023-12-17T12:19:30	8.5	76.5
45705	2023-12-17T12:29:30	9.3	72.5
45706	2023-12-17T12:39:30	8.9	71.5
45707	2023-12-17T12:49:30	8.6	73
45708	2023-12-17T12:59:30	8.6	71.5
45709	2023-12-17T13:09:30	9.8	68
45710	2023-12-17T13:19:30	10.5	65.5
45711	2023-12-17T13:29:30	10.2	65.5
45712	2023-12-17T13:39:30	9.8	66.5
45713	2023-12-17T13:49:30	9.3	68
45714	2023-12-17T13:59:30	8.2	71.5
45715	2023-12-17T14:09:30	7.9	73.5
45716	2023-12-17T14:19:30	6.7	76.5
45717	2023-12-17T14:29:30	5.8	80.5
45718	2023-12-17T14:39:30	5.4	80.5
45719	2023-12-17T14:49:30	5.1	83
45720	2023-12-17T14:59:30	4.9	84
45721	2023-12-17T15:09:30	4.8	85
45722	2023-12-17T15:19:30	4.4	86.5
45723	2023-12-17T15:29:30	4.1	87
45724	2023-12-17T15:39:30	3.8	87
45725	2023-12-17T15:49:30	3.5	88
45726	2023-12-17T15:59:30	3.5	90
45727	2023-12-17T16:09:30	3.2	89
45728	2023-12-17T16:19:30	3	90.5
45729	2023-12-17T16:29:30	3	91
45730	2023-12-17T16:39:30	2.8	91.5
45731	2023-12-17T16:49:30	2.9	92
45732	2023-12-17T16:59:30	2.7	92
45733	2023-12-17T17:09:30	2.6	93.5
45734	2023-12-17T17:19:30	2.8	92
45735	2023-12-17T17:29:30	2.6	91.5
45736	2023-12-17T17:39:30	2.6	93
45737	2023-12-17T17:49:30	2.2	92.5
45738	2023-12-17T17:59:30	2.2	93.5
45739	2023-12-17T18:09:30	2	94
45740	2023-12-17T18:19:30	1.8	94.5
45741	2023-12-17T18:29:30	1.9	94
45742	2023-12-17T18:39:30	1.8	94.5
45743	2023-12-17T18:49:30	1.9	94.5
45744	2023-12-17T18:59:30	1.4	96
45745	2023-12-17T19:09:30	1.7	96
45746	2023-12-17T19:19:30	1.6	96
45747	2023-12-17T19:29:30	1.6	96
45748	2023-12-17T19:39:30	1.5	96
45749	2023-12-17T19:49:30	1.6	96.5
45750	2023-12-17T19:59:30	1.4	96.5
45751	2023-12-17T20:09:50	1.3	97
45752	2023-12-17T20:19:30	1.3	97
45753	2023-12-17T20:29:30	1.1	96.5
45754	2023-12-17T20:39:30	1.1	97
45755	2023-12-17T20:49:30	1.1	96.5
45756	2023-12-17T20:59:30	1.1	97
45757	2023-12-17T21:09:30	1.2	96.5
45758	2023-12-17T21:29:30	0.9	96
45759	2023-12-17T21:49:30	1	96
45760	2023-12-17T21:59:30	0.9	97
45761	2023-12-17T22:09:30	0.8	97
45762	2023-12-17T22:19:30	0.9	97
45763	2023-12-17T22:29:30	0.8	97.5
45764	2023-12-17T22:39:30	0.8	97.5
45765	2023-12-17T22:49:30	0.9	98
45766	2023-12-17T22:59:30	1	98
45767	2023-12-17T23:09:30	1.1	97.5
45768	2023-12-17T23:19:30	1.2	97
45769	2023-12-17T23:29:30	1.1	96.5
45770	2023-12-17T23:39:30	1.2	96.5
45771	2023-12-17T23:49:30	1	97
45772	2023-12-17T23:59:30	1.1	97
45773	2023-12-18T00:09:30	0.9	97
45774	2023-12-18T00:19:30	0.7	97.5
45775	2023-12-18T00:29:30	0.7	98
45776	2023-12-18T00:39:30	0.6	98
45777	2023-12-18T00:49:30	0.6	98
45778	2023-12-18T00:59:30	0.7	98.5
45779	2023-12-18T01:09:30	0.7	98.5
45780	2023-12-18T01:19:30	0.6	98.5
45781	2023-12-18T01:39:30	0.7	98
45782	2023-12-18T01:49:30	0.7	98
45783	2023-12-18T01:59:30	0.7	98
45784	2023-12-18T02:09:30	0.6	97.5
45785	2023-12-18T02:19:30	0.7	97.5
45786	2023-12-18T02:29:30	0.5	97
45787	2023-12-18T02:39:30	0.5	96.5
45788	2023-12-18T02:49:30	0.4	96.5
45789	2023-12-18T02:59:30	0.4	98
45790	2023-12-18T03:09:30	0.5	97
45791	2023-12-18T03:19:30	0.5	97.5
45792	2023-12-18T03:29:30	0.4	98
45793	2023-12-18T03:39:30	0.4	98.5
45794	2023-12-18T03:49:30	0.4	98
45795	2023-12-18T03:59:30	0.4	98
45796	2023-12-18T04:09:30	0.4	97
45797	2023-12-18T04:19:30	0.3	97
45798	2023-12-18T04:29:30	0.2	97.5
45799	2023-12-18T04:39:30	0.2	97.5
45800	2023-12-18T04:49:30	0.3	96.5
45801	2023-12-18T04:59:30	0.2	97
45802	2023-12-18T05:09:30	0.2	98
45803	2023-12-18T05:19:30	0.2	98
45804	2023-12-18T05:29:30	0.2	98.5
45805	2023-12-18T05:49:30	0.1	98.5
45806	2023-12-18T05:59:30	0.2	98.5
45807	2023-12-18T06:09:30	0.1	98
45808	2023-12-18T06:19:30	0.4	99
45809	2023-12-18T06:29:30	0.6	99
45810	2023-12-18T06:39:30	0.5	99
45811	2023-12-18T06:49:30	0.6	98.5
45812	2023-12-18T06:59:30	0.6	97.5
45813	2023-12-18T07:09:30	0.6	97
45814	2023-12-18T07:19:30	0.5	97.5
45815	2023-12-18T07:29:30	0.5	97.5
45816	2023-12-18T07:39:30	0.6	97
45817	2023-12-18T07:49:30	0.3	96.5
45818	2023-12-18T07:59:30	0.3	96.5
45819	2023-12-18T08:09:30	0.1	95
45820	2023-12-18T08:19:30	0	96.5
45821	2023-12-18T08:29:30	0.1	97
45822	2023-12-18T08:39:30	0.2	98
45823	2023-12-18T08:49:30	0.6	99.5
45824	2023-12-18T08:59:30	0.8	100
45825	2023-12-18T09:09:30	1	100
45826	2023-12-18T09:19:30	1.4	99
45827	2023-12-18T09:29:30	1.5	98.5
45828	2023-12-18T09:39:30	1.8	98
45829	2023-12-18T09:49:30	1.8	99
45830	2023-12-18T09:59:30	2	98
45831	2023-12-18T10:09:30	2.2	98
45832	2023-12-18T10:19:30	2.5	97
45833	2023-12-18T10:29:30	2.8	96
45834	2023-12-18T10:49:30	3.4	93
45835	2023-12-18T10:59:30	3.9	91.5
45836	2023-12-18T11:09:30	4.5	90
45837	2023-12-18T11:19:30	4.8	89.5
45838	2023-12-18T11:29:30	5.5	85
45839	2023-12-18T11:39:30	6.9	81
45840	2023-12-18T11:49:30	6.4	81.5
45841	2023-12-18T11:59:30	6.8	80.5
45842	2023-12-18T12:09:30	7.8	76.5
45843	2023-12-18T12:19:30	9.5	66.5
45844	2023-12-18T12:29:30	10.6	63
45845	2023-12-18T12:39:30	10.6	61.5
45846	2023-12-18T12:49:30	10.9	59
45847	2023-12-18T12:59:30	11.9	56
45848	2023-12-18T13:09:30	11.9	58
45849	2023-12-18T13:19:30	12.2	57
45850	2023-12-18T13:29:30	11.9	58.5
45851	2023-12-18T13:39:30	12.3	57.5
45852	2023-12-18T13:49:30	13	57
45853	2023-12-18T13:59:30	13.2	54.5
45854	2023-12-18T14:09:30	13.5	53.5
45855	2023-12-18T14:19:30	13.8	52
45856	2023-12-18T14:29:30	12.9	53
45857	2023-12-18T14:39:30	12.7	55
45858	2023-12-18T14:49:30	11.4	58.5
45859	2023-12-18T14:59:30	10.3	61.5
45860	2023-12-18T15:09:30	9.4	64.5
45861	2023-12-18T15:19:30	8.7	67.5
45862	2023-12-18T15:29:30	8.3	69.5
45863	2023-12-18T15:39:30	8.1	73.5
45864	2023-12-18T15:49:30	8.2	74.5
45865	2023-12-18T15:59:30	7.9	73
45866	2023-12-18T16:09:30	7.4	74
45867	2023-12-18T16:19:30	6.8	75
45868	2023-12-18T16:39:30	6.1	79.5
45869	2023-12-18T16:49:30	6.1	80
45870	2023-12-18T16:59:30	6.1	78.5
45871	2023-12-18T17:09:30	6	79
45872	2023-12-18T17:19:30	5.8	80
45873	2023-12-18T17:29:29	5.6	80.5
45874	2023-12-18T17:39:29	5.7	81
45875	2023-12-18T17:49:29	5.6	81
45876	2023-12-18T17:59:29	5.5	80.5
45877	2023-12-18T18:09:29	5.4	79.5
45878	2023-12-18T18:19:29	5.3	82.5
45879	2023-12-18T18:29:29	5	83
45880	2023-12-18T18:39:29	4.9	83
45881	2023-12-18T18:49:29	4.8	83.5
45882	2023-12-18T18:59:29	4.5	84
45883	2023-12-18T19:09:29	4.3	84
45884	2023-12-18T19:19:29	4.1	82
45885	2023-12-18T19:29:29	3.6	86
45886	2023-12-18T19:39:29	3.5	88
45887	2023-12-18T19:49:29	3.5	89
45888	2023-12-18T19:59:29	3.4	90
45889	2023-12-18T20:09:29	3.5	89
45890	2023-12-18T20:19:29	3.3	87.5
45891	2023-12-18T20:29:29	3.6	87.5
45892	2023-12-18T20:39:29	3.9	86.5
45893	2023-12-18T20:49:29	4.4	84.5
45894	2023-12-18T20:59:29	4.6	82.5
45895	2023-12-18T21:09:29	5.2	80.5
45896	2023-12-18T21:19:29	5.2	79
45897	2023-12-18T21:29:29	5.4	78
45898	2023-12-18T21:39:29	5.2	78.5
45899	2023-12-18T21:49:29	4.9	81
45900	2023-12-18T21:59:29	4.5	82.5
45901	2023-12-18T22:09:29	4	84.5
45902	2023-12-18T22:19:29	3.8	85.5
45903	2023-12-18T22:29:29	3.5	85.5
45904	2023-12-18T22:39:29	3.2	86.5
45905	2023-12-18T22:49:29	3.2	87.5
45906	2023-12-18T22:59:29	3.3	87.5
45907	2023-12-18T23:09:29	3.2	85.5
45908	2023-12-18T23:19:29	3	86.5
45909	2023-12-18T23:29:29	2.8	86
45910	2023-12-18T23:39:29	2.7	86.5
45911	2023-12-18T23:49:29	2.8	86
45912	2023-12-18T23:59:29	3.1	84
45913	2023-12-19T00:09:29	3.3	83.5
45914	2023-12-19T00:19:29	3.2	84.5
45915	2023-12-19T00:29:29	3.1	86
45916	2023-12-19T00:39:29	3.3	87.5
45917	2023-12-19T00:49:29	3.2	87.5
45918	2023-12-19T00:59:29	2.9	87
45919	2023-12-19T01:09:29	2.7	87
45920	2023-12-19T01:19:29	2.4	86.5
45921	2023-12-19T01:29:29	2.6	86.5
45922	2023-12-19T01:39:29	2.6	87
45923	2023-12-19T01:49:29	2.6	87.5
45924	2023-12-19T01:59:29	2.5	88
45925	2023-12-19T02:09:29	2.4	88
45926	2023-12-19T02:19:29	2.4	88
45927	2023-12-19T02:29:29	2.3	88
45928	2023-12-19T02:39:29	2.4	88
45929	2023-12-19T02:49:29	2.4	88
45930	2023-12-19T02:59:29	2.4	88
45931	2023-12-19T03:09:29	2.5	88
45932	2023-12-19T03:19:29	2.4	87.5
45933	2023-12-19T03:29:29	2.4	88
45934	2023-12-19T03:39:29	2.3	88
45935	2023-12-19T03:49:29	2.3	88
45936	2023-12-19T03:59:29	2.1	88
45937	2023-12-19T04:09:29	2	88.5
45938	2023-12-19T04:19:29	1.8	88.5
45939	2023-12-19T04:29:29	1.7	89
45940	2023-12-19T04:39:29	1.4	90
45941	2023-12-19T04:49:29	1.4	90
45942	2023-12-19T04:59:30	1.3	90.5
45943	2023-12-19T05:09:29	1.1	91
45944	2023-12-19T05:19:29	1.1	91
45945	2023-12-19T05:29:29	1	91.5
45946	2023-12-19T05:49:29	0.9	91.5
45947	2023-12-19T05:59:29	0.9	92.5
45948	2023-12-19T06:09:29	0.6	92.5
45949	2023-12-19T06:19:29	0.8	93.5
45950	2023-12-19T06:29:29	0.8	93
45951	2023-12-19T06:39:29	0.8	93
45952	2023-12-19T06:49:29	0.9	93
45953	2023-12-19T06:59:29	1	93
45954	2023-12-19T07:09:29	0.9	93
45955	2023-12-19T07:19:29	0.9	92.5
45956	2023-12-19T07:29:29	0.8	93
45957	2023-12-19T07:39:29	0.8	93
45958	2023-12-19T07:49:29	0.8	93
45959	2023-12-19T07:59:29	0.9	92.5
45960	2023-12-19T08:09:29	0.9	92.5
45961	2023-12-19T08:19:29	0.9	91.5
45962	2023-12-19T08:29:29	0.9	91
45963	2023-12-19T08:39:29	1.1	91
45964	2023-12-19T08:49:29	1.1	90.5
45965	2023-12-19T08:59:29	1.2	89.5
45966	2023-12-19T09:09:29	1.3	89
45967	2023-12-19T09:19:29	1.4	89
45968	2023-12-19T09:29:29	1.4	89
45969	2023-12-19T09:39:29	1.4	89
45970	2023-12-19T09:49:29	1.4	89.5
45971	2023-12-19T09:59:29	1.4	89
45972	2023-12-19T10:09:29	1.5	89.5
45973	2023-12-19T10:19:29	1.6	88.5
45974	2023-12-19T10:29:29	1.8	88
45975	2023-12-19T10:39:29	2	87
45976	2023-12-19T10:49:29	2.3	86
45977	2023-12-19T10:59:29	2.7	85.5
45978	2023-12-19T11:09:29	3.3	83
45979	2023-12-19T11:19:29	3.2	83
45980	2023-12-19T11:29:29	3.3	83
45981	2023-12-19T11:39:29	3.4	83
45982	2023-12-19T11:49:29	3.6	82
45983	2023-12-19T11:59:29	3.7	81
45984	2023-12-19T12:09:29	4	80
45985	2023-12-19T12:19:29	3.9	79.5
45986	2023-12-19T12:29:29	3.9	79.5
45987	2023-12-19T12:39:29	4	78.5
45988	2023-12-19T12:49:29	4.2	79
45989	2023-12-19T12:59:29	4.1	80
45990	2023-12-19T13:09:29	4.1	80
45991	2023-12-19T13:19:29	4.1	80.5
45992	2023-12-19T13:29:29	4.2	80.5
45993	2023-12-19T13:39:29	4.2	80
45994	2023-12-19T13:49:29	4.3	80.5
45995	2023-12-19T13:59:29	4.4	80
45996	2023-12-19T14:09:29	4.4	80
45997	2023-12-19T14:19:29	4.4	80
45998	2023-12-19T14:29:29	4.5	80
45999	2023-12-19T14:39:29	4.3	80.5
46000	2023-12-19T14:49:29	4.4	80.5
46001	2023-12-19T14:59:29	4.4	81
46002	2023-12-19T15:09:29	4.3	80.5
46003	2023-12-19T15:19:29	4.4	80
46004	2023-12-19T15:29:29	4.4	80
46005	2023-12-19T15:39:29	4.6	78.5
46006	2023-12-19T15:49:29	4.8	78
46007	2023-12-19T15:59:29	5.1	78
46008	2023-12-19T16:09:29	5.2	78
46009	2023-12-19T16:19:29	5.2	78.5
46010	2023-12-19T16:29:29	5.3	79.5
46011	2023-12-19T16:39:29	5.4	81
46012	2023-12-19T16:49:29	5.7	82
46013	2023-12-19T16:59:29	6	81.5
46014	2023-12-19T17:09:29	6.3	81.5
46015	2023-12-19T17:19:29	6.5	81.5
46016	2023-12-19T17:29:29	6.8	81.5
46017	2023-12-19T17:39:29	6.8	80
46018	2023-12-19T17:49:29	6.9	81.5
46019	2023-12-19T17:59:29	7.1	81.5
46020	2023-12-19T18:09:29	7.2	81
46021	2023-12-19T18:19:29	7.3	80
46022	2023-12-19T18:29:29	7.3	79
46023	2023-12-19T18:39:29	7.2	78.5
46024	2023-12-19T18:49:29	7.3	78
46025	2023-12-19T18:59:29	7.3	78.5
46026	2023-12-19T19:19:29	7.2	78.5
46027	2023-12-19T19:29:29	7.4	78.5
46028	2023-12-19T19:39:29	7.3	78.5
46029	2023-12-19T19:49:29	7.3	78.5
46030	2023-12-19T19:59:29	7	83
46031	2023-12-19T20:09:29	6.8	83.5
46032	2023-12-19T20:19:29	6.6	83.5
46033	2023-12-19T20:29:29	6.4	84
46034	2023-12-19T20:39:29	6.6	82.5
46035	2023-12-19T20:49:29	6.7	81
46036	2023-12-19T20:59:29	6.9	81
46037	2023-12-19T21:09:29	7	80
46038	2023-12-19T21:19:29	7.1	79
46039	2023-12-19T21:29:29	7.1	78
46040	2023-12-19T21:39:29	7.1	77
46041	2023-12-19T21:49:29	7.1	77.5
46042	2023-12-19T21:59:29	7	78
46043	2023-12-19T22:09:29	7	78
46044	2023-12-19T22:19:29	7	78.5
46045	2023-12-19T22:29:29	6.8	80
46046	2023-12-19T22:39:29	6.5	84.5
46047	2023-12-19T22:49:29	6.2	89
46048	2023-12-19T22:59:29	5.8	96
46049	2023-12-19T23:09:29	5.6	97.5
46050	2023-12-19T23:19:29	5.6	99.5
46051	2023-12-19T23:29:29	5.6	100
46052	2023-12-19T23:39:29	5.6	100
46053	2023-12-19T23:49:29	5.5	100
46054	2023-12-19T23:59:29	5.6	100
46055	2023-12-20T00:09:29	5.5	100
46056	2023-12-20T00:19:29	5.4	100
46057	2023-12-20T00:29:29	5.4	100
46058	2023-12-20T00:39:29	5.4	100
46059	2023-12-20T00:49:29	5.5	100
46060	2023-12-20T00:59:29	5.4	100
46061	2023-12-20T01:09:29	5.5	100
46062	2023-12-20T01:19:29	5.4	100
46063	2023-12-20T01:29:29	5.5	100
46064	2023-12-20T01:39:29	5.5	100
46065	2023-12-20T01:49:29	5.5	100
46066	2023-12-20T01:59:29	5.5	100
46067	2023-12-20T02:09:29	5.5	100
46068	2023-12-20T02:19:29	5.5	100
46069	2023-12-20T02:29:29	5.6	100
46070	2023-12-20T02:39:29	5.6	100
46071	2023-12-20T02:49:29	5.6	100
46072	2023-12-20T02:59:29	5.7	100
46073	2023-12-20T03:09:29	5.7	100
46074	2023-12-20T03:19:29	5.7	100
46075	2023-12-20T03:29:29	5.7	100
46076	2023-12-20T03:39:29	5.6	100
46077	2023-12-20T03:49:29	5.7	100
46078	2023-12-20T03:59:29	5.6	100
46079	2023-12-20T04:09:29	5.7	100
46080	2023-12-20T04:19:29	5.8	100
46081	2023-12-20T04:29:29	5.8	100
46082	2023-12-20T04:39:29	5.9	100
46083	2023-12-20T04:49:29	5.9	100
46084	2023-12-20T04:59:29	5.9	100
46085	2023-12-20T05:09:29	5.9	100
46086	2023-12-20T05:19:29	5.9	100
46087	2023-12-20T05:29:28	5.9	100
46088	2023-12-20T05:39:29	5.8	100
46089	2023-12-20T05:49:29	5.9	100
46090	2023-12-20T05:59:29	5.9	100
46091	2023-12-20T06:09:29	5.9	100
46092	2023-12-20T06:19:28	5.9	100
46093	2023-12-20T06:29:28	5.9	100
46094	2023-12-20T06:39:29	6	100
46095	2023-12-20T06:49:28	6	100
46096	2023-12-20T06:59:28	6	100
46097	2023-12-20T07:09:28	6.1	100
46098	2023-12-20T07:19:28	5.8	100
46099	2023-12-20T07:29:29	5.7	100
46100	2023-12-20T07:39:28	5.5	100
46101	2023-12-20T07:49:28	5.4	100
46102	2023-12-20T07:59:28	5.2	100
46103	2023-12-20T08:09:28	5.2	100
46104	2023-12-20T08:19:28	5.3	100
46105	2023-12-20T08:29:28	5.2	100
46106	2023-12-20T08:39:28	5.3	100
46107	2023-12-20T08:49:28	5.5	100
46108	2023-12-20T08:59:28	5.5	100
46109	2023-12-20T09:09:28	5.6	100
46110	2023-12-20T09:19:51	5.8	100
46111	2023-12-20T09:29:28	5.9	100
46112	2023-12-20T09:39:29	6	100
46113	2023-12-20T09:49:28	6.1	100
46114	2023-12-20T09:59:28	6.1	100
46115	2023-12-20T10:09:28	6.2	100
46116	2023-12-20T10:19:28	6.2	100
46117	2023-12-20T10:29:28	6.1	100
46118	2023-12-20T10:39:28	6.3	100
46119	2023-12-20T10:49:28	6.3	100
46120	2023-12-20T10:59:28	6.4	100
46121	2023-12-20T11:09:28	6.5	100
46122	2023-12-20T11:19:28	6.7	100
46123	2023-12-20T11:29:28	6.7	100
46124	2023-12-20T11:39:28	6.8	100
46125	2023-12-20T11:49:28	6.5	100
46126	2023-12-20T11:59:28	6.5	100
46127	2023-12-20T12:09:28	6.7	100
46128	2023-12-20T12:19:29	6.8	100
46129	2023-12-20T12:29:28	6.8	100
46130	2023-12-20T12:39:28	6.7	100
46131	2023-12-20T12:49:28	6.5	100
46132	2023-12-20T12:59:28	6.4	100
46133	2023-12-20T13:09:28	6.3	100
46134	2023-12-20T13:19:28	6.5	100
46135	2023-12-20T13:29:28	6.5	99.5
46136	2023-12-20T13:39:28	6.5	100
46137	2023-12-20T13:49:28	6.5	99.5
46138	2023-12-20T13:59:28	6.6	98
46139	2023-12-20T14:09:28	6.6	85
46140	2023-12-20T14:19:28	6.7	84
46141	2023-12-20T14:29:28	6.5	83.5
46142	2023-12-20T14:39:28	6.5	84
46143	2023-12-20T14:49:28	6.3	87
46144	2023-12-20T14:59:28	6.1	89.5
46145	2023-12-20T15:09:28	5.9	91
46146	2023-12-20T15:19:28	5.8	89.5
46147	2023-12-20T15:29:28	5.8	89
46148	2023-12-20T15:39:28	5.9	88.5
46149	2023-12-20T15:49:28	5.8	88.5
46150	2023-12-20T15:59:28	5.9	89
46151	2023-12-20T16:09:28	5.9	88
46152	2023-12-20T16:19:28	6	88
46153	2023-12-20T16:29:28	6	87.5
46154	2023-12-20T16:39:28	6	87
46155	2023-12-20T16:49:28	6	86.5
46156	2023-12-20T16:59:28	6	86.5
46157	2023-12-20T17:09:28	6.1	85.5
46158	2023-12-20T17:19:28	6.2	84.5
46159	2023-12-20T17:29:28	6.3	83.5
46160	2023-12-20T17:39:28	6.4	83
46161	2023-12-20T17:49:28	6.4	82.5
46162	2023-12-20T17:59:28	6.5	82
46163	2023-12-20T18:09:28	6.5	81.5
46164	2023-12-20T18:19:28	6.5	82
46165	2023-12-20T18:29:28	6	87.5
46166	2023-12-20T18:39:28	5.5	93
46167	2023-12-20T18:49:28	5.3	95.5
46168	2023-12-20T18:59:28	5.3	94
46169	2023-12-20T19:09:28	5.3	91.5
46170	2023-12-20T19:19:28	5.1	97
46171	2023-12-20T19:29:28	5.1	97.5
46172	2023-12-20T19:39:28	5.2	98.5
46173	2023-12-20T19:49:28	5.3	96
46174	2023-12-20T19:59:28	5.1	96.5
46175	2023-12-20T20:09:28	5.3	93
46176	2023-12-20T20:19:28	5.4	91
46177	2023-12-20T20:29:28	5.6	90
46178	2023-12-20T20:39:28	5.4	90.5
46179	2023-12-20T20:49:28	5.3	93
46180	2023-12-20T20:59:45	5.3	92
46181	2023-12-20T21:09:28	5.4	90.5
46182	2023-12-20T21:19:28	5.6	89
46183	2023-12-20T21:29:28	5.7	89
46184	2023-12-20T21:39:28	5.5	90
46185	2023-12-20T21:49:28	5.6	90
46186	2023-12-20T21:59:28	5.7	89
46187	2023-12-20T22:09:28	5.6	90
46188	2023-12-20T22:19:28	5.8	90
46189	2023-12-20T22:29:28	5.9	87.5
46190	2023-12-20T22:39:28	6	87
46191	2023-12-20T22:49:28	6.2	86.5
46192	2023-12-20T22:59:28	6.3	85.5
46193	2023-12-20T23:09:28	6.5	85
46194	2023-12-20T23:19:28	6.6	85
46195	2023-12-20T23:29:28	6.5	86
46196	2023-12-20T23:39:28	6.3	89
46197	2023-12-20T23:49:28	5.9	92
46198	2023-12-20T23:59:28	5.8	92
46199	2023-12-21T00:09:28	5.5	97
46200	2023-12-21T00:19:28	5.5	97
46201	2023-12-21T00:29:28	5.5	94.5
46202	2023-12-21T00:39:28	5.7	92.5
46203	2023-12-21T00:49:28	5.8	93
46204	2023-12-21T00:59:28	5.7	95.5
46205	2023-12-21T01:09:28	5.7	95
46206	2023-12-21T01:19:28	5.7	95.5
46207	2023-12-21T01:29:28	5.9	94.5
46208	2023-12-21T01:39:28	5.9	95
46209	2023-12-21T01:49:28	6	94.5
46210	2023-12-21T01:59:28	6.1	94.5
46211	2023-12-21T02:09:28	6.1	94.5
46212	2023-12-21T02:19:28	6.1	95
46213	2023-12-21T02:29:28	6.3	94
46214	2023-12-21T02:39:28	6.3	94
46215	2023-12-21T02:49:28	6.3	96
46216	2023-12-21T02:59:28	6.4	95
46217	2023-12-21T03:09:28	6.5	94.5
46218	2023-12-21T03:19:28	6.5	95
46219	2023-12-21T03:29:28	6.5	93.5
46220	2023-12-21T03:39:28	6.7	93
46221	2023-12-21T03:49:28	6.6	94.5
46222	2023-12-21T03:59:28	6.8	94
46223	2023-12-21T04:09:28	6.8	92.5
46224	2023-12-21T04:19:28	6.8	93
46225	2023-12-21T04:29:28	6.8	95
46226	2023-12-21T04:39:28	6.9	91
46227	2023-12-21T04:49:28	7	91
46228	2023-12-21T04:59:28	7	90.5
46229	2023-12-21T05:09:28	7.2	90.5
46230	2023-12-21T05:19:28	7.1	91
46231	2023-12-21T05:29:28	7.2	92
46232	2023-12-21T05:39:28	7.1	93.5
46233	2023-12-21T05:49:28	6.9	95
46234	2023-12-21T05:59:28	7	95.5
46235	2023-12-21T06:09:28	6.9	95
46236	2023-12-21T06:19:28	7	94.5
46237	2023-12-21T06:29:28	7.1	93
46238	2023-12-21T06:39:28	7.2	93
46239	2023-12-21T06:49:28	7.3	92
46240	2023-12-21T06:59:28	7.6	88.5
46241	2023-12-21T07:09:28	7.7	88.5
46242	2023-12-21T07:19:28	7.7	88
46243	2023-12-21T07:29:28	7.9	88.5
46244	2023-12-21T07:39:28	8	89
46245	2023-12-21T07:49:28	7.8	89.5
46246	2023-12-21T07:59:28	7.8	89
46247	2023-12-21T08:09:27	7.9	89.5
46248	2023-12-21T08:19:28	7.9	89
46249	2023-12-21T08:29:28	8.1	87.5
46250	2023-12-21T08:39:27	8.2	88
46251	2023-12-21T08:49:27	8.1	88.5
46252	2023-12-21T08:59:28	8.3	88
46253	2023-12-21T09:09:27	8	91
46254	2023-12-21T09:19:28	8	91.5
46255	2023-12-21T09:29:27	7.8	94.5
46256	2023-12-21T09:39:27	7.7	94.5
46257	2023-12-21T09:49:28	7.9	93
46258	2023-12-21T09:59:27	7.9	94.5
46259	2023-12-21T10:09:27	7.9	93.5
46260	2023-12-21T10:19:27	8.1	91.5
46261	2023-12-21T10:29:27	8.5	88
46262	2023-12-21T10:39:27	9	86
46263	2023-12-21T10:49:27	9	85.5
46264	2023-12-21T10:59:27	9.2	84.5
46265	2023-12-21T11:09:27	9.3	84
46266	2023-12-21T11:19:27	9.3	85
46267	2023-12-21T11:29:27	8.8	89
46268	2023-12-21T11:39:27	8.4	94.5
46269	2023-12-21T11:49:27	8.3	94
46270	2023-12-21T11:59:27	8.4	92.5
46271	2023-12-21T12:09:27	8.2	95.5
46272	2023-12-21T12:19:27	8	98
46273	2023-12-21T12:29:27	7.9	99
46274	2023-12-21T12:39:27	7.9	99
46275	2023-12-21T12:49:27	8	98.5
46276	2023-12-21T12:59:27	7.8	99.5
46277	2023-12-21T13:09:27	7.9	99.5
46278	2023-12-21T13:19:27	7.8	100
46279	2023-12-21T13:29:27	7.9	100
46280	2023-12-21T13:39:27	7.8	100
46281	2023-12-21T13:49:27	7.8	100
46282	2023-12-21T13:59:27	7.7	100
46283	2023-12-21T14:09:27	7.9	100
46284	2023-12-21T14:19:27	7.9	100
46285	2023-12-21T14:29:27	8	100
46286	2023-12-21T14:39:27	8.2	100
46287	2023-12-21T14:49:27	8.3	100
46288	2023-12-21T14:59:27	8.4	98.5
46289	2023-12-21T15:09:27	8.5	97
46290	2023-12-21T15:19:27	8.5	97
46291	2023-12-21T15:29:27	8.7	95
46292	2023-12-21T15:39:27	8.9	94
46293	2023-12-21T15:49:27	8.9	94
46294	2023-12-21T15:59:27	8.9	96
46295	2023-12-21T16:09:27	8.7	98.5
46296	2023-12-21T16:19:27	8.7	100
46297	2023-12-21T16:29:27	9.1	100
46298	2023-12-21T16:39:27	9.6	98
46299	2023-12-21T16:49:27	9.6	99
46300	2023-12-21T16:59:27	9.4	99.5
46301	2023-12-21T17:09:27	9.4	99.5
46302	2023-12-21T17:19:27	9.4	99.5
46303	2023-12-21T17:29:27	9.5	99
46304	2023-12-21T17:39:27	9.6	99
46305	2023-12-21T17:49:27	9.7	97
46306	2023-12-21T17:59:27	9.7	96
46307	2023-12-21T18:09:27	9.8	95
46308	2023-12-21T18:19:27	9.9	96
46309	2023-12-21T18:29:27	9.5	97
46310	2023-12-21T18:39:27	9.4	100
46311	2023-12-21T18:49:27	9.3	100
46312	2023-12-21T18:59:27	9.3	100
46313	2023-12-21T19:09:27	9.4	100
46314	2023-12-21T19:19:27	9.5	99.5
46315	2023-12-21T19:29:27	9.5	98.5
46316	2023-12-21T19:39:27	9.5	97
46317	2023-12-21T19:49:27	9.6	94
46318	2023-12-21T19:59:27	9.7	91.5
46319	2023-12-21T20:09:27	9.6	91.5
46320	2023-12-21T20:19:27	9.7	91
46321	2023-12-21T20:29:27	9.6	91.5
46322	2023-12-21T20:39:27	9.7	90.5
46323	2023-12-21T20:49:27	9.6	89
46324	2023-12-21T20:59:27	9.6	87
46325	2023-12-21T21:09:27	9.8	85
46326	2023-12-21T21:19:27	9.6	84.5
46327	2023-12-21T21:29:27	9.5	84.5
46328	2023-12-21T21:39:27	9.5	84
46329	2023-12-21T21:49:27	9.5	84.5
46330	2023-12-21T21:59:27	9.3	84.5
46331	2023-12-21T22:09:27	9.3	85.5
46332	2023-12-21T22:19:27	9.4	86
46333	2023-12-21T22:29:27	9	93.5
46334	2023-12-21T22:39:27	8.5	96
46335	2023-12-21T22:49:27	8.4	99.5
46336	2023-12-21T22:59:27	8.3	100
46337	2023-12-21T23:09:27	8.7	97
46338	2023-12-21T23:19:27	8.8	94.5
46339	2023-12-21T23:29:27	9.1	91
46340	2023-12-21T23:39:27	9.1	90
46341	2023-12-21T23:49:27	9	90
46342	2023-12-21T23:59:27	9.1	89
46343	2023-12-22T00:09:27	9	89
46344	2023-12-22T00:19:27	8.9	87.5
46345	2023-12-22T00:29:27	8.9	86
46346	2023-12-22T00:39:27	9	86
46347	2023-12-22T00:49:27	8.8	85.5
46348	2023-12-22T00:59:27	8.8	84
46349	2023-12-22T01:09:27	8.9	79.5
46350	2023-12-22T01:19:27	8.8	78
46351	2023-12-22T01:29:27	8.7	79
46352	2023-12-22T01:39:27	8.6	81
46353	2023-12-22T01:49:27	8.4	82.5
46354	2023-12-22T01:59:27	8.4	83
46355	2023-12-22T02:09:27	8.5	83
46356	2023-12-22T02:19:27	8.6	83.5
46357	2023-12-22T02:29:27	8.5	83
46358	2023-12-22T02:39:27	8.5	83
46359	2023-12-22T02:49:27	8.6	81.5
46360	2023-12-22T02:59:27	8.7	80
46361	2023-12-22T03:09:27	8.8	79
46362	2023-12-22T03:19:27	8.7	80
46363	2023-12-22T03:29:27	8.5	81.5
46364	2023-12-22T03:39:27	8.8	82
46365	2023-12-22T03:49:27	8.7	81.5
46366	2023-12-22T03:59:26	7.4	96
46367	2023-12-22T04:09:26	7.3	96.5
46368	2023-12-22T04:19:27	7.4	95
46369	2023-12-22T04:29:26	7.6	91
46370	2023-12-22T04:49:26	7.8	89.5
46371	2023-12-22T04:59:46	8	87.5
46372	2023-12-22T05:09:26	8.1	85.5
46373	2023-12-22T05:19:26	8.1	86
46374	2023-12-22T05:29:26	8.3	85
46375	2023-12-22T05:39:26	8.2	84.5
46376	2023-12-22T05:49:26	8.3	84
46377	2023-12-22T05:59:26	8.5	84
46378	2023-12-22T06:09:26	8.5	83.5
46379	2023-12-22T06:19:26	8.7	83
46380	2023-12-22T06:29:26	7.8	90.5
46381	2023-12-22T06:39:26	7.6	92.5
46382	2023-12-22T06:49:26	7.3	95
46383	2023-12-22T06:59:26	7.3	96.5
46384	2023-12-22T07:09:26	7.1	99
46385	2023-12-22T07:19:26	7.2	99.5
46386	2023-12-22T07:29:26	7.1	99.5
46387	2023-12-22T07:39:26	7.2	100
46388	2023-12-22T07:49:26	7.1	98.5
46389	2023-12-22T07:59:26	7.3	98
46390	2023-12-22T08:09:26	7.5	95
46391	2023-12-22T08:19:26	7.8	91.5
46392	2023-12-22T08:29:27	8	90.5
46393	2023-12-22T08:39:26	8.1	88.5
46394	2023-12-22T08:49:26	8.3	87.5
46395	2023-12-22T08:59:26	8.3	86
46396	2023-12-22T09:09:26	8.6	84
46397	2023-12-22T09:19:26	8.6	84
46398	2023-12-22T09:29:26	8.6	83.5
46399	2023-12-22T09:39:26	8.7	83.5
46400	2023-12-22T09:49:26	8.6	83.5
46401	2023-12-22T09:59:26	8.8	83
46402	2023-12-22T10:09:26	9	83.5
46403	2023-12-22T10:19:26	8.2	91
46404	2023-12-22T10:29:26	7.9	95
46405	2023-12-22T10:39:26	7.7	97
46406	2023-12-22T10:49:27	7.6	98
46407	2023-12-22T10:59:26	7.6	99.5
46408	2023-12-22T11:09:26	7.6	100
46409	2023-12-22T11:19:26	7.6	100
46410	2023-12-22T11:29:26	7.7	100
46411	2023-12-22T11:39:26	7.7	100
46412	2023-12-22T11:49:26	7.7	100
46413	2023-12-22T11:59:26	7.8	100
46414	2023-12-22T12:09:26	7.8	100
46415	2023-12-22T12:19:26	7.8	100
46416	2023-12-22T12:29:26	7.8	100
46417	2023-12-22T12:39:27	7.8	100
46418	2023-12-22T12:49:26	7.9	100
46419	2023-12-22T12:59:26	8	100
46420	2023-12-22T13:09:26	8	100
46421	2023-12-22T13:19:26	8.2	100
46422	2023-12-22T13:29:26	8	100
46423	2023-12-22T13:39:26	8.1	100
46424	2023-12-22T13:49:26	8.1	100
46425	2023-12-22T13:59:26	8.1	100
46426	2023-12-22T14:09:26	8.4	100
46427	2023-12-22T14:19:26	8.7	100
46428	2023-12-22T14:29:26	8.7	100
46429	2023-12-22T14:39:26	8.9	100
46430	2023-12-22T14:49:26	9	100
46431	2023-12-22T14:59:26	9.1	100
46432	2023-12-22T15:09:26	9.2	100
46433	2023-12-22T15:19:26	9.3	100
46434	2023-12-22T15:29:26	9.2	100
46435	2023-12-22T15:39:26	9.3	100
46436	2023-12-22T15:49:26	9.2	100
46437	2023-12-22T15:59:26	9.1	100
46438	2023-12-22T16:09:26	9.1	100
46439	2023-12-22T16:29:26	9.1	100
46440	2023-12-22T16:39:26	9.2	100
46441	2023-12-22T16:49:26	9.2	100
46442	2023-12-22T16:59:26	8.9	100
46443	2023-12-22T17:09:26	8.9	100
46444	2023-12-22T17:19:26	9	100
46445	2023-12-22T17:29:26	9	100
46446	2023-12-22T17:39:26	9.1	100
46447	2023-12-22T17:49:26	8.9	100
46448	2023-12-22T17:59:26	8.8	100
46449	2023-12-22T18:09:26	8.9	100
46450	2023-12-22T18:19:26	8.9	100
46451	2023-12-22T18:29:26	8.9	100
46452	2023-12-22T18:39:26	9	100
46453	2023-12-22T18:49:26	9.1	99
46454	2023-12-22T18:59:26	9.1	100
46455	2023-12-22T19:09:26	9.2	99.5
46456	2023-12-22T19:19:26	9.1	99.5
46457	2023-12-22T19:29:26	9.2	98.5
46458	2023-12-22T19:39:26	8.9	99.5
46459	2023-12-22T19:49:26	8.9	100
46460	2023-12-22T19:59:26	8.9	99.5
46461	2023-12-22T20:09:26	8.8	100
46462	2023-12-22T20:19:26	8.9	98.5
46463	2023-12-22T20:29:26	8.9	95
46464	2023-12-22T20:39:26	9	93.5
46465	2023-12-22T20:49:26	8.9	94.5
46466	2023-12-22T20:59:26	8.9	93.5
46467	2023-12-22T21:09:26	9	93
46468	2023-12-22T21:19:26	9.1	92
46469	2023-12-22T21:29:26	9.1	91.5
46470	2023-12-22T21:39:26	9.1	92.5
46471	2023-12-22T21:49:26	9	91.5
46472	2023-12-22T21:59:26	9.2	89.5
46473	2023-12-22T22:09:26	9.2	90.5
46474	2023-12-22T22:19:26	9.3	90
46475	2023-12-22T22:29:26	8.9	93
46476	2023-12-22T22:39:26	8.7	94.5
46477	2023-12-22T22:49:26	8.7	93.5
46478	2023-12-22T22:59:26	8.7	93.5
46479	2023-12-22T23:09:26	8.7	92.5
46480	2023-12-22T23:19:26	8.7	91.5
46481	2023-12-22T23:29:26	8.4	98
46482	2023-12-22T23:39:25	8.2	97.5
46483	2023-12-22T23:49:25	8.6	94.5
46484	2023-12-22T23:59:25	8.6	92.5
46485	2023-12-23T00:09:25	8.2	99
46486	2023-12-23T00:19:25	8.2	98
46487	2023-12-23T00:29:26	8	100
46488	2023-12-23T00:39:26	8	100
46489	2023-12-23T00:49:25	7.9	100
46490	2023-12-23T00:59:25	7.8	100
46491	2023-12-23T01:09:25	7.9	100
46492	2023-12-23T01:19:25	7.9	100
46493	2023-12-23T01:29:25	7.9	100
46494	2023-12-23T01:39:25	7.9	100
46495	2023-12-23T01:49:25	7.8	100
46496	2023-12-23T01:59:25	7.9	100
46497	2023-12-23T02:09:25	8	100
46498	2023-12-23T02:19:25	8.1	100
46499	2023-12-23T02:29:25	8.2	99.5
46500	2023-12-23T02:39:25	8.3	98.5
46501	2023-12-23T02:49:25	8.5	98.5
46502	2023-12-23T02:59:25	8.5	95
46503	2023-12-23T03:09:25	8.5	92.5
46504	2023-12-23T03:19:25	8.5	91.5
46505	2023-12-23T03:29:25	8.6	90.5
46506	2023-12-23T03:39:25	8.6	89
46507	2023-12-23T03:49:26	8.6	88.5
46508	2023-12-23T03:59:25	8.8	88.5
46509	2023-12-23T04:09:25	8.7	88.5
46510	2023-12-23T04:19:25	8.6	88.5
46511	2023-12-23T04:29:25	8.6	87.5
46512	2023-12-23T04:39:26	8.7	88
46513	2023-12-23T04:49:25	8.7	87.5
46514	2023-12-23T04:59:25	8.7	88.5
46515	2023-12-23T05:09:25	8.6	89.5
46516	2023-12-23T05:19:25	8.4	91.5
46517	2023-12-23T05:29:25	8.1	96.5
46518	2023-12-23T05:39:25	7.8	98
46519	2023-12-23T05:49:25	7.7	99
46520	2023-12-23T05:59:25	7.6	98.5
46521	2023-12-23T06:09:25	7.6	99
46522	2023-12-23T06:19:25	7.7	98
46523	2023-12-23T06:29:25	7.6	97.5
46524	2023-12-23T06:39:25	7.7	96.5
46525	2023-12-23T06:49:25	7.7	97
46526	2023-12-23T06:59:25	7.6	98.5
46527	2023-12-23T07:09:25	7.6	99
46528	2023-12-23T07:19:25	7.6	99.5
46529	2023-12-23T07:29:25	7.5	99.5
46530	2023-12-23T07:49:25	7.4	99.5
46531	2023-12-23T07:59:25	7.5	99.5
46532	2023-12-23T08:09:25	7.5	98.5
46533	2023-12-23T08:19:25	7.5	97
46534	2023-12-23T08:29:25	7.7	95.5
46535	2023-12-23T08:39:25	7.9	94.5
46536	2023-12-23T08:49:25	7.9	94.5
46537	2023-12-23T08:59:25	7.8	95.5
46538	2023-12-23T09:09:26	7.9	94.5
46539	2023-12-23T09:19:25	7.6	95.5
46540	2023-12-23T09:29:25	7.9	94.5
46541	2023-12-23T09:39:25	7.9	93.5
46542	2023-12-23T09:49:25	7.9	94
46543	2023-12-23T09:59:25	8	92.5
46544	2023-12-23T10:09:25	8.1	91.5
46545	2023-12-23T10:19:25	8.1	91
46546	2023-12-23T10:29:25	8.3	90.5
46547	2023-12-23T10:39:25	8.2	90.5
46548	2023-12-23T10:49:25	8.4	89.5
46549	2023-12-23T10:59:25	8.5	88
46550	2023-12-23T11:09:25	8.6	86.5
46551	2023-12-23T11:19:25	8.8	86.5
46552	2023-12-23T11:29:25	8.8	86
46553	2023-12-23T11:39:25	9	85
46554	2023-12-23T11:49:25	9.1	85.5
46555	2023-12-23T11:59:25	9.1	86
46556	2023-12-23T12:09:25	9.1	87.5
46557	2023-12-23T12:19:25	8.7	89
46558	2023-12-23T12:29:25	8.4	91.5
46559	2023-12-23T12:39:25	8.3	92
46560	2023-12-23T12:49:25	8.3	91.5
46561	2023-12-23T12:59:25	8.6	89
46562	2023-12-23T13:09:25	8.9	87
46563	2023-12-23T13:19:25	9.1	86
46564	2023-12-23T13:29:25	9.1	86.5
46565	2023-12-23T13:39:25	9.2	85.5
46566	2023-12-23T13:49:25	9.3	84.5
46567	2023-12-23T13:59:25	9.1	87.5
46568	2023-12-23T14:09:25	8.8	88.5
46569	2023-12-23T14:19:25	9.1	85.5
46570	2023-12-23T14:29:25	9.2	88
46571	2023-12-23T14:39:25	9.1	86
46572	2023-12-23T14:49:25	8.9	88.5
46573	2023-12-23T14:59:25	8.8	88
46574	2023-12-23T15:09:25	8.9	87.5
46575	2023-12-23T15:19:25	9	87
46576	2023-12-23T15:29:25	9.3	84.5
46577	2023-12-23T15:39:25	9.3	83
46578	2023-12-23T15:49:25	9.5	82
46579	2023-12-23T15:59:25	9.6	81.5
46580	2023-12-23T16:09:25	9.6	81.5
46581	2023-12-23T16:19:25	9.7	80.5
46582	2023-12-23T16:29:25	9.7	80
46583	2023-12-23T16:39:25	9.6	80
46584	2023-12-23T16:49:25	9.7	79.5
46585	2023-12-23T16:59:25	9.7	79
46586	2023-12-23T17:09:25	9.7	79.5
46587	2023-12-23T17:19:25	9.5	79
46588	2023-12-23T17:29:25	9.5	80
46589	2023-12-23T17:39:25	9.6	79.5
46590	2023-12-23T17:49:25	9.6	79
46591	2023-12-23T17:59:25	9.6	79.5
46592	2023-12-23T18:09:25	9.6	79
46593	2023-12-23T18:19:25	9.5	80
46594	2023-12-23T18:29:25	9.3	81.5
46595	2023-12-23T18:39:25	9.1	82
46596	2023-12-23T18:49:25	9.1	83
46597	2023-12-23T18:59:25	9	84
46598	2023-12-23T19:09:25	8.8	83.5
46599	2023-12-23T19:19:25	8.6	86
46600	2023-12-23T19:29:24	8.5	85.5
46601	2023-12-23T19:39:25	8.8	84.5
46602	2023-12-23T19:49:24	8.1	91
46603	2023-12-23T19:59:24	7.7	94
46604	2023-12-23T20:09:24	7.7	92.5
46605	2023-12-23T20:19:24	7.8	92.5
46606	2023-12-23T20:29:24	7.8	92
46607	2023-12-23T20:39:24	7.7	95
46608	2023-12-23T20:49:24	7.6	94.5
46609	2023-12-23T20:59:24	7.7	94.5
46610	2023-12-23T21:09:24	7.7	92.5
46611	2023-12-23T21:19:24	7.8	93
46612	2023-12-23T21:29:25	7.9	90.5
46613	2023-12-23T21:39:24	7.9	92
46614	2023-12-23T21:49:24	8	90.5
46615	2023-12-23T21:59:24	8.3	89.5
46616	2023-12-23T22:09:24	8.3	87.5
46617	2023-12-23T22:19:24	8.5	88
46618	2023-12-23T22:29:24	8.5	86.5
46619	2023-12-23T22:39:24	8.7	86
46620	2023-12-23T22:49:25	8.4	89.5
46621	2023-12-23T22:59:24	8.2	89.5
46622	2023-12-23T23:09:24	8.2	88
46623	2023-12-23T23:19:24	8.5	86
46624	2023-12-23T23:29:24	8.8	84
46625	2023-12-23T23:39:24	9	83
46626	2023-12-23T23:49:24	9.2	82.5
46627	2023-12-23T23:59:24	9.2	82.5
46628	2023-12-24T00:09:24	9.2	82.5
46629	2023-12-24T00:19:24	9.2	81.5
46630	2023-12-24T00:29:24	9.4	81
46631	2023-12-24T00:39:24	9.4	80.5
46632	2023-12-24T00:49:24	9.5	80
46633	2023-12-24T00:59:24	9.5	80
46634	2023-12-24T01:09:25	9.5	80
46635	2023-12-24T01:19:24	9.5	79.5
46636	2023-12-24T01:29:24	9.6	79
46637	2023-12-24T01:39:24	9.7	78
46638	2023-12-24T01:49:24	9.7	77.5
46639	2023-12-24T01:59:24	9.8	77.5
46640	2023-12-24T02:09:24	9.7	77.5
46641	2023-12-24T02:19:24	9.6	80
46642	2023-12-24T02:29:24	9.3	82
46643	2023-12-24T02:39:24	9.1	82.5
46644	2023-12-24T02:49:24	8.9	84
46645	2023-12-24T02:59:24	9.1	82
46646	2023-12-24T03:09:24	9.4	80.5
46647	2023-12-24T03:19:24	9.4	79.5
46648	2023-12-24T03:29:24	9.4	79.5
46649	2023-12-24T03:39:24	9.6	79
46650	2023-12-24T03:49:24	9.5	78.5
46651	2023-12-24T03:59:24	9.6	78
46652	2023-12-24T04:09:24	9.6	78
46653	2023-12-24T04:19:24	9.5	80.5
46654	2023-12-24T04:29:24	9.3	81
46655	2023-12-24T04:39:24	9.2	82.5
46656	2023-12-24T04:49:24	9.3	83
46657	2023-12-24T04:59:24	9.1	84.5
46658	2023-12-24T05:09:24	9.1	84.5
46659	2023-12-24T05:19:24	9.2	84
46660	2023-12-24T05:29:24	9.3	81.5
46661	2023-12-24T05:39:24	9.4	82
46662	2023-12-24T05:49:24	9.3	81.5
46663	2023-12-24T05:59:24	9.5	81
46664	2023-12-24T06:09:24	9.7	80.5
46665	2023-12-24T06:19:24	9.8	79
46666	2023-12-24T06:29:24	10	79
46667	2023-12-24T06:39:24	10	79.5
46668	2023-12-24T06:49:24	10.1	79
46669	2023-12-24T06:59:24	10	80
46670	2023-12-24T07:09:24	10	79
46671	2023-12-24T07:19:24	10.2	78
46672	2023-12-24T07:29:24	10.3	78
46673	2023-12-24T07:39:24	10.2	78.5
46674	2023-12-24T07:49:24	10.2	78
46675	2023-12-24T07:59:24	10.2	78.5
46676	2023-12-24T08:09:24	10.3	78
46677	2023-12-24T08:19:24	10	82.5
46678	2023-12-24T08:29:24	9.8	82
46679	2023-12-24T08:39:24	10	80.5
46680	2023-12-24T08:49:24	10.1	81
46681	2023-12-24T08:59:24	9.4	88.5
46682	2023-12-24T09:09:24	9.2	89
46683	2023-12-24T09:19:24	8.7	94
46684	2023-12-24T09:29:24	8.4	96
46685	2023-12-24T09:39:24	8.5	97
46686	2023-12-24T09:49:24	8.7	95
46687	2023-12-24T09:59:24	8.9	93
46688	2023-12-24T10:09:24	9.2	92
46689	2023-12-24T10:19:24	8.9	95
46690	2023-12-24T10:29:24	8.9	96.5
46691	2023-12-24T10:39:24	8.8	96.5
46692	2023-12-24T10:49:24	8.8	97.5
46693	2023-12-24T10:59:24	8.7	98
46694	2023-12-24T11:09:24	8.8	97
46695	2023-12-24T11:19:24	8.8	97.5
46696	2023-12-24T11:29:24	8.8	98
46697	2023-12-24T11:39:24	8.7	98
46698	2023-12-24T11:49:24	8.7	98
46699	2023-12-24T11:59:24	8.7	98.5
46700	2023-12-24T12:09:24	8.7	98.5
46701	2023-12-24T12:19:24	8.8	99
46702	2023-12-24T12:29:24	9	99
46703	2023-12-24T12:39:24	8.9	98.5
46704	2023-12-24T12:49:24	8.9	98.5
46705	2023-12-24T12:59:24	9	98.5
46706	2023-12-24T13:09:24	9	98.5
46707	2023-12-24T13:19:24	9	98.5
46708	2023-12-24T13:29:24	9	98
46709	2023-12-24T13:39:24	9.1	98
46710	2023-12-24T13:49:24	9.2	97.5
46711	2023-12-24T13:59:24	9.2	96.5
46712	2023-12-24T14:09:24	9.4	96.5
46713	2023-12-24T14:19:24	9.3	97
46714	2023-12-24T14:29:24	9.3	97.5
46715	2023-12-24T14:39:24	9.1	100
46716	2023-12-24T14:49:24	9	100
46717	2023-12-24T14:59:24	9.2	99
46718	2023-12-24T15:09:24	9.2	99
46719	2023-12-24T15:19:23	9.3	98.5
46720	2023-12-24T15:29:23	9.3	97.5
46721	2023-12-24T15:39:23	9.5	96.5
46722	2023-12-24T15:49:23	9.5	97
46723	2023-12-24T15:59:23	9.6	95.5
46724	2023-12-24T16:09:23	9.6	94
46725	2023-12-24T16:19:23	9.8	93
46726	2023-12-24T16:29:23	9.9	93
46727	2023-12-24T16:39:23	10	91
46728	2023-12-24T16:49:23	10.1	91
46729	2023-12-24T16:59:23	10.3	89.5
46730	2023-12-24T17:09:23	10.3	89.5
46731	2023-12-24T17:19:23	10.4	89
46732	2023-12-24T17:29:23	10.6	88
46733	2023-12-24T17:39:23	10.7	87
46734	2023-12-24T17:49:23	10.7	86
46735	2023-12-24T17:59:23	10.9	85
46736	2023-12-24T18:09:23	10.9	85.5
46737	2023-12-24T18:29:23	11	85
46738	2023-12-24T18:39:23	11.1	84
46739	2023-12-24T18:49:23	11.2	83.5
46740	2023-12-24T18:59:23	11.2	82.5
46741	2023-12-24T19:09:23	11.2	82.5
46742	2023-12-24T19:19:23	11.2	81.5
46743	2023-12-24T19:29:23	11.3	81
46744	2023-12-24T19:39:23	11.2	81.5
46745	2023-12-24T19:49:23	11.2	80.5
46746	2023-12-24T19:59:23	11.3	79
46747	2023-12-24T20:09:23	11.4	78
46748	2023-12-24T20:19:23	11.4	77
46749	2023-12-24T20:29:23	11.5	76.5
46750	2023-12-24T20:39:23	11.3	77
46751	2023-12-24T20:49:23	11.2	77
46752	2023-12-24T20:59:23	11.2	76.5
46753	2023-12-24T21:09:23	11	76.5
46754	2023-12-24T21:19:23	11	76.5
46755	2023-12-24T21:29:23	11	76
46756	2023-12-24T21:39:23	11.1	75.5
46757	2023-12-24T21:49:23	11.1	75
46758	2023-12-24T21:59:23	11.1	74
46759	2023-12-24T22:09:23	11.1	73
46760	2023-12-24T22:19:23	11.2	72.5
46761	2023-12-24T22:29:23	11.3	72
46762	2023-12-24T22:39:23	11.3	72
46763	2023-12-24T22:49:23	11.3	71
46764	2023-12-24T22:59:23	11.3	70.5
46765	2023-12-24T23:09:23	11.4	70.5
46766	2023-12-24T23:19:23	11.2	71
46767	2023-12-24T23:29:23	11.3	70.5
46768	2023-12-24T23:39:23	11.3	70.5
46769	2023-12-24T23:49:23	11.3	69.5
46770	2023-12-24T23:59:23	11.3	69.5
46771	2023-12-25T00:09:23	11.3	69.5
46772	2023-12-25T00:19:23	11.2	70
46773	2023-12-25T00:29:23	11.2	69.5
46774	2023-12-25T00:49:23	11.2	69.5
46775	2023-12-25T00:59:23	11.1	69
46776	2023-12-25T01:09:23	11.2	69
46777	2023-12-25T01:19:23	11.1	69.5
46778	2023-12-25T01:29:23	11	70
46779	2023-12-25T01:39:23	11	70
46780	2023-12-25T01:49:23	10.9	70.5
46781	2023-12-25T01:59:23	10.9	70.5
46782	2023-12-25T02:09:23	11	70.5
46783	2023-12-25T02:19:23	10.9	71
46784	2023-12-25T02:29:23	11	71
46785	2023-12-25T02:39:23	11.1	70.5
46786	2023-12-25T02:49:23	11	70.5
46787	2023-12-25T02:59:23	11.1	70.5
46788	2023-12-25T03:09:23	10.9	71
46789	2023-12-25T03:29:23	10.7	70.5
46790	2023-12-25T03:39:23	10.7	70.5
46791	2023-12-25T03:49:23	10.6	71
46792	2023-12-25T03:59:23	10.5	70
46793	2023-12-25T04:09:23	10.5	69.5
46794	2023-12-25T04:19:23	10.5	69.5
46795	2023-12-25T04:29:23	10.5	69.5
46796	2023-12-25T04:39:23	10.5	69.5
46797	2023-12-25T04:49:23	10.4	69.5
46798	2023-12-25T04:59:23	10.4	70
46799	2023-12-25T05:09:23	10.3	69.5
46800	2023-12-25T05:19:23	10.4	69.5
46801	2023-12-25T05:29:23	10.4	69
46802	2023-12-25T05:39:23	10.4	68.5
46803	2023-12-25T05:49:23	10.5	68.5
46804	2023-12-25T05:59:23	10.4	68
46805	2023-12-25T06:09:23	10.3	69
46806	2023-12-25T06:19:23	10.3	68
46807	2023-12-25T06:29:23	10.4	67
46808	2023-12-25T06:39:23	10.3	67
46809	2023-12-25T06:49:23	10.3	66
46810	2023-12-25T06:59:23	10.4	66
46811	2023-12-25T07:09:23	10.3	65
46812	2023-12-25T07:19:23	10.3	65
46813	2023-12-25T07:29:23	10.4	65
46814	2023-12-25T07:39:40	10.5	64.5
46815	2023-12-25T07:49:22	10.4	65
46816	2023-12-25T07:59:23	10.4	66
46817	2023-12-25T08:09:23	10.4	65
46818	2023-12-25T08:19:22	10.2	65.5
46819	2023-12-25T08:29:22	10.3	67
46820	2023-12-25T08:39:22	10.2	68.5
46821	2023-12-25T08:49:22	10.2	70
46822	2023-12-25T08:59:22	10.1	71
46823	2023-12-25T09:09:22	10.3	72.5
46824	2023-12-25T09:19:22	10.3	72
46825	2023-12-25T09:29:22	10.2	73.5
46826	2023-12-25T09:39:22	10.3	74
46827	2023-12-25T09:49:22	10.2	74
46828	2023-12-25T09:59:22	10.3	74.5
46829	2023-12-25T10:09:22	10.1	78
46830	2023-12-25T10:19:22	9.7	80.5
46831	2023-12-25T10:29:22	9.6	81.5
46832	2023-12-25T10:39:22	9.6	81
46833	2023-12-25T10:49:22	9.6	81.5
46834	2023-12-25T10:59:22	9.6	82
46835	2023-12-25T11:09:22	9.6	81.5
46836	2023-12-25T11:19:22	9.7	81.5
46837	2023-12-25T11:29:22	9.9	81.5
46838	2023-12-25T11:39:22	9.8	82
46839	2023-12-25T11:49:22	9.5	87.5
46840	2023-12-25T11:59:22	9.5	85.5
46841	2023-12-25T12:09:22	9.6	83
46842	2023-12-25T12:19:22	9.9	82.5
46843	2023-12-25T12:29:22	10.1	81
46844	2023-12-25T12:39:22	10.3	79.5
46845	2023-12-25T12:49:22	10.5	79.5
46846	2023-12-25T12:59:22	10.6	78
46847	2023-12-25T13:09:22	10.7	77.5
46848	2023-12-25T13:19:22	11	76.5
46849	2023-12-25T13:29:22	11	76
46850	2023-12-25T13:39:22	11	76
46851	2023-12-25T13:49:22	11	76
46852	2023-12-25T13:59:22	11.1	75.5
46853	2023-12-25T14:09:22	10.9	75.5
46854	2023-12-25T14:19:22	11.1	75.5
46855	2023-12-25T14:29:22	11.1	75.5
46856	2023-12-25T14:39:22	11.2	75.5
46857	2023-12-25T14:49:22	11.1	76
46858	2023-12-25T14:59:22	11.1	77
46859	2023-12-25T15:09:22	11	78.5
46860	2023-12-25T15:19:22	10.9	79
46861	2023-12-25T15:29:22	10.8	79
46862	2023-12-25T15:39:22	10.8	79
46863	2023-12-25T15:49:22	10.8	79
46864	2023-12-25T15:59:22	10.7	79
46865	2023-12-25T16:09:22	10.7	79.5
46866	2023-12-25T16:19:22	10.6	80
46867	2023-12-25T16:29:22	10.6	80
46868	2023-12-25T16:39:22	10.5	81
46869	2023-12-25T16:49:22	10.4	81.5
46870	2023-12-25T16:59:22	10.4	81
46871	2023-12-25T17:09:22	10.4	79.5
46872	2023-12-25T17:19:22	10.5	79
46873	2023-12-25T17:29:22	10.5	78
46874	2023-12-25T17:39:22	10.5	77
46875	2023-12-25T17:49:22	10.6	76
46876	2023-12-25T17:59:22	10.6	75
46877	2023-12-25T18:09:22	10.5	75
46878	2023-12-25T18:19:22	10.6	75
46879	2023-12-25T18:29:22	10.6	74.5
46880	2023-12-25T18:39:22	10.6	74.5
46881	2023-12-25T18:49:22	10.5	74
46882	2023-12-25T18:59:22	10.4	74
46883	2023-12-25T19:09:22	10.3	74.5
46884	2023-12-25T19:19:22	10.3	74.5
46885	2023-12-25T19:29:22	10.2	74.5
46886	2023-12-25T19:39:22	10.2	74.5
46887	2023-12-25T19:49:22	10	74
46888	2023-12-25T19:59:22	9.9	74.5
46889	2023-12-25T20:09:22	9.9	75
46890	2023-12-25T20:19:22	9.8	75
46891	2023-12-25T20:29:22	9.7	75
46892	2023-12-25T20:39:22	9.8	75
46893	2023-12-25T20:49:22	9.9	75
46894	2023-12-25T20:59:22	10	74.5
46895	2023-12-25T21:09:22	10	74.5
46896	2023-12-25T21:19:22	10	74.5
46897	2023-12-25T21:29:22	10.1	74.5
46898	2023-12-25T21:39:22	10	74.5
46899	2023-12-25T21:49:22	10	74.5
46900	2023-12-25T21:59:22	9.9	75
46901	2023-12-25T22:09:22	9.8	75.5
46902	2023-12-25T22:19:22	9.8	75.5
46903	2023-12-25T22:29:22	9.8	76
46904	2023-12-25T22:39:22	9.8	76
46905	2023-12-25T22:49:22	9.8	76
46906	2023-12-25T22:59:22	9.7	76.5
46907	2023-12-25T23:09:22	9.7	76.5
46908	2023-12-25T23:19:22	9.6	76.5
46909	2023-12-25T23:29:22	9.7	76.5
46910	2023-12-25T23:39:22	9.8	76.5
46911	2023-12-25T23:49:22	9.8	76.5
46912	2023-12-25T23:59:22	9.7	76
46913	2023-12-26T00:09:22	9.7	76.5
46914	2023-12-26T00:19:22	9.7	76.5
46915	2023-12-26T00:29:22	9.6	76.5
46916	2023-12-26T00:39:22	9.5	77
46917	2023-12-26T00:49:22	9.5	77
46918	2023-12-26T00:59:22	9.6	77
46919	2023-12-26T01:09:21	9.6	77
46920	2023-12-26T01:19:22	9.6	77
46921	2023-12-26T01:29:22	9.6	76.5
46922	2023-12-26T01:39:21	9.6	76.5
46923	2023-12-26T01:49:21	9.5	76
46924	2023-12-26T01:59:21	9.4	77
46925	2023-12-26T02:09:21	9.6	76
46926	2023-12-26T02:19:21	9.6	76
46927	2023-12-26T02:29:21	9.5	76
46928	2023-12-26T02:39:21	9.6	75.5
46929	2023-12-26T02:49:21	9.6	75.5
46930	2023-12-26T02:59:21	9.6	74.5
46931	2023-12-26T03:09:21	9.7	74.5
46932	2023-12-26T03:19:21	9.6	74.5
46933	2023-12-26T03:29:21	9.5	75
46934	2023-12-26T03:39:21	9.5	75
46935	2023-12-26T03:49:21	9.6	75.5
46936	2023-12-26T03:59:21	9.5	74.5
46937	2023-12-26T04:09:21	9.5	74
46938	2023-12-26T04:19:21	9.7	74
46939	2023-12-26T04:29:21	9.6	73.5
46940	2023-12-26T04:39:21	9.8	73.5
46941	2023-12-26T04:49:21	9.8	73
46942	2023-12-26T04:59:21	9.8	72.5
46943	2023-12-26T05:09:21	9.9	72
46944	2023-12-26T05:19:21	10.1	71.5
46945	2023-12-26T05:29:21	10.1	71.5
46946	2023-12-26T05:39:21	10.1	71
46947	2023-12-26T05:49:21	10.2	71
46948	2023-12-26T05:59:21	10.2	70.5
46949	2023-12-26T06:09:21	10.3	71
46950	2023-12-26T06:19:21	10.3	70.5
46951	2023-12-26T06:29:21	10.3	70
46952	2023-12-26T06:39:21	10.3	70.5
46953	2023-12-26T06:49:21	10.3	70
46954	2023-12-26T06:59:21	10.4	69.5
46955	2023-12-26T07:09:21	10.4	70
46956	2023-12-26T07:19:21	10.4	70
46957	2023-12-26T07:29:21	10.4	70
46958	2023-12-26T07:39:21	10.3	70
46959	2023-12-26T07:49:21	10.3	70
46960	2023-12-26T07:59:21	10.2	70.5
46961	2023-12-26T08:09:21	10.2	70.5
46962	2023-12-26T08:19:21	10.2	71
46963	2023-12-26T08:29:21	10.1	71
46964	2023-12-26T08:39:21	10.2	71
46965	2023-12-26T08:49:21	10.2	71.5
46966	2023-12-26T08:59:21	10.3	72
46967	2023-12-26T09:09:21	10.2	73
46968	2023-12-26T09:19:21	9.8	77
46969	2023-12-26T09:29:21	9.7	78.5
46970	2023-12-26T09:39:21	9.7	79.5
46971	2023-12-26T09:49:21	9.8	78.5
46972	2023-12-26T09:59:21	9.7	78
46973	2023-12-26T10:09:21	9.7	77.5
46974	2023-12-26T10:19:21	9.8	77
46975	2023-12-26T10:29:21	9.8	77
46976	2023-12-26T10:39:21	10	77
46977	2023-12-26T10:49:21	9.5	84
46978	2023-12-26T10:59:21	9.2	83
46979	2023-12-26T11:09:21	9.4	81.5
46980	2023-12-26T11:19:21	9.7	80.5
46981	2023-12-26T11:29:21	9.6	83.5
46982	2023-12-26T11:39:21	9.3	85.5
46983	2023-12-26T11:49:21	9	88
46984	2023-12-26T11:59:21	8.9	87
46985	2023-12-26T12:09:21	9.3	84
46986	2023-12-26T12:19:21	9.6	82.5
46987	2023-12-26T12:29:21	9.7	82
46988	2023-12-26T12:39:21	9.7	80
46989	2023-12-26T12:49:21	10.1	78.5
46990	2023-12-26T12:59:21	10	78
46991	2023-12-26T13:09:21	10.1	77.5
46992	2023-12-26T13:19:21	10.1	78
46993	2023-12-26T13:29:21	10	80.5
46994	2023-12-26T13:39:21	9.6	83
46995	2023-12-26T13:49:21	9.6	83
46996	2023-12-26T13:59:21	9.5	84
46997	2023-12-26T14:09:21	9.4	86
46998	2023-12-26T14:19:43	9.4	87
46999	2023-12-26T14:29:21	9.3	88
47000	2023-12-26T14:39:21	9	89.5
47001	2023-12-26T14:49:21	9.1	89.5
47002	2023-12-26T15:09:21	9.2	87.5
47003	2023-12-26T15:19:21	9.2	87.5
47004	2023-12-26T15:29:21	9.3	87
47005	2023-12-26T15:39:21	9.3	87
47006	2023-12-26T15:49:21	9.3	87.5
47007	2023-12-26T15:59:21	9.2	87
47008	2023-12-26T16:09:21	9.4	86
47009	2023-12-26T16:19:21	9.3	85
47010	2023-12-26T16:29:21	9.5	84
47011	2023-12-26T16:39:21	9.6	83
47012	2023-12-26T16:49:21	9.6	82
47013	2023-12-26T16:59:21	9.7	81.5
47014	2023-12-26T17:09:21	9.7	81.5
47015	2023-12-26T17:19:21	9.7	81.5
47016	2023-12-26T17:29:21	9.7	81.5
47017	2023-12-26T17:39:21	9.7	81.5
47018	2023-12-26T17:49:21	9.7	81
47019	2023-12-26T17:59:21	9.7	81.5
47020	2023-12-26T18:09:21	9.7	81
47021	2023-12-26T18:19:21	9.7	80
47022	2023-12-26T18:29:21	9.7	80.5
47023	2023-12-26T18:39:21	9.7	80
47024	2023-12-26T18:49:21	9.6	80
47025	2023-12-26T18:59:21	9.8	80
47026	2023-12-26T19:09:21	9.7	80.5
47027	2023-12-26T19:19:20	9.2	88
47028	2023-12-26T19:29:21	8.8	94.5
47029	2023-12-26T19:39:20	8.6	95.5
47030	2023-12-26T19:49:20	8.7	96
47031	2023-12-26T19:59:20	8.6	96
47032	2023-12-26T20:09:20	8.7	96
47033	2023-12-26T20:19:20	8.9	97
47034	2023-12-26T20:29:20	8.9	96
47035	2023-12-26T20:39:20	8.8	98
47036	2023-12-26T20:49:20	9	97.5
47037	2023-12-26T20:59:20	9	97.5
47038	2023-12-26T21:09:20	8.9	98
47039	2023-12-26T21:19:20	8.8	96.5
47040	2023-12-26T21:29:20	8.9	96
47041	2023-12-26T21:39:20	8.9	96
47042	2023-12-26T21:49:20	8.9	97.5
47043	2023-12-26T21:59:20	8.9	95.5
47044	2023-12-26T22:09:20	8.9	97
47045	2023-12-26T22:19:20	9	98
47046	2023-12-26T22:29:20	8.9	99
47047	2023-12-26T22:39:20	8.9	96
47048	2023-12-26T22:49:20	8.9	97.5
47049	2023-12-26T22:59:20	8.8	93.5
47050	2023-12-26T23:09:20	8.7	95.5
47051	2023-12-26T23:19:20	8.5	93.5
47052	2023-12-26T23:29:20	8.6	93.5
47053	2023-12-26T23:39:20	8.4	93.5
47054	2023-12-26T23:49:20	8.4	93.5
47055	2023-12-26T23:59:20	8.2	93.5
47056	2023-12-27T00:09:20	8.5	94
47057	2023-12-27T00:19:20	8.6	94
47058	2023-12-27T00:29:20	8.5	93.5
47059	2023-12-27T00:39:20	8.5	93.5
47060	2023-12-27T00:49:20	8.5	93.5
47061	2023-12-27T00:59:20	8.5	93.5
47062	2023-12-27T01:09:20	8.4	94
47063	2023-12-27T01:19:20	8.4	94
47064	2023-12-27T01:29:20	8.5	94
47065	2023-12-27T01:39:20	8.3	92.5
47066	2023-12-27T01:49:20	8.4	94
47067	2023-12-27T01:59:20	8.4	93.5
47068	2023-12-27T02:09:20	8.5	95
47069	2023-12-27T02:19:20	8.6	95.5
47070	2023-12-27T02:29:20	8.5	95.5
47071	2023-12-27T02:39:20	8.6	95
47072	2023-12-27T02:49:20	8.5	96
47073	2023-12-27T02:59:20	8.4	93
47074	2023-12-27T03:09:20	8.5	94.5
47075	2023-12-27T03:19:20	8.4	94
47076	2023-12-27T03:29:20	8.4	95.5
47077	2023-12-27T03:39:20	8.4	95.5
47078	2023-12-27T03:49:20	8.4	95
47079	2023-12-27T03:59:20	8.3	94.5
47080	2023-12-27T04:09:20	8.3	96
47081	2023-12-27T04:19:20	8.2	94.5
47082	2023-12-27T04:29:20	8.2	94.5
47083	2023-12-27T04:39:20	8.2	95
47084	2023-12-27T04:49:20	7.9	95.5
47085	2023-12-27T04:59:20	7.8	95.5
47086	2023-12-27T05:09:20	7.7	94.5
47087	2023-12-27T05:19:20	7.7	94.5
47088	2023-12-27T05:29:20	7.6	94.5
47089	2023-12-27T05:39:20	7.5	95
47090	2023-12-27T05:49:20	7.4	95
47091	2023-12-27T05:59:20	7.3	95.5
47092	2023-12-27T06:09:20	7.2	93.5
47093	2023-12-27T06:19:20	7.3	95
47094	2023-12-27T06:29:20	7.2	94.5
47095	2023-12-27T06:39:20	7.1	95
47096	2023-12-27T06:49:20	7.2	94.5
47097	2023-12-27T06:59:20	7.2	94.5
47098	2023-12-27T07:09:20	7.3	94.5
47099	2023-12-27T07:19:20	7.3	94.5
47100	2023-12-27T07:29:20	7.1	95
47101	2023-12-27T07:39:20	7	94
47102	2023-12-27T07:49:20	7	95
47103	2023-12-27T07:59:20	7	95
47104	2023-12-27T08:09:20	7.1	96
47105	2023-12-27T08:19:20	7.1	94.5
47106	2023-12-27T08:29:20	7	95.5
47107	2023-12-27T08:39:20	7	94.5
47108	2023-12-27T08:49:20	7.1	94.5
47109	2023-12-27T08:59:20	7	95.5
47110	2023-12-27T09:09:20	7	95.5
47111	2023-12-27T09:19:20	7.1	96
47112	2023-12-27T09:29:20	7.3	95.5
47113	2023-12-27T09:39:20	7.5	95.5
47114	2023-12-27T09:49:20	7.8	94.5
47115	2023-12-27T09:59:20	7.8	93
47116	2023-12-27T10:09:20	7.8	94
47117	2023-12-27T10:19:20	8.3	93
47118	2023-12-27T10:29:20	8.6	90
47119	2023-12-27T10:39:20	8.7	88.5
47120	2023-12-27T10:49:20	9	89
47121	2023-12-27T10:59:20	9.1	88
47122	2023-12-27T11:09:20	9.5	86.5
47123	2023-12-27T11:19:20	9.6	83.5
47124	2023-12-27T11:29:20	9.8	82.5
47125	2023-12-27T11:39:20	10	79.5
47126	2023-12-27T11:49:20	10.2	79
47127	2023-12-27T11:59:20	10.1	79
47128	2023-12-27T12:09:20	10.5	79.5
47129	2023-12-27T12:19:20	10.8	77
47130	2023-12-27T12:29:20	11.4	77.5
47131	2023-12-27T12:39:20	11.9	76
47132	2023-12-27T12:49:20	12	77.5
47133	2023-12-27T12:59:20	12	79
47134	2023-12-27T13:09:20	11.8	79.5
47135	2023-12-27T13:19:20	11.7	77.5
47136	2023-12-27T13:29:20	11.6	77.5
47137	2023-12-27T13:39:20	11.4	77
47138	2023-12-27T13:49:20	11.4	79.5
47139	2023-12-27T13:59:20	11.3	84
47140	2023-12-27T14:09:20	11.2	81.5
47141	2023-12-27T14:19:20	11	82.5
47142	2023-12-27T14:29:20	10.8	83
47143	2023-12-27T14:39:20	10.7	83
47144	2023-12-27T14:49:20	10.5	83.5
47145	2023-12-27T14:59:20	10.2	86.5
47146	2023-12-27T15:09:20	10	86
47147	2023-12-27T15:19:20	9.7	87
47148	2023-12-27T15:29:19	9.4	87.5
47149	2023-12-27T15:39:19	9.2	88
47150	2023-12-27T15:49:19	9.2	89
47151	2023-12-27T15:59:19	8.7	89
47152	2023-12-27T16:09:19	8.6	88.5
47153	2023-12-27T16:19:19	8.5	89
47154	2023-12-27T16:29:19	8.3	89
47155	2023-12-27T16:39:19	8	89
47156	2023-12-27T16:49:19	8	90.5
47157	2023-12-27T16:59:19	7.7	89.5
47158	2023-12-27T17:09:19	7.6	88.5
47159	2023-12-27T17:19:19	7.3	87
47160	2023-12-27T17:29:19	7.2	87.5
47161	2023-12-27T17:39:19	7	89
47162	2023-12-27T17:49:19	6.9	88.5
47163	2023-12-27T17:59:19	6.8	88.5
47164	2023-12-27T18:09:19	6.7	89
47165	2023-12-27T18:19:19	6.5	88.5
47166	2023-12-27T18:29:19	6.3	85.5
47167	2023-12-27T18:39:19	6	88.5
47168	2023-12-27T18:49:19	5.8	88
47169	2023-12-27T18:59:19	5.7	88
47170	2023-12-27T19:09:19	5.5	88
47171	2023-12-27T19:19:19	5.5	87.5
47172	2023-12-27T19:29:20	5.3	88
47173	2023-12-27T19:39:19	5.1	88
47174	2023-12-27T19:49:19	5	88.5
47175	2023-12-27T19:59:19	5	88
47176	2023-12-27T20:09:19	4.8	88
47177	2023-12-27T20:19:19	4.7	89.5
47178	2023-12-27T20:29:19	4.6	89
47179	2023-12-27T20:39:19	4.4	87.5
47180	2023-12-27T20:49:19	4.4	89
47181	2023-12-27T20:59:19	4.3	88
47182	2023-12-27T21:09:19	4.4	88
47183	2023-12-27T21:19:19	4.4	89.5
47184	2023-12-27T21:29:19	4.2	89.5
47185	2023-12-27T21:39:19	4	88.5
47186	2023-12-27T21:49:19	4	89.5
47187	2023-12-27T21:59:19	3.9	89.5
47188	2023-12-27T22:09:19	3.9	89
47189	2023-12-27T22:19:19	3.8	89.5
47190	2023-12-27T22:29:19	3.5	89
47191	2023-12-27T22:39:19	3.5	89.5
47192	2023-12-27T22:49:19	3.4	88.5
47193	2023-12-27T22:59:19	3.3	88.5
47194	2023-12-27T23:09:19	3.2	89
47195	2023-12-27T23:19:19	3.2	89
47196	2023-12-27T23:29:19	3.2	89
47197	2023-12-27T23:39:19	3	89
47198	2023-12-27T23:49:19	2.9	89.5
47199	2023-12-27T23:59:19	2.8	89.5
47200	2023-12-28T00:09:19	2.8	90
47201	2023-12-28T00:19:19	2.8	89.5
47202	2023-12-28T00:29:19	2.7	90
47203	2023-12-28T00:39:19	2.7	89.5
47204	2023-12-28T00:49:19	2.6	90
47205	2023-12-28T00:59:19	2.6	90.5
47206	2023-12-28T01:09:19	2.6	90
47207	2023-12-28T01:19:19	2.4	90
47208	2023-12-28T01:29:19	2.5	89.5
47209	2023-12-28T01:39:19	2.5	91
47210	2023-12-28T01:49:19	3	88
47211	2023-12-28T01:59:19	3	89.5
47212	2023-12-28T02:09:19	3.1	90
47213	2023-12-28T02:19:19	3.3	90
47214	2023-12-28T02:29:19	3.5	89.5
47215	2023-12-28T02:39:19	3.6	89
47216	2023-12-28T02:49:19	3.8	89.5
47217	2023-12-28T02:59:19	4.1	90
47218	2023-12-28T03:09:19	4.8	81
47219	2023-12-28T03:19:19	7.4	66.5
47220	2023-12-28T03:29:19	8.8	60
47221	2023-12-28T03:39:19	9.5	57.5
47222	2023-12-28T03:49:19	10.1	55
47223	2023-12-28T03:59:19	10.2	54.5
47224	2023-12-28T04:09:19	10	62.5
47225	2023-12-28T04:19:19	7.9	89
47226	2023-12-28T04:29:19	7.5	90.5
47227	2023-12-28T04:39:19	7.4	89.5
47228	2023-12-28T04:49:19	7.4	85
47229	2023-12-28T04:59:19	7.5	89.5
47230	2023-12-28T05:09:19	7.4	92
47231	2023-12-28T05:19:19	7.4	92
47232	2023-12-28T05:29:19	7.5	87.5
47233	2023-12-28T05:39:19	7.5	88.5
47234	2023-12-28T05:49:19	7.5	91
47235	2023-12-28T05:59:19	7.7	92
47236	2023-12-28T06:09:19	7.6	93.5
47237	2023-12-28T06:19:19	7.6	94.5
47238	2023-12-28T06:29:19	7.6	95
47239	2023-12-28T06:39:19	7.6	96
47240	2023-12-28T06:49:19	7.6	96.5
47241	2023-12-28T06:59:19	7.7	94
47242	2023-12-28T07:09:19	7.6	96
47243	2023-12-28T07:19:19	7.6	95.5
47244	2023-12-28T07:29:19	7.6	96
47245	2023-12-28T07:39:19	7.6	96
47246	2023-12-28T07:49:19	7.5	96
47247	2023-12-28T07:59:19	7.5	95.5
47248	2023-12-28T08:09:19	7.5	91
47249	2023-12-28T08:19:19	7.7	90
47250	2023-12-28T08:29:19	7.7	90.5
47251	2023-12-28T08:39:19	7.7	88.5
47252	2023-12-28T08:59:19	7.9	89.5
47253	2023-12-28T09:09:19	8.1	88.5
47254	2023-12-28T09:19:19	8.1	88.5
47255	2023-12-28T09:29:19	8.1	90
47256	2023-12-28T09:39:19	7.9	93
47257	2023-12-28T09:49:19	7.9	94
47258	2023-12-28T09:59:19	8	97.5
47259	2023-12-28T10:19:19	8.1	95
47260	2023-12-28T10:29:19	8.2	95
47261	2023-12-28T10:39:19	8.1	95
47262	2023-12-28T10:49:19	8.1	93.5
47263	2023-12-28T10:59:19	8.1	94.5
47264	2023-12-28T11:09:19	8.2	97.5
47265	2023-12-28T11:19:19	8.3	97
47266	2023-12-28T11:29:19	8.3	98
47267	2023-12-28T11:39:19	8.4	97
47268	2023-12-28T11:49:19	8.5	97
47269	2023-12-28T11:59:19	8.6	96
47270	2023-12-28T12:09:19	8.7	93.5
47271	2023-12-28T12:19:19	8.6	92
47272	2023-12-28T12:29:19	8.6	91
47273	2023-12-28T12:39:19	8.7	90
47274	2023-12-28T12:49:19	8.4	96
47275	2023-12-28T12:59:19	8.3	98.5
47276	2023-12-28T13:09:19	8.3	99
47277	2023-12-28T13:19:19	8.3	100
47278	2023-12-28T13:29:19	8.3	100
47279	2023-12-28T13:39:19	8.5	100
47280	2023-12-28T13:49:19	8.5	100
47281	2023-12-28T13:59:19	8.5	99.5
47282	2023-12-28T14:09:19	8.5	99
47283	2023-12-28T14:19:19	8.5	98.5
47284	2023-12-28T14:29:19	8.5	97.5
47285	2023-12-28T14:39:19	8.5	96.5
47286	2023-12-28T14:49:19	8.6	96
47287	2023-12-28T14:59:19	8.8	96
47288	2023-12-28T15:09:19	8.7	95.5
47289	2023-12-28T15:19:19	8.8	95.5
47290	2023-12-28T15:29:19	8.8	95
47291	2023-12-28T15:39:19	9	92.5
47292	2023-12-28T15:49:19	9.1	91.5
47293	2023-12-28T15:59:19	9.2	90
47294	2023-12-28T16:09:19	9.4	89
47295	2023-12-28T16:19:19	9.5	88
47296	2023-12-28T16:29:19	9.5	89
47297	2023-12-28T16:39:19	9.6	88
47298	2023-12-28T16:49:19	9.6	88
47299	2023-12-28T16:59:18	9.6	88.5
47300	2023-12-28T17:09:18	9.7	88.5
47301	2023-12-28T17:19:18	9.7	88.5
47302	2023-12-28T17:29:18	9.6	89
47303	2023-12-28T17:39:18	9.4	91
47304	2023-12-28T17:49:18	9.3	91.5
47305	2023-12-28T17:59:18	9.2	93.5
47306	2023-12-28T18:09:18	9	95
47307	2023-12-28T18:19:18	8.8	96
47308	2023-12-28T18:29:18	8.9	97
47309	2023-12-28T18:39:18	8.9	98
47310	2023-12-28T18:49:18	8.8	98.5
47311	2023-12-28T18:59:18	8.8	99
47312	2023-12-28T19:19:18	8.9	98
47313	2023-12-28T19:29:18	9.1	97
47314	2023-12-28T19:39:18	9.2	93.5
47315	2023-12-28T19:49:18	9.5	91
47316	2023-12-28T19:59:18	9.6	89.5
47317	2023-12-28T20:09:18	9.7	88.5
47318	2023-12-28T20:19:18	9.8	88.5
47319	2023-12-28T20:29:18	9.9	89
47320	2023-12-28T20:39:18	9.9	88
47321	2023-12-28T20:49:18	9.9	88
47322	2023-12-28T20:59:18	9.7	87.5
47323	2023-12-28T21:09:18	10	86.5
47324	2023-12-28T21:19:18	9.9	86.5
47325	2023-12-28T21:29:18	9.8	85.5
47326	2023-12-28T21:39:18	9.8	85.5
47327	2023-12-28T21:49:18	9.9	84.5
47328	2023-12-28T21:59:18	9.9	84.5
47329	2023-12-28T22:09:18	9.8	85.5
47330	2023-12-28T22:19:18	10	85.5
47331	2023-12-28T22:29:18	9.9	86
47332	2023-12-28T22:39:18	10	85.5
47333	2023-12-28T22:49:18	10.1	85
47334	2023-12-28T22:59:18	10.2	85
47335	2023-12-28T23:09:18	10.3	84.5
47336	2023-12-28T23:19:18	10.2	84.5
47337	2023-12-28T23:29:18	10.4	84
47338	2023-12-28T23:39:18	10.3	84
47339	2023-12-28T23:49:18	10.4	83
47340	2023-12-28T23:59:18	10.5	83
47341	2023-12-29T00:09:18	10.6	82.5
47342	2023-12-29T00:19:18	10.5	83.5
47343	2023-12-29T00:29:18	10.4	83
47344	2023-12-29T00:39:18	10.1	85
47345	2023-12-29T00:49:18	10.3	84
47346	2023-12-29T00:59:18	10.3	82.5
47347	2023-12-29T01:09:18	10.3	83
47348	2023-12-29T01:19:18	10.2	82
47349	2023-12-29T01:29:18	10.1	82.5
47350	2023-12-29T01:39:18	10.2	82.5
47351	2023-12-29T01:49:18	10.2	82.5
47352	2023-12-29T01:59:18	10.1	82.5
47353	2023-12-29T02:09:18	10.1	82.5
47354	2023-12-29T02:19:18	10.1	82
47355	2023-12-29T02:29:18	10.2	82.5
47356	2023-12-29T02:39:18	10.1	83
47357	2023-12-29T02:49:18	10.1	83.5
47358	2023-12-29T02:59:18	10.1	84.5
47359	2023-12-29T03:09:18	10.3	84
47360	2023-12-29T03:19:18	10.2	84
47361	2023-12-29T03:29:18	10	85
47362	2023-12-29T03:39:18	10	85
47363	2023-12-29T03:49:18	9.4	90
47364	2023-12-29T03:59:18	9.4	89
47365	2023-12-29T04:09:18	9.6	88.5
47366	2023-12-29T04:19:18	9.7	88
47367	2023-12-29T04:29:18	9.8	87
47368	2023-12-29T04:39:18	9.9	86
47369	2023-12-29T04:49:18	9.9	87
47370	2023-12-29T04:59:18	9.9	87
47371	2023-12-29T05:09:18	9.9	88.5
47372	2023-12-29T05:19:18	9.8	88.5
47373	2023-12-29T05:29:18	9.7	88.5
47374	2023-12-29T05:39:18	9.9	88
47375	2023-12-29T05:49:18	9.9	87.5
47376	2023-12-29T05:59:18	9.9	87.5
47377	2023-12-29T06:09:18	9.8	88
47378	2023-12-29T06:19:18	9.8	88
47379	2023-12-29T06:29:18	9.9	88
47380	2023-12-29T06:39:18	9.8	88
47381	2023-12-29T06:49:18	9.7	88.5
47382	2023-12-29T06:59:18	9.9	88
47383	2023-12-29T07:09:18	10	88
47384	2023-12-29T07:19:18	10.1	87.5
47385	2023-12-29T07:29:18	10.1	87
47386	2023-12-29T07:39:18	10.1	87
47387	2023-12-29T07:49:18	10.1	86.5
47388	2023-12-29T07:59:18	10.2	86.5
47389	2023-12-29T08:09:18	10.2	86
47390	2023-12-29T08:19:18	10.3	86
47391	2023-12-29T08:29:18	10.4	85.5
47392	2023-12-29T08:39:18	10.5	85.5
47393	2023-12-29T08:49:18	10.6	85.5
47394	2023-12-29T08:59:18	10.6	85.5
47395	2023-12-29T09:09:18	10.8	85.5
47396	2023-12-29T09:19:18	10.6	85.5
47397	2023-12-29T09:29:18	10.5	86
47398	2023-12-29T09:39:18	10.6	85.5
47399	2023-12-29T09:49:18	10.9	85
47400	2023-12-29T09:59:18	11.1	84
47401	2023-12-29T10:09:18	11.5	82.5
47402	2023-12-29T10:19:18	11.5	82.5
47403	2023-12-29T10:29:18	11.7	81
47404	2023-12-29T10:39:18	11.9	79.5
47405	2023-12-29T10:49:17	12.1	78.5
47406	2023-12-29T10:59:17	12.3	76.5
47407	2023-12-29T11:09:17	12.2	76.5
47408	2023-12-29T11:19:17	12.5	75.5
47409	2023-12-29T11:29:17	12.4	75.5
47410	2023-12-29T11:39:17	12.3	76.5
47411	2023-12-29T11:49:17	12.2	77.5
47412	2023-12-29T11:59:17	12.3	78
47413	2023-12-29T12:09:17	12.7	77
47414	2023-12-29T12:19:17	12.7	76.5
47415	2023-12-29T12:29:17	12.7	77
47416	2023-12-29T12:39:17	12.7	76.5
47417	2023-12-29T12:49:17	12.5	77
47418	2023-12-29T12:59:17	12.4	78
47419	2023-12-29T13:09:17	12.5	75.5
47420	2023-12-29T13:19:17	12.5	71
47421	2023-12-29T13:29:17	12.5	69.5
47422	2023-12-29T13:39:17	12.6	68.5
47423	2023-12-29T13:49:17	12.6	67.5
47424	2023-12-29T13:59:17	12.5	67.5
47425	2023-12-29T14:09:17	12.4	65.5
47426	2023-12-29T14:19:17	12.4	65
47427	2023-12-29T14:29:17	12.3	66.5
47428	2023-12-29T14:39:17	12.2	67
47429	2023-12-29T14:49:17	12.1	69
47430	2023-12-29T14:59:17	12	69.5
47431	2023-12-29T15:09:17	11.9	69.5
47432	2023-12-29T15:19:17	11.8	68.5
47433	2023-12-29T15:29:17	11.6	68
47434	2023-12-29T15:39:17	11.6	67
47435	2023-12-29T15:49:17	11.7	67
47436	2023-12-29T15:59:17	11.7	66.5
47437	2023-12-29T16:09:17	11.6	66.5
47438	2023-12-29T16:19:17	11.6	66.5
47439	2023-12-29T16:29:17	11.6	65.5
47440	2023-12-29T16:39:17	11.5	65.5
47441	2023-12-29T16:49:17	11.5	65.5
47442	2023-12-29T16:59:17	11.5	66
47443	2023-12-29T17:09:17	11.2	66.5
47444	2023-12-29T17:19:17	11.2	67.5
47445	2023-12-29T17:29:17	11.2	67.5
47446	2023-12-29T17:39:17	11.2	67.5
47447	2023-12-29T17:49:17	11.3	68
47448	2023-12-29T17:59:17	11.2	68.5
47449	2023-12-29T18:09:17	11.2	68.5
47450	2023-12-29T18:19:17	11.1	69.5
47451	2023-12-29T18:29:17	11	70.5
47452	2023-12-29T18:39:17	10.9	71
47453	2023-12-29T18:49:17	11	70.5
47454	2023-12-29T18:59:17	11	69.5
47455	2023-12-29T19:09:17	11.2	68
47456	2023-12-29T19:19:17	11.2	66.5
47457	2023-12-29T19:29:17	11.2	65.5
47458	2023-12-29T19:39:17	11.3	65.5
47459	2023-12-29T19:49:17	11.4	66
47460	2023-12-29T19:59:17	11.3	66.5
47461	2023-12-29T20:09:17	11.4	67.5
47462	2023-12-29T20:19:17	11.4	67.5
47463	2023-12-29T20:29:17	11.2	67
47464	2023-12-29T20:39:17	11.1	67.5
47465	2023-12-29T20:49:17	11	68
47466	2023-12-29T20:59:17	11	68
47467	2023-12-29T21:09:17	10.8	68.5
47468	2023-12-29T21:19:17	10.8	69
47469	2023-12-29T21:29:17	10.7	69.5
47470	2023-12-29T21:39:17	10.7	70
47471	2023-12-29T21:49:17	10.6	70.5
47472	2023-12-29T21:59:17	10.7	71.5
47473	2023-12-29T22:09:17	10.6	73
47474	2023-12-29T22:19:17	10.5	74.5
47475	2023-12-29T22:29:17	10.1	82.5
47476	2023-12-29T22:39:17	9.8	81.5
47477	2023-12-29T22:49:17	9.8	82
47478	2023-12-29T22:59:17	9.8	80.5
47479	2023-12-29T23:09:17	10.1	79
47480	2023-12-29T23:19:17	10.2	77.5
47481	2023-12-29T23:29:17	10.3	77
47482	2023-12-29T23:39:17	10.4	76.5
47483	2023-12-29T23:49:17	10.4	76.5
47484	2023-12-29T23:59:17	10.4	76
47485	2023-12-30T00:09:17	10	81.5
47486	2023-12-30T00:19:17	9.3	88
47487	2023-12-30T00:29:17	8.8	94.5
47488	2023-12-30T00:39:17	8.5	98.5
47489	2023-12-30T00:49:17	8.3	99
47490	2023-12-30T00:59:17	8.3	100
47491	2023-12-30T01:09:17	8.2	100
47492	2023-12-30T01:19:17	8.2	100
47493	2023-12-30T01:29:17	8.2	100
47494	2023-12-30T01:39:17	8.1	100
47495	2023-12-30T01:49:17	8.2	100
47496	2023-12-30T01:59:17	8.1	100
47497	2023-12-30T02:09:17	8.1	100
47498	2023-12-30T02:19:17	8	100
47499	2023-12-30T02:29:17	8	100
47500	2023-12-30T02:39:17	8	100
47501	2023-12-30T02:49:17	8	100
47502	2023-12-30T02:59:17	8	100
47503	2023-12-30T03:09:17	8.1	100
47504	2023-12-30T03:19:17	8.1	99.5
47505	2023-12-30T03:29:16	8.2	99
47506	2023-12-30T03:39:16	8.1	98.5
47507	2023-12-30T03:49:16	8.2	98.5
47508	2023-12-30T03:59:16	8.3	99
47509	2023-12-30T04:09:16	8.3	97.5
47510	2023-12-30T04:19:16	8.2	97.5
47511	2023-12-30T04:29:16	8.4	97.5
47512	2023-12-30T04:39:16	8.5	96.5
47513	2023-12-30T04:49:16	8.5	92
47514	2023-12-30T04:59:16	8.6	92
47515	2023-12-30T05:09:16	8.7	91.5
47516	2023-12-30T05:19:16	8.7	92
47517	2023-12-30T05:29:16	8.7	92
47518	2023-12-30T05:39:16	8.6	93
47519	2023-12-30T05:49:16	8.5	93.5
47520	2023-12-30T05:59:16	8.5	93.5
47521	2023-12-30T06:09:16	8.4	93.5
47522	2023-12-30T06:19:16	8.5	93.5
47523	2023-12-30T06:29:16	8.4	94.5
47524	2023-12-30T06:39:16	8.2	95.5
47525	2023-12-30T06:49:16	8.2	95.5
47526	2023-12-30T06:59:16	8	100
47527	2023-12-30T07:09:16	7.9	100
47528	2023-12-30T07:19:16	8	100
47529	2023-12-30T07:29:16	7.9	100
47530	2023-12-30T07:39:16	7.8	100
47531	2023-12-30T07:49:16	7.9	100
47532	2023-12-30T07:59:16	8	100
47533	2023-12-30T08:09:16	8.2	100
47534	2023-12-30T08:19:16	8.2	100
47535	2023-12-30T08:29:16	8.3	100
47536	2023-12-30T08:39:16	8.5	100
47537	2023-12-30T08:49:16	8.5	100
47538	2023-12-30T08:59:16	8.6	100
47539	2023-12-30T09:09:16	8.7	100
47540	2023-12-30T09:19:16	8.7	100
47541	2023-12-30T09:29:16	8.8	100
47542	2023-12-30T09:39:16	9	100
47543	2023-12-30T09:49:16	9.2	98.5
47544	2023-12-30T09:59:16	9.3	98
47545	2023-12-30T10:09:16	9.2	97
47546	2023-12-30T10:19:16	9.4	97
47547	2023-12-30T10:29:16	9.5	96.5
47548	2023-12-30T10:39:16	9.8	92.5
47549	2023-12-30T10:49:16	10.1	80.5
47550	2023-12-30T10:59:16	10.3	76.5
47551	2023-12-30T11:09:16	10.5	77.5
47552	2023-12-30T11:19:16	10.7	76.5
47553	2023-12-30T11:29:16	10.9	75.5
47554	2023-12-30T11:39:16	11.6	72
47555	2023-12-30T11:49:16	11.8	70.5
47556	2023-12-30T11:59:16	11.8	72
47557	2023-12-30T12:09:16	11.9	70.5
47558	2023-12-30T12:19:16	11.9	72
47559	2023-12-30T12:29:16	12	72
47560	2023-12-30T12:49:16	12	71
47561	2023-12-30T12:59:16	11.8	72
47562	2023-12-30T13:09:16	11.8	72.5
47563	2023-12-30T13:19:16	11.9	72.5
47564	2023-12-30T13:29:16	11.9	73
47565	2023-12-30T13:39:16	12.2	71.5
47566	2023-12-30T13:49:16	12.8	70.5
47567	2023-12-30T13:59:16	13.6	67.5
47568	2023-12-30T14:09:16	13	68.5
47569	2023-12-30T14:19:16	12.5	71
47570	2023-12-30T14:29:16	12.2	74
47571	2023-12-30T14:39:16	11.9	75
47572	2023-12-30T14:49:16	12	80.5
47573	2023-12-30T14:59:16	11.8	77.5
47574	2023-12-30T15:09:16	11.7	78
47575	2023-12-30T15:19:16	11.6	80
47576	2023-12-30T15:29:16	11.5	82.5
47577	2023-12-30T15:39:16	11.5	86
47578	2023-12-30T15:49:16	11.4	83.5
47579	2023-12-30T15:59:16	11.4	84.5
47580	2023-12-30T16:09:16	11.2	85.5
47581	2023-12-30T16:19:16	11.1	86.5
47582	2023-12-30T16:29:16	11	86
47583	2023-12-30T16:39:16	10.7	87
47584	2023-12-30T16:49:16	10.4	86.5
47585	2023-12-30T16:59:16	10.3	88
47586	2023-12-30T17:19:16	10.3	88
47587	2023-12-30T17:29:16	10.4	86
47588	2023-12-30T17:39:16	10.2	85
47589	2023-12-30T17:49:16	10.2	86.5
47590	2023-12-30T17:59:16	10	87.5
47591	2023-12-30T18:09:16	10	86
47592	2023-12-30T18:19:16	10	84.5
47593	2023-12-30T18:29:16	9.9	86
47594	2023-12-30T18:39:16	9.8	86
47595	2023-12-30T18:49:16	9.7	87
47596	2023-12-30T18:59:16	9.4	88
47597	2023-12-30T19:09:16	9.3	88.5
47598	2023-12-30T19:19:16	9.1	88.5
47599	2023-12-30T19:29:16	8.9	87.5
47600	2023-12-30T19:39:16	8.8	89
47601	2023-12-30T19:49:16	8.5	89.5
47602	2023-12-30T19:59:16	8.4	88
47603	2023-12-30T20:09:16	8.2	88
47604	2023-12-30T20:19:16	8	89.5
47605	2023-12-30T20:29:16	7.9	90
47606	2023-12-30T20:39:16	7.7	88
47607	2023-12-30T20:49:16	7.6	90
47608	2023-12-30T20:59:16	7.5	89
47609	2023-12-30T21:09:16	7.3	88
47610	2023-12-30T21:19:16	7.2	88.5
47611	2023-12-30T21:29:16	7.2	88
47612	2023-12-30T21:39:16	7.1	89
47613	2023-12-30T21:49:16	6.9	89
47614	2023-12-30T21:59:16	6.8	89.5
47615	2023-12-30T22:09:16	6.7	89
47616	2023-12-30T22:19:15	6.5	88.5
47617	2023-12-30T22:29:15	6.5	89.5
47618	2023-12-30T22:39:15	6.2	89
47619	2023-12-30T22:49:15	6.1	89.5
47620	2023-12-30T22:59:16	6	89.5
47621	2023-12-30T23:09:16	5.8	89
47622	2023-12-30T23:19:15	5.8	90.5
47623	2023-12-30T23:29:15	5.7	90
47624	2023-12-30T23:39:15	5.5	88.5
47625	2023-12-30T23:49:15	5.5	89.5
47626	2023-12-30T23:59:15	5.4	87.5
47627	2023-12-31T00:09:15	5.2	90
47628	2023-12-31T00:19:15	5.3	89
47629	2023-12-31T00:29:15	5.1	89
47630	2023-12-31T00:39:15	5.1	90.5
47631	2023-12-31T00:49:15	5.1	90.5
47632	2023-12-31T00:59:15	5.1	90.5
47633	2023-12-31T01:09:15	5	90.5
47634	2023-12-31T01:19:15	4.8	90
47635	2023-12-31T01:29:15	4.8	90.5
47636	2023-12-31T01:39:15	4.8	89
47637	2023-12-31T01:49:15	4.7	90
47638	2023-12-31T01:59:15	4.7	89
47639	2023-12-31T02:09:15	4.8	87.5
47640	2023-12-31T02:19:15	4.7	87.5
47641	2023-12-31T02:29:15	4.8	88.5
47642	2023-12-31T02:39:15	4.6	87.5
47643	2023-12-31T02:49:15	4.7	89
47644	2023-12-31T02:59:15	4.8	90
47645	2023-12-31T03:09:15	4.8	88.5
47646	2023-12-31T03:19:15	4.9	90
47647	2023-12-31T03:29:15	4.8	89.5
47648	2023-12-31T03:39:15	4.7	89.5
47649	2023-12-31T03:49:15	4.6	90.5
47650	2023-12-31T03:59:15	4.7	90
47651	2023-12-31T04:09:15	4.6	91
47652	2023-12-31T04:19:15	4.6	90.5
47653	2023-12-31T04:29:15	4.6	91
47654	2023-12-31T04:39:16	4.7	91
47655	2023-12-31T04:49:16	4.7	90.5
47656	2023-12-31T04:59:15	4.7	91.5
47657	2023-12-31T05:09:15	4.6	92
47658	2023-12-31T05:19:15	4.5	91.5
47659	2023-12-31T05:29:15	4.4	89
47660	2023-12-31T05:39:15	4	91
47661	2023-12-31T05:49:15	4.2	92
47662	2023-12-31T05:59:15	4.2	91.5
47663	2023-12-31T06:09:15	4.3	93
47664	2023-12-31T06:19:15	4.3	92.5
47665	2023-12-31T06:29:15	4.3	92.5
47666	2023-12-31T06:39:15	4.3	93
47667	2023-12-31T06:49:15	4.4	93
47668	2023-12-31T06:59:15	4.3	92.5
47669	2023-12-31T07:09:15	4.3	92.5
47670	2023-12-31T07:19:15	4.4	92
47671	2023-12-31T07:29:15	4.4	93
47672	2023-12-31T07:39:15	4.6	92.5
47673	2023-12-31T07:49:16	4.5	92.5
47674	2023-12-31T07:59:15	4.5	92.5
47675	2023-12-31T08:09:15	4.6	93.5
47676	2023-12-31T08:19:15	4.5	92.5
47677	2023-12-31T08:29:15	4.7	93
47678	2023-12-31T08:39:15	4.9	93.5
47679	2023-12-31T08:49:15	5	93.5
47680	2023-12-31T08:59:15	5.2	93
47681	2023-12-31T09:09:15	5.6	93
47682	2023-12-31T09:19:15	5.8	92.5
47683	2023-12-31T09:29:15	6	93.5
47684	2023-12-31T09:39:15	6.2	93
47685	2023-12-31T09:49:15	6.3	93.5
47686	2023-12-31T09:59:15	6.5	93
47687	2023-12-31T10:09:15	6.8	92.5
47688	2023-12-31T10:19:15	7.3	88.5
47689	2023-12-31T10:29:15	9	79.5
47690	2023-12-31T10:39:15	7.8	95.5
47691	2023-12-31T10:49:15	6.8	100
47692	2023-12-31T10:59:15	6.8	100
47693	2023-12-31T11:09:15	6.9	100
47694	2023-12-31T11:19:15	7	100
47695	2023-12-31T11:29:15	7.1	100
47696	2023-12-31T11:39:15	7.3	100
47697	2023-12-31T11:49:15	7.3	100
47698	2023-12-31T11:59:36	7.4	100
47699	2023-12-31T12:09:15	7.4	100
47700	2023-12-31T12:19:15	7.2	100
47701	2023-12-31T12:29:15	7.3	100
47702	2023-12-31T12:39:15	7.2	100
47703	2023-12-31T12:49:15	7.2	100
47704	2023-12-31T12:59:15	7.3	100
47705	2023-12-31T13:09:15	7.2	100
47706	2023-12-31T13:19:15	7.2	100
47707	2023-12-31T13:29:15	7.3	100
47708	2023-12-31T13:39:15	7.4	100
47709	2023-12-31T13:49:15	7.4	100
47710	2023-12-31T13:59:15	7.5	100
47711	2023-12-31T14:09:15	7.5	100
47712	2023-12-31T14:19:15	7.5	100
47713	2023-12-31T14:29:15	7.5	100
47714	2023-12-31T14:39:15	7.6	100
47715	2023-12-31T14:49:15	7.7	100
47716	2023-12-31T14:59:15	7.6	100
47717	2023-12-31T15:09:15	7.7	100
47718	2023-12-31T15:19:15	7.7	100
47719	2023-12-31T15:29:15	7.8	98
47720	2023-12-31T15:39:15	7.7	98
47721	2023-12-31T15:49:15	7.5	99
47722	2023-12-31T15:59:15	7.3	98.5
47723	2023-12-31T16:09:15	7.3	98.5
47724	2023-12-31T16:19:15	7.3	97.5
47725	2023-12-31T16:29:15	7.2	98.5
47726	2023-12-31T16:39:15	7	98.5
47727	2023-12-31T16:49:15	7	98.5
47728	2023-12-31T16:59:15	7.1	97.5
47729	2023-12-31T17:09:15	7.2	97
47730	2023-12-31T17:19:15	7.3	92.5
47731	2023-12-31T17:29:15	7.4	82.5
47732	2023-12-31T17:39:15	7.6	80.5
47733	2023-12-31T17:49:15	7.6	79.5
47734	2023-12-31T17:59:15	7.6	79.5
47735	2023-12-31T18:09:15	7.7	78
47736	2023-12-31T18:19:15	7.5	79.5
47737	2023-12-31T18:29:15	7.5	79
47738	2023-12-31T18:49:15	7.5	77.5
47739	2023-12-31T18:59:15	7.8	77.5
47740	2023-12-31T19:09:15	7.2	88
47741	2023-12-31T19:19:15	6.5	96.5
47742	2023-12-31T19:29:15	6.2	98
47743	2023-12-31T19:39:15	6.2	98.5
47744	2023-12-31T19:49:15	6.3	96.5
47745	2023-12-31T19:59:15	6.6	95
47746	2023-12-31T20:09:15	6.9	89
47747	2023-12-31T20:19:15	7.1	86
47748	2023-12-31T20:29:15	7	85.5
47749	2023-12-31T20:39:15	7.1	84.5
47750	2023-12-31T20:49:15	6.9	85
47751	2023-12-31T20:59:15	7	83.5
47752	2023-12-31T21:09:15	7	83
47753	2023-12-31T21:19:15	7	81.5
47754	2023-12-31T21:29:15	7.2	81
47755	2023-12-31T21:39:15	7.2	81
47756	2023-12-31T21:59:15	7.2	80
47757	2023-12-31T22:09:15	7.3	78.5
47758	2023-12-31T22:19:15	7.4	77.5
47759	2023-12-31T22:29:15	7.4	77.5
47760	2023-12-31T22:39:15	7.6	77.5
47761	2023-12-31T22:49:15	7.5	76
47762	2023-12-31T22:59:15	7.7	75.5
47763	2023-12-31T23:09:15	7.8	75.5
47764	2023-12-31T23:19:15	7.6	78
47765	2023-12-31T23:29:15	7.6	77.5
47766	2023-12-31T23:39:15	7.8	77.5
47767	2023-12-31T23:49:15	7.8	77.5
47768	2023-12-31T23:59:15	7.9	77.5
47769	2024-01-01T00:09:15	7.8	78
47770	2024-01-01T00:19:14	7.9	77.5
47771	2024-01-01T00:29:15	7.9	77.5
47772	2024-01-01T00:39:14	8.2	78
47773	2024-01-01T00:49:14	7.9	79
47774	2024-01-01T00:59:14	7.9	79.5
47775	2024-01-01T01:09:14	7.9	79
47776	2024-01-01T01:19:14	7.5	84
47777	2024-01-01T01:29:14	7.2	83.5
47778	2024-01-01T01:39:14	7.3	81
47779	2024-01-01T01:49:14	7.6	78.5
47780	2024-01-01T01:59:14	7.8	77.5
47781	2024-01-01T02:09:15	7.8	78
47782	2024-01-01T02:19:14	8	78
47783	2024-01-01T02:29:14	7.9	78.5
47784	2024-01-01T02:39:14	7.9	79.5
47785	2024-01-01T02:49:14	7.7	79
47786	2024-01-01T02:59:14	7.8	79.5
47787	2024-01-01T03:09:14	7.9	79
47788	2024-01-01T03:19:14	7.5	81.5
47789	2024-01-01T03:29:14	7.6	79.5
47790	2024-01-01T03:39:14	7.8	78.5
47791	2024-01-01T03:49:14	7.9	78
47792	2024-01-01T03:59:14	7.9	77
47793	2024-01-01T04:09:14	8	75.5
47794	2024-01-01T04:19:14	7.9	74
47795	2024-01-01T04:29:14	7.9	74.5
47796	2024-01-01T04:39:14	8	74.5
47797	2024-01-01T04:49:14	8	74.5
47798	2024-01-01T04:59:14	8	74
47799	2024-01-01T05:09:14	8	73.5
47800	2024-01-01T05:19:14	8.1	73
47801	2024-01-01T05:29:14	8.2	72
47802	2024-01-01T05:39:14	8.3	72
47803	2024-01-01T05:49:14	8.1	72
47804	2024-01-01T05:59:14	8.2	71.5
47805	2024-01-01T06:09:14	8.1	72
47806	2024-01-01T06:19:14	8	72.5
47807	2024-01-01T06:29:14	7.8	73.5
47808	2024-01-01T06:39:14	7.7	73.5
47809	2024-01-01T06:49:14	7.6	74
47810	2024-01-01T06:59:14	7.5	74.5
47811	2024-01-01T07:09:14	7.6	74
47812	2024-01-01T07:19:14	7.7	74
47813	2024-01-01T07:29:14	7.7	73.5
47814	2024-01-01T07:39:14	7.8	74.5
47815	2024-01-01T07:49:14	7.8	74.5
47816	2024-01-01T07:59:14	7.8	75
47817	2024-01-01T08:09:14	7.7	75
47818	2024-01-01T08:19:14	7.9	74.5
47819	2024-01-01T08:29:14	8.1	73.5
47820	2024-01-01T08:39:14	8.3	72.5
47821	2024-01-01T08:49:14	8.3	71.5
47822	2024-01-01T08:59:14	8.4	73
47823	2024-01-01T09:09:15	8.3	73
47824	2024-01-01T09:19:14	8.3	72.5
47825	2024-01-01T09:29:14	8.3	72
47826	2024-01-01T09:39:14	8.4	72
47827	2024-01-01T09:49:14	8.7	70.5
47828	2024-01-01T09:59:14	9	69.5
47829	2024-01-01T10:09:14	8.7	74.5
47830	2024-01-01T10:19:14	8.2	87
47831	2024-01-01T10:29:14	6.7	94.5
47832	2024-01-01T10:39:14	7	90
47833	2024-01-01T10:49:14	7.5	82.5
47834	2024-01-01T10:59:14	7.7	78
47835	2024-01-01T11:09:14	7.8	78.5
47836	2024-01-01T11:19:14	7.9	77.5
47837	2024-01-01T11:29:14	8.2	76.5
47838	2024-01-01T11:39:14	8.2	76.5
47839	2024-01-01T11:49:14	8.4	77
47840	2024-01-01T11:59:14	8.5	76.5
47841	2024-01-01T12:09:14	8.6	74.5
47842	2024-01-01T12:19:14	8.7	75
47843	2024-01-01T12:29:14	8.8	74
47844	2024-01-01T12:39:14	8.9	74
47845	2024-01-01T12:49:14	8.9	74.5
47846	2024-01-01T12:59:14	9.1	74
47847	2024-01-01T13:09:14	9.2	73.5
47848	2024-01-01T13:19:14	9.7	71.5
47849	2024-01-01T13:29:14	9.6	72.5
47850	2024-01-01T13:39:14	9.8	70.5
47851	2024-01-01T13:49:14	9.7	71
47852	2024-01-01T13:59:14	9.4	71.5
47853	2024-01-01T14:09:14	9.4	71
47854	2024-01-01T14:19:14	9.3	70.5
47855	2024-01-01T14:29:14	9.3	70.5
47856	2024-01-01T14:39:14	9.2	70
47857	2024-01-01T14:49:14	9.2	70.5
47858	2024-01-01T14:59:14	9.1	70
47859	2024-01-01T15:09:14	9.2	69
47860	2024-01-01T15:19:14	9.2	69.5
47861	2024-01-01T15:29:14	9	69
47862	2024-01-01T15:39:14	9	67.5
47863	2024-01-01T15:49:14	9	67.5
47864	2024-01-01T15:59:14	8.9	68.5
47865	2024-01-01T16:09:14	8.8	70.5
47866	2024-01-01T16:19:14	8.9	71.5
47867	2024-01-01T16:29:14	8.8	72
47868	2024-01-01T16:39:14	8.7	72
47869	2024-01-01T16:49:14	8.7	71.5
47870	2024-01-01T16:59:14	8.6	70
47871	2024-01-01T17:09:14	8.6	69.5
47872	2024-01-01T17:19:14	8.6	69
47873	2024-01-01T17:29:14	8.7	67.5
47874	2024-01-01T17:39:14	8.6	67
47875	2024-01-01T17:49:14	8.6	66
47876	2024-01-01T17:59:14	8.6	65.5
47877	2024-01-01T18:09:14	8.6	66
47878	2024-01-01T18:19:14	8.7	65.5
47879	2024-01-01T18:29:14	8.7	65
47880	2024-01-01T18:39:14	8.7	65
47881	2024-01-01T18:49:14	8.7	65.5
47882	2024-01-01T18:59:14	8.7	65
47883	2024-01-01T19:09:14	8.8	64.5
47884	2024-01-01T19:19:14	8.9	65
47885	2024-01-01T19:29:14	8.8	65.5
47886	2024-01-01T19:39:14	8.8	66
47887	2024-01-01T19:49:14	8.8	66
47888	2024-01-01T19:59:14	8.8	66
47889	2024-01-01T20:09:14	8.7	66
47890	2024-01-01T20:19:13	8.7	67
47891	2024-01-01T20:29:13	8.7	68
47892	2024-01-01T20:39:14	8.8	68.5
47893	2024-01-01T20:49:13	8.7	69
47894	2024-01-01T20:59:13	8.6	70
47895	2024-01-01T21:09:13	8.6	71
47896	2024-01-01T21:19:13	8.6	70.5
47897	2024-01-01T21:29:13	8.7	71
47898	2024-01-01T21:39:33	8.6	71
47899	2024-01-01T21:49:14	8.6	70.5
47900	2024-01-01T21:59:13	8.6	70.5
47901	2024-01-01T22:09:13	8.7	71
47902	2024-01-01T22:19:13	8.7	71.5
47903	2024-01-01T22:29:13	8.5	72
47904	2024-01-01T22:39:13	8.7	72.5
47905	2024-01-01T22:49:13	8.6	72.5
47906	2024-01-01T22:59:13	8.7	73
47907	2024-01-01T23:09:13	8.6	73
47908	2024-01-01T23:19:13	8.6	73.5
47909	2024-01-01T23:29:13	8.6	73
47910	2024-01-01T23:39:13	8.7	72.5
47911	2024-01-01T23:59:13	8.8	72
47912	2024-01-02T00:09:13	8.9	72
47913	2024-01-02T00:19:13	8.9	71.5
47914	2024-01-02T00:29:13	8.9	71
47915	2024-01-02T00:39:13	9.1	69.5
47916	2024-01-02T00:49:13	9.2	69.5
47917	2024-01-02T00:59:13	9.3	69
47918	2024-01-02T01:09:13	9.2	70.5
47919	2024-01-02T01:19:13	9.1	73
47920	2024-01-02T01:29:13	8.3	84.5
47921	2024-01-02T01:39:13	8.1	82
47922	2024-01-02T01:49:13	8.1	84.5
47923	2024-01-02T01:59:13	8	82.5
47924	2024-01-02T02:09:13	7.8	86.5
47925	2024-01-02T02:19:13	7.8	87
47926	2024-01-02T02:29:13	7.3	96
47927	2024-01-02T02:39:13	7.2	97
47928	2024-01-02T02:49:13	7.1	99
47929	2024-01-02T02:59:13	7	99
47930	2024-01-02T03:09:13	7	100
47931	2024-01-02T03:19:13	6.9	100
47932	2024-01-02T03:29:13	6.9	100
47933	2024-01-02T03:39:13	6.8	100
47934	2024-01-02T03:49:13	6.8	100
47935	2024-01-02T03:59:13	6.7	100
47936	2024-01-02T04:09:14	6.7	100
47937	2024-01-02T04:19:13	6.7	100
47938	2024-01-02T04:29:13	6.8	100
47939	2024-01-02T04:39:13	6.8	100
47940	2024-01-02T04:49:13	6.8	100
47941	2024-01-02T04:59:13	6.9	100
47942	2024-01-02T05:09:13	6.9	100
47943	2024-01-02T05:19:13	6.8	100
47944	2024-01-02T05:29:13	6.8	100
47945	2024-01-02T05:39:13	6.9	100
47946	2024-01-02T05:49:13	7	100
47947	2024-01-02T05:59:13	7	100
47948	2024-01-02T06:09:13	7.1	100
47949	2024-01-02T06:19:13	7.2	100
47950	2024-01-02T06:29:13	7.3	100
47951	2024-01-02T06:39:14	7.3	100
47952	2024-01-02T06:49:29	7.4	100
47953	2024-01-02T06:59:13	7.4	100
47954	2024-01-02T07:09:13	7.5	100
47955	2024-01-02T07:19:13	7.6	100
47956	2024-01-02T07:29:13	7.6	100
47957	2024-01-02T07:39:13	7.6	100
47958	2024-01-02T07:49:13	7.7	100
47959	2024-01-02T07:59:13	7.6	100
47960	2024-01-02T08:09:13	7.6	100
47961	2024-01-02T08:19:13	7.6	100
47962	2024-01-02T08:29:13	7.7	100
47963	2024-01-02T08:39:13	7.9	100
47964	2024-01-02T08:49:13	7.9	100
47965	2024-01-02T08:59:13	7.9	100
47966	2024-01-02T09:09:13	8.1	100
47967	2024-01-02T09:19:13	8.1	100
47968	2024-01-02T09:29:14	8.1	100
47969	2024-01-02T09:39:13	8.2	100
47970	2024-01-02T09:49:13	8.2	100
47971	2024-01-02T09:59:13	8.1	100
47972	2024-01-02T10:09:13	8.2	100
47973	2024-01-02T10:19:13	8.3	100
47974	2024-01-02T10:29:13	8.2	100
47975	2024-01-02T10:39:13	8.2	100
47976	2024-01-02T10:49:13	8.4	100
47977	2024-01-02T10:59:13	8.4	100
47978	2024-01-02T11:09:13	8.5	100
47979	2024-01-02T11:19:13	8.6	100
47980	2024-01-02T11:29:13	8.6	100
47981	2024-01-02T11:39:13	8.7	100
47982	2024-01-02T11:49:13	8.7	100
47983	2024-01-02T11:59:13	8.7	100
47984	2024-01-02T12:09:13	8.7	100
47985	2024-01-02T12:19:13	8.6	100
47986	2024-01-02T12:29:13	8.8	100
47987	2024-01-02T12:39:13	8.6	100
47988	2024-01-02T12:49:13	8.6	100
47989	2024-01-02T12:59:13	8.8	100
47990	2024-01-02T13:09:13	8.6	100
47991	2024-01-02T13:19:13	8.7	100
47992	2024-01-02T13:29:13	8.7	100
47993	2024-01-02T13:39:13	8.7	100
47994	2024-01-02T13:49:13	8.7	100
47995	2024-01-02T13:59:13	8.7	100
47996	2024-01-02T14:09:13	8.7	100
47997	2024-01-02T14:19:13	8.7	100
47998	2024-01-02T14:29:13	8.7	100
47999	2024-01-02T14:39:13	8.8	100
48000	2024-01-02T14:49:13	8.8	100
48001	2024-01-02T14:59:13	8.8	100
48002	2024-01-02T15:09:13	8.8	100
48003	2024-01-02T15:19:13	8.8	100
48004	2024-01-02T15:29:13	8.8	100
48005	2024-01-02T15:39:13	8.8	100
48006	2024-01-02T15:49:13	8.8	100
48007	2024-01-02T15:59:13	8.8	100
48008	2024-01-02T16:09:13	8.8	100
48009	2024-01-02T16:19:13	8.8	100
48010	2024-01-02T16:29:13	8.8	100
48011	2024-01-02T16:39:13	9	100
48012	2024-01-02T16:49:12	9	100
48013	2024-01-02T16:59:13	9.1	100
48014	2024-01-02T17:09:13	9	100
48015	2024-01-02T17:19:12	9.1	100
48016	2024-01-02T17:29:12	9.1	100
48017	2024-01-02T17:39:12	9.2	100
48018	2024-01-02T17:49:12	9.2	100
48019	2024-01-02T17:59:12	9.3	100
48020	2024-01-02T18:09:12	9.3	100
48021	2024-01-02T18:19:12	9.5	100
48022	2024-01-02T18:29:12	9.4	100
48023	2024-01-02T18:39:12	9.5	100
48024	2024-01-02T18:49:12	9.6	100
48025	2024-01-02T18:59:12	9.6	100
48026	2024-01-02T19:09:12	9.7	100
48027	2024-01-02T19:19:12	9.6	100
48028	2024-01-02T19:29:12	9.7	100
48029	2024-01-02T19:39:12	9.6	100
48030	2024-01-02T19:49:12	9.5	100
48031	2024-01-02T19:59:12	9.5	100
48032	2024-01-02T20:09:13	9.5	100
48033	2024-01-02T20:19:12	9.4	100
48034	2024-01-02T20:29:12	9.4	100
48035	2024-01-02T20:39:12	9.9	100
48036	2024-01-02T20:49:12	10	100
48037	2024-01-02T20:59:12	9.8	100
48038	2024-01-02T21:09:12	9.4	100
48039	2024-01-02T21:19:12	9.3	100
48040	2024-01-02T21:29:12	9.3	100
48041	2024-01-02T21:39:12	9.3	100
48042	2024-01-02T21:49:12	9.4	100
48043	2024-01-02T21:59:12	9.4	100
48044	2024-01-02T22:09:12	9.5	100
48045	2024-01-02T22:19:12	9.7	100
48046	2024-01-02T22:29:12	9.7	100
48047	2024-01-02T22:39:12	9.8	100
48048	2024-01-02T22:49:12	9.3	100
48049	2024-01-02T22:59:12	9.4	100
48050	2024-01-02T23:09:12	9.7	100
48051	2024-01-02T23:19:12	9.5	100
48052	2024-01-02T23:29:12	9.5	100
48053	2024-01-02T23:39:12	9.3	100
48054	2024-01-02T23:49:12	9.3	100
48055	2024-01-02T23:59:12	9.3	100
48056	2024-01-03T00:09:12	9.4	100
48057	2024-01-03T00:19:12	9.6	100
48058	2024-01-03T00:29:12	9.8	100
48059	2024-01-03T00:39:12	9.9	100
48060	2024-01-03T00:49:12	9.9	100
48061	2024-01-03T00:59:12	10	100
48062	2024-01-03T01:09:12	10.1	100
48063	2024-01-03T01:19:12	10.1	100
48064	2024-01-03T01:29:12	10.1	100
48065	2024-01-03T01:39:12	9.5	100
48066	2024-01-03T01:49:12	9.2	100
48067	2024-01-03T01:59:12	9.6	100
48068	2024-01-03T02:09:12	9.8	100
48069	2024-01-03T02:19:12	9.8	100
48070	2024-01-03T02:29:12	9.9	100
48071	2024-01-03T02:39:12	10.1	100
48072	2024-01-03T02:49:12	10.1	100
48073	2024-01-03T02:59:12	10.2	100
48074	2024-01-03T03:09:12	10.2	100
48075	2024-01-03T03:19:12	10.4	100
48076	2024-01-03T03:29:12	10.4	99.5
48077	2024-01-03T03:39:12	10.5	99.5
48078	2024-01-03T03:49:12	10.4	100
48079	2024-01-03T03:59:12	10.5	99
48080	2024-01-03T04:09:12	10.5	99.5
48081	2024-01-03T04:19:12	10.5	99
48082	2024-01-03T04:29:12	10.5	99.5
48083	2024-01-03T04:49:12	9.6	100
48084	2024-01-03T04:59:12	9.6	100
48085	2024-01-03T05:09:12	9.9	100
48086	2024-01-03T05:19:12	10.1	87
48087	2024-01-03T05:29:12	10.3	82.5
48088	2024-01-03T05:39:12	10.4	82.5
48089	2024-01-03T05:49:12	10.5	81.5
48090	2024-01-03T05:59:12	10.5	81.5
48091	2024-01-03T06:09:12	10.5	82.5
48092	2024-01-03T06:19:12	10.6	82.5
48093	2024-01-03T06:29:12	10.5	83
48094	2024-01-03T06:39:12	10.6	82
48095	2024-01-03T06:49:12	10.8	81.5
48096	2024-01-03T06:59:12	10.9	79.5
48097	2024-01-03T07:09:12	10.8	85.5
48098	2024-01-03T07:19:12	10.4	82.5
48099	2024-01-03T07:29:12	10.5	80.5
48100	2024-01-03T07:39:12	11	77.5
48101	2024-01-03T07:49:12	11.2	77
48102	2024-01-03T07:59:12	11.4	76
48103	2024-01-03T08:09:12	11.4	77.5
48104	2024-01-03T08:19:12	11.3	77.5
48105	2024-01-03T08:29:12	11.6	76.5
48106	2024-01-03T08:39:12	11.5	76.5
48107	2024-01-03T08:49:12	11.6	75.5
48108	2024-01-03T08:59:12	11.6	74.5
48109	2024-01-03T09:09:12	11.7	75.5
48110	2024-01-03T09:19:12	11.6	77
48111	2024-01-03T09:29:12	11.6	75.5
48112	2024-01-03T09:39:12	11.4	77
48113	2024-01-03T09:49:12	10.8	89
48114	2024-01-03T09:59:12	10	91
48115	2024-01-03T10:09:12	9.5	95
48116	2024-01-03T10:19:12	9.3	99
48117	2024-01-03T10:29:12	9.3	98.5
48118	2024-01-03T10:39:12	9.6	93.5
48119	2024-01-03T10:49:11	10.1	90
48120	2024-01-03T10:59:11	10.5	86.5
48121	2024-01-03T11:09:11	10.7	84.5
48122	2024-01-03T11:19:11	10.8	84
48123	2024-01-03T11:29:11	11.1	83
48124	2024-01-03T11:39:11	11.1	81.5
48125	2024-01-03T11:49:11	11	82
48126	2024-01-03T11:59:11	10.9	85
48127	2024-01-03T12:09:11	9.6	96
48128	2024-01-03T12:19:11	9.5	99
48129	2024-01-03T12:29:11	10	93.5
48130	2024-01-03T12:39:11	10.3	94
48131	2024-01-03T12:49:11	10.6	88
48132	2024-01-03T12:59:11	10.8	85
48133	2024-01-03T13:09:11	11	83.5
48134	2024-01-03T13:19:11	10.4	91
48135	2024-01-03T13:29:11	10	91
48136	2024-01-03T13:39:11	10.5	86
48137	2024-01-03T13:49:11	10.7	83.5
48138	2024-01-03T13:59:11	10.3	87
48139	2024-01-03T14:09:11	10.3	86
48140	2024-01-03T14:19:11	10.6	84.5
48141	2024-01-03T14:29:11	10.7	83.5
48142	2024-01-03T14:39:11	11.5	81
48143	2024-01-03T14:49:11	11.2	79.5
48144	2024-01-03T14:59:11	11.1	78.5
48145	2024-01-03T15:09:11	11.2	80
48146	2024-01-03T15:19:11	11	80
48147	2024-01-03T15:29:11	11	79.5
48148	2024-01-03T15:39:11	11.3	77
48149	2024-01-03T15:49:11	11.3	80.5
48150	2024-01-03T15:59:11	10.5	85
48151	2024-01-03T16:09:11	9.5	95.5
48152	2024-01-03T16:19:11	9.2	97.5
48153	2024-01-03T16:29:11	9	98.5
48154	2024-01-03T16:39:11	8.9	98
48155	2024-01-03T16:49:11	8.8	100
48156	2024-01-03T16:59:11	8.8	100
48157	2024-01-03T17:09:11	8.9	100
48158	2024-01-03T17:19:11	8.8	100
48159	2024-01-03T17:29:11	8.4	100
48160	2024-01-03T17:39:11	8.3	99
48161	2024-01-03T17:49:32	8.2	99
48162	2024-01-03T17:59:11	8.1	98
48163	2024-01-03T18:09:11	8.2	98
48164	2024-01-03T18:19:11	8.2	98
48165	2024-01-03T18:29:11	8.1	98
48166	2024-01-03T18:39:11	8.1	97.5
48167	2024-01-03T18:49:11	8.2	96.5
48168	2024-01-03T19:09:11	8.6	96
48169	2024-01-03T19:19:11	8.5	95.5
48170	2024-01-03T19:29:11	8.7	95
48171	2024-01-03T19:39:11	8.1	95
48172	2024-01-03T19:49:11	7.8	95
48173	2024-01-03T19:59:11	8	95
48174	2024-01-03T20:09:11	8	95
48175	2024-01-03T20:19:11	8.2	95
48176	2024-01-03T20:29:11	8	95
48177	2024-01-03T20:39:11	8.2	95
48178	2024-01-03T20:49:11	8.3	95
48179	2024-01-03T20:59:11	8.6	95
48180	2024-01-03T21:09:11	8.8	95
48181	2024-01-03T21:19:11	8.9	95
48182	2024-01-03T21:29:11	9.1	95
48183	2024-01-03T21:39:11	9.2	95
48184	2024-01-03T21:49:11	9.3	95
48185	2024-01-03T21:59:11	8.6	95
48186	2024-01-03T22:09:11	8	95
48187	2024-01-03T22:19:11	7.8	95
48188	2024-01-03T22:29:11	7.7	95
48189	2024-01-03T22:39:11	7.8	95
48190	2024-01-03T22:49:11	7.9	95
48191	2024-01-03T22:59:11	7.9	95
48192	2024-01-03T23:09:11	7.7	95
48193	2024-01-03T23:19:11	7.7	95
48194	2024-01-03T23:29:11	7.6	95
48195	2024-01-03T23:39:11	7.7	95
48196	2024-01-03T23:49:11	7.7	95
48197	2024-01-03T23:59:11	7.8	95
48198	2024-01-04T00:09:11	8	95
48199	2024-01-04T00:19:11	8.1	95
48200	2024-01-04T00:29:11	8	95
48201	2024-01-04T00:39:11	8.2	95
48202	2024-01-04T00:49:11	8.3	95
48203	2024-01-04T00:59:11	8.3	95
48204	2024-01-04T01:09:11	8.6	95
48205	2024-01-04T01:19:11	8.6	95
48206	2024-01-04T01:29:11	8.5	95
48207	2024-01-04T01:39:11	8.5	95
48208	2024-01-04T01:49:11	8.4	95
48209	2024-01-04T01:59:11	8.3	95
48210	2024-01-04T02:09:11	8.2	95
48211	2024-01-04T02:19:11	8.2	95
48212	2024-01-04T02:29:11	8.2	95
48213	2024-01-04T02:39:11	8.2	95
48214	2024-01-04T02:49:11	8.2	95
48215	2024-01-04T02:59:11	8.2	95
48216	2024-01-04T03:09:11	8.3	95
48217	2024-01-04T03:29:11	8.5	95
48218	2024-01-04T03:39:11	8.5	95
48219	2024-01-04T03:49:11	8.7	95
48220	2024-01-04T03:59:11	8.6	95
48221	2024-01-04T04:09:11	8.5	95
48222	2024-01-04T04:19:11	8.2	95
48223	2024-01-04T04:29:11	8.4	95
48224	2024-01-04T04:39:11	8.3	95
48225	2024-01-04T04:49:11	8.2	95
48226	2024-01-04T04:59:11	8.4	95
48227	2024-01-04T05:09:11	8.6	95
48228	2024-01-04T05:19:10	8.8	95
48229	2024-01-04T05:29:10	8.9	95
48230	2024-01-04T05:49:10	9	95.5
48231	2024-01-04T05:59:10	8.9	95.5
48232	2024-01-04T06:09:10	9	95.5
48233	2024-01-04T06:19:10	9	95.5
48234	2024-01-04T06:29:10	9.1	95.5
48235	2024-01-04T06:39:10	9.1	95.5
48236	2024-01-04T06:49:10	8.9	95.5
48237	2024-01-04T06:59:10	8.7	95.5
48238	2024-01-04T07:09:10	8.9	95.5
48239	2024-01-04T07:19:10	9.2	95.5
48240	2024-01-04T07:29:11	9.1	95.5
48241	2024-01-04T07:39:10	8.7	95.5
48242	2024-01-04T07:49:10	8.9	95.5
48243	2024-01-04T07:59:10	9.2	95.5
48244	2024-01-04T08:09:10	9.2	95.5
48245	2024-01-04T08:19:10	9.2	95.5
48246	2024-01-04T08:29:10	9.1	95.5
48247	2024-01-04T08:39:10	8.9	98.5
48248	2024-01-04T08:49:10	8.9	98.5
48249	2024-01-04T08:59:10	8.8	98.5
48250	2024-01-04T09:09:10	8.6	98.5
48251	2024-01-04T09:19:10	8.7	100
48252	2024-01-04T09:29:10	8.8	100
48253	2024-01-04T09:39:10	8.8	100
48254	2024-01-04T09:49:10	8.7	100
48255	2024-01-04T09:59:10	8.6	100
48256	2024-01-04T10:09:11	8.6	100
48257	2024-01-04T10:19:10	8.5	100
48258	2024-01-04T10:29:10	8.7	100
48259	2024-01-04T10:39:10	8.9	100
48260	2024-01-04T10:44:17	8.8	100
48261	2024-01-04T10:54:17	8.7	100
48262	2024-01-04T11:04:17	8.9	97.5
48263	2024-01-04T11:14:17	9.2	90
48264	2024-01-04T11:24:17	9.4	82.5
48265	2024-01-04T11:34:17	9.1	82.5
48266	2024-01-04T11:44:17	7.8	100
48267	2024-01-04T11:54:17	7.6	100
48268	2024-01-04T12:04:17	7.8	100
48269	2024-01-04T12:14:17	8.1	100
48270	2024-01-04T12:24:17	8.5	99.5
48271	2024-01-04T12:34:17	8.8	99
48272	2024-01-04T12:44:17	9	97
48273	2024-01-04T12:54:17	8.9	84
48274	2024-01-04T13:04:17	8.4	89
48275	2024-01-04T13:14:17	7.9	94
48276	2024-01-04T13:24:17	8.2	91.5
48277	2024-01-04T13:34:17	8.7	87.5
48278	2024-01-04T13:44:17	9	84.5
48279	2024-01-04T13:54:17	9.2	83.5
48280	2024-01-04T14:04:17	9.4	82.5
48281	2024-01-04T14:14:17	9.2	84
48282	2024-01-04T14:24:17	9.1	83
48283	2024-01-04T14:34:17	9	83
48284	2024-01-04T14:44:17	8.9	85.5
48285	2024-01-04T14:54:17	8.7	87.5
48286	2024-01-04T15:04:17	8	99
48287	2024-01-04T15:14:18	7.7	100
48288	2024-01-04T15:24:17	7.6	100
48289	2024-01-04T15:34:17	7.6	100
48290	2024-01-04T15:44:17	7.5	100
48291	2024-01-04T15:54:18	7.5	100
48292	2024-01-04T16:04:17	7.4	100
48293	2024-01-04T16:14:17	7.4	100
48294	2024-01-04T16:24:17	7.5	100
48295	2024-01-04T16:34:17	7.3	100
48296	2024-01-04T16:44:17	7.2	100
48297	2024-01-04T16:54:17	7.3	100
48298	2024-01-04T17:04:17	7.4	100
48299	2024-01-04T17:24:17	7.7	100
48300	2024-01-04T17:34:17	7.9	100
48301	2024-01-04T17:44:17	8	100
48302	2024-01-04T17:54:17	8	100
48303	2024-01-04T18:04:17	8	100
48304	2024-01-04T18:14:17	8.1	100
48305	2024-01-04T18:24:17	7.9	100
48306	2024-01-04T18:34:17	8	98
48307	2024-01-04T18:44:17	7.8	99.5
48308	2024-01-04T18:54:17	7.6	98
48309	2024-01-04T19:04:17	7.4	100
48310	2024-01-04T19:14:17	7.1	100
48311	2024-01-04T19:24:17	7	100
48312	2024-01-04T19:34:17	6.9	100
48313	2024-01-04T19:44:17	6.9	100
48314	2024-01-04T19:54:17	6.8	100
48315	2024-01-04T20:04:17	6.9	100
48316	2024-01-04T20:14:17	6.8	100
48317	2024-01-04T20:24:17	6.6	100
48318	2024-01-04T20:34:17	6.7	100
48319	2024-01-04T20:44:17	6.6	100
48320	2024-01-04T20:54:17	6.3	99.5
48321	2024-01-04T21:04:17	6.1	100
48322	2024-01-04T21:14:17	6.1	100
48323	2024-01-04T21:24:17	6.1	100
48324	2024-01-04T21:34:17	6	99
48325	2024-01-04T21:44:17	5.9	99
48326	2024-01-04T21:54:17	5.7	99
48327	2024-01-04T22:04:17	5.7	99
48328	2024-01-04T22:14:17	5.6	99.5
48329	2024-01-04T22:24:17	5.5	99.5
48330	2024-01-04T22:34:17	5.6	99
48331	2024-01-04T22:44:17	5.6	100
48332	2024-01-04T22:54:17	5.5	99.5
48333	2024-01-04T23:04:17	5.4	99.5
48334	2024-01-04T23:14:17	5.5	100
48335	2024-01-04T23:24:17	5.4	99
48336	2024-01-04T23:34:17	5.4	100
48337	2024-01-04T23:44:17	5.4	99.5
48338	2024-01-04T23:54:17	5.3	100
48339	2024-01-05T00:04:17	5.3	97
48340	2024-01-05T00:14:17	5.1	98
48341	2024-01-05T00:24:17	4.9	99.5
48342	2024-01-05T00:34:17	4.9	99
48343	2024-01-05T00:44:17	4.9	99
48344	2024-01-05T00:54:17	5	99
48345	2024-01-05T01:04:17	5	99
48346	2024-01-05T01:14:17	5	99
48347	2024-01-05T01:24:17	4.9	99
48348	2024-01-05T01:34:17	4.9	99
48349	2024-01-05T01:44:17	4.7	99.5
48350	2024-01-05T01:54:17	4.7	98.5
48351	2024-01-05T02:04:17	4.5	98
48352	2024-01-05T02:14:17	4.4	98.5
48353	2024-01-05T02:24:17	4.5	99
48354	2024-01-05T02:34:17	4.3	99.5
48355	2024-01-05T02:44:17	4.3	100
48356	2024-01-05T02:54:17	4.2	99
48357	2024-01-05T03:04:17	4.3	98.5
48358	2024-01-05T03:14:17	4.2	99.5
48359	2024-01-05T03:24:17	4	98.5
48360	2024-01-05T03:34:17	4.2	98.5
48361	2024-01-05T03:44:17	4.3	98.5
48362	2024-01-05T03:54:17	4.3	99.5
48363	2024-01-05T04:04:16	4.3	98.5
48364	2024-01-05T04:14:16	4.3	99.5
48365	2024-01-05T04:24:16	4.3	99.5
48366	2024-01-05T04:34:16	4.4	97.5
48367	2024-01-05T04:44:16	4.6	97.5
48368	2024-01-05T04:54:16	4.5	98
48369	2024-01-05T05:04:17	4.5	97.5
48370	2024-01-05T05:14:35	4.6	99.5
48371	2024-01-05T05:24:16	4.6	99
48372	2024-01-05T05:34:16	4.7	100
48373	2024-01-05T05:44:16	4.6	98
48374	2024-01-05T05:54:16	4.8	99.5
48375	2024-01-05T06:04:16	4.9	98
48376	2024-01-05T06:14:16	4.9	98
48377	2024-01-05T06:24:16	4.9	99
48378	2024-01-05T06:34:16	4.9	99
48379	2024-01-05T06:44:16	5	99
48380	2024-01-05T06:54:16	5.1	99.5
48381	2024-01-05T07:04:16	5.2	99.5
48382	2024-01-05T07:14:17	5.3	98.5
48383	2024-01-05T07:24:16	5.4	95.5
48384	2024-01-05T07:34:16	5.6	96
48385	2024-01-05T07:44:16	5.6	96
48386	2024-01-05T07:54:16	5.9	96
48387	2024-01-05T08:04:16	6.2	95
48388	2024-01-05T08:14:16	6.3	95.5
48389	2024-01-05T08:24:16	6.3	97
48390	2024-01-05T08:34:16	6.2	98
48391	2024-01-05T08:44:16	6.6	95.5
48392	2024-01-05T08:54:16	7	93
48393	2024-01-05T09:04:16	7.3	91.5
48394	2024-01-05T09:14:16	7.5	91.5
48395	2024-01-05T09:24:16	7.5	91.5
48396	2024-01-05T09:34:16	7.6	90.5
48397	2024-01-05T09:44:16	7.7	89
48398	2024-01-05T09:54:16	7.9	88
48399	2024-01-05T10:04:16	8	86
48400	2024-01-05T10:14:16	8.2	85
48401	2024-01-05T10:24:16	8.4	83.5
48402	2024-01-05T10:34:16	8.6	83.5
48403	2024-01-05T10:44:16	9	82.5
48404	2024-01-05T10:54:16	9.2	82
48405	2024-01-05T11:04:16	9.3	82
48406	2024-01-05T11:14:16	9.5	81.5
48407	2024-01-05T11:24:16	9.5	81
48408	2024-01-05T11:34:16	9.7	80.5
48409	2024-01-05T11:44:16	9.8	81.5
48410	2024-01-05T11:54:16	9.9	79
48411	2024-01-05T12:04:16	9.8	79.5
48412	2024-01-05T12:14:16	9.8	80
48413	2024-01-05T12:24:16	9.8	79
48414	2024-01-05T12:34:16	9.9	78
48415	2024-01-05T12:44:16	10.1	78.5
48416	2024-01-05T12:54:16	10.2	77.5
48417	2024-01-05T13:04:16	10.4	76
48418	2024-01-05T13:14:16	10.4	76.5
48419	2024-01-05T13:24:16	10.3	76.5
48420	2024-01-05T13:34:16	10.2	77
48421	2024-01-05T13:44:16	10.4	76
48422	2024-01-05T13:54:16	10.6	76
48423	2024-01-05T14:04:16	10.3	76.5
48424	2024-01-05T14:14:16	10.1	77.5
48425	2024-01-05T14:24:16	9.9	79
48426	2024-01-05T14:34:16	9.9	78
48427	2024-01-05T14:44:16	9.7	78.5
48428	2024-01-05T14:54:16	9.7	78.5
48429	2024-01-05T15:04:16	9.7	79
48430	2024-01-05T15:14:16	9.5	79
48431	2024-01-05T15:24:16	9.5	77.5
48432	2024-01-05T15:34:16	9.4	77.5
48433	2024-01-05T15:44:16	9.5	76
48434	2024-01-05T16:04:16	9.4	76.5
48435	2024-01-05T16:14:16	9.1	77.5
48436	2024-01-05T16:24:16	9.1	79
48437	2024-01-05T16:34:16	8.9	82
48438	2024-01-05T16:44:16	8.8	83.5
48439	2024-01-05T16:54:16	8.6	84.5
48440	2024-01-05T17:04:16	8.6	87
48441	2024-01-05T17:14:16	8.3	91
48442	2024-01-05T17:24:16	8.2	89.5
48443	2024-01-05T17:34:16	8.3	92
48444	2024-01-05T17:44:16	8.3	89
48445	2024-01-05T17:54:16	8.2	91.5
48446	2024-01-05T18:04:16	8.2	91.5
48447	2024-01-05T18:14:16	8.2	90.5
48448	2024-01-05T18:24:16	7.9	90.5
48449	2024-01-05T18:34:16	8	92.5
48450	2024-01-05T18:44:16	8	92.5
48451	2024-01-05T18:54:16	7.9	94
48452	2024-01-05T19:04:16	7.8	92.5
48453	2024-01-05T19:14:16	7.9	91.5
48454	2024-01-05T19:24:16	7.9	89
48455	2024-01-05T19:34:16	7.9	90
48456	2024-01-05T19:44:16	7.6	90
48457	2024-01-05T19:54:16	7.5	88.5
48458	2024-01-05T20:04:16	7.4	87.5
48459	2024-01-05T20:14:16	7.5	87.5
48460	2024-01-05T20:24:16	7.3	87
48461	2024-01-05T20:34:16	7.3	87
48462	2024-01-05T20:44:16	7.2	87
48463	2024-01-05T20:54:16	7.1	88
48464	2024-01-05T21:04:16	7	88
48465	2024-01-05T21:14:16	6.9	87.5
48466	2024-01-05T21:24:16	6.9	88
48467	2024-01-05T21:34:16	6.9	88.5
48468	2024-01-05T21:44:16	6.8	88
48469	2024-01-05T21:54:16	6.7	88.5
48470	2024-01-05T22:04:16	6.6	89
48471	2024-01-05T22:14:16	6.6	88.5
48472	2024-01-05T22:24:16	6.5	88.5
48473	2024-01-05T22:34:16	6.5	88
48474	2024-01-05T22:44:16	6.4	88
48475	2024-01-05T22:54:16	6.4	87.5
48476	2024-01-05T23:04:16	6.2	87.5
48477	2024-01-05T23:14:16	6.3	87
48478	2024-01-05T23:24:16	6.3	86.5
48479	2024-01-05T23:34:16	6.1	86.5
48480	2024-01-05T23:44:16	6.4	87
48481	2024-01-05T23:54:16	6.2	86
48482	2024-01-06T00:04:16	6.3	85.5
48483	2024-01-06T00:14:16	6.3	86
48484	2024-01-06T00:24:16	6.2	85.5
48485	2024-01-06T00:34:16	6.2	86
48486	2024-01-06T00:44:16	6	86
48487	2024-01-06T00:54:16	6.1	86.5
48488	2024-01-06T01:04:16	6.1	86.5
48489	2024-01-06T01:14:16	6.1	86.5
48490	2024-01-06T01:24:16	5.9	86.5
48491	2024-01-06T01:34:16	6	86.5
48492	2024-01-06T01:44:16	5.8	87
48493	2024-01-06T01:54:16	5.7	87.5
48494	2024-01-06T02:04:16	5.7	87.5
48495	2024-01-06T02:14:16	5.6	87.5
48496	2024-01-06T02:24:16	5.6	88
48497	2024-01-06T02:34:16	5.5	87.5
48498	2024-01-06T02:44:16	5.5	88
48499	2024-01-06T02:54:16	5.4	87.5
48500	2024-01-06T03:04:16	5.4	88
48501	2024-01-06T03:14:16	5.3	88.5
48502	2024-01-06T03:24:16	5.3	88.5
48503	2024-01-06T03:34:16	5.3	88.5
48504	2024-01-06T03:44:15	5.3	88
48505	2024-01-06T03:54:15	5.4	88
48506	2024-01-06T04:04:15	5.4	88
48507	2024-01-06T04:14:15	5.4	88
48508	2024-01-06T04:24:15	5.4	88.5
48509	2024-01-06T04:34:15	5.5	88
48510	2024-01-06T04:44:15	5.4	88
48511	2024-01-06T04:54:15	5.3	88.5
48512	2024-01-06T05:04:15	5.3	88.5
48513	2024-01-06T05:14:15	5.3	88
48514	2024-01-06T05:24:15	5.3	88
48515	2024-01-06T05:34:16	5.2	88
48516	2024-01-06T05:44:15	5.4	87.5
48517	2024-01-06T05:54:15	5.3	87
48518	2024-01-06T06:04:15	5.5	87
48519	2024-01-06T06:14:16	5.5	87.5
48520	2024-01-06T06:24:15	5.5	87.5
48521	2024-01-06T06:34:15	5.5	88
48522	2024-01-06T06:44:15	5.6	87.5
48523	2024-01-06T06:54:15	5.6	87
48524	2024-01-06T07:04:15	5.5	87.5
48525	2024-01-06T07:14:16	5.5	87.5
48526	2024-01-06T07:24:15	5.7	87
48527	2024-01-06T07:34:15	5.7	87.5
48528	2024-01-06T07:44:15	5.7	88
48529	2024-01-06T07:54:15	5.6	88.5
48530	2024-01-06T08:04:15	5.7	88.5
48531	2024-01-06T08:14:15	5.6	88
48532	2024-01-06T08:24:15	5.7	88.5
48533	2024-01-06T08:34:15	5.6	93
48534	2024-01-06T08:44:15	5.4	96
48535	2024-01-06T08:54:15	5.3	96.5
48536	2024-01-06T09:04:15	5.2	97
48537	2024-01-06T09:14:15	5.2	98
48538	2024-01-06T09:24:15	5.3	98.5
48539	2024-01-06T09:34:15	5.3	96.5
48540	2024-01-06T09:44:15	5.2	96
48541	2024-01-06T09:54:15	5.5	96
48542	2024-01-06T10:04:15	5.5	95.5
48543	2024-01-06T10:14:15	5.5	95
48544	2024-01-06T10:24:15	5.6	94
48545	2024-01-06T10:34:15	5.7	93.5
48546	2024-01-06T10:44:15	5.8	93
48547	2024-01-06T10:54:15	5.9	91.5
48548	2024-01-06T11:04:15	5.9	92
48549	2024-01-06T11:14:15	6.1	91
48550	2024-01-06T11:24:15	6.1	91
48551	2024-01-06T11:34:15	5.7	98
48552	2024-01-06T11:44:16	5.6	100
48553	2024-01-06T11:54:15	5.7	100
48554	2024-01-06T12:04:15	5.7	100
48555	2024-01-06T12:14:15	5.6	100
48556	2024-01-06T12:24:15	5.5	100
48557	2024-01-06T12:34:15	5.6	100
48558	2024-01-06T12:44:15	5.5	100
48559	2024-01-06T12:54:15	5.5	100
48560	2024-01-06T13:04:15	5.5	100
48561	2024-01-06T13:14:15	5.5	100
48562	2024-01-06T13:24:15	5.5	100
48563	2024-01-06T13:34:15	5.5	100
48564	2024-01-06T13:44:15	5.6	100
48565	2024-01-06T13:54:15	5.6	100
48566	2024-01-06T14:04:15	5.7	100
48567	2024-01-06T14:14:15	5.7	100
48568	2024-01-06T14:24:15	5.7	100
48569	2024-01-06T14:34:15	5.6	100
48570	2024-01-06T14:44:15	5.7	100
48571	2024-01-06T14:54:15	5.7	100
48572	2024-01-06T15:04:15	5.8	100
48573	2024-01-06T15:14:15	5.7	100
48574	2024-01-06T15:24:15	5.7	100
48575	2024-01-06T15:34:15	5.7	100
48576	2024-01-06T15:44:15	5.7	100
48577	2024-01-06T15:54:15	5.7	100
48578	2024-01-06T16:04:15	5.6	100
48579	2024-01-06T16:14:15	5.7	100
48580	2024-01-06T16:24:15	5.7	100
48581	2024-01-06T16:34:15	5.7	100
48582	2024-01-06T16:44:15	5.7	100
48583	2024-01-06T16:54:15	5.7	100
48584	2024-01-06T17:04:15	5.7	100
48585	2024-01-06T17:14:15	5.6	100
48586	2024-01-06T17:24:15	5.6	100
48587	2024-01-06T17:34:15	5.7	100
48588	2024-01-06T17:44:15	5.7	100
48589	2024-01-06T17:54:15	5.7	100
48590	2024-01-06T18:04:15	5.6	100
48591	2024-01-06T18:14:15	5.7	100
48592	2024-01-06T18:24:15	5.8	100
48593	2024-01-06T18:34:15	5.8	100
48594	2024-01-06T18:44:15	5.8	100
48595	2024-01-06T18:54:15	5.8	100
48596	2024-01-06T19:04:15	5.8	100
48597	2024-01-06T19:14:15	5.8	100
48598	2024-01-06T19:24:15	6	100
48599	2024-01-06T19:34:15	6	100
48600	2024-01-06T19:44:15	5.9	100
48601	2024-01-06T19:54:15	5.9	100
48602	2024-01-06T20:04:15	5.9	100
48603	2024-01-06T20:14:15	5.9	100
48604	2024-01-06T20:24:15	5.9	100
48605	2024-01-06T20:34:15	5.9	100
48606	2024-01-06T20:44:15	5.9	100
48607	2024-01-06T20:54:15	5.9	99.5
48608	2024-01-06T21:04:15	5.7	98.5
48609	2024-01-06T21:14:15	5.8	98.5
48610	2024-01-06T21:24:15	5.6	99
48611	2024-01-06T21:34:15	5.5	99
48612	2024-01-06T21:44:15	5.4	97.5
48613	2024-01-06T21:54:15	5.4	97.5
48614	2024-01-06T22:04:15	5.4	97.5
48615	2024-01-06T22:14:15	5.4	97.5
48616	2024-01-06T22:24:15	5.3	97.5
48617	2024-01-06T22:34:15	5.4	98
48618	2024-01-06T22:44:15	5.3	97.5
48619	2024-01-06T22:54:15	5.4	98
48620	2024-01-06T23:04:15	5.4	98.5
48621	2024-01-06T23:14:15	5.5	100
48622	2024-01-06T23:24:15	5.5	99
48623	2024-01-06T23:34:15	5.5	97
48624	2024-01-06T23:44:15	5.5	98.5
48625	2024-01-06T23:54:15	5.4	96.5
48626	2024-01-07T00:04:15	5.4	97
48627	2024-01-07T00:14:15	5.4	97.5
48628	2024-01-07T00:24:15	5.4	97
48629	2024-01-07T00:34:15	5.4	97.5
48630	2024-01-07T00:44:15	5.3	97
48631	2024-01-07T00:54:15	5.2	97
48632	2024-01-07T01:04:15	5.3	96.5
48633	2024-01-07T01:14:15	5.3	98
48634	2024-01-07T01:24:15	5.2	97.5
48635	2024-01-07T01:34:15	5.3	97
48636	2024-01-07T01:44:15	5.3	97
48637	2024-01-07T01:54:15	5.3	97
48638	2024-01-07T02:04:15	5.1	97.5
48639	2024-01-07T02:14:15	5.1	97.5
48640	2024-01-07T02:24:15	5	98
48641	2024-01-07T02:34:15	5.1	99
48642	2024-01-07T02:44:15	5.1	97.5
48643	2024-01-07T02:54:15	5.2	97.5
48644	2024-01-07T03:04:15	5.1	97.5
48645	2024-01-07T03:14:15	5	96.5
48646	2024-01-07T03:24:15	5.1	96
48647	2024-01-07T03:34:15	5	96
48648	2024-01-07T03:44:15	5	96.5
48649	2024-01-07T03:54:15	4.9	96
48650	2024-01-07T04:04:15	5	97
48651	2024-01-07T04:14:15	4.9	96.5
48652	2024-01-07T04:24:15	4.9	96.5
48653	2024-01-07T04:34:15	4.9	97
48654	2024-01-07T04:44:15	4.9	97.5
48655	2024-01-07T04:54:15	4.8	97
48656	2024-01-07T05:04:15	4.8	97
48657	2024-01-07T05:14:15	4.8	96.5
48658	2024-01-07T05:24:15	4.9	96.5
48659	2024-01-07T05:34:15	4.8	96
48660	2024-01-07T05:44:15	4.7	96.5
48661	2024-01-07T05:54:15	4.8	96.5
48662	2024-01-07T06:04:15	4.7	96.5
48663	2024-01-07T06:14:15	4.8	96.5
48664	2024-01-07T06:24:15	4.8	96
48665	2024-01-07T06:34:15	4.7	96.5
48666	2024-01-07T06:44:15	4.7	96
48667	2024-01-07T06:54:15	4.7	96
48668	2024-01-07T07:04:15	4.7	96
48669	2024-01-07T07:14:15	4.7	96.5
48670	2024-01-07T07:24:15	4.7	96.5
48671	2024-01-07T07:34:15	4.7	96.5
48672	2024-01-07T07:44:14	4.7	97
48673	2024-01-07T07:54:15	4.8	97
48674	2024-01-07T08:04:15	4.6	97
48675	2024-01-07T08:14:14	4.7	97
48676	2024-01-07T08:24:14	4.8	96.5
48677	2024-01-07T08:34:15	4.7	96.5
48678	2024-01-07T08:44:14	4.8	97.5
48679	2024-01-07T08:54:14	4.8	97.5
48680	2024-01-07T09:04:14	4.9	97.5
48681	2024-01-07T09:14:14	4.8	97
48682	2024-01-07T09:24:14	4.9	97.5
48683	2024-01-07T09:34:14	5.1	97
48684	2024-01-07T09:44:15	5.1	97
48685	2024-01-07T09:54:14	5.2	97
48686	2024-01-07T10:04:14	5	96.5
48687	2024-01-07T10:14:15	5	96.5
48688	2024-01-07T10:24:14	5.1	96.5
48689	2024-01-07T10:34:14	5.1	96.5
48690	2024-01-07T10:44:14	5.1	96.5
48691	2024-01-07T10:54:14	5.2	96
48692	2024-01-07T11:04:14	5.3	96.5
48693	2024-01-07T11:14:14	5.2	93
48694	2024-01-07T11:24:14	5.3	88.5
48695	2024-01-07T11:34:14	5.1	90
48696	2024-01-07T11:44:14	5.2	86.5
48697	2024-01-07T11:54:14	5.2	87.5
48698	2024-01-07T12:04:14	5.4	87
48699	2024-01-07T12:14:14	5.3	86.5
48700	2024-01-07T12:24:14	5.2	85
48701	2024-01-07T12:34:14	5.1	84.5
48702	2024-01-07T12:44:14	5.2	85
48703	2024-01-07T12:54:14	5.2	84.5
48704	2024-01-07T13:04:14	5.1	82
48705	2024-01-07T13:14:14	5	83.5
48706	2024-01-07T13:24:14	5.1	83
48707	2024-01-07T13:34:14	4.9	81.5
48708	2024-01-07T13:44:14	4.9	82
48709	2024-01-07T13:54:14	4.8	81
48710	2024-01-07T14:04:14	4.7	82.5
48711	2024-01-07T14:14:14	4.6	80
48712	2024-01-07T14:24:14	4.6	80.5
48713	2024-01-07T14:34:14	4.4	80
48714	2024-01-07T14:44:14	4.3	79
48715	2024-01-07T14:54:14	4.2	78.5
48716	2024-01-07T15:04:14	4.2	81.5
48717	2024-01-07T15:14:14	4.1	81
48718	2024-01-07T15:24:14	4	80.5
48719	2024-01-07T15:34:14	3.8	78
48720	2024-01-07T15:44:14	3.8	77
48721	2024-01-07T15:54:14	3.8	81.5
48722	2024-01-07T16:04:14	3.6	78
48723	2024-01-07T16:14:14	3.6	80.5
48724	2024-01-07T16:24:14	3.6	81
48725	2024-01-07T16:34:14	3.5	80
48726	2024-01-07T16:44:14	3.3	83.5
48727	2024-01-07T16:54:14	3.1	89
48728	2024-01-07T17:04:14	2.9	89
48729	2024-01-07T17:14:14	2.7	87
48730	2024-01-07T17:24:14	2.7	90
48731	2024-01-07T17:34:14	2.6	90
48732	2024-01-07T17:44:14	2.6	89.5
48733	2024-01-07T17:54:14	2.3	90
48734	2024-01-07T18:04:14	2.2	91.5
48735	2024-01-07T18:14:14	2.2	91.5
48736	2024-01-07T18:24:14	2.1	92
48737	2024-01-07T18:34:14	1.8	91.5
48738	2024-01-07T18:44:14	1.7	91
48739	2024-01-07T18:54:14	1.6	91.5
48740	2024-01-07T19:34:14	1	92
48741	2024-01-07T19:44:14	0.9	90
48742	2024-01-07T19:54:14	0.8	90.5
48743	2024-01-07T20:04:14	0.9	91.5
48744	2024-01-07T20:14:14	0.7	91.5
48745	2024-01-07T20:24:14	0.8	89.5
48746	2024-01-07T20:34:14	0.8	86
48747	2024-01-07T20:44:14	0.8	84
48748	2024-01-07T20:54:14	0.8	84.5
48749	2024-01-07T21:04:14	0.7	83.5
48750	2024-01-07T21:14:14	0.7	85.5
48751	2024-01-07T21:24:14	0.7	84
48752	2024-01-07T21:34:14	0.6	82
48753	2024-01-07T21:44:14	0.6	81
48754	2024-01-07T21:54:14	0.6	83
48755	2024-01-07T22:04:14	0.7	83
48756	2024-01-07T22:14:14	0.6	79.5
48757	2024-01-07T22:24:14	0.5	80.5
48758	2024-01-07T22:34:14	0.5	80.5
48759	2024-01-07T22:44:14	0.4	80.5
48760	2024-01-07T22:54:14	0.3	79
48761	2024-01-07T23:04:14	0.3	77.5
48762	2024-01-07T23:14:14	0.4	78.5
48763	2024-01-07T23:24:14	0.3	79
48764	2024-01-07T23:34:14	0.3	77
48765	2024-01-07T23:44:14	0.3	78.5
48766	2024-01-07T23:54:14	0.3	78
48767	2024-01-08T00:04:14	0.3	78.5
48768	2024-01-08T00:14:14	0.3	77
48769	2024-01-08T00:24:14	0.2	78
48770	2024-01-08T00:34:14	0.3	78.5
48771	2024-01-08T00:44:14	0.3	78.5
48772	2024-01-08T00:54:14	0.3	78.5
48773	2024-01-08T01:04:14	0.2	78
48774	2024-01-08T01:14:14	0.4	76.5
48775	2024-01-08T01:24:14	0.4	77.5
48776	2024-01-08T01:34:14	0.4	77.5
48777	2024-01-08T01:44:14	0.4	76.5
48778	2024-01-08T01:54:14	0.4	76
48779	2024-01-08T02:04:14	0.5	75.5
48780	2024-01-08T02:14:14	0.4	78
48781	2024-01-08T02:24:14	0.4	77
48782	2024-01-08T02:34:14	0.4	77
48783	2024-01-08T02:44:14	0.4	76.5
48784	2024-01-08T02:54:14	0.4	78.5
48785	2024-01-08T03:04:14	0.4	80
48786	2024-01-08T03:14:14	0.5	78
48787	2024-01-08T03:24:14	0.5	78.5
48788	2024-01-08T03:34:14	0.6	79
48789	2024-01-08T03:44:14	0.5	80
48790	2024-01-08T03:54:14	0.4	80
48791	2024-01-08T04:04:14	0.5	78.5
48792	2024-01-08T04:14:14	0.5	78
48793	2024-01-08T04:24:14	0.5	78.5
48794	2024-01-08T04:34:14	0.4	78
48795	2024-01-08T04:44:14	0.6	79
48796	2024-01-08T04:54:14	0.4	78
48797	2024-01-08T05:04:14	0.5	76
48798	2024-01-08T05:14:14	0.5	76.5
48799	2024-01-08T05:24:14	0.5	76
48800	2024-01-08T05:34:14	0.4	74.5
48801	2024-01-08T05:44:14	0.5	76.5
48802	2024-01-08T05:54:14	0.5	78
48803	2024-01-08T06:04:14	0.5	77.5
48804	2024-01-08T06:14:14	0.6	76
48805	2024-01-08T06:24:14	0.5	76.5
48806	2024-01-08T06:34:14	0.4	77
48807	2024-01-08T06:44:14	0.4	77.5
48808	2024-01-08T06:54:14	0.3	77
48809	2024-01-08T07:04:14	0.4	76.5
48810	2024-01-08T07:14:14	0.3	76
48811	2024-01-08T07:24:14	0.4	77
48812	2024-01-08T07:34:14	0.4	75
48813	2024-01-08T07:44:14	0.4	76.5
48814	2024-01-08T07:54:14	0.5	76.5
48815	2024-01-08T08:04:14	0.4	76
48816	2024-01-08T08:14:14	0.4	73.5
48817	2024-01-08T08:24:14	0.4	74
48818	2024-01-08T08:34:14	0.5	74
48819	2024-01-08T08:44:14	0.6	74.5
48820	2024-01-08T08:54:14	0.7	75.5
48821	2024-01-08T09:04:14	0.6	76
48822	2024-01-08T09:14:14	0.6	75
48823	2024-01-08T09:24:14	0.8	74.5
48824	2024-01-08T09:34:14	0.8	75
48825	2024-01-08T09:44:14	0.7	74
48826	2024-01-08T09:54:14	0.7	72.5
48827	2024-01-08T10:04:14	0.7	73
48828	2024-01-08T10:14:14	0.7	73.5
48829	2024-01-08T10:24:14	0.7	74
48830	2024-01-08T10:34:14	0.8	73.5
48831	2024-01-08T10:44:14	0.7	73
48832	2024-01-08T10:54:14	0.7	74
48833	2024-01-08T11:04:14	0.7	74
48834	2024-01-08T11:14:14	0.7	71.5
48835	2024-01-08T11:24:14	0.7	72
48836	2024-01-08T11:34:14	0.6	72
48837	2024-01-08T11:44:14	0.7	71
48838	2024-01-08T11:54:14	0.8	72
48839	2024-01-08T12:04:14	0.8	71
48840	2024-01-08T12:14:14	0.7	71.5
48841	2024-01-08T12:24:14	0.5	70
48842	2024-01-08T12:34:14	0.6	70
48843	2024-01-08T12:44:14	0.5	68.5
48844	2024-01-08T12:54:14	0.5	68.5
48845	2024-01-08T13:04:14	0.5	69
48846	2024-01-08T13:14:14	0.7	69.5
48847	2024-01-08T13:24:14	0.7	69.5
48848	2024-01-08T13:34:14	0.7	70.5
48849	2024-01-08T13:44:14	0.6	68.5
48850	2024-01-08T13:54:14	0.7	68
48851	2024-01-08T14:04:14	0.8	68.5
48852	2024-01-08T14:14:14	0.7	68.5
48853	2024-01-08T14:24:14	0.6	69
48854	2024-01-08T14:34:14	0.5	68
48855	2024-01-08T14:44:14	0.3	69
48856	2024-01-08T14:54:14	0.1	70
48857	2024-01-08T15:04:14	0.1	70
48858	2024-01-08T15:14:14	0	69.5
48859	2024-01-08T15:24:14	-0.1	69.5
48860	2024-01-08T15:34:14	-0.2	69.5
48861	2024-01-08T15:44:14	-0.3	71
48862	2024-01-08T15:54:14	-0.5	70
48863	2024-01-08T16:04:14	-0.5	72
48864	2024-01-08T16:14:14	-0.7	70
48865	2024-01-08T16:24:14	-0.7	71
48866	2024-01-08T16:34:14	-0.7	71.5
48867	2024-01-08T16:54:14	-0.5	73
48868	2024-01-08T17:04:14	-0.5	73
48869	2024-01-08T17:14:14	-0.5	71.5
48870	2024-01-08T17:24:14	-0.6	72
48871	2024-01-08T17:34:14	-0.7	71.5
48872	2024-01-08T17:44:14	-0.8	74
48873	2024-01-08T17:54:14	-1	72
48874	2024-01-08T18:04:14	-1.1	73
48875	2024-01-08T18:14:14	-1.2	73
48876	2024-01-08T18:24:14	-1.1	75.5
48877	2024-01-08T18:34:14	-1.3	74
48878	2024-01-08T18:44:14	-1.4	75
48879	2024-01-08T18:54:14	-1.4	74
48880	2024-01-08T19:04:14	-1.4	74
48881	2024-01-08T19:14:14	-1.5	73.5
48882	2024-01-08T19:24:14	-1.5	73.5
48883	2024-01-08T19:34:14	-1.7	73
48884	2024-01-08T19:44:14	-1.5	73
48885	2024-01-08T19:54:14	-1.5	72.5
48886	2024-01-08T20:04:14	-1.4	72.5
48887	2024-01-08T20:14:14	-1.4	72
48888	2024-01-08T20:24:14	-1.6	72
48889	2024-01-08T20:34:14	-1.7	73.5
48890	2024-01-08T20:44:14	-1.9	73.5
48891	2024-01-08T20:54:14	-2	73.5
48892	2024-01-08T21:04:14	-2.1	74
48893	2024-01-08T21:14:14	-2.2	74.5
48894	2024-01-08T21:24:14	-2.3	73
48895	2024-01-08T21:34:14	-2.4	74.5
48896	2024-01-08T21:44:14	-2.5	75
48897	2024-01-08T21:54:14	-2.5	75
48898	2024-01-08T22:04:33	-2.7	74.5
48899	2024-01-08T22:44:14	-3	75
48900	2024-01-08T22:54:14	-3.1	76
48901	2024-01-08T23:04:14	-3.1	75.5
48902	2024-01-08T23:14:14	-3.3	75.5
48903	2024-01-08T23:24:14	-3.5	75
48904	2024-01-08T23:34:14	-3.4	76
48905	2024-01-08T23:44:14	-3.5	76
48906	2024-01-08T23:54:14	-3.6	76.5
48907	2024-01-09T00:04:14	-3.7	76.5
48908	2024-01-09T00:14:14	-3.6	76.5
48909	2024-01-09T00:24:14	-3.7	76.5
48910	2024-01-09T00:34:14	-3.8	75.5
48911	2024-01-09T00:44:14	-3.8	76.5
48912	2024-01-09T00:54:14	-4	76.5
48913	2024-01-09T01:04:14	-4.2	75.5
48914	2024-01-09T01:14:14	-4.2	76
48915	2024-01-09T01:24:14	-4.1	76.5
48916	2024-01-09T01:34:14	-4.2	76.5
48917	2024-01-09T01:44:14	-4.2	76
48918	2024-01-09T01:54:14	-4.2	76
48919	2024-01-09T02:04:14	-4.3	76
48920	2024-01-09T02:14:14	-4.4	76
48921	2024-01-09T02:24:14	-4.3	76.5
48922	2024-01-09T02:34:14	-4.3	77
48923	2024-01-09T02:44:14	-4.4	76.5
48924	2024-01-09T02:54:14	-4.5	77
48925	2024-01-09T03:04:14	-4.5	76.5
48926	2024-01-09T03:14:14	-4.6	76.5
48927	2024-01-09T03:24:14	-4.6	77.5
48928	2024-01-09T03:34:14	-4.7	76.5
48929	2024-01-09T03:44:14	-4.8	77
48930	2024-01-09T03:54:14	-4.7	76
48931	2024-01-09T04:04:14	-4.8	77
48932	2024-01-09T04:14:14	-4.9	76.5
48933	2024-01-09T04:24:14	-4.8	78
48934	2024-01-09T04:34:14	-4.9	77.5
48935	2024-01-09T04:44:14	-5.1	77.5
48936	2024-01-09T04:54:14	-5	77
48937	2024-01-09T05:04:14	-5	78
48938	2024-01-09T05:14:14	-5	76.5
48939	2024-01-09T05:24:14	-5	77.5
48940	2024-01-09T05:34:14	-4.9	77
48941	2024-01-09T05:44:14	-5.1	78
48942	2024-01-09T05:54:14	-5.1	77.5
48943	2024-01-09T06:04:14	-4.9	77
48944	2024-01-09T06:14:14	-5	77
48945	2024-01-09T06:24:14	-5	77.5
48946	2024-01-09T06:34:14	-5	77
48947	2024-01-09T06:44:14	-5	77
48948	2024-01-09T06:54:14	-5	77.5
48949	2024-01-09T07:04:14	-5	77
48950	2024-01-09T07:14:14	-5	77
48951	2024-01-09T07:24:14	-5	76
48952	2024-01-09T07:34:14	-4.8	76
48953	2024-01-09T07:44:14	-4.8	76
48954	2024-01-09T07:54:14	-4.6	75.5
48955	2024-01-09T08:04:14	-4.5	76
48956	2024-01-09T08:14:14	-4.3	74
48957	2024-01-09T08:24:15	-4.2	74
48958	2024-01-09T08:34:31	-3.9	73.5
48959	2024-01-09T08:44:15	-3.9	73
48960	2024-01-09T08:54:15	-3.6	72.5
48961	2024-01-09T09:04:15	-3.4	71.5
48962	2024-01-09T09:14:15	-3.3	71
48963	2024-01-09T09:24:15	-3.2	71.5
48964	2024-01-09T09:34:15	-3	69.5
48965	2024-01-09T09:44:15	-2.8	69
48966	2024-01-09T09:54:15	-2.6	69.5
48967	2024-01-09T10:04:15	-2.5	69
48968	2024-01-09T10:14:14	-2.5	67
48969	2024-01-09T10:24:15	-2.5	67.5
48970	2024-01-09T10:34:14	-2.3	67
48971	2024-01-09T10:44:14	-2.1	66
48972	2024-01-09T10:54:14	-1.7	64
48973	2024-01-09T11:04:14	-1.4	63
48974	2024-01-09T11:14:14	-1.1	62
48975	2024-01-09T11:24:14	-0.9	61.5
48976	2024-01-09T11:34:14	-0.9	61
48977	2024-01-09T11:44:15	-0.9	60
48978	2024-01-09T11:54:14	-0.8	60.5
48979	2024-01-09T12:04:15	-0.6	60.5
48980	2024-01-09T12:14:14	0.1	57
48981	2024-01-09T12:24:14	2	53.5
48982	2024-01-09T12:34:14	3.4	48.5
48983	2024-01-09T12:44:14	4.3	45.5
48984	2024-01-09T12:54:14	4.7	44.5
48985	2024-01-09T13:04:14	4.9	43.5
48986	2024-01-09T13:14:14	5.3	42
48987	2024-01-09T13:24:14	5.5	41.5
48988	2024-01-09T13:34:15	5.9	40.5
48989	2024-01-09T13:44:14	6.1	40
48990	2024-01-09T13:54:14	5.8	40.5
48991	2024-01-09T14:04:14	5.3	41
48992	2024-01-09T14:14:14	3.4	44
48993	2024-01-09T14:24:14	3.8	45
48994	2024-01-09T14:34:14	3.6	44.5
48995	2024-01-09T14:44:14	2.3	48
48996	2024-01-09T14:54:14	1.7	50
48997	2024-01-09T15:04:14	1.3	52.5
48998	2024-01-09T15:14:14	1	53
48999	2024-01-09T15:24:14	0.6	54.5
49000	2024-01-09T15:34:14	0.4	56.5
49001	2024-01-09T15:44:14	0.2	55.5
49002	2024-01-09T15:54:14	0	58.5
49003	2024-01-09T16:04:14	0	60
49004	2024-01-09T16:14:14	-0.2	62
49005	2024-01-09T16:24:14	-0.3	63.5
49006	2024-01-09T16:34:14	-0.5	63.5
49007	2024-01-09T16:44:14	-0.7	64.5
49008	2024-01-09T16:54:14	-0.8	64.5
49009	2024-01-09T17:04:14	-0.9	64.5
49010	2024-01-09T17:14:14	-0.9	64
49011	2024-01-09T17:24:14	-1.1	66
49012	2024-01-09T17:34:14	-1.2	67.5
49013	2024-01-09T17:44:14	-1.4	69
49014	2024-01-09T17:54:14	-1.5	69.5
49015	2024-01-09T18:04:14	-1.5	70.5
49016	2024-01-09T18:14:14	-1.5	70
49017	2024-01-09T18:24:14	-1.6	70.5
49018	2024-01-09T18:34:14	-1.6	71
49019	2024-01-09T18:44:14	-1.7	71
49020	2024-01-09T18:54:14	-1.8	70.5
49021	2024-01-09T19:04:14	-1.7	72
49022	2024-01-09T19:14:14	-1.8	73
49023	2024-01-09T19:24:14	-1.9	75
49024	2024-01-09T19:34:14	-2	73.5
49025	2024-01-09T19:44:14	-2	74
49026	2024-01-09T19:54:14	-2.1	74
49027	2024-01-09T20:04:15	-2.1	75
49028	2024-01-09T20:14:14	-2.1	75
49029	2024-01-09T20:24:14	-2.2	75.5
49030	2024-01-09T20:34:14	-2.2	75
49031	2024-01-09T20:44:14	-2.4	74
49032	2024-01-09T20:54:14	-2.3	74
49033	2024-01-09T21:04:14	-2.4	73.5
49034	2024-01-09T21:14:15	-2.4	76.5
49035	2024-01-09T21:24:14	-2.3	75.5
49036	2024-01-09T21:34:15	-2.4	75.5
49037	2024-01-09T21:44:15	-2.6	75.5
49038	2024-01-09T21:54:14	-2.6	74.5
49039	2024-01-09T22:04:15	-2.6	74.5
49040	2024-01-09T22:14:15	-2.7	73.5
49041	2024-01-09T22:24:15	-2.6	73.5
49042	2024-01-09T22:34:15	-2.7	73
49043	2024-01-09T22:44:15	-2.9	73
49044	2024-01-09T22:54:15	-2.6	73.5
49045	2024-01-09T23:04:15	-2.8	73
49046	2024-01-09T23:24:15	-2.9	73
49047	2024-01-09T23:34:15	-2.8	74.5
49048	2024-01-09T23:44:15	-2.9	73
49049	2024-01-09T23:54:15	-2.8	73.5
49050	2024-01-10T00:04:15	-2.7	74
49051	2024-01-10T00:14:15	-2.6	74.5
49052	2024-01-10T00:24:15	-2.5	73.5
49053	2024-01-10T00:34:15	-2.4	69.5
49054	2024-01-10T00:44:15	-2.4	68.5
49055	2024-01-10T00:54:15	-2.2	69
49056	2024-01-10T01:04:15	-2.1	69
49057	2024-01-10T01:14:15	-2.2	69.5
49058	2024-01-10T01:24:15	-2.3	69.5
49059	2024-01-10T01:34:15	-2.2	69.5
49060	2024-01-10T01:44:15	-2.3	68.5
49061	2024-01-10T01:54:15	-2.2	68.5
49062	2024-01-10T02:04:15	-2.2	68.5
49063	2024-01-10T02:14:15	-2.2	67
49064	2024-01-10T02:24:15	-2.2	67
49065	2024-01-10T02:34:15	-2.2	67
49066	2024-01-10T02:44:15	-2.2	66
49067	2024-01-10T02:54:15	-2.1	65.5
49068	2024-01-10T03:04:15	-2.2	67.5
49069	2024-01-10T03:14:15	-2.3	66.5
49070	2024-01-10T03:24:15	-2.3	67
49071	2024-01-10T03:34:15	-2.5	67
49072	2024-01-10T03:44:15	-2.4	66.5
49073	2024-01-10T03:54:15	-2.2	65
49074	2024-01-10T04:04:15	-2.3	66
49075	2024-01-10T04:14:15	-2.3	66.5
49076	2024-01-10T04:24:15	-2.2	66
49077	2024-01-10T04:34:15	-2.3	66
49078	2024-01-10T04:44:15	-2.2	66.5
49079	2024-01-10T04:54:15	-2.3	66.5
49080	2024-01-10T05:04:15	-2.2	67.5
49081	2024-01-10T05:14:15	-2.1	67
49082	2024-01-10T05:24:15	-2	68.5
49083	2024-01-10T05:34:15	-2.1	68.5
49084	2024-01-10T05:44:15	-2.2	69
49085	2024-01-10T05:54:15	-2.4	70.5
49086	2024-01-10T06:04:15	-2.5	70.5
49087	2024-01-10T06:14:15	-2.6	71.5
49088	2024-01-10T06:24:15	-2.7	71.5
49089	2024-01-10T06:34:15	-2.8	72.5
49090	2024-01-10T06:44:15	-3	73
49091	2024-01-10T06:54:15	-2.9	74
49092	2024-01-10T07:04:15	-3	74
49093	2024-01-10T07:14:15	-3.2	75
49094	2024-01-10T07:24:15	-3.3	75
49095	2024-01-10T07:34:15	-3.4	75.5
49096	2024-01-10T07:44:15	-3.3	76
49097	2024-01-10T07:54:15	-3.5	76
49098	2024-01-10T08:04:15	-3.4	76
49099	2024-01-10T08:14:15	-3.4	77
49100	2024-01-10T08:24:15	-3.2	77.5
49101	2024-01-10T08:34:15	-3.2	78
49102	2024-01-10T08:44:15	-3.2	77
49103	2024-01-10T08:54:15	-3	76
49104	2024-01-10T09:04:15	-2.7	76.5
49105	2024-01-10T09:14:15	-2.6	75.5
49106	2024-01-10T09:24:15	-2.5	74.5
49107	2024-01-10T09:34:15	-2.4	75.5
49108	2024-01-10T09:44:15	-2.2	74.5
49109	2024-01-10T09:54:15	-2	74
49110	2024-01-10T10:04:15	-1.9	73
49111	2024-01-10T10:14:15	-1.7	72.5
49112	2024-01-10T10:24:15	-1.5	72.5
49113	2024-01-10T10:34:15	-1.4	71.5
49114	2024-01-10T10:44:15	-0.9	71
49115	2024-01-10T10:54:15	-0.7	67.5
49116	2024-01-10T11:04:15	-0.4	68.5
49117	2024-01-10T11:14:15	-0.3	65.5
49118	2024-01-10T11:24:15	0	67
49119	2024-01-10T11:34:15	0.2	66
49120	2024-01-10T11:44:15	1.1	63
49121	2024-01-10T11:54:15	1.7	60.5
49122	2024-01-10T12:04:15	1.8	62
49123	2024-01-10T12:14:15	2.1	58.5
49124	2024-01-10T12:24:15	3.6	55
49125	2024-01-10T12:34:15	5.4	51.5
49126	2024-01-10T12:44:15	6.7	48
49127	2024-01-10T12:54:15	7.5	46.5
49128	2024-01-10T13:04:15	7.1	43.5
49129	2024-01-10T13:14:15	6.3	46
49130	2024-01-10T13:24:15	6	47.5
49131	2024-01-10T13:34:15	7.5	44.5
49132	2024-01-10T13:44:15	8.4	41
49133	2024-01-10T13:54:15	8.5	40.5
49134	2024-01-10T14:04:15	8.7	40.5
49135	2024-01-10T14:14:15	8.8	40
49136	2024-01-10T14:24:15	8.8	39
49137	2024-01-10T14:34:15	8.6	40.5
49138	2024-01-10T14:44:15	8.5	42
49139	2024-01-10T14:54:15	8	43
49140	2024-01-10T15:04:15	7	44
49141	2024-01-10T15:14:15	5.6	48.5
49142	2024-01-10T15:24:15	5	51
49143	2024-01-10T15:34:15	4.2	52.5
49144	2024-01-10T15:44:15	3.8	54.5
49145	2024-01-10T15:54:15	3.2	56.5
49146	2024-01-10T16:04:15	2.9	58.5
49147	2024-01-10T16:14:15	2.8	59
49148	2024-01-10T16:24:15	2.5	61
49149	2024-01-10T16:34:15	2.4	60
49150	2024-01-10T16:44:15	1.9	62
49151	2024-01-10T16:54:15	2	63
49152	2024-01-10T17:04:15	1.8	63
49153	2024-01-10T17:14:15	1.6	65
49154	2024-01-10T17:24:15	1.5	65
49155	2024-01-10T17:34:15	1.4	65
49156	2024-01-10T17:44:15	1.3	66.5
49157	2024-01-10T17:54:15	1	65.5
49158	2024-01-10T18:04:15	0.9	65.5
49159	2024-01-10T18:14:15	0.8	67.5
49160	2024-01-10T18:24:15	0.7	66.5
49161	2024-01-10T18:34:15	0.6	68
49162	2024-01-10T18:44:15	0.5	68.5
49163	2024-01-10T18:54:15	0.4	69
49164	2024-01-10T19:04:15	0.2	69
49165	2024-01-10T19:14:15	0.1	70
49166	2024-01-10T19:24:15	0	71
49167	2024-01-10T19:34:15	-0.1	71.5
49168	2024-01-10T19:44:15	-0.1	72
49169	2024-01-10T19:54:15	-0.3	71.5
49170	2024-01-10T20:04:15	-0.3	72
49171	2024-01-10T20:14:15	-0.4	73
49172	2024-01-10T20:24:15	-0.4	73.5
49173	2024-01-10T20:34:15	-0.7	73.5
49174	2024-01-10T20:44:15	-0.7	73
49175	2024-01-10T20:54:15	-1	73.5
49176	2024-01-10T21:04:15	-1	74
49177	2024-01-10T21:14:15	-1.2	74
49178	2024-01-10T21:24:15	-1.3	74.5
49179	2024-01-10T21:34:15	-1.3	74.5
49180	2024-01-10T21:44:15	-1.4	75.5
49181	2024-01-10T21:54:15	-1.5	75
49182	2024-01-10T22:04:15	-1.6	75
49183	2024-01-10T22:14:15	-1.6	75.5
49184	2024-01-10T22:24:15	-1.7	75
49185	2024-01-10T22:34:15	-1.7	75.5
49186	2024-01-10T22:44:15	-1.7	76
49187	2024-01-10T22:54:15	-1.8	76
49188	2024-01-10T23:04:15	-1.8	77
49189	2024-01-10T23:14:15	-1.9	76.5
49190	2024-01-10T23:24:15	-1.9	77
49191	2024-01-10T23:34:15	-1.9	77.5
49192	2024-01-10T23:44:15	-1.9	77.5
49193	2024-01-10T23:54:15	-2	77.5
49194	2024-01-11T00:04:15	-2	77.5
49195	2024-01-11T00:14:15	-2.1	78.5
49196	2024-01-11T00:24:15	-2.3	78.5
49197	2024-01-11T00:34:15	-2.2	79.5
49198	2024-01-11T00:44:15	-2.2	78.5
49199	2024-01-11T00:54:15	-2.4	78.5
49200	2024-01-11T01:04:15	-2.5	79
49201	2024-01-11T01:14:15	-2.5	79.5
49202	2024-01-11T01:24:15	-2.5	80
49203	2024-01-11T01:34:15	-2.5	79.5
49204	2024-01-11T01:44:15	-2.8	80
49205	2024-01-11T01:54:15	-2.6	79.5
49206	2024-01-11T02:04:15	-2.7	80
49207	2024-01-11T02:14:15	-2.7	79.5
49208	2024-01-11T02:24:15	-2.8	80
49209	2024-01-11T02:34:15	-2.9	80
49210	2024-01-11T02:44:15	-3	80
49211	2024-01-11T02:54:15	-3	80.5
49212	2024-01-11T03:04:15	-3.1	81
49213	2024-01-11T03:14:15	-3.2	80.5
49214	2024-01-11T03:24:15	-3.3	81
49215	2024-01-11T03:34:15	-3.4	81.5
49216	2024-01-11T03:44:15	-3.4	82
49217	2024-01-11T03:54:15	-3.3	82
49218	2024-01-11T04:04:15	-3.5	82
49219	2024-01-11T04:14:15	-3.5	82.5
49220	2024-01-11T04:24:15	-3.6	82.5
49221	2024-01-11T04:34:15	-3.5	83
49222	2024-01-11T04:44:15	-3.5	83
49223	2024-01-11T04:54:15	-3.6	82.5
49224	2024-01-11T05:04:15	-3.6	83.5
49225	2024-01-11T05:14:15	-3.6	83.5
49226	2024-01-11T05:24:15	-3.7	83
49227	2024-01-11T05:34:15	-3.8	84
49228	2024-01-11T05:44:15	-3.9	84
49229	2024-01-11T05:54:15	-4	84.5
49230	2024-01-11T06:04:15	-4.1	84.5
49231	2024-01-11T06:14:15	-4.1	85
49232	2024-01-11T06:24:15	-4	85.5
49233	2024-01-11T06:34:15	-4.1	85
49234	2024-01-11T06:44:15	-4.2	85
49235	2024-01-11T06:54:15	-4.2	85.5
49236	2024-01-11T07:04:15	-4.1	85.5
49237	2024-01-11T07:14:15	-4.2	85.5
49238	2024-01-11T07:24:15	-4.3	85.5
49239	2024-01-11T07:34:15	-4.2	85.5
49240	2024-01-11T07:44:15	-4.2	85.5
49241	2024-01-11T07:54:15	-4.2	85.5
49242	2024-01-11T08:04:15	-4.2	85.5
49243	2024-01-11T08:14:15	-4.2	85.5
49244	2024-01-11T08:24:15	-4.1	85.5
49245	2024-01-11T08:34:15	-4.1	85
49246	2024-01-11T08:44:15	-4	85.5
49247	2024-01-11T08:54:15	-3.8	85
49248	2024-01-11T09:04:15	-3.7	85.5
49249	2024-01-11T09:14:15	-3.5	85
49250	2024-01-11T09:24:15	-3.4	85.5
49251	2024-01-11T09:34:15	-3.1	85
49252	2024-01-11T09:44:15	-2.9	83.5
49253	2024-01-11T09:54:15	-2.7	83
49254	2024-01-11T10:04:15	-2.4	83
49255	2024-01-11T10:14:15	-2.1	82
49256	2024-01-11T10:24:15	-2.1	81.5
49257	2024-01-11T10:34:15	-1.9	80
49258	2024-01-11T10:44:15	-1.7	80.5
49259	2024-01-11T10:54:15	-1.3	79.5
49260	2024-01-11T11:04:15	-1.1	78.5
49261	2024-01-11T11:14:15	-0.8	77.5
49262	2024-01-11T11:24:15	-0.4	76
49263	2024-01-11T11:34:15	-0.1	75.5
49264	2024-01-11T11:44:15	0.6	73
49265	2024-01-11T11:54:15	1.2	70.5
49266	2024-01-11T12:04:15	1	69.5
49267	2024-01-11T12:14:15	1.7	68.5
49268	2024-01-11T12:24:15	3	64
49269	2024-01-11T12:34:15	4.5	58.5
49270	2024-01-11T12:44:15	5.4	55
49271	2024-01-11T12:54:15	6.1	52.5
49272	2024-01-11T13:04:15	6.5	51
49273	2024-01-11T13:14:15	7	50
49274	2024-01-11T13:24:15	7.5	48
49275	2024-01-11T13:34:15	7.9	46.5
49276	2024-01-11T13:44:15	7.7	46.5
49277	2024-01-11T13:54:15	8	46.5
49278	2024-01-11T14:04:15	8.3	45.5
49279	2024-01-11T14:14:15	8.4	44.5
49280	2024-01-11T14:24:15	8.2	44.5
49281	2024-01-11T14:34:15	8.3	44.5
49282	2024-01-11T14:44:15	8.4	45.5
49283	2024-01-11T14:54:15	8.4	44
49284	2024-01-11T15:04:15	7.1	47
49285	2024-01-11T15:14:15	5.5	52
49286	2024-01-11T15:24:15	4.8	56
49287	2024-01-11T15:34:15	3.9	58.5
49288	2024-01-11T15:44:15	3.3	60
49289	2024-01-11T15:54:15	2.9	62.5
49290	2024-01-11T16:04:15	2.7	63
49291	2024-01-11T16:14:15	2.4	66
49292	2024-01-11T16:24:15	2.1	65.5
49293	2024-01-11T16:34:15	1.8	67.5
49294	2024-01-11T16:44:15	1.6	68
49295	2024-01-11T16:54:15	1.4	70.5
49296	2024-01-11T17:04:15	1.2	70
49297	2024-01-11T17:14:15	1.1	71
49298	2024-01-11T17:24:15	1	70.5
49299	2024-01-11T17:34:15	0.7	72
49300	2024-01-11T17:44:15	0.5	72
49301	2024-01-11T17:54:15	0.4	72
49302	2024-01-11T18:04:15	0.3	74
49303	2024-01-11T18:14:15	0.2	74
49304	2024-01-11T18:24:15	0	73
49305	2024-01-11T18:34:15	-0.3	74.5
49306	2024-01-11T18:44:15	-0.3	75
49307	2024-01-11T18:54:15	-0.4	76
49308	2024-01-11T19:04:15	-0.5	76.5
49309	2024-01-11T19:14:15	-0.5	77
49310	2024-01-11T19:24:15	-0.7	78
49311	2024-01-11T19:34:15	-0.8	77.5
49312	2024-01-11T19:44:15	-0.9	78.5
49313	2024-01-11T19:54:15	-1	78.5
49314	2024-01-11T20:04:15	-1.1	79.5
49315	2024-01-11T20:14:15	-1.2	78.5
49316	2024-01-11T20:24:15	-1.3	78.5
49317	2024-01-11T20:34:15	-1.2	79
49318	2024-01-11T20:44:15	-1.1	79
49319	2024-01-11T20:54:15	-1.3	79
49320	2024-01-11T21:04:15	-1.4	79
49321	2024-01-11T21:14:15	-1.4	79.5
49322	2024-01-11T21:24:15	-1.5	79.5
49323	2024-01-11T21:34:15	-1.4	80
49324	2024-01-11T21:44:15	-1.6	80
49325	2024-01-11T21:54:15	-1.4	80
49326	2024-01-11T22:04:15	-1.6	79
49327	2024-01-11T22:14:15	-1.6	79.5
49328	2024-01-11T22:24:15	-1.6	80
49329	2024-01-11T22:34:15	-1.7	80
49330	2024-01-11T22:44:15	-1.8	80.5
49331	2024-01-11T22:54:15	-1.9	81
49332	2024-01-11T23:04:15	-1.8	80.5
49333	2024-01-11T23:14:15	-1.9	79.5
49334	2024-01-11T23:24:15	-1.9	79.5
49335	2024-01-11T23:34:15	-2.1	80
49336	2024-01-11T23:44:15	-2	80.5
49337	2024-01-11T23:54:15	-2.1	80
49338	2024-01-12T00:04:15	-2.1	80
49339	2024-01-12T00:14:15	-2.2	81
49340	2024-01-12T00:24:15	-2.3	80
49341	2024-01-12T00:34:15	-2.5	80
49342	2024-01-12T00:44:15	-2.5	81.5
49343	2024-01-12T00:54:15	-2.4	81
49344	2024-01-12T01:04:15	-2.5	81
49345	2024-01-12T01:14:15	-2.4	81
49346	2024-01-12T01:24:15	-2.6	79.5
49347	2024-01-12T01:34:15	-2.5	80.5
49348	2024-01-12T01:44:15	-2.7	80
49349	2024-01-12T01:54:15	-2.8	80.5
49350	2024-01-12T02:04:15	-2.9	80.5
49351	2024-01-12T02:14:15	-3	81
49352	2024-01-12T02:24:15	-2.9	81.5
49353	2024-01-12T02:34:15	-3	81.5
49354	2024-01-12T02:44:15	-3	80.5
49355	2024-01-12T02:54:15	-3.3	82
49356	2024-01-12T03:04:15	-3.1	82.5
49357	2024-01-12T03:14:15	-3.2	81.5
49358	2024-01-12T03:24:15	-3.4	82
49359	2024-01-12T03:34:15	-3.5	82
49360	2024-01-12T03:44:15	-3.5	82.5
49361	2024-01-12T03:54:15	-3.5	83
49362	2024-01-12T04:04:15	-3.6	83
49363	2024-01-12T04:14:15	-3.7	83.5
49364	2024-01-12T04:24:15	-3.6	83.5
49365	2024-01-12T04:34:15	-3.8	82.5
49366	2024-01-12T04:44:15	-3.7	83.5
49367	2024-01-12T04:54:15	-3.8	83.5
49368	2024-01-12T05:04:15	-3.9	84
49369	2024-01-12T05:14:15	-4.1	83.5
49370	2024-01-12T05:24:15	-4.1	84
49371	2024-01-12T05:44:31	-4.1	84.5
49372	2024-01-12T05:54:15	-4.1	83
49373	2024-01-12T06:14:15	-4	85
49374	2024-01-12T06:24:15	-4	84.5
49375	2024-01-12T06:34:21	-4.1	84.5
49376	2024-01-12T06:44:15	-4.3	84
49377	2024-01-12T06:54:15	-4.4	84.5
49378	2024-01-12T07:04:15	-4.4	85
49379	2024-01-12T07:14:15	-4.5	85.5
49380	2024-01-12T07:24:15	-4.6	85.5
49381	2024-01-12T07:34:15	-4.6	86
49382	2024-01-12T07:44:15	-4.5	86.5
49383	2024-01-12T07:54:15	-4.5	86
49384	2024-01-12T08:04:15	-4.6	85.5
49385	2024-01-12T08:14:15	-4.5	86
49386	2024-01-12T08:24:15	-4.4	86
49387	2024-01-12T08:34:15	-4.3	86
49388	2024-01-12T08:44:15	-4.1	86
49389	2024-01-12T08:54:15	-4	86.5
49390	2024-01-12T09:04:15	-3.9	86.5
49391	2024-01-12T09:14:15	-3.8	86.5
49392	2024-01-12T09:24:15	-3.6	86.5
49393	2024-01-12T09:34:15	-3.4	86.5
49394	2024-01-12T09:44:15	-3.2	86
49395	2024-01-12T09:54:15	-3	86
49396	2024-01-12T10:04:15	-2.9	85.5
49397	2024-01-12T10:14:15	-2.6	84.5
49398	2024-01-12T10:24:15	-2.4	85.5
49399	2024-01-12T10:34:15	-2.2	84.5
49400	2024-01-12T10:44:15	-1.9	83.5
49401	2024-01-12T10:54:15	-1.8	83.5
49402	2024-01-12T11:04:15	-1.5	82
49403	2024-01-12T11:14:15	-1.2	81
49404	2024-01-12T11:24:15	-0.7	80
49405	2024-01-12T11:34:15	-0.4	79.5
49406	2024-01-12T11:44:15	0.1	78
49407	2024-01-12T11:54:15	0.9	73.5
49408	2024-01-12T12:04:15	0.9	75
49409	2024-01-12T12:14:15	1.3	73.5
49410	2024-01-12T12:24:15	2.8	70
49411	2024-01-12T12:34:15	4.5	63
49412	2024-01-12T12:44:15	5.1	60
49413	2024-01-12T12:54:15	5.8	58
49414	2024-01-12T13:04:15	6.1	55.5
49415	2024-01-12T13:14:15	7	54.5
49416	2024-01-12T13:24:15	7.5	53
49417	2024-01-12T13:34:15	8.3	52
49418	2024-01-12T13:44:15	8.6	51
49419	2024-01-12T13:54:15	8.8	49
49420	2024-01-12T14:04:15	9.2	49.5
49421	2024-01-12T14:14:15	9.3	47.5
49422	2024-01-12T14:24:15	9.1	47.5
49423	2024-01-12T14:34:15	8.2	50
49424	2024-01-12T14:44:15	7.6	51.5
49425	2024-01-12T14:54:15	6.3	56
49426	2024-01-12T15:04:15	5.4	59.5
49427	2024-01-12T15:14:15	4.9	62
49428	2024-01-12T15:24:15	4.5	64
49429	2024-01-12T15:34:15	4.2	65
49430	2024-01-12T15:44:15	4	66
49431	2024-01-12T15:54:15	3.8	67
49432	2024-01-12T16:04:15	3.5	68.5
49433	2024-01-12T16:14:15	3.3	69
49434	2024-01-12T16:24:15	3.1	70
49435	2024-01-12T16:34:15	3	70
49436	2024-01-12T16:44:15	2.8	70.5
49437	2024-01-12T16:54:15	2.7	71
49438	2024-01-12T17:04:15	2.5	71.5
49439	2024-01-12T17:14:15	2.3	70.5
49440	2024-01-12T17:24:15	2.4	71.5
49441	2024-01-12T17:34:15	2.2	71
49442	2024-01-12T17:44:15	2	71.5
49443	2024-01-12T17:54:15	2	72.5
49444	2024-01-12T18:04:15	1.9	73.5
49445	2024-01-12T18:14:15	1.7	73.5
49446	2024-01-12T18:24:15	1.5	75
49447	2024-01-12T18:34:15	1.6	75.5
49448	2024-01-12T18:44:15	1.5	75.5
49449	2024-01-12T18:54:15	1.6	76.5
49450	2024-01-12T19:04:15	1.5	77
49451	2024-01-12T19:14:15	1.4	77.5
49452	2024-01-12T19:24:15	1.3	78.5
49453	2024-01-12T19:34:15	1.2	79
49454	2024-01-12T19:44:15	1.2	80
49455	2024-01-12T19:54:15	1.3	81
49456	2024-01-12T20:04:15	1.3	80.5
49457	2024-01-12T20:14:15	1.2	81.5
49458	2024-01-12T20:24:15	1.2	81.5
49459	2024-01-12T20:34:15	1.2	82
49460	2024-01-12T20:44:15	1.1	82.5
49461	2024-01-12T20:54:15	1.2	83.5
49462	2024-01-12T21:04:15	1.2	83.5
49463	2024-01-12T21:14:15	1.1	83.5
49464	2024-01-12T21:24:15	1.1	84
49465	2024-01-12T21:34:15	1.1	84
49466	2024-01-12T21:44:15	1.1	84
49467	2024-01-12T21:54:15	1.1	85
49468	2024-01-12T22:04:15	1	85.5
49469	2024-01-12T22:14:15	1	84.5
49470	2024-01-12T22:24:15	1	85.5
49471	2024-01-12T22:34:15	1	85
49472	2024-01-12T22:44:15	0.9	85
49473	2024-01-12T22:54:15	1	86.5
49474	2024-01-12T23:04:15	1.1	86.5
49475	2024-01-12T23:14:15	0.9	86
49476	2024-01-12T23:24:15	1	86
49477	2024-01-12T23:34:15	1	85.5
49478	2024-01-12T23:44:15	0.9	85
49479	2024-01-12T23:54:15	0.9	86
49480	2024-01-13T00:04:15	0.8	86
49481	2024-01-13T00:14:15	0.7	85.5
49482	2024-01-13T00:24:15	0.7	86.5
49483	2024-01-13T00:34:15	0.9	86
49484	2024-01-13T00:44:15	0.8	85
49485	2024-01-13T00:54:15	0.7	85
49486	2024-01-13T01:04:15	0.7	85.5
49487	2024-01-13T01:14:15	0.6	85
49488	2024-01-13T01:24:15	0.6	85.5
49489	2024-01-13T01:34:15	0.5	85.5
49490	2024-01-13T01:44:15	0.5	85.5
49491	2024-01-13T01:54:15	0.3	83
49492	2024-01-13T02:04:15	0.1	85
49493	2024-01-13T02:14:15	0.2	87
49494	2024-01-13T02:24:15	0.3	87
49495	2024-01-13T02:34:15	0.3	86
49496	2024-01-13T02:44:15	0.4	85
49497	2024-01-13T02:54:15	0.4	85.5
49498	2024-01-13T03:04:15	0.3	84.5
49499	2024-01-13T03:14:15	0.3	84.5
49500	2024-01-13T03:24:15	0.3	86
49501	2024-01-13T03:34:15	0.4	86.5
49502	2024-01-13T03:44:15	0.4	84.5
49503	2024-01-13T03:54:15	0.4	84.5
49504	2024-01-13T04:04:15	0.3	85.5
49505	2024-01-13T04:14:15	0.4	85
49506	2024-01-13T04:24:15	0.2	84
49507	2024-01-13T04:34:15	0.3	84.5
49508	2024-01-13T04:44:15	0.2	84.5
49509	2024-01-13T04:54:15	0.2	84.5
49510	2024-01-13T05:04:15	0.1	84.5
49511	2024-01-13T05:14:15	0.1	84
49512	2024-01-13T05:24:15	0.1	83
49513	2024-01-13T05:34:15	0	82.5
49514	2024-01-13T05:44:15	-0.2	83.5
49515	2024-01-13T05:54:15	-0.2	83
49516	2024-01-13T06:04:15	-0.3	83.5
49517	2024-01-13T06:14:15	-0.3	83.5
49518	2024-01-13T06:24:15	-0.2	83.5
49519	2024-01-13T06:34:15	-0.4	82.5
49520	2024-01-13T06:44:15	-0.3	82.5
49521	2024-01-13T06:54:15	-0.4	83.5
49522	2024-01-13T07:04:15	-0.3	82.5
49523	2024-01-13T07:24:15	-0.6	82.5
49524	2024-01-13T07:34:15	-0.5	83
49525	2024-01-13T07:44:15	-0.5	82.5
49526	2024-01-13T07:54:15	-0.3	83
49527	2024-01-13T08:04:15	-0.3	83
49528	2024-01-13T08:14:15	-0.2	83
49529	2024-01-13T08:24:15	-0.4	81.5
49530	2024-01-13T08:34:15	-0.5	82.5
49531	2024-01-13T08:44:15	-0.6	83.5
49532	2024-01-13T08:54:15	-0.5	84.5
49533	2024-01-13T09:04:15	-0.5	85
49534	2024-01-13T09:14:15	-0.5	85.5
49535	2024-01-13T09:24:15	-0.7	85.5
49536	2024-01-13T09:34:15	-0.6	85.5
49537	2024-01-13T09:44:15	-0.4	86
49538	2024-01-13T09:54:15	-0.6	86
49539	2024-01-13T10:04:15	-0.5	86.5
49540	2024-01-13T10:14:15	-0.6	86
49541	2024-01-13T10:24:15	-0.7	86
49542	2024-01-13T10:34:15	-0.7	85.5
49543	2024-01-13T10:44:15	-0.7	86.5
49544	2024-01-13T10:54:15	-0.8	86.5
49545	2024-01-13T11:04:15	-0.8	86
49546	2024-01-13T11:14:15	-0.7	86
49547	2024-01-13T11:24:15	-0.8	86.5
49548	2024-01-13T11:34:15	-0.9	87.5
49549	2024-01-13T11:44:15	-1	87
49550	2024-01-13T11:54:15	-1.1	87
49551	2024-01-13T12:04:15	-1.2	88.5
49552	2024-01-13T12:14:15	-1.1	88.5
49553	2024-01-13T12:24:15	-1.3	88.5
49554	2024-01-13T12:34:15	-1.3	89
49555	2024-01-13T12:44:15	-1.4	89
49556	2024-01-13T12:54:15	-1.5	89
49557	2024-01-13T13:04:15	-1.5	88.5
49558	2024-01-13T13:14:15	-1.5	87
49559	2024-01-13T13:24:15	-1.5	88
49560	2024-01-13T13:34:15	-1.6	89
49561	2024-01-13T13:44:15	-1.5	89
49562	2024-01-13T13:54:15	-1.5	89.5
49563	2024-01-13T14:04:15	-1.6	89.5
49564	2024-01-13T14:14:15	-1.7	89.5
49565	2024-01-13T14:24:15	-1.5	89.5
49566	2024-01-13T14:34:15	-1.6	89.5
49567	2024-01-13T14:44:15	-1.6	88.5
49568	2024-01-13T14:54:15	-1.7	89
49569	2024-01-13T15:04:15	-1.6	89
49570	2024-01-13T15:14:15	-1.6	87.5
49571	2024-01-13T15:24:15	-1.7	87
49572	2024-01-13T15:34:15	-1.7	88
49573	2024-01-13T15:44:15	-1.7	88
49574	2024-01-13T15:54:15	-1.7	88
49575	2024-01-13T16:04:15	-1.7	88.5
49576	2024-01-13T16:14:15	-1.8	88
49577	2024-01-13T16:24:15	-1.7	87.5
49578	2024-01-13T16:34:15	-1.7	87.5
49579	2024-01-13T16:44:15	-1.7	87.5
49580	2024-01-13T16:54:15	-1.8	88
49581	2024-01-13T17:04:15	-1.8	88
49582	2024-01-13T17:14:15	-1.8	88
49583	2024-01-13T17:24:15	-1.9	87.5
49584	2024-01-13T17:34:15	-1.8	88
49585	2024-01-13T17:44:15	-1.9	88
49586	2024-01-13T17:54:15	-1.8	88
49587	2024-01-13T18:04:15	-1.9	87.5
49588	2024-01-13T18:14:15	-1.9	87.5
49589	2024-01-13T18:24:15	-2	88
49590	2024-01-13T18:34:15	-1.9	87.5
49591	2024-01-13T18:44:15	-1.9	87.5
49592	2024-01-13T18:54:15	-2	87.5
49593	2024-01-13T19:04:15	-2	87
49594	2024-01-13T19:14:15	-2	87
49595	2024-01-13T19:24:15	-2.1	87.5
49596	2024-01-13T19:34:15	-2	87.5
49597	2024-01-13T19:44:15	-1.9	87.5
49598	2024-01-13T19:54:15	-2	88
49599	2024-01-13T20:04:15	-2	88
49600	2024-01-13T20:14:15	-2.1	88
49601	2024-01-13T20:24:15	-2	88.5
49602	2024-01-13T20:34:15	-2	88.5
49603	2024-01-13T20:44:15	-2	88.5
49604	2024-01-13T20:54:15	-2	88.5
49605	2024-01-13T21:04:15	-2	88.5
49606	2024-01-13T21:14:15	-2.1	88.5
49607	2024-01-13T21:24:15	-2.1	88
49608	2024-01-13T21:34:15	-2.1	88
49609	2024-01-13T21:44:15	-2	88.5
49610	2024-01-13T21:54:15	-2.1	88.5
49611	2024-01-13T22:04:15	-2.1	88.5
49612	2024-01-13T22:24:15	-2.1	88
49613	2024-01-13T22:34:15	-2.1	88
49614	2024-01-13T22:44:15	-2.2	88
49615	2024-01-13T22:54:15	-2	88
49616	2024-01-13T23:04:15	-2.1	87.5
49617	2024-01-13T23:14:15	-2.1	88
49618	2024-01-13T23:24:15	-2.1	87
49619	2024-01-13T23:34:15	-2.2	87
49620	2024-01-13T23:44:15	-2.3	87
49621	2024-01-13T23:54:15	-2.1	87.5
49622	2024-01-14T00:04:15	-2.2	87
49623	2024-01-14T00:14:15	-2.2	87
49624	2024-01-14T00:24:15	-2.2	87
49625	2024-01-14T00:34:15	-2.2	87
49626	2024-01-14T00:44:15	-2.2	87
49627	2024-01-14T00:54:15	-2.4	87
49628	2024-01-14T01:04:15	-2.3	87
49629	2024-01-14T01:14:15	-2.3	87
49630	2024-01-14T01:24:15	-2.4	87
49631	2024-01-14T01:34:15	-2.3	86.5
49632	2024-01-14T01:44:15	-2.3	86.5
49633	2024-01-14T01:54:15	-2.4	86.5
49634	2024-01-14T02:04:15	-2.6	86.5
49635	2024-01-14T02:24:15	-2.6	86
49636	2024-01-14T02:34:15	-2.6	86
49637	2024-01-14T02:44:15	-2.6	86
49638	2024-01-14T02:54:15	-2.7	86.5
49639	2024-01-14T03:04:15	-2.6	86.5
49640	2024-01-14T03:14:15	-2.7	86.5
49641	2024-01-14T03:24:15	-2.5	86.5
49642	2024-01-14T03:34:15	-2.6	86.5
49643	2024-01-14T03:44:15	-2.7	87
49644	2024-01-14T03:54:15	-2.7	87
49645	2024-01-14T04:04:15	-2.8	87
49646	2024-01-14T04:14:15	-2.8	87
49647	2024-01-14T04:24:15	-2.8	87.5
49648	2024-01-14T04:34:15	-2.7	87.5
49649	2024-01-14T04:44:15	-2.7	87.5
49650	2024-01-14T04:54:15	-2.7	87.5
49651	2024-01-14T05:04:15	-2.8	87.5
49652	2024-01-14T05:14:15	-2.8	88
49653	2024-01-14T05:24:15	-2.9	87.5
49654	2024-01-14T05:34:15	-2.9	87.5
49655	2024-01-14T05:44:15	-2.8	88
49656	2024-01-14T05:54:15	-2.9	87
49657	2024-01-14T06:04:15	-2.7	87
49658	2024-01-14T06:14:15	-2.8	87
49659	2024-01-14T06:24:16	-2.8	86.5
49660	2024-01-14T06:34:15	-2.8	86
49661	2024-01-14T06:44:15	-2.7	86
49662	2024-01-14T06:54:15	-2.9	87
49663	2024-01-14T07:04:15	-2.9	87.5
49664	2024-01-14T07:14:15	-2.9	86.5
49665	2024-01-14T07:24:15	-2.8	86.5
49666	2024-01-14T07:34:15	-2.8	86
49667	2024-01-14T07:44:15	-2.8	85.5
49668	2024-01-14T07:54:15	-2.8	86
49669	2024-01-14T08:04:15	-3	85.5
49670	2024-01-14T08:14:15	-2.8	85.5
49671	2024-01-14T08:24:15	-2.8	85
49672	2024-01-14T08:34:15	-2.8	85
49673	2024-01-14T08:44:15	-2.7	85
49674	2024-01-14T08:54:15	-2.7	85.5
49675	2024-01-14T09:04:15	-2.7	86
49676	2024-01-14T09:14:15	-2.6	85
49677	2024-01-14T09:24:15	-2.6	84.5
49678	2024-01-14T09:34:15	-2.7	84.5
49679	2024-01-14T09:44:15	-2.7	84
49680	2024-01-14T09:54:15	-2.7	83.5
49681	2024-01-14T10:04:15	-2.5	83
49682	2024-01-14T10:14:15	-2.4	83
49683	2024-01-14T10:24:15	-2.4	82.5
49684	2024-01-14T10:34:15	-2.4	82.5
49685	2024-01-14T10:44:15	-2.4	83
49686	2024-01-14T10:54:15	-2.3	83
49687	2024-01-14T11:04:15	-2.3	83
49688	2024-01-14T11:14:15	-2.2	83.5
49689	2024-01-14T11:24:15	-2.2	83.5
49690	2024-01-14T11:34:15	-2.3	83.5
49691	2024-01-14T11:44:15	-2.1	83
49692	2024-01-14T11:54:15	-2.1	83
49693	2024-01-14T12:04:15	-2.1	83
49694	2024-01-14T12:14:15	-2.1	82.5
49695	2024-01-14T12:24:15	-2	83
49696	2024-01-14T12:34:15	-2.1	82
49697	2024-01-14T12:44:15	-2	81.5
49698	2024-01-14T12:54:15	-2	81.5
49699	2024-01-14T13:04:15	-1.7	81
49700	2024-01-14T13:14:15	-1.9	81.5
49701	2024-01-14T13:24:15	-1.8	81.5
49702	2024-01-14T13:34:15	-1.8	82
49703	2024-01-14T13:44:15	-1.9	81.5
49704	2024-01-14T13:54:15	-1.9	81.5
49705	2024-01-14T14:04:15	-1.7	81
49706	2024-01-14T14:14:15	-1.6	81
49707	2024-01-14T14:24:15	-1.6	81.5
49708	2024-01-14T14:34:15	-1.7	81
49709	2024-01-14T14:44:15	-1.7	81
49710	2024-01-14T14:54:15	-1.5	81
49711	2024-01-14T15:04:15	-1.4	81.5
49712	2024-01-14T15:14:15	-1.5	81.5
49713	2024-01-14T15:24:15	-1.5	81.5
49714	2024-01-14T15:34:15	-1.8	83
49715	2024-01-14T15:44:15	-1.9	84
49716	2024-01-14T15:54:15	-2	84
49717	2024-01-14T16:04:15	-2.1	84.5
49718	2024-01-14T16:14:15	-2	84.5
49719	2024-01-14T16:24:15	-2.3	84.5
49720	2024-01-14T16:34:15	-2.3	84.5
49721	2024-01-14T16:44:15	-2.5	85
49722	2024-01-14T16:54:15	-2.5	85.5
49723	2024-01-14T17:04:15	-2.6	86
49724	2024-01-14T17:14:15	-2.9	86.5
49725	2024-01-14T17:24:15	-3.2	87.5
49726	2024-01-14T17:34:15	-3.4	88
49727	2024-01-14T17:44:15	-3.4	88
49728	2024-01-14T17:54:15	-3.5	88.5
49729	2024-01-14T18:04:15	-3.5	88.5
49730	2024-01-14T18:14:15	-3.5	88
49731	2024-01-14T18:24:15	-3.3	87.5
49732	2024-01-14T18:34:15	-3.2	87
49733	2024-01-14T18:54:15	-3.1	87
49734	2024-01-14T19:04:15	-3.1	86.5
49735	2024-01-14T19:14:15	-3.1	86.5
49736	2024-01-14T19:24:15	-3.1	86
49737	2024-01-14T19:34:15	-2.9	86
49738	2024-01-14T19:44:15	-2.9	86
49739	2024-01-14T19:54:15	-2.8	85
49740	2024-01-14T20:04:15	-2.7	85.5
49741	2024-01-14T20:14:15	-2.7	85.5
49742	2024-01-14T20:24:15	-2.5	85
49743	2024-01-14T20:34:15	-2.5	84.5
49744	2024-01-14T20:44:15	-2.5	84
49745	2024-01-14T20:54:15	-2.4	83.5
49746	2024-01-14T21:04:15	-2.3	84
49747	2024-01-14T21:14:15	-2.3	84.5
49748	2024-01-14T21:24:15	-2.2	84.5
49749	2024-01-14T21:34:15	-2.1	85
49750	2024-01-14T21:44:15	-2.1	84.5
49751	2024-01-14T21:54:15	-2.1	84.5
49752	2024-01-14T22:04:15	-2	84.5
49753	2024-01-14T22:14:15	-1.8	84.5
49754	2024-01-14T22:24:15	-1.8	84.5
49755	2024-01-14T22:34:15	-1.7	84.5
49756	2024-01-14T22:44:15	-1.7	84
49757	2024-01-14T22:54:15	-1.6	83
49758	2024-01-14T23:04:15	-1.6	82
49759	2024-01-14T23:14:15	-1.5	82
49760	2024-01-14T23:24:15	-1.5	81.5
49761	2024-01-14T23:34:15	-1.4	82
49762	2024-01-14T23:44:15	-1.5	82
49763	2024-01-14T23:54:15	-1.4	82
49764	2024-01-15T00:04:15	-1.5	82.5
49765	2024-01-15T00:14:15	-1.5	83
49766	2024-01-15T00:24:15	-1.4	83.5
49767	2024-01-15T00:44:15	-1.4	84
49768	2024-01-15T00:54:15	-1.4	83.5
49769	2024-01-15T01:04:15	-1.4	84
49770	2024-01-15T01:14:15	-1.4	83.5
49771	2024-01-15T01:24:15	-1.4	84
49772	2024-01-15T01:34:15	-1.4	84
49773	2024-01-15T01:44:15	-1.4	84.5
49774	2024-01-15T01:54:15	-1.5	84.5
49775	2024-01-15T02:04:15	-1.3	85
49776	2024-01-15T02:14:15	-1.3	85
49777	2024-01-15T02:24:15	-1.3	85
49778	2024-01-15T02:34:15	-1.3	85
49779	2024-01-15T02:44:15	-1.2	85
49780	2024-01-15T02:54:15	-1.2	85
49781	2024-01-15T03:04:15	-1.1	85
49782	2024-01-15T03:14:15	-1.2	85.5
49783	2024-01-15T03:24:15	-1	85.5
49784	2024-01-15T03:34:15	-1	85.5
49785	2024-01-15T03:44:15	-0.9	85.5
49786	2024-01-15T03:54:15	-0.9	85
49787	2024-01-15T04:04:15	-0.9	85
49788	2024-01-15T04:14:15	-0.9	86
49789	2024-01-15T04:24:15	-0.8	85.5
49790	2024-01-15T04:34:15	-0.8	85.5
49791	2024-01-15T04:44:15	-0.7	86
49792	2024-01-15T04:54:15	-0.7	86
49793	2024-01-15T05:04:15	-0.7	86.5
49794	2024-01-15T05:14:15	-0.7	86.5
49795	2024-01-15T05:24:15	-0.6	86
49796	2024-01-15T05:34:15	-0.6	86
49797	2024-01-15T05:44:15	-0.6	86
49798	2024-01-15T05:54:15	-0.6	85.5
49799	2024-01-15T06:04:15	-0.6	85.5
49800	2024-01-15T06:14:15	-0.7	86
49801	2024-01-15T06:24:15	-0.6	86
49802	2024-01-15T06:34:15	-0.7	86
49803	2024-01-15T06:44:15	-0.7	85.5
49804	2024-01-15T06:54:15	-0.6	85.5
49805	2024-01-15T07:04:15	-0.5	85
49806	2024-01-15T07:14:15	-0.4	84.5
49807	2024-01-15T07:24:15	-0.5	84.5
49808	2024-01-15T07:34:15	-0.4	84.5
49809	2024-01-15T07:44:15	-0.4	85
49810	2024-01-15T07:54:15	-0.3	85
49811	2024-01-15T08:04:15	-0.3	84.5
49812	2024-01-15T08:14:15	-0.3	85
49813	2024-01-15T08:24:15	-0.2	85
49814	2024-01-15T08:34:15	-0.1	84.5
49815	2024-01-15T08:44:15	-0.1	84.5
49816	2024-01-15T08:54:15	0	83.5
49817	2024-01-15T09:04:15	0.1	83
49818	2024-01-15T09:14:15	0.1	82.5
49819	2024-01-15T09:24:15	0.4	82.5
49820	2024-01-15T09:34:15	0.3	82.5
49821	2024-01-15T09:44:15	0.5	82.5
49822	2024-01-15T09:54:15	0.5	83
49823	2024-01-15T10:04:15	0.6	83.5
49824	2024-01-15T10:14:15	0.6	84
49825	2024-01-15T10:24:15	0.3	89.5
49826	2024-01-15T10:34:15	0.1	94
49827	2024-01-15T10:44:15	0	93.5
49828	2024-01-15T10:54:15	0.1	94.5
49829	2024-01-15T11:04:15	0.1	97
49830	2024-01-15T11:14:15	0	99.5
49831	2024-01-15T11:24:15	0	100
49832	2024-01-15T11:34:16	-0.1	100
49833	2024-01-15T11:44:15	0	100
49834	2024-01-15T11:54:15	0	100
49835	2024-01-15T12:04:15	0	100
49836	2024-01-15T12:14:15	0	100
49837	2024-01-15T12:24:15	0	100
49838	2024-01-15T12:34:15	0	100
49839	2024-01-15T12:44:15	0	100
49840	2024-01-15T12:54:15	0	100
49841	2024-01-15T13:44:15	0	100
49842	2024-01-15T13:54:15	0	100
49843	2024-01-15T14:04:15	0.1	100
49844	2024-01-15T14:14:15	0.2	100
49845	2024-01-15T14:24:15	0.3	100
49846	2024-01-15T14:34:15	0.6	100
49847	2024-01-15T14:44:15	0.6	99.5
49848	2024-01-15T14:54:15	0.6	97.5
49849	2024-01-15T15:04:15	0.6	96.5
49850	2024-01-15T15:14:15	0.6	96
49851	2024-01-15T15:24:15	0.6	95.5
49852	2024-01-15T15:34:15	0.5	94
49853	2024-01-15T15:44:15	0.5	93
49854	2024-01-15T15:54:15	0.6	92.5
49855	2024-01-15T16:04:15	0.5	90.5
49856	2024-01-15T16:14:15	0.6	90.5
49857	2024-01-15T16:24:15	0.6	90.5
49858	2024-01-15T16:34:15	0.6	92
49859	2024-01-15T16:44:15	0.5	91.5
49860	2024-01-15T16:54:15	0.6	91.5
49861	2024-01-15T17:04:15	0.7	91.5
49862	2024-01-15T17:14:15	0.7	91
49863	2024-01-15T17:24:15	0.6	90
49864	2024-01-15T17:34:15	0.5	88.5
49865	2024-01-15T17:44:15	0.5	89
49866	2024-01-15T17:54:15	0.5	87.5
49867	2024-01-15T18:04:15	0.5	86.5
49868	2024-01-15T18:14:15	0.5	85.5
49869	2024-01-15T18:24:15	0.5	85
49870	2024-01-15T18:34:15	0.5	84
49871	2024-01-15T18:44:15	0.7	82.5
49872	2024-01-15T18:54:15	0.6	82
49873	2024-01-15T19:04:15	0.7	81.5
49874	2024-01-15T19:14:15	0.6	81
49875	2024-01-15T19:24:15	0.6	80.5
49876	2024-01-15T19:34:15	0.7	80.5
49877	2024-01-15T19:44:15	0.6	80.5
49878	2024-01-15T19:54:15	0.6	80
49879	2024-01-15T20:04:15	0.5	80
49880	2024-01-15T20:14:15	0.3	80.5
49881	2024-01-15T20:24:15	0.2	80.5
49882	2024-01-15T20:34:15	0.2	81.5
49883	2024-01-15T20:44:15	0.1	81.5
49884	2024-01-15T20:54:15	0	81
49885	2024-01-15T21:04:15	0.2	79.5
49886	2024-01-15T21:14:15	0.4	79
49887	2024-01-15T21:24:15	0.2	79
49888	2024-01-15T21:34:15	0.3	78.5
49889	2024-01-15T21:44:15	0.3	78.5
49890	2024-01-15T21:54:15	0.3	78.5
49891	2024-01-15T22:04:15	0.3	78.5
49892	2024-01-15T22:14:15	0.3	78
49893	2024-01-15T22:24:15	0.4	78.5
49894	2024-01-15T22:34:15	0.3	77.5
49895	2024-01-15T22:44:15	0.4	78
49896	2024-01-15T22:54:15	0.4	77
49897	2024-01-15T23:04:15	0.5	77
49898	2024-01-15T23:14:15	0.5	75.5
49899	2024-01-15T23:24:15	0.5	76
49900	2024-01-15T23:34:15	0.6	76
49901	2024-01-15T23:44:15	0.7	75.5
49902	2024-01-15T23:54:15	0.6	76
49903	2024-01-16T00:04:15	0.6	76
49904	2024-01-16T00:14:15	0.6	76
49905	2024-01-16T00:24:15	0.5	75.5
49906	2024-01-16T00:34:15	0.5	76
49907	2024-01-16T00:44:15	0.6	75.5
49908	2024-01-16T00:54:15	0.5	76.5
49909	2024-01-16T01:04:15	0.5	76
49910	2024-01-16T01:14:15	0.5	77
49911	2024-01-16T01:24:15	0.5	76.5
49912	2024-01-16T01:34:15	0.5	76
49913	2024-01-16T01:44:15	0.6	75.5
49914	2024-01-16T01:54:15	0.4	75.5
49915	2024-01-16T02:04:15	0.4	75
49916	2024-01-16T02:14:15	0.3	75.5
49917	2024-01-16T02:24:15	0.3	76
49918	2024-01-16T02:34:15	0.2	75
49919	2024-01-16T02:44:15	0.1	75.5
49920	2024-01-16T02:54:15	0	75.5
49921	2024-01-16T03:04:15	0	76
49922	2024-01-16T03:14:15	-0.1	76
49923	2024-01-16T03:24:15	-0.2	76
49924	2024-01-16T03:34:15	-0.4	76.5
49925	2024-01-16T03:44:15	-0.7	77
49926	2024-01-16T03:54:15	-0.8	76.5
49927	2024-01-16T04:04:15	-0.8	77
49928	2024-01-16T04:14:15	-0.9	77
49929	2024-01-16T04:24:15	-1	77.5
49930	2024-01-16T04:34:15	-1.1	77.5
49931	2024-01-16T04:44:15	-1.1	77.5
49932	2024-01-16T04:54:15	-1.2	78
49933	2024-01-16T05:04:15	-1.3	78
49934	2024-01-16T05:14:15	-1.4	78.5
49935	2024-01-16T05:24:15	-1.4	80
49936	2024-01-16T05:34:15	-1.5	79
49937	2024-01-16T05:44:15	-1.5	82.5
49938	2024-01-16T05:54:15	-1.4	80.5
49939	2024-01-16T06:04:15	-1.3	83.5
49940	2024-01-16T06:14:15	-1.5	82.5
49941	2024-01-16T06:24:15	-1.4	81
49942	2024-01-16T06:34:15	-1.4	80.5
49943	2024-01-16T06:44:15	-1.3	80
49944	2024-01-16T06:54:15	-1.3	82
49945	2024-01-16T07:04:15	-1.3	82
49946	2024-01-16T07:24:15	-1.3	84.5
49947	2024-01-16T07:34:15	-1.3	86
49948	2024-01-16T07:44:15	-1.3	87
49949	2024-01-16T07:54:15	-1.1	86.5
49950	2024-01-16T08:04:15	-1	86
49951	2024-01-16T08:14:15	-1	82.5
49952	2024-01-16T08:24:15	-0.9	82
49953	2024-01-16T08:34:15	-0.7	82.5
49954	2024-01-16T08:44:15	-0.5	82.5
49955	2024-01-16T08:54:15	-0.4	82
49956	2024-01-16T09:04:15	-0.3	80.5
49957	2024-01-16T09:14:15	-0.2	80
49958	2024-01-16T09:24:15	-0.1	79
49959	2024-01-16T09:34:15	0.2	81.5
49960	2024-01-16T09:44:15	0.3	78.5
49961	2024-01-16T09:54:15	0.2	76
49962	2024-01-16T10:04:15	0.4	76
49963	2024-01-16T10:14:15	0.6	76
49964	2024-01-16T10:24:15	0.3	76
49965	2024-01-16T10:34:15	0.3	76
49966	2024-01-16T10:44:15	0.3	75.5
49967	2024-01-16T10:54:15	0.2	75
49968	2024-01-16T11:04:15	0.3	75
49969	2024-01-16T11:14:15	0.5	75.5
49970	2024-01-16T11:24:15	0.9	74
49971	2024-01-16T11:34:15	1.2	74
49972	2024-01-16T11:44:15	1.8	70.5
49973	2024-01-16T11:54:15	2.7	67.5
49974	2024-01-16T12:04:15	2.4	66
49975	2024-01-16T12:14:15	3	63.5
49976	2024-01-16T12:24:15	4.2	60.5
49977	2024-01-16T12:34:15	6.5	56
49978	2024-01-16T12:44:15	7.8	61.5
49979	2024-01-16T12:54:15	8.8	48.5
49980	2024-01-16T13:04:15	10.6	48.5
49981	2024-01-16T13:14:15	12.1	48.5
49982	2024-01-16T13:24:15	12.8	38.5
49983	2024-01-16T13:34:15	13.1	42.5
49984	2024-01-16T13:44:15	13.2	33
49985	2024-01-16T13:54:15	12.6	35.5
49986	2024-01-16T14:04:36	12.6	35
49987	2024-01-16T14:14:15	11.8	34
49988	2024-01-16T14:24:15	11.6	33.5
49989	2024-01-16T14:34:15	11.9	37
49990	2024-01-16T14:44:15	12.2	35.5
49991	2024-01-16T14:54:15	11.4	37
49992	2024-01-16T15:04:15	9.7	40.5
49993	2024-01-16T15:14:15	8.7	46.5
49994	2024-01-16T15:24:15	8.7	48
49995	2024-01-16T15:34:15	8.1	49.5
49996	2024-01-16T15:44:15	7	51.5
49997	2024-01-16T15:54:15	6.5	58
49998	2024-01-16T16:04:15	5.7	57.5
49999	2024-01-16T16:14:15	4.9	58.5
50000	2024-01-16T16:24:15	4.7	59.5
50001	2024-01-16T16:34:15	4.4	60
50002	2024-01-16T16:44:15	4	63
50003	2024-01-16T16:54:15	3.8	62.5
50004	2024-01-16T17:04:15	3.3	63
50005	2024-01-16T17:14:15	3.2	65.5
50006	2024-01-16T17:44:15	2.3	68
50007	2024-01-16T17:54:15	2.3	67.5
50008	2024-01-16T18:04:15	2	69
50009	2024-01-16T18:14:15	1.8	69
50010	2024-01-16T18:24:15	1.6	69.5
50011	2024-01-16T18:34:15	1.4	70
50012	2024-01-16T18:44:15	1.2	70.5
50013	2024-01-16T18:54:15	1	70.5
50014	2024-01-16T19:04:15	0.6	69.5
50015	2024-01-16T19:14:15	0.5	71.5
50016	2024-01-16T19:24:15	0.7	71
50017	2024-01-16T19:34:15	0.3	70
50018	2024-01-16T19:44:15	0.1	72.5
50019	2024-01-16T19:54:15	0	72.5
50020	2024-01-16T20:04:15	0	72
50021	2024-01-16T20:14:15	-0.1	74
50022	2024-01-16T20:24:15	-0.2	73.5
50023	2024-01-16T20:34:15	-0.4	73.5
50024	2024-01-16T20:44:15	-0.5	75.5
50025	2024-01-16T20:54:15	-0.7	76
50026	2024-01-16T21:04:15	-0.8	74.5
50027	2024-01-16T21:14:15	-0.8	76.5
50028	2024-01-16T21:24:15	-0.8	77
50029	2024-01-16T21:34:15	-0.9	75
50030	2024-01-16T21:44:15	-1.1	76.5
50031	2024-01-16T21:54:15	-1.2	76.5
50032	2024-01-16T22:04:15	-1.1	78
50033	2024-01-16T22:14:15	-1.3	78
50034	2024-01-16T22:24:15	-1.2	77
50035	2024-01-16T22:34:15	-1.2	77.5
50036	2024-01-16T22:44:15	-1.2	78
50037	2024-01-16T22:54:15	-1.4	76.5
50038	2024-01-16T23:04:15	-1.4	77
50039	2024-01-16T23:14:15	-1.2	77
50040	2024-01-16T23:24:15	-1.1	78
50041	2024-01-16T23:34:15	-1.2	78
50042	2024-01-16T23:44:15	-1.1	79
50043	2024-01-16T23:54:15	-1.1	78.5
50044	2024-01-17T00:04:15	-1.1	79.5
50045	2024-01-17T00:14:15	-1	77.5
50046	2024-01-17T00:24:15	-1.1	78
50047	2024-01-17T00:34:15	-1.3	78
50048	2024-01-17T00:44:15	-1.1	78.5
50049	2024-01-17T00:54:15	-1	78
50050	2024-01-17T01:04:15	-0.9	77.5
50051	2024-01-17T01:14:15	-1	78
50052	2024-01-17T01:24:15	-0.9	79.5
50053	2024-01-17T01:34:15	-0.8	79.5
50054	2024-01-17T01:44:15	-0.9	79.5
50055	2024-01-17T01:54:15	-0.8	81.5
50056	2024-01-17T02:04:15	-0.6	79
50057	2024-01-17T02:14:15	-0.6	79
50058	2024-01-17T02:24:15	-0.6	79
50059	2024-01-17T02:34:15	-0.5	78.5
50060	2024-01-17T02:44:15	-0.8	78.5
50061	2024-01-17T02:54:15	-0.9	80
50062	2024-01-17T03:04:15	-0.6	80.5
50063	2024-01-17T03:14:15	-0.8	82
50064	2024-01-17T03:24:15	-0.7	81.5
50065	2024-01-17T03:34:15	-0.6	84
50066	2024-01-17T03:44:15	-0.6	83
50067	2024-01-17T03:54:15	-0.4	84.5
50068	2024-01-17T04:04:15	-0.3	84
50069	2024-01-17T04:14:15	-0.4	82
50070	2024-01-17T04:24:15	-0.5	82.5
50071	2024-01-17T04:34:15	-0.5	84
50072	2024-01-17T04:44:15	-0.3	84.5
50073	2024-01-17T04:54:15	-0.5	84
50074	2024-01-17T05:04:15	-0.4	85.5
50075	2024-01-17T05:14:15	-0.4	84
50076	2024-01-17T05:24:15	-0.4	84.5
50077	2024-01-17T05:34:15	-0.4	85
50078	2024-01-17T05:44:15	-0.6	84.5
50079	2024-01-17T05:54:15	-0.5	86.5
50080	2024-01-17T06:04:15	-0.4	87.5
50081	2024-01-17T06:14:15	-0.6	87.5
50082	2024-01-17T06:24:15	-0.5	88.5
50083	2024-01-17T06:34:15	-0.3	88.5
50084	2024-01-17T06:44:15	-0.3	87
50085	2024-01-17T06:54:15	-0.2	88
50086	2024-01-17T07:04:15	-0.2	87
50087	2024-01-17T07:14:15	-0.2	88
50088	2024-01-17T07:24:15	-0.2	88
50089	2024-01-17T07:34:15	-0.1	88
50090	2024-01-17T07:44:15	0	88
50091	2024-01-17T07:54:15	0	87.5
50092	2024-01-17T08:04:15	0	89
50093	2024-01-17T08:14:15	0	91
50094	2024-01-17T08:24:15	-0.1	91.5
50095	2024-01-17T08:34:15	0	91
50096	2024-01-17T08:44:15	0	91.5
50097	2024-01-17T08:54:15	0.1	92.5
50098	2024-01-17T09:04:15	0.3	92.5
50099	2024-01-17T09:14:15	0.3	91.5
50100	2024-01-17T09:24:15	0.5	91.5
50101	2024-01-17T09:34:15	0.4	91
50102	2024-01-17T09:44:15	0.6	90.5
50103	2024-01-17T09:54:15	0.7	92.5
50104	2024-01-17T10:04:15	0.7	91.5
50105	2024-01-17T10:14:15	0.7	92.5
50106	2024-01-17T10:24:15	0.7	93.5
50107	2024-01-17T10:34:15	0.8	92
50108	2024-01-17T10:44:15	0.6	93.5
50109	2024-01-17T10:54:15	0.4	96.5
50110	2024-01-17T11:04:15	0.3	96
50111	2024-01-17T11:14:15	0.4	97.5
50112	2024-01-17T11:24:15	0.5	98.5
50113	2024-01-17T11:34:15	0.7	98.5
50114	2024-01-17T11:44:15	1	98
50115	2024-01-17T12:04:15	0.9	96
50116	2024-01-17T12:14:15	1	96.5
50117	2024-01-17T12:24:15	1.3	97
50118	2024-01-17T12:34:15	1.5	94
50119	2024-01-17T12:44:15	1.4	94
50120	2024-01-17T13:04:15	1.3	96.5
50121	2024-01-17T13:14:15	1.2	96.5
50122	2024-01-17T13:24:15	1.1	95.5
50123	2024-01-17T13:34:15	1.3	97
50124	2024-01-17T13:44:15	1.3	95
50125	2024-01-17T13:54:15	1.4	95
50126	2024-01-17T14:04:15	1.7	95
50127	2024-01-17T14:14:15	1.8	94
50128	2024-01-17T14:24:15	1.7	95.5
50129	2024-01-17T14:34:15	1.8	95
50130	2024-01-17T14:44:15	1.9	95.5
50131	2024-01-17T14:54:15	1.7	96
50132	2024-01-17T15:04:15	1.8	97
50133	2024-01-17T15:14:15	1.6	97
50134	2024-01-17T15:24:15	1.4	97.5
50135	2024-01-17T15:34:15	1.5	99
50136	2024-01-17T15:44:15	1.2	99.5
50137	2024-01-17T15:54:15	1.5	100
50138	2024-01-17T16:04:15	1.8	100
50139	2024-01-17T16:14:15	1.7	100
50140	2024-01-17T16:34:15	1.4	100
50141	2024-01-17T16:44:15	1.7	100
50142	2024-01-17T16:54:15	2	100
50143	2024-01-17T17:04:15	2.3	100
50144	2024-01-17T17:14:15	2.4	100
50145	2024-01-17T17:24:15	2.5	100
50146	2024-01-17T17:34:15	7.4	100
50147	2024-01-17T17:44:15	9	100
50148	2024-01-17T17:54:15	9.8	100
50149	2024-01-17T18:04:15	10.5	92
50150	2024-01-17T18:14:15	11	90
50151	2024-01-17T18:24:15	11	90
50152	2024-01-17T18:34:15	11.2	89
50153	2024-01-17T18:44:15	11.6	88
50154	2024-01-17T18:54:15	11.6	87.5
50155	2024-01-17T19:04:15	11.4	88.5
50156	2024-01-17T19:14:15	11.5	88
50157	2024-01-17T19:24:15	11.7	87
50158	2024-01-17T19:34:15	12	86
50159	2024-01-17T19:44:15	12.3	84.5
50160	2024-01-17T19:54:15	12.4	83.5
50161	2024-01-17T20:04:15	12.7	82
50162	2024-01-17T20:14:15	12.6	82
50163	2024-01-17T20:24:15	12.7	82.5
50164	2024-01-17T20:34:15	12.6	82.5
50165	2024-01-17T20:44:15	12.5	83.5
50166	2024-01-17T20:54:15	12.6	83.5
50167	2024-01-17T21:04:15	12.4	84
50168	2024-01-17T21:14:15	12.4	84
50169	2024-01-17T21:24:15	12.3	84.5
50170	2024-01-17T21:34:15	12.2	84.5
50171	2024-01-17T21:44:15	12.5	84.5
50172	2024-01-17T21:54:15	12.5	84
50173	2024-01-17T22:04:15	12.5	85.5
50174	2024-01-17T22:24:15	10.8	98
50175	2024-01-17T22:34:15	10.8	96
50176	2024-01-17T22:44:15	10.8	94
50177	2024-01-17T22:54:15	11	93
50178	2024-01-17T23:04:15	11.1	91.5
50179	2024-01-17T23:14:15	11.1	91
50180	2024-01-17T23:24:15	11.3	89
50181	2024-01-17T23:34:15	11.4	89
50182	2024-01-17T23:44:15	11.2	89
50183	2024-01-17T23:54:15	11.2	89
50184	2024-01-18T00:04:15	10.8	91.5
50185	2024-01-18T00:14:15	10.7	91
50186	2024-01-18T00:24:15	10.2	97.5
50187	2024-01-18T00:34:15	10.2	98.5
50188	2024-01-18T00:44:15	10.2	98.5
50189	2024-01-18T00:54:15	8.8	95
50190	2024-01-18T01:04:14	8.2	92.5
50191	2024-01-18T01:14:14	7.9	91
50192	2024-01-18T01:24:14	7.4	88.5
50193	2024-01-18T01:34:14	7	90
50194	2024-01-18T01:44:14	6.7	91
50195	2024-01-18T01:54:14	6.8	88
50196	2024-01-18T02:04:14	6.6	90
50197	2024-01-18T02:14:14	6.2	90
50198	2024-01-18T02:24:14	6	90
50199	2024-01-18T02:34:14	5.7	89
50200	2024-01-18T02:44:14	5.5	88.5
50201	2024-01-18T02:54:14	5.6	90
50202	2024-01-18T03:04:14	5.5	94
50203	2024-01-18T03:14:14	5.4	90
50204	2024-01-18T03:24:14	5.3	89
50205	2024-01-18T03:34:14	5.1	90.5
50206	2024-01-18T03:44:14	5	87.5
50207	2024-01-18T03:54:14	4.9	90
50208	2024-01-18T04:04:14	4.6	89
50209	2024-01-18T04:14:14	4.7	90.5
50210	2024-01-18T04:24:14	4.6	88
50211	2024-01-18T04:34:14	4.3	89.5
50212	2024-01-18T04:44:14	4.1	90.5
50213	2024-01-18T04:54:14	3.8	91
50214	2024-01-18T05:04:14	3.8	92.5
50215	2024-01-18T05:14:14	3.7	91
50216	2024-01-18T05:24:14	3.6	92.5
50217	2024-01-18T05:34:14	3.5	91.5
50218	2024-01-18T05:44:14	3.4	90.5
50219	2024-01-18T05:54:14	3.6	90.5
50220	2024-01-18T06:04:14	3.5	92.5
50221	2024-01-18T06:14:14	3.4	91
50222	2024-01-18T06:24:14	3.5	92
50223	2024-01-18T06:34:14	3.3	90.5
50224	2024-01-18T06:44:14	3.1	90
50225	2024-01-18T06:54:14	3	91
50226	2024-01-18T07:04:14	3	92.5
50227	2024-01-18T07:14:14	2.9	91.5
50228	2024-01-18T07:24:14	3	91.5
50229	2024-01-18T07:34:14	2.8	91
50230	2024-01-18T07:44:14	2.8	90.5
50231	2024-01-18T07:54:14	2.8	92
50232	2024-01-18T08:04:14	2.9	92
50233	2024-01-18T08:14:14	2.7	92
50234	2024-01-18T08:24:14	2.6	92.5
50235	2024-01-18T08:34:14	2.6	92
50236	2024-01-18T08:44:14	2.6	92
50237	2024-01-18T08:54:14	2.4	90.5
50238	2024-01-18T09:04:14	2.2	92.5
50239	2024-01-18T09:14:14	2.2	93
50240	2024-01-18T09:24:14	2	94
50241	2024-01-18T09:34:14	2	95.5
50242	2024-01-18T09:44:14	1.9	94
50243	2024-01-18T09:54:14	1.9	93.5
50244	2024-01-18T10:04:14	1.8	93.5
50245	2024-01-18T10:14:14	1.4	93.5
50246	2024-01-18T10:24:14	1.6	94.5
50247	2024-01-18T10:34:14	1.6	94.5
50248	2024-01-18T10:44:14	1.6	93.5
50249	2024-01-18T10:54:14	1.5	92
50250	2024-01-18T11:04:14	1.4	93.5
50251	2024-01-18T11:14:14	1.5	93.5
50252	2024-01-18T11:24:14	1.8	94.5
50253	2024-01-18T11:34:14	1.8	92
50254	2024-01-18T11:44:14	1.8	92
50255	2024-01-18T11:54:14	1.7	93
50256	2024-01-18T12:04:14	1.9	92
50257	2024-01-18T12:14:14	2	94
50258	2024-01-18T12:24:14	2.2	94.5
50259	2024-01-18T12:34:14	2.3	94.5
50260	2024-01-18T12:44:14	2.4	93
50261	2024-01-18T12:54:14	2.4	94.5
50262	2024-01-18T13:04:14	2.3	93.5
50263	2024-01-18T13:14:14	2.1	92
50264	2024-01-18T13:24:14	2.1	92
50265	2024-01-18T13:34:14	2.1	92.5
50266	2024-01-18T13:44:14	2	94
50267	2024-01-18T13:54:14	2	93
50268	2024-01-18T14:04:14	2	94
50269	2024-01-18T14:14:14	1.8	95
50270	2024-01-18T14:24:14	2	96.5
50271	2024-01-18T14:34:14	2	93
50272	2024-01-18T14:44:14	1.9	93
50273	2024-01-18T14:54:14	2	94.5
50274	2024-01-18T15:04:14	2	92
50275	2024-01-18T15:14:14	1.9	93.5
50276	2024-01-18T15:24:14	2	93.5
50277	2024-01-18T15:34:14	2	96
50278	2024-01-18T15:44:14	2	94.5
50279	2024-01-18T15:54:14	1.9	94
50280	2024-01-18T16:04:14	1.8	91
50281	2024-01-18T16:14:14	1.8	94.5
50282	2024-01-18T16:24:14	1.7	93
50283	2024-01-18T16:34:14	1.8	95.5
50284	2024-01-18T16:44:14	1.7	93.5
50285	2024-01-18T16:54:14	1.7	93.5
50286	2024-01-18T17:04:14	1.6	94.5
50287	2024-01-18T17:14:14	1.4	94
50288	2024-01-18T17:24:14	1.5	94
50289	2024-01-18T17:34:14	1.3	95
50290	2024-01-18T17:44:14	1.1	95
50291	2024-01-18T17:54:14	1.1	95.5
50292	2024-01-18T18:04:14	1.1	96.5
50293	2024-01-18T18:14:14	1	94
50294	2024-01-18T18:24:14	0.8	94
50295	2024-01-18T18:34:14	0.5	95.5
50296	2024-01-18T18:44:14	0.4	95.5
50297	2024-01-18T18:54:14	0.2	95
50298	2024-01-18T19:04:14	0.2	93.5
50299	2024-01-18T19:14:14	0.1	94
50300	2024-01-18T19:24:14	-0.3	94.5
50301	2024-01-18T20:54:14	-0.4	96
50302	2024-01-18T21:04:14	-0.4	96
50303	2024-01-18T21:14:14	-0.4	93
50304	2024-01-18T21:24:14	-0.3	95.5
50305	2024-01-18T21:34:14	-0.4	95.5
50306	2024-01-18T21:44:14	-0.3	95
50307	2024-01-18T21:54:14	-0.4	95.5
50308	2024-01-18T22:04:14	-0.5	93.5
50309	2024-01-18T22:14:14	-0.7	94.5
50310	2024-01-18T22:24:14	-0.7	94
50311	2024-01-18T22:34:14	-0.9	94.5
50312	2024-01-18T22:44:14	-0.8	95
50313	2024-01-18T22:54:14	-0.9	94
50314	2024-01-18T23:04:14	-0.8	93
50315	2024-01-18T23:14:14	-0.7	91.5
50316	2024-01-18T23:24:14	-1	93
50317	2024-01-18T23:34:14	-1	95
50318	2024-01-18T23:44:14	-1.2	92.5
50319	2024-01-18T23:54:14	-1.2	92.5
50320	2024-01-19T00:04:14	-1.2	91
50321	2024-01-19T00:14:14	-1.4	87.5
50322	2024-01-19T00:24:14	-1.6	92
50323	2024-01-19T00:34:14	-1.5	90.5
50324	2024-01-19T00:44:14	-1.4	89.5
50325	2024-01-19T00:54:14	-1.4	93
50326	2024-01-19T01:04:14	-1.2	92.5
50327	2024-01-19T01:14:14	-1	90.5
50328	2024-01-19T01:24:14	-1.2	89
50329	2024-01-19T01:34:14	-1.1	91
50330	2024-01-19T01:44:14	-1.2	91
50331	2024-01-19T01:54:14	-1.1	92.5
50332	2024-01-19T02:04:14	-1	91
50333	2024-01-19T02:14:14	-1	93.5
50334	2024-01-19T02:24:14	-0.8	94.5
50335	2024-01-19T02:34:14	-1	93.5
50336	2024-01-19T02:44:14	-1	93.5
50337	2024-01-19T02:54:14	-0.9	93
50338	2024-01-19T03:04:14	-0.8	93.5
50339	2024-01-19T03:14:14	-0.8	93
50340	2024-01-19T03:24:14	-0.8	94.5
50341	2024-01-19T03:34:14	-0.8	94
50342	2024-01-19T03:44:14	-0.7	94.5
50343	2024-01-19T03:54:14	-0.8	91.5
50344	2024-01-19T04:04:14	-1.1	92.5
50345	2024-01-19T04:14:14	-1	93.5
50346	2024-01-19T04:24:14	-1	94
50347	2024-01-19T04:34:14	-1.2	93.5
50348	2024-01-19T04:44:14	-1.1	94
50349	2024-01-19T04:54:14	-1.4	93.5
50350	2024-01-19T05:04:14	-1.6	94.5
50351	2024-01-19T05:14:14	-1.8	94.5
50352	2024-01-19T05:24:14	-1.7	94
50353	2024-01-19T05:34:14	-1.8	93.5
50354	2024-01-19T05:44:14	-1.8	91.5
50355	2024-01-19T05:54:14	-2	91
50356	2024-01-19T06:04:14	-2.4	91
50357	2024-01-19T06:14:14	-2.5	94
50358	2024-01-19T06:24:14	-2.2	95
50359	2024-01-19T06:34:14	-2.1	95
50360	2024-01-19T06:44:14	-2.1	95
50361	2024-01-19T06:54:14	-2	95
50362	2024-01-19T07:04:14	-1.9	94.5
50363	2024-01-19T07:14:14	-2	94.5
50364	2024-01-19T07:24:14	-2	94.5
50365	2024-01-19T07:34:14	-1.9	95
50366	2024-01-19T07:44:14	-1.7	94
50367	2024-01-19T07:54:14	-1.6	94
50368	2024-01-19T08:04:14	-1.6	94
50369	2024-01-19T08:14:14	-1.4	94
50370	2024-01-19T08:24:14	-1.3	93.5
50371	2024-01-19T08:34:14	-1.2	93
50372	2024-01-19T08:44:14	-1.3	93.5
50373	2024-01-19T08:54:14	-1.4	93
50374	2024-01-19T09:04:14	-1.4	93
50375	2024-01-19T09:14:14	-1.6	92.5
50376	2024-01-19T09:24:14	-1.6	92.5
50377	2024-01-19T09:34:14	-1.6	93
50378	2024-01-19T09:44:14	-1.4	93
50379	2024-01-19T09:54:14	-1.2	93
50380	2024-01-19T10:04:14	-1.1	92.5
50381	2024-01-19T10:14:14	-1	92
50382	2024-01-19T10:24:14	-0.7	90.5
50383	2024-01-19T10:34:14	-0.4	89.5
50384	2024-01-19T10:44:14	-0.3	89
50385	2024-01-19T10:54:14	-0.2	88.5
50386	2024-01-19T11:04:14	-0.1	88
50387	2024-01-19T11:14:14	0	87.5
50388	2024-01-19T11:24:14	0	87.5
50389	2024-01-19T11:34:14	0.1	86
50390	2024-01-19T11:44:14	0.3	85
50391	2024-01-19T11:54:14	0.7	83.5
50392	2024-01-19T12:04:14	0.8	82.5
50393	2024-01-19T12:14:14	0.7	83
50394	2024-01-19T12:24:14	0.6	84.5
50395	2024-01-19T12:34:14	0.6	83
50396	2024-01-19T12:44:14	0.7	85
50397	2024-01-19T12:54:14	0.6	85
50398	2024-01-19T13:04:14	0.6	84
50399	2024-01-19T13:14:14	0.6	84.5
50400	2024-01-19T13:24:14	0.6	85.5
50401	2024-01-19T13:34:14	0.7	85
50402	2024-01-19T13:44:14	0.8	83.5
50403	2024-01-19T13:54:14	0.7	85
50404	2024-01-19T14:04:14	0.6	86.5
50405	2024-01-19T14:14:14	0.7	85
50406	2024-01-19T14:24:14	0.6	85.5
50407	2024-01-19T14:34:14	0.6	86.5
50408	2024-01-19T14:44:14	0.6	87.5
50409	2024-01-19T14:54:14	0.6	88
50410	2024-01-19T15:14:14	0.6	87.5
50411	2024-01-19T15:24:14	0.6	87
50412	2024-01-19T15:34:14	0.5	86.5
50413	2024-01-19T15:44:14	0.5	87
50414	2024-01-19T15:54:14	0.5	87.5
50415	2024-01-19T16:04:14	0.5	86
50416	2024-01-19T16:14:14	0.4	88
50417	2024-01-19T16:24:14	0.4	87
50418	2024-01-19T16:34:14	0.3	88.5
50419	2024-01-19T16:44:14	0.3	87
50420	2024-01-19T16:54:14	0	87.5
50421	2024-01-19T17:04:14	-0.2	88.5
50422	2024-01-19T17:14:14	-0.5	91.5
50423	2024-01-19T17:24:34	-0.8	92
50424	2024-01-19T17:34:14	-1	90.5
50425	2024-01-19T17:44:14	-0.9	91.5
50426	2024-01-19T17:54:14	-1	90
50427	2024-01-19T18:04:14	-1.2	90.5
50428	2024-01-19T18:14:14	-1.3	92
50429	2024-01-19T18:24:14	-1.5	91.5
50430	2024-01-19T18:34:14	-1.6	92.5
50431	2024-01-19T18:44:14	-1.7	92.5
50432	2024-01-19T18:54:14	-1.7	90.5
50433	2024-01-19T19:04:14	-1.8	91.5
50434	2024-01-19T19:14:14	-1.9	89
50435	2024-01-19T19:24:14	-2	90.5
50436	2024-01-19T19:34:14	-2.1	89.5
50437	2024-01-19T19:44:14	-2.1	88.5
50438	2024-01-19T19:54:14	-2.3	90
50439	2024-01-19T20:04:14	-2.3	90
50440	2024-01-19T20:14:14	-2.4	88.5
50441	2024-01-19T20:24:14	-2.4	89.5
50442	2024-01-19T20:34:14	-2.3	88
50443	2024-01-19T20:44:14	-2.2	88.5
50444	2024-01-19T20:54:14	-2.2	90
50445	2024-01-19T21:04:14	-2.2	89
50446	2024-01-19T21:14:14	-2.4	89
50447	2024-01-19T21:24:14	-2.4	89.5
50448	2024-01-19T21:34:14	-2.5	89.5
50449	2024-01-19T21:44:15	-2.7	87.5
50450	2024-01-19T21:54:14	-2.8	89.5
50451	2024-01-19T22:04:14	-2.9	90
50452	2024-01-19T22:14:14	-3.1	88.5
50453	2024-01-19T22:24:14	-3	89.5
50454	2024-01-19T22:34:14	-3.1	88.5
50455	2024-01-19T22:44:14	-3.1	88.5
50456	2024-01-19T22:54:14	-3.3	88.5
50457	2024-01-19T23:14:14	-3.3	90
50458	2024-01-19T23:24:14	-3.3	90
50459	2024-01-19T23:34:14	-3.4	89
50460	2024-01-19T23:44:14	-3.5	89
50461	2024-01-19T23:54:14	-3.7	89.5
50462	2024-01-20T00:04:14	-3.8	89
50463	2024-01-20T00:14:14	-3.9	87
50464	2024-01-20T00:24:14	-3.9	87
50465	2024-01-20T00:34:14	-4	87.5
50466	2024-01-20T00:44:14	-4.4	86.5
50467	2024-01-20T00:54:14	-4.5	87.5
50468	2024-01-20T01:04:14	-4.5	87
50469	2024-01-20T01:14:14	-4.7	86.5
50470	2024-01-20T01:24:14	-4.7	86.5
50471	2024-01-20T01:34:14	-4.9	86
50472	2024-01-20T01:44:14	-4.9	86.5
50473	2024-01-20T01:54:14	-5	85.5
50474	2024-01-20T02:04:14	-5.2	86
50475	2024-01-20T02:14:14	-5.2	85.5
50476	2024-01-20T02:24:14	-5.3	84.5
50477	2024-01-20T02:34:14	-5.4	85
50478	2024-01-20T02:44:14	-5.6	85
50479	2024-01-20T02:54:14	-5.6	85.5
50480	2024-01-20T03:04:14	-5.7	85.5
50481	2024-01-20T03:14:14	-5.6	82.5
50482	2024-01-20T03:24:15	-5.9	84
50483	2024-01-20T03:34:15	-6.1	84.5
50484	2024-01-20T03:44:15	-6.2	84.5
50485	2024-01-20T03:54:15	-6.4	85.5
50486	2024-01-20T04:04:15	-6.3	86
50487	2024-01-20T04:14:15	-6.4	84.5
50488	2024-01-20T04:24:15	-6.4	85
50489	2024-01-20T04:34:15	-6.5	85
50490	2024-01-20T04:44:15	-6.6	84
50491	2024-01-20T04:54:15	-6.8	84.5
50492	2024-01-20T05:04:15	-6.8	85
50493	2024-01-20T05:14:15	-6.9	84.5
50494	2024-01-20T05:24:15	-6.9	84.5
50495	2024-01-20T05:34:15	-7.2	84.5
50496	2024-01-20T05:44:15	-7.1	84.5
50497	2024-01-20T05:54:15	-7.2	85
50498	2024-01-20T06:04:15	-7.3	84.5
50499	2024-01-20T06:14:15	-7.4	84.5
50500	2024-01-20T06:24:15	-7.5	84
50501	2024-01-20T06:34:15	-7.5	83.5
50502	2024-01-20T06:44:15	-7.5	83.5
50503	2024-01-20T06:54:15	-7.6	84
50504	2024-01-20T07:04:15	-7.6	84
50505	2024-01-20T07:14:15	-7.8	83.5
50506	2024-01-20T07:24:15	-7.7	84
50507	2024-01-20T07:34:15	-7.8	84
50508	2024-01-20T07:44:15	-7.8	84.5
50509	2024-01-20T07:54:15	-7.8	85
50510	2024-01-20T08:04:15	-7.7	84.5
50511	2024-01-20T08:14:15	-7.3	84.5
50512	2024-01-20T08:24:15	-7.2	85.5
50513	2024-01-20T08:34:15	-7.3	86
50514	2024-01-20T08:44:15	-7.1	87
50515	2024-01-20T08:54:15	-6.9	87.5
50516	2024-01-20T09:04:15	-6.8	89
50517	2024-01-20T09:14:15	-6.7	89.5
50518	2024-01-20T09:24:15	-6.5	90
50519	2024-01-20T09:34:15	-6.4	90.5
50520	2024-01-20T09:44:15	-6.2	92
50521	2024-01-20T09:54:15	-5.8	93.5
50522	2024-01-20T10:04:15	-5.5	94
50523	2024-01-20T10:14:15	-5.4	94
50524	2024-01-20T10:24:15	-5.1	94.5
50525	2024-01-20T10:34:15	-4.8	94.5
50526	2024-01-20T10:44:15	-4.5	94.5
50527	2024-01-20T10:54:15	-4.1	94
50528	2024-01-20T11:04:15	-3.9	94.5
50529	2024-01-20T11:14:15	-3.5	94
50530	2024-01-20T11:24:15	-2.9	92
50531	2024-01-20T11:34:15	-2.6	90.5
50532	2024-01-20T11:44:15	-1.7	89.5
50533	2024-01-20T11:54:15	-0.7	84.5
50534	2024-01-20T12:04:15	-0.6	84
50535	2024-01-20T12:14:15	0	83
50536	2024-01-20T12:24:15	1.6	77.5
50537	2024-01-20T12:34:15	4.6	68.5
50538	2024-01-20T12:44:15	5.3	63.5
50539	2024-01-20T12:54:15	6.1	60
50540	2024-01-20T13:04:15	7.3	58.5
50541	2024-01-20T13:14:15	7.3	55
50542	2024-01-20T13:24:15	8.6	59.5
50543	2024-01-20T13:34:15	9.5	55
50544	2024-01-20T13:44:15	10.1	54.5
50545	2024-01-20T13:54:15	10.7	50
50546	2024-01-20T14:04:15	11.1	53.5
50547	2024-01-20T14:14:15	11.3	50.5
50548	2024-01-20T14:24:15	11.3	49
50549	2024-01-20T14:34:15	10.8	52
50550	2024-01-20T14:44:15	11.1	50
50551	2024-01-20T14:54:15	11.1	49
50552	2024-01-20T15:04:15	10.1	52.5
50553	2024-01-20T15:14:15	8.8	56
50554	2024-01-20T15:24:15	7.1	62
50555	2024-01-20T15:34:15	6.6	66.5
50556	2024-01-20T15:44:15	5.8	70.5
50557	2024-01-20T15:54:15	5.1	76
50558	2024-01-20T16:04:15	4.4	77
50559	2024-01-20T16:24:15	3.4	74.5
50560	2024-01-20T16:34:15	3	79.5
50561	2024-01-20T16:44:15	2.6	79.5
50562	2024-01-20T16:54:15	2.3	79.5
50563	2024-01-20T17:04:15	2	80.5
50564	2024-01-20T17:14:15	1.8	78.5
50565	2024-01-20T17:24:15	1.4	76
50566	2024-01-20T17:34:15	1.4	77.5
50567	2024-01-20T17:44:15	1.1	81.5
50568	2024-01-20T17:54:15	0.9	82
50569	2024-01-20T18:04:15	0.8	82.5
50570	2024-01-20T18:14:15	0.6	82.5
50571	2024-01-20T18:24:15	0.4	83.5
50572	2024-01-20T18:34:15	0.1	80
50573	2024-01-20T18:44:15	0	81.5
50574	2024-01-20T18:54:15	0	77.5
50575	2024-01-20T19:04:15	-0.8	80.5
50576	2024-01-20T19:14:15	-0.7	85.5
50577	2024-01-20T19:24:15	-0.7	84
50578	2024-01-20T19:34:15	-0.9	81
50579	2024-01-20T19:44:15	-1	83.5
50580	2024-01-20T20:04:15	-1	83
50581	2024-01-20T20:14:15	-1.3	83.5
50582	2024-01-20T20:24:15	-1.3	86
50583	2024-01-20T20:34:15	-1.2	86
50584	2024-01-20T20:44:15	-1.1	87
50585	2024-01-20T20:54:15	-1.3	88.5
50586	2024-01-20T21:04:15	-1.4	90.5
50587	2024-01-20T21:14:15	-1.3	89
50588	2024-01-20T21:24:15	-1.1	90
50589	2024-01-20T21:34:15	-0.9	89
50590	2024-01-20T21:44:15	-1.1	88.5
50591	2024-01-20T21:54:15	-1.3	88.5
50592	2024-01-20T22:04:15	-1.5	90
50593	2024-01-20T22:14:15	-1.4	90.5
50594	2024-01-20T22:24:15	-1.8	90
50595	2024-01-20T22:34:15	-1.9	91
50596	2024-01-20T22:44:15	-1.6	92.5
50597	2024-01-20T22:54:15	-1.7	91
50598	2024-01-20T23:04:15	-1.5	89.5
50599	2024-01-20T23:14:15	-1.3	89
50600	2024-01-20T23:24:15	-1.6	89.5
50601	2024-01-20T23:34:15	-1.3	88
50602	2024-01-20T23:44:15	-1.5	88.5
50603	2024-01-20T23:54:15	-1.8	90.5
50604	2024-01-21T00:04:15	-1.6	89
50605	2024-01-21T00:14:15	-1.7	89.5
50606	2024-01-21T00:24:15	-1.9	89
50607	2024-01-21T00:34:15	-2	89
50608	2024-01-21T00:44:15	-2.2	90
50609	2024-01-21T00:54:15	-2.2	90
50610	2024-01-21T01:04:15	-2.3	90
50611	2024-01-21T01:14:15	-2.5	89.5
50612	2024-01-21T01:24:15	-2.6	91
50613	2024-01-21T01:34:15	-2.6	90
50614	2024-01-21T01:44:15	-2.6	90
50615	2024-01-21T01:54:15	-2.7	90
50616	2024-01-21T02:04:15	-2.7	90
50617	2024-01-21T02:14:15	-2.3	90
50618	2024-01-21T02:24:15	-2.3	88.5
50619	2024-01-21T02:34:15	-2.1	88
50620	2024-01-21T02:44:15	-2	87.5
50621	2024-01-21T02:54:15	-2	88.5
50622	2024-01-21T03:04:15	-2	87.5
50623	2024-01-21T03:14:15	-2.1	86.5
50624	2024-01-21T03:24:15	-2.2	87
50625	2024-01-21T03:34:15	-2.1	87
50626	2024-01-21T03:44:15	-2.1	87
50627	2024-01-21T03:54:15	-2	87
50628	2024-01-21T04:04:15	-2.2	87
50629	2024-01-21T04:14:15	-2.2	85.5
50630	2024-01-21T04:24:15	-2.2	85.5
50631	2024-01-21T04:34:15	-2.2	87
50632	2024-01-21T04:44:15	-2.2	85
50633	2024-01-21T04:54:15	-2.2	83.5
50634	2024-01-21T05:04:15	-2.4	84.5
50635	2024-01-21T05:14:15	-2.4	85
50636	2024-01-21T05:24:15	-2.6	85
50637	2024-01-21T05:34:15	-2.5	86.5
50638	2024-01-21T05:44:15	-2.5	86
50639	2024-01-21T05:54:15	-2.6	87
50640	2024-01-21T06:04:15	-2.7	87
50641	2024-01-21T06:14:15	-3	84
50642	2024-01-21T06:24:15	-3.1	82.5
50643	2024-01-21T06:34:15	-3.5	80.5
50644	2024-01-21T06:44:15	-3.5	82
50645	2024-01-21T06:54:15	-3.6	82
50646	2024-01-21T07:04:15	-3.7	84
50647	2024-01-21T07:14:15	-3.6	84.5
50648	2024-01-21T07:24:15	-3.5	85
50649	2024-01-21T07:34:15	-3.4	83.5
50650	2024-01-21T07:44:15	-3.4	83.5
50651	2024-01-21T07:54:32	-3.6	84.5
50652	2024-01-21T08:04:15	-3.3	85
50653	2024-01-21T08:14:15	-3.3	85
50654	2024-01-21T08:24:15	-3.2	85
50655	2024-01-21T08:34:15	-3.1	85
50656	2024-01-21T08:44:15	-3.2	84.5
50657	2024-01-21T08:54:15	-2.9	86
50658	2024-01-21T09:04:15	-2.7	85.5
50659	2024-01-21T09:14:15	-2.6	85
50660	2024-01-21T09:24:15	-2.4	84.5
50661	2024-01-21T09:34:15	-2.3	84.5
50662	2024-01-21T09:44:15	-2	84
50663	2024-01-21T09:54:15	-1.7	85
50664	2024-01-21T10:04:15	-1.6	84
50665	2024-01-21T10:14:15	-1.4	84
50666	2024-01-21T10:24:15	-1	84
50667	2024-01-21T10:34:15	-1.3	83.5
50668	2024-01-21T10:44:15	-0.9	84
50669	2024-01-21T10:54:15	-1.1	83
50670	2024-01-21T11:04:15	-1.3	84.5
50671	2024-01-21T11:14:15	-1.5	86
50672	2024-01-21T11:24:15	-1.2	87
50673	2024-01-21T11:34:15	-1	87.5
50674	2024-01-21T11:44:15	-0.2	87
50675	2024-01-21T11:54:15	0.9	84.5
50676	2024-01-21T12:04:15	1.1	84.5
50677	2024-01-21T12:14:15	1.7	83
50678	2024-01-21T12:24:15	3.2	77.5
50679	2024-01-21T12:34:15	5.8	69.5
50680	2024-01-21T12:44:15	7.3	63
50681	2024-01-21T12:54:15	7.5	61
50682	2024-01-21T13:04:15	7.8	63.5
50683	2024-01-21T13:14:15	8.4	60.5
50684	2024-01-21T13:24:15	8.2	59
50685	2024-01-21T13:34:15	6.3	65
50686	2024-01-21T13:44:15	5.7	68.5
50687	2024-01-21T13:54:15	5.6	73.5
50688	2024-01-21T14:04:15	6.2	72.5
50689	2024-01-21T14:14:15	9	63
50690	2024-01-21T14:24:15	10.2	60
50691	2024-01-21T14:34:15	9.5	61.5
50692	2024-01-21T14:44:15	8.2	63.5
50693	2024-01-21T14:54:15	8	68.5
50694	2024-01-21T15:04:15	8.5	64.5
50695	2024-01-21T15:14:15	8.1	69.5
50696	2024-01-21T15:24:15	7.4	71.5
50697	2024-01-21T15:34:15	6.2	73
50698	2024-01-21T15:44:15	5.6	77
50699	2024-01-21T15:54:15	5.4	78
50700	2024-01-21T16:04:15	4.9	79.5
50701	2024-01-21T16:14:15	4.5	80.5
50702	2024-01-21T16:24:15	4.1	82.5
50703	2024-01-21T16:34:15	3.7	82.5
50704	2024-01-21T16:44:15	3.3	82.5
50705	2024-01-21T16:54:15	3.1	84
50706	2024-01-21T17:04:15	2.8	84
50707	2024-01-21T17:14:15	2.8	83
50708	2024-01-21T17:24:15	2.7	85.5
50709	2024-01-21T17:34:15	2.8	84.5
50710	2024-01-21T17:44:15	2.9	84.5
50711	2024-01-21T17:54:15	3	85.5
50712	2024-01-21T18:04:15	3.2	86
50713	2024-01-21T18:14:15	3	84.5
50714	2024-01-21T18:24:15	2.8	85.5
50715	2024-01-21T18:34:15	3	87.5
50716	2024-01-21T18:44:15	3	86.5
50717	2024-01-21T18:54:15	3.1	86
50718	2024-01-21T19:04:15	3.1	87.5
50719	2024-01-21T19:14:15	3.1	86.5
50720	2024-01-21T19:24:15	2.9	87
50721	2024-01-21T19:34:15	3	87
50722	2024-01-21T19:44:15	3.1	87.5
50723	2024-01-21T19:54:15	3.1	87
50724	2024-01-21T20:04:15	3.1	86
50725	2024-01-21T20:14:15	3.1	87.5
50726	2024-01-21T20:24:15	3	86.5
50727	2024-01-21T20:34:15	3.1	88
50728	2024-01-21T20:44:15	3.1	87
50729	2024-01-21T20:54:15	3.2	87.5
50730	2024-01-21T21:04:15	3	88
50731	2024-01-21T21:14:15	3.1	88.5
50732	2024-01-21T21:24:15	2.7	88.5
50733	2024-01-21T21:34:15	2.5	89
50734	2024-01-21T21:44:15	2.3	89
50735	2024-01-21T21:54:15	2.2	89.5
50736	2024-01-21T22:04:15	2.1	89
50737	2024-01-21T22:14:15	1.8	89
50738	2024-01-21T22:24:15	1.8	89.5
50739	2024-01-21T22:34:15	1.7	89
50740	2024-01-21T22:44:15	1.7	89.5
50741	2024-01-21T22:54:15	1.6	90
50742	2024-01-21T23:04:15	1.5	89
50743	2024-01-21T23:14:15	1.4	89.5
50744	2024-01-21T23:24:15	1.3	90.5
50745	2024-01-21T23:34:15	1.3	90
50746	2024-01-21T23:44:15	1.4	90.5
50747	2024-01-21T23:54:15	1.2	90.5
50748	2024-01-22T00:04:15	1	90.5
50749	2024-01-22T00:14:15	0.9	90.5
50750	2024-01-22T00:24:15	0.8	91
50751	2024-01-22T00:34:15	0.6	91
50752	2024-01-22T00:44:15	0.6	91
50753	2024-01-22T00:54:15	0.5	90.5
50754	2024-01-22T01:04:15	0.6	91
50755	2024-01-22T01:14:15	0.5	89.5
50756	2024-01-22T01:24:15	0.5	90.5
50757	2024-01-22T01:34:15	0.6	90.5
50758	2024-01-22T01:44:15	0.5	89.5
50759	2024-01-22T01:54:15	0.6	91
50760	2024-01-22T02:04:15	0.7	91
50761	2024-01-22T02:14:15	1	88
50762	2024-01-22T02:24:15	1.3	84.5
50763	2024-01-22T02:34:15	1.8	84
50764	2024-01-22T02:44:15	2.1	82.5
50765	2024-01-22T02:54:15	2.1	82
50766	2024-01-22T03:04:15	2.3	81
50767	2024-01-22T03:14:15	2.5	81.5
50768	2024-01-22T03:24:15	2.6	81.5
50769	2024-01-22T03:34:15	2.5	83.5
50770	2024-01-22T03:44:15	2.3	85
50771	2024-01-22T03:54:15	2.4	86
50772	2024-01-22T04:04:15	2.3	86.5
50773	2024-01-22T04:14:15	2.2	88
50774	2024-01-22T04:24:15	2.7	86.5
50775	2024-01-22T04:34:15	2.9	86
50776	2024-01-22T04:44:15	2.6	87.5
50777	2024-01-22T04:54:15	2.7	88
50778	2024-01-22T05:04:15	3.3	86.5
50779	2024-01-22T05:14:15	3.9	84
50780	2024-01-22T05:24:15	3.7	85
50781	2024-01-22T05:34:15	4.9	79.5
50782	2024-01-22T05:44:15	6.5	68
50783	2024-01-22T05:54:15	7.1	66
50784	2024-01-22T06:04:15	7.8	61.5
50785	2024-01-22T06:14:15	8	60.5
50786	2024-01-22T06:24:15	8.6	59
50787	2024-01-22T06:34:15	9.4	57
50788	2024-01-22T06:44:15	9.8	57.5
50789	2024-01-22T06:54:15	10.2	57.5
50790	2024-01-22T07:04:15	10.4	56.5
50791	2024-01-22T07:14:14	10.5	57
50792	2024-01-22T07:24:14	10.8	56
50793	2024-01-22T07:34:14	11.1	58.5
50794	2024-01-22T07:44:14	11.1	61
50795	2024-01-22T07:54:14	10.3	73
50796	2024-01-22T08:04:14	10.8	70
50797	2024-01-22T08:14:14	11.6	69
50798	2024-01-22T08:24:14	12	66.5
50799	2024-01-22T08:34:14	11.8	70.5
50800	2024-01-22T08:44:14	11.1	75
50801	2024-01-22T08:54:14	10.9	79.5
50802	2024-01-22T09:04:14	10.3	82.5
50803	2024-01-22T09:14:14	10.6	80
50804	2024-01-22T09:24:14	10.8	80.5
50805	2024-01-22T09:34:14	10.9	76.5
50806	2024-01-22T09:44:14	11.1	75
50807	2024-01-22T09:54:14	11.5	74.5
50808	2024-01-22T10:04:14	11.6	75.5
50809	2024-01-22T10:14:14	11.3	75
50810	2024-01-22T10:24:14	11.4	76
50811	2024-01-22T10:34:14	11.8	72.5
50812	2024-01-22T10:44:14	11.7	72.5
50813	2024-01-22T10:54:14	10.9	78.5
50814	2024-01-22T11:04:14	10.9	76.5
50815	2024-01-22T11:14:14	11.2	76.5
50816	2024-01-22T11:24:14	11.3	77
50817	2024-01-22T11:34:14	11.6	76.5
50818	2024-01-22T11:44:14	11.9	75.5
50819	2024-01-22T11:54:14	12	75
50820	2024-01-22T12:04:14	11.9	76
50821	2024-01-22T12:14:14	12.1	74.5
50822	2024-01-22T12:24:14	11.8	77
50823	2024-01-22T12:34:14	11.8	75
50824	2024-01-22T12:44:14	12.1	75
50825	2024-01-22T12:54:14	12.2	76
50826	2024-01-22T13:04:14	12.1	75
50827	2024-01-22T13:14:14	12.3	74
50828	2024-01-22T13:24:14	12.4	74.5
50829	2024-01-22T13:34:14	12.5	74.5
50830	2024-01-22T13:44:14	12.7	74
50831	2024-01-22T13:54:14	12.5	73.5
50832	2024-01-22T14:04:14	12.4	74.5
50833	2024-01-22T14:14:14	12.2	75
50834	2024-01-22T14:24:14	11.4	85
50835	2024-01-22T14:34:14	11.7	78.5
50836	2024-01-22T14:44:14	11.6	81.5
50837	2024-01-22T14:54:14	11.2	89
50838	2024-01-22T15:04:14	10.1	94.5
50839	2024-01-22T15:14:14	9.9	95.5
50840	2024-01-22T15:24:14	9.7	96
50841	2024-01-22T15:34:14	9.4	98
50842	2024-01-22T15:44:14	9.4	99.5
50843	2024-01-22T15:54:14	9.3	100
50844	2024-01-22T16:04:14	9.2	100
50845	2024-01-22T16:14:14	9.1	100
50846	2024-01-22T16:24:14	9	100
50847	2024-01-22T16:34:14	8.5	100
50848	2024-01-22T16:44:14	8	100
50849	2024-01-22T16:54:14	7.9	100
50850	2024-01-22T17:24:14	7.4	100
50851	2024-01-22T17:34:14	7.3	100
50852	2024-01-22T17:44:14	7.1	100
50853	2024-01-22T17:54:14	7	100
50854	2024-01-22T18:04:14	7	100
50855	2024-01-22T18:14:14	6.9	100
50856	2024-01-22T18:24:14	7	100
50857	2024-01-22T18:34:14	6.9	100
50858	2024-01-22T18:44:14	7	100
50859	2024-01-22T18:54:14	7	100
50860	2024-01-22T19:04:14	7.2	100
50861	2024-01-22T19:14:14	7.3	100
50862	2024-01-22T19:24:14	7.2	100
50863	2024-01-22T19:34:14	7.3	100
50864	2024-01-22T19:44:14	7.2	100
50865	2024-01-22T19:54:14	7.1	100
50866	2024-01-22T20:04:14	7.2	100
50867	2024-01-22T20:14:14	7.1	100
50868	2024-01-22T20:24:14	7.3	100
50869	2024-01-22T20:34:14	7.2	100
50870	2024-01-22T20:44:14	7.3	100
50871	2024-01-22T20:54:14	7.5	100
50872	2024-01-22T21:04:14	7.7	100
50873	2024-01-22T21:14:14	7.8	100
50874	2024-01-22T21:24:14	7.9	100
50875	2024-01-22T21:34:14	8	100
50876	2024-01-22T21:44:33	8.3	100
50877	2024-01-22T21:54:14	7.8	100
50878	2024-01-22T22:04:14	7.5	100
50879	2024-01-22T22:14:14	7.5	100
50880	2024-01-22T22:24:14	7.8	100
50881	2024-01-22T22:34:14	7.9	100
50882	2024-01-22T22:44:14	8	100
50883	2024-01-22T22:54:14	7.8	100
50884	2024-01-22T23:04:14	7.7	100
50885	2024-01-22T23:14:14	7.8	100
50886	2024-01-22T23:24:14	7.6	100
50887	2024-01-22T23:34:14	7.8	100
50888	2024-01-22T23:44:14	7.8	100
50889	2024-01-22T23:54:14	7.8	100
50890	2024-01-23T00:04:14	7.7	100
50891	2024-01-23T00:14:14	7.6	100
50892	2024-01-23T00:24:14	7.7	100
50893	2024-01-23T00:34:14	7.7	100
50894	2024-01-23T00:44:14	7.9	100
50895	2024-01-23T00:54:14	7.8	100
50896	2024-01-23T01:04:14	7.7	100
50897	2024-01-23T01:14:14	7.8	100
50898	2024-01-23T01:24:14	7.6	100
50899	2024-01-23T01:34:13	7.1	100
50900	2024-01-23T01:44:13	7.1	100
50901	2024-01-23T01:54:14	7.2	100
50902	2024-01-23T02:04:13	7.2	100
50903	2024-01-23T02:14:13	7.3	100
50904	2024-01-23T02:24:13	7.5	100
50905	2024-01-23T02:34:13	7.5	100
50906	2024-01-23T02:44:13	7.6	100
50907	2024-01-23T02:54:13	7.7	100
50908	2024-01-23T03:04:13	7.8	100
50909	2024-01-23T03:14:13	7.8	99.5
50910	2024-01-23T03:24:13	7.9	99.5
50911	2024-01-23T03:34:13	7.9	99.5
50912	2024-01-23T03:44:13	7.8	100
50913	2024-01-23T03:54:13	7.9	99.5
50914	2024-01-23T04:04:13	7.9	99.5
50915	2024-01-23T04:14:13	7.9	99.5
50916	2024-01-23T04:24:13	7.7	99
50917	2024-01-23T04:34:13	7.8	100
50918	2024-01-23T04:44:13	7.6	99.5
50919	2024-01-23T04:54:13	7.6	99.5
50920	2024-01-23T05:04:13	7.6	98
50921	2024-01-23T05:14:13	7.4	87
50922	2024-01-23T05:24:13	7.4	85.5
50923	2024-01-23T05:34:13	7.2	86
50924	2024-01-23T05:44:13	7	86.5
50925	2024-01-23T05:54:13	6.9	87.5
50926	2024-01-23T06:04:13	6.8	88.5
50927	2024-01-23T06:14:13	6.6	88.5
50928	2024-01-23T06:24:13	6.4	89
50929	2024-01-23T06:34:13	6.4	89.5
50930	2024-01-23T06:44:13	6.3	90
50931	2024-01-23T06:54:13	6.5	90
50932	2024-01-23T07:04:13	6.1	91
50933	2024-01-23T07:14:13	6.1	92
50934	2024-01-23T07:24:13	6	91.5
50935	2024-01-23T07:34:13	6.1	90.5
50936	2024-01-23T07:44:13	6.1	90.5
50937	2024-01-23T07:54:13	6	92.5
50938	2024-01-23T08:04:13	6.2	92.5
50939	2024-01-23T08:14:13	6.2	91.5
50940	2024-01-23T08:24:13	6.2	90.5
50941	2024-01-23T08:34:13	6.5	90.5
50942	2024-01-23T08:44:13	6.7	89.5
50943	2024-01-23T08:54:13	6.7	89
50944	2024-01-23T09:04:13	6.7	90
50945	2024-01-23T09:14:13	6.7	90.5
50946	2024-01-23T09:24:13	6.7	90.5
50947	2024-01-23T09:34:13	7	89.5
50948	2024-01-23T09:44:13	7.2	88
50949	2024-01-23T09:54:13	7.3	87.5
50950	2024-01-23T10:04:13	7.2	87.5
50951	2024-01-23T10:14:13	7.4	87
50952	2024-01-23T10:24:13	7.8	86.5
50953	2024-01-23T10:34:13	8.2	84.5
50954	2024-01-23T10:44:13	8.6	81.5
50955	2024-01-23T10:54:13	8.9	79
50956	2024-01-23T11:04:13	9.1	77
50957	2024-01-23T11:14:13	9.5	75
50958	2024-01-23T11:24:13	9.6	75.5
50959	2024-01-23T11:34:13	9.7	74
50960	2024-01-23T11:44:13	9.9	70.5
50961	2024-01-23T11:54:13	9.6	71
50962	2024-01-23T12:04:13	9.6	70.5
50963	2024-01-23T12:14:13	9.5	71
50964	2024-01-23T12:24:13	9.4	72.5
50965	2024-01-23T12:34:13	9.5	70.5
50966	2024-01-23T12:44:13	9.6	70
50967	2024-01-23T12:54:13	9.5	69.5
50968	2024-01-23T13:04:13	9.6	70
50969	2024-01-23T13:14:13	9.7	70.5
50970	2024-01-23T13:24:13	9.7	71
50971	2024-01-23T13:34:13	9.6	72
50972	2024-01-23T13:44:13	9.6	71.5
50973	2024-01-23T13:54:13	9.5	71.5
50974	2024-01-23T14:04:13	9.5	71.5
50975	2024-01-23T14:14:13	9.4	70.5
50976	2024-01-23T14:24:13	9.4	71
50977	2024-01-23T14:34:13	9.3	70.5
50978	2024-01-23T14:44:13	9.4	70
50979	2024-01-23T14:54:13	9.3	70
50980	2024-01-23T15:04:13	9.3	71
50981	2024-01-23T15:14:13	9.3	70.5
50982	2024-01-23T15:24:13	9.2	71
50983	2024-01-23T15:34:13	9.3	71
50984	2024-01-23T15:44:13	9.2	71.5
50985	2024-01-23T15:54:13	9.1	71
50986	2024-01-23T16:04:13	9.2	71
50987	2024-01-23T16:14:13	9.3	71
50988	2024-01-23T16:24:13	9.2	69
50989	2024-01-23T16:34:13	9.3	68.5
50990	2024-01-23T16:44:13	9.2	71
50991	2024-01-23T16:54:13	8.7	77
50992	2024-01-23T17:04:13	7.6	91
50993	2024-01-23T17:14:13	7.5	87.5
50994	2024-01-23T17:24:13	7.3	92
50995	2024-01-23T17:34:13	7.2	93
50996	2024-01-23T17:44:13	7.3	92
50997	2024-01-23T17:54:13	7.2	94
50998	2024-01-23T18:04:13	7.2	94
50999	2024-01-23T18:14:13	7.2	90.5
51000	2024-01-23T18:24:13	7.5	87.5
51001	2024-01-23T18:34:13	7.7	88
51002	2024-01-23T18:44:13	7.9	85.5
51003	2024-01-23T18:54:13	8.4	80.5
51004	2024-01-23T19:04:13	8.6	78.5
51005	2024-01-23T19:14:13	8.7	79
51006	2024-01-23T19:24:13	8.5	85
51007	2024-01-23T19:34:13	8.3	83.5
51008	2024-01-23T19:44:13	8.6	81
51009	2024-01-23T19:54:13	8.8	79.5
51010	2024-01-23T20:04:13	9.1	77.5
51011	2024-01-23T20:14:13	9.4	74.5
51012	2024-01-23T20:24:13	9.7	73
51013	2024-01-23T20:34:13	10	71.5
51014	2024-01-23T20:44:13	10	72
51015	2024-01-23T20:54:13	10.2	70.5
51016	2024-01-23T21:04:13	10.2	69
51017	2024-01-23T21:14:13	10.4	69
51018	2024-01-23T21:34:13	10.6	68
51019	2024-01-23T21:44:13	10.7	68
51020	2024-01-23T21:54:13	10.6	67
51021	2024-01-23T22:04:13	10.9	66
51022	2024-01-23T22:14:13	11.1	65.5
51023	2024-01-23T22:24:13	11	66
51024	2024-01-23T22:34:13	11	65.5
51025	2024-01-23T22:44:12	11.3	65.5
51026	2024-01-23T22:54:13	11.2	67
51027	2024-01-23T23:14:12	11.4	66.5
51028	2024-01-23T23:24:12	11.4	67
51029	2024-01-23T23:34:12	11.6	67
51030	2024-01-23T23:44:12	11.7	67
51031	2024-01-23T23:54:12	11.6	67
51032	2024-01-24T00:04:12	11.8	67.5
51033	2024-01-24T00:14:12	11.9	67.5
51034	2024-01-24T00:24:12	11.9	68
51035	2024-01-24T00:34:12	12.1	67.5
51036	2024-01-24T00:44:12	12.1	67.5
51037	2024-01-24T00:54:12	12	67.5
51038	2024-01-24T01:04:12	12	68.5
51039	2024-01-24T01:14:12	12	69
51040	2024-01-24T01:24:12	12.1	68.5
51041	2024-01-24T01:34:12	12.1	69
51042	2024-01-24T01:44:12	12.1	68
51043	2024-01-24T01:54:12	12	68
51044	2024-01-24T02:04:12	12	67.5
51045	2024-01-24T02:14:12	12	68
51046	2024-01-24T02:24:12	11.9	69
51047	2024-01-24T02:34:12	11.8	70
51048	2024-01-24T02:44:12	11.9	70
51049	2024-01-24T02:54:12	11.9	70.5
51050	2024-01-24T03:04:12	12	71
51051	2024-01-24T03:14:12	12	71
51052	2024-01-24T03:24:12	12.2	70
51053	2024-01-24T03:34:12	12.2	70.5
51054	2024-01-24T03:44:12	12.3	70.5
51055	2024-01-24T03:54:12	12.3	71
51056	2024-01-24T04:04:12	12.4	71.5
51057	2024-01-24T04:14:12	12.5	72.5
51058	2024-01-24T04:24:12	12.6	72.5
51059	2024-01-24T04:34:12	12.6	73
51060	2024-01-24T04:44:12	12.8	73.5
51061	2024-01-24T04:54:12	12.8	73.5
51062	2024-01-24T05:04:12	13	74
51063	2024-01-24T05:14:12	13.1	74.5
51064	2024-01-24T05:24:12	13.3	74.5
51065	2024-01-24T05:34:12	13.4	75
51066	2024-01-24T05:44:12	13.6	75
51067	2024-01-24T05:54:12	13.6	75
51068	2024-01-24T06:04:12	13.7	75
51069	2024-01-24T06:14:12	13.8	75.5
51070	2024-01-24T06:24:12	12.9	85.5
51071	2024-01-24T06:34:12	11.6	96
51072	2024-01-24T06:44:12	11.4	97
51073	2024-01-24T06:54:12	11.4	97.5
51074	2024-01-24T07:04:12	11.5	95.5
51075	2024-01-24T07:14:12	11.6	93.5
51076	2024-01-24T07:24:12	12	90
51077	2024-01-24T07:34:12	12.2	87.5
51078	2024-01-24T07:44:12	12.5	85.5
51079	2024-01-24T07:54:12	12.7	85
51080	2024-01-24T08:04:12	12.3	86
51081	2024-01-24T08:14:12	12.3	86
51082	2024-01-24T08:24:12	12.6	85
51083	2024-01-24T08:34:12	12.4	88
51084	2024-01-24T08:44:12	11.8	93
51085	2024-01-24T08:54:12	11.9	94
51086	2024-01-24T09:04:12	12.1	90.5
51087	2024-01-24T09:14:12	12.1	89.5
51088	2024-01-24T09:24:12	12	92
51089	2024-01-24T09:34:12	11.9	93.5
51090	2024-01-24T09:44:12	11.9	93.5
51091	2024-01-24T09:54:12	11.9	93
51092	2024-01-24T10:18:24	12.4	89
51093	2024-01-24T10:24:12	11.6	100
51094	2024-01-24T10:34:12	11.5	100
51095	2024-01-24T10:44:12	11.5	100
51096	2024-01-24T10:54:12	11.5	100
51097	2024-01-24T11:04:12	11.5	100
51098	2024-01-24T11:14:12	11.5	100
51099	2024-01-24T11:24:12	11.8	100
51100	2024-01-24T11:34:12	11.9	100
51101	2024-01-24T11:44:12	12	100
51102	2024-01-24T11:54:12	12.1	100
51103	2024-01-24T12:04:12	12	100
51104	2024-01-24T12:14:12	12.1	100
51105	2024-01-24T12:24:12	12	100
51106	2024-01-24T12:34:12	11.9	100
51107	2024-01-24T12:44:12	12.1	100
51108	2024-01-24T12:54:12	12.3	99.5
51109	2024-01-24T13:04:12	12.3	98.5
51110	2024-01-24T13:14:12	12.6	99
51111	2024-01-24T13:24:11	12.5	99
51112	2024-01-24T13:34:11	12.7	97.5
51113	2024-01-24T13:44:11	12.7	96.5
51114	2024-01-24T13:54:11	12.6	96.5
51115	2024-01-24T14:04:11	12.7	97
51116	2024-01-24T14:14:11	12.7	96
51117	2024-01-24T14:24:11	12.6	95
51118	2024-01-24T14:34:28	12.8	89.5
51119	2024-01-24T14:54:11	13	68.5
51120	2024-01-24T15:04:11	12.8	67.5
51121	2024-01-24T15:14:11	12.8	68.5
51122	2024-01-24T15:24:11	12.8	69.5
51123	2024-01-24T15:34:11	12.7	69.5
51124	2024-01-24T15:44:11	12.7	70
51125	2024-01-24T15:54:11	12.7	68.5
51126	2024-01-24T16:04:11	12.7	69
51127	2024-01-24T16:14:11	12.5	69
51128	2024-01-24T16:24:11	12.4	69
51129	2024-01-24T16:34:11	12.4	69.5
51130	2024-01-24T16:44:11	12.3	70
51131	2024-01-24T16:54:11	12.4	69
51132	2024-01-24T17:04:11	12.3	68
51133	2024-01-24T17:14:11	12.2	67.5
51134	2024-01-24T17:24:11	12.2	67.5
51135	2024-01-24T17:34:11	12	66.5
51136	2024-01-24T17:44:11	12	66.5
51137	2024-01-24T17:54:11	11.9	67
51138	2024-01-24T18:04:11	11.7	70
51139	2024-01-24T18:14:11	11.7	69.5
51140	2024-01-24T18:24:11	11.5	71.5
51141	2024-01-24T18:34:11	11.3	73
51142	2024-01-24T18:44:11	11.1	72.5
51143	2024-01-24T18:54:11	11.2	73
51144	2024-01-24T19:04:11	11.1	74
51145	2024-01-24T19:14:11	11.2	73.5
51146	2024-01-24T19:24:11	11.3	72.5
51147	2024-01-24T19:34:11	11.1	73.5
51148	2024-01-24T19:44:11	11.1	74
51149	2024-01-24T19:54:11	11	74
51150	2024-01-24T20:04:11	10.9	74.5
51151	2024-01-24T20:14:11	10.9	74.5
51152	2024-01-24T20:24:11	10.8	74.5
51153	2024-01-24T21:04:11	10.7	77
51154	2024-01-24T21:14:11	10.7	76.5
51155	2024-01-24T21:54:11	10.7	77
51156	2024-01-24T22:04:11	10.7	77
51157	2024-01-24T22:14:11	10.7	77
51158	2024-01-24T22:24:11	10.7	77
51159	2024-01-24T22:34:11	10.8	76.5
51160	2024-01-24T22:44:11	10.7	76.5
51161	2024-01-24T22:54:11	10.8	76.5
51162	2024-01-24T23:04:11	10.9	76.5
51163	2024-01-24T23:14:11	10.8	77
51164	2024-01-24T23:24:11	10.8	77
51165	2024-01-24T23:34:11	10.9	77.5
51166	2024-01-24T23:44:11	10.9	78
51167	2024-01-24T23:54:11	10.9	78
51168	2024-01-25T00:04:11	10.8	78
51169	2024-01-25T00:14:11	10.8	79
51170	2024-01-25T00:24:11	10.7	79
51171	2024-01-25T00:34:11	10.7	79.5
51172	2024-01-25T00:44:11	10.7	79
51173	2024-01-25T00:54:11	10.7	79.5
51174	2024-01-25T01:04:11	10.8	79.5
51175	2024-01-25T01:14:11	10.8	79.5
51176	2024-01-25T01:24:11	11	79.5
51177	2024-01-25T01:34:11	10.9	80
51178	2024-01-25T01:44:11	10.9	79.5
51179	2024-01-25T01:54:11	10.8	79.5
51180	2024-01-25T02:04:11	10.9	79.5
51181	2024-01-25T02:14:11	10.9	79
51182	2024-01-25T02:24:11	10.9	78.5
51183	2024-01-25T02:34:11	10.8	79
51184	2024-01-25T02:44:11	10.8	79.5
51185	2024-01-25T02:54:11	10.8	79
51186	2024-01-25T03:04:11	10.7	79
51187	2024-01-25T03:14:11	10.7	79
51188	2024-01-25T03:24:11	10.6	78
51189	2024-01-25T03:34:11	10.6	79
51190	2024-01-25T03:44:11	10.5	79
51191	2024-01-25T03:54:11	10.5	81
51192	2024-01-25T04:04:11	10.3	82
51193	2024-01-25T04:14:11	10.1	83
51194	2024-01-25T04:24:11	10.1	84.5
51195	2024-01-25T04:34:11	10	85
51196	2024-01-25T04:44:11	9.9	86
51197	2024-01-25T04:54:11	9.9	86.5
51198	2024-01-25T05:04:11	9.8	87
51199	2024-01-25T05:14:11	9.9	87.5
51200	2024-01-25T05:24:11	9.6	88
51201	2024-01-25T05:34:11	9.5	87.5
51202	2024-01-25T05:44:11	9.3	88.5
51203	2024-01-25T05:54:11	9.1	89.5
51204	2024-01-25T06:04:10	9	90.5
51205	2024-01-25T06:14:11	8.8	91
51206	2024-01-25T06:24:10	8.6	91.5
51207	2024-01-25T06:34:11	8.5	92.5
51208	2024-01-25T06:44:10	8.5	93
51209	2024-01-25T06:54:10	8.4	93
51210	2024-01-25T07:04:10	8.2	93
51211	2024-01-25T07:14:10	8.2	93.5
51212	2024-01-25T07:24:10	8	93
51213	2024-01-25T07:34:10	8.1	92.5
51214	2024-01-25T07:44:10	8.2	92
51215	2024-01-25T07:54:10	8.2	91.5
51216	2024-01-25T08:04:10	8.2	91.5
51217	2024-01-25T08:14:10	8.2	91
51218	2024-01-25T08:24:10	8.2	91
51219	2024-01-25T08:34:10	8.4	91
51220	2024-01-25T08:44:10	8.5	90
51221	2024-01-25T08:54:10	8.6	89.5
51222	2024-01-25T09:04:10	8.7	89.5
51223	2024-01-25T09:14:10	8.9	89
51224	2024-01-25T09:24:10	9	89
51225	2024-01-25T09:34:10	9.3	88
51226	2024-01-25T09:44:10	9.5	87.5
51227	2024-01-25T09:54:10	9.7	86.5
51228	2024-01-25T10:04:10	10.1	85
51229	2024-01-25T10:14:10	10.3	83
51230	2024-01-25T10:24:10	10.6	82
51231	2024-01-25T10:34:10	11	81.5
51232	2024-01-25T10:44:10	11.1	80
51233	2024-01-25T10:54:10	11.2	78.5
51234	2024-01-25T11:04:10	11.5	77
51235	2024-01-25T11:14:10	11.1	78.5
51236	2024-01-25T11:24:10	11.2	78.5
51237	2024-01-25T11:34:10	11.4	76.5
51238	2024-01-25T11:44:10	11.9	75
51239	2024-01-25T11:54:10	11.9	73.5
51240	2024-01-25T12:04:10	11.8	72.5
51241	2024-01-25T12:14:10	12.1	72
51242	2024-01-25T12:24:10	11.7	73.5
51243	2024-01-25T12:34:10	12.8	71.5
51244	2024-01-25T12:44:10	14.1	64.5
51245	2024-01-25T12:54:10	13.5	68
51246	2024-01-25T13:04:10	13	69.5
51247	2024-01-25T13:14:10	13	70
51248	2024-01-25T13:24:10	12.6	71.5
51249	2024-01-25T13:34:10	12.4	71
51250	2024-01-25T13:44:10	12.3	72
51251	2024-01-25T13:54:10	12	74.5
51252	2024-01-25T14:04:10	11.9	75.5
51253	2024-01-25T14:14:10	11.8	75
51254	2024-01-25T14:24:10	11.5	76
51255	2024-01-25T14:34:10	11.6	76
51256	2024-01-25T14:44:10	11.4	77.5
51257	2024-01-25T14:54:10	11.1	80.5
51258	2024-01-25T15:04:10	10.9	82.5
51259	2024-01-25T15:14:10	10.6	83.5
51260	2024-01-25T15:24:10	10.7	85
51261	2024-01-25T15:34:10	10.6	85
51262	2024-01-25T15:44:10	10.5	86
51263	2024-01-25T15:54:10	10.3	86
51264	2024-01-25T16:04:10	10.2	86.5
51265	2024-01-25T16:14:10	10.3	87
51266	2024-01-25T16:24:10	10.1	88.5
51267	2024-01-25T16:34:10	9.9	90.5
51268	2024-01-25T16:44:10	9.8	92
51269	2024-01-25T16:54:10	9.8	92
51270	2024-01-25T17:04:10	10	92
51271	2024-01-25T17:14:10	9.9	91.5
51272	2024-01-25T17:24:10	9.8	91.5
51273	2024-01-25T17:34:10	9.8	91.5
51274	2024-01-25T17:44:10	9.9	92
51275	2024-01-25T17:54:10	9.9	91.5
51276	2024-01-25T18:04:10	9.9	92
51277	2024-01-25T18:14:10	10	92.5
51278	2024-01-25T18:24:10	10	92
51279	2024-01-25T18:34:10	9.9	91.5
51280	2024-01-25T18:44:10	9.9	91.5
51281	2024-01-25T18:54:10	9.8	92
51282	2024-01-25T19:04:10	9.7	92.5
51283	2024-01-25T19:14:10	9.8	93
51284	2024-01-25T19:24:10	9.8	93.5
51285	2024-01-25T19:34:10	9.7	93
51286	2024-01-25T19:44:10	9.7	93.5
51287	2024-01-25T19:54:10	9.6	95.5
51288	2024-01-25T20:04:10	9.6	96.5
51289	2024-01-25T20:14:10	9.6	97
51290	2024-01-25T20:24:10	9.7	96.5
51291	2024-01-25T20:34:10	9.7	97
51292	2024-01-25T20:44:10	9.8	97.5
51293	2024-01-25T20:54:10	9.8	97.5
51294	2024-01-25T21:04:10	9.8	97.5
51295	2024-01-25T21:14:10	9.8	97.5
51296	2024-01-25T21:24:10	9.9	97.5
51297	2024-01-25T21:34:10	9.9	96
51298	2024-01-25T21:44:10	9.8	96.5
51299	2024-01-25T21:54:10	9.8	97
51300	2024-01-25T22:04:10	9.8	99
51301	2024-01-25T22:14:10	9.8	98
51302	2024-01-25T22:24:10	9.8	97
51303	2024-01-25T22:34:10	9.7	97
51304	2024-01-25T22:44:10	9.7	97
51305	2024-01-25T22:54:10	9.8	97
51306	2024-01-25T23:04:10	9.7	96.5
51307	2024-01-25T23:14:10	9.8	96
51308	2024-01-25T23:24:10	9.9	95.5
51309	2024-01-25T23:34:09	10	95
51310	2024-01-25T23:44:09	10	94.5
51311	2024-01-25T23:54:10	10	94.5
51312	2024-01-26T00:04:09	9.9	94.5
51313	2024-01-26T00:14:09	9.9	94.5
51314	2024-01-26T00:24:09	10	94.5
51315	2024-01-26T00:34:09	9.9	94.5
51316	2024-01-26T00:44:09	9.9	94.5
51317	2024-01-26T00:54:09	9.9	94
51318	2024-01-26T01:04:09	9.9	94
51319	2024-01-26T01:14:09	9.8	93.5
51320	2024-01-26T01:24:09	9.7	93
51321	2024-01-26T01:34:09	9.8	93
51322	2024-01-26T01:44:09	9.6	92.5
51323	2024-01-26T01:54:09	9.6	92.5
51324	2024-01-26T02:04:09	9.6	91.5
51325	2024-01-26T02:14:09	9.7	90.5
51326	2024-01-26T02:24:09	9.8	89
51327	2024-01-26T02:34:09	9.8	88
51328	2024-01-26T02:44:09	10	86
51329	2024-01-26T02:54:09	10.2	85.5
51330	2024-01-26T03:04:09	10.3	85
51331	2024-01-26T03:14:09	10.3	85
51332	2024-01-26T03:24:09	10.4	84
51333	2024-01-26T03:34:09	10.6	82.5
51334	2024-01-26T03:44:09	10.5	83
51335	2024-01-26T03:54:09	10.5	85.5
51336	2024-01-26T04:04:09	10.1	87.5
51337	2024-01-26T04:14:09	9.5	94.5
51338	2024-01-26T04:24:09	9.3	98
51339	2024-01-26T04:34:09	9.3	98.5
51340	2024-01-26T04:44:09	9.2	98.5
51341	2024-01-26T04:54:09	9.3	99
51342	2024-01-26T05:04:29	9.3	99
51343	2024-01-26T05:14:09	9.3	99
51344	2024-01-26T05:24:09	9.3	99
51345	2024-01-26T05:34:09	9.4	98.5
51346	2024-01-26T05:54:09	9.5	95.5
51347	2024-01-26T06:04:09	9.6	94
51348	2024-01-26T06:14:09	9.7	93
51349	2024-01-26T06:24:09	9.7	92
51350	2024-01-26T06:34:09	9.7	92
51351	2024-01-26T06:44:09	9.7	91.5
51352	2024-01-26T06:54:09	9.8	91
51353	2024-01-26T07:04:09	9.8	90
51354	2024-01-26T07:14:09	9.8	90
51355	2024-01-26T07:24:09	9.9	89.5
51356	2024-01-26T07:34:09	9.9	88.5
51357	2024-01-26T07:44:09	10	88.5
51358	2024-01-26T07:54:09	9.9	88
51359	2024-01-26T08:04:09	9.9	88
51360	2024-01-26T08:14:09	10	88
51361	2024-01-26T08:24:09	10	88
51362	2024-01-26T08:34:09	10.2	86.5
51363	2024-01-26T08:44:09	10.4	86
51364	2024-01-26T08:54:09	10.7	85
51365	2024-01-26T09:04:09	10.9	83.5
51366	2024-01-26T09:14:09	11	83
51367	2024-01-26T09:24:09	11.2	82.5
51368	2024-01-26T09:34:09	11.3	81.5
51369	2024-01-26T09:44:09	11.5	81
51370	2024-01-26T09:54:09	11.6	80.5
51371	2024-01-26T10:04:09	11.7	80.5
51372	2024-01-26T10:14:09	12	79
51373	2024-01-26T10:24:09	12.3	78
51374	2024-01-26T10:34:09	12.3	78
51375	2024-01-26T10:44:09	12.2	78
51376	2024-01-26T10:54:09	12.2	81.5
51377	2024-01-26T11:04:09	11.9	82.5
51378	2024-01-26T11:14:09	11	92.5
51379	2024-01-26T11:24:09	10.6	91.5
51380	2024-01-26T11:34:09	10.9	89
51381	2024-01-26T11:44:09	10.8	89.5
51382	2024-01-26T11:54:09	10.7	91.5
51383	2024-01-26T12:04:09	10.2	97.5
51384	2024-01-26T12:14:09	10.1	99
51385	2024-01-26T12:24:09	10.1	99.5
51386	2024-01-26T12:34:09	10.1	100
51387	2024-01-26T12:44:09	10	100
51388	2024-01-26T12:54:09	10.1	100
51389	2024-01-26T13:04:09	10.1	100
51390	2024-01-26T13:14:09	10.1	100
51391	2024-01-26T13:24:09	10	100
51392	2024-01-26T13:34:09	10.2	100
51393	2024-01-26T13:44:09	10	100
51394	2024-01-26T13:54:09	10.2	100
51395	2024-01-26T14:04:09	10	100
51396	2024-01-26T14:14:09	10	100
51397	2024-01-26T14:24:09	10.1	100
51398	2024-01-26T14:34:09	10.2	100
51399	2024-01-26T14:44:09	10.2	100
51400	2024-01-26T14:54:09	10.2	100
51401	2024-01-26T15:04:09	10.2	100
51402	2024-01-26T15:14:09	10.4	100
51403	2024-01-26T15:24:09	10.4	100
51404	2024-01-26T15:34:09	10.4	100
51405	2024-01-26T15:44:09	10.5	100
51406	2024-01-26T15:54:09	10.5	100
51407	2024-01-26T16:04:09	10.1	100
51408	2024-01-26T16:14:09	10	100
51409	2024-01-26T16:24:09	10.1	100
51410	2024-01-26T16:34:09	9.8	100
51411	2024-01-26T16:44:09	9.7	100
51412	2024-01-26T16:54:08	9.5	100
51413	2024-01-26T17:04:08	9.3	100
51414	2024-01-26T17:14:08	8.9	100
51415	2024-01-26T17:24:08	8.6	100
51416	2024-01-26T17:34:08	8.3	100
51417	2024-01-26T17:44:08	8.2	100
51418	2024-01-26T17:54:08	8	100
51419	2024-01-26T18:04:08	7.8	100
51420	2024-01-26T18:14:08	7.6	100
51421	2024-01-26T18:24:08	7.4	100
51422	2024-01-26T18:34:08	7.1	100
51423	2024-01-26T18:44:08	6.7	100
51424	2024-01-26T18:54:08	6.6	100
51425	2024-01-26T19:04:08	6.5	100
51426	2024-01-26T19:14:08	6.3	100
51427	2024-01-26T19:24:09	6	100
51428	2024-01-26T19:34:08	6	100
51429	2024-01-26T19:44:08	5.8	100
51430	2024-01-26T19:54:08	5.6	100
51431	2024-01-26T20:04:08	5.4	100
51432	2024-01-26T20:14:08	5.4	100
51433	2024-01-26T20:24:08	5.1	100
51434	2024-01-26T20:34:08	5.1	100
51435	2024-01-26T20:44:08	5	100
51436	2024-01-26T20:54:08	4.9	100
51437	2024-01-26T21:04:08	4.6	100
51438	2024-01-26T21:14:08	4.5	100
51439	2024-01-26T21:24:08	4.3	100
51440	2024-01-26T21:34:08	4.3	100
51441	2024-01-26T21:44:08	4	100
51442	2024-01-26T21:54:08	3.8	100
51443	2024-01-26T22:04:08	3.8	100
51444	2024-01-26T22:14:08	3.7	100
51445	2024-01-26T22:24:08	3.5	100
51446	2024-01-26T22:34:08	3.4	100
51447	2024-01-26T22:44:08	3.4	100
51448	2024-01-26T22:54:08	3.2	100
51449	2024-01-26T23:04:08	3	100
51450	2024-01-26T23:14:08	3	100
51451	2024-01-26T23:24:08	2.9	100
51452	2024-01-26T23:34:08	2.7	100
51453	2024-01-26T23:44:08	2.7	100
51454	2024-01-26T23:54:08	2.5	100
51455	2024-01-27T00:04:08	2.4	100
51456	2024-01-27T00:14:08	2.4	100
51457	2024-01-27T00:24:08	2.3	100
51458	2024-01-27T00:34:08	2.1	100
51459	2024-01-27T00:44:08	2	100
51460	2024-01-27T00:54:08	1.9	100
51461	2024-01-27T01:04:08	1.8	100
51462	2024-01-27T01:14:08	1.8	100
51463	2024-01-27T01:24:08	1.7	100
51464	2024-01-27T01:34:08	1.7	100
51465	2024-01-27T01:44:08	1.6	100
51466	2024-01-27T01:54:08	1.6	100
51467	2024-01-27T02:04:08	1.4	100
51468	2024-01-27T02:14:08	1.4	100
51469	2024-01-27T02:24:08	1.3	100
51470	2024-01-27T02:34:08	1.3	100
51471	2024-01-27T02:44:08	1.2	100
51472	2024-01-27T02:54:08	1.2	100
51473	2024-01-27T03:04:08	0.9	100
51474	2024-01-27T03:14:08	1.1	100
51475	2024-01-27T03:24:08	0.9	100
51476	2024-01-27T03:34:08	0.8	100
51477	2024-01-27T03:44:08	0.6	100
51478	2024-01-27T03:54:08	0.4	100
51479	2024-01-27T04:04:08	0.5	100
51480	2024-01-27T04:14:09	0.4	100
51481	2024-01-27T04:24:08	0.3	100
51482	2024-01-27T04:34:08	0.3	100
51483	2024-01-27T04:44:08	0.3	100
51484	2024-01-27T04:54:08	0.2	100
51485	2024-01-27T05:04:08	0.1	100
51486	2024-01-27T05:14:08	0	100
51487	2024-01-27T05:24:08	0	99.5
51488	2024-01-27T05:34:08	0	99
51489	2024-01-27T05:44:08	-0.1	97.5
51490	2024-01-27T05:54:08	-0.1	97
51491	2024-01-27T06:04:08	-0.1	97.5
51492	2024-01-27T06:14:08	-0.1	97
51493	2024-01-27T06:24:08	-0.2	97
51494	2024-01-27T06:34:08	-0.2	97.5
51495	2024-01-27T06:44:08	-0.1	96.5
51496	2024-01-27T06:54:08	-0.2	96.5
51497	2024-01-27T07:04:08	-0.3	96.5
51498	2024-01-27T07:14:08	-0.5	96.5
51499	2024-01-27T07:24:08	-0.4	96
51500	2024-01-27T07:34:08	-0.3	96.5
51501	2024-01-27T07:44:08	-0.3	97
51502	2024-01-27T07:54:08	-0.2	97
51503	2024-01-27T08:04:08	-0.2	97
51504	2024-01-27T08:14:08	-0.2	96.5
51505	2024-01-27T08:24:08	-0.2	97.5
51506	2024-01-27T08:34:08	0	98.5
51507	2024-01-27T08:44:08	0.2	99
51508	2024-01-27T08:54:08	0.4	99
51509	2024-01-27T09:04:08	0.4	99
51510	2024-01-27T09:14:29	0.5	99.5
51511	2024-01-27T09:24:08	0.5	99.5
51512	2024-01-27T09:34:08	0.8	100
51513	2024-01-27T09:44:08	1	100
51514	2024-01-27T09:54:08	1.2	100
51515	2024-01-27T10:04:08	1.4	100
51516	2024-01-27T10:14:08	1.7	99.5
51517	2024-01-27T10:24:08	2	98
51518	2024-01-27T10:34:08	2.4	97.5
51519	2024-01-27T10:44:08	2.6	96.5
51520	2024-01-27T10:54:08	2.9	96
51521	2024-01-27T11:04:08	3	96.5
51522	2024-01-27T11:14:08	3.3	97
51523	2024-01-27T11:24:08	3.7	96
51524	2024-01-27T11:34:08	4	96
51525	2024-01-27T11:44:08	4.8	95
51526	2024-01-27T11:54:08	6	90.5
51527	2024-01-27T12:04:08	6	89
51528	2024-01-27T12:14:08	6.7	87.5
51529	2024-01-27T12:24:08	8.4	82.5
51530	2024-01-27T12:34:08	10.9	72.5
51531	2024-01-27T12:44:08	12.4	63
51532	2024-01-27T12:54:08	13.4	64
51533	2024-01-27T13:04:09	14.5	58.5
51534	2024-01-27T13:14:08	14.9	59.5
51535	2024-01-27T13:24:08	15.8	56
51536	2024-01-27T13:34:08	16.5	52.5
51537	2024-01-27T13:44:08	17	46.5
51538	2024-01-27T13:54:08	16.8	46
51539	2024-01-27T14:04:08	17.6	45.5
51540	2024-01-27T14:14:08	17.9	44
51541	2024-01-27T14:24:08	18	45
51542	2024-01-27T14:34:08	18.1	44.5
51543	2024-01-27T14:44:08	18.4	44.5
51544	2024-01-27T14:54:08	18.2	42
51545	2024-01-27T15:04:08	17.8	41.5
51546	2024-01-27T15:14:08	16.6	48.5
51547	2024-01-27T15:24:08	15.1	48
51548	2024-01-27T15:34:08	13.9	50
51549	2024-01-27T15:44:08	12.9	52
51550	2024-01-27T15:54:08	12.2	56.5
51551	2024-01-27T16:04:08	11.6	58.5
51552	2024-01-27T16:14:08	10.9	59
51553	2024-01-27T16:24:08	10.2	62
51554	2024-01-27T16:34:08	10	65
51555	2024-01-27T16:44:08	9.5	64.5
51556	2024-01-27T16:54:08	9.3	66.5
51557	2024-01-27T17:04:08	8.9	65.5
51558	2024-01-27T17:14:08	8.3	66.5
51559	2024-01-27T17:24:08	7.9	66.5
51560	2024-01-27T17:34:08	7.8	68
51561	2024-01-27T17:44:08	7.6	68
51562	2024-01-27T17:54:08	7.1	70.5
51563	2024-01-27T18:04:08	7	70.5
51564	2024-01-27T18:14:08	6.8	70
51565	2024-01-27T18:24:08	6.6	70
51566	2024-01-27T18:34:08	6.2	71
51567	2024-01-27T18:44:08	6	72
51568	2024-01-27T18:54:08	6	73.5
51569	2024-01-27T19:04:08	5.9	73
51570	2024-01-27T19:14:08	5.8	74.5
51571	2024-01-27T19:24:08	5.6	74
51572	2024-01-27T19:34:08	5.5	75.5
51573	2024-01-27T19:44:08	5.4	76
51574	2024-01-27T19:54:08	5.2	75
51575	2024-01-27T20:04:08	5.1	76
51576	2024-01-27T20:14:08	5	76.5
51577	2024-01-27T20:24:08	4.9	77.5
51578	2024-01-27T20:34:08	4.7	78.5
51579	2024-01-27T20:44:08	4.5	78.5
51580	2024-01-27T20:54:08	4.4	79
51581	2024-01-27T21:04:08	4.2	78.5
51582	2024-01-27T21:14:08	4.2	80
51583	2024-01-27T21:24:08	3.9	79.5
51584	2024-01-27T21:34:08	3.8	79
51585	2024-01-27T21:44:08	3.8	82
51586	2024-01-27T21:54:08	3.6	82.5
51587	2024-01-27T22:04:08	3.5	83
51588	2024-01-27T22:14:08	3.4	82
51589	2024-01-27T22:24:08	3.4	82
51590	2024-01-27T22:34:08	3.3	83
51591	2024-01-27T22:44:08	3.3	82.5
51592	2024-01-27T22:54:08	3.3	83
51593	2024-01-27T23:04:08	3.2	83
51594	2024-01-27T23:14:08	3.2	82.5
51595	2024-01-27T23:24:08	3.1	83
51596	2024-01-27T23:34:08	3.1	82.5
51597	2024-01-27T23:44:08	3	83.5
51598	2024-01-27T23:54:08	2.9	83.5
51599	2024-01-28T00:04:08	2.7	85.5
51600	2024-01-28T00:14:08	2.5	85
51601	2024-01-28T00:24:08	2.2	86
51602	2024-01-28T00:34:08	2	86
51603	2024-01-28T00:44:08	1.9	86.5
51604	2024-01-28T00:54:08	1.8	87
51605	2024-01-28T01:04:08	1.7	87
51606	2024-01-28T01:14:08	1.6	87.5
51607	2024-01-28T01:24:08	1.5	87.5
51608	2024-01-28T01:34:08	1.4	87
51609	2024-01-28T01:44:08	1.3	88
51610	2024-01-28T01:54:08	1.3	88.5
51611	2024-01-28T02:04:08	1.2	87
51612	2024-01-28T02:14:08	1.1	86.5
51613	2024-01-28T02:24:08	1	87.5
51614	2024-01-28T02:34:08	1	88
51615	2024-01-28T02:44:08	0.7	88.5
51616	2024-01-28T02:54:08	0.6	87
51617	2024-01-28T03:14:08	0.4	89
51618	2024-01-28T03:24:08	0.4	89
51619	2024-01-28T03:34:08	0.2	89
51620	2024-01-28T03:44:08	0.1	89
51621	2024-01-28T03:54:08	0.1	89
51622	2024-01-28T04:04:08	0.1	89.5
51623	2024-01-28T04:14:08	0	89
51624	2024-01-28T04:24:08	-0.1	89
51625	2024-01-28T04:34:08	-0.1	89.5
51626	2024-01-28T04:44:08	-0.2	88.5
51627	2024-01-28T04:54:08	-0.1	89.5
51628	2024-01-28T05:04:08	-0.2	89
51629	2024-01-28T05:14:08	-0.3	89
51630	2024-01-28T05:24:08	-0.4	88
51631	2024-01-28T05:34:08	-0.5	89
51632	2024-01-28T05:44:08	-0.6	89
51633	2024-01-28T05:54:08	-0.7	89.5
51634	2024-01-28T06:04:08	-0.7	90
51635	2024-01-28T06:14:08	-0.7	89.5
51636	2024-01-28T06:24:08	-0.8	90
51637	2024-01-28T06:34:08	-0.9	89.5
51638	2024-01-28T06:44:08	-1	90
51639	2024-01-28T06:54:08	-0.9	89.5
51640	2024-01-28T07:04:08	-1	88.5
51641	2024-01-28T07:14:08	-0.8	90
51642	2024-01-28T07:24:08	-0.9	89
51643	2024-01-28T07:34:08	-1	89
51644	2024-01-28T07:44:08	-0.9	89.5
51645	2024-01-28T07:54:08	-0.9	89
51646	2024-01-28T08:04:08	-0.8	89.5
51647	2024-01-28T08:14:08	-0.6	90
51648	2024-01-28T08:24:08	-0.5	90.5
51649	2024-01-28T08:34:08	-0.4	91
51650	2024-01-28T08:44:08	-0.2	92
51651	2024-01-28T08:54:08	0	92
51652	2024-01-28T09:04:08	0	92
51653	2024-01-28T09:14:08	0	92.5
51654	2024-01-28T09:24:08	0.2	93.5
51655	2024-01-28T09:34:08	0.3	94
51656	2024-01-28T09:44:08	0.4	93
51657	2024-01-28T09:54:08	0.5	93
51658	2024-01-28T10:14:08	0.9	94
51659	2024-01-28T10:24:08	1	93.5
51660	2024-01-28T10:34:08	1.2	92
51661	2024-01-28T10:44:08	1.5	92.5
51662	2024-01-28T10:54:08	1.7	91.5
51663	2024-01-28T11:04:08	2	91.5
51664	2024-01-28T11:14:08	2.3	90
51665	2024-01-28T11:24:08	2.7	90
51666	2024-01-28T11:34:08	3.1	89
51667	2024-01-28T11:44:08	3.9	86.5
51668	2024-01-28T11:54:08	5.2	81.5
51669	2024-01-28T12:04:08	5.2	80.5
51670	2024-01-28T12:14:08	5.9	81
51671	2024-01-28T12:24:08	7.7	74.5
51672	2024-01-28T12:34:08	10.8	65
51673	2024-01-28T12:44:08	12.7	58
51674	2024-01-28T12:54:08	13.9	52
51675	2024-01-28T13:04:08	14.8	51.5
51676	2024-01-28T13:14:08	16	46.5
51677	2024-01-28T13:24:08	16.9	44.5
51678	2024-01-28T13:34:08	17.9	44
51679	2024-01-28T13:44:08	17.6	42
51680	2024-01-28T13:54:07	18.9	41
51681	2024-01-28T14:04:07	18.6	41
51682	2024-01-28T14:14:07	19.5	40.5
51683	2024-01-28T14:24:07	19.5	37.5
51684	2024-01-28T14:34:07	19.7	40.5
51685	2024-01-28T14:44:07	19.9	37.5
51686	2024-01-28T14:54:07	19.7	38
51687	2024-01-28T15:04:07	19.8	39
51688	2024-01-28T15:14:07	18.9	41
51689	2024-01-28T15:24:07	17.6	42.5
51690	2024-01-28T15:34:07	16.2	45
51691	2024-01-28T15:44:07	14.9	48.5
51692	2024-01-28T15:54:07	13.9	53
51693	2024-01-28T16:04:07	13.2	55.5
51694	2024-01-28T16:14:07	12.1	57
51695	2024-01-28T16:24:07	10.7	60
51696	2024-01-28T16:34:07	10.6	63.5
51697	2024-01-28T16:44:07	10.2	63.5
51698	2024-01-28T16:54:07	9.7	64.5
51699	2024-01-28T17:04:07	9.3	65.5
51700	2024-01-28T17:14:07	9	66
51701	2024-01-28T17:24:07	8.5	67.5
51702	2024-01-28T17:34:08	8.3	67
51703	2024-01-28T17:44:07	8.1	71.5
51704	2024-01-28T17:54:07	7.6	70
51705	2024-01-28T18:04:07	7.3	72
51706	2024-01-28T18:14:07	7.1	73
51707	2024-01-28T18:24:07	6.9	71
51708	2024-01-28T18:34:07	6.2	73
51709	2024-01-28T18:44:07	6	72.5
51710	2024-01-28T18:54:07	5.6	75
51711	2024-01-28T19:04:07	5.6	75
51712	2024-01-28T19:14:07	5.5	76
51713	2024-01-28T19:24:07	5.3	76
51714	2024-01-28T19:34:07	5.1	77
51715	2024-01-28T19:44:07	4.9	76.5
51716	2024-01-28T19:54:07	4.7	77
51717	2024-01-28T20:04:07	4.5	76
51718	2024-01-28T20:14:07	4.2	77
51719	2024-01-28T20:24:07	4.1	77.5
51720	2024-01-28T20:34:07	3.9	77
51721	2024-01-28T20:44:07	3.9	78
51722	2024-01-28T20:54:07	3.8	78.5
51723	2024-01-28T21:04:07	3.5	79
51724	2024-01-28T21:14:07	3.5	80
51725	2024-01-28T21:24:07	3.3	79.5
51726	2024-01-28T21:34:07	3.1	80
51727	2024-01-28T21:44:07	2.9	80.5
51728	2024-01-28T21:54:07	2.8	81
51729	2024-01-28T22:04:07	2.8	80.5
51730	2024-01-28T22:14:07	2.6	81
51731	2024-01-28T22:24:07	2.5	81.5
51732	2024-01-28T22:34:07	2.4	81.5
51733	2024-01-28T22:44:07	2.3	81.5
51734	2024-01-28T22:54:07	2.3	82
51735	2024-01-28T23:04:07	2.2	81.5
51736	2024-01-28T23:14:07	2.1	82.5
51737	2024-01-28T23:24:07	1.9	83
51738	2024-01-28T23:34:07	1.8	83
51739	2024-01-28T23:44:07	1.8	84
51740	2024-01-28T23:54:07	1.7	83
51741	2024-01-29T00:04:07	1.5	83
51742	2024-01-29T00:14:07	1.4	84
51743	2024-01-29T00:24:07	1.4	84.5
51744	2024-01-29T00:34:07	1.1	84
51745	2024-01-29T00:44:07	1.1	83.5
51746	2024-01-29T00:54:07	1	85
51747	2024-01-29T01:04:07	1	84.5
51748	2024-01-29T01:14:07	0.9	86
51749	2024-01-29T01:24:07	0.8	85
51750	2024-01-29T01:34:07	0.9	85
51751	2024-01-29T01:44:07	0.7	85
51752	2024-01-29T01:54:07	0.6	85
51753	2024-01-29T02:04:07	0.6	85.5
51754	2024-01-29T02:14:07	0.5	85.5
51755	2024-01-29T02:24:07	0.4	85.5
51756	2024-01-29T02:34:07	0.3	86
51757	2024-01-29T02:44:07	0.3	86.5
51758	2024-01-29T02:54:07	0.3	85.5
51759	2024-01-29T03:04:07	0.2	86
51760	2024-01-29T03:14:07	0.2	86.5
51761	2024-01-29T03:24:07	0.1	87
51762	2024-01-29T03:34:07	0.1	87.5
51763	2024-01-29T03:44:07	0	87
51764	2024-01-29T03:54:07	-0.1	87.5
51765	2024-01-29T04:04:07	-0.1	87.5
51766	2024-01-29T04:14:07	-0.1	88
51767	2024-01-29T04:24:07	0	88
51768	2024-01-29T04:34:07	0	87.5
51769	2024-01-29T04:44:07	-0.1	88
51770	2024-01-29T04:54:07	-0.1	88
51771	2024-01-29T05:04:07	-0.1	89
51772	2024-01-29T05:14:07	-0.2	89
51773	2024-01-29T05:24:07	-0.1	88.5
51774	2024-01-29T05:34:07	-0.1	89
51775	2024-01-29T05:44:07	-0.3	88
51776	2024-01-29T05:54:07	-0.4	89
51777	2024-01-29T06:04:07	-0.5	89
51778	2024-01-29T06:14:07	-0.6	89.5
51779	2024-01-29T06:24:07	-0.6	90
51780	2024-01-29T06:34:07	-0.6	90
51781	2024-01-29T06:44:07	-0.6	90
51782	2024-01-29T06:54:07	-0.5	89.5
51783	2024-01-29T07:04:07	-0.5	90
51784	2024-01-29T07:14:07	-0.4	88.5
51785	2024-01-29T07:24:07	-0.3	88.5
51786	2024-01-29T07:34:07	-0.4	89.5
51787	2024-01-29T07:44:07	-0.2	90
51788	2024-01-29T07:54:07	-0.2	90.5
51789	2024-01-29T08:04:07	-0.1	91
51790	2024-01-29T08:14:07	0.1	91
51791	2024-01-29T08:24:07	0.1	91.5
51792	2024-01-29T08:34:07	0.3	92.5
51793	2024-01-29T08:44:07	0.6	92.5
51794	2024-01-29T08:54:07	0.7	93
51795	2024-01-29T09:04:07	1	93.5
51796	2024-01-29T09:14:07	1.3	93
51797	2024-01-29T09:24:07	1.6	93.5
51798	2024-01-29T09:34:07	1.9	94
51799	2024-01-29T09:44:07	2.4	92.5
51800	2024-01-29T09:54:07	2.8	92.5
51801	2024-01-29T10:04:07	2.9	91.5
51802	2024-01-29T10:14:07	3	90
51803	2024-01-29T10:24:07	3.1	89
51804	2024-01-29T10:34:07	3.1	90.5
51805	2024-01-29T10:44:07	3.4	90
51806	2024-01-29T10:54:07	3.6	89
51807	2024-01-29T11:04:07	3.9	89
51808	2024-01-29T11:14:07	4.3	88
51809	2024-01-29T11:24:07	4.7	87
51810	2024-01-29T11:34:07	4.9	85.5
51811	2024-01-29T11:44:07	5.6	83
51812	2024-01-29T11:54:07	6.7	80.5
51813	2024-01-29T12:04:07	6.9	79
51814	2024-01-29T12:14:07	7.6	77
51815	2024-01-29T12:24:07	9.3	72.5
51816	2024-01-29T12:34:07	12.4	62.5
51817	2024-01-29T12:44:07	14.1	57
51818	2024-01-29T12:54:07	15.6	51
51819	2024-01-29T13:04:07	16.5	46
51820	2024-01-29T13:14:07	16.9	47
51821	2024-01-29T13:24:07	16.9	46.5
51822	2024-01-29T13:34:07	17.3	43.5
51823	2024-01-29T13:44:07	17	44.5
51824	2024-01-29T13:54:07	17.6	45
51825	2024-01-29T14:04:07	17.4	45.5
51826	2024-01-29T14:14:07	16.7	47
51827	2024-01-29T14:24:07	15.9	49.5
51828	2024-01-29T14:34:07	16	49.5
51829	2024-01-29T14:44:07	14.7	54
51830	2024-01-29T14:54:07	14	54
51831	2024-01-29T15:04:07	13.4	55
51832	2024-01-29T15:14:07	13.2	56.5
51833	2024-01-29T15:24:07	12.9	62.5
51834	2024-01-29T15:34:07	12.6	63
51835	2024-01-29T15:44:07	12.1	62
51836	2024-01-29T15:54:07	11.7	65
51837	2024-01-29T16:04:07	11.4	68
51838	2024-01-29T16:14:07	10.9	70.5
51839	2024-01-29T16:24:07	10.7	72
51840	2024-01-29T16:34:07	10.2	72
51841	2024-01-29T16:44:07	9.6	74
51842	2024-01-29T16:54:07	9.3	73
51843	2024-01-29T17:04:07	9	74
51844	2024-01-29T17:14:07	8.7	74
51845	2024-01-29T17:24:07	8.5	74.5
51846	2024-01-29T17:34:07	8	75
51847	2024-01-29T17:44:07	7.9	75.5
51848	2024-01-29T17:54:07	7.7	76.5
51849	2024-01-29T18:04:07	7.5	76.5
51850	2024-01-29T18:14:07	7.2	76.5
51851	2024-01-29T18:24:07	7.1	78
51852	2024-01-29T18:34:07	6.9	77.5
51853	2024-01-29T18:44:07	6.8	78
51854	2024-01-29T18:54:07	6.6	77
51855	2024-01-29T19:04:07	6.4	78.5
51856	2024-01-29T19:14:07	6.2	78.5
51857	2024-01-29T19:24:07	6	78.5
51858	2024-01-29T19:34:07	5.9	78.5
51859	2024-01-29T19:44:07	5.7	78.5
51860	2024-01-29T19:54:07	5.6	78
51861	2024-01-29T20:04:07	5.5	80
51862	2024-01-29T20:14:07	5.3	79.5
51863	2024-01-29T20:24:07	5.3	80
51864	2024-01-29T20:34:07	5.2	80
51865	2024-01-29T20:44:07	4.9	79.5
51866	2024-01-29T20:54:07	4.8	79.5
51867	2024-01-29T21:04:07	4.7	81.5
51868	2024-01-29T21:14:07	4.5	81.5
51869	2024-01-29T21:24:07	4.4	80.5
51870	2024-01-29T21:34:07	4.3	81.5
51871	2024-01-29T21:44:07	4.2	82.5
51872	2024-01-29T21:54:07	4	82.5
51873	2024-01-29T22:04:07	4	82.5
51874	2024-01-29T22:14:07	4	82.5
51875	2024-01-29T22:24:07	3.9	82
51876	2024-01-29T22:34:07	3.7	82.5
51877	2024-01-29T22:44:06	3.7	83.5
51878	2024-01-29T22:54:06	3.5	83.5
51879	2024-01-29T23:04:06	3.4	83.5
51880	2024-01-29T23:14:06	3.3	83.5
51881	2024-01-29T23:24:06	3.1	84.5
51882	2024-01-29T23:34:06	3	85
51883	2024-01-29T23:44:06	2.9	85.5
51884	2024-01-29T23:54:06	2.9	85.5
51885	2024-01-30T00:04:06	2.9	85.5
51886	2024-01-30T00:14:06	2.7	85.5
51887	2024-01-30T00:24:06	2.7	86
51888	2024-01-30T00:34:06	2.7	86
51889	2024-01-30T00:44:06	2.6	86.5
51890	2024-01-30T00:54:06	2.6	85.5
51891	2024-01-30T01:04:06	2.5	86.5
51892	2024-01-30T01:14:06	2.4	85.5
51893	2024-01-30T01:24:06	2.5	86
51894	2024-01-30T01:34:06	2.4	87
51895	2024-01-30T01:44:06	2.3	86.5
51896	2024-01-30T01:54:06	2.2	87.5
51897	2024-01-30T02:04:06	2.1	87
51898	2024-01-30T02:14:06	2	87.5
51899	2024-01-30T02:24:06	1.8	88
51900	2024-01-30T02:34:06	1.7	87.5
51901	2024-01-30T02:44:06	1.8	88
51902	2024-01-30T02:54:06	1.7	88
51903	2024-01-30T03:04:06	1.5	87.5
51904	2024-01-30T03:14:06	1.4	87.5
51905	2024-01-30T03:24:06	1.4	88
51906	2024-01-30T03:34:06	1.4	88.5
51907	2024-01-30T03:44:06	1.5	88
51908	2024-01-30T03:54:06	1.3	88.5
51909	2024-01-30T04:04:06	1.3	89
51910	2024-01-30T04:14:06	1.3	89
51911	2024-01-30T04:24:06	1.2	88.5
51912	2024-01-30T04:34:06	1.2	87.5
51913	2024-01-30T04:44:06	1.1	88
51914	2024-01-30T04:54:06	1	88.5
51915	2024-01-30T05:04:06	0.9	89.5
51916	2024-01-30T05:14:06	1	89.5
51917	2024-01-30T05:24:06	1	89.5
51918	2024-01-30T05:34:06	0.9	89
51919	2024-01-30T05:44:06	0.7	89.5
51920	2024-01-30T06:04:06	0.7	90.5
51921	2024-01-30T06:14:06	0.6	90
51922	2024-01-30T06:24:06	0.7	90.5
51923	2024-01-30T06:34:06	0.7	90
51924	2024-01-30T06:44:06	0.6	90.5
51925	2024-01-30T06:54:06	0.6	90.5
51926	2024-01-30T07:04:06	0.4	90.5
51927	2024-01-30T07:14:06	0.5	91
51928	2024-01-30T07:24:06	0.5	91
51929	2024-01-30T07:34:06	0.5	91
51930	2024-01-30T07:44:06	0.7	91.5
51931	2024-01-30T07:54:06	0.8	91.5
51932	2024-01-30T08:04:06	1	91.5
51933	2024-01-30T08:14:06	1.2	92
51934	2024-01-30T08:24:06	1.4	92
51935	2024-01-30T08:34:06	1.8	92
51936	2024-01-30T08:44:06	1.9	91.5
51937	2024-01-30T08:54:06	2.2	92
51938	2024-01-30T09:04:06	2.4	92
51939	2024-01-30T09:14:06	2.6	92
51940	2024-01-30T09:24:06	2.8	91.5
51941	2024-01-30T09:34:06	3	92
51942	2024-01-30T09:44:06	3.4	92.5
51943	2024-01-30T09:54:06	3.6	92
51944	2024-01-30T10:04:06	3.8	92.5
51945	2024-01-30T10:14:06	4.1	90.5
51946	2024-01-30T10:24:06	4.6	91
51947	2024-01-30T10:34:07	5	88.5
51948	2024-01-30T10:44:06	5.3	87.5
51949	2024-01-30T10:54:06	5.8	84.5
51950	2024-01-30T11:04:06	6.1	82.5
51951	2024-01-30T11:14:06	6.4	82
51952	2024-01-30T11:24:06	6.5	82.5
51953	2024-01-30T11:34:06	6.6	82
51954	2024-01-30T11:44:06	7.4	79.5
51955	2024-01-30T11:54:06	8.4	75
51956	2024-01-30T12:04:06	8.5	75
51957	2024-01-30T12:14:06	9.2	76
51958	2024-01-30T12:24:06	10.1	71.5
51959	2024-01-30T12:34:06	10.7	69
51960	2024-01-30T12:44:06	10.4	67.5
51961	2024-01-30T12:54:06	10.6	67.5
51962	2024-01-30T13:04:06	10.6	68
51963	2024-01-30T13:14:06	11	68
51964	2024-01-30T13:24:06	11.3	66.5
51965	2024-01-30T13:34:06	11.2	67.5
51966	2024-01-30T13:44:06	10.9	68.5
51967	2024-01-30T13:54:06	11.1	68.5
51968	2024-01-30T14:04:06	10.9	70.5
51969	2024-01-30T14:14:06	10.7	70.5
51970	2024-01-30T14:24:06	10.7	71
51971	2024-01-30T14:34:06	10.5	72
51972	2024-01-30T14:44:06	10.5	72.5
51973	2024-01-30T14:54:06	10.4	72.5
51974	2024-01-30T15:04:06	10.5	73
51975	2024-01-30T15:14:06	10.5	73.5
51976	2024-01-30T15:24:06	10.3	76
51977	2024-01-30T15:34:06	10.1	76.5
51978	2024-01-30T15:44:06	10	79
51979	2024-01-30T15:54:06	9.9	78
51980	2024-01-30T16:04:06	9.8	78
51981	2024-01-30T16:14:06	9.6	79
51982	2024-01-30T16:24:06	9.6	79.5
51983	2024-01-30T16:34:06	9.4	80
51984	2024-01-30T16:44:06	9.3	79.5
51985	2024-01-30T16:54:06	9.3	80.5
51986	2024-01-30T17:04:06	9.2	80.5
51987	2024-01-30T17:14:06	9.1	81
51988	2024-01-30T17:24:06	9.1	81
51989	2024-01-30T17:34:06	9.2	80
51990	2024-01-30T17:44:06	9.2	81.5
51991	2024-01-30T17:54:06	9.2	82
51992	2024-01-30T18:04:06	9.2	84
51993	2024-01-30T18:14:06	9.2	83.5
51994	2024-01-30T18:24:06	9.1	83
51995	2024-01-30T18:34:06	9	86
51996	2024-01-30T18:44:06	8.9	86.5
51997	2024-01-30T18:54:06	8.8	87
51998	2024-01-30T19:04:06	8.5	87
51999	2024-01-30T19:14:06	8	87.5
52000	2024-01-30T19:24:06	8.1	87.5
52001	2024-01-30T19:34:06	7.9	88
52002	2024-01-30T19:44:06	7.8	88.5
52003	2024-01-30T19:54:06	7.6	88.5
52004	2024-01-30T20:04:06	7.4	88
52005	2024-01-30T20:14:06	7.4	89
52006	2024-01-30T20:24:06	7.3	88
52007	2024-01-30T20:34:06	7.4	88.5
52008	2024-01-30T20:44:06	7.5	87.5
52009	2024-01-30T20:54:06	7.4	87
52010	2024-01-30T21:04:06	7.5	88
52011	2024-01-30T21:14:06	7.6	88
52012	2024-01-30T21:24:06	7.8	87.5
52013	2024-01-30T21:34:06	7.8	87.5
52014	2024-01-30T21:44:06	7.9	87
52015	2024-01-30T21:54:06	8	87
52016	2024-01-30T22:04:06	8.1	87.5
52017	2024-01-30T22:14:06	8	88
52018	2024-01-30T22:24:06	8.1	88.5
52019	2024-01-30T22:34:06	7.9	87.5
52020	2024-01-30T22:44:06	8	87
52021	2024-01-30T22:54:06	8.2	85.5
52022	2024-01-30T23:04:06	8.3	84.5
52023	2024-01-30T23:14:06	8.5	82.5
52024	2024-01-30T23:24:06	8.8	82.5
52025	2024-01-30T23:34:06	8.6	83
52026	2024-01-30T23:44:06	8.6	81
52027	2024-01-30T23:54:06	8.8	80
52028	2024-01-31T00:04:06	9.1	78
52029	2024-01-31T00:14:06	9.3	77
52030	2024-01-31T00:24:06	9.3	76
52031	2024-01-31T00:34:06	9.4	76
52032	2024-01-31T00:44:06	9.4	75
52033	2024-01-31T00:54:06	9.5	74.5
52034	2024-01-31T01:04:06	9.4	75
52035	2024-01-31T01:14:06	9.5	75
52036	2024-01-31T01:24:06	9.4	77.5
52037	2024-01-31T01:34:06	9.4	78.5
52038	2024-01-31T01:44:06	9.3	77.5
52039	2024-01-31T01:54:06	9.3	78.5
52040	2024-01-31T02:04:06	9.3	77.5
52041	2024-01-31T02:14:06	9.3	76.5
52042	2024-01-31T02:24:06	9.4	76.5
52043	2024-01-31T02:34:06	9.4	77
52044	2024-01-31T02:44:06	9.3	80.5
52045	2024-01-31T02:54:05	9.3	78.5
52046	2024-01-31T03:04:05	9.3	78.5
52047	2024-01-31T03:14:05	9.2	79
52048	2024-01-31T03:24:05	9.2	79
52049	2024-01-31T03:34:05	9	80.5
52050	2024-01-31T03:44:05	9.1	81.5
52051	2024-01-31T03:54:05	9.1	79
52052	2024-01-31T04:04:05	9.2	78
52053	2024-01-31T04:14:05	9.1	78.5
52054	2024-01-31T04:24:05	9.1	78.5
52055	2024-01-31T04:34:05	9.2	78.5
52056	2024-01-31T04:44:05	9.1	79.5
52057	2024-01-31T04:54:05	9	80
52058	2024-01-31T05:04:05	9.1	80.5
52059	2024-01-31T05:14:05	8.9	80
52060	2024-01-31T05:24:05	9	81.5
52061	2024-01-31T05:34:05	9.1	80.5
52062	2024-01-31T05:44:05	9.1	81.5
52063	2024-01-31T05:54:05	8.9	82
52064	2024-01-31T06:04:05	9	82
52065	2024-01-31T06:14:05	8.8	83.5
52066	2024-01-31T06:24:05	8.9	84
52067	2024-01-31T06:34:05	8.9	85.5
52068	2024-01-31T06:44:05	8.8	86.5
52069	2024-01-31T06:54:05	8.9	86
52070	2024-01-31T07:04:05	8.8	85.5
52071	2024-01-31T07:14:05	8.8	87
52072	2024-01-31T07:24:05	8.7	87.5
52073	2024-01-31T07:34:05	8.8	87
52074	2024-01-31T07:44:05	8.8	87
52075	2024-01-31T07:54:05	8.7	87.5
52076	2024-01-31T08:04:05	8.8	87.5
52077	2024-01-31T08:14:05	8.8	88
52078	2024-01-31T08:24:05	8.7	88.5
52079	2024-01-31T08:34:05	8.8	87.5
52080	2024-01-31T08:44:05	8.9	87.5
52081	2024-01-31T08:54:05	8.8	87.5
52082	2024-01-31T09:04:05	8.9	87.5
52083	2024-01-31T09:14:05	9	85.5
52084	2024-01-31T09:24:05	9	86.5
52085	2024-01-31T09:34:05	8.9	87
52086	2024-01-31T09:44:05	8.9	86
52087	2024-01-31T09:54:05	8.9	86.5
52088	2024-01-31T10:04:05	9	86
52089	2024-01-31T10:24:05	9.3	86
52090	2024-01-31T10:34:05	9.3	84.5
52091	2024-01-31T10:44:05	9.5	84.5
52092	2024-01-31T10:54:05	9.6	84.5
52093	2024-01-31T11:04:05	9.9	84.5
52094	2024-01-31T11:14:05	10	83
52095	2024-01-31T11:24:05	10.6	82.5
52096	2024-01-31T11:34:05	10.8	81
52097	2024-01-31T11:44:05	11.3	79.5
52098	2024-01-31T11:54:05	11.3	79.5
52099	2024-01-31T12:04:05	11.4	79.5
52100	2024-01-31T12:14:05	11.3	79.5
52101	2024-01-31T12:24:05	11.3	79
52102	2024-01-31T12:34:05	11.3	79
52103	2024-01-31T12:44:05	11.6	80
52104	2024-01-31T12:54:05	11.6	77.5
52105	2024-01-31T13:04:05	11.5	78.5
52106	2024-01-31T13:14:05	11.5	78
52107	2024-01-31T13:24:05	11.5	78
52108	2024-01-31T13:34:05	11.5	78.5
52109	2024-01-31T13:44:05	11.3	76
52110	2024-01-31T13:54:05	11.2	75.5
52111	2024-01-31T14:04:05	11.2	76.5
52112	2024-01-31T14:14:05	11.3	76.5
52113	2024-01-31T14:24:05	11.2	74.5
52114	2024-01-31T14:34:05	11.2	75
52115	2024-01-31T14:44:05	11.2	73
52116	2024-01-31T14:54:05	11.1	73.5
52117	2024-01-31T15:04:05	11.2	73.5
52118	2024-01-31T15:14:05	11.1	73
52119	2024-01-31T15:24:05	11	73.5
52120	2024-01-31T15:34:05	10.7	74
52121	2024-01-31T15:44:05	10.7	74.5
52122	2024-01-31T15:54:05	10.5	75.5
52123	2024-01-31T16:04:05	10.4	76
52124	2024-01-31T16:14:05	10.4	76
52125	2024-01-31T16:24:05	10.3	76.5
52126	2024-01-31T16:34:05	10.3	76.5
52127	2024-01-31T16:44:05	10.2	76.5
52128	2024-01-31T16:54:05	10.2	76.5
52129	2024-01-31T17:04:05	10.1	77
52130	2024-01-31T17:24:05	9.9	78.5
52131	2024-01-31T17:34:05	9.8	78.5
52132	2024-01-31T17:44:05	9.7	79.5
52133	2024-01-31T17:54:05	9.7	79.5
52134	2024-01-31T18:04:05	9.8	80
52135	2024-01-31T18:14:05	9.9	80.5
52136	2024-01-31T18:24:05	9.9	80.5
52137	2024-01-31T18:34:05	9.9	80.5
52138	2024-01-31T18:44:05	9.9	80
52139	2024-01-31T18:54:05	10	80
52140	2024-01-31T19:04:05	9.9	80.5
52141	2024-01-31T19:14:05	10	80.5
52142	2024-01-31T19:24:05	9.9	80.5
52143	2024-01-31T19:34:05	9.9	81
52144	2024-01-31T19:44:05	9.9	81
52145	2024-01-31T19:54:05	9.9	79.5
52146	2024-01-31T20:04:05	9.8	79
52147	2024-01-31T20:14:04	9.7	79.5
52148	2024-01-31T20:24:04	9.8	80
52149	2024-01-31T20:34:04	9.8	80
52150	2024-01-31T20:44:04	9.7	80.5
52151	2024-01-31T20:54:04	9.8	81
52152	2024-01-31T21:04:04	9.7	81
52153	2024-01-31T21:14:04	9.9	81
52154	2024-01-31T21:24:04	10	81
52155	2024-01-31T21:34:04	9.9	81
52156	2024-01-31T21:44:04	10	81
52157	2024-01-31T21:54:04	9.9	81
52158	2024-01-31T22:04:04	9.8	81.5
52159	2024-01-31T22:14:04	9.9	81.5
52160	2024-01-31T22:24:04	10	81.5
52161	2024-01-31T22:34:04	9.9	81.5
52162	2024-01-31T22:44:04	10.1	80.5
52163	2024-01-31T22:54:04	10.1	81
52164	2024-01-31T23:04:04	10	81.5
52165	2024-01-31T23:14:04	10	81.5
52166	2024-01-31T23:24:04	10	81.5
52167	2024-01-31T23:34:04	10	81.5
52168	2024-01-31T23:44:04	10	82
52169	2024-01-31T23:54:04	9.9	82
52170	2024-02-01T00:04:04	9.8	82
52171	2024-02-01T00:14:04	9.8	82.5
52172	2024-02-01T00:24:04	9.8	83
52173	2024-02-01T00:34:04	9.7	83
52174	2024-02-01T00:44:04	9.6	83
52175	2024-02-01T00:54:04	9.3	84
52176	2024-02-01T01:04:04	9.3	84.5
52177	2024-02-01T01:14:04	9.1	84.5
52178	2024-02-01T01:24:04	9.2	84
52179	2024-02-01T01:34:04	9.4	81
52180	2024-02-01T01:44:04	9.6	79
52181	2024-02-01T01:54:04	9.5	79
52182	2024-02-01T02:04:04	9.5	79.5
52183	2024-02-01T02:14:04	9.4	80
52184	2024-02-01T02:24:04	9.4	80.5
52185	2024-02-01T02:34:04	9.4	81
52186	2024-02-01T02:44:04	9.5	81
52187	2024-02-01T02:54:04	9.4	81.5
52188	2024-02-01T03:04:04	9.3	80.5
52189	2024-02-01T03:14:04	9.3	79.5
52190	2024-02-01T03:24:04	9.2	81
52191	2024-02-01T03:34:04	9.2	82
52192	2024-02-01T03:44:04	9.2	81.5
52193	2024-02-01T03:54:04	9.1	81.5
52194	2024-02-01T04:04:04	9.3	81.5
52195	2024-02-01T04:14:04	9.2	81.5
52196	2024-02-01T04:24:04	9.1	82
52197	2024-02-01T04:34:04	9.2	81.5
52198	2024-02-01T04:44:04	9	82
52199	2024-02-01T04:54:04	9.1	82.5
52200	2024-02-01T05:04:04	9	83
52201	2024-02-01T05:14:04	8.4	89.5
52202	2024-02-01T05:24:04	8.3	92
52203	2024-02-01T05:34:04	8.1	94.5
52204	2024-02-01T05:44:04	7.9	98
52205	2024-02-01T05:54:04	7.8	99
52206	2024-02-01T06:04:04	7.8	99.5
52207	2024-02-01T06:14:04	7.9	100
52208	2024-02-01T06:24:04	7.8	100
52209	2024-02-01T06:34:04	7.7	100
52210	2024-02-01T06:44:04	7.7	100
52211	2024-02-01T06:54:04	7.7	100
52212	2024-02-01T07:04:04	7.8	100
52213	2024-02-01T07:14:04	7.7	100
52214	2024-02-01T07:24:04	7.8	100
52215	2024-02-01T07:34:04	7.7	100
52216	2024-02-01T07:44:04	7.8	100
52217	2024-02-01T07:54:04	7.8	100
52218	2024-02-01T08:04:04	7.8	100
52219	2024-02-01T08:14:04	7.9	100
52220	2024-02-01T08:24:04	7.8	100
52221	2024-02-01T08:34:04	7.9	100
52222	2024-02-01T08:44:04	7.8	100
52223	2024-02-01T08:54:04	8	100
52224	2024-02-01T09:04:04	8.2	100
52225	2024-02-01T09:14:04	8.3	100
52226	2024-02-01T09:24:04	8.3	100
52227	2024-02-01T09:34:04	8.3	100
52228	2024-02-01T09:44:04	8.3	100
52229	2024-02-01T09:54:04	8.3	100
52230	2024-02-01T10:04:04	8.2	100
52231	2024-02-01T10:14:04	8.3	100
52232	2024-02-01T10:24:04	8.3	100
52233	2024-02-01T10:34:04	8.4	100
52234	2024-02-01T10:44:04	8.4	100
52235	2024-02-01T10:54:04	8.7	100
52236	2024-02-01T11:04:04	8.8	100
52237	2024-02-01T11:14:04	8.7	100
52238	2024-02-01T11:24:04	8.8	100
52239	2024-02-01T11:34:04	8.8	100
52240	2024-02-01T11:44:04	8.8	100
52241	2024-02-01T11:54:04	9	100
52242	2024-02-01T12:04:04	9	100
52243	2024-02-01T12:14:04	9.1	100
52244	2024-02-01T12:24:04	9.2	100
52245	2024-02-01T12:34:04	9.1	100
52246	2024-02-01T12:44:04	9.2	100
52247	2024-02-01T12:54:04	9.1	100
52248	2024-02-01T13:04:04	9.1	100
52249	2024-02-01T13:14:04	9.1	100
52250	2024-02-01T13:24:04	9.1	100
52251	2024-02-01T13:34:04	9.2	100
52252	2024-02-01T13:44:04	9.2	100
52253	2024-02-01T13:54:04	9.2	100
52254	2024-02-01T14:04:04	9.3	100
52255	2024-02-01T14:14:04	9.8	100
52256	2024-02-01T14:24:04	9.8	100
52257	2024-02-01T14:34:04	9.8	100
52258	2024-02-01T14:44:04	9.7	100
52259	2024-02-01T14:54:04	9.7	100
52260	2024-02-01T15:04:04	9.7	100
52261	2024-02-01T15:14:03	9.8	100
52262	2024-02-01T15:24:04	9.7	100
52263	2024-02-01T15:34:03	9.6	100
52264	2024-02-01T15:44:03	9.5	100
52265	2024-02-01T15:54:03	9.3	100
52266	2024-02-01T16:04:03	9.2	100
52267	2024-02-01T16:14:03	9	100
52268	2024-02-01T16:24:03	8.9	100
52269	2024-02-01T16:34:03	8.6	100
52270	2024-02-01T16:44:03	8.4	100
52271	2024-02-01T16:54:03	8.3	100
52272	2024-02-01T17:04:03	8.2	100
52273	2024-02-01T17:14:03	8.1	100
52274	2024-02-01T17:24:03	8.1	100
52275	2024-02-01T17:34:03	8.1	100
52276	2024-02-01T17:44:03	8.1	100
52277	2024-02-01T17:54:03	8	100
52278	2024-02-01T18:22:25	7.9	100
52279	2024-02-01T18:22:25	7.8	100
52280	2024-02-01T18:24:03	7.8	100
52281	2024-02-01T18:34:03	7.6	100
52282	2024-02-01T18:44:03	7.5	100
52283	2024-02-01T18:54:03	7.4	100
52284	2024-02-01T19:04:03	7.2	100
52285	2024-02-01T19:14:03	7.2	100
52286	2024-02-01T19:24:03	7.1	100
52287	2024-02-01T19:34:03	7.2	100
52288	2024-02-01T19:44:03	7.3	100
52289	2024-02-01T19:54:03	7.5	100
52290	2024-02-01T20:04:03	7.7	100
52291	2024-02-01T20:14:03	7.4	100
52292	2024-02-01T20:24:03	7.6	100
52293	2024-02-01T20:34:03	7.8	100
52294	2024-02-01T20:44:03	7.8	100
52295	2024-02-01T20:54:03	7.8	100
52296	2024-02-01T21:04:03	7.7	100
52297	2024-02-01T21:14:03	7.5	100
52298	2024-02-01T21:24:03	7.5	100
52299	2024-02-01T21:34:03	7.5	100
52300	2024-02-01T21:44:03	7.4	100
52301	2024-02-01T21:54:03	7.4	100
52302	2024-02-01T22:04:03	7.4	100
52303	2024-02-01T22:14:03	7.2	100
52304	2024-02-01T22:24:03	7.2	100
52305	2024-02-01T22:34:03	7.2	100
52306	2024-02-01T22:44:03	7	100
52307	2024-02-01T22:54:03	6.8	100
52308	2024-02-01T23:04:03	6.6	100
52309	2024-02-01T23:14:03	6.4	100
52310	2024-02-01T23:24:03	6.1	100
52311	2024-02-01T23:34:03	5.9	100
52312	2024-02-01T23:44:03	5.7	100
52313	2024-02-01T23:54:03	5.5	100
52314	2024-02-02T00:04:03	5.3	100
52315	2024-02-02T00:14:03	5.1	100
52316	2024-02-02T00:24:03	5.2	100
52317	2024-02-02T00:34:03	5	100
52318	2024-02-02T00:44:03	5.2	100
52319	2024-02-02T00:54:03	5.3	100
52320	2024-02-02T01:04:03	5.2	100
52321	2024-02-02T01:14:03	4.9	100
52322	2024-02-02T01:24:03	4.9	100
52323	2024-02-02T01:34:03	5	100
52324	2024-02-02T01:44:03	5	100
52325	2024-02-02T01:54:03	5.3	100
52326	2024-02-02T02:04:03	5.3	100
52327	2024-02-02T02:14:03	5.5	100
52328	2024-02-02T02:24:03	5.6	100
52329	2024-02-02T02:34:03	5.5	100
52330	2024-02-02T02:44:03	5.4	100
52331	2024-02-02T02:54:03	5.2	100
52332	2024-02-02T03:04:03	5.2	100
52333	2024-02-02T03:14:03	5.4	100
52334	2024-02-02T03:24:03	5.4	98.5
52335	2024-02-02T03:34:03	5.6	98.5
52336	2024-02-02T03:44:03	5.5	98
52337	2024-02-02T03:54:03	5.5	98
52338	2024-02-02T04:04:03	5.5	98
52339	2024-02-02T04:14:03	5.6	98
52340	2024-02-02T04:24:03	5.6	98
52341	2024-02-02T04:34:03	5.7	98
52342	2024-02-02T04:44:03	5.7	98
52343	2024-02-02T04:54:03	5.6	98
52344	2024-02-02T05:04:03	5.7	98
52345	2024-02-02T05:14:03	5.7	98
52346	2024-02-02T05:24:03	5.9	98
52347	2024-02-02T05:34:03	5.9	98
52348	2024-02-02T05:44:03	6.1	98
52349	2024-02-02T05:54:03	6	98
52350	2024-02-02T06:04:03	6	98
52351	2024-02-02T06:14:03	6.1	98
52352	2024-02-02T06:24:03	6.1	98
52353	2024-02-02T06:34:03	6.1	98
52354	2024-02-02T06:44:03	6.2	98
52355	2024-02-02T06:54:03	6.2	98
52356	2024-02-02T07:04:03	6.4	98
52357	2024-02-02T07:14:03	6.3	98
52358	2024-02-02T07:24:03	6.5	98
52359	2024-02-02T07:34:03	6.5	98
52360	2024-02-02T07:44:03	6.5	98
52361	2024-02-02T07:54:03	6.6	98
52362	2024-02-02T08:04:03	6.6	98.5
52363	2024-02-02T08:14:03	6.7	98
52364	2024-02-02T08:24:03	6.8	98
52365	2024-02-02T08:34:03	6.9	98.5
52366	2024-02-02T08:44:03	7	94
52367	2024-02-02T08:54:03	7.2	93
52368	2024-02-02T09:04:03	7.3	92.5
52369	2024-02-02T09:14:03	7.3	92
52370	2024-02-02T09:24:03	7.5	92
52371	2024-02-02T09:34:03	7.6	92
52372	2024-02-02T09:44:03	7.7	91.5
52373	2024-02-02T09:54:03	7.8	91
52374	2024-02-02T10:04:03	8	90
52375	2024-02-02T10:14:03	7.8	90.5
52376	2024-02-02T10:24:03	8.1	90
52377	2024-02-02T10:34:03	8.4	89
52378	2024-02-02T10:44:03	9	87
52379	2024-02-02T10:54:03	9.3	85
52380	2024-02-02T11:04:03	9.6	84
52381	2024-02-02T11:14:03	9.7	83
52382	2024-02-02T11:24:03	10.1	81
52383	2024-02-02T11:34:03	10.2	80.5
52384	2024-02-02T11:44:03	10.5	78
52385	2024-02-02T11:54:03	10.8	76
52386	2024-02-02T12:04:03	10.8	75.5
52387	2024-02-02T12:14:03	10.8	75
52388	2024-02-02T12:24:03	11.1	75
52389	2024-02-02T12:34:03	11.3	72
52390	2024-02-02T12:44:03	11.3	71.5
52391	2024-02-02T12:54:03	11.5	70.5
52392	2024-02-02T13:04:03	11.6	70
52393	2024-02-02T13:14:03	11.9	70
52394	2024-02-02T13:24:03	12.3	69
52395	2024-02-02T13:34:03	12.5	68
52396	2024-02-02T13:44:03	12.3	68
52397	2024-02-02T13:54:02	13.1	65.5
52398	2024-02-02T14:04:02	12.8	66
52399	2024-02-02T14:14:02	12.8	66.5
52400	2024-02-02T14:24:02	12.7	66.5
52401	2024-02-02T14:34:02	12.5	67.5
52402	2024-02-02T14:44:02	12.5	68
52403	2024-02-02T14:54:02	12.4	68
52404	2024-02-02T15:04:02	12.1	69.5
52405	2024-02-02T15:14:02	11.9	71
52406	2024-02-02T15:24:02	11.8	71.5
52407	2024-02-02T15:34:02	11.5	73.5
52408	2024-02-02T15:44:02	11.2	73.5
52409	2024-02-02T15:54:02	11	74
52410	2024-02-02T16:04:02	10.9	74.5
52411	2024-02-02T16:14:02	10.6	76
52412	2024-02-02T16:24:02	10.4	77
52413	2024-02-02T16:34:02	10.3	77.5
52414	2024-02-02T16:44:02	10.1	78
52415	2024-02-02T16:54:02	10.1	78
52416	2024-02-02T17:04:02	10.1	78
52417	2024-02-02T17:14:02	10	77.5
52418	2024-02-02T17:24:02	9.8	78
52419	2024-02-02T17:34:02	9.8	78
52420	2024-02-02T17:44:02	9.8	77.5
52421	2024-02-02T17:54:02	9.7	78
52422	2024-02-02T18:04:02	9.6	78
52423	2024-02-02T18:14:02	9.5	78
52424	2024-02-02T18:24:02	9.5	77.5
52425	2024-02-02T18:34:02	9.6	77
52426	2024-02-02T18:44:02	9.4	78
52427	2024-02-02T18:54:03	9.4	77.5
52428	2024-02-02T19:04:02	9.4	77
52429	2024-02-02T19:14:02	9.3	77
52430	2024-02-02T19:24:02	9.3	76
52431	2024-02-02T19:34:02	9.2	76
52432	2024-02-02T19:44:02	9.2	76
52433	2024-02-02T19:54:02	9.1	76.5
52434	2024-02-02T20:04:02	9	77
52435	2024-02-02T20:14:02	8.9	76.5
52436	2024-02-02T20:24:02	8.8	76
52437	2024-02-02T20:34:02	8.9	75.5
52438	2024-02-02T20:44:02	8.9	75.5
52439	2024-02-02T20:54:02	8.8	76
52440	2024-02-02T21:04:02	8.8	76.5
52441	2024-02-02T21:14:02	8.8	76.5
52442	2024-02-02T21:24:02	8.8	76.5
52443	2024-02-02T21:34:02	8.7	76.5
52444	2024-02-02T21:44:02	8.7	76.5
52445	2024-02-02T21:54:02	8.6	77
52446	2024-02-02T22:04:02	8.6	77
52447	2024-02-02T22:14:02	8.9	76.5
52448	2024-02-02T22:24:02	9.1	76
52449	2024-02-02T22:34:02	9	75.5
52450	2024-02-02T22:44:02	9.2	75
52451	2024-02-02T22:54:03	9.3	74
52452	2024-02-02T23:14:02	9.3	76.5
52453	2024-02-02T23:24:02	9.3	77
52454	2024-02-02T23:34:02	9.2	76.5
52455	2024-02-02T23:44:02	9.1	76.5
52456	2024-02-02T23:54:02	9	77.5
52457	2024-02-03T00:04:02	9.1	77.5
52458	2024-02-03T00:14:02	9	78
52459	2024-02-03T00:24:02	8.9	78.5
52460	2024-02-03T00:34:03	8.8	78.5
52461	2024-02-03T00:54:02	8.8	79
52462	2024-02-03T01:04:02	8.9	79.5
52463	2024-02-03T01:14:02	8.8	80
52464	2024-02-03T01:24:02	8.8	80.5
52465	2024-02-03T01:34:02	8.6	80.5
52466	2024-02-03T01:44:02	8.7	80
52467	2024-02-03T01:54:02	8.6	80
52468	2024-02-03T02:04:02	8.5	81
52469	2024-02-03T02:14:02	8.6	81
52470	2024-02-03T02:24:02	8.5	80.5
52471	2024-02-03T02:34:02	8.4	80.5
52472	2024-02-03T02:44:02	8.5	80.5
52473	2024-02-03T02:54:02	8.4	80
52474	2024-02-03T03:04:02	8.3	80
52475	2024-02-03T03:14:02	8.2	80.5
52476	2024-02-03T03:24:02	8.3	82
52477	2024-02-03T03:34:02	8.3	82.5
52478	2024-02-03T03:44:02	8.3	83.5
52479	2024-02-03T03:54:02	8.2	84
52480	2024-02-03T04:04:02	8.2	84.5
52481	2024-02-03T04:14:02	8.2	85.5
52482	2024-02-03T04:24:02	8.2	85.5
52483	2024-02-03T04:34:02	8.2	86
52484	2024-02-03T04:44:02	8.1	86.5
52485	2024-02-03T04:54:02	8.1	87
52486	2024-02-03T05:04:02	8	86.5
52487	2024-02-03T05:14:02	8.2	86.5
52488	2024-02-03T05:24:02	8	87
52489	2024-02-03T05:34:02	8.1	87
52490	2024-02-03T05:44:02	8	87
52491	2024-02-03T05:54:02	8	87
52492	2024-02-03T06:04:02	7.9	87.5
52493	2024-02-03T06:14:02	7.9	87.5
52494	2024-02-03T06:24:02	7.9	88
52495	2024-02-03T06:34:02	7.8	88
52496	2024-02-03T06:44:02	7.8	87.5
52497	2024-02-03T06:54:02	7.7	87.5
52498	2024-02-03T07:04:02	7.7	87.5
52499	2024-02-03T07:14:02	7.7	87.5
52500	2024-02-03T07:24:02	7.7	87.5
52501	2024-02-03T07:34:02	7.7	87.5
52502	2024-02-03T07:44:02	7.8	87.5
52503	2024-02-03T07:54:02	7.6	88
52504	2024-02-03T08:07:57	7.3	90
52505	2024-02-03T08:14:01	7.4	89
52506	2024-02-03T08:24:02	7.5	88
52507	2024-02-03T08:34:01	7.4	88
52508	2024-02-03T08:44:01	7.5	88.5
52509	2024-02-03T08:54:01	7.5	87.5
52510	2024-02-03T09:04:01	7.9	86
52511	2024-02-03T09:14:01	8	85.5
52512	2024-02-03T09:24:01	8.2	84.5
52513	2024-02-03T09:34:01	8.2	84
52514	2024-02-03T09:44:01	8.4	83.5
52515	2024-02-03T09:54:01	8.6	82.5
52516	2024-02-03T10:04:01	8.7	82
52517	2024-02-03T10:14:01	9	80.5
52518	2024-02-03T10:24:01	9.2	79.5
52519	2024-02-03T10:34:01	9.3	79
52520	2024-02-03T10:44:01	9.5	78.5
52521	2024-02-03T10:54:01	9.8	76.5
52522	2024-02-03T11:04:01	9.9	76.5
52523	2024-02-03T11:14:01	9.8	76.5
52524	2024-02-03T11:24:01	9.7	77
52525	2024-02-03T11:34:01	9.8	77
52526	2024-02-03T11:44:01	9.9	76
52527	2024-02-03T11:54:01	9.8	76.5
52528	2024-02-03T12:04:01	9.8	77
52529	2024-02-03T12:14:01	9.7	77
52530	2024-02-03T12:24:01	9.8	77.5
52531	2024-02-03T12:34:01	9.8	77
52532	2024-02-03T12:44:01	9.7	77
52533	2024-02-03T12:54:01	9.7	77
52534	2024-02-03T13:04:01	9.7	77
52535	2024-02-03T13:14:01	9.7	77.5
52536	2024-02-03T13:24:01	9.8	77.5
52537	2024-02-03T13:34:01	9.8	78
52538	2024-02-03T13:44:01	9.9	78
52539	2024-02-03T13:54:01	10	77.5
52540	2024-02-03T14:04:01	9.9	78
52541	2024-02-03T14:14:01	9.8	78
52542	2024-02-03T14:24:01	9.9	78
52543	2024-02-03T14:34:01	9.8	78.5
52544	2024-02-03T14:44:01	9.9	79
52545	2024-02-03T14:54:01	9.9	79
52546	2024-02-03T15:04:01	9.8	79
52547	2024-02-03T15:14:01	9.9	79
52548	2024-02-03T15:24:01	9.9	79.5
52549	2024-02-03T15:34:01	9.8	79
52550	2024-02-03T15:44:01	9.9	79
52551	2024-02-03T15:54:01	9.8	79.5
52552	2024-02-03T16:04:01	9.7	80
52553	2024-02-03T16:14:01	9.6	80
52554	2024-02-03T16:34:01	9.6	79.5
52555	2024-02-03T16:44:01	9.6	79
52556	2024-02-03T16:54:01	9.5	79.5
52557	2024-02-03T17:04:01	9.5	80
52558	2024-02-03T17:14:01	9.4	80
52559	2024-02-03T17:24:01	9.4	80
52560	2024-02-03T17:34:01	9.4	80
52561	2024-02-03T17:44:01	9.5	80
52562	2024-02-03T17:54:01	9.4	79.5
52563	2024-02-03T18:04:01	9.5	79.5
52564	2024-02-03T18:14:01	9.5	79
52565	2024-02-03T18:24:01	9.5	79
52566	2024-02-03T18:34:01	9.6	79
52567	2024-02-03T18:44:01	9.5	78.5
52568	2024-02-03T18:54:01	9.6	78
52569	2024-02-03T19:04:01	9.6	77.5
52570	2024-02-03T19:14:01	9.7	77
52571	2024-02-03T19:24:01	9.6	77
52572	2024-02-03T19:34:01	9.7	76.5
52573	2024-02-03T19:44:01	9.7	76.5
52574	2024-02-03T19:54:01	9.6	76.5
52575	2024-02-03T20:04:01	9.6	76.5
52576	2024-02-03T20:14:01	9.6	77
52577	2024-02-03T20:24:01	9.6	76.5
52578	2024-02-03T20:34:01	9.6	77
52579	2024-02-03T20:44:01	9.6	76.5
52580	2024-02-03T20:54:01	9.6	77
52581	2024-02-03T21:04:01	9.6	77
52582	2024-02-03T21:14:01	9.5	77.5
52583	2024-02-03T21:24:01	9.4	77.5
52584	2024-02-03T21:34:01	9.4	78
52585	2024-02-03T21:44:01	9.4	78
52586	2024-02-03T21:54:01	9.4	78.5
52587	2024-02-03T22:04:01	9.3	78.5
52588	2024-02-03T22:14:01	9.3	79
52589	2024-02-03T22:24:01	9.1	79.5
52590	2024-02-03T22:34:01	9.1	79.5
52591	2024-02-03T22:44:01	8.9	80
52592	2024-02-03T22:54:01	8.9	80.5
52593	2024-02-03T23:04:01	8.8	80.5
52594	2024-02-03T23:14:01	8.7	81
52595	2024-02-03T23:24:01	8.7	81
52596	2024-02-03T23:34:01	8.6	81
52597	2024-02-03T23:44:01	8.6	81.5
52598	2024-02-03T23:54:01	8.5	81.5
52599	2024-02-04T00:21:17	8.6	81
52600	2024-02-04T00:21:17	8.6	81
52601	2024-02-04T00:24:01	8.7	80.5
52602	2024-02-04T00:34:01	8.8	80.5
52603	2024-02-04T00:44:01	8.9	79.5
52604	2024-02-04T00:54:01	8.8	79.5
52605	2024-02-04T01:04:01	8.8	79
52606	2024-02-04T01:14:01	8.8	79
52607	2024-02-04T01:24:01	8.8	79
52608	2024-02-04T01:34:01	8.9	79
52609	2024-02-04T01:44:01	8.9	78.5
52610	2024-02-04T01:54:01	8.8	79
52611	2024-02-04T02:04:01	8.7	79
52612	2024-02-04T02:14:01	8.7	79
52613	2024-02-04T02:24:01	8.7	79
52614	2024-02-04T02:34:00	8.7	79
52615	2024-02-04T02:44:01	8.8	79
52616	2024-02-04T02:54:01	8.8	79
52617	2024-02-04T03:04:00	8.7	79
52618	2024-02-04T03:14:00	8.6	79
52619	2024-02-04T03:24:00	8.6	79.5
52620	2024-02-04T03:34:00	8.6	79.5
52621	2024-02-04T03:44:00	8.6	79
52622	2024-02-04T03:54:00	8.6	79
52623	2024-02-04T04:04:00	8.6	78.5
52624	2024-02-04T04:14:00	8.6	78.5
52625	2024-02-04T04:24:01	8.7	78.5
52626	2024-02-04T04:34:00	8.5	79
52627	2024-02-04T04:44:00	8.5	79
52628	2024-02-04T04:54:00	8.5	79.5
52629	2024-02-04T05:04:00	8.4	79.5
52630	2024-02-04T05:14:00	8.4	79.5
52631	2024-02-04T05:24:00	8.2	80
52632	2024-02-04T05:34:00	8.2	80
52633	2024-02-04T05:44:00	8.2	80.5
52634	2024-02-04T05:54:00	8.2	80
52635	2024-02-04T06:04:00	8.2	80.5
52636	2024-02-04T06:14:00	8.2	80.5
52637	2024-02-04T06:24:00	8.1	80.5
52638	2024-02-04T06:34:00	8	81
52639	2024-02-04T06:44:00	8.1	81
52640	2024-02-04T06:54:00	8	81
52641	2024-02-04T07:04:00	8	81.5
52642	2024-02-04T07:14:00	8	81.5
52643	2024-02-04T07:24:00	8	81.5
52644	2024-02-04T07:34:17	8.3	80.5
52645	2024-02-04T07:44:00	8.4	80
52646	2024-02-04T07:54:00	8.6	79.5
52647	2024-02-04T08:04:00	8.4	80
52648	2024-02-04T08:14:00	8.3	80.5
52649	2024-02-04T08:24:00	8.3	80
52650	2024-02-04T08:34:00	8.6	79.5
52651	2024-02-04T08:44:00	8.6	78.5
52652	2024-02-04T08:54:00	8.9	77.5
52653	2024-02-04T09:04:00	9.1	77
52654	2024-02-04T09:14:00	9.2	76.5
52655	2024-02-04T09:24:00	9.2	76.5
52656	2024-02-04T09:34:00	9.3	76.5
52657	2024-02-04T09:44:00	9.3	76.5
52658	2024-02-04T09:54:00	9.3	76
52659	2024-02-04T10:04:00	9.5	76
52660	2024-02-04T10:14:00	9.5	76
52661	2024-02-04T10:24:00	9.4	76.5
52662	2024-02-04T10:34:00	9.3	76
52663	2024-02-04T10:44:00	9.5	76
52664	2024-02-04T10:54:00	9.5	75.5
52665	2024-02-04T11:04:00	9.6	75
52666	2024-02-04T11:14:00	9.7	75.5
52667	2024-02-04T11:24:00	9.6	75.5
52668	2024-02-04T11:34:00	9.7	75.5
52669	2024-02-04T11:44:00	9.8	76
52670	2024-02-04T11:54:00	9.8	76
52671	2024-02-04T12:04:00	9.9	76
52672	2024-02-04T12:14:00	9.9	76.5
52673	2024-02-04T12:24:00	9.9	76.5
52674	2024-02-04T12:34:00	9.8	77
52675	2024-02-04T12:44:00	9.9	77
52676	2024-02-04T12:54:00	9.8	77.5
52677	2024-02-04T13:04:00	9.8	78
52678	2024-02-04T13:14:00	9.8	77.5
52679	2024-02-04T13:24:00	9.9	78
52680	2024-02-04T13:34:00	9.9	78
52681	2024-02-04T13:44:00	10	78
52682	2024-02-04T13:54:00	10.1	78
52683	2024-02-04T14:04:00	10	78.5
52684	2024-02-04T14:14:00	10.1	79
52685	2024-02-04T14:24:00	10	79.5
52686	2024-02-04T14:34:00	10	79
52687	2024-02-04T14:44:00	10.1	79
52688	2024-02-04T14:54:00	10.1	79
52689	2024-02-04T15:04:00	10	78.5
52690	2024-02-04T15:14:00	10	78.5
52691	2024-02-04T15:24:00	9.9	78.5
52692	2024-02-04T15:34:00	9.9	79
52693	2024-02-04T15:44:00	9.9	79
52694	2024-02-04T15:54:00	9.9	79.5
52695	2024-02-04T16:04:00	9.9	79.5
52696	2024-02-04T16:14:00	9.9	80
52697	2024-02-04T16:24:00	9.8	80
52698	2024-02-04T16:34:00	9.8	80
52699	2024-02-04T16:44:00	9.8	80
52700	2024-02-04T16:54:00	9.7	80
52701	2024-02-04T17:04:00	9.8	80
52702	2024-02-04T17:14:00	9.8	80
52703	2024-02-04T17:24:00	9.7	80
52704	2024-02-04T17:34:00	9.8	80
52705	2024-02-04T17:44:00	9.7	80
52706	2024-02-04T17:54:00	9.7	80
52707	2024-02-04T18:04:00	9.6	80
52708	2024-02-04T18:14:00	9.7	80.5
52709	2024-02-04T18:24:00	9.6	80.5
52710	2024-02-04T18:34:00	9.4	81
52711	2024-02-04T18:44:00	9.5	80.5
52712	2024-02-04T18:54:00	9.4	81
52713	2024-02-04T19:04:00	9.3	80.5
52714	2024-02-04T19:14:00	9.2	81
52715	2024-02-04T19:24:00	9.2	81
52716	2024-02-04T19:34:00	9.1	81
52717	2024-02-04T19:44:00	9	81
52718	2024-02-04T19:54:00	9.1	81
52719	2024-02-04T20:04:00	9.1	80
52720	2024-02-04T20:14:00	9.2	80.5
52721	2024-02-04T20:24:00	9.2	80
52722	2024-02-04T20:34:00	9.2	80
52723	2024-02-04T20:44:00	9.1	80
52724	2024-02-04T20:54:00	9.1	80
52725	2024-02-04T21:03:59	9.1	80
52726	2024-02-04T21:13:59	9.1	80
52727	2024-02-04T21:23:59	9	80
52728	2024-02-04T21:33:59	9.1	80
52729	2024-02-04T21:43:59	8.9	80
52730	2024-02-04T21:53:59	9	80
52731	2024-02-04T22:03:59	8.9	80
52732	2024-02-04T22:13:59	8.9	80
52733	2024-02-04T22:23:59	8.7	80
52734	2024-02-04T22:33:59	8.8	80
52735	2024-02-04T22:43:59	8.8	80
52736	2024-02-04T22:53:59	8.7	80.5
52737	2024-02-04T23:03:59	8.7	81
52738	2024-02-04T23:13:59	8.5	81
52739	2024-02-04T23:23:59	8.4	81.5
52740	2024-02-04T23:33:59	8.2	81.5
52741	2024-02-04T23:43:59	8.2	82
52742	2024-02-04T23:53:59	8	82.5
52743	2024-02-05T00:22:45	8.1	82
52744	2024-02-05T00:22:45	8.2	82.5
52745	2024-02-05T00:24:02	8.1	82.5
52746	2024-02-05T00:33:59	8	83
52747	2024-02-05T00:43:59	7.9	84
52748	2024-02-05T00:53:59	7.9	85
52749	2024-02-05T01:03:59	7.7	85
52750	2024-02-05T01:13:59	7.7	84.5
52751	2024-02-05T01:23:59	7.7	84.5
52752	2024-02-05T01:33:59	7.7	84.5
52753	2024-02-05T01:43:59	7.8	84.5
52754	2024-02-05T01:53:59	7.9	84
52755	2024-02-05T02:03:59	7.8	84
52756	2024-02-05T02:13:59	8	83.5
52757	2024-02-05T02:23:59	7.9	83.5
52758	2024-02-05T02:33:59	8	83
52759	2024-02-05T02:43:59	8	82.5
52760	2024-02-05T02:53:59	8.1	82.5
52761	2024-02-05T03:03:59	8.2	81.5
52762	2024-02-05T03:13:59	8.3	81.5
52763	2024-02-05T03:23:59	8.2	81.5
52764	2024-02-05T03:33:59	8.3	81
52765	2024-02-05T03:43:59	8.2	82
52766	2024-02-05T03:53:59	8	82.5
52767	2024-02-05T04:03:59	8.2	82.5
52768	2024-02-05T04:13:59	8.1	82.5
52769	2024-02-05T04:23:59	8.1	82.5
52770	2024-02-05T04:33:59	8.2	83
52771	2024-02-05T04:43:59	8.2	82.5
52772	2024-02-05T04:53:59	8.3	82.5
52773	2024-02-05T05:03:59	8.4	82
52774	2024-02-05T05:13:59	8.5	81.5
52775	2024-02-05T05:23:59	8.5	81
52776	2024-02-05T05:33:59	8.5	81
52777	2024-02-05T05:43:59	8.6	80.5
52778	2024-02-05T05:53:59	8.6	80
52779	2024-02-05T06:03:59	8.8	79.5
52780	2024-02-05T06:13:59	8.8	79
52781	2024-02-05T06:23:59	9	78.5
52782	2024-02-05T06:33:59	8.9	78.5
52783	2024-02-05T06:43:59	9.1	77.5
52784	2024-02-05T06:53:59	9.3	77.5
52785	2024-02-05T07:03:59	9.2	77
52786	2024-02-05T07:13:59	9.2	76.5
52787	2024-02-05T07:23:59	9.3	76.5
52788	2024-02-05T07:33:59	9.4	76
52789	2024-02-05T07:43:59	9.5	75.5
52790	2024-02-05T07:53:59	9.6	75.5
52791	2024-02-05T08:03:59	9.6	75
52792	2024-02-05T08:13:59	9.6	75
52793	2024-02-05T08:23:59	9.8	74.5
52794	2024-02-05T08:33:59	9.8	73.5
52795	2024-02-05T08:43:59	9.7	73.5
52796	2024-02-05T08:53:59	9.9	73.5
52797	2024-02-05T09:03:59	10	73
52798	2024-02-05T09:13:59	10.1	73
52799	2024-02-05T09:23:59	10	72.5
52800	2024-02-05T09:33:59	10.2	72.5
52801	2024-02-05T09:43:59	10.3	72
52802	2024-02-05T09:53:59	10.4	71.5
52803	2024-02-05T10:03:59	10.4	71.5
52804	2024-02-05T10:13:59	10.4	71.5
52805	2024-02-05T10:23:59	10.5	72
52806	2024-02-05T10:33:59	10.5	71
52807	2024-02-05T10:43:59	10.7	71
52808	2024-02-05T10:53:59	10.8	70.5
52809	2024-02-05T11:03:59	10.7	70.5
52810	2024-02-05T11:13:59	10.7	70.5
52811	2024-02-05T11:23:59	10.8	70.5
52812	2024-02-05T11:33:59	10.7	70
52813	2024-02-05T11:43:59	10.7	70
52814	2024-02-05T11:53:59	11	69.5
52815	2024-02-05T12:03:59	10.9	69.5
52816	2024-02-05T12:13:59	11.1	68
52817	2024-02-05T12:23:59	11.5	67.5
52818	2024-02-05T12:33:59	12.1	66
52819	2024-02-05T12:43:59	12.3	64.5
52820	2024-02-05T12:53:59	11.6	66.5
52821	2024-02-05T13:03:59	11.8	66.5
52822	2024-02-05T13:13:59	12.3	64.5
52823	2024-02-05T13:23:59	13.7	60.5
52824	2024-02-05T13:33:59	14	59
52825	2024-02-05T13:43:59	14.4	58
52826	2024-02-05T13:53:59	14.5	56.5
52827	2024-02-05T14:03:59	14.5	58.5
52828	2024-02-05T14:13:59	14.6	57
52829	2024-02-05T14:23:59	14.5	57
52830	2024-02-05T14:33:59	14.3	57.5
52831	2024-02-05T14:43:59	14.7	57
52832	2024-02-05T14:53:58	14.9	56
52833	2024-02-05T15:03:59	14.4	57.5
52834	2024-02-05T15:13:58	14.2	58.5
52835	2024-02-05T15:23:58	13.9	59.5
52836	2024-02-05T15:33:58	12.9	62.5
52837	2024-02-05T15:43:58	12.4	64.5
52838	2024-02-05T15:53:58	12.3	65.5
52839	2024-02-05T16:03:58	11.9	66.5
52840	2024-02-05T16:13:58	11.3	69
52841	2024-02-05T16:23:58	10.7	72
52842	2024-02-05T16:33:58	10	74
52843	2024-02-05T16:43:58	9.7	75
52844	2024-02-05T16:53:58	9.4	76.5
52845	2024-02-05T17:03:58	9.1	77.5
52846	2024-02-05T17:13:58	8.8	78.5
52847	2024-02-05T17:23:58	8.6	79.5
52848	2024-02-05T17:33:58	8.3	80
52849	2024-02-05T17:43:58	8.2	80.5
52850	2024-02-05T17:53:58	7.8	81.5
52851	2024-02-05T18:03:58	7.6	82.5
52852	2024-02-05T18:13:58	7.4	83.5
52853	2024-02-05T18:23:58	7.3	84
52854	2024-02-05T18:33:58	7.1	84.5
52855	2024-02-05T18:43:58	7	85
52856	2024-02-05T18:53:58	6.7	85.5
52857	2024-02-05T19:03:58	6.6	86
52858	2024-02-05T19:13:58	6.4	86.5
52859	2024-02-05T19:23:58	6.4	87
52860	2024-02-05T19:33:58	6.3	87
52861	2024-02-05T19:43:58	6.2	87.5
52862	2024-02-05T19:53:58	6.1	88
52863	2024-02-05T20:03:58	5.9	88
52864	2024-02-05T20:13:58	5.9	88.5
52865	2024-02-05T20:23:58	5.8	89
52866	2024-02-05T20:33:58	5.7	89
52867	2024-02-05T20:43:58	5.6	89
52868	2024-02-05T20:53:58	5.8	89
52869	2024-02-05T21:03:58	5.8	89
52870	2024-02-05T21:13:58	5.8	88.5
52871	2024-02-05T21:23:58	6	88
52872	2024-02-05T21:33:58	6.1	88
52873	2024-02-05T21:43:58	6.1	87.5
52874	2024-02-05T21:53:58	6	87.5
52875	2024-02-05T22:03:58	6.2	87
52876	2024-02-05T22:13:58	6.1	86.5
52877	2024-02-05T22:23:58	6.2	86.5
52878	2024-02-05T22:33:58	6.2	86
52879	2024-02-05T22:43:58	6.2	85.5
52880	2024-02-05T22:53:58	6.2	85
52881	2024-02-05T23:03:58	6.1	85
52882	2024-02-05T23:13:58	6.2	85
52883	2024-02-05T23:23:58	6.2	84.5
52884	2024-02-05T23:33:58	6.2	84
52885	2024-02-05T23:43:58	6.1	84
52886	2024-02-05T23:53:58	6.1	84
52887	2024-02-06T00:22:33	6.1	84
52888	2024-02-06T00:22:33	6.1	83.5
52889	2024-02-06T00:23:58	6.1	83.5
52890	2024-02-06T00:33:58	6.2	83.5
52891	2024-02-06T00:43:58	6	83.5
52892	2024-02-06T00:53:58	6.2	83.5
52893	2024-02-06T01:03:58	6.1	83
52894	2024-02-06T01:13:58	6.2	83
52895	2024-02-06T01:23:58	6.2	83
52896	2024-02-06T01:33:58	6.2	82.5
52897	2024-02-06T01:43:58	6.3	83
52898	2024-02-06T01:53:58	6.3	83.5
52899	2024-02-06T02:03:58	6.1	83
52900	2024-02-06T02:13:58	6.1	83
52901	2024-02-06T02:23:58	6.2	83
52902	2024-02-06T02:33:58	6.1	83
52903	2024-02-06T02:43:58	6.2	82.5
52904	2024-02-06T02:53:58	6.2	82.5
52905	2024-02-06T03:03:58	6.1	83
52906	2024-02-06T03:13:58	6	84
52907	2024-02-06T03:23:58	6	84.5
52908	2024-02-06T03:33:58	5.8	84.5
52909	2024-02-06T03:43:58	6	84.5
52910	2024-02-06T03:53:58	6	84
52911	2024-02-06T04:03:58	5.8	83.5
52912	2024-02-06T04:13:58	5.9	83.5
52913	2024-02-06T04:23:58	5.8	83
52914	2024-02-06T04:33:58	5.9	82.5
52915	2024-02-06T04:43:58	6	82
52916	2024-02-06T04:53:58	6	81.5
52917	2024-02-06T05:03:58	6	82
52918	2024-02-06T05:13:58	6	81.5
52919	2024-02-06T05:23:58	6	81.5
52920	2024-02-06T05:33:58	6.2	81
52921	2024-02-06T05:43:58	6.1	80
52922	2024-02-06T05:53:58	6.3	79.5
52923	2024-02-06T06:03:58	6.4	79
52924	2024-02-06T06:13:58	6.5	79
52925	2024-02-06T06:23:58	6.6	79
52926	2024-02-06T06:33:58	6.7	79
52927	2024-02-06T06:43:58	6.8	79
52928	2024-02-06T06:53:58	6.8	78.5
52929	2024-02-06T07:03:58	6.9	77.5
52930	2024-02-06T07:23:58	7.2	76.5
52931	2024-02-06T07:33:58	7.3	76.5
52932	2024-02-06T07:43:58	7.5	76
52933	2024-02-06T07:53:58	7.7	75.5
52934	2024-02-06T08:03:58	7.8	75
52935	2024-02-06T08:13:58	7.9	75
52936	2024-02-06T08:23:58	8	74.5
52937	2024-02-06T08:33:58	8.2	74
52938	2024-02-06T08:43:58	8.2	73.5
52939	2024-02-06T08:53:58	8.3	73
52940	2024-02-06T09:03:58	8.4	73
52941	2024-02-06T09:13:58	8.4	73
52942	2024-02-06T09:23:58	8.5	72.5
52943	2024-02-06T09:33:58	8.6	72
52944	2024-02-06T09:43:58	8.7	71.5
52945	2024-02-06T09:53:58	8.8	71
52946	2024-02-06T10:03:58	8.9	71
52947	2024-02-06T10:13:58	9	70
52948	2024-02-06T10:23:58	9	70
52949	2024-02-06T10:33:58	9.1	69.5
52950	2024-02-06T10:43:58	9.4	69.5
52951	2024-02-06T10:53:58	9.6	69
52952	2024-02-06T11:03:58	9.6	68.5
52953	2024-02-06T11:13:58	9.6	68
52954	2024-02-06T11:23:58	9.7	68
52955	2024-02-06T11:33:58	9.6	67.5
52956	2024-02-06T11:43:58	9.7	67.5
52957	2024-02-06T11:53:58	9.9	67
52958	2024-02-06T12:03:58	10	66.5
52959	2024-02-06T12:13:58	10.1	65.5
52960	2024-02-06T12:23:58	10.3	65
52961	2024-02-06T12:33:58	10.4	65
52962	2024-02-06T12:43:57	10.6	64
52963	2024-02-06T12:53:57	10.7	64
52964	2024-02-06T13:03:57	10.7	63
52965	2024-02-06T13:13:57	10.8	63
52966	2024-02-06T13:23:57	11	63
52967	2024-02-06T13:33:57	10.9	63.5
52968	2024-02-06T13:43:57	11	62.5
52969	2024-02-06T13:54:17	11.2	63
52970	2024-02-06T14:03:57	11.2	62
52971	2024-02-06T14:13:57	10.8	63
52972	2024-02-06T14:23:57	11.1	62.5
52973	2024-02-06T14:33:57	12.1	59.5
52974	2024-02-06T14:43:57	11.4	61.5
52975	2024-02-06T14:53:57	10.6	64.5
52976	2024-02-06T15:03:57	10.7	64.5
52977	2024-02-06T15:13:57	10.5	65.5
52978	2024-02-06T15:23:57	11.3	63
52979	2024-02-06T15:33:57	11.3	63
52980	2024-02-06T15:43:57	10.9	64
52981	2024-02-06T15:53:57	10.4	65.5
52982	2024-02-06T16:03:57	10.1	66.5
52983	2024-02-06T16:13:57	9.9	67.5
52984	2024-02-06T16:23:57	9.7	68
52985	2024-02-06T16:33:57	9.5	68.5
52986	2024-02-06T16:43:57	9.4	69
52987	2024-02-06T16:53:57	9.4	69.5
52988	2024-02-06T17:03:57	9.3	70
52989	2024-02-06T17:13:57	9.2	70
52990	2024-02-06T17:23:57	9.3	70.5
52991	2024-02-06T17:33:57	9.1	71
52992	2024-02-06T17:43:57	9.2	70.5
52993	2024-02-06T17:53:57	9.3	70.5
52994	2024-02-06T18:03:57	9.3	70.5
52995	2024-02-06T18:13:57	9.3	70.5
52996	2024-02-06T18:23:57	9.3	71
52997	2024-02-06T18:33:57	9.3	71
52998	2024-02-06T18:43:57	9.3	71.5
52999	2024-02-06T18:53:57	9.2	71.5
53000	2024-02-06T19:03:57	9.2	71.5
53001	2024-02-06T19:13:57	9.1	72
53002	2024-02-06T19:23:57	9.2	72.5
53003	2024-02-06T19:33:57	9.1	72.5
53004	2024-02-06T19:43:57	9	72.5
53005	2024-02-06T19:53:57	9.1	73
53006	2024-02-06T20:03:57	9	73
53007	2024-02-06T20:13:57	9	72.5
53008	2024-02-06T20:23:57	9	72
53009	2024-02-06T20:33:57	9.1	71.5
53010	2024-02-06T20:43:57	9.1	71
53011	2024-02-06T20:53:57	9.2	71
53012	2024-02-06T21:03:57	9.2	71
53013	2024-02-06T21:13:57	9.1	71
53014	2024-02-06T21:24:17	9.2	71
53015	2024-02-06T21:33:57	9.2	70.5
53016	2024-02-06T21:43:57	9.3	70.5
53017	2024-02-06T21:53:57	9.3	70
53018	2024-02-06T22:03:57	9.3	70.5
53019	2024-02-06T22:13:57	9.3	70.5
53020	2024-02-06T22:23:57	9.3	70.5
53021	2024-02-06T22:33:57	9.3	71
53022	2024-02-06T22:43:57	9.2	73
53023	2024-02-06T22:53:57	8.3	82.5
53024	2024-02-06T23:03:57	7.8	86.5
53025	2024-02-06T23:13:57	7.6	88.5
53026	2024-02-06T23:23:57	7.7	84
53027	2024-02-06T23:33:57	8	81.5
53028	2024-02-06T23:43:57	8.4	79.5
53029	2024-02-06T23:53:57	8.8	77
53030	2024-02-07T00:23:08	8.9	76
53031	2024-02-07T00:23:08	9.1	75
53032	2024-02-07T00:23:59	9	78.5
53033	2024-02-07T00:33:57	8.2	85
53034	2024-02-07T00:43:57	8	83.5
53035	2024-02-07T01:03:57	8.5	79.5
53036	2024-02-07T01:13:57	8.9	77
53037	2024-02-07T01:23:57	9.2	75.5
53038	2024-02-07T01:33:57	9.2	74.5
53039	2024-02-07T01:43:57	9.3	75
53040	2024-02-07T01:53:57	9	78.5
53041	2024-02-07T02:03:57	8.9	78
53042	2024-02-07T02:13:57	9.2	76.5
53043	2024-02-07T02:23:57	9.5	75
53044	2024-02-07T02:33:57	9.8	74.5
53045	2024-02-07T02:43:57	9.7	74
53046	2024-02-07T02:53:57	9.3	78
53047	2024-02-07T03:03:57	8.6	82
53048	2024-02-07T03:13:57	8.7	80
53049	2024-02-07T03:23:57	9.1	78
53050	2024-02-07T03:33:57	9.2	76
53051	2024-02-07T03:43:57	9.4	76
53052	2024-02-07T03:53:57	9.4	75.5
53053	2024-02-07T04:03:57	8.9	80
53054	2024-02-07T04:13:57	9.1	77.5
53055	2024-02-07T04:23:57	9.4	76.5
53056	2024-02-07T04:33:57	9.4	75.5
53057	2024-02-07T04:43:57	9.6	75
53058	2024-02-07T04:53:57	9.7	75
53059	2024-02-07T05:03:57	9.8	74.5
53060	2024-02-07T05:13:57	9.9	74.5
53061	2024-02-07T05:23:57	9.9	74
53062	2024-02-07T05:33:57	10	74
53063	2024-02-07T05:43:57	10.1	74
53064	2024-02-07T05:53:57	10.1	74
53065	2024-02-07T06:03:57	10.2	73.5
53066	2024-02-07T06:13:57	10.1	73.5
53067	2024-02-07T06:23:57	10.1	73
53068	2024-02-07T06:33:57	10.1	72.5
53069	2024-02-07T06:43:57	10.3	72.5
53070	2024-02-07T06:53:56	10.1	72.5
53071	2024-02-07T07:03:56	9	83.5
53072	2024-02-07T07:13:56	8.7	85
53073	2024-02-07T07:23:56	9	80
53074	2024-02-07T07:33:56	9.4	78
53075	2024-02-07T07:43:56	9.3	82
53076	2024-02-07T07:53:56	9.4	79
53077	2024-02-07T08:03:56	9.6	79
53078	2024-02-07T08:13:56	8.8	87
53079	2024-02-07T08:23:56	8.7	89.5
53080	2024-02-07T08:33:56	8.4	90.5
53081	2024-02-07T08:43:56	8.4	89.5
53082	2024-02-07T08:53:56	8.7	87.5
53083	2024-02-07T09:03:56	8.7	89
53084	2024-02-07T09:13:56	8.4	94.5
53085	2024-02-07T09:23:56	8.5	94.5
53086	2024-02-07T09:33:56	8.7	92.5
53087	2024-02-07T09:43:56	9	89.5
53088	2024-02-07T09:53:56	9.1	90.5
53089	2024-02-07T10:03:56	9.3	87.5
53090	2024-02-07T10:13:56	9.5	85
53091	2024-02-07T10:23:56	9.9	83
53092	2024-02-07T10:33:56	10.3	81.5
53093	2024-02-07T10:43:56	10.2	82
53094	2024-02-07T10:53:56	10.2	82.5
53095	2024-02-07T11:03:56	9.8	89
53096	2024-02-07T11:13:56	9.7	88
53097	2024-02-07T11:23:56	9.3	90
53098	2024-02-07T11:33:56	9.3	93
53099	2024-02-07T11:43:56	9.2	95
53100	2024-02-07T11:53:56	9.2	95
53101	2024-02-07T12:03:56	9.1	93.5
53102	2024-02-07T12:13:56	9.1	92
53103	2024-02-07T12:23:56	8.8	95
53104	2024-02-07T12:33:56	8.9	97
53105	2024-02-07T12:43:56	8.8	96
53106	2024-02-07T12:53:56	8.7	97.5
53107	2024-02-07T13:03:56	8.7	97.5
53108	2024-02-07T13:13:56	8.7	98
53109	2024-02-07T13:23:56	8.7	98
53110	2024-02-07T13:33:56	8.7	98
53111	2024-02-07T13:43:56	8.7	98
53112	2024-02-07T13:53:56	8.8	98
53113	2024-02-07T14:03:56	8.9	98
53114	2024-02-07T14:13:57	8.7	97.5
53115	2024-02-07T14:23:56	8.7	96.5
53116	2024-02-07T14:33:56	8.9	93.5
53117	2024-02-07T14:43:56	9.1	91.5
53118	2024-02-07T14:53:56	8.8	93
53119	2024-02-07T15:03:56	8.7	95.5
53120	2024-02-07T15:13:56	8.5	97
53121	2024-02-07T15:23:56	8.4	98
53122	2024-02-07T15:33:56	8.2	99
53123	2024-02-07T15:43:56	8.3	99
53124	2024-02-07T15:53:56	8.3	99
53125	2024-02-07T16:03:56	8.3	99.5
53126	2024-02-07T16:13:56	8.3	99.5
53127	2024-02-07T16:23:56	8.3	99.5
53128	2024-02-07T16:33:56	8.2	99
53129	2024-02-07T16:43:56	8.2	99.5
53130	2024-02-07T16:53:56	8.2	99.5
53131	2024-02-07T17:03:56	8.2	99.5
53132	2024-02-07T17:13:56	8.2	100
53133	2024-02-07T17:23:56	8.3	100
53134	2024-02-07T17:33:56	8.2	100
53135	2024-02-07T17:43:56	8.2	100
53136	2024-02-07T17:53:56	8.2	100
53137	2024-02-07T18:03:56	8.1	100
53138	2024-02-07T18:13:56	8.2	100
53139	2024-02-07T18:23:56	8.1	100
53140	2024-02-07T18:33:56	8.2	100
53141	2024-02-07T18:43:56	8.1	100
53142	2024-02-07T18:53:56	8.2	100
53143	2024-02-07T19:03:56	8.2	100
53144	2024-02-07T19:13:56	8.1	100
53145	2024-02-07T19:23:56	8	100
53146	2024-02-07T19:33:56	8.1	100
53147	2024-02-07T19:43:56	8.2	100
53148	2024-02-07T19:53:56	8.3	100
53149	2024-02-07T20:03:56	8.1	100
53150	2024-02-07T20:13:56	8.2	100
53151	2024-02-07T20:23:56	8.2	100
53152	2024-02-07T20:33:56	8.1	100
53153	2024-02-07T20:43:56	8.1	100
53154	2024-02-07T20:53:56	8.3	100
53155	2024-02-07T21:03:56	8.1	100
53156	2024-02-07T21:13:56	8.2	100
53157	2024-02-07T21:23:56	8.1	100
53158	2024-02-07T21:33:56	8.2	100
53159	2024-02-07T21:43:56	8.3	100
53160	2024-02-07T21:53:56	8.3	100
53161	2024-02-07T22:03:56	8.3	100
53162	2024-02-07T22:13:56	8.4	100
53163	2024-02-07T22:23:56	8.4	100
53164	2024-02-07T22:34:15	8.4	100
53165	2024-02-07T22:43:56	8.4	100
53166	2024-02-07T22:53:56	8.5	100
53167	2024-02-07T23:03:56	8.6	100
53168	2024-02-07T23:13:56	8.7	100
53169	2024-02-07T23:23:56	8.7	100
53170	2024-02-07T23:33:56	8.8	100
53171	2024-02-07T23:43:56	8.9	100
53172	2024-02-07T23:53:56	8.8	100
53173	2024-02-08T00:22:21	8.8	100
53174	2024-02-08T00:22:22	8.9	100
53175	2024-02-08T00:23:56	8.9	100
53176	2024-02-08T00:33:56	9	100
53177	2024-02-08T00:43:56	9	100
53178	2024-02-08T00:53:56	9.1	100
53179	2024-02-08T01:03:56	9.3	100
53180	2024-02-08T01:13:56	9.3	100
53181	2024-02-08T01:23:56	9.4	100
53182	2024-02-08T01:33:56	9.5	100
53183	2024-02-08T01:43:56	9.6	100
53184	2024-02-08T01:53:56	9.7	100
53185	2024-02-08T02:03:56	9.6	100
53186	2024-02-08T02:13:55	9.5	100
53187	2024-02-08T02:23:55	9.6	100
53188	2024-02-08T02:33:55	9.7	100
53189	2024-02-08T02:43:55	9.7	100
53190	2024-02-08T02:53:55	9.6	100
53191	2024-02-08T03:03:55	9.7	100
53192	2024-02-08T03:13:55	9.8	100
53193	2024-02-08T03:23:55	9.6	100
53194	2024-02-08T03:33:55	9.5	100
53195	2024-02-08T03:43:55	9.5	100
53196	2024-02-08T03:53:55	9.4	100
53197	2024-02-08T04:03:55	9.3	100
53198	2024-02-08T04:13:55	9.3	100
53199	2024-02-08T04:23:55	9.3	100
53200	2024-02-08T04:33:55	9.3	100
53201	2024-02-08T04:43:55	9.3	100
53202	2024-02-08T04:53:55	9.3	100
53203	2024-02-08T05:03:55	9.3	100
53204	2024-02-08T05:13:55	9.3	100
53205	2024-02-08T05:23:55	9.3	100
53206	2024-02-08T05:33:55	9.2	100
53207	2024-02-08T05:43:55	9.3	100
53208	2024-02-08T05:53:55	9.3	100
53209	2024-02-08T06:03:55	9.4	100
53210	2024-02-08T06:13:55	9.3	100
53211	2024-02-08T06:33:55	9.4	100
53212	2024-02-08T06:43:55	9.3	100
53213	2024-02-08T06:53:55	9.4	100
53214	2024-02-08T07:03:55	9.3	100
53215	2024-02-08T07:13:55	9.5	100
53216	2024-02-08T07:23:55	9.5	100
53217	2024-02-08T07:33:55	9.6	100
53218	2024-02-08T07:43:55	9.6	100
53219	2024-02-08T07:53:55	9.7	100
53220	2024-02-08T08:03:55	9.7	100
53221	2024-02-08T08:13:55	9.9	100
53222	2024-02-08T08:23:55	10.1	100
53223	2024-02-08T08:33:55	10.1	100
53224	2024-02-08T08:43:55	10.1	100
53225	2024-02-08T08:53:55	10.1	100
53226	2024-02-08T09:03:55	10.2	100
53227	2024-02-08T09:13:55	10.3	100
53228	2024-02-08T09:23:55	10.3	100
53229	2024-02-08T09:33:55	10.4	100
53230	2024-02-08T09:43:55	10.4	99.5
53231	2024-02-08T09:53:55	10.3	100
53232	2024-02-08T10:03:55	10.3	99.5
53233	2024-02-08T10:13:55	10.3	100
53234	2024-02-08T10:23:55	10.2	99.5
53235	2024-02-08T10:33:55	10.4	99.5
53236	2024-02-08T10:43:55	10.4	99.5
53237	2024-02-08T10:53:55	10.5	99.5
53238	2024-02-08T11:03:55	10.5	99.5
53239	2024-02-08T11:13:55	10.6	99.5
53240	2024-02-08T11:23:55	10.8	99.5
53241	2024-02-08T11:33:55	10.9	99.5
53242	2024-02-08T11:43:55	10.9	99.5
53243	2024-02-08T11:53:55	10.8	99
53244	2024-02-08T12:03:55	10.9	99
53245	2024-02-08T12:13:55	11.1	99
53246	2024-02-08T12:23:55	11.4	99.5
53247	2024-02-08T12:33:55	11.6	100
53248	2024-02-08T12:43:55	11.8	100
53249	2024-02-08T12:53:55	12.1	100
53250	2024-02-08T13:03:55	12.4	100
53251	2024-02-08T13:13:55	12.4	100
53252	2024-02-08T13:23:55	12.3	100
53253	2024-02-08T13:33:55	12.5	100
53254	2024-02-08T13:43:55	12.5	100
53255	2024-02-08T13:53:55	12.7	100
53256	2024-02-08T14:03:55	12.7	100
53257	2024-02-08T14:13:55	12.7	100
53258	2024-02-08T14:23:55	12.7	100
53259	2024-02-08T14:33:55	12.8	99.5
53260	2024-02-08T14:43:55	12.8	99
53261	2024-02-08T14:53:55	13	100
53262	2024-02-08T15:03:55	13	100
53263	2024-02-08T15:13:55	12.9	99.5
53264	2024-02-08T15:23:55	13	99.5
53265	2024-02-08T15:33:55	13.1	99.5
53266	2024-02-08T15:43:55	13	98.5
53267	2024-02-08T15:53:55	13	98.5
53268	2024-02-08T16:03:55	13.1	98.5
53269	2024-02-08T16:13:55	13	98.5
53270	2024-02-08T16:23:55	12.9	97.5
53271	2024-02-08T16:33:55	13	98
53272	2024-02-08T16:43:55	13.1	98.5
53273	2024-02-08T16:53:55	13.2	97.5
53274	2024-02-08T17:03:55	13.2	97.5
53275	2024-02-08T17:13:55	13.2	97.5
53276	2024-02-08T17:23:55	13.2	87.5
53277	2024-02-08T17:33:55	13.1	76.5
53278	2024-02-08T17:43:55	12.9	77
53279	2024-02-08T17:53:55	12.8	78
53280	2024-02-08T18:03:54	12.6	77.5
53281	2024-02-08T18:13:54	12.7	78
53282	2024-02-08T18:23:54	12.7	78
53283	2024-02-08T18:33:54	12.6	79.5
53284	2024-02-08T18:43:54	12.4	78.5
53285	2024-02-08T18:53:55	12.2	83
53286	2024-02-08T19:03:55	12.2	81.5
53287	2024-02-08T19:13:54	12.1	81
53288	2024-02-08T19:23:54	12	86.5
53289	2024-02-08T19:33:54	11.8	89
53290	2024-02-08T19:43:54	11.6	89
53291	2024-02-08T19:53:54	11.5	91.5
53292	2024-02-08T20:03:54	11.4	89
53293	2024-02-08T20:13:54	11.3	88
53294	2024-02-08T20:23:54	11.3	88.5
53295	2024-02-08T20:33:54	11.2	91.5
53296	2024-02-08T20:43:54	11.1	92
53297	2024-02-08T20:53:54	11.1	89.5
53298	2024-02-08T21:03:54	11	92
53299	2024-02-08T21:13:54	11	90.5
53300	2024-02-08T21:23:54	11	90
53301	2024-02-08T21:33:54	10.9	92.5
53302	2024-02-08T21:43:54	10.8	93
53303	2024-02-08T21:53:54	10.9	92
53304	2024-02-08T22:03:54	10.9	91.5
53305	2024-02-08T22:13:54	10.8	91
53306	2024-02-08T22:23:54	10.7	90.5
53307	2024-02-08T22:33:54	10.9	89.5
53308	2024-02-08T22:43:54	11	86
53309	2024-02-08T22:53:54	11.1	83
53310	2024-02-08T23:03:54	11.6	80
53311	2024-02-08T23:13:54	11.8	78.5
53312	2024-02-08T23:23:54	11.6	83
53313	2024-02-08T23:33:54	11.5	79.5
53314	2024-02-08T23:43:54	11.7	80.5
53315	2024-02-08T23:53:54	11.8	80
53316	2024-02-09T00:23:40	11.9	78
53317	2024-02-09T00:23:40	11.9	79
53318	2024-02-09T00:23:55	11.9	80.5
53319	2024-02-09T00:33:54	11.8	81.5
53320	2024-02-09T00:43:54	11.6	82.5
53321	2024-02-09T00:53:54	11.4	84
53322	2024-02-09T01:03:54	11.2	86.5
53323	2024-02-09T01:13:54	11	89
53324	2024-02-09T01:23:54	10.9	91
53325	2024-02-09T01:33:54	10.8	91.5
53326	2024-02-09T01:43:54	10.7	91.5
53327	2024-02-09T01:53:54	10.7	95.5
53328	2024-02-09T02:03:54	10.7	95.5
53329	2024-02-09T02:13:54	10.7	94
53330	2024-02-09T02:23:54	10.6	93.5
53331	2024-02-09T02:33:54	10.7	95.5
53332	2024-02-09T02:43:54	10.7	96.5
53333	2024-02-09T02:53:54	10.7	95.5
53334	2024-02-09T03:03:54	10.8	96
53335	2024-02-09T03:13:54	10.6	97
53336	2024-02-09T03:23:54	10.6	96
53337	2024-02-09T03:33:54	10.7	96.5
53338	2024-02-09T03:43:54	10.6	97
53339	2024-02-09T03:53:54	10.6	96.5
53340	2024-02-09T04:03:54	10.7	96.5
53341	2024-02-09T04:13:54	10.6	96.5
53342	2024-02-09T04:23:54	10.6	96.5
53343	2024-02-09T04:33:54	10.5	96
53344	2024-02-09T04:43:54	10.5	96.5
53345	2024-02-09T04:53:54	10.5	96.5
53346	2024-02-09T05:03:54	10.5	97
53347	2024-02-09T05:13:54	10.5	96.5
53348	2024-02-09T05:23:54	10.4	96.5
53349	2024-02-09T05:33:54	10.6	95
53350	2024-02-09T05:43:54	10.8	91
53351	2024-02-09T05:53:54	10.9	90
53352	2024-02-09T06:03:54	10.3	97.5
53353	2024-02-09T06:13:54	10.1	99.5
53354	2024-02-09T06:23:54	10.1	100
53355	2024-02-09T06:33:54	10	100
53356	2024-02-09T06:43:54	10.2	100
53357	2024-02-09T06:53:54	10.3	100
53358	2024-02-09T07:03:54	10.3	100
53359	2024-02-09T07:13:54	10.4	100
53360	2024-02-09T07:23:54	10.8	96
53361	2024-02-09T07:33:54	11.1	95
53362	2024-02-09T07:43:54	11.4	92
53363	2024-02-09T07:53:54	11.6	84
53364	2024-02-09T08:03:54	11.8	81.5
53365	2024-02-09T08:13:54	12	81
53366	2024-02-09T08:23:54	12.2	79.5
53367	2024-02-09T08:33:54	12.4	79.5
53368	2024-02-09T08:43:54	12.4	78.5
53369	2024-02-09T08:53:54	12.6	75
53370	2024-02-09T09:03:54	12.8	75.5
53371	2024-02-09T09:13:54	12.8	75
53372	2024-02-09T09:23:54	12.9	75
53373	2024-02-09T09:33:54	13	74.5
53374	2024-02-09T09:43:54	13.1	73
53375	2024-02-09T09:53:54	13.4	72.5
53376	2024-02-09T10:03:54	13.5	72.5
53377	2024-02-09T10:13:54	13.6	71
53378	2024-02-09T10:23:53	13.9	70
53379	2024-02-09T10:33:53	14.1	70
53380	2024-02-09T10:43:54	14	69.5
53381	2024-02-09T10:53:53	13.3	75
53382	2024-02-09T11:23:53	12	87.5
53383	2024-02-09T11:33:53	12.2	84
53384	2024-02-09T11:43:53	12.4	82
53385	2024-02-09T11:53:53	12.5	82
53386	2024-02-09T12:03:53	12.5	83
53387	2024-02-09T12:13:53	13	79.5
53388	2024-02-09T12:23:54	13.5	78
53389	2024-02-09T12:33:53	13.8	75.5
53390	2024-02-09T12:43:53	13.7	76.5
53391	2024-02-09T12:53:53	13.1	84.5
53392	2024-02-09T13:03:53	12.7	83
53393	2024-02-09T13:13:53	12.7	86
53394	2024-02-09T13:23:53	12.9	90
53395	2024-02-09T13:33:54	13.1	85.5
53396	2024-02-09T13:43:53	13.3	82
53397	2024-02-09T13:53:53	13.3	81.5
53398	2024-02-09T14:04:15	13.2	80
53399	2024-02-09T14:13:53	12.7	86.5
53400	2024-02-09T14:23:54	12.5	85.5
53401	2024-02-09T14:33:53	12.6	88.5
53402	2024-02-09T14:43:53	12.6	93.5
53403	2024-02-09T14:53:53	12.6	94
53404	2024-02-09T15:03:53	12.7	93
53405	2024-02-09T15:13:53	12.7	95
53406	2024-02-09T15:23:53	12.6	94
53407	2024-02-09T15:33:53	12.6	90
53408	2024-02-09T15:43:53	12.6	88.5
53409	2024-02-09T15:53:53	12.4	88.5
53410	2024-02-09T16:03:53	12.2	89
53411	2024-02-09T16:13:53	11.9	91
53412	2024-02-09T16:23:53	11.9	91
53413	2024-02-09T16:33:53	11.3	95
53414	2024-02-09T16:43:53	11.2	94
53415	2024-02-09T16:53:53	11.2	93.5
53416	2024-02-09T17:03:53	11.1	92.5
53417	2024-02-09T17:13:53	11	93
53418	2024-02-09T17:23:53	10.9	93
53419	2024-02-09T17:33:53	10.5	96.5
53420	2024-02-09T17:43:53	10.3	97.5
53421	2024-02-09T17:53:53	10.3	99
53422	2024-02-09T18:03:53	10.4	98.5
53423	2024-02-09T18:13:53	10.3	97
53424	2024-02-09T18:23:53	10.4	97.5
53425	2024-02-09T18:33:53	10.5	94
53426	2024-02-09T18:43:53	10.5	93.5
53427	2024-02-09T18:53:53	10.6	94.5
53428	2024-02-09T19:03:53	10.5	97.5
53429	2024-02-09T19:13:53	10.6	98.5
53430	2024-02-09T19:23:53	10.6	98
53431	2024-02-09T19:33:53	10.6	98
53432	2024-02-09T19:43:53	10.6	98
53433	2024-02-09T19:53:53	10.7	98.5
53434	2024-02-09T20:03:53	10.7	99
53435	2024-02-09T20:13:53	10.6	99
53436	2024-02-09T20:23:53	10.6	98
53437	2024-02-09T20:33:53	10.6	98
53438	2024-02-09T20:43:53	10.6	99
53439	2024-02-09T20:53:53	10.6	98.5
53440	2024-02-09T21:03:53	10.6	98.5
53441	2024-02-09T21:13:53	10.5	97.5
53442	2024-02-09T21:23:53	10.5	97.5
53443	2024-02-09T21:33:53	10.6	97
53444	2024-02-09T21:43:53	10.6	96.5
53445	2024-02-09T21:53:53	10.7	96
53446	2024-02-09T22:03:53	10.7	97
53447	2024-02-09T22:13:53	10.6	96.5
53448	2024-02-09T22:23:53	10.6	95.5
53449	2024-02-09T22:33:53	10.7	97.5
53450	2024-02-09T22:43:53	10.6	95.5
53451	2024-02-09T22:53:53	10.5	95.5
53452	2024-02-09T23:03:53	10.6	95.5
53453	2024-02-09T23:13:53	10.6	96.5
53454	2024-02-09T23:23:53	10.6	97
53455	2024-02-09T23:33:53	10.6	97
53456	2024-02-09T23:43:53	10.6	96
53457	2024-02-09T23:53:53	10.6	96.5
53458	2024-02-10T00:22:08	10.6	94.5
53459	2024-02-10T00:22:08	10.6	94
53460	2024-02-10T00:23:53	10.5	96
53461	2024-02-10T00:33:53	10.7	93
53462	2024-02-10T00:43:53	10.7	92
53463	2024-02-10T00:53:53	10.7	95.5
53464	2024-02-10T01:03:53	10.7	95.5
53465	2024-02-10T01:13:53	10.5	95
53466	2024-02-10T01:23:53	10.3	95
53467	2024-02-10T01:33:53	10.4	97
53468	2024-02-10T01:43:53	10.4	97.5
53469	2024-02-10T01:53:53	10.4	97
53470	2024-02-10T02:03:52	10.5	96.5
53471	2024-02-10T02:13:53	10.4	97
53472	2024-02-10T02:23:52	10.3	97.5
53473	2024-02-10T02:33:52	10.3	97
53474	2024-02-10T02:43:52	10.2	97
53475	2024-02-10T02:53:52	10	97.5
53476	2024-02-10T03:03:52	9.8	97.5
53477	2024-02-10T03:13:52	9.6	97
53478	2024-02-10T03:23:52	9.3	97
53479	2024-02-10T03:33:52	9.3	98
53480	2024-02-10T03:43:52	9.1	97
53481	2024-02-10T03:53:52	8.9	97
53482	2024-02-10T04:03:52	8.8	96.5
53483	2024-02-10T04:13:52	8.6	96.5
53484	2024-02-10T04:23:52	8.6	97
53485	2024-02-10T04:33:52	8.4	95.5
53486	2024-02-10T04:43:52	8.3	96.5
53487	2024-02-10T04:53:52	8.2	96.5
53488	2024-02-10T05:03:52	8.1	96.5
53489	2024-02-10T05:13:52	8.2	97
53490	2024-02-10T05:23:52	8.1	97.5
53491	2024-02-10T05:33:52	8	97.5
53492	2024-02-10T05:43:52	8.1	97
53493	2024-02-10T06:03:52	8.2	97.5
53494	2024-02-10T06:13:52	8.1	96.5
53495	2024-02-10T06:23:52	8.3	96
53496	2024-02-10T06:33:52	8.3	97
53497	2024-02-10T06:43:52	8.4	96.5
53498	2024-02-10T06:53:52	8.3	96.5
53499	2024-02-10T07:03:52	8.2	97
53500	2024-02-10T07:13:52	8.3	97
53501	2024-02-10T07:23:52	8.4	96.5
53502	2024-02-10T07:33:52	8.3	97.5
53503	2024-02-10T07:43:52	8.5	97
53504	2024-02-10T07:53:52	8.6	96
53505	2024-02-10T08:03:52	8.7	97
53506	2024-02-10T08:13:52	8.7	96.5
53507	2024-02-10T08:23:52	8.8	97
53508	2024-02-10T08:33:52	9	96
53509	2024-02-10T08:43:52	9	96
53510	2024-02-10T08:53:52	9.2	96.5
53511	2024-02-10T09:03:52	9.3	95
53512	2024-02-10T09:13:52	9.3	94.5
53513	2024-02-10T09:23:52	9.1	94.5
53514	2024-02-10T09:33:52	9	95
53515	2024-02-10T09:43:52	9.1	95.5
53516	2024-02-10T09:53:52	9.3	96
53517	2024-02-10T10:03:52	9.5	95.5
53518	2024-02-10T10:13:52	9.8	95
53519	2024-02-10T10:23:52	10	95.5
53520	2024-02-10T10:33:52	10.1	95
53521	2024-02-10T10:43:52	10.1	94.5
53522	2024-02-10T10:53:52	10.3	94.5
53523	2024-02-10T11:03:52	10.4	93.5
53524	2024-02-10T11:13:52	10.6	93.5
53525	2024-02-10T11:23:52	10.6	93.5
53526	2024-02-10T11:33:52	10.8	93
53527	2024-02-10T11:43:52	11	92.5
53528	2024-02-10T11:53:52	11.5	92.5
53529	2024-02-10T12:03:52	11.8	90.5
53530	2024-02-10T12:13:52	12.4	90
53531	2024-02-10T12:23:52	12.6	89
53532	2024-02-10T12:33:52	12.4	89
53533	2024-02-10T12:43:52	12.3	90
53534	2024-02-10T12:53:52	12.4	89
53535	2024-02-10T13:03:52	12.3	89
53536	2024-02-10T13:13:52	12.3	90
53537	2024-02-10T13:23:52	12.4	90
53538	2024-02-10T13:33:52	12.6	89
53539	2024-02-10T13:43:52	13.9	85
53540	2024-02-10T13:53:52	15.3	79
53541	2024-02-10T14:03:52	15.1	80
53542	2024-02-10T14:13:52	14.3	81.5
53543	2024-02-10T14:23:52	15.6	77.5
53544	2024-02-10T14:33:52	15.5	76.5
53545	2024-02-10T14:43:52	14.5	80.5
53546	2024-02-10T14:53:52	13.8	82.5
53547	2024-02-10T15:03:52	13.4	84.5
53548	2024-02-10T15:13:52	13.2	84.5
53549	2024-02-10T15:23:52	12.9	84.5
53550	2024-02-10T15:33:52	12.5	85.5
53551	2024-02-10T15:43:52	12.2	86
53552	2024-02-10T15:53:52	12.1	86
53553	2024-02-10T16:03:52	11.9	87.5
53554	2024-02-10T16:13:52	11.6	88
53555	2024-02-10T16:23:52	11.5	88.5
53556	2024-02-10T16:33:52	11.4	89
53557	2024-02-10T16:43:52	11.4	89.5
53558	2024-02-10T16:53:52	11.4	92
53559	2024-02-10T17:03:52	11.2	90.5
53560	2024-02-10T17:13:52	11.2	91
53561	2024-02-10T17:23:52	11.1	90
53562	2024-02-10T17:33:52	11	90.5
53563	2024-02-10T17:43:52	11.1	91
53564	2024-02-10T17:53:52	11	91.5
53565	2024-02-10T18:03:52	10.9	91.5
53566	2024-02-10T18:13:52	10.9	91.5
53567	2024-02-10T18:23:52	10.8	91.5
53568	2024-02-10T18:33:52	10.8	93
53569	2024-02-10T18:43:52	10.7	93.5
53570	2024-02-10T18:53:52	10.8	93
53571	2024-02-10T19:03:52	10.7	92
53572	2024-02-10T19:13:51	10.6	90.5
53573	2024-02-10T19:23:51	10.6	92
53574	2024-02-10T19:33:51	10.5	94
53575	2024-02-10T19:43:51	10.5	95
53576	2024-02-10T19:53:51	10.5	94
53577	2024-02-10T20:03:51	10.4	94.5
53578	2024-02-10T20:13:51	10.4	95.5
53579	2024-02-10T20:23:51	10.5	93.5
53580	2024-02-10T20:33:51	10.3	94
53581	2024-02-10T20:43:51	10.3	94
53582	2024-02-10T20:53:51	10.3	94
53583	2024-02-10T21:03:51	10.1	94
53584	2024-02-10T21:13:51	10.2	95
53585	2024-02-10T21:23:51	10.1	95.5
53586	2024-02-10T21:33:51	10.1	94
53587	2024-02-10T21:43:51	9.9	94.5
53588	2024-02-10T21:53:51	9.9	94.5
53589	2024-02-10T22:03:51	9.9	95
53590	2024-02-10T22:13:51	9.8	95.5
53591	2024-02-10T22:23:51	9.8	95.5
53592	2024-02-10T22:33:51	9.8	96
53593	2024-02-10T22:43:51	9.8	96
53594	2024-02-10T22:53:51	9.8	96
53595	2024-02-10T23:03:51	9.9	96.5
53596	2024-02-10T23:13:51	9.7	96.5
53597	2024-02-10T23:23:51	9.8	96.5
53598	2024-02-10T23:33:51	9.8	97
53599	2024-02-10T23:43:51	9.8	97.5
53600	2024-02-10T23:53:51	9.6	98
53601	2024-02-11T00:21:58	9.7	99
53602	2024-02-11T00:21:58	9.7	99.5
53603	2024-02-11T00:23:51	9.7	100
53604	2024-02-11T00:33:51	9.7	100
53605	2024-02-11T00:43:51	9.8	100
53606	2024-02-11T00:53:51	9.8	100
53607	2024-02-11T01:03:51	9.9	100
53608	2024-02-11T01:13:51	9.9	100
53609	2024-02-11T01:23:51	9	98
53610	2024-02-11T01:33:51	8.4	99.5
53611	2024-02-11T01:43:51	8.2	100
53612	2024-02-11T01:53:51	8	100
53613	2024-02-11T02:03:51	7.9	100
53614	2024-02-11T02:13:51	7.7	100
53615	2024-02-11T02:23:51	7.6	100
53616	2024-02-11T02:33:51	7.3	100
53617	2024-02-11T02:43:51	7.2	100
53618	2024-02-11T02:53:51	7.1	100
53619	2024-02-11T03:03:51	6.9	100
53620	2024-02-11T03:13:51	6.8	100
53621	2024-02-11T03:23:51	6.9	100
53622	2024-02-11T03:33:51	6.7	100
53623	2024-02-11T03:43:51	6.7	100
53624	2024-02-11T03:53:51	6.7	100
53625	2024-02-11T04:03:51	6.6	100
53626	2024-02-11T04:13:51	6.4	100
53627	2024-02-11T04:23:51	6.4	100
53628	2024-02-11T04:33:51	6.4	100
53629	2024-02-11T04:43:51	6.3	100
53630	2024-02-11T04:53:51	6.3	100
53631	2024-02-11T05:03:51	6.3	100
53632	2024-02-11T05:13:51	6.3	100
53633	2024-02-11T05:23:51	6.3	100
53634	2024-02-11T05:33:51	6.3	100
53635	2024-02-11T05:43:51	6.4	100
53636	2024-02-11T05:53:51	6.4	100
53637	2024-02-11T06:03:51	6.5	100
53638	2024-02-11T06:13:51	6.5	100
53639	2024-02-11T06:23:51	6.5	99
53640	2024-02-11T06:33:51	6.6	98.5
53641	2024-02-11T06:43:51	6.7	98.5
53642	2024-02-11T06:53:51	6.7	98
53643	2024-02-11T07:03:51	6.9	98
53644	2024-02-11T07:13:51	6.7	97
53645	2024-02-11T07:23:51	7	92
53646	2024-02-11T07:33:51	7.1	91
53647	2024-02-11T07:43:51	7.2	91
53648	2024-02-11T07:53:51	7.3	91
53649	2024-02-11T08:03:51	7.5	90
53650	2024-02-11T08:13:51	7.4	91
53651	2024-02-11T08:23:51	7.4	90
53652	2024-02-11T08:33:51	7.6	89
53653	2024-02-11T08:43:51	7.7	88
53654	2024-02-11T08:53:51	8	88
53655	2024-02-11T09:03:51	8.2	87
53656	2024-02-11T09:13:51	8.4	85
53657	2024-02-11T09:23:51	8.4	84.5
53658	2024-02-11T09:33:51	8.5	85.5
53659	2024-02-11T09:43:51	8.4	85
53660	2024-02-11T09:53:51	8.3	84.5
53661	2024-02-11T10:03:51	8.8	84
53662	2024-02-11T10:13:51	8.9	83
53663	2024-02-11T10:23:51	9.3	82
53664	2024-02-11T10:33:51	9.3	81.5
53665	2024-02-11T10:43:51	9.2	81.5
53666	2024-02-11T10:53:51	9.2	83
53667	2024-02-11T11:03:51	9.4	81
53668	2024-02-11T11:13:51	9.7	81
53669	2024-02-11T11:23:51	9.9	78
53670	2024-02-11T11:33:51	9.7	78
53671	2024-02-11T11:43:51	9.9	78
53672	2024-02-11T11:53:51	10	77
53673	2024-02-11T12:03:51	10	77.5
53674	2024-02-11T12:13:51	10.1	77
53675	2024-02-11T12:23:51	10.3	76
53676	2024-02-11T12:33:51	10.7	75
53677	2024-02-11T12:43:51	10.5	75
53678	2024-02-11T12:53:51	10.6	75.5
53679	2024-02-11T13:03:51	11.6	75
53680	2024-02-11T13:13:51	13	67.5
53681	2024-02-11T13:23:51	13.7	67
53682	2024-02-11T13:33:51	13.6	65
53683	2024-02-11T13:43:51	12.4	67.5
53684	2024-02-11T13:53:51	11.9	71
53685	2024-02-11T14:03:51	11.6	70.5
53686	2024-02-11T14:13:51	11.4	72
53687	2024-02-11T14:23:51	11.7	72.5
53688	2024-02-11T14:33:51	12.8	69
53689	2024-02-11T14:43:50	12.7	68
53690	2024-02-11T14:53:50	11.8	70.5
53691	2024-02-11T15:03:50	11.3	73
53692	2024-02-11T15:13:50	11	73.5
53693	2024-02-11T15:23:50	10.9	74.5
53694	2024-02-11T15:33:50	10.7	76
53695	2024-02-11T15:43:50	10.8	75
53696	2024-02-11T15:53:50	10.8	74.5
53697	2024-02-11T16:03:50	10.6	74
53698	2024-02-11T16:13:50	10.5	74.5
53699	2024-02-11T16:23:50	10.5	74.5
53700	2024-02-11T16:33:50	10.5	75
53701	2024-02-11T16:43:50	10.1	79
53702	2024-02-11T16:53:50	9.2	89
53703	2024-02-11T17:03:50	9.2	88.5
53704	2024-02-11T17:13:50	9.1	85
53705	2024-02-11T17:23:50	9.1	85.5
53706	2024-02-11T17:33:50	9.2	84
53707	2024-02-11T17:43:50	9.3	83.5
53708	2024-02-11T17:53:50	9.4	80.5
53709	2024-02-11T18:03:50	9.7	78.5
53710	2024-02-11T18:13:50	9.9	77
53711	2024-02-11T18:23:50	9.8	78
53712	2024-02-11T18:33:50	9.8	78
53713	2024-02-11T18:43:50	9.8	77.5
53714	2024-02-11T18:53:50	9.7	78
53715	2024-02-11T19:03:50	9.7	78
53716	2024-02-11T19:13:50	9.7	78.5
53717	2024-02-11T19:23:50	9.7	77.5
53718	2024-02-11T19:33:50	9.6	77.5
53719	2024-02-11T19:43:50	9.7	77.5
53720	2024-02-11T19:53:50	9.6	77.5
53721	2024-02-11T20:03:50	9.6	77
53722	2024-02-11T20:13:50	9.6	78
53723	2024-02-11T20:23:50	9.2	81.5
53724	2024-02-11T20:33:50	9.2	80.5
53725	2024-02-11T20:43:50	8.8	85.5
53726	2024-02-11T20:53:51	8.7	85.5
53727	2024-02-11T21:03:50	8.5	88
53728	2024-02-11T21:13:50	8.5	87
53729	2024-02-11T21:23:50	8.5	86
53730	2024-02-11T21:33:50	8.8	85
53731	2024-02-11T21:43:50	8.8	84.5
53732	2024-02-11T21:53:50	8.7	83.5
53733	2024-02-11T22:03:50	8.8	83.5
53734	2024-02-11T22:13:50	8.8	83.5
53735	2024-02-11T22:23:50	8.5	87.5
53736	2024-02-11T22:33:50	8.8	85
53737	2024-02-11T22:43:50	8.8	83.5
53738	2024-02-11T22:53:50	9.1	83
53739	2024-02-11T23:03:50	9.1	84
53740	2024-02-11T23:13:50	8.5	88.5
53741	2024-02-11T23:23:50	8.6	87
53742	2024-02-11T23:33:50	8.6	86.5
53743	2024-02-11T23:43:50	8.8	84.5
53744	2024-02-11T23:53:50	8.9	84
53745	2024-02-12T00:23:51	9.1	83
53746	2024-02-12T00:23:51	9	83
53747	2024-02-12T00:23:53	9	83
53748	2024-02-12T00:33:50	9.1	82
53749	2024-02-12T00:43:50	9.1	81.5
53750	2024-02-12T00:53:50	9.1	81
53751	2024-02-12T01:03:50	9.2	82
53752	2024-02-12T01:13:50	9.1	82.5
53753	2024-02-12T01:23:50	9	83
53754	2024-02-12T01:33:50	8.9	82
53755	2024-02-12T01:43:50	9.1	82.5
53756	2024-02-12T01:53:50	8.9	83.5
53757	2024-02-12T02:03:50	8.5	91.5
53758	2024-02-12T02:13:50	8	92
53759	2024-02-12T02:23:50	8	90
53760	2024-02-12T02:33:50	8.1	89.5
53761	2024-02-12T02:43:50	8.2	89
53762	2024-02-12T02:53:50	8.2	88.5
53763	2024-02-12T03:03:50	8.2	88.5
53764	2024-02-12T03:13:50	8.2	89
53765	2024-02-12T03:23:50	8.3	89.5
53766	2024-02-12T03:33:50	8.2	89.5
53767	2024-02-12T03:43:50	8.2	89
53768	2024-02-12T03:53:50	8.2	89.5
53769	2024-02-12T04:03:50	8.2	88.5
53770	2024-02-12T04:13:50	8.2	87
53771	2024-02-12T04:23:50	8.2	86.5
53772	2024-02-12T04:33:50	8.3	86
53773	2024-02-12T04:43:50	8.3	85.5
53774	2024-02-12T04:54:07	8.2	85
53775	2024-02-12T05:03:50	8.2	84.5
53776	2024-02-12T05:13:50	8.2	85
53777	2024-02-12T05:23:50	8.2	85.5
53778	2024-02-12T05:33:50	7.8	91
53779	2024-02-12T05:43:50	7.7	89
53780	2024-02-12T05:53:50	7.7	89.5
53781	2024-02-12T06:03:50	7.8	89.5
53782	2024-02-12T06:13:50	7.5	91
53783	2024-02-12T06:23:50	7.5	90
53784	2024-02-12T06:33:50	7.6	90
53785	2024-02-12T06:43:50	7.6	90
53786	2024-02-12T06:53:50	7.7	89
53787	2024-02-12T07:03:50	7.8	88.5
53788	2024-02-12T07:13:50	7.8	87.5
53789	2024-02-12T07:23:50	7.9	87.5
53790	2024-02-12T07:33:50	7.9	87.5
53791	2024-02-12T07:43:50	8.1	87.5
53792	2024-02-12T07:53:50	8.3	87.5
53793	2024-02-12T08:03:50	8.3	87.5
53794	2024-02-12T08:13:50	8.3	87
53795	2024-02-12T08:23:50	8.4	87
53796	2024-02-12T08:33:50	8.4	86.5
53797	2024-02-12T08:43:50	8.5	86.5
53798	2024-02-12T08:53:50	8.6	86
53799	2024-02-12T09:03:50	8.6	85.5
53800	2024-02-12T09:13:50	8.6	85
53801	2024-02-12T09:23:50	8.5	84.5
53802	2024-02-12T09:33:50	8.8	84.5
53803	2024-02-12T09:43:49	8.6	84.5
53804	2024-02-12T09:53:49	8.9	84
53805	2024-02-12T10:03:49	9.1	83
53806	2024-02-12T10:13:49	9.3	82
53807	2024-02-12T10:23:49	9.6	80.5
53808	2024-02-12T10:33:49	10	78
53809	2024-02-12T10:43:49	10.2	76.5
53810	2024-02-12T10:53:49	10	77.5
53811	2024-02-12T11:03:49	9.9	77.5
53812	2024-02-12T11:13:49	10	77
53813	2024-02-12T11:23:49	10.1	75.5
53814	2024-02-12T11:33:49	10.3	74
53815	2024-02-12T11:43:49	10.6	71.5
53816	2024-02-12T11:53:49	10.5	72.5
53817	2024-02-12T12:03:49	10.6	73
53818	2024-02-12T12:13:49	10.8	72.5
53819	2024-02-12T12:23:49	11	70.5
53820	2024-02-12T12:33:49	11	67.5
53821	2024-02-12T12:43:49	10.8	68.5
53822	2024-02-12T12:53:49	10.8	69
53823	2024-02-12T13:03:49	10.8	67.5
53824	2024-02-12T13:13:49	11	66.5
53825	2024-02-12T13:23:49	11.3	64.5
53826	2024-02-12T13:33:49	11	64
53827	2024-02-12T13:43:49	11	63.5
53828	2024-02-12T13:53:49	10.6	66
53829	2024-02-12T14:03:49	10.7	67
53830	2024-02-12T14:13:49	10.6	68
53831	2024-02-12T14:23:49	10.4	67.5
53832	2024-02-12T14:33:49	10.2	70
53833	2024-02-12T14:43:49	10.2	69
53834	2024-02-12T14:53:49	10.4	69
53835	2024-02-12T15:03:49	10.5	67
53836	2024-02-12T15:13:49	11.3	61
53837	2024-02-12T15:23:49	11.6	59.5
53838	2024-02-12T15:33:49	12.4	58
53839	2024-02-12T15:43:49	12	58.5
53840	2024-02-12T15:53:49	11.3	61
53841	2024-02-12T16:03:49	11.6	62.5
53842	2024-02-12T16:13:49	10.8	64
53843	2024-02-12T16:23:49	10.4	66.5
53844	2024-02-12T16:33:49	10.3	67.5
53845	2024-02-12T16:43:49	10	68.5
53846	2024-02-12T16:53:49	9.9	68
53847	2024-02-12T17:03:49	9.8	69.5
53848	2024-02-12T17:13:49	9.8	72.5
53849	2024-02-12T17:23:49	9.7	71
53850	2024-02-12T17:33:49	8.2	95.5
53851	2024-02-12T17:43:49	7.8	97.5
53852	2024-02-12T17:53:49	8	99.5
53853	2024-02-12T18:03:49	7.9	98
53854	2024-02-12T18:13:49	7.8	98
53855	2024-02-12T18:23:49	7.6	97
53856	2024-02-12T18:33:49	7.6	97
53857	2024-02-12T18:43:49	7.4	97
53858	2024-02-12T18:53:49	7.4	97
53859	2024-02-12T19:03:49	7.3	96.5
53860	2024-02-12T19:13:49	7.2	96
53861	2024-02-12T19:23:49	7.2	89.5
53862	2024-02-12T19:33:49	7.2	87.5
53863	2024-02-12T19:43:49	7.1	87.5
53864	2024-02-12T19:53:49	7.1	86
53865	2024-02-12T20:03:49	7.1	84.5
53866	2024-02-12T20:13:49	7	85
53867	2024-02-12T20:23:49	6.7	86
53868	2024-02-12T20:33:49	6.8	86
53869	2024-02-12T20:43:49	6.6	87
53870	2024-02-12T20:53:49	6.4	85.5
53871	2024-02-12T21:03:49	6.4	86
53872	2024-02-12T21:13:49	6.3	85.5
53873	2024-02-12T21:23:49	6.1	86
53874	2024-02-12T21:33:49	6	86
53875	2024-02-12T21:43:49	6	86.5
53876	2024-02-12T21:53:49	6	86
53877	2024-02-12T22:03:49	6.2	86
53878	2024-02-12T22:13:49	6.4	86
53879	2024-02-12T22:23:49	6.4	85
53880	2024-02-12T22:33:49	6.6	84.5
53881	2024-02-12T22:43:49	6.6	85
53882	2024-02-12T22:53:49	6.7	84
53883	2024-02-12T23:03:49	6.7	84.5
53884	2024-02-12T23:13:49	6.6	84.5
53885	2024-02-12T23:23:49	6.7	84
53886	2024-02-12T23:33:49	6.6	83.5
53887	2024-02-12T23:43:49	6.9	84
53888	2024-02-12T23:53:49	6.8	84
53889	2024-02-13T00:23:29	6.9	84
53890	2024-02-13T00:23:29	6.9	84
53891	2024-02-13T00:23:55	7	84
53892	2024-02-13T00:33:49	7	83.5
53893	2024-02-13T00:43:49	7	83.5
53894	2024-02-13T00:53:49	7.1	84
53895	2024-02-13T01:03:49	7	84
53896	2024-02-13T01:13:49	6.9	84
53897	2024-02-13T01:23:49	6.9	84
53898	2024-02-13T01:33:49	7.1	84
53899	2024-02-13T01:43:49	7.1	84
53900	2024-02-13T01:53:49	6.9	85
53901	2024-02-13T02:03:49	6.9	85
53902	2024-02-13T02:13:49	6.9	84.5
53903	2024-02-13T02:23:49	6.9	84.5
53904	2024-02-13T02:33:49	7	84
53905	2024-02-13T02:43:49	7.1	84
53906	2024-02-13T02:53:49	6.9	84.5
53907	2024-02-13T03:03:49	7	84.5
53908	2024-02-13T03:13:49	7	84.5
53909	2024-02-13T03:23:49	6.9	84
53910	2024-02-13T03:33:49	6.9	84.5
53911	2024-02-13T03:43:49	6.8	85
53912	2024-02-13T03:53:49	6.5	85.5
53913	2024-02-13T04:03:49	6.4	85.5
53914	2024-02-13T04:13:49	6.5	86
53915	2024-02-13T04:23:49	6.4	86
53916	2024-02-13T04:33:49	6.6	87
53917	2024-02-13T04:43:49	6.4	85.5
53918	2024-02-13T04:53:49	6.4	86
53919	2024-02-13T05:03:49	6.5	86
53920	2024-02-13T05:13:49	6.4	85.5
53921	2024-02-13T05:23:49	6.3	86.5
53922	2024-02-13T05:33:49	6.3	87
53923	2024-02-13T05:43:49	6.4	87
53924	2024-02-13T05:53:48	6.4	86.5
53925	2024-02-13T06:03:48	6.5	86.5
53926	2024-02-13T06:13:48	6.3	87
53927	2024-02-13T06:23:48	6.3	87
53928	2024-02-13T06:33:48	6.2	87
53929	2024-02-13T06:43:48	6.4	88.5
53930	2024-02-13T06:53:48	6.4	87.5
53931	2024-02-13T07:03:48	6.4	86.5
53932	2024-02-13T07:13:48	6.4	87
53933	2024-02-13T07:23:48	6.5	86
53934	2024-02-13T07:33:48	6.5	86
53935	2024-02-13T07:43:48	6.6	86.5
53936	2024-02-13T07:53:48	6.5	86.5
53937	2024-02-13T08:03:48	6.7	86
53938	2024-02-13T08:13:48	6.7	86.5
53939	2024-02-13T08:23:48	6.9	86.5
53940	2024-02-13T08:33:48	6.9	86
53941	2024-02-13T08:43:48	6.9	86
53942	2024-02-13T08:53:48	7	85
53943	2024-02-13T09:03:48	7.4	84
53944	2024-02-13T09:13:48	7.7	82.5
53945	2024-02-13T09:23:48	8	82
53946	2024-02-13T09:33:48	8	81.5
53947	2024-02-13T09:43:48	8	81.5
53948	2024-02-13T09:53:48	8.2	81.5
53949	2024-02-13T10:03:48	7.9	82
53950	2024-02-13T10:13:48	7.8	82.5
53951	2024-02-13T10:23:48	7.7	82
53952	2024-02-13T10:33:48	7.8	82
53953	2024-02-13T10:43:48	8.2	81.5
53954	2024-02-13T10:53:48	8.6	77.5
53955	2024-02-13T11:03:48	8.9	76
53956	2024-02-13T11:13:48	9.3	73.5
53957	2024-02-13T11:23:48	9.3	73.5
53958	2024-02-13T11:33:48	9.7	72
53959	2024-02-13T11:43:48	9.9	72
53960	2024-02-13T11:53:48	10.4	71
53961	2024-02-13T12:03:48	10.3	69
53962	2024-02-13T12:13:48	10.5	67
53963	2024-02-13T12:23:48	11.5	64.5
53964	2024-02-13T12:33:48	13.7	56
53965	2024-02-13T12:43:48	14.6	52
53966	2024-02-13T12:53:48	15.2	50.5
53967	2024-02-13T13:03:48	15.8	47
53968	2024-02-13T13:13:48	16.2	46
53969	2024-02-13T13:23:48	16.6	44
53970	2024-02-13T13:33:48	17.4	43.5
53971	2024-02-13T13:43:48	17.9	40.5
53972	2024-02-13T13:53:48	19.3	40.5
53973	2024-02-13T14:03:48	17.7	43
53974	2024-02-13T14:13:48	15.5	46.5
53975	2024-02-13T14:23:48	14.4	51.5
53976	2024-02-13T14:33:48	14.1	51.5
53977	2024-02-13T14:43:48	14.7	49.5
53978	2024-02-13T14:53:48	14.9	51
53979	2024-02-13T15:03:48	14.4	48.5
53980	2024-02-13T15:13:48	14.1	49
53981	2024-02-13T15:23:48	13.6	53.5
53982	2024-02-13T15:33:48	13.3	53
53983	2024-02-13T15:43:48	13.1	53
53984	2024-02-13T15:53:48	12.7	53.5
53985	2024-02-13T16:03:48	12.3	55
53986	2024-02-13T16:13:48	12.2	58
53987	2024-02-13T16:23:48	12.1	56.5
53988	2024-02-13T16:33:48	11.8	57
53989	2024-02-13T16:43:48	11.9	63
53990	2024-02-13T16:53:48	11.8	65
53991	2024-02-13T17:03:48	11.4	67.5
53992	2024-02-13T17:13:48	11.2	70
53993	2024-02-13T17:23:48	10.9	71.5
53994	2024-02-13T17:33:48	10.7	69.5
53995	2024-02-13T17:43:48	10.5	69.5
53996	2024-02-13T17:53:48	10.3	70.5
53997	2024-02-13T18:03:48	10.2	73
53998	2024-02-13T18:13:48	9.9	74
53999	2024-02-13T18:23:48	9.7	73.5
54000	2024-02-13T18:33:48	9.4	75
54001	2024-02-13T18:43:48	9.2	75
54002	2024-02-13T18:53:48	9	75
54003	2024-02-13T19:03:48	8.8	74.5
54004	2024-02-13T19:13:48	8.7	75.5
54005	2024-02-13T19:23:48	8.5	75.5
54006	2024-02-13T19:33:48	8.3	77
54007	2024-02-13T19:43:48	8	76
54008	2024-02-13T19:53:48	7.9	76.5
54009	2024-02-13T20:13:48	7.7	78
54010	2024-02-13T20:23:48	7.5	77.5
54011	2024-02-13T20:33:48	7.4	77.5
54012	2024-02-13T20:43:48	7.4	79
54013	2024-02-13T20:53:48	7.4	77.5
54014	2024-02-13T21:04:08	7.2	78.5
54015	2024-02-13T21:13:48	7.2	79
54016	2024-02-13T21:23:48	7.1	79
54017	2024-02-13T21:33:48	6.9	80
54018	2024-02-13T21:43:48	6.7	82
54019	2024-02-13T21:53:48	6.6	81.5
54020	2024-02-13T22:03:48	6.4	81.5
54021	2024-02-13T22:13:48	6.2	81.5
54022	2024-02-13T22:23:48	6.1	82.5
54023	2024-02-13T22:33:48	6	81.5
54024	2024-02-13T22:43:48	6	81
54025	2024-02-13T22:53:48	6	81
54026	2024-02-13T23:03:48	5.9	82
54027	2024-02-13T23:13:48	5.8	83
54028	2024-02-13T23:23:48	5.8	83
54029	2024-02-13T23:33:48	5.9	82.5
54030	2024-02-13T23:43:48	5.8	83
54031	2024-02-13T23:53:48	5.9	84.5
54032	2024-02-14T00:23:13	5.9	84
54033	2024-02-14T00:23:13	6	83.5
54034	2024-02-14T00:24:30	6	82
54035	2024-02-14T00:33:48	6	83.5
54036	2024-02-14T00:43:48	6.1	84
54037	2024-02-14T00:53:48	6.2	84.5
54038	2024-02-14T01:03:47	6.1	84.5
54039	2024-02-14T01:13:48	6.1	85.5
54040	2024-02-14T01:23:48	6	85
54041	2024-02-14T01:33:47	5.9	85.5
54042	2024-02-14T01:43:47	5.6	86.5
54043	2024-02-14T01:53:47	5.5	86.5
54044	2024-02-14T02:03:47	5.4	86
54045	2024-02-14T02:13:48	5.4	87
54046	2024-02-14T02:23:47	5.1	86
54047	2024-02-14T02:33:47	5	86.5
54048	2024-02-14T02:43:47	4.9	86.5
54049	2024-02-14T02:53:47	4.9	86
54050	2024-02-14T03:03:47	5	87
54051	2024-02-14T03:13:47	5.2	85.5
54052	2024-02-14T03:23:47	5.2	86.5
54053	2024-02-14T03:33:47	5.3	87.5
54054	2024-02-14T03:43:47	5.2	87.5
54055	2024-02-14T03:53:47	5.4	87.5
54056	2024-02-14T04:03:47	5.3	87
54057	2024-02-14T04:13:47	5.6	87
54058	2024-02-14T04:23:47	5.7	85.5
54059	2024-02-14T04:33:47	6.3	82
54060	2024-02-14T04:43:47	6.9	78
54061	2024-02-14T04:53:47	7.4	76
54062	2024-02-14T05:03:47	7.7	75
54063	2024-02-14T05:13:47	7.8	74.5
54064	2024-02-14T05:23:47	8	73.5
54065	2024-02-14T05:33:47	8.1	73
54066	2024-02-14T05:43:47	8.3	71.5
54067	2024-02-14T05:53:47	8.4	71.5
54068	2024-02-14T06:03:47	8.6	71.5
54069	2024-02-14T06:13:47	8.6	72
54070	2024-02-14T06:23:47	8.8	71.5
54071	2024-02-14T06:33:47	8.8	72
54072	2024-02-14T06:43:47	8.8	72
54073	2024-02-14T06:53:47	8.9	73
54074	2024-02-14T07:03:47	8.9	73.5
54075	2024-02-14T07:13:47	8.8	73.5
54076	2024-02-14T07:23:47	8.9	74
54077	2024-02-14T07:33:47	8.8	74
54078	2024-02-14T07:43:47	9	74
54079	2024-02-14T07:53:47	9.1	73.5
54080	2024-02-14T08:03:47	9.2	73.5
54081	2024-02-14T08:13:47	9.3	74
54082	2024-02-14T08:23:47	9.4	73.5
54083	2024-02-14T08:33:47	9.6	72.5
54084	2024-02-14T08:43:47	9.9	71.5
54085	2024-02-14T08:53:47	10.2	72
54086	2024-02-14T09:03:47	10.5	72
54087	2024-02-14T09:13:47	10.6	71
54088	2024-02-14T09:23:47	10.7	70
54089	2024-02-14T09:33:47	10.9	70.5
54090	2024-02-14T09:43:47	11.2	69
54091	2024-02-14T09:53:47	11.4	68
54092	2024-02-14T10:03:47	11.6	67.5
54093	2024-02-14T10:13:47	11.7	67.5
54094	2024-02-14T10:23:47	11.9	67
54095	2024-02-14T10:33:47	12	67.5
54096	2024-02-14T10:43:47	11.9	67.5
54097	2024-02-14T10:53:47	12.1	68
54098	2024-02-14T11:03:47	12.3	68
54099	2024-02-14T11:13:47	12.6	68
54100	2024-02-14T11:23:47	13	68
54101	2024-02-14T11:33:47	13.3	68.5
54102	2024-02-14T11:43:47	13.5	68
54103	2024-02-14T11:53:47	13.7	67.5
54104	2024-02-14T12:03:47	13.9	67.5
54105	2024-02-14T12:13:47	14.2	67
54106	2024-02-14T12:23:47	13.9	67.5
54107	2024-02-14T12:33:47	13.6	69
54108	2024-02-14T12:43:47	13.7	69.5
54109	2024-02-14T12:53:47	13.6	69.5
54110	2024-02-14T13:03:47	13.7	70
54111	2024-02-14T13:13:47	13.5	70.5
54112	2024-02-14T13:23:47	13.7	70.5
54113	2024-02-14T13:33:47	13.7	71
54114	2024-02-14T13:43:47	13.6	71
54115	2024-02-14T13:53:47	13.7	71
54116	2024-02-14T14:03:47	13.8	71
54117	2024-02-14T14:23:47	13.8	71.5
54118	2024-02-14T14:33:47	13.8	72
54119	2024-02-14T14:43:47	13.8	71.5
54120	2024-02-14T14:53:47	13.8	72
54121	2024-02-14T15:03:47	13.8	72
54122	2024-02-14T15:13:47	13.7	73
54123	2024-02-14T15:23:47	13.6	73.5
54124	2024-02-14T15:33:47	13.7	73.5
54125	2024-02-14T15:43:47	13.7	73
54126	2024-02-14T15:53:47	13.6	74
54127	2024-02-14T16:03:47	13.5	74.5
54128	2024-02-14T16:13:47	13.5	74.5
54129	2024-02-14T16:23:47	13.5	75
54130	2024-02-14T16:33:47	13.4	76
54131	2024-02-14T16:43:47	13.3	77
54132	2024-02-14T16:53:47	13.1	77.5
54133	2024-02-14T17:03:47	13.2	78
54134	2024-02-14T17:13:47	13	79
54135	2024-02-14T17:23:47	13	79.5
54136	2024-02-14T17:33:47	12.9	79.5
54137	2024-02-14T17:43:47	12.9	80
54138	2024-02-14T17:53:47	12.9	80
54139	2024-02-14T18:03:47	12.9	80
54140	2024-02-14T18:13:46	12.9	80.5
54141	2024-02-14T18:23:47	12.9	80.5
54142	2024-02-14T18:33:47	13	80.5
54143	2024-02-14T18:43:46	13	80.5
54144	2024-02-14T18:53:46	12.9	80.5
54145	2024-02-14T19:03:46	13	80.5
54146	2024-02-14T19:13:46	12.9	80
54147	2024-02-14T19:23:46	13	79.5
54148	2024-02-14T19:33:46	13	79
54149	2024-02-14T19:43:46	13	79
54150	2024-02-14T19:53:46	12.9	79
54151	2024-02-14T20:03:46	13.1	79.5
54152	2024-02-14T20:13:46	13	79.5
54153	2024-02-14T20:23:46	13	80
54154	2024-02-14T20:33:46	12.9	79.5
54155	2024-02-14T20:43:46	12.9	80
54156	2024-02-14T20:53:46	12.8	80.5
54157	2024-02-14T21:03:46	12.7	80.5
54158	2024-02-14T21:13:46	12.8	81.5
54159	2024-02-14T21:23:46	12.8	82
54160	2024-02-14T21:33:46	12.7	83
54161	2024-02-14T21:43:46	12.7	83
54162	2024-02-14T21:53:46	12.7	82
54163	2024-02-14T22:03:46	12.6	81.5
54164	2024-02-14T22:13:46	12.8	80
54165	2024-02-14T22:23:46	12.9	79
54166	2024-02-14T22:33:46	13	78.5
54167	2024-02-14T22:43:46	13	78.5
54168	2024-02-14T22:53:46	13	79
54169	2024-02-14T23:03:46	12.9	79
54170	2024-02-14T23:13:46	12.8	79.5
54171	2024-02-14T23:24:03	12.5	80
54172	2024-02-14T23:33:46	12.4	80.5
54173	2024-02-14T23:43:46	12.3	81
54174	2024-02-14T23:53:46	12.3	81
54175	2024-02-15T00:03:46	12.1	82
54176	2024-02-15T00:22:05	11.9	82
54177	2024-02-15T00:23:46	11.9	82.5
54178	2024-02-15T00:33:46	11.5	83.5
54179	2024-02-15T00:43:46	11.2	85
54180	2024-02-15T00:53:46	11	85
54181	2024-02-15T01:03:46	10.9	84.5
54182	2024-02-15T01:13:46	10.8	84
54183	2024-02-15T01:23:46	10.4	84.5
54184	2024-02-15T01:33:46	10.4	85.5
54185	2024-02-15T01:43:46	10.5	85
54186	2024-02-15T01:53:46	10.6	85
54187	2024-02-15T02:03:46	10.7	85.5
54188	2024-02-15T02:13:46	10.7	85
54189	2024-02-15T02:23:46	10.7	85
54190	2024-02-15T02:33:46	10.7	85.5
54191	2024-02-15T02:43:46	10.7	86.5
54192	2024-02-15T02:53:46	10.9	85.5
54193	2024-02-15T03:03:46	10.8	86
54194	2024-02-15T03:13:46	10.8	86.5
54195	2024-02-15T03:23:46	10.5	86.5
54196	2024-02-15T03:33:46	10.7	87.5
54197	2024-02-15T03:43:46	10.8	87.5
54198	2024-02-15T03:53:46	10.7	87
54199	2024-02-15T04:03:46	10.8	85.5
54200	2024-02-15T04:13:46	10.9	87
54201	2024-02-15T04:23:46	10.9	87.5
54202	2024-02-15T04:33:46	10.7	87.5
54203	2024-02-15T04:43:46	10.8	87
54204	2024-02-15T04:53:46	10.7	88
54205	2024-02-15T05:03:46	10.8	87.5
54206	2024-02-15T05:13:46	10.8	87.5
54207	2024-02-15T05:23:46	10.9	87.5
54208	2024-02-15T05:33:46	10.9	87
54209	2024-02-15T05:43:46	10.7	87.5
54210	2024-02-15T05:53:46	10.8	88
54211	2024-02-15T06:03:46	10.7	87.5
54212	2024-02-15T06:13:46	10.6	87.5
54213	2024-02-15T06:23:46	10.7	87.5
54214	2024-02-15T06:33:46	10.5	88
54215	2024-02-15T06:43:46	10.3	88.5
54216	2024-02-15T06:53:46	10.1	88.5
54217	2024-02-15T07:03:46	10.1	89
54218	2024-02-15T07:13:46	10.1	89.5
54219	2024-02-15T07:23:46	10.1	89
54220	2024-02-15T07:33:46	10.3	88
54221	2024-02-15T07:43:46	10.3	87.5
54222	2024-02-15T07:53:46	10.4	86.5
54223	2024-02-15T08:03:46	10.5	87.5
54224	2024-02-15T08:13:46	10.5	88
54225	2024-02-15T08:23:46	10.5	87.5
54226	2024-02-15T08:33:46	10.5	87.5
54227	2024-02-15T08:43:46	10.8	85.5
54228	2024-02-15T08:53:46	11	83.5
54229	2024-02-15T09:03:46	11.3	83
54230	2024-02-15T09:13:46	11.4	83
54231	2024-02-15T09:23:46	11.6	83
54232	2024-02-15T09:33:46	11.9	81
54233	2024-02-15T09:43:46	12.2	79
54234	2024-02-15T09:53:46	12.6	78
54235	2024-02-15T10:03:46	12.9	78.5
54236	2024-02-15T10:13:45	13.3	77
54237	2024-02-15T10:23:45	13.6	75
54238	2024-02-15T10:33:45	13.9	74
54239	2024-02-15T10:43:45	14.3	73
54240	2024-02-15T10:53:45	14.6	72.5
54241	2024-02-15T11:03:45	14.8	71.5
54242	2024-02-15T11:13:45	15	67
54243	2024-02-15T11:23:45	15.3	67.5
54244	2024-02-15T11:33:45	15.6	66.5
54245	2024-02-15T11:43:45	15.7	65.5
54246	2024-02-15T11:53:45	16	65
54247	2024-02-15T12:03:45	16.2	64.5
54248	2024-02-15T12:13:45	16.5	62.5
54249	2024-02-15T12:23:45	17.2	62
54250	2024-02-15T12:33:45	17.5	61
54251	2024-02-15T12:43:45	17.4	60.5
54252	2024-02-15T12:53:45	18	59
54253	2024-02-15T13:03:45	18.3	58.5
54254	2024-02-15T13:13:45	18.3	59.5
54255	2024-02-15T13:23:45	18.3	59
54256	2024-02-15T13:33:45	18.9	58
54257	2024-02-15T13:43:45	19.2	56
54258	2024-02-15T13:53:45	19.6	54
54259	2024-02-15T14:03:45	20.2	55
54260	2024-02-15T14:14:07	20	55
54261	2024-02-15T14:23:45	19.9	54.5
54262	2024-02-15T14:33:45	19.9	54.5
54263	2024-02-15T14:43:45	20	54.5
54264	2024-02-15T14:53:45	19.6	55.5
54265	2024-02-15T15:03:45	19.1	56.5
54266	2024-02-15T15:13:45	19	57.5
54267	2024-02-15T15:23:45	18.8	58.5
54268	2024-02-15T15:33:45	18.3	59
54269	2024-02-15T15:43:45	18.1	59
54270	2024-02-15T15:53:45	17.7	61.5
54271	2024-02-15T16:03:45	17.4	63.5
54272	2024-02-15T16:13:45	17.1	65.5
54273	2024-02-15T16:23:45	16.8	64
54274	2024-02-15T16:33:45	16.6	62.5
54275	2024-02-15T16:43:45	16.4	63.5
54276	2024-02-15T16:53:45	16.3	66.5
54277	2024-02-15T17:03:45	16	66
54278	2024-02-15T17:13:45	16.1	67.5
54279	2024-02-15T17:23:45	15.8	69
54280	2024-02-15T17:33:45	15.6	69.5
54281	2024-02-15T17:43:45	15.5	72.5
54282	2024-02-15T17:53:45	15.5	71.5
54283	2024-02-15T18:03:45	15.4	71.5
54284	2024-02-15T18:13:45	15.1	72
54285	2024-02-15T18:23:45	15.2	72.5
54286	2024-02-15T18:33:45	14.7	73
54287	2024-02-15T18:43:45	14.6	74.5
54288	2024-02-15T18:53:45	14.5	74.5
54289	2024-02-15T19:03:45	14.5	73
54290	2024-02-15T19:13:45	14.5	75.5
54291	2024-02-15T19:23:45	14.3	76
54292	2024-02-15T19:33:45	14	75.5
54293	2024-02-15T19:43:45	14	76
54294	2024-02-15T19:53:45	13.5	76.5
54295	2024-02-15T20:03:45	13.6	79
54296	2024-02-15T20:13:45	13.5	78.5
54297	2024-02-15T20:23:45	13.4	76.5
54298	2024-02-15T20:33:45	13.2	76.5
54299	2024-02-15T20:43:45	13.2	78
54300	2024-02-15T20:53:45	13	78
54301	2024-02-15T21:03:45	12.8	78.5
54302	2024-02-15T21:13:45	12.7	80
54303	2024-02-15T21:23:45	12.6	79.5
54304	2024-02-15T21:33:45	12.6	80.5
54305	2024-02-15T21:43:45	12.5	81
54306	2024-02-15T21:53:45	12.3	80.5
54307	2024-02-15T22:03:45	12.1	82
54308	2024-02-15T22:13:45	12.1	81
54309	2024-02-15T22:23:45	12	81
54310	2024-02-15T22:33:45	12	81.5
54311	2024-02-15T22:43:44	12.1	81.5
54312	2024-02-15T22:53:45	12.1	81.5
54313	2024-02-15T23:03:44	11.9	81.5
54314	2024-02-15T23:13:44	12	82
54315	2024-02-15T23:23:44	11.9	82
54316	2024-02-15T23:33:44	11.9	82.5
54317	2024-02-15T23:43:44	11.9	82.5
54318	2024-02-15T23:53:44	11.9	83
54319	2024-02-16T00:03:44	11.9	82
54320	2024-02-16T00:24:08	11.8	82.5
54321	2024-02-16T00:24:08	11.7	83
54322	2024-02-16T00:33:44	11.6	83.5
54323	2024-02-16T00:43:44	11.7	83.5
54324	2024-02-16T00:53:44	11.7	83.5
54325	2024-02-16T01:03:44	11.7	82.5
54326	2024-02-16T01:13:44	11.6	84.5
54327	2024-02-16T01:23:44	11.5	84.5
54328	2024-02-16T01:33:44	11.5	84.5
54329	2024-02-16T01:43:44	11.3	85
54330	2024-02-16T01:53:44	11.2	85
54331	2024-02-16T02:03:44	11.2	85.5
54332	2024-02-16T02:13:44	11	84
54333	2024-02-16T02:23:44	10.9	84.5
54334	2024-02-16T02:33:44	10.8	86
54335	2024-02-16T02:43:44	10.8	85.5
54336	2024-02-16T02:53:44	10.7	86
54337	2024-02-16T03:03:44	10.8	86.5
54338	2024-02-16T03:13:44	10.7	87
54339	2024-02-16T03:23:44	10.7	86.5
54340	2024-02-16T03:33:44	10.6	87
54341	2024-02-16T03:43:44	10.6	86.5
54342	2024-02-16T03:53:44	10.5	86.5
54343	2024-02-16T04:03:44	10.3	86.5
54344	2024-02-16T04:13:44	10.3	86.5
54345	2024-02-16T04:23:44	10.1	87
54346	2024-02-16T04:33:44	10.1	87
54347	2024-02-16T04:43:44	10	87
54348	2024-02-16T04:53:44	9.9	87
54349	2024-02-16T05:03:44	9.9	85.5
54350	2024-02-16T05:13:44	10	85
54351	2024-02-16T05:23:44	10.1	85
54352	2024-02-16T05:33:44	9.7	85.5
54353	2024-02-16T05:43:44	9.7	86
54354	2024-02-16T05:53:44	9.8	87
54355	2024-02-16T06:03:44	9.7	86
54356	2024-02-16T06:13:44	9.7	86
54357	2024-02-16T06:23:44	9.7	86.5
54358	2024-02-16T06:33:44	9.8	86.5
54359	2024-02-16T06:43:44	9.6	86.5
54360	2024-02-16T06:53:44	9.7	86.5
54361	2024-02-16T07:03:44	9.5	87
54362	2024-02-16T07:13:44	9.7	87
54363	2024-02-16T07:23:44	10	86.5
54364	2024-02-16T07:33:44	10.1	86
54365	2024-02-16T07:43:44	10.5	85.5
54366	2024-02-16T07:53:44	10.6	85
54367	2024-02-16T08:03:44	10.9	85
54368	2024-02-16T08:13:44	11	85.5
54369	2024-02-16T08:23:44	10.9	86
54370	2024-02-16T08:33:44	11.1	85
54371	2024-02-16T08:53:44	11.6	80.5
54372	2024-02-16T09:03:44	11.8	79.5
54373	2024-02-16T09:13:44	12	78
54374	2024-02-16T09:23:44	12.3	77.5
54375	2024-02-16T09:33:44	12.5	76.5
54376	2024-02-16T09:53:44	12.8	76.5
54377	2024-02-16T10:03:44	13.3	73.5
54378	2024-02-16T10:13:44	13.8	71
54379	2024-02-16T10:23:44	14.3	70
54380	2024-02-16T10:33:44	14.6	69
54381	2024-02-16T10:43:44	14.9	68.5
54382	2024-02-16T11:03:44	16	65
54383	2024-02-16T11:13:44	16.7	62
54384	2024-02-16T11:23:44	17	60.5
54385	2024-02-16T11:33:44	17.1	59
54386	2024-02-16T11:43:44	17.3	59
54387	2024-02-16T11:53:44	17.5	60
54388	2024-02-16T12:03:44	17.5	59.5
54389	2024-02-16T12:13:44	17.5	59.5
54390	2024-02-16T12:23:44	17.6	59.5
54391	2024-02-16T12:33:44	17.4	61
54392	2024-02-16T12:43:44	17.3	61.5
54393	2024-02-16T12:53:44	17.2	62
54394	2024-02-16T13:03:44	17.4	63
54395	2024-02-16T13:13:44	17.5	63.5
54396	2024-02-16T13:23:44	17.7	61.5
54397	2024-02-16T13:33:44	17.7	62.5
54398	2024-02-16T13:43:44	17.6	62.5
54399	2024-02-16T13:53:44	17.6	61
54400	2024-02-16T14:03:44	17.7	61.5
54401	2024-02-16T14:13:43	17.6	61.5
54402	2024-02-16T14:23:43	17.4	63.5
54403	2024-02-16T14:33:43	17.1	65.5
54404	2024-02-16T14:43:43	16.9	66.5
54405	2024-02-16T14:53:43	16.7	67.5
54406	2024-02-16T15:03:43	16.4	69
54407	2024-02-16T15:13:43	16.1	70.5
54408	2024-02-16T15:23:43	14.7	82.5
54409	2024-02-16T15:33:43	14.2	84.5
54410	2024-02-16T15:43:43	14	86
54411	2024-02-16T15:53:43	14	85
54412	2024-02-16T16:03:43	14	85
54413	2024-02-16T16:13:43	14	84
54414	2024-02-16T16:23:43	13.8	87.5
54415	2024-02-16T16:33:43	13	92.5
54416	2024-02-16T16:43:43	12.5	97.5
54417	2024-02-16T16:53:43	12.6	98.5
54418	2024-02-16T17:03:43	12.5	99
54419	2024-02-16T17:13:43	12.5	99.5
54420	2024-02-16T17:23:43	12.5	99.5
54421	2024-02-16T17:33:43	12.5	99.5
54422	2024-02-16T17:43:43	12.6	99.5
54423	2024-02-16T17:53:43	12.6	99
54424	2024-02-16T18:03:43	12.7	99.5
54425	2024-02-16T18:13:43	12.5	99
54426	2024-02-16T18:23:43	12.5	99.5
54427	2024-02-16T18:33:43	12.6	99.5
54428	2024-02-16T18:43:43	12.6	99.5
54429	2024-02-16T18:53:43	12.6	99
54430	2024-02-16T19:03:43	12.4	99
54431	2024-02-16T19:13:43	12.5	99.5
54432	2024-02-16T19:23:43	12.4	99.5
54433	2024-02-16T19:33:43	12.3	99.5
54434	2024-02-16T19:43:43	12.1	99
54435	2024-02-16T19:53:43	12.2	99
54436	2024-02-16T20:03:43	12.1	99.5
54437	2024-02-16T20:13:43	12.2	99.5
54438	2024-02-16T20:23:43	12.1	99.5
54439	2024-02-16T20:33:43	12.1	99
54440	2024-02-16T20:43:43	12	99
54441	2024-02-16T20:53:43	12	99
54442	2024-02-16T21:03:43	12	98
54443	2024-02-16T21:13:43	12	97.5
54444	2024-02-16T21:23:43	11.9	98
54445	2024-02-16T21:33:43	12	97.5
54446	2024-02-16T21:43:43	11.9	97.5
54447	2024-02-16T21:53:43	12	97.5
54448	2024-02-16T22:03:43	11.9	97.5
54449	2024-02-16T22:13:43	12	97.5
54450	2024-02-16T22:23:43	11.9	97.5
54451	2024-02-16T22:33:43	11.9	97.5
54452	2024-02-16T22:43:43	11.9	96.5
54453	2024-02-16T22:53:43	11.9	97
54454	2024-02-16T23:03:43	11.9	97
54455	2024-02-16T23:13:43	12	97.5
54456	2024-02-16T23:23:43	12	97.5
54457	2024-02-16T23:33:43	11.9	98
54458	2024-02-16T23:43:43	11.9	98.5
54459	2024-02-16T23:53:43	11.8	98.5
54460	2024-02-17T00:03:43	11.9	98.5
54461	2024-02-17T00:24:07	11.7	99
54462	2024-02-17T00:24:07	11.9	99.5
54463	2024-02-17T00:33:43	11.8	100
54464	2024-02-17T00:43:43	11.8	100
54465	2024-02-17T00:53:43	11.8	100
54466	2024-02-17T01:03:43	11.7	100
54467	2024-02-17T01:13:43	11.7	100
54468	2024-02-17T01:23:43	11.7	100
54469	2024-02-17T01:33:43	11.8	100
54470	2024-02-17T01:43:43	11.8	100
54471	2024-02-17T01:53:43	11.9	100
54472	2024-02-17T02:03:43	11.8	100
54473	2024-02-17T02:13:43	11.9	100
54474	2024-02-17T02:23:43	11.9	100
54475	2024-02-17T02:33:43	11.9	100
54476	2024-02-17T02:43:43	12	94.5
54477	2024-02-17T02:53:43	11.9	95
54478	2024-02-17T03:03:43	11.7	95
54479	2024-02-17T03:13:43	11.6	95
54480	2024-02-17T03:23:43	11.6	95
54481	2024-02-17T03:33:43	11.6	95
54482	2024-02-17T03:43:43	11.5	95
54483	2024-02-17T03:53:43	11.5	95
54484	2024-02-17T04:03:43	11.4	95
54485	2024-02-17T04:13:43	11.5	95
54486	2024-02-17T04:23:43	11.5	95
54487	2024-02-17T04:33:42	11.5	95
54488	2024-02-17T04:43:43	11.5	95
54489	2024-02-17T04:53:42	11.4	95
54490	2024-02-17T05:03:42	11.3	95
54491	2024-02-17T05:13:42	11.4	95
54492	2024-02-17T05:23:42	11.2	95
54493	2024-02-17T05:33:42	11.1	95
54494	2024-02-17T05:43:42	10.8	95
54495	2024-02-17T05:53:42	10.8	95
54496	2024-02-17T06:03:42	10.9	95
54497	2024-02-17T06:13:42	10.7	95
54498	2024-02-17T06:23:42	10.8	95
54499	2024-02-17T06:33:42	10.8	95
54500	2024-02-17T06:43:42	10.9	95
54501	2024-02-17T06:53:42	10.9	95
54502	2024-02-17T07:03:42	10.9	95
54503	2024-02-17T07:13:42	10.9	95
54504	2024-02-17T07:23:42	10.7	95
54505	2024-02-17T07:33:42	10.8	95
54506	2024-02-17T07:43:42	10.8	95
54507	2024-02-17T07:53:42	10.6	95
54508	2024-02-17T08:03:42	10.6	95
54509	2024-02-17T08:13:42	10.8	95
54510	2024-02-17T08:23:42	11	95
54511	2024-02-17T08:33:42	11.1	95
54512	2024-02-17T08:43:42	11.2	95
54513	2024-02-17T08:53:42	11.1	95
54514	2024-02-17T09:03:42	10.9	95
54515	2024-02-17T09:13:42	10.8	95
54516	2024-02-17T09:23:42	11.1	95
54517	2024-02-17T09:33:42	11.6	95
54518	2024-02-17T09:43:42	11.9	95
54519	2024-02-17T09:53:42	12.2	95
54520	2024-02-17T10:03:42	12.2	95
54521	2024-02-17T10:13:42	12.1	95
54522	2024-02-17T10:23:42	12	95
54523	2024-02-17T10:33:42	12.1	95
54524	2024-02-17T10:43:42	11.8	95
54525	2024-02-17T10:53:42	11.9	95
54526	2024-02-17T11:03:42	12.1	95
54527	2024-02-17T11:13:42	12.1	95
54528	2024-02-17T11:23:42	12.2	95
54529	2024-02-17T11:33:42	12.5	95
54530	2024-02-17T11:43:42	13.1	95
54531	2024-02-17T11:53:42	13.6	95
54532	2024-02-17T12:03:42	13.6	95
54533	2024-02-17T12:13:42	13.8	95
54534	2024-02-17T12:33:42	17.5	94.5
54535	2024-02-17T12:43:42	18.9	94.5
54536	2024-02-17T12:53:42	19.4	94.5
54537	2024-02-17T13:03:42	19.5	94.5
54538	2024-02-17T13:13:42	20.9	94.5
54539	2024-02-17T13:23:42	21.5	94.5
54540	2024-02-17T13:33:42	22.7	94.5
54541	2024-02-17T13:43:42	24.1	94.5
54542	2024-02-17T13:53:42	23.6	95
54543	2024-02-17T14:03:42	23.2	95
54544	2024-02-17T14:13:42	23.6	95
54545	2024-02-17T14:23:42	22.6	95
54546	2024-02-17T14:33:42	21	98
54547	2024-02-17T14:43:42	20.7	99.5
54548	2024-02-17T14:53:42	19.3	98
54549	2024-02-17T15:03:42	18	98
54550	2024-02-17T15:13:42	17.7	98.5
54551	2024-02-17T15:23:42	17.4	99
54552	2024-02-17T15:33:42	17.6	99.5
54553	2024-02-17T15:43:42	17.5	99.5
54554	2024-02-17T15:53:42	17	100
54555	2024-02-17T16:03:42	17	100
54556	2024-02-17T16:23:42	17.3	100
54557	2024-02-17T16:33:42	16.3	95.5
54558	2024-02-17T16:43:42	15.5	89
54559	2024-02-17T16:53:42	15.2	89
54560	2024-02-17T17:03:42	14.8	89.5
54561	2024-02-17T17:13:42	14.3	88.5
54562	2024-02-17T17:23:42	14.2	85.5
54563	2024-02-17T17:33:42	13.9	75.5
54564	2024-02-17T17:43:42	13.8	77
54565	2024-02-17T17:53:42	13.8	76.5
54566	2024-02-17T18:03:42	13.6	76.5
54567	2024-02-17T18:13:42	13	77.5
54568	2024-02-17T18:23:41	12.7	79
54569	2024-02-17T18:33:41	12.6	81
54570	2024-02-17T18:43:41	12.3	80.5
54571	2024-02-17T18:53:41	12.2	79.5
54572	2024-02-17T19:03:41	11.9	79.5
54573	2024-02-17T19:13:41	11.7	83
54574	2024-02-17T19:23:41	11.4	84.5
54575	2024-02-17T19:33:41	11.3	82.5
54576	2024-02-17T19:43:41	11.1	83.5
54577	2024-02-17T19:53:41	10.7	84
54578	2024-02-17T20:03:41	10.6	83.5
54579	2024-02-17T20:13:41	10.5	85
54580	2024-02-17T20:23:41	10.2	85
54581	2024-02-17T20:33:41	9.9	84.5
54582	2024-02-17T20:43:41	9.8	86.5
54583	2024-02-17T20:53:42	9.8	85.5
54584	2024-02-17T21:03:41	9.5	86
54585	2024-02-17T21:13:41	9.4	87
54586	2024-02-17T21:23:41	9.3	84.5
54587	2024-02-17T21:33:41	9.2	85
54588	2024-02-17T21:43:41	9.2	86
54589	2024-02-17T21:53:41	8.9	87.5
54590	2024-02-17T22:03:41	8.9	86
54591	2024-02-17T22:13:41	8.8	87
54592	2024-02-17T22:23:41	8.5	87.5
54593	2024-02-17T22:33:41	8.3	88
54594	2024-02-17T22:43:41	8.2	88.5
54595	2024-02-17T22:53:41	8.2	87.5
54596	2024-02-17T23:03:41	8.1	88
54597	2024-02-17T23:13:41	8	87.5
54598	2024-02-17T23:23:41	8.1	88
54599	2024-02-17T23:33:41	8	87.5
54600	2024-02-17T23:43:41	7.9	87.5
54601	2024-02-17T23:53:41	7.8	88.5
54602	2024-02-18T00:03:41	7.8	90
54603	2024-02-18T00:23:22	7.9	90
54604	2024-02-18T00:23:43	7.9	89.5
54605	2024-02-18T00:33:41	7.9	89
54606	2024-02-18T00:43:41	7.7	89
54607	2024-02-18T00:53:41	7.7	89
54608	2024-02-18T01:03:41	7.7	89.5
54609	2024-02-18T01:13:41	7.6	90
54610	2024-02-18T01:23:41	7.5	90
54611	2024-02-18T01:33:41	7.4	90
54612	2024-02-18T01:43:41	7.5	90.5
54613	2024-02-18T01:53:41	7.4	91
54614	2024-02-18T02:03:41	7.6	91
54615	2024-02-18T02:13:41	7.5	90.5
54616	2024-02-18T02:23:41	7.4	90
54617	2024-02-18T02:43:41	7.5	91
54618	2024-02-18T02:53:41	7.4	89.5
54619	2024-02-18T03:03:41	7.4	90.5
54620	2024-02-18T03:13:41	7.4	91
54621	2024-02-18T03:23:41	7.1	91.5
54622	2024-02-18T03:33:41	7	91.5
54623	2024-02-18T03:43:41	7	92
54624	2024-02-18T03:53:41	6.9	91.5
54625	2024-02-18T04:03:41	6.8	91
54626	2024-02-18T04:13:41	6.9	92
54627	2024-02-18T04:23:41	6.8	92
54628	2024-02-18T04:33:41	6.8	91.5
54629	2024-02-18T04:43:41	6.8	92
54630	2024-02-18T04:53:41	6.5	92
54631	2024-02-18T05:03:41	6.5	92.5
54632	2024-02-18T05:13:41	6.3	93
54633	2024-02-18T05:23:41	6.4	93.5
54634	2024-02-18T05:33:41	6.5	92.5
54635	2024-02-18T05:43:41	6.5	91.5
54636	2024-02-18T05:53:41	6.4	92
54637	2024-02-18T06:03:41	6.3	92
54638	2024-02-18T06:13:41	6.1	92.5
54639	2024-02-18T06:23:41	6	92.5
54640	2024-02-18T06:33:41	5.9	92.5
54641	2024-02-18T06:43:41	6.2	93
54642	2024-02-18T06:53:41	6.3	93
54643	2024-02-18T07:03:41	6.6	93
54644	2024-02-18T07:13:41	6.7	92.5
54645	2024-02-18T07:23:41	6.9	91.5
54646	2024-02-18T07:33:41	7.2	92.5
54647	2024-02-18T07:43:41	7.3	92.5
54648	2024-02-18T07:53:41	7.6	91.5
54649	2024-02-18T08:03:41	7.9	91
54650	2024-02-18T08:13:41	8	91
54651	2024-02-18T08:23:41	8.1	90
54652	2024-02-18T08:33:41	8.2	89.5
54653	2024-02-18T08:43:41	8.3	89
54654	2024-02-18T08:53:41	8.5	89.5
54655	2024-02-18T09:03:41	8.7	90
54656	2024-02-18T09:13:41	9	89.5
54657	2024-02-18T09:23:41	9.3	88.5
54658	2024-02-18T09:33:41	9.3	86.5
54659	2024-02-18T09:43:41	9.4	87
54660	2024-02-18T09:53:41	9.6	86
54661	2024-02-18T10:03:41	9.7	85
54662	2024-02-18T10:13:41	10	83
54663	2024-02-18T10:23:41	10.1	83
54664	2024-02-18T10:33:41	10.4	82.5
54665	2024-02-18T10:43:41	10.7	80.5
54666	2024-02-18T10:53:41	10.8	80.5
54667	2024-02-18T11:03:41	11	79
54668	2024-02-18T11:13:41	11.2	79
54669	2024-02-18T11:23:41	11.2	77
54670	2024-02-18T11:33:41	11.3	77.5
54671	2024-02-18T11:43:41	11.3	77.5
54672	2024-02-18T11:53:41	11.1	78.5
54673	2024-02-18T12:03:41	11.1	78
54674	2024-02-18T12:13:41	11.2	78.5
54675	2024-02-18T12:23:41	11.2	78.5
54676	2024-02-18T12:33:41	11.3	79
54677	2024-02-18T12:43:41	11.2	80
54678	2024-02-18T12:53:41	11.3	80
54679	2024-02-18T13:03:41	11.6	79.5
54680	2024-02-18T13:13:41	11.6	79.5
54681	2024-02-18T13:23:41	11.6	79
54682	2024-02-18T13:33:41	11.6	79
54683	2024-02-18T13:43:41	11.6	79.5
54684	2024-02-18T13:53:57	11.4	79.5
54685	2024-02-18T14:03:41	11.2	79
54686	2024-02-18T14:13:41	11.1	79.5
54687	2024-02-18T14:23:41	11.2	79.5
54688	2024-02-18T14:33:40	11.2	79
54689	2024-02-18T14:43:40	11.3	78.5
54690	2024-02-18T14:53:40	11.2	79
54691	2024-02-18T15:03:40	11.2	78.5
54692	2024-02-18T15:13:40	11.2	79
54693	2024-02-18T15:23:40	11.1	79.5
54694	2024-02-18T15:33:40	11.1	79.5
54695	2024-02-18T15:43:40	11.1	80
54696	2024-02-18T15:53:40	11.1	80.5
54697	2024-02-18T16:03:40	10.9	81.5
54698	2024-02-18T16:13:40	10.8	82
54699	2024-02-18T16:23:40	10.8	82.5
54700	2024-02-18T16:33:40	10.7	82.5
54701	2024-02-18T16:43:40	10.7	83
54702	2024-02-18T16:53:40	10.8	83.5
54703	2024-02-18T17:03:40	10.6	83.5
54704	2024-02-18T17:13:40	10.6	84
54705	2024-02-18T17:23:40	10.6	84.5
54706	2024-02-18T17:33:40	10.6	84.5
54707	2024-02-18T17:43:40	10.4	87
54708	2024-02-18T17:53:40	9.8	97
54709	2024-02-18T18:03:40	9.4	100
54710	2024-02-18T18:13:40	9.3	100
54711	2024-02-18T18:23:40	9	100
54712	2024-02-18T18:33:40	8.9	100
54713	2024-02-18T18:43:40	8.8	100
54714	2024-02-18T18:53:40	8.7	100
54715	2024-02-18T19:03:40	8.8	100
54716	2024-02-18T19:13:40	8.8	100
54717	2024-02-18T19:23:40	8.7	100
54718	2024-02-18T19:33:40	8.4	100
54719	2024-02-18T19:43:40	8.5	100
54720	2024-02-18T19:53:40	8.5	100
54721	2024-02-18T20:03:40	8.5	100
54722	2024-02-18T20:13:40	8.6	100
54723	2024-02-18T20:23:40	8.7	100
54724	2024-02-18T20:33:40	8.5	100
54725	2024-02-18T20:43:40	8.5	100
54726	2024-02-18T20:53:40	8.4	100
54727	2024-02-18T21:03:41	8.4	100
54728	2024-02-18T21:13:40	8.3	100
54729	2024-02-18T21:23:40	8.3	100
54730	2024-02-18T21:33:40	8.3	100
54731	2024-02-18T21:43:40	8.3	100
54732	2024-02-18T21:53:40	8.3	100
54733	2024-02-18T22:03:40	8.2	100
54734	2024-02-18T22:13:40	8.3	100
54735	2024-02-18T22:23:40	8.3	100
54736	2024-02-18T22:33:40	8.5	100
54737	2024-02-18T22:43:40	8.6	100
54738	2024-02-18T22:53:40	8.6	100
54739	2024-02-18T23:03:40	8.5	100
54740	2024-02-18T23:13:40	8.5	100
54741	2024-02-18T23:23:40	8.5	100
54742	2024-02-18T23:33:40	8.5	100
54743	2024-02-18T23:43:40	8.6	100
54744	2024-02-18T23:53:40	8.6	100
54745	2024-02-19T00:03:40	8.6	100
54746	2024-02-19T00:22:57	8.7	100
54747	2024-02-19T00:23:51	8.6	99
54748	2024-02-19T00:33:40	8.7	99
54749	2024-02-19T00:43:40	8.7	98
54750	2024-02-19T00:53:40	8.7	98
54751	2024-02-19T01:03:40	8.7	97
54752	2024-02-19T01:13:40	8.7	96.5
54753	2024-02-19T01:23:40	8.7	96
54754	2024-02-19T01:33:40	8.9	96
54755	2024-02-19T01:43:40	9	96
54756	2024-02-19T01:53:40	9	96
54757	2024-02-19T02:03:40	9.1	96
54758	2024-02-19T02:13:40	9.1	96
54759	2024-02-19T02:23:40	9	96
54760	2024-02-19T02:33:40	9	96
54761	2024-02-19T02:43:40	9.1	96
54762	2024-02-19T02:53:40	8.9	96
54763	2024-02-19T03:03:40	8.9	96
54764	2024-02-19T03:13:40	8.9	96
54765	2024-02-19T03:23:40	8.9	96
54766	2024-02-19T03:33:40	8.8	96
54767	2024-02-19T03:43:40	9	96
54768	2024-02-19T03:53:40	8.9	96
54769	2024-02-19T04:03:40	8.9	96
54770	2024-02-19T04:13:40	8.8	96
54771	2024-02-19T04:23:40	8.8	96
54772	2024-02-19T04:33:40	8.8	96
54773	2024-02-19T04:43:40	9	96
54774	2024-02-19T04:53:40	9.1	96
54775	2024-02-19T05:03:40	9	96
54776	2024-02-19T05:13:40	8.9	96
54777	2024-02-19T05:23:40	8.9	96
54778	2024-02-19T05:33:40	8.9	96
54779	2024-02-19T05:43:40	8.8	96
54780	2024-02-19T05:53:40	8.9	96
54781	2024-02-19T06:03:40	8.8	96
54782	2024-02-19T06:13:40	8.7	96
54783	2024-02-19T06:23:40	8.7	96
54784	2024-02-19T06:33:40	8.7	96
54785	2024-02-19T06:43:40	8.8	96
54786	2024-02-19T06:53:40	8.7	96
54787	2024-02-19T07:03:40	8.6	96
54788	2024-02-19T07:13:40	8.6	96
54789	2024-02-19T07:23:40	8.5	96
54790	2024-02-19T07:33:40	8.7	96
54791	2024-02-19T07:43:40	8.7	96
54792	2024-02-19T07:53:40	8.8	96
54793	2024-02-19T08:03:40	8.9	96
54794	2024-02-19T08:13:40	8.8	96
54795	2024-02-19T08:23:40	8.9	96
54796	2024-02-19T08:33:40	9	96
54797	2024-02-19T08:43:40	9.1	96
54798	2024-02-19T08:53:40	9.2	96
54799	2024-02-19T09:03:40	9.2	96
54800	2024-02-19T09:13:39	9.3	95.5
54801	2024-02-19T09:23:39	9.3	96
54802	2024-02-19T09:33:39	9.4	96
54803	2024-02-19T09:43:39	9.4	95.5
54804	2024-02-19T09:53:39	9.5	96
54805	2024-02-19T10:03:39	9.7	95.5
54806	2024-02-19T10:13:39	9.9	96
54807	2024-02-19T10:23:39	10.1	95.5
54808	2024-02-19T10:33:39	10.2	96
54809	2024-02-19T10:43:39	10.4	95.5
54810	2024-02-19T10:53:39	10.5	95.5
54811	2024-02-19T11:03:39	10.5	95.5
54812	2024-02-19T11:13:39	10.6	95.5
54813	2024-02-19T11:23:39	10.6	95.5
54814	2024-02-19T11:33:39	10.9	95.5
54815	2024-02-19T11:43:39	11	95.5
54816	2024-02-19T11:53:39	11.3	95.5
54817	2024-02-19T12:03:39	11.6	95.5
54818	2024-02-19T12:13:39	11.4	95.5
54819	2024-02-19T12:23:39	11.4	95.5
54820	2024-02-19T12:33:39	11.4	95.5
54821	2024-02-19T12:43:39	11.7	95.5
54822	2024-02-19T12:53:39	11.7	95.5
54823	2024-02-19T13:03:39	11.9	95.5
54824	2024-02-19T13:13:39	11.6	95.5
54825	2024-02-19T13:23:39	11.5	95.5
54826	2024-02-19T13:43:39	12.4	95.5
54827	2024-02-19T13:53:39	12	95.5
54828	2024-02-19T14:03:39	11.9	95.5
54829	2024-02-19T14:13:39	11.8	96
54830	2024-02-19T14:23:39	11.6	95.5
54831	2024-02-19T14:33:39	11.6	96
54832	2024-02-19T14:43:39	11.7	95.5
54833	2024-02-19T14:53:39	11.6	95.5
54834	2024-02-19T15:03:39	11.6	95.5
54835	2024-02-19T15:13:39	11.6	95.5
54836	2024-02-19T15:23:39	11.2	95.5
54837	2024-02-19T15:33:39	11.1	95.5
54838	2024-02-19T15:43:39	11	95.5
54839	2024-02-19T15:53:39	10.6	95.5
54840	2024-02-19T16:03:39	9.9	96
54841	2024-02-19T16:13:39	9.7	96
54842	2024-02-19T16:23:39	10	96
54843	2024-02-19T16:33:39	10.1	96
54844	2024-02-19T16:43:39	10.1	95.5
54845	2024-02-19T16:53:39	10.1	95.5
54846	2024-02-19T17:03:39	10.1	95.5
54847	2024-02-19T17:13:39	10.1	96
54848	2024-02-19T17:23:39	10	96
54849	2024-02-19T17:33:39	10.1	98.5
54850	2024-02-19T17:43:39	10	98.5
54851	2024-02-19T17:53:39	9.8	98.5
54852	2024-02-19T18:03:39	9.9	98.5
54853	2024-02-19T18:13:39	9.7	98.5
54854	2024-02-19T18:23:39	9.7	98.5
54855	2024-02-19T18:33:39	9.8	98.5
54856	2024-02-19T18:43:39	9.9	98.5
54857	2024-02-19T18:53:39	9.9	98.5
54858	2024-02-19T19:03:39	9.8	98.5
54859	2024-02-19T19:13:39	10	98.5
54860	2024-02-19T19:23:39	9.6	98.5
54861	2024-02-19T19:33:39	9.4	98.5
54862	2024-02-19T19:43:39	9.3	98.5
54863	2024-02-19T19:53:39	9.1	98.5
54864	2024-02-19T20:03:39	9	98.5
54865	2024-02-19T20:13:39	9.1	98.5
54866	2024-02-19T20:23:39	9.1	98.5
54867	2024-02-19T20:33:39	9.2	98.5
54868	2024-02-19T20:43:39	9.3	98.5
54869	2024-02-19T20:53:39	9.4	98.5
54870	2024-02-19T21:03:39	9.4	99
54871	2024-02-19T21:13:39	9.2	98.5
54872	2024-02-19T21:23:39	9	99
54873	2024-02-19T21:33:39	8.9	98.5
54874	2024-02-19T21:43:39	8.9	98.5
54875	2024-02-19T21:53:39	8.8	98.5
54876	2024-02-19T22:03:39	8.7	98.5
54877	2024-02-19T22:13:39	8.7	98.5
54878	2024-02-19T22:23:39	8.7	99
54879	2024-02-19T22:33:39	8.7	98.5
54880	2024-02-19T22:43:39	8.8	99
54881	2024-02-19T22:53:39	8.8	99
54882	2024-02-19T23:03:39	9	99
54883	2024-02-19T23:13:39	8.8	98.5
54884	2024-02-19T23:23:39	8.9	99
54885	2024-02-19T23:33:39	8.8	98.5
54886	2024-02-19T23:43:39	8.8	98.5
54887	2024-02-19T23:53:39	8.8	98.5
54888	2024-02-20T00:03:39	8.7	98.5
54889	2024-02-20T00:22:42	8.8	98.5
54890	2024-02-20T00:23:47	8.7	99
54891	2024-02-20T00:33:39	8.7	99
54892	2024-02-20T00:43:39	8.6	99
54893	2024-02-20T00:53:39	8.5	99
54894	2024-02-20T01:03:39	8.6	99
54895	2024-02-20T01:13:39	8.4	99
54896	2024-02-20T01:23:39	8.4	99
54897	2024-02-20T01:33:39	8.1	98.5
54898	2024-02-20T01:43:39	7.9	99
54899	2024-02-20T01:53:39	7.9	99
54900	2024-02-20T02:03:39	8	99
54901	2024-02-20T02:13:39	8.1	98.5
54902	2024-02-20T02:23:38	8	99
54903	2024-02-20T02:33:39	8	98.5
54904	2024-02-20T02:43:38	8	99
54905	2024-02-20T02:53:38	7.8	100
54906	2024-02-20T03:03:38	7.6	100
54907	2024-02-20T03:13:38	7.4	100
54908	2024-02-20T03:23:38	7.2	100
54909	2024-02-20T03:33:38	7.3	100
54910	2024-02-20T03:43:38	7.3	100
54911	2024-02-20T03:53:38	7.3	100
54912	2024-02-20T04:03:38	7.2	100
54913	2024-02-20T04:13:38	7.1	100
54914	2024-02-20T04:23:38	7.3	100
54915	2024-02-20T04:33:38	7.2	100
54916	2024-02-20T04:43:38	7.3	100
54917	2024-02-20T04:53:38	7.3	100
54918	2024-02-20T05:03:38	7.3	100
54919	2024-02-20T05:13:38	7.2	100
54920	2024-02-20T05:23:38	7.2	100
54921	2024-02-20T05:33:38	7.1	100
54922	2024-02-20T05:43:38	7.1	100
54923	2024-02-20T05:53:38	7.2	100
54924	2024-02-20T06:03:38	7.1	100
54925	2024-02-20T06:13:38	7.1	100
54926	2024-02-20T06:23:38	7.1	100
54927	2024-02-20T06:33:38	7.1	100
54928	2024-02-20T06:43:39	7	100
54929	2024-02-20T06:53:38	7	100
54930	2024-02-20T07:03:38	7	100
54931	2024-02-20T07:13:38	7.1	100
54932	2024-02-20T07:23:38	7.1	100
54933	2024-02-20T07:33:38	7.2	100
54934	2024-02-20T07:43:38	7.3	100
54935	2024-02-20T07:53:38	7.3	100
54936	2024-02-20T08:03:38	7.4	100
54937	2024-02-20T08:13:38	7.4	100
54938	2024-02-20T08:23:38	7.5	100
54939	2024-02-20T08:33:38	7.6	100
54940	2024-02-20T08:43:38	7.5	100
54941	2024-02-20T08:53:38	7.7	100
54942	2024-02-20T09:03:38	7.9	100
54943	2024-02-20T09:13:38	8	100
54944	2024-02-20T09:23:38	8.2	100
54945	2024-02-20T09:33:38	8.4	100
54946	2024-02-20T09:43:38	8.5	96.5
54947	2024-02-20T09:53:38	8.6	88.5
54948	2024-02-20T10:03:38	8.8	87
54949	2024-02-20T10:13:38	9.1	86
54950	2024-02-20T10:23:38	9.1	85.5
54951	2024-02-20T10:33:38	9.1	84
54952	2024-02-20T10:43:38	9.1	83.5
54953	2024-02-20T10:53:38	9.1	83.5
54954	2024-02-20T11:03:38	9.3	83
54955	2024-02-20T11:13:38	9.8	82
54956	2024-02-20T11:23:38	10.5	79.5
54957	2024-02-20T11:33:38	10.5	77.5
54958	2024-02-20T11:43:38	10.5	78.5
54959	2024-02-20T11:53:38	11.1	76.5
54960	2024-02-20T12:03:38	11.4	74
54961	2024-02-20T12:13:38	11.5	70.5
54962	2024-02-20T12:23:38	11.9	69.5
54963	2024-02-20T12:33:38	12.9	62
54964	2024-02-20T12:43:38	12.4	65.5
54965	2024-02-20T12:53:38	13.4	62.5
54966	2024-02-20T13:03:38	13.4	61
54967	2024-02-20T13:13:38	13.7	58
54968	2024-02-20T13:23:38	14.4	57.5
54969	2024-02-20T13:33:38	14	56
54970	2024-02-20T13:43:38	15.3	53.5
54971	2024-02-20T13:53:38	15.8	51.5
54972	2024-02-20T14:03:38	14.4	54
54973	2024-02-20T14:13:38	13.8	56
54974	2024-02-20T14:23:38	13.6	58
54975	2024-02-20T14:33:38	13.2	61.5
54976	2024-02-20T14:43:38	12.7	62.5
54977	2024-02-20T14:53:38	13.4	59.5
54978	2024-02-20T15:03:38	12.8	61
54979	2024-02-20T15:13:38	13	60
54980	2024-02-20T15:23:38	12.5	61
54981	2024-02-20T15:33:38	12.1	61.5
54982	2024-02-20T15:43:38	11.9	62.5
54983	2024-02-20T15:53:38	11.8	64
54984	2024-02-20T16:03:38	11.6	64
54985	2024-02-20T16:13:38	11.8	63.5
54986	2024-02-20T16:23:38	11.6	64.5
54987	2024-02-20T16:33:38	11.2	65.5
54988	2024-02-20T16:43:38	10.9	66.5
54989	2024-02-20T16:53:38	10.7	68
54990	2024-02-20T17:03:38	10.5	69.5
54991	2024-02-20T17:13:38	10.4	71
54992	2024-02-20T17:23:38	10.3	71
54993	2024-02-20T17:33:38	10.1	72.5
54994	2024-02-20T17:43:38	10	73.5
54995	2024-02-20T17:53:38	9.9	74.5
54996	2024-02-20T18:03:38	9.7	75.5
54997	2024-02-20T18:13:38	9.5	75.5
54998	2024-02-20T18:23:38	9.4	76
54999	2024-02-20T18:33:38	9.3	77.5
55000	2024-02-20T18:43:38	9.2	78.5
55001	2024-02-20T18:53:38	9	79.5
55002	2024-02-20T19:03:38	8.8	79.5
55003	2024-02-20T19:13:38	8.6	81
55004	2024-02-20T19:23:38	8.6	82
55005	2024-02-20T19:33:38	8.5	82
55006	2024-02-20T19:43:38	8.3	81.5
55007	2024-02-20T19:53:38	8.2	84
55008	2024-02-20T20:03:38	8.2	84.5
55009	2024-02-20T20:13:38	7.9	83.5
55010	2024-02-20T20:23:38	8.1	84.5
55011	2024-02-20T20:33:38	7.8	84
55012	2024-02-20T20:43:38	7.8	83.5
55013	2024-02-20T20:53:38	7.7	82.5
55014	2024-02-20T21:03:37	7.9	81
55015	2024-02-20T21:13:37	8	80
55016	2024-02-20T21:23:37	8.1	78.5
55017	2024-02-20T21:33:37	8.2	78
55018	2024-02-20T21:43:37	8.3	77.5
55019	2024-02-20T21:53:37	8.3	76.5
55020	2024-02-20T22:03:37	8.2	77
55021	2024-02-20T22:13:37	8.2	77
55022	2024-02-20T22:23:37	8.1	77.5
55023	2024-02-20T22:43:37	8.1	78.5
55024	2024-02-20T22:53:37	7.9	80
55025	2024-02-20T23:03:37	8	80
55026	2024-02-20T23:13:37	7.9	78.5
55027	2024-02-20T23:23:37	7.9	79
55028	2024-02-20T23:33:37	7.7	80
55029	2024-02-20T23:43:37	7.8	80
55030	2024-02-20T23:53:37	7.8	79.5
55031	2024-02-21T00:03:37	7.9	79
55032	2024-02-21T00:24:03	7.9	78.5
55033	2024-02-21T00:24:03	8.1	77.5
55034	2024-02-21T00:33:37	8.2	77
55035	2024-02-21T00:43:37	8.3	76.5
55036	2024-02-21T00:53:37	8.5	76
55037	2024-02-21T01:03:37	8.3	76.5
55038	2024-02-21T01:13:37	8.1	80.5
55039	2024-02-21T01:23:37	7.8	84.5
55040	2024-02-21T01:33:37	7.7	85
55041	2024-02-21T01:43:37	7.7	84.5
55042	2024-02-21T01:53:37	7.8	83
55043	2024-02-21T02:03:37	7.7	83
55044	2024-02-21T02:13:37	7.8	82.5
55045	2024-02-21T02:23:37	7.8	82.5
55046	2024-02-21T02:33:37	7.8	81
55047	2024-02-21T02:43:37	7.8	81.5
55048	2024-02-21T02:53:37	7.8	81.5
55049	2024-02-21T03:03:37	7.6	82
55050	2024-02-21T03:13:38	7.5	82
55051	2024-02-21T03:23:37	7.5	84
55052	2024-02-21T03:33:37	7.3	83.5
55053	2024-02-21T03:43:37	7.2	82.5
55054	2024-02-21T03:53:37	7.2	83
55055	2024-02-21T04:03:37	6.9	84.5
55056	2024-02-21T04:13:37	6.8	85
55057	2024-02-21T04:23:37	6.7	85.5
55058	2024-02-21T04:33:37	6.3	86
55059	2024-02-21T04:43:37	6.3	86.5
55060	2024-02-21T04:53:37	6.1	86.5
55061	2024-02-21T05:03:37	6.2	87
55062	2024-02-21T05:13:37	5.9	87.5
55063	2024-02-21T05:23:37	5.8	88.5
55064	2024-02-21T05:33:37	5.8	88
55065	2024-02-21T05:43:37	5.7	89
55066	2024-02-21T05:53:37	5.6	88.5
55067	2024-02-21T06:03:37	5.4	88.5
55068	2024-02-21T06:13:37	5.3	89.5
55069	2024-02-21T06:23:37	5.4	90.5
55070	2024-02-21T06:33:37	5.4	89.5
55071	2024-02-21T06:43:37	5.2	90.5
55072	2024-02-21T06:53:37	5.2	91.5
55073	2024-02-21T07:03:37	5.3	92
55074	2024-02-21T07:13:37	5.4	92.5
55075	2024-02-21T07:23:37	5.6	91.5
55076	2024-02-21T07:33:37	5.8	92
55077	2024-02-21T07:43:37	6	90.5
55078	2024-02-21T07:53:37	6.1	90
55079	2024-02-21T08:03:37	6.4	87.5
55080	2024-02-21T08:13:37	6.6	88
55081	2024-02-21T08:23:37	6.8	87.5
55082	2024-02-21T08:33:37	7	86.5
55083	2024-02-21T08:43:37	7.2	85.5
55084	2024-02-21T08:53:37	7.4	84.5
55085	2024-02-21T09:03:37	7.6	83.5
55086	2024-02-21T09:13:37	7.9	81.5
55087	2024-02-21T09:23:37	8.2	79.5
55088	2024-02-21T09:33:37	8.4	79
55089	2024-02-21T09:43:37	8.8	77
55090	2024-02-21T09:53:37	9.1	77.5
55091	2024-02-21T10:03:37	9.4	77
55092	2024-02-21T10:13:37	9.6	76
55093	2024-02-21T10:23:37	9.7	74.5
55094	2024-02-21T10:33:37	9.9	74.5
55095	2024-02-21T10:43:37	10.2	74
55096	2024-02-21T10:53:37	10.5	72.5
55097	2024-02-21T11:03:37	10.7	69.5
55098	2024-02-21T11:13:37	10.8	68.5
55099	2024-02-21T11:23:37	11	66
55100	2024-02-21T11:33:37	11.2	65.5
55101	2024-02-21T11:43:37	11.3	64
55102	2024-02-21T11:53:37	11.5	65
55103	2024-02-21T12:03:37	11.6	63.5
55104	2024-02-21T12:13:37	11.6	63
55105	2024-02-21T12:23:37	11.8	61.5
55106	2024-02-21T12:33:37	11.9	61
55107	2024-02-21T12:43:37	12.1	62.5
55108	2024-02-21T12:53:37	12.1	61.5
55109	2024-02-21T13:03:37	12.1	62
55110	2024-02-21T13:13:37	12.2	62
55111	2024-02-21T13:23:37	12.1	60.5
55112	2024-02-21T13:33:37	12	61.5
55113	2024-02-21T13:43:37	12	62
55114	2024-02-21T13:53:37	12.1	61.5
55115	2024-02-21T14:03:37	12	62
55116	2024-02-21T14:13:37	12	63
55117	2024-02-21T14:23:37	12.1	63.5
55118	2024-02-21T14:33:37	12.1	63.5
55119	2024-02-21T14:43:37	12.1	63.5
55120	2024-02-21T14:53:37	12.1	63.5
55121	2024-02-21T15:03:37	12.1	63
55122	2024-02-21T15:13:37	12	63.5
55123	2024-02-21T15:23:37	11.9	65.5
55124	2024-02-21T15:33:37	11.8	67.5
55125	2024-02-21T15:43:37	11.9	70
55126	2024-02-21T15:53:37	11.6	68.5
55127	2024-02-21T16:03:37	11.6	68.5
55128	2024-02-21T16:13:37	11.4	68
55129	2024-02-21T16:23:36	11.3	67.5
55130	2024-02-21T16:33:36	11.3	71.5
55131	2024-02-21T16:43:37	11	73.5
55132	2024-02-21T16:53:36	11.1	76
55133	2024-02-21T17:03:36	10.8	76.5
55134	2024-02-21T17:13:36	10.8	74.5
55135	2024-02-21T17:23:36	10.6	76
55136	2024-02-21T17:33:36	10.6	79.5
55137	2024-02-21T17:43:36	10.6	79
55138	2024-02-21T17:53:36	10.6	78
55139	2024-02-21T18:03:36	10.4	78
55140	2024-02-21T18:13:36	10.3	81
55141	2024-02-21T18:23:36	10.3	79
55142	2024-02-21T18:33:36	10.3	80
55143	2024-02-21T18:43:36	10.3	81
55144	2024-02-21T18:53:36	10.3	79
55145	2024-02-21T19:03:36	10.1	78
55146	2024-02-21T19:13:36	10.1	80
55147	2024-02-21T19:23:36	10.1	77.5
55148	2024-02-21T19:33:36	9.9	79
55149	2024-02-21T19:43:36	10	81.5
55150	2024-02-21T19:53:36	9.9	80
55151	2024-02-21T20:03:36	9.9	81
55152	2024-02-21T20:13:36	9.9	81.5
55153	2024-02-21T20:23:36	10	77
55154	2024-02-21T20:43:36	11.7	58
55155	2024-02-21T20:53:36	11.8	58.5
55156	2024-02-21T21:03:36	11.9	56.5
55157	2024-02-21T21:13:36	11.7	60
55158	2024-02-21T21:23:36	11.4	63
55159	2024-02-21T21:33:36	11.3	64
55160	2024-02-21T21:43:36	11.1	65
55161	2024-02-21T21:53:36	10.9	67
55162	2024-02-21T22:03:36	10.6	70
55163	2024-02-21T22:13:36	10.7	69.5
55164	2024-02-21T22:23:36	10.7	71
55165	2024-02-21T22:33:36	10.7	70
55166	2024-02-21T22:43:36	10.2	76.5
55167	2024-02-21T22:53:36	9.5	85
55168	2024-02-21T23:03:36	8.9	89
55169	2024-02-21T23:13:36	8.9	87
55170	2024-02-21T23:23:36	8.8	91
55171	2024-02-21T23:33:36	8.8	92
55172	2024-02-21T23:43:36	8.7	94.5
55173	2024-02-21T23:48:43	8.6	94.5
55174	2024-02-21T23:58:44	8.5	95.5
55175	2024-02-22T00:24:26	8.5	95.5
55176	2024-02-22T00:24:26	8.6	95
55177	2024-02-22T00:28:43	8.4	97.5
55178	2024-02-22T00:38:43	8.4	98.5
55179	2024-02-22T00:48:43	8.4	99.5
55180	2024-02-22T00:58:43	8.5	100
55181	2024-02-22T01:08:43	8.6	100
55182	2024-02-22T01:18:43	8.6	100
55183	2024-02-22T01:28:43	8.5	100
55184	2024-02-22T01:38:43	8.5	100
55185	2024-02-22T01:48:43	8.6	100
55186	2024-02-22T01:58:43	8.6	100
55187	2024-02-22T02:08:43	8.7	100
55188	2024-02-22T02:18:44	8.7	100
55189	2024-02-22T02:28:43	8.7	100
55190	2024-02-22T02:38:43	8.7	100
55191	2024-02-22T02:48:43	8.7	100
55192	2024-02-22T02:58:43	8.8	100
55193	2024-02-22T03:08:43	8.8	100
55194	2024-02-22T03:18:43	8.8	100
55195	2024-02-22T03:28:43	8.6	100
55196	2024-02-22T03:38:43	8.8	100
55197	2024-02-22T03:48:43	8.8	100
55198	2024-02-22T03:58:43	8.8	100
55199	2024-02-22T04:08:43	8.8	100
55200	2024-02-22T04:18:43	8.9	100
55201	2024-02-22T04:28:43	8.9	100
55202	2024-02-22T04:38:43	8.7	100
55203	2024-02-22T04:48:43	8.7	100
55204	2024-02-22T04:58:43	8.8	100
55205	2024-02-22T05:08:43	8.9	100
55206	2024-02-22T05:18:43	9	100
55207	2024-02-22T05:28:43	9.1	100
55208	2024-02-22T05:38:43	9	100
55209	2024-02-22T05:48:43	9.2	100
55210	2024-02-22T05:58:43	9.4	100
55211	2024-02-22T06:08:43	9.2	100
55212	2024-02-22T06:18:43	9.3	100
55213	2024-02-22T06:28:43	9.3	100
55214	2024-02-22T06:38:43	9.3	100
55215	2024-02-22T06:48:43	9.4	100
55216	2024-02-22T06:58:43	9.4	100
55217	2024-02-22T07:08:43	9.5	100
55218	2024-02-22T07:18:43	9.6	100
55219	2024-02-22T07:28:43	9.8	100
55220	2024-02-22T07:38:43	9.6	100
55221	2024-02-22T07:48:43	9.7	100
55222	2024-02-22T07:58:43	9.8	100
55223	2024-02-22T08:08:43	9.8	100
55224	2024-02-22T08:18:43	9.8	100
55225	2024-02-22T08:28:43	10	100
55226	2024-02-22T08:38:43	10.2	100
55227	2024-02-22T08:48:43	10.4	100
55228	2024-02-22T08:58:43	10.3	100
55229	2024-02-22T09:08:43	10.4	100
55230	2024-02-22T09:18:43	10.4	100
55231	2024-02-22T09:28:43	10.6	100
55232	2024-02-22T09:38:43	10.4	100
55233	2024-02-22T09:48:43	10.5	100
55234	2024-02-22T09:58:43	10.6	100
55235	2024-02-22T10:08:42	10.7	100
55236	2024-02-22T10:18:42	10.7	100
55237	2024-02-22T10:28:42	10.7	100
55238	2024-02-22T10:38:42	10.6	100
55239	2024-02-22T10:48:42	10.7	100
55240	2024-02-22T10:58:42	10.5	100
55241	2024-02-22T11:08:42	10.5	100
55242	2024-02-22T11:18:42	10.5	100
55243	2024-02-22T11:28:42	10.7	100
55244	2024-02-22T11:38:42	11.4	100
55245	2024-02-22T11:48:42	11.9	99.5
55246	2024-02-22T11:58:42	12.1	99
55247	2024-02-22T12:08:42	12	98
55248	2024-02-22T12:18:42	11.5	99
55249	2024-02-22T12:28:42	11.5	95.5
55250	2024-02-22T12:38:42	11.5	90.5
55251	2024-02-22T12:48:42	11.2	93.5
55252	2024-02-22T12:58:42	10.9	97
55253	2024-02-22T13:08:42	10.6	98.5
55254	2024-02-22T13:18:42	10.6	100
55255	2024-02-22T13:28:42	10.5	100
55256	2024-02-22T13:38:42	10.5	100
55257	2024-02-22T13:48:42	10.6	100
55258	2024-02-22T13:58:42	10.9	100
55259	2024-02-22T14:08:42	11.2	100
55260	2024-02-22T14:18:42	10.9	100
55261	2024-02-22T14:28:42	10.8	100
55262	2024-02-22T14:38:42	10.9	100
55263	2024-02-22T14:48:42	10.7	100
55264	2024-02-22T14:58:42	10.4	100
55265	2024-02-22T15:08:42	10.3	100
55266	2024-02-22T15:18:42	10.4	100
55267	2024-02-22T15:28:42	10.3	100
55268	2024-02-22T15:38:42	10.3	100
55269	2024-02-22T15:48:42	10.3	100
55270	2024-02-22T15:58:42	10.3	100
55271	2024-02-22T16:08:42	10.2	100
55272	2024-02-22T16:18:42	10.2	100
55273	2024-02-22T16:28:42	10.1	100
55274	2024-02-22T16:38:42	10.1	100
55275	2024-02-22T16:48:42	10.1	100
55276	2024-02-22T16:58:42	10	100
55277	2024-02-22T17:08:42	10.1	100
55278	2024-02-22T17:18:42	10.2	100
55279	2024-02-22T17:28:42	10.4	100
55280	2024-02-22T17:38:42	10.6	100
55281	2024-02-22T17:48:42	11	100
55282	2024-02-22T17:58:42	11.4	99
55283	2024-02-22T18:08:42	11.8	96.5
55284	2024-02-22T18:18:42	12.1	96
55285	2024-02-22T18:28:42	12.4	95.5
55286	2024-02-22T18:38:42	12.7	95
55287	2024-02-22T18:48:42	12.9	92.5
55288	2024-02-22T18:58:42	13	90.5
55289	2024-02-22T19:08:42	13.2	77.5
55290	2024-02-22T19:18:42	13.5	72
55291	2024-02-22T19:28:42	11	97.5
55292	2024-02-22T19:38:42	10.6	98.5
55293	2024-02-22T19:48:42	9.8	97
55294	2024-02-22T19:58:42	10.1	86
55295	2024-02-22T20:08:42	10.1	84
55296	2024-02-22T20:18:42	9.9	86
55297	2024-02-22T20:28:42	10	84
55298	2024-02-22T20:38:42	10.2	78.5
55299	2024-02-22T20:48:42	10.4	77.5
55300	2024-02-22T20:58:42	10.3	77
55301	2024-02-22T21:08:42	10.6	77
55302	2024-02-22T21:18:42	10.4	79
55303	2024-02-22T21:48:42	7.1	100
55304	2024-02-22T21:58:42	7.3	100
55305	2024-02-22T22:08:42	7.3	100
55306	2024-02-22T22:18:42	7.4	100
55307	2024-02-22T22:28:42	7.4	100
55308	2024-02-22T22:38:42	7.3	100
55309	2024-02-22T22:48:42	7.2	100
55310	2024-02-22T22:58:42	7.2	100
55311	2024-02-22T23:08:42	7.2	100
55312	2024-02-22T23:18:42	7	100
55313	2024-02-22T23:28:42	7.2	100
55314	2024-02-22T23:38:42	7.1	100
55315	2024-02-22T23:48:42	7.2	100
55316	2024-02-22T23:58:42	7.2	100
55317	2024-02-23T00:24:10	7.2	100
55318	2024-02-23T00:24:10	7.4	100
55319	2024-02-23T00:28:42	7.2	100
55320	2024-02-23T00:38:42	7.1	100
55321	2024-02-23T00:48:42	6.9	100
55322	2024-02-23T00:58:42	6.9	100
55323	2024-02-23T01:08:42	6.8	100
55324	2024-02-23T01:18:42	6.8	100
55325	2024-02-23T01:28:42	6.7	100
55326	2024-02-23T01:38:42	6.7	100
55327	2024-02-23T01:48:42	6.6	100
55328	2024-02-23T01:58:42	6.6	100
55329	2024-02-23T02:08:42	6.7	100
55330	2024-02-23T02:18:42	6.6	100
55331	2024-02-23T02:28:42	6.7	100
55332	2024-02-23T02:38:42	6.6	100
55333	2024-02-23T02:48:42	6.8	100
55334	2024-02-23T02:58:42	6.8	100
55335	2024-02-23T03:08:42	6.7	100
55336	2024-02-23T03:18:42	6.7	100
55337	2024-02-23T03:28:42	6.7	100
55338	2024-02-23T03:38:42	6.6	100
55339	2024-02-23T03:48:42	6.7	100
55340	2024-02-23T03:58:42	6.6	100
55341	2024-02-23T04:08:42	6.7	99.5
55342	2024-02-23T04:18:42	6.7	83.5
55343	2024-02-23T04:28:42	6.8	72
55344	2024-02-23T04:38:42	6.6	72.5
55345	2024-02-23T04:48:42	6.6	73
55346	2024-02-23T04:58:42	6.7	72
55347	2024-02-23T05:08:41	6.6	73
55348	2024-02-23T05:18:41	6.5	73
55349	2024-02-23T05:28:41	6.5	71
55350	2024-02-23T05:38:41	6.5	70.5
55351	2024-02-23T05:48:41	6.4	70.5
55352	2024-02-23T05:58:41	6.2	69.5
55353	2024-02-23T06:08:41	6.1	72.5
55354	2024-02-23T06:18:41	6	73.5
55355	2024-02-23T06:28:41	6	73
55356	2024-02-23T06:38:41	5.9	73
55357	2024-02-23T06:48:41	5.8	73.5
55358	2024-02-23T06:58:41	5.7	73
55359	2024-02-23T07:08:41	5.6	74.5
55360	2024-02-23T07:18:41	5.7	74
55361	2024-02-23T07:28:41	5.7	74
55362	2024-02-23T07:38:41	5.6	75
55363	2024-02-23T07:48:41	5.9	75
55364	2024-02-23T07:58:41	6.1	73
55365	2024-02-23T08:08:41	6.4	68
55366	2024-02-23T08:18:41	6.9	66.5
55367	2024-02-23T08:28:41	7	66
55368	2024-02-23T08:38:41	7.4	65
55369	2024-02-23T08:48:41	7.4	63
55370	2024-02-23T08:58:41	7.9	61
55371	2024-02-23T09:08:41	8	62
55372	2024-02-23T09:18:41	8	61.5
55373	2024-02-23T09:28:41	8.2	60
55374	2024-02-23T09:38:41	8.2	62
55375	2024-02-23T09:48:41	8.3	60.5
55376	2024-02-23T10:08:41	8.4	61.5
55377	2024-02-23T10:18:41	8.5	63.5
55378	2024-02-23T10:28:41	9	61.5
55379	2024-02-23T10:38:41	9.1	62
55380	2024-02-23T10:48:41	9.7	59
55381	2024-02-23T10:58:41	9.7	59.5
55382	2024-02-23T11:08:41	9	62.5
55383	2024-02-23T11:18:41	9.4	61
55384	2024-02-23T11:28:41	10.2	60
55385	2024-02-23T11:38:41	10.1	58
55386	2024-02-23T11:48:41	10	59.5
55387	2024-02-23T11:58:41	9.9	58
55388	2024-02-23T12:08:41	10	56.5
55389	2024-02-23T12:18:41	10.5	54.5
55390	2024-02-23T12:28:41	10.5	55
55391	2024-02-23T12:38:41	10.3	55.5
55392	2024-02-23T12:48:41	10.6	55
55393	2024-02-23T12:58:41	10.7	54.5
55394	2024-02-23T13:08:41	11	53.5
55395	2024-02-23T13:18:41	11.1	54.5
55396	2024-02-23T13:28:41	11	55
55397	2024-02-23T13:38:41	11.3	54
55398	2024-02-23T13:48:41	14.6	47
55399	2024-02-23T13:58:41	12.1	49
55400	2024-02-23T14:08:41	12.5	49.5
55401	2024-02-23T14:18:41	14.7	44
55402	2024-02-23T14:28:41	15.9	41
55403	2024-02-23T14:38:41	14.7	43.5
55404	2024-02-23T14:48:41	14.8	42.5
55405	2024-02-23T14:58:41	16.9	39.5
55406	2024-02-23T15:08:41	15	40
55407	2024-02-23T15:18:41	13.6	43.5
55408	2024-02-23T15:28:41	15.8	39
55409	2024-02-23T15:38:41	16	40
55410	2024-02-23T15:48:41	15.6	38.5
55411	2024-02-23T15:58:41	14.3	40.5
55412	2024-02-23T16:08:41	13.8	43
55413	2024-02-23T16:18:41	13.1	45.5
55414	2024-02-23T16:28:41	12.5	45.5
55415	2024-02-23T16:38:41	11.9	49
55416	2024-02-23T16:48:41	11.7	50.5
55417	2024-02-23T16:58:41	11.4	59.5
55418	2024-02-23T17:08:41	11	63
55419	2024-02-23T17:18:41	10.9	61
55420	2024-02-23T17:28:41	10.7	68
55421	2024-02-23T17:38:41	10.3	67.5
55422	2024-02-23T17:48:41	10	66.5
55423	2024-02-23T17:58:41	9.7	67
55424	2024-02-23T18:08:41	9.4	70.5
55425	2024-02-23T18:18:41	9.2	66.5
55426	2024-02-23T18:28:41	9	65
55427	2024-02-23T18:38:41	8.8	66
55428	2024-02-23T18:48:41	8.6	65.5
55429	2024-02-23T18:58:41	8.4	66
55430	2024-02-23T19:08:41	8.5	67
55431	2024-02-23T19:18:41	8.3	66.5
55432	2024-02-23T19:28:41	8.2	67.5
55433	2024-02-23T19:38:41	8.3	67
55434	2024-02-23T19:48:41	8.3	66
55435	2024-02-23T19:58:41	8.1	65.5
55436	2024-02-23T20:08:41	8.1	66
55437	2024-02-23T20:18:41	8	64.5
55438	2024-02-23T20:28:41	7.8	66.5
55439	2024-02-23T20:38:41	7.6	65
55440	2024-02-23T20:48:41	7.6	66
55441	2024-02-23T20:58:41	7.5	66.5
55442	2024-02-23T21:08:41	7.3	66
55443	2024-02-23T21:18:41	7.3	65
55444	2024-02-23T21:28:41	7.2	65
55445	2024-02-23T21:38:41	7	69
55446	2024-02-23T21:48:41	6.9	68.5
55447	2024-02-23T21:58:41	7	69.5
55448	2024-02-23T22:08:41	7.1	67
55449	2024-02-23T22:18:41	7.5	65
55450	2024-02-23T22:28:41	7.5	66
55451	2024-02-23T22:38:41	7.3	68.5
55452	2024-02-23T22:48:41	7.3	69.5
55453	2024-02-23T22:58:41	7.4	70
55454	2024-02-23T23:08:41	7.2	70.5
55455	2024-02-23T23:18:41	7.1	72.5
55456	2024-02-23T23:28:41	6.9	74.5
55457	2024-02-23T23:38:41	6.7	76.5
55458	2024-02-23T23:48:41	6.8	78.5
55459	2024-02-23T23:58:40	6.7	76.5
55460	2024-02-24T00:22:48	6.5	77
55461	2024-02-24T00:22:48	6.5	80.5
55462	2024-02-24T00:28:41	6.6	76.5
55463	2024-02-24T00:38:41	6.5	75.5
55464	2024-02-24T00:48:40	6.8	73.5
55465	2024-02-24T00:58:40	6.2	84
55466	2024-02-24T01:18:40	4.8	97
55467	2024-02-24T01:28:40	4.9	99
55468	2024-02-24T01:38:40	5.1	99.5
55469	2024-02-24T01:48:40	5	98.5
55470	2024-02-24T01:58:40	4.7	97
55471	2024-02-24T02:08:40	4.6	94.5
55472	2024-02-24T02:18:40	4.4	93.5
55473	2024-02-24T02:28:40	4.5	96
55474	2024-02-24T02:38:40	4.8	97.5
55475	2024-02-24T02:48:40	4.9	92.5
55476	2024-02-24T02:58:40	4.8	96.5
55477	2024-02-24T03:08:40	4.7	96
55478	2024-02-24T03:18:40	4.5	95.5
55479	2024-02-24T03:28:40	4.4	97
55480	2024-02-24T03:38:40	4.1	97.5
55481	2024-02-24T03:48:40	3.9	97.5
55482	2024-02-24T03:58:40	3.9	98.5
55483	2024-02-24T04:08:40	3.7	97
55484	2024-02-24T04:18:40	3.6	98.5
55485	2024-02-24T04:28:40	3.5	97.5
55486	2024-02-24T04:38:40	3.4	99
55487	2024-02-24T04:48:40	3.4	98.5
55488	2024-02-24T04:58:40	3.2	98.5
55489	2024-02-24T05:08:40	3.2	98.5
55490	2024-02-24T05:18:40	3.4	97
55491	2024-02-24T05:28:40	3.6	97.5
55492	2024-02-24T05:38:40	3.6	94
55493	2024-02-24T05:48:40	3.7	95.5
55494	2024-02-24T05:58:40	3.9	97.5
55495	2024-02-24T06:08:41	3.7	97
55496	2024-02-24T06:18:40	3.8	97
55497	2024-02-24T06:28:40	3.7	95
55498	2024-02-24T06:38:40	3.8	98
55499	2024-02-24T06:48:41	4.1	97.5
55500	2024-02-24T06:58:40	4.5	96
55501	2024-02-24T07:08:40	4.5	98
55502	2024-02-24T07:18:40	4.6	97.5
55503	2024-02-24T07:28:40	4.8	95
55504	2024-02-24T07:38:41	5.1	93.5
55505	2024-02-24T07:48:40	5.1	93
55506	2024-02-24T07:58:40	5.2	91.5
55507	2024-02-24T08:08:40	5.3	90
55508	2024-02-24T08:18:40	5.7	87.5
55509	2024-02-24T08:28:40	5.8	86
55510	2024-02-24T08:38:40	6	85.5
55511	2024-02-24T08:48:40	6.4	84
55512	2024-02-24T08:58:40	6.5	82
55513	2024-02-24T09:08:40	6.3	83.5
55514	2024-02-24T09:18:40	6.4	79.5
55515	2024-02-24T09:28:40	6.8	77.5
55516	2024-02-24T09:38:40	7	77
55517	2024-02-24T09:48:40	6.8	78.5
55518	2024-02-24T09:58:40	7.1	74.5
55519	2024-02-24T10:08:40	7.4	74
55520	2024-02-24T10:18:40	7.8	69.5
55521	2024-02-24T10:28:40	8.1	67.5
55522	2024-02-24T10:38:40	8.2	64.5
55523	2024-02-24T10:48:40	8.5	63.5
55524	2024-02-24T10:58:40	8.7	64.5
55525	2024-02-24T11:08:40	9.2	63.5
55526	2024-02-24T11:18:40	9.1	60
55527	2024-02-24T11:28:40	8.9	61
55528	2024-02-24T11:38:40	8.8	62.5
55529	2024-02-24T11:48:40	9.2	64
55530	2024-02-24T11:58:40	9.5	61.5
55531	2024-02-24T12:08:40	10.1	60.5
55532	2024-02-24T12:18:59	10.2	57
55533	2024-02-24T12:28:40	10	58
55534	2024-02-24T12:38:40	11.1	54
55535	2024-02-24T12:48:40	11.4	55.5
55536	2024-02-24T12:58:40	10.5	57
55537	2024-02-24T13:08:40	10.1	59
55538	2024-02-24T13:18:40	10.7	57
55539	2024-02-24T13:28:40	11.1	57.5
55540	2024-02-24T13:38:40	10.6	60
55541	2024-02-24T13:48:40	11.3	57
55542	2024-02-24T13:58:40	12.2	54.5
55543	2024-02-24T14:08:40	12.6	52.5
55544	2024-02-24T14:18:40	13.9	48
55545	2024-02-24T14:28:40	13.8	46
55546	2024-02-24T14:38:40	13.8	46.5
55547	2024-02-24T14:48:40	13.4	48
55548	2024-02-24T14:58:40	12.5	51
55549	2024-02-24T15:08:40	12.1	54
55550	2024-02-24T15:18:40	12.7	51
55551	2024-02-24T15:28:40	13.8	46.5
55552	2024-02-24T15:38:40	14.1	46.5
55553	2024-02-24T15:48:40	13.7	47.5
55554	2024-02-24T15:58:40	14.3	45
55555	2024-02-24T16:08:40	14.3	45.5
55556	2024-02-24T16:18:40	13.8	47
55557	2024-02-24T16:28:40	12.9	48.5
55558	2024-02-24T16:38:40	11.2	52.5
55559	2024-02-24T16:48:40	10.8	56
55560	2024-02-24T16:58:40	10.7	60.5
55561	2024-02-24T17:08:40	10.4	66.5
55562	2024-02-24T17:18:40	10	67.5
55563	2024-02-24T17:28:40	9.7	68.5
55564	2024-02-24T17:38:40	9.5	68
55565	2024-02-24T17:48:40	9	70
55566	2024-02-24T17:58:40	8.8	71.5
55567	2024-02-24T18:08:40	8.6	71.5
55568	2024-02-24T18:18:40	8.5	70.5
55569	2024-02-24T18:28:40	8.3	71.5
55570	2024-02-24T18:38:40	8	71
55571	2024-02-24T18:48:40	7.9	72
55572	2024-02-24T18:58:40	7.7	70.5
55573	2024-02-24T19:08:40	7.7	72
55574	2024-02-24T19:18:40	7.6	70.5
55575	2024-02-24T19:28:40	7.5	68
55576	2024-02-24T19:38:40	7.2	70
55577	2024-02-24T19:48:40	7.1	73
55578	2024-02-24T19:58:40	6.9	73
55579	2024-02-24T20:08:40	6.6	73.5
55580	2024-02-24T20:18:40	6.3	72.5
55581	2024-02-24T20:28:40	6.2	74.5
55582	2024-02-24T20:38:40	6.1	77
55583	2024-02-24T20:48:40	5.8	75.5
55584	2024-02-24T20:58:40	5.6	77
55585	2024-02-24T21:08:40	5.5	76
55586	2024-02-24T21:18:40	5.3	77.5
55587	2024-02-24T21:28:40	5.1	78
55588	2024-02-24T21:38:40	5.1	78
55589	2024-02-24T21:48:40	5.2	76.5
55590	2024-02-24T21:58:40	5.1	77.5
55591	2024-02-24T22:08:40	4.6	76.5
55592	2024-02-24T22:18:40	4.6	77.5
55593	2024-02-24T22:28:40	4.7	77.5
55594	2024-02-24T22:38:40	4.6	78.5
55595	2024-02-24T22:48:40	4.6	75.5
55596	2024-02-24T22:58:40	4.2	77
55597	2024-02-24T23:08:40	4.2	78
55598	2024-02-24T23:18:40	4.1	79.5
55599	2024-02-24T23:28:40	4	79.5
55600	2024-02-24T23:38:40	4	77.5
55601	2024-02-24T23:48:39	4	78
55602	2024-02-24T23:58:40	4.2	74.5
55603	2024-02-25T00:27:59	5.1	72
55604	2024-02-25T00:27:59	4.7	72
55605	2024-02-25T00:28:41	5.1	70.5
55606	2024-02-25T00:38:39	5.1	70
55607	2024-02-25T00:48:39	5.2	69
55608	2024-02-25T00:58:39	5.3	68.5
55609	2024-02-25T01:08:39	5.4	68.5
55610	2024-02-25T01:18:39	5.2	69
55611	2024-02-25T01:28:39	5.3	69
55612	2024-02-25T01:38:39	5.5	69
55613	2024-02-25T01:48:39	5.4	69
55614	2024-02-25T01:58:39	5.3	69.5
55615	2024-02-25T02:08:39	5.4	68.5
55616	2024-02-25T02:18:39	5.3	71
55617	2024-02-25T02:28:39	4.7	72.5
55618	2024-02-25T02:38:39	4.3	74.5
55619	2024-02-25T02:48:39	4.1	77
55620	2024-02-25T02:58:39	4.1	79
55621	2024-02-25T03:08:39	3.9	78.5
55622	2024-02-25T03:18:39	3.7	80.5
55623	2024-02-25T03:28:39	3.6	81
55624	2024-02-25T03:38:39	3.6	82
55625	2024-02-25T03:48:39	3.7	81
55626	2024-02-25T03:58:40	3.5	81.5
55627	2024-02-25T04:08:39	3.3	83.5
55628	2024-02-25T04:18:39	3.2	82.5
55629	2024-02-25T04:28:39	3	83
55630	2024-02-25T04:38:39	3	84
55631	2024-02-25T04:48:39	2.8	84
55632	2024-02-25T04:58:39	2.7	84.5
55633	2024-02-25T05:08:39	2.7	83.5
55634	2024-02-25T05:18:40	2.9	85
55635	2024-02-25T05:28:39	3.1	83.5
55636	2024-02-25T05:38:40	3.3	84.5
55637	2024-02-25T05:48:39	3.5	82.5
55638	2024-02-25T05:58:39	3.6	83
55639	2024-02-25T06:08:39	3.7	85.5
55640	2024-02-25T06:18:39	3.7	86
55641	2024-02-25T06:28:39	3.9	86
55642	2024-02-25T06:38:39	3.8	87
55643	2024-02-25T06:48:39	4	87
55644	2024-02-25T06:58:39	4	84
55645	2024-02-25T07:08:39	4.4	83
55646	2024-02-25T07:18:40	4.9	81
55647	2024-02-25T07:28:39	5.3	78
55648	2024-02-25T07:38:39	5.4	77
55649	2024-02-25T07:48:39	5.4	77.5
55650	2024-02-25T07:58:39	5.4	78
55651	2024-02-25T08:08:39	5.3	78
55652	2024-02-25T08:18:39	5.8	78
55653	2024-02-25T08:28:39	6.2	75.5
55654	2024-02-25T08:38:39	6.7	74.5
55655	2024-02-25T08:48:39	7.1	73
55656	2024-02-25T08:58:39	7.2	72
55657	2024-02-25T09:08:39	7.4	72
55658	2024-02-25T09:18:39	7.7	71
55659	2024-02-25T09:28:39	7.9	70
55660	2024-02-25T09:38:39	8.3	69
55661	2024-02-25T09:48:39	8.6	67.5
55662	2024-02-25T09:58:39	8.7	67.5
55663	2024-02-25T10:08:39	8.5	67
55664	2024-02-25T10:18:39	8.7	67
55665	2024-02-25T10:28:39	9.1	66
55666	2024-02-25T10:38:39	9.5	64.5
55667	2024-02-25T10:48:39	9.8	65
55668	2024-02-25T10:58:39	10.2	61.5
55669	2024-02-25T11:08:39	10.5	59.5
55670	2024-02-25T11:18:39	10.6	57.5
55671	2024-02-25T11:28:39	10.9	57
55672	2024-02-25T11:38:39	10.6	56
55673	2024-02-25T11:48:39	10.4	56.5
55674	2024-02-25T11:58:39	10.5	55.5
55675	2024-02-25T12:08:39	11	53.5
55676	2024-02-25T12:28:39	11.7	51.5
55677	2024-02-25T12:38:39	14	44
55678	2024-02-25T12:48:39	14.2	41.5
55679	2024-02-25T12:58:39	12.7	45.5
55680	2024-02-25T13:08:39	13.4	46.5
55681	2024-02-25T13:18:39	14.5	43.5
55682	2024-02-25T13:28:39	15.3	39
55683	2024-02-25T13:38:39	16.3	37.5
55684	2024-02-25T13:48:39	17.5	36.5
55685	2024-02-25T13:58:39	18.3	34.5
55686	2024-02-25T14:08:39	17	35.5
55687	2024-02-25T14:18:39	19	33
55688	2024-02-25T14:28:39	19.3	31
55689	2024-02-25T14:38:39	20	31
55690	2024-02-25T14:48:39	20.4	29
55691	2024-02-25T14:58:39	20.8	29
55692	2024-02-25T15:08:39	21	30
55693	2024-02-25T15:18:39	22.4	29
55694	2024-02-25T15:28:39	20	30.5
55695	2024-02-25T15:38:39	18.8	34.5
55696	2024-02-25T15:48:39	18.5	36.5
55697	2024-02-25T15:58:39	17.9	40
55698	2024-02-25T16:08:39	17	40
55699	2024-02-25T16:18:39	16.2	42.5
55700	2024-02-25T16:28:39	15.6	44
55701	2024-02-25T16:38:39	14.9	44.5
55702	2024-02-25T16:48:39	14.5	46.5
55703	2024-02-25T16:58:39	14.1	45.5
55704	2024-02-25T17:08:39	13.7	46
55705	2024-02-25T17:18:39	13.5	47.5
55706	2024-02-25T17:28:39	13.1	48.5
55707	2024-02-25T17:38:39	12.7	49.5
55708	2024-02-25T17:48:39	12.4	49.5
55709	2024-02-25T17:58:39	12.2	51.5
55710	2024-02-25T18:08:39	12	52
55711	2024-02-25T18:18:39	11.6	52
55712	2024-02-25T18:28:39	11.6	53.5
55713	2024-02-25T18:38:39	11.5	51.5
55714	2024-02-25T18:48:39	11.5	53.5
55715	2024-02-25T18:58:39	11.4	47
55716	2024-02-25T19:08:39	11.2	46.5
55717	2024-02-25T19:18:39	11.1	46
55718	2024-02-25T19:28:38	11.2	45
55719	2024-02-25T19:38:39	11.2	47
55720	2024-02-25T19:48:38	11.2	46
55721	2024-02-25T19:58:38	11	51
55722	2024-02-25T20:08:38	10.8	55.5
55723	2024-02-25T20:18:38	10.8	51
55724	2024-02-25T20:28:38	10.7	53
55725	2024-02-25T20:38:38	10.7	52.5
55726	2024-02-25T20:48:38	10.7	49
55727	2024-02-25T20:58:38	10.7	50
55728	2024-02-25T21:08:38	10.8	48
55729	2024-02-25T21:18:38	10.7	48
55730	2024-02-25T21:28:38	10.6	48
55731	2024-02-25T21:38:38	10.4	48.5
55732	2024-02-25T21:48:38	10.5	49
55733	2024-02-25T21:58:38	10.5	48
55734	2024-02-25T22:08:38	10.5	48.5
55735	2024-02-25T22:18:38	10.5	48
55736	2024-02-25T22:28:38	10.5	47.5
55737	2024-02-25T22:38:38	10.5	46.5
55738	2024-02-25T22:48:38	10.5	48.5
55739	2024-02-25T22:58:38	10.5	47
55740	2024-02-25T23:08:38	10.4	48
55741	2024-02-25T23:18:38	10.5	48
55742	2024-02-25T23:28:38	10.3	51.5
55743	2024-02-25T23:38:38	10.2	56
55744	2024-02-25T23:48:38	10.1	56
55745	2024-02-25T23:58:38	10.2	58
55746	2024-02-26T00:08:38	10.1	57
55747	2024-02-26T00:18:38	10	60
55748	2024-02-26T00:28:38	10	55.5
55749	2024-02-26T00:38:38	10.2	50
55750	2024-02-26T00:48:38	10.4	49
55751	2024-02-26T00:58:38	10.5	48.5
55752	2024-02-26T01:08:38	10.5	51.5
55753	2024-02-26T01:18:38	10.3	61.5
55754	2024-02-26T01:28:38	10.2	59.5
55755	2024-02-26T01:38:38	10.2	62
55756	2024-02-26T01:48:38	10.2	61.5
55757	2024-02-26T01:58:38	9.5	77
55758	2024-02-26T02:08:38	8.7	77.5
55759	2024-02-26T02:18:38	8.8	90
55760	2024-02-26T02:28:38	9	87
55761	2024-02-26T02:38:38	8.9	89.5
55762	2024-02-26T02:48:38	8.9	86
55763	2024-02-26T02:58:38	8.9	86
55764	2024-02-26T03:08:38	8.9	86
55765	2024-02-26T03:18:38	8.9	86.5
55766	2024-02-26T03:28:38	9	86
55767	2024-02-26T03:38:38	8.8	86.5
55768	2024-02-26T03:48:38	8.8	83.5
55769	2024-02-26T03:58:38	8.5	83.5
55770	2024-02-26T04:08:38	8.5	84
55771	2024-02-26T04:18:38	8.5	83
55772	2024-02-26T04:28:38	8.6	82.5
55773	2024-02-26T04:38:38	8.6	82.5
55774	2024-02-26T04:48:38	8.6	81
55775	2024-02-26T04:58:38	8.7	84.5
55776	2024-02-26T05:08:38	8.5	85.5
55777	2024-02-26T05:18:38	8.6	87.5
55778	2024-02-26T05:28:38	8.5	86.5
55779	2024-02-26T05:38:38	8.5	87
55780	2024-02-26T05:48:38	8.4	87
55781	2024-02-26T05:58:38	8.2	86.5
55782	2024-02-26T06:08:38	8.2	86
55783	2024-02-26T06:18:38	8.3	88
55784	2024-02-26T06:28:38	8.3	87.5
55785	2024-02-26T06:38:38	8.2	89.5
55786	2024-02-26T06:48:38	8.4	90.5
55787	2024-02-26T06:58:38	8.5	89.5
55788	2024-02-26T07:08:38	8.5	90.5
55789	2024-02-26T07:18:38	8.5	90.5
55790	2024-02-26T07:28:38	8.6	89
55791	2024-02-26T07:38:38	8.6	88.5
55792	2024-02-26T07:48:38	8.9	89
55793	2024-02-26T07:58:38	8.8	88
55794	2024-02-26T08:08:38	8.9	89
55795	2024-02-26T08:18:38	9.2	89
55796	2024-02-26T08:28:38	9.6	88.5
55797	2024-02-26T08:38:38	9.9	87.5
55798	2024-02-26T08:48:38	10	86
55799	2024-02-26T08:58:38	10.4	85
55800	2024-02-26T09:08:38	10.4	85.5
55801	2024-02-26T09:18:38	10.6	84.5
55802	2024-02-26T09:28:38	10.7	83
55803	2024-02-26T09:38:38	10.8	83
55804	2024-02-26T09:48:38	10.8	81.5
55805	2024-02-26T09:58:38	10.9	81.5
55806	2024-02-26T10:08:38	11.1	80.5
55807	2024-02-26T10:18:38	11.6	80
55808	2024-02-26T10:28:38	11.9	76.5
55809	2024-02-26T10:38:38	12.3	77
55810	2024-02-26T10:48:38	13	76
55811	2024-02-26T10:58:38	13.2	73.5
55812	2024-02-26T11:08:38	13.3	73
55813	2024-02-26T11:18:38	13.1	73.5
55814	2024-02-26T11:28:38	13.7	69.5
55815	2024-02-26T11:38:38	14.3	68
55816	2024-02-26T11:48:38	14.4	67.5
55817	2024-02-26T11:58:38	14.3	63.5
55818	2024-02-26T12:08:38	14.3	68
55819	2024-02-26T12:18:38	15	66
55820	2024-02-26T12:28:38	15.9	60
55821	2024-02-26T12:38:38	16.3	57
55822	2024-02-26T12:48:38	16.4	60
55823	2024-02-26T12:58:38	16.4	59
55824	2024-02-26T13:08:37	16.7	58
55825	2024-02-26T13:18:38	17.4	56
55826	2024-02-26T13:28:37	17.5	54.5
55827	2024-02-26T13:38:37	17.6	54
55828	2024-02-26T13:48:37	17.2	55
55829	2024-02-26T13:58:37	17.3	54
55830	2024-02-26T14:08:37	18.6	52.5
55831	2024-02-26T14:18:37	20.9	46.5
55832	2024-02-26T14:28:37	22.8	42.5
55833	2024-02-26T14:38:37	23.9	38.5
55834	2024-02-26T14:48:37	24	38.5
55835	2024-02-26T14:58:37	24.4	36.5
55836	2024-02-26T15:08:37	24.6	37.5
55837	2024-02-26T15:18:37	23.1	38.5
55838	2024-02-26T15:28:37	21.8	41.5
55839	2024-02-26T15:38:37	21	42
55840	2024-02-26T15:48:37	19.6	45.5
55841	2024-02-26T15:58:37	18.4	47.5
55842	2024-02-26T16:08:37	17.5	52
55843	2024-02-26T16:18:37	17.1	54
55844	2024-02-26T16:28:37	16.7	55.5
55845	2024-02-26T16:38:37	16.8	55.5
55846	2024-02-26T16:48:37	16.6	56.5
55847	2024-02-26T16:58:37	16.1	58
55848	2024-02-26T17:08:37	15.7	59
55849	2024-02-26T17:18:37	15.5	61
55850	2024-02-26T17:28:37	15.2	60
55851	2024-02-26T17:38:37	15	61.5
55852	2024-02-26T17:48:37	14.8	62
55853	2024-02-26T17:58:37	14.7	62
55854	2024-02-26T18:08:37	14.5	62.5
55855	2024-02-26T18:18:37	14.2	63
55856	2024-02-26T18:28:37	14.1	62
55857	2024-02-26T18:38:37	14	63
55858	2024-02-26T18:48:37	13.8	62.5
55859	2024-02-26T18:58:37	13.7	63
55860	2024-02-26T19:08:37	13.6	62
55861	2024-02-26T19:18:37	13.3	64
55862	2024-02-26T19:28:37	13.2	65.5
55863	2024-02-26T19:38:37	13.1	66
55864	2024-02-26T19:48:37	13	67
55865	2024-02-26T19:58:37	12.8	67.5
55866	2024-02-26T20:08:37	12.7	67.5
55867	2024-02-26T20:18:37	12.3	68
55868	2024-02-26T20:28:37	12.3	68
55869	2024-02-26T20:38:37	12.2	68.5
55870	2024-02-26T20:48:37	12.2	68.5
55871	2024-02-26T20:58:37	11.9	69
55872	2024-02-26T21:08:37	11.9	69.5
55873	2024-02-26T21:18:37	11.8	70
55874	2024-02-26T21:28:37	11.8	70
55875	2024-02-26T21:38:37	11.5	70.5
55876	2024-02-26T21:48:37	11.5	70.5
55877	2024-02-26T21:58:37	11.3	71
55878	2024-02-26T22:08:37	11.3	71.5
55879	2024-02-26T22:18:37	11.1	71
55880	2024-02-26T22:28:37	10.9	72
55881	2024-02-26T22:38:37	10.8	71.5
55882	2024-02-26T22:48:37	10.7	72.5
55883	2024-02-26T22:58:37	10.7	73.5
55884	2024-02-26T23:08:37	10.4	73
55885	2024-02-26T23:18:37	10.4	73
55886	2024-02-26T23:28:37	10.3	72.5
55887	2024-02-26T23:38:37	10.2	72.5
55888	2024-02-26T23:48:37	10.1	72.5
55889	2024-02-26T23:58:37	10.1	73
55890	2024-02-27T00:26:49	10.2	74
55891	2024-02-27T00:26:49	10.2	73.5
55892	2024-02-27T00:28:39	10.1	73.5
55893	2024-02-27T00:38:37	10.1	73.5
55894	2024-02-27T00:48:37	10.1	75.5
55895	2024-02-27T01:08:37	9.9	76.5
55896	2024-02-27T01:18:37	9.9	77.5
55897	2024-02-27T01:28:37	9.8	79
55898	2024-02-27T01:38:37	9.7	81
55899	2024-02-27T01:48:37	9.6	82
55900	2024-02-27T01:58:37	9.5	81.5
55901	2024-02-27T02:08:37	9.6	82
55902	2024-02-27T02:18:37	9.5	82
55903	2024-02-27T02:28:37	9.3	82
55904	2024-02-27T02:38:37	9.2	82
55905	2024-02-27T02:48:37	9.1	83.5
55906	2024-02-27T02:58:37	8.8	84
55907	2024-02-27T03:08:36	8.8	84
55908	2024-02-27T03:18:37	8.6	84
55909	2024-02-27T03:28:36	8.5	83.5
55910	2024-02-27T03:38:36	8.4	83
55911	2024-02-27T03:48:37	8.3	83.5
55912	2024-02-27T03:58:36	8.4	83.5
55913	2024-02-27T04:08:37	8.3	83.5
55914	2024-02-27T04:18:36	8.4	83.5
55915	2024-02-27T04:28:36	8.2	83.5
55916	2024-02-27T04:38:36	8.3	83.5
55917	2024-02-27T04:48:36	8.3	83.5
55918	2024-02-27T04:58:36	8.3	84.5
55919	2024-02-27T05:08:36	8.1	84.5
55920	2024-02-27T05:18:36	8.2	84.5
55921	2024-02-27T05:28:36	8.1	85
55922	2024-02-27T05:38:36	7.9	85
55923	2024-02-27T05:48:36	7.8	85.5
55924	2024-02-27T05:58:36	7.7	86
55925	2024-02-27T06:08:36	7.7	86.5
55926	2024-02-27T06:18:36	7.7	86.5
55927	2024-02-27T06:28:36	7.8	86
55928	2024-02-27T06:38:36	7.8	85.5
55929	2024-02-27T06:48:36	7.7	85.5
55930	2024-02-27T06:58:36	7.8	85.5
55931	2024-02-27T07:08:36	7.8	86
55932	2024-02-27T07:18:36	7.5	86.5
55933	2024-02-27T07:28:36	7.4	87
55934	2024-02-27T07:38:36	7.5	87.5
55935	2024-02-27T07:48:36	7.5	87
55936	2024-02-27T07:58:36	7.6	87.5
55937	2024-02-27T08:08:36	7.8	86
55938	2024-02-27T08:18:36	8	85
55939	2024-02-27T08:28:36	8.3	84.5
55940	2024-02-27T08:38:36	8.6	83
55941	2024-02-27T08:48:36	8.5	83.5
55942	2024-02-27T08:58:36	8.6	84
55943	2024-02-27T09:08:36	8.7	83
55944	2024-02-27T09:18:36	8.8	82
55945	2024-02-27T09:28:36	9	82.5
55946	2024-02-27T09:38:36	9.5	81
55947	2024-02-27T09:48:36	9.9	79
55948	2024-02-27T09:58:36	10.4	77.5
55949	2024-02-27T10:08:36	10.5	75.5
55950	2024-02-27T10:18:36	10.5	74.5
55951	2024-02-27T10:28:56	10.4	75
55952	2024-02-27T10:38:36	10.3	76.5
55953	2024-02-27T10:48:36	10.3	76
55954	2024-02-27T10:58:36	10.2	76.5
55955	2024-02-27T11:08:36	10.1	76
55956	2024-02-27T11:18:36	10.4	74.5
55957	2024-02-27T11:28:36	10.6	75
55958	2024-02-27T11:38:36	10.9	74.5
55959	2024-02-27T11:48:36	11.2	72.5
55960	2024-02-27T11:58:36	11.4	73
55961	2024-02-27T12:08:36	11.7	71
55962	2024-02-27T12:18:36	11.6	71.5
55963	2024-02-27T12:28:36	11.5	72.5
55964	2024-02-27T12:38:36	11.4	72.5
55965	2024-02-27T12:48:36	11.4	73
55966	2024-02-27T12:58:36	11.6	70
55967	2024-02-27T13:08:36	11.7	70.5
55968	2024-02-27T13:18:36	11.2	71
55969	2024-02-27T13:28:36	11.6	71.5
55970	2024-02-27T13:38:36	12.3	69.5
55971	2024-02-27T13:48:36	12.7	67
55972	2024-02-27T13:58:36	12.6	68
55973	2024-02-27T14:08:36	12.2	68.5
55974	2024-02-27T14:18:36	12.3	69
55975	2024-02-27T14:28:36	12.4	68
55976	2024-02-27T14:38:36	12.4	69
55977	2024-02-27T14:48:36	12	70
55978	2024-02-27T14:58:36	11.9	70.5
55979	2024-02-27T15:08:36	11.8	69.5
55980	2024-02-27T15:18:36	11.7	71
55981	2024-02-27T15:28:36	11.6	71
55982	2024-02-27T15:38:36	11.5	71
55983	2024-02-27T15:48:36	11.5	73
55984	2024-02-27T15:58:36	11.5	72
55985	2024-02-27T16:08:36	11.4	73
55986	2024-02-27T16:18:36	11.4	76
55987	2024-02-27T16:28:36	11.4	74.5
55988	2024-02-27T16:38:36	11.3	74
55989	2024-02-27T16:48:36	11.4	74
55990	2024-02-27T16:58:36	11.2	74.5
55991	2024-02-27T17:08:36	11.2	73.5
55992	2024-02-27T17:18:36	11	76.5
55993	2024-02-27T17:28:36	11	75
55994	2024-02-27T17:38:36	10.8	75
55995	2024-02-27T17:48:36	10.8	75.5
55996	2024-02-27T17:58:36	10.7	77
55997	2024-02-27T18:08:36	10.6	79
55998	2024-02-27T18:18:36	10.5	78
55999	2024-02-27T18:28:36	10.5	79.5
56000	2024-02-27T18:38:36	10.2	80.5
56001	2024-02-27T18:48:36	10.1	81.5
56002	2024-02-27T18:58:36	10	81.5
56003	2024-02-27T19:08:36	10.2	82
56004	2024-02-27T19:18:36	10.1	82
56005	2024-02-27T19:28:36	10.1	79
56006	2024-02-27T19:38:36	10.1	77.5
56007	2024-02-27T19:48:36	9.9	76.5
56008	2024-02-27T19:58:36	9.7	78
56009	2024-02-27T20:08:36	9.5	78
56010	2024-02-27T20:18:36	9.6	78
56011	2024-02-27T20:28:36	9.7	78
56012	2024-02-27T20:38:36	9.6	77.5
56013	2024-02-27T20:48:35	9.7	77.5
56014	2024-02-27T20:58:35	9.7	77.5
56015	2024-02-27T21:08:35	9.7	78
56016	2024-02-27T21:18:35	9.7	78
56017	2024-02-27T21:28:36	9.6	78.5
56018	2024-02-27T21:38:35	9.6	77.5
56019	2024-02-27T21:48:35	9.5	77.5
56020	2024-02-27T21:58:35	9.5	76
56021	2024-02-27T22:08:35	9.4	77.5
56022	2024-02-27T22:18:35	9.3	77
56023	2024-02-27T22:28:36	9.3	78
56024	2024-02-27T22:38:35	9.3	77
56025	2024-02-27T22:48:35	9.2	78
56026	2024-02-27T22:58:35	9.1	77
56027	2024-02-27T23:08:35	9.1	78
56028	2024-02-27T23:18:35	9	77.5
56029	2024-02-27T23:28:35	8.7	77
56030	2024-02-27T23:38:35	8.5	77.5
56031	2024-02-27T23:48:35	8.5	77.5
56032	2024-02-27T23:58:35	8.2	78.5
56033	2024-02-28T00:27:53	8.1	79.5
56034	2024-02-28T00:27:53	7.9	80.5
56035	2024-02-28T00:28:36	7.7	79.5
56036	2024-02-28T00:38:35	7.7	80.5
56037	2024-02-28T00:48:35	7.8	80.5
56038	2024-02-28T00:58:35	7.9	80
56039	2024-02-28T01:08:35	7.7	80.5
56040	2024-02-28T01:18:35	7.6	80
56041	2024-02-28T01:28:35	7.3	81
56042	2024-02-28T01:38:35	7	81.5
56043	2024-02-28T01:48:35	6.8	82
56044	2024-02-28T01:58:35	6.7	83
56045	2024-02-28T02:08:35	6.3	82.5
56046	2024-02-28T02:18:35	6.1	84
56047	2024-02-28T02:28:35	6	83
56048	2024-02-28T02:38:35	5.7	83
56049	2024-02-28T02:48:35	5.6	83.5
56050	2024-02-28T02:58:35	5.6	85
56051	2024-02-28T03:08:35	5.9	83.5
56052	2024-02-28T03:18:35	6.2	84.5
56053	2024-02-28T03:28:35	6.4	83.5
56054	2024-02-28T03:38:35	6.5	83
56055	2024-02-28T03:48:35	6.3	83
56056	2024-02-28T03:58:35	6.1	83
56057	2024-02-28T04:08:35	6	84
56058	2024-02-28T04:28:35	6.1	83.5
56059	2024-02-28T04:38:35	6.1	84
56060	2024-02-28T04:48:35	6.2	84
56061	2024-02-28T04:58:35	6.2	84.5
56062	2024-02-28T05:08:35	6.4	84.5
56063	2024-02-28T05:18:35	6.2	83.5
56064	2024-02-28T05:28:35	6	83.5
56065	2024-02-28T05:38:35	5.9	84.5
56066	2024-02-28T05:48:35	5.8	85
56067	2024-02-28T05:58:35	5.4	85.5
56068	2024-02-28T06:08:35	5.4	85.5
56069	2024-02-28T06:18:35	5.3	86
56070	2024-02-28T06:28:35	5.1	86.5
56071	2024-02-28T06:38:35	4.9	86.5
56072	2024-02-28T06:48:35	4.8	87
56073	2024-02-28T06:58:35	4.8	88
56074	2024-02-28T07:08:35	4.9	87
56075	2024-02-28T07:18:35	4.8	87.5
56076	2024-02-28T07:28:35	4.9	88.5
56077	2024-02-28T07:38:35	5.1	87.5
56078	2024-02-28T07:48:35	5.6	86.5
56079	2024-02-28T07:58:35	5.8	85
56080	2024-02-28T08:08:35	5.8	85
56081	2024-02-28T08:28:35	6.3	84
56082	2024-02-28T08:38:35	6.3	84
56083	2024-02-28T08:48:35	6.2	84.5
56084	2024-02-28T08:58:35	6.2	84
56085	2024-02-28T09:08:35	6.2	84
56086	2024-02-28T09:18:35	6.4	84.5
56087	2024-02-28T09:28:35	6.6	83.5
56088	2024-02-28T09:38:35	6.8	84
56089	2024-02-28T09:48:35	6.9	83
56090	2024-02-28T09:58:35	7.1	83
56091	2024-02-28T10:08:35	7.3	82.5
56092	2024-02-28T10:18:35	7.5	82
56093	2024-02-28T10:28:35	7.8	80.5
56094	2024-02-28T10:38:35	8.2	78
56095	2024-02-28T10:48:35	8.7	76.5
56096	2024-02-28T10:58:35	9.1	76
56097	2024-02-28T11:08:35	9.1	74.5
56098	2024-02-28T11:18:35	9.3	74.5
56099	2024-02-28T11:28:35	9.5	73
56100	2024-02-28T11:38:35	9.8	69.5
56101	2024-02-28T11:48:35	10.1	71
56102	2024-02-28T11:58:35	10.3	70
56103	2024-02-28T12:08:35	10.4	68
56104	2024-02-28T12:18:35	11	68.5
56105	2024-02-28T12:28:35	12.3	64
56106	2024-02-28T12:38:35	15.2	55
56107	2024-02-28T12:48:35	17.5	48
56108	2024-02-28T12:58:35	18.7	44
56109	2024-02-28T13:08:35	19.6	41
56110	2024-02-28T13:18:35	20.8	39.5
56111	2024-02-28T13:28:35	22	37
56112	2024-02-28T13:38:35	22.6	35.5
56113	2024-02-28T13:48:35	22.8	35
56114	2024-02-28T13:58:35	23.1	34
56115	2024-02-28T14:08:35	23.4	33.5
56116	2024-02-28T14:18:35	23.3	33
56117	2024-02-28T14:28:35	23.9	32.5
56118	2024-02-28T14:38:35	24.5	31
56119	2024-02-28T14:48:35	24.2	32.5
56120	2024-02-28T14:58:35	23	33.5
56121	2024-02-28T15:08:34	22.4	34.5
56122	2024-02-28T15:18:34	22.1	34
56123	2024-02-28T15:28:34	22.3	33.5
56124	2024-02-28T15:38:34	20.8	36
56125	2024-02-28T15:48:34	20.8	37.5
56126	2024-02-28T15:58:34	20.7	36
56127	2024-02-28T16:08:34	19.9	38.5
56128	2024-02-28T16:18:34	19.3	40
56129	2024-02-28T16:28:34	19	40
56130	2024-02-28T16:38:34	17.8	43
56131	2024-02-28T16:48:34	16.4	47
56132	2024-02-28T16:58:34	15.6	49
56133	2024-02-28T17:08:34	15	51
56134	2024-02-28T17:18:34	14.3	52.5
56135	2024-02-28T17:28:34	13.9	54.5
56136	2024-02-28T17:38:34	13.5	55.5
56137	2024-02-28T17:48:34	13	56
56138	2024-02-28T17:58:34	12.6	57.5
56139	2024-02-28T18:08:34	12	58.5
56140	2024-02-28T18:18:34	11.9	60
56141	2024-02-28T18:28:34	11.3	60
56142	2024-02-28T18:38:34	11.2	61.5
56143	2024-02-28T18:48:34	11	62.5
56144	2024-02-28T18:58:34	10.8	63
56145	2024-02-28T19:08:34	10.4	63.5
56146	2024-02-28T19:18:34	10.2	65.5
56147	2024-02-28T19:28:34	9.9	66
56148	2024-02-28T19:38:34	9.6	67.5
56149	2024-02-28T19:48:34	9.3	67.5
56150	2024-02-28T19:58:34	9	68.5
56151	2024-02-28T20:08:34	8.6	69.5
56152	2024-02-28T20:18:34	8.3	70.5
56153	2024-02-28T20:28:34	8.3	71
56154	2024-02-28T20:38:34	8.1	71
56155	2024-02-28T20:48:34	8	72.5
56156	2024-02-28T20:58:34	7.7	72.5
56157	2024-02-28T21:08:34	7.8	73.5
56158	2024-02-28T21:18:34	7.5	73.5
56159	2024-02-28T21:28:34	7.3	74.5
56160	2024-02-28T21:38:34	7.1	75
56161	2024-02-28T21:48:34	6.8	74.5
56162	2024-02-28T21:58:34	6.7	75
56163	2024-02-28T22:08:34	6.5	74.5
56164	2024-02-28T22:18:34	6.4	75
56165	2024-02-28T22:28:34	6.2	75.5
56166	2024-02-28T22:38:34	6	75.5
56167	2024-02-28T22:48:34	5.8	76
56168	2024-02-28T22:58:34	5.8	76
56169	2024-02-28T23:08:34	5.5	77
56170	2024-02-28T23:18:34	5.6	77
56171	2024-02-28T23:28:34	5.3	76.5
56172	2024-02-28T23:38:34	4.9	77.5
56173	2024-02-28T23:48:34	5	78
56174	2024-02-28T23:58:34	4.8	79
56175	2024-02-29T00:24:22	4.7	78.5
56176	2024-02-29T00:24:22	4.4	79
56177	2024-02-29T00:28:34	4.3	79.5
56178	2024-02-29T00:38:34	4.1	80
56179	2024-02-29T00:48:34	4	80
56180	2024-02-29T00:58:34	4	79
56181	2024-02-29T01:08:34	3.8	80
56182	2024-02-29T01:18:34	3.7	80
56183	2024-02-29T01:28:34	3.6	80.5
56184	2024-02-29T01:38:34	3.4	80.5
56185	2024-02-29T01:48:34	3.3	81
56186	2024-02-29T01:58:34	3.2	81.5
56187	2024-02-29T02:08:34	3.1	82
56188	2024-02-29T02:18:34	3.1	82.5
56189	2024-02-29T02:28:34	3.1	81
56190	2024-02-29T02:38:34	3	81.5
56191	2024-02-29T02:48:34	2.8	81.5
56192	2024-02-29T02:58:34	2.6	82.5
56193	2024-02-29T03:08:34	2.4	83.5
56194	2024-02-29T03:18:34	2.5	83
56195	2024-02-29T03:28:34	2.5	82.5
56196	2024-02-29T03:38:34	2.4	82
56197	2024-02-29T03:48:34	2.2	83
56198	2024-02-29T03:58:34	2.1	83.5
56199	2024-02-29T04:08:34	2	82.5
56200	2024-02-29T04:18:34	1.9	84
56201	2024-02-29T04:28:34	1.8	84
56202	2024-02-29T04:38:34	1.7	85
56203	2024-02-29T04:48:34	1.6	85.5
56204	2024-02-29T04:58:34	1.5	85
56205	2024-02-29T05:08:34	1.6	84.5
56206	2024-02-29T05:18:34	1.4	85.5
56207	2024-02-29T05:28:34	1.3	85
56208	2024-02-29T05:38:34	1.1	85
56209	2024-02-29T05:48:34	1.2	85
56210	2024-02-29T05:58:34	1.2	85
56211	2024-02-29T06:08:34	1.5	86
56212	2024-02-29T06:18:34	1.4	85
56213	2024-02-29T06:28:34	1.4	85.5
56214	2024-02-29T06:38:34	1.6	87
56215	2024-02-29T06:48:34	1.7	89
56216	2024-02-29T06:58:34	1.9	90.5
56217	2024-02-29T07:08:34	2	88.5
56218	2024-02-29T07:18:34	2	88.5
56219	2024-02-29T07:28:34	2.2	87.5
56220	2024-02-29T07:38:34	2.3	87.5
56221	2024-02-29T07:48:34	2.3	87.5
56222	2024-02-29T07:58:34	2.4	88
56223	2024-02-29T08:08:34	2.8	90
56224	2024-02-29T08:18:34	2.9	89
56225	2024-02-29T08:28:34	3.3	88.5
56226	2024-02-29T08:38:34	3.3	88
56227	2024-02-29T08:48:34	3.4	88
56228	2024-02-29T08:58:34	3.6	87.5
56229	2024-02-29T09:08:34	3.6	87.5
56230	2024-02-29T09:18:34	3.8	89
56231	2024-02-29T09:28:34	3.9	89.5
56232	2024-02-29T09:38:34	4	89
56233	2024-02-29T09:48:34	4.1	88.5
56234	2024-02-29T09:58:34	4.4	88.5
56235	2024-02-29T10:08:34	4.8	86.5
56236	2024-02-29T10:18:34	5.1	86.5
56237	2024-02-29T10:28:34	5.1	87
56238	2024-02-29T10:38:34	5.5	86
56239	2024-02-29T10:48:34	5.8	86
56240	2024-02-29T10:58:34	6	85.5
56241	2024-02-29T11:08:34	6.4	83
56242	2024-02-29T11:18:34	6.7	83
56243	2024-02-29T11:28:34	7.1	81.5
56244	2024-02-29T11:38:34	7.6	80.5
56245	2024-02-29T11:48:34	8	80
56246	2024-02-29T11:58:34	8.4	78.5
56247	2024-02-29T12:08:34	8.9	75.5
56248	2024-02-29T12:18:34	9.7	73.5
56249	2024-02-29T12:28:34	11	68
56250	2024-02-29T12:38:34	13.9	59.5
56251	2024-02-29T12:48:34	15.7	51
56252	2024-02-29T12:58:34	17.4	46.5
56253	2024-02-29T13:08:34	18.8	45
56254	2024-02-29T13:18:34	19.7	41.5
56255	2024-02-29T13:28:34	20.7	39.5
56256	2024-02-29T13:38:34	21.4	37.5
56257	2024-02-29T13:48:34	22.2	35.5
56258	2024-02-29T13:58:34	22.5	34.5
56259	2024-02-29T14:08:34	22.2	34
56260	2024-02-29T14:18:34	22.4	34.5
56261	2024-02-29T14:38:34	23	34.5
56262	2024-02-29T14:48:34	23	34.5
56263	2024-02-29T14:58:34	23.2	33
56264	2024-02-29T15:08:33	23.5	32
56265	2024-02-29T15:18:33	23	33.5
56266	2024-02-29T15:28:33	23	34
56267	2024-02-29T15:38:33	22.1	34.5
56268	2024-02-29T15:48:33	21.5	36
56269	2024-02-29T15:58:33	21.3	37.5
56270	2024-02-29T16:08:33	20.7	38.5
56271	2024-02-29T16:18:33	19.2	40
56272	2024-02-29T16:28:33	18.4	43
56273	2024-02-29T16:38:33	18	44
56274	2024-02-29T16:48:33	17.4	46.5
56275	2024-02-29T16:58:33	16.6	48.5
56276	2024-02-29T17:08:33	16	50.5
56277	2024-02-29T17:18:33	15.2	54.5
56278	2024-02-29T17:28:33	14.2	56
56279	2024-02-29T17:38:33	13.8	57.5
56280	2024-02-29T17:48:33	13.4	58.5
56281	2024-02-29T17:58:33	13.1	60
56282	2024-02-29T18:08:33	12.7	61.5
56283	2024-02-29T18:18:33	12.4	61
56284	2024-02-29T18:28:33	12.1	62.5
56285	2024-02-29T18:38:33	11.7	64
56286	2024-02-29T18:48:33	11.4	64.5
56287	2024-02-29T18:58:33	11.1	65.5
56288	2024-02-29T19:08:33	10.8	66
56289	2024-02-29T19:18:33	10.6	66
56290	2024-02-29T19:28:33	10.4	67.5
56291	2024-02-29T19:38:33	10.1	67.5
56292	2024-02-29T19:48:33	10	68.5
56293	2024-02-29T19:58:33	9.6	70
56294	2024-02-29T20:08:33	9.3	69.5
56295	2024-02-29T20:18:33	9.1	70.5
56296	2024-02-29T20:28:33	9	70
56297	2024-02-29T20:38:33	8.6	71
56298	2024-02-29T20:48:33	8.5	72
56299	2024-02-29T20:58:33	8.2	71.5
56300	2024-02-29T21:08:33	8.1	72.5
56301	2024-02-29T21:18:33	7.9	72.5
56302	2024-02-29T21:28:33	7.7	73.5
56303	2024-02-29T21:38:33	7.6	73.5
56304	2024-02-29T21:48:33	7.4	74
56305	2024-02-29T21:58:33	7.4	74.5
56306	2024-02-29T22:08:33	7.3	73.5
56307	2024-02-29T22:18:33	7.1	74.5
56308	2024-02-29T22:28:33	6.8	75.5
56309	2024-02-29T22:38:33	6.5	76
56310	2024-02-29T22:48:33	6.6	76
56311	2024-02-29T22:58:33	6.4	76.5
56312	2024-02-29T23:08:33	6.3	76
56313	2024-02-29T23:18:33	6.1	76.5
56314	2024-02-29T23:28:33	5.9	77
56315	2024-02-29T23:38:33	5.7	77.5
56316	2024-02-29T23:48:33	5.7	78
56317	2024-02-29T23:58:33	5.4	78.5
56318	2024-03-01T00:25:26	5.5	79.5
56319	2024-03-01T00:25:26	5.7	79.5
56320	2024-03-01T00:28:33	5.7	78.5
56321	2024-03-01T00:38:33	5.8	79
56322	2024-03-01T00:48:33	5.6	79.5
56323	2024-03-01T00:58:33	5.6	80
56324	2024-03-01T01:08:33	5.7	80
56325	2024-03-01T01:18:33	5.6	80.5
56326	2024-03-01T01:28:33	5.5	81.5
56327	2024-03-01T01:38:33	5.6	82
56328	2024-03-01T01:48:33	5.6	82
56329	2024-03-01T01:58:33	5.7	81.5
56330	2024-03-01T02:08:33	5.7	81.5
56331	2024-03-01T02:18:33	5.5	82
56332	2024-03-01T02:28:33	5.7	82.5
56333	2024-03-01T02:38:33	5.7	83
56334	2024-03-01T02:48:33	5.6	83.5
56335	2024-03-01T02:58:33	5.6	84
56336	2024-03-01T03:08:33	5.5	84.5
56337	2024-03-01T03:18:33	5.6	84.5
56338	2024-03-01T03:28:33	5.7	85
56339	2024-03-01T03:38:33	5.7	84
56340	2024-03-01T03:48:33	5.7	84.5
56341	2024-03-01T03:58:33	5.8	85.5
56342	2024-03-01T04:08:33	5.7	85.5
56343	2024-03-01T04:18:33	5.6	86
56344	2024-03-01T04:28:33	5.7	86
56345	2024-03-01T04:38:33	5.7	86
56346	2024-03-01T04:48:33	5.9	86.5
56347	2024-03-01T04:58:33	5.7	86.5
56348	2024-03-01T05:08:33	5.9	86.5
56349	2024-03-01T05:18:33	5.9	87
56350	2024-03-01T05:28:33	5.9	87
56351	2024-03-01T05:38:33	5.8	87
56352	2024-03-01T05:48:33	5.8	87.5
56353	2024-03-01T05:58:33	5.8	87.5
56354	2024-03-01T06:08:33	5.8	88
56355	2024-03-01T06:18:33	6	87.5
56356	2024-03-01T06:28:33	6	87
56357	2024-03-01T06:38:33	6.1	87.5
56358	2024-03-01T06:48:33	6	87
56359	2024-03-01T06:58:33	6.2	87.5
56360	2024-03-01T07:08:33	6.4	87.5
56361	2024-03-01T07:18:33	6.6	87.5
56362	2024-03-01T07:28:33	6.7	87.5
56363	2024-03-01T07:38:33	6.7	87.5
56364	2024-03-01T07:48:33	6.9	87.5
56365	2024-03-01T07:58:33	7	87
56366	2024-03-01T08:08:33	7.1	85.5
56367	2024-03-01T08:18:33	7.2	85
56368	2024-03-01T08:28:33	7.2	85
56369	2024-03-01T08:38:33	7.3	85
56370	2024-03-01T08:48:33	7.8	84
56371	2024-03-01T08:58:33	8.2	81.5
56372	2024-03-01T09:08:33	8.4	80.5
56373	2024-03-01T09:18:33	8.5	80.5
56374	2024-03-01T09:28:33	8.8	79.5
56375	2024-03-01T09:38:33	9.2	78.5
56376	2024-03-01T09:48:33	9.3	77.5
56377	2024-03-01T09:58:33	9.5	76.5
56378	2024-03-01T10:08:33	9.5	76.5
56379	2024-03-01T10:18:33	9.5	76
56380	2024-03-01T10:28:33	9.5	76
56381	2024-03-01T10:38:33	9.4	76.5
56382	2024-03-01T10:48:33	9.4	76.5
56383	2024-03-01T10:58:33	9.4	76.5
56384	2024-03-01T11:08:33	9.5	77
56385	2024-03-01T11:18:33	9.5	76.5
56386	2024-03-01T11:28:32	9.5	77
56387	2024-03-01T11:38:32	9.5	77
56388	2024-03-01T11:48:32	9.5	77.5
56389	2024-03-01T11:58:32	9.3	75.5
56390	2024-03-01T12:08:32	9.3	75
56391	2024-03-01T12:18:32	9.4	74.5
56392	2024-03-01T12:28:32	9.4	74.5
56393	2024-03-01T12:38:32	9.4	74.5
56394	2024-03-01T12:48:32	9.8	73
56395	2024-03-01T12:58:32	10.2	72
56396	2024-03-01T13:08:32	10.3	71
56397	2024-03-01T13:18:32	10.4	72
56398	2024-03-01T13:28:32	10.3	71.5
56399	2024-03-01T13:38:32	10.1	72
56400	2024-03-01T13:48:32	10.2	72
56401	2024-03-01T13:58:32	10.5	72.5
56402	2024-03-01T14:08:32	10.8	70.5
56403	2024-03-01T14:18:32	10.8	70.5
56404	2024-03-01T14:28:32	10.7	71
56405	2024-03-01T14:38:32	10.9	71
56406	2024-03-01T14:48:32	11.1	70
56407	2024-03-01T14:58:32	11.2	70
56408	2024-03-01T15:08:32	11.4	69.5
56409	2024-03-01T15:18:32	11.4	70
56410	2024-03-01T15:28:32	11.3	71
56411	2024-03-01T15:38:32	11.2	71
56412	2024-03-01T15:48:32	11.2	70.5
56413	2024-03-01T15:58:32	11.3	71
56414	2024-03-01T16:08:32	11.6	71
56415	2024-03-01T16:18:32	11.4	71
56416	2024-03-01T16:28:32	11.4	72
56417	2024-03-01T16:38:32	11.1	72.5
56418	2024-03-01T16:48:32	10.7	75
56419	2024-03-01T16:58:32	10.4	76
56420	2024-03-01T17:08:32	10	77.5
56421	2024-03-01T17:18:32	9.5	77
56422	2024-03-01T17:28:32	9.4	78.5
56423	2024-03-01T17:38:32	9.1	79
56424	2024-03-01T17:48:32	9	78.5
56425	2024-03-01T17:58:32	8.8	79.5
56426	2024-03-01T18:08:32	8.6	80
56427	2024-03-01T18:18:32	8.3	80
56428	2024-03-01T18:28:32	8.1	81.5
56429	2024-03-01T18:38:32	8.1	82.5
56430	2024-03-01T18:48:32	8	82.5
56431	2024-03-01T18:58:32	7.9	82.5
56432	2024-03-01T19:08:32	7.8	83
56433	2024-03-01T19:18:32	7.6	83
56434	2024-03-01T19:28:32	7.4	83
56435	2024-03-01T19:38:32	7.3	83.5
56436	2024-03-01T19:48:32	7.1	83.5
56437	2024-03-01T19:58:32	6.9	83.5
56438	2024-03-01T20:08:32	6.9	84
56439	2024-03-01T20:18:32	6.7	84
56440	2024-03-01T20:28:32	6.6	84
56441	2024-03-01T20:38:32	6.6	84.5
56442	2024-03-01T20:48:32	6.5	85
56443	2024-03-01T20:58:32	6.4	85
56444	2024-03-01T21:08:32	6.3	85
56445	2024-03-01T21:18:32	6.1	84.5
56446	2024-03-01T21:28:32	6.1	84.5
56447	2024-03-01T21:38:32	5.9	84.5
56448	2024-03-01T21:48:32	5.9	85
56449	2024-03-01T21:58:32	5.8	85
56450	2024-03-01T22:08:32	5.8	84.5
56451	2024-03-01T22:18:32	5.6	85
56452	2024-03-01T22:28:32	5.5	85
56453	2024-03-01T22:48:32	5.3	85
56454	2024-03-01T22:58:32	5.2	85
56455	2024-03-01T23:08:32	5.2	84
56456	2024-03-01T23:18:32	5	83.5
56457	2024-03-01T23:28:32	4.9	85
56458	2024-03-01T23:38:32	5.1	85.5
56459	2024-03-01T23:48:32	4.9	85
56460	2024-03-01T23:58:32	4.8	85
56461	2024-03-02T00:27:59	4.7	85.5
56462	2024-03-02T00:27:59	4.7	86
56463	2024-03-02T00:28:34	4.5	84.5
56464	2024-03-02T00:38:32	4.5	86
56465	2024-03-02T00:48:32	4.4	86
56466	2024-03-02T00:58:32	4.4	84
56467	2024-03-02T01:08:32	4.2	85
56468	2024-03-02T01:18:32	4.1	85
56469	2024-03-02T01:28:32	3.9	86
56470	2024-03-02T01:38:32	3.9	86.5
56471	2024-03-02T01:48:32	3.8	86.5
56472	2024-03-02T01:58:32	3.6	86
56473	2024-03-02T02:08:32	3.6	86.5
56474	2024-03-02T02:18:32	3.4	86.5
56475	2024-03-02T02:28:32	3.3	86.5
56476	2024-03-02T02:38:32	3.4	86.5
56477	2024-03-02T02:48:32	3.4	86.5
56478	2024-03-02T02:58:32	3.2	85.5
56479	2024-03-02T03:08:32	3.1	85
56480	2024-03-02T03:18:32	3.1	85
56481	2024-03-02T03:28:32	3	85.5
56482	2024-03-02T03:38:32	3.1	85
56483	2024-03-02T03:48:32	3	85
56484	2024-03-02T03:58:32	3	85.5
56485	2024-03-02T04:08:32	2.7	86
56486	2024-03-02T04:18:32	2.7	87
56487	2024-03-02T04:28:32	2.5	86.5
56488	2024-03-02T04:38:32	2.5	86.5
56489	2024-03-02T04:48:32	2.2	87
56490	2024-03-02T04:58:32	2.3	87
56491	2024-03-02T05:08:32	2.2	86.5
56492	2024-03-02T05:18:32	2.1	87
56493	2024-03-02T05:28:32	2.1	87.5
56494	2024-03-02T05:38:32	1.9	88
56495	2024-03-02T05:48:32	2	88
56496	2024-03-02T05:58:32	2	88
56497	2024-03-02T06:08:32	2.1	86.5
56498	2024-03-02T06:18:32	2	86.5
56499	2024-03-02T06:28:32	1.9	87.5
56500	2024-03-02T06:38:32	1.8	88
56501	2024-03-02T06:48:32	1.8	88.5
56502	2024-03-02T06:58:32	1.9	89
56503	2024-03-02T07:08:32	2	88.5
56504	2024-03-02T07:18:32	2.3	87
56505	2024-03-02T07:28:32	2.5	88.5
56506	2024-03-02T07:38:32	2.9	88.5
56507	2024-03-02T07:48:32	3.3	88.5
56508	2024-03-02T07:58:32	3.6	89.5
56509	2024-03-02T08:08:32	4	89.5
56510	2024-03-02T08:18:32	4.4	87.5
56511	2024-03-02T08:28:32	4.7	88.5
56512	2024-03-02T08:38:32	4.8	86
56513	2024-03-02T08:48:32	5.1	87
56514	2024-03-02T08:58:32	5.4	85
56515	2024-03-02T09:08:32	5.9	84.5
56516	2024-03-02T09:18:32	6.2	82.5
56517	2024-03-02T09:28:32	6.4	82.5
56518	2024-03-02T09:38:32	6.6	83.5
56519	2024-03-02T09:48:32	6.9	82
56520	2024-03-02T09:58:32	7.3	79
56521	2024-03-02T10:08:32	7.9	78
56522	2024-03-02T10:18:32	8.2	78
56523	2024-03-02T10:28:32	8.5	76
56524	2024-03-02T10:38:32	8.9	76
56525	2024-03-02T10:48:32	9.3	76
56526	2024-03-02T10:58:32	9.5	76
56527	2024-03-02T11:08:32	9.8	72
56528	2024-03-02T11:18:32	10.2	68
56529	2024-03-02T11:28:32	10.6	67
56530	2024-03-02T11:38:32	11.1	66.5
56531	2024-03-02T11:48:32	11.5	62.5
56532	2024-03-02T11:58:32	12.1	59.5
56533	2024-03-02T12:08:32	12.7	60
56534	2024-03-02T12:18:32	13.4	56.5
56535	2024-03-02T12:28:32	14.9	54
56536	2024-03-02T12:38:32	18.7	44.5
56537	2024-03-02T12:48:31	20.4	38.5
56538	2024-03-02T12:58:31	21.4	38
56539	2024-03-02T13:08:31	21.9	36.5
56540	2024-03-02T13:18:31	23.3	34
56541	2024-03-02T13:28:31	22.5	35.5
56542	2024-03-02T13:38:31	22.1	36.5
56543	2024-03-02T13:48:31	22	38
56544	2024-03-02T13:58:31	21.4	39
56545	2024-03-02T14:08:31	21.6	39
56546	2024-03-02T14:18:31	20.8	39
56547	2024-03-02T14:28:31	19.8	43
56548	2024-03-02T14:38:31	19	44
56549	2024-03-02T14:48:31	17.9	45.5
56550	2024-03-02T14:58:31	17.3	47
56551	2024-03-02T15:08:31	17.2	48
56552	2024-03-02T15:18:31	17	50
56553	2024-03-02T15:28:31	16.9	52.5
56554	2024-03-02T15:38:31	16.7	50.5
56555	2024-03-02T15:48:31	16.2	51.5
56556	2024-03-02T15:58:31	16.1	52.5
56557	2024-03-02T16:08:31	15.9	55
56558	2024-03-02T16:18:31	15.5	57
56559	2024-03-02T16:28:31	15.2	60.5
56560	2024-03-02T16:38:31	15.4	61.5
56561	2024-03-02T16:48:31	15.6	61
56562	2024-03-02T16:58:31	15.1	61.5
56563	2024-03-02T17:08:31	14.8	62.5
56564	2024-03-02T17:18:31	14.5	62
56565	2024-03-02T17:28:31	14.3	60.5
56566	2024-03-02T17:38:31	14.2	61.5
56567	2024-03-02T17:48:31	14.1	60
56568	2024-03-02T17:58:31	13.9	61
56569	2024-03-02T18:08:31	13.8	60.5
56570	2024-03-02T18:18:31	13.5	61.5
56571	2024-03-02T18:28:31	13.2	60.5
56572	2024-03-02T18:38:31	13	59
56573	2024-03-02T18:48:31	13	57.5
56574	2024-03-02T18:58:31	12.9	58.5
56575	2024-03-02T19:08:31	13	59
56576	2024-03-02T19:18:31	12.8	60
56577	2024-03-02T19:28:31	12.4	61.5
56578	2024-03-02T19:38:31	12.2	62.5
56579	2024-03-02T19:48:31	12.1	64
56580	2024-03-02T19:58:31	12	66
56581	2024-03-02T20:08:31	12	67.5
56582	2024-03-02T20:18:31	11.8	69
56583	2024-03-02T20:28:31	11.9	69
56584	2024-03-02T20:38:31	11.8	70.5
56585	2024-03-02T20:48:31	11.9	71
56586	2024-03-02T20:58:31	11.8	71
56587	2024-03-02T21:08:31	11.8	72
56588	2024-03-02T21:18:31	11.7	72.5
56589	2024-03-02T21:28:31	11.7	73.5
56590	2024-03-02T21:38:31	11.7	73
56591	2024-03-02T21:48:31	11.7	74
56592	2024-03-02T21:58:31	11.7	74
56593	2024-03-02T22:08:31	11.6	74.5
56594	2024-03-02T22:18:31	11.5	75
56595	2024-03-02T22:28:31	11.4	75
56596	2024-03-02T22:38:31	11.4	74
56597	2024-03-02T22:48:31	11.5	74
56598	2024-03-02T22:58:31	11.4	74.5
56599	2024-03-02T23:08:31	11.5	74
56600	2024-03-02T23:18:31	11.4	74.5
56601	2024-03-02T23:28:31	11.3	74
56602	2024-03-02T23:38:31	11.1	74.5
56603	2024-03-02T23:48:31	11	75
56604	2024-03-02T23:58:31	10.8	75.5
56605	2024-03-03T00:29:43	10.7	75.5
56606	2024-03-03T00:29:54	10.3	77.5
56607	2024-03-03T00:30:00	10.6	76.5
56608	2024-03-03T00:38:31	10.4	77
56609	2024-03-03T00:48:31	10.5	77
56610	2024-03-03T00:58:31	10.5	77
56611	2024-03-03T01:08:31	10.4	77.5
56612	2024-03-03T01:18:31	10.3	77.5
56613	2024-03-03T01:28:31	10.2	78
56614	2024-03-03T01:38:31	10.1	78
56615	2024-03-03T01:48:31	10	78
56616	2024-03-03T01:58:31	10	78.5
56617	2024-03-03T02:08:31	10	79
56618	2024-03-03T02:18:31	9.9	78.5
56619	2024-03-03T02:28:31	9.7	79.5
56620	2024-03-03T02:38:31	9.7	79.5
56621	2024-03-03T02:48:30	9.7	80
56622	2024-03-03T02:58:30	9.6	80
56623	2024-03-03T03:08:30	9.6	80
56624	2024-03-03T03:18:30	9.4	80
56625	2024-03-03T03:28:30	9.4	80.5
56626	2024-03-03T03:38:30	9.4	81
56627	2024-03-03T03:48:30	9.2	81
56628	2024-03-03T03:58:30	9.1	80.5
56629	2024-03-03T04:08:30	9.1	81
56630	2024-03-03T04:18:30	8.9	81.5
56631	2024-03-03T04:28:30	8.9	81.5
56632	2024-03-03T04:38:30	8.8	82.5
56633	2024-03-03T04:48:30	8.8	82.5
56634	2024-03-03T04:58:30	8.7	83
56635	2024-03-03T05:08:30	8.6	83
56636	2024-03-03T05:18:30	8.5	83.5
56637	2024-03-03T05:28:30	8.5	83
56638	2024-03-03T05:38:30	8.4	83.5
56639	2024-03-03T05:48:30	8.3	83.5
56640	2024-03-03T05:58:30	8.2	83.5
56641	2024-03-03T06:08:30	8.2	84
56642	2024-03-03T06:18:30	8.1	84
56643	2024-03-03T06:28:30	8	84.5
56644	2024-03-03T06:38:30	8	84.5
56645	2024-03-03T06:48:30	8	84.5
56646	2024-03-03T06:58:51	8.1	84
56647	2024-03-03T07:08:30	8.2	84
56648	2024-03-03T07:18:30	8.1	84
56649	2024-03-03T07:28:30	8.3	83.5
56650	2024-03-03T07:38:30	8.3	84
56651	2024-03-03T07:48:30	8.4	83.5
56652	2024-03-03T07:58:30	8.6	83
56653	2024-03-03T08:08:30	8.8	82.5
56654	2024-03-03T08:18:30	8.9	82
56655	2024-03-03T08:28:30	9.1	81.5
56656	2024-03-03T08:38:30	9.2	81.5
56657	2024-03-03T08:48:30	9.2	82.5
56658	2024-03-03T08:58:30	9.3	82
56659	2024-03-03T09:08:30	9.5	81.5
56660	2024-03-03T09:18:30	9.7	80
56661	2024-03-03T09:28:30	10	79.5
56662	2024-03-03T09:38:30	10.1	79
56663	2024-03-03T09:48:30	10.5	78
56664	2024-03-03T09:58:30	10.7	77.5
56665	2024-03-03T10:08:30	11	77
56666	2024-03-03T10:18:30	11.4	75
56667	2024-03-03T10:28:30	11.6	74
56668	2024-03-03T10:38:30	11.9	73.5
56669	2024-03-03T10:58:30	12.1	72
56670	2024-03-03T11:08:30	12.4	72
56671	2024-03-03T11:18:30	12.7	71
56672	2024-03-03T11:28:30	12.8	69.5
56673	2024-03-03T11:38:30	13	69
56674	2024-03-03T11:48:30	13.2	68.5
56675	2024-03-03T11:58:30	13.2	68
56676	2024-03-03T12:08:30	13.4	68
56677	2024-03-03T12:18:30	13.6	68
56678	2024-03-03T12:28:30	14	66
56679	2024-03-03T12:38:30	14.7	64.5
56680	2024-03-03T12:48:30	15.2	63
56681	2024-03-03T12:58:30	16.1	61
56682	2024-03-03T13:08:30	17.4	57
56683	2024-03-03T13:18:30	17.8	54.5
56684	2024-03-03T13:28:30	19.9	51
56685	2024-03-03T13:38:30	22.7	43
56686	2024-03-03T13:48:30	24.3	40
56687	2024-03-03T13:58:30	25.1	35
56688	2024-03-03T14:08:30	25.4	33.5
56689	2024-03-03T14:18:30	25.6	33
56690	2024-03-03T14:28:30	24.9	33.5
56691	2024-03-03T14:38:30	23.2	36
56692	2024-03-03T14:48:30	22.5	38
56693	2024-03-03T14:58:30	22.6	39
56694	2024-03-03T15:08:30	23	40.5
56695	2024-03-03T15:18:30	24.1	37.5
56696	2024-03-03T15:28:30	24.4	39
56697	2024-03-03T15:38:30	25.6	36.5
56698	2024-03-03T15:48:30	26.1	36
56699	2024-03-03T15:58:30	26.1	35.5
56700	2024-03-03T16:08:30	24.2	39
56701	2024-03-03T16:18:30	24	39
56702	2024-03-03T16:28:30	22.3	42
56703	2024-03-03T16:38:30	20.8	45
56704	2024-03-03T16:48:30	19.8	48
56705	2024-03-03T16:58:30	19.2	50.5
56706	2024-03-03T17:08:30	18.7	52
56707	2024-03-03T17:18:30	18.1	55
56708	2024-03-03T17:28:30	17.1	58
56709	2024-03-03T17:38:29	16.8	59
56710	2024-03-03T17:48:29	16	59.5
56711	2024-03-03T17:58:29	15.2	62
56712	2024-03-03T18:08:29	14.7	62.5
56713	2024-03-03T18:18:29	13.9	64.5
56714	2024-03-03T18:28:29	13.6	66
56715	2024-03-03T18:38:29	13.5	66.5
56716	2024-03-03T18:48:29	12.8	68.5
56717	2024-03-03T18:58:29	12.6	70
56718	2024-03-03T19:08:29	12.4	71
56719	2024-03-03T19:18:29	12	72.5
56720	2024-03-03T19:28:29	11.9	73
56721	2024-03-03T19:38:29	11.7	74
56722	2024-03-03T19:48:29	11.5	74.5
56723	2024-03-03T19:58:29	11.4	74.5
56724	2024-03-03T20:08:29	11.4	75
56725	2024-03-03T20:18:29	11.2	75
56726	2024-03-03T20:28:29	11.1	75.5
56727	2024-03-03T20:38:29	10.9	75.5
56728	2024-03-03T20:48:29	10.9	76.5
56729	2024-03-03T20:58:29	10.9	76.5
56730	2024-03-03T21:08:29	10.8	77
56731	2024-03-03T21:18:29	10.8	77.5
56732	2024-03-03T21:28:29	10.6	78.5
56733	2024-03-03T21:38:29	10.5	79.5
56734	2024-03-03T21:48:29	10.3	80.5
56735	2024-03-03T21:58:29	10.2	81.5
56736	2024-03-03T22:08:29	10.1	82
56737	2024-03-03T22:18:29	10	83
56738	2024-03-03T22:28:29	9.8	83.5
56739	2024-03-03T22:38:29	9.7	83.5
56740	2024-03-03T22:48:29	9.6	84
56741	2024-03-03T22:58:29	9.5	84
56742	2024-03-03T23:08:29	9.4	84.5
56743	2024-03-03T23:18:29	9.4	84.5
56744	2024-03-03T23:28:29	9.4	84.5
56745	2024-03-03T23:38:29	9.4	84
56746	2024-03-03T23:48:29	9.3	84.5
56747	2024-03-03T23:58:29	9.4	84.5
56748	2024-03-04T00:26:52	9.4	84
56749	2024-03-04T00:26:52	9.4	84
56750	2024-03-04T00:28:46	9.3	84
56751	2024-03-04T00:38:29	9.3	84.5
56752	2024-03-04T00:48:29	9.3	85
56753	2024-03-04T00:58:29	9.1	85
56754	2024-03-04T01:08:29	9.2	85
56755	2024-03-04T01:18:29	9.3	85
56756	2024-03-04T01:28:29	9.2	85
56757	2024-03-04T01:38:29	9.2	85
56758	2024-03-04T01:48:29	9.1	85
56759	2024-03-04T01:58:29	9.1	85
56760	2024-03-04T02:08:29	9.1	85
56761	2024-03-04T02:18:29	9.1	85
56762	2024-03-04T02:28:29	9.1	85
56763	2024-03-04T02:38:29	9	85
56764	2024-03-04T02:48:29	8.8	85
56765	2024-03-04T02:58:29	8.9	85.5
56766	2024-03-04T03:08:29	8.8	85
56767	2024-03-04T03:18:29	8.8	85.5
56768	2024-03-04T03:28:29	8.7	85.5
56769	2024-03-04T03:38:29	8.7	85.5
56770	2024-03-04T03:48:29	8.7	85.5
56771	2024-03-04T03:58:29	8.6	85.5
56772	2024-03-04T04:08:29	8.6	86
56773	2024-03-04T04:18:29	8.5	85.5
56774	2024-03-04T04:28:29	8.5	85.5
56775	2024-03-04T04:38:29	8.4	86
56776	2024-03-04T04:48:29	8.4	86
56777	2024-03-04T04:58:29	8.3	86
56778	2024-03-04T05:08:29	8.4	86
56779	2024-03-04T05:18:29	8.3	86.5
56780	2024-03-04T05:28:29	8.3	86.5
56781	2024-03-04T05:38:29	8.4	86.5
56782	2024-03-04T05:48:29	8.2	87
56783	2024-03-04T05:58:29	8.4	87
56784	2024-03-04T06:08:29	8.3	87.5
56785	2024-03-04T06:18:29	8.3	87.5
56786	2024-03-04T06:28:29	8.2	87.5
56787	2024-03-04T06:38:29	8.3	87.5
56788	2024-03-04T06:48:29	8.2	87.5
56789	2024-03-04T06:58:29	8.2	87.5
56790	2024-03-04T07:08:29	8.4	87.5
56791	2024-03-04T07:18:29	8.3	87.5
56792	2024-03-04T07:28:29	8.5	87.5
56793	2024-03-04T07:38:29	8.3	87
56794	2024-03-04T07:48:29	8.4	87
56795	2024-03-04T07:58:29	8.4	87
56796	2024-03-04T08:08:29	8.5	87
56797	2024-03-04T08:18:29	8.5	86.5
56798	2024-03-04T08:28:29	8.5	87
56799	2024-03-04T08:38:29	8.6	86.5
56800	2024-03-04T08:48:29	8.6	86.5
56801	2024-03-04T08:58:29	8.7	86.5
56802	2024-03-04T09:08:29	8.7	86
56803	2024-03-04T09:18:29	8.8	85.5
56804	2024-03-04T09:28:29	8.8	85.5
56805	2024-03-04T09:38:29	8.8	85
56806	2024-03-04T09:48:29	9	85
56807	2024-03-04T09:58:29	9.1	85
56808	2024-03-04T10:08:29	9	84.5
56809	2024-03-04T10:18:29	9	85
56810	2024-03-04T10:28:29	8.9	85
56811	2024-03-04T10:38:29	8.9	85.5
56812	2024-03-04T10:48:29	9	85
56813	2024-03-04T10:58:29	8.9	85
56814	2024-03-04T11:08:29	8.8	85.5
56815	2024-03-04T11:18:29	8.8	85.5
56816	2024-03-04T11:28:29	8.9	85.5
56817	2024-03-04T11:38:29	8.8	85.5
56818	2024-03-04T11:48:29	8.8	86
56819	2024-03-04T11:58:29	8.9	85.5
56820	2024-03-04T12:08:28	8.7	86
56821	2024-03-04T12:18:28	8.7	86
56822	2024-03-04T12:28:28	8.8	86.5
56823	2024-03-04T12:38:28	8.8	87
56824	2024-03-04T12:48:28	8.8	87
56825	2024-03-04T12:58:28	8.8	87
56826	2024-03-04T13:08:28	8.6	88
56827	2024-03-04T13:18:28	8.7	89
56828	2024-03-04T13:28:28	8.6	89
56829	2024-03-04T13:38:28	8.6	89
56830	2024-03-04T13:58:28	8.7	87
56831	2024-03-04T14:08:28	8.8	87
56832	2024-03-04T14:18:28	8.8	86.5
56833	2024-03-04T14:28:28	8.8	86.5
56834	2024-03-04T14:38:28	8.9	86
56835	2024-03-04T14:48:28	9.1	85.5
56836	2024-03-04T14:58:28	9.2	85
56837	2024-03-04T15:08:28	9.1	85
56838	2024-03-04T15:18:28	9.1	85
56839	2024-03-04T15:28:28	9.1	85
56840	2024-03-04T15:38:28	8.9	85
56841	2024-03-04T15:48:28	9	85
56842	2024-03-04T15:58:28	8.9	85
56843	2024-03-04T16:08:28	8.9	85.5
56844	2024-03-04T16:18:28	8.9	85.5
56845	2024-03-04T16:28:28	8.9	85
56846	2024-03-04T16:38:28	8.8	86
56847	2024-03-04T16:48:28	8.8	86
56848	2024-03-04T16:58:28	8.9	86
56849	2024-03-04T17:08:28	8.8	86.5
56850	2024-03-04T17:18:28	8.8	86.5
56851	2024-03-04T17:38:28	8.8	87
56852	2024-03-04T17:48:28	8.8	87
56853	2024-03-04T17:58:28	8.8	86.5
56854	2024-03-04T18:08:28	8.8	86.5
56855	2024-03-04T18:18:28	8.8	86.5
56856	2024-03-04T18:28:28	8.9	86.5
56857	2024-03-04T18:38:28	8.9	87
56858	2024-03-04T18:48:28	8.9	87
56859	2024-03-04T18:58:28	8.9	87.5
56860	2024-03-04T19:08:28	8.9	87
56861	2024-03-04T19:18:28	9	88
56862	2024-03-04T19:28:28	9	87.5
56863	2024-03-04T19:38:28	8.8	87.5
56864	2024-03-04T19:48:28	8.9	87.5
56865	2024-03-04T19:58:28	8.9	87.5
56866	2024-03-04T20:08:28	8.9	88
56867	2024-03-04T20:18:28	8.9	88
56868	2024-03-04T20:28:28	8.9	88
56869	2024-03-04T20:38:28	8.8	88
56870	2024-03-04T20:48:28	8.8	88
56871	2024-03-04T20:58:28	8.7	88
56872	2024-03-04T21:08:28	8.7	88
56873	2024-03-04T21:18:28	8.7	88
56874	2024-03-04T21:28:28	8.7	88
56875	2024-03-04T21:38:28	8.7	88
56876	2024-03-04T21:48:28	8.6	88.5
56877	2024-03-04T21:58:28	8.8	88.5
56878	2024-03-04T22:08:28	8.7	89.5
56879	2024-03-04T22:18:28	8.5	89
56880	2024-03-04T22:28:28	8.5	89.5
56881	2024-03-04T22:38:28	8.6	90
56882	2024-03-04T22:48:28	8.6	90
56883	2024-03-04T22:58:28	8.5	90
56884	2024-03-04T23:08:28	8.6	91
56885	2024-03-04T23:18:28	8.5	91
56886	2024-03-04T23:28:28	8.8	92
56887	2024-03-04T23:38:28	8.6	92
56888	2024-03-04T23:48:28	8.7	92.5
56889	2024-03-04T23:58:28	8.6	92.5
56890	2024-03-05T00:24:11	8.6	92.5
56891	2024-03-05T00:24:11	8.7	92.5
56892	2024-03-05T00:28:28	8.5	93
56893	2024-03-05T00:38:28	8.6	92.5
56894	2024-03-05T00:48:28	8.5	92.5
56895	2024-03-05T00:58:28	8.5	93
56896	2024-03-05T01:08:28	8.6	92.5
56897	2024-03-05T01:18:28	8.5	93
56898	2024-03-05T01:28:28	8.5	92.5
56899	2024-03-05T01:38:28	8.5	92
56900	2024-03-05T01:48:28	8.5	92.5
56901	2024-03-05T01:58:28	8.4	92.5
56902	2024-03-05T02:08:28	8.4	92.5
56903	2024-03-05T02:18:28	8.3	91.5
56904	2024-03-05T02:28:28	8.2	92.5
56905	2024-03-05T02:38:28	8.1	93
56906	2024-03-05T02:48:28	8.2	92
56907	2024-03-05T02:58:28	8.2	92
56908	2024-03-05T03:08:28	8.3	92
56909	2024-03-05T03:18:28	8.2	91.5
56910	2024-03-05T03:28:28	8.2	92
56911	2024-03-05T03:38:28	8.1	91
56912	2024-03-05T03:48:28	8.1	91
56913	2024-03-05T03:58:28	8.2	91
56914	2024-03-05T04:08:28	8.2	91
56915	2024-03-05T04:18:28	8.3	92
56916	2024-03-05T04:28:28	8.3	91.5
56917	2024-03-05T04:38:28	8.4	91
56918	2024-03-05T04:48:28	8.2	91
56919	2024-03-05T04:58:28	8.3	91.5
56920	2024-03-05T05:08:28	8.3	92
56921	2024-03-05T05:18:28	8.2	93
56922	2024-03-05T05:28:28	8.2	93.5
56923	2024-03-05T05:38:28	8.2	93
56924	2024-03-05T05:48:28	8	94.5
56925	2024-03-05T05:58:28	7.7	96.5
56926	2024-03-05T06:08:28	7.8	97.5
56927	2024-03-05T06:18:28	7.7	97
56928	2024-03-05T06:28:28	7.6	97.5
56929	2024-03-05T06:38:28	7.5	97
56930	2024-03-05T06:48:28	7.6	97.5
56931	2024-03-05T06:58:27	7.5	97.5
56932	2024-03-05T07:08:27	7.7	97
56933	2024-03-05T07:18:27	7.6	97
56934	2024-03-05T07:28:27	7.7	97
56935	2024-03-05T07:38:28	7.6	97
56936	2024-03-05T07:48:27	7.7	96.5
56937	2024-03-05T07:58:27	7.6	96.5
56938	2024-03-05T08:08:27	7.6	96.5
56939	2024-03-05T08:28:27	7.5	97.5
56940	2024-03-05T08:38:27	7.5	98
56941	2024-03-05T08:48:27	7.5	97.5
56942	2024-03-05T08:58:27	7.6	97
56943	2024-03-05T09:08:27	7.6	96.5
56944	2024-03-05T09:18:27	7.7	96.5
56945	2024-03-05T09:28:27	7.7	95.5
56946	2024-03-05T09:38:27	7.7	95
56947	2024-03-05T09:48:27	7.8	95.5
56948	2024-03-05T09:58:27	7.8	95.5
56949	2024-03-05T10:08:27	8.1	94
56950	2024-03-05T10:18:27	8	95.5
56951	2024-03-05T10:28:27	8.2	92
56952	2024-03-05T10:38:27	8.7	87
56953	2024-03-05T10:48:27	9.1	83.5
56954	2024-03-05T10:58:27	9.3	81
56955	2024-03-05T11:08:27	9.3	81
56956	2024-03-05T11:18:27	9.6	81.5
56957	2024-03-05T11:28:27	9.5	81
56958	2024-03-05T11:38:27	9.5	79.5
56959	2024-03-05T11:48:27	9.5	81
56960	2024-03-05T11:58:27	9.7	80.5
56961	2024-03-05T12:08:27	9.9	80.5
56962	2024-03-05T12:18:27	9.6	80
56963	2024-03-05T12:28:27	9.6	79.5
56964	2024-03-05T12:38:27	9.6	80.5
56965	2024-03-05T12:48:27	9.4	80.5
56966	2024-03-05T12:58:27	9	81
56967	2024-03-05T13:08:27	9.1	82.5
56968	2024-03-05T13:18:27	9.3	83
56969	2024-03-05T13:28:27	10.7	78.5
56970	2024-03-05T13:38:27	11.3	74
56971	2024-03-05T13:48:27	11.6	72.5
56972	2024-03-05T13:58:27	11	73
56973	2024-03-05T14:08:27	10.9	72
56974	2024-03-05T14:18:27	10.8	71.5
56975	2024-03-05T14:28:27	13.8	64
56976	2024-03-05T14:38:27	14.5	58.5
56977	2024-03-05T14:48:27	13.9	61
56978	2024-03-05T14:58:27	14.5	58.5
56979	2024-03-05T15:08:27	13.5	60.5
56980	2024-03-05T15:18:27	12.8	64
56981	2024-03-05T15:28:27	12	66.5
56982	2024-03-05T15:38:27	11.4	68.5
56983	2024-03-05T15:58:27	11.6	68.5
56984	2024-03-05T16:08:27	13	63
56985	2024-03-05T16:18:27	11.8	67.5
56986	2024-03-05T16:28:27	11.7	67
56987	2024-03-05T16:38:27	10.9	70
56988	2024-03-05T16:48:27	10.7	70.5
56989	2024-03-05T16:58:27	10.4	73
56990	2024-03-05T17:08:27	10.4	73.5
56991	2024-03-05T17:18:27	10.2	75.5
56992	2024-03-05T17:28:27	10	77
56993	2024-03-05T17:38:27	9.7	79.5
56994	2024-03-05T17:48:27	9.4	79
56995	2024-03-05T17:58:27	9.1	79
56996	2024-03-05T18:08:27	8.8	79
56997	2024-03-05T18:18:27	8.4	80.5
56998	2024-03-05T18:28:27	8.4	81.5
56999	2024-03-05T18:38:27	8.1	82.5
57000	2024-03-05T18:48:27	8	82.5
57001	2024-03-05T18:58:27	7.8	83
57002	2024-03-05T19:08:27	7.7	83.5
57003	2024-03-05T19:18:27	7.7	84
57004	2024-03-05T19:28:27	7.7	83.5
57005	2024-03-05T19:38:27	7.7	83
57006	2024-03-05T19:48:27	7.7	83
57007	2024-03-05T19:58:27	7.7	83.5
57008	2024-03-05T20:08:27	7.5	83.5
57009	2024-03-05T20:18:27	7.5	84.5
57010	2024-03-05T20:28:27	7.5	84
57011	2024-03-05T20:38:27	7.4	83.5
57012	2024-03-05T20:48:27	7.2	83.5
57013	2024-03-05T20:58:27	7.1	83.5
57014	2024-03-05T21:08:27	6.8	84.5
57015	2024-03-05T21:18:27	6.8	84
57016	2024-03-05T21:28:27	6.7	85
57017	2024-03-05T21:38:27	6.4	85
57018	2024-03-05T21:48:27	6.2	85.5
57019	2024-03-05T21:58:27	6	86.5
57020	2024-03-05T22:08:27	6.1	85.5
57021	2024-03-05T22:18:27	6.2	84
57022	2024-03-05T22:28:27	6.3	85
57023	2024-03-05T22:38:27	6.2	84.5
57024	2024-03-05T22:48:27	6.3	85.5
57025	2024-03-05T22:58:27	6	85.5
57026	2024-03-05T23:08:27	5.8	86.5
57027	2024-03-05T23:18:27	5.7	87
57028	2024-03-05T23:28:27	5.8	87
57029	2024-03-05T23:38:27	5.9	87
57030	2024-03-05T23:48:27	5.9	87
57031	2024-03-05T23:58:27	6.1	86.5
57032	2024-03-06T00:23:27	6	86.5
57033	2024-03-06T00:23:27	6	86
57034	2024-03-06T00:28:27	6.2	86.5
57035	2024-03-06T00:38:27	6.2	87
57036	2024-03-06T00:48:27	6	87.5
57037	2024-03-06T00:58:27	6	87.5
57038	2024-03-06T01:08:27	5.9	88
57039	2024-03-06T01:18:27	5.8	88
57040	2024-03-06T01:28:27	5.9	88.5
57041	2024-03-06T01:38:27	5.7	88.5
57042	2024-03-06T01:48:27	5.3	90
57043	2024-03-06T01:58:27	5.4	89
57044	2024-03-06T02:08:27	5.3	89.5
57045	2024-03-06T02:18:27	5.5	90
57046	2024-03-06T02:28:27	5.5	90
57047	2024-03-06T02:38:27	5.6	90
57048	2024-03-06T02:48:27	5.7	89.5
57049	2024-03-06T02:58:27	5.6	89.5
57050	2024-03-06T03:08:27	5.5	89.5
57051	2024-03-06T03:18:27	5.6	90.5
57052	2024-03-06T03:28:27	5.5	90
57053	2024-03-06T03:38:27	5.4	90
57054	2024-03-06T03:48:27	5.3	90.5
57055	2024-03-06T03:58:27	5.3	90
57056	2024-03-06T04:08:27	5.4	90.5
57057	2024-03-06T04:18:26	5.4	90
57058	2024-03-06T04:28:26	5.2	90
57059	2024-03-06T04:38:26	5.1	90.5
57060	2024-03-06T04:48:27	5.2	90.5
57061	2024-03-06T04:58:26	4.9	91
57062	2024-03-06T05:08:26	4.9	91
57063	2024-03-06T05:18:26	5.1	91
57064	2024-03-06T05:28:26	5.1	91.5
57065	2024-03-06T05:38:26	5.2	91
57066	2024-03-06T05:48:26	5.2	91
57067	2024-03-06T05:58:26	5.2	91
57068	2024-03-06T06:08:26	5.3	91.5
57069	2024-03-06T06:18:26	5.4	91.5
57070	2024-03-06T06:28:26	5.5	91.5
57071	2024-03-06T06:38:26	5.7	91
57072	2024-03-06T06:48:26	5.9	92
57073	2024-03-06T06:58:26	6	91
57074	2024-03-06T07:08:26	6.1	92
57075	2024-03-06T07:18:26	6.3	92
57076	2024-03-06T07:28:26	6.3	91
57077	2024-03-06T07:38:26	6.5	92
57078	2024-03-06T07:48:26	6.5	93
57079	2024-03-06T07:58:26	6.5	94
57080	2024-03-06T08:08:26	6.5	93
57081	2024-03-06T08:18:26	6.6	92.5
57082	2024-03-06T08:28:26	6.6	93
57083	2024-03-06T08:38:26	6.8	91
57084	2024-03-06T08:48:26	7	90.5
57085	2024-03-06T08:58:26	7	88.5
57086	2024-03-06T09:08:26	7.3	88.5
57087	2024-03-06T09:18:26	7.5	88
57088	2024-03-06T09:28:26	7.8	86.5
57089	2024-03-06T09:38:26	7.9	86.5
57090	2024-03-06T09:48:26	8.2	84.5
57091	2024-03-06T09:58:26	8.4	84.5
57092	2024-03-06T10:08:26	8.6	83.5
57093	2024-03-06T10:18:26	8.3	84
57094	2024-03-06T10:28:26	8.3	85
57095	2024-03-06T10:38:26	8.3	86
57096	2024-03-06T10:48:26	8.3	84
57097	2024-03-06T10:58:26	8.6	82.5
57098	2024-03-06T11:08:26	8.4	83.5
57099	2024-03-06T11:18:26	8.4	82.5
57100	2024-03-06T11:28:26	8.5	84
57101	2024-03-06T11:38:26	8.4	84
57102	2024-03-06T11:48:26	8.4	84
57103	2024-03-06T11:58:26	8.5	84.5
57104	2024-03-06T12:08:26	8.5	84.5
57105	2024-03-06T12:18:26	8.5	84
57106	2024-03-06T12:28:26	8.6	84
57107	2024-03-06T12:38:26	8.8	83
57108	2024-03-06T12:48:26	9	82.5
57109	2024-03-06T12:58:26	9.2	82
57110	2024-03-06T13:08:26	9.2	81.5
57111	2024-03-06T13:18:26	9.2	81.5
57112	2024-03-06T13:28:26	9.3	81
57113	2024-03-06T13:38:26	9.3	80
57114	2024-03-06T13:48:26	9.3	80.5
57115	2024-03-06T13:58:26	9.3	81
57116	2024-03-06T14:08:26	9.4	81
57117	2024-03-06T14:18:26	9.1	82.5
57118	2024-03-06T14:28:26	9	82.5
57119	2024-03-06T14:38:26	9	84.5
57120	2024-03-06T14:48:26	8.9	83.5
57121	2024-03-06T14:58:26	8.7	85.5
57122	2024-03-06T15:08:26	8.5	88
57123	2024-03-06T15:18:26	8.5	87
57124	2024-03-06T15:28:26	8.4	88
57125	2024-03-06T15:38:26	8.3	89.5
57126	2024-03-06T15:48:26	8.3	90
57127	2024-03-06T15:58:26	8.4	91
57128	2024-03-06T16:08:26	8.3	90
57129	2024-03-06T16:18:26	8.3	91
57130	2024-03-06T16:28:26	8.1	90
57131	2024-03-06T16:38:26	8	91.5
57132	2024-03-06T16:48:26	8.1	92.5
57133	2024-03-06T16:58:26	8.1	92
57134	2024-03-06T17:08:26	8	92.5
57135	2024-03-06T17:18:26	7.9	92.5
57136	2024-03-06T17:28:26	8.1	93
57137	2024-03-06T17:38:26	8	93.5
57138	2024-03-06T17:48:26	8.1	93
57139	2024-03-06T17:58:26	8.1	93.5
57140	2024-03-06T18:08:26	8	91.5
57141	2024-03-06T18:18:26	8	92
57142	2024-03-06T18:28:26	7.9	92.5
57143	2024-03-06T18:48:26	7.9	93
57144	2024-03-06T18:58:26	7.8	93
57145	2024-03-06T19:08:26	7.8	93.5
57146	2024-03-06T19:18:26	7.9	93
57147	2024-03-06T19:28:26	7.8	93.5
57148	2024-03-06T19:38:26	8	94
57149	2024-03-06T19:48:26	7.9	93
57150	2024-03-06T19:58:26	7.8	93.5
57151	2024-03-06T20:08:26	7.7	94.5
57152	2024-03-06T20:18:26	7.7	94.5
57153	2024-03-06T20:28:26	7.7	94.5
57154	2024-03-06T20:38:26	7.7	93.5
57155	2024-03-06T20:48:26	7.7	94.5
57156	2024-03-06T20:58:26	7.7	94.5
57157	2024-03-06T21:08:26	7.8	94.5
57158	2024-03-06T21:18:26	7.7	94.5
57159	2024-03-06T21:28:26	7.7	94.5
57160	2024-03-06T21:38:26	7.8	95
57161	2024-03-06T21:48:26	7.8	95
57162	2024-03-06T21:58:26	7.7	94.5
57163	2024-03-06T22:08:26	7.7	94.5
57164	2024-03-06T22:18:26	7.7	94.5
57165	2024-03-06T22:28:26	7.8	95
57166	2024-03-06T22:38:26	7.7	94
57167	2024-03-06T22:48:26	7.8	94
57168	2024-03-06T22:58:26	7.7	94
57169	2024-03-06T23:08:26	7.8	94
57170	2024-03-06T23:18:26	7.7	94
57171	2024-03-06T23:28:26	7.6	94
57172	2024-03-06T23:38:26	7.4	94
57173	2024-03-06T23:48:26	7.3	94
57174	2024-03-06T23:58:26	7.4	94.5
57175	2024-03-07T00:22:43	7.2	93.5
57176	2024-03-07T00:22:43	7.3	93.5
57177	2024-03-07T00:28:26	7.2	93.5
57178	2024-03-07T00:38:26	7.2	93.5
57179	2024-03-07T00:48:26	7.2	94
57180	2024-03-07T00:58:26	7.1	94
57181	2024-03-07T01:08:26	7	94
57182	2024-03-07T01:18:26	7	94.5
57183	2024-03-07T01:28:25	6.9	94
57184	2024-03-07T01:38:25	6.8	93
57185	2024-03-07T01:48:25	6.6	92.5
57186	2024-03-07T01:58:25	6.4	92.5
57187	2024-03-07T02:08:25	6.4	92
57188	2024-03-07T02:18:25	6.3	91.5
57189	2024-03-07T02:28:25	6.4	91
57190	2024-03-07T02:38:25	6.3	91
57191	2024-03-07T02:48:25	6.2	90.5
57192	2024-03-07T02:58:25	6.2	91
57193	2024-03-07T03:08:25	6.2	89.5
57194	2024-03-07T03:18:25	5.9	89.5
57195	2024-03-07T03:28:25	5.7	89
57196	2024-03-07T03:38:25	5.6	89.5
57197	2024-03-07T03:48:25	5.4	89.5
57198	2024-03-07T03:58:25	5.2	90
57199	2024-03-07T04:08:25	5.2	89.5
57200	2024-03-07T04:18:25	5.1	89.5
57201	2024-03-07T04:28:25	4.8	89.5
57202	2024-03-07T04:38:25	4.7	90
57203	2024-03-07T04:48:25	4.6	89.5
57204	2024-03-07T04:58:25	4.5	89
57205	2024-03-07T05:08:25	4.4	89
57206	2024-03-07T05:18:25	4.4	88.5
57207	2024-03-07T05:28:25	4.3	87.5
57208	2024-03-07T05:38:25	4.2	88
57209	2024-03-07T05:48:25	4.1	88.5
57210	2024-03-07T05:58:25	3.9	89
57211	2024-03-07T06:08:25	3.9	88.5
57212	2024-03-07T06:18:25	3.7	89
57213	2024-03-07T06:28:25	3.8	88
57214	2024-03-07T06:38:25	3.8	88
57215	2024-03-07T06:48:26	3.8	88.5
57216	2024-03-07T06:58:25	3.9	89
57217	2024-03-07T07:08:25	3.9	88.5
57218	2024-03-07T07:18:44	4	87
57219	2024-03-07T07:28:26	4.1	87.5
57220	2024-03-07T07:38:25	4.2	86
57221	2024-03-07T07:48:25	4.5	85
57222	2024-03-07T07:58:25	4.5	84
57223	2024-03-07T08:08:25	4.6	82.5
57224	2024-03-07T08:18:25	4.8	83
57225	2024-03-07T08:28:25	4.9	83
57226	2024-03-07T08:38:25	5.2	80.5
57227	2024-03-07T08:48:25	5.3	80
57228	2024-03-07T08:58:25	5.4	79.5
57229	2024-03-07T09:08:25	5.6	78.5
57230	2024-03-07T09:18:26	5.7	78.5
57231	2024-03-07T09:28:25	6	77.5
57232	2024-03-07T09:38:25	6.2	75
57233	2024-03-07T09:48:25	6.3	75.5
57234	2024-03-07T09:58:25	6.7	74.5
57235	2024-03-07T10:08:25	6.9	75.5
57236	2024-03-07T10:18:25	7.6	71
57237	2024-03-07T10:28:25	8	71.5
57238	2024-03-07T10:38:25	8.1	69
57239	2024-03-07T10:48:25	8	70.5
57240	2024-03-07T10:58:25	8.7	68.5
57241	2024-03-07T11:08:25	9.3	67
57242	2024-03-07T11:18:25	9.5	66
57243	2024-03-07T11:28:25	9.4	66.5
57244	2024-03-07T11:38:25	9.4	65.5
57245	2024-03-07T11:48:25	9.7	64
57246	2024-03-07T11:58:25	10	63
57247	2024-03-07T12:08:25	10.2	63.5
57248	2024-03-07T12:18:25	11	59.5
57249	2024-03-07T12:28:25	11.9	57
57250	2024-03-07T12:38:25	13.1	52.5
57251	2024-03-07T12:48:25	12.5	54
57252	2024-03-07T12:58:25	12.4	54.5
57253	2024-03-07T13:08:25	12.6	55
57254	2024-03-07T13:18:25	12.3	54.5
57255	2024-03-07T13:28:25	12.1	56.5
57256	2024-03-07T13:38:25	11.8	57
57257	2024-03-07T13:48:25	13	54
57258	2024-03-07T13:58:25	14.2	50.5
57259	2024-03-07T14:08:25	13.9	51.5
57260	2024-03-07T14:18:25	12.9	53
57261	2024-03-07T14:28:25	12.5	55
57262	2024-03-07T14:38:25	11.9	57
57263	2024-03-07T14:48:25	11.8	58
57264	2024-03-07T14:58:25	11.5	59
57265	2024-03-07T15:08:25	11.4	60
57266	2024-03-07T15:18:25	11.3	60.5
57267	2024-03-07T15:28:25	11.6	60.5
57268	2024-03-07T15:38:25	12.1	59.5
57269	2024-03-07T15:48:25	13.7	54
57270	2024-03-07T15:58:25	14.1	53
57271	2024-03-07T16:08:25	14.7	51.5
57272	2024-03-07T16:18:25	14.2	51
57273	2024-03-07T16:28:25	13.1	53
57274	2024-03-07T16:38:25	12.2	55.5
57275	2024-03-07T16:48:25	11.6	57.5
57276	2024-03-07T16:58:25	11	59.5
57277	2024-03-07T17:08:25	10.7	60
57278	2024-03-07T17:18:25	10.4	62
57279	2024-03-07T17:28:25	10.2	63.5
57280	2024-03-07T17:38:25	9.9	64
57281	2024-03-07T17:48:46	9.7	64.5
57282	2024-03-07T17:58:25	9.6	66
57283	2024-03-07T18:08:25	9.5	65.5
57284	2024-03-07T18:18:25	9.6	66
57285	2024-03-07T18:28:25	9.6	64.5
57286	2024-03-07T18:38:25	9.4	65.5
57287	2024-03-07T18:48:25	9.3	65
57288	2024-03-07T18:58:25	9.1	64
57289	2024-03-07T19:18:25	9	66
57290	2024-03-07T19:28:25	9	66
57291	2024-03-07T19:38:25	8.9	66.5
57292	2024-03-07T19:48:25	8.5	67
57293	2024-03-07T19:58:25	8.2	68.5
57294	2024-03-07T20:08:25	8	69
57295	2024-03-07T20:18:25	7.8	70.5
57296	2024-03-07T20:28:25	7.7	71.5
57297	2024-03-07T20:38:25	7.6	71.5
57298	2024-03-07T20:48:25	7.4	72
57299	2024-03-07T20:58:25	7.2	73.5
57300	2024-03-07T21:08:25	7.1	74.5
57301	2024-03-07T21:18:42	7	75
57302	2024-03-07T21:28:25	6.8	75.5
57303	2024-03-07T21:38:25	6.8	76
57304	2024-03-07T21:48:25	6.5	76.5
57305	2024-03-07T21:58:25	6.4	77.5
57306	2024-03-07T22:08:25	6.2	77.5
57307	2024-03-07T22:18:25	6	78
57308	2024-03-07T22:28:25	5.9	78.5
57309	2024-03-07T22:38:25	5.8	79
57310	2024-03-07T22:48:25	5.7	79.5
57311	2024-03-07T22:58:25	5.8	79
57312	2024-03-07T23:08:25	5.7	79.5
57313	2024-03-07T23:18:24	5.8	79.5
57314	2024-03-07T23:28:24	5.6	79.5
57315	2024-03-07T23:38:24	5.4	80
57316	2024-03-07T23:48:24	5.4	80
57317	2024-03-07T23:58:24	5.2	80
57318	2024-03-08T00:25:35	5.2	80.5
57319	2024-03-08T00:25:36	5.2	80.5
57320	2024-03-08T00:28:24	5.2	80.5
57321	2024-03-08T00:38:25	5	80.5
57322	2024-03-08T00:48:24	4.8	80.5
57323	2024-03-08T00:58:25	4.9	81
57324	2024-03-08T01:08:24	4.7	81
57325	2024-03-08T01:18:24	4.7	81
57326	2024-03-08T01:28:25	4.6	81
57327	2024-03-08T01:38:25	4.6	81
57328	2024-03-08T01:48:25	4.4	81
57329	2024-03-08T01:58:24	4.4	81
57330	2024-03-08T02:08:24	4.2	81
57331	2024-03-08T02:18:24	4.1	81
57332	2024-03-08T02:28:24	4	81.5
57333	2024-03-08T02:38:25	3.9	81.5
57334	2024-03-08T02:48:24	3.9	81.5
57335	2024-03-08T02:58:24	3.7	81.5
57336	2024-03-08T03:08:24	3.7	82
57337	2024-03-08T03:18:24	3.6	82
57338	2024-03-08T03:28:24	3.4	82
57339	2024-03-08T03:38:24	3.5	82
57340	2024-03-08T03:48:24	3.3	82
57341	2024-03-08T03:58:24	3.4	82
57342	2024-03-08T04:08:25	3.2	81.5
57343	2024-03-08T04:18:24	3.2	81.5
57344	2024-03-08T04:28:24	3.2	81.5
57345	2024-03-08T04:38:24	3	81.5
57346	2024-03-08T04:48:24	3	81.5
57347	2024-03-08T04:58:24	2.9	82
57348	2024-03-08T05:08:24	2.8	82.5
57349	2024-03-08T05:18:24	2.6	83
57350	2024-03-08T05:28:24	2.5	83.5
57351	2024-03-08T05:38:24	2.5	84
57352	2024-03-08T05:48:24	2.4	84
57353	2024-03-08T05:58:24	2.3	84
57354	2024-03-08T06:08:24	2.3	84
57355	2024-03-08T06:18:24	2.4	84
57356	2024-03-08T06:28:24	2.4	83.5
57357	2024-03-08T06:38:24	2.5	84
57358	2024-03-08T06:48:24	2.5	83
57359	2024-03-08T06:58:24	2.7	82.5
57360	2024-03-08T07:08:24	2.8	83
57361	2024-03-08T07:18:24	2.9	83
57362	2024-03-08T07:28:24	3.1	82.5
57363	2024-03-08T07:38:24	3.3	82.5
57364	2024-03-08T07:48:24	3.5	82
57365	2024-03-08T07:58:24	3.7	81.5
57366	2024-03-08T08:08:24	3.8	81.5
57367	2024-03-08T08:18:24	4	81.5
57368	2024-03-08T08:28:24	4.4	79.5
57369	2024-03-08T08:38:24	4.6	78
57370	2024-03-08T08:48:24	4.8	77.5
57371	2024-03-08T08:58:24	5.1	77
57372	2024-03-08T09:08:24	5.2	76.5
57373	2024-03-08T09:18:24	5.5	75.5
57374	2024-03-08T09:28:24	5.6	75
57375	2024-03-08T09:38:24	5.9	73.5
57376	2024-03-08T09:48:24	6	73
57377	2024-03-08T09:58:24	6.2	72.5
57378	2024-03-08T10:08:24	6.4	74
57379	2024-03-08T10:28:24	6.8	70.5
57380	2024-03-08T10:38:24	7	72
57381	2024-03-08T10:48:24	7.1	71.5
57382	2024-03-08T10:58:24	7.3	69.5
57383	2024-03-08T11:08:24	7.4	69.5
57384	2024-03-08T11:18:24	7.7	70.5
57385	2024-03-08T11:28:24	7.9	68
57386	2024-03-08T11:38:24	8.2	68.5
57387	2024-03-08T11:48:24	8.6	66.5
57388	2024-03-08T11:58:24	8.8	67.5
57389	2024-03-08T12:08:24	9.2	65
57390	2024-03-08T12:18:24	9.6	62
57391	2024-03-08T12:28:24	12	57.5
57392	2024-03-08T12:38:24	15	46.5
57393	2024-03-08T12:48:24	16.5	42.5
57394	2024-03-08T12:58:24	17.6	39.5
57395	2024-03-08T13:08:24	18.3	38
57396	2024-03-08T13:18:24	19.8	36
57397	2024-03-08T13:28:24	20.7	34.5
57398	2024-03-08T13:38:24	20.5	33.5
57399	2024-03-08T13:48:24	21.7	33.5
57400	2024-03-08T13:58:24	22.1	32.5
57401	2024-03-08T14:08:24	22.2	31.5
57402	2024-03-08T14:18:24	22.7	30.5
57403	2024-03-08T14:28:24	22.8	30.5
57404	2024-03-08T14:38:24	23	31
57405	2024-03-08T14:48:24	23.4	30.5
57406	2024-03-08T14:58:24	24	29.5
57407	2024-03-08T15:08:24	23.4	30
57408	2024-03-08T15:18:24	23.3	30.5
57409	2024-03-08T15:38:24	23.2	30.5
57410	2024-03-08T15:48:24	22.3	31.5
57411	2024-03-08T15:58:24	21.9	31.5
57412	2024-03-08T16:08:24	21.3	33
57413	2024-03-08T16:18:24	21.1	32.5
57414	2024-03-08T16:28:24	18.8	36.5
57415	2024-03-08T16:38:24	16.7	40.5
57416	2024-03-08T16:48:24	15.3	43.5
57417	2024-03-08T16:58:24	14.6	44
57418	2024-03-08T17:08:24	14.2	45.5
57419	2024-03-08T17:18:24	13.4	47.5
57420	2024-03-08T17:38:24	12.6	50
57421	2024-03-08T17:48:24	12.1	51.5
57422	2024-03-08T17:58:24	11.7	53
57423	2024-03-08T18:08:24	11.6	53.5
57424	2024-03-08T18:18:24	11.5	54.5
57425	2024-03-08T18:28:24	11.2	55
57426	2024-03-08T18:38:24	11	56.5
57427	2024-03-08T18:48:24	10.7	57.5
57428	2024-03-08T18:58:24	10.4	59
57429	2024-03-08T19:08:24	10	60.5
57430	2024-03-08T19:18:24	9.8	61
57431	2024-03-08T19:28:24	9.7	61.5
57432	2024-03-08T19:38:24	9.6	62
57433	2024-03-08T19:48:24	9.4	63
57434	2024-03-08T19:58:24	9.3	63
57435	2024-03-08T20:08:24	9	63.5
57436	2024-03-08T20:18:23	8.9	64.5
57437	2024-03-08T20:28:23	8.6	65.5
57438	2024-03-08T20:38:23	8.4	65.5
57439	2024-03-08T20:48:23	8.4	66
57440	2024-03-08T20:58:23	8.2	66
57441	2024-03-08T21:08:23	8	67
57442	2024-03-08T21:18:23	8	67.5
57443	2024-03-08T21:28:23	7.9	67
57444	2024-03-08T21:38:23	7.7	68
57445	2024-03-08T21:48:23	7.7	68
57446	2024-03-08T21:58:23	7.6	68
57447	2024-03-08T22:08:23	7.5	68.5
57448	2024-03-08T22:18:23	7.4	68.5
57449	2024-03-08T22:28:23	7.4	68.5
57450	2024-03-08T22:38:23	7.4	68.5
57451	2024-03-08T22:48:23	7.6	69
57452	2024-03-08T22:58:23	7.5	68
57453	2024-03-08T23:08:23	7.6	69
57454	2024-03-08T23:18:23	7.6	69
57455	2024-03-08T23:28:23	7.6	69
57456	2024-03-08T23:38:23	7.6	70
57457	2024-03-08T23:48:23	7.6	68
57458	2024-03-08T23:58:23	7.7	69
57459	2024-03-09T00:24:48	7.3	71
57460	2024-03-09T00:24:48	7.4	71.5
57461	2024-03-09T00:28:23	7.5	71.5
57462	2024-03-09T00:38:23	7.3	73
57463	2024-03-09T00:48:23	7.3	72.5
57464	2024-03-09T00:58:23	7.4	73.5
57465	2024-03-09T01:08:23	7.5	74
57466	2024-03-09T01:18:23	7.5	73.5
57467	2024-03-09T01:28:23	7.4	72.5
57468	2024-03-09T01:38:23	7.2	73.5
57469	2024-03-09T01:48:23	7.2	73
57470	2024-03-09T01:58:23	7.2	74
57471	2024-03-09T02:08:23	7.2	74.5
57472	2024-03-09T02:18:23	7.1	75
57473	2024-03-09T02:28:23	7	75
57474	2024-03-09T02:38:23	7.1	74
57475	2024-03-09T02:48:23	7.1	73.5
57476	2024-03-09T02:58:23	7	74.5
57477	2024-03-09T03:08:23	7.1	74.5
57478	2024-03-09T03:18:23	7.1	73
57479	2024-03-09T03:28:23	7.2	72.5
57480	2024-03-09T03:38:23	7.1	73
57481	2024-03-09T03:48:23	7.1	74
57482	2024-03-09T03:58:23	7	72.5
57483	2024-03-09T04:08:23	7	72.5
57484	2024-03-09T04:18:23	7.1	72
57485	2024-03-09T04:28:23	7.1	71.5
57486	2024-03-09T04:38:23	7	72
57487	2024-03-09T04:48:23	7	72.5
57488	2024-03-09T04:58:23	6.8	72.5
57489	2024-03-09T05:08:23	6.7	72
57490	2024-03-09T05:18:23	6.6	72
57491	2024-03-09T05:28:23	6.6	72
57492	2024-03-09T05:38:23	6.5	73
57493	2024-03-09T05:48:23	6.2	72.5
57494	2024-03-09T05:58:23	6.1	73.5
57495	2024-03-09T06:08:23	6	74.5
57496	2024-03-09T06:18:23	5.8	75.5
57497	2024-03-09T06:28:23	5.6	76
57498	2024-03-09T06:38:23	5.5	77
57499	2024-03-09T06:48:23	5.6	77
57500	2024-03-09T06:58:23	5.5	77.5
57501	2024-03-09T07:08:23	5.6	78.5
57502	2024-03-09T07:18:23	5.6	78.5
57503	2024-03-09T07:28:23	5.8	77.5
57504	2024-03-09T07:38:24	6	78
57505	2024-03-09T07:48:23	6.2	77.5
57506	2024-03-09T07:58:23	6.4	77.5
57507	2024-03-09T08:08:24	6.4	77
57508	2024-03-09T08:18:23	6.8	77.5
57509	2024-03-09T08:28:23	7	77
57510	2024-03-09T08:38:23	7.1	77.5
57511	2024-03-09T08:48:23	7.4	77
57512	2024-03-09T08:58:23	7.6	77
57513	2024-03-09T09:08:23	7.9	76.5
57514	2024-03-09T09:18:23	8	77.5
57515	2024-03-09T09:28:23	8.3	76.5
57516	2024-03-09T09:38:23	8.5	76.5
57517	2024-03-09T09:48:23	8.9	76
57518	2024-03-09T09:58:23	9.1	75
57519	2024-03-09T10:08:23	9.5	75
57520	2024-03-09T10:18:23	9.9	73.5
57521	2024-03-09T10:28:23	10.4	73.5
57522	2024-03-09T10:38:23	10.7	71.5
57523	2024-03-09T10:48:23	11.1	69.5
57524	2024-03-09T10:58:23	11.4	69
57525	2024-03-09T11:08:23	11.8	67
57526	2024-03-09T11:18:23	12.1	67
57527	2024-03-09T11:28:23	12.6	65.5
57528	2024-03-09T11:38:23	13	63.5
57529	2024-03-09T11:48:23	13.6	63.5
57530	2024-03-09T11:58:23	14.1	59.5
57531	2024-03-09T12:08:23	14.8	56
57532	2024-03-09T12:18:23	15.6	51
57533	2024-03-09T12:28:23	17.2	40
57534	2024-03-09T12:38:23	19.2	37.5
57535	2024-03-09T12:48:23	18.4	45
57536	2024-03-09T12:58:23	18.1	48
57537	2024-03-09T13:08:23	18.9	46.5
57538	2024-03-09T13:18:23	20.8	42.5
57539	2024-03-09T13:28:23	23.6	37.5
57540	2024-03-09T13:38:23	25	34.5
57541	2024-03-09T13:48:23	23.8	35
57542	2024-03-09T13:58:23	21	39.5
57543	2024-03-09T14:08:23	19.9	42
57544	2024-03-09T14:18:23	20.1	41.5
57545	2024-03-09T14:28:23	19.4	43.5
57546	2024-03-09T14:38:23	18.8	44
57547	2024-03-09T14:48:23	18.6	43
57548	2024-03-09T14:58:23	18.3	45
57549	2024-03-09T15:08:22	18.1	45.5
57550	2024-03-09T15:18:22	17.7	46
57551	2024-03-09T15:28:22	17.9	46
57552	2024-03-09T15:38:22	18	45.5
57553	2024-03-09T15:48:22	17.5	45
57554	2024-03-09T15:58:22	17.2	46
57555	2024-03-09T16:08:22	16.7	46
57556	2024-03-09T16:18:22	16.5	47.5
57557	2024-03-09T16:28:22	16.1	48.5
57558	2024-03-09T16:38:22	16	48.5
57559	2024-03-09T16:48:22	15.7	49.5
57560	2024-03-09T16:58:22	15.4	50
57561	2024-03-09T17:08:22	15.2	51
57562	2024-03-09T17:18:22	15.1	51
57563	2024-03-09T17:28:22	14.8	52.5
57564	2024-03-09T17:38:22	14.7	52
57565	2024-03-09T17:48:22	14.4	52
57566	2024-03-09T18:08:22	14.2	51.5
57567	2024-03-09T18:18:22	14.2	50
57568	2024-03-09T18:28:22	14	49
57569	2024-03-09T18:38:22	13.8	49.5
57570	2024-03-09T18:48:22	13.6	50.5
57571	2024-03-09T18:58:22	13.4	51.5
57572	2024-03-09T19:08:22	13.3	52
57573	2024-03-09T19:18:22	13.1	53
57574	2024-03-09T19:28:22	12.9	54
57575	2024-03-09T19:38:22	12.8	54.5
57576	2024-03-09T19:48:22	12.7	55
57577	2024-03-09T19:58:22	12.5	56
57578	2024-03-09T20:08:22	12.5	56
57579	2024-03-09T20:18:22	12.4	56.5
57580	2024-03-09T20:28:22	12.4	57
57581	2024-03-09T20:38:22	12.4	57.5
57582	2024-03-09T20:48:22	12.4	58
57583	2024-03-09T20:58:22	12.3	57.5
57584	2024-03-09T21:08:22	12.2	58
57585	2024-03-09T21:18:22	12.1	58
57586	2024-03-09T21:28:38	11.7	59.5
57587	2024-03-09T21:38:22	11.5	61.5
57588	2024-03-09T21:48:22	11.2	62
57589	2024-03-09T21:58:22	11.2	61.5
57590	2024-03-09T22:08:22	11.2	62.5
57591	2024-03-09T22:18:22	11	62.5
57592	2024-03-09T22:28:22	10.9	61.5
57593	2024-03-09T22:38:22	11	62.5
57594	2024-03-09T22:48:22	10.9	62.5
57595	2024-03-09T22:58:22	10.9	63
57596	2024-03-09T23:08:22	10.8	63.5
57597	2024-03-09T23:18:22	10.7	64
57598	2024-03-09T23:28:22	10.8	63.5
57599	2024-03-09T23:38:22	10.7	64
57600	2024-03-09T23:48:22	10.7	63.5
57601	2024-03-09T23:58:22	10.7	63.5
57602	2024-03-10T00:24:46	10.6	64
57603	2024-03-10T00:24:46	10.7	64
57604	2024-03-10T00:28:22	10.5	64.5
57605	2024-03-10T00:38:22	10.5	64
57606	2024-03-10T00:48:22	10.5	64.5
57607	2024-03-10T00:58:22	10.3	64.5
57608	2024-03-10T01:08:22	10.3	64.5
57609	2024-03-10T01:18:22	10.2	64
57610	2024-03-10T01:28:22	10.2	65
57611	2024-03-10T01:48:22	10	66
57612	2024-03-10T01:58:22	10.1	65.5
57613	2024-03-10T02:08:22	10	66
57614	2024-03-10T02:18:22	10	64
57615	2024-03-10T02:28:22	10	63.5
57616	2024-03-10T02:38:22	10	64
57617	2024-03-10T02:48:22	9.9	63.5
57618	2024-03-10T02:58:22	9.9	63.5
57619	2024-03-10T03:08:22	9.8	64
57620	2024-03-10T03:18:22	9.9	64.5
57621	2024-03-10T03:38:22	10	63
57622	2024-03-10T03:48:22	10.1	62.5
57623	2024-03-10T03:58:22	10.2	62
57624	2024-03-10T04:08:22	10.1	61
57625	2024-03-10T04:18:22	10.1	62
57626	2024-03-10T04:28:22	9.8	64.5
57627	2024-03-10T04:38:22	9.8	63.5
57628	2024-03-10T04:48:22	9.8	64
57629	2024-03-10T04:58:22	9.7	64
57630	2024-03-10T05:08:22	9.6	64
57631	2024-03-10T05:18:22	9.4	65.5
57632	2024-03-10T05:28:22	9.4	66
57633	2024-03-10T05:38:22	9.2	67
57634	2024-03-10T05:48:22	9.1	67
57635	2024-03-10T05:58:22	9.1	66.5
57636	2024-03-10T06:08:22	9.1	66.5
57637	2024-03-10T06:18:21	9.2	65.5
57638	2024-03-10T06:28:22	9.2	65.5
57639	2024-03-10T06:38:21	9.1	65.5
57640	2024-03-10T06:48:21	9	65.5
57641	2024-03-10T06:58:21	9.2	66
57642	2024-03-10T07:08:21	9	66.5
57643	2024-03-10T07:18:21	9.2	66
57644	2024-03-10T07:28:21	9.4	66
57645	2024-03-10T07:38:21	9.5	65.5
57646	2024-03-10T07:48:21	9.4	66
57647	2024-03-10T07:58:21	9.7	66
57648	2024-03-10T08:08:21	9.9	65
57649	2024-03-10T08:18:21	10	65
57650	2024-03-10T08:28:21	10	65
57651	2024-03-10T08:38:21	10	65.5
57652	2024-03-10T08:48:21	10.1	66
57653	2024-03-10T08:58:21	10.2	65.5
57654	2024-03-10T09:08:21	10.4	65.5
57655	2024-03-10T09:18:21	10.5	65
57656	2024-03-10T09:28:21	10.7	64.5
57657	2024-03-10T09:38:21	10.9	64.5
57658	2024-03-10T09:48:21	11.1	64
57659	2024-03-10T09:58:21	11.3	63
57660	2024-03-10T10:08:21	11.6	62
57661	2024-03-10T10:18:21	11.7	61.5
57662	2024-03-10T10:28:21	12	61
57663	2024-03-10T10:38:21	11.8	60.5
57664	2024-03-10T10:48:21	11.9	60.5
57665	2024-03-10T10:58:21	12.2	60.5
57666	2024-03-10T11:08:21	12.4	60.5
57667	2024-03-10T11:18:21	12.5	60
57668	2024-03-10T11:28:21	12.7	58.5
57669	2024-03-10T11:38:21	13.2	56.5
57670	2024-03-10T11:48:21	13.7	55
57671	2024-03-10T11:58:21	13.5	54
57672	2024-03-10T12:08:21	13.4	54.5
57673	2024-03-10T12:18:21	13.1	54.5
57674	2024-03-10T12:28:21	12.9	56.5
57675	2024-03-10T12:38:21	12.9	58.5
57676	2024-03-10T12:48:21	12.9	58
57677	2024-03-10T12:58:22	12.8	56.5
57678	2024-03-10T13:08:21	12.7	56.5
57679	2024-03-10T13:18:21	12.7	57.5
57680	2024-03-10T13:28:21	12.7	57
57681	2024-03-10T13:38:21	12.5	58.5
57682	2024-03-10T13:48:21	12.3	59.5
57683	2024-03-10T13:58:21	12.1	60.5
57684	2024-03-10T14:08:21	12.1	60
57685	2024-03-10T14:18:21	12	59.5
57686	2024-03-10T14:28:21	12.2	61.5
57687	2024-03-10T14:38:21	12	61
57688	2024-03-10T14:48:21	11.8	61.5
57689	2024-03-10T14:58:21	11.7	62
57690	2024-03-10T15:08:21	11.9	62
57691	2024-03-10T15:18:21	11.8	62
57692	2024-03-10T15:28:21	11.7	62.5
57693	2024-03-10T15:38:21	11.7	63
57694	2024-03-10T15:48:21	11.6	64
57695	2024-03-10T15:58:21	11.4	67
57696	2024-03-10T16:08:21	10.9	70
57697	2024-03-10T16:18:21	10.5	75.5
57698	2024-03-10T16:28:21	10.3	75
57699	2024-03-10T16:38:21	10.5	72.5
57700	2024-03-10T16:48:21	10.5	71.5
57701	2024-03-10T16:58:21	10.5	71
57702	2024-03-10T17:08:21	10.6	72
57703	2024-03-10T17:18:21	10.5	73
57704	2024-03-10T17:28:21	10.3	74.5
57705	2024-03-10T17:38:21	10.1	77.5
57706	2024-03-10T17:48:21	9.8	80
57707	2024-03-10T17:58:21	9.4	84.5
57708	2024-03-10T18:08:21	9	89
57709	2024-03-10T18:18:21	8.7	91
57710	2024-03-10T18:28:21	8.4	97
57711	2024-03-10T18:38:21	8.2	98
57712	2024-03-10T18:48:21	8.1	99
57713	2024-03-10T18:58:21	8	99
57714	2024-03-10T19:08:21	7.8	99.5
57715	2024-03-10T19:18:21	7.6	100
57716	2024-03-10T19:28:21	7.5	100
57717	2024-03-10T19:38:21	7.3	100
57718	2024-03-10T19:48:21	7.3	100
57719	2024-03-10T19:58:21	7.2	100
57720	2024-03-10T20:08:21	7.2	100
57721	2024-03-10T20:18:21	7.2	100
57722	2024-03-10T20:28:21	7.2	100
57723	2024-03-10T20:38:21	7.1	100
57724	2024-03-10T20:48:21	7.2	100
57725	2024-03-10T20:58:21	7.1	100
57726	2024-03-10T21:08:21	7.1	100
57727	2024-03-10T21:18:21	7.2	100
57728	2024-03-10T21:28:21	7.1	100
57729	2024-03-10T21:38:21	7	100
57730	2024-03-10T21:48:21	7.2	100
57731	2024-03-10T21:58:21	7.2	100
57732	2024-03-10T22:08:21	7	100
57733	2024-03-10T22:18:21	7.1	100
57734	2024-03-10T22:28:21	7.2	100
57735	2024-03-10T22:38:21	7.1	100
57736	2024-03-10T22:48:21	7.1	100
57737	2024-03-10T22:58:21	7.1	100
57738	2024-03-10T23:08:21	7.2	100
57739	2024-03-10T23:18:21	7.1	100
57740	2024-03-10T23:28:21	7.1	100
57741	2024-03-10T23:38:20	7.2	100
57742	2024-03-10T23:48:20	7.2	100
57743	2024-03-10T23:58:20	7.3	100
57744	2024-03-11T00:28:06	7.3	100
57745	2024-03-11T00:28:06	7.3	100
57746	2024-03-11T00:28:25	7.4	100
57747	2024-03-11T00:48:20	7.3	100
57748	2024-03-11T00:58:20	7.3	100
57749	2024-03-11T01:08:20	7.5	100
57750	2024-03-11T01:18:20	7.4	100
57751	2024-03-11T01:28:20	7.4	100
57752	2024-03-11T01:38:20	7.3	100
57753	2024-03-11T01:48:20	7.3	100
57754	2024-03-11T01:58:20	7.3	100
57755	2024-03-11T02:08:21	7.2	100
57756	2024-03-11T02:18:20	7.3	100
57757	2024-03-11T02:28:20	7.3	100
57758	2024-03-11T02:38:20	7.3	100
57759	2024-03-11T02:48:20	7.4	100
57760	2024-03-11T02:58:20	7.4	100
57761	2024-03-11T03:08:20	7.4	100
57762	2024-03-11T03:18:20	7.4	100
57763	2024-03-11T03:28:20	7.4	100
57764	2024-03-11T03:38:20	7.2	100
57765	2024-03-11T03:48:20	7.2	100
57766	2024-03-11T03:58:20	7.2	100
57767	2024-03-11T04:08:20	7.2	100
57768	2024-03-11T04:18:20	7	100
57769	2024-03-11T04:28:20	7	100
57770	2024-03-11T04:38:20	6.8	100
57771	2024-03-11T04:48:20	6.6	100
57772	2024-03-11T04:58:20	6.6	100
57773	2024-03-11T05:08:20	6.4	100
57774	2024-03-11T05:18:20	6.3	100
57775	2024-03-11T05:28:20	6.1	100
57776	2024-03-11T05:38:20	6	100
57777	2024-03-11T05:48:20	6.1	100
57778	2024-03-11T05:58:20	6	100
57779	2024-03-11T06:08:20	6.1	100
57780	2024-03-11T06:18:21	6.1	100
57781	2024-03-11T06:28:20	6.3	100
57782	2024-03-11T06:38:20	6.5	100
57783	2024-03-11T06:58:20	6.9	100
57784	2024-03-11T07:08:20	7.1	100
57785	2024-03-11T07:18:20	7.4	99
57786	2024-03-11T07:28:20	7.2	98
57787	2024-03-11T07:38:20	7.2	97
57788	2024-03-11T07:48:20	7.4	95
57789	2024-03-11T07:58:20	7.9	87.5
57790	2024-03-11T08:08:20	8.2	87
57791	2024-03-11T08:18:20	8.4	85.5
57792	2024-03-11T08:28:20	8.9	83
57793	2024-03-11T08:38:20	9.2	79.5
57794	2024-03-11T08:48:20	9.3	79.5
57795	2024-03-11T08:58:20	9.6	78
57796	2024-03-11T09:08:20	9.7	77
57797	2024-03-11T09:18:20	9.7	76.5
57798	2024-03-11T09:28:20	10.2	75.5
57799	2024-03-11T09:38:20	10.2	74.5
57800	2024-03-11T09:48:20	10.5	72.5
57801	2024-03-11T09:58:20	10.7	73.5
57802	2024-03-11T10:08:20	10.8	71.5
57803	2024-03-11T10:18:20	11.1	71
57804	2024-03-11T10:28:20	11.4	69
57805	2024-03-11T10:38:20	11.7	69
57806	2024-03-11T10:48:20	11.8	68.5
57807	2024-03-11T10:58:21	12.1	66.5
57808	2024-03-11T11:08:20	12.6	64
57809	2024-03-11T11:18:20	12.6	64.5
57810	2024-03-11T11:28:20	12.2	66
57811	2024-03-11T11:38:20	12.4	66
57812	2024-03-11T11:48:20	12.4	63.5
57813	2024-03-11T11:58:20	12.9	61
57814	2024-03-11T12:08:20	12.9	58
57815	2024-03-11T12:18:20	12.8	59
57816	2024-03-11T12:28:20	14	56
57817	2024-03-11T12:38:20	13.2	59
57818	2024-03-11T12:48:20	16.1	51.5
57819	2024-03-11T12:58:20	17.4	46.5
57820	2024-03-11T13:08:20	16.6	49
57821	2024-03-11T13:18:20	15.7	50
57822	2024-03-11T13:28:20	15	49.5
57823	2024-03-11T13:38:20	15.2	50
57824	2024-03-11T13:48:20	17.2	47
57825	2024-03-11T13:58:20	20.1	42.5
57826	2024-03-11T14:08:20	19.7	40.5
57827	2024-03-11T14:18:20	20.6	39
57828	2024-03-11T14:28:20	21.1	37.5
57829	2024-03-11T14:38:20	18.1	41.5
57830	2024-03-11T14:48:20	16.7	46
57831	2024-03-11T14:58:20	14.3	67
57832	2024-03-11T15:08:20	14.1	59.5
57833	2024-03-11T15:18:20	14.4	55
57834	2024-03-11T15:28:20	14.6	53
57835	2024-03-11T15:38:20	14.4	51
57836	2024-03-11T15:48:20	15.1	50
57837	2024-03-11T15:58:20	17.3	45
57838	2024-03-11T16:08:20	17.7	43
57839	2024-03-11T16:18:19	15.6	47.5
57840	2024-03-11T16:28:19	15.1	50
57841	2024-03-11T16:38:20	15.9	49.5
57842	2024-03-11T16:48:19	15.7	49.5
57843	2024-03-11T16:58:19	14.8	52
57844	2024-03-11T17:08:19	14.2	54.5
57845	2024-03-11T17:18:19	13.8	56.5
57846	2024-03-11T17:28:19	13.5	56.5
57847	2024-03-11T17:38:19	13.3	57.5
57848	2024-03-11T17:48:19	13	56.5
57849	2024-03-11T17:58:19	12.8	57.5
57850	2024-03-11T18:08:19	12.7	59.5
57851	2024-03-11T18:18:19	12.7	61
57852	2024-03-11T18:28:19	12.6	59.5
57853	2024-03-11T18:38:19	12.1	61
57854	2024-03-11T18:48:19	11.8	65.5
57855	2024-03-11T18:58:19	11.6	68.5
57856	2024-03-11T19:08:19	11.4	69
57857	2024-03-11T19:18:19	11.1	68.5
57858	2024-03-11T19:28:19	10.6	67
57859	2024-03-11T19:38:19	10.5	66.5
57860	2024-03-11T19:48:19	10.3	70
57861	2024-03-11T19:58:19	10.3	72
57862	2024-03-11T20:08:19	10	72.5
57863	2024-03-11T20:18:19	9.9	71
57864	2024-03-11T20:28:19	9.7	71
57865	2024-03-11T20:38:19	9.7	71
57866	2024-03-11T20:48:19	9.6	71
57867	2024-03-11T20:58:19	9.5	72
57868	2024-03-11T21:08:19	9.6	71.5
57869	2024-03-11T21:28:19	9.3	71.5
57870	2024-03-11T21:38:19	9.3	71.5
57871	2024-03-11T21:48:19	9.2	72
57872	2024-03-11T21:58:19	9	72.5
57873	2024-03-11T22:08:19	8.8	73
57874	2024-03-11T22:18:19	8.7	73.5
57875	2024-03-11T22:28:19	8.5	74
57876	2024-03-11T22:38:19	8.5	75
57877	2024-03-11T22:48:19	8.3	77
57878	2024-03-11T22:58:19	8.2	77
57879	2024-03-11T23:08:19	7.8	79
57880	2024-03-11T23:18:19	7.6	79.5
57881	2024-03-11T23:28:19	7.6	80.5
57882	2024-03-11T23:38:19	7.6	79.5
57883	2024-03-11T23:48:19	7.8	80
57884	2024-03-11T23:58:19	7.8	80
57885	2024-03-12T00:26:04	7.7	79
57886	2024-03-12T00:26:04	7.7	78.5
57887	2024-03-12T00:28:20	7.7	79.5
57888	2024-03-12T00:38:19	7.6	80
57889	2024-03-12T00:48:19	7.6	80
57890	2024-03-12T00:58:19	7.7	79.5
57891	2024-03-12T01:08:19	7.9	80
57892	2024-03-12T01:18:19	7.7	81.5
57893	2024-03-12T01:28:19	7.4	81
57894	2024-03-12T01:38:19	7.2	81.5
57895	2024-03-12T01:48:19	7.2	82
57896	2024-03-12T01:58:19	7.3	81
57897	2024-03-12T02:08:19	7.4	80.5
57898	2024-03-12T02:18:19	7.5	80
57899	2024-03-12T02:28:19	7.8	79
57900	2024-03-12T02:38:19	8	78.5
57901	2024-03-12T02:48:19	8.1	78.5
57902	2024-03-12T02:58:19	8.1	78
57903	2024-03-12T03:08:19	8	78.5
57904	2024-03-12T03:18:19	8.1	78.5
57905	2024-03-12T03:28:19	8.1	79
57906	2024-03-12T03:38:19	8	79
57907	2024-03-12T03:48:19	8.1	79
57908	2024-03-12T03:58:19	8	79.5
57909	2024-03-12T04:08:19	8	80.5
57910	2024-03-12T04:18:19	7.9	81
57911	2024-03-12T04:28:19	8	81.5
57912	2024-03-12T04:38:19	7.8	82
57913	2024-03-12T04:48:19	7.7	82.5
57914	2024-03-12T04:58:19	7.8	83
57915	2024-03-12T05:08:19	7.8	83
57916	2024-03-12T05:18:19	7.9	83
57917	2024-03-12T05:28:19	7.9	83.5
57918	2024-03-12T05:38:19	7.8	84
57919	2024-03-12T05:48:19	7.8	84.5
57920	2024-03-12T05:58:19	7.9	85.5
57921	2024-03-12T06:08:19	7.9	85.5
57922	2024-03-12T06:18:19	8	85
57923	2024-03-12T06:28:19	8	84.5
57924	2024-03-12T06:38:19	8.1	84
57925	2024-03-12T06:48:19	8.1	84.5
57926	2024-03-12T06:58:19	8.1	85
57927	2024-03-12T07:08:19	8	85.5
57928	2024-03-12T07:18:19	7.9	86.5
57929	2024-03-12T07:28:19	7.9	87.5
57930	2024-03-12T07:38:19	7.9	86
57931	2024-03-12T07:48:19	8.2	85
57932	2024-03-12T07:58:19	8.2	84
57933	2024-03-12T08:08:19	8.4	83.5
57934	2024-03-12T08:18:19	8.4	83
57935	2024-03-12T08:28:36	8.5	83
57936	2024-03-12T08:38:19	8.6	82.5
57937	2024-03-12T08:48:19	8.6	83.5
57938	2024-03-12T08:58:19	8.8	83
57939	2024-03-12T09:08:19	9	83
57940	2024-03-12T09:18:19	8.9	83.5
57941	2024-03-12T09:28:19	8.8	84
57942	2024-03-12T09:38:19	8.9	84.5
57943	2024-03-12T09:48:19	8.7	85.5
57944	2024-03-12T09:58:38	8.6	85.5
57945	2024-03-12T10:08:19	8.6	85.5
57946	2024-03-12T10:18:19	8.7	87.5
57947	2024-03-12T10:28:19	8.7	87.5
57948	2024-03-12T10:38:19	8.6	88.5
57949	2024-03-12T10:48:19	8.5	89.5
57950	2024-03-12T10:58:19	8.4	88.5
57951	2024-03-12T11:08:19	8.6	87.5
57952	2024-03-12T11:18:18	8.7	85
57953	2024-03-12T11:28:18	8.8	84.5
57954	2024-03-12T11:38:18	8.9	83.5
57955	2024-03-12T11:48:18	9	82.5
57956	2024-03-12T11:58:18	9.4	80.5
57957	2024-03-12T12:08:18	9.9	80.5
57958	2024-03-12T12:18:18	10	79.5
57959	2024-03-12T12:28:18	9.9	80
57960	2024-03-12T12:38:18	10	80
57961	2024-03-12T12:48:18	9.8	81.5
57962	2024-03-12T12:58:18	9.8	79.5
57963	2024-03-12T13:08:18	9.7	73.5
57964	2024-03-12T13:18:18	9.8	73.5
57965	2024-03-12T13:28:38	9.7	74
57966	2024-03-12T13:38:18	9.8	75
57967	2024-03-12T13:48:18	9.7	75
57968	2024-03-12T13:58:18	9.8	75.5
57969	2024-03-12T14:08:18	9.9	76
57970	2024-03-12T14:18:18	9.9	78
57971	2024-03-12T14:28:18	9.9	80
57972	2024-03-12T14:38:18	9.8	81
57973	2024-03-12T14:48:18	10	81
57974	2024-03-12T14:58:18	9.9	80.5
57975	2024-03-12T15:08:18	10	81.5
57976	2024-03-12T15:18:18	9.7	81.5
57977	2024-03-12T15:28:18	9.6	82.5
57978	2024-03-12T15:38:18	9.2	83
57979	2024-03-12T15:48:18	8.6	90.5
57980	2024-03-12T15:58:18	8.5	97
57981	2024-03-12T16:08:18	8.4	97.5
57982	2024-03-12T16:18:18	8.6	98
57983	2024-03-12T16:28:18	8.8	99
57984	2024-03-12T16:38:18	8.8	99
57985	2024-03-12T16:48:18	8.6	93.5
57986	2024-03-12T16:58:18	8.4	90.5
57987	2024-03-12T17:08:18	8.5	89.5
57988	2024-03-12T17:18:18	8.5	89
57989	2024-03-12T17:28:18	8.4	89
57990	2024-03-12T17:38:18	8.4	90
57991	2024-03-12T17:48:18	8.3	91
57992	2024-03-12T17:58:18	8.1	92.5
57993	2024-03-12T18:08:18	8	95
57994	2024-03-12T18:18:18	7.8	96.5
57995	2024-03-12T18:28:18	7.9	96.5
57996	2024-03-12T18:38:18	7.8	96.5
57997	2024-03-12T18:48:18	7.9	95.5
57998	2024-03-12T18:58:18	7.8	97.5
57999	2024-03-12T19:08:18	7.7	97.5
58000	2024-03-12T19:18:18	7.8	97.5
58001	2024-03-12T19:28:18	7.8	98
58002	2024-03-12T19:38:18	7.7	97.5
58003	2024-03-12T19:48:18	7.7	97
58004	2024-03-12T19:58:18	7.7	97.5
58005	2024-03-12T20:08:18	7.8	97.5
58006	2024-03-12T20:18:18	7.8	97.5
58007	2024-03-12T20:28:18	7.5	97.5
58008	2024-03-12T20:38:18	7.6	98.5
58009	2024-03-12T20:48:18	7.6	98
58010	2024-03-12T20:58:18	7.6	98.5
58011	2024-03-12T21:08:18	7.6	99
58012	2024-03-12T21:18:18	7.5	99.5
58013	2024-03-12T21:28:18	7.5	98.5
58014	2024-03-12T21:38:18	7.5	98
58015	2024-03-12T21:48:18	7.3	97.5
58016	2024-03-12T21:58:18	7.3	98
58017	2024-03-12T22:08:18	7.2	97
58018	2024-03-12T22:18:18	7.3	97.5
58019	2024-03-12T22:28:18	7.2	96.5
58020	2024-03-12T22:38:18	7.2	96.5
58021	2024-03-12T22:48:18	7.2	98.5
58022	2024-03-12T22:58:18	7.2	99.5
58023	2024-03-12T23:08:18	7.4	100
58024	2024-03-12T23:18:18	7.5	100
58025	2024-03-12T23:28:18	7.5	100
58026	2024-03-12T23:38:18	7.6	100
58027	2024-03-12T23:48:18	7.6	100
58028	2024-03-12T23:58:18	7.6	99
58029	2024-03-13T00:25:08	7.6	100
58030	2024-03-13T00:25:08	7.7	100
58031	2024-03-13T00:28:18	7.7	99
58032	2024-03-13T00:38:18	7.7	98.5
58033	2024-03-13T00:48:18	7.7	98
58034	2024-03-13T00:58:18	7.8	98.5
58035	2024-03-13T01:08:18	7.7	98
58036	2024-03-13T01:18:18	7.5	99
58037	2024-03-13T01:28:18	7.4	100
58038	2024-03-13T01:38:18	7.3	100
58039	2024-03-13T01:48:18	7.4	100
58040	2024-03-13T01:58:18	7.4	100
58041	2024-03-13T02:08:18	7.4	100
58042	2024-03-13T02:18:18	7.5	100
58043	2024-03-13T02:28:18	7.5	100
58044	2024-03-13T02:38:18	7.6	100
58045	2024-03-13T02:48:18	7.6	100
58046	2024-03-13T02:58:18	7.6	100
58047	2024-03-13T03:08:18	7.7	100
58048	2024-03-13T03:18:18	7.8	100
58049	2024-03-13T03:28:18	7.8	100
58050	2024-03-13T03:38:18	7.9	100
58051	2024-03-13T03:48:18	7.9	100
58052	2024-03-13T03:58:18	8.1	100
58053	2024-03-13T04:08:18	8	100
58054	2024-03-13T04:18:18	8.2	100
58055	2024-03-13T04:28:18	8.2	100
58056	2024-03-13T04:38:18	8.3	100
58057	2024-03-13T04:48:18	8.2	100
58058	2024-03-13T04:58:18	8.3	100
58059	2024-03-13T05:08:18	8.4	100
58060	2024-03-13T05:18:18	8.3	100
58061	2024-03-13T05:28:18	8.4	100
58062	2024-03-13T05:38:18	8.4	100
58063	2024-03-13T05:48:18	8.5	100
58064	2024-03-13T05:58:18	8.6	100
58065	2024-03-13T06:08:18	8.6	100
58066	2024-03-13T06:18:18	8.7	100
58067	2024-03-13T06:28:18	8.7	100
58068	2024-03-13T06:38:18	8.8	100
58069	2024-03-13T06:48:18	8.8	100
58070	2024-03-13T06:58:17	8.9	100
58071	2024-03-13T07:08:18	9	100
58072	2024-03-13T07:18:17	9.2	100
58073	2024-03-13T07:28:17	9.2	100
58074	2024-03-13T07:38:17	9.3	100
58075	2024-03-13T07:48:17	9.5	100
58076	2024-03-13T07:58:17	9.5	100
58077	2024-03-13T08:08:17	9.6	100
58078	2024-03-13T08:18:17	9.7	100
58079	2024-03-13T08:28:17	9.7	100
58080	2024-03-13T08:38:17	9.9	100
58081	2024-03-13T08:48:17	9.9	100
58082	2024-03-13T08:58:17	10	100
58083	2024-03-13T09:08:17	10	100
58084	2024-03-13T09:18:17	10.1	100
58085	2024-03-13T09:28:17	10.1	100
58086	2024-03-13T09:38:17	10.4	100
58087	2024-03-13T09:48:17	10.4	100
58088	2024-03-13T09:58:17	10.4	100
58089	2024-03-13T10:08:17	10.4	100
58090	2024-03-13T10:18:17	10.5	100
58091	2024-03-13T10:28:17	10.4	100
58092	2024-03-13T10:38:17	10.7	100
58093	2024-03-13T10:48:17	10.7	100
58094	2024-03-13T10:58:17	10.7	100
58095	2024-03-13T11:08:17	10.9	100
58096	2024-03-13T11:18:17	10.8	100
58097	2024-03-13T11:28:17	10.8	100
58098	2024-03-13T11:38:17	10.9	100
58099	2024-03-13T11:48:17	11	100
58100	2024-03-13T11:58:17	11	100
58101	2024-03-13T12:08:17	11.1	100
58102	2024-03-13T12:18:17	11.3	100
58103	2024-03-13T12:28:17	11.3	100
58104	2024-03-13T12:38:17	11.4	100
58105	2024-03-13T12:48:17	11.5	100
58106	2024-03-13T12:58:17	11.7	100
58107	2024-03-13T13:08:17	12	100
58108	2024-03-13T13:18:17	12.2	100
58109	2024-03-13T13:28:17	12.4	100
58110	2024-03-13T13:38:17	12.7	100
58111	2024-03-13T13:48:17	13.5	100
58112	2024-03-13T13:58:17	13.5	100
58113	2024-03-13T14:08:17	13.3	100
58114	2024-03-13T14:18:17	13.9	100
58115	2024-03-13T14:28:17	15.5	100
58116	2024-03-13T14:38:17	16.7	94.5
58117	2024-03-13T14:48:17	17.9	69.5
58118	2024-03-13T14:58:17	17.9	68
58119	2024-03-13T15:08:17	17.7	68
58120	2024-03-13T15:18:17	17.3	68.5
58121	2024-03-13T15:28:17	17.2	69
58122	2024-03-13T15:38:17	17.2	68.5
58123	2024-03-13T15:48:17	15.7	72.5
58124	2024-03-13T15:58:17	15.2	73.5
58125	2024-03-13T16:08:17	14.7	76
58126	2024-03-13T16:18:17	14.7	77.5
58127	2024-03-13T16:28:17	15.1	75.5
58128	2024-03-13T16:38:17	14.7	75
58129	2024-03-13T16:48:17	14.2	77
58130	2024-03-13T16:58:17	13.8	80
58131	2024-03-13T17:08:17	13.7	81
58132	2024-03-13T17:18:17	13.5	82
58133	2024-03-13T17:28:17	13.5	82
58134	2024-03-13T17:38:17	13.1	82.5
58135	2024-03-13T17:48:17	13.1	83
58136	2024-03-13T17:58:17	13.1	83.5
58137	2024-03-13T18:08:17	12.8	85
58138	2024-03-13T18:18:17	12.7	86
58139	2024-03-13T18:28:17	12.6	86
58140	2024-03-13T18:38:17	12.6	85.5
58141	2024-03-13T18:48:17	12.7	85
58142	2024-03-13T18:58:17	12.6	84.5
58143	2024-03-13T19:08:17	12.5	85.5
58144	2024-03-13T19:18:17	12.4	87
58145	2024-03-13T19:28:17	12.3	88
58146	2024-03-13T19:38:17	12.2	88
58147	2024-03-13T19:48:17	12.1	89
58148	2024-03-13T19:58:17	12	89
58149	2024-03-13T20:08:17	12	89
58150	2024-03-13T20:18:17	12	88.5
58151	2024-03-13T20:28:17	12.2	87.5
58152	2024-03-13T20:38:17	12.2	87.5
58153	2024-03-13T20:48:17	12.1	88
58154	2024-03-13T20:58:17	12	88
58155	2024-03-13T21:08:17	12	88.5
58156	2024-03-13T21:18:17	12	89.5
58157	2024-03-13T21:28:17	12	92
58158	2024-03-13T21:38:16	11.9	91
58159	2024-03-13T21:48:16	11.9	92.5
58160	2024-03-13T21:58:16	11.8	91
58161	2024-03-13T22:08:16	11.8	94.5
58162	2024-03-13T22:18:16	11.6	91.5
58163	2024-03-13T22:28:16	11.5	92
58164	2024-03-13T22:38:16	11.3	92.5
58165	2024-03-13T22:48:16	11.4	93.5
58166	2024-03-13T22:58:16	11.5	94
58167	2024-03-13T23:08:16	11.4	94.5
58168	2024-03-13T23:18:16	11.5	95.5
58169	2024-03-13T23:28:16	11.4	94
58170	2024-03-13T23:38:16	11.3	95
58171	2024-03-13T23:48:16	11.1	94
58172	2024-03-13T23:58:16	10.9	95.5
58173	2024-03-14T00:08:16	11	94.5
58174	2024-03-14T00:26:23	10.9	95
58175	2024-03-14T00:28:16	10.8	95
58176	2024-03-14T00:38:16	10.6	95.5
58177	2024-03-14T00:48:16	10.5	94.5
58178	2024-03-14T00:58:16	10.3	95.5
58179	2024-03-14T01:08:16	10	96
58180	2024-03-14T01:18:16	10	96
58181	2024-03-14T01:28:16	10	95
58182	2024-03-14T01:38:16	9.8	95.5
58183	2024-03-14T01:48:16	9.7	95.5
58184	2024-03-14T01:58:16	9.7	95.5
58185	2024-03-14T02:08:16	9.7	94
58186	2024-03-14T02:18:16	9.7	95.5
58187	2024-03-14T02:28:16	9.6	96
58188	2024-03-14T02:38:16	9.4	95
58189	2024-03-14T02:48:16	9.4	96.5
58190	2024-03-14T02:58:16	9.3	96
58191	2024-03-14T03:08:16	9.2	94
58192	2024-03-14T03:18:16	9.1	95.5
58193	2024-03-14T03:28:16	9.1	95.5
58194	2024-03-14T03:38:16	9	96
58195	2024-03-14T03:58:16	8.9	94.5
58196	2024-03-14T04:08:16	8.7	95.5
58197	2024-03-14T04:18:16	8.5	95.5
58198	2024-03-14T04:28:16	8.6	96
58199	2024-03-14T04:38:16	8.5	95
58200	2024-03-14T04:48:16	8.4	95
58201	2024-03-14T04:58:16	8.2	95.5
58202	2024-03-14T05:08:16	8.1	95
58203	2024-03-14T05:18:16	7.9	96
58204	2024-03-14T05:28:16	7.9	96.5
58205	2024-03-14T05:38:16	7.7	96
58206	2024-03-14T05:48:16	7.6	96
58207	2024-03-14T05:58:16	7.5	96.5
58208	2024-03-14T06:08:16	7.5	96.5
58209	2024-03-14T06:18:16	7.7	95
58210	2024-03-14T06:28:16	7.6	94
58211	2024-03-14T06:38:16	7.5	95.5
58212	2024-03-14T06:48:16	7.5	94.5
58213	2024-03-14T06:58:16	7.6	95.5
58214	2024-03-14T07:08:16	7.6	96
58215	2024-03-14T07:18:16	7.7	97
58216	2024-03-14T07:28:16	7.9	96.5
58217	2024-03-14T07:38:16	8	97
58218	2024-03-14T07:48:16	8.1	97
58219	2024-03-14T07:58:16	8.3	98
58220	2024-03-14T08:08:16	8.6	98
58221	2024-03-14T08:18:16	8.8	97.5
58222	2024-03-14T08:28:16	8.9	97.5
58223	2024-03-14T08:38:16	9	97
58224	2024-03-14T08:48:16	9.2	97.5
58225	2024-03-14T08:58:16	9.3	97.5
58226	2024-03-14T09:08:16	9.5	97.5
58227	2024-03-14T09:18:16	9.7	97
58228	2024-03-14T09:28:16	9.9	96.5
58229	2024-03-14T09:38:16	10.2	96
58230	2024-03-14T09:48:16	10.4	95.5
58231	2024-03-14T09:58:16	10.6	94.5
58232	2024-03-14T10:08:16	11	93.5
58233	2024-03-14T10:18:16	11.4	90.5
58234	2024-03-14T10:28:16	11.6	89.5
58235	2024-03-14T10:38:16	11.9	89
58236	2024-03-14T10:48:16	12.1	83
58237	2024-03-14T10:58:16	12.7	80
58238	2024-03-14T11:08:16	12.8	82.5
58239	2024-03-14T11:18:16	13.1	80
58240	2024-03-14T11:28:16	13.4	81.5
58241	2024-03-14T11:38:16	13.8	81
58242	2024-03-14T11:48:16	13.9	77.5
58243	2024-03-14T11:58:16	14.5	77.5
58244	2024-03-14T12:08:16	15.1	77.5
58245	2024-03-14T12:18:16	15.9	74
58246	2024-03-14T12:28:16	18.9	62.5
58247	2024-03-14T12:38:16	21.5	54
58248	2024-03-14T12:48:16	22.3	50
58249	2024-03-14T12:58:16	22.5	50.5
58250	2024-03-14T13:08:16	23.4	49.5
58251	2024-03-14T13:18:16	25.5	42.5
58252	2024-03-14T13:28:16	25.4	42
58253	2024-03-14T13:38:16	26.3	41.5
58254	2024-03-14T13:48:16	25.9	42
58255	2024-03-14T13:58:15	27.6	38
58256	2024-03-14T14:08:15	27	40.5
58257	2024-03-14T14:18:15	28.3	38
58258	2024-03-14T14:28:15	29.2	37
58259	2024-03-14T14:38:15	30.5	34.5
58260	2024-03-14T14:48:15	28.2	37
58261	2024-03-14T14:58:15	26.4	41
58262	2024-03-14T15:08:15	25.9	42.5
58263	2024-03-14T15:18:15	26.3	43
58264	2024-03-14T15:28:15	25.6	41.5
58265	2024-03-14T15:38:15	27.8	39.5
58266	2024-03-14T15:48:15	28.8	37
58267	2024-03-14T15:58:15	29.1	37
58268	2024-03-14T16:08:15	28	39.5
58269	2024-03-14T16:18:15	24.9	44
58270	2024-03-14T16:28:15	23.8	45
58271	2024-03-14T16:38:15	23.4	50.5
58272	2024-03-14T16:48:15	23	52
58273	2024-03-14T16:58:15	22.3	54
58274	2024-03-14T17:08:15	21.7	57.5
58275	2024-03-14T17:18:15	21.1	64
58276	2024-03-14T17:28:15	20.5	64
58277	2024-03-14T17:38:15	20	66
58278	2024-03-14T17:48:15	19.5	65.5
58279	2024-03-14T17:58:15	19.2	66.5
58280	2024-03-14T18:08:15	18.7	65.5
58281	2024-03-14T18:18:15	18.5	68.5
58282	2024-03-14T18:28:15	18.2	69.5
58283	2024-03-14T18:38:15	17.8	71
58284	2024-03-14T18:48:15	17.4	69
58285	2024-03-14T18:58:15	17.1	71.5
58286	2024-03-14T19:08:15	17	73.5
58287	2024-03-14T19:18:15	16.6	72.5
58288	2024-03-14T19:28:15	16.3	72.5
58289	2024-03-14T19:38:15	16	74
58290	2024-03-14T19:48:15	15.7	73.5
58291	2024-03-14T19:58:15	15.5	73.5
58292	2024-03-14T20:08:15	15.2	75.5
58293	2024-03-14T20:18:15	15.1	77
58294	2024-03-14T20:28:15	14.8	76.5
58295	2024-03-14T20:38:15	14.5	76
58296	2024-03-14T20:48:15	14.3	78
58297	2024-03-14T20:58:15	13.9	75.5
58298	2024-03-14T21:08:15	13.8	78.5
58299	2024-03-14T21:18:15	13.6	77.5
58300	2024-03-14T21:28:15	13.5	79
58301	2024-03-14T21:38:15	13.3	79
58302	2024-03-14T21:48:15	13.2	79
58303	2024-03-14T21:58:15	12.9	78.5
58304	2024-03-14T22:08:15	12.8	79.5
58305	2024-03-14T22:18:15	12.8	81.5
58306	2024-03-14T22:28:15	12.5	79.5
58307	2024-03-14T22:38:15	12.5	81.5
58308	2024-03-14T22:48:15	12.5	80.5
58309	2024-03-14T22:58:15	12.3	81.5
58310	2024-03-14T23:08:15	12.3	82
58311	2024-03-14T23:18:15	12.2	82
58312	2024-03-14T23:28:15	12.1	82.5
58313	2024-03-14T23:38:15	12	82.5
58314	2024-03-14T23:48:15	11.9	83
58315	2024-03-14T23:58:15	11.9	82.5
58316	2024-03-15T00:26:54	11.6	83
58317	2024-03-15T00:26:54	11.6	82
58318	2024-03-15T00:28:18	11.5	83.5
58319	2024-03-15T00:38:15	11.4	84.5
58320	2024-03-15T00:48:15	11.3	84
58321	2024-03-15T00:58:15	11.3	84.5
58322	2024-03-15T01:08:15	11.2	84
58323	2024-03-15T01:18:15	11	83.5
58324	2024-03-15T01:28:15	11.2	83.5
58325	2024-03-15T01:38:15	11.2	82.5
58326	2024-03-15T01:48:15	11.1	83.5
58327	2024-03-15T01:58:15	11	85.5
58328	2024-03-15T02:08:15	10.8	85
58329	2024-03-15T02:18:15	10.8	85.5
58330	2024-03-15T02:28:15	10.7	86
58331	2024-03-15T02:38:15	10.6	85
58332	2024-03-15T02:48:15	10.6	85.5
58333	2024-03-15T02:58:15	10.4	85
58334	2024-03-15T03:08:15	10.4	86
58335	2024-03-15T03:18:14	10.5	85
58336	2024-03-15T03:28:14	10.5	84.5
58337	2024-03-15T03:38:14	10.5	85
58338	2024-03-15T03:48:14	10.3	87
58339	2024-03-15T03:58:14	10.3	87.5
58340	2024-03-15T04:08:14	10.1	86
58341	2024-03-15T04:18:14	9.9	87.5
58342	2024-03-15T04:28:14	9.8	88
58343	2024-03-15T04:38:15	9.7	87.5
58344	2024-03-15T04:48:14	9.8	86.5
58345	2024-03-15T04:58:14	9.7	87
58346	2024-03-15T05:08:14	9.9	84.5
58347	2024-03-15T05:18:14	9.8	83.5
58348	2024-03-15T05:28:14	9.7	83
58349	2024-03-15T05:38:14	9.6	84.5
58350	2024-03-15T05:48:14	9.7	81
58351	2024-03-15T05:58:14	10.1	79.5
58352	2024-03-15T06:08:14	10	80
58353	2024-03-15T06:18:14	9.8	81
58354	2024-03-15T06:28:14	10.1	80
58355	2024-03-15T06:38:14	10.1	80.5
58356	2024-03-15T06:48:14	10.3	79.5
58357	2024-03-15T06:58:14	10.7	80.5
58358	2024-03-15T07:08:14	11.4	77
58359	2024-03-15T07:18:14	12.1	74
58360	2024-03-15T07:28:14	12.7	73
58361	2024-03-15T07:38:14	13.2	70.5
58362	2024-03-15T07:48:14	13.7	69.5
58363	2024-03-15T07:58:14	14.3	68
58364	2024-03-15T08:08:14	14.8	65.5
58365	2024-03-15T08:18:14	14.9	65.5
58366	2024-03-15T08:28:14	15.2	65.5
58367	2024-03-15T08:38:14	15.3	65.5
58368	2024-03-15T08:48:14	15.1	68.5
58369	2024-03-15T08:58:14	13.2	86.5
58370	2024-03-15T09:08:14	12.5	90.5
58371	2024-03-15T09:18:14	12.5	92.5
58372	2024-03-15T09:28:14	13.1	88
58373	2024-03-15T09:38:14	12.9	91
58374	2024-03-15T09:48:14	12.9	91.5
58375	2024-03-15T09:58:14	12.8	91
58376	2024-03-15T10:08:14	13.2	87
58377	2024-03-15T10:18:14	13.5	82.5
58378	2024-03-15T10:28:14	14	80
58379	2024-03-15T10:38:14	14.6	76.5
58380	2024-03-15T10:48:14	15.2	76.5
58381	2024-03-15T10:58:14	15.5	71
58382	2024-03-15T11:08:14	15.4	70
58383	2024-03-15T11:18:14	16	68.5
58384	2024-03-15T11:28:14	15.5	69
58385	2024-03-15T11:38:14	15.1	71
58386	2024-03-15T11:48:14	15.1	70
58387	2024-03-15T11:58:14	15.1	70
58388	2024-03-15T12:08:14	15	70.5
58389	2024-03-15T12:18:14	14.8	72.5
58390	2024-03-15T12:28:14	14.5	78.5
58391	2024-03-15T12:38:14	14.4	79
58392	2024-03-15T12:48:14	14.9	77.5
58393	2024-03-15T12:58:14	15.1	76
58394	2024-03-15T13:08:14	15.2	73.5
58395	2024-03-15T13:18:14	15.2	72.5
58396	2024-03-15T13:28:14	16.3	69
58397	2024-03-15T13:38:14	16.1	67.5
58398	2024-03-15T13:48:14	15.9	65
58399	2024-03-15T13:58:14	16.2	63.5
58400	2024-03-15T14:08:14	16.4	62.5
58401	2024-03-15T14:18:14	16.5	61
58402	2024-03-15T14:28:14	16.6	60
58403	2024-03-15T14:38:14	16.7	60
58404	2024-03-15T14:48:14	16.9	59
58405	2024-03-15T14:58:14	16.6	59.5
58406	2024-03-15T15:08:14	16.3	61
58407	2024-03-15T15:18:14	16.3	62.5
58408	2024-03-15T15:28:14	16	62.5
58409	2024-03-15T15:38:14	16.1	62
58410	2024-03-15T15:48:14	17.6	58.5
58411	2024-03-15T15:58:14	18.6	56
58412	2024-03-15T16:08:14	18.6	56.5
58413	2024-03-15T16:18:14	19	54
58414	2024-03-15T16:28:14	17.8	57.5
58415	2024-03-15T16:38:14	16.8	61
58416	2024-03-15T16:48:14	16.4	62.5
58417	2024-03-15T16:58:14	15.9	64
58418	2024-03-15T17:08:13	15.5	65.5
58419	2024-03-15T17:18:13	15.4	66.5
58420	2024-03-15T17:28:13	15.1	67.5
58421	2024-03-15T17:38:13	15	67
58422	2024-03-15T17:48:13	14.9	67.5
58423	2024-03-15T17:58:13	14.8	67.5
58424	2024-03-15T18:08:13	14.9	66.5
58425	2024-03-15T18:18:13	14.6	69
58426	2024-03-15T18:28:13	14.7	67
58427	2024-03-15T18:38:13	14.7	66.5
58428	2024-03-15T18:48:13	14.8	66.5
58429	2024-03-15T18:58:13	14.7	67
58430	2024-03-15T19:08:14	14.7	67
58431	2024-03-15T19:18:13	14.6	67
58432	2024-03-15T19:28:13	13.8	81.5
58433	2024-03-15T19:38:13	13.3	81.5
58434	2024-03-15T19:48:13	13.1	79.5
58435	2024-03-15T19:58:13	13	86
58436	2024-03-15T20:08:13	11.5	97
58437	2024-03-15T20:18:13	11.3	98.5
58438	2024-03-15T20:28:13	11.1	99.5
58439	2024-03-15T20:38:13	10.8	99.5
58440	2024-03-15T20:48:13	10.7	99.5
58441	2024-03-15T20:58:13	10.9	99
58442	2024-03-15T21:08:13	10.9	99.5
58443	2024-03-15T21:18:13	10.9	99
58444	2024-03-15T21:28:13	10.9	99
58445	2024-03-15T21:38:13	10.9	97.5
58446	2024-03-15T21:48:13	10.9	96.5
58447	2024-03-15T21:58:13	10.9	95.5
58448	2024-03-15T22:08:13	10.8	89.5
58449	2024-03-15T22:18:13	10.9	89.5
58450	2024-03-15T22:28:13	10.8	90
58451	2024-03-15T22:38:13	10.7	90.5
58452	2024-03-15T22:48:13	10.7	89
58453	2024-03-15T22:58:13	10.7	89
58454	2024-03-15T23:08:13	10.6	89
58455	2024-03-15T23:18:13	10.7	89.5
58456	2024-03-15T23:28:13	10.4	92.5
58457	2024-03-15T23:38:13	10.4	92
58458	2024-03-15T23:48:13	10.3	91.5
58459	2024-03-15T23:58:13	10.4	90.5
58460	2024-03-16T00:26:34	10.5	91.5
58461	2024-03-16T00:26:34	10	98
58462	2024-03-16T00:28:13	9.9	99.5
58463	2024-03-16T00:38:13	10.1	100
58464	2024-03-16T00:48:13	10.1	99.5
58465	2024-03-16T00:58:13	10.2	99
58466	2024-03-16T01:08:13	10.2	99.5
58467	2024-03-16T01:18:13	10	99.5
58468	2024-03-16T01:28:13	10.2	98.5
58469	2024-03-16T01:38:13	10.5	95
58470	2024-03-16T01:48:13	10.6	93
58471	2024-03-16T01:58:13	10.8	92.5
58472	2024-03-16T02:08:13	10.8	96
58473	2024-03-16T02:18:13	10.1	100
58474	2024-03-16T02:28:13	9.9	100
58475	2024-03-16T02:38:13	9.7	100
58476	2024-03-16T02:48:13	9.6	100
58477	2024-03-16T02:58:13	9.6	100
58478	2024-03-16T03:08:13	9.6	100
58479	2024-03-16T03:18:13	9.6	100
58480	2024-03-16T03:28:13	9.5	100
58481	2024-03-16T03:38:13	9.4	100
58482	2024-03-16T03:48:13	9.3	100
58483	2024-03-16T03:58:13	9.3	100
58484	2024-03-16T04:08:13	9.2	100
58485	2024-03-16T04:18:13	9.3	100
58486	2024-03-16T04:28:13	9.3	100
58487	2024-03-16T04:38:13	9.3	100
58488	2024-03-16T04:48:13	9.3	100
58489	2024-03-16T04:58:13	9.3	100
58490	2024-03-16T05:08:13	9.4	100
58491	2024-03-16T05:18:13	9.5	100
58492	2024-03-16T05:28:13	9.6	100
58493	2024-03-16T05:38:13	9.7	100
58494	2024-03-16T05:48:13	9.7	100
58495	2024-03-16T05:58:13	9.6	100
58496	2024-03-16T06:08:13	9.4	100
58497	2024-03-16T06:18:13	9.6	100
58498	2024-03-16T06:28:13	9.8	100
58499	2024-03-16T06:38:13	9.8	100
58500	2024-03-16T06:48:13	9.9	100
58501	2024-03-16T06:58:13	10	100
58502	2024-03-16T07:08:13	10.1	100
58503	2024-03-16T07:18:13	10.3	100
58504	2024-03-16T07:28:13	10.5	100
58505	2024-03-16T07:38:13	10.6	100
58506	2024-03-16T07:48:13	10.7	100
58507	2024-03-16T07:58:13	10.7	100
58508	2024-03-16T08:08:13	10.8	100
58509	2024-03-16T08:18:13	10.8	100
58510	2024-03-16T08:28:13	11.1	100
58511	2024-03-16T08:38:13	11.3	100
58512	2024-03-16T08:48:13	11.6	99
58513	2024-03-16T08:58:13	11.4	99.5
58514	2024-03-16T09:08:12	11.3	99.5
58515	2024-03-16T09:18:12	11.5	99.5
58516	2024-03-16T09:28:12	11.5	99.5
58517	2024-03-16T09:38:12	11.4	99.5
58518	2024-03-16T09:48:12	11.5	99
58519	2024-03-16T09:58:12	11.6	95.5
58520	2024-03-16T10:08:12	11.9	89.5
58521	2024-03-16T10:18:12	12.2	88
58522	2024-03-16T10:28:12	12.4	87
58523	2024-03-16T10:38:12	12.5	86
58524	2024-03-16T10:48:12	12.7	85.5
58525	2024-03-16T10:58:12	13.1	82
58526	2024-03-16T11:08:12	12.8	82.5
58527	2024-03-16T11:18:12	13.3	77.5
58528	2024-03-16T11:28:12	13.6	76
58529	2024-03-16T11:38:12	13.7	75.5
58530	2024-03-16T11:48:12	13.6	75
58531	2024-03-16T11:58:12	13.7	74
58532	2024-03-16T12:08:12	14.2	74
58533	2024-03-16T12:18:12	14.6	71.5
58534	2024-03-16T12:28:12	15.1	68.5
58535	2024-03-16T12:38:12	15.1	68.5
58536	2024-03-16T12:48:12	15.1	66
58537	2024-03-16T12:58:12	14.9	67.5
58538	2024-03-16T13:08:12	12.5	90
58539	2024-03-16T13:18:12	14.8	81.5
58540	2024-03-16T13:28:12	15.9	71.5
58541	2024-03-16T13:38:12	15.7	68
58542	2024-03-16T13:48:12	15	69
58543	2024-03-16T13:58:12	14.7	69.5
58544	2024-03-16T14:08:12	14.5	69.5
58545	2024-03-16T14:18:12	14.5	70
58546	2024-03-16T14:28:12	14.7	68.5
58547	2024-03-16T14:38:12	14.4	71
58548	2024-03-16T14:48:12	14	72
58549	2024-03-16T14:58:12	13.8	74
58550	2024-03-16T15:08:12	14	74.5
58551	2024-03-16T15:18:12	15.4	71.5
58552	2024-03-16T15:28:12	14.6	69.5
58553	2024-03-16T15:38:12	14.6	70
58554	2024-03-16T15:48:12	15.5	65
58555	2024-03-16T15:58:12	14.5	68.5
58556	2024-03-16T16:08:12	14.4	71
58557	2024-03-16T16:18:12	14.1	70.5
58558	2024-03-16T16:28:12	14	70.5
58559	2024-03-16T16:38:12	14.6	69.5
58560	2024-03-16T16:48:12	14.2	70
58561	2024-03-16T16:58:12	14	70
58562	2024-03-16T17:18:12	13.2	72
58563	2024-03-16T17:28:12	13.2	74.5
58564	2024-03-16T17:38:12	13	75
58565	2024-03-16T17:48:12	12.8	75
58566	2024-03-16T17:58:12	12.7	76.5
58567	2024-03-16T18:08:12	12.6	77.5
58568	2024-03-16T18:18:12	12.4	80
58569	2024-03-16T18:28:12	12.2	82
58570	2024-03-16T18:38:12	12.2	85
58571	2024-03-16T18:48:12	12.2	84
58572	2024-03-16T18:58:12	12.2	85
58573	2024-03-16T19:08:12	12	84
58574	2024-03-16T19:18:12	12	84.5
58575	2024-03-16T19:28:12	11.8	86.5
58576	2024-03-16T19:38:12	11.7	86
58577	2024-03-16T19:48:12	11.7	87.5
58578	2024-03-16T19:58:12	11.5	86.5
58579	2024-03-16T20:08:12	11.5	85
58580	2024-03-16T20:18:12	11.5	83
58581	2024-03-16T20:28:12	11.4	85.5
58582	2024-03-16T20:38:12	11.3	85
58583	2024-03-16T20:48:12	11.4	79.5
58584	2024-03-16T20:58:12	11.3	76.5
58585	2024-03-16T21:08:12	11.1	78
58586	2024-03-16T21:18:12	10.8	79
58587	2024-03-16T21:28:12	10.6	81
58588	2024-03-16T21:38:12	10.3	83
58589	2024-03-16T21:48:12	10	82
58590	2024-03-16T21:58:12	9.9	82.5
58591	2024-03-16T22:08:12	9.6	84
58592	2024-03-16T22:18:12	9.4	85.5
58593	2024-03-16T22:28:12	9.2	84.5
58594	2024-03-16T22:38:12	9	85
58595	2024-03-16T22:48:12	8.9	85
58596	2024-03-16T22:58:12	8.7	83.5
58597	2024-03-16T23:08:11	8.6	84.5
58598	2024-03-16T23:18:12	8.5	87
58599	2024-03-16T23:28:11	8.4	86.5
58600	2024-03-16T23:38:11	8.4	86
58601	2024-03-16T23:48:11	8.2	85.5
58602	2024-03-16T23:58:11	8.1	88
58603	2024-03-17T00:32:53	7.8	85
58604	2024-03-17T00:32:53	8	87.5
58605	2024-03-17T00:32:54	7.8	86.5
58606	2024-03-17T00:38:11	8	87.5
58607	2024-03-17T00:48:11	7.7	88
58608	2024-03-17T00:58:11	7.7	88.5
58609	2024-03-17T01:08:11	7.7	89.5
58610	2024-03-17T01:18:11	7.7	89.5
58611	2024-03-17T01:28:11	7.6	90
58612	2024-03-17T01:38:11	7.5	89.5
58613	2024-03-17T01:48:11	7.5	89.5
58614	2024-03-17T01:58:11	7.4	90
58615	2024-03-17T02:08:11	7.3	90
58616	2024-03-17T02:18:11	7.3	87
58617	2024-03-17T02:28:11	6.8	89
58618	2024-03-17T02:38:11	6.8	91
58619	2024-03-17T02:48:11	6.8	89
58620	2024-03-17T02:58:11	6.7	90.5
58621	2024-03-17T03:08:11	6.5	91
58622	2024-03-17T03:18:11	6.4	91
58623	2024-03-17T03:28:11	6.3	90
58624	2024-03-17T03:38:11	6.1	92
58625	2024-03-17T03:48:11	6.1	91
58626	2024-03-17T03:58:11	6.2	90.5
58627	2024-03-17T04:08:11	6.2	91
58628	2024-03-17T04:18:11	6.3	89.5
58629	2024-03-17T04:28:11	6.3	89.5
58630	2024-03-17T04:38:11	6.1	90.5
58631	2024-03-17T04:48:11	5.7	91.5
58632	2024-03-17T04:58:11	5.7	91.5
58633	2024-03-17T05:08:11	5.8	91
58634	2024-03-17T05:18:11	5.6	92.5
58635	2024-03-17T05:28:11	5.3	91.5
58636	2024-03-17T05:38:11	5.3	92
58637	2024-03-17T05:48:11	5.2	91.5
58638	2024-03-17T05:58:11	5	91.5
58639	2024-03-17T06:08:11	5.2	92.5
58640	2024-03-17T06:18:11	5.1	92
58641	2024-03-17T06:28:11	5.3	93
58642	2024-03-17T06:38:11	5.5	92.5
58643	2024-03-17T06:48:11	5.8	92
58644	2024-03-17T06:58:11	6	92
58645	2024-03-17T07:08:11	6.3	92.5
58646	2024-03-17T07:18:11	6.5	90
58647	2024-03-17T07:28:11	6.9	91
58648	2024-03-17T07:38:11	7.1	91
58649	2024-03-17T07:48:11	7.4	90
58650	2024-03-17T07:58:11	7.6	89
58651	2024-03-17T08:08:11	7.8	89.5
58652	2024-03-17T08:18:11	8	88
58653	2024-03-17T08:28:11	8.3	88.5
58654	2024-03-17T08:38:11	8.4	88
58655	2024-03-17T08:48:11	8.7	88
58656	2024-03-17T08:58:11	8.9	86.5
58657	2024-03-17T09:08:11	9.1	86
58658	2024-03-17T09:18:11	9.3	85
58659	2024-03-17T09:28:11	9.8	82.5
58660	2024-03-17T09:38:11	10.3	82
58661	2024-03-17T09:48:11	10.4	81.5
58662	2024-03-17T09:58:11	10.6	81
58663	2024-03-17T10:08:11	11	79.5
58664	2024-03-17T10:18:11	11.3	79.5
58665	2024-03-17T10:28:11	11.7	78
58666	2024-03-17T10:38:11	12.2	76
58667	2024-03-17T10:48:11	12.5	76
58668	2024-03-17T10:58:11	12.9	75
58669	2024-03-17T11:08:11	13	70.5
58670	2024-03-17T11:18:11	13.1	71
58671	2024-03-17T11:28:11	13.3	70.5
58672	2024-03-17T11:38:11	13.4	71
58673	2024-03-17T11:48:11	13.6	68.5
58674	2024-03-17T11:58:11	14.1	67.5
58675	2024-03-17T12:08:11	14.5	67
58676	2024-03-17T12:18:11	14.5	67.5
58677	2024-03-17T12:28:11	14.9	65.5
58678	2024-03-17T12:38:11	15.4	63
58679	2024-03-17T12:48:11	15.9	61.5
58680	2024-03-17T12:58:11	16.2	59
58681	2024-03-17T13:08:11	15.5	61.5
58682	2024-03-17T13:18:11	15.1	62
58683	2024-03-17T13:28:11	15.2	61.5
58684	2024-03-17T13:38:11	15.6	62
58685	2024-03-17T13:48:11	15.9	61
58686	2024-03-17T13:58:11	16.7	60
58687	2024-03-17T14:08:11	15.8	59.5
58688	2024-03-17T14:18:11	15.5	59.5
58689	2024-03-17T14:28:11	15.6	59.5
58690	2024-03-17T14:38:11	16.5	58
58691	2024-03-17T14:48:11	18	53
58692	2024-03-17T14:58:11	16.6	57.5
58693	2024-03-17T15:08:11	16	59
58694	2024-03-17T15:18:11	15.5	60.5
58695	2024-03-17T15:28:11	15.3	61.5
58696	2024-03-17T15:38:11	15	62
58697	2024-03-17T15:48:11	14.8	63.5
58698	2024-03-17T15:58:11	14.7	63
58699	2024-03-17T16:08:11	14.7	65.5
58700	2024-03-17T16:18:11	14.6	67
58701	2024-03-17T16:28:11	14.7	67
58702	2024-03-17T16:38:11	14.5	68
58703	2024-03-17T16:48:10	14.3	68.5
58704	2024-03-17T16:58:10	14.1	67.5
58705	2024-03-17T17:08:10	13.8	68
58706	2024-03-17T17:18:10	13.7	74
58707	2024-03-17T17:28:10	13.6	75
58708	2024-03-17T17:38:10	13.2	77
58709	2024-03-17T17:48:10	13	78
58710	2024-03-17T17:58:10	12.7	78
58711	2024-03-17T18:08:10	12.6	79.5
58712	2024-03-17T18:18:10	12.5	80
58713	2024-03-17T18:28:10	12.2	80
58714	2024-03-17T18:38:10	12.3	81
58715	2024-03-17T18:48:10	12.2	81
58716	2024-03-17T18:58:10	12.1	82
58717	2024-03-17T19:08:10	12.1	83
58718	2024-03-17T19:18:10	12	82.5
58719	2024-03-17T19:28:10	11.9	83.5
58720	2024-03-17T19:38:10	11.9	82.5
58721	2024-03-17T19:48:10	11.8	83.5
58722	2024-03-17T19:58:10	11.8	82.5
58723	2024-03-17T20:08:10	11.7	81.5
58724	2024-03-17T20:18:10	11.6	83
58725	2024-03-17T20:28:10	11.7	84
58726	2024-03-17T20:38:10	11.5	84
58727	2024-03-17T20:48:10	11.6	87
58728	2024-03-17T20:58:10	11.5	86.5
58729	2024-03-17T21:08:10	11.5	86.5
58730	2024-03-17T21:18:10	11.5	88.5
58731	2024-03-17T21:28:10	11.4	88
58732	2024-03-17T21:38:10	11.4	88
58733	2024-03-17T21:48:10	11.4	88.5
58734	2024-03-17T21:58:10	11.4	89
58735	2024-03-17T22:08:10	11.3	89
58736	2024-03-17T22:18:10	11.2	88
58737	2024-03-17T22:28:10	11.2	88.5
58738	2024-03-17T22:38:10	11.1	89.5
58739	2024-03-17T22:48:10	11	88.5
58740	2024-03-17T22:58:10	10.6	90.5
58741	2024-03-17T23:08:10	10.8	91
58742	2024-03-17T23:18:10	10.9	90
58743	2024-03-17T23:28:10	11	90.5
58744	2024-03-17T23:38:10	11	92.5
58745	2024-03-17T23:48:10	10.8	91
58746	2024-03-17T23:58:10	10.7	91.5
58747	2024-03-18T00:33:51	10.8	91.5
58748	2024-03-18T00:33:51	10.9	92
58749	2024-03-18T00:33:52	10.8	91.5
58750	2024-03-18T00:38:10	10.8	92.5
58751	2024-03-18T00:48:10	10.8	92
58752	2024-03-18T00:58:10	10.7	92
58753	2024-03-18T01:08:10	10.7	93.5
58754	2024-03-18T01:18:10	10.8	92.5
58755	2024-03-18T01:28:10	10.8	92.5
58756	2024-03-18T01:38:10	10.7	92.5
58757	2024-03-18T01:48:10	10.7	92.5
58758	2024-03-18T01:58:10	10.6	93
58759	2024-03-18T02:08:10	10.6	93
58760	2024-03-18T02:18:10	10.6	92.5
58761	2024-03-18T02:28:10	10.6	93.5
58762	2024-03-18T02:38:10	10.6	93
58763	2024-03-18T02:48:10	10.5	91.5
58764	2024-03-18T02:58:10	10.4	92.5
58765	2024-03-18T03:08:10	10.6	93.5
58766	2024-03-18T03:18:10	10.6	93
58767	2024-03-18T03:28:10	10.6	93.5
58768	2024-03-18T03:38:10	10.7	93
58769	2024-03-18T03:48:10	10.7	93
58770	2024-03-18T03:58:10	10.6	94
58771	2024-03-18T04:08:10	10.6	93.5
58772	2024-03-18T04:18:10	10.6	94
58773	2024-03-18T04:28:10	10.6	94
58774	2024-03-18T04:38:10	10.5	92.5
58775	2024-03-18T04:48:10	10.3	93.5
58776	2024-03-18T04:58:10	10.3	93.5
58777	2024-03-18T05:08:10	10.4	94
58778	2024-03-18T05:18:10	10.5	94
58779	2024-03-18T05:28:10	10.4	93.5
58780	2024-03-18T05:38:10	10.4	94
58781	2024-03-18T05:48:10	10.5	95
58782	2024-03-18T05:58:10	10.4	95
58783	2024-03-18T06:08:10	10.5	95.5
58784	2024-03-18T06:18:10	10.6	95
58785	2024-03-18T06:28:10	10.5	94.5
58786	2024-03-18T06:38:10	10.6	94.5
58787	2024-03-18T06:48:10	10.5	94
58788	2024-03-18T06:58:10	10.4	94
58789	2024-03-18T07:08:10	10.3	94.5
58790	2024-03-18T07:18:10	10.4	94.5
58791	2024-03-18T07:28:10	10.2	98.5
58792	2024-03-18T07:38:10	10.3	99.5
58793	2024-03-18T07:48:10	10.4	99.5
58794	2024-03-18T07:58:10	10.4	99
58795	2024-03-18T08:08:10	10.5	98
58796	2024-03-18T08:18:10	10.5	98.5
58797	2024-03-18T08:28:10	10.6	98
58798	2024-03-18T08:38:09	10.8	99
58799	2024-03-18T08:48:10	11	98.5
58800	2024-03-18T08:58:09	11	98
58801	2024-03-18T09:08:09	11	96.5
58802	2024-03-18T09:18:09	10.8	96.5
58803	2024-03-18T09:28:09	10.9	97
58804	2024-03-18T09:38:09	11.1	97
58805	2024-03-18T09:48:09	11.3	96.5
58806	2024-03-18T09:58:09	11.3	95
58807	2024-03-18T10:08:09	11.3	95.5
58808	2024-03-18T10:18:09	11.2	95.5
58809	2024-03-18T10:28:09	11.3	96
58810	2024-03-18T10:38:09	11.6	95
58811	2024-03-18T10:48:09	11.5	96.5
58812	2024-03-18T10:58:09	11.4	96
58813	2024-03-18T11:08:09	11.5	95.5
58814	2024-03-18T11:18:09	11.4	96
58815	2024-03-18T11:28:09	11.4	96.5
58816	2024-03-18T11:38:09	11.6	95
58817	2024-03-18T11:48:09	11.7	94.5
58818	2024-03-18T11:58:09	11.9	94.5
58819	2024-03-18T12:08:09	12	94.5
58820	2024-03-18T12:18:09	12.3	92.5
58821	2024-03-18T12:28:09	12.2	93.5
58822	2024-03-18T12:38:09	12.4	93.5
58823	2024-03-18T12:48:09	12.8	91.5
58824	2024-03-18T12:58:09	13.1	90
58825	2024-03-18T13:08:09	13.2	89
58826	2024-03-18T13:18:09	13.3	89
58827	2024-03-18T13:28:09	14.2	85
58828	2024-03-18T13:38:09	14.9	83
58829	2024-03-18T13:48:09	14.7	82.5
58830	2024-03-18T13:58:09	14.9	82
58831	2024-03-18T14:08:09	15.4	80
58832	2024-03-18T14:18:09	16.3	76.5
58833	2024-03-18T14:28:09	18.5	70.5
58834	2024-03-18T14:38:09	19.7	63
58835	2024-03-18T14:48:09	18.3	67
58836	2024-03-18T14:58:09	20.2	60
58837	2024-03-18T15:08:09	21.4	58.5
58838	2024-03-18T15:18:09	22.9	52
58839	2024-03-18T15:28:09	22.6	51
58840	2024-03-18T15:38:09	19.6	58
58841	2024-03-18T15:48:09	18.3	63.5
58842	2024-03-18T15:58:09	17.2	66.5
58843	2024-03-18T16:08:09	16.8	69.5
58844	2024-03-18T16:18:09	16.5	70.5
58845	2024-03-18T16:28:09	16.5	71.5
58846	2024-03-18T16:38:09	16.2	71
58847	2024-03-18T16:48:09	16.1	72.5
58848	2024-03-18T16:58:09	15.7	73.5
58849	2024-03-18T17:08:09	15.7	76.5
58850	2024-03-18T17:18:09	15.7	79.5
58851	2024-03-18T17:28:09	15.5	79
58852	2024-03-18T17:38:09	15.3	82.5
58853	2024-03-18T17:48:09	14.8	77
58854	2024-03-18T17:58:09	13.5	99
58855	2024-03-18T18:08:09	13.4	100
58856	2024-03-18T18:18:09	13.2	100
58857	2024-03-18T18:28:09	13.2	100
58858	2024-03-18T18:38:09	12.9	100
58859	2024-03-18T18:48:09	12.7	100
58860	2024-03-18T18:58:09	12.2	100
58861	2024-03-18T19:08:09	12	100
58862	2024-03-18T19:18:09	11.6	100
58863	2024-03-18T19:28:09	11.7	100
58864	2024-03-18T19:38:09	11.5	100
58865	2024-03-18T19:48:09	11.4	100
58866	2024-03-18T19:58:09	11.2	100
58867	2024-03-18T20:08:09	11	100
58868	2024-03-18T20:18:09	10.5	100
58869	2024-03-18T20:28:09	10.5	100
58870	2024-03-18T20:38:09	10.6	100
58871	2024-03-18T20:48:09	10.3	100
58872	2024-03-18T20:58:09	10.3	100
58873	2024-03-18T21:08:09	10.5	100
58874	2024-03-18T21:18:09	10.5	100
58875	2024-03-18T21:28:09	10.2	100
58876	2024-03-18T21:38:09	10.4	100
58877	2024-03-18T21:48:09	10.5	100
58878	2024-03-18T21:58:09	10.4	100
58879	2024-03-18T22:08:09	10.3	100
58880	2024-03-18T22:18:09	10.2	100
58881	2024-03-18T22:38:09	9.8	100
58882	2024-03-18T22:48:09	9.7	100
58883	2024-03-18T22:58:09	9.7	100
58884	2024-03-18T23:08:09	9.7	100
58885	2024-03-18T23:18:08	9.7	100
58886	2024-03-18T23:28:08	9.6	100
58887	2024-03-18T23:38:08	9.6	100
58888	2024-03-18T23:48:08	9.6	100
58889	2024-03-18T23:58:08	9.4	100
58890	2024-03-19T00:26:45	9.1	100
58891	2024-03-19T00:26:45	9	100
58892	2024-03-19T00:28:13	8.7	100
58893	2024-03-19T00:38:08	8.6	100
58894	2024-03-19T00:48:08	8.6	100
58895	2024-03-19T00:58:08	8.4	100
58896	2024-03-19T01:08:08	8.3	100
58897	2024-03-19T01:18:08	8.2	100
58898	2024-03-19T01:28:08	8	100
58899	2024-03-19T01:38:09	7.9	100
58900	2024-03-19T01:48:08	7.9	100
58901	2024-03-19T01:58:08	7.9	100
58902	2024-03-19T02:08:08	7.7	100
58903	2024-03-19T02:18:08	7.5	100
58904	2024-03-19T02:28:08	7.5	100
58905	2024-03-19T02:38:08	7.3	100
58906	2024-03-19T02:48:08	7.2	100
58907	2024-03-19T02:58:08	7.1	100
58908	2024-03-19T03:08:08	7.1	100
58909	2024-03-19T03:18:08	6.9	100
58910	2024-03-19T03:28:08	6.9	100
58911	2024-03-19T03:38:08	6.7	100
58912	2024-03-19T03:48:08	6.6	100
58913	2024-03-19T03:58:08	6.4	100
58914	2024-03-19T04:08:08	6.4	100
58915	2024-03-19T04:18:08	6.3	100
58916	2024-03-19T04:28:08	6.3	100
58917	2024-03-19T04:38:08	6.2	100
58918	2024-03-19T04:48:08	6.2	100
58919	2024-03-19T04:58:08	6	100
58920	2024-03-19T05:08:08	6	100
58921	2024-03-19T05:18:08	6.1	100
58922	2024-03-19T05:28:08	6.2	100
58923	2024-03-19T05:38:08	6.3	100
58924	2024-03-19T05:48:08	6.4	100
58925	2024-03-19T05:58:08	6.4	100
58926	2024-03-19T06:08:08	6.6	100
58927	2024-03-19T06:18:08	6.8	100
58928	2024-03-19T06:28:08	7.1	100
58929	2024-03-19T06:38:08	7.3	100
58930	2024-03-19T06:48:08	7.2	100
58931	2024-03-19T06:58:08	7.6	100
58932	2024-03-19T07:08:08	7.8	100
58933	2024-03-19T07:18:08	8	100
58934	2024-03-19T07:28:08	8.3	100
58935	2024-03-19T07:38:08	8.5	100
58936	2024-03-19T07:48:08	8.6	100
58937	2024-03-19T07:58:08	9	100
58938	2024-03-19T08:08:08	9.3	100
58939	2024-03-19T08:18:08	9.6	100
58940	2024-03-19T08:28:08	10	100
58941	2024-03-19T08:38:08	10.3	100
58942	2024-03-19T08:48:08	10.7	100
58943	2024-03-19T08:58:08	10.9	100
58944	2024-03-19T09:08:08	11	100
58945	2024-03-19T09:18:08	10.9	100
58946	2024-03-19T09:28:08	10.8	100
58947	2024-03-19T09:38:08	10.9	100
58948	2024-03-19T09:48:08	11.1	100
58949	2024-03-19T09:58:08	11.4	100
58950	2024-03-19T10:08:08	11.7	100
58951	2024-03-19T10:18:08	12	100
58952	2024-03-19T10:28:08	12.3	100
58953	2024-03-19T10:38:08	12.7	100
58954	2024-03-19T10:48:08	13.6	99.5
58955	2024-03-19T10:58:08	14.5	99.5
58956	2024-03-19T11:08:08	14.9	99.5
58957	2024-03-19T11:18:08	15.1	99.5
58958	2024-03-19T11:28:08	15.4	99.5
58959	2024-03-19T11:38:08	15.7	99.5
58960	2024-03-19T11:48:08	15.9	99.5
58961	2024-03-19T11:58:08	16.7	80.5
58962	2024-03-19T12:08:08	17.3	74
58963	2024-03-19T12:18:08	17.9	69
58964	2024-03-19T12:28:08	19.4	63.5
58965	2024-03-19T12:38:08	20.7	54
58966	2024-03-19T12:48:08	22	53
58967	2024-03-19T12:58:08	23.5	48
58968	2024-03-19T13:08:08	23.4	49.5
58969	2024-03-19T13:18:08	23.9	46
58970	2024-03-19T13:28:08	24.7	46.5
58971	2024-03-19T13:38:08	24.5	42
58972	2024-03-19T13:48:08	24.7	43.5
58973	2024-03-19T13:58:08	25.8	39
58974	2024-03-19T14:08:08	26	38.5
58975	2024-03-19T14:18:08	26.3	38
58976	2024-03-19T14:28:08	26.3	38.5
58977	2024-03-19T14:38:08	27.5	35
58978	2024-03-19T14:48:08	27.3	34.5
58979	2024-03-19T14:58:08	27.1	35.5
58980	2024-03-19T15:08:08	27	34.5
58981	2024-03-19T15:18:07	27.2	36.5
58982	2024-03-19T15:28:07	26.9	36
58983	2024-03-19T15:48:07	26.2	36
58984	2024-03-19T15:58:07	27	36
58985	2024-03-19T16:08:07	27.2	36.5
58986	2024-03-19T16:18:07	27.5	36.5
58987	2024-03-19T16:28:07	26.7	36.5
58988	2024-03-19T16:38:07	25.8	38
58989	2024-03-19T16:48:07	25.5	40.5
58990	2024-03-19T16:58:07	25	39.5
58991	2024-03-19T17:08:07	23.9	43
58992	2024-03-19T17:18:07	23.2	43.5
58993	2024-03-19T17:28:07	21.9	46.5
58994	2024-03-19T17:38:07	21	50
58995	2024-03-19T17:48:07	20.3	53.5
58996	2024-03-19T17:58:07	19.8	58.5
58997	2024-03-19T18:08:07	19.4	59.5
58998	2024-03-19T18:18:07	18.7	63.5
58999	2024-03-19T18:28:07	18.5	65
59000	2024-03-19T18:38:07	18	66
59001	2024-03-19T18:48:07	17.7	65.5
59002	2024-03-19T18:58:07	17.5	66.5
59003	2024-03-19T19:08:07	17.1	66.5
59004	2024-03-19T19:18:07	16.8	66.5
59005	2024-03-19T19:28:07	16.5	67.5
59006	2024-03-19T19:38:07	16.5	69
59007	2024-03-19T19:48:07	16.2	69.5
59008	2024-03-19T19:58:07	15.7	72
59009	2024-03-19T20:08:07	15.5	70.5
59010	2024-03-19T20:18:07	15.4	71
59011	2024-03-19T20:28:07	15.3	71.5
59012	2024-03-19T20:38:07	15.2	72
59013	2024-03-19T20:48:07	15	73
59014	2024-03-19T20:58:07	14.5	74.5
59015	2024-03-19T21:08:07	14.2	74
59016	2024-03-19T21:18:07	13.9	74.5
59017	2024-03-19T21:28:07	13.9	75.5
59018	2024-03-19T21:38:07	14	75
59019	2024-03-19T21:48:07	13.9	76
59020	2024-03-19T21:58:07	13.8	75.5
59021	2024-03-19T22:08:07	13.9	75.5
59022	2024-03-19T22:18:07	13.9	75.5
59023	2024-03-19T22:28:07	13.8	75.5
59024	2024-03-19T22:38:07	13.7	75.5
59025	2024-03-19T22:48:07	13.4	76
59026	2024-03-19T22:58:07	13.2	77
59027	2024-03-19T23:08:07	12.7	77
59028	2024-03-19T23:18:07	12.6	78.5
59029	2024-03-19T23:28:07	12.5	79
59030	2024-03-19T23:38:07	12.3	79.5
59031	2024-03-19T23:48:07	11.9	79
59032	2024-03-19T23:58:07	11.7	79.5
59033	2024-03-20T00:24:23	11.8	80
59034	2024-03-20T00:24:23	11.4	81
59035	2024-03-20T00:28:07	11.3	80.5
59036	2024-03-20T00:38:07	11.3	80.5
59037	2024-03-20T00:48:07	11.1	80.5
59038	2024-03-20T00:58:07	10.9	81.5
59039	2024-03-20T01:08:07	10.7	81.5
59040	2024-03-20T01:18:07	10.5	82.5
59041	2024-03-20T01:28:07	10.4	83
59042	2024-03-20T01:38:07	10.3	82.5
59043	2024-03-20T01:48:07	10.2	82.5
59044	2024-03-20T01:58:07	10	83
59045	2024-03-20T02:08:07	9.9	83
59046	2024-03-20T02:18:07	9.9	83.5
59047	2024-03-20T02:28:07	9.7	84
59048	2024-03-20T02:38:07	9.6	82.5
59049	2024-03-20T02:48:07	9.6	82.5
59050	2024-03-20T02:58:07	9.4	84
59051	2024-03-20T03:08:07	9.3	84
59052	2024-03-20T03:18:07	9.1	84
59053	2024-03-20T03:28:07	9.1	84.5
59054	2024-03-20T03:38:07	9	84.5
59055	2024-03-20T03:48:07	8.6	84.5
59056	2024-03-20T03:58:07	8.5	84.5
59057	2024-03-20T04:08:07	8.4	85.5
59058	2024-03-20T04:18:07	8.3	85
59059	2024-03-20T04:28:07	8	84.5
59060	2024-03-20T04:38:07	8	84.5
59061	2024-03-20T04:48:07	7.9	85.5
59062	2024-03-20T04:58:07	7.9	85.5
59063	2024-03-20T05:08:07	7.7	85
59064	2024-03-20T05:18:07	7.6	85
59065	2024-03-20T05:28:07	7.5	85.5
59066	2024-03-20T05:38:07	7.4	87
59067	2024-03-20T05:48:06	7.5	86
59068	2024-03-20T05:58:06	7.5	85
59069	2024-03-20T06:08:06	7.6	85.5
59070	2024-03-20T06:18:06	7.5	87
59071	2024-03-20T06:28:24	7.5	86.5
59072	2024-03-20T06:38:06	7.5	87.5
59073	2024-03-20T06:48:06	7.9	88
59074	2024-03-20T06:58:06	8.1	88
59075	2024-03-20T07:08:06	8.3	88
59076	2024-03-20T07:18:06	8.4	89.5
59077	2024-03-20T07:28:27	8.6	90
59078	2024-03-20T07:38:06	8.8	91
59079	2024-03-20T07:48:06	9.2	90.5
59080	2024-03-20T07:58:07	9.5	90
59081	2024-03-20T08:08:06	9.7	90
59082	2024-03-20T08:18:06	9.9	89
59083	2024-03-20T08:28:06	10.2	87.5
59084	2024-03-20T08:38:06	10.3	88
59085	2024-03-20T08:48:06	10.4	88.5
59086	2024-03-20T08:58:06	10.7	87.5
59087	2024-03-20T09:08:06	11	88
59088	2024-03-20T09:18:06	11.1	87
59089	2024-03-20T09:28:06	11.4	86.5
59090	2024-03-20T09:38:06	11.8	86
59091	2024-03-20T09:48:06	12.1	83.5
59092	2024-03-20T09:58:06	12.6	82
59093	2024-03-20T10:08:06	13.1	80
59094	2024-03-20T10:18:06	13.6	78.5
59095	2024-03-20T10:28:06	13.9	77.5
59096	2024-03-20T10:38:06	14.4	77
59097	2024-03-20T10:48:06	14.4	76
59098	2024-03-20T10:58:06	14.5	76.5
59099	2024-03-20T11:08:06	14.9	73.5
59100	2024-03-20T11:18:06	15.2	74.5
59101	2024-03-20T11:28:06	15.6	71
59102	2024-03-20T11:38:06	16	70.5
59103	2024-03-20T11:48:06	16.5	67.5
59104	2024-03-20T11:58:06	16.9	65
59105	2024-03-20T12:08:06	17.3	64
59106	2024-03-20T12:18:06	17.7	62
59107	2024-03-20T12:28:06	20	57
59108	2024-03-20T12:38:06	22	49.5
59109	2024-03-20T12:48:06	23.3	45.5
59110	2024-03-20T12:58:06	24.7	42.5
59111	2024-03-20T13:08:06	24.6	40.5
59112	2024-03-20T13:18:06	24.6	40
59113	2024-03-20T13:28:06	27	37.5
59114	2024-03-20T13:38:06	28	36.5
59115	2024-03-20T13:48:06	27.4	35.5
59116	2024-03-20T13:58:06	26.2	38
59117	2024-03-20T14:08:06	27	37.5
59118	2024-03-20T14:18:06	27.4	36.5
59119	2024-03-20T14:28:06	28.6	35
59120	2024-03-20T14:38:06	28.9	32.5
59121	2024-03-20T14:48:06	28.2	34
59122	2024-03-20T14:58:06	29.1	33
59123	2024-03-20T15:08:06	29.3	33.5
59124	2024-03-20T15:18:06	28.4	31.5
59125	2024-03-20T15:28:06	27.9	31
59126	2024-03-20T15:38:06	28	33
59127	2024-03-20T15:48:06	28.2	32.5
59128	2024-03-20T15:58:06	27.3	32
59129	2024-03-20T16:08:06	26.2	34
59130	2024-03-20T16:18:06	25	35.5
59131	2024-03-20T16:28:06	24.3	39
59132	2024-03-20T16:38:06	24.2	39.5
59133	2024-03-20T16:48:06	23.2	40.5
59134	2024-03-20T16:58:06	23	42
59135	2024-03-20T17:08:06	22.8	43.5
59136	2024-03-20T17:18:06	22.4	47.5
59137	2024-03-20T17:38:06	21.1	55.5
59138	2024-03-20T17:48:06	20.4	56.5
59139	2024-03-20T17:58:06	20	58
59140	2024-03-20T18:08:06	19.5	60
59141	2024-03-20T18:18:05	19.1	60.5
59142	2024-03-20T18:28:05	18.7	62
59143	2024-03-20T18:38:05	18.4	62
59144	2024-03-20T18:48:05	18	60
59145	2024-03-20T18:58:05	17.7	60
59146	2024-03-20T19:08:05	17.4	60
59147	2024-03-20T19:18:06	17	61
59148	2024-03-20T19:28:05	16.7	61
59149	2024-03-20T19:38:05	16.3	63
59150	2024-03-20T19:48:05	16.1	63.5
59151	2024-03-20T19:58:05	15.9	64
59152	2024-03-20T20:08:05	15.7	66
59153	2024-03-20T20:18:05	15.4	66.5
59154	2024-03-20T20:28:05	15.1	66.5
59155	2024-03-20T20:38:05	15	68.5
59156	2024-03-20T20:48:05	14.7	68.5
59157	2024-03-20T20:58:05	14.3	69.5
59158	2024-03-20T21:08:05	14.1	70.5
59159	2024-03-20T21:18:05	14	72.5
59160	2024-03-20T21:28:05	13.9	72.5
59161	2024-03-20T21:38:05	13.8	72.5
59162	2024-03-20T21:48:05	13.5	72
59163	2024-03-20T21:58:05	13	72
59164	2024-03-20T22:08:05	12.9	74
59165	2024-03-20T22:18:05	12.9	74
59166	2024-03-20T22:28:05	12.9	74.5
59167	2024-03-20T22:38:05	12.7	75
59168	2024-03-20T22:48:05	12.5	74
59169	2024-03-20T22:58:05	12.4	75
59170	2024-03-20T23:08:05	12.1	76
59171	2024-03-20T23:18:05	12	77
59172	2024-03-20T23:28:05	11.6	77
59173	2024-03-20T23:38:05	11.5	77
59174	2024-03-20T23:48:05	11.4	77.5
59175	2024-03-20T23:58:05	11.3	78
59176	2024-03-21T00:08:05	11.2	78
59177	2024-03-21T00:24:35	11.1	77.5
59178	2024-03-21T00:28:05	10.9	79
59179	2024-03-21T00:38:05	10.9	78.5
59180	2024-03-21T00:48:05	10.8	79
59181	2024-03-21T00:58:05	10.7	79
59182	2024-03-21T01:08:05	10.7	79.5
59183	2024-03-21T01:18:05	10.6	79.5
59184	2024-03-21T01:28:05	10.7	80
59185	2024-03-21T01:38:05	10.7	80.5
59186	2024-03-21T01:48:05	10.7	80.5
59187	2024-03-21T01:58:05	10.8	81
59188	2024-03-21T02:08:05	10.7	80
59189	2024-03-21T02:18:05	10.6	80.5
59190	2024-03-21T02:28:05	10.6	81
59191	2024-03-21T02:38:05	10.6	81.5
59192	2024-03-21T02:48:05	10.5	81.5
59193	2024-03-21T02:58:05	10.3	82.5
59194	2024-03-21T03:08:05	10.3	82.5
59195	2024-03-21T03:18:05	10.3	82.5
59196	2024-03-21T03:28:05	10.3	83.5
59197	2024-03-21T03:38:05	10.1	83.5
59198	2024-03-21T03:48:05	10.2	84
59199	2024-03-21T03:58:05	10.1	84
59200	2024-03-21T04:08:05	10.1	84.5
59201	2024-03-21T04:28:05	10.1	85
59202	2024-03-21T04:38:05	10.2	85
59203	2024-03-21T04:48:05	10.3	84.5
59204	2024-03-21T04:58:05	10.1	85.5
59205	2024-03-21T05:08:05	10.2	85.5
59206	2024-03-21T05:18:05	9.8	87
59207	2024-03-21T05:28:05	10.1	87.5
59208	2024-03-21T05:38:05	10.1	86.5
59209	2024-03-21T05:48:05	10.3	87.5
59210	2024-03-21T05:58:05	10.5	87
59211	2024-03-21T06:08:05	10.6	87.5
59212	2024-03-21T06:18:05	10.6	87
59213	2024-03-21T06:28:05	10.9	87.5
59214	2024-03-21T06:38:05	10.9	87
59215	2024-03-21T06:48:05	11.1	87
59216	2024-03-21T06:58:05	11.4	88
59217	2024-03-21T07:08:05	11.6	87.5
59218	2024-03-21T07:18:05	11.9	86
59219	2024-03-21T07:28:05	12.2	84
59220	2024-03-21T07:38:05	12.6	83.5
59221	2024-03-21T07:48:05	13.2	81.5
59222	2024-03-21T07:58:05	13.7	78.5
59223	2024-03-21T08:08:05	13.8	78
59224	2024-03-21T08:18:05	13.9	78
59225	2024-03-21T08:28:05	14.1	77
59226	2024-03-21T08:38:05	14.2	76
59227	2024-03-21T08:48:05	14.5	75.5
59228	2024-03-21T08:58:05	14.7	74
59229	2024-03-21T09:08:05	14.9	74
59230	2024-03-21T09:18:05	14.6	74
59231	2024-03-21T09:28:05	14.6	74.5
59232	2024-03-21T09:38:04	15.1	73.5
59233	2024-03-21T09:48:04	15.2	72
59234	2024-03-21T09:58:04	15.4	71.5
59235	2024-03-21T10:08:04	15.7	69.5
59236	2024-03-21T10:18:04	16	69.5
59237	2024-03-21T10:28:04	16.2	68
59238	2024-03-21T10:38:04	16.6	67.5
59239	2024-03-21T10:48:04	16.9	68
59240	2024-03-21T10:58:04	17.2	65
59241	2024-03-21T11:08:04	17.6	64.5
59242	2024-03-21T11:18:04	17.6	64
59243	2024-03-21T11:28:04	17.9	60
59244	2024-03-21T11:38:04	18	59.5
59245	2024-03-21T11:48:04	18.2	55
59246	2024-03-21T11:58:04	18.1	56
59247	2024-03-21T12:08:04	18.1	55
59248	2024-03-21T12:18:04	18.8	51
59249	2024-03-21T12:28:04	20.3	45
59250	2024-03-21T12:38:04	22.4	41
59251	2024-03-21T12:48:04	21.8	40.5
59252	2024-03-21T12:58:04	22.5	38.5
59253	2024-03-21T13:08:04	22.5	40
59254	2024-03-21T13:18:04	22.3	38.5
59255	2024-03-21T13:28:04	24.1	34
59256	2024-03-21T13:38:04	22.4	45.5
59257	2024-03-21T13:48:04	23.1	43.5
59258	2024-03-21T13:58:04	22.2	47
59259	2024-03-21T14:08:04	22.5	42.5
59260	2024-03-21T14:18:04	21.6	46
59261	2024-03-21T14:28:04	21.2	46
59262	2024-03-21T14:38:04	22	44
59263	2024-03-21T14:48:04	21.3	44.5
59264	2024-03-21T14:58:04	21.2	43.5
59265	2024-03-21T15:08:04	21.6	41.5
59266	2024-03-21T15:18:04	21.7	37.5
59267	2024-03-21T15:28:04	20.9	39
59268	2024-03-21T15:38:04	21.9	36.5
59269	2024-03-21T15:48:04	22.1	36.5
59270	2024-03-21T15:58:04	21	38.5
59271	2024-03-21T16:08:04	20.9	39
59272	2024-03-21T16:18:04	20.4	40.5
59273	2024-03-21T16:28:04	20.1	45.5
59274	2024-03-21T16:38:04	19.9	48
59275	2024-03-21T16:48:04	19.8	48
59276	2024-03-21T16:58:04	19.5	51
59277	2024-03-21T17:08:04	19.2	50.5
59278	2024-03-21T17:18:04	18.9	53.5
59279	2024-03-21T17:28:04	18.7	57
59280	2024-03-21T17:38:04	18.1	60
59281	2024-03-21T17:48:04	17.8	59
59282	2024-03-21T17:58:04	17.5	61
59283	2024-03-21T18:08:04	17.3	61.5
59284	2024-03-21T18:18:04	17.1	61
59285	2024-03-21T18:28:04	16.9	63
59286	2024-03-21T18:38:04	16.6	63.5
59287	2024-03-21T18:48:04	16.5	63
59288	2024-03-21T18:58:04	16.2	62.5
59289	2024-03-21T19:08:04	16	65.5
59290	2024-03-21T19:18:04	15.9	62.5
59291	2024-03-21T19:28:04	15.6	61
59292	2024-03-21T19:38:04	15.1	64
59293	2024-03-21T19:48:04	15.3	63.5
59294	2024-03-21T19:58:04	15.2	63
59295	2024-03-21T20:18:04	15.2	66
59296	2024-03-21T20:28:04	15	66.5
59297	2024-03-21T20:38:04	14.7	67.5
59298	2024-03-21T20:48:04	14.8	68.5
59299	2024-03-21T20:58:25	14.6	69.5
59300	2024-03-21T21:08:03	14.5	70
59301	2024-03-21T21:18:03	14.4	70.5
59302	2024-03-21T21:28:03	14.3	69.5
59303	2024-03-21T21:38:03	14	70
59304	2024-03-21T21:48:03	13.9	71
59305	2024-03-21T21:58:03	13.7	71.5
59306	2024-03-21T22:08:03	13.6	71.5
59307	2024-03-21T22:18:03	13.4	72
59308	2024-03-21T22:28:03	13.2	71.5
59309	2024-03-21T22:38:03	13.1	72.5
59310	2024-03-21T22:48:03	13.2	69
59311	2024-03-21T22:58:03	12.9	70.5
59312	2024-03-21T23:08:03	12.7	71
59313	2024-03-21T23:18:03	12.7	72.5
59314	2024-03-21T23:28:03	12.4	72
59315	2024-03-21T23:38:03	12.2	72
59316	2024-03-21T23:48:03	12	73.5
59317	2024-03-21T23:58:03	11.8	74
59318	2024-03-22T00:08:03	11.5	74
59319	2024-03-22T00:18:03	11.5	75
59320	2024-03-22T00:28:03	11.5	75
59321	2024-03-22T00:38:03	11.3	75
59322	2024-03-22T00:48:03	11.2	76
59323	2024-03-22T00:58:03	11.2	75.5
59324	2024-03-22T01:08:03	11	76
59325	2024-03-22T01:18:03	10.8	76.5
59326	2024-03-22T01:28:03	10.6	76.5
59327	2024-03-22T01:38:03	10.5	77.5
59328	2024-03-22T01:48:03	10.4	77.5
59329	2024-03-22T01:58:03	10.3	77.5
59330	2024-03-22T02:08:03	10.3	77.5
59331	2024-03-22T02:18:03	10.3	77.5
59332	2024-03-22T02:28:03	10.3	78
59333	2024-03-22T02:38:03	10.3	78
59334	2024-03-22T02:48:03	10.4	79
59335	2024-03-22T02:58:03	10.5	77.5
59336	2024-03-22T03:08:03	10.3	78
59337	2024-03-22T03:18:03	10.4	78.5
59338	2024-03-22T03:28:03	10.2	79
59339	2024-03-22T03:38:03	10.1	80.5
59340	2024-03-22T03:48:03	10.1	80
59341	2024-03-22T03:58:03	10	79.5
59342	2024-03-22T04:08:03	10	80
59343	2024-03-22T04:18:03	9.9	80.5
59344	2024-03-22T04:28:03	9.9	81
59345	2024-03-22T04:38:03	9.8	81
59346	2024-03-22T04:48:03	9.6	81.5
59347	2024-03-22T04:58:03	9.6	82
59348	2024-03-22T05:08:03	9.6	82
59349	2024-03-22T05:18:03	9.5	82.5
59350	2024-03-22T05:28:03	9.4	82.5
59351	2024-03-22T05:38:03	9.5	83.5
59352	2024-03-22T05:48:03	9.7	83
59353	2024-03-22T05:58:03	9.6	83
59354	2024-03-22T06:08:03	9.7	83
59355	2024-03-22T06:18:03	9.8	84
59356	2024-03-22T06:28:03	9.9	84
59357	2024-03-22T06:38:03	10	85
59358	2024-03-22T06:48:03	10	84
59359	2024-03-22T06:58:03	9.9	85.5
59360	2024-03-22T07:08:03	10	85.5
59361	2024-03-22T07:18:03	10	85
59362	2024-03-22T07:28:03	10.6	82.5
59363	2024-03-22T07:38:03	11.5	79
59364	2024-03-22T07:48:03	12.2	75
59365	2024-03-22T07:58:03	12.8	72
59366	2024-03-22T08:08:03	13.1	70
59367	2024-03-22T08:18:03	13.7	69
59368	2024-03-22T08:28:03	13.9	68
59369	2024-03-22T08:38:03	14.3	67.5
59370	2024-03-22T08:48:03	14.5	66
59371	2024-03-22T08:58:03	14.9	64
59372	2024-03-22T09:08:03	15.2	62
59373	2024-03-22T09:18:03	15.8	61.5
59374	2024-03-22T09:28:03	15.8	61
59375	2024-03-22T09:38:03	16	60.5
59376	2024-03-22T09:48:03	16.4	60
59377	2024-03-22T09:58:03	16.5	59.5
59378	2024-03-22T10:08:03	16.6	59
59379	2024-03-22T10:18:03	16.9	57.5
59380	2024-03-22T10:28:03	17	56
59381	2024-03-22T10:38:03	17.3	55.5
59382	2024-03-22T10:48:03	17.6	54
59383	2024-03-22T10:58:03	17.6	52.5
59384	2024-03-22T11:08:03	17.7	52
59385	2024-03-22T11:18:03	17.9	49.5
59386	2024-03-22T11:28:03	18.3	49
59387	2024-03-22T11:38:03	18.2	49
59388	2024-03-22T11:48:02	18.3	48.5
59389	2024-03-22T11:58:02	18.8	47.5
59390	2024-03-22T12:08:02	19.1	48.5
59391	2024-03-22T12:18:02	19.3	47.5
59392	2024-03-22T12:28:02	19.4	47.5
59393	2024-03-22T12:38:02	19.6	47
59394	2024-03-22T12:48:02	20.3	44
59395	2024-03-22T12:58:02	20	46
59396	2024-03-22T13:08:02	19.8	44.5
59397	2024-03-22T13:18:02	19.7	45
59398	2024-03-22T13:28:02	19.7	44.5
59399	2024-03-22T13:38:02	19.3	44.5
59400	2024-03-22T13:48:02	19	47
59401	2024-03-22T13:58:02	19	47.5
59402	2024-03-22T14:08:02	18.8	47.5
59403	2024-03-22T14:18:02	18.6	49
59404	2024-03-22T14:28:02	18.6	49.5
59405	2024-03-22T14:38:02	18.7	49
59406	2024-03-22T14:48:02	18.6	50.5
59407	2024-03-22T14:58:02	18.4	51
59408	2024-03-22T15:08:02	18.4	50.5
59409	2024-03-22T15:18:02	18.6	51
59410	2024-03-22T15:28:02	19	49.5
59411	2024-03-22T15:38:02	20.8	46.5
59412	2024-03-22T15:48:02	21.9	43.5
59413	2024-03-22T15:58:02	20.9	44.5
59414	2024-03-22T16:08:02	20	48
59415	2024-03-22T16:18:02	19.8	47
59416	2024-03-22T16:28:02	19.6	47.5
59417	2024-03-22T16:38:02	19.2	49
59418	2024-03-22T16:48:02	19.3	49.5
59419	2024-03-22T16:58:02	19.6	51.5
59420	2024-03-22T17:08:02	20.1	50
59421	2024-03-22T17:18:02	19.7	51
59422	2024-03-22T17:28:02	18.7	52.5
59423	2024-03-22T17:38:02	18.3	58
59424	2024-03-22T17:48:02	17.6	61
59425	2024-03-22T17:58:02	17.3	63
59426	2024-03-22T18:08:02	16.8	64
59427	2024-03-22T18:18:02	16.3	65
59428	2024-03-22T18:28:02	16.1	65
59429	2024-03-22T18:38:02	15.8	64
59430	2024-03-22T18:48:02	15.5	66
59431	2024-03-22T18:58:02	15.3	66.5
59432	2024-03-22T19:08:02	14.9	67
59433	2024-03-22T19:18:02	14.8	68.5
59434	2024-03-22T19:28:02	14.6	68
59435	2024-03-22T19:38:02	14.1	67
59436	2024-03-22T19:58:02	13.9	69
59437	2024-03-22T20:08:02	13.6	69
59438	2024-03-22T20:18:02	13.6	69.5
59439	2024-03-22T20:28:02	13.2	70.5
59440	2024-03-22T20:38:02	13.1	71
59441	2024-03-22T20:48:02	12.9	72
59442	2024-03-22T20:58:02	12.7	71.5
59443	2024-03-22T21:08:02	12.7	72.5
59444	2024-03-22T21:18:02	12.6	72.5
59445	2024-03-22T21:28:02	12.7	72.5
59446	2024-03-22T21:38:02	12.8	72.5
59447	2024-03-22T21:48:02	12.7	73
59448	2024-03-22T21:58:02	12.5	73
59449	2024-03-22T22:08:02	12.4	74
59450	2024-03-22T22:28:02	12.5	75
59451	2024-03-22T22:38:02	12.6	74
59452	2024-03-22T22:48:02	12.4	74.5
59453	2024-03-22T22:58:02	12.6	75
59454	2024-03-22T23:08:02	12.7	75
59455	2024-03-22T23:18:02	12.4	76
59456	2024-03-22T23:28:02	12.3	76.5
59457	2024-03-22T23:38:02	12.4	77
59458	2024-03-22T23:48:02	12.5	76.5
59459	2024-03-22T23:58:02	12.4	77
59460	2024-03-23T00:24:18	12.3	76
59461	2024-03-23T00:24:18	12.3	76.5
59462	2024-03-23T00:28:01	12.4	76
59463	2024-03-23T00:38:01	12.4	77
59464	2024-03-23T00:48:01	12.4	77
59465	2024-03-23T00:58:01	12.2	77
59466	2024-03-23T01:08:01	12	78
59467	2024-03-23T01:18:01	12	78
59468	2024-03-23T01:28:01	11.6	78.5
59469	2024-03-23T01:38:01	11.9	77
59470	2024-03-23T01:48:01	12.1	74.5
59471	2024-03-23T01:58:01	12.2	73.5
59472	2024-03-23T02:08:01	12.4	73
59473	2024-03-23T02:18:01	12.6	72
59474	2024-03-23T02:28:01	12.8	71.5
59475	2024-03-23T02:38:01	12.9	71
59476	2024-03-23T02:48:01	13	70.5
59477	2024-03-23T02:58:01	13	71.5
59478	2024-03-23T03:08:01	12.9	71.5
59479	2024-03-23T03:18:01	12.7	72.5
59480	2024-03-23T03:28:01	12.6	73
59481	2024-03-23T03:38:01	12.7	73.5
59482	2024-03-23T03:48:01	12.6	72
59483	2024-03-23T03:58:01	12.3	73.5
59484	2024-03-23T04:08:01	12.4	72
59485	2024-03-23T04:18:01	12.5	72
59486	2024-03-23T04:28:01	12.3	73.5
59487	2024-03-23T04:38:01	12	77
59488	2024-03-23T04:48:01	10.6	88.5
59489	2024-03-23T04:58:01	10.2	91.5
59490	2024-03-23T05:08:01	9.8	94.5
59491	2024-03-23T05:18:01	9.9	89
59492	2024-03-23T05:28:01	10.1	79.5
59493	2024-03-23T05:38:01	10.2	79.5
59494	2024-03-23T05:48:01	10	78.5
59495	2024-03-23T05:58:01	9.9	78
59496	2024-03-23T06:08:01	9.8	78
59497	2024-03-23T06:18:01	9.8	78
59498	2024-03-23T06:28:01	9.7	78
59499	2024-03-23T06:38:01	9.7	78
59500	2024-03-23T06:48:01	9.9	77
59501	2024-03-23T06:58:01	9.8	76
59502	2024-03-23T07:08:01	9.7	76.5
59503	2024-03-23T07:18:01	8.9	83.5
59504	2024-03-23T07:28:01	9.2	81.5
59505	2024-03-23T07:38:01	9.2	79
59506	2024-03-23T07:48:01	9.6	77
59507	2024-03-23T07:58:01	9.8	75
59508	2024-03-23T08:08:01	9.8	73.5
59509	2024-03-23T08:18:01	9.9	72.5
59510	2024-03-23T08:28:01	9.8	70
59511	2024-03-23T08:38:01	10	67
59512	2024-03-23T08:48:01	9.8	61.5
59513	2024-03-23T08:58:01	10	59
59514	2024-03-23T09:08:01	10.3	59.5
59515	2024-03-23T09:18:01	10.7	59.5
59516	2024-03-23T09:28:01	10.9	55
59517	2024-03-23T09:38:01	10.6	56
59518	2024-03-23T09:48:01	9.5	69
59519	2024-03-23T09:58:01	8.7	77.5
59520	2024-03-23T10:08:01	7.1	96
59521	2024-03-23T10:18:01	7.3	98
59522	2024-03-23T10:28:01	7.6	96.5
59523	2024-03-23T10:38:01	7.8	95.5
59524	2024-03-23T10:48:01	7.6	94.5
59525	2024-03-23T10:58:01	7.6	93.5
59526	2024-03-23T11:08:01	8.1	91
59527	2024-03-23T11:18:01	8.1	90
59528	2024-03-23T11:28:01	8.5	86
59529	2024-03-23T11:38:01	9.1	86.5
59530	2024-03-23T11:48:01	9.5	83
59531	2024-03-23T11:58:01	9.3	83.5
59532	2024-03-23T12:08:01	10.1	78
59533	2024-03-23T12:18:01	10.8	68.5
59534	2024-03-23T12:28:01	12	62
59535	2024-03-23T12:38:01	13.1	57.5
59536	2024-03-23T12:48:01	13.1	55.5
59537	2024-03-23T12:58:01	10.4	66
59538	2024-03-23T13:08:01	9.1	66.5
59539	2024-03-23T13:18:01	9.3	67
59540	2024-03-23T13:28:01	10.6	59.5
59541	2024-03-23T13:38:01	9.7	65.5
59542	2024-03-23T13:48:01	10.5	60.5
59543	2024-03-23T13:58:01	12	52.5
59544	2024-03-23T14:08:01	13.8	48
59545	2024-03-23T14:18:01	10.8	71.5
59546	2024-03-23T14:28:01	8.1	89.5
59547	2024-03-23T14:38:01	11.6	71.5
59548	2024-03-23T14:48:01	12.4	62.5
59549	2024-03-23T14:58:01	10.1	62.5
59550	2024-03-23T15:08:01	10.4	66
59551	2024-03-23T15:18:01	9.7	64.5
59552	2024-03-23T15:28:01	9.8	65.5
59553	2024-03-23T15:38:01	9.6	66.5
59554	2024-03-23T15:48:01	9.6	69.5
59555	2024-03-23T16:08:01	9.2	63
59556	2024-03-23T16:18:01	8.3	67.5
59557	2024-03-23T16:28:01	6.6	93
59558	2024-03-23T16:38:00	7	99
59559	2024-03-23T16:48:01	6.5	97.5
59560	2024-03-23T16:58:00	6.5	93.5
59561	2024-03-23T17:08:00	6.4	92.5
59562	2024-03-23T17:18:00	6	95
59563	2024-03-23T17:28:00	5.7	97.5
59564	2024-03-23T17:38:00	5.5	99.5
59565	2024-03-23T17:48:00	5.2	100
59566	2024-03-23T17:58:00	5.1	100
59567	2024-03-23T18:08:00	5.1	100
59568	2024-03-23T18:18:00	5	100
59569	2024-03-23T18:28:00	4.9	100
59570	2024-03-23T18:38:00	4.9	100
59571	2024-03-23T18:48:00	4.9	100
59572	2024-03-23T18:58:00	4.8	100
59573	2024-03-23T19:08:00	4.8	100
59574	2024-03-23T19:18:00	4.7	100
59575	2024-03-23T19:28:00	4.6	100
59576	2024-03-23T19:38:00	4.5	100
59577	2024-03-23T19:48:00	4.5	100
59578	2024-03-23T19:58:00	4.5	100
59579	2024-03-23T20:08:00	4.5	100
59580	2024-03-23T20:18:00	4.7	100
59581	2024-03-23T20:28:00	4.8	100
59582	2024-03-23T20:38:00	5	99
59583	2024-03-23T20:48:00	5.1	98
59584	2024-03-23T20:58:00	5	98
59585	2024-03-23T21:08:00	5.1	97.5
59586	2024-03-23T21:18:00	5.2	97
59587	2024-03-23T21:28:00	5.3	97
59588	2024-03-23T21:38:00	5.4	96.5
59589	2024-03-23T21:48:00	5.4	95.5
59590	2024-03-23T21:58:00	5.6	95
59591	2024-03-23T22:08:00	5.6	94.5
59592	2024-03-23T22:18:00	5.7	94
59593	2024-03-23T22:28:00	5.7	94
59594	2024-03-23T22:38:00	5.6	94
59595	2024-03-23T22:48:00	5.5	94
59596	2024-03-23T22:58:00	5.2	94
59597	2024-03-23T23:08:00	4.6	94
59598	2024-03-23T23:18:00	4.4	94
59599	2024-03-23T23:28:00	4.1	94
59600	2024-03-23T23:38:00	4.3	94
59601	2024-03-23T23:48:00	4.3	94
59602	2024-03-23T23:58:00	4.4	94
59603	2024-03-24T00:30:55	4.6	94
59604	2024-03-24T00:30:55	4.5	94
59605	2024-03-24T00:30:55	4.5	94
59606	2024-03-24T00:38:00	4.5	94
59607	2024-03-24T00:48:00	4.6	94
59608	2024-03-24T00:58:00	4.8	94
59609	2024-03-24T01:08:00	4.7	94
59610	2024-03-24T01:18:00	4.7	94.5
59611	2024-03-24T01:28:00	4.7	94
59612	2024-03-24T01:38:00	4.7	94
59613	2024-03-24T01:48:00	4.8	94.5
59614	2024-03-24T01:58:00	4.7	94
59615	2024-03-24T02:08:00	4.6	94.5
59616	2024-03-24T02:18:00	4.4	94.5
59617	2024-03-24T02:28:00	4.5	94.5
59618	2024-03-24T02:38:00	4.4	94.5
59619	2024-03-24T02:48:00	4.5	94.5
59620	2024-03-24T02:58:00	4.5	94.5
59621	2024-03-24T03:08:00	4.5	94
59622	2024-03-24T03:18:00	4.5	94.5
59623	2024-03-24T03:28:00	4.4	94.5
59624	2024-03-24T03:38:00	4.3	94.5
59625	2024-03-24T03:48:00	4.1	94.5
59626	2024-03-24T03:58:00	4.2	94.5
59627	2024-03-24T04:08:00	4.4	94.5
59628	2024-03-24T04:18:00	4.4	94.5
59629	2024-03-24T04:28:00	4.4	94.5
59630	2024-03-24T04:38:00	4.5	94.5
59631	2024-03-24T04:48:00	4.4	94.5
59632	2024-03-24T04:58:00	4.4	94.5
59633	2024-03-24T05:08:00	4.4	94.5
59634	2024-03-24T05:18:00	4.3	94.5
59635	2024-03-24T05:28:00	4.3	94.5
59636	2024-03-24T05:38:00	4.3	94.5
59637	2024-03-24T05:48:00	4.4	94.5
59638	2024-03-24T05:58:00	4.4	94.5
59639	2024-03-24T06:08:00	4.5	94.5
59640	2024-03-24T06:18:00	4.6	94.5
59641	2024-03-24T06:28:00	4.7	94.5
59642	2024-03-24T06:38:00	4.8	94.5
59643	2024-03-24T06:48:00	4.9	94.5
59644	2024-03-24T06:58:00	5	94.5
59645	2024-03-24T07:08:00	5.2	94.5
59646	2024-03-24T07:18:00	5.3	94.5
59647	2024-03-24T07:28:00	5.3	94.5
59648	2024-03-24T07:38:00	5.5	94.5
59649	2024-03-24T07:48:00	5.8	94.5
59650	2024-03-24T07:58:00	6.1	94.5
59651	2024-03-24T08:08:00	6	94.5
59652	2024-03-24T08:18:00	5.8	94.5
59653	2024-03-24T08:28:00	5.9	95
59654	2024-03-24T08:38:00	5.9	95
59655	2024-03-24T08:48:00	5.9	95
59656	2024-03-24T08:58:00	5.9	95
59657	2024-03-24T09:08:00	6.1	95
59658	2024-03-24T09:18:00	6.2	95
59659	2024-03-24T09:28:00	6.5	95
59660	2024-03-24T09:38:00	6.6	95
59661	2024-03-24T09:48:00	6.9	95
59662	2024-03-24T09:58:00	7.1	95
59663	2024-03-24T10:08:00	7.2	95
59664	2024-03-24T10:28:00	7.1	95
59665	2024-03-24T10:38:00	6	95
59666	2024-03-24T10:48:00	5	95
59667	2024-03-24T10:58:00	5.2	95
59668	2024-03-24T11:08:00	5.3	95
59669	2024-03-24T11:18:00	5.4	95
59670	2024-03-24T11:28:00	5.3	95
59671	2024-03-24T11:38:00	5.2	95
59672	2024-03-24T11:48:00	5	95.5
59673	2024-03-24T11:58:00	5	95.5
59674	2024-03-24T12:08:00	4.9	95.5
59675	2024-03-24T12:18:00	5	95
59676	2024-03-24T12:28:00	4.6	95.5
59677	2024-03-24T12:38:00	5.8	95.5
59678	2024-03-24T12:48:00	6.5	95
59679	2024-03-24T12:58:00	6.5	95.5
59680	2024-03-24T13:08:00	6.7	95
59681	2024-03-24T13:18:00	5.9	95.5
59682	2024-03-24T13:28:00	5.8	95.5
59683	2024-03-24T13:38:00	5.7	95.5
59684	2024-03-24T13:48:00	6	95.5
59685	2024-03-24T13:58:00	6.5	95.5
59686	2024-03-24T14:08:00	6.5	95.5
59687	2024-03-24T14:18:00	6.3	95.5
59688	2024-03-24T14:28:00	6	95.5
59689	2024-03-24T14:38:00	6.5	95.5
59690	2024-03-24T14:48:00	8.5	95.5
59691	2024-03-24T14:58:00	9.4	95.5
59692	2024-03-24T15:08:00	9	95
59693	2024-03-24T15:18:00	8	95.5
59694	2024-03-24T15:28:00	7.7	95.5
59695	2024-03-24T15:38:00	7.3	95.5
59696	2024-03-24T15:48:00	7.3	95.5
59697	2024-03-24T15:58:00	7.4	95.5
59698	2024-03-24T16:08:00	7.2	95.5
59699	2024-03-24T16:18:00	7.2	95.5
59700	2024-03-24T16:28:00	6.9	95.5
59701	2024-03-24T16:38:00	5.7	95.5
59702	2024-03-24T16:48:00	6	95.5
59703	2024-03-24T16:58:00	7	95.5
59704	2024-03-24T17:08:00	7	95.5
59705	2024-03-24T17:18:00	6.3	95.5
59706	2024-03-24T17:28:00	6	95.5
59707	2024-03-24T17:38:00	6	95.5
59708	2024-03-24T17:48:00	5.8	95.5
59709	2024-03-24T17:58:00	5.8	95.5
59710	2024-03-24T18:08:00	5.8	95.5
59711	2024-03-24T18:18:00	6	95.5
59712	2024-03-24T18:28:00	6	95.5
59713	2024-03-24T18:38:00	6.2	95.5
59714	2024-03-24T18:48:00	6.2	95.5
59715	2024-03-24T18:57:59	6.2	95.5
59716	2024-03-24T19:08:00	6.2	95.5
59717	2024-03-24T19:18:00	6.2	95.5
59718	2024-03-24T19:27:59	5.7	95.5
59719	2024-03-24T19:38:00	5.1	95.5
59720	2024-03-24T19:47:59	5.2	95.5
59721	2024-03-24T19:57:59	5.4	95.5
59722	2024-03-24T20:07:59	5.4	95.5
59723	2024-03-24T20:17:59	5.7	95.5
59724	2024-03-24T20:27:59	5.7	95.5
59725	2024-03-24T20:37:59	5.8	95.5
59726	2024-03-24T20:47:59	6	95.5
59727	2024-03-24T20:57:59	5.9	95.5
59728	2024-03-24T21:07:59	6	95.5
59729	2024-03-24T21:17:59	6	98.5
59730	2024-03-24T21:27:59	5.9	98.5
59731	2024-03-24T21:37:59	6.1	98.5
59732	2024-03-24T21:47:59	6.2	98.5
59733	2024-03-24T21:57:59	6.1	98.5
59734	2024-03-24T22:07:59	6.3	98.5
59735	2024-03-24T22:17:59	6.2	98.5
59736	2024-03-24T22:27:59	6.3	100
59737	2024-03-24T22:37:59	6.3	100
59738	2024-03-24T22:47:59	6.3	100
59739	2024-03-24T22:57:59	6.4	100
59740	2024-03-24T23:07:59	6.4	99
59741	2024-03-24T23:17:59	6.5	89
59742	2024-03-24T23:27:59	6.4	83.5
59743	2024-03-24T23:37:59	6.5	82.5
59744	2024-03-24T23:48:00	6.5	82.5
59745	2024-03-24T23:57:59	6.6	83
59746	2024-03-25T00:29:22	6.4	82.5
59747	2024-03-25T00:29:23	6.4	82.5
59748	2024-03-25T00:29:23	6.4	82.5
59749	2024-03-25T00:37:59	6.4	82.5
59750	2024-03-25T00:47:59	6.4	83
59751	2024-03-25T00:57:59	6.3	82.5
59752	2024-03-25T01:07:59	6.3	83
59753	2024-03-25T01:17:59	6.3	82.5
59754	2024-03-25T01:27:59	6.3	83
59755	2024-03-25T01:37:59	6.3	82.5
59756	2024-03-25T01:47:59	6.3	82.5
59757	2024-03-25T01:57:59	6.2	82
59758	2024-03-25T02:07:59	6.3	82
59759	2024-03-25T02:17:59	6.3	82
59760	2024-03-25T02:27:59	6.3	82
59761	2024-03-25T02:37:59	6.3	81.5
59762	2024-03-25T02:47:59	6.2	82
59763	2024-03-25T02:57:59	6.1	82
59764	2024-03-25T03:07:59	6.2	83
59765	2024-03-25T03:18:00	6.2	82.5
59766	2024-03-25T03:28:00	6.3	83
59767	2024-03-25T03:37:59	6.2	82
59768	2024-03-25T03:47:59	6.2	82
59769	2024-03-25T03:57:59	6.2	82
59770	2024-03-25T04:07:59	6.3	82
59771	2024-03-25T04:17:59	6.2	83
59772	2024-03-25T04:27:59	6.2	82.5
59773	2024-03-25T04:37:59	6.2	82.5
59774	2024-03-25T04:47:59	6.2	83
59775	2024-03-25T04:57:59	6.1	82.5
59776	2024-03-25T05:07:59	6	84
59777	2024-03-25T05:17:59	5.8	84
59778	2024-03-25T05:27:59	5.7	84.5
59779	2024-03-25T05:37:59	5.6	85
59780	2024-03-25T05:47:59	5.7	85.5
59781	2024-03-25T05:57:59	5.5	86
59782	2024-03-25T06:07:59	5.6	86
59783	2024-03-25T06:17:59	5.7	86
59784	2024-03-25T06:27:59	5.9	85
59785	2024-03-25T06:38:18	5.9	84
59786	2024-03-25T06:47:59	6.1	83.5
59787	2024-03-25T06:57:59	6.3	82.5
59788	2024-03-25T07:07:59	6.4	83
59789	2024-03-25T07:17:59	6.6	82.5
59790	2024-03-25T07:27:59	6.7	80.5
59791	2024-03-25T07:37:59	6.9	80.5
59792	2024-03-25T07:47:59	7.1	79
59793	2024-03-25T07:57:59	7.4	78
59794	2024-03-25T08:07:59	7.6	77.5
59795	2024-03-25T08:17:59	7.6	76.5
59796	2024-03-25T08:27:59	7.7	76.5
59797	2024-03-25T08:37:59	7.8	76
59798	2024-03-25T08:47:59	8.1	72
59799	2024-03-25T08:57:59	8.3	71.5
59800	2024-03-25T09:07:59	8.3	71.5
59801	2024-03-25T09:17:59	8.6	70
59802	2024-03-25T09:37:59	8.9	67
59803	2024-03-25T09:47:59	8.9	66
59804	2024-03-25T09:57:59	9.1	65
59805	2024-03-25T10:07:59	9.2	52
59806	2024-03-25T10:17:59	9.5	57
59807	2024-03-25T10:37:59	10	52.5
59808	2024-03-25T10:47:59	10.5	55
59809	2024-03-25T10:57:59	10.7	57
59810	2024-03-25T11:07:59	10.9	54
59811	2024-03-25T11:17:59	11.3	53.5
59812	2024-03-25T11:27:59	11.9	52.5
59813	2024-03-25T11:37:59	12	52.5
59814	2024-03-25T11:47:59	12.4	52.5
59815	2024-03-25T11:57:59	13	48
59816	2024-03-25T12:07:59	13.8	47.5
59817	2024-03-25T12:17:59	14	47
59818	2024-03-25T12:27:59	17.6	39
59819	2024-03-25T12:37:59	19.7	37
59820	2024-03-25T12:47:59	20.3	32.5
59821	2024-03-25T12:57:59	19.5	34
59822	2024-03-25T13:07:59	19.7	32
59823	2024-03-25T13:17:59	20.7	33
59824	2024-03-25T13:27:59	23.7	29
59825	2024-03-25T13:37:59	24.5	27.5
59826	2024-03-25T13:47:59	25.9	26
59827	2024-03-25T13:57:59	25.8	25
59828	2024-03-25T14:07:59	26.9	24.5
59829	2024-03-25T14:17:59	27.5	23
59830	2024-03-25T14:27:59	27.8	22.5
59831	2024-03-25T14:37:59	27.9	23
59832	2024-03-25T14:47:58	27.7	23.5
59833	2024-03-25T15:07:58	27.6	23
59834	2024-03-25T15:17:58	27.9	22
59835	2024-03-25T15:27:58	27.2	22
59836	2024-03-25T15:37:58	27.4	22.5
59837	2024-03-25T15:47:58	28	21.5
59838	2024-03-25T15:57:58	27.6	21.5
59839	2024-03-25T16:07:58	26.9	22
59840	2024-03-25T16:17:58	26.3	23.5
59841	2024-03-25T16:27:58	25.8	23.5
59842	2024-03-25T16:37:58	24.4	24.5
59843	2024-03-25T16:47:58	22.9	26
59844	2024-03-25T16:57:58	22.3	28
59845	2024-03-25T17:07:58	21.7	28.5
59846	2024-03-25T17:17:58	20.5	31
59847	2024-03-25T17:27:58	19.3	34
59848	2024-03-25T17:37:58	18.1	35
59849	2024-03-25T17:47:58	17.1	36.5
59850	2024-03-25T17:57:58	16.5	38.5
59851	2024-03-25T18:07:58	16.1	40
59852	2024-03-25T18:17:58	15.5	40
59853	2024-03-25T18:27:58	15	42
59854	2024-03-25T18:37:58	14.5	41.5
59855	2024-03-25T18:47:58	14.1	41.5
59856	2024-03-25T18:57:58	13.7	42
59857	2024-03-25T19:07:58	13.3	42.5
59858	2024-03-25T19:17:58	12.9	42.5
59859	2024-03-25T19:27:58	12.6	43
59860	2024-03-25T19:37:58	12.2	43
59861	2024-03-25T19:47:58	11.8	42.5
59862	2024-03-25T19:57:58	11.5	42.5
59863	2024-03-25T20:07:58	11.1	44
59864	2024-03-25T20:17:58	10.9	44
59865	2024-03-25T20:27:58	10.7	44
59866	2024-03-25T20:37:58	10.6	44.5
59867	2024-03-25T20:47:58	10.4	45
59868	2024-03-25T20:57:58	10.3	45.5
59869	2024-03-25T21:07:58	10.2	46
59870	2024-03-25T21:17:58	10	46.5
59871	2024-03-25T21:27:58	9.8	46.5
59872	2024-03-25T21:37:58	9.7	47.5
59873	2024-03-25T21:47:58	9.6	47.5
59874	2024-03-25T21:57:58	9.5	48
59875	2024-03-25T22:07:58	9.4	47.5
59876	2024-03-25T22:17:58	9.1	51
59877	2024-03-25T22:27:58	8.8	52.5
59878	2024-03-25T22:37:58	8.7	54.5
59879	2024-03-25T22:47:58	8.5	54.5
59880	2024-03-25T22:57:58	8.3	55.5
59881	2024-03-25T23:07:58	8.3	55.5
59882	2024-03-25T23:17:58	8.3	56
59883	2024-03-25T23:27:58	8.1	56
59884	2024-03-25T23:37:58	8	57
59885	2024-03-25T23:47:58	8	57
59886	2024-03-25T23:57:58	8	58.5
59887	2024-03-26T00:24:19	8.3	54.5
59888	2024-03-26T00:24:19	8.1	52.5
59889	2024-03-26T00:27:58	8.3	53.5
59890	2024-03-26T00:37:58	8.2	56
59891	2024-03-26T00:47:58	7.9	56
59892	2024-03-26T00:57:58	7.6	58
59893	2024-03-26T01:07:58	7.5	61
59894	2024-03-26T01:17:58	7.5	61
59895	2024-03-26T01:27:58	7.4	62.5
59896	2024-03-26T01:37:58	7.3	61.5
59897	2024-03-26T01:47:58	7.3	63.5
59898	2024-03-26T01:57:58	7.3	64
59899	2024-03-26T02:07:58	7.1	63.5
59900	2024-03-26T02:17:58	7	63.5
59901	2024-03-26T02:27:58	7.1	65.5
59902	2024-03-26T02:37:58	7	67
59903	2024-03-26T02:47:58	6.9	68
59904	2024-03-26T02:57:58	6.7	68
59905	2024-03-26T03:07:58	6.5	69.5
59906	2024-03-26T03:17:58	6.6	70.5
59907	2024-03-26T03:27:58	6.5	71
59908	2024-03-26T03:37:58	6.4	71
59909	2024-03-26T03:47:58	6.5	71.5
59910	2024-03-26T03:57:58	6.6	72
59911	2024-03-26T04:07:58	6.7	72
59912	2024-03-26T04:17:58	6.6	73
59913	2024-03-26T04:27:58	6.6	73
59914	2024-03-26T04:37:58	6.4	72.5
59915	2024-03-26T04:47:58	6.4	73
59916	2024-03-26T04:57:58	6.4	74.5
59917	2024-03-26T05:07:58	6.4	73.5
59918	2024-03-26T05:17:58	6.2	75
59919	2024-03-26T05:27:58	6.4	76
59920	2024-03-26T05:37:58	6.5	75.5
59921	2024-03-26T05:47:58	6.6	74.5
59922	2024-03-26T05:57:58	6.5	72
59923	2024-03-26T06:07:58	6.6	73
59924	2024-03-26T06:17:58	6.8	71.5
59925	2024-03-26T06:27:58	6.9	71
59926	2024-03-26T06:37:58	6.9	70
59927	2024-03-26T06:47:58	7.1	69
59928	2024-03-26T06:57:58	7.1	71.5
59929	2024-03-26T07:17:58	7.6	69
59930	2024-03-26T07:27:58	7.7	68.5
59931	2024-03-26T07:37:58	7.9	68
59932	2024-03-26T07:47:58	8	65.5
59933	2024-03-26T07:57:58	8.2	66.5
59934	2024-03-26T08:07:57	8.6	66.5
59935	2024-03-26T08:17:58	8.6	65.5
59936	2024-03-26T08:27:57	8.8	67
59937	2024-03-26T08:37:57	8.9	67
59938	2024-03-26T08:47:57	9.3	64.5
59939	2024-03-26T08:57:57	9.6	63
59940	2024-03-26T09:07:58	9.9	63
59941	2024-03-26T09:17:57	10.1	60.5
59942	2024-03-26T09:27:57	10.5	60
59943	2024-03-26T09:37:57	10.6	60.5
59944	2024-03-26T09:47:57	10.8	58.5
59945	2024-03-26T09:57:57	11	60.5
59946	2024-03-26T10:07:57	11.2	60
59947	2024-03-26T10:17:57	11.3	58.5
59948	2024-03-26T10:27:57	11.6	61
59949	2024-03-26T10:37:57	11.8	56.5
59950	2024-03-26T10:47:57	12	57
59951	2024-03-26T10:57:57	12.5	57.5
59952	2024-03-26T11:07:57	12.7	54.5
59953	2024-03-26T11:17:57	12.7	55.5
59954	2024-03-26T11:27:57	12.9	54
59955	2024-03-26T11:37:57	13.4	54
59956	2024-03-26T11:47:57	13.7	54.5
59957	2024-03-26T11:57:57	14	51.5
59958	2024-03-26T12:07:57	14.5	50
59959	2024-03-26T12:17:57	15.5	48.5
59960	2024-03-26T12:27:57	18.9	43
59961	2024-03-26T12:37:57	20.7	38.5
59962	2024-03-26T12:47:57	20.7	37.5
59963	2024-03-26T12:57:57	21.8	37.5
59964	2024-03-26T13:07:57	20.7	38
59965	2024-03-26T13:17:57	20	39.5
59966	2024-03-26T13:27:57	19.9	40.5
59967	2024-03-26T13:37:57	20.2	38.5
59968	2024-03-26T13:47:57	20.3	38
59969	2024-03-26T13:57:57	21.7	36
59970	2024-03-26T14:07:57	24.4	32.5
59971	2024-03-26T14:17:57	25.6	30
59972	2024-03-26T14:27:57	24.6	31.5
59973	2024-03-26T14:37:57	23.7	32
59974	2024-03-26T14:47:57	24.2	31
59975	2024-03-26T14:57:57	25.5	30.5
59976	2024-03-26T15:07:57	26.4	29.5
59977	2024-03-26T15:17:57	26.3	28
59978	2024-03-26T15:27:57	26.8	28
59979	2024-03-26T15:37:57	27.1	28.5
59980	2024-03-26T15:47:57	27.3	31.5
59981	2024-03-26T15:57:57	27.2	29
59982	2024-03-26T16:07:57	26.9	33
59983	2024-03-26T16:17:57	26.6	32.5
59984	2024-03-26T16:27:57	25.6	31
59985	2024-03-26T16:37:57	24.6	41
59986	2024-03-26T16:47:57	23.4	44.5
59987	2024-03-26T16:57:57	22.2	46.5
59988	2024-03-26T17:07:57	21.5	48
59989	2024-03-26T17:17:57	20.2	43.5
59990	2024-03-26T17:27:57	19.5	47
59991	2024-03-26T17:37:57	18.7	47.5
59992	2024-03-26T17:47:57	18.3	57
59993	2024-03-26T17:57:57	17.8	53.5
59994	2024-03-26T18:07:57	17.4	50.5
59995	2024-03-26T18:17:57	17.1	52
59996	2024-03-26T18:27:57	16.7	52.5
59997	2024-03-26T18:37:57	16.5	55.5
59998	2024-03-26T18:47:57	16.4	58.5
59999	2024-03-26T18:57:57	16.2	58
60000	2024-03-26T19:07:57	16	57
60001	2024-03-26T19:17:57	15.6	57.5
60002	2024-03-26T19:27:57	15.2	57
60003	2024-03-26T19:37:57	14.9	60.5
60004	2024-03-26T19:47:57	14.8	60
60005	2024-03-26T19:57:57	14.6	60.5
60006	2024-03-26T20:07:57	14.4	61
60007	2024-03-26T20:17:57	14.4	62.5
60008	2024-03-26T20:27:56	14.2	63
60009	2024-03-26T20:37:56	14.2	64
60010	2024-03-26T20:47:56	14.1	64
60011	2024-03-26T20:57:56	13.8	64
60012	2024-03-26T21:07:56	13.1	67.5
60013	2024-03-26T21:17:56	12.9	64
60014	2024-03-26T21:27:56	12.7	64.5
60015	2024-03-26T21:37:56	13.1	66.5
60016	2024-03-26T21:47:56	13.2	63.5
60017	2024-03-26T21:57:56	13.3	67
60018	2024-03-26T22:07:56	13.3	68
60019	2024-03-26T22:17:56	13	66.5
60020	2024-03-26T22:27:56	12.8	66.5
60021	2024-03-26T22:37:56	12.8	70
60022	2024-03-26T22:47:56	12.7	70.5
60023	2024-03-26T22:57:56	12.7	71.5
60024	2024-03-26T23:07:56	12.6	71.5
60025	2024-03-26T23:17:56	12.4	70
60026	2024-03-26T23:27:56	12.2	68.5
60027	2024-03-26T23:37:56	12	70.5
60028	2024-03-26T23:47:56	12	68.5
60029	2024-03-26T23:57:56	11.8	68.5
60030	2024-03-27T00:24:26	11.8	68.5
60031	2024-03-27T00:24:27	11.7	68
60032	2024-03-27T00:27:56	11.7	68.5
60033	2024-03-27T00:37:56	11.9	71
60034	2024-03-27T00:47:56	11.9	71
60035	2024-03-27T00:57:56	11.8	68.5
60036	2024-03-27T01:07:56	11.6	72
60037	2024-03-27T01:17:56	11.5	73.5
60038	2024-03-27T01:27:56	11.1	73.5
60039	2024-03-27T01:37:56	10.8	75
60040	2024-03-27T01:47:56	10.7	75.5
60041	2024-03-27T01:57:56	10.5	75
60042	2024-03-27T02:07:56	10.3	75
60043	2024-03-27T02:17:56	9.9	73.5
60044	2024-03-27T02:27:56	9.8	74
60045	2024-03-27T02:37:56	9.8	75.5
60046	2024-03-27T02:47:56	9.6	76
60047	2024-03-27T02:57:56	9.4	76.5
60048	2024-03-27T03:07:56	9.4	76.5
60049	2024-03-27T03:17:56	9.4	77.5
60050	2024-03-27T03:27:56	9.2	76.5
60051	2024-03-27T03:37:56	9	78
60052	2024-03-27T03:47:56	8.8	77
60053	2024-03-27T03:57:56	8.9	78.5
60054	2024-03-27T04:07:56	8.8	78.5
60055	2024-03-27T04:17:56	8.9	78
60056	2024-03-27T04:27:56	8.7	78.5
60057	2024-03-27T04:37:56	8.8	79
60058	2024-03-27T04:47:56	8.6	78.5
60059	2024-03-27T04:57:56	8.4	79
60060	2024-03-27T05:07:56	8.6	80.5
60061	2024-03-27T05:17:56	8.3	80
60062	2024-03-27T05:27:56	8.2	80
60063	2024-03-27T05:37:56	8.4	80
60064	2024-03-27T05:47:56	8.4	81
60065	2024-03-27T05:57:56	8.4	82
60066	2024-03-27T06:07:56	8.4	81.5
60067	2024-03-27T06:17:56	8.5	81.5
60068	2024-03-27T06:27:56	8.7	81.5
60069	2024-03-27T06:37:56	8.8	82
60070	2024-03-27T06:47:56	8.9	82
60071	2024-03-27T06:57:56	9.1	82
60072	2024-03-27T07:07:56	9.2	82.5
60073	2024-03-27T07:17:56	9.4	82
60074	2024-03-27T07:27:56	9.6	81.5
60075	2024-03-27T07:37:56	9.8	82.5
60076	2024-03-27T07:47:56	10.1	82
60077	2024-03-27T07:57:56	10.6	80.5
60078	2024-03-27T08:07:56	10.7	78
60079	2024-03-27T08:17:56	10.7	79
60080	2024-03-27T08:27:56	10.9	78.5
60081	2024-03-27T08:37:56	11	77
60082	2024-03-27T08:47:56	11.2	77.5
60083	2024-03-27T08:57:56	11.3	78
60084	2024-03-27T09:07:56	11	79
60085	2024-03-27T09:17:56	11	80
60086	2024-03-27T09:27:56	11	81.5
60087	2024-03-27T09:37:56	10.8	81.5
60088	2024-03-27T09:47:56	10.6	79.5
60089	2024-03-27T09:57:56	10.4	79.5
60090	2024-03-27T10:07:56	10.2	79
60091	2024-03-27T10:17:56	10.1	79
60092	2024-03-27T10:27:56	9.9	80
60093	2024-03-27T10:37:56	9.7	80.5
60094	2024-03-27T10:47:56	9.4	85
60095	2024-03-27T10:57:56	9	87.5
60096	2024-03-27T11:07:56	8.9	89
60097	2024-03-27T11:17:56	8.8	89.5
60098	2024-03-27T11:28:12	8.8	89
60099	2024-03-27T11:37:56	8.7	86.5
60100	2024-03-27T11:47:56	9	82.5
60101	2024-03-27T11:57:56	9.6	80.5
60102	2024-03-27T12:07:56	9.7	78.5
60103	2024-03-27T12:17:56	9.6	79.5
60104	2024-03-27T12:27:56	9.8	77.5
60105	2024-03-27T12:37:56	10	75.5
60106	2024-03-27T12:47:55	9.9	76
60107	2024-03-27T12:57:56	10	75
60108	2024-03-27T13:07:55	10.3	73
60109	2024-03-27T13:17:55	10.7	69.5
60110	2024-03-27T13:27:55	11.1	68.5
60111	2024-03-27T13:37:55	10.9	68.5
60112	2024-03-27T13:47:55	10.7	67
60113	2024-03-27T13:57:55	10.5	68
60114	2024-03-27T14:07:55	10.1	68.5
60115	2024-03-27T14:17:55	9.9	69.5
60116	2024-03-27T14:27:55	9.5	71.5
60117	2024-03-27T14:37:55	9.2	72.5
60118	2024-03-27T14:47:55	9.4	70.5
60119	2024-03-27T14:57:55	9.6	70
60120	2024-03-27T15:07:55	9.4	70.5
60121	2024-03-27T15:17:55	9.6	70
60122	2024-03-27T15:27:55	9.5	70.5
60123	2024-03-27T15:37:55	9.5	71
60124	2024-03-27T15:47:55	9.4	71
60125	2024-03-27T15:57:55	9.3	71.5
60126	2024-03-27T16:07:55	9.1	73.5
60127	2024-03-27T16:17:55	8.8	79
60128	2024-03-27T16:27:55	8.6	80
60129	2024-03-27T16:37:55	8.6	80
60130	2024-03-27T16:47:55	8.4	80
60131	2024-03-27T16:57:55	8.3	80.5
60132	2024-03-27T17:07:55	8.4	80.5
60133	2024-03-27T17:17:55	8.4	80.5
60134	2024-03-27T17:27:55	8.3	80
60135	2024-03-27T17:37:55	8.3	80.5
60136	2024-03-27T17:47:55	8.2	79.5
60137	2024-03-27T17:57:55	8.2	79.5
60138	2024-03-27T18:07:55	8.2	79
60139	2024-03-27T18:17:55	8.2	79
60140	2024-03-27T18:27:55	8	79.5
60141	2024-03-27T18:37:55	8	79.5
60142	2024-03-27T18:47:55	7.9	80
60143	2024-03-27T18:57:55	7.9	79.5
60144	2024-03-27T19:07:55	8	80.5
60145	2024-03-27T19:17:55	8	79.5
60146	2024-03-27T19:27:55	8	79.5
60147	2024-03-27T19:37:55	7.8	79
60148	2024-03-27T19:47:55	7.9	79
60149	2024-03-27T19:57:55	8	79.5
60150	2024-03-27T20:07:55	7.9	80.5
60151	2024-03-27T20:17:55	7.8	80
60152	2024-03-27T20:27:55	7.8	81.5
60153	2024-03-27T20:37:55	7.7	81
60154	2024-03-27T20:47:55	7.6	81
60155	2024-03-27T20:57:55	7.7	82
60156	2024-03-27T21:07:55	7.7	80.5
60157	2024-03-27T21:17:55	7.6	81
60158	2024-03-27T21:27:55	7.5	78.5
60159	2024-03-27T21:37:55	7.6	76.5
60160	2024-03-27T21:47:55	7.6	75.5
60161	2024-03-27T21:57:55	7.6	75.5
60162	2024-03-27T22:07:55	7.7	76.5
60163	2024-03-27T22:17:55	7.5	76
60164	2024-03-27T22:27:55	7.6	77.5
60165	2024-03-27T22:37:55	7.4	77
60166	2024-03-27T22:47:55	7.4	79
60167	2024-03-27T22:57:55	7.3	81.5
60168	2024-03-27T23:07:55	7.2	81.5
60169	2024-03-27T23:17:55	7.1	82
60170	2024-03-27T23:27:55	7	82
60171	2024-03-27T23:37:55	6.9	82.5
60172	2024-03-27T23:47:55	6.8	83
60173	2024-03-27T23:57:55	6.7	83
60174	2024-03-28T00:24:33	6.3	82
60175	2024-03-28T00:24:33	6.2	82.5
60176	2024-03-28T00:27:55	6	83
60177	2024-03-28T00:37:55	5.9	83
60178	2024-03-28T00:47:55	5.7	83
60179	2024-03-28T00:57:55	5.4	83
60180	2024-03-28T01:07:55	5.3	83
60181	2024-03-28T01:18:15	5.3	83.5
60182	2024-03-28T01:27:55	5.1	83
60183	2024-03-28T01:37:55	4.8	83
60184	2024-03-28T01:47:55	4.8	83.5
60185	2024-03-28T01:57:55	4.6	84.5
60186	2024-03-28T02:07:55	4.4	84
60187	2024-03-28T02:17:55	4.4	84
60188	2024-03-28T02:27:55	4.4	83.5
60189	2024-03-28T02:37:55	4.5	83.5
60190	2024-03-28T02:47:55	4.5	83
60191	2024-03-28T02:57:55	4.2	83.5
60192	2024-03-28T03:07:55	4.1	84
60193	2024-03-28T03:17:55	4	84
60194	2024-03-28T03:27:55	3.9	84
60195	2024-03-28T03:37:55	3.8	85
60196	2024-03-28T03:47:55	3.5	85.5
60197	2024-03-28T03:57:55	3.5	85.5
60198	2024-03-28T04:07:55	3.3	85.5
60199	2024-03-28T04:17:55	3.3	85
60200	2024-03-28T04:27:55	3.3	85
60201	2024-03-28T04:37:55	3.2	85
60202	2024-03-28T04:47:55	3	85.5
60203	2024-03-28T04:57:55	3	85.5
60204	2024-03-28T05:07:55	3	86
60205	2024-03-28T05:17:55	3.3	84.5
60206	2024-03-28T05:27:55	3.6	85
60207	2024-03-28T05:37:55	3.8	84.5
60208	2024-03-28T05:47:55	4.1	84.5
60209	2024-03-28T05:57:55	3.8	85.5
60210	2024-03-28T06:07:55	3.5	91
60211	2024-03-28T06:17:55	3.3	96
60212	2024-03-28T06:27:55	3.9	98
60213	2024-03-28T06:37:55	4	97.5
60214	2024-03-28T06:47:55	4.2	98.5
60215	2024-03-28T06:57:55	4.7	99
60216	2024-03-28T07:07:55	4.9	99
60217	2024-03-28T07:17:55	5.2	97.5
60218	2024-03-28T07:27:55	5.3	97.5
60219	2024-03-28T07:37:55	5.7	94.5
60220	2024-03-28T07:47:55	5.6	94
60221	2024-03-28T07:57:55	5.9	95.5
60222	2024-03-28T08:07:55	6.1	94
60223	2024-03-28T08:17:55	5.9	95
60224	2024-03-28T08:27:55	6.4	92
60225	2024-03-28T08:37:55	6.9	92
60226	2024-03-28T08:47:55	7.4	88.5
60227	2024-03-28T08:57:55	7.6	88
60228	2024-03-28T09:07:55	7.8	85.5
60229	2024-03-28T09:17:55	8.5	78
60230	2024-03-28T09:27:55	9	75
60231	2024-03-28T09:37:55	9.7	71.5
60232	2024-03-28T09:47:55	9.8	68.5
60233	2024-03-28T09:57:55	10	68
60234	2024-03-28T10:07:55	10.3	64
60235	2024-03-28T10:17:55	10.5	64
60236	2024-03-28T10:27:55	10.7	62.5
60237	2024-03-28T10:37:55	10.9	61.5
60238	2024-03-28T10:47:55	11.1	61
60239	2024-03-28T10:57:55	11.3	60
60240	2024-03-28T11:07:55	11.7	63
60241	2024-03-28T11:17:55	11.1	63.5
60242	2024-03-28T11:27:55	11.7	61.5
60243	2024-03-28T11:37:55	12.3	59.5
60244	2024-03-28T11:47:54	12.7	57
60245	2024-03-28T11:57:55	12.4	57
60246	2024-03-28T12:07:54	10.8	67.5
60247	2024-03-28T12:17:54	8.6	95
60248	2024-03-28T12:27:54	9.3	90.5
60249	2024-03-28T12:37:54	9.2	91
60250	2024-03-28T12:47:54	12.6	76
60251	2024-03-28T12:57:54	13.7	65.5
60252	2024-03-28T13:07:54	13.1	57.5
60253	2024-03-28T13:17:54	14.5	51.5
60254	2024-03-28T13:27:54	14.4	48.5
60255	2024-03-28T13:37:54	14.1	47.5
60256	2024-03-28T13:47:54	15	45.5
60257	2024-03-28T13:57:54	16.7	42
60258	2024-03-28T14:07:54	17.8	39.5
60259	2024-03-28T14:17:54	18.4	38
60260	2024-03-28T14:27:54	18.6	38
60261	2024-03-28T14:37:54	18.8	38.5
60262	2024-03-28T14:47:54	18.9	39.5
60263	2024-03-28T14:57:54	17.7	40.5
60264	2024-03-28T15:07:54	17.7	43
60265	2024-03-28T15:18:12	16.6	44
60266	2024-03-28T15:27:54	15.5	47.5
60267	2024-03-28T15:37:54	15.1	49
60268	2024-03-28T15:47:54	16.7	41.5
60269	2024-03-28T15:57:54	16.8	40.5
60270	2024-03-28T16:07:54	16.4	40.5
60271	2024-03-28T16:17:54	16.5	41
60272	2024-03-28T16:27:54	16.4	38.5
60273	2024-03-28T16:37:54	16.3	39
60274	2024-03-28T16:47:54	15.4	40
60275	2024-03-28T16:57:54	14.3	43
60276	2024-03-28T17:07:54	13.3	45
60277	2024-03-28T17:17:54	12.9	46.5
60278	2024-03-28T17:27:54	12.7	50.5
60279	2024-03-28T17:37:54	12.1	53
60280	2024-03-28T17:47:54	11.7	53
60281	2024-03-28T17:57:54	11.6	55.5
60282	2024-03-28T18:07:54	11.4	56
60283	2024-03-28T18:17:54	11.4	60
60284	2024-03-28T18:27:54	11.1	61
60285	2024-03-28T18:37:54	11	62.5
60286	2024-03-28T18:47:54	10.6	64
60287	2024-03-28T18:57:54	10.4	65
60288	2024-03-28T19:07:54	10.3	66
60289	2024-03-28T19:17:54	10.1	66
60290	2024-03-28T19:27:54	9.7	67
60291	2024-03-28T19:37:54	9.6	68.5
60292	2024-03-28T19:47:54	9.3	69
60293	2024-03-28T19:57:54	9.1	68.5
60294	2024-03-28T20:07:54	8.9	69.5
60295	2024-03-28T20:17:54	8.5	70.5
60296	2024-03-28T20:27:54	8.4	70.5
60297	2024-03-28T20:37:54	8.2	71
60298	2024-03-28T20:47:54	8.1	72
60299	2024-03-28T20:57:54	8.1	71.5
60300	2024-03-28T21:07:54	8	71.5
60301	2024-03-28T21:17:54	7.8	71.5
60302	2024-03-28T21:27:54	7.8	71.5
60303	2024-03-28T21:37:54	7.9	69.5
60304	2024-03-28T21:47:54	8	70.5
60305	2024-03-28T21:57:54	7.9	70
60306	2024-03-28T22:07:54	7.7	71.5
60307	2024-03-28T22:17:54	7.7	71.5
60308	2024-03-28T22:27:54	7.6	70.5
60309	2024-03-28T22:37:54	7.5	70
60310	2024-03-28T22:47:54	7.3	71.5
60311	2024-03-28T22:57:54	7.2	72.5
60312	2024-03-28T23:07:54	7.2	71.5
60313	2024-03-28T23:17:54	7.3	70.5
60314	2024-03-28T23:27:54	7.4	70.5
60315	2024-03-28T23:37:54	7.5	71
60316	2024-03-28T23:47:54	7.5	70.5
60317	2024-03-28T23:57:54	7.4	72.5
60318	2024-03-29T00:24:44	7.4	73.5
60319	2024-03-29T00:24:45	7.4	73.5
60320	2024-03-29T00:27:54	7.5	68
60321	2024-03-29T00:37:54	7.9	69
60322	2024-03-29T00:47:54	8	64
60323	2024-03-29T00:57:54	8.6	61
60324	2024-03-29T01:07:54	8.7	60.5
60325	2024-03-29T01:17:54	8.9	59
60326	2024-03-29T01:27:54	9.1	58
60327	2024-03-29T01:37:54	9.2	59
60328	2024-03-29T01:47:54	9.3	59
60329	2024-03-29T01:57:54	9.4	57.5
60330	2024-03-29T02:07:54	9.5	58
60331	2024-03-29T02:17:54	9.6	55
60332	2024-03-29T02:27:54	9.7	56.5
60333	2024-03-29T02:37:54	9.6	57
60334	2024-03-29T02:47:54	9.5	60.5
60335	2024-03-29T02:57:54	9.6	61
60336	2024-03-29T03:07:54	10.4	50
60337	2024-03-29T03:17:54	10.9	51
60338	2024-03-29T03:27:54	11.2	49
60339	2024-03-29T03:37:54	11.1	56.5
60340	2024-03-29T03:47:54	10.5	62
60341	2024-03-29T03:57:54	10.3	65.5
60342	2024-03-29T04:07:53	10.1	67.5
60343	2024-03-29T04:17:54	10	66.5
60344	2024-03-29T04:27:54	9.9	71.5
60345	2024-03-29T04:37:53	9.8	69
60346	2024-03-29T04:47:53	9.7	68
60347	2024-03-29T04:57:53	9.6	69
60348	2024-03-29T05:07:53	9.6	68.5
60349	2024-03-29T05:17:53	9.6	69
60350	2024-03-29T05:27:53	9.6	69
60351	2024-03-29T05:37:53	9.6	71.5
60352	2024-03-29T05:47:53	9.5	72.5
60353	2024-03-29T05:57:53	9.5	72
60354	2024-03-29T06:07:53	9.3	71
60355	2024-03-29T06:17:53	9.4	71.5
60356	2024-03-29T06:27:53	9.4	73.5
60357	2024-03-29T06:37:53	9.2	76
60358	2024-03-29T06:47:53	8.5	80.5
60359	2024-03-29T06:57:53	8.5	82.5
60360	2024-03-29T07:07:53	8.6	81.5
60361	2024-03-29T07:17:53	8.6	83
60362	2024-03-29T07:27:53	8.5	85
60363	2024-03-29T07:37:53	8.5	91.5
60364	2024-03-29T07:47:53	8.7	95.5
60365	2024-03-29T07:57:53	8.9	93.5
60366	2024-03-29T08:07:53	8.7	94
60367	2024-03-29T08:17:53	8.9	96.5
60368	2024-03-29T08:27:53	9.1	93.5
60369	2024-03-29T08:37:53	9.3	95
60370	2024-03-29T08:47:53	9.5	94
60371	2024-03-29T08:57:53	9.8	93.5
60372	2024-03-29T09:07:53	10.2	93.5
60373	2024-03-29T09:17:53	10.5	93.5
60374	2024-03-29T09:27:53	10.6	96.5
60375	2024-03-29T09:37:53	11.1	98
60376	2024-03-29T09:47:53	11.5	96.5
60377	2024-03-29T09:57:53	11.6	96.5
60378	2024-03-29T10:07:53	11.8	96.5
60379	2024-03-29T10:17:53	11.6	98
60380	2024-03-29T10:27:53	11.7	99.5
60381	2024-03-29T10:47:53	12.3	100
60382	2024-03-29T10:57:53	13	97.5
60383	2024-03-29T11:07:53	13.6	94.5
60384	2024-03-29T11:17:53	13.7	91.5
60385	2024-03-29T11:27:53	14	88.5
60386	2024-03-29T11:37:53	14.2	89
60387	2024-03-29T11:47:53	14.4	88
60388	2024-03-29T11:57:53	14.4	89
60389	2024-03-29T12:07:53	14.4	88.5
60390	2024-03-29T12:17:53	14.3	91
60391	2024-03-29T12:27:53	14.3	92.5
60392	2024-03-29T12:37:53	14.1	93
60393	2024-03-29T12:47:53	14	94.5
60394	2024-03-29T12:57:53	13.9	93
60395	2024-03-29T13:07:53	13.9	95
60396	2024-03-29T13:17:53	14	95
60397	2024-03-29T13:27:53	14.3	95
60398	2024-03-29T13:37:53	14.2	95
60399	2024-03-29T13:47:53	14.3	94.5
60400	2024-03-29T13:57:53	14.3	94
60401	2024-03-29T14:07:53	14.1	92.5
60402	2024-03-29T14:17:53	14.1	92.5
60403	2024-03-29T14:27:53	14.2	90
60404	2024-03-29T14:37:53	14.3	90
60405	2024-03-29T14:47:53	14.5	88
60406	2024-03-29T14:57:53	14.8	89.5
60407	2024-03-29T15:07:53	15.2	87
60408	2024-03-29T15:17:53	15.8	85.5
60409	2024-03-29T15:27:53	15.4	86
60410	2024-03-29T15:37:53	15.2	87
60411	2024-03-29T15:47:53	15.2	89
60412	2024-03-29T15:57:53	15.1	87
60413	2024-03-29T16:07:53	15.1	88
60414	2024-03-29T16:17:53	15	87.5
60415	2024-03-29T16:27:53	14.7	86.5
60416	2024-03-29T16:37:53	14.6	87
60417	2024-03-29T16:47:53	14.4	87.5
60418	2024-03-29T16:57:53	14.1	87.5
60419	2024-03-29T17:07:53	13.7	88
60420	2024-03-29T17:17:53	13.7	89
60421	2024-03-29T17:27:53	13.4	90
60422	2024-03-29T17:37:53	13.3	89.5
60423	2024-03-29T17:47:53	13.1	90
60424	2024-03-29T17:57:53	13	90
60425	2024-03-29T18:07:53	12.8	90.5
60426	2024-03-29T18:17:53	12.7	91
60427	2024-03-29T18:27:53	12.6	91
60428	2024-03-29T18:37:53	12.4	91.5
60429	2024-03-29T18:47:52	12.3	92
60430	2024-03-29T18:57:52	12.3	92
60431	2024-03-29T19:07:52	12.2	92.5
60432	2024-03-29T19:17:52	12	92.5
60433	2024-03-29T19:27:52	11.9	93
60434	2024-03-29T19:37:52	11.8	93
60435	2024-03-29T19:47:52	11.8	93
60436	2024-03-29T19:57:52	12	93
60437	2024-03-29T20:07:52	11.8	93
60438	2024-03-29T20:17:52	11.9	93
60439	2024-03-29T20:27:52	11.8	92.5
60440	2024-03-29T20:37:52	11.7	93
60441	2024-03-29T20:47:52	11.6	93.5
60442	2024-03-29T20:57:52	11.4	94
60443	2024-03-29T21:07:52	11.4	93.5
60444	2024-03-29T21:17:52	11.4	93.5
60445	2024-03-29T21:27:52	11.2	94
60446	2024-03-29T21:37:52	11.1	95
60447	2024-03-29T21:47:52	11.1	94.5
60448	2024-03-29T21:57:52	11.1	94.5
60449	2024-03-29T22:07:52	10.9	94.5
60450	2024-03-29T22:17:52	10.8	95
60451	2024-03-29T22:27:52	10.8	95
60452	2024-03-29T22:37:52	10.7	95
60453	2024-03-29T22:47:52	10.7	95
60454	2024-03-29T22:57:52	10.6	95
60455	2024-03-29T23:07:52	10.5	95
60456	2024-03-29T23:17:52	10.4	93.5
60457	2024-03-29T23:27:52	10.3	93
60458	2024-03-29T23:37:52	10	92
60459	2024-03-29T23:47:52	9.9	93.5
60460	2024-03-29T23:57:52	10.1	93.5
60461	2024-03-30T00:24:58	10.2	93.5
60462	2024-03-30T00:24:58	10.3	94
60463	2024-03-30T00:27:52	10.4	94
60464	2024-03-30T00:37:52	10.5	94
60465	2024-03-30T00:47:52	10.5	95
60466	2024-03-30T00:57:52	10.4	95
60467	2024-03-30T01:07:52	10.5	95
60468	2024-03-30T01:17:52	10.6	96
60469	2024-03-30T01:27:52	10.3	96
60470	2024-03-30T01:37:52	10.2	96
60471	2024-03-30T01:47:52	10	98
60472	2024-03-30T01:57:52	10.1	97.5
60473	2024-03-30T02:07:52	10	98
60474	2024-03-30T02:17:52	10.1	98
60475	2024-03-30T02:27:52	10	97.5
60476	2024-03-30T02:37:52	10	98.5
60477	2024-03-30T02:47:52	9.8	97.5
60478	2024-03-30T02:57:52	9.8	95.5
60479	2024-03-30T03:07:52	9.6	95
60480	2024-03-30T03:17:52	9.4	96
60481	2024-03-30T03:27:52	9.1	96
60482	2024-03-30T03:37:52	9	96
60483	2024-03-30T03:47:52	9.2	97.5
60484	2024-03-30T03:57:52	9.2	97.5
60485	2024-03-30T04:07:52	9	97
60486	2024-03-30T04:17:52	8.9	97.5
60487	2024-03-30T04:27:52	9.2	98
60488	2024-03-30T04:37:52	9.2	98.5
60489	2024-03-30T04:47:52	9.2	97
60490	2024-03-30T04:57:52	9.4	97.5
60491	2024-03-30T05:07:52	9.3	97.5
60492	2024-03-30T05:17:52	9.4	98.5
60493	2024-03-30T05:27:52	9.5	98
60494	2024-03-30T05:37:52	9.6	97.5
60495	2024-03-30T05:47:52	9.6	97.5
60496	2024-03-30T05:57:52	9.6	97
60497	2024-03-30T06:07:52	9.4	96
60498	2024-03-30T06:17:52	9.5	95.5
60499	2024-03-30T06:27:52	9.5	96
60500	2024-03-30T06:37:52	9.6	96
60501	2024-03-30T06:47:52	9.7	94
60502	2024-03-30T06:57:52	9.6	95
60503	2024-03-30T07:07:52	9.6	95
60504	2024-03-30T07:17:52	9.6	95.5
60505	2024-03-30T07:27:52	9.7	95
60506	2024-03-30T07:37:52	9.8	95
60507	2024-03-30T07:47:52	9.8	95
60508	2024-03-30T07:57:52	10	95
60509	2024-03-30T08:07:52	10	93.5
60510	2024-03-30T08:17:52	10.1	93.5
60511	2024-03-30T08:27:52	10.1	94
60512	2024-03-30T08:37:52	10	94
60513	2024-03-30T08:47:52	10.1	93
60514	2024-03-30T08:57:52	10.2	93
60515	2024-03-30T09:07:52	10.4	92
60516	2024-03-30T09:17:52	10.7	90.5
60517	2024-03-30T09:27:52	10.8	91.5
60518	2024-03-30T09:37:52	11	91.5
60519	2024-03-30T09:47:52	11.1	91
60520	2024-03-30T09:57:52	11	91.5
60521	2024-03-30T10:07:52	10.9	92
60522	2024-03-30T10:17:52	11	91
60523	2024-03-30T10:27:52	10.8	93
60524	2024-03-30T10:37:52	10.7	94.5
60525	2024-03-30T10:47:52	10.8	93
60526	2024-03-30T10:57:52	10.8	93
60527	2024-03-30T11:07:52	10.7	94
60528	2024-03-30T11:17:51	10.6	94.5
60529	2024-03-30T11:27:52	10.7	93.5
60530	2024-03-30T11:37:52	10.9	93.5
60531	2024-03-30T11:47:52	11	92
60532	2024-03-30T11:57:51	11.2	91.5
60533	2024-03-30T12:07:52	11.5	92
60534	2024-03-30T12:17:51	11.5	91.5
60535	2024-03-30T12:27:51	11.6	91.5
60536	2024-03-30T12:37:51	11.8	91
60537	2024-03-30T12:47:51	12.1	89.5
60538	2024-03-30T12:57:51	12.3	89.5
60539	2024-03-30T13:07:51	12.7	88
60540	2024-03-30T13:17:51	12.8	88.5
60541	2024-03-30T13:27:51	13	88
60542	2024-03-30T13:37:51	13.3	86
60543	2024-03-30T13:47:51	13.5	86.5
60544	2024-03-30T13:57:51	13.7	84
60545	2024-03-30T14:07:51	13.8	83
60546	2024-03-30T14:17:51	13.9	83.5
60547	2024-03-30T14:27:51	14	84
60548	2024-03-30T14:37:51	14	81
60549	2024-03-30T14:47:51	14	80.5
60550	2024-03-30T14:57:51	14.1	81.5
60551	2024-03-30T15:07:51	14.4	73.5
60552	2024-03-30T15:17:51	14.5	70
60553	2024-03-30T15:27:51	14.7	68
60554	2024-03-30T15:37:51	15	65.5
60555	2024-03-30T15:47:51	16.7	60.5
60556	2024-03-30T15:57:51	17.2	58
60557	2024-03-30T16:07:51	17.6	57.5
60558	2024-03-30T16:17:51	17.5	56
60559	2024-03-30T16:27:51	17	58.5
60560	2024-03-30T16:37:51	16.5	60
60561	2024-03-30T16:47:51	16.4	60
60562	2024-03-30T16:57:51	15.7	62.5
60563	2024-03-30T17:07:51	15.2	65
60564	2024-03-30T17:17:51	14.8	67
60565	2024-03-30T17:27:51	14.5	70
60566	2024-03-30T17:37:51	14.2	72.5
60567	2024-03-30T17:47:51	13.8	73.5
60568	2024-03-30T17:57:51	13.6	76.5
60569	2024-03-30T18:07:51	13.3	79
60570	2024-03-30T18:17:51	13.1	79.5
60571	2024-03-30T18:37:51	12.8	78.5
60572	2024-03-30T18:47:51	12.5	78.5
60573	2024-03-30T18:57:51	12.5	79.5
60574	2024-03-30T19:07:51	12.4	78.5
60575	2024-03-30T19:17:51	12.3	80
60576	2024-03-30T19:27:51	12.2	81.5
60577	2024-03-30T19:37:51	11.9	83
60578	2024-03-30T19:47:51	11.9	83
60579	2024-03-30T19:57:51	11.8	83
60580	2024-03-30T20:07:51	11.7	83
60581	2024-03-30T20:17:51	11.7	84
60582	2024-03-30T20:27:51	11.5	84
60583	2024-03-30T20:37:51	11.3	84
60584	2024-03-30T20:47:51	11.4	82.5
60585	2024-03-30T20:57:51	11.3	83
60586	2024-03-30T21:07:51	11.3	80.5
60587	2024-03-30T21:17:51	11.4	82
60588	2024-03-30T21:27:51	11.4	80
60589	2024-03-30T21:37:51	11.4	80.5
60590	2024-03-30T21:47:51	11.4	79
60591	2024-03-30T21:57:51	11.5	78.5
60592	2024-03-30T22:07:51	11.7	78.5
60593	2024-03-30T22:17:51	11.7	76.5
60594	2024-03-30T22:27:51	11.8	76.5
60595	2024-03-30T22:37:51	12	76.5
60596	2024-03-30T22:47:51	12	76
60597	2024-03-30T22:57:51	11.9	79
60598	2024-03-30T23:07:51	11.7	80.5
60599	2024-03-30T23:17:51	11.5	82.5
60600	2024-03-30T23:27:51	11.2	83
60601	2024-03-30T23:37:51	10.9	87
60602	2024-03-30T23:47:51	10.3	90
60603	2024-03-30T23:57:51	10.3	92
60604	2024-03-31T00:24:46	9.9	97
60605	2024-03-31T00:24:46	9.8	98.5
60606	2024-03-31T00:27:51	9.7	99
60607	2024-03-31T00:37:51	9.6	99.5
60608	2024-03-31T00:47:51	9.8	100
60609	2024-03-31T00:57:51	9.6	100
60610	2024-03-31T01:07:51	9.7	100
60611	2024-03-31T01:17:51	9.8	100
60612	2024-03-31T01:27:51	9.7	100
60613	2024-03-31T01:37:51	10.1	100
60614	2024-03-31T01:47:51	10.1	100
60615	2024-03-31T01:57:51	10	100
60616	2024-03-31T02:07:51	10.1	100
60617	2024-03-31T02:17:50	10.2	100
60618	2024-03-31T02:27:50	10.1	100
60619	2024-03-31T02:37:50	10.2	100
60620	2024-03-31T02:47:50	10.1	100
60621	2024-03-31T02:57:50	10.1	100
60622	2024-03-31T03:07:50	10.1	100
60623	2024-03-31T03:17:50	9.9	100
60624	2024-03-31T03:27:50	9.7	100
60625	2024-03-31T03:37:50	9.7	100
60626	2024-03-31T03:47:50	9.5	100
60627	2024-03-31T03:57:50	9.6	100
60628	2024-03-31T04:07:50	9.5	100
60629	2024-03-31T04:17:50	9.3	100
60630	2024-03-31T04:27:50	9.2	100
60631	2024-03-31T04:37:50	9.1	100
60632	2024-03-31T04:47:50	9	100
60633	2024-03-31T04:57:50	8.8	100
60634	2024-03-31T05:07:50	8.9	100
60635	2024-03-31T05:17:50	8.9	100
60636	2024-03-31T05:27:50	8.9	100
60637	2024-03-31T05:37:50	8.9	100
60638	2024-03-31T05:47:50	8.9	100
60639	2024-03-31T05:57:50	9	100
60640	2024-03-31T06:07:50	9.2	100
60641	2024-03-31T06:17:50	9.4	100
60642	2024-03-31T06:27:50	9.6	100
60643	2024-03-31T06:37:50	10	100
60644	2024-03-31T06:47:50	10.4	100
60645	2024-03-31T06:57:50	10.6	100
60646	2024-03-31T07:07:50	10.8	100
60647	2024-03-31T07:17:50	10.8	97.5
60648	2024-03-31T07:27:50	10.9	95
60649	2024-03-31T07:37:50	11	95
60650	2024-03-31T07:47:50	11.2	92
60651	2024-03-31T07:57:50	11.5	90.5
60652	2024-03-31T08:07:50	12	89
60653	2024-03-31T08:17:50	12.5	88.5
60654	2024-03-31T08:27:50	12.9	85.5
60655	2024-03-31T08:37:50	13	83
60656	2024-03-31T08:47:50	13.1	83.5
60657	2024-03-31T08:57:50	13.1	83.5
60658	2024-03-31T09:07:50	13.5	80.5
60659	2024-03-31T09:17:50	13.7	78
60660	2024-03-31T09:27:50	13.8	78
60661	2024-03-31T09:37:50	13.9	79
60662	2024-03-31T09:47:50	14	82
60663	2024-03-31T09:57:50	14.2	79.5
60664	2024-03-31T10:07:50	14.5	78
60665	2024-03-31T10:17:50	14.5	78.5
60666	2024-03-31T10:27:50	14.6	77.5
60667	2024-03-31T10:47:50	15	77.5
60668	2024-03-31T10:57:50	15.8	73.5
60669	2024-03-31T11:07:50	16.3	72
60670	2024-03-31T11:27:50	16.9	67.5
60671	2024-03-31T11:47:50	17.4	66
60672	2024-03-31T11:57:50	18.2	65.5
60673	2024-03-31T12:07:50	18.7	65
60674	2024-03-31T12:17:50	19.5	61
60675	2024-03-31T12:27:50	20.1	57
60676	2024-03-31T12:37:50	19.6	57
60677	2024-03-31T12:47:50	19.8	58
60678	2024-03-31T12:57:50	19.7	56.5
60679	2024-03-31T13:07:50	19.7	57
60680	2024-03-31T13:17:50	20.2	58
60681	2024-03-31T13:27:50	20.6	55.5
60682	2024-03-31T13:37:50	20.5	53.5
60683	2024-03-31T13:47:50	20.4	56
60684	2024-03-31T13:57:50	23.1	49
60685	2024-03-31T14:07:50	22.2	50
60686	2024-03-31T14:17:50	21.5	50.5
60687	2024-03-31T14:27:50	22.1	49
60688	2024-03-31T14:37:50	22	47.5
60689	2024-03-31T14:47:50	21.6	50.5
60690	2024-03-31T14:57:50	23.4	46.5
60691	2024-03-31T15:07:50	23.6	44.5
60692	2024-03-31T15:17:50	22.2	45.5
60693	2024-03-31T15:27:50	21.7	47.5
60694	2024-03-31T15:37:50	21.4	50.5
60695	2024-03-31T15:47:50	22.1	51.5
60696	2024-03-31T15:57:50	22.3	49.5
60697	2024-03-31T16:07:49	22.5	46.5
60698	2024-03-31T16:17:49	21.7	49
60699	2024-03-31T16:27:49	21	49.5
60700	2024-03-31T16:37:49	21.5	54
60701	2024-03-31T16:47:49	21.9	54
60702	2024-03-31T16:57:49	21.4	51.5
60703	2024-03-31T17:07:49	20.6	56.5
60704	2024-03-31T17:17:49	20.3	57.5
60705	2024-03-31T17:27:49	19.7	60
60706	2024-03-31T17:37:49	19	64.5
60707	2024-03-31T17:47:49	18.4	67
60708	2024-03-31T17:57:49	18.1	71.5
60709	2024-03-31T18:07:49	17.9	68
60710	2024-03-31T18:17:49	17.6	69
60711	2024-03-31T18:27:49	17.3	68.5
60712	2024-03-31T18:37:49	17.1	71
60713	2024-03-31T18:47:49	16.6	70.5
60714	2024-03-31T18:57:49	16	70.5
60715	2024-03-31T19:07:49	16.3	73
60716	2024-03-31T19:17:49	16.3	73.5
60717	2024-03-31T19:27:49	16.3	70.5
60718	2024-03-31T19:37:49	15.8	69
60719	2024-03-31T19:47:49	15.4	74
60720	2024-03-31T19:57:49	15.5	75
60721	2024-03-31T20:07:49	15.2	73
60722	2024-03-31T20:17:49	15.4	75.5
60723	2024-03-31T20:27:49	15.2	73
60724	2024-03-31T20:37:49	15	76.5
60725	2024-03-31T20:47:49	14.9	74.5
60726	2024-03-31T20:57:49	14.6	74
60727	2024-03-31T21:07:49	14.6	75.5
60728	2024-03-31T21:17:49	14.1	79
60729	2024-03-31T21:27:49	13.7	83
60730	2024-03-31T21:37:49	13.5	86
60731	2024-03-31T21:47:49	13.4	92.5
60732	2024-03-31T21:57:49	13.1	85.5
60733	2024-03-31T22:07:49	13	86.5
60734	2024-03-31T22:17:49	12.9	84
60735	2024-03-31T22:27:49	12.8	82
60736	2024-03-31T22:37:49	12.7	83.5
60737	2024-03-31T22:47:49	12.7	85.5
60738	2024-03-31T22:57:49	12.5	85
60739	2024-03-31T23:26:12	12.4	86
60740	2024-03-31T23:26:12	12.5	86
60741	2024-03-31T23:27:56	12.4	88
60742	2024-03-31T23:37:49	12.7	90.5
60743	2024-03-31T23:47:49	12.6	90
60744	2024-03-31T23:57:49	12.6	89.5
60745	2024-04-01T00:07:49	12.7	89
60746	2024-04-01T00:17:49	12.6	89.5
60747	2024-04-01T00:27:49	12.6	89.5
60748	2024-04-01T00:37:49	12.5	88.5
60749	2024-04-01T00:47:49	12.5	90
60750	2024-04-01T00:57:49	12.3	90
60751	2024-04-01T01:07:49	12.4	89.5
60752	2024-04-01T01:17:49	12.4	89
60753	2024-04-01T01:27:49	12.2	90
60754	2024-04-01T01:37:49	12.3	89.5
60755	2024-04-01T01:47:49	12.2	90
60756	2024-04-01T01:57:49	12.1	89
60757	2024-04-01T02:07:49	12	88.5
60758	2024-04-01T02:17:49	11.9	89
60759	2024-04-01T02:27:49	11.8	89.5
60760	2024-04-01T02:37:49	11.8	89.5
60761	2024-04-01T02:47:49	11.7	90
60762	2024-04-01T02:57:49	11.7	88
60763	2024-04-01T03:07:49	11.4	89.5
60764	2024-04-01T03:17:49	11.5	91
60765	2024-04-01T03:27:49	11.5	89.5
60766	2024-04-01T03:37:49	11.5	89
60767	2024-04-01T03:47:49	11.4	91
60768	2024-04-01T03:57:49	11.4	90.5
60769	2024-04-01T04:07:49	11.3	92.5
60770	2024-04-01T04:17:49	11.4	91.5
60771	2024-04-01T04:27:49	11	92
60772	2024-04-01T04:37:49	10.8	93
60773	2024-04-01T04:47:49	10.7	94.5
60774	2024-04-01T04:57:49	10.6	94.5
60775	2024-04-01T05:07:49	10.6	95.5
60776	2024-04-01T05:17:49	10.5	96
60777	2024-04-01T05:27:48	10.3	98.5
60778	2024-04-01T05:37:48	10.1	99.5
60779	2024-04-01T05:47:48	10	100
60780	2024-04-01T05:57:48	10	100
60781	2024-04-01T06:07:48	10	100
60782	2024-04-01T06:17:48	10	100
60783	2024-04-01T06:27:48	9.8	100
60784	2024-04-01T06:37:48	9.7	100
60785	2024-04-01T06:47:48	9.7	100
60786	2024-04-01T06:57:48	9.7	100
60787	2024-04-01T07:07:48	9.7	100
60788	2024-04-01T07:17:48	9.5	100
60789	2024-04-01T07:27:48	9.6	100
60790	2024-04-01T07:37:48	9.5	100
60791	2024-04-01T07:47:48	9.4	100
60792	2024-04-01T07:57:48	9.5	100
60793	2024-04-01T08:07:48	9.6	100
60794	2024-04-01T08:17:48	9.5	100
60795	2024-04-01T08:27:48	9.5	100
60796	2024-04-01T08:37:48	9.4	100
60797	2024-04-01T08:47:48	9.4	100
60798	2024-04-01T08:57:48	9.4	100
60799	2024-04-01T09:07:48	9.3	100
60800	2024-04-01T09:17:48	9	100
60801	2024-04-01T09:27:48	9	100
60802	2024-04-01T09:37:48	9.2	100
60803	2024-04-01T09:47:48	9.1	100
60804	2024-04-01T09:57:48	8.9	100
60805	2024-04-01T10:07:48	8.8	100
60806	2024-04-01T10:17:48	8.9	100
60807	2024-04-01T10:27:48	9.2	100
60808	2024-04-01T10:37:48	9.2	100
60809	2024-04-01T10:47:48	9	100
60810	2024-04-01T10:57:48	8.9	100
60811	2024-04-01T11:07:48	8.9	100
60812	2024-04-01T11:17:48	8.9	100
60813	2024-04-01T11:27:48	8.9	100
60814	2024-04-01T11:37:48	8.9	100
60815	2024-04-01T11:47:48	8.7	100
60816	2024-04-01T11:57:48	8.8	100
60817	2024-04-01T12:07:48	8.7	100
60818	2024-04-01T12:17:48	8.9	100
60819	2024-04-01T12:27:48	8.9	100
60820	2024-04-01T12:37:48	8.9	100
60821	2024-04-01T12:47:48	8.9	100
60822	2024-04-01T12:57:48	8.9	100
60823	2024-04-01T13:07:48	9.2	100
60824	2024-04-01T13:17:48	9.2	100
60825	2024-04-01T13:27:48	9.3	100
60826	2024-04-01T13:37:48	9.9	100
60827	2024-04-01T13:47:48	11.6	100
60828	2024-04-01T13:57:48	12.2	100
60829	2024-04-01T14:07:48	12.9	100
60830	2024-04-01T14:17:48	12.2	99.5
60831	2024-04-01T14:27:48	10.8	99
60832	2024-04-01T14:37:48	10.7	100
60833	2024-04-01T14:47:48	11.2	100
60834	2024-04-01T14:57:48	10.6	100
60835	2024-04-01T15:07:48	10.6	100
60836	2024-04-01T15:17:48	10.9	100
60837	2024-04-01T15:27:48	11.1	100
60838	2024-04-01T15:37:48	11.4	99.5
60839	2024-04-01T15:47:48	11.5	100
60840	2024-04-01T15:57:48	11.7	100
60841	2024-04-01T16:07:48	11.5	98.5
60842	2024-04-01T16:17:48	11.5	99.5
60843	2024-04-01T16:27:48	11.6	99.5
60844	2024-04-01T16:37:48	11.8	100
60845	2024-04-01T16:47:48	11.8	99
60846	2024-04-01T16:57:48	11.4	99.5
60847	2024-04-01T17:07:48	11.2	99
60848	2024-04-01T17:17:48	11	99
60849	2024-04-01T17:27:48	10.9	99
60850	2024-04-01T17:37:48	11	93
60851	2024-04-01T17:47:48	11	80.5
60852	2024-04-01T17:57:48	10.9	80
60853	2024-04-01T18:07:48	10.9	80
60854	2024-04-01T18:17:48	10.8	79
60855	2024-04-01T18:27:48	10.7	79.5
60856	2024-04-01T18:37:48	10.4	79.5
60857	2024-04-01T18:47:48	10.4	80.5
60858	2024-04-01T18:57:48	10.3	79.5
60859	2024-04-01T19:07:48	10.3	79.5
60860	2024-04-01T19:17:48	10.4	79
60861	2024-04-01T19:27:48	10.4	79
60862	2024-04-01T19:37:48	10.2	78.5
60863	2024-04-01T19:47:48	10.5	77.5
60864	2024-04-01T19:57:48	10.7	76.5
60865	2024-04-01T20:07:48	10.9	75.5
60866	2024-04-01T20:17:48	11	74.5
60867	2024-04-01T20:27:48	11	74.5
60868	2024-04-01T20:37:48	10.8	75
60869	2024-04-01T20:47:48	10.9	74
60870	2024-04-01T20:57:48	10.7	77.5
60871	2024-04-01T21:07:48	10.3	77.5
60872	2024-04-01T21:17:48	10.4	77
60873	2024-04-01T21:27:48	10.1	77.5
60874	2024-04-01T21:37:48	10.2	77
60875	2024-04-01T21:47:48	10.2	77
60876	2024-04-01T21:57:48	10	77.5
60877	2024-04-01T22:07:48	9.9	78
60878	2024-04-01T22:17:47	10.1	78
60879	2024-04-01T22:27:47	10.1	78.5
60880	2024-04-01T22:37:47	9.8	80
60881	2024-04-01T22:47:47	9.6	81.5
60882	2024-04-01T22:57:47	9.5	82
60883	2024-04-01T23:25:19	9.4	81.5
60884	2024-04-01T23:25:20	9.4	81
60885	2024-04-01T23:27:47	9.5	80
60886	2024-04-01T23:37:47	9.5	79.5
60887	2024-04-01T23:47:47	9.7	78
60888	2024-04-01T23:57:47	9.6	79
60889	2024-04-02T00:07:47	9.8	78.5
60890	2024-04-02T00:17:47	9.8	78
60891	2024-04-02T00:27:47	9.7	79
60892	2024-04-02T00:37:47	9.8	78
60893	2024-04-02T00:47:47	9.8	78.5
60894	2024-04-02T00:57:47	9.7	78.5
60895	2024-04-02T01:07:47	9.7	79.5
60896	2024-04-02T01:17:47	9.7	79
60897	2024-04-02T01:27:47	9.7	78.5
60898	2024-04-02T01:37:47	9.7	78.5
60899	2024-04-02T01:47:47	9.6	78.5
60900	2024-04-02T01:57:47	9.7	78
60901	2024-04-02T02:07:47	9.7	78.5
60902	2024-04-02T02:17:47	9.7	79
60903	2024-04-02T02:27:47	9	86.5
60904	2024-04-02T02:37:47	8.2	97
60905	2024-04-02T02:47:47	8.1	97
60906	2024-04-02T02:57:47	8.3	96
60907	2024-04-02T03:07:47	8	97
60908	2024-04-02T03:17:47	7.8	96.5
60909	2024-04-02T03:27:47	8	95
60910	2024-04-02T03:37:47	8.1	92.5
60911	2024-04-02T03:47:47	8.5	85.5
60912	2024-04-02T03:57:47	8.8	84
60913	2024-04-02T04:07:47	8.4	89
60914	2024-04-02T04:17:47	8.2	88.5
60915	2024-04-02T04:27:47	8.2	84.5
60916	2024-04-02T04:37:47	8.5	83
60917	2024-04-02T04:47:47	8.8	82.5
60918	2024-04-02T04:57:47	9	81.5
60919	2024-04-02T05:07:47	7.9	97
60920	2024-04-02T05:17:47	7.9	97
60921	2024-04-02T05:27:47	7.6	97.5
60922	2024-04-02T05:37:47	7.6	99
60923	2024-04-02T05:47:47	7.6	99.5
60924	2024-04-02T05:57:47	7.7	99.5
60925	2024-04-02T06:07:47	7.8	98
60926	2024-04-02T06:17:47	8	96
60927	2024-04-02T06:27:47	8.4	94.5
60928	2024-04-02T06:37:47	8.7	93.5
60929	2024-04-02T06:47:47	9.1	92.5
60930	2024-04-02T06:57:47	9.1	89
60931	2024-04-02T07:07:47	9.2	88
60932	2024-04-02T07:17:47	9.2	83.5
60933	2024-04-02T07:27:47	9.3	81
60934	2024-04-02T07:37:47	9.7	80
60935	2024-04-02T07:47:47	9.7	80
60936	2024-04-02T07:57:47	9.8	80
60937	2024-04-02T08:07:47	10.2	78
60938	2024-04-02T08:17:47	10.4	77
60939	2024-04-02T08:27:47	10.7	76.5
60940	2024-04-02T08:37:47	10.7	75.5
60941	2024-04-02T08:47:47	11.1	73.5
60942	2024-04-02T08:57:47	11.3	72.5
60943	2024-04-02T09:07:47	11.4	69.5
60944	2024-04-02T09:17:47	11.6	70
60945	2024-04-02T09:27:47	12	67.5
60946	2024-04-02T09:37:47	12.1	67
60947	2024-04-02T09:47:47	12.3	66
60948	2024-04-02T09:57:47	12.3	65
60949	2024-04-02T10:07:47	12	64.5
60950	2024-04-02T10:17:47	11.9	66.5
60951	2024-04-02T10:27:47	10.6	78
60952	2024-04-02T10:37:47	9.1	94
60953	2024-04-02T10:47:47	9.4	88.5
60954	2024-04-02T10:57:47	10.1	85
60955	2024-04-02T11:07:47	11	75.5
60956	2024-04-02T11:17:47	11.5	69
60957	2024-04-02T11:27:47	11.5	71.5
60958	2024-04-02T11:37:47	12.2	67.5
60959	2024-04-02T11:47:47	12.3	65
60960	2024-04-02T11:57:47	12.4	61.5
60961	2024-04-02T12:07:47	13.1	61.5
60962	2024-04-02T12:17:47	13.6	60
60963	2024-04-02T12:27:47	13.7	59.5
60964	2024-04-02T12:37:47	10.8	95
60965	2024-04-02T12:47:47	10.8	94
60966	2024-04-02T12:57:47	10.6	96
60967	2024-04-02T13:07:47	12.8	93.5
60968	2024-04-02T13:17:47	11.9	85.5
60969	2024-04-02T13:27:47	11.9	90.5
60970	2024-04-02T13:37:47	14.4	76.5
60971	2024-04-02T13:47:47	13.3	70
60972	2024-04-02T13:57:47	13.2	64.5
60973	2024-04-02T14:07:47	15.2	59
60974	2024-04-02T14:17:47	17.4	49.5
60975	2024-04-02T14:27:47	17.9	47.5
60976	2024-04-02T14:37:47	18.9	43
60977	2024-04-02T14:47:46	17.1	47.5
60978	2024-04-02T14:57:46	18.3	43.5
60979	2024-04-02T15:07:46	19.1	42.5
60980	2024-04-02T15:17:46	18.1	44.5
60981	2024-04-02T15:27:46	17	45.5
60982	2024-04-02T15:37:46	17.1	45
60983	2024-04-02T15:47:46	17.3	46.5
60984	2024-04-02T15:57:46	18.2	43.5
60985	2024-04-02T16:07:46	18.1	44
60986	2024-04-02T16:17:46	17.5	45.5
60987	2024-04-02T16:27:46	16.1	49
60988	2024-04-02T16:37:46	17.4	45
60989	2024-04-02T16:47:46	17.5	44.5
60990	2024-04-02T16:57:46	17.1	45
60991	2024-04-02T17:07:46	16.9	45
60992	2024-04-02T17:17:46	16.2	46.5
60993	2024-04-02T17:27:46	15.7	49
60994	2024-04-02T17:37:46	14.4	52
60995	2024-04-02T17:47:46	14	53.5
60996	2024-04-02T17:57:46	13.7	53.5
60997	2024-04-02T18:07:46	13.5	55
60998	2024-04-02T18:17:46	13.3	55.5
60999	2024-04-02T18:27:46	13.4	55.5
61000	2024-04-02T18:37:46	13.3	55.5
61001	2024-04-02T18:47:46	13.2	56
61002	2024-04-02T18:57:46	13.3	56.5
61003	2024-04-02T19:07:46	13.2	56.5
61004	2024-04-02T19:17:46	12.5	66
61005	2024-04-02T19:27:46	12.4	62.5
61006	2024-04-02T19:37:46	12.4	63
61007	2024-04-02T19:47:46	12.2	64
61008	2024-04-02T19:57:46	12	64
61009	2024-04-02T20:07:46	11.9	64.5
61010	2024-04-02T20:17:46	11.7	65
61011	2024-04-02T20:27:46	11.5	66
61012	2024-04-02T20:37:46	11.3	66
61013	2024-04-02T20:47:46	11.1	66
61014	2024-04-02T20:57:46	11.1	66
61015	2024-04-02T21:07:46	10.8	67
61016	2024-04-02T21:17:46	10.8	69.5
61017	2024-04-02T21:27:46	10.5	74
61018	2024-04-02T21:37:46	10.4	75
61019	2024-04-02T21:47:46	10.3	76.5
61020	2024-04-02T21:57:46	10	75
61021	2024-04-02T22:07:46	10.1	76.5
61022	2024-04-02T22:17:46	10.4	76
61023	2024-04-02T22:27:46	10.5	74
61024	2024-04-02T22:37:46	10.5	75
61025	2024-04-02T22:47:46	10.1	73
61026	2024-04-02T22:57:46	10	77.5
61027	2024-04-02T23:07:46	9.8	80
61028	2024-04-02T23:17:46	9.6	80.5
61029	2024-04-02T23:27:46	9.6	81
61030	2024-04-02T23:37:46	9.4	79.5
61031	2024-04-02T23:47:46	9.5	81
61032	2024-04-02T23:57:46	9.4	79.5
61033	2024-04-03T00:07:46	9.2	79.5
61034	2024-04-03T00:17:46	9.1	81
61035	2024-04-03T00:27:46	8.9	80.5
61036	2024-04-03T00:37:46	8.9	80.5
61037	2024-04-03T00:47:46	8.7	80.5
61038	2024-04-03T00:57:46	8.5	81
61039	2024-04-03T01:07:46	8.4	82
61040	2024-04-03T01:17:46	8.5	82.5
61041	2024-04-03T01:27:46	8.5	84
61042	2024-04-03T01:37:46	8.5	83.5
61043	2024-04-03T01:47:46	8.6	81.5
61044	2024-04-03T01:57:46	8.6	83
61045	2024-04-03T02:07:46	8.7	83
61046	2024-04-03T02:17:46	8.7	82
61047	2024-04-03T02:27:46	8.8	81
61048	2024-04-03T02:37:46	8.7	83
61049	2024-04-03T02:47:46	8.7	83.5
61050	2024-04-03T02:57:46	8.7	84.5
61051	2024-04-03T03:07:46	8.6	83
61052	2024-04-03T03:17:46	8.5	82.5
61053	2024-04-03T03:27:46	8.5	81.5
61054	2024-04-03T03:37:46	8.6	82
61055	2024-04-03T03:47:46	8.5	83
61056	2024-04-03T03:57:46	8.5	83
61057	2024-04-03T04:07:46	8.3	84
61058	2024-04-03T04:17:46	8.4	84
61059	2024-04-03T04:27:46	8.2	83.5
61060	2024-04-03T04:37:46	8.2	84
61061	2024-04-03T04:47:46	8.2	84
61062	2024-04-03T04:57:46	8.3	83
61063	2024-04-03T05:07:46	8.2	83.5
61064	2024-04-03T05:17:46	8.2	82
61065	2024-04-03T05:27:46	8	85
61066	2024-04-03T05:37:46	8	85
61067	2024-04-03T05:47:46	8.2	87
61068	2024-04-03T05:57:46	8.4	85.5
61069	2024-04-03T06:07:46	8.5	83
61070	2024-04-03T06:17:46	9	82
61071	2024-04-03T06:27:46	9.4	80.5
61072	2024-04-03T06:37:46	9.2	88.5
61073	2024-04-03T06:47:46	8.9	89.5
61074	2024-04-03T06:57:46	9.1	89.5
61075	2024-04-03T07:07:45	9.2	88.5
61076	2024-04-03T07:17:45	9.4	86.5
61077	2024-04-03T07:27:45	9.9	81
61078	2024-04-03T07:37:45	10.3	77
61079	2024-04-03T07:47:45	10.9	73.5
61080	2024-04-03T07:57:45	11.2	70.5
61081	2024-04-03T08:07:45	11.7	69
61082	2024-04-03T08:17:45	12	69.5
61083	2024-04-03T08:27:45	12.2	71.5
61084	2024-04-03T08:37:45	12.3	77
61085	2024-04-03T08:47:45	12.5	76.5
61086	2024-04-03T08:57:45	12.6	75.5
61087	2024-04-03T09:07:45	12.6	72.5
61088	2024-04-03T09:17:45	13	72
61089	2024-04-03T09:27:45	13.4	70.5
61090	2024-04-03T09:37:45	13.2	64.5
61091	2024-04-03T09:57:45	12.9	68.5
61092	2024-04-03T10:07:45	12	74
61093	2024-04-03T10:18:08	11.8	75.5
61094	2024-04-03T10:27:45	12	76
61095	2024-04-03T10:37:45	11.5	83.5
61096	2024-04-03T10:47:45	11.3	83
61097	2024-04-03T10:57:45	11.3	87.5
61098	2024-04-03T11:07:45	11.8	83.5
61099	2024-04-03T11:17:45	12.1	82.5
61100	2024-04-03T11:27:45	11.8	85.5
61101	2024-04-03T11:37:45	12	83.5
61102	2024-04-03T11:47:45	12.5	78.5
61103	2024-04-03T11:57:45	12.4	79
61104	2024-04-03T12:07:45	12.6	77
61105	2024-04-03T12:17:45	12.8	77
61106	2024-04-03T12:27:45	12.9	75
61107	2024-04-03T12:37:45	13	73
61108	2024-04-03T12:47:45	13.1	73
61109	2024-04-03T12:57:45	12.9	77
61110	2024-04-03T13:07:45	12.3	81
61111	2024-04-03T13:27:45	11.9	84.5
61112	2024-04-03T13:37:45	11.5	88
61113	2024-04-03T13:47:45	11.3	90.5
61114	2024-04-03T13:57:45	11.2	93.5
61115	2024-04-03T14:07:45	11.1	95
61116	2024-04-03T14:17:45	11.1	97
61117	2024-04-03T14:27:45	11.1	97
61118	2024-04-03T14:37:45	11	97.5
61119	2024-04-03T14:47:45	11	97.5
61120	2024-04-03T14:57:45	11	96.5
61121	2024-04-03T15:07:45	11.3	95.5
61122	2024-04-03T15:17:45	11.2	96.5
61123	2024-04-03T15:27:45	12.1	92
61124	2024-04-03T15:37:45	13.7	86
61125	2024-04-03T15:47:45	14.7	78.5
61126	2024-04-03T15:57:45	13.9	79.5
61127	2024-04-03T16:07:45	16.3	72.5
61128	2024-04-03T16:17:45	16.3	68
61129	2024-04-03T16:27:45	14.7	74
61130	2024-04-03T16:37:45	14.1	75.5
61131	2024-04-03T16:47:45	13.8	77
61132	2024-04-03T16:57:45	13.7	76.5
61133	2024-04-03T17:07:45	13.8	76
61134	2024-04-03T17:17:45	14	75.5
61135	2024-04-03T17:27:45	13.8	75.5
61136	2024-04-03T17:37:45	13.8	76
61137	2024-04-03T17:47:45	13.6	76
61138	2024-04-03T17:57:45	13.6	76.5
61139	2024-04-03T18:07:45	13.6	76.5
61140	2024-04-03T18:17:45	13.7	75.5
61141	2024-04-03T18:27:45	13.7	76
61142	2024-04-03T18:37:45	13.6	77
61143	2024-04-03T18:47:45	13.5	78
61144	2024-04-03T18:57:45	13.7	77
61145	2024-04-03T19:07:45	13.6	77
61146	2024-04-03T19:17:45	13.6	76.5
61147	2024-04-03T19:27:45	13.7	77
61148	2024-04-03T19:37:45	13.7	78.5
61149	2024-04-03T19:47:45	13.3	83
61150	2024-04-03T19:57:45	12.6	87.5
61151	2024-04-03T20:07:45	12.7	85
61152	2024-04-03T20:17:45	13.1	83
61153	2024-04-03T20:27:45	12.5	87
61154	2024-04-03T20:37:45	12.5	86.5
61155	2024-04-03T20:47:45	12.4	88.5
61156	2024-04-03T20:57:45	12.3	89.5
61157	2024-04-03T21:07:45	12.3	87
61158	2024-04-03T21:17:44	12.6	86
61159	2024-04-03T21:27:44	12.7	85
61160	2024-04-03T21:37:44	12.8	83.5
61161	2024-04-03T21:47:44	13.1	82.5
61162	2024-04-03T21:57:44	13.1	81.5
61163	2024-04-03T22:07:44	13.4	80
61164	2024-04-03T22:17:44	13.6	78.5
61165	2024-04-03T22:27:44	12.8	86.5
61166	2024-04-03T22:37:44	12.7	86
61167	2024-04-03T22:47:44	12.9	85
61168	2024-04-03T22:57:44	12.6	89
61169	2024-04-03T23:07:44	12.4	91.5
61170	2024-04-03T23:17:44	12.2	94
61171	2024-04-03T23:27:44	12.2	92.5
61172	2024-04-03T23:37:44	12.3	88.5
61173	2024-04-03T23:47:44	12.6	85
61174	2024-04-03T23:57:44	13	83
61175	2024-04-04T00:07:44	12.9	82.5
61176	2024-04-04T00:17:44	12.9	82
61177	2024-04-04T00:27:44	12.8	81.5
61178	2024-04-04T00:37:44	13	81
61179	2024-04-04T00:47:44	12.9	81
61180	2024-04-04T00:57:44	13.1	80.5
61181	2024-04-04T01:07:44	13	80.5
61182	2024-04-04T01:17:44	12.9	81
61183	2024-04-04T01:27:44	13	81.5
61184	2024-04-04T01:37:44	13	80.5
61185	2024-04-04T01:47:44	13.2	79.5
61186	2024-04-04T01:57:44	13.2	78.5
61187	2024-04-04T02:07:44	13.2	78.5
61188	2024-04-04T02:17:44	13.4	78
61189	2024-04-04T02:27:44	13.4	77.5
61190	2024-04-04T02:37:44	13.5	78
61191	2024-04-04T02:47:44	13.7	78
61192	2024-04-04T02:57:44	13.6	78
61193	2024-04-04T03:07:44	13.6	78
61194	2024-04-04T03:17:44	13.5	77.5
61195	2024-04-04T03:27:44	13.4	77.5
61196	2024-04-04T03:37:44	13.4	77.5
61197	2024-04-04T03:47:44	13.4	77
61198	2024-04-04T03:57:44	13.4	76.5
61199	2024-04-04T04:07:44	13.5	76
61200	2024-04-04T04:17:44	13.6	76
61201	2024-04-04T04:27:44	13.6	75
61202	2024-04-04T04:37:44	13.8	75
61203	2024-04-04T04:47:44	13.8	75
61204	2024-04-04T04:57:44	13.8	75
61205	2024-04-04T05:07:44	13.9	75
61206	2024-04-04T05:17:44	13.7	75
61207	2024-04-04T05:27:44	13.8	74.5
61208	2024-04-04T05:37:44	13.8	74
61209	2024-04-04T05:47:44	13.9	72.5
61210	2024-04-04T05:57:44	14	72.5
61211	2024-04-04T06:07:44	14.1	72.5
61212	2024-04-04T06:17:44	14.3	72
61213	2024-04-04T06:27:44	14.5	71
61214	2024-04-04T06:37:44	13	85
61215	2024-04-04T06:47:44	12.5	90
61216	2024-04-04T06:57:44	12.9	84.5
61217	2024-04-04T07:07:44	12.9	83
61218	2024-04-04T07:17:44	13.3	80
61219	2024-04-04T07:27:44	13.8	78.5
61220	2024-04-04T07:37:44	14	76.5
61221	2024-04-04T07:47:44	14.2	76.5
61222	2024-04-04T07:57:44	14.6	73.5
61223	2024-04-04T08:07:44	14.4	76.5
61224	2024-04-04T08:17:44	13.4	88
61225	2024-04-04T08:27:44	12.4	95
61226	2024-04-04T08:37:44	12.2	96.5
61227	2024-04-04T08:47:44	12.4	96.5
61228	2024-04-04T08:57:44	12.4	97
61229	2024-04-04T09:07:44	12.1	99.5
61230	2024-04-04T09:17:44	12.2	100
61231	2024-04-04T09:27:44	12.1	100
61232	2024-04-04T09:37:44	12	100
61233	2024-04-04T09:47:44	12	100
61234	2024-04-04T09:57:44	12.1	100
61235	2024-04-04T10:07:44	12.2	100
61236	2024-04-04T10:17:44	12.2	100
61237	2024-04-04T10:27:44	12.2	100
61238	2024-04-04T10:37:43	12.3	100
61239	2024-04-04T10:47:43	12.5	100
61240	2024-04-04T10:57:44	12.3	100
61241	2024-04-04T11:07:44	12.3	100
61242	2024-04-04T11:17:44	12.2	100
61243	2024-04-04T11:27:44	12.2	100
61244	2024-04-04T11:37:43	12.3	100
61245	2024-04-04T11:47:43	12.5	100
61246	2024-04-04T11:57:43	12.3	100
61247	2024-04-04T12:07:43	12.2	100
61248	2024-04-04T12:17:43	12.1	100
61249	2024-04-04T12:27:43	12.2	100
61250	2024-04-04T12:37:43	12.3	100
61251	2024-04-04T12:47:43	12.5	100
61252	2024-04-04T12:57:43	12.9	100
61253	2024-04-04T13:07:43	13.2	100
61254	2024-04-04T13:17:43	13	100
61255	2024-04-04T13:27:43	13.4	100
61256	2024-04-04T13:37:43	12.8	100
61257	2024-04-04T13:47:43	12.8	100
61258	2024-04-04T13:57:43	12.6	100
61259	2024-04-04T14:07:43	12.9	100
61260	2024-04-04T14:17:43	13.2	100
61261	2024-04-04T14:27:43	13.6	100
61262	2024-04-04T14:37:43	14	100
61263	2024-04-04T14:47:43	13.8	100
61264	2024-04-04T14:57:43	13.5	100
61265	2024-04-04T15:07:43	13.2	100
61266	2024-04-04T15:17:43	13.8	100
61267	2024-04-04T15:27:43	14	100
61268	2024-04-04T15:37:43	14.4	100
61269	2024-04-04T15:47:43	15.8	100
61270	2024-04-04T15:57:43	17.3	98.5
61271	2024-04-04T16:07:43	15.9	99.5
61272	2024-04-04T16:17:43	15.7	100
61273	2024-04-04T16:27:43	15.9	98
61274	2024-04-04T16:37:43	15.2	97.5
61275	2024-04-04T16:47:43	13.6	99.5
61276	2024-04-04T16:57:43	12.8	100
61277	2024-04-04T17:07:43	12.7	100
61278	2024-04-04T17:17:43	12.6	100
61279	2024-04-04T17:27:43	12.6	100
61280	2024-04-04T17:37:43	12.6	100
61281	2024-04-04T17:47:43	12.6	100
61282	2024-04-04T17:57:43	12.7	100
61283	2024-04-04T18:07:43	12.8	100
61284	2024-04-04T18:17:43	12.7	100
61285	2024-04-04T18:27:43	12.7	100
61286	2024-04-04T18:37:43	12.6	100
61287	2024-04-04T18:47:43	12.6	100
61288	2024-04-04T18:57:43	12.6	100
61289	2024-04-04T19:07:43	12.7	100
61290	2024-04-04T19:17:43	12.7	100
61291	2024-04-04T19:27:43	12.8	100
61292	2024-04-04T19:37:43	13	100
61293	2024-04-04T19:47:43	13.1	100
61294	2024-04-04T19:57:43	13.1	100
61295	2024-04-04T20:07:43	13	100
61296	2024-04-04T20:17:44	12.9	100
61297	2024-04-04T20:27:43	12.6	100
61298	2024-04-04T20:37:43	12.6	100
61299	2024-04-04T20:47:43	12.5	100
61300	2024-04-04T20:57:43	12.6	100
61301	2024-04-04T21:07:43	12.4	100
61302	2024-04-04T21:17:43	12.4	100
61303	2024-04-04T21:27:43	12.3	100
61304	2024-04-04T21:37:43	12.2	100
61305	2024-04-04T21:47:43	12.2	100
61306	2024-04-04T21:57:43	12.2	100
61307	2024-04-04T22:07:43	12.4	100
61308	2024-04-04T22:17:43	12.6	100
61309	2024-04-04T22:27:43	12.8	100
61310	2024-04-04T22:37:43	13.1	100
61311	2024-04-04T22:47:43	13.2	100
61312	2024-04-04T22:57:43	13.4	96.5
61313	2024-04-04T23:26:22	13.7	86
61314	2024-04-04T23:26:22	13.7	87.5
61315	2024-04-04T23:27:59	13.9	86
61316	2024-04-04T23:37:43	13.9	85
61317	2024-04-04T23:47:43	14	84
61318	2024-04-04T23:57:43	14	83
61319	2024-04-05T00:07:43	14.2	82
61320	2024-04-05T00:17:43	14.4	81
61321	2024-04-05T00:27:43	14.5	80.5
61322	2024-04-05T00:37:43	14.6	80
61323	2024-04-05T00:47:43	14.4	81.5
61324	2024-04-05T00:57:42	14.2	82.5
61325	2024-04-05T01:07:43	14.3	83.5
61326	2024-04-05T01:17:42	14	88.5
61327	2024-04-05T01:27:42	13.6	88.5
61328	2024-04-05T01:37:42	13.5	91
61329	2024-04-05T01:47:42	13.3	91.5
61330	2024-04-05T01:57:42	13.2	91
61331	2024-04-05T02:07:43	13	92
61332	2024-04-05T02:17:42	13	92
61333	2024-04-05T02:27:42	12.7	93.5
61334	2024-04-05T02:37:42	12.7	92
61335	2024-04-05T02:47:42	12.8	92
61336	2024-04-05T02:57:42	12.8	92.5
61337	2024-04-05T03:07:42	12.7	92
61338	2024-04-05T03:17:42	12.5	94
61339	2024-04-05T03:27:42	12.3	93.5
61340	2024-04-05T03:37:42	12.3	93
61341	2024-04-05T03:47:42	12.1	93.5
61342	2024-04-05T03:57:42	12.1	94.5
61343	2024-04-05T04:07:42	11.9	94.5
61344	2024-04-05T04:17:42	11.9	94.5
61345	2024-04-05T04:27:42	11.7	93
61346	2024-04-05T04:37:42	11.5	93
61347	2024-04-05T04:47:42	11.3	94
61348	2024-04-05T04:57:42	11.1	94.5
61349	2024-04-05T05:07:42	11.2	94
61350	2024-04-05T05:17:42	11	95
61351	2024-04-05T05:27:42	11.1	94
61352	2024-04-05T05:37:42	11	94.5
61353	2024-04-05T05:47:42	11.1	94.5
61354	2024-04-05T05:57:42	11.2	94.5
61355	2024-04-05T06:07:42	11.3	93
61356	2024-04-05T06:17:42	11.6	93.5
61357	2024-04-05T06:27:42	11.8	94.5
61358	2024-04-05T06:37:42	12.1	93.5
61359	2024-04-05T06:47:42	12.5	93.5
61360	2024-04-05T06:57:42	12.7	92.5
61361	2024-04-05T07:07:42	13	92
61362	2024-04-05T07:17:42	13.4	91
61363	2024-04-05T07:27:42	13.7	90.5
61364	2024-04-05T07:37:42	13.9	90
61365	2024-04-05T07:47:42	14.2	87.5
61366	2024-04-05T07:57:42	14.6	89.5
61367	2024-04-05T08:07:42	14.6	89
61368	2024-04-05T08:17:42	14.6	89.5
61369	2024-04-05T08:27:42	14.6	90
61370	2024-04-05T08:47:42	15.1	85.5
61371	2024-04-05T08:57:42	15.5	83.5
61372	2024-04-05T09:07:42	16	78
61373	2024-04-05T09:17:42	16.2	75.5
61374	2024-04-05T09:27:42	16.6	75
61375	2024-04-05T09:37:42	16.8	74.5
61376	2024-04-05T09:47:42	17.5	68.5
61377	2024-04-05T09:57:42	17.9	69
61378	2024-04-05T10:07:42	18.5	69
61379	2024-04-05T10:17:42	19.3	60
61380	2024-04-05T10:27:42	20.1	58.5
61381	2024-04-05T10:37:42	20.8	53.5
61382	2024-04-05T10:47:42	21.8	45
61383	2024-04-05T10:57:42	22.1	42
61384	2024-04-05T11:07:42	22.5	41.5
61385	2024-04-05T11:17:42	22.6	39.5
61386	2024-04-05T11:27:42	22.6	39.5
61387	2024-04-05T11:37:42	22.4	40.5
61388	2024-04-05T11:47:42	22.5	41
61389	2024-04-05T11:57:42	22.4	43
61390	2024-04-05T12:07:42	22.3	44
61391	2024-04-05T12:17:42	22.3	44
61392	2024-04-05T12:27:42	22.2	42.5
61393	2024-04-05T12:37:42	22.4	43.5
61394	2024-04-05T12:47:42	22.4	42
61395	2024-04-05T12:57:42	22.4	42.5
61396	2024-04-05T13:07:42	22.8	42.5
61397	2024-04-05T13:17:42	23	43
61398	2024-04-05T13:27:42	24	41
61399	2024-04-05T13:37:42	25.5	38.5
61400	2024-04-05T13:47:41	26.3	39
61401	2024-04-05T13:57:41	27.2	36.5
61402	2024-04-05T14:07:41	26	40
61403	2024-04-05T14:17:41	25	43
61404	2024-04-05T14:27:41	23.9	43
61405	2024-04-05T14:37:41	23	44.5
61406	2024-04-05T14:47:41	22.6	45.5
61407	2024-04-05T14:57:41	22.1	47
61408	2024-04-05T15:07:41	22.1	47
61409	2024-04-05T15:17:41	22	47.5
61410	2024-04-05T15:27:41	21.8	48
61411	2024-04-05T15:37:41	21.7	47
61412	2024-04-05T15:47:41	21.7	47
61413	2024-04-05T15:57:41	21.5	53
61414	2024-04-05T16:07:41	21.5	50
61415	2024-04-05T16:17:41	21.3	54.5
61416	2024-04-05T16:27:41	21.3	54.5
61417	2024-04-05T16:37:41	21.1	51
61418	2024-04-05T16:47:41	21	51
61419	2024-04-05T16:57:41	20.9	50.5
61420	2024-04-05T17:07:41	20.8	51.5
61421	2024-04-05T17:17:41	20.6	51
61422	2024-04-05T17:27:41	20.3	55.5
61423	2024-04-05T17:37:41	19.9	59
61424	2024-04-05T17:47:41	19.6	59
61425	2024-04-05T17:57:41	19.3	64.5
61426	2024-04-05T18:07:41	19	66
61427	2024-04-05T18:17:41	18.6	62.5
61428	2024-04-05T18:27:41	18.5	68
61429	2024-04-05T18:37:41	18.4	67
61430	2024-04-05T18:47:41	17.8	65.5
61431	2024-04-05T18:57:41	18	69.5
61432	2024-04-05T19:07:41	17.9	65
61433	2024-04-05T19:17:41	17.9	68.5
61434	2024-04-05T19:27:41	17.7	71
61435	2024-04-05T19:37:41	17.5	73
61436	2024-04-05T19:47:41	17.5	72.5
61437	2024-04-05T19:57:41	17.2	74
61438	2024-04-05T20:07:41	17	73.5
61439	2024-04-05T20:17:41	17	73.5
61440	2024-04-05T20:27:41	16.9	75
61441	2024-04-05T20:37:41	16.9	75
61442	2024-04-05T20:47:41	16.6	76
61443	2024-04-05T20:57:41	16.4	75.5
61444	2024-04-05T21:07:41	16.2	77
61445	2024-04-05T21:17:41	16	76
61446	2024-04-05T21:27:41	15.6	75
61447	2024-04-05T21:37:41	15.5	75.5
61448	2024-04-05T21:47:41	15.3	76.5
61449	2024-04-05T21:57:41	15.4	76.5
61450	2024-04-05T22:07:41	15.2	77.5
61451	2024-04-05T22:17:41	14.9	78.5
61452	2024-04-05T22:27:41	14.7	79
61453	2024-04-05T22:37:41	14.3	79.5
61454	2024-04-05T22:47:41	14	81
61455	2024-04-05T22:57:41	13.9	81
61456	2024-04-05T23:25:42	13.7	81.5
61457	2024-04-05T23:25:44	13.5	81
61458	2024-04-05T23:27:41	13.4	82.5
61459	2024-04-05T23:37:41	13.1	83.5
61460	2024-04-05T23:47:41	13.1	82.5
61461	2024-04-05T23:57:41	12.9	82
61462	2024-04-06T00:07:41	12.6	83.5
61463	2024-04-06T00:17:41	12.6	83
61464	2024-04-06T00:27:41	12.4	84
61465	2024-04-06T00:37:41	12.2	84.5
61466	2024-04-06T00:47:41	12	84.5
61467	2024-04-06T00:57:41	11.9	85.5
61468	2024-04-06T01:07:41	11.8	85.5
61469	2024-04-06T01:17:41	11.6	85
61470	2024-04-06T01:27:41	11.5	85.5
61471	2024-04-06T01:37:41	11.4	84.5
61472	2024-04-06T01:47:40	11.3	85.5
61473	2024-04-06T01:57:40	11.2	85
61474	2024-04-06T02:07:40	11	86
61475	2024-04-06T02:17:40	10.9	86.5
61476	2024-04-06T02:27:40	10.7	87
61477	2024-04-06T02:37:40	10.5	88
61478	2024-04-06T02:47:40	10.4	88.5
61479	2024-04-06T02:57:40	10.4	89
61480	2024-04-06T03:07:40	10.2	89
61481	2024-04-06T03:17:40	10.1	89.5
61482	2024-04-06T03:27:40	10.1	90.5
61483	2024-04-06T03:37:40	9.9	90.5
61484	2024-04-06T03:47:40	9.8	90
61485	2024-04-06T03:57:40	9.9	90.5
61486	2024-04-06T04:07:40	9.7	90.5
61487	2024-04-06T04:17:40	9.5	91
61488	2024-04-06T04:27:40	9.3	91.5
61489	2024-04-06T04:37:40	9.3	91.5
61490	2024-04-06T04:47:40	9.2	91.5
61491	2024-04-06T04:57:40	9.2	92.5
61492	2024-04-06T05:07:40	9	92
61493	2024-04-06T05:17:40	9	92.5
61494	2024-04-06T05:27:40	9	92
61495	2024-04-06T05:37:40	9.3	92
61496	2024-04-06T05:47:40	9.3	91.5
61497	2024-04-06T05:57:40	9.5	92
61498	2024-04-06T06:07:40	9.7	91.5
61499	2024-04-06T06:17:40	9.9	91
61500	2024-04-06T06:27:40	10.2	91
61501	2024-04-06T06:37:40	10.3	91.5
61502	2024-04-06T06:47:40	10.5	91.5
61503	2024-04-06T06:57:40	10.8	91
61504	2024-04-06T07:07:40	11.3	89.5
61505	2024-04-06T07:17:40	11.7	89
61506	2024-04-06T07:27:40	12.1	87
61507	2024-04-06T07:37:40	12.2	88
61508	2024-04-06T07:47:40	12.5	87.5
61509	2024-04-06T07:57:40	12.9	87
61510	2024-04-06T08:07:40	13.3	84
61511	2024-04-06T08:17:40	13.4	84
61512	2024-04-06T08:27:40	13.7	79.5
61513	2024-04-06T08:37:40	14	77
61514	2024-04-06T08:47:40	14.5	75.5
61515	2024-04-06T08:57:40	14.9	75.5
61516	2024-04-06T09:07:40	15	74.5
61517	2024-04-06T09:17:40	15.2	76.5
61518	2024-04-06T09:27:40	15.9	74.5
61519	2024-04-06T09:37:40	16.7	69.5
61520	2024-04-06T09:47:40	17.2	69
61521	2024-04-06T09:57:40	17.4	70.5
61522	2024-04-06T10:07:40	17.8	65
61523	2024-04-06T10:17:40	19.5	55
61524	2024-04-06T10:27:40	19.5	57.5
61525	2024-04-06T10:37:40	20.3	55.5
61526	2024-04-06T10:47:40	21.9	39
61527	2024-04-06T10:57:40	22.9	37.5
61528	2024-04-06T11:07:40	23.6	35
61529	2024-04-06T11:17:40	24	33.5
61530	2024-04-06T11:27:40	23.7	33
61531	2024-04-06T11:37:40	24	32
61532	2024-04-06T11:47:40	24.5	31.5
61533	2024-04-06T11:57:40	24.9	29.5
61534	2024-04-06T12:07:40	27.2	27.5
61535	2024-04-06T12:17:40	30	23
61536	2024-04-06T12:27:40	31.3	23.5
61537	2024-04-06T12:37:40	32.7	21
61538	2024-04-06T12:47:40	33	19.5
61539	2024-04-06T12:57:40	34.5	18
61540	2024-04-06T13:07:40	34.8	16
61541	2024-04-06T13:17:40	35.3	15.5
61542	2024-04-06T13:27:40	36.6	17
61543	2024-04-06T13:37:40	36.8	15.5
61544	2024-04-06T13:47:40	38	14.5
61545	2024-04-06T13:57:40	37.4	15.5
61546	2024-04-06T14:07:40	37.6	16
61547	2024-04-06T14:17:40	38.4	15.5
61548	2024-04-06T14:27:40	38.8	14.5
61549	2024-04-06T14:37:40	39	15
61550	2024-04-06T14:47:39	38.2	16
61551	2024-04-06T14:57:39	37.9	16.5
61552	2024-04-06T15:07:39	37.6	16.5
61553	2024-04-06T15:17:39	36.7	18.5
61554	2024-04-06T15:27:39	35.7	19.5
61555	2024-04-06T15:37:39	35.2	18.5
61556	2024-04-06T15:47:39	34.1	20.5
61557	2024-04-06T15:57:39	33.1	23
61558	2024-04-06T16:07:39	32.9	26.5
61559	2024-04-06T16:17:39	32.3	29.5
61560	2024-04-06T16:27:39	32	32
61561	2024-04-06T16:37:39	33.5	29
61562	2024-04-06T16:47:39	32.7	32.5
61563	2024-04-06T16:57:39	31.5	36
61564	2024-04-06T17:07:39	30.4	40.5
61565	2024-04-06T17:17:39	29.6	43
61566	2024-04-06T17:27:39	28.6	45
61567	2024-04-06T17:37:39	27.7	46.5
61568	2024-04-06T17:47:39	26.8	45
61569	2024-04-06T17:57:39	26.1	47
61570	2024-04-06T18:07:39	25.7	41.5
61571	2024-04-06T18:17:39	25.2	43.5
61572	2024-04-06T18:27:39	24.7	46
61573	2024-04-06T18:37:39	24.3	44.5
61574	2024-04-06T18:47:39	23.7	49.5
61575	2024-04-06T18:57:39	23.2	49.5
61576	2024-04-06T19:07:39	23	52.5
61577	2024-04-06T19:17:39	22.6	51
61578	2024-04-06T19:27:39	22.1	54
61579	2024-04-06T19:37:39	21.8	56
61580	2024-04-06T19:47:39	21.6	55.5
61581	2024-04-06T19:57:39	21.1	57.5
61582	2024-04-06T20:07:39	20.9	57.5
61583	2024-04-06T20:17:39	20.5	58
61584	2024-04-06T20:27:39	20.3	59
61585	2024-04-06T20:37:39	20.1	59.5
61586	2024-04-06T20:47:39	19.8	61.5
61587	2024-04-06T20:57:39	19.6	61.5
61588	2024-04-06T21:07:39	19.2	63
61589	2024-04-06T21:17:39	18.9	65
61590	2024-04-06T21:27:39	18.5	63.5
61591	2024-04-06T21:37:39	18.2	65
61592	2024-04-06T21:47:39	18.1	66
61593	2024-04-06T21:57:39	17.7	67
61594	2024-04-06T22:07:39	17.4	67.5
61595	2024-04-06T22:17:39	17.2	68.5
61596	2024-04-06T22:27:39	17	67.5
61597	2024-04-06T22:37:39	16.8	68
61598	2024-04-06T22:47:39	16.6	69
61599	2024-04-06T22:57:39	16.4	69
61600	2024-04-06T23:25:54	16.2	69.5
61601	2024-04-06T23:25:54	16.3	67.5
61602	2024-04-06T23:27:39	16.1	69.5
61603	2024-04-06T23:37:39	15.9	68.5
61604	2024-04-06T23:47:39	15.9	69
61605	2024-04-06T23:57:58	15.6	69.5
61606	2024-04-07T00:07:39	15.3	70.5
61607	2024-04-07T00:17:39	15.1	70
61608	2024-04-07T00:27:39	15	71
61609	2024-04-07T00:37:39	15	68.5
61610	2024-04-07T00:47:39	15.2	66
61611	2024-04-07T00:57:39	15.1	68
61612	2024-04-07T01:07:39	14.9	70.5
61613	2024-04-07T01:17:39	14.7	71.5
61614	2024-04-07T01:27:39	14.7	71
61615	2024-04-07T01:37:39	14.6	70.5
61616	2024-04-07T01:47:39	14.4	71.5
61617	2024-04-07T01:57:39	14.3	73
61618	2024-04-07T02:07:39	14.1	74.5
61619	2024-04-07T02:17:38	13.8	73.5
61620	2024-04-07T02:27:38	13.8	74.5
61621	2024-04-07T02:37:38	13.7	74.5
61622	2024-04-07T02:47:38	13.5	76
61623	2024-04-07T02:57:38	13.6	75
61624	2024-04-07T03:07:38	13.5	72
61625	2024-04-07T03:17:38	13.9	67.5
61626	2024-04-07T03:27:38	14.4	61
61627	2024-04-07T03:37:38	14.3	61.5
61628	2024-04-07T03:47:38	14.2	63
61629	2024-04-07T03:57:38	14.7	60
61630	2024-04-07T04:07:38	14.7	62
61631	2024-04-07T04:17:38	14.7	60.5
61632	2024-04-07T04:27:38	14.8	59.5
61633	2024-04-07T04:37:38	14.6	61
61634	2024-04-07T04:47:38	14.4	60.5
61635	2024-04-07T04:57:38	14.4	63
61636	2024-04-07T05:07:38	14.5	59.5
61637	2024-04-07T05:17:38	14.6	60
61638	2024-04-07T05:27:38	14.9	59
61639	2024-04-07T05:37:38	15.3	57.5
61640	2024-04-07T05:47:38	15.5	58
61641	2024-04-07T05:57:38	15.6	59
61642	2024-04-07T06:07:38	15.9	58
61643	2024-04-07T06:17:38	16	58
61644	2024-04-07T06:27:38	16.2	57.5
61645	2024-04-07T06:37:38	16.2	58
61646	2024-04-07T06:47:38	16.5	58
61647	2024-04-07T06:57:38	16.6	58
61648	2024-04-07T07:07:38	16.8	57.5
61649	2024-04-07T07:17:38	16.8	57.5
61650	2024-04-07T07:27:38	16.9	58
61651	2024-04-07T07:37:38	17.1	57.5
61652	2024-04-07T07:47:38	17.3	58
61653	2024-04-07T07:57:38	17.4	58.5
61654	2024-04-07T08:07:38	17.5	59
61655	2024-04-07T08:17:38	17.8	58
61656	2024-04-07T08:27:38	18.1	57.5
61657	2024-04-07T08:37:38	18.5	57
61658	2024-04-07T08:47:38	18.8	56
61659	2024-04-07T08:57:38	19	58
61660	2024-04-07T09:07:38	19.5	55.5
61661	2024-04-07T09:17:38	19.6	57
61662	2024-04-07T09:27:38	19.9	54.5
61663	2024-04-07T09:37:38	20	54
61664	2024-04-07T09:47:38	20.6	54
61665	2024-04-07T09:57:38	21.2	51.5
61666	2024-04-07T10:07:38	21.6	50
61667	2024-04-07T10:17:38	22.1	47.5
61668	2024-04-07T10:27:38	22.7	47.5
61669	2024-04-07T10:37:38	23.2	45.5
61670	2024-04-07T10:47:38	23.3	46
61671	2024-04-07T10:57:38	23.4	45.5
61672	2024-04-07T11:07:38	23.6	45.5
61673	2024-04-07T11:17:38	23.7	43
61674	2024-04-07T11:27:38	24.1	43.5
61675	2024-04-07T11:37:38	24.6	42.5
61676	2024-04-07T11:47:38	25.3	41
61677	2024-04-07T11:57:38	26	40
61678	2024-04-07T12:07:38	25.5	40
61679	2024-04-07T12:17:38	25	41
61680	2024-04-07T12:27:38	24.9	42.5
61681	2024-04-07T12:37:38	25.7	41
61682	2024-04-07T12:47:38	26.1	40
61683	2024-04-07T12:57:38	29	36
61684	2024-04-07T13:07:38	29.2	36.5
61685	2024-04-07T13:17:38	30.3	36
61686	2024-04-07T13:27:38	32.1	33
61687	2024-04-07T13:37:37	31.7	33
61688	2024-04-07T13:47:38	33.3	29
61689	2024-04-07T13:57:37	31.7	31
61690	2024-04-07T14:07:37	29.7	34.5
61691	2024-04-07T14:17:37	29.5	37.5
61692	2024-04-07T14:27:37	29.6	34.5
61693	2024-04-07T14:37:37	29.6	36
61694	2024-04-07T14:47:37	31.5	33.5
61695	2024-04-07T14:57:37	33.9	29.5
61696	2024-04-07T15:07:37	31.2	32.5
61697	2024-04-07T15:17:37	30.2	36.5
61698	2024-04-07T15:27:37	28.7	38.5
61699	2024-04-07T15:37:37	28.1	40
61700	2024-04-07T15:47:37	27.7	44.5
61701	2024-04-07T15:57:37	27.3	43.5
61702	2024-04-07T16:07:37	26.7	45.5
61703	2024-04-07T16:17:37	26.2	47
61704	2024-04-07T16:27:37	25.8	50
61705	2024-04-07T16:37:37	25.4	53
61706	2024-04-07T16:47:37	25.2	53.5
61707	2024-04-07T16:57:37	24.9	53.5
61708	2024-04-07T17:07:37	24.5	52
61709	2024-04-07T17:17:37	24.1	52
61710	2024-04-07T17:27:37	23.9	51.5
61711	2024-04-07T17:37:37	23.8	51
61712	2024-04-07T17:47:37	23.4	53.5
61713	2024-04-07T17:57:37	23.2	55
61714	2024-04-07T18:07:37	22.7	55.5
61715	2024-04-07T18:17:37	22.6	56
61716	2024-04-07T18:27:37	22.3	56.5
61717	2024-04-07T18:37:37	22.1	57
61718	2024-04-07T18:47:37	22	57
61719	2024-04-07T18:57:37	21.8	56.5
61720	2024-04-07T19:07:37	21.5	57.5
61721	2024-04-07T19:17:37	21.5	59
61722	2024-04-07T19:27:37	21.4	59
61723	2024-04-07T19:37:37	21.3	58
61724	2024-04-07T19:47:37	21.1	59
61725	2024-04-07T19:57:37	20.8	61.5
61726	2024-04-07T20:07:37	20.7	62.5
61727	2024-04-07T20:17:37	20.4	62
61728	2024-04-07T20:27:37	20.2	64
61729	2024-04-07T20:37:37	19.9	65
61730	2024-04-07T20:47:37	19.7	65
61731	2024-04-07T20:57:37	19.5	67
61732	2024-04-07T21:07:37	19.1	68.5
61733	2024-04-07T21:17:37	18.9	69
61734	2024-04-07T21:27:37	18.5	70
61735	2024-04-07T21:37:37	18.4	70.5
61736	2024-04-07T21:47:37	17.9	70
61737	2024-04-07T21:57:37	17.9	71.5
61738	2024-04-07T22:07:37	17.5	73
61739	2024-04-07T22:17:37	17.5	71.5
61740	2024-04-07T22:27:37	17.6	71.5
61741	2024-04-07T22:37:37	17.4	72
61742	2024-04-07T22:47:37	17.6	72
61743	2024-04-07T22:57:37	17.5	71.5
61744	2024-04-07T23:23:43	17.3	73.5
61745	2024-04-07T23:23:43	17.5	72
61746	2024-04-07T23:27:37	17.1	74
61747	2024-04-07T23:37:37	17	75
61748	2024-04-07T23:47:37	16.7	75.5
61749	2024-04-07T23:57:37	16.6	76
61750	2024-04-08T00:07:37	16.4	77
61751	2024-04-08T00:17:37	16.4	77
61752	2024-04-08T00:27:36	16.3	77.5
61753	2024-04-08T00:37:36	16.3	78
61754	2024-04-08T00:47:36	16.2	77.5
61755	2024-04-08T00:57:36	16.1	78.5
61756	2024-04-08T01:07:36	16	80
61757	2024-04-08T01:17:36	15.7	80.5
61758	2024-04-08T01:27:36	15.7	81
61759	2024-04-08T01:37:36	15.6	80.5
61760	2024-04-08T01:47:36	15.6	80
61761	2024-04-08T01:57:36	15.3	79.5
61762	2024-04-08T02:07:36	15.3	80.5
61763	2024-04-08T02:17:36	15.4	80.5
61764	2024-04-08T02:27:36	15.3	81
61765	2024-04-08T02:37:36	15.1	82
61766	2024-04-08T02:47:36	15.1	82
61767	2024-04-08T02:57:36	14.9	83
61768	2024-04-08T03:07:36	14.9	83
61769	2024-04-08T03:17:36	14.8	83
61770	2024-04-08T03:27:36	14.5	82
61771	2024-04-08T03:37:36	14.5	81
61772	2024-04-08T03:47:36	14.2	82.5
61773	2024-04-08T03:57:36	13.9	82.5
61774	2024-04-08T04:07:36	13.8	83.5
61775	2024-04-08T04:17:36	13.7	84
61776	2024-04-08T04:27:36	13.3	84
61777	2024-04-08T04:37:36	13.2	84
61778	2024-04-08T04:47:36	13.1	83.5
61779	2024-04-08T04:57:36	12.9	84.5
61780	2024-04-08T05:07:36	12.9	84.5
61781	2024-04-08T05:17:36	12.9	84.5
61782	2024-04-08T05:27:36	12.8	84.5
61783	2024-04-08T05:37:36	12.9	84.5
61784	2024-04-08T05:47:36	12.9	84
61785	2024-04-08T05:57:36	13.1	84
61786	2024-04-08T06:07:36	13.1	84
61787	2024-04-08T06:17:36	13.4	83.5
61788	2024-04-08T06:27:36	13.6	84
61789	2024-04-08T06:37:36	13.7	84
61790	2024-04-08T06:47:36	14	82.5
61791	2024-04-08T06:57:36	14.3	80.5
61792	2024-04-08T07:07:36	14.5	80.5
61793	2024-04-08T07:17:36	14.7	81
61794	2024-04-08T07:27:36	15.2	79
61795	2024-04-08T07:37:36	15.6	76.5
61796	2024-04-08T07:47:36	16	76
61797	2024-04-08T07:57:36	16.4	74.5
61798	2024-04-08T08:07:36	16.8	64
61799	2024-04-08T08:17:36	17.2	61.5
61800	2024-04-08T08:27:36	17.8	60
61801	2024-04-08T08:37:36	18.5	53.5
61802	2024-04-08T08:47:36	19.2	52
61803	2024-04-08T08:57:36	19.3	54
61804	2024-04-08T09:07:36	19.8	55
61805	2024-04-08T09:17:36	20	51
61806	2024-04-08T09:27:36	20.3	50
61807	2024-04-08T09:37:36	20.8	46.5
61808	2024-04-08T09:47:36	21.3	47.5
61809	2024-04-08T09:57:36	21.8	46.5
61810	2024-04-08T10:07:36	22.5	46
61811	2024-04-08T10:17:36	22.9	44
61812	2024-04-08T10:27:36	23.5	45.5
61813	2024-04-08T10:37:36	23.3	46
61814	2024-04-08T10:47:36	22.8	43.5
61815	2024-04-08T10:57:36	22.8	46
61816	2024-04-08T11:07:36	23.4	47
61817	2024-04-08T11:17:36	24.1	46.5
61818	2024-04-08T11:27:36	23.4	47
61819	2024-04-08T11:37:36	23.9	49.5
61820	2024-04-08T11:47:36	24.6	47.5
61821	2024-04-08T11:57:36	24.8	44.5
61822	2024-04-08T12:07:36	26.1	41
61823	2024-04-08T12:17:36	28.3	37
61824	2024-04-08T12:27:36	30.3	30
61825	2024-04-08T12:37:36	31.3	28.5
61826	2024-04-08T12:47:35	33.1	28.5
61827	2024-04-08T12:57:35	34.1	25.5
61828	2024-04-08T13:07:35	34.6	27.5
61829	2024-04-08T13:17:35	30.7	28
61830	2024-04-08T13:27:35	30.3	30
61831	2024-04-08T13:37:35	29	30
61832	2024-04-08T13:47:35	29	31
61833	2024-04-08T13:57:35	27.9	33
61834	2024-04-08T14:07:35	28.3	36
61835	2024-04-08T14:17:35	31.1	31.5
61836	2024-04-08T14:27:35	29.2	31.5
61837	2024-04-08T14:37:35	29	33.5
61838	2024-04-08T14:47:35	29.2	35.5
61839	2024-04-08T14:57:35	32.5	29
61840	2024-04-08T15:07:35	30.5	33
61841	2024-04-08T15:17:35	29.9	33
61842	2024-04-08T15:27:35	29.6	33
61843	2024-04-08T15:37:35	29.2	34
61844	2024-04-08T15:47:35	30.8	30
61845	2024-04-08T15:57:35	31.6	29
61846	2024-04-08T16:07:35	32	30.5
61847	2024-04-08T16:17:35	32.1	31.5
61848	2024-04-08T16:27:35	30.6	35
61849	2024-04-08T16:37:35	30.3	38
61850	2024-04-08T16:47:35	29.4	34.5
61851	2024-04-08T16:57:35	28.3	36
61852	2024-04-08T17:07:35	27.4	39.5
61853	2024-04-08T17:17:35	26.5	41.5
61854	2024-04-08T17:27:35	25.8	43.5
61855	2024-04-08T17:37:35	25.2	45
61856	2024-04-08T17:47:35	24.8	45.5
61857	2024-04-08T17:57:35	24.6	46.5
61858	2024-04-08T18:07:35	24.5	44
61859	2024-04-08T18:17:35	24.2	49
61860	2024-04-08T18:27:35	23.8	51
61861	2024-04-08T18:37:35	23.4	53
61862	2024-04-08T18:47:35	23.1	52.5
61863	2024-04-08T18:57:35	23.2	52
61864	2024-04-08T19:07:35	23.1	49
61865	2024-04-08T19:17:35	22.7	53.5
61866	2024-04-08T19:27:35	22.4	54.5
61867	2024-04-08T19:37:35	22.2	56
61868	2024-04-08T19:47:35	21.9	56
61869	2024-04-08T19:57:35	22	54.5
61870	2024-04-08T20:07:35	21.9	52.5
61871	2024-04-08T20:17:35	21.8	53.5
61872	2024-04-08T20:27:35	21.5	55.5
61873	2024-04-08T20:37:35	20.9	59
61874	2024-04-08T20:47:35	20.9	50
61875	2024-04-08T20:57:35	21.1	54.5
61876	2024-04-08T21:07:35	20.8	56
61877	2024-04-08T21:17:35	20.6	59.5
61878	2024-04-08T21:27:35	20.7	59.5
61879	2024-04-08T21:37:35	20.3	59.5
61880	2024-04-08T21:47:35	20.1	60.5
61881	2024-04-08T21:57:35	20	61
61882	2024-04-08T22:07:35	19.7	61.5
61883	2024-04-08T22:17:35	19.4	62
61884	2024-04-08T22:27:35	19.1	63
61885	2024-04-08T22:37:35	18.9	63.5
61886	2024-04-08T22:47:34	18.9	60.5
61887	2024-04-08T22:57:34	18.9	61.5
61888	2024-04-08T23:23:51	18.7	63
61889	2024-04-08T23:23:52	18.9	63
61890	2024-04-08T23:27:34	18.7	63.5
61891	2024-04-08T23:37:34	18.5	63.5
61892	2024-04-08T23:47:34	18.5	64.5
61893	2024-04-08T23:57:34	18.4	65.5
61894	2024-04-09T00:07:34	18.3	66.5
61895	2024-04-09T00:17:34	18.1	68.5
61896	2024-04-09T00:27:34	18	68
61897	2024-04-09T00:37:34	17.8	68.5
61898	2024-04-09T00:47:34	17.9	66
61899	2024-04-09T00:57:34	18	66.5
61900	2024-04-09T01:07:34	17.9	64.5
61901	2024-04-09T01:17:34	17.8	65.5
61902	2024-04-09T01:27:34	17.9	64
61903	2024-04-09T01:37:34	17.9	64.5
61904	2024-04-09T01:47:34	17.7	64.5
61905	2024-04-09T01:57:34	17.3	68
61906	2024-04-09T02:07:34	17.1	66
61907	2024-04-09T02:17:34	17.2	63
61908	2024-04-09T02:27:34	17.2	66
61909	2024-04-09T02:37:34	16.7	69
61910	2024-04-09T02:47:34	16.7	70
61911	2024-04-09T02:57:34	16.7	68.5
61912	2024-04-09T03:07:34	16.7	70
61913	2024-04-09T03:17:34	16.5	67.5
61914	2024-04-09T03:27:34	17.4	61.5
61915	2024-04-09T03:37:34	17.7	61
61916	2024-04-09T03:47:34	17.6	61.5
61917	2024-04-09T03:57:34	17.7	61
61918	2024-04-09T04:07:34	17.7	60
61919	2024-04-09T04:17:34	17.5	60.5
61920	2024-04-09T04:27:34	17.3	60.5
61921	2024-04-09T04:37:34	17.3	61.5
61922	2024-04-09T04:47:34	17.2	62
61923	2024-04-09T04:57:34	17	64
61924	2024-04-09T05:07:34	16.8	65.5
61925	2024-04-09T05:17:34	16.8	66
61926	2024-04-09T05:27:34	16.5	69
61927	2024-04-09T05:37:34	16.3	71
61928	2024-04-09T05:47:34	16.5	71.5
61929	2024-04-09T05:57:34	16.4	72.5
61930	2024-04-09T06:07:34	16.5	73
61931	2024-04-09T06:17:34	16.3	73.5
61932	2024-04-09T06:27:34	15.9	73
61933	2024-04-09T06:37:34	15.7	70.5
61934	2024-04-09T06:47:34	15	66.5
61935	2024-04-09T06:57:34	14.5	67
61936	2024-04-09T07:07:34	14.1	66.5
61937	2024-04-09T07:17:34	13.9	64
61938	2024-04-09T07:27:34	13.7	67
61939	2024-04-09T07:37:34	13.6	66
61940	2024-04-09T07:47:34	13.6	65.5
61941	2024-04-09T07:57:34	13.2	67
61942	2024-04-09T08:07:34	13.2	67.5
61943	2024-04-09T08:17:34	13.1	68
61944	2024-04-09T08:27:34	12.9	61.5
61945	2024-04-09T08:37:34	12.7	63
61946	2024-04-09T08:47:34	12.5	63.5
61947	2024-04-09T08:57:34	12	66
61948	2024-04-09T09:07:34	12	67
61949	2024-04-09T09:17:34	11.8	67.5
61950	2024-04-09T09:27:34	11.7	69
61951	2024-04-09T09:37:34	11.4	71.5
61952	2024-04-09T09:47:34	11.4	69.5
61953	2024-04-09T09:57:34	11.4	71.5
61954	2024-04-09T10:07:34	11.2	72.5
61955	2024-04-09T10:17:34	11.1	71
61956	2024-04-09T10:27:34	11	70
61957	2024-04-09T10:37:34	10.8	70
61958	2024-04-09T10:47:34	10.8	70.5
61959	2024-04-09T10:57:34	10.5	72
61960	2024-04-09T11:07:34	10	77.5
61961	2024-04-09T11:17:34	9.4	83.5
61962	2024-04-09T11:27:33	9.9	79.5
61963	2024-04-09T11:37:33	10.1	77
61964	2024-04-09T11:47:33	10.2	76.5
61965	2024-04-09T11:57:33	10.3	75
61966	2024-04-09T12:07:33	10.4	72.5
61967	2024-04-09T12:17:33	10.4	70.5
61968	2024-04-09T12:27:33	10.2	72
61969	2024-04-09T12:37:33	10.5	69.5
61970	2024-04-09T12:47:33	10.7	67
61971	2024-04-09T12:57:33	10.9	65.5
61972	2024-04-09T13:07:33	10.9	64
61973	2024-04-09T13:17:33	10.9	65
61974	2024-04-09T13:27:33	10.9	65.5
61975	2024-04-09T13:37:33	10.9	67
61976	2024-04-09T13:47:33	10.9	67
61977	2024-04-09T13:57:33	11	67.5
61978	2024-04-09T14:07:33	11.2	68
61979	2024-04-09T14:17:33	11.3	68.5
61980	2024-04-09T14:27:33	11.2	69
61981	2024-04-09T14:37:33	11.1	68.5
61982	2024-04-09T14:47:33	11.2	68
61983	2024-04-09T14:57:33	11.3	67.5
61984	2024-04-09T15:07:33	11.3	66.5
61985	2024-04-09T15:17:33	11.4	66
61986	2024-04-09T15:27:33	11.4	65
61987	2024-04-09T15:37:33	11.4	64.5
61988	2024-04-09T15:47:33	11.4	65
61989	2024-04-09T15:57:33	11.4	64.5
61990	2024-04-09T16:07:33	11.4	65
61991	2024-04-09T16:17:33	11.4	65
61992	2024-04-09T16:27:33	11.3	65
61993	2024-04-09T16:37:33	11.2	64
61994	2024-04-09T16:47:33	11.1	65
61995	2024-04-09T16:57:33	11.1	64
61996	2024-04-09T17:07:33	11.1	64.5
61997	2024-04-09T17:17:33	11.4	64
61998	2024-04-09T17:27:33	11.6	63.5
61999	2024-04-09T17:37:33	11.6	63.5
62000	2024-04-09T17:47:33	11.3	64.5
62001	2024-04-09T17:57:33	11.2	65
62002	2024-04-09T18:07:33	11	66
62003	2024-04-09T18:17:33	10.8	67
62004	2024-04-09T18:27:33	10.8	67
62005	2024-04-09T18:37:33	10.6	68
62006	2024-04-09T18:47:33	10.4	68
62007	2024-04-09T18:57:33	10.3	69.5
62008	2024-04-09T19:07:33	10.1	69.5
62009	2024-04-09T19:17:33	9.8	71
62010	2024-04-09T19:27:33	9.6	71.5
62011	2024-04-09T19:37:33	9.8	70
62012	2024-04-09T19:47:33	9.9	69
62013	2024-04-09T19:57:33	10	69.5
62014	2024-04-09T20:07:33	10	69
62015	2024-04-09T20:17:33	10.2	68.5
62016	2024-04-09T20:27:33	10.1	69
62017	2024-04-09T20:37:33	10.2	69.5
62018	2024-04-09T20:47:33	10.2	70
62019	2024-04-09T20:57:33	10.3	70.5
62020	2024-04-09T21:07:33	10.4	70
62021	2024-04-09T21:17:33	10.3	70.5
62022	2024-04-09T21:27:33	10.2	70.5
62023	2024-04-09T21:37:33	10.3	70
62024	2024-04-09T21:47:33	10.4	69.5
62025	2024-04-09T22:07:33	10.4	70
62026	2024-04-09T22:17:33	10.1	70.5
62027	2024-04-09T22:27:33	10.1	71
62028	2024-04-09T22:37:33	10	71
62029	2024-04-09T22:47:33	9.9	71
62030	2024-04-09T22:57:33	9.7	72
62031	2024-04-09T23:24:04	9.6	72.5
62032	2024-04-09T23:24:05	9.4	73
62033	2024-04-09T23:27:33	9.3	74
62034	2024-04-09T23:37:33	9.1	74.5
62035	2024-04-09T23:47:33	8.8	75.5
62036	2024-04-09T23:57:33	8.6	76.5
62037	2024-04-10T00:07:33	8.4	77
62038	2024-04-10T00:17:33	8.4	77.5
62039	2024-04-10T00:27:33	8.4	77
62040	2024-04-10T00:37:33	8.2	77.5
62041	2024-04-10T00:47:33	8.2	77.5
62042	2024-04-10T00:57:33	8.1	77.5
62043	2024-04-10T01:07:33	8	78
62044	2024-04-10T01:17:33	7.8	78.5
62045	2024-04-10T01:27:33	7.8	78.5
62046	2024-04-10T01:37:33	8.1	78.5
62047	2024-04-10T01:47:33	8.2	78
62048	2024-04-10T01:57:33	8.2	78.5
62049	2024-04-10T02:07:33	8.3	79
62050	2024-04-10T02:17:33	8.4	78
62051	2024-04-10T02:27:33	8.5	77.5
62052	2024-04-10T02:37:33	8.5	76.5
62053	2024-04-10T02:47:33	8.5	76.5
62054	2024-04-10T02:57:33	8.5	75.5
62055	2024-04-10T03:07:33	8.5	75.5
62056	2024-04-10T03:17:33	8.5	75
62057	2024-04-10T03:27:33	8.5	75
62058	2024-04-10T03:37:33	8.3	76
62059	2024-04-10T03:47:33	7.9	79
62060	2024-04-10T03:57:33	7.6	80
62061	2024-04-10T04:07:33	7.3	81
62062	2024-04-10T04:17:32	7.3	81.5
62063	2024-04-10T04:27:32	7	82
62064	2024-04-10T04:37:32	6.9	82
62065	2024-04-10T04:47:32	6.8	83.5
62066	2024-04-10T04:57:32	6.6	84
62067	2024-04-10T05:07:32	6.6	84
62068	2024-04-10T05:17:32	6.2	85.5
62069	2024-04-10T05:27:32	5.9	86
62070	2024-04-10T05:37:32	5.8	86.5
62071	2024-04-10T05:47:32	6.1	86
62072	2024-04-10T05:57:32	6.1	86
62073	2024-04-10T06:07:32	6.3	85.5
62074	2024-04-10T06:17:32	6.7	84.5
62075	2024-04-10T06:27:32	7.1	82
62076	2024-04-10T06:37:32	7.3	80.5
62077	2024-04-10T06:47:32	7.6	80.5
62078	2024-04-10T06:57:32	7.7	78.5
62079	2024-04-10T07:07:32	7.9	78.5
62080	2024-04-10T07:17:32	8	77
62081	2024-04-10T07:27:32	8.2	76.5
62082	2024-04-10T07:37:32	8.3	76.5
62083	2024-04-10T07:47:32	8.5	75.5
62084	2024-04-10T07:57:32	8.8	74
62085	2024-04-10T08:07:32	9	73.5
62086	2024-04-10T08:17:32	9.2	73.5
62087	2024-04-10T08:27:32	9.4	71
62088	2024-04-10T08:37:32	9.9	69.5
62089	2024-04-10T08:47:32	10.2	68.5
62090	2024-04-10T08:57:32	10.3	67
62091	2024-04-10T09:07:32	10.9	66
62092	2024-04-10T09:17:32	11.4	62.5
62093	2024-04-10T09:27:32	11.8	62
62094	2024-04-10T09:37:32	12.5	58.5
62095	2024-04-10T09:47:32	12.5	60
62096	2024-04-10T09:57:32	12.5	58.5
62097	2024-04-10T10:07:32	12.9	57.5
62098	2024-04-10T10:17:32	13.5	56.5
62099	2024-04-10T10:27:32	13.7	52.5
62100	2024-04-10T10:37:32	13.7	52
62101	2024-04-10T10:47:32	13.2	53.5
62102	2024-04-10T10:57:32	12.9	55.5
62103	2024-04-10T11:07:32	12.8	54.5
62104	2024-04-10T11:17:32	12.7	52.5
62105	2024-04-10T11:27:32	13.1	53
62106	2024-04-10T11:37:32	14	52
62107	2024-04-10T11:47:32	14.8	48.5
62108	2024-04-10T11:57:32	16	43.5
62109	2024-04-10T12:07:32	16.4	42
62110	2024-04-10T12:17:32	15.7	43
62111	2024-04-10T12:27:32	16	44
62112	2024-04-10T12:37:32	16.2	44.5
62113	2024-04-10T12:47:32	16.4	42
62114	2024-04-10T12:52:26	16.4	43
62115	2024-04-10T13:02:26	16.3	42.5
62116	2024-04-10T13:12:26	16.8	43
62117	2024-04-10T13:22:26	17	43
62118	2024-04-10T13:32:26	17.4	41
62119	2024-04-10T13:42:26	17	40.5
62120	2024-04-10T13:52:26	16.8	43
62121	2024-04-10T14:02:26	16.6	45
62122	2024-04-10T14:12:26	16.6	44
62123	2024-04-10T14:22:26	16.8	43.5
62124	2024-04-10T14:32:26	16.6	42.5
62125	2024-04-10T14:42:26	16.3	43
62126	2024-04-10T14:52:26	16.5	43
62127	2024-04-10T15:02:26	17	40
62128	2024-04-10T15:12:26	17.1	41
62129	2024-04-10T15:22:26	17.5	39.5
62130	2024-04-10T15:32:26	17.1	43.5
62131	2024-04-10T15:42:26	17	44.5
62132	2024-04-10T15:52:26	16.8	43.5
62133	2024-04-10T16:02:26	18.8	37.5
62134	2024-04-10T16:12:26	23.9	31
62135	2024-04-10T16:22:26	25.2	27
62136	2024-04-10T16:32:26	26.8	25
62137	2024-04-10T16:42:26	25.7	25.5
62138	2024-04-10T16:52:26	23.5	27.5
62139	2024-04-10T17:02:26	21.2	32
62140	2024-04-10T17:12:26	21.4	32
62141	2024-04-10T17:22:26	21.6	33.5
62142	2024-04-10T17:32:26	18.8	39
62143	2024-04-10T17:42:26	16.8	42
62144	2024-04-10T17:52:26	15.9	43.5
62145	2024-04-10T18:02:26	15.2	49.5
62146	2024-04-10T18:12:26	14.4	55.5
62147	2024-04-10T18:22:26	13.7	57.5
62148	2024-04-10T18:32:25	13.1	56
62149	2024-04-10T18:42:25	12.6	57.5
62150	2024-04-10T18:52:25	12.2	58.5
62151	2024-04-10T19:02:25	11.7	61.5
62152	2024-04-10T19:12:25	11.4	63
62153	2024-04-10T19:22:25	11	65.5
62154	2024-04-10T19:32:25	10.8	66.5
62155	2024-04-10T19:42:25	10.5	67.5
62156	2024-04-10T19:52:25	10.4	70
62157	2024-04-10T20:02:25	9.9	70.5
62158	2024-04-10T20:12:25	9.7	71.5
62159	2024-04-10T20:22:25	9.5	72.5
62160	2024-04-10T20:32:25	9.3	73
62161	2024-04-10T20:42:25	9.2	75
62162	2024-04-10T20:52:25	8.9	73
62163	2024-04-10T21:02:25	8.6	73.5
62164	2024-04-10T21:12:25	8.4	74
62165	2024-04-10T21:22:25	8.1	75
62166	2024-04-10T21:32:26	8	75.5
62167	2024-04-10T21:42:25	7.7	76.5
62168	2024-04-10T21:52:25	7.6	77.5
62169	2024-04-10T22:02:25	7.5	78
62170	2024-04-10T22:12:25	7.2	78
62171	2024-04-10T22:22:25	7	78
62172	2024-04-10T22:32:25	6.7	79
62173	2024-04-10T22:42:25	6.7	79.5
62174	2024-04-10T22:52:25	6.5	80
62175	2024-04-10T23:23:30	6.3	81
62176	2024-04-10T23:23:31	6.1	81.5
62177	2024-04-10T23:23:31	6.3	81.5
62178	2024-04-10T23:32:25	6	81.5
62179	2024-04-10T23:42:25	5.8	82.5
62180	2024-04-10T23:52:25	5.8	82.5
62181	2024-04-11T00:02:25	5.7	83
62182	2024-04-11T00:12:25	5.4	84
62183	2024-04-11T00:22:25	5.3	84
62184	2024-04-11T00:32:25	5.1	85
62185	2024-04-11T00:42:25	5	85.5
62186	2024-04-11T00:52:25	4.8	86
62187	2024-04-11T01:02:25	4.7	86.5
62188	2024-04-11T01:12:25	4.6	86.5
62189	2024-04-11T01:22:25	4.5	86.5
62190	2024-04-11T01:32:25	4.4	87
62191	2024-04-11T01:42:25	4.2	87.5
62192	2024-04-11T01:52:25	4.3	86.5
62193	2024-04-11T02:02:25	4.3	86.5
62194	2024-04-11T02:12:25	3.9	87.5
62195	2024-04-11T02:22:25	3.8	88.5
62196	2024-04-11T02:32:25	3.7	89
62197	2024-04-11T02:42:25	3.7	89.5
62198	2024-04-11T02:52:25	3.5	89.5
62199	2024-04-11T03:02:25	3.4	90
62200	2024-04-11T03:12:25	3.4	90
62201	2024-04-11T03:22:25	3.2	90
62202	2024-04-11T03:32:25	3.1	90.5
62203	2024-04-11T03:42:25	3	90.5
62204	2024-04-11T03:52:25	2.8	90.5
62205	2024-04-11T04:02:25	2.8	91
62206	2024-04-11T04:12:25	2.8	90.5
62207	2024-04-11T04:22:25	2.7	90.5
62208	2024-04-11T04:32:25	2.5	91
62209	2024-04-11T04:42:25	2.6	91.5
62210	2024-04-11T04:52:25	2.6	91.5
62211	2024-04-11T05:02:25	2.5	91.5
62212	2024-04-11T05:12:25	2.4	92
62213	2024-04-11T05:22:25	2.7	92.5
62214	2024-04-11T05:32:25	2.7	92.5
62215	2024-04-11T05:42:25	2.9	92.5
62216	2024-04-11T05:52:25	3.2	93
62217	2024-04-11T06:02:25	3.3	93
62218	2024-04-11T06:12:25	3.5	93.5
62219	2024-04-11T06:22:25	3.8	93
62220	2024-04-11T06:32:25	4.2	93
62221	2024-04-11T06:42:25	4.5	90
62222	2024-04-11T06:52:25	4.8	90.5
62223	2024-04-11T07:02:25	5.1	88
62224	2024-04-11T07:12:25	5.6	86
62225	2024-04-11T07:22:25	5.9	85
62226	2024-04-11T07:32:25	6.5	84
62227	2024-04-11T07:42:25	7	81.5
62228	2024-04-11T07:52:25	7.2	82.5
62229	2024-04-11T08:02:25	7.6	80.5
62230	2024-04-11T08:12:25	7.7	81.5
62231	2024-04-11T08:22:25	8	81
62232	2024-04-11T08:32:25	8.7	76.5
62233	2024-04-11T08:42:25	9.1	76
62234	2024-04-11T08:52:25	9.5	73.5
62235	2024-04-11T09:02:25	10	72.5
62236	2024-04-11T09:12:25	10.3	73
62237	2024-04-11T09:22:25	10.9	61.5
62238	2024-04-11T09:32:25	11	64
62239	2024-04-11T09:42:25	11.3	66.5
62240	2024-04-11T09:52:25	11.5	64.5
62241	2024-04-11T10:02:25	11.9	60.5
62242	2024-04-11T10:12:25	12.3	60.5
62243	2024-04-11T10:22:25	12.7	58.5
62244	2024-04-11T10:32:25	13.3	56
62245	2024-04-11T10:42:25	13.4	53
62246	2024-04-11T10:52:25	13.7	53.5
62247	2024-04-11T11:02:25	14.1	49
62248	2024-04-11T11:12:25	14.6	47.5
62249	2024-04-11T11:22:25	15	47.5
62250	2024-04-11T11:32:25	15.6	42.5
62251	2024-04-11T11:42:25	16.2	44
62252	2024-04-11T11:52:25	17.3	42
62253	2024-04-11T12:02:25	19	38.5
62254	2024-04-11T12:12:25	23.4	29
62255	2024-04-11T12:22:25	23.8	26.5
62256	2024-04-11T12:32:25	22.9	29
62257	2024-04-11T12:42:25	21.8	30.5
62258	2024-04-11T12:52:25	21.5	30
62259	2024-04-11T13:02:25	21.1	32
62260	2024-04-11T13:12:25	21.3	30
62261	2024-04-11T13:22:25	23.3	26.5
62262	2024-04-11T13:32:25	24.9	24.5
62263	2024-04-11T13:42:25	23.9	27.5
62264	2024-04-11T13:52:25	23.6	25.5
62265	2024-04-11T14:02:24	26.2	25
62266	2024-04-11T14:12:24	25.5	24
62267	2024-04-11T14:22:24	29.5	19.5
62268	2024-04-11T14:32:24	30.6	19
62269	2024-04-11T14:42:24	28.7	21
62270	2024-04-11T14:52:24	29	20.5
62271	2024-04-11T15:02:24	32.9	17.5
62272	2024-04-11T15:12:25	28.4	21.5
62273	2024-04-11T15:22:24	31.9	19.5
62274	2024-04-11T15:32:24	33.9	16.5
62275	2024-04-11T15:42:24	34	17
62276	2024-04-11T15:52:24	29.4	21
62277	2024-04-11T16:02:24	34.9	17
62278	2024-04-11T16:12:24	36	16
62279	2024-04-11T16:22:24	35.1	17
62280	2024-04-11T16:32:24	35.3	15.5
62281	2024-04-11T16:42:24	32	18.5
62282	2024-04-11T16:52:24	29.1	21
62283	2024-04-11T17:02:24	26.7	23
62284	2024-04-11T17:12:24	24.3	27.5
62285	2024-04-11T17:22:24	23	30.5
62286	2024-04-11T17:32:24	22.2	30.5
62287	2024-04-11T17:42:24	21.5	32
62288	2024-04-11T17:52:24	20.7	40
62289	2024-04-11T18:02:24	20	43
62290	2024-04-11T18:12:24	19.3	46
62291	2024-04-11T18:22:24	18.7	45.5
62292	2024-04-11T18:32:24	18.3	46
62293	2024-04-11T18:42:24	17.7	47.5
62294	2024-04-11T18:52:24	17.1	47.5
62295	2024-04-11T19:02:24	16.6	50.5
62296	2024-04-11T19:12:24	16	52
62297	2024-04-11T19:22:24	15.7	52
62298	2024-04-11T19:32:24	15.3	55.5
62299	2024-04-11T19:42:24	14.8	55.5
62300	2024-04-11T19:52:24	14.7	56
62301	2024-04-11T20:02:24	14.2	56
62302	2024-04-11T20:12:24	14.1	58.5
62303	2024-04-11T20:22:24	13.8	58
62304	2024-04-11T20:32:24	13.5	59.5
62305	2024-04-11T20:42:24	13.2	61.5
62306	2024-04-11T20:52:24	13	59
62307	2024-04-11T21:02:24	12.8	62
62308	2024-04-11T21:12:24	12.5	61
62309	2024-04-11T21:22:24	12.2	63
62310	2024-04-11T21:32:24	11.9	64.5
62311	2024-04-11T21:42:24	11.6	66
62312	2024-04-11T21:52:24	11.4	66.5
62313	2024-04-11T22:02:24	11.4	65.5
62314	2024-04-11T22:12:24	11.2	67.5
62315	2024-04-11T22:22:24	10.9	68
62316	2024-04-11T22:32:24	10.7	69
62317	2024-04-11T22:42:24	10.5	70
62318	2024-04-11T22:52:24	10.4	71
62319	2024-04-11T23:23:44	10.2	70.5
62320	2024-04-11T23:23:44	10	69.5
62321	2024-04-11T23:23:44	10.1	71.5
62322	2024-04-11T23:32:24	9.9	70
62323	2024-04-11T23:42:24	9.7	71
62324	2024-04-11T23:52:24	9.7	73
62325	2024-04-12T00:02:24	9.4	74.5
62326	2024-04-12T00:12:24	9.3	75.5
62327	2024-04-12T00:22:24	8.9	77
62328	2024-04-12T00:32:24	8.8	76.5
62329	2024-04-12T00:42:24	8.6	77.5
62330	2024-04-12T00:52:24	8.6	75.5
62331	2024-04-12T01:02:24	8.4	77
62332	2024-04-12T01:12:24	8.3	78
62333	2024-04-12T01:22:24	8.2	77.5
62334	2024-04-12T01:32:24	8	78.5
62335	2024-04-12T01:42:24	8	79
62336	2024-04-12T01:52:24	7.7	79
62337	2024-04-12T02:02:24	7.6	80
62338	2024-04-12T02:12:24	7.6	79
62339	2024-04-12T02:22:24	7.7	78.5
62340	2024-04-12T02:32:24	7.5	79.5
62341	2024-04-12T02:42:24	7.5	79
62342	2024-04-12T02:52:24	7.3	78.5
62343	2024-04-12T03:02:24	7.3	80.5
62344	2024-04-12T03:12:24	7.2	80.5
62345	2024-04-12T03:22:23	7	81
62346	2024-04-12T03:32:23	7.2	80.5
62347	2024-04-12T03:42:23	7.1	81
62348	2024-04-12T03:52:23	6.9	82
62349	2024-04-12T04:02:23	7	83
62350	2024-04-12T04:12:23	7.1	83
62351	2024-04-12T04:22:23	7.1	82.5
62352	2024-04-12T04:32:23	7	83
62353	2024-04-12T04:42:23	7	83
62354	2024-04-12T04:52:23	7	83.5
62355	2024-04-12T05:02:23	7.1	83
62356	2024-04-12T05:12:23	7	82.5
62357	2024-04-12T05:22:23	7.1	83
62358	2024-04-12T05:32:23	7	84
62359	2024-04-12T05:52:23	6.9	85.5
62360	2024-04-12T06:02:23	6.9	86
62361	2024-04-12T06:12:23	7.1	85.5
62362	2024-04-12T06:22:23	7.6	83.5
62363	2024-04-12T06:32:44	7.8	81.5
62364	2024-04-12T06:42:23	8.1	83.5
62365	2024-04-12T06:52:23	8.4	82.5
62366	2024-04-12T07:02:23	9	80
62367	2024-04-12T07:12:23	9.5	76.5
62368	2024-04-12T07:22:23	9.7	77
62369	2024-04-12T07:32:23	9.9	78.5
62370	2024-04-12T07:42:23	10.2	78
62371	2024-04-12T07:52:23	10.7	75.5
62372	2024-04-12T08:02:23	11.2	74
62373	2024-04-12T08:12:23	11.6	70
62374	2024-04-12T08:22:23	12	70.5
62375	2024-04-12T08:32:23	12.3	68.5
62376	2024-04-12T08:42:23	12.7	67.5
62377	2024-04-12T08:52:23	13	65.5
62378	2024-04-12T09:02:23	13.7	61.5
62379	2024-04-12T09:12:23	14	59
62380	2024-04-12T09:22:23	14.1	60
62381	2024-04-12T09:32:23	14.4	59
62382	2024-04-12T09:42:23	14.9	57
62383	2024-04-12T09:52:23	15.3	56
62384	2024-04-12T10:02:23	15.9	50.5
62385	2024-04-12T10:12:23	16.3	51.5
62386	2024-04-12T10:22:23	16.3	51.5
62387	2024-04-12T10:32:23	16.6	51
62388	2024-04-12T10:42:23	16.8	50.5
62389	2024-04-12T10:52:23	17.4	48
62390	2024-04-12T11:02:23	17.5	46.5
62391	2024-04-12T11:12:23	17.8	45.5
62392	2024-04-12T11:22:23	18	47
62393	2024-04-12T11:32:23	18.1	44.5
62394	2024-04-12T11:42:23	18.6	44.5
62395	2024-04-12T11:52:23	19	42.5
62396	2024-04-12T12:02:23	19.8	41
62397	2024-04-12T12:12:23	24.2	34.5
62398	2024-04-12T12:22:23	26.5	28
62399	2024-04-12T12:32:23	29.1	25
62400	2024-04-12T12:42:23	29.2	24.5
62401	2024-04-12T12:52:23	32.1	23
62402	2024-04-12T13:02:23	32.3	22
62403	2024-04-12T13:12:23	32.8	21.5
62404	2024-04-12T13:22:23	34	20.5
62405	2024-04-12T13:32:23	34.6	19.5
62406	2024-04-12T13:42:23	35.6	17.5
62407	2024-04-12T13:52:23	34.2	19.5
62408	2024-04-12T14:02:23	34.6	19.5
62409	2024-04-12T14:12:23	34.8	19.5
62410	2024-04-12T14:22:23	38.1	17
62411	2024-04-12T14:32:23	35.7	19.5
62412	2024-04-12T14:42:23	35.9	20.5
62413	2024-04-12T14:52:23	34.8	21
62414	2024-04-12T15:02:23	35.2	21
62415	2024-04-12T15:12:23	36.3	21.5
62416	2024-04-12T15:22:23	36.5	21
62417	2024-04-12T15:32:23	35.5	21.5
62418	2024-04-12T15:42:23	34.7	21.5
62419	2024-04-12T15:52:23	36.6	20
62420	2024-04-12T16:02:23	37.3	20
62421	2024-04-12T16:12:23	35.5	20.5
62422	2024-04-12T16:22:23	37.6	20.5
62423	2024-04-12T16:32:22	36.8	20
62424	2024-04-12T16:42:23	32.9	23.5
62425	2024-04-12T16:52:22	31.9	26.5
62426	2024-04-12T17:02:22	30.2	28.5
62427	2024-04-12T17:12:22	28.2	33
62428	2024-04-12T17:22:22	27	34.5
62429	2024-04-12T17:32:22	26.3	37.5
62430	2024-04-12T17:42:22	25.6	40.5
62431	2024-04-12T17:52:22	24.8	44.5
62432	2024-04-12T18:02:22	23.9	46
62433	2024-04-12T18:12:41	23.4	47.5
62434	2024-04-12T18:22:22	22.9	49
62435	2024-04-12T18:32:22	22.3	49.5
62436	2024-04-12T18:42:22	21.8	50
62437	2024-04-12T18:52:22	21.3	51
62438	2024-04-12T19:02:22	20.9	51
62439	2024-04-12T19:12:22	20.6	53.5
62440	2024-04-12T19:22:22	20	56.5
62441	2024-04-12T19:32:22	19.7	58.5
62442	2024-04-12T19:42:22	19.5	58
62443	2024-04-12T19:52:22	19.1	60
62444	2024-04-12T20:02:22	18.8	60
62445	2024-04-12T20:12:22	18.5	61
62446	2024-04-12T20:22:22	18.1	62
62447	2024-04-12T20:32:22	17.7	62
62448	2024-04-12T20:42:22	17.3	64.5
62449	2024-04-12T20:52:22	17.1	64
62450	2024-04-12T21:02:22	16.9	64
62451	2024-04-12T21:12:22	16.5	66
62452	2024-04-12T21:22:22	16	67.5
62453	2024-04-12T21:32:22	15.9	67.5
62454	2024-04-12T21:42:22	15.6	68.5
62455	2024-04-12T21:52:22	15.4	70
62456	2024-04-12T22:02:22	15.2	69.5
62457	2024-04-12T22:12:22	15.1	69
62458	2024-04-12T22:22:22	14.6	71
62459	2024-04-12T22:32:22	14.4	72
62460	2024-04-12T22:42:22	14.3	72
62461	2024-04-12T22:52:22	13.7	74
62462	2024-04-12T23:02:22	13.8	74
62463	2024-04-12T23:24:36	13.4	75
62464	2024-04-12T23:24:36	13.7	74
62465	2024-04-12T23:32:22	13.3	75.5
62466	2024-04-12T23:42:22	13.2	75.5
62467	2024-04-12T23:52:22	12.8	76.5
62468	2024-04-13T00:02:22	12.7	76.5
62469	2024-04-13T00:12:22	12.7	77
62470	2024-04-13T00:22:22	12.5	77.5
62471	2024-04-13T00:32:22	12.1	79
62472	2024-04-13T00:42:22	12	79
62473	2024-04-13T00:52:22	11.8	79.5
62474	2024-04-13T01:02:22	11.8	80
62475	2024-04-13T01:12:22	11.6	80.5
62476	2024-04-13T01:22:22	11.4	81.5
62477	2024-04-13T01:32:22	11.4	81.5
62478	2024-04-13T01:42:22	11.2	81
62479	2024-04-13T01:52:22	11.1	81.5
62480	2024-04-13T02:02:22	11.2	81.5
62481	2024-04-13T02:12:22	11.1	81.5
62482	2024-04-13T02:22:22	11	82
62483	2024-04-13T02:32:22	10.7	82.5
62484	2024-04-13T02:42:22	10.7	82.5
62485	2024-04-13T02:52:22	10.7	82.5
62486	2024-04-13T03:02:22	10.6	83
62487	2024-04-13T03:12:22	10.4	83.5
62488	2024-04-13T03:22:22	10.3	84
62489	2024-04-13T03:32:22	10.1	84.5
62490	2024-04-13T03:42:22	10.1	85
62491	2024-04-13T03:52:41	10.1	84.5
62492	2024-04-13T04:02:22	10.1	85
62493	2024-04-13T04:12:22	9.9	85.5
62494	2024-04-13T04:22:22	9.9	85.5
62495	2024-04-13T04:32:22	9.6	86
62496	2024-04-13T04:42:22	9.4	86
62497	2024-04-13T04:52:22	9.3	86.5
62498	2024-04-13T05:02:22	9.3	87.5
62499	2024-04-13T05:12:22	9.3	86.5
62500	2024-04-13T05:22:21	9.4	86.5
62501	2024-04-13T05:32:21	9.3	87.5
62502	2024-04-13T05:42:21	9.6	87.5
62503	2024-04-13T05:52:21	9.9	87
62504	2024-04-13T06:02:21	10.2	87
62505	2024-04-13T06:12:21	10.5	86
62506	2024-04-13T06:22:21	10.9	86
62507	2024-04-13T06:32:21	11.3	85.5
62508	2024-04-13T06:42:21	11.6	85
62509	2024-04-13T06:52:21	11.8	83
62510	2024-04-13T07:02:21	12	82
62511	2024-04-13T07:12:21	12.4	82
62512	2024-04-13T07:22:21	12.5	83
62513	2024-04-13T07:32:21	12.8	80
62514	2024-04-13T07:42:21	13.1	80.5
62515	2024-04-13T07:52:21	13.7	79
62516	2024-04-13T08:02:21	14	79
62517	2024-04-13T08:12:21	14.5	78.5
62518	2024-04-13T08:22:21	14.8	77.5
62519	2024-04-13T08:32:21	15.1	77.5
62520	2024-04-13T08:42:21	15.3	77
62521	2024-04-13T08:52:21	15.6	76
62522	2024-04-13T09:02:21	16.1	74.5
62523	2024-04-13T09:12:21	16.6	73.5
62524	2024-04-13T09:22:21	16.9	72.5
62525	2024-04-13T09:32:21	17.2	70.5
62526	2024-04-13T09:42:21	17.5	70.5
62527	2024-04-13T09:52:21	18	67.5
62528	2024-04-13T10:02:21	18.5	67
62529	2024-04-13T10:12:21	18.9	65
62530	2024-04-13T10:22:21	19.4	65
62531	2024-04-13T10:32:21	19.6	63.5
62532	2024-04-13T10:42:21	20.2	61.5
62533	2024-04-13T10:52:21	20.4	63
62534	2024-04-13T11:02:21	20.8	62
62535	2024-04-13T11:12:21	21.2	61.5
62536	2024-04-13T11:22:21	21.3	59
62537	2024-04-13T11:32:21	21.9	58
62538	2024-04-13T11:42:21	22.5	57
62539	2024-04-13T11:52:21	23	55
62540	2024-04-13T12:02:21	24	51
62541	2024-04-13T12:12:21	26.6	45.5
62542	2024-04-13T12:22:21	29.3	38
62543	2024-04-13T12:32:21	30.3	37.5
62544	2024-04-13T12:42:21	31	34.5
62545	2024-04-13T12:52:21	32.7	32
62546	2024-04-13T13:02:21	31.9	32
62547	2024-04-13T13:12:21	32.5	30.5
62548	2024-04-13T13:22:21	34.4	29
62549	2024-04-13T13:32:21	34.2	28.5
62550	2024-04-13T13:42:21	36.2	26
62551	2024-04-13T13:52:21	35.3	26.5
62552	2024-04-13T14:02:21	34.7	26
62553	2024-04-13T14:12:21	35.7	24
62554	2024-04-13T14:22:21	36.6	23
62555	2024-04-13T14:32:21	35.8	23
62556	2024-04-13T14:42:21	35.5	24.5
62557	2024-04-13T14:52:21	36.3	23
62558	2024-04-13T15:02:21	36.7	23
62559	2024-04-13T15:12:21	35	24.5
62560	2024-04-13T15:22:21	37.6	22
62561	2024-04-13T15:32:21	37.3	22
62562	2024-04-13T15:42:21	36.7	21.5
62563	2024-04-13T15:52:21	34.8	25
62564	2024-04-13T16:02:21	33.7	26
62565	2024-04-13T16:12:21	33.4	26.5
62566	2024-04-13T16:22:21	33.1	26.5
62567	2024-04-13T16:32:21	32.3	28
62568	2024-04-13T16:42:21	30.7	29.5
62569	2024-04-13T16:52:21	29.7	32.5
62570	2024-04-13T17:02:20	28.7	36
62571	2024-04-13T17:12:20	28.5	36
62572	2024-04-13T17:22:20	27.8	39
62573	2024-04-13T17:32:20	26.8	42.5
62574	2024-04-13T17:42:20	25.8	44
62575	2024-04-13T17:52:20	25	46.5
62576	2024-04-13T18:02:20	24.6	50.5
62577	2024-04-13T18:12:20	24	52.5
62578	2024-04-13T18:22:20	23.6	52
62579	2024-04-13T18:32:20	23.1	53.5
62580	2024-04-13T18:42:20	22.5	53
62581	2024-04-13T18:52:20	22.2	54
62582	2024-04-13T19:02:20	21.7	55
62583	2024-04-13T19:12:20	21.4	54
62584	2024-04-13T19:22:20	21	56
62585	2024-04-13T19:32:20	20.5	57.5
62586	2024-04-13T19:42:20	20.1	60
62587	2024-04-13T19:52:20	19.7	60.5
62588	2024-04-13T20:02:20	19.4	62
62589	2024-04-13T20:12:20	19	63.5
62590	2024-04-13T20:22:20	18.8	63
62591	2024-04-13T20:32:20	18.6	62.5
62592	2024-04-13T20:42:20	18	66
62593	2024-04-13T20:52:20	17.8	67
62594	2024-04-13T21:02:20	17.6	67.5
62595	2024-04-13T21:12:20	17.1	69
62596	2024-04-13T21:22:20	17.1	69
62597	2024-04-13T21:32:20	16.9	69.5
62598	2024-04-13T21:42:20	16.6	70.5
62599	2024-04-13T21:52:20	16.3	71.5
62600	2024-04-13T22:02:20	16.2	71
62601	2024-04-13T22:12:20	16.1	71.5
62602	2024-04-13T22:22:20	15.8	73
62603	2024-04-13T22:32:20	15.6	73.5
62604	2024-04-13T22:42:20	15.4	74
62605	2024-04-13T22:52:20	15.2	74.5
62606	2024-04-13T23:02:20	15.1	74.5
62607	2024-04-13T23:12:20	14.9	75.5
62608	2024-04-13T23:22:20	14.7	76
62609	2024-04-13T23:32:20	14.5	76
62610	2024-04-13T23:42:20	14.7	75
62611	2024-04-13T23:52:20	14.7	74
62612	2024-04-14T00:02:20	14.3	75.5
62613	2024-04-14T00:12:20	14.2	76.5
62614	2024-04-14T00:22:20	14.2	75.5
62615	2024-04-14T00:32:20	13.8	76.5
62616	2024-04-14T00:42:20	13.8	77.5
62617	2024-04-14T00:52:20	13.4	78.5
62618	2024-04-14T01:02:20	13.3	78.5
62619	2024-04-14T01:12:20	13.3	78.5
62620	2024-04-14T01:22:20	13.2	78.5
62621	2024-04-14T01:32:20	13.1	79
62622	2024-04-14T01:42:20	12.9	79.5
62623	2024-04-14T01:52:20	12.7	80
62624	2024-04-14T02:02:20	12.7	80.5
62625	2024-04-14T02:12:20	12.6	80
62626	2024-04-14T02:22:20	12.5	80.5
62627	2024-04-14T02:32:20	12.4	81
62628	2024-04-14T02:42:20	12.4	80.5
62629	2024-04-14T02:52:20	12.5	80
62630	2024-04-14T03:02:20	12.3	81
62631	2024-04-14T03:12:20	12.5	80
62632	2024-04-14T03:22:20	12.6	78.5
62633	2024-04-14T03:32:20	12.5	78.5
62634	2024-04-14T03:42:20	12.3	79
62635	2024-04-14T03:52:20	12.7	78
62636	2024-04-14T04:02:20	12.6	78.5
62637	2024-04-14T04:12:20	12.9	77.5
62638	2024-04-14T04:22:20	13	77.5
62639	2024-04-14T04:32:20	12.7	78
62640	2024-04-14T04:42:20	12.8	78.5
62641	2024-04-14T04:52:20	12.9	78
62642	2024-04-14T05:02:19	12.6	79
62643	2024-04-14T05:12:19	12.7	79
62644	2024-04-14T05:22:19	13.1	78
62645	2024-04-14T05:32:19	13	79.5
62646	2024-04-14T05:42:19	12.8	80
62647	2024-04-14T05:52:19	13.1	79.5
62648	2024-04-14T06:02:19	13.3	81
62649	2024-04-14T06:12:19	13.5	79.5
62650	2024-04-14T06:22:19	13.8	81.5
62651	2024-04-14T06:32:19	14.2	79.5
62652	2024-04-14T06:42:19	14.7	76.5
62653	2024-04-14T06:52:19	15.6	74.5
62654	2024-04-14T07:02:19	16.3	72.5
62655	2024-04-14T07:12:19	16.7	71
62656	2024-04-14T07:22:19	16.9	69.5
62657	2024-04-14T07:32:19	17.2	68.5
62658	2024-04-14T07:42:19	17.7	68
62659	2024-04-14T07:52:19	18.1	66.5
62660	2024-04-14T08:02:19	18.5	65
62661	2024-04-14T08:12:19	18.6	65.5
62662	2024-04-14T08:22:19	18.9	63.5
62663	2024-04-14T08:32:19	19.2	63
62664	2024-04-14T08:42:19	19.5	62.5
62665	2024-04-14T08:52:19	19.6	63.5
62666	2024-04-14T09:02:19	19.7	63
62667	2024-04-14T09:12:19	20.1	62.5
62668	2024-04-14T09:22:19	20.3	61.5
62669	2024-04-14T09:32:19	20.9	60.5
62670	2024-04-14T09:42:19	21.4	60
62671	2024-04-14T09:52:19	21.5	58.5
62672	2024-04-14T10:02:19	21.6	58.5
62673	2024-04-14T10:12:19	21.6	60
62674	2024-04-14T10:22:19	21.9	59
62675	2024-04-14T10:32:19	22.1	58
62676	2024-04-14T10:42:19	22.7	56
62677	2024-04-14T10:52:19	22.7	55.5
62678	2024-04-14T11:02:19	23	56
62679	2024-04-14T11:12:19	23.2	54
62680	2024-04-14T11:22:19	23.4	53
62681	2024-04-14T11:32:19	23.8	51.5
62682	2024-04-14T11:42:19	24.1	51
62683	2024-04-14T11:52:19	24.4	50.5
62684	2024-04-14T12:02:19	25.2	47.5
62685	2024-04-14T12:12:19	27	44
62686	2024-04-14T12:22:19	28	43.5
62687	2024-04-14T12:32:19	29.5	39
62688	2024-04-14T12:42:19	29.6	39.5
62689	2024-04-14T12:52:19	30	38.5
62690	2024-04-14T13:02:19	27.7	42
62691	2024-04-14T13:12:19	26.7	43.5
62692	2024-04-14T13:22:19	28.3	40.5
62693	2024-04-14T13:32:19	31	33.5
62694	2024-04-14T13:42:19	30.9	32.5
62695	2024-04-14T13:52:19	32	31
62696	2024-04-14T14:02:19	31.3	31.5
62697	2024-04-14T14:12:19	30.8	32
62698	2024-04-14T14:22:19	31.8	29.5
62699	2024-04-14T14:32:19	31.1	31
62700	2024-04-14T14:42:19	31.6	30
62701	2024-04-14T14:52:19	31.9	30.5
62702	2024-04-14T15:02:19	31.4	30
62703	2024-04-14T15:12:19	31.7	30.5
62704	2024-04-14T15:22:19	31.6	29.5
62705	2024-04-14T15:32:19	30	31.5
62706	2024-04-14T15:42:19	29.5	33
62707	2024-04-14T15:52:19	29.2	33.5
62708	2024-04-14T16:02:18	28.9	36
62709	2024-04-14T16:12:18	27.5	37.5
62710	2024-04-14T16:22:18	26.8	38.5
62711	2024-04-14T16:32:18	26.5	39.5
62712	2024-04-14T16:42:18	26.5	39
62713	2024-04-14T16:52:18	26.6	40.5
62714	2024-04-14T17:02:18	26.5	42
62715	2024-04-14T17:12:18	26	44
62716	2024-04-14T17:22:18	25.5	44.5
62717	2024-04-14T17:32:18	24.9	46.5
62718	2024-04-14T17:42:18	24.2	48.5
62719	2024-04-14T17:52:18	23.8	51
62720	2024-04-14T18:02:18	23.5	53
62721	2024-04-14T18:12:18	22.7	55
62722	2024-04-14T18:22:18	22.2	56.5
62723	2024-04-14T18:32:18	21.6	57.5
62724	2024-04-14T18:42:18	21.1	59
62725	2024-04-14T18:52:18	21	60
62726	2024-04-14T19:02:18	20.8	62
62727	2024-04-14T19:12:18	20.4	62.5
62728	2024-04-14T19:22:18	19.9	64
62729	2024-04-14T19:32:18	19.8	63.5
62730	2024-04-14T19:42:18	19.7	65
62731	2024-04-14T19:52:18	19.9	64
62732	2024-04-14T20:02:18	19.8	64
62733	2024-04-14T20:12:18	19.8	64.5
62734	2024-04-14T20:22:18	19.7	66
62735	2024-04-14T20:32:18	19.8	66.5
62736	2024-04-14T20:42:18	19.6	67
62737	2024-04-14T20:52:18	19.5	67.5
62738	2024-04-14T21:02:18	19.4	67.5
62739	2024-04-14T21:12:18	19.3	69
62740	2024-04-14T21:22:18	19.2	68.5
62741	2024-04-14T21:32:18	19.2	70
62742	2024-04-14T21:42:18	19	70.5
62743	2024-04-14T21:52:18	19.1	70.5
62744	2024-04-14T22:02:18	18.9	70.5
62745	2024-04-14T22:12:18	18.8	71.5
62746	2024-04-14T22:22:18	18.7	72
62747	2024-04-14T22:32:18	18.8	73
62748	2024-04-14T22:42:18	18.5	73
62749	2024-04-14T22:52:18	18.6	72.5
62750	2024-04-14T23:02:36	18.4	73
62751	2024-04-14T23:12:18	18.3	75.5
62752	2024-04-14T23:22:18	18	75.5
62753	2024-04-14T23:32:18	17.8	75.5
62754	2024-04-14T23:42:18	17.2	91
62755	2024-04-14T23:52:18	17.4	78.5
62756	2024-04-15T00:02:18	17.3	78.5
62757	2024-04-15T00:12:18	17.2	77.5
62758	2024-04-15T00:22:18	17.2	76
62759	2024-04-15T00:32:18	16.9	76.5
62760	2024-04-15T00:42:18	16.8	74
62761	2024-04-15T00:52:18	16.9	73.5
62762	2024-04-15T01:02:18	16.8	74.5
62763	2024-04-15T01:12:18	16.7	76
62764	2024-04-15T01:22:18	16.4	77
62765	2024-04-15T01:32:18	16.3	77
62766	2024-04-15T01:42:18	16.1	76
62767	2024-04-15T01:52:18	16	74.5
62768	2024-04-15T02:02:18	15.9	74.5
62769	2024-04-15T02:12:18	14.8	92.5
62770	2024-04-15T02:22:18	14.2	95.5
62771	2024-04-15T02:32:18	14	97
62772	2024-04-15T02:42:18	13.7	98.5
62773	2024-04-15T02:52:18	13.5	99
62774	2024-04-15T03:02:33	13.4	98
62775	2024-04-15T03:12:17	13.2	95
62776	2024-04-15T03:22:17	13.3	93
62777	2024-04-15T03:32:17	13.3	89.5
62778	2024-04-15T03:42:17	13.3	90
62779	2024-04-15T03:52:17	13.2	90
62780	2024-04-15T04:02:17	13.2	87.5
62781	2024-04-15T04:12:17	12.5	99
62782	2024-04-15T04:22:17	12.3	99.5
62783	2024-04-15T04:32:17	12.4	100
62784	2024-04-15T04:42:17	12.2	100
62785	2024-04-15T04:52:17	12.4	100
62786	2024-04-15T05:02:17	12.4	100
62787	2024-04-15T05:12:17	12.3	100
62788	2024-04-15T05:22:17	12.4	100
62789	2024-04-15T05:32:17	12.3	99.5
62790	2024-04-15T05:42:17	12.4	99
62791	2024-04-15T05:52:17	12.5	94.5
62792	2024-04-15T06:02:17	12.6	94
62793	2024-04-15T06:12:17	12.6	93
62794	2024-04-15T06:22:17	12.7	93
62795	2024-04-15T06:32:17	12.8	92
62796	2024-04-15T06:42:17	12.9	92
62797	2024-04-15T06:52:17	12.8	92.5
62798	2024-04-15T07:02:17	12.7	97.5
62799	2024-04-15T07:12:17	12.5	99
62800	2024-04-15T07:22:17	12.4	100
62801	2024-04-15T07:32:17	12.5	100
62802	2024-04-15T07:42:17	12.3	100
62803	2024-04-15T07:52:17	12.4	99
62804	2024-04-15T08:02:17	12.4	95.5
62805	2024-04-15T08:12:17	12.9	95
62806	2024-04-15T08:22:17	13.3	91
62807	2024-04-15T08:32:17	13.4	91
62808	2024-04-15T08:42:17	13.8	86.5
62809	2024-04-15T08:52:17	14.4	84.5
62810	2024-04-15T09:02:17	14.7	82
62811	2024-04-15T09:12:17	14.5	82.5
62812	2024-04-15T09:22:17	15	81
62813	2024-04-15T09:32:17	15.2	77
62814	2024-04-15T09:42:17	15.5	76.5
62815	2024-04-15T09:52:17	15.8	74.5
62816	2024-04-15T10:02:17	16.4	72.5
62817	2024-04-15T10:12:17	16.5	72
62818	2024-04-15T10:22:17	16.8	72.5
62819	2024-04-15T10:32:17	17	70
62820	2024-04-15T10:42:17	17.3	69.5
62821	2024-04-15T10:52:17	16.9	69.5
62822	2024-04-15T11:02:17	16.8	69.5
62823	2024-04-15T11:12:17	17.7	67
62824	2024-04-15T11:22:17	17.2	67.5
62825	2024-04-15T11:32:17	17.4	66.5
62826	2024-04-15T11:42:17	18	64
62827	2024-04-15T11:52:17	18.3	63.5
62828	2024-04-15T12:02:17	19	58.5
62829	2024-04-15T12:12:17	20	55
62830	2024-04-15T12:22:17	22.2	45
62831	2024-04-15T12:32:17	23.4	44
62832	2024-04-15T12:42:17	23.3	42
62833	2024-04-15T12:52:17	24.2	39
62834	2024-04-15T13:02:17	24.9	32.5
62835	2024-04-15T13:12:17	25.1	34
62836	2024-04-15T13:22:17	24.9	34.5
62837	2024-04-15T13:32:17	22.8	38.5
62838	2024-04-15T13:42:17	25.1	33.5
62839	2024-04-15T13:52:17	25.8	31
62840	2024-04-15T14:02:17	25.1	31.5
62841	2024-04-15T14:12:17	21.6	37.5
62842	2024-04-15T14:22:17	24.7	31.5
62843	2024-04-15T14:32:17	20.8	36
62844	2024-04-15T14:42:17	22.2	34
62845	2024-04-15T14:52:17	19.9	37.5
62846	2024-04-15T15:02:17	22.7	35
62847	2024-04-15T15:12:17	22.1	33.5
62848	2024-04-15T15:22:17	20.3	35
62849	2024-04-15T15:32:16	19.5	35.5
62850	2024-04-15T15:42:16	19	36.5
62851	2024-04-15T15:52:16	18.4	36.5
62852	2024-04-15T16:02:16	18	36
62853	2024-04-15T16:12:16	17.7	38
62854	2024-04-15T16:22:16	17.4	39
62855	2024-04-15T16:32:16	17.1	39
62856	2024-04-15T16:42:16	18.9	35.5
62857	2024-04-15T16:52:16	17.8	37.5
62858	2024-04-15T17:02:16	17.2	39
62859	2024-04-15T17:12:17	16.5	40
62860	2024-04-15T17:22:16	16.1	41
62861	2024-04-15T17:32:16	16.3	40
62862	2024-04-15T17:42:16	15.9	40
62863	2024-04-15T17:52:16	15.8	40
62864	2024-04-15T18:02:16	15.6	40.5
62865	2024-04-15T18:12:16	14.4	52
62866	2024-04-15T18:22:16	12.8	57.5
62867	2024-04-15T18:32:16	11.7	56
62868	2024-04-15T18:42:16	10.2	64
62869	2024-04-15T18:52:16	8.6	85.5
62870	2024-04-15T19:02:16	7.4	94.5
62871	2024-04-15T19:12:16	7.2	99.5
62872	2024-04-15T19:22:16	6.8	100
62873	2024-04-15T19:32:16	7	100
62874	2024-04-15T19:42:16	6.7	100
62875	2024-04-15T19:52:16	6.8	100
62876	2024-04-15T20:02:16	6.4	100
62877	2024-04-15T20:12:16	6.2	100
62878	2024-04-15T20:22:16	6.1	100
62879	2024-04-15T20:32:16	5.9	100
62880	2024-04-15T20:42:16	5.9	100
62881	2024-04-15T20:52:16	5.8	100
62882	2024-04-15T21:02:16	5.7	100
62883	2024-04-15T21:12:16	5.6	100
62884	2024-04-15T21:22:16	5.5	100
62885	2024-04-15T21:32:16	5.5	100
62886	2024-04-15T21:42:16	5.7	100
62887	2024-04-15T21:52:16	5.4	100
62888	2024-04-15T22:02:16	5.4	100
62889	2024-04-15T22:12:16	5.8	100
62890	2024-04-15T22:22:16	5.9	100
62891	2024-04-15T22:32:16	5.9	100
62892	2024-04-15T22:42:16	6.1	100
62893	2024-04-15T22:52:16	6.2	100
62894	2024-04-15T23:25:03	6.3	100
62895	2024-04-15T23:25:03	6.4	100
62896	2024-04-15T23:25:03	6.4	100
62897	2024-04-15T23:32:16	6.4	100
62898	2024-04-15T23:42:16	6.4	100
62899	2024-04-15T23:52:16	6.6	100
62900	2024-04-16T00:02:16	6.7	100
62901	2024-04-16T00:12:16	6.6	100
62902	2024-04-16T00:22:16	6.7	100
62903	2024-04-16T00:32:16	6.4	100
62904	2024-04-16T00:42:16	6.5	100
62905	2024-04-16T00:52:16	6.7	100
62906	2024-04-16T01:02:16	6.8	100
62907	2024-04-16T01:12:16	6.7	100
62908	2024-04-16T01:22:16	6.8	100
62909	2024-04-16T01:32:16	6.6	100
62910	2024-04-16T01:42:16	6.7	100
62911	2024-04-16T01:52:16	6.9	100
62912	2024-04-16T02:02:16	6.9	100
62913	2024-04-16T02:12:16	7.1	100
62914	2024-04-16T02:22:16	7.3	100
62915	2024-04-16T02:32:16	7.2	100
62916	2024-04-16T02:42:16	7.2	100
62917	2024-04-16T02:52:16	6.9	100
62918	2024-04-16T03:02:16	7	100
62919	2024-04-16T03:12:16	6.8	100
62920	2024-04-16T03:22:16	6.6	100
62921	2024-04-16T03:32:16	6.3	100
62922	2024-04-16T03:42:16	6.1	100
62923	2024-04-16T03:52:16	5.9	100
62924	2024-04-16T04:02:16	6.1	100
62925	2024-04-16T04:12:16	6.4	100
62926	2024-04-16T04:22:16	6.4	88.5
62927	2024-04-16T04:32:16	6.4	84.5
62928	2024-04-16T04:42:16	6.5	81.5
62929	2024-04-16T04:52:16	6.4	81.5
62930	2024-04-16T05:02:16	6.5	81.5
62931	2024-04-16T05:12:16	6.7	81.5
62932	2024-04-16T05:22:16	6.8	81.5
62933	2024-04-16T05:32:16	7	79
62934	2024-04-16T05:42:16	7.2	78
62935	2024-04-16T05:52:16	7.3	77
62936	2024-04-16T06:02:16	7.3	75.5
62937	2024-04-16T06:12:16	7.5	74.5
62938	2024-04-16T06:22:16	7.6	74
62939	2024-04-16T06:32:16	7.5	73
62940	2024-04-16T06:42:16	7.7	70.5
62941	2024-04-16T06:52:16	8	70
62942	2024-04-16T07:02:16	8.7	69
62943	2024-04-16T07:12:16	8.8	65.5
62944	2024-04-16T07:22:16	8.1	72.5
62945	2024-04-16T07:32:16	6.4	96
62946	2024-04-16T07:42:16	5.9	99.5
62947	2024-04-16T07:52:16	5.7	100
62948	2024-04-16T08:02:16	5.7	100
62949	2024-04-16T08:12:16	5.7	100
62950	2024-04-16T08:22:16	5.8	100
62951	2024-04-16T08:32:16	5.9	100
62952	2024-04-16T08:42:16	5.6	100
62953	2024-04-16T08:52:16	5.6	100
62954	2024-04-16T09:02:16	5.9	100
62955	2024-04-16T09:12:16	5.5	100
62956	2024-04-16T09:22:16	5.7	100
62957	2024-04-16T09:32:16	5.7	100
62958	2024-04-16T09:42:16	5.8	100
62959	2024-04-16T09:52:16	6.2	100
62960	2024-04-16T10:02:16	6.4	100
62961	2024-04-16T10:12:16	6.7	100
62962	2024-04-16T10:22:16	6.8	100
62963	2024-04-16T10:32:16	6.5	100
62964	2024-04-16T10:42:16	6.4	100
62965	2024-04-16T10:52:16	6.3	100
62966	2024-04-16T11:02:15	6.3	100
62967	2024-04-16T11:12:15	6.5	100
62968	2024-04-16T11:22:15	6.6	100
62969	2024-04-16T11:32:15	7.1	100
62970	2024-04-16T11:42:15	7.6	100
62971	2024-04-16T11:52:15	7.2	100
62972	2024-04-16T12:02:15	7.2	100
62973	2024-04-16T12:12:15	7.9	100
62974	2024-04-16T12:22:15	10.7	100
62975	2024-04-16T12:32:15	10.3	100
62976	2024-04-16T12:42:15	9.2	100
62977	2024-04-16T12:52:15	12.6	100
62978	2024-04-16T13:02:15	11.6	100
62979	2024-04-16T13:12:15	11.3	100
62980	2024-04-16T13:22:15	11.6	100
62981	2024-04-16T13:32:15	11.6	100
62982	2024-04-16T13:42:15	11.2	100
62983	2024-04-16T13:52:15	11.3	100
62984	2024-04-16T14:02:15	11.4	99.5
62985	2024-04-16T14:12:15	11.2	98
62986	2024-04-16T14:22:15	11.3	99
62987	2024-04-16T14:32:15	10.7	97.5
62988	2024-04-16T14:42:15	9.9	100
62989	2024-04-16T14:52:15	9.2	100
62990	2024-04-16T15:02:15	9.3	93.5
62991	2024-04-16T15:12:15	9.5	88.5
62992	2024-04-16T15:22:15	11.9	76
62993	2024-04-16T15:32:15	11.3	76.5
62994	2024-04-16T15:42:15	12.5	69.5
62995	2024-04-16T15:52:15	10.9	73.5
62996	2024-04-16T16:02:15	10.4	76.5
62997	2024-04-16T16:12:15	9	96.5
62998	2024-04-16T16:22:15	9.2	94
62999	2024-04-16T16:32:15	9.2	93.5
63000	2024-04-16T16:42:15	9.8	94
63001	2024-04-16T16:52:15	9.7	94
63002	2024-04-16T17:02:15	9.7	94
63003	2024-04-16T17:12:15	9.4	94.5
63004	2024-04-16T17:22:15	8.7	94.5
63005	2024-04-16T17:32:15	8	94
63006	2024-04-16T17:42:15	8.1	94
63007	2024-04-16T17:52:15	7.9	94.5
63008	2024-04-16T18:02:15	7.9	94.5
63009	2024-04-16T18:12:15	8	94.5
63010	2024-04-16T18:22:15	8	94.5
63011	2024-04-16T18:32:15	8	94.5
63012	2024-04-16T18:42:15	7.9	94.5
63013	2024-04-16T18:52:15	7.6	94.5
63014	2024-04-16T19:02:15	7.2	94.5
63015	2024-04-16T19:12:15	7.1	94.5
63016	2024-04-16T19:22:15	7	94.5
63017	2024-04-16T19:32:15	6.9	94.5
63018	2024-04-16T19:42:15	6.9	94.5
63019	2024-04-16T19:52:15	6.9	94.5
63020	2024-04-16T20:02:15	6.9	94.5
63021	2024-04-16T20:12:15	7	94.5
63022	2024-04-16T20:22:15	6.9	94.5
63023	2024-04-16T20:32:15	6.8	95
63024	2024-04-16T20:42:15	6.7	94.5
63025	2024-04-16T20:52:15	6.8	95
63026	2024-04-16T21:02:15	6.7	95
63027	2024-04-16T21:12:15	6.7	95
63028	2024-04-16T21:22:15	6.7	95
63029	2024-04-16T21:32:15	6.8	95
63030	2024-04-16T21:42:15	6.8	95
63031	2024-04-16T21:52:15	6.7	95
63032	2024-04-16T22:02:15	6.7	95
63033	2024-04-16T22:12:15	6.8	95
63034	2024-04-16T22:22:15	6.7	95
63035	2024-04-16T22:32:15	6.7	95.5
63036	2024-04-16T22:42:15	6.4	95
63037	2024-04-16T22:52:15	6.2	95
63038	2024-04-16T23:25:03	6.2	95
63039	2024-04-16T23:25:03	6.2	95
63040	2024-04-16T23:25:03	6.3	95
63041	2024-04-16T23:32:15	6.3	95
63042	2024-04-16T23:42:15	6.3	95
63043	2024-04-16T23:52:15	6.3	95
63044	2024-04-17T00:02:15	6.2	95
63045	2024-04-17T00:12:15	6.2	95
63046	2024-04-17T00:22:15	6.3	95
63047	2024-04-17T00:32:15	6.3	95
63048	2024-04-17T00:42:15	6.2	95
63049	2024-04-17T00:52:15	6.2	95
63050	2024-04-17T01:02:15	6.3	95
63051	2024-04-17T01:12:15	6	95
63052	2024-04-17T01:22:15	6.1	95
63053	2024-04-17T01:32:15	6.1	95
63054	2024-04-17T01:42:15	6	95
63055	2024-04-17T01:52:15	6	95
63056	2024-04-17T02:02:15	6.1	95
63057	2024-04-17T02:12:15	6.2	95
63058	2024-04-17T02:22:15	6.1	95
63059	2024-04-17T02:32:15	6.1	95
63060	2024-04-17T02:42:15	6.2	95.5
63061	2024-04-17T02:52:15	6.2	95
63062	2024-04-17T03:02:15	6.3	95.5
63063	2024-04-17T03:12:15	6.4	95.5
63064	2024-04-17T03:22:15	6.3	95.5
63065	2024-04-17T03:32:15	6.2	95.5
63066	2024-04-17T03:42:15	6.2	95.5
63067	2024-04-17T03:52:15	6.1	95.5
63068	2024-04-17T04:02:15	6	95.5
63069	2024-04-17T04:12:15	6	95.5
63070	2024-04-17T04:22:15	6.1	95.5
63071	2024-04-17T04:32:15	6	95.5
63072	2024-04-17T04:42:15	6	95.5
63073	2024-04-17T04:52:15	5.9	95
63074	2024-04-17T05:02:15	5.8	95.5
63075	2024-04-17T05:12:15	5.8	95.5
63076	2024-04-17T05:22:15	5.7	95.5
63077	2024-04-17T05:32:15	5.7	95.5
63078	2024-04-17T05:42:15	5.7	95.5
63079	2024-04-17T05:52:15	5.6	95.5
63080	2024-04-17T06:02:15	5.6	95.5
63081	2024-04-17T06:12:15	5.6	95.5
63082	2024-04-17T06:22:15	5.6	95.5
63083	2024-04-17T06:32:15	5.5	95.5
63084	2024-04-17T06:42:14	5.6	95.5
63085	2024-04-17T06:52:15	5.6	95.5
63086	2024-04-17T07:02:14	5.8	95.5
63087	2024-04-17T07:12:14	6	95.5
63088	2024-04-17T07:22:14	6	95.5
63089	2024-04-17T07:32:14	6.2	95.5
63090	2024-04-17T07:42:14	6.4	95.5
63091	2024-04-17T07:52:14	6.2	95.5
63092	2024-04-17T08:02:14	6.3	95.5
63093	2024-04-17T08:12:14	6.2	95.5
63094	2024-04-17T08:22:14	6.5	95.5
63095	2024-04-17T08:32:14	6.7	95.5
63096	2024-04-17T08:42:14	7.7	95.5
63097	2024-04-17T08:52:14	8.1	95.5
63098	2024-04-17T09:02:14	7.7	95.5
63099	2024-04-17T09:12:14	7.9	95.5
63100	2024-04-17T09:22:14	8	95.5
63101	2024-04-17T09:32:14	7.6	95.5
63102	2024-04-17T09:42:14	7.6	95.5
63103	2024-04-17T09:52:14	8.4	95.5
63104	2024-04-17T10:02:14	8.8	95.5
63105	2024-04-17T10:12:14	9.5	95.5
63106	2024-04-17T10:22:14	9.6	95.5
63107	2024-04-17T10:32:14	8.9	95.5
63108	2024-04-17T10:42:14	8.2	95.5
63109	2024-04-17T10:52:14	7.5	95.5
63110	2024-04-17T11:02:14	6.3	95.5
63111	2024-04-17T11:12:14	5.9	95.5
63112	2024-04-17T11:22:14	5.7	95.5
63113	2024-04-17T11:32:14	6.6	95.5
63114	2024-04-17T11:42:14	7.7	95.5
63115	2024-04-17T11:52:14	8	95.5
63116	2024-04-17T12:02:14	9.8	95.5
63117	2024-04-17T12:12:14	10	95.5
63118	2024-04-17T12:22:14	10.2	95.5
63119	2024-04-17T12:32:14	10.5	95.5
63120	2024-04-17T12:42:14	15.3	96
63121	2024-04-17T12:52:14	15.7	95.5
63122	2024-04-17T13:02:14	13.5	96
63123	2024-04-17T13:12:14	13	96
63124	2024-04-17T13:22:14	14.2	96
63125	2024-04-17T13:32:14	12.9	96
63126	2024-04-17T13:42:14	12.1	95.5
63127	2024-04-17T13:52:14	14.3	95.5
63128	2024-04-17T14:02:14	13	95
63129	2024-04-17T14:12:14	14.9	95
63130	2024-04-17T14:22:14	17.9	95.5
63131	2024-04-17T14:32:14	19.4	95.5
63132	2024-04-17T14:42:14	19.8	95.5
63133	2024-04-17T14:52:14	19.7	95.5
63134	2024-04-17T15:02:14	13.6	96
63135	2024-04-17T15:12:14	12.5	96
63136	2024-04-17T15:22:14	11.6	96
63137	2024-04-17T15:32:31	9.7	96
63138	2024-04-17T15:42:14	7.9	96
63139	2024-04-17T15:52:14	7.5	96
63140	2024-04-17T16:02:14	9.9	99
63141	2024-04-17T16:12:14	8.8	99
63142	2024-04-17T16:22:14	8.4	99
63143	2024-04-17T16:32:14	8.3	99
63144	2024-04-17T16:42:14	8.3	99
63145	2024-04-17T16:52:14	8.2	99
63146	2024-04-17T17:02:14	8.2	99
63147	2024-04-17T17:12:14	8	99
63148	2024-04-17T17:22:14	8	99
63149	2024-04-17T17:32:14	7.9	99
63150	2024-04-17T17:42:14	7.7	99
63151	2024-04-17T17:52:14	7.7	99
63152	2024-04-17T18:02:34	7.5	100
63153	2024-04-17T18:12:14	7.4	100
63154	2024-04-17T18:22:14	7	100
63155	2024-04-17T18:32:14	6.9	100
63156	2024-04-17T18:42:14	7	100
63157	2024-04-17T18:52:14	6.6	100
63158	2024-04-17T19:02:14	6.2	100
63159	2024-04-17T19:12:14	6	100
63160	2024-04-17T19:22:14	5.7	100
63161	2024-04-17T19:32:14	6	100
63162	2024-04-17T19:42:14	5.8	100
63163	2024-04-17T19:52:14	5.6	100
63164	2024-04-17T20:02:14	5.3	100
63165	2024-04-17T20:12:14	5.2	100
63166	2024-04-17T20:22:14	5.1	100
63167	2024-04-17T20:32:14	4.9	100
63168	2024-04-17T20:42:14	4.9	100
63169	2024-04-17T20:52:14	4.8	100
63170	2024-04-17T21:02:14	4.8	100
63171	2024-04-17T21:12:14	4.7	100
63172	2024-04-17T21:22:14	4.7	100
63173	2024-04-17T21:32:14	4.9	100
63174	2024-04-17T21:42:14	4.9	100
63175	2024-04-17T21:52:14	4.7	100
63176	2024-04-17T22:02:14	4.6	100
63177	2024-04-17T22:12:14	4.7	100
63178	2024-04-17T22:22:14	4.7	100
63179	2024-04-17T22:32:14	4.9	100
63180	2024-04-17T22:42:14	4.8	100
63181	2024-04-17T22:52:14	4.8	100
63182	2024-04-17T23:25:25	4.8	100
63183	2024-04-17T23:25:26	4.9	100
63184	2024-04-17T23:25:26	4.9	100
63185	2024-04-17T23:32:14	5	100
63186	2024-04-17T23:42:14	5	100
63187	2024-04-17T23:52:14	4.9	100
63188	2024-04-18T00:02:14	4.9	100
63189	2024-04-18T00:12:14	4.7	100
63190	2024-04-18T00:22:14	4.7	100
63191	2024-04-18T00:32:14	4.7	100
63192	2024-04-18T00:42:14	4.8	100
63193	2024-04-18T00:52:14	4.9	100
63194	2024-04-18T01:02:14	4.8	100
63195	2024-04-18T01:12:14	4.6	100
63196	2024-04-18T01:22:14	4.6	100
63197	2024-04-18T01:32:14	4.6	100
63198	2024-04-18T01:42:14	4.5	100
63199	2024-04-18T01:52:14	4.4	100
63200	2024-04-18T02:02:14	4.5	100
63201	2024-04-18T02:12:14	4.5	100
63202	2024-04-18T02:22:14	4.5	100
63203	2024-04-18T02:32:14	4.4	100
63204	2024-04-18T02:42:14	4.4	100
63205	2024-04-18T02:52:14	4.4	100
63206	2024-04-18T03:02:14	4.5	100
63207	2024-04-18T03:12:13	4.5	100
63208	2024-04-18T03:22:13	4.1	100
63209	2024-04-18T03:32:13	4	100
63210	2024-04-18T03:42:13	4.1	100
63211	2024-04-18T03:52:13	4	99.5
63212	2024-04-18T04:02:13	4.1	99.5
63213	2024-04-18T04:12:13	4	99.5
63214	2024-04-18T04:22:13	4	99.5
63215	2024-04-18T04:32:13	4	99.5
63216	2024-04-18T04:42:13	4.1	99.5
63217	2024-04-18T04:52:13	4	99.5
63218	2024-04-18T05:02:13	4	100
63219	2024-04-18T05:12:13	3.9	100
63220	2024-04-18T05:22:13	3.9	100
63221	2024-04-18T05:32:13	3.9	100
63222	2024-04-18T05:42:13	3.9	100
63223	2024-04-18T05:52:13	3.8	100
63224	2024-04-18T06:02:13	3.7	100
63225	2024-04-18T06:12:13	3.9	100
63226	2024-04-18T06:22:13	3.8	100
63227	2024-04-18T06:32:13	3.9	100
63228	2024-04-18T06:42:13	3.9	100
63229	2024-04-18T06:52:13	4.1	100
63230	2024-04-18T07:02:13	4.4	100
63231	2024-04-18T07:12:13	4.9	100
63232	2024-04-18T07:22:13	4.9	100
63233	2024-04-18T07:32:13	4.6	100
63234	2024-04-18T07:42:13	4.4	100
63235	2024-04-18T07:52:13	4.5	100
63236	2024-04-18T08:02:13	4.4	100
63237	2024-04-18T08:12:13	4.6	100
63238	2024-04-18T08:22:13	4.8	100
63239	2024-04-18T08:32:13	4.9	100
63240	2024-04-18T08:42:13	5.3	100
63241	2024-04-18T08:52:13	5.4	100
63242	2024-04-18T09:02:13	5.8	100
63243	2024-04-18T09:12:13	6.5	100
63244	2024-04-18T09:22:13	7	100
63245	2024-04-18T09:32:13	7.4	100
63246	2024-04-18T09:42:13	7.2	100
63247	2024-04-18T09:52:13	8.3	100
63248	2024-04-18T10:02:13	8.5	100
63249	2024-04-18T10:12:13	8.2	100
63250	2024-04-18T10:22:13	7.8	100
63251	2024-04-18T10:32:13	7.8	100
63252	2024-04-18T10:42:13	9.1	91.5
63253	2024-04-18T10:52:13	9.2	87
63254	2024-04-18T11:02:13	8.7	89.5
63255	2024-04-18T11:12:13	8.8	84.5
63256	2024-04-18T11:22:13	9	85.5
63257	2024-04-18T11:32:13	10.2	83.5
63258	2024-04-18T11:42:13	9.8	85
63259	2024-04-18T11:52:13	9.3	81.5
63260	2024-04-18T12:02:13	8.8	80.5
63261	2024-04-18T12:12:13	13.4	72
63262	2024-04-18T12:22:13	17.4	53.5
63263	2024-04-18T12:32:13	12.3	66.5
63264	2024-04-18T12:42:13	11.3	66
63265	2024-04-18T12:52:13	9.3	100
63266	2024-04-18T13:02:13	9.3	100
63267	2024-04-18T13:12:13	9.9	100
63268	2024-04-18T13:22:13	10.9	100
63269	2024-04-18T13:32:13	14.4	100
63270	2024-04-18T13:42:13	18.6	100
63271	2024-04-18T13:52:13	21.7	67
63272	2024-04-18T14:02:13	21.7	43
63273	2024-04-18T14:22:13	14.4	59.5
63274	2024-04-18T14:32:13	18.2	47
63275	2024-04-18T14:42:13	19.2	49
63276	2024-04-18T14:52:13	20.4	43.5
63277	2024-04-18T15:02:13	16.1	52
63278	2024-04-18T15:12:13	12.8	63.5
63279	2024-04-18T15:22:13	11.3	81
63280	2024-04-18T15:32:13	16.2	59
63281	2024-04-18T15:42:13	19.2	48
63282	2024-04-18T15:52:13	20.1	47
63283	2024-04-18T16:02:13	14.8	54
63284	2024-04-18T16:12:13	12.1	64.5
63285	2024-04-18T16:22:13	9.7	98.5
63286	2024-04-18T16:32:13	8.9	100
63287	2024-04-18T16:42:13	8.7	100
63288	2024-04-18T16:52:13	8.2	100
63289	2024-04-18T17:02:13	7.9	100
63290	2024-04-18T17:12:13	7.9	100
63291	2024-04-18T17:22:13	8	100
63292	2024-04-18T17:32:13	8.2	100
63293	2024-04-18T17:42:13	7.5	100
63294	2024-04-18T17:52:13	7.1	100
63295	2024-04-18T18:02:13	6.7	100
63296	2024-04-18T18:12:13	6.2	100
63297	2024-04-18T18:22:13	6	100
63298	2024-04-18T18:32:13	5.7	100
63299	2024-04-18T18:42:13	5.6	100
63300	2024-04-18T18:52:13	5.5	100
63301	2024-04-18T19:02:13	5.1	100
63302	2024-04-18T19:12:13	5	100
63303	2024-04-18T19:22:13	5.2	100
63304	2024-04-18T19:42:13	5.2	100
63305	2024-04-18T19:52:13	5.4	100
63306	2024-04-18T20:02:13	5.3	100
63307	2024-04-18T20:12:13	5.1	100
63308	2024-04-18T20:22:13	5.3	100
63309	2024-04-18T20:32:13	5.3	100
63310	2024-04-18T20:42:13	5.3	100
63311	2024-04-18T20:52:13	5.2	100
63312	2024-04-18T21:02:13	5	100
63313	2024-04-18T21:12:13	4.6	100
63314	2024-04-18T21:22:13	4.6	100
63315	2024-04-18T21:32:13	4.5	100
63316	2024-04-18T21:42:13	4.6	100
63317	2024-04-18T21:52:13	4.6	100
63318	2024-04-18T22:02:13	4.4	100
63319	2024-04-18T22:12:13	4.3	100
63320	2024-04-18T22:22:13	4.3	100
63321	2024-04-18T22:32:13	4.3	100
63322	2024-04-18T22:42:13	4.6	100
63323	2024-04-18T22:52:13	4.3	100
63324	2024-04-18T23:24:56	4.2	100
63325	2024-04-18T23:24:56	4.1	100
63326	2024-04-18T23:24:56	4.1	100
63327	2024-04-18T23:32:13	4.1	100
63328	2024-04-18T23:42:13	4.2	100
63329	2024-04-18T23:52:13	4.5	100
63330	2024-04-19T00:02:12	4.6	100
63331	2024-04-19T00:12:12	4.7	100
63332	2024-04-19T00:22:13	4.8	100
63333	2024-04-19T00:32:12	4.8	100
63334	2024-04-19T00:42:13	4.8	100
63335	2024-04-19T00:52:12	4.7	100
63336	2024-04-19T01:02:12	4.8	100
63337	2024-04-19T01:12:12	4.7	100
63338	2024-04-19T01:22:12	4.5	100
63339	2024-04-19T01:32:12	4.7	100
63340	2024-04-19T01:42:12	4.9	100
63341	2024-04-19T01:52:12	4.9	100
63342	2024-04-19T02:02:12	4.9	100
63343	2024-04-19T02:12:12	5.1	100
63344	2024-04-19T02:22:12	5.3	100
63345	2024-04-19T02:32:12	5.2	100
63346	2024-04-19T02:42:12	5.2	100
63347	2024-04-19T02:52:12	5.2	100
63348	2024-04-19T03:02:12	5.1	100
63349	2024-04-19T03:12:12	5.3	100
63350	2024-04-19T03:22:12	5.5	100
63351	2024-04-19T03:32:12	5.5	100
63352	2024-04-19T03:42:12	5.6	100
63353	2024-04-19T03:52:12	5.6	100
63354	2024-04-19T04:02:12	5.6	100
63355	2024-04-19T04:12:12	5.5	100
63356	2024-04-19T04:22:12	5.5	100
63357	2024-04-19T04:32:12	5.7	100
63358	2024-04-19T04:42:12	5.7	100
63359	2024-04-19T04:52:12	5.7	100
63360	2024-04-19T05:02:12	5.6	100
63361	2024-04-19T05:12:12	5.3	100
63362	2024-04-19T05:22:12	5.4	100
63363	2024-04-19T05:32:12	5.5	100
63364	2024-04-19T05:42:12	5.6	100
63365	2024-04-19T05:52:12	5.7	100
63366	2024-04-19T06:02:12	5.5	100
63367	2024-04-19T06:12:12	5.5	100
63368	2024-04-19T06:22:12	5.6	100
63369	2024-04-19T06:32:12	5.5	100
63370	2024-04-19T06:42:12	5.4	100
63371	2024-04-19T06:52:12	5.3	100
63372	2024-04-19T07:02:12	5.3	100
63373	2024-04-19T07:12:12	5.3	100
63374	2024-04-19T07:22:12	5.2	100
63375	2024-04-19T07:32:12	5.1	100
63376	2024-04-19T07:42:12	5	100
63377	2024-04-19T07:52:12	4.9	100
63378	2024-04-19T08:02:12	4.7	100
63379	2024-04-19T08:12:12	4.9	100
63380	2024-04-19T08:22:12	4.7	100
63381	2024-04-19T08:32:12	4.7	100
63382	2024-04-19T08:42:12	4.6	100
63383	2024-04-19T08:52:12	4.6	100
63384	2024-04-19T09:02:12	4.6	100
63385	2024-04-19T09:12:12	4.6	100
63386	2024-04-19T09:22:12	4.8	100
63387	2024-04-19T09:32:12	4.8	100
63388	2024-04-19T09:42:12	4.9	100
63389	2024-04-19T09:52:12	5	100
63390	2024-04-19T10:02:12	5.2	100
63391	2024-04-19T10:12:12	5.5	100
63392	2024-04-19T10:22:12	5.6	100
63393	2024-04-19T10:32:12	5.5	100
63394	2024-04-19T10:42:12	5.5	100
63395	2024-04-19T10:52:12	5.5	100
63396	2024-04-19T11:02:12	5.5	100
63397	2024-04-19T11:12:12	5.4	100
63398	2024-04-19T11:22:12	5.4	100
63399	2024-04-19T11:32:12	5.5	100
63400	2024-04-19T11:42:12	5.4	100
63401	2024-04-19T11:52:12	5.4	100
63402	2024-04-19T12:02:12	5.5	100
63403	2024-04-19T12:12:12	5.4	100
63404	2024-04-19T12:22:12	5.4	100
63405	2024-04-19T12:32:12	5.7	100
63406	2024-04-19T12:42:12	5.6	100
63407	2024-04-19T12:52:12	5.7	100
63408	2024-04-19T13:02:12	5.8	100
63409	2024-04-19T13:12:12	5.8	100
63410	2024-04-19T13:22:12	5.7	100
63411	2024-04-19T13:32:12	5.9	100
63412	2024-04-19T13:42:12	5.8	100
63413	2024-04-19T13:52:12	5.9	100
63414	2024-04-19T14:02:12	6	100
63415	2024-04-19T14:12:12	5.9	100
63416	2024-04-19T14:22:12	6	100
63417	2024-04-19T14:32:12	6	100
63418	2024-04-19T14:42:12	6	100
63419	2024-04-19T14:52:12	6.1	100
63420	2024-04-19T15:02:12	6	100
63421	2024-04-19T15:12:12	5.8	100
63422	2024-04-19T15:22:12	5.9	100
63423	2024-04-19T15:32:12	5.8	100
63424	2024-04-19T15:42:12	6	100
63425	2024-04-19T15:52:12	6	100
63426	2024-04-19T16:02:12	6	100
63427	2024-04-19T16:12:12	6.2	96.5
63428	2024-04-19T16:22:12	6.1	96.5
63429	2024-04-19T16:32:12	6.4	96.5
63430	2024-04-19T16:42:12	6.7	96.5
63431	2024-04-19T16:52:12	6.7	96.5
63432	2024-04-19T17:02:12	7	96.5
63433	2024-04-19T17:12:12	7	96.5
63434	2024-04-19T17:22:12	7.2	96.5
63435	2024-04-19T17:32:12	7.3	96.5
63436	2024-04-19T17:42:12	7.1	96.5
63437	2024-04-19T17:52:12	7.3	96.5
63438	2024-04-19T18:02:12	7.3	96.5
63439	2024-04-19T18:12:12	7.2	96.5
63440	2024-04-19T18:22:12	7.2	96.5
63441	2024-04-19T18:32:12	7.2	96.5
63442	2024-04-19T18:42:12	7.2	96.5
63443	2024-04-19T18:52:12	7.2	96.5
63444	2024-04-19T19:02:12	6.9	96.5
63445	2024-04-19T19:12:12	6.8	96.5
63446	2024-04-19T19:22:12	6.6	96.5
63447	2024-04-19T19:32:12	6.3	96.5
63448	2024-04-19T19:42:12	6.4	96.5
63449	2024-04-19T19:52:12	6.3	96.5
63450	2024-04-19T20:02:12	6.4	96.5
63451	2024-04-19T20:12:12	6.4	96.5
63452	2024-04-19T20:22:12	5.9	96.5
63453	2024-04-19T20:32:12	5.9	96.5
63454	2024-04-19T20:42:12	5.7	96.5
63455	2024-04-19T20:52:12	5.6	96.5
63456	2024-04-19T21:02:12	5.7	96.5
63457	2024-04-19T21:12:12	5.8	96.5
63458	2024-04-19T21:22:12	6	96.5
63459	2024-04-19T21:32:12	6.2	96.5
63460	2024-04-19T21:42:12	6.2	96.5
63461	2024-04-19T21:52:12	6.2	96.5
63462	2024-04-19T22:02:12	6.2	96.5
63463	2024-04-19T22:12:12	6.2	96.5
63464	2024-04-19T22:22:12	6.1	96.5
63465	2024-04-19T22:32:12	6.1	96.5
63466	2024-04-19T22:42:12	6	96.5
63467	2024-04-19T22:52:12	5.9	96.5
63468	2024-04-19T23:25:08	5.9	96.5
63469	2024-04-19T23:25:09	6	96.5
63470	2024-04-19T23:25:09	6	96.5
63471	2024-04-19T23:32:12	5.9	96.5
63472	2024-04-19T23:42:12	5.8	96.5
63473	2024-04-19T23:52:12	5.8	96.5
63474	2024-04-20T00:02:12	5.6	96.5
63475	2024-04-20T00:12:12	5.6	96.5
63476	2024-04-20T00:22:12	5.6	96.5
63477	2024-04-20T00:32:12	5.5	96.5
63478	2024-04-20T00:42:12	5.5	96.5
63479	2024-04-20T00:52:11	5.5	96.5
63480	2024-04-20T01:02:11	5.5	96.5
63481	2024-04-20T01:12:11	5.3	96.5
63482	2024-04-20T01:22:11	5.3	96.5
63483	2024-04-20T01:32:11	5.2	96.5
63484	2024-04-20T01:42:11	5.2	96.5
63485	2024-04-20T01:52:11	5.2	96.5
63486	2024-04-20T02:02:11	5.1	96.5
63487	2024-04-20T02:12:11	5.1	96.5
63488	2024-04-20T02:22:11	5	96.5
63489	2024-04-20T02:32:11	4.7	96.5
63490	2024-04-20T02:42:11	4.6	96.5
63491	2024-04-20T02:52:11	4.6	96.5
63492	2024-04-20T03:02:11	4.5	96.5
63493	2024-04-20T03:12:11	4.4	96.5
63494	2024-04-20T03:22:11	4.4	96.5
63495	2024-04-20T03:32:11	4.5	96.5
63496	2024-04-20T03:42:11	4.4	96.5
63497	2024-04-20T03:52:11	4.5	96.5
63498	2024-04-20T04:02:11	4.5	96.5
63499	2024-04-20T04:12:11	4.4	96.5
63500	2024-04-20T04:22:12	4.6	96.5
63501	2024-04-20T04:32:11	4.6	96.5
63502	2024-04-20T04:42:11	4.7	96.5
63503	2024-04-20T04:52:11	4.6	96.5
63504	2024-04-20T05:02:11	4.7	96.5
63505	2024-04-20T05:12:11	4.7	96.5
63506	2024-04-20T05:22:11	4.9	96.5
63507	2024-04-20T05:32:11	4.9	96.5
63508	2024-04-20T05:42:11	4.8	96.5
63509	2024-04-20T05:52:11	4.9	96.5
63510	2024-04-20T06:02:11	5.3	96.5
63511	2024-04-20T06:12:11	5.1	96.5
63512	2024-04-20T06:22:11	4.9	96.5
63513	2024-04-20T06:32:11	5.2	96.5
63514	2024-04-20T06:42:11	5.5	96.5
63515	2024-04-20T06:52:11	5.6	96.5
63516	2024-04-20T07:02:11	6	96.5
63517	2024-04-20T07:12:11	6.3	96.5
63518	2024-04-20T07:22:11	6.3	96.5
63519	2024-04-20T07:32:11	6.4	96.5
63520	2024-04-20T07:42:11	6.8	96.5
63521	2024-04-20T07:52:11	6.9	96.5
63522	2024-04-20T08:02:11	7.3	96.5
63523	2024-04-20T08:12:11	7.5	96.5
63524	2024-04-20T08:22:11	7.8	96.5
63525	2024-04-20T08:32:11	8.4	96.5
63526	2024-04-20T08:42:11	8.4	96.5
63527	2024-04-20T08:52:11	8.5	96.5
63528	2024-04-20T09:02:11	8.6	96.5
63529	2024-04-20T09:12:11	8.2	96.5
63530	2024-04-20T09:22:11	8.3	96.5
63531	2024-04-20T09:32:11	8.5	96.5
63532	2024-04-20T09:42:11	8.9	96.5
63533	2024-04-20T09:52:11	9.4	96.5
63534	2024-04-20T10:02:11	9.5	96.5
63535	2024-04-20T10:12:11	10	96.5
63536	2024-04-20T10:22:11	10.9	96.5
63537	2024-04-20T10:32:11	10.6	96.5
63538	2024-04-20T10:42:11	9.6	96.5
63539	2024-04-20T10:52:11	10.3	96.5
63540	2024-04-20T11:02:11	11.5	67
63541	2024-04-20T11:12:11	11.3	56
63542	2024-04-20T11:22:11	10.9	57.5
63543	2024-04-20T11:32:11	10	60.5
63544	2024-04-20T11:42:11	9.7	59.5
63545	2024-04-20T11:52:11	9.4	66.5
63546	2024-04-20T12:02:11	9.2	73.5
63547	2024-04-20T12:12:11	9.1	79.5
63548	2024-04-20T12:22:11	9.4	80.5
63549	2024-04-20T12:32:11	10.7	66.5
63550	2024-04-20T12:42:11	16.9	44
63551	2024-04-20T12:52:11	15.4	44.5
63552	2024-04-20T13:02:11	18	39
63553	2024-04-20T13:12:11	15.4	46
63554	2024-04-20T13:22:11	13.1	54.5
63555	2024-04-20T13:32:11	11	79
63556	2024-04-20T13:42:11	9.3	89.5
63557	2024-04-20T13:52:11	8.3	97
63558	2024-04-20T14:02:11	8	95.5
63559	2024-04-20T14:12:11	8	97.5
63560	2024-04-20T14:22:11	7.1	100
63561	2024-04-20T14:32:11	6.4	100
63562	2024-04-20T14:42:11	7.1	100
63563	2024-04-20T14:52:11	7.5	100
63564	2024-04-20T15:02:11	11.8	100
63565	2024-04-20T15:12:11	11.2	100
63566	2024-04-20T15:22:11	9.1	100
63567	2024-04-20T15:32:11	8.8	100
63568	2024-04-20T15:42:11	8.9	100
63569	2024-04-20T15:52:11	11.3	100
63570	2024-04-20T16:02:11	12.3	100
63571	2024-04-20T16:12:11	11	100
63572	2024-04-20T16:22:11	12	99.5
63573	2024-04-20T16:32:11	9.1	99.5
63574	2024-04-20T16:42:11	8.2	100
63575	2024-04-20T16:52:11	6.8	100
63576	2024-04-20T17:02:11	6.5	100
63577	2024-04-20T17:12:11	6.4	100
63578	2024-04-20T17:22:11	7	100
63579	2024-04-20T17:32:11	7.8	100
63580	2024-04-20T17:42:11	6.7	100
63581	2024-04-20T17:52:11	6	100
63582	2024-04-20T18:02:11	6	100
63583	2024-04-20T18:12:11	6	100
63584	2024-04-20T18:22:11	5.9	100
63585	2024-04-20T18:32:11	5.6	100
63586	2024-04-20T18:42:11	5.7	100
63587	2024-04-20T18:52:11	5.6	100
63588	2024-04-20T19:02:11	5.5	100
63589	2024-04-20T19:12:11	5.3	100
63590	2024-04-20T19:22:11	5.3	100
63591	2024-04-20T19:32:11	5.5	100
63592	2024-04-20T19:42:11	5.3	100
63593	2024-04-20T19:52:11	4.9	100
63594	2024-04-20T20:02:11	4.6	100
63595	2024-04-20T20:12:11	4.5	100
63596	2024-04-20T20:22:11	4.5	100
63597	2024-04-20T20:32:11	4.7	100
63598	2024-04-20T20:42:11	4.6	100
63599	2024-04-20T20:52:11	4.4	100
63600	2024-04-20T21:02:11	4.5	100
63601	2024-04-20T21:12:11	4.5	100
63602	2024-04-20T21:22:11	4.7	100
63603	2024-04-20T21:32:11	4.8	100
63604	2024-04-20T21:42:11	4.8	100
63605	2024-04-20T21:52:11	4.6	100
63606	2024-04-20T22:02:10	4.6	100
63607	2024-04-20T22:12:10	4.4	100
63608	2024-04-20T22:22:10	4.4	100
63609	2024-04-20T22:32:10	4.3	100
63610	2024-04-20T22:42:10	4.3	100
63611	2024-04-20T22:52:10	4.3	100
63612	2024-04-20T23:26:02	4.2	100
63613	2024-04-20T23:26:02	4.3	100
63614	2024-04-20T23:26:02	4.2	100
63615	2024-04-20T23:32:10	4.1	100
63616	2024-04-20T23:42:10	4.1	100
63617	2024-04-20T23:52:10	4	100
63618	2024-04-21T00:02:10	3.9	100
63619	2024-04-21T00:12:10	4	100
63620	2024-04-21T00:22:10	4.2	100
63621	2024-04-21T00:32:10	4.4	100
63622	2024-04-21T00:42:10	4.3	100
63623	2024-04-21T00:52:10	4.4	100
63624	2024-04-21T01:02:10	4.7	100
63625	2024-04-21T01:12:10	4.7	100
63626	2024-04-21T01:22:10	4.6	100
63627	2024-04-21T01:32:10	4.7	100
63628	2024-04-21T01:42:10	4.7	100
63629	2024-04-21T01:52:10	4.5	96.5
63630	2024-04-21T02:02:10	4.5	96.5
63631	2024-04-21T02:12:29	4.5	96.5
63632	2024-04-21T02:22:10	4.4	96.5
63633	2024-04-21T02:32:10	4.5	96.5
63634	2024-04-21T02:42:10	4.6	96.5
63635	2024-04-21T02:52:10	4.5	96.5
63636	2024-04-21T03:02:10	4.5	96.5
63637	2024-04-21T03:12:10	4.5	96.5
63638	2024-04-21T03:22:10	4.6	96.5
63639	2024-04-21T03:32:10	4.5	96.5
63640	2024-04-21T03:42:10	4.6	96.5
63641	2024-04-21T03:52:10	4.5	96.5
63642	2024-04-21T04:02:10	4.5	96.5
63643	2024-04-21T04:12:10	4.4	96.5
63644	2024-04-21T04:22:10	4.3	96.5
63645	2024-04-21T04:32:10	4.4	96.5
63646	2024-04-21T04:42:10	4.3	96.5
63647	2024-04-21T04:52:10	4.2	96.5
63648	2024-04-21T05:02:10	4.2	96.5
63649	2024-04-21T05:12:10	4.3	96.5
63650	2024-04-21T05:22:10	4.3	96.5
63651	2024-04-21T05:32:10	4.4	96.5
63652	2024-04-21T05:42:10	4.4	97
63653	2024-04-21T05:52:10	4.4	96.5
63654	2024-04-21T06:02:10	4.5	97
63655	2024-04-21T06:12:10	4.4	96.5
63656	2024-04-21T06:22:10	4.2	96.5
63657	2024-04-21T06:32:10	4.5	96.5
63658	2024-04-21T06:42:10	4.4	96.5
63659	2024-04-21T06:52:10	4.4	96.5
63660	2024-04-21T07:02:11	4.4	96.5
63661	2024-04-21T07:12:10	4.5	96.5
63662	2024-04-21T07:22:10	4.6	96.5
63663	2024-04-21T07:32:10	4.8	97
63664	2024-04-21T07:42:10	5.1	97
63665	2024-04-21T07:52:10	5.4	97
63666	2024-04-21T08:02:10	6.3	97
63667	2024-04-21T08:12:10	5.5	97
63668	2024-04-21T08:22:10	4.7	97
63669	2024-04-21T08:32:10	4.7	97
63670	2024-04-21T08:42:10	5.1	97
63671	2024-04-21T08:52:10	5.4	97
63672	2024-04-21T09:02:10	5.5	97
63673	2024-04-21T09:22:10	5.8	97
63674	2024-04-21T09:32:10	6	97
63675	2024-04-21T09:42:10	7	97
63676	2024-04-21T09:52:10	6	97
63677	2024-04-21T10:02:10	6	97
63678	2024-04-21T10:12:10	6	97
63679	2024-04-21T10:22:10	7.4	97
63680	2024-04-21T10:32:10	7.1	97
63681	2024-04-21T10:42:10	6.8	97
63682	2024-04-21T10:52:10	7.1	97
63683	2024-04-21T11:02:10	7.4	97
63684	2024-04-21T11:12:10	8	97
63685	2024-04-21T11:22:10	7.8	97
63686	2024-04-21T11:32:10	7.4	97
63687	2024-04-21T11:42:10	8.5	97
63688	2024-04-21T11:52:10	8.8	97
63689	2024-04-21T12:02:10	8.2	97
63690	2024-04-21T12:12:10	8.4	97
63691	2024-04-21T12:22:10	13.1	97
63692	2024-04-21T12:32:10	11.6	96.5
63693	2024-04-21T12:42:10	11.2	97
63694	2024-04-21T12:52:10	10	97
63695	2024-04-21T13:02:10	12.5	96.5
63696	2024-04-21T13:12:10	12.1	96.5
63697	2024-04-21T13:22:10	10.7	99.5
63698	2024-04-21T13:32:10	14.3	99.5
63699	2024-04-21T13:42:10	14.5	85.5
63700	2024-04-21T13:52:10	20.1	40.5
63701	2024-04-21T14:02:10	19.9	38
63702	2024-04-21T14:12:10	16.4	49.5
63703	2024-04-21T14:22:10	18.8	40
63704	2024-04-21T14:32:10	16	47.5
63705	2024-04-21T14:42:10	13	57.5
63706	2024-04-21T14:52:10	19.4	42
63707	2024-04-21T15:02:10	15.5	49.5
63708	2024-04-21T15:12:10	13.4	56
63709	2024-04-21T15:22:10	14.1	53.5
63710	2024-04-21T15:32:10	11.8	61
63711	2024-04-21T15:42:10	10.4	66.5
63712	2024-04-21T15:52:10	9.3	76.5
63713	2024-04-21T16:02:10	8.4	82.5
63714	2024-04-21T16:12:10	7.8	84.5
63715	2024-04-21T16:22:10	7.6	89.5
63716	2024-04-21T16:32:10	6.9	88
63717	2024-04-21T16:42:10	7	92
63718	2024-04-21T16:52:10	6.9	91.5
63719	2024-04-21T17:02:10	6.4	87.5
63720	2024-04-21T17:12:10	6.3	91
63721	2024-04-21T17:22:10	5.9	94
63722	2024-04-21T17:32:10	5.9	93
63723	2024-04-21T17:42:10	5.8	97
63724	2024-04-21T17:52:10	5.3	91.5
63725	2024-04-21T18:02:10	5.4	94.5
63726	2024-04-21T18:12:10	5	99
63727	2024-04-21T18:22:10	5.1	100
63728	2024-04-21T18:32:10	5.1	100
63729	2024-04-21T18:42:10	5.1	100
63730	2024-04-21T19:12:10	5.2	100
63731	2024-04-21T19:22:10	5.1	100
63732	2024-04-21T19:32:10	5.1	100
63733	2024-04-21T19:42:10	5	100
63734	2024-04-21T19:52:10	4.9	100
63735	2024-04-21T20:02:10	4.9	100
63736	2024-04-21T20:12:09	4.9	100
63737	2024-04-21T20:22:09	4.9	100
63738	2024-04-21T20:32:10	4.9	100
63739	2024-04-21T20:42:09	4.8	100
63740	2024-04-21T20:52:09	5	100
63741	2024-04-21T21:02:09	4.8	100
63742	2024-04-21T21:12:10	4.8	100
63743	2024-04-21T21:22:09	4.8	100
63744	2024-04-21T21:32:09	4.9	100
63745	2024-04-21T21:42:09	4.8	100
63746	2024-04-21T21:52:09	4.7	100
63747	2024-04-21T22:02:09	4.6	100
63748	2024-04-21T22:12:09	4.7	100
63749	2024-04-21T22:22:09	4.8	100
63750	2024-04-21T22:32:09	4.6	100
63751	2024-04-21T22:42:09	4.6	100
63752	2024-04-21T22:52:09	4.6	100
63753	2024-04-21T23:27:03	4.5	100
63754	2024-04-21T23:27:03	4.4	100
63755	2024-04-21T23:27:03	4.5	100
63756	2024-04-21T23:32:09	4.4	100
63757	2024-04-21T23:42:09	4.4	100
63758	2024-04-21T23:52:09	4.4	100
63759	2024-04-22T00:02:09	4.3	100
63760	2024-04-22T00:12:09	4.3	100
63761	2024-04-22T00:22:09	4.2	100
63762	2024-04-22T00:32:09	4.1	100
63763	2024-04-22T00:42:09	4.1	100
63764	2024-04-22T00:52:09	4.2	100
63765	2024-04-22T01:02:09	4.2	100
63766	2024-04-22T01:12:09	4.1	100
63767	2024-04-22T01:22:09	4.1	100
63768	2024-04-22T01:32:09	4.2	100
63769	2024-04-22T01:42:09	4.1	100
63770	2024-04-22T01:52:09	4.1	100
63771	2024-04-22T02:02:09	4	100
63772	2024-04-22T02:12:09	4	100
63773	2024-04-22T02:22:09	3.9	100
63774	2024-04-22T02:32:09	3.9	99.5
63775	2024-04-22T02:42:09	3.8	99.5
63776	2024-04-22T02:52:09	3.6	99
63777	2024-04-22T03:02:09	3.6	99.5
63778	2024-04-22T03:12:09	3.4	100
63779	2024-04-22T03:22:09	3.2	100
63780	2024-04-22T03:32:09	2.9	100
63781	2024-04-22T03:42:09	2.4	100
63782	2024-04-22T03:52:09	2	100
63783	2024-04-22T04:02:09	1.8	100
63784	2024-04-22T04:12:09	1.6	100
63785	2024-04-22T04:22:09	1.6	100
63786	2024-04-22T04:32:09	1.5	100
63787	2024-04-22T04:42:09	1.2	100
63788	2024-04-22T04:52:09	1.3	100
63789	2024-04-22T05:02:09	1.5	100
63790	2024-04-22T05:12:09	1.5	100
63791	2024-04-22T05:22:09	1.5	100
63792	2024-04-22T05:32:09	1.6	100
63793	2024-04-22T05:42:09	1.8	100
63794	2024-04-22T05:52:09	1.8	100
63795	2024-04-22T06:02:09	1.9	100
63796	2024-04-22T06:12:09	1.9	100
63797	2024-04-22T06:22:09	2.2	100
63798	2024-04-22T06:32:09	2.3	100
63799	2024-04-22T06:42:09	2.4	100
63800	2024-04-22T06:52:09	2.5	100
63801	2024-04-22T07:02:09	2.7	100
63802	2024-04-22T07:12:09	2.8	100
63803	2024-04-22T07:22:09	3	99.5
63804	2024-04-22T07:32:09	3.3	99
63805	2024-04-22T07:42:09	3.6	97
63806	2024-04-22T07:52:09	3.9	92.5
63807	2024-04-22T08:02:09	4	91
63808	2024-04-22T08:12:09	4.1	90.5
63809	2024-04-22T08:22:09	4.5	88.5
63810	2024-04-22T08:32:09	4.6	87.5
63811	2024-04-22T08:42:09	5	85
63812	2024-04-22T08:52:09	5.1	84.5
63813	2024-04-22T09:02:09	5.5	86
63814	2024-04-22T09:12:09	6.2	83
63815	2024-04-22T09:22:09	7	77
63816	2024-04-22T09:32:09	7.2	78
63817	2024-04-22T09:42:09	7.6	72.5
63818	2024-04-22T09:52:09	7.7	68.5
63819	2024-04-22T10:02:09	7.6	69.5
63820	2024-04-22T10:12:09	8.6	67
63821	2024-04-22T10:22:09	9.1	60.5
63822	2024-04-22T10:32:09	9.6	59.5
63823	2024-04-22T10:42:09	10.7	61
63824	2024-04-22T10:52:09	10.8	53
63825	2024-04-22T11:02:09	11	54
63826	2024-04-22T11:12:09	10.1	56
63827	2024-04-22T11:22:09	9.3	64
63828	2024-04-22T11:32:09	9.2	64
63829	2024-04-22T11:42:09	9.7	62
63830	2024-04-22T11:52:09	10.1	58.5
63831	2024-04-22T12:02:09	10	59.5
63832	2024-04-22T12:12:09	10.6	60.5
63833	2024-04-22T12:22:09	11.7	53.5
63834	2024-04-22T12:32:09	12.2	48.5
63835	2024-04-22T12:42:09	14	45
63836	2024-04-22T12:52:09	17.3	43
63837	2024-04-22T13:02:09	14.7	44
63838	2024-04-22T13:12:09	12.7	48.5
63839	2024-04-22T13:22:09	13.4	46.5
63840	2024-04-22T13:32:09	16.9	41.5
63841	2024-04-22T13:42:09	20.2	33.5
63842	2024-04-22T13:52:09	21.1	33
63843	2024-04-22T14:02:09	19.7	33.5
63844	2024-04-22T14:12:09	13.8	48.5
63845	2024-04-22T14:22:09	12.6	52
63846	2024-04-22T14:32:09	16.7	44
63847	2024-04-22T14:42:09	18.7	41
63848	2024-04-22T14:52:09	14.8	46.5
63849	2024-04-22T15:02:09	13.4	55.5
63850	2024-04-22T15:12:09	12.9	54.5
63851	2024-04-22T15:22:09	13	54
63852	2024-04-22T15:32:09	16.5	47.5
63853	2024-04-22T15:42:09	18.8	40
63854	2024-04-22T15:52:09	23.2	34
63855	2024-04-22T16:02:09	24.7	26
63856	2024-04-22T16:12:09	19.8	30
63857	2024-04-22T16:22:09	18.2	35.5
63858	2024-04-22T16:32:09	21.4	30.5
63859	2024-04-22T16:42:09	22	28.5
63860	2024-04-22T16:52:09	20.6	33.5
63861	2024-04-22T17:02:09	20.7	31.5
63862	2024-04-22T17:12:09	20.1	32.5
63863	2024-04-22T17:22:09	17.2	37.5
63864	2024-04-22T17:32:09	16.5	37
63865	2024-04-22T17:42:09	13.4	46.5
63866	2024-04-22T17:52:08	11.4	51
63867	2024-04-22T18:02:08	10.6	56
63868	2024-04-22T18:12:08	9.8	56.5
63869	2024-04-22T18:22:08	9	61
63870	2024-04-22T18:32:08	8.5	64.5
63871	2024-04-22T18:42:08	8.2	67
63872	2024-04-22T18:52:08	7.6	69.5
63873	2024-04-22T19:02:08	7.3	73
63874	2024-04-22T19:12:08	6.9	76.5
63875	2024-04-22T19:22:08	6.6	78
63876	2024-04-22T19:32:08	6.2	81
63877	2024-04-22T19:42:08	6	82
63878	2024-04-22T19:52:08	5.7	78.5
63879	2024-04-22T20:02:08	5.5	84
63880	2024-04-22T20:12:08	5.5	83
63881	2024-04-22T20:22:08	5.1	82.5
63882	2024-04-22T20:32:08	5	82.5
63883	2024-04-22T20:42:08	4.9	84
63884	2024-04-22T20:52:08	4.6	86
63885	2024-04-22T21:02:08	4.4	83.5
63886	2024-04-22T21:12:08	4.2	83
63887	2024-04-22T21:22:08	4.1	83
63888	2024-04-22T21:32:08	3.9	83.5
63889	2024-04-22T21:42:08	3.7	86
63890	2024-04-22T21:52:08	3.6	88
63891	2024-04-22T22:02:08	3.4	88
63892	2024-04-22T22:12:08	3.3	89
63893	2024-04-22T22:22:08	3.2	87.5
63894	2024-04-22T22:32:08	3.1	89.5
63895	2024-04-22T22:42:08	2.9	90
63896	2024-04-22T22:52:08	2.7	89.5
63897	2024-04-22T23:02:08	2.8	90
63898	2024-04-22T23:12:08	2.7	88.5
63899	2024-04-22T23:22:08	2.7	90
63900	2024-04-22T23:32:08	2.6	89
63901	2024-04-22T23:42:08	2.4	90
63902	2024-04-22T23:52:08	2.1	91.5
63903	2024-04-23T00:02:08	1.8	92.5
63904	2024-04-23T00:12:08	1.7	92
63905	2024-04-23T00:22:08	1.7	93
63906	2024-04-23T00:32:08	1.4	93
63907	2024-04-23T00:42:08	1.3	93.5
63908	2024-04-23T00:52:08	1.3	93
63909	2024-04-23T01:02:08	1.2	93
63910	2024-04-23T01:12:08	0.9	94.5
63911	2024-04-23T01:22:08	0.8	95
63912	2024-04-23T01:32:08	0.6	95.5
63913	2024-04-23T01:42:08	0.5	95.5
63914	2024-04-23T01:52:08	0.4	96
63915	2024-04-23T02:02:08	0.2	96
63916	2024-04-23T02:12:08	0.1	96.5
63917	2024-04-23T02:22:08	0.1	97
63918	2024-04-23T02:32:08	-0.1	96.5
63919	2024-04-23T02:42:08	0	97
63920	2024-04-23T02:52:08	-0.1	97
63921	2024-04-23T03:02:08	-0.1	97
63922	2024-04-23T03:12:08	-0.1	97
63923	2024-04-23T03:22:08	-0.3	97.5
63924	2024-04-23T03:32:08	-0.2	98
63925	2024-04-23T03:42:08	-0.2	98.5
63926	2024-04-23T03:52:08	-0.4	98
63927	2024-04-23T04:02:08	-0.4	98.5
63928	2024-04-23T04:12:08	-0.6	99
63929	2024-04-23T04:22:08	-0.5	99
63930	2024-04-23T04:32:08	-0.6	99
63931	2024-04-23T04:42:08	-0.4	99.5
63932	2024-04-23T04:52:08	-0.5	99
63933	2024-04-23T05:02:08	-0.2	98.5
63934	2024-04-23T05:12:08	-0.2	99
63935	2024-04-23T05:22:08	-0.2	99
63936	2024-04-23T05:32:08	-0.1	99.5
63937	2024-04-23T05:42:08	0.1	99
63938	2024-04-23T05:52:08	0.2	98.5
63939	2024-04-23T06:02:08	0.3	98
63940	2024-04-23T06:12:08	0.6	96.5
63941	2024-04-23T06:22:08	0.7	96.5
63942	2024-04-23T06:32:08	0.9	96
63943	2024-04-23T06:42:08	1.1	94
63944	2024-04-23T06:52:08	1.6	89.5
63945	2024-04-23T07:02:08	1.6	90
63946	2024-04-23T07:12:08	1.9	87.5
63947	2024-04-23T07:22:08	2.2	88.5
63948	2024-04-23T07:32:08	2.4	87
63949	2024-04-23T07:42:08	2.4	85.5
63950	2024-04-23T07:52:08	2.9	85
63951	2024-04-23T08:02:08	2.8	82
63952	2024-04-23T08:12:08	3.2	82.5
63953	2024-04-23T08:22:08	3.6	81
63954	2024-04-23T08:32:08	3.8	78
63955	2024-04-23T08:42:08	4	79.5
63956	2024-04-23T08:52:08	4.3	78
63957	2024-04-23T09:02:08	4.5	77.5
63958	2024-04-23T09:12:08	4.7	78
63959	2024-04-23T09:22:08	5	73
63960	2024-04-23T09:32:08	5.4	74.5
63961	2024-04-23T09:42:08	5.6	71
63962	2024-04-23T09:52:08	5.9	71
63963	2024-04-23T10:02:08	6.2	67
63964	2024-04-23T10:12:08	6.4	66.5
63965	2024-04-23T10:22:08	7	61
63966	2024-04-23T10:32:08	7.2	62.5
63967	2024-04-23T10:42:08	7.9	61
63968	2024-04-23T10:52:08	8.6	56.5
63969	2024-04-23T11:02:08	8.4	54.5
63970	2024-04-23T11:12:08	9.3	58
63971	2024-04-23T11:22:08	9.2	54.5
63972	2024-04-23T11:32:08	9.2	55.5
63973	2024-04-23T11:42:08	9.7	50
63974	2024-04-23T11:52:08	10.4	49
63975	2024-04-23T12:02:08	12.6	45.5
63976	2024-04-23T12:12:08	17.4	36
63977	2024-04-23T12:22:08	17.3	35.5
63978	2024-04-23T12:32:08	19	33.5
63979	2024-04-23T12:42:08	22.1	29
63980	2024-04-23T12:52:08	25	25.5
63981	2024-04-23T13:02:08	25.1	20
63982	2024-04-23T13:12:08	23.4	24.5
63983	2024-04-23T13:22:08	18.7	30
63984	2024-04-23T13:32:08	17.2	33.5
63985	2024-04-23T13:42:08	23.5	24
63986	2024-04-23T13:52:08	24.5	23.5
63987	2024-04-23T14:02:08	27.2	19.5
63988	2024-04-23T14:12:08	29.1	19.5
63989	2024-04-23T14:22:08	22.9	25
63990	2024-04-23T14:32:08	18.5	30
63991	2024-04-23T14:42:08	18.7	28.5
63992	2024-04-23T14:52:08	24.2	21
63993	2024-04-23T15:02:08	24.5	22.5
63994	2024-04-23T15:12:08	22.5	23.5
63995	2024-04-23T15:22:08	26.6	21.5
63996	2024-04-23T15:32:08	28.3	18.5
63997	2024-04-23T15:42:08	27.4	18.5
63998	2024-04-23T15:52:08	27.5	18.5
63999	2024-04-23T16:02:08	28	17.5
64000	2024-04-23T16:12:08	27.1	19
64001	2024-04-23T16:22:08	28.3	18.5
64002	2024-04-23T16:32:08	29.2	17
64003	2024-04-23T16:42:08	28.4	19
64004	2024-04-23T16:52:08	25	20
64005	2024-04-23T17:02:08	24.3	21
64006	2024-04-23T17:12:08	24.3	22
64007	2024-04-23T17:22:08	22.5	24
64008	2024-04-23T17:32:07	22.8	23
64009	2024-04-23T17:42:07	17.5	28
64010	2024-04-23T17:52:07	15.7	33.5
64011	2024-04-23T18:02:07	14.6	38.5
64012	2024-04-23T18:12:07	13.5	37
64013	2024-04-23T18:22:07	12.8	40.5
64014	2024-04-23T18:32:07	12.4	45
64015	2024-04-23T18:42:07	11.9	51.5
64016	2024-04-23T18:52:07	11.5	54.5
64017	2024-04-23T19:02:07	10.8	53
64018	2024-04-23T19:12:07	10	52.5
64019	2024-04-23T19:22:07	9.8	54.5
64020	2024-04-23T19:32:07	9.2	56.5
64021	2024-04-23T19:42:07	8.9	59.5
64022	2024-04-23T19:52:07	8.4	60
64023	2024-04-23T20:02:07	8	63
64024	2024-04-23T20:12:07	7.7	64
64025	2024-04-23T20:22:07	7.4	65.5
64026	2024-04-23T20:32:07	7.3	66
64027	2024-04-23T20:42:07	6.7	68.5
64028	2024-04-23T20:52:07	6.4	71
64029	2024-04-23T21:02:07	6.2	70.5
64030	2024-04-23T21:12:07	6.3	71.5
64031	2024-04-23T21:22:07	6	71.5
64032	2024-04-23T21:32:07	6	73
64033	2024-04-23T21:42:07	5.9	72
64034	2024-04-23T21:52:07	6.1	72.5
64035	2024-04-23T22:02:07	6.3	70
64036	2024-04-23T22:12:07	6.2	68.5
64037	2024-04-23T22:22:07	6.1	69.5
64038	2024-04-23T22:32:07	6.1	68
64039	2024-04-23T22:42:07	6.2	68.5
64040	2024-04-23T22:52:07	6.2	69
64041	2024-04-23T23:25:50	6	71.5
64042	2024-04-23T23:25:50	5.9	72
64043	2024-04-23T23:25:54	5.9	72
64044	2024-04-23T23:32:07	5.3	75.5
64045	2024-04-23T23:42:07	5.3	73.5
64046	2024-04-23T23:52:07	5.5	75
64047	2024-04-24T00:02:07	5.5	75.5
64048	2024-04-24T00:12:07	5.7	77.5
64049	2024-04-24T00:22:07	5.6	77
64050	2024-04-24T00:32:07	5.3	76.5
64051	2024-04-24T00:42:07	5.2	79.5
64052	2024-04-24T00:52:07	5	79.5
64053	2024-04-24T01:02:07	4.9	79.5
64054	2024-04-24T01:12:07	4.7	77.5
64055	2024-04-24T01:22:07	4.7	82
64056	2024-04-24T01:32:07	4.2	82
64057	2024-04-24T01:42:07	4	83.5
64058	2024-04-24T01:52:07	3.9	84
64059	2024-04-24T02:02:07	4	83
64060	2024-04-24T02:12:07	4.1	82.5
64061	2024-04-24T02:22:07	3.9	83.5
64062	2024-04-24T02:32:07	3.4	84
64063	2024-04-24T02:42:07	3	85.5
64064	2024-04-24T02:52:07	2.7	84.5
64065	2024-04-24T03:02:07	2.6	86
64066	2024-04-24T03:12:07	2.4	86
64067	2024-04-24T03:22:07	2.3	84.5
64068	2024-04-24T03:32:07	2.3	83
64069	2024-04-24T03:42:07	2.5	82.5
64070	2024-04-24T03:52:07	2.5	82
64071	2024-04-24T04:02:07	2.4	83.5
64072	2024-04-24T04:12:07	2.3	83.5
64073	2024-04-24T04:22:07	2.3	82
64074	2024-04-24T04:32:07	2.5	82.5
64075	2024-04-24T04:42:07	2.8	81.5
64076	2024-04-24T04:52:07	2.9	81.5
64077	2024-04-24T05:02:07	3.3	79.5
64078	2024-04-24T05:12:07	3.8	80.5
64079	2024-04-24T05:22:07	3.9	79
64080	2024-04-24T05:32:07	4.2	78
64081	2024-04-24T05:42:07	4.5	74
64082	2024-04-24T05:52:07	4.4	85
64083	2024-04-24T06:02:07	3.9	87
64084	2024-04-24T06:12:07	4	87
64085	2024-04-24T06:22:07	4	85.5
64086	2024-04-24T06:32:07	4.4	81
64087	2024-04-24T06:42:07	4.5	80.5
64088	2024-04-24T06:52:07	4.7	79
64089	2024-04-24T07:02:07	4.9	78.5
64090	2024-04-24T07:12:07	5	77.5
64091	2024-04-24T07:22:07	5.3	76.5
64092	2024-04-24T07:32:07	5	85
64093	2024-04-24T07:42:07	4.3	92
64094	2024-04-24T07:52:07	4	98
64095	2024-04-24T08:02:07	3.6	99.5
64096	2024-04-24T08:12:07	3.8	100
64097	2024-04-24T08:22:07	3.6	100
64098	2024-04-24T08:32:07	3.6	100
64099	2024-04-24T08:42:07	3.7	100
64100	2024-04-24T08:52:07	3.8	100
64101	2024-04-24T09:02:07	3.9	100
64102	2024-04-24T09:12:07	4	100
64103	2024-04-24T09:22:07	4.2	100
64104	2024-04-24T09:32:07	4.1	100
64105	2024-04-24T09:42:07	4.1	100
64106	2024-04-24T09:52:07	4.4	100
64107	2024-04-24T10:02:07	4.9	100
64108	2024-04-24T10:12:07	4.9	100
64109	2024-04-24T10:22:07	5	100
64110	2024-04-24T10:32:07	5.4	100
64111	2024-04-24T10:42:07	5.6	100
64112	2024-04-24T10:52:07	6	100
64113	2024-04-24T11:02:07	6.3	100
64114	2024-04-24T11:12:07	6.6	100
64115	2024-04-24T11:22:07	7.3	100
64116	2024-04-24T11:32:07	8.1	100
64117	2024-04-24T11:42:07	8.2	100
64118	2024-04-24T11:52:07	8	100
64119	2024-04-24T12:02:07	7.2	100
64120	2024-04-24T12:12:07	5.3	100
64121	2024-04-24T12:22:07	5	100
64122	2024-04-24T12:32:07	4.3	100
64123	2024-04-24T12:42:07	4.2	100
64124	2024-04-24T12:52:07	3.6	100
64125	2024-04-24T13:02:07	3.6	100
64126	2024-04-24T13:12:07	4.4	100
64127	2024-04-24T13:22:07	5.5	100
64128	2024-04-24T13:32:07	7.5	100
64129	2024-04-24T13:42:07	10.6	100
64130	2024-04-24T13:52:07	13.3	100
64131	2024-04-24T14:02:07	14.3	100
64132	2024-04-24T14:12:07	14.5	100
64133	2024-04-24T14:22:07	15	100
64134	2024-04-24T14:32:07	16.8	100
64135	2024-04-24T14:42:07	13.5	99.5
64136	2024-04-24T14:52:07	10.2	100
64137	2024-04-24T15:02:07	8.4	100
64138	2024-04-24T15:12:07	7.9	100
64139	2024-04-24T15:22:07	8.6	100
64140	2024-04-24T15:32:07	17.4	100
64141	2024-04-24T15:42:07	17.7	99.5
64142	2024-04-24T15:52:07	13.7	95
64143	2024-04-24T16:02:07	10.8	95.5
64144	2024-04-24T16:12:07	9.9	95.5
64145	2024-04-24T16:22:07	12.1	61.5
64146	2024-04-24T16:32:07	11.8	61.5
64147	2024-04-24T16:42:06	9.3	71
64148	2024-04-24T16:52:06	10.2	67.5
64149	2024-04-24T17:02:06	11.8	61
64150	2024-04-24T17:12:06	8.6	75.5
64151	2024-04-24T17:22:06	8.2	76
64152	2024-04-24T17:32:06	7.6	75.5
64153	2024-04-24T17:42:06	6.5	79.5
64154	2024-04-24T17:52:06	6.2	80
64155	2024-04-24T18:02:06	6.2	78.5
64156	2024-04-24T18:12:06	6	79.5
64157	2024-04-24T18:22:06	6.1	78
64158	2024-04-24T18:32:06	6	78.5
64159	2024-04-24T18:42:06	5.8	78
64160	2024-04-24T18:52:06	5.5	79.5
64161	2024-04-24T19:02:06	5.3	80.5
64162	2024-04-24T19:12:06	5.5	80
64163	2024-04-24T19:22:06	5.7	80.5
64164	2024-04-24T19:32:06	5.5	81.5
64165	2024-04-24T19:42:06	5.2	84
64166	2024-04-24T19:52:06	5.2	84.5
64167	2024-04-24T20:02:06	5.1	85.5
64168	2024-04-24T20:12:06	5.1	85.5
64169	2024-04-24T20:22:06	5.3	85
64170	2024-04-24T20:32:06	5.5	84.5
64171	2024-04-24T20:42:06	5.6	84
64172	2024-04-24T20:52:06	5.5	85
64173	2024-04-24T21:02:06	5.4	85.5
64174	2024-04-24T21:12:06	5.3	85.5
64175	2024-04-24T21:22:06	5.1	86.5
64176	2024-04-24T21:32:06	5.1	85.5
64177	2024-04-24T21:42:06	5.2	86
64178	2024-04-24T21:52:06	5.2	87
64179	2024-04-24T22:02:06	5.2	87.5
64180	2024-04-24T22:12:06	5.1	88
64181	2024-04-24T22:22:06	5.1	87.5
64182	2024-04-24T22:32:06	5	87.5
64183	2024-04-24T22:42:06	5.1	87
64184	2024-04-24T22:52:06	5.1	86.5
64185	2024-04-24T23:25:45	5.1	86.5
64186	2024-04-24T23:25:45	5.1	86.5
64187	2024-04-24T23:25:45	5	87
64188	2024-04-24T23:32:06	5	87.5
64189	2024-04-24T23:42:06	5.1	86.5
64190	2024-04-24T23:52:06	4.9	87.5
64191	2024-04-25T00:02:06	5	87.5
64192	2024-04-25T00:12:06	5	87.5
64193	2024-04-25T00:22:06	4.9	88
64194	2024-04-25T00:32:06	5.1	88
64195	2024-04-25T00:42:06	5.1	88.5
64196	2024-04-25T00:52:06	4.8	89.5
64197	2024-04-25T01:02:06	4.9	91
64198	2024-04-25T01:12:06	4.7	92
64199	2024-04-25T01:22:06	4.6	92
64200	2024-04-25T01:32:06	4.7	91.5
64201	2024-04-25T01:42:06	4.6	91
64202	2024-04-25T01:52:06	4.6	91.5
64203	2024-04-25T02:02:06	4.6	91.5
64204	2024-04-25T02:12:06	4.6	91.5
64205	2024-04-25T02:22:06	4.6	92
64206	2024-04-25T02:32:06	4.5	91.5
64207	2024-04-25T02:42:06	4.6	91.5
64208	2024-04-25T02:52:06	4.6	91.5
64209	2024-04-25T03:02:06	4.7	92
64210	2024-04-25T03:12:06	4.6	92
64211	2024-04-25T03:22:06	4.6	92
64212	2024-04-25T03:32:06	4.6	92.5
64213	2024-04-25T03:42:06	4.6	92.5
64214	2024-04-25T03:52:06	4.6	92
64215	2024-04-25T04:02:06	4.6	91
64216	2024-04-25T04:12:06	4.7	91
64217	2024-04-25T04:22:06	4.6	91.5
64218	2024-04-25T04:32:06	4.7	90.5
64219	2024-04-25T04:42:06	4.8	91
64220	2024-04-25T04:52:06	4.8	90
64221	2024-04-25T05:02:06	4.8	90.5
64222	2024-04-25T05:12:06	4.7	90.5
64223	2024-04-25T05:22:06	4.8	92
64224	2024-04-25T05:32:06	4.8	94.5
64225	2024-04-25T05:42:06	4.8	92.5
64226	2024-04-25T05:52:06	4.7	96
64227	2024-04-25T06:02:06	4.8	97
64228	2024-04-25T06:12:06	4.7	97
64229	2024-04-25T06:22:06	4.8	96.5
64230	2024-04-25T06:32:06	5	93.5
64231	2024-04-25T06:42:06	5.2	90.5
64232	2024-04-25T06:52:06	5.5	89.5
64233	2024-04-25T07:02:06	5.8	87.5
64234	2024-04-25T07:12:06	5.9	87
64235	2024-04-25T07:22:06	6.1	84.5
64236	2024-04-25T07:32:06	6.3	83
64237	2024-04-25T07:42:06	6.6	82
64238	2024-04-25T07:52:06	6.6	79.5
64239	2024-04-25T08:02:06	6.9	79.5
64240	2024-04-25T08:12:06	6.9	78.5
64241	2024-04-25T08:22:06	7	78
64242	2024-04-25T08:32:06	7.3	76.5
64243	2024-04-25T08:42:06	7.5	89.5
64244	2024-04-25T08:52:06	7	91
64245	2024-04-25T09:02:06	7.2	85.5
64246	2024-04-25T09:12:06	7.4	81.5
64247	2024-04-25T09:22:06	8	74.5
64248	2024-04-25T09:32:06	8.5	71.5
64249	2024-04-25T09:42:06	8.9	68.5
64250	2024-04-25T09:52:06	9	67
64251	2024-04-25T10:02:06	9.1	66
64252	2024-04-25T10:12:06	8.9	65
64253	2024-04-25T10:22:06	8.8	66.5
64254	2024-04-25T10:32:06	9.3	64
64255	2024-04-25T10:42:06	10.1	63
64256	2024-04-25T10:52:06	10.5	60
64257	2024-04-25T11:02:06	9.6	60.5
64258	2024-04-25T11:12:06	8.1	80.5
64259	2024-04-25T11:22:06	7.7	79
64260	2024-04-25T11:32:06	8.3	72.5
64261	2024-04-25T11:42:06	9.5	67
64262	2024-04-25T11:52:06	9.7	63.5
64263	2024-04-25T12:02:06	9.6	61.5
64264	2024-04-25T12:12:06	10	60
64265	2024-04-25T12:22:06	9.4	60
64266	2024-04-25T12:32:06	8.9	65.5
64267	2024-04-25T12:42:06	8.9	64.5
64268	2024-04-25T12:52:06	8.7	74
64269	2024-04-25T13:02:06	8.5	72
64270	2024-04-25T13:12:06	9	70.5
64271	2024-04-25T13:22:06	9.5	69
64272	2024-04-25T13:32:06	10.7	65.5
64273	2024-04-25T13:42:06	11.7	61.5
64274	2024-04-25T13:52:06	12.5	57
64275	2024-04-25T14:02:06	14.1	48
64276	2024-04-25T14:12:06	14.9	45
64277	2024-04-25T14:22:06	17.4	43.5
64278	2024-04-25T14:32:06	14.3	44.5
64279	2024-04-25T14:42:06	12.5	48.5
64280	2024-04-25T14:52:06	11.6	52
64281	2024-04-25T15:02:06	11.2	54.5
64282	2024-04-25T15:12:06	11.9	53
64283	2024-04-25T15:22:06	20	37
64284	2024-04-25T15:32:05	14.6	42.5
64285	2024-04-25T15:42:05	12.7	47.5
64286	2024-04-25T15:52:05	11.8	50.5
64287	2024-04-25T16:02:05	11.1	50.5
64288	2024-04-25T16:12:05	10.7	52
64289	2024-04-25T16:22:05	10.4	55.5
64290	2024-04-25T16:32:05	10.3	60
64291	2024-04-25T16:42:05	10.1	60
64292	2024-04-25T16:52:05	9.9	61.5
64293	2024-04-25T17:12:05	9.9	64.5
64294	2024-04-25T17:22:05	9.9	65
64295	2024-04-25T17:32:05	9.7	67
64296	2024-04-25T17:42:05	9.4	69.5
64297	2024-04-25T17:52:05	9.2	71.5
64298	2024-04-25T18:02:05	8.9	73.5
64299	2024-04-25T18:12:05	8.5	76.5
64300	2024-04-25T18:22:05	8.3	77.5
64301	2024-04-25T18:32:05	7.9	77.5
64302	2024-04-25T18:42:05	7.5	78.5
64303	2024-04-25T18:52:05	7.1	79.5
64304	2024-04-25T19:02:05	6.8	78
64305	2024-04-25T19:12:05	6.5	78
64306	2024-04-25T19:22:23	6.2	80
64307	2024-04-25T19:32:05	5.8	83
64308	2024-04-25T19:42:05	5.5	85
64309	2024-04-25T19:52:05	5.3	85.5
64310	2024-04-25T20:02:05	5.2	86.5
64311	2024-04-25T20:12:05	4.9	85.5
64312	2024-04-25T20:22:05	4.7	85.5
64313	2024-04-25T20:32:05	4.6	87
64314	2024-04-25T20:42:05	4.3	87
64315	2024-04-25T20:52:05	4.2	87.5
64316	2024-04-25T21:02:05	4.1	88
64317	2024-04-25T21:12:05	3.8	88.5
64318	2024-04-25T21:22:05	3.8	88.5
64319	2024-04-25T21:32:05	3.9	88
64320	2024-04-25T21:42:05	4.1	88
64321	2024-04-25T21:52:05	4	88.5
64322	2024-04-25T22:02:05	3.6	89
64323	2024-04-25T22:12:05	3.3	90.5
64324	2024-04-25T22:22:05	3.2	91
64325	2024-04-25T22:32:05	2.9	90.5
64326	2024-04-25T22:42:05	2.8	91
64327	2024-04-25T22:52:05	2.7	91.5
64328	2024-04-25T23:25:42	2.5	91.5
64329	2024-04-25T23:25:42	2.6	91
64330	2024-04-25T23:25:43	2.4	91
64331	2024-04-25T23:32:05	2.3	92
64332	2024-04-25T23:42:05	2.1	92
64333	2024-04-25T23:52:05	2.1	92
64334	2024-04-26T00:02:05	2.1	92.5
64335	2024-04-26T00:12:05	2	92
64336	2024-04-26T00:22:05	1.9	91.5
64337	2024-04-26T00:32:05	1.8	92.5
64338	2024-04-26T00:42:05	1.8	92.5
64339	2024-04-26T00:52:05	1.7	93
64340	2024-04-26T01:02:05	1.9	92
64341	2024-04-26T01:12:05	2	91.5
64342	2024-04-26T01:22:05	2.1	90.5
64343	2024-04-26T01:32:05	2	91.5
64344	2024-04-26T01:42:05	1.8	92
64345	2024-04-26T01:52:05	1.9	92
64346	2024-04-26T02:02:05	2	92
64347	2024-04-26T02:12:05	1.9	92
64348	2024-04-26T02:22:05	1.9	93
64349	2024-04-26T02:32:05	1.9	92
64350	2024-04-26T02:42:05	1.6	92
64351	2024-04-26T02:52:05	1.7	93.5
64352	2024-04-26T03:02:05	1.9	93
64353	2024-04-26T03:12:05	2.2	92
64354	2024-04-26T03:22:05	2.3	92
64355	2024-04-26T03:32:05	2.5	92.5
64356	2024-04-26T03:42:05	2.5	92.5
64357	2024-04-26T03:52:05	2.7	92.5
64358	2024-04-26T04:02:05	2.8	92
64359	2024-04-26T04:12:05	2.8	92.5
64360	2024-04-26T04:22:05	3	91
64361	2024-04-26T04:32:05	3.1	93
64362	2024-04-26T04:42:05	3.1	92.5
64363	2024-04-26T04:52:05	3.2	92.5
64364	2024-04-26T05:02:05	3.4	93
64365	2024-04-26T05:12:05	3.6	92.5
64366	2024-04-26T05:22:05	3.7	92.5
64367	2024-04-26T05:32:05	3.8	92.5
64368	2024-04-26T05:42:05	3.9	92.5
64369	2024-04-26T05:52:05	4	92.5
64370	2024-04-26T06:02:05	4.2	92
64371	2024-04-26T06:12:05	4.7	91.5
64372	2024-04-26T06:22:05	5.3	87
64373	2024-04-26T06:32:05	5.5	86.5
64374	2024-04-26T06:42:05	6	86
64375	2024-04-26T06:52:05	5.9	85
64376	2024-04-26T07:02:05	5.9	85
64377	2024-04-26T07:12:05	6.1	84
64378	2024-04-26T07:22:05	6.8	82
64379	2024-04-26T07:32:05	7.7	80.5
64380	2024-04-26T07:42:05	8.5	76
64381	2024-04-26T07:52:05	8.7	77.5
64382	2024-04-26T08:02:05	8.8	75
64383	2024-04-26T08:12:05	9	75
64384	2024-04-26T08:22:05	9.4	78
64385	2024-04-26T08:32:05	10.2	76
64386	2024-04-26T08:42:05	10.8	73.5
64387	2024-04-26T08:52:05	11.2	71.5
64388	2024-04-26T09:02:05	11.6	71
64389	2024-04-26T09:12:05	12	70
64390	2024-04-26T09:22:05	12.4	68
64391	2024-04-26T09:32:05	12.9	66
64392	2024-04-26T09:42:05	13.8	60.5
64393	2024-04-26T09:52:05	14	60
64394	2024-04-26T10:02:05	14.3	59
64395	2024-04-26T10:12:05	14.7	58.5
64396	2024-04-26T10:22:05	14.7	57.5
64397	2024-04-26T10:32:05	14.7	57
64398	2024-04-26T10:42:05	15.1	55
64399	2024-04-26T10:52:05	15.6	53
64400	2024-04-26T11:02:05	15.7	52.5
64401	2024-04-26T11:12:05	15.7	52.5
64402	2024-04-26T11:22:05	15.7	52.5
64403	2024-04-26T11:32:05	15.7	52.5
64404	2024-04-26T11:42:05	15.9	52
64405	2024-04-26T11:52:05	15.7	53
64406	2024-04-26T12:02:05	15.3	53
64407	2024-04-26T12:12:05	15.6	53.5
64408	2024-04-26T12:22:05	15.7	52.5
64409	2024-04-26T12:32:05	15.8	53
64410	2024-04-26T12:42:05	17.1	48
64411	2024-04-26T12:52:05	16.3	50.5
64412	2024-04-26T13:02:04	17.1	48
64413	2024-04-26T13:12:04	17.3	49
64414	2024-04-26T13:22:04	16.3	51.5
64415	2024-04-26T13:32:04	16	56.5
64416	2024-04-26T13:42:04	17	51
64417	2024-04-26T13:52:04	18.7	45.5
64418	2024-04-26T14:02:04	23.5	38
64419	2024-04-26T14:12:04	26.9	34.5
64420	2024-04-26T14:22:04	28.2	29
64421	2024-04-26T14:32:04	28.6	27.5
64422	2024-04-26T14:42:04	28.9	28
64423	2024-04-26T14:52:04	30.3	25.5
64424	2024-04-26T15:02:04	29.1	29
64425	2024-04-26T15:12:04	32.5	25
64426	2024-04-26T15:22:04	26.8	30.5
64427	2024-04-26T15:32:04	26.4	30.5
64428	2024-04-26T15:42:04	23	38
64429	2024-04-26T15:52:04	22	41
64430	2024-04-26T16:02:04	20.7	44.5
64431	2024-04-26T16:12:04	20.6	45
64432	2024-04-26T16:22:04	18.9	49
64433	2024-04-26T16:32:04	18.1	52
64434	2024-04-26T16:42:04	17.7	53
64435	2024-04-26T16:52:04	17	55
64436	2024-04-26T17:02:04	16.4	57
64437	2024-04-26T17:12:04	16	57
64438	2024-04-26T17:22:04	14.2	91
64439	2024-04-26T17:32:04	12.8	97
64440	2024-04-26T17:42:04	12.2	98.5
64441	2024-04-26T17:52:04	12.7	100
64442	2024-04-26T18:02:04	13	100
64443	2024-04-26T18:12:04	12.7	100
64444	2024-04-26T18:22:04	12.7	100
64445	2024-04-26T18:32:04	12.5	100
64446	2024-04-26T18:42:04	12.2	100
64447	2024-04-26T18:52:04	11.9	100
64448	2024-04-26T19:02:04	11.4	100
64449	2024-04-26T19:12:04	11.2	100
64450	2024-04-26T19:22:04	10.8	100
64451	2024-04-26T19:32:04	10.6	100
64452	2024-04-26T19:42:04	10.3	100
64453	2024-04-26T19:52:04	10.1	100
64454	2024-04-26T20:02:04	9.9	100
64455	2024-04-26T20:12:04	9.9	100
64456	2024-04-26T20:22:04	10	100
64457	2024-04-26T20:32:04	10.1	100
64458	2024-04-26T20:42:04	10	100
64459	2024-04-26T20:52:04	10	100
64460	2024-04-26T21:02:04	9.7	100
64461	2024-04-26T21:12:04	9.6	100
64462	2024-04-26T21:22:04	9.4	100
64463	2024-04-26T21:32:04	9.2	100
64464	2024-04-26T21:42:04	8.7	100
64465	2024-04-26T21:52:04	8.7	100
64466	2024-04-26T22:02:04	8.4	100
64467	2024-04-26T22:12:04	8.2	100
64468	2024-04-26T22:22:04	8	100
64469	2024-04-26T22:32:04	7.9	100
64470	2024-04-26T22:42:04	7.7	100
64471	2024-04-26T22:52:04	7.7	100
64472	2024-04-26T23:25:38	7.1	100
64473	2024-04-26T23:25:38	7.5	100
64474	2024-04-26T23:25:38	7.2	100
64475	2024-04-26T23:32:04	7	100
64476	2024-04-26T23:42:04	6.8	100
64477	2024-04-26T23:52:04	6.8	100
64478	2024-04-27T00:02:04	6.7	100
64479	2024-04-27T00:12:04	6.5	100
64480	2024-04-27T00:22:04	6.3	100
64481	2024-04-27T00:32:04	6.2	100
64482	2024-04-27T00:42:04	6.3	100
64483	2024-04-27T00:52:04	6.2	100
64484	2024-04-27T01:02:04	6.2	100
64485	2024-04-27T01:12:04	6.5	100
64486	2024-04-27T01:22:04	6.6	100
64487	2024-04-27T01:32:04	6.5	100
64488	2024-04-27T01:42:04	6.6	100
64489	2024-04-27T01:52:04	6.5	100
64490	2024-04-27T02:02:04	6.4	100
64491	2024-04-27T02:12:04	6.3	100
64492	2024-04-27T02:22:04	6.5	100
64493	2024-04-27T02:32:04	6.5	100
64494	2024-04-27T02:42:04	6.5	100
64495	2024-04-27T02:52:04	6.4	100
64496	2024-04-27T03:02:04	6.6	100
64497	2024-04-27T03:12:04	6.7	100
64498	2024-04-27T03:22:04	6.6	100
64499	2024-04-27T03:32:04	6.6	100
64500	2024-04-27T03:42:04	6.5	100
64501	2024-04-27T03:52:04	6.6	100
64502	2024-04-27T04:02:04	6.4	100
64503	2024-04-27T04:12:04	6.4	100
64504	2024-04-27T04:22:04	6.5	100
64505	2024-04-27T04:32:04	6.6	100
64506	2024-04-27T04:42:04	6.8	100
64507	2024-04-27T04:52:03	6.8	100
64508	2024-04-27T05:02:03	7.1	100
64509	2024-04-27T05:12:03	7.1	100
64510	2024-04-27T05:22:03	7.3	100
64511	2024-04-27T05:32:03	7.4	100
64512	2024-04-27T05:42:03	7.7	100
64513	2024-04-27T05:52:03	7.9	100
64514	2024-04-27T06:02:03	8.2	100
64515	2024-04-27T06:12:03	8.2	100
64516	2024-04-27T06:22:03	8.5	100
64517	2024-04-27T06:32:03	8.9	100
64518	2024-04-27T06:42:03	9.4	100
64519	2024-04-27T06:52:03	9.8	100
64520	2024-04-27T07:02:03	10	100
64521	2024-04-27T07:12:03	10.5	100
64522	2024-04-27T07:22:03	10.5	100
64523	2024-04-27T07:32:03	10.5	100
64524	2024-04-27T07:42:03	10.2	100
64525	2024-04-27T07:52:03	9.9	100
64526	2024-04-27T08:02:03	10.1	100
64527	2024-04-27T08:12:03	11.4	100
64528	2024-04-27T08:22:03	12.3	100
64529	2024-04-27T08:32:03	13	100
64530	2024-04-27T08:42:03	12.5	100
64531	2024-04-27T08:52:03	12.2	100
64532	2024-04-27T09:02:03	12.1	100
64533	2024-04-27T09:12:03	12.4	100
64534	2024-04-27T09:22:03	12.5	100
64535	2024-04-27T09:32:03	12.9	100
64536	2024-04-27T09:42:03	13.3	100
64537	2024-04-27T09:52:03	13.9	100
64538	2024-04-27T10:02:03	15	100
64539	2024-04-27T10:12:03	15.6	100
64540	2024-04-27T10:22:03	16.4	100
64541	2024-04-27T10:32:03	16.5	100
64542	2024-04-27T10:42:03	17.2	100
64543	2024-04-27T10:52:03	18.1	100
64544	2024-04-27T11:02:03	17.9	99.5
64545	2024-04-27T11:12:03	17.8	66
64546	2024-04-27T11:22:03	17.7	51.5
64547	2024-04-27T11:32:03	17.9	50
64548	2024-04-27T11:42:03	18.1	53.5
64549	2024-04-27T11:52:03	19	46.5
64550	2024-04-27T12:02:03	21.2	38
64551	2024-04-27T12:12:03	24.3	34
64552	2024-04-27T12:22:03	29.1	29.5
64553	2024-04-27T12:32:03	24.9	29.5
64554	2024-04-27T12:42:03	22.9	31.5
64555	2024-04-27T12:52:03	23	34
64556	2024-04-27T13:02:03	22.9	32
64557	2024-04-27T13:12:03	24.9	31
64558	2024-04-27T13:22:03	28.3	26.5
64559	2024-04-27T13:32:03	24.8	32
64560	2024-04-27T13:42:03	25.5	30
64561	2024-04-27T13:52:03	29.8	25.5
64562	2024-04-27T14:02:03	34.1	22
64563	2024-04-27T14:12:03	35.2	19
64564	2024-04-27T14:22:03	35.7	19.5
64565	2024-04-27T14:32:03	37.6	17.5
64566	2024-04-27T14:42:03	37.9	15.5
64567	2024-04-27T14:52:03	35.4	17.5
64568	2024-04-27T15:02:03	36.8	17
64569	2024-04-27T15:12:03	35.5	15
64570	2024-04-27T15:22:03	34.3	18
64571	2024-04-27T15:32:03	30.1	23
64572	2024-04-27T15:42:03	28.4	25.5
64573	2024-04-27T15:52:03	27.5	26.5
64574	2024-04-27T16:02:03	29.4	26.5
64575	2024-04-27T16:12:03	34.1	20
64576	2024-04-27T16:22:03	30.3	22
64577	2024-04-27T16:32:03	33	22
64578	2024-04-27T16:42:03	31.5	20.5
64579	2024-04-27T16:52:03	27.4	25
64580	2024-04-27T17:02:03	26.1	28
64581	2024-04-27T17:12:02	25	31
64582	2024-04-27T17:22:02	24.5	35
64583	2024-04-27T17:32:02	23.9	35.5
64584	2024-04-27T17:42:02	23.2	39.5
64585	2024-04-27T17:52:02	22.9	45.5
64586	2024-04-27T18:02:02	22	46
64587	2024-04-27T18:12:02	21.6	48.5
64588	2024-04-27T18:22:02	21	43
64589	2024-04-27T18:32:02	20.4	40.5
64590	2024-04-27T18:42:02	20	40.5
64591	2024-04-27T18:52:02	19.8	44
64592	2024-04-27T19:02:02	19.7	42
64593	2024-04-27T19:12:02	19.5	41.5
64594	2024-04-27T19:22:02	19.2	39.5
64595	2024-04-27T19:32:02	19.1	41
64596	2024-04-27T19:42:02	18.9	39.5
64597	2024-04-27T19:52:02	18.6	40.5
64598	2024-04-27T20:02:02	18.4	46.5
64599	2024-04-27T20:12:02	18.1	47
64600	2024-04-27T20:22:02	18	41.5
64601	2024-04-27T20:32:02	17.9	42.5
64602	2024-04-27T20:42:02	17.7	41
64603	2024-04-27T20:52:02	17.5	42.5
64604	2024-04-27T21:02:02	17.3	42
64605	2024-04-27T21:12:02	17.1	43.5
64606	2024-04-27T21:22:02	16.9	42
64607	2024-04-27T21:32:02	16.6	46
64608	2024-04-27T21:42:02	16	47.5
64609	2024-04-27T21:52:02	16	48
64610	2024-04-27T22:02:02	15.6	49.5
64611	2024-04-27T22:12:02	15.4	51
64612	2024-04-27T22:22:02	15.3	52
64613	2024-04-27T22:32:02	15.2	53
64614	2024-04-27T22:42:02	14.9	54
64615	2024-04-27T22:52:02	14.7	55.5
64616	2024-04-27T23:26:34	14.6	56
64617	2024-04-27T23:26:34	14.4	56.5
64618	2024-04-27T23:26:34	14.5	56.5
64619	2024-04-27T23:32:02	14.4	54
64620	2024-04-27T23:42:02	14.4	57
64621	2024-04-27T23:52:02	14.3	57.5
64622	2024-04-28T00:02:02	14.2	61
64623	2024-04-28T00:12:02	13.7	63.5
64624	2024-04-28T00:22:02	13.2	66.5
64625	2024-04-28T00:32:02	13.1	67.5
64626	2024-04-28T00:42:02	13	66.5
64627	2024-04-28T01:02:02	12.4	70.5
64628	2024-04-28T01:12:02	12.3	71
64629	2024-04-28T01:22:02	12	71.5
64630	2024-04-28T01:32:02	12.4	71
64631	2024-04-28T01:42:02	12.3	70.5
64632	2024-04-28T01:52:02	12.3	69
64633	2024-04-28T02:02:02	12.4	68.5
64634	2024-04-28T02:12:02	12.3	71.5
64635	2024-04-28T02:22:02	12.2	71.5
64636	2024-04-28T02:32:02	12.3	72.5
64637	2024-04-28T02:42:02	12.1	74
64638	2024-04-28T02:52:02	11.9	75.5
64639	2024-04-28T03:02:02	11.8	76.5
64640	2024-04-28T03:12:02	11.8	76.5
64641	2024-04-28T03:22:02	11.9	76.5
64642	2024-04-28T03:32:02	11.9	76.5
64643	2024-04-28T03:42:02	11.9	77.5
64644	2024-04-28T03:52:02	11.9	77
64645	2024-04-28T04:02:02	11.7	77
64646	2024-04-28T04:12:02	11.7	76
64647	2024-04-28T04:22:02	11.7	75
64648	2024-04-28T04:32:02	11.8	76
64649	2024-04-28T04:42:02	11.8	74.5
64650	2024-04-28T04:52:02	11.8	76
64651	2024-04-28T05:02:02	11.8	76
64652	2024-04-28T05:12:02	11.8	77
64653	2024-04-28T05:22:02	11.9	78.5
64654	2024-04-28T05:32:02	12	78
64655	2024-04-28T05:42:02	11.9	78.5
64656	2024-04-28T05:52:01	12.1	78.5
64657	2024-04-28T06:02:01	12.1	77.5
64658	2024-04-28T06:12:01	12.1	76
64659	2024-04-28T06:22:01	12.2	77
64660	2024-04-28T06:32:01	12.5	74.5
64661	2024-04-28T06:42:02	12.8	70
64662	2024-04-28T06:52:01	13.1	70.5
64663	2024-04-28T07:02:01	13.4	71.5
64664	2024-04-28T07:12:01	13.5	73.5
64665	2024-04-28T07:22:01	14.1	72
64666	2024-04-28T07:32:01	14.5	72.5
64667	2024-04-28T07:42:01	15	71
64668	2024-04-28T07:52:01	15.1	70
64669	2024-04-28T08:02:01	15.3	68.5
64670	2024-04-28T08:12:01	15.4	68.5
64671	2024-04-28T08:22:01	15.3	65.5
64672	2024-04-28T08:32:01	15.3	64.5
64673	2024-04-28T08:42:01	15.4	64.5
64674	2024-04-28T08:52:01	15.3	65.5
64675	2024-04-28T09:02:01	15.5	65
64676	2024-04-28T09:12:01	15.8	64.5
64677	2024-04-28T09:22:01	16.2	63
64678	2024-04-28T09:32:01	16.6	61.5
64679	2024-04-28T09:42:01	17	60
64680	2024-04-28T09:52:01	17.3	58
64681	2024-04-28T10:02:01	17.4	57.5
64682	2024-04-28T10:12:01	17.6	56.5
64683	2024-04-28T10:22:01	17.6	56.5
64684	2024-04-28T10:32:01	17.6	56
64685	2024-04-28T10:42:01	17.7	54
64686	2024-04-28T10:52:01	17.8	54.5
64687	2024-04-28T11:02:01	17.9	53
64688	2024-04-28T11:12:01	18.7	51
64689	2024-04-28T11:22:01	19.1	49.5
64690	2024-04-28T11:32:01	19.4	48
64691	2024-04-28T11:42:01	20	46.5
64692	2024-04-28T11:52:01	20.4	45
64693	2024-04-28T12:02:01	20.5	43.5
64694	2024-04-28T12:12:01	20.5	43
64695	2024-04-28T12:22:01	20.9	43.5
64696	2024-04-28T12:32:01	21.1	42.5
64697	2024-04-28T12:42:01	20.9	43.5
64698	2024-04-28T12:52:01	21.3	44
64699	2024-04-28T13:02:01	21.2	41.5
64700	2024-04-28T13:12:01	21.2	42
64701	2024-04-28T13:22:01	21.2	41
64702	2024-04-28T13:32:01	21	43.5
64703	2024-04-28T13:42:01	21.9	43
64704	2024-04-28T13:52:01	21.9	41
64705	2024-04-28T14:02:01	21	43
64706	2024-04-28T14:12:01	20.5	44.5
64707	2024-04-28T14:22:01	20.3	42
64708	2024-04-28T14:32:01	19.6	42.5
64709	2024-04-28T14:42:01	19.6	44
64710	2024-04-28T14:52:01	19.3	42
64711	2024-04-28T15:02:01	21.5	40
64712	2024-04-28T15:12:01	23.5	35
64713	2024-04-28T15:22:01	21.1	37
64714	2024-04-28T15:32:01	20	40.5
64715	2024-04-28T15:42:01	19.6	43
64716	2024-04-28T15:52:01	18.9	44
64717	2024-04-28T16:02:01	19.4	49.5
64718	2024-04-28T16:12:01	18.5	52
64719	2024-04-28T16:22:01	18	54.5
64720	2024-04-28T16:32:01	17.2	56.5
64721	2024-04-28T16:42:01	17.1	57.5
64722	2024-04-28T16:52:01	16.8	58.5
64723	2024-04-28T17:02:01	16.5	59.5
64724	2024-04-28T17:12:01	16.3	61
64725	2024-04-28T17:22:01	16.1	61.5
64726	2024-04-28T17:32:20	15.9	62.5
64727	2024-04-28T17:42:00	15.6	62
64728	2024-04-28T17:52:00	15.2	63.5
64729	2024-04-28T18:02:00	14.9	64
64730	2024-04-28T18:12:00	14.5	65
64731	2024-04-28T18:22:00	14.3	66.5
64732	2024-04-28T18:32:00	13.9	68
64733	2024-04-28T18:42:00	13.8	68
64734	2024-04-28T18:52:00	13.7	69
64735	2024-04-28T19:02:00	13.7	69.5
64736	2024-04-28T19:12:00	13.5	70.5
64737	2024-04-28T19:22:00	13.4	70.5
64738	2024-04-28T19:32:00	13.3	71
64739	2024-04-28T19:42:00	13.2	72
64740	2024-04-28T19:52:00	13	73.5
64741	2024-04-28T20:02:00	12.9	73.5
64742	2024-04-28T20:12:00	12.9	74
64743	2024-04-28T20:22:00	12.8	74
64744	2024-04-28T20:32:00	12.9	74.5
64745	2024-04-28T20:42:00	12.9	74.5
64746	2024-04-28T20:52:00	12.7	74.5
64747	2024-04-28T21:02:00	12.8	74
64748	2024-04-28T21:12:00	12.7	74
64749	2024-04-28T21:22:00	12.7	74.5
64750	2024-04-28T21:32:00	12.5	75.5
64751	2024-04-28T21:42:00	12.4	77
64752	2024-04-28T21:52:00	12.2	78
64753	2024-04-28T22:02:00	12.2	79
64754	2024-04-28T22:12:00	12.2	78
64755	2024-04-28T22:22:00	12.2	78.5
64756	2024-04-28T22:32:00	12.4	78
64757	2024-04-28T22:42:00	12.2	80
64758	2024-04-28T22:52:00	12	81.5
64759	2024-04-28T23:02:00	11.9	81
64760	2024-04-28T23:12:00	11.9	81.5
64761	2024-04-28T23:22:00	11.8	82
64762	2024-04-28T23:32:00	11.7	82.5
64763	2024-04-28T23:42:00	11.7	81
64764	2024-04-28T23:52:00	11.8	83
64765	2024-04-29T00:02:00	11.7	83.5
64766	2024-04-29T00:12:00	11.7	84
64767	2024-04-29T00:22:00	11.5	84.5
64768	2024-04-29T00:32:00	11.6	85
64769	2024-04-29T00:42:00	11.5	85
64770	2024-04-29T00:52:00	11.5	85.5
64771	2024-04-29T01:02:00	11.4	86
64772	2024-04-29T01:12:00	11.4	86
64773	2024-04-29T01:22:00	11.4	86
64774	2024-04-29T01:32:00	11.4	87.5
64775	2024-04-29T01:42:00	11.3	88.5
64776	2024-04-29T01:52:00	11.4	88.5
64777	2024-04-29T02:02:00	11.3	89
64778	2024-04-29T02:12:00	11.3	89
64779	2024-04-29T02:22:00	11.2	89
64780	2024-04-29T02:32:00	11.2	89
64781	2024-04-29T02:42:00	11.2	88.5
64782	2024-04-29T02:52:00	11	89
64783	2024-04-29T03:02:00	11.1	89.5
64784	2024-04-29T03:12:00	11.2	89.5
64785	2024-04-29T03:22:00	11	89.5
64786	2024-04-29T03:32:00	11	88.5
64787	2024-04-29T03:42:00	10.8	90
64788	2024-04-29T03:52:00	10.4	91
64789	2024-04-29T04:02:00	10	92
64790	2024-04-29T04:12:00	9.9	92.5
64791	2024-04-29T04:22:00	10	92
64792	2024-04-29T04:32:00	10.1	91
64793	2024-04-29T04:42:00	10.3	90
64794	2024-04-29T04:52:00	10.5	89.5
64795	2024-04-29T05:02:00	10.6	89.5
64796	2024-04-29T05:12:00	10.7	89
64797	2024-04-29T05:22:00	10.8	89
64798	2024-04-29T05:32:00	11	88
64799	2024-04-29T05:42:00	11.1	88.5
64800	2024-04-29T05:52:00	11.1	88.5
64801	2024-04-29T06:02:00	11.4	83.5
64802	2024-04-29T06:12:00	11.7	84.5
64803	2024-04-29T06:22:00	12	84
64804	2024-04-29T06:32:00	12.1	83
64805	2024-04-29T06:42:00	12.4	80
64806	2024-04-29T06:52:00	12.5	80
64807	2024-04-29T07:02:00	13.2	78
64808	2024-04-29T07:12:00	13.6	75
64809	2024-04-29T07:22:00	13.8	75
64810	2024-04-29T07:32:00	14	73.5
64811	2024-04-29T07:42:00	14.6	71.5
64812	2024-04-29T07:51:59	15.3	68
64813	2024-04-29T08:02:00	15.6	65.5
64814	2024-04-29T08:11:59	15.7	65.5
64815	2024-04-29T08:21:59	15.6	66
64816	2024-04-29T08:31:59	15.7	66
64817	2024-04-29T08:41:59	16.2	64
64818	2024-04-29T08:51:59	16.4	63
64819	2024-04-29T09:01:59	16.7	61.5
64820	2024-04-29T09:11:59	16.8	62.5
64821	2024-04-29T09:21:59	17	63.5
64822	2024-04-29T09:31:59	18.1	56.5
64823	2024-04-29T09:41:59	19.1	57.5
64824	2024-04-29T09:51:59	19.9	52.5
64825	2024-04-29T10:01:59	20.1	53.5
64826	2024-04-29T10:11:59	19.7	52.5
64827	2024-04-29T10:21:59	19.2	52.5
64828	2024-04-29T10:41:59	19.1	55.5
64829	2024-04-29T10:51:59	19.4	54.5
64830	2024-04-29T11:01:59	20.6	51
64831	2024-04-29T11:11:59	21.6	49
64832	2024-04-29T11:21:59	21.5	47
64833	2024-04-29T11:31:59	22	47
64834	2024-04-29T11:41:59	22.3	47.5
64835	2024-04-29T11:51:59	22.5	47
64836	2024-04-29T12:01:59	22.8	45.5
64837	2024-04-29T12:11:59	23.5	43.5
64838	2024-04-29T12:21:59	27	36.5
64839	2024-04-29T12:31:59	28	35.5
64840	2024-04-29T12:41:59	29	34
64841	2024-04-29T12:51:59	31	31
64842	2024-04-29T13:01:59	32.6	27.5
64843	2024-04-29T13:11:59	34.5	26
64844	2024-04-29T13:21:59	35.2	24.5
64845	2024-04-29T13:31:59	37.2	24
64846	2024-04-29T13:41:59	35.3	24.5
64847	2024-04-29T13:51:59	35.6	24
64848	2024-04-29T14:01:59	37.1	23.5
64849	2024-04-29T14:11:59	38	22
64850	2024-04-29T14:21:59	38.5	22
64851	2024-04-29T14:31:59	37.3	23.5
64852	2024-04-29T14:41:59	37.4	22.5
64853	2024-04-29T14:51:59	38.4	22
64854	2024-04-29T15:01:59	37	23.5
64855	2024-04-29T15:11:59	36.9	23.5
64856	2024-04-29T15:21:59	37	23.5
64857	2024-04-29T15:31:59	38	22.5
64858	2024-04-29T15:41:59	34.6	25.5
64859	2024-04-29T15:51:59	31.4	29.5
64860	2024-04-29T16:01:59	29.3	32.5
64861	2024-04-29T16:11:59	27.7	34.5
64862	2024-04-29T16:21:59	26.9	37
64863	2024-04-29T16:31:59	27.2	36
64864	2024-04-29T16:41:59	27.7	36.5
64865	2024-04-29T16:51:59	28.9	34.5
64866	2024-04-29T17:01:59	26.6	38
64867	2024-04-29T17:11:59	26.9	37
64868	2024-04-29T17:21:59	25.4	39.5
64869	2024-04-29T17:31:59	26	39.5
64870	2024-04-29T17:41:59	24.1	43.5
64871	2024-04-29T17:51:59	23.6	46
64872	2024-04-29T18:01:59	23.1	47
64873	2024-04-29T18:11:59	22.6	49
64874	2024-04-29T18:21:59	22	51.5
64875	2024-04-29T18:31:59	21.6	52.5
64876	2024-04-29T18:41:59	21.2	54.5
64877	2024-04-29T18:51:58	20.7	55
64878	2024-04-29T19:01:58	20.4	57.5
64879	2024-04-29T19:11:58	20	59
64880	2024-04-29T19:21:58	19.6	61
64881	2024-04-29T19:31:58	19.3	60.5
64882	2024-04-29T19:41:58	19	61.5
64883	2024-04-29T19:51:58	18.7	62.5
64884	2024-04-29T20:01:58	18.5	63.5
64885	2024-04-29T20:11:58	17.9	65.5
64886	2024-04-29T20:21:58	17.8	66
64887	2024-04-29T20:31:58	17.8	65.5
64888	2024-04-29T20:41:58	17.8	66.5
64889	2024-04-29T20:51:58	17.5	66
64890	2024-04-29T21:01:58	17.4	67
64891	2024-04-29T21:11:58	17.1	68.5
64892	2024-04-29T21:21:58	16.7	70
64893	2024-04-29T21:31:58	16.6	70.5
64894	2024-04-29T21:41:58	16.2	72
64895	2024-04-29T21:51:58	16	72.5
64896	2024-04-29T22:01:58	15.7	74
64897	2024-04-29T22:11:58	15.6	74.5
64898	2024-04-29T22:21:58	15.4	75
64899	2024-04-29T22:31:58	15.3	75.5
64900	2024-04-29T22:41:58	15.2	75.5
64901	2024-04-29T22:51:58	15	76.5
64902	2024-04-29T23:25:52	14.4	77.5
64903	2024-04-29T23:25:52	14.4	77
64904	2024-04-29T23:26:06	14.6	77
64905	2024-04-29T23:31:58	14.2	78
64906	2024-04-29T23:41:58	14	78
64907	2024-04-29T23:51:58	14.1	78
64908	2024-04-30T00:01:58	14	78
64909	2024-04-30T00:11:58	13.8	78.5
64910	2024-04-30T00:21:58	13.8	79
64911	2024-04-30T00:31:58	13.6	80
64912	2024-04-30T00:41:58	13.4	80
64913	2024-04-30T00:51:58	13.3	80.5
64914	2024-04-30T01:01:58	13.2	81
64915	2024-04-30T01:11:58	12.9	82
64916	2024-04-30T01:21:58	12.6	83
64917	2024-04-30T01:31:58	12.4	83.5
64918	2024-04-30T01:41:58	12.2	84.5
64919	2024-04-30T01:51:58	12.1	85
64920	2024-04-30T02:01:58	12	84.5
64921	2024-04-30T02:11:58	11.7	85
64922	2024-04-30T02:21:58	11.6	85.5
64923	2024-04-30T02:31:58	11.6	85.5
64924	2024-04-30T02:41:58	11.5	85
64925	2024-04-30T02:51:58	11.3	86.5
64926	2024-04-30T03:01:58	11.2	86.5
64927	2024-04-30T03:11:58	11	87
64928	2024-04-30T03:21:58	10.9	87
64929	2024-04-30T03:31:58	10.7	88
64930	2024-04-30T03:41:58	10.6	88.5
64931	2024-04-30T03:51:58	10.4	88
64932	2024-04-30T04:01:58	10.3	88
64933	2024-04-30T04:11:58	10.2	88
64934	2024-04-30T04:21:58	10.2	88
64935	2024-04-30T04:31:58	10.2	87.5
64936	2024-04-30T04:41:58	10.1	88
64937	2024-04-30T04:51:58	10.1	89
64938	2024-04-30T05:01:58	10.1	90.5
64939	2024-04-30T05:11:58	10.2	90.5
64940	2024-04-30T05:21:58	10.3	91
64941	2024-04-30T05:31:58	10.6	91
64942	2024-04-30T05:41:58	10.8	91
64943	2024-04-30T05:51:58	10.9	90.5
64944	2024-04-30T06:01:58	11.2	91
64945	2024-04-30T06:11:58	11.4	90.5
64946	2024-04-30T06:21:58	11.6	90.5
64947	2024-04-30T06:31:58	11.7	90
64948	2024-04-30T06:41:58	12	89
64949	2024-04-30T06:51:58	12.4	87.5
64950	2024-04-30T07:01:58	12.7	84.5
64951	2024-04-30T07:11:58	13	83
64952	2024-04-30T07:21:58	13.4	83
64953	2024-04-30T07:31:58	13.6	81.5
64954	2024-04-30T07:41:58	14	81
64955	2024-04-30T07:51:58	14.2	79.5
64956	2024-04-30T08:01:58	14.4	78
64957	2024-04-30T08:11:57	14.5	79.5
64958	2024-04-30T08:21:57	14.7	78.5
64959	2024-04-30T08:31:57	14.9	79
64960	2024-04-30T08:41:57	15.2	77.5
64961	2024-04-30T08:51:57	15.3	76.5
64962	2024-04-30T09:01:57	15.4	76.5
64963	2024-04-30T09:11:57	15.8	74
64964	2024-04-30T09:21:57	16.1	73
64965	2024-04-30T09:31:57	16.1	73.5
64966	2024-04-30T09:41:57	16.6	72.5
64967	2024-04-30T09:51:57	17	72
64968	2024-04-30T10:01:57	17.4	70.5
64969	2024-04-30T10:11:57	17.8	69.5
64970	2024-04-30T10:21:57	18.3	68.5
64971	2024-04-30T10:31:57	18.6	68
64972	2024-04-30T10:41:57	19	67
64973	2024-04-30T10:51:57	19.5	66.5
64974	2024-04-30T11:01:57	19.7	65
64975	2024-04-30T11:11:57	20.2	63.5
64976	2024-04-30T11:21:57	20.8	64
64977	2024-04-30T11:31:57	21.4	60
64978	2024-04-30T11:41:57	21.9	60.5
64979	2024-04-30T11:51:57	22.7	55.5
64980	2024-04-30T12:01:57	24.7	49.5
64981	2024-04-30T12:11:57	28.5	40
64982	2024-04-30T12:21:57	30.5	38.5
64983	2024-04-30T12:31:57	32.9	33
64984	2024-04-30T12:41:57	33.1	32.5
64985	2024-04-30T13:01:57	34.1	32
64986	2024-04-30T13:11:57	33	33
64987	2024-04-30T13:21:57	37.4	28.5
64988	2024-04-30T13:31:57	37.5	27
64989	2024-04-30T13:51:57	39.4	25.5
64990	2024-04-30T14:01:57	40.5	24.5
64991	2024-04-30T14:11:57	40.7	23.5
64992	2024-04-30T14:21:57	41.5	23.5
64993	2024-04-30T14:31:57	41.2	22.5
64994	2024-04-30T14:41:57	41	22.5
64995	2024-04-30T14:51:57	40.7	22.5
64996	2024-04-30T15:01:57	40	24
64997	2024-04-30T15:11:57	40.5	22
64998	2024-04-30T15:21:57	38.2	23.5
64999	2024-04-30T15:31:57	35.5	27
65000	2024-04-30T15:41:57	36	26
65001	2024-04-30T15:51:57	35.7	25
65002	2024-04-30T16:01:57	33.5	28
65003	2024-04-30T16:11:57	32.9	28.5
65004	2024-04-30T16:21:57	31.4	30
65005	2024-04-30T16:31:57	30.3	31.5
65006	2024-04-30T16:41:57	29.6	32.5
65007	2024-04-30T16:51:57	29.4	34.5
65008	2024-04-30T17:01:57	28.5	37
65009	2024-04-30T17:11:57	27.7	42.5
65010	2024-04-30T17:21:57	27.2	47.5
65011	2024-04-30T17:31:57	26.6	50.5
65012	2024-04-30T17:41:57	26.2	52
65013	2024-04-30T17:51:57	25.8	52.5
65014	2024-04-30T18:01:57	25.2	54
65015	2024-04-30T18:11:57	24.8	53.5
65016	2024-04-30T18:21:57	24.3	54.5
65017	2024-04-30T18:31:57	23.6	57
65018	2024-04-30T18:41:57	23	57.5
65019	2024-04-30T18:51:57	22.4	56.5
65020	2024-04-30T19:01:57	22.1	58.5
65021	2024-04-30T19:11:56	21.7	59.5
65022	2024-04-30T19:21:56	20.9	60.5
65023	2024-04-30T19:31:56	20.8	61.5
65024	2024-04-30T19:41:56	20.5	61.5
65025	2024-04-30T19:51:56	20.3	61.5
65026	2024-04-30T20:01:56	19.8	63
65027	2024-04-30T20:11:56	19.6	63.5
65028	2024-04-30T20:21:56	19.3	65.5
65029	2024-04-30T20:31:56	19	65
65030	2024-04-30T20:41:56	18.7	66.5
65031	2024-04-30T20:51:56	18.3	67.5
65032	2024-04-30T21:01:56	18	68.5
65033	2024-04-30T21:11:56	17.9	69
65034	2024-04-30T21:21:56	17.6	68
65035	2024-04-30T21:31:56	17.4	71
65036	2024-04-30T21:41:56	17	73
65037	2024-04-30T21:51:56	16.7	73.5
65038	2024-04-30T22:01:56	16.5	74
65039	2024-04-30T22:11:56	16.4	74
65040	2024-04-30T22:21:56	16	75.5
65041	2024-04-30T22:31:56	15.8	76
65042	2024-04-30T22:41:56	15.5	77.5
65043	2024-04-30T22:51:56	15.5	77.5
65044	2024-04-30T23:26:20	15.4	77.5
65045	2024-04-30T23:26:21	15.1	77.5
65046	2024-04-30T23:26:21	15	77.5
65047	2024-04-30T23:31:56	14.8	78
65048	2024-04-30T23:41:56	14.7	78.5
65049	2024-04-30T23:51:56	14.6	78.5
65050	2024-05-01T00:01:56	14.4	79
65051	2024-05-01T00:11:56	14.2	79.5
65052	2024-05-01T00:21:56	14.1	79.5
65053	2024-05-01T00:31:56	14.1	79.5
65054	2024-05-01T00:41:56	13.7	80.5
65055	2024-05-01T00:51:56	13.6	81
65056	2024-05-01T01:01:56	13.5	81.5
65057	2024-05-01T01:11:56	13.3	81.5
65058	2024-05-01T01:21:56	13.2	80.5
65059	2024-05-01T01:31:56	13.3	81
65060	2024-05-01T01:41:56	13.2	80
65061	2024-05-01T01:51:56	13	81
65062	2024-05-01T02:01:56	12.8	81
65063	2024-05-01T02:11:56	12.9	81.5
65064	2024-05-01T02:21:56	12.8	81.5
65065	2024-05-01T02:31:56	12.7	82
65066	2024-05-01T02:41:56	12.6	81.5
65067	2024-05-01T02:51:56	12.4	82.5
65068	2024-05-01T03:01:56	12.5	83.5
65069	2024-05-01T03:11:56	12.3	83
65070	2024-05-01T03:21:56	12.1	84
65071	2024-05-01T03:31:56	12.1	84
65072	2024-05-01T03:41:56	12	84.5
65073	2024-05-01T03:51:56	11.8	85.5
65074	2024-05-01T04:01:56	11.6	86
65075	2024-05-01T04:11:56	11.5	86
65076	2024-05-01T04:21:56	11.4	87
65077	2024-05-01T04:31:56	11.2	86.5
65078	2024-05-01T04:41:56	11.2	87
65079	2024-05-01T04:51:56	11.2	87.5
65080	2024-05-01T05:01:56	11.3	87.5
65081	2024-05-01T05:11:56	11.4	87.5
65082	2024-05-01T05:21:56	11.5	87
65083	2024-05-01T05:31:56	11.7	87.5
65084	2024-05-01T05:41:56	11.8	88
65085	2024-05-01T05:51:56	11.8	88.5
65086	2024-05-01T06:01:56	12.1	88.5
65087	2024-05-01T06:11:56	12.3	86
65088	2024-05-01T06:21:56	12.6	85
65089	2024-05-01T06:31:56	13.1	84
65090	2024-05-01T06:41:56	13.3	80
65091	2024-05-01T06:51:56	13.8	79.5
65092	2024-05-01T07:01:56	14	79
65093	2024-05-01T07:11:56	14.4	80.5
65094	2024-05-01T07:21:56	14.5	78.5
65095	2024-05-01T07:31:56	14.9	77
65096	2024-05-01T07:41:56	15.3	76.5
65097	2024-05-01T07:51:56	15.4	76.5
65098	2024-05-01T08:01:56	15.9	75.5
65099	2024-05-01T08:11:55	16.2	73
65100	2024-05-01T08:21:55	16.6	72.5
65101	2024-05-01T08:31:55	17.1	72.5
65102	2024-05-01T08:41:55	17.5	70.5
65103	2024-05-01T08:51:55	17.8	70.5
65104	2024-05-01T09:01:55	18.2	69.5
65105	2024-05-01T09:11:55	18.7	68.5
65106	2024-05-01T09:21:55	18.9	68
65107	2024-05-01T09:31:55	19.2	67.5
65108	2024-05-01T09:41:55	19.5	66.5
65109	2024-05-01T09:51:55	20	65.5
65110	2024-05-01T10:01:55	20.5	64.5
65111	2024-05-01T10:11:55	20.7	62
65112	2024-05-01T10:21:55	21	62
65113	2024-05-01T10:31:55	21.3	60.5
65114	2024-05-01T10:41:55	21.8	60
65115	2024-05-01T10:51:55	22.4	54.5
65116	2024-05-01T11:01:55	23.2	55.5
65117	2024-05-01T11:11:55	23.7	53.5
65118	2024-05-01T11:21:55	24.2	52
65119	2024-05-01T11:31:55	25	48.5
65120	2024-05-01T11:41:55	25.5	48
65121	2024-05-01T11:51:55	26.1	47
65122	2024-05-01T12:01:55	28	44
65123	2024-05-01T12:11:55	31.3	37
65124	2024-05-01T12:21:55	32.8	35
65125	2024-05-01T12:31:55	31	36.5
65126	2024-05-01T12:41:55	31.3	37
65127	2024-05-01T12:51:55	33	34.5
65128	2024-05-01T13:01:55	31.2	38
65129	2024-05-01T13:11:55	29.4	38.5
65130	2024-05-01T13:21:55	29.4	38
65131	2024-05-01T13:31:55	29.8	37.5
65132	2024-05-01T13:41:55	30.3	36
65133	2024-05-01T13:51:55	32.2	31
65134	2024-05-01T14:01:55	35.4	27
65135	2024-05-01T14:11:55	36.2	26
65136	2024-05-01T14:21:55	39.1	24
65137	2024-05-01T14:31:55	39.6	25
65138	2024-05-01T14:41:55	39.3	26
65139	2024-05-01T14:51:55	35.9	27
65140	2024-05-01T15:01:55	33.3	34
65141	2024-05-01T15:11:55	31.8	36.5
65142	2024-05-01T15:21:55	30.9	38
65143	2024-05-01T15:31:55	33.7	32
65144	2024-05-01T15:41:55	37.3	26.5
65145	2024-05-01T15:51:55	38.9	24.5
65146	2024-05-01T16:01:55	40.4	22.5
65147	2024-05-01T16:11:55	40.3	18
65148	2024-05-01T16:21:55	40.6	17
65149	2024-05-01T16:31:55	39.6	16.5
65150	2024-05-01T16:41:55	39.4	17.5
65151	2024-05-01T16:51:55	38.5	19
65152	2024-05-01T17:01:55	37.9	19.5
65153	2024-05-01T17:11:55	36.9	20.5
65154	2024-05-01T17:21:55	36.1	23
65155	2024-05-01T17:31:55	33.9	25
65156	2024-05-01T17:41:55	30.8	29
65157	2024-05-01T17:51:55	29.5	32
65158	2024-05-01T18:01:55	28.6	34
65159	2024-05-01T18:11:55	27.8	36.5
65160	2024-05-01T18:21:55	27.2	37.5
65161	2024-05-01T18:31:55	26.3	39.5
65162	2024-05-01T18:41:54	25.6	41
65163	2024-05-01T18:51:54	25.3	42.5
65164	2024-05-01T19:01:54	24.8	43
65165	2024-05-01T19:11:54	24.5	42.5
65166	2024-05-01T19:21:54	24.1	45
65167	2024-05-01T19:31:54	23.9	45
65168	2024-05-01T19:41:54	23.8	42
65169	2024-05-01T19:51:54	23.9	39
65170	2024-05-01T20:01:54	24	40
65171	2024-05-01T20:11:54	23.7	40.5
65172	2024-05-01T20:21:54	23.6	42.5
65173	2024-05-01T20:31:54	23.1	44.5
65174	2024-05-01T20:41:54	22.6	47.5
65175	2024-05-01T20:51:54	21.9	49.5
65176	2024-05-01T21:01:54	21.4	51
65177	2024-05-01T21:11:54	21.1	53
65178	2024-05-01T21:21:54	20.8	54
65179	2024-05-01T21:31:54	20.6	53.5
65180	2024-05-01T21:41:54	20.4	54.5
65181	2024-05-01T21:51:54	20.2	55
65182	2024-05-01T22:01:54	20	55.5
65183	2024-05-01T22:11:54	19.7	55.5
65184	2024-05-01T22:21:54	19.6	56
65185	2024-05-01T22:31:54	19.4	57
65186	2024-05-01T22:41:54	19.1	60.5
65187	2024-05-01T22:51:54	18.6	58.5
65188	2024-05-01T23:26:10	18.6	63
65189	2024-05-01T23:26:10	18.3	60.5
65190	2024-05-01T23:26:10	18.5	60.5
65191	2024-05-01T23:31:54	18	65
65192	2024-05-01T23:41:54	17.4	65
65193	2024-05-01T23:51:54	17.2	66.5
65194	2024-05-02T00:01:54	17	69
65195	2024-05-02T00:11:54	16.7	70.5
65196	2024-05-02T00:21:54	16.5	71.5
65197	2024-05-02T00:31:54	16.4	71
65198	2024-05-02T00:41:54	15.9	72
65199	2024-05-02T00:51:54	15.6	74
65200	2024-05-02T01:01:54	15.5	74
65201	2024-05-02T01:11:54	15.3	74.5
65202	2024-05-02T01:21:54	15	74
65203	2024-05-02T01:31:54	14.5	77
65204	2024-05-02T01:41:54	14.3	76.5
65205	2024-05-02T01:51:54	14	76.5
65206	2024-05-02T02:01:54	14.1	76
65207	2024-05-02T02:11:54	13.6	77
65208	2024-05-02T02:21:54	14	77.5
65209	2024-05-02T02:31:54	14.1	79
65210	2024-05-02T02:41:54	14	80
65211	2024-05-02T02:51:54	14.1	81
65212	2024-05-02T03:01:54	14.1	81
65213	2024-05-02T03:11:54	14.2	81.5
65214	2024-05-02T03:21:54	14.4	84
65215	2024-05-02T03:31:54	14.4	85
65216	2024-05-02T03:41:54	14.4	86.5
65217	2024-05-02T03:51:54	14.3	86.5
65218	2024-05-02T04:01:54	14.4	87
65219	2024-05-02T04:11:54	14.5	87
65220	2024-05-02T04:21:54	14.7	87
65221	2024-05-02T04:31:54	15	86.5
65222	2024-05-02T04:41:54	15.3	85.5
65223	2024-05-02T04:51:54	15.4	85
65224	2024-05-02T05:01:54	15.1	85.5
65225	2024-05-02T05:11:54	15	86
65226	2024-05-02T05:21:54	14.9	85.5
65227	2024-05-02T05:31:54	15.1	85
65228	2024-05-02T05:41:54	15.5	84
65229	2024-05-02T05:51:54	15.5	83.5
65230	2024-05-02T06:01:54	15.5	84
65231	2024-05-02T06:11:54	15.7	83.5
65232	2024-05-02T06:21:54	16.1	83.5
65233	2024-05-02T06:31:53	16.3	82
65234	2024-05-02T06:41:53	16.5	81.5
65235	2024-05-02T06:51:53	16.6	81
65236	2024-05-02T07:01:53	16.7	80
65237	2024-05-02T07:11:53	17	79.5
65238	2024-05-02T07:21:53	17	79.5
65239	2024-05-02T07:31:53	17	79.5
65240	2024-05-02T07:41:53	17.5	78
65241	2024-05-02T07:51:53	18	76.5
65242	2024-05-02T08:01:53	18.5	76.5
65243	2024-05-02T08:11:53	18.7	75
65244	2024-05-02T08:21:53	18.8	75.5
65245	2024-05-02T08:31:53	18.9	75
65246	2024-05-02T08:41:53	18.9	74.5
65247	2024-05-02T08:51:53	19.3	73.5
65248	2024-05-02T09:01:53	19.2	73.5
65249	2024-05-02T09:11:53	19.3	73.5
65250	2024-05-02T09:21:53	19.6	73
65251	2024-05-02T09:31:53	19.9	72
65252	2024-05-02T09:41:53	20.4	69.5
65253	2024-05-02T09:51:53	20.2	70
65254	2024-05-02T10:01:53	20.4	68.5
65255	2024-05-02T10:11:53	20.7	67.5
65256	2024-05-02T10:21:53	20.9	67
65257	2024-05-02T10:31:53	21.3	64
65258	2024-05-02T10:41:53	21.6	63
65259	2024-05-02T10:51:53	21.7	63.5
65260	2024-05-02T11:01:53	21.6	63.5
65261	2024-05-02T11:11:53	21.1	63.5
65262	2024-05-02T11:21:53	21.3	63.5
65263	2024-05-02T11:31:53	21.9	61.5
65264	2024-05-02T11:41:53	22	61
65265	2024-05-02T11:51:53	22	60
65266	2024-05-02T12:01:53	22.5	60.5
65267	2024-05-02T12:11:53	21.6	62
65268	2024-05-02T12:21:53	22.5	60
65269	2024-05-02T12:31:53	23.2	58.5
65270	2024-05-02T12:41:53	23	59
65271	2024-05-02T12:51:53	22.4	60.5
65272	2024-05-02T13:01:53	21.7	61
65273	2024-05-02T13:11:53	21.5	61.5
65274	2024-05-02T13:21:53	20.9	63.5
65275	2024-05-02T13:31:53	20.1	65.5
65276	2024-05-02T13:41:53	19.4	69
65277	2024-05-02T13:51:53	18.9	70.5
65278	2024-05-02T14:01:53	18.6	71.5
65279	2024-05-02T14:11:53	18.5	71.5
65280	2024-05-02T14:21:53	18.1	72
65281	2024-05-02T14:31:53	17.8	72.5
65282	2024-05-02T14:41:53	17.3	74
65283	2024-05-02T14:51:53	15.5	94.5
65284	2024-05-02T15:01:53	14.5	98
65285	2024-05-02T15:11:53	14.2	99.5
65286	2024-05-02T15:21:53	13.8	99.5
65287	2024-05-02T15:31:53	13.3	100
65288	2024-05-02T15:41:53	13.3	100
65289	2024-05-02T15:51:53	13.1	100
65290	2024-05-02T16:01:53	12.9	100
65291	2024-05-02T16:11:53	12.8	100
65292	2024-05-02T16:21:53	12.8	100
65293	2024-05-02T16:31:53	13	100
65294	2024-05-02T16:41:53	12.9	100
65295	2024-05-02T16:51:53	12.8	100
65296	2024-05-02T17:01:53	12.7	100
65297	2024-05-02T17:11:53	12.7	100
65298	2024-05-02T17:21:53	12.7	100
65299	2024-05-02T17:31:53	12.8	100
65300	2024-05-02T17:41:52	12.8	100
65301	2024-05-02T17:51:52	12.8	99
65302	2024-05-02T18:01:52	12.8	98.5
65303	2024-05-02T18:11:52	12.7	97.5
65304	2024-05-02T18:21:52	12.7	97
65305	2024-05-02T18:31:52	12.7	96
65306	2024-05-02T18:41:52	12.5	95
65307	2024-05-02T18:51:52	12.5	94
65308	2024-05-02T19:01:52	12.5	94
65309	2024-05-02T19:11:52	12.5	94
65310	2024-05-02T19:21:52	12.4	94
65311	2024-05-02T19:31:52	12.3	94
65312	2024-05-02T19:41:52	12.3	94.5
65313	2024-05-02T19:51:52	12.3	94
65314	2024-05-02T20:01:52	12.2	94
65315	2024-05-02T20:11:52	12.1	94
65316	2024-05-02T20:21:52	12	94.5
65317	2024-05-02T20:31:52	12	94.5
65318	2024-05-02T20:41:52	12	94.5
65319	2024-05-02T20:51:52	12	94.5
65320	2024-05-02T21:01:52	11.9	94.5
65321	2024-05-02T21:11:52	11.9	95
65322	2024-05-02T21:21:52	12	95
65323	2024-05-02T21:31:52	11.9	95
65324	2024-05-02T21:41:52	11.6	95
65325	2024-05-02T21:51:52	11.4	95
65326	2024-05-02T22:01:52	11.3	95
65327	2024-05-02T22:11:52	11.2	95
65328	2024-05-02T22:21:52	11.1	95
65329	2024-05-02T22:31:52	11.3	95
65330	2024-05-02T22:41:52	11.2	95
65331	2024-05-02T22:51:52	11.3	95
65332	2024-05-02T23:26:54	11.5	95.5
65333	2024-05-02T23:26:55	11.2	95
65334	2024-05-02T23:26:55	11.3	95
65335	2024-05-02T23:31:52	11.6	95
65336	2024-05-02T23:41:52	11.6	95.5
65337	2024-05-02T23:51:52	11.7	95
65338	2024-05-03T00:01:52	11.6	95.5
65339	2024-05-03T00:11:52	11.7	95
65340	2024-05-03T00:21:52	11.7	95
65341	2024-05-03T00:31:52	11.7	95.5
65342	2024-05-03T00:41:52	11.7	95.5
65343	2024-05-03T00:51:52	11.7	95.5
65344	2024-05-03T01:01:52	11.6	95.5
65345	2024-05-03T01:11:52	11.6	98.5
65346	2024-05-03T01:21:52	11.6	98.5
65347	2024-05-03T01:31:52	11.6	98.5
65348	2024-05-03T01:41:52	11.6	98.5
65349	2024-05-03T01:51:52	11.6	98.5
65350	2024-05-03T02:01:52	11.5	100
65351	2024-05-03T02:11:52	11.5	100
65352	2024-05-03T02:21:52	11.5	100
65353	2024-05-03T02:31:52	11.4	100
65354	2024-05-03T02:41:52	11.3	100
65355	2024-05-03T02:51:52	11.4	100
65356	2024-05-03T03:01:52	11.3	100
65357	2024-05-03T03:11:52	11.3	100
65358	2024-05-03T03:21:52	11.2	100
65359	2024-05-03T03:31:52	11.2	100
65360	2024-05-03T03:41:52	11.3	100
65361	2024-05-03T03:51:52	11.2	99.5
65362	2024-05-03T04:01:52	11.1	98.5
65363	2024-05-03T04:11:52	10.7	99
65364	2024-05-03T04:21:52	10.6	97
65365	2024-05-03T04:31:52	10.7	94.5
65366	2024-05-03T04:41:52	10.8	93.5
65367	2024-05-03T04:51:52	10.9	91
65368	2024-05-03T05:01:52	11	88.5
65369	2024-05-03T05:11:52	11	89
65370	2024-05-03T05:21:52	11.1	88.5
65371	2024-05-03T05:31:52	11.1	88
65372	2024-05-03T05:41:52	11.2	86.5
65373	2024-05-03T05:51:52	11.2	87
65374	2024-05-03T06:01:52	11.2	86.5
65375	2024-05-03T06:11:52	11.3	86
65376	2024-05-03T06:21:52	11.3	85
65377	2024-05-03T06:31:52	11.3	84
65378	2024-05-03T06:41:52	11.6	83.5
65379	2024-05-03T06:51:52	12.1	82
65380	2024-05-03T07:01:52	12.4	79
65381	2024-05-03T07:11:52	12.7	77.5
65382	2024-05-03T07:21:52	13.1	75.5
65383	2024-05-03T07:31:52	13.2	75.5
65384	2024-05-03T07:41:52	13.2	75
65385	2024-05-03T07:51:52	13.3	73
65386	2024-05-03T08:01:52	13.5	71.5
65387	2024-05-03T08:11:52	13.6	70.5
65388	2024-05-03T08:21:52	13.7	70.5
65389	2024-05-03T08:31:52	13.8	71.5
65390	2024-05-03T08:41:51	13.9	71.5
65391	2024-05-03T08:51:51	14.6	69
65392	2024-05-03T09:01:51	14.8	66
65393	2024-05-03T09:11:51	14.9	69
65394	2024-05-03T09:21:51	14.7	66
65395	2024-05-03T09:31:51	14.7	63
65396	2024-05-03T09:41:51	15.4	60
65397	2024-05-03T09:51:51	15.9	59.5
65398	2024-05-03T10:01:51	15.6	59.5
65399	2024-05-03T10:11:51	15.3	60
65400	2024-05-03T10:21:51	15.1	61
65401	2024-05-03T10:31:51	15	61
65402	2024-05-03T10:41:51	14.5	62.5
65403	2024-05-03T10:51:51	14.7	61
65404	2024-05-03T11:01:51	14.7	60.5
65405	2024-05-03T11:11:51	15.6	58
65406	2024-05-03T11:21:51	16.1	57
65407	2024-05-03T11:31:51	15.4	59
65408	2024-05-03T11:41:51	15.5	58
65409	2024-05-03T11:51:51	15.6	58.5
65410	2024-05-03T12:01:51	15.3	60
65411	2024-05-03T12:11:51	14.8	60.5
65412	2024-05-03T12:21:51	14.7	61
65413	2024-05-03T12:31:51	15.5	60
65414	2024-05-03T12:41:51	16.4	58.5
65415	2024-05-03T12:51:51	15.9	59.5
65416	2024-05-03T13:01:51	16.2	59
65417	2024-05-03T13:11:51	18.2	55.5
65418	2024-05-03T13:21:51	21.2	47
65419	2024-05-03T13:31:51	18.9	51.5
65420	2024-05-03T13:41:51	18.5	52.5
65421	2024-05-03T13:51:51	17.3	57
65422	2024-05-03T14:01:51	17.1	58
65423	2024-05-03T14:11:51	19.2	53
65424	2024-05-03T14:21:51	21.6	46.5
65425	2024-05-03T14:31:51	21.4	45
65426	2024-05-03T14:41:51	19.9	48
65427	2024-05-03T14:51:51	20.8	44.5
65428	2024-05-03T15:01:51	23.1	40
65429	2024-05-03T15:11:51	25.1	34.5
65430	2024-05-03T15:21:51	25.6	33.5
65431	2024-05-03T15:31:51	24.6	35.5
65432	2024-05-03T15:41:51	19.3	45
65433	2024-05-03T15:51:51	17.8	49
65434	2024-05-03T16:01:51	17.3	51.5
65435	2024-05-03T16:11:51	16.8	52.5
65436	2024-05-03T16:21:51	16.7	54.5
65437	2024-05-03T16:31:51	16.5	55
65438	2024-05-03T16:41:51	16.7	55.5
65439	2024-05-03T16:51:51	17.8	53
65440	2024-05-03T17:01:51	21.6	45
65441	2024-05-03T17:11:51	20.2	46.5
65442	2024-05-03T17:21:51	21.1	45
65443	2024-05-03T17:31:51	19.3	48.5
65444	2024-05-03T17:41:51	17.1	54.5
65445	2024-05-03T17:51:51	16.4	57
65446	2024-05-03T18:01:51	15.9	58.5
65447	2024-05-03T18:11:51	15.6	59.5
65448	2024-05-03T18:21:51	15.1	61
65449	2024-05-03T18:31:51	14.9	62
65450	2024-05-03T18:41:51	14.6	67
65451	2024-05-03T18:51:51	14.5	69.5
65452	2024-05-03T19:01:51	14.1	71
65453	2024-05-03T19:11:51	13.7	72
65454	2024-05-03T19:21:51	13.4	74.5
65455	2024-05-03T19:31:51	13.1	74.5
65456	2024-05-03T19:41:51	12.9	76
65457	2024-05-03T19:51:51	12.7	76
65458	2024-05-03T20:01:51	12.7	74.5
65459	2024-05-03T20:21:51	12.3	76.5
65460	2024-05-03T20:31:50	12.1	78.5
65461	2024-05-03T20:41:51	12	78.5
65462	2024-05-03T20:51:51	11.8	79.5
65463	2024-05-03T21:01:50	11.7	79.5
65464	2024-05-03T21:11:50	11.5	80.5
65465	2024-05-03T21:21:50	11.2	82
65466	2024-05-03T21:31:50	11	83
65467	2024-05-03T21:41:50	10.8	83.5
65468	2024-05-03T21:51:50	10.5	84.5
65469	2024-05-03T22:01:50	10.4	85
65470	2024-05-03T22:11:50	10.2	85.5
65471	2024-05-03T22:21:50	10.1	85
65472	2024-05-03T22:31:50	10.1	85.5
65473	2024-05-03T22:41:50	10	85
65474	2024-05-03T22:51:50	9.9	84.5
65475	2024-05-03T23:27:23	10.1	84.5
65476	2024-05-03T23:27:23	10	84.5
65477	2024-05-03T23:27:23	10	85
65478	2024-05-03T23:31:50	10.1	84.5
65479	2024-05-03T23:41:50	10.2	84
65480	2024-05-03T23:51:50	10.2	84.5
65481	2024-05-04T00:01:50	10.3	85
65482	2024-05-04T00:11:50	10.3	84
65483	2024-05-04T00:21:50	10.3	85
65484	2024-05-04T00:31:50	10.4	85
65485	2024-05-04T00:41:50	10.3	85.5
65486	2024-05-04T00:51:50	10.3	86
65487	2024-05-04T01:01:50	10.4	86.5
65488	2024-05-04T01:11:50	10.4	87
65489	2024-05-04T01:21:50	10.4	87.5
65490	2024-05-04T01:31:50	10.4	87
65491	2024-05-04T01:41:50	10.4	87.5
65492	2024-05-04T01:51:50	10.4	88
65493	2024-05-04T02:01:50	10.3	88.5
65494	2024-05-04T02:11:50	10.2	88.5
65495	2024-05-04T02:21:50	10.2	89
65496	2024-05-04T02:31:50	10.1	89
65497	2024-05-04T02:41:50	10.2	89.5
65498	2024-05-04T02:51:50	10	89
65499	2024-05-04T03:01:50	10.1	89.5
65500	2024-05-04T03:11:50	9.9	89.5
65501	2024-05-04T03:21:50	10	90
65502	2024-05-04T03:31:50	10	89.5
65503	2024-05-04T03:41:50	9.9	89
65504	2024-05-04T03:51:50	9.8	90
65505	2024-05-04T04:01:50	9.9	89.5
65506	2024-05-04T04:11:50	9.9	90
65507	2024-05-04T04:21:50	10	90
65508	2024-05-04T04:31:50	10	90
65509	2024-05-04T04:41:50	10.2	89
65510	2024-05-04T04:51:50	10.1	89
65511	2024-05-04T05:01:50	10.2	89
65512	2024-05-04T05:11:50	10.4	90
65513	2024-05-04T05:21:50	10.4	89.5
65514	2024-05-04T05:31:50	10.6	89.5
65515	2024-05-04T05:41:50	10.8	89
65516	2024-05-04T05:51:50	11.1	86
65517	2024-05-04T06:01:50	11.3	86.5
65518	2024-05-04T06:11:50	11.7	86
65519	2024-05-04T06:21:50	12	85.5
65520	2024-05-04T06:31:50	12.3	83.5
65521	2024-05-04T06:41:50	12.5	82
65522	2024-05-04T06:51:50	12.6	81.5
65523	2024-05-04T07:01:50	12.7	82
65524	2024-05-04T07:11:50	12.8	81
65525	2024-05-04T07:21:50	13.1	79.5
65526	2024-05-04T07:31:50	13.3	78
65527	2024-05-04T07:41:50	13.6	78
65528	2024-05-04T07:51:50	13.7	76
65529	2024-05-04T08:01:50	13.6	77
65530	2024-05-04T08:11:50	13.7	76.5
65531	2024-05-04T08:21:50	14.4	73.5
65532	2024-05-04T08:31:50	14.9	72
65533	2024-05-04T08:41:50	15.1	69.5
65534	2024-05-04T08:51:50	15.5	68
65535	2024-05-04T09:01:50	15.7	63.5
65536	2024-05-04T09:11:50	16.6	60.5
65537	2024-05-04T09:21:50	17	59
65538	2024-05-04T09:31:50	17	60
65539	2024-05-04T09:41:50	17.3	57
65540	2024-05-04T09:51:50	18.1	57
65541	2024-05-04T10:01:50	18.3	56
65542	2024-05-04T10:11:50	18.6	55
65543	2024-05-04T10:21:50	18.6	55
65544	2024-05-04T10:31:50	19.4	52
65545	2024-05-04T10:41:50	19.4	51.5
65546	2024-05-04T10:51:50	19.5	51.5
65547	2024-05-04T11:01:50	19.3	51
65548	2024-05-04T11:11:49	19.9	48
65549	2024-05-04T11:21:49	19.8	48
65550	2024-05-04T11:31:49	19.7	50.5
65551	2024-05-04T11:41:49	19.7	46
65552	2024-05-04T11:51:49	20.3	50
65553	2024-05-04T12:01:49	20.5	44.5
65554	2024-05-04T12:11:49	20.5	45
65555	2024-05-04T12:21:49	22.5	42
65556	2024-05-04T12:31:49	22.4	42.5
65557	2024-05-04T12:41:49	23.6	41
65558	2024-05-04T12:51:49	24.3	38
65559	2024-05-04T13:01:49	24	40
65560	2024-05-04T13:11:49	23.8	40
65561	2024-05-04T13:21:49	24.6	39.5
65562	2024-05-04T13:31:49	24.8	38
65563	2024-05-04T13:41:49	24.6	37
65564	2024-05-04T13:51:49	24.3	37
65565	2024-05-04T14:01:49	26.9	33
65566	2024-05-04T14:11:49	25	38.5
65567	2024-05-04T14:21:49	24	38.5
65568	2024-05-04T14:31:49	24.2	39
65569	2024-05-04T14:41:49	23.4	38
65570	2024-05-04T14:51:49	23.1	42
65571	2024-05-04T15:01:49	22.6	41.5
65572	2024-05-04T15:11:49	22.3	42.5
65573	2024-05-04T15:21:49	22.1	41.5
65574	2024-05-04T15:31:49	21.8	44
65575	2024-05-04T15:41:49	21.3	45.5
65576	2024-05-04T15:51:49	20.5	48
65577	2024-05-04T16:01:49	20.1	49
65578	2024-05-04T16:11:49	19.8	50
65579	2024-05-04T16:21:49	19.6	50.5
65580	2024-05-04T16:31:49	19.3	53
65581	2024-05-04T16:41:49	19.2	53.5
65582	2024-05-04T16:51:49	18.9	54
65583	2024-05-04T17:01:49	18.8	54.5
65584	2024-05-04T17:11:49	18.7	58.5
65585	2024-05-04T17:21:49	18.9	60.5
65586	2024-05-04T17:31:49	19	60.5
65587	2024-05-04T17:41:49	18.8	61.5
65588	2024-05-04T17:51:49	18.6	62
65589	2024-05-04T18:01:49	18.3	64.5
65590	2024-05-04T18:11:49	18.2	64
65591	2024-05-04T18:21:49	18	63.5
65592	2024-05-04T18:31:49	17.9	64
65593	2024-05-04T18:41:49	17.7	67.5
65594	2024-05-04T18:51:49	17.5	68.5
65595	2024-05-04T19:01:49	17.4	70.5
65596	2024-05-04T19:11:49	17.4	70.5
65597	2024-05-04T19:21:49	17.1	71.5
65598	2024-05-04T19:31:49	17	75
65599	2024-05-04T19:41:49	16.8	74.5
65600	2024-05-04T19:52:08	16.8	78
65601	2024-05-04T20:01:49	16.8	81
65602	2024-05-04T20:11:49	16.7	81
65603	2024-05-04T20:21:49	16.5	80
65604	2024-05-04T20:31:49	16.4	73
65605	2024-05-04T20:41:49	16.2	80
65606	2024-05-04T20:51:49	16.1	79
65607	2024-05-04T21:01:49	16	80
65608	2024-05-04T21:11:49	16	79.5
65609	2024-05-04T21:21:49	15.7	87
65610	2024-05-04T21:31:49	15.6	85
65611	2024-05-04T21:41:49	15.5	87
65612	2024-05-04T21:51:49	15.4	89.5
65613	2024-05-04T22:01:49	15.3	88
65614	2024-05-04T22:11:49	15.4	88
65615	2024-05-04T22:21:49	15.2	88.5
65616	2024-05-04T22:31:48	15	88
65617	2024-05-04T22:41:48	14.9	89.5
65618	2024-05-04T22:51:48	14.9	87.5
65619	2024-05-04T23:26:24	15	80.5
65620	2024-05-04T23:26:24	14.5	85
65621	2024-05-04T23:26:24	14.6	85
65622	2024-05-04T23:31:48	14.6	82
65623	2024-05-04T23:41:48	15.1	77
65624	2024-05-04T23:51:48	15.3	76
65625	2024-05-05T00:01:48	15	79
65626	2024-05-05T00:11:48	15.1	79.5
65627	2024-05-05T00:21:48	14.1	93.5
65628	2024-05-05T00:31:48	13.7	97.5
65629	2024-05-05T00:41:48	13.5	99
65630	2024-05-05T00:51:48	13.4	100
65631	2024-05-05T01:01:48	13.2	100
65632	2024-05-05T01:11:48	13.2	100
65633	2024-05-05T01:21:48	13.1	100
65634	2024-05-05T01:31:48	13.2	100
65635	2024-05-05T01:41:48	13	100
65636	2024-05-05T01:51:48	13.2	100
65637	2024-05-05T02:01:48	13.1	100
65638	2024-05-05T02:11:48	13	100
65639	2024-05-05T02:21:48	13.2	100
65640	2024-05-05T02:31:48	13.1	100
65641	2024-05-05T02:41:48	13.1	100
65642	2024-05-05T02:51:48	13	100
65643	2024-05-05T03:01:48	12.7	100
65644	2024-05-05T03:11:48	12.7	100
65645	2024-05-05T03:21:48	12.8	100
65646	2024-05-05T03:31:48	12.7	100
65647	2024-05-05T03:41:48	12.8	100
65648	2024-05-05T03:51:48	12.7	100
65649	2024-05-05T04:01:48	12.7	100
65650	2024-05-05T04:11:48	12.6	100
65651	2024-05-05T04:21:48	12.8	100
65652	2024-05-05T04:31:48	12.9	100
65653	2024-05-05T04:41:48	13	100
65654	2024-05-05T04:51:48	13.2	100
65655	2024-05-05T05:01:48	13.4	100
65656	2024-05-05T05:11:48	13.5	100
65657	2024-05-05T05:21:48	13.6	100
65658	2024-05-05T05:31:48	13.5	100
65659	2024-05-05T05:41:48	13.6	100
65660	2024-05-05T05:51:48	13.8	100
65661	2024-05-05T06:01:48	14.2	100
65662	2024-05-05T06:11:48	14.5	100
65663	2024-05-05T06:21:48	14.6	100
65664	2024-05-05T06:31:48	14.8	100
65665	2024-05-05T06:41:48	15	100
65666	2024-05-05T06:51:48	15.3	100
65667	2024-05-05T07:01:48	15.9	100
65668	2024-05-05T07:11:48	16	100
65669	2024-05-05T07:21:48	16.1	99.5
65670	2024-05-05T07:31:48	16	99
65671	2024-05-05T07:41:48	16.7	100
65672	2024-05-05T07:51:48	16.7	99
65673	2024-05-05T08:01:48	16.8	94.5
65674	2024-05-05T08:11:48	16.9	81
65675	2024-05-05T08:21:48	17.1	79.5
65676	2024-05-05T08:31:48	17	79
65677	2024-05-05T08:41:48	17.4	78.5
65678	2024-05-05T08:51:48	17.9	76
65679	2024-05-05T09:01:48	17.9	72.5
65680	2024-05-05T09:11:48	17.9	73.5
65681	2024-05-05T09:21:48	17.4	82.5
65682	2024-05-05T09:31:48	17.4	77.5
65683	2024-05-05T09:41:48	17.9	73.5
65684	2024-05-05T09:51:48	17.8	80.5
65685	2024-05-05T10:01:48	17.3	78
65686	2024-05-05T10:11:48	17.8	73.5
65687	2024-05-05T10:21:48	17.7	74.5
65688	2024-05-05T10:31:48	17.9	74.5
65689	2024-05-05T10:41:48	18.5	72
65690	2024-05-05T10:51:48	18.7	70
65691	2024-05-05T11:01:48	19.1	69.5
65692	2024-05-05T11:11:47	19.5	69
65693	2024-05-05T11:21:47	19.5	69
65694	2024-05-05T11:32:04	20.1	67.5
65695	2024-05-05T11:41:47	20	68
65696	2024-05-05T11:51:47	19.9	67.5
65697	2024-05-05T12:01:47	20.9	63.5
65698	2024-05-05T12:11:47	20.2	65
65699	2024-05-05T12:21:47	22.1	56
65700	2024-05-05T12:31:47	22.5	59
65701	2024-05-05T12:41:47	21.6	60.5
65702	2024-05-05T12:51:47	21.2	61.5
65703	2024-05-05T13:01:47	23.2	56
65704	2024-05-05T13:11:47	23.8	53
65705	2024-05-05T13:21:47	26.4	47
65706	2024-05-05T13:31:47	26.2	46
65707	2024-05-05T13:41:47	28.2	39.5
65708	2024-05-05T13:51:47	25.9	44.5
65709	2024-05-05T14:01:47	24.5	47
65710	2024-05-05T14:11:47	23.6	60
65711	2024-05-05T14:21:47	23.2	54
65712	2024-05-05T14:31:47	21.7	60
65713	2024-05-05T14:41:47	18.1	99.5
65714	2024-05-05T14:51:47	17.9	96
65715	2024-05-05T15:01:47	18.1	96.5
65716	2024-05-05T15:11:47	18.9	97
65717	2024-05-05T15:21:47	22.4	96.5
65718	2024-05-05T15:31:47	28.2	96.5
65719	2024-05-05T15:41:47	25.1	94
65720	2024-05-05T15:51:47	22.7	94
65721	2024-05-05T16:01:47	22.1	94
65722	2024-05-05T16:11:47	24.4	94.5
65723	2024-05-05T16:21:47	22.9	94.5
65724	2024-05-05T16:31:47	21.2	94.5
65725	2024-05-05T16:41:47	20.6	94.5
65726	2024-05-05T16:51:47	19.9	94.5
65727	2024-05-05T17:01:47	19.8	94.5
65728	2024-05-05T17:11:47	19.5	94.5
65729	2024-05-05T17:21:47	19.4	94.5
65730	2024-05-05T17:31:47	19	94.5
65731	2024-05-05T17:41:47	18.8	98
65732	2024-05-05T17:51:47	18.7	98
65733	2024-05-05T18:01:47	18.6	100
65734	2024-05-05T18:11:47	18.3	100
65735	2024-05-05T18:21:47	18.1	99
65736	2024-05-05T18:31:47	17.9	96.5
65737	2024-05-05T18:41:47	17.9	92
65738	2024-05-05T18:51:47	17.5	89.5
65739	2024-05-05T19:01:47	17.3	90
65740	2024-05-05T19:11:47	17.4	91
65741	2024-05-05T19:21:47	17.3	92
65742	2024-05-05T19:31:47	16.9	90
65743	2024-05-05T19:41:47	16.5	100
65744	2024-05-05T19:51:47	16.4	100
65745	2024-05-05T20:01:47	16	100
65746	2024-05-05T20:11:47	16.1	100
65747	2024-05-05T20:21:47	15.8	100
65748	2024-05-05T20:31:47	15.8	100
65749	2024-05-05T20:41:47	15.7	100
65750	2024-05-05T20:51:47	15.5	100
65751	2024-05-05T21:01:47	15.6	100
65752	2024-05-05T21:11:47	15.6	100
65753	2024-05-05T21:21:47	15.5	100
65754	2024-05-05T21:31:47	15.3	100
65755	2024-05-05T21:41:47	15.3	100
65756	2024-05-05T21:51:47	15.2	100
65757	2024-05-05T22:01:47	15.1	100
65758	2024-05-05T22:11:47	15.2	100
65759	2024-05-05T22:21:46	15.2	100
65760	2024-05-05T22:31:46	15.1	100
65761	2024-05-05T22:41:46	15.2	100
65762	2024-05-05T22:51:46	15.2	100
65763	2024-05-05T23:26:44	15.1	100
65764	2024-05-05T23:26:44	15	100
65765	2024-05-05T23:26:44	15	100
65766	2024-05-05T23:31:46	14.9	100
65767	2024-05-05T23:41:46	14.8	100
65768	2024-05-05T23:51:46	14.8	100
65769	2024-05-06T00:01:46	14.9	100
65770	2024-05-06T00:11:46	14.8	100
65771	2024-05-06T00:21:46	14.7	100
65772	2024-05-06T00:31:46	14.7	100
65773	2024-05-06T00:41:46	14.5	100
65774	2024-05-06T00:51:46	14.6	99
65775	2024-05-06T01:01:46	14.6	99
65776	2024-05-06T01:11:46	14.6	98.5
65777	2024-05-06T01:21:46	14.5	99.5
65778	2024-05-06T01:31:46	14.4	100
65779	2024-05-06T01:41:46	14.3	99.5
65780	2024-05-06T01:51:46	14.2	99
65781	2024-05-06T02:01:46	14.2	100
65782	2024-05-06T02:11:46	14.2	100
65783	2024-05-06T02:21:46	14.1	100
65784	2024-05-06T02:31:46	14	100
65785	2024-05-06T02:41:46	13.9	100
65786	2024-05-06T02:51:46	13.8	100
65787	2024-05-06T03:01:46	13.8	100
65788	2024-05-06T03:11:46	13.9	100
65789	2024-05-06T03:21:46	13.9	100
65790	2024-05-06T03:31:46	13.9	99
65791	2024-05-06T03:41:46	13.9	99.5
65792	2024-05-06T03:51:46	13.9	100
65793	2024-05-06T04:01:46	13.9	99.5
65794	2024-05-06T04:11:46	13.8	99.5
65795	2024-05-06T04:21:46	13.8	100
65796	2024-05-06T04:31:46	13.9	100
65797	2024-05-06T04:41:46	13.9	100
65798	2024-05-06T04:51:46	14	99.5
65799	2024-05-06T05:01:46	14	99
65800	2024-05-06T05:11:46	14.3	100
65801	2024-05-06T05:21:46	14.4	98
65802	2024-05-06T05:31:46	14.6	97
65803	2024-05-06T05:41:46	14.6	97
65804	2024-05-06T05:51:46	14.8	96
65805	2024-05-06T06:01:46	15	94
65806	2024-05-06T06:11:46	15.4	91.5
65807	2024-05-06T06:21:46	15.6	92
65808	2024-05-06T06:31:46	15.7	89.5
65809	2024-05-06T06:41:46	15.6	89.5
65810	2024-05-06T06:51:46	15.7	90
65811	2024-05-06T07:01:46	15.6	89.5
65812	2024-05-06T07:11:46	15.4	88.5
65813	2024-05-06T07:21:46	15.6	86.5
65814	2024-05-06T07:31:46	15.7	85.5
65815	2024-05-06T07:41:46	16.2	85.5
65816	2024-05-06T07:51:46	16.5	84.5
65817	2024-05-06T08:01:46	16.8	82
65818	2024-05-06T08:12:04	16.9	81
65819	2024-05-06T08:21:46	16.9	80.5
65820	2024-05-06T08:31:46	17.3	77
65821	2024-05-06T08:41:46	17.9	74
65822	2024-05-06T08:51:46	18.2	74
65823	2024-05-06T09:01:46	18.6	70
65824	2024-05-06T09:11:46	18.4	63.5
65825	2024-05-06T09:21:46	18.4	61.5
65826	2024-05-06T09:31:46	18.5	61.5
65827	2024-05-06T09:41:46	18.4	61
65828	2024-05-06T09:51:46	18.6	63
65829	2024-05-06T10:01:46	17.9	63.5
65830	2024-05-06T10:11:46	17.9	66.5
65831	2024-05-06T10:21:46	18.2	67
65832	2024-05-06T10:31:46	18.3	67.5
65833	2024-05-06T10:41:46	17.9	70.5
65834	2024-05-06T10:51:46	16.1	95
65835	2024-05-06T11:01:45	15.2	94
65836	2024-05-06T11:11:45	15.5	100
65837	2024-05-06T11:21:45	14.8	100
65838	2024-05-06T11:31:45	14.3	100
65839	2024-05-06T11:41:45	14.6	100
65840	2024-05-06T11:51:45	13.9	100
65841	2024-05-06T12:01:45	13.9	100
65842	2024-05-06T12:11:45	13.8	100
65843	2024-05-06T12:21:45	13.8	100
65844	2024-05-06T12:31:45	14	100
65845	2024-05-06T12:41:45	14.1	100
65846	2024-05-06T12:51:45	14.1	100
65847	2024-05-06T13:01:45	14.1	100
65848	2024-05-06T13:11:45	13.7	100
65849	2024-05-06T13:21:45	13.8	100
65850	2024-05-06T13:31:45	13.9	100
65851	2024-05-06T13:41:45	13.7	100
65852	2024-05-06T13:51:45	13.8	100
65853	2024-05-06T14:01:45	14	100
65854	2024-05-06T14:11:45	14	100
65855	2024-05-06T14:21:45	14.1	100
65856	2024-05-06T14:31:45	14	100
65857	2024-05-06T14:41:45	14.4	100
65858	2024-05-06T14:51:45	14.3	100
65859	2024-05-06T15:01:45	13.8	100
65860	2024-05-06T15:11:45	13.9	100
65861	2024-05-06T15:21:45	14.6	100
65862	2024-05-06T15:31:45	15	100
65863	2024-05-06T15:41:45	15	100
65864	2024-05-06T15:51:45	14.9	100
65865	2024-05-06T16:01:45	15.2	100
65866	2024-05-06T16:11:45	15.2	100
65867	2024-05-06T16:21:45	15.7	100
65868	2024-05-06T16:31:45	15.6	100
65869	2024-05-06T16:41:45	15.2	100
65870	2024-05-06T16:51:45	14.9	100
65871	2024-05-06T17:01:45	14.8	100
65872	2024-05-06T17:11:45	14.9	100
65873	2024-05-06T17:21:45	15.1	100
65874	2024-05-06T17:31:45	14.9	100
65875	2024-05-06T17:41:45	14.8	100
65876	2024-05-06T17:51:45	14.8	100
65877	2024-05-06T18:01:45	14.7	100
65878	2024-05-06T18:11:45	14.6	100
65879	2024-05-06T18:21:45	14.4	100
65880	2024-05-06T18:31:45	14.4	100
65881	2024-05-06T18:41:45	14.3	100
65882	2024-05-06T18:51:45	14.4	100
65883	2024-05-06T19:01:45	14.3	100
65884	2024-05-06T19:11:45	14.4	100
65885	2024-05-06T19:21:45	14.2	100
65886	2024-05-06T19:31:45	14.1	100
65887	2024-05-06T19:41:45	14.2	100
65888	2024-05-06T19:51:45	14.2	100
65889	2024-05-06T20:01:45	14.2	98.5
65890	2024-05-06T20:11:45	14.2	95.5
65891	2024-05-06T20:21:45	14.1	93
65892	2024-05-06T20:31:45	14	92.5
65893	2024-05-06T20:41:45	13.8	93.5
65894	2024-05-06T20:51:45	13.5	95
65895	2024-05-06T21:01:45	13.2	96
65896	2024-05-06T21:11:45	13.1	96
65897	2024-05-06T21:21:45	13.1	94.5
65898	2024-05-06T21:31:45	13.2	94
65899	2024-05-06T21:41:45	12.9	94
65900	2024-05-06T21:51:45	12.9	93
65901	2024-05-06T22:01:45	12.8	93
65902	2024-05-06T22:11:45	12.7	93.5
65903	2024-05-06T22:21:45	12.5	93.5
65904	2024-05-06T22:31:45	12.6	93.5
65905	2024-05-06T22:41:45	12.6	93
65906	2024-05-06T22:51:45	12.6	93.5
65907	2024-05-06T23:26:45	12.5	94
65908	2024-05-06T23:26:46	12.5	95
65909	2024-05-06T23:26:46	12.3	95.5
65910	2024-05-06T23:31:45	12.3	95
65911	2024-05-06T23:41:45	12.1	96.5
65912	2024-05-06T23:51:45	12	97
65913	2024-05-07T00:01:44	11.8	97.5
65914	2024-05-07T00:12:07	11.6	98
65915	2024-05-07T00:21:44	11.6	98
65916	2024-05-07T00:31:44	11.4	98.5
65917	2024-05-07T00:41:44	11.1	99.5
65918	2024-05-07T00:51:44	11.1	99
65919	2024-05-07T01:01:44	10.9	99.5
65920	2024-05-07T01:11:44	10.8	100
65921	2024-05-07T01:21:44	10.4	100
65922	2024-05-07T01:31:44	10.1	100
65923	2024-05-07T01:41:44	10.1	100
65924	2024-05-07T01:51:44	9.9	100
65925	2024-05-07T02:01:44	9.8	100
65926	2024-05-07T02:11:44	9.6	100
65927	2024-05-07T02:21:44	9.6	100
65928	2024-05-07T02:31:44	9.4	100
65929	2024-05-07T02:41:44	9.6	100
65930	2024-05-07T02:51:44	9.4	99.5
65931	2024-05-07T03:01:44	9.5	100
65932	2024-05-07T03:11:44	9.5	100
65933	2024-05-07T03:21:44	9.4	100
65934	2024-05-07T03:31:44	9.5	100
65935	2024-05-07T03:41:44	9.3	100
65936	2024-05-07T03:51:44	9.4	100
65937	2024-05-07T04:01:44	9.2	100
65938	2024-05-07T04:11:44	9.2	100
65939	2024-05-07T04:21:44	9.2	100
65940	2024-05-07T04:31:44	9.3	100
65941	2024-05-07T04:41:44	9.2	100
65942	2024-05-07T04:51:44	9.3	100
65943	2024-05-07T05:01:44	9.7	100
65944	2024-05-07T05:11:44	9.8	100
65945	2024-05-07T05:21:44	10.2	100
65946	2024-05-07T05:31:44	10.3	100
65947	2024-05-07T05:41:44	10.4	100
65948	2024-05-07T05:51:44	10.6	99
65949	2024-05-07T06:01:44	10.8	98.5
65950	2024-05-07T06:11:44	11	97.5
65951	2024-05-07T06:21:44	11.3	96.5
65952	2024-05-07T06:31:44	11.5	96
65953	2024-05-07T06:51:44	12.7	90
65954	2024-05-07T07:01:44	12.6	90
65955	2024-05-07T07:11:44	12.8	88.5
65956	2024-05-07T07:21:44	13.3	86
65957	2024-05-07T07:31:44	13.1	88
65958	2024-05-07T07:41:44	13.3	86
65959	2024-05-07T07:51:44	13.6	84.5
65960	2024-05-07T08:01:44	13.8	85
65961	2024-05-07T08:11:44	13.9	83
65962	2024-05-07T08:21:44	14.2	84
65963	2024-05-07T08:31:44	14.5	83
65964	2024-05-07T08:41:44	15.1	80.5
65965	2024-05-07T08:51:44	15.8	77
65966	2024-05-07T09:01:44	16.2	75
65967	2024-05-07T09:11:44	16.7	73
65968	2024-05-07T09:21:44	16.6	73
65969	2024-05-07T09:31:44	17.4	69.5
65970	2024-05-07T09:41:44	17.7	68.5
65971	2024-05-07T09:51:44	17.7	68.5
65972	2024-05-07T10:01:44	17.7	70
65973	2024-05-07T10:11:44	18.1	67.5
65974	2024-05-07T10:21:44	17.8	67.5
65975	2024-05-07T10:31:44	17.8	68
65976	2024-05-07T10:41:44	17.7	67
65977	2024-05-07T10:51:44	17.4	69.5
65978	2024-05-07T11:01:44	17	71
65979	2024-05-07T11:11:44	16.7	72.5
65980	2024-05-07T11:21:44	16.4	79.5
65981	2024-05-07T11:31:44	16.4	79.5
65982	2024-05-07T11:41:44	16.9	77
65983	2024-05-07T11:51:44	17.2	76
65984	2024-05-07T12:01:44	18.2	74
65985	2024-05-07T12:11:44	21	63
65986	2024-05-07T12:21:44	19.9	65.5
65987	2024-05-07T12:31:44	19.7	66
65988	2024-05-07T12:41:44	20.1	65.5
65989	2024-05-07T12:51:44	20.3	63.5
65990	2024-05-07T13:01:44	19.8	65.5
65991	2024-05-07T13:11:44	22.2	59.5
65992	2024-05-07T13:21:43	20.4	63.5
65993	2024-05-07T13:31:43	19.6	67
65994	2024-05-07T13:41:43	18.4	71
65995	2024-05-07T13:51:43	17.8	74
65996	2024-05-07T14:01:43	16.9	82
65997	2024-05-07T14:11:43	16.4	91.5
65998	2024-05-07T14:21:43	16.5	94
65999	2024-05-07T14:31:43	16.5	91.5
66000	2024-05-07T14:41:43	16.5	91.5
66001	2024-05-07T14:51:43	16.7	89
66002	2024-05-07T15:01:43	16.8	87.5
66003	2024-05-07T15:11:43	17.1	84
66004	2024-05-07T15:21:43	18.7	79.5
66005	2024-05-07T15:31:43	17.8	80
66006	2024-05-07T15:41:43	17	83
66007	2024-05-07T15:51:43	16.8	85.5
66008	2024-05-07T16:01:43	16.5	88.5
66009	2024-05-07T16:11:43	16.7	87.5
66010	2024-05-07T16:21:43	17.2	85
66011	2024-05-07T16:31:43	16.9	85
66012	2024-05-07T16:41:43	16.8	85
66013	2024-05-07T16:51:43	16.8	84.5
66014	2024-05-07T17:01:43	16.6	86.5
66015	2024-05-07T17:11:43	16.5	86
66016	2024-05-07T17:21:43	16.4	84.5
66017	2024-05-07T17:31:43	16.1	82.5
66018	2024-05-07T17:41:43	16.2	83.5
66019	2024-05-07T17:51:43	15.8	85
66020	2024-05-07T18:01:43	15.5	84
66021	2024-05-07T18:11:43	15.5	85.5
66022	2024-05-07T18:21:43	15.3	85
66023	2024-05-07T18:31:43	15.2	85.5
66024	2024-05-07T18:41:43	15.1	86.5
66025	2024-05-07T18:51:43	14.9	85.5
66026	2024-05-07T19:01:43	14.9	87
66027	2024-05-07T19:11:43	14.8	87.5
66028	2024-05-07T19:21:43	14.6	87
66029	2024-05-07T19:31:43	14.5	88
66030	2024-05-07T19:41:43	14.3	89
66031	2024-05-07T19:51:43	14.3	89
66032	2024-05-07T20:01:43	14.2	89
66033	2024-05-07T20:11:43	14	88.5
66034	2024-05-07T20:21:43	13.9	88
66035	2024-05-07T20:31:43	13.7	89.5
66036	2024-05-07T20:41:43	13.1	91.5
66037	2024-05-07T20:51:43	12.8	91.5
66038	2024-05-07T21:01:43	12.5	93.5
66039	2024-05-07T21:11:43	12.3	94
66040	2024-05-07T21:21:43	12.6	93.5
66041	2024-05-07T21:31:43	12.7	92.5
66042	2024-05-07T21:41:43	12.8	91.5
66043	2024-05-07T21:51:43	12.9	91.5
66044	2024-05-07T22:01:43	12.8	91.5
66045	2024-05-07T22:11:43	12.8	91.5
66046	2024-05-07T22:21:43	13	91.5
66047	2024-05-07T22:31:43	12.9	92
66048	2024-05-07T22:41:43	13	91
66049	2024-05-07T22:51:43	12.9	91
66050	2024-05-07T23:27:04	12.8	90.5
66051	2024-05-07T23:27:04	12.8	90.5
66052	2024-05-07T23:27:04	12.7	91
66053	2024-05-07T23:31:43	12.7	91
66054	2024-05-07T23:41:43	12.6	92
66055	2024-05-07T23:51:43	12.7	92
66056	2024-05-08T00:01:43	12.6	92.5
66057	2024-05-08T00:11:43	12.5	92.5
66058	2024-05-08T00:21:43	12.5	92.5
66059	2024-05-08T00:31:43	12.2	93
66060	2024-05-08T00:41:43	11.6	94.5
66061	2024-05-08T00:51:43	11.1	96
66062	2024-05-08T01:01:43	11.3	96.5
66063	2024-05-08T01:11:43	11.4	95.5
66064	2024-05-08T01:21:43	11	96
66065	2024-05-08T01:31:43	10.9	96
66066	2024-05-08T01:41:43	11.1	95.5
66067	2024-05-08T01:51:43	10.9	95.5
66068	2024-05-08T02:01:43	10.7	95.5
66069	2024-05-08T02:11:42	10.8	95.5
66070	2024-05-08T02:31:42	10.3	96.5
66071	2024-05-08T02:41:42	10.1	97.5
66072	2024-05-08T02:51:42	10.3	97.5
66073	2024-05-08T03:01:42	10.4	96.5
66074	2024-05-08T03:11:42	10.6	95.5
66075	2024-05-08T03:21:42	10.7	96
66076	2024-05-08T03:31:42	10.5	96
66077	2024-05-08T03:41:42	10.6	95.5
66078	2024-05-08T03:51:42	10.8	95.5
66079	2024-05-08T04:01:42	10.9	95
66080	2024-05-08T04:11:42	10.9	95.5
66081	2024-05-08T04:21:42	11.1	95
66082	2024-05-08T04:31:42	11.1	94.5
66083	2024-05-08T04:41:42	11	95
66084	2024-05-08T04:51:42	10.7	96.5
66085	2024-05-08T05:01:42	10.7	97
66086	2024-05-08T05:11:42	11.2	96
66087	2024-05-08T05:21:42	11.5	95.5
66088	2024-05-08T05:31:42	11.8	93
66089	2024-05-08T05:41:42	11.9	92
66090	2024-05-08T05:51:42	12	91.5
66091	2024-05-08T06:01:42	12.1	90
66092	2024-05-08T06:11:42	11.8	91.5
66093	2024-05-08T06:21:42	12	91.5
66094	2024-05-08T06:31:42	12.5	90
66095	2024-05-08T06:41:42	12.8	87
66096	2024-05-08T06:51:42	13.2	84.5
66097	2024-05-08T07:01:42	13.6	84
66098	2024-05-08T07:11:42	13.5	81
66099	2024-05-08T07:21:42	13.9	82.5
66100	2024-05-08T07:31:42	14.1	79
66101	2024-05-08T07:41:42	14.3	78.5
66102	2024-05-08T07:51:42	14.5	76
66103	2024-05-08T08:01:42	14.9	73.5
66104	2024-05-08T08:11:42	15.1	74
66105	2024-05-08T08:21:42	14.9	72.5
66106	2024-05-08T08:31:42	15.6	72
66107	2024-05-08T08:41:42	15.4	69.5
66108	2024-05-08T08:51:42	14.9	69.5
66109	2024-05-08T09:01:42	14.5	71.5
66110	2024-05-08T09:11:42	14.4	74
66111	2024-05-08T09:21:42	14.5	72.5
66112	2024-05-08T09:31:42	14.8	73.5
66113	2024-05-08T09:41:42	15.8	68.5
66114	2024-05-08T09:51:42	16.5	67.5
66115	2024-05-08T10:01:42	16.6	66.5
66116	2024-05-08T10:11:42	16.2	67.5
66117	2024-05-08T10:21:42	16.9	67
66118	2024-05-08T10:31:42	17.4	63.5
66119	2024-05-08T10:41:42	17.6	63
66120	2024-05-08T10:51:42	17.4	65
66121	2024-05-08T11:01:42	17.4	64
66122	2024-05-08T11:11:42	17	65
66123	2024-05-08T11:21:42	16.6	66
66124	2024-05-08T11:31:42	16.1	67.5
66125	2024-05-08T11:41:42	15.7	68.5
66126	2024-05-08T11:51:42	15.8	70
66127	2024-05-08T12:01:42	16.2	69
66128	2024-05-08T12:11:42	16.5	67.5
66129	2024-05-08T12:21:42	16.3	69.5
66130	2024-05-08T12:31:42	16.4	68.5
66131	2024-05-08T12:41:42	16.9	67.5
66132	2024-05-08T12:51:42	17.4	66
66133	2024-05-08T13:01:42	18	64.5
66134	2024-05-08T13:11:42	18.3	63.5
66135	2024-05-08T13:21:42	18.2	62.5
66136	2024-05-08T13:31:42	18.1	65
66137	2024-05-08T13:41:42	17.4	64.5
66138	2024-05-08T13:51:42	16.8	68
66139	2024-05-08T14:01:42	16.9	68.5
66140	2024-05-08T14:11:42	17.5	66.5
66141	2024-05-08T14:21:42	17.9	66
66142	2024-05-08T14:31:42	18	64
66143	2024-05-08T14:41:42	18.8	61.5
66144	2024-05-08T14:51:42	18.6	61
66145	2024-05-08T15:01:42	18.1	59.5
66146	2024-05-08T15:11:41	18.7	61
66147	2024-05-08T15:21:41	20.5	55.5
66148	2024-05-08T15:31:41	24	47
66149	2024-05-08T15:41:41	29.8	35.5
66150	2024-05-08T15:51:41	27.7	38
66151	2024-05-08T16:01:41	25.8	41
66152	2024-05-08T16:11:41	23.7	45.5
66153	2024-05-08T16:21:41	26.4	40.5
66154	2024-05-08T16:31:41	24.5	42.5
66155	2024-05-08T16:41:41	22.4	47.5
66156	2024-05-08T16:51:41	21.6	50
66157	2024-05-08T17:01:41	21.3	51.5
66158	2024-05-08T17:11:41	20.4	53.5
66159	2024-05-08T17:21:41	19.7	57
66160	2024-05-08T17:31:41	19.3	58
66161	2024-05-08T17:41:41	19	59
66162	2024-05-08T17:51:41	18.6	60
66163	2024-05-08T18:01:41	18.2	62.5
66164	2024-05-08T18:11:41	17.9	64
66165	2024-05-08T18:21:41	17.5	65
66166	2024-05-08T18:31:41	17.3	66.5
66167	2024-05-08T18:41:41	17	68.5
66168	2024-05-08T18:51:41	16.8	69.5
66169	2024-05-08T19:01:41	16.6	71.5
66170	2024-05-08T19:11:41	16.3	70.5
66171	2024-05-08T19:21:41	16.1	72
66172	2024-05-08T19:31:41	16	73.5
66173	2024-05-08T19:41:41	15.9	75
66174	2024-05-08T19:51:41	15.8	76
66175	2024-05-08T20:01:41	15.5	76.5
66176	2024-05-08T20:11:41	15.3	78
66177	2024-05-08T20:21:41	15.3	78
66178	2024-05-08T20:31:41	15	79
66179	2024-05-08T20:41:41	15.1	79
66180	2024-05-08T20:51:41	15	80
66181	2024-05-08T21:01:41	15	79.5
66182	2024-05-08T21:11:41	14.8	80
66183	2024-05-08T21:21:41	14.7	81.5
66184	2024-05-08T21:31:41	14.7	80.5
66185	2024-05-08T21:41:41	14.3	81.5
66186	2024-05-08T21:51:41	14.2	82.5
66187	2024-05-08T22:01:41	14.1	83
66188	2024-05-08T22:11:41	13.8	84
66189	2024-05-08T22:21:41	13.2	85.5
66190	2024-05-08T22:31:41	12.8	86.5
66191	2024-05-08T22:42:02	12.5	87.5
66192	2024-05-08T22:51:41	12.1	88
66193	2024-05-08T23:27:35	11.7	89
66194	2024-05-08T23:27:35	12.1	88.5
66195	2024-05-08T23:27:36	11.6	89
66196	2024-05-08T23:31:41	11.4	89
66197	2024-05-08T23:41:41	11.3	89.5
66198	2024-05-08T23:51:41	11.1	90
66199	2024-05-09T00:01:41	10.9	90
66200	2024-05-09T00:11:41	10.8	90.5
66201	2024-05-09T00:21:41	10.7	90.5
66202	2024-05-09T00:31:41	10.5	90.5
66203	2024-05-09T00:41:41	10.3	91.5
66204	2024-05-09T00:51:41	10.2	91
66205	2024-05-09T01:01:41	10.1	91
66206	2024-05-09T01:11:41	9.8	91.5
66207	2024-05-09T01:21:41	9.7	91.5
66208	2024-05-09T01:31:41	9.5	91.5
66209	2024-05-09T01:41:41	9.5	91.5
66210	2024-05-09T01:51:41	9.3	92
66211	2024-05-09T02:01:41	9.3	92
66212	2024-05-09T02:11:41	9	92
66213	2024-05-09T02:21:41	9	92.5
66214	2024-05-09T02:31:41	8.8	92.5
66215	2024-05-09T02:41:41	8.7	92
66216	2024-05-09T02:51:41	8.5	92.5
66217	2024-05-09T03:01:41	8.5	93
66218	2024-05-09T03:11:41	8.4	93.5
66219	2024-05-09T03:21:41	8.4	93.5
66220	2024-05-09T03:31:41	8.3	94
66221	2024-05-09T03:41:41	8.3	94
66222	2024-05-09T03:51:41	8.3	93.5
66223	2024-05-09T04:01:41	8.2	93
66224	2024-05-09T04:11:41	8.1	93.5
66225	2024-05-09T04:21:41	8.1	93.5
66226	2024-05-09T04:31:41	8.1	93.5
66227	2024-05-09T04:41:41	8.2	93
66228	2024-05-09T04:51:40	8.3	93.5
66229	2024-05-09T05:01:40	8.5	93
66230	2024-05-09T05:11:40	8.5	93
66231	2024-05-09T05:21:40	8.7	93
66232	2024-05-09T05:31:40	8.7	93
66233	2024-05-09T05:41:40	8.9	94
66234	2024-05-09T05:51:40	9.1	94
66235	2024-05-09T06:01:40	9.5	95
66236	2024-05-09T06:11:40	9.8	94
66237	2024-05-09T06:21:40	10.1	94
66238	2024-05-09T06:31:40	10.3	94
66239	2024-05-09T06:41:40	10.7	94
66240	2024-05-09T06:51:40	10.9	92
66241	2024-05-09T07:01:40	11.3	91
66242	2024-05-09T07:11:40	11.5	90.5
66243	2024-05-09T07:21:40	11.9	89
66244	2024-05-09T07:31:40	12.2	88
66245	2024-05-09T07:41:40	12.3	88
66246	2024-05-09T07:51:40	12.6	82.5
66247	2024-05-09T08:01:40	12.9	81
66248	2024-05-09T08:11:40	13.3	79
66249	2024-05-09T08:21:40	13.5	78.5
66250	2024-05-09T08:31:40	13.7	78.5
66251	2024-05-09T08:41:40	14.1	78
66252	2024-05-09T08:51:40	14.4	76.5
66253	2024-05-09T09:01:40	14.8	74
66254	2024-05-09T09:11:40	15.2	70
66255	2024-05-09T09:21:40	15.3	68
66256	2024-05-09T09:31:40	15.7	66
66257	2024-05-09T09:41:40	15.9	63.5
66258	2024-05-09T09:51:40	16.6	60.5
66259	2024-05-09T10:01:40	16.7	58.5
66260	2024-05-09T10:11:40	16.8	57
66261	2024-05-09T10:21:40	17	54
66262	2024-05-09T10:31:40	17.1	53.5
66263	2024-05-09T10:41:40	17.3	55
66264	2024-05-09T10:51:40	17.6	55
66265	2024-05-09T11:01:40	17.7	50
66266	2024-05-09T11:11:40	17.9	51.5
66267	2024-05-09T11:21:40	18.3	52
66268	2024-05-09T11:31:40	18.6	48
66269	2024-05-09T11:41:40	18.9	50
66270	2024-05-09T11:51:40	19.7	44
66271	2024-05-09T12:01:40	22.6	43.5
66272	2024-05-09T12:11:40	26.6	35.5
66273	2024-05-09T12:21:40	29.2	32
66274	2024-05-09T12:31:40	31.6	29
66275	2024-05-09T12:41:40	32	27.5
66276	2024-05-09T12:51:40	33.1	25
66277	2024-05-09T13:01:40	35.1	22.5
66278	2024-05-09T13:11:40	36.2	22.5
66279	2024-05-09T13:21:40	33.1	24
66280	2024-05-09T13:31:40	37.8	20.5
66281	2024-05-09T13:41:40	37.2	20.5
66282	2024-05-09T13:51:40	37.6	20.5
66283	2024-05-09T14:01:40	38.6	20
66284	2024-05-09T14:11:40	39.5	18.5
66285	2024-05-09T14:21:40	39	19.5
66286	2024-05-09T14:31:40	39.2	19.5
66287	2024-05-09T14:41:40	40.6	17.5
66288	2024-05-09T14:51:40	41.8	17.5
66289	2024-05-09T15:01:40	39.5	17.5
66290	2024-05-09T15:11:40	39.6	17.5
66291	2024-05-09T15:21:40	38.6	18.5
66292	2024-05-09T15:31:40	39.4	18.5
66293	2024-05-09T15:41:40	40	18
66294	2024-05-09T15:51:40	40.1	17.5
66295	2024-05-09T16:01:40	39.3	18
66296	2024-05-09T16:11:40	37.3	19
66297	2024-05-09T16:21:40	37.3	18.5
66298	2024-05-09T16:31:40	36.6	19
66299	2024-05-09T16:41:40	36.4	20
66300	2024-05-09T16:51:40	35.7	20.5
66301	2024-05-09T17:01:40	34.9	21.5
66302	2024-05-09T17:11:39	34.5	21.5
66303	2024-05-09T17:21:40	33.9	22
66304	2024-05-09T17:31:39	32.5	23.5
66305	2024-05-09T17:41:39	30.4	25.5
66306	2024-05-09T17:51:39	26.5	30.5
66307	2024-05-09T18:01:39	25.4	34
66308	2024-05-09T18:11:39	24.6	36
66309	2024-05-09T18:21:39	23.8	37
66310	2024-05-09T18:31:39	22.9	38.5
66311	2024-05-09T18:41:39	22.3	41
66312	2024-05-09T18:51:39	21.6	42.5
66313	2024-05-09T19:01:39	21.1	43.5
66314	2024-05-09T19:11:39	20.3	46
66315	2024-05-09T19:21:39	20	48.5
66316	2024-05-09T19:31:39	19.5	48
66317	2024-05-09T19:41:39	19.1	49
66318	2024-05-09T19:51:39	18.5	53
66319	2024-05-09T20:01:39	18.5	50
66320	2024-05-09T20:11:39	18	53.5
66321	2024-05-09T20:21:39	17.4	56
66322	2024-05-09T20:31:39	17.1	57.5
66323	2024-05-09T20:41:39	16.9	59
66324	2024-05-09T20:51:39	16.5	60.5
66325	2024-05-09T21:01:39	16.2	59.5
66326	2024-05-09T21:11:39	16	60
66327	2024-05-09T21:21:39	15.7	62
66328	2024-05-09T21:31:39	15.5	62.5
66329	2024-05-09T21:41:39	15.1	63.5
66330	2024-05-09T21:51:39	15	64.5
66331	2024-05-09T22:01:39	14.6	65.5
66332	2024-05-09T22:11:39	14.4	66
66333	2024-05-09T22:21:39	14.1	67.5
66334	2024-05-09T22:31:39	14	68
66335	2024-05-09T22:41:39	13.6	68.5
66336	2024-05-09T22:51:39	13.4	70
66337	2024-05-09T23:01:39	13.2	69.5
66338	2024-05-09T23:11:39	13	70
66339	2024-05-09T23:21:39	12.8	71.5
66340	2024-05-09T23:31:39	12.7	71
66341	2024-05-09T23:41:39	12.7	71.5
66342	2024-05-09T23:51:39	12.4	72
66343	2024-05-10T00:01:39	12	73.5
66344	2024-05-10T00:11:39	12	74
66345	2024-05-10T00:21:39	11.8	74
66346	2024-05-10T00:31:39	11.7	74.5
66347	2024-05-10T00:41:39	11.6	75
66348	2024-05-10T00:51:39	11.6	76
66349	2024-05-10T01:01:39	11.3	75.5
66350	2024-05-10T01:11:39	11.3	76
66351	2024-05-10T01:21:39	11	77
66352	2024-05-10T01:31:39	10.7	78
66353	2024-05-10T01:41:39	10.5	78.5
66354	2024-05-10T01:51:39	10.5	78.5
66355	2024-05-10T02:01:39	10.3	79
66356	2024-05-10T02:11:39	10.4	78.5
66357	2024-05-10T02:21:39	10.3	79
66358	2024-05-10T02:31:39	10.1	79
66359	2024-05-10T02:51:39	9.8	81
66360	2024-05-10T03:01:39	9.6	81.5
66361	2024-05-10T03:11:39	9.6	81.5
66362	2024-05-10T03:21:39	9.3	83.5
66363	2024-05-10T03:31:39	9.2	84
66364	2024-05-10T03:41:39	9.2	84
66365	2024-05-10T03:51:39	8.9	84.5
66366	2024-05-10T04:01:39	8.8	86
66367	2024-05-10T04:11:39	8.8	86
66368	2024-05-10T04:21:39	8.9	85
66369	2024-05-10T04:31:39	8.9	85
66370	2024-05-10T04:41:39	8.9	85
66371	2024-05-10T04:51:39	9.2	85
66372	2024-05-10T05:01:39	9.2	85
66373	2024-05-10T05:11:39	9.3	84.5
66374	2024-05-10T05:21:39	9.5	84.5
66375	2024-05-10T05:31:39	9.7	84.5
66376	2024-05-10T05:41:39	9.9	84
66377	2024-05-10T05:51:39	10.1	83
66378	2024-05-10T06:01:39	10.5	82
66379	2024-05-10T06:11:39	10.6	82
66380	2024-05-10T06:21:39	10.8	81.5
66381	2024-05-10T06:31:39	11.1	83
66382	2024-05-10T06:41:39	11.4	83
66383	2024-05-10T06:51:38	11.9	81.5
66384	2024-05-10T07:01:38	12.1	80.5
66385	2024-05-10T07:11:38	12.6	78
66386	2024-05-10T07:21:38	12.8	77.5
66387	2024-05-10T07:31:38	13	76.5
66388	2024-05-10T07:41:38	13.5	76
66389	2024-05-10T07:51:38	13.6	76.5
66390	2024-05-10T08:01:38	13.8	76.5
66391	2024-05-10T08:11:38	14.4	74
66392	2024-05-10T08:21:38	14.7	75
66393	2024-05-10T08:31:38	14.9	74.5
66394	2024-05-10T08:41:38	15.2	73
66395	2024-05-10T08:51:38	15.8	73
66396	2024-05-10T09:01:38	16	69.5
66397	2024-05-10T09:11:38	16.7	69.5
66398	2024-05-10T09:21:38	16.8	66.5
66399	2024-05-10T09:31:38	17.3	63
66400	2024-05-10T09:41:38	17.7	62
66401	2024-05-10T09:51:38	17.8	60.5
66402	2024-05-10T10:01:38	18.2	55
66403	2024-05-10T10:11:38	18.5	51
66404	2024-05-10T10:21:38	18.6	51.5
66405	2024-05-10T10:31:38	18.9	51
66406	2024-05-10T10:41:38	19.2	49
66407	2024-05-10T10:51:38	19.6	50.5
66408	2024-05-10T11:01:38	19.6	48.5
66409	2024-05-10T11:11:38	20	47
66410	2024-05-10T11:21:38	20.2	48.5
66411	2024-05-10T11:31:38	20.7	49.5
66412	2024-05-10T11:41:38	21.1	46
66413	2024-05-10T11:51:38	21.8	45.5
66414	2024-05-10T12:01:38	24.7	37.5
66415	2024-05-10T12:11:38	28.9	32
66416	2024-05-10T12:21:38	30.9	26.5
66417	2024-05-10T12:31:38	33	26.5
66418	2024-05-10T12:41:38	34.7	23.5
66419	2024-05-10T12:51:38	36.1	23
66420	2024-05-10T13:01:38	37	23
66421	2024-05-10T13:11:38	38.1	21
66422	2024-05-10T13:21:38	38.9	21
66423	2024-05-10T13:31:38	39.5	20
66424	2024-05-10T13:41:38	39.4	20
66425	2024-05-10T13:51:38	39.8	18.5
66426	2024-05-10T14:01:38	40	18.5
66427	2024-05-10T14:11:38	40.9	17.5
66428	2024-05-10T14:21:38	41.8	18.5
66429	2024-05-10T14:31:38	41.6	18
66430	2024-05-10T14:41:38	42.8	16
66431	2024-05-10T14:51:38	41.1	17
66432	2024-05-10T15:01:38	40.9	18
66433	2024-05-10T15:11:38	41.4	17
66434	2024-05-10T15:21:38	40.4	17
66435	2024-05-10T15:31:38	40.7	17.5
66436	2024-05-10T15:41:38	41.8	17.5
66437	2024-05-10T15:51:38	42.1	17
66438	2024-05-10T16:01:38	41.5	16.5
66439	2024-05-10T16:11:38	40.1	17.5
66440	2024-05-10T16:21:38	39.6	18
66441	2024-05-10T16:31:38	39.7	18.5
66442	2024-05-10T16:41:38	39.1	19
66443	2024-05-10T16:51:38	38	18.5
66444	2024-05-10T17:01:38	37.1	19.5
66445	2024-05-10T17:11:38	36.9	20.5
66446	2024-05-10T17:21:38	35.9	20.5
66447	2024-05-10T17:31:38	35.3	20.5
66448	2024-05-10T17:41:38	33.2	24
66449	2024-05-10T17:51:38	28.9	28
66450	2024-05-10T18:01:38	27.2	30.5
66451	2024-05-10T18:11:38	26.3	32
66452	2024-05-10T18:21:37	25.7	35
66453	2024-05-10T18:31:37	24.9	36
66454	2024-05-10T18:41:37	24.1	37.5
66455	2024-05-10T18:51:37	23.4	39
66456	2024-05-10T19:01:37	22.9	40.5
66457	2024-05-10T19:11:37	22.4	42
66458	2024-05-10T19:21:37	22.1	43
66459	2024-05-10T19:31:37	21.6	45
66460	2024-05-10T19:41:37	20.9	47
66461	2024-05-10T19:51:37	20.5	49
66462	2024-05-10T20:01:37	20.2	49.5
66463	2024-05-10T20:11:38	19.7	51
66464	2024-05-10T20:21:37	19.5	52.5
66465	2024-05-10T20:31:37	18.8	53.5
66466	2024-05-10T20:41:37	18.5	55.5
66467	2024-05-10T20:51:37	18.1	56.5
66468	2024-05-10T21:01:37	18	56.5
66469	2024-05-10T21:11:37	17.7	57.5
66470	2024-05-10T21:21:37	17.5	58
66471	2024-05-10T21:31:37	17.3	58.5
66472	2024-05-10T21:41:37	17.1	58.5
66473	2024-05-10T21:51:37	16.9	59.5
66474	2024-05-10T22:01:37	16.6	60.5
66475	2024-05-10T22:11:37	16.4	61.5
66476	2024-05-10T22:21:37	16.2	62
66477	2024-05-10T22:31:37	16.1	62.5
66478	2024-05-10T22:41:37	15.8	63
66479	2024-05-10T22:51:37	15.7	63
66480	2024-05-10T23:27:17	15.3	65
66481	2024-05-10T23:27:17	15.5	63.5
66482	2024-05-10T23:27:17	15	65.5
66483	2024-05-10T23:31:37	14.9	66
66484	2024-05-10T23:41:37	14.6	65.5
66485	2024-05-10T23:51:37	14.5	66.5
66486	2024-05-11T00:01:37	14.3	67
66487	2024-05-11T00:11:37	14	67
66488	2024-05-11T00:21:37	13.9	67.5
66489	2024-05-11T00:31:37	13.7	68
66490	2024-05-11T00:41:37	13.6	68.5
66491	2024-05-11T00:51:37	13.5	69.5
66492	2024-05-11T01:01:37	13.3	69.5
66493	2024-05-11T01:11:37	13.1	70.5
66494	2024-05-11T01:21:37	13	71
66495	2024-05-11T01:31:37	12.9	71
66496	2024-05-11T01:41:37	12.8	71
66497	2024-05-11T01:51:37	12.5	72
66498	2024-05-11T02:01:37	12.4	73
66499	2024-05-11T02:11:37	12.1	73.5
66500	2024-05-11T02:21:37	12.1	74
66501	2024-05-11T02:31:37	11.9	74.5
66502	2024-05-11T02:41:37	11.8	75.5
66503	2024-05-11T02:51:37	11.6	76
66504	2024-05-11T03:01:37	11.6	76
66505	2024-05-11T03:11:37	11.5	76
66506	2024-05-11T03:21:37	11.4	77
66507	2024-05-11T03:31:37	11.3	77
66508	2024-05-11T03:41:37	11.1	78
66509	2024-05-11T03:51:37	10.8	79.5
66510	2024-05-11T04:01:37	10.8	80.5
66511	2024-05-11T04:11:37	10.6	80.5
66512	2024-05-11T04:21:37	10.6	81
66513	2024-05-11T04:31:37	10.7	81
66514	2024-05-11T04:41:37	10.7	81.5
66515	2024-05-11T04:51:37	11	81
66516	2024-05-11T05:01:37	11.1	81.5
66517	2024-05-11T05:11:37	11.4	79
66518	2024-05-11T05:21:37	11.6	78.5
66519	2024-05-11T05:31:37	11.8	78.5
66520	2024-05-11T05:41:37	11.9	78.5
66521	2024-05-11T05:51:37	12.3	77.5
66522	2024-05-11T06:01:37	12.5	77
66523	2024-05-11T06:11:37	12.7	77
66524	2024-05-11T06:21:37	13	76
66525	2024-05-11T06:31:37	13.2	76
66526	2024-05-11T06:41:37	13.3	77
66527	2024-05-11T06:51:37	13.7	76.5
66528	2024-05-11T07:01:37	14.2	75.5
66529	2024-05-11T07:11:37	14.6	74
66530	2024-05-11T07:21:36	14.9	72.5
66531	2024-05-11T07:31:36	15.4	71
66532	2024-05-11T07:41:36	15.6	70.5
66533	2024-05-11T07:51:36	16.1	70.5
66534	2024-05-11T08:01:36	16.3	68
66535	2024-05-11T08:11:36	16.6	69.5
66536	2024-05-11T08:21:36	16.8	68
66537	2024-05-11T08:31:36	17.2	67
66538	2024-05-11T08:41:36	17.6	66
66539	2024-05-11T08:51:36	17.9	65
66540	2024-05-11T09:01:36	18.3	64
66541	2024-05-11T09:11:36	18.5	61.5
66542	2024-05-11T09:21:36	18.7	61.5
66543	2024-05-11T09:31:36	19.1	59.5
66544	2024-05-11T09:41:36	19.2	57.5
66545	2024-05-11T09:51:36	19.6	55
66546	2024-05-11T10:01:36	19.8	49
66547	2024-05-11T10:11:36	20.1	48.5
66548	2024-05-11T10:21:36	20.3	47
66549	2024-05-11T10:31:36	20.5	46
66550	2024-05-11T10:41:36	20.8	45.5
66551	2024-05-11T10:51:36	21	43.5
66552	2024-05-11T11:01:36	21.3	43.5
66553	2024-05-11T11:11:36	21.4	43.5
66554	2024-05-11T11:21:36	21.7	42.5
66555	2024-05-11T11:31:36	22.2	41.5
66556	2024-05-11T11:41:36	22.4	40
66557	2024-05-11T11:51:36	23.2	37.5
66558	2024-05-11T12:01:36	26.2	34
66559	2024-05-11T12:11:36	30.4	28.5
66560	2024-05-11T12:21:36	32.9	25
66561	2024-05-11T12:31:36	34.4	24
66562	2024-05-11T12:41:36	36.5	20.5
66563	2024-05-11T13:01:36	38.7	20
66564	2024-05-11T13:11:36	39.9	18
66565	2024-05-11T13:21:36	40.9	18
66566	2024-05-11T13:31:36	40.2	16
66567	2024-05-11T13:41:36	41.6	16.5
66568	2024-05-11T13:51:36	42	16
66569	2024-05-11T14:01:36	43.2	16.5
66570	2024-05-11T14:11:36	44.3	16
66571	2024-05-11T14:21:36	43.9	16
66572	2024-05-11T14:31:36	45.3	15
66573	2024-05-11T14:41:36	45.7	15.5
66574	2024-05-11T14:51:36	44.7	15.5
66575	2024-05-11T15:01:36	44.3	15
66576	2024-05-11T15:11:36	43.9	15.5
66577	2024-05-11T15:21:36	45.1	15.5
66578	2024-05-11T15:31:36	45.1	15
66579	2024-05-11T15:41:36	44.8	15
66580	2024-05-11T15:51:36	44.2	15
66581	2024-05-11T16:01:36	44.2	15.5
66582	2024-05-11T16:11:36	44	16
66583	2024-05-11T16:21:36	42.8	16.5
66584	2024-05-11T16:31:36	43.3	16
66585	2024-05-11T16:41:36	42.8	16
66586	2024-05-11T16:51:36	42	17
66587	2024-05-11T17:01:36	41.2	17.5
66588	2024-05-11T17:11:36	40.5	18
66589	2024-05-11T17:21:36	39.4	20
66590	2024-05-11T17:31:36	37.8	20.5
66591	2024-05-11T17:41:36	36.4	22.5
66592	2024-05-11T17:51:36	31.6	28
66593	2024-05-11T18:01:36	30.4	29.5
66594	2024-05-11T18:11:36	29.4	31.5
66595	2024-05-11T18:21:36	29.1	32
66596	2024-05-11T18:31:36	28.2	33.5
66597	2024-05-11T18:41:36	27	36
66598	2024-05-11T18:51:36	26.2	37
66599	2024-05-11T19:01:35	25.4	38
66600	2024-05-11T19:11:35	24.9	39
66601	2024-05-11T19:21:35	24.4	40.5
66602	2024-05-11T19:31:35	23.9	41.5
66603	2024-05-11T19:41:35	23.4	42.5
66604	2024-05-11T19:51:35	22.9	44.5
66605	2024-05-11T20:01:36	22.5	46.5
66606	2024-05-11T20:11:35	22	47.5
66607	2024-05-11T20:21:35	21.8	48.5
66608	2024-05-11T20:31:35	21.4	50
66609	2024-05-11T20:41:35	21	52
66610	2024-05-11T20:51:35	20.3	53
66611	2024-05-11T21:01:35	20.2	52.5
66612	2024-05-11T21:11:35	20.1	49.5
66613	2024-05-11T21:21:35	20.2	49
66614	2024-05-11T21:31:35	20.1	49
66615	2024-05-11T21:41:35	19.8	49
66616	2024-05-11T21:51:35	19.7	49.5
66617	2024-05-11T22:01:35	19.6	50
66618	2024-05-11T22:11:35	19.3	49.5
66619	2024-05-11T22:21:35	19.1	50.5
66620	2024-05-11T22:31:35	18.7	54.5
66621	2024-05-11T22:41:35	18.2	57
66622	2024-05-11T22:51:35	17.7	58
66623	2024-05-11T23:27:00	17	59.5
66624	2024-05-11T23:27:00	17.6	58
66625	2024-05-11T23:27:00	17.4	59
66626	2024-05-11T23:31:35	16.9	61
66627	2024-05-11T23:41:35	16.5	62
66628	2024-05-11T23:51:35	16.3	62.5
66629	2024-05-12T00:01:35	16.1	63
66630	2024-05-12T00:11:35	16.1	63
66631	2024-05-12T00:21:35	15.7	63.5
66632	2024-05-12T00:31:35	15.5	64
66633	2024-05-12T00:41:35	15.4	64.5
66634	2024-05-12T00:51:35	15.2	65.5
66635	2024-05-12T01:01:35	15	65
66636	2024-05-12T01:11:35	14.9	65
66637	2024-05-12T01:21:35	14.7	66
66638	2024-05-12T01:31:35	14.5	66
66639	2024-05-12T01:41:35	14.4	66.5
66640	2024-05-12T01:51:35	14.3	67.5
66641	2024-05-12T02:01:35	14.1	68
66642	2024-05-12T02:11:35	13.9	68
66643	2024-05-12T02:21:35	13.8	68.5
66644	2024-05-12T02:31:35	13.8	69
66645	2024-05-12T02:41:35	13.3	70.5
66646	2024-05-12T02:51:35	13.1	72
66647	2024-05-12T03:01:35	12.9	73.5
66648	2024-05-12T03:11:35	12.7	74
66649	2024-05-12T03:21:35	12.6	75
66650	2024-05-12T03:31:35	12.3	76
66651	2024-05-12T03:41:35	12.2	77
66652	2024-05-12T03:51:35	12	78
66653	2024-05-12T04:01:35	12	78.5
66654	2024-05-12T04:11:35	11.8	78.5
66655	2024-05-12T04:21:35	11.9	79
66656	2024-05-12T04:31:35	11.9	78.5
66657	2024-05-12T04:41:35	12	79
66658	2024-05-12T04:51:35	12.2	79
66659	2024-05-12T05:01:35	12.3	79
66660	2024-05-12T05:11:35	12.7	77.5
66661	2024-05-12T05:21:35	12.8	76.5
66662	2024-05-12T05:31:35	13.3	75
66663	2024-05-12T05:41:35	13.5	73.5
66664	2024-05-12T05:51:35	14	73
66665	2024-05-12T06:01:35	14.1	72.5
66666	2024-05-12T06:11:35	14.4	71
66667	2024-05-12T06:21:35	14.8	71
66668	2024-05-12T06:31:35	15	70.5
66669	2024-05-12T06:41:35	15.4	70.5
66670	2024-05-12T06:51:35	15.9	69.5
66671	2024-05-12T07:01:35	16.4	65.5
66672	2024-05-12T07:11:34	17.1	65
66673	2024-05-12T07:21:34	17.3	65.5
66674	2024-05-12T07:31:34	17.9	62
66675	2024-05-12T07:41:34	18.4	60.5
66676	2024-05-12T07:51:34	18.7	61
66677	2024-05-12T08:01:34	18.9	61
66678	2024-05-12T08:11:34	19.2	59
66679	2024-05-12T08:21:34	19.7	55
66680	2024-05-12T08:31:34	20	55.5
66681	2024-05-12T08:41:34	20.4	55
66682	2024-05-12T08:51:34	20.4	56
66683	2024-05-12T09:01:35	20.8	52.5
66684	2024-05-12T09:11:34	21.1	48.5
66685	2024-05-12T09:21:34	21.6	48
66686	2024-05-12T09:31:34	21.9	46
66687	2024-05-12T09:41:34	22.2	45
66688	2024-05-12T09:51:34	22.4	43.5
66689	2024-05-12T10:01:34	22.7	42
66690	2024-05-12T10:11:34	23	44
66691	2024-05-12T10:21:34	23.3	43
66692	2024-05-12T10:31:34	23.7	40.5
66693	2024-05-12T10:41:34	24.2	42
66694	2024-05-12T10:51:34	24.5	42
66695	2024-05-12T11:01:34	24.8	41
66696	2024-05-12T11:11:34	25.3	39.5
66697	2024-05-12T11:21:34	25.7	38.5
66698	2024-05-12T11:31:34	26.2	38
66699	2024-05-12T11:41:34	26.9	39
66700	2024-05-12T11:51:34	27.7	36
66701	2024-05-12T12:01:34	29.4	33
66702	2024-05-12T12:11:34	32.2	28.5
66703	2024-05-12T12:21:34	33.5	28
66704	2024-05-12T12:31:34	34.1	25.5
66705	2024-05-12T12:41:34	35.6	24.5
66706	2024-05-12T12:51:34	36.3	23.5
66707	2024-05-12T13:01:34	37.7	21
66708	2024-05-12T13:11:34	38.4	22
66709	2024-05-12T13:21:34	39	21.5
66710	2024-05-12T13:31:34	40.5	20
66711	2024-05-12T13:41:34	40.3	21
66712	2024-05-12T13:51:34	39.5	20
66713	2024-05-12T14:01:34	39.5	21
66714	2024-05-12T14:11:34	41.4	19.5
66715	2024-05-12T14:21:34	41.9	18
66716	2024-05-12T14:31:34	41.8	18.5
66717	2024-05-12T14:41:34	42.2	18.5
66718	2024-05-12T14:51:34	43.1	17.5
66719	2024-05-12T15:01:34	42	19
66720	2024-05-12T15:11:34	44.4	17.5
66721	2024-05-12T15:21:34	45.2	16.5
66722	2024-05-12T15:31:34	45.5	16
66723	2024-05-12T15:41:34	45.6	16
66724	2024-05-12T15:51:34	45.8	16.5
66725	2024-05-12T16:01:34	45.7	15.5
66726	2024-05-12T16:11:34	44.2	16
66727	2024-05-12T16:21:34	44.5	16
66728	2024-05-12T16:31:34	43.6	16
66729	2024-05-12T16:41:34	42	17
66730	2024-05-12T16:51:34	42	17.5
66731	2024-05-12T17:01:34	42.1	18
66732	2024-05-12T17:11:34	41	18.5
66733	2024-05-12T17:21:34	39.7	19.5
66734	2024-05-12T17:31:34	38.7	21
66735	2024-05-12T17:41:34	37.6	21
66736	2024-05-12T17:51:34	33.4	25.5
66737	2024-05-12T18:01:34	31.9	27.5
66738	2024-05-12T18:11:34	30.9	28
66739	2024-05-12T18:21:34	30.5	29
66740	2024-05-12T18:31:33	29.2	31
66741	2024-05-12T18:41:33	28.4	32
66742	2024-05-12T18:51:33	27.6	33
66743	2024-05-12T19:01:33	26.9	33.5
66744	2024-05-12T19:11:33	26.5	33.5
66745	2024-05-12T19:21:33	26	35
66746	2024-05-12T19:31:33	25.6	36.5
66747	2024-05-12T19:41:33	25.3	37
66748	2024-05-12T19:51:33	25.2	37.5
66749	2024-05-12T20:01:33	24.8	38
66750	2024-05-12T20:11:33	24.6	37.5
66751	2024-05-12T20:21:33	24.6	39
66752	2024-05-12T20:31:33	24.3	39
66753	2024-05-12T20:41:33	23.7	42
66754	2024-05-12T20:51:33	23.2	45.5
66755	2024-05-12T21:11:33	23.2	49
66756	2024-05-12T21:21:33	22.8	47.5
66757	2024-05-12T21:31:33	22.5	48
66758	2024-05-12T21:41:33	22.4	49.5
66759	2024-05-12T21:51:33	22.2	47
66760	2024-05-12T22:01:33	22.3	47.5
66761	2024-05-12T22:11:33	22.3	48.5
66762	2024-05-12T22:21:33	22.3	50
66763	2024-05-12T22:31:33	22.1	49
66764	2024-05-12T22:41:33	21.9	49.5
66765	2024-05-12T22:51:33	21.6	54
66766	2024-05-12T23:28:02	20.1	84
66767	2024-05-12T23:28:02	18.9	93.5
66768	2024-05-12T23:28:02	18	83
66769	2024-05-12T23:31:33	17.7	82
66770	2024-05-12T23:41:33	17.6	83
66771	2024-05-12T23:51:33	17.5	81
66772	2024-05-13T00:01:33	17.6	79
66773	2024-05-13T00:11:33	17.6	79
66774	2024-05-13T00:21:33	17.7	77
66775	2024-05-13T00:31:33	18.1	75.5
66776	2024-05-13T00:41:33	18	75
66777	2024-05-13T00:51:33	18	76.5
66778	2024-05-13T01:01:33	17.9	77
66779	2024-05-13T01:11:33	17.8	76.5
66780	2024-05-13T01:21:33	17.8	78
66781	2024-05-13T01:31:33	17.6	78.5
66782	2024-05-13T01:41:33	17.5	78.5
66783	2024-05-13T01:51:33	17.4	78.5
66784	2024-05-13T02:01:33	17.2	80.5
66785	2024-05-13T02:11:33	17.1	81.5
66786	2024-05-13T02:21:33	17	82.5
66787	2024-05-13T02:31:33	17	82.5
66788	2024-05-13T02:41:33	17	82
66789	2024-05-13T02:51:33	17	81.5
66790	2024-05-13T03:01:33	17	82.5
66791	2024-05-13T03:11:33	17	83
66792	2024-05-13T03:21:33	16.8	83.5
66793	2024-05-13T03:31:33	16.7	84
66794	2024-05-13T03:41:33	16.7	83.5
66795	2024-05-13T03:51:33	16.8	83
66796	2024-05-13T04:01:33	16.9	82
66797	2024-05-13T04:11:33	16.8	82.5
66798	2024-05-13T04:21:33	16.7	83
66799	2024-05-13T04:31:33	16.8	83.5
66800	2024-05-13T04:41:33	17	82.5
66801	2024-05-13T04:51:33	16.9	83
66802	2024-05-13T05:01:33	16.9	84
66803	2024-05-13T05:21:33	17	91.5
66804	2024-05-13T05:31:32	17	93.5
66805	2024-05-13T05:41:32	16.9	92
66806	2024-05-13T05:51:32	17.1	91
66807	2024-05-13T06:01:32	17.1	89.5
66808	2024-05-13T06:11:32	16.9	88
66809	2024-05-13T06:21:32	17.1	91
66810	2024-05-13T06:31:32	17.5	91
66811	2024-05-13T06:41:32	17.7	89
66812	2024-05-13T06:51:32	17.9	89.5
66813	2024-05-13T07:01:32	18.2	87
66814	2024-05-13T07:11:32	18.7	86
66815	2024-05-13T07:21:32	18.9	85
66816	2024-05-13T07:31:32	19.3	84
66817	2024-05-13T07:41:32	19.8	83
66818	2024-05-13T07:51:32	20	78.5
66819	2024-05-13T08:01:32	20.3	76.5
66820	2024-05-13T08:11:32	20.4	76
66821	2024-05-13T08:21:32	20.7	75
66822	2024-05-13T08:31:32	20.8	72.5
66823	2024-05-13T08:41:32	21	71
66824	2024-05-13T08:51:32	21	71
66825	2024-05-13T09:01:32	21.5	69.5
66826	2024-05-13T09:11:32	21.2	71
66827	2024-05-13T09:21:32	21	72.5
66828	2024-05-13T09:31:32	20.9	70.5
66829	2024-05-13T09:41:32	21	73
66830	2024-05-13T09:51:32	21.2	71.5
66831	2024-05-13T10:01:32	21.5	71.5
66832	2024-05-13T10:11:32	21.9	68
66833	2024-05-13T10:21:32	21.7	66.5
66834	2024-05-13T10:31:32	22	66.5
66835	2024-05-13T10:41:32	22.4	66.5
66836	2024-05-13T10:51:32	23.3	65.5
66837	2024-05-13T11:01:32	23.8	63
66838	2024-05-13T11:11:32	24.6	60
66839	2024-05-13T11:21:32	25.1	57.5
66840	2024-05-13T11:31:32	25.2	59.5
66841	2024-05-13T11:41:32	25.6	60
66842	2024-05-13T11:51:32	25.5	59.5
66843	2024-05-13T12:01:32	26.6	55.5
66844	2024-05-13T12:11:32	27.4	53.5
66845	2024-05-13T12:21:32	27.1	52
66846	2024-05-13T12:31:32	26.2	56
66847	2024-05-13T12:41:32	25.7	58
66848	2024-05-13T12:51:32	25.7	55.5
66849	2024-05-13T13:01:32	25.9	57
66850	2024-05-13T13:11:32	27.3	52
66851	2024-05-13T13:21:32	28.3	50.5
66852	2024-05-13T13:31:32	32.1	43
66853	2024-05-13T13:41:32	31	44.5
66854	2024-05-13T13:51:32	29.4	48.5
66855	2024-05-13T14:11:32	26.6	55.5
66856	2024-05-13T14:21:32	26.2	57
66857	2024-05-13T14:31:32	26.2	56
66858	2024-05-13T14:41:32	26.7	55.5
66859	2024-05-13T14:51:32	28.1	50.5
66860	2024-05-13T15:01:32	31.8	43.5
66861	2024-05-13T15:11:32	31.9	41.5
66862	2024-05-13T15:21:32	33.7	35.5
66863	2024-05-13T15:31:32	37.9	30
66864	2024-05-13T15:41:32	36.3	29
66865	2024-05-13T15:51:32	31.6	39.5
66866	2024-05-13T16:01:31	31.1	39.5
66867	2024-05-13T16:11:31	31.5	37
66868	2024-05-13T16:21:31	37.4	28
66869	2024-05-13T16:31:31	37.7	27.5
66870	2024-05-13T16:41:31	33.1	35
66871	2024-05-13T16:51:31	30.6	37
66872	2024-05-13T17:01:31	29	41
66873	2024-05-13T17:11:31	28.4	44
66874	2024-05-13T17:21:31	29.2	42
66875	2024-05-13T17:31:31	28.6	44.5
66876	2024-05-13T17:41:31	28.9	44.5
66877	2024-05-13T17:51:31	26.9	49.5
66878	2024-05-13T18:01:31	26.3	52
66879	2024-05-13T18:11:31	27.5	51.5
66880	2024-05-13T18:21:31	28.4	48.5
66881	2024-05-13T18:31:31	26.3	54.5
66882	2024-05-13T18:41:31	24.4	60
66883	2024-05-13T18:51:31	23.3	64
66884	2024-05-13T19:01:31	22.7	65
66885	2024-05-13T19:11:31	22.3	66.5
66886	2024-05-13T19:21:31	22	67
66887	2024-05-13T19:31:31	21.4	67.5
66888	2024-05-13T19:41:31	21.3	67
66889	2024-05-13T19:51:31	20.9	67.5
66890	2024-05-13T20:01:31	20.6	69
66891	2024-05-13T20:11:31	20.5	69
66892	2024-05-13T20:21:31	20	69
66893	2024-05-13T20:31:31	19.9	69.5
66894	2024-05-13T20:41:31	19.7	70.5
66895	2024-05-13T20:51:31	19.5	72.5
66896	2024-05-13T21:01:31	19	74
66897	2024-05-13T21:11:31	18.8	75
66898	2024-05-13T21:21:31	18.6	74.5
66899	2024-05-13T21:31:31	18.2	76.5
66900	2024-05-13T21:41:31	18	77
66901	2024-05-13T21:51:31	17.7	76.5
66902	2024-05-13T22:01:31	17.4	77.5
66903	2024-05-13T22:11:31	17.3	78.5
66904	2024-05-13T22:21:31	17.2	79
66905	2024-05-13T22:31:31	16.8	80
66906	2024-05-13T22:41:31	16.5	80.5
66907	2024-05-13T22:51:31	16.5	80
66908	2024-05-13T23:26:48	16.2	81
66909	2024-05-13T23:26:48	16	81.5
66910	2024-05-13T23:26:48	16.4	80
66911	2024-05-13T23:31:31	15.9	81.5
66912	2024-05-13T23:41:31	15.6	80.5
66913	2024-05-13T23:51:31	15.4	82
66914	2024-05-14T00:01:31	15.3	82.5
66915	2024-05-14T00:11:31	15.2	83
66916	2024-05-14T00:21:31	15.1	83.5
66917	2024-05-14T00:31:31	14.9	83.5
66918	2024-05-14T00:41:31	14.8	84
66919	2024-05-14T00:51:31	14.6	84
66920	2024-05-14T01:01:31	14.4	84.5
66921	2024-05-14T01:11:31	14.3	84
66922	2024-05-14T01:21:31	14.3	85.5
66923	2024-05-14T01:31:31	14.1	85
66924	2024-05-14T01:41:31	14	85
66925	2024-05-14T01:51:31	13.8	85
66926	2024-05-14T02:01:31	13.7	86
66927	2024-05-14T02:11:31	13.7	86.5
66928	2024-05-14T02:21:31	13.4	86.5
66929	2024-05-14T02:31:31	13.2	87
66930	2024-05-14T02:41:31	13.2	87.5
66931	2024-05-14T02:51:31	13.1	88
66932	2024-05-14T03:01:31	13.1	87.5
66933	2024-05-14T03:11:31	13	87
66934	2024-05-14T03:21:30	13.1	86
66935	2024-05-14T03:31:30	12.8	87
66936	2024-05-14T03:41:30	12.6	88
66937	2024-05-14T03:51:30	12.5	89
66938	2024-05-14T04:01:30	12.6	89
66939	2024-05-14T04:11:30	12.6	88.5
66940	2024-05-14T04:21:30	12.5	89.5
66941	2024-05-14T04:31:30	12.7	90.5
66942	2024-05-14T04:41:30	13	90
66943	2024-05-14T04:51:30	12.4	91.5
66944	2024-05-14T05:01:30	12.5	92
66945	2024-05-14T05:11:30	12.7	91.5
66946	2024-05-14T05:21:30	12.8	92
66947	2024-05-14T05:31:30	13.1	93
66948	2024-05-14T05:41:30	13.3	92.5
66949	2024-05-14T05:51:30	13.5	92
66950	2024-05-14T06:01:30	13.7	91.5
66951	2024-05-14T06:11:30	14.1	90.5
66952	2024-05-14T06:21:30	14.4	89.5
66953	2024-05-14T06:31:30	14.6	90
66954	2024-05-14T06:41:30	14.9	90.5
66955	2024-05-14T06:51:30	15.3	89
66956	2024-05-14T07:01:30	15.8	87.5
66957	2024-05-14T07:11:30	16	88
66958	2024-05-14T07:21:30	16.5	85
66959	2024-05-14T07:31:30	16.7	85
66960	2024-05-14T07:41:30	17.3	84
66961	2024-05-14T07:51:30	17.5	85
66962	2024-05-14T08:01:30	17.9	83
66963	2024-05-14T08:11:30	18.4	81
66964	2024-05-14T08:21:30	18.6	78.5
66965	2024-05-14T08:31:30	19.1	74
66966	2024-05-14T08:41:30	19.7	63.5
66967	2024-05-14T08:51:30	20.1	59
66968	2024-05-14T09:01:30	20.5	57
66969	2024-05-14T09:11:30	20.8	56
66970	2024-05-14T09:21:30	21	56
66971	2024-05-14T09:31:30	21.3	56.5
66972	2024-05-14T09:41:30	21.7	54.5
66973	2024-05-14T09:51:30	21.9	55
66974	2024-05-14T10:01:30	22	55
66975	2024-05-14T10:11:30	22.4	55.5
66976	2024-05-14T10:21:30	22.6	52.5
66977	2024-05-14T10:31:30	23	52.5
66978	2024-05-14T10:41:30	23.2	51
66979	2024-05-14T10:51:30	23.4	52
66980	2024-05-14T11:01:30	23.8	49
66981	2024-05-14T11:11:30	24.1	49.5
66982	2024-05-14T11:21:30	24.5	48
66983	2024-05-14T11:31:30	25	44.5
66984	2024-05-14T11:41:30	25.4	47
66985	2024-05-14T11:51:30	26.1	43.5
66986	2024-05-14T12:01:30	29.1	36.5
66987	2024-05-14T12:11:30	33.1	30.5
66988	2024-05-14T12:21:30	36.4	27.5
66989	2024-05-14T12:51:30	41	22.5
66990	2024-05-14T13:01:30	39.5	23.5
66991	2024-05-14T13:11:30	39.9	23
66992	2024-05-14T13:21:30	41.2	22.5
66993	2024-05-14T13:31:30	41.6	21.5
66994	2024-05-14T13:41:30	43.4	19
66995	2024-05-14T13:51:30	44.3	18.5
66996	2024-05-14T14:01:30	45.4	17
66997	2024-05-14T14:11:30	45.8	17.5
66998	2024-05-14T14:21:30	45.4	17
66999	2024-05-14T14:31:30	46.5	16.5
67000	2024-05-14T14:41:30	46.1	16
67001	2024-05-14T14:51:30	45.8	17
67002	2024-05-14T15:01:30	45	16.5
67003	2024-05-14T15:11:30	45.9	16
67004	2024-05-14T15:21:30	45.9	16
67005	2024-05-14T15:31:29	45.4	16
67006	2024-05-14T15:41:29	45.6	16
67007	2024-05-14T15:51:29	45.6	16
67008	2024-05-14T16:01:29	44.5	16.5
67009	2024-05-14T16:11:29	43.4	17
67010	2024-05-14T17:01:29	40.9	18
67011	2024-05-14T17:11:29	36.5	22
67012	2024-05-14T17:21:29	34.2	25
67013	2024-05-14T17:31:29	32.8	26
67014	2024-05-14T17:41:29	31.7	28
67015	2024-05-14T17:51:29	31.1	29
67016	2024-05-14T18:01:29	30.5	30
67017	2024-05-14T18:11:29	28.5	38
67018	2024-05-14T18:21:29	26.6	41
67019	2024-05-14T18:31:29	25.1	43.5
67020	2024-05-14T18:41:29	24.5	44
67021	2024-05-14T18:51:29	24	44.5
67022	2024-05-14T19:01:29	23.3	46
67023	2024-05-14T19:11:29	22.7	47
67024	2024-05-14T19:21:29	22.3	47.5
67025	2024-05-14T19:31:29	22	48.5
67026	2024-05-14T19:41:29	21.5	49.5
67027	2024-05-14T19:51:29	21.2	50.5
67028	2024-05-14T20:01:29	20.8	52
67029	2024-05-14T20:11:29	20.5	53
67030	2024-05-14T20:21:29	20.1	54
67031	2024-05-14T20:31:29	19.7	55
67032	2024-05-14T20:41:29	19.5	56
67033	2024-05-14T20:51:29	19.5	56.5
67034	2024-05-14T21:11:29	18.7	59
67035	2024-05-14T21:21:29	18.6	60
67036	2024-05-14T21:31:29	18.5	61
67037	2024-05-14T21:41:29	18.1	63
67038	2024-05-14T21:51:29	17.9	64.5
67039	2024-05-14T22:01:29	17.8	66
67040	2024-05-14T22:11:29	17.6	66.5
67041	2024-05-14T22:21:29	17.4	67.5
67042	2024-05-14T22:31:29	17.1	68
67043	2024-05-14T22:41:29	17.1	69
67044	2024-05-14T22:51:29	17	69.5
67045	2024-05-14T23:27:42	16.8	70.5
67046	2024-05-14T23:27:42	16.7	71.5
67047	2024-05-14T23:27:42	16.8	71
67048	2024-05-14T23:31:29	16.8	72
67049	2024-05-14T23:41:29	16.6	72
67050	2024-05-14T23:51:29	16.5	72
67051	2024-05-15T00:01:29	16.5	72
67052	2024-05-15T00:11:29	16.4	72
67053	2024-05-15T00:21:29	16.3	72.5
67054	2024-05-15T00:31:29	16.1	72.5
67055	2024-05-15T00:41:29	16.1	72.5
67056	2024-05-15T00:51:29	16.1	73
67057	2024-05-15T01:01:29	16	72.5
67058	2024-05-15T01:11:29	16.2	72.5
67059	2024-05-15T01:21:29	16	72.5
67060	2024-05-15T01:31:29	16.1	72.5
67061	2024-05-15T01:41:29	16	73
67062	2024-05-15T01:51:29	15.9	73
67063	2024-05-15T02:01:29	16	73
67064	2024-05-15T02:11:29	15.9	73
67065	2024-05-15T02:21:29	15.8	73.5
67066	2024-05-15T02:31:29	15.9	74
67067	2024-05-15T02:41:29	15.8	75
67068	2024-05-15T02:51:29	15.7	76
67069	2024-05-15T03:01:28	15.5	77
67070	2024-05-15T03:11:28	15.6	77
67071	2024-05-15T03:21:28	15.5	77
67072	2024-05-15T03:31:28	15.6	77
67073	2024-05-15T03:41:28	15.6	78
67074	2024-05-15T03:51:28	15.2	80
67075	2024-05-15T04:01:28	14.3	92.5
67076	2024-05-15T04:11:28	13.9	96
67077	2024-05-15T04:21:28	13.9	96.5
67078	2024-05-15T04:31:28	14	96
67079	2024-05-15T04:41:28	13.8	96.5
67080	2024-05-15T04:51:28	13.8	96.5
67081	2024-05-15T05:01:28	14.1	96.5
67082	2024-05-15T05:11:28	14.2	92
67083	2024-05-15T05:21:28	14.4	91.5
67084	2024-05-15T05:31:28	14.7	89.5
67085	2024-05-15T05:41:28	14.7	89
67086	2024-05-15T05:51:28	14.6	91
67087	2024-05-15T06:01:28	14.6	89.5
67088	2024-05-15T06:11:28	14.9	87.5
67089	2024-05-15T06:21:28	14.9	87
67090	2024-05-15T06:31:28	14.7	93
67091	2024-05-15T06:41:28	14.6	95
67092	2024-05-15T06:51:28	14.5	97
67093	2024-05-15T07:01:28	14.6	94.5
67094	2024-05-15T07:11:28	14.8	94
67095	2024-05-15T07:21:28	14.8	95.5
67096	2024-05-15T07:31:28	14.9	95.5
67097	2024-05-15T07:41:28	14.9	93.5
67098	2024-05-15T07:51:28	15.2	93
67099	2024-05-15T08:01:28	15.5	91
67100	2024-05-15T08:11:28	15.6	90.5
67101	2024-05-15T08:21:28	15.7	90.5
67102	2024-05-15T08:31:28	15.8	95.5
67103	2024-05-15T08:41:28	16	92.5
67104	2024-05-15T08:51:28	15.9	91
67105	2024-05-15T09:01:28	16.2	89.5
67106	2024-05-15T09:11:28	17	89
67107	2024-05-15T09:21:28	17.1	88.5
67108	2024-05-15T09:31:28	17	86
67109	2024-05-15T10:01:28	17.3	89
67110	2024-05-15T10:11:47	16.8	91
67111	2024-05-15T10:21:28	17.1	83.5
67112	2024-05-15T10:31:28	17.4	80
67113	2024-05-15T10:41:28	18	81
67114	2024-05-15T10:51:28	18.6	78
67115	2024-05-15T11:01:28	19.1	78
67116	2024-05-15T11:11:28	20	73.5
67117	2024-05-15T11:21:28	20.6	73.5
67118	2024-05-15T11:31:28	20.5	68
67119	2024-05-15T11:41:28	20.8	68.5
67120	2024-05-15T11:51:28	20.8	69
67121	2024-05-15T12:01:28	20.7	72.5
67122	2024-05-15T12:11:28	20.5	69.5
67123	2024-05-15T12:21:28	20	70.5
67124	2024-05-15T12:31:28	20.2	72
67125	2024-05-15T12:41:28	20.6	69
67126	2024-05-15T12:51:28	20.4	69
67127	2024-05-15T13:01:28	20.8	69.5
67128	2024-05-15T13:11:28	20.8	68.5
67129	2024-05-15T13:21:28	20.7	67.5
67130	2024-05-15T13:31:28	20.5	69
67131	2024-05-15T13:41:28	21	69
67132	2024-05-15T13:51:28	21.9	65.5
67133	2024-05-15T14:01:28	23.2	64
67134	2024-05-15T14:11:28	24	59.5
67135	2024-05-15T14:21:28	23.1	61
67136	2024-05-15T14:31:28	23.6	59.5
67137	2024-05-15T14:41:27	24.1	56
67138	2024-05-15T14:51:27	24	57
67139	2024-05-15T15:01:27	22.6	60
67140	2024-05-15T15:11:27	22.8	61
67141	2024-05-15T15:21:27	21.9	63.5
67142	2024-05-15T15:31:27	21.2	65.5
67143	2024-05-15T15:41:27	21.1	68.5
67144	2024-05-15T15:51:27	20.7	68.5
67145	2024-05-15T16:01:27	20.6	69.5
67146	2024-05-15T16:11:27	20.5	70
67147	2024-05-15T16:21:27	20.1	71.5
67148	2024-05-15T16:31:27	20.2	72.5
67149	2024-05-15T16:41:27	20.3	70.5
67150	2024-05-15T16:51:27	20.1	72
67151	2024-05-15T17:01:27	19.8	72.5
67152	2024-05-15T17:11:27	19.7	74
67153	2024-05-15T17:21:27	19.6	74
67154	2024-05-15T17:31:27	19.5	74.5
67155	2024-05-15T17:41:27	19.4	74.5
67156	2024-05-15T17:51:27	19.3	76
67157	2024-05-15T18:01:27	19.1	76.5
67158	2024-05-15T18:11:27	18.8	77
67159	2024-05-15T18:21:27	18.7	78
67160	2024-05-15T18:31:27	18.6	79
67161	2024-05-15T18:41:27	18.4	80
67162	2024-05-15T18:51:27	18.2	80.5
67163	2024-05-15T19:01:27	18.1	81.5
67164	2024-05-15T19:11:27	18	82.5
67165	2024-05-15T19:21:27	17.8	83
67166	2024-05-15T19:31:27	17.4	84
67167	2024-05-15T19:41:27	17.4	83.5
67168	2024-05-15T19:51:27	17.1	84
67169	2024-05-15T20:01:27	17.1	85
67170	2024-05-15T20:11:27	16.9	85.5
67171	2024-05-15T20:21:27	16.8	85.5
67172	2024-05-15T20:31:27	16.7	85.5
67173	2024-05-15T20:41:27	16.7	85
67174	2024-05-15T20:51:27	16.9	84.5
67175	2024-05-15T21:01:27	16.8	84.5
67176	2024-05-15T21:11:27	16.7	85
67177	2024-05-15T21:21:27	16.8	85
67178	2024-05-15T21:31:27	16.8	80.5
67179	2024-05-15T21:41:27	15.7	89.5
67180	2024-05-15T21:51:27	15	93
67181	2024-05-15T22:01:27	14.6	94
67182	2024-05-15T22:11:27	14.5	94.5
67183	2024-05-15T22:21:27	14.3	95
67184	2024-05-15T22:31:27	14.2	95
67185	2024-05-15T22:41:27	14.3	95
67186	2024-05-15T22:51:27	14.3	95
67187	2024-05-15T23:26:38	14.2	95
67188	2024-05-15T23:26:40	14.1	95
67189	2024-05-15T23:26:40	14.2	94
67190	2024-05-15T23:31:27	13.8	95
67191	2024-05-15T23:41:27	13.8	95.5
67192	2024-05-15T23:51:27	13.6	95.5
67193	2024-05-16T00:01:27	13.3	96
67194	2024-05-16T00:11:27	13	97
67195	2024-05-16T00:21:27	13	97
67196	2024-05-16T00:31:27	12.9	97.5
67197	2024-05-16T00:41:27	12.8	97.5
67198	2024-05-16T00:51:27	12.6	98
67199	2024-05-16T01:01:27	12.6	98
67200	2024-05-16T01:11:27	12.7	98
67201	2024-05-16T01:21:27	12.5	98
67202	2024-05-16T01:31:27	12.5	98
67203	2024-05-16T01:41:27	12.5	98
67204	2024-05-16T01:51:27	12.6	97
67205	2024-05-16T02:01:27	12.7	97.5
67206	2024-05-16T02:11:27	12.3	97.5
67207	2024-05-16T02:21:27	12.4	97.5
67208	2024-05-16T02:31:26	12.2	97
67209	2024-05-16T02:41:26	11.8	97.5
67210	2024-05-16T02:51:26	11.7	98
67211	2024-05-16T03:01:26	11.4	97.5
67212	2024-05-16T03:11:26	11.2	97.5
67213	2024-05-16T03:21:26	11.2	98
67214	2024-05-16T03:31:26	11.1	98
67215	2024-05-16T03:41:26	11.2	97
67216	2024-05-16T03:51:26	10.9	97.5
67217	2024-05-16T04:01:26	10.8	97.5
67218	2024-05-16T04:11:26	10.7	97.5
67219	2024-05-16T04:21:26	10.6	97.5
67220	2024-05-16T04:31:26	10.6	98
67221	2024-05-16T04:41:26	10.6	97.5
67222	2024-05-16T04:51:26	10.6	97.5
67223	2024-05-16T05:01:26	10.7	98
67224	2024-05-16T05:11:26	11.1	98
67225	2024-05-16T05:21:26	11.3	98
67226	2024-05-16T05:31:26	11.6	98.5
67227	2024-05-16T05:41:26	11.7	98
67228	2024-05-16T05:51:26	12.2	96.5
67229	2024-05-16T06:01:26	12	97
67230	2024-05-16T06:11:26	12.5	95.5
67231	2024-05-16T06:21:26	12.9	93.5
67232	2024-05-16T06:31:26	13.2	92.5
67233	2024-05-16T06:41:26	13.7	91.5
67234	2024-05-16T06:51:26	14	90
67235	2024-05-16T07:01:26	14.2	89.5
67236	2024-05-16T07:11:26	14.5	89
67237	2024-05-16T07:21:26	15.1	87.5
67238	2024-05-16T07:31:26	15	87.5
67239	2024-05-16T07:41:26	15.1	85.5
67240	2024-05-16T07:51:26	16	81
67241	2024-05-16T08:01:26	16.4	78
67242	2024-05-16T08:31:26	18.6	71
67243	2024-05-16T08:41:26	18.5	69.5
67244	2024-05-16T08:51:26	18.8	69
67245	2024-05-16T09:01:26	18.6	68.5
67246	2024-05-16T09:11:26	19	68.5
67247	2024-05-16T09:21:26	19.2	67
67248	2024-05-16T09:31:26	19.3	65
67249	2024-05-16T09:41:26	20.3	63
67250	2024-05-16T09:51:26	20.9	60
67251	2024-05-16T10:01:26	21.3	60
67252	2024-05-16T10:11:26	20.5	62
67253	2024-05-16T10:21:26	20.5	60.5
67254	2024-05-16T10:31:26	20.6	60
67255	2024-05-16T10:41:26	21.7	58
67256	2024-05-16T10:51:26	21.7	56
67257	2024-05-16T11:01:26	21.9	55
67258	2024-05-16T11:11:26	21.6	55
67259	2024-05-16T11:21:26	21.5	56
67260	2024-05-16T11:31:26	22.2	55
67261	2024-05-16T11:41:26	21.9	57.5
67262	2024-05-16T11:51:26	22.2	53.5
67263	2024-05-16T12:01:26	22.6	54
67264	2024-05-16T12:11:26	21.8	70.5
67265	2024-05-16T12:21:26	21.5	57.5
67266	2024-05-16T12:31:26	21.2	56
67267	2024-05-16T12:41:26	20.7	71
67268	2024-05-16T12:51:26	18.6	79.5
67269	2024-05-16T13:01:26	18.6	75
67270	2024-05-16T13:11:26	18.5	77.5
67271	2024-05-16T13:21:26	18.8	75.5
67272	2024-05-16T13:31:26	18.5	88.5
67273	2024-05-16T13:41:26	19.5	74
67274	2024-05-16T13:51:26	20.7	70.5
67275	2024-05-16T14:01:26	21.2	68.5
67276	2024-05-16T14:11:26	21.6	62.5
67277	2024-05-16T14:21:26	21.7	60.5
67278	2024-05-16T14:31:26	21.5	63
67279	2024-05-16T14:41:25	21.5	61
67280	2024-05-16T14:51:25	22.3	60
67281	2024-05-16T15:01:25	21.9	58
67282	2024-05-16T15:11:25	21.3	60
67283	2024-05-16T15:21:25	21.8	59.5
67284	2024-05-16T15:31:25	22.6	56.5
67285	2024-05-16T15:41:25	22.7	54.5
67286	2024-05-16T15:51:25	25.6	48.5
67287	2024-05-16T16:01:25	30.1	37.5
67288	2024-05-16T16:11:25	30.7	34.5
67289	2024-05-16T16:21:25	27.6	42
67290	2024-05-16T16:31:25	25.6	47
67291	2024-05-16T16:41:25	23.1	53.5
67292	2024-05-16T16:51:25	22.3	57.5
67293	2024-05-16T17:01:25	21.9	59
67294	2024-05-16T17:11:25	21.6	59.5
67295	2024-05-16T17:21:25	21	62.5
67296	2024-05-16T17:31:25	20.8	64
67297	2024-05-16T17:51:25	20.3	68
67298	2024-05-16T18:01:25	19.7	71.5
67299	2024-05-16T18:11:25	19.6	74
67300	2024-05-16T18:21:25	19.2	74.5
67301	2024-05-16T18:31:25	18.8	74
67302	2024-05-16T18:41:25	18.5	74.5
67303	2024-05-16T18:51:25	18.2	75
67304	2024-05-16T19:01:25	18	75.5
67305	2024-05-16T19:11:25	17.9	75.5
67306	2024-05-16T19:21:25	17.9	74
67307	2024-05-16T19:31:25	17.8	74
67308	2024-05-16T19:41:25	17.6	74
67309	2024-05-16T19:51:25	17.6	75
67310	2024-05-16T20:01:25	17.4	76
67311	2024-05-16T20:11:25	17.4	77.5
67312	2024-05-16T20:21:25	17.1	78.5
67313	2024-05-16T20:31:25	16.8	79.5
67314	2024-05-16T20:41:25	16.6	80.5
67315	2024-05-16T20:51:25	16.4	81
67316	2024-05-16T21:01:46	16.1	81
67317	2024-05-16T21:11:25	14.8	96
67318	2024-05-16T21:21:25	14.6	99
67319	2024-05-16T21:31:25	14.6	99.5
67320	2024-05-16T21:41:25	14.4	100
67321	2024-05-16T21:51:25	14.1	100
67322	2024-05-16T22:01:25	14.1	93
67323	2024-05-16T22:11:25	14.1	93.5
67324	2024-05-16T22:21:25	14	93.5
67325	2024-05-16T22:31:25	13.9	93
67326	2024-05-16T22:41:25	13.8	93.5
67327	2024-05-16T22:51:25	13.8	93.5
67328	2024-05-16T23:26:26	13.6	94
67329	2024-05-16T23:26:26	13.4	94
67330	2024-05-16T23:26:26	13.6	94
67331	2024-05-16T23:31:25	13.3	94
67332	2024-05-16T23:41:25	13.3	94
67333	2024-05-16T23:51:25	13	94.5
67334	2024-05-17T00:01:25	12.8	94.5
67335	2024-05-17T00:11:25	12.8	94.5
67336	2024-05-17T00:21:25	12.8	94.5
67337	2024-05-17T00:31:25	12.6	94.5
67338	2024-05-17T00:41:25	12.7	94.5
67339	2024-05-17T00:51:25	12.7	94.5
67340	2024-05-17T01:01:25	12.6	94.5
67341	2024-05-17T01:11:25	12.6	94.5
67342	2024-05-17T01:21:25	12.5	94.5
67343	2024-05-17T01:31:25	12.5	95
67344	2024-05-17T01:41:25	12.5	95
67345	2024-05-17T01:51:25	12.5	95
67346	2024-05-17T02:01:25	12.5	95
67347	2024-05-17T02:11:25	12.4	95
67348	2024-05-17T02:21:25	12.3	95
67349	2024-05-17T02:31:24	12.2	95
67350	2024-05-17T02:41:24	12.2	95.5
67351	2024-05-17T02:51:24	11.9	95.5
67352	2024-05-17T03:01:24	11.8	95.5
67353	2024-05-17T03:11:24	11.9	95.5
67354	2024-05-17T03:21:24	11.8	95.5
67355	2024-05-17T03:31:24	11.8	96
67356	2024-05-17T03:41:24	11.6	96
67357	2024-05-17T03:51:24	11.7	96
67358	2024-05-17T04:01:24	11.7	96
67359	2024-05-17T04:11:24	11.7	96
67360	2024-05-17T04:21:24	11.6	96
67361	2024-05-17T04:31:24	11.5	96
67362	2024-05-17T04:41:24	11.5	96
67363	2024-05-17T04:51:24	11.5	96
67364	2024-05-17T05:01:24	11.5	96.5
67365	2024-05-17T05:11:24	11.5	96
67366	2024-05-17T05:21:24	11.4	96
67367	2024-05-17T05:31:24	11.4	96.5
67368	2024-05-17T05:41:24	11.3	96
67369	2024-05-17T05:51:24	11.3	96.5
67370	2024-05-17T06:01:24	11.2	96.5
67371	2024-05-17T06:11:24	11.3	96.5
67372	2024-05-17T06:21:24	11.1	96.5
67373	2024-05-17T06:31:24	11.3	96.5
67374	2024-05-17T06:41:24	11.3	96.5
67375	2024-05-17T06:51:24	11.2	96.5
67376	2024-05-17T07:01:24	11.3	96.5
67377	2024-05-17T07:11:24	11.3	96.5
67378	2024-05-17T07:21:24	11.3	96.5
67379	2024-05-17T07:31:24	11.2	96.5
67380	2024-05-17T07:41:24	11.2	97
67381	2024-05-17T07:51:24	11.1	96.5
67382	2024-05-17T08:01:24	11.1	96.5
67383	2024-05-17T08:11:24	11.1	97
67384	2024-05-17T08:21:24	11.1	97
67385	2024-05-17T08:31:24	11.1	97
67386	2024-05-17T08:41:24	11.1	97
67387	2024-05-17T08:51:24	11.1	97
67388	2024-05-17T09:01:24	11	97
67389	2024-05-17T09:11:24	11.1	97
67390	2024-05-17T09:21:24	11	97
67391	2024-05-17T09:31:24	10.8	97
67392	2024-05-17T09:41:24	10.9	97
67393	2024-05-17T09:51:24	10.8	97
67394	2024-05-17T10:01:24	10.8	97
67395	2024-05-17T10:11:24	10.8	97
67396	2024-05-17T10:21:24	10.9	97
67397	2024-05-17T10:31:24	10.9	97
67398	2024-05-17T10:41:24	11	97
67399	2024-05-17T10:51:24	11	97
67400	2024-05-17T11:01:24	11	97
67401	2024-05-17T11:11:24	11.2	97
67402	2024-05-17T11:21:24	11.1	97
67403	2024-05-17T11:31:24	11.2	97
67404	2024-05-17T11:41:24	11.3	97
67405	2024-05-17T11:51:24	11.3	97
67406	2024-05-17T12:01:24	11.5	97
67407	2024-05-17T12:11:24	11.5	97
67408	2024-05-17T12:21:24	11.5	97
67409	2024-05-17T12:31:24	11.5	97
67410	2024-05-17T12:41:24	11.5	97
67411	2024-05-17T12:51:24	11.5	97
67412	2024-05-17T13:01:24	11.4	97
67413	2024-05-17T13:11:24	11.3	97
67414	2024-05-17T13:21:24	11.4	97
67415	2024-05-17T13:31:24	11.4	97
67416	2024-05-17T13:41:24	11.4	97
67417	2024-05-17T13:51:24	11.4	97
67418	2024-05-17T14:01:24	11.3	97
67419	2024-05-17T14:11:24	11.4	97
67420	2024-05-17T14:21:24	11.3	97
67421	2024-05-17T14:31:24	11.4	97
67422	2024-05-17T14:41:24	11.3	97
67423	2024-05-17T14:51:24	11.2	97
67424	2024-05-17T15:01:24	11.3	97
67425	2024-05-17T15:11:24	11.3	97
67426	2024-05-17T15:21:24	11.4	97
67427	2024-05-17T15:31:24	11.5	97
67428	2024-05-17T15:41:24	11.6	97
67429	2024-05-17T15:51:24	11.5	97.5
67430	2024-05-17T16:01:24	11.5	97
67431	2024-05-17T16:11:24	11.5	97.5
67432	2024-05-17T16:21:24	11.5	97
67433	2024-05-17T16:31:24	11.5	97
67434	2024-05-17T16:41:24	11.5	97
67435	2024-05-17T16:51:24	11.5	97
67436	2024-05-17T17:01:24	11.4	97.5
67437	2024-05-17T17:11:24	11.4	97.5
67438	2024-05-17T17:21:24	11.4	97
67439	2024-05-17T17:31:24	11.4	97
67440	2024-05-17T17:41:23	11.4	97
67441	2024-05-17T17:51:23	11.5	97.5
67442	2024-05-17T18:01:23	11.4	97.5
67443	2024-05-17T18:11:23	11.3	97
67444	2024-05-17T18:21:23	11.3	97.5
67445	2024-05-17T18:31:23	11.4	97.5
67446	2024-05-17T18:41:23	11.2	97.5
67447	2024-05-17T18:51:23	11.3	97.5
67448	2024-05-17T19:01:23	11.3	97.5
67449	2024-05-17T19:11:23	11.3	97.5
67450	2024-05-17T19:21:23	11.2	97.5
67451	2024-05-17T19:31:23	11.2	97.5
67452	2024-05-17T19:41:23	11.2	97.5
67453	2024-05-17T19:51:23	11.2	97.5
67454	2024-05-17T20:01:23	11.2	97.5
67455	2024-05-17T20:11:23	11.2	97.5
67456	2024-05-17T20:21:23	11.3	97.5
67457	2024-05-17T20:31:23	11.2	97.5
67458	2024-05-17T20:41:23	11.2	97.5
67459	2024-05-17T20:51:23	11.2	97.5
67460	2024-05-17T21:01:23	11.2	97.5
67461	2024-05-17T21:11:23	11.2	97.5
67462	2024-05-17T21:21:23	11.2	97.5
67463	2024-05-17T21:31:23	11.2	97.5
67464	2024-05-17T21:41:23	11.2	97.5
67465	2024-05-17T21:51:23	11.2	97.5
67466	2024-05-17T22:01:23	11.3	97.5
67467	2024-05-17T22:11:23	11.3	97.5
67468	2024-05-17T22:21:23	11.3	97.5
67469	2024-05-17T22:31:23	11.3	97.5
67470	2024-05-17T22:41:23	11.3	97.5
67471	2024-05-17T22:51:23	11.4	97.5
67472	2024-05-17T23:01:23	11.4	97.5
67473	2024-05-17T23:11:23	11.3	97.5
67474	2024-05-17T23:21:23	11.3	97.5
67475	2024-05-17T23:31:23	11.3	97.5
67476	2024-05-17T23:41:23	11.4	97.5
67477	2024-05-17T23:51:23	11.3	97.5
67478	2024-05-18T00:01:23	11.3	97.5
67479	2024-05-18T00:11:23	11.3	97.5
67480	2024-05-18T00:21:23	11.2	97.5
67481	2024-05-18T00:31:23	11.3	97.5
67482	2024-05-18T00:41:23	11.3	97.5
67483	2024-05-18T00:51:23	11.3	97.5
67484	2024-05-18T01:01:23	11.3	97.5
67485	2024-05-18T01:11:23	11.3	97.5
67486	2024-05-18T01:21:23	11.3	97.5
67487	2024-05-18T01:31:23	11.2	97.5
67488	2024-05-18T01:41:23	11.3	97.5
67489	2024-05-18T01:51:23	11.3	97.5
67490	2024-05-18T02:01:23	11.4	97.5
67491	2024-05-18T02:11:23	11.4	97.5
67492	2024-05-18T02:21:23	11.4	97.5
67493	2024-05-18T02:31:23	11.4	97.5
67494	2024-05-18T02:41:23	11.4	97.5
67495	2024-05-18T02:51:23	11.4	97.5
67496	2024-05-18T03:01:23	11.3	97.5
67497	2024-05-18T03:11:23	11.4	97.5
67498	2024-05-18T03:21:23	11.3	97.5
67499	2024-05-18T03:31:23	11.2	97.5
67500	2024-05-18T03:41:23	11.3	97.5
67501	2024-05-18T03:51:23	11.4	97.5
67502	2024-05-18T04:01:23	11.3	97.5
67503	2024-05-18T04:11:23	11.3	97.5
67504	2024-05-18T04:21:23	11.3	97.5
67505	2024-05-18T04:31:23	11.4	97.5
67506	2024-05-18T04:41:23	11.3	97.5
67507	2024-05-18T04:51:23	11.4	97.5
67508	2024-05-18T05:01:23	11.5	97.5
67509	2024-05-18T05:11:23	11.4	97.5
67510	2024-05-18T05:21:23	11.6	97.5
67511	2024-05-18T05:31:23	11.6	97.5
67512	2024-05-18T05:41:23	11.7	97.5
67513	2024-05-18T05:51:23	12.2	97.5
67514	2024-05-18T06:01:23	12.3	97.5
67515	2024-05-18T06:11:23	12.6	97.5
67516	2024-05-18T06:21:23	12.8	97.5
67517	2024-05-18T06:31:23	12.7	97.5
67518	2024-05-18T06:41:23	12.7	97
67519	2024-05-18T06:51:23	12.8	97.5
67520	2024-05-18T07:01:23	12.9	97
67521	2024-05-18T07:11:23	13.1	97.5
67522	2024-05-18T07:21:23	13.3	97.5
67523	2024-05-18T07:31:23	13.5	97
67524	2024-05-18T07:41:23	13.5	97
67525	2024-05-18T07:51:23	13.9	97
67526	2024-05-18T08:01:23	14.1	97
67527	2024-05-18T08:11:22	14.4	97
67528	2024-05-18T08:21:22	14.7	97
67529	2024-05-18T08:31:22	14.8	97
67530	2024-05-18T08:41:22	14.7	97
67531	2024-05-18T08:51:22	14.7	97
67532	2024-05-18T09:01:22	15.1	97
67533	2024-05-18T09:11:22	15.8	97
67534	2024-05-18T09:21:22	16	97
67535	2024-05-18T09:31:22	16.6	97
67536	2024-05-18T09:41:22	16.7	97
67537	2024-05-18T09:51:22	17	97
67538	2024-05-18T10:01:22	17.3	97
67539	2024-05-18T10:11:22	17.8	96.5
67540	2024-05-18T10:21:22	17.3	97
67541	2024-05-18T10:31:22	17.2	97
67542	2024-05-18T10:41:22	17.1	97
67543	2024-05-18T10:51:22	17.4	97
67544	2024-05-18T11:01:22	17.8	97
67545	2024-05-18T11:11:22	17.7	96.5
67546	2024-05-18T11:21:22	18.1	96.5
67547	2024-05-18T11:31:22	18.6	96.5
67548	2024-05-18T11:41:22	18.7	96.5
67549	2024-05-18T11:51:22	18.6	96.5
67550	2024-05-18T12:01:22	20	96.5
67551	2024-05-18T12:11:22	24.4	96
67552	2024-05-18T12:21:22	23.9	96
67553	2024-05-18T12:31:22	25.4	99
67554	2024-05-18T12:41:22	27.4	99.5
67555	2024-05-18T12:51:22	24.5	99
67556	2024-05-18T13:01:22	27.5	100
67557	2024-05-18T13:11:22	27.7	43.5
67558	2024-05-18T13:21:22	27.5	41
67559	2024-05-18T13:31:22	28.5	41
67560	2024-05-18T13:41:22	26.9	43.5
67561	2024-05-18T13:51:22	30.5	38.5
67562	2024-05-18T14:01:22	33.1	36.5
67563	2024-05-18T14:11:22	34.6	31.5
67564	2024-05-18T14:21:22	34.4	31
67565	2024-05-18T14:31:22	33.4	34.5
67566	2024-05-18T14:41:22	29.8	36
67567	2024-05-18T14:51:22	35.6	29.5
67568	2024-05-18T15:01:22	36.6	27.5
67569	2024-05-18T15:11:22	32	31.5
67570	2024-05-18T15:21:22	30.5	40.5
67571	2024-05-18T15:31:22	27.4	37
67572	2024-05-18T15:41:22	32.7	32
67573	2024-05-18T15:51:22	32.1	31
67574	2024-05-18T16:01:22	30.1	34.5
67575	2024-05-18T16:11:22	28.2	40.5
67576	2024-05-18T16:21:22	29.2	34.5
67577	2024-05-18T16:31:22	28.4	36
67578	2024-05-18T16:41:22	28.6	36.5
67579	2024-05-18T16:51:22	25.5	43.5
67580	2024-05-18T17:01:22	25.8	41
67581	2024-05-18T17:11:22	23.7	46
67582	2024-05-18T17:21:22	21.3	55
67583	2024-05-18T17:31:22	18	72
67584	2024-05-18T17:41:22	17.5	73
67585	2024-05-18T17:51:22	16.2	80.5
67586	2024-05-18T18:01:22	15.7	83
67587	2024-05-18T18:11:22	15.3	84.5
67588	2024-05-18T18:21:22	14.3	94.5
67589	2024-05-18T18:31:22	13.9	98
67590	2024-05-18T18:41:22	13.5	100
67591	2024-05-18T18:51:22	13.4	100
67592	2024-05-18T19:01:22	13.2	100
67593	2024-05-18T19:11:22	13.1	100
67594	2024-05-18T19:21:22	13.1	100
67595	2024-05-18T19:31:21	13	100
67596	2024-05-18T19:41:21	12.9	100
67597	2024-05-18T19:51:21	12.9	100
67598	2024-05-18T20:01:21	12.8	100
67599	2024-05-18T20:11:21	12.8	100
67600	2024-05-18T20:21:21	12.7	100
67601	2024-05-18T20:31:21	12.7	100
67602	2024-05-18T20:41:21	12.6	100
67603	2024-05-18T20:51:21	12.7	100
67604	2024-05-18T21:01:21	12.7	100
67605	2024-05-18T21:11:21	12.6	100
67606	2024-05-18T21:21:21	12.4	100
67607	2024-05-18T21:31:21	12.3	100
67608	2024-05-18T21:41:21	12.1	100
67609	2024-05-18T21:51:21	12.2	100
67610	2024-05-18T22:01:21	12.1	100
67611	2024-05-18T22:11:21	11.7	100
67612	2024-05-18T22:21:21	11.7	100
67613	2024-05-18T22:31:21	11.6	100
67614	2024-05-18T22:41:21	11.7	100
67615	2024-05-18T22:51:21	11.7	100
67616	2024-05-18T23:27:48	11.8	100
67617	2024-05-18T23:27:49	11.8	100
67618	2024-05-18T23:27:49	11.7	100
67619	2024-05-18T23:31:21	11.7	100
67620	2024-05-18T23:41:21	11.8	100
67621	2024-05-18T23:51:21	11.9	100
67622	2024-05-19T00:01:21	11.8	100
67623	2024-05-19T00:11:21	11.8	100
67624	2024-05-19T00:21:21	11.8	100
67625	2024-05-19T00:31:21	11.9	100
67626	2024-05-19T00:41:21	12.1	100
67627	2024-05-19T00:51:21	11.8	100
67628	2024-05-19T01:01:21	12	100
67629	2024-05-19T01:11:21	12	100
67630	2024-05-19T01:21:21	11.6	100
67631	2024-05-19T01:31:21	11.3	100
67632	2024-05-19T01:41:21	11.3	100
67633	2024-05-19T01:51:21	11.2	100
67634	2024-05-19T02:01:21	11.2	100
67635	2024-05-19T02:11:21	11.1	100
67636	2024-05-19T02:21:21	11.1	100
67637	2024-05-19T02:31:21	11.3	100
67638	2024-05-19T02:41:21	11.5	100
67639	2024-05-19T02:51:21	11.4	100
67640	2024-05-19T03:01:21	11.4	100
67641	2024-05-19T03:11:21	11.6	100
67642	2024-05-19T03:21:21	11.4	100
67643	2024-05-19T03:31:21	11.4	100
67644	2024-05-19T03:41:21	11.4	100
67645	2024-05-19T03:51:21	11.4	100
67646	2024-05-19T04:01:21	11.2	100
67647	2024-05-19T04:11:21	11.2	100
67648	2024-05-19T04:21:21	11.3	100
67649	2024-05-19T04:31:21	11.5	100
67650	2024-05-19T04:41:21	11.6	100
67651	2024-05-19T04:51:21	11.7	100
67652	2024-05-19T05:01:21	12	100
67653	2024-05-19T05:11:21	12.2	100
67654	2024-05-19T05:21:21	12.4	100
67655	2024-05-19T05:31:21	12.4	100
67656	2024-05-19T05:41:21	12.6	100
67657	2024-05-19T05:51:21	12.8	100
67658	2024-05-19T06:01:21	13	100
67659	2024-05-19T06:11:21	13.2	100
67660	2024-05-19T06:21:21	13.4	100
67661	2024-05-19T06:31:21	13.7	100
67662	2024-05-19T06:41:21	13.8	100
67663	2024-05-19T06:51:21	13.9	100
67664	2024-05-19T07:01:21	14.3	100
67665	2024-05-19T07:11:21	14.5	100
67666	2024-05-19T07:21:21	14.4	100
67667	2024-05-19T07:31:21	14.7	100
67668	2024-05-19T07:41:21	14.9	100
67669	2024-05-19T07:51:21	15	100
67670	2024-05-19T08:01:21	14.9	100
67671	2024-05-19T08:11:21	15	100
67672	2024-05-19T08:21:21	14.9	100
67673	2024-05-19T08:31:21	15.6	100
67674	2024-05-19T08:41:21	16.1	100
67675	2024-05-19T08:51:21	16	99.5
67676	2024-05-19T09:01:21	16.3	90.5
67677	2024-05-19T09:11:20	16.5	82.5
67678	2024-05-19T09:21:20	16.7	82
67679	2024-05-19T09:31:21	16.8	78.5
67680	2024-05-19T09:41:20	17.1	77.5
67681	2024-05-19T09:51:20	17.3	76.5
67682	2024-05-19T10:01:20	17.7	74
67683	2024-05-19T10:11:20	17.4	76.5
67684	2024-05-19T10:21:20	17.2	75
67685	2024-05-19T10:31:20	17.5	75
67686	2024-05-19T10:41:20	18	73.5
67687	2024-05-19T10:51:20	17.9	75
67688	2024-05-19T11:01:20	18.2	72
67689	2024-05-19T11:11:20	18.6	71
67690	2024-05-19T11:21:20	19.4	65.5
67691	2024-05-19T11:31:20	19.2	68
67692	2024-05-19T11:41:20	20.1	62.5
67693	2024-05-19T11:51:20	20.2	61
67694	2024-05-19T12:01:20	21.2	59.5
67695	2024-05-19T12:11:20	24.6	50.5
67696	2024-05-19T12:21:20	25.5	46
67697	2024-05-19T12:31:20	27.3	42
67698	2024-05-19T12:41:20	25.4	46.5
67699	2024-05-19T12:51:20	23	55.5
67700	2024-05-19T13:01:20	21.8	58.5
67701	2024-05-19T13:11:20	20.5	61
67702	2024-05-19T13:21:20	18.5	88.5
67703	2024-05-19T13:31:20	17.4	93
67704	2024-05-19T13:41:20	16.3	94
67705	2024-05-19T13:51:20	17	93.5
67706	2024-05-19T14:01:20	17.3	92.5
67707	2024-05-19T14:11:20	18.4	80
67708	2024-05-19T14:21:20	19.8	76.5
67709	2024-05-19T14:31:20	21.7	63.5
67710	2024-05-19T14:41:20	26.2	48.5
67711	2024-05-19T14:51:20	24.9	54.5
67712	2024-05-19T15:01:20	24.7	54
67713	2024-05-19T15:11:20	24.9	53
67714	2024-05-19T15:21:20	23.7	55
67715	2024-05-19T15:31:20	22.4	59.5
67716	2024-05-19T15:41:20	21.3	64
67717	2024-05-19T15:51:20	20.7	65
67718	2024-05-19T16:01:20	20.1	68.5
67719	2024-05-19T16:11:20	19.9	69
67720	2024-05-19T16:21:20	19.8	67
67721	2024-05-19T16:31:20	19.8	66.5
67722	2024-05-19T16:41:20	19.4	67
67723	2024-05-19T16:51:20	20.5	64.5
67724	2024-05-19T17:01:20	24.2	57
67725	2024-05-19T17:11:39	24.2	53.5
67726	2024-05-19T17:21:20	22.9	57
67727	2024-05-19T17:31:20	22.4	58
67728	2024-05-19T17:41:20	20.8	59.5
67729	2024-05-19T17:51:20	21.3	60
67730	2024-05-19T18:01:20	22.3	58
67731	2024-05-19T18:11:20	20.9	63.5
67732	2024-05-19T18:21:20	19.1	66.5
67733	2024-05-19T18:31:20	18.3	70.5
67734	2024-05-19T18:41:20	17.7	71
67735	2024-05-19T18:51:20	17.6	76.5
67736	2024-05-19T19:01:20	16.9	80.5
67737	2024-05-19T19:11:20	16.4	84
67738	2024-05-19T19:21:20	16	85.5
67739	2024-05-19T19:31:20	15.8	86
67740	2024-05-19T19:41:20	15.7	83.5
67741	2024-05-19T19:51:20	15.4	86.5
67742	2024-05-19T20:01:20	15.1	87.5
67743	2024-05-19T20:11:20	14.6	87.5
67744	2024-05-19T20:21:20	14.5	90
67745	2024-05-19T20:31:19	14.3	91
67746	2024-05-19T20:41:20	14.2	91.5
67747	2024-05-19T20:51:19	14	92.5
67748	2024-05-19T21:01:19	13.9	90.5
67749	2024-05-19T21:11:20	13.5	90
67750	2024-05-19T21:21:19	13.3	92.5
67751	2024-05-19T21:31:19	13.1	94
67752	2024-05-19T21:41:19	13.1	94
67753	2024-05-19T21:51:19	12.9	94.5
67754	2024-05-19T22:01:19	12.7	94.5
67755	2024-05-19T22:11:19	12.5	95
67756	2024-05-19T22:21:19	12.4	95
67757	2024-05-19T22:31:19	12.3	96.5
67758	2024-05-19T22:41:19	12.2	95.5
67759	2024-05-19T22:51:19	12.2	95.5
67760	2024-05-19T23:01:19	12	96.5
67761	2024-05-19T23:11:19	11.8	96.5
67762	2024-05-19T23:21:19	11.8	96.5
67763	2024-05-19T23:31:19	11.5	97
67764	2024-05-19T23:41:19	11.4	96.5
67765	2024-05-19T23:51:19	11.3	96.5
67766	2024-05-20T00:01:19	11.1	97
67767	2024-05-20T00:11:19	11.2	97
67768	2024-05-20T00:21:19	10.9	97
67769	2024-05-20T00:31:19	10.9	96.5
67770	2024-05-20T00:41:19	10.7	97.5
67771	2024-05-20T00:51:19	10.7	98
67772	2024-05-20T01:01:19	10.5	97.5
67773	2024-05-20T01:11:19	10.4	98.5
67774	2024-05-20T01:21:19	10.3	98.5
67775	2024-05-20T01:31:19	10.4	98.5
67776	2024-05-20T01:41:19	10.2	98.5
67777	2024-05-20T01:51:19	10	99
67778	2024-05-20T02:01:19	9.9	99
67779	2024-05-20T02:11:19	9.9	99
67780	2024-05-20T02:21:19	9.6	99
67781	2024-05-20T02:31:19	9.6	99
67782	2024-05-20T02:41:19	9.6	99.5
67783	2024-05-20T02:51:19	9.5	99.5
67784	2024-05-20T03:01:19	9.3	99.5
67785	2024-05-20T03:11:19	9.3	99.5
67786	2024-05-20T03:21:19	9.1	100
67787	2024-05-20T03:31:19	9.1	99.5
67788	2024-05-20T03:41:19	9	100
67789	2024-05-20T03:51:19	9	99.5
67790	2024-05-20T04:01:19	8.9	100
67791	2024-05-20T04:11:19	9	100
67792	2024-05-20T04:21:19	9	100
67793	2024-05-20T04:31:19	9.1	100
67794	2024-05-20T04:41:19	9.1	100
67795	2024-05-20T04:51:19	9.3	100
67796	2024-05-20T05:01:19	9.5	100
67797	2024-05-20T05:11:19	9.7	100
67798	2024-05-20T05:21:19	9.9	100
67799	2024-05-20T05:31:19	10.3	100
67800	2024-05-20T05:41:19	10.5	100
67801	2024-05-20T05:51:19	10.9	100
67802	2024-05-20T06:01:19	11.2	100
67803	2024-05-20T06:11:19	11.4	100
67804	2024-05-20T06:21:19	11.6	100
67805	2024-05-20T06:31:19	11.7	100
67806	2024-05-20T06:41:19	11.9	100
67807	2024-05-20T06:51:19	12.3	100
67808	2024-05-20T07:01:19	12.5	98
67809	2024-05-20T07:11:19	12.7	98.5
67810	2024-05-20T07:21:19	13	97
67811	2024-05-20T07:31:19	13.3	95.5
67812	2024-05-20T07:41:19	13.4	94.5
67813	2024-05-20T07:51:19	13.7	95.5
67814	2024-05-20T08:01:19	14.2	91.5
67815	2024-05-20T08:11:19	14.2	92.5
67816	2024-05-20T08:21:19	14.6	89.5
67817	2024-05-20T08:31:19	14.8	92
67818	2024-05-20T08:41:19	15.2	89
67819	2024-05-20T08:51:19	15.4	85.5
67820	2024-05-20T09:01:19	15.6	85
67821	2024-05-20T09:11:19	16	83
67822	2024-05-20T09:21:19	16.2	83
67823	2024-05-20T09:31:19	16.4	84
67824	2024-05-20T09:41:19	16.8	80.5
67825	2024-05-20T09:51:19	17.1	80.5
67826	2024-05-20T10:01:19	17.2	80
67827	2024-05-20T10:11:19	17.6	78.5
67828	2024-05-20T10:21:19	18	74
67829	2024-05-20T10:31:19	18.2	76.5
67830	2024-05-20T10:41:19	18.5	73
67831	2024-05-20T10:51:18	18.9	72
67832	2024-05-20T11:01:18	19.3	73
67833	2024-05-20T11:11:18	19.6	69.5
67834	2024-05-20T11:21:18	20.2	69
67835	2024-05-20T11:31:18	20.6	71
67836	2024-05-20T11:41:18	21.4	66
67837	2024-05-20T11:51:18	22.3	62.5
67838	2024-05-20T12:01:18	23.3	60
67839	2024-05-20T12:11:18	26.4	52.5
67840	2024-05-20T12:21:18	24.6	56
67841	2024-05-20T12:31:18	29.8	43
67842	2024-05-20T12:41:18	31.7	39
67843	2024-05-20T12:51:18	33.7	37
67844	2024-05-20T13:01:18	35	35
67845	2024-05-20T13:11:18	35.2	34
67846	2024-05-20T13:21:18	37.4	31.5
67847	2024-05-20T13:31:18	37.9	31
67848	2024-05-20T13:41:18	38.3	29
67849	2024-05-20T13:51:18	39	26
67850	2024-05-20T14:01:18	38.5	28
67851	2024-05-20T14:11:18	39.5	27
67852	2024-05-20T14:21:18	40.4	27
67853	2024-05-20T14:31:18	40.3	26.5
67854	2024-05-20T14:41:18	41.6	24.5
67855	2024-05-20T14:51:18	38.5	27
67856	2024-05-20T15:01:18	39.9	24.5
67857	2024-05-20T15:11:18	40	26.5
67858	2024-05-20T15:21:18	36	29.5
67859	2024-05-20T15:31:18	38.8	28
67860	2024-05-20T15:41:18	37.3	28.5
67861	2024-05-20T15:51:18	32.6	35.5
67862	2024-05-20T16:01:18	31.5	37
67863	2024-05-20T16:11:18	30.3	39
67864	2024-05-20T16:21:18	29.6	42
67865	2024-05-20T16:31:18	29.2	41.5
67866	2024-05-20T16:41:18	28.9	42
67867	2024-05-20T16:51:18	28.3	42
67868	2024-05-20T17:01:18	28.1	40.5
67869	2024-05-20T17:11:18	29.3	38.5
67870	2024-05-20T17:21:18	28.4	41
67871	2024-05-20T17:31:18	28.7	40.5
67872	2024-05-20T17:41:18	27.9	42
67873	2024-05-20T17:51:18	27.1	45.5
67874	2024-05-20T18:01:18	26.4	48
67875	2024-05-20T18:11:18	25.3	49.5
67876	2024-05-20T18:21:18	24.4	50.5
67877	2024-05-20T18:31:18	23.8	52.5
67878	2024-05-20T18:41:18	23.2	54.5
67879	2024-05-20T18:51:18	22.7	57.5
67880	2024-05-20T19:01:18	22.1	59.5
67881	2024-05-20T19:11:18	21.9	59.5
67882	2024-05-20T19:21:18	21.7	61.5
67883	2024-05-20T19:31:18	21.4	61.5
67884	2024-05-20T19:41:18	21.1	64
67885	2024-05-20T19:51:18	20.7	66
67886	2024-05-20T20:01:18	20.4	67
67887	2024-05-20T20:11:18	20.1	69.5
67888	2024-05-20T20:21:18	20.1	69
67889	2024-05-20T20:31:18	19.9	70
67890	2024-05-20T20:41:18	19.9	70.5
67891	2024-05-20T20:51:18	19.8	71
67892	2024-05-20T21:01:18	19.7	70
67893	2024-05-20T21:11:18	19.5	71
67894	2024-05-20T21:21:17	19.2	73.5
67895	2024-05-20T21:31:17	18.9	73
67896	2024-05-20T21:41:17	18.6	73.5
67897	2024-05-20T21:51:17	18.4	75
67898	2024-05-20T22:01:17	18.1	75
67899	2024-05-20T22:11:17	17.8	76
67900	2024-05-20T22:21:17	17.7	76.5
67901	2024-05-20T22:31:17	17.4	77.5
67902	2024-05-20T22:41:17	17.3	78
67903	2024-05-20T22:51:17	17	79.5
67904	2024-05-20T23:29:20	16.7	80
67905	2024-05-20T23:29:21	16.3	81.5
67906	2024-05-20T23:29:21	16.6	80.5
67907	2024-05-20T23:31:17	16.1	82.5
67908	2024-05-20T23:41:17	15.9	83
67909	2024-05-20T23:51:17	15.8	83.5
67910	2024-05-21T00:01:17	15.7	84
67911	2024-05-21T00:11:17	15.7	84
67912	2024-05-21T00:21:17	15.8	84
67913	2024-05-21T00:31:17	15.9	85.5
67914	2024-05-21T00:41:17	15.8	85.5
67915	2024-05-21T00:51:17	15.9	85
67916	2024-05-21T01:01:17	15.9	85.5
67917	2024-05-21T01:11:17	15.9	86
67918	2024-05-21T01:21:17	15.9	85
67919	2024-05-21T01:31:17	15.9	84.5
67920	2024-05-21T01:41:17	15.7	85.5
67921	2024-05-21T01:51:17	16.3	82
67922	2024-05-21T02:01:17	16.5	82
67923	2024-05-21T02:11:17	16.4	83
67924	2024-05-21T02:21:17	16	87
67925	2024-05-21T02:31:34	16	88
67926	2024-05-21T02:41:17	15.6	91.5
67927	2024-05-21T02:51:17	15.1	95
67928	2024-05-21T03:01:17	15.1	95
67929	2024-05-21T03:11:17	14.8	94
67930	2024-05-21T03:21:17	14.8	94
67931	2024-05-21T03:31:17	15	93.5
67932	2024-05-21T03:41:17	15	92.5
67933	2024-05-21T03:51:17	14.9	93
67934	2024-05-21T04:01:17	14.8	94.5
67935	2024-05-21T04:11:17	14.7	96
67936	2024-05-21T04:21:17	14.8	95.5
67937	2024-05-21T04:31:17	14.7	94
67938	2024-05-21T04:41:17	14.6	93.5
67939	2024-05-21T04:51:17	14.8	93
67940	2024-05-21T05:01:17	14.6	93.5
67941	2024-05-21T05:11:17	14.5	96.5
67942	2024-05-21T05:21:17	14.2	97.5
67943	2024-05-21T05:31:17	14	99
67944	2024-05-21T05:41:17	14.1	100
67945	2024-05-21T05:51:17	14	100
67946	2024-05-21T06:01:17	14	100
67947	2024-05-21T06:11:17	13.9	100
67948	2024-05-21T06:21:17	13.8	100
67949	2024-05-21T06:31:17	13.8	100
67950	2024-05-21T06:41:17	13.7	100
67951	2024-05-21T06:51:17	13.6	100
67952	2024-05-21T07:01:17	13.8	100
67953	2024-05-21T07:11:17	13.7	100
67954	2024-05-21T07:21:17	13.6	100
67955	2024-05-21T07:31:17	13.7	100
67956	2024-05-21T07:41:17	13.7	100
67957	2024-05-21T07:51:17	13.6	100
67958	2024-05-21T08:01:17	13.7	100
67959	2024-05-21T08:11:17	13.8	100
67960	2024-05-21T08:21:17	13.7	100
67961	2024-05-21T08:31:17	13.9	100
67962	2024-05-21T08:41:17	13.7	100
67963	2024-05-21T08:51:17	13.8	100
67964	2024-05-21T09:01:17	13.8	100
67965	2024-05-21T09:11:17	13.8	100
67966	2024-05-21T09:21:17	13.9	100
67967	2024-05-21T09:31:17	14.1	100
67968	2024-05-21T09:41:17	13.9	100
67969	2024-05-21T09:51:16	14	100
67970	2024-05-21T10:01:16	14	100
67971	2024-05-21T10:11:16	14.1	100
67972	2024-05-21T10:21:16	14.1	100
67973	2024-05-21T10:31:16	14.2	100
67974	2024-05-21T10:41:16	14.4	100
67975	2024-05-21T10:51:16	14.5	100
67976	2024-05-21T11:01:16	14.7	100
67977	2024-05-21T11:11:16	14.5	100
67978	2024-05-21T11:21:16	14.4	100
67979	2024-05-21T11:31:16	14.4	100
67980	2024-05-21T11:41:16	14.6	100
67981	2024-05-21T11:51:16	14.5	100
67982	2024-05-21T12:01:16	14.4	100
67983	2024-05-21T12:11:16	14.6	100
67984	2024-05-21T12:21:16	14.7	100
67985	2024-05-21T12:31:16	14.9	100
67986	2024-05-21T12:41:16	14.9	100
67987	2024-05-21T12:51:16	15.1	100
67988	2024-05-21T13:01:36	15	100
67989	2024-05-21T13:11:16	15.2	100
67990	2024-05-21T13:21:16	15.2	100
67991	2024-05-21T13:31:16	15.2	100
67992	2024-05-21T13:41:16	14.9	100
67993	2024-05-21T13:51:16	14.9	100
67994	2024-05-21T14:01:16	15	100
67995	2024-05-21T14:11:16	15.3	100
67996	2024-05-21T14:21:16	15.6	100
67997	2024-05-21T14:31:16	15.9	100
67998	2024-05-21T14:41:16	15.9	100
67999	2024-05-21T14:51:16	16.4	100
68000	2024-05-21T15:01:16	17	100
68001	2024-05-21T15:11:16	16.9	100
68002	2024-05-21T15:21:16	16.4	100
68003	2024-05-21T15:31:16	16.2	100
68004	2024-05-21T15:41:16	16.2	100
68005	2024-05-21T15:51:16	16.4	100
68006	2024-05-21T16:01:16	16.4	100
68007	2024-05-21T16:11:16	16.4	100
68008	2024-05-21T16:21:16	16.4	100
68009	2024-05-21T16:31:16	16.4	100
68010	2024-05-21T16:41:16	16.4	100
68011	2024-05-21T16:51:16	16.4	100
68012	2024-05-21T17:01:16	16.7	100
68013	2024-05-21T17:11:16	16.8	100
68014	2024-05-21T17:21:16	16.5	100
68015	2024-05-21T17:31:16	16.2	100
68016	2024-05-21T17:41:16	16.1	100
68017	2024-05-21T17:51:16	16	100
68018	2024-05-21T18:01:16	15.9	100
68019	2024-05-21T18:11:16	15.8	100
68020	2024-05-21T18:21:16	15.6	100
68021	2024-05-21T18:31:16	15.5	100
68022	2024-05-21T18:41:16	15.3	100
68023	2024-05-21T18:51:16	15.1	100
68024	2024-05-21T19:01:16	14.9	100
68025	2024-05-21T20:01:16	13.8	100
68026	2024-05-21T20:11:16	13.6	100
68027	2024-05-21T20:21:16	13.5	100
68028	2024-05-21T20:31:16	13.4	100
68029	2024-05-21T20:41:16	13.3	100
68030	2024-05-21T20:51:16	13.4	100
68031	2024-05-21T21:01:16	13.3	100
68032	2024-05-21T21:11:16	13.2	100
68033	2024-05-21T21:21:16	13.1	100
68034	2024-05-21T21:31:16	13.1	100
68035	2024-05-21T21:41:16	13.2	100
68036	2024-05-21T21:51:16	13.4	100
68037	2024-05-21T22:01:16	13.4	100
68038	2024-05-21T22:11:16	13.5	100
68039	2024-05-21T22:21:16	13.4	100
68040	2024-05-21T22:31:15	13.3	100
68041	2024-05-21T22:41:15	13.4	100
68042	2024-05-21T22:51:15	13.4	100
68043	2024-05-21T23:01:15	13.7	100
68044	2024-05-21T23:11:15	13.8	100
68045	2024-05-21T23:27:37	13.9	100
68046	2024-05-21T23:31:15	13.9	100
68047	2024-05-21T23:41:15	14	100
68048	2024-05-21T23:51:15	14.2	100
68049	2024-05-22T00:01:15	14.1	100
68050	2024-05-22T00:11:15	13.8	100
68051	2024-05-22T00:21:15	13.6	100
68052	2024-05-22T00:31:15	13.3	100
68053	2024-05-22T00:41:15	13.3	100
68054	2024-05-22T00:51:15	13.1	100
68055	2024-05-22T01:01:15	13.2	100
68056	2024-05-22T01:11:15	13.5	100
68057	2024-05-22T01:21:15	13.7	100
68058	2024-05-22T01:31:15	13.8	100
68059	2024-05-22T01:41:15	13.6	100
68060	2024-05-22T01:51:15	13.5	100
68061	2024-05-22T02:01:15	13.7	100
68062	2024-05-22T02:11:15	13.8	100
68063	2024-05-22T02:21:15	13.8	100
68064	2024-05-22T02:31:15	13.8	100
68065	2024-05-22T02:41:15	13.7	100
68066	2024-05-22T02:51:15	14	100
68067	2024-05-22T03:01:15	14.1	100
68068	2024-05-22T03:11:15	14	100
68069	2024-05-22T03:21:15	14	100
68070	2024-05-22T03:31:15	13.9	100
68071	2024-05-22T03:41:15	14	100
68072	2024-05-22T03:51:15	13.7	100
68073	2024-05-22T04:01:15	13.8	100
68074	2024-05-22T04:11:15	13.7	100
68075	2024-05-22T04:21:15	13.6	100
68076	2024-05-22T04:31:15	13.8	100
68077	2024-05-22T04:41:15	13.7	100
68078	2024-05-22T04:51:15	13.6	100
68079	2024-05-22T05:01:15	14.1	100
68080	2024-05-22T05:11:15	14.4	100
68081	2024-05-22T05:21:15	14.5	100
68082	2024-05-22T05:31:15	14.6	100
68083	2024-05-22T05:41:15	14.5	100
68084	2024-05-22T05:51:15	14.7	100
68085	2024-05-22T06:01:15	14.7	100
68086	2024-05-22T06:11:15	15	94
68087	2024-05-22T06:21:15	15.1	91
68088	2024-05-22T06:31:15	15.3	88.5
68089	2024-05-22T06:41:15	15.3	87
68090	2024-05-22T06:51:15	15.9	85
68091	2024-05-22T07:01:15	15.9	84.5
68092	2024-05-22T07:11:15	15.6	85
68093	2024-05-22T07:21:15	15.7	84.5
68094	2024-05-22T07:31:15	16.4	82
68095	2024-05-22T07:41:15	17	80.5
68096	2024-05-22T07:51:15	17.6	75
68097	2024-05-22T08:01:15	17.7	75.5
68098	2024-05-22T08:11:15	17.4	75.5
68099	2024-05-22T08:21:15	17.4	76
68100	2024-05-22T08:31:15	17.9	74
68101	2024-05-22T08:41:15	17.8	74.5
68102	2024-05-22T08:51:15	18.3	72
68103	2024-05-22T09:01:15	18.3	71.5
68104	2024-05-22T09:11:15	18.6	69.5
68105	2024-05-22T09:21:15	18.5	70.5
68106	2024-05-22T09:31:15	18.3	71.5
68107	2024-05-22T09:41:15	15.8	100
68108	2024-05-22T09:51:15	16.8	100
68109	2024-05-22T10:01:15	17.5	100
68110	2024-05-22T10:11:15	17.9	100
68111	2024-05-22T10:21:15	17.6	100
68112	2024-05-22T10:31:15	18.2	100
68113	2024-05-22T10:41:15	18.1	99.5
68114	2024-05-22T10:51:15	18.5	99.5
68115	2024-05-22T11:01:14	19.2	100
68116	2024-05-22T11:11:14	18.9	100
68117	2024-05-22T11:21:14	19.6	100
68118	2024-05-22T11:31:14	19.9	79
68119	2024-05-22T11:41:14	20.3	71.5
68120	2024-05-22T11:51:14	19.7	74
68121	2024-05-22T12:01:14	18.9	72
68122	2024-05-22T12:11:14	18	96.5
68123	2024-05-22T12:21:14	16.3	100
68124	2024-05-22T12:31:14	15.8	100
68125	2024-05-22T12:41:14	15.5	100
68126	2024-05-22T12:51:14	15.8	100
68127	2024-05-22T13:01:14	16.8	100
68128	2024-05-22T13:11:14	17.1	100
68129	2024-05-22T13:21:14	16.9	100
68130	2024-05-22T13:31:14	17.1	100
68131	2024-05-22T13:41:14	17.4	100
68132	2024-05-22T13:51:14	17.4	100
68133	2024-05-22T14:01:14	16.9	100
68134	2024-05-22T14:11:14	17.7	100
68135	2024-05-22T14:21:14	19	100
68136	2024-05-22T14:31:14	18.5	100
68137	2024-05-22T14:41:14	18.4	100
68138	2024-05-22T14:51:14	22	78
68139	2024-05-22T15:01:14	20.9	70.5
68140	2024-05-22T15:11:14	19.1	77.5
68141	2024-05-22T15:21:14	25	60.5
68142	2024-05-22T15:31:14	22.2	62
68143	2024-05-22T15:41:14	21.1	66.5
68144	2024-05-22T15:51:14	21.1	70.5
68145	2024-05-22T16:01:14	24.1	58.5
68146	2024-05-22T16:11:14	22.1	62
68147	2024-05-22T16:21:14	26.9	51.5
68148	2024-05-22T16:31:14	27	48.5
68149	2024-05-22T16:41:14	27.2	46
68150	2024-05-22T16:51:14	26.9	46
68151	2024-05-22T17:01:14	26.3	47.5
68152	2024-05-22T17:11:14	26.5	46
68153	2024-05-22T17:21:14	23.7	52.5
68154	2024-05-22T17:31:14	22.1	57
68155	2024-05-22T17:41:14	24	52.5
68156	2024-05-22T17:51:14	22.9	54
68157	2024-05-22T18:01:14	23.3	53
68158	2024-05-22T18:11:14	22.8	55.5
68159	2024-05-22T18:21:14	22.4	56
68160	2024-05-22T18:31:14	21.6	59
68161	2024-05-22T18:41:14	21.1	63
68162	2024-05-22T18:51:14	20	66.5
68163	2024-05-22T19:01:14	18.7	76
68164	2024-05-22T19:11:14	17.7	81
68165	2024-05-22T19:21:14	17.3	82
68166	2024-05-22T19:31:14	16.9	85
68167	2024-05-22T19:41:14	16.4	84
68168	2024-05-22T19:51:14	15.9	85.5
68169	2024-05-22T20:01:14	15.7	86
68170	2024-05-22T20:11:14	15.5	87.5
68171	2024-05-22T20:21:14	15.1	87
68172	2024-05-22T20:31:14	15.1	89
68173	2024-05-22T20:41:14	14.7	89.5
68174	2024-05-22T20:51:14	14.5	89
68175	2024-05-22T21:01:14	14.3	90.5
68176	2024-05-22T21:11:14	14.2	90
68177	2024-05-22T21:21:14	14	90
68178	2024-05-22T21:31:14	13.9	90.5
68179	2024-05-22T21:41:14	14	90.5
68180	2024-05-22T21:51:14	13.8	91.5
68181	2024-05-22T22:01:14	13.4	90.5
68182	2024-05-22T22:11:14	13.4	91
68183	2024-05-22T22:21:14	13.6	92.5
68184	2024-05-22T22:31:14	13.8	90
68185	2024-05-22T22:41:13	14	88.5
68186	2024-05-22T22:51:13	14.1	89
68187	2024-05-22T23:01:13	14	91
68188	2024-05-22T23:11:13	13.9	91.5
68189	2024-05-22T23:21:13	13.8	92.5
68190	2024-05-22T23:31:13	13.8	93
68191	2024-05-22T23:41:13	13.7	93
68192	2024-05-22T23:51:13	13.4	93.5
68193	2024-05-23T00:01:13	13.3	95
68194	2024-05-23T00:11:13	13.2	95
68195	2024-05-23T00:21:13	13.1	96
68196	2024-05-23T00:31:13	12.8	97
68197	2024-05-23T00:41:13	12.3	98
68198	2024-05-23T00:51:13	12.3	98.5
68199	2024-05-23T01:01:13	12	98.5
68200	2024-05-23T01:11:13	11.8	98.5
68201	2024-05-23T01:21:13	11.7	99
68202	2024-05-23T01:31:13	11.6	99
68203	2024-05-23T01:41:13	11.5	98.5
68204	2024-05-23T01:51:13	11.2	98.5
68205	2024-05-23T02:01:13	11.1	98.5
68206	2024-05-23T02:11:13	11	98.5
68207	2024-05-23T02:21:13	10.8	99
68208	2024-05-23T02:31:13	10.7	98.5
68209	2024-05-23T02:41:13	10.7	99
68210	2024-05-23T02:51:13	10.6	99
68211	2024-05-23T03:01:13	10.5	99
68212	2024-05-23T03:11:13	10.4	99
68213	2024-05-23T03:21:13	10.3	99.5
68214	2024-05-23T03:31:13	10.1	99.5
68215	2024-05-23T03:41:13	10.3	99.5
68216	2024-05-23T03:51:13	10	99.5
68217	2024-05-23T04:01:13	10.1	99.5
68218	2024-05-23T04:11:13	10.1	99.5
68219	2024-05-23T04:21:13	10.1	100
68220	2024-05-23T04:31:13	10.2	100
68221	2024-05-23T04:41:13	10.4	100
68222	2024-05-23T04:51:13	10.4	100
68223	2024-05-23T05:01:13	10.5	100
68224	2024-05-23T05:11:13	10.4	100
68225	2024-05-23T05:21:13	10.6	100
68226	2024-05-23T05:31:13	10.7	100
68227	2024-05-23T05:41:13	11.2	100
68228	2024-05-23T05:51:13	11.5	100
68229	2024-05-23T06:01:13	11.8	99.5
68230	2024-05-23T06:11:13	11.9	99.5
68231	2024-05-23T06:21:13	11.9	98
68232	2024-05-23T06:31:13	11.9	99
68233	2024-05-23T06:41:13	12.1	99
68234	2024-05-23T06:51:13	12.1	99.5
68235	2024-05-23T07:01:13	12.5	99
68236	2024-05-23T07:11:13	13.1	99
68237	2024-05-23T07:21:13	13.9	95.5
68238	2024-05-23T07:31:13	15.1	83
68239	2024-05-23T07:41:13	15.6	80.5
68240	2024-05-23T07:51:13	16	79.5
68241	2024-05-23T08:01:13	16.4	79.5
68242	2024-05-23T08:11:13	16.8	76
68243	2024-05-23T08:21:13	16.7	76.5
68244	2024-05-23T08:31:13	16.8	73.5
68245	2024-05-23T08:41:13	16.8	76.5
68246	2024-05-23T08:51:13	16.8	74
68247	2024-05-23T09:01:13	16.9	73.5
68248	2024-05-23T09:11:13	16.9	76
68249	2024-05-23T09:21:13	17.1	74.5
68250	2024-05-23T09:31:13	17.4	74
68251	2024-05-23T09:41:13	17.9	73.5
68252	2024-05-23T09:51:13	18	71
68253	2024-05-23T10:01:13	18.6	62.5
68254	2024-05-23T10:11:13	19.2	64
68255	2024-05-23T10:21:13	20	61
68256	2024-05-23T10:31:13	20.8	61
68257	2024-05-23T10:41:13	21.2	56.5
68258	2024-05-23T10:51:13	21.9	57
68259	2024-05-23T11:01:13	21.7	58
68260	2024-05-23T11:11:13	21.2	63
68261	2024-05-23T11:21:13	20.5	59.5
68262	2024-05-23T11:31:13	19.6	61.5
68263	2024-05-23T11:41:12	16.5	99
68264	2024-05-23T11:51:12	14.5	93.5
68265	2024-05-23T12:01:12	14	94
68266	2024-05-23T12:11:12	13.5	94.5
68267	2024-05-23T12:21:12	13.3	94.5
68268	2024-05-23T12:31:12	13.6	94.5
68269	2024-05-23T12:41:12	13.8	95
68270	2024-05-23T12:51:12	13.7	95
68271	2024-05-23T13:01:12	13.6	95
68272	2024-05-23T13:11:12	13.6	95.5
68273	2024-05-23T13:21:12	13.8	95.5
68274	2024-05-23T13:31:12	14.1	95
68275	2024-05-23T13:41:12	14	95
68276	2024-05-23T13:51:12	13.8	95.5
68277	2024-05-23T14:01:12	13.7	95.5
68278	2024-05-23T14:11:12	13.8	95
68279	2024-05-23T14:21:12	13.9	95.5
68280	2024-05-23T14:31:12	13.8	95
68281	2024-05-23T14:41:12	13.7	95.5
68282	2024-05-23T14:51:12	14	95.5
68283	2024-05-23T15:01:12	14.4	95.5
68284	2024-05-23T15:11:12	14.7	95.5
68285	2024-05-23T15:21:12	14.9	95.5
68286	2024-05-23T15:31:12	15	95.5
68287	2024-05-23T15:41:12	15	95.5
68288	2024-05-23T15:51:12	14.9	95.5
68289	2024-05-23T16:01:12	14.8	95.5
68290	2024-05-23T16:11:12	14.7	95.5
68291	2024-05-23T16:21:12	14.7	95.5
68292	2024-05-23T16:31:12	14.6	95.5
68293	2024-05-23T16:41:12	14.4	95.5
68294	2024-05-23T16:51:12	14.2	95.5
68295	2024-05-23T17:01:12	14	95.5
68296	2024-05-23T17:11:12	13.8	95.5
68297	2024-05-23T17:21:12	13.8	95.5
68298	2024-05-23T17:31:12	13.7	95.5
68299	2024-05-23T17:41:12	13.7	95.5
68300	2024-05-23T17:51:12	13.5	95.5
68301	2024-05-23T18:01:12	13.6	95.5
68302	2024-05-23T18:11:12	13.4	95.5
68303	2024-05-23T18:21:12	13.5	95.5
68304	2024-05-23T18:31:12	13.3	95.5
68305	2024-05-23T18:41:12	13.2	95.5
68306	2024-05-23T18:51:12	13.2	95.5
68307	2024-05-23T19:01:12	13.1	95.5
68308	2024-05-23T19:11:12	13	95.5
68309	2024-05-23T19:21:12	13.1	95.5
68310	2024-05-23T19:31:12	12.8	95.5
68311	2024-05-23T19:41:12	12.9	95.5
68312	2024-05-23T19:51:12	12.7	95.5
68313	2024-05-23T20:01:12	12.8	95.5
68314	2024-05-23T20:11:12	12.7	95.5
68315	2024-05-23T20:21:12	12.7	95.5
68316	2024-05-23T20:31:12	12.6	95.5
68317	2024-05-23T20:41:12	12.6	95.5
68318	2024-05-23T20:51:12	12.7	95.5
68319	2024-05-23T21:01:12	12.6	95.5
68320	2024-05-23T21:11:12	12.7	96
68321	2024-05-23T21:21:12	12.4	95.5
68322	2024-05-23T21:31:12	12.6	96
68323	2024-05-23T21:41:12	12.6	96
68324	2024-05-23T21:51:12	12.5	96
68325	2024-05-23T22:01:12	12.4	96
68326	2024-05-23T22:11:12	12.1	99
68327	2024-05-23T22:21:12	12.2	99
68328	2024-05-23T22:31:12	12.2	98.5
68329	2024-05-23T22:41:12	12.2	99
68330	2024-05-23T22:51:12	12.2	99
68331	2024-05-23T23:28:03	12.2	99
68332	2024-05-23T23:28:05	12.1	99
68333	2024-05-23T23:28:05	12.4	99
68334	2024-05-23T23:31:12	12.2	99
68335	2024-05-23T23:41:12	12.2	99
68336	2024-05-23T23:51:12	12.2	99
68337	2024-05-24T00:01:12	12.2	99
68338	2024-05-24T00:11:12	12.2	99
68339	2024-05-24T00:21:12	12.1	99
68340	2024-05-24T00:31:12	12.2	99
68341	2024-05-24T00:41:12	12	99
68342	2024-05-24T00:51:12	12	100
68343	2024-05-24T01:01:12	12.1	100
68344	2024-05-24T01:11:12	12.1	100
68345	2024-05-24T01:21:12	12.1	100
68346	2024-05-24T01:31:11	12.1	100
68347	2024-05-24T01:41:11	12	100
68348	2024-05-24T01:51:11	12	100
68349	2024-05-24T02:01:11	12.1	100
68350	2024-05-24T02:11:11	12	100
68351	2024-05-24T02:21:11	12.1	100
68352	2024-05-24T02:31:11	11.9	100
68353	2024-05-24T02:41:11	11.9	100
68354	2024-05-24T02:51:11	11.9	100
68355	2024-05-24T03:01:11	11.9	100
68356	2024-05-24T03:11:11	11.9	100
68357	2024-05-24T03:21:11	11.9	100
68358	2024-05-24T03:31:11	12	100
68359	2024-05-24T03:41:11	11.9	100
68360	2024-05-24T03:51:11	11.9	100
68361	2024-05-24T04:01:11	11.8	100
68362	2024-05-24T04:11:11	11.9	100
68363	2024-05-24T04:21:11	12.1	100
68364	2024-05-24T04:31:11	12	100
68365	2024-05-24T04:41:11	12.1	100
68366	2024-05-24T04:51:11	12.2	100
68367	2024-05-24T05:01:11	12.2	100
68368	2024-05-24T05:11:11	12.3	100
68369	2024-05-24T05:21:11	12.5	100
68370	2024-05-24T05:31:11	12.7	100
68371	2024-05-24T05:41:11	12.7	100
68372	2024-05-24T05:51:11	12.9	100
68373	2024-05-24T06:01:11	12.9	100
68374	2024-05-24T06:11:11	12.9	100
68375	2024-05-24T06:21:11	13.1	100
68376	2024-05-24T06:31:11	13.4	100
68377	2024-05-24T06:41:11	13.3	100
68378	2024-05-24T06:51:11	13.5	100
68379	2024-05-24T07:01:11	13.8	100
68380	2024-05-24T07:11:11	14.1	100
68381	2024-05-24T07:21:11	14.2	100
68382	2024-05-24T07:31:11	14.4	100
68383	2024-05-24T07:41:11	14.5	100
68384	2024-05-24T07:51:11	14.9	100
68385	2024-05-24T08:01:11	15.2	100
68386	2024-05-24T08:11:11	15.4	100
68387	2024-05-24T08:21:11	15.4	100
68388	2024-05-24T08:31:11	15.8	100
68389	2024-05-24T08:41:11	16.1	100
68390	2024-05-24T08:51:11	16.3	100
68391	2024-05-24T09:01:11	16.5	100
68392	2024-05-24T09:11:11	16.5	100
68393	2024-05-24T09:21:11	16.6	100
68394	2024-05-24T09:31:11	17	100
68395	2024-05-24T09:41:11	17	100
68396	2024-05-24T09:51:11	17.2	100
68397	2024-05-24T10:01:11	17.7	100
68398	2024-05-24T10:11:11	18.6	100
68399	2024-05-24T10:21:11	18.8	100
68400	2024-05-24T10:31:11	19.1	100
68401	2024-05-24T10:41:11	19.2	100
68402	2024-05-24T10:51:11	19.8	100
68403	2024-05-24T11:01:11	19.7	100
68404	2024-05-24T11:11:11	19.7	93
68405	2024-05-24T11:21:11	20.7	69.5
68406	2024-05-24T11:31:11	21	69
68407	2024-05-24T11:41:11	20.9	66
68408	2024-05-24T11:51:11	21.7	68.5
68409	2024-05-24T12:01:11	22.8	66
68410	2024-05-24T12:11:11	23.7	69.5
68411	2024-05-24T12:21:11	25.5	64
68412	2024-05-24T12:31:11	26	63.5
68413	2024-05-24T12:41:11	26.8	63.5
68414	2024-05-24T12:51:11	26.1	69
68415	2024-05-24T13:01:11	25	73.5
68416	2024-05-24T13:11:11	23.5	74
68417	2024-05-24T13:21:11	22.6	76
68418	2024-05-24T13:31:11	22.3	75
68419	2024-05-24T13:41:11	25.1	74
68420	2024-05-24T13:51:11	23.2	72
68421	2024-05-24T14:01:10	21.2	75
68422	2024-05-24T14:11:10	20.8	79.5
68423	2024-05-24T14:21:10	20.1	83
68424	2024-05-24T14:31:10	18.2	80.5
68425	2024-05-24T14:41:10	17.9	83
68426	2024-05-24T14:51:10	17.4	83
68427	2024-05-24T15:01:10	17.4	87.5
68428	2024-05-24T15:11:10	17.3	81.5
68429	2024-05-24T15:21:10	17.4	80.5
68430	2024-05-24T15:31:10	16.9	86
68431	2024-05-24T15:41:10	16.8	82.5
68432	2024-05-24T15:51:10	16.6	82
68433	2024-05-24T16:01:10	16.6	81
68434	2024-05-24T16:11:10	16.5	79.5
68435	2024-05-24T16:21:10	16.4	82
68436	2024-05-24T16:31:10	16.8	81.5
68437	2024-05-24T16:41:10	17.2	79.5
68438	2024-05-24T16:51:10	19.2	72.5
68439	2024-05-24T17:01:10	18.2	76
68440	2024-05-24T17:11:10	17.5	81.5
68441	2024-05-24T17:21:10	16.9	82.5
68442	2024-05-24T17:31:10	16.6	83.5
68443	2024-05-24T17:41:10	16.7	81.5
68444	2024-05-24T17:51:10	19.1	73
68445	2024-05-24T18:01:10	20.5	67.5
68446	2024-05-24T18:11:10	20.3	66.5
68447	2024-05-24T18:21:10	19.9	69
68448	2024-05-24T18:31:10	18	74.5
68449	2024-05-24T18:41:10	16.6	81
68450	2024-05-24T18:51:10	15.7	84
68451	2024-05-24T19:01:10	15.2	87.5
68452	2024-05-24T19:11:10	14.9	90.5
68453	2024-05-24T19:21:10	14.5	88.5
68454	2024-05-24T19:31:10	14.2	92
68455	2024-05-24T19:41:10	14	93
68456	2024-05-24T19:51:10	13.8	93.5
68457	2024-05-24T20:01:10	13.6	95
68458	2024-05-24T20:11:10	13.4	95
68459	2024-05-24T20:21:10	13.2	96
68460	2024-05-24T20:31:10	13.3	96
68461	2024-05-24T20:41:10	13.5	95
68462	2024-05-24T20:51:10	13.6	93.5
68463	2024-05-24T21:01:10	13.7	94.5
68464	2024-05-24T21:11:10	13.7	94.5
68465	2024-05-24T21:21:10	13.7	95
68466	2024-05-24T21:31:10	13.7	95
68467	2024-05-24T21:41:10	13.7	96
68468	2024-05-24T21:51:10	13.6	96
68469	2024-05-24T22:01:10	13.5	96.5
68470	2024-05-24T22:11:10	13.2	97
68471	2024-05-24T22:21:10	13.1	97
68472	2024-05-24T22:31:10	13	98
68473	2024-05-24T22:41:10	12.9	97.5
68474	2024-05-24T22:51:10	12.7	98.5
68475	2024-05-24T23:01:10	12.4	99
68476	2024-05-24T23:11:10	12.1	99.5
68477	2024-05-24T23:21:10	12	99.5
68478	2024-05-24T23:31:10	11.6	99
68479	2024-05-24T23:41:10	11.5	99.5
68480	2024-05-24T23:51:10	11.2	99.5
68481	2024-05-25T00:01:10	11.1	100
68482	2024-05-25T00:11:10	11.1	100
68483	2024-05-25T00:21:10	10.9	100
68484	2024-05-25T00:31:10	10.9	100
68485	2024-05-25T00:41:10	11	100
68486	2024-05-25T00:51:10	10.9	100
68487	2024-05-25T01:01:10	10.9	100
68488	2024-05-25T01:11:10	10.8	100
68489	2024-05-25T01:21:10	10.7	100
68490	2024-05-25T01:31:10	10.3	100
68491	2024-05-25T01:41:10	10.4	100
68492	2024-05-25T01:51:10	10.2	100
68493	2024-05-25T02:01:10	10	100
68494	2024-05-25T02:11:10	9.9	100
68495	2024-05-25T02:21:10	9.8	100
68496	2024-05-25T02:31:10	9.7	100
68497	2024-05-25T02:41:10	9.9	100
68498	2024-05-25T02:51:10	9.6	100
68499	2024-05-25T03:01:10	9.4	100
68500	2024-05-25T03:11:10	9.4	100
68501	2024-05-25T03:21:10	9.4	100
68502	2024-05-25T03:31:09	9.2	100
68503	2024-05-25T03:41:09	9.2	100
68504	2024-05-25T03:51:09	9	100
68505	2024-05-25T04:01:09	9.2	100
68506	2024-05-25T04:11:09	9.2	100
68507	2024-05-25T04:21:09	9.3	100
68508	2024-05-25T04:31:09	9.1	100
68509	2024-05-25T04:41:09	9.4	100
68510	2024-05-25T04:51:09	9.6	100
68511	2024-05-25T05:01:09	9.9	100
68512	2024-05-25T05:11:09	10.1	100
68513	2024-05-25T05:21:09	10.3	100
68514	2024-05-25T05:31:09	10.7	100
68515	2024-05-25T05:41:09	10.9	100
68516	2024-05-25T05:51:09	11.1	100
68517	2024-05-25T06:01:09	11.3	100
68518	2024-05-25T06:11:09	11.5	100
68519	2024-05-25T06:21:09	12	99
68520	2024-05-25T06:31:09	12.1	97.5
68521	2024-05-25T06:41:09	12.3	95.5
68522	2024-05-25T06:51:09	12.7	93
68523	2024-05-25T07:01:09	13.2	91
68524	2024-05-25T07:11:09	14.3	88
68525	2024-05-25T07:21:09	14.8	86
68526	2024-05-25T07:31:09	14.7	87
68527	2024-05-25T07:41:09	14.8	87.5
68528	2024-05-25T07:51:09	14.7	87.5
68529	2024-05-25T08:01:09	14.9	88
68530	2024-05-25T08:11:09	15	87
68531	2024-05-25T08:21:09	15.3	87.5
68532	2024-05-25T08:31:09	15.5	85.5
68533	2024-05-25T08:41:09	15.7	87
68534	2024-05-25T08:51:09	16.1	86
68535	2024-05-25T09:01:09	16	87.5
68536	2024-05-25T09:11:09	16.4	87
68537	2024-05-25T09:21:09	16.8	86.5
68538	2024-05-25T09:31:09	17	83.5
68539	2024-05-25T09:41:09	17.3	82.5
68540	2024-05-25T09:51:09	17.9	79.5
68541	2024-05-25T10:01:09	18.4	81
68542	2024-05-25T10:11:09	18.9	77.5
68543	2024-05-25T10:21:09	18.9	76
68544	2024-05-25T10:31:09	18.9	76.5
68545	2024-05-25T10:41:09	18.7	78.5
68546	2024-05-25T10:51:09	18.6	77.5
68547	2024-05-25T11:01:09	18.9	73
68548	2024-05-25T11:11:09	19.3	65.5
68549	2024-05-25T11:21:09	19.4	68
68550	2024-05-25T11:31:09	19.9	63
68551	2024-05-25T11:41:09	20.7	62
68552	2024-05-25T11:51:09	21.9	63
68553	2024-05-25T12:01:09	21.9	58.5
68554	2024-05-25T12:11:09	22.4	55.5
68555	2024-05-25T12:21:09	27.4	42
68556	2024-05-25T12:31:09	30	37.5
68557	2024-05-25T12:41:09	31.7	35
68558	2024-05-25T12:51:09	33.3	31.5
68559	2024-05-25T13:01:09	32.9	31
68560	2024-05-25T13:11:09	34.7	31.5
68561	2024-05-25T13:21:09	34.3	32
68562	2024-05-25T13:31:28	37	28.5
68563	2024-05-25T13:41:09	36.4	25.5
68564	2024-05-25T13:51:09	38.2	24.5
68565	2024-05-25T14:01:09	37.5	23.5
68566	2024-05-25T14:11:09	30.3	34
68567	2024-05-25T14:21:09	28.8	37.5
68568	2024-05-25T14:31:09	27.4	38
68569	2024-05-25T14:41:09	25.9	44
68570	2024-05-25T14:51:09	25	45
68571	2024-05-25T15:01:09	24.9	48
68572	2024-05-25T15:11:09	25.4	47.5
68573	2024-05-25T15:21:09	27.7	42
68574	2024-05-25T15:31:09	25.9	45.5
68575	2024-05-25T15:41:09	25	47.5
68576	2024-05-25T15:51:09	25.7	45.5
68577	2024-05-25T16:01:39	29.6	39
68578	2024-05-25T16:11:08	28.9	38.5
68579	2024-05-25T16:21:08	35.8	29.5
68580	2024-05-25T16:31:08	36.5	26
68581	2024-05-25T16:41:08	37.7	26.5
68582	2024-05-25T16:51:08	38.4	26
68583	2024-05-25T17:01:08	37.8	25.5
68584	2024-05-25T17:11:08	37.1	29.5
68585	2024-05-25T17:21:09	36.5	28
68586	2024-05-25T17:31:08	28.7	37
68587	2024-05-25T17:41:08	30.2	35
68588	2024-05-25T17:51:08	29.6	36.5
68589	2024-05-25T18:01:08	30.3	35.5
68590	2024-05-25T18:11:08	30.8	37
68591	2024-05-25T18:21:08	30.4	40
68592	2024-05-25T18:31:08	29.8	42
68593	2024-05-25T18:41:08	28.9	43
68594	2024-05-25T18:51:08	27.6	47.5
68595	2024-05-25T19:01:08	25.6	51.5
68596	2024-05-25T19:11:08	24	55.5
68597	2024-05-25T19:21:08	23.2	57.5
68598	2024-05-25T19:31:08	22.7	64.5
68599	2024-05-25T19:41:08	22.1	66
68600	2024-05-25T19:51:08	21.6	61
68601	2024-05-25T20:01:08	20.8	61.5
68602	2024-05-25T20:11:08	20.6	64
68603	2024-05-25T20:21:08	20.3	65.5
68604	2024-05-25T20:31:08	19.6	66.5
68605	2024-05-25T20:41:08	19.2	68.5
68606	2024-05-25T20:51:08	18.8	70
68607	2024-05-25T21:01:08	18.2	74
68608	2024-05-25T21:11:08	18	75.5
68609	2024-05-25T21:21:08	17.7	75
68610	2024-05-25T21:31:08	17.3	77.5
68611	2024-05-25T21:41:08	17.2	77
68612	2024-05-25T21:51:08	16.7	78
68613	2024-05-25T22:01:08	16.4	80
68614	2024-05-25T22:11:08	16.2	79
68615	2024-05-25T22:21:08	15.9	79.5
68616	2024-05-25T22:31:08	15.8	80
68617	2024-05-25T22:41:08	15.6	81.5
68618	2024-05-25T22:51:08	15.5	81.5
68619	2024-05-25T23:28:42	15.3	82.5
68620	2024-05-25T23:28:42	15	84
68621	2024-05-25T23:28:43	14.9	84.5
68622	2024-05-25T23:31:10	14.7	83.5
68623	2024-05-25T23:41:08	14.4	84
68624	2024-05-25T23:51:08	14.4	85
68625	2024-05-26T00:01:08	14.1	85
68626	2024-05-26T00:11:08	14.1	85.5
68627	2024-05-26T00:21:08	13.9	85.5
68628	2024-05-26T00:31:08	13.9	86
68629	2024-05-26T00:41:08	13.6	86.5
68630	2024-05-26T00:51:08	13.4	87
68631	2024-05-26T01:01:08	13.2	88
68632	2024-05-26T01:11:08	12.9	89
68633	2024-05-26T01:21:08	13	89.5
68634	2024-05-26T01:31:08	12.8	89
68635	2024-05-26T01:41:08	12.8	89.5
68636	2024-05-26T01:51:08	12.5	89.5
68637	2024-05-26T02:01:08	12.2	89.5
68638	2024-05-26T02:11:08	12.1	90.5
68639	2024-05-26T02:21:08	12	91
68640	2024-05-26T02:31:08	11.9	91
68641	2024-05-26T02:41:08	11.8	91.5
68642	2024-05-26T02:51:08	11.7	92.5
68643	2024-05-26T03:01:08	11.6	91
68644	2024-05-26T03:11:08	11.4	92
68645	2024-05-26T03:21:08	11.3	93
68646	2024-05-26T03:31:08	11.3	92.5
68647	2024-05-26T03:41:08	11.1	92.5
68648	2024-05-26T03:51:08	11.1	93
68649	2024-05-26T04:01:08	11.1	93.5
68650	2024-05-26T04:11:08	11	93.5
68651	2024-05-26T04:21:08	11.2	94.5
68652	2024-05-26T04:31:07	11.1	94.5
68653	2024-05-26T04:41:07	11.2	95.5
68654	2024-05-26T04:51:07	11.5	95
68655	2024-05-26T05:01:07	11.5	95
68656	2024-05-26T05:11:07	11.6	96
68657	2024-05-26T05:21:07	11.9	96
68658	2024-05-26T05:31:07	12.1	95.5
68659	2024-05-26T05:41:07	12.5	94.5
68660	2024-05-26T05:51:07	12.7	94.5
68661	2024-05-26T06:01:07	12.8	95
68662	2024-05-26T06:11:07	13	96
68663	2024-05-26T06:21:07	13.3	96
68664	2024-05-26T06:31:07	13.7	91
68665	2024-05-26T06:41:07	14.1	90
68666	2024-05-26T06:51:07	14.3	89.5
68667	2024-05-26T07:01:07	14.5	88.5
68668	2024-05-26T07:11:07	14.5	90.5
68669	2024-05-26T07:21:07	14.6	90.5
68670	2024-05-26T07:31:07	14.9	89.5
68671	2024-05-26T07:41:07	15.1	89
68672	2024-05-26T07:51:07	15.5	87
68673	2024-05-26T08:01:07	15.8	87
68674	2024-05-26T08:11:07	16.2	84
68675	2024-05-26T08:21:07	16.8	82
68676	2024-05-26T08:31:07	17	79.5
68677	2024-05-26T08:41:07	17.4	79
68678	2024-05-26T08:51:07	17.8	78.5
68679	2024-05-26T09:01:07	18.6	76
68680	2024-05-26T09:11:07	19.5	74.5
68681	2024-05-26T09:21:07	20.5	67.5
68682	2024-05-26T09:31:07	20.7	69
68683	2024-05-26T09:41:07	21.1	66.5
68684	2024-05-26T09:51:07	21.8	64
68685	2024-05-26T10:01:07	21.8	62
68686	2024-05-26T10:11:07	22.2	60
68687	2024-05-26T10:21:07	22.8	55.5
68688	2024-05-26T10:31:07	23.5	56.5
68689	2024-05-26T10:41:07	23.7	56
68690	2024-05-26T10:51:07	23.9	54
68691	2024-05-26T11:01:07	24.2	55.5
68692	2024-05-26T11:11:07	24.9	52.5
68693	2024-05-26T11:21:07	25.4	50
68694	2024-05-26T11:31:07	25.1	46.5
68695	2024-05-26T11:41:07	25.8	46
68696	2024-05-26T11:51:07	26.3	45
68697	2024-05-26T12:01:07	26	43.5
68698	2024-05-26T12:11:07	27.1	43.5
68699	2024-05-26T12:21:07	27.6	41
68700	2024-05-26T12:31:07	27.2	41
68701	2024-05-26T12:41:07	27.4	43
68702	2024-05-26T12:51:07	29.3	39.5
68703	2024-05-26T13:01:07	29.2	41
68704	2024-05-26T13:11:07	32.1	35
68705	2024-05-26T13:21:07	33.4	34
68706	2024-05-26T13:31:07	30.5	37.5
68707	2024-05-26T13:41:07	29.8	40.5
68708	2024-05-26T13:51:07	28.4	38
68709	2024-05-26T14:01:07	27.1	42.5
68710	2024-05-26T14:11:07	26.2	39.5
68711	2024-05-26T14:21:07	25.4	42
68712	2024-05-26T14:31:07	24.9	45.5
68713	2024-05-26T14:41:07	23.5	61
68714	2024-05-26T14:51:07	23	58
68715	2024-05-26T15:01:07	21.5	65
68716	2024-05-26T15:11:07	21.1	70
68717	2024-05-26T15:21:07	21.1	71.5
68718	2024-05-26T15:31:07	20.8	86
68719	2024-05-26T15:41:26	19.5	93.5
68720	2024-05-26T15:51:07	19.9	88
68721	2024-05-26T16:01:06	20.8	82
68722	2024-05-26T16:11:06	20.6	78.5
68723	2024-05-26T16:21:06	20.3	75
68724	2024-05-26T16:31:06	20.2	75.5
68725	2024-05-26T16:41:06	20.1	76
68726	2024-05-26T16:51:06	20	76
68727	2024-05-26T17:01:06	19.8	77
68728	2024-05-26T17:11:06	19.9	78.5
68729	2024-05-26T17:21:07	19.8	79.5
68730	2024-05-26T17:31:06	19.7	82
68731	2024-05-26T17:41:06	19.9	84.5
68732	2024-05-26T17:51:06	20	84
68733	2024-05-26T18:01:06	20	84.5
68734	2024-05-26T18:11:06	20.1	82.5
68735	2024-05-26T18:21:06	22.1	77
68736	2024-05-26T18:31:06	20.9	81
68737	2024-05-26T18:41:06	20.1	84
68738	2024-05-26T18:51:06	19.6	84
68739	2024-05-26T19:01:06	19.1	85
68740	2024-05-26T19:11:06	18.9	85
68741	2024-05-26T19:21:06	18.9	85.5
68742	2024-05-26T19:31:06	18.5	88
68743	2024-05-26T19:41:06	18.4	88
68744	2024-05-26T19:51:06	18.3	87.5
68745	2024-05-26T20:01:06	18.1	87.5
68746	2024-05-26T20:11:06	18.1	89.5
68747	2024-05-26T20:21:06	18	89
68748	2024-05-26T20:31:06	17.8	89
68749	2024-05-26T20:41:06	17.7	89
68750	2024-05-26T20:51:06	17.6	89.5
68751	2024-05-26T21:01:06	17.5	90
68752	2024-05-26T21:11:06	17.5	89
68753	2024-05-26T21:21:06	17.4	89
68754	2024-05-26T21:31:06	17.4	88.5
68755	2024-05-26T21:41:06	17.1	87.5
68756	2024-05-26T21:51:06	17	86.5
68757	2024-05-26T22:01:06	16.9	87
68758	2024-05-26T22:11:06	16.8	88
68759	2024-05-26T22:21:06	16.7	88
68760	2024-05-26T22:31:06	16.7	88.5
68761	2024-05-26T22:41:06	16.6	89.5
68762	2024-05-26T22:51:06	16.4	89.5
68763	2024-05-26T23:28:55	16.3	89
68764	2024-05-26T23:28:55	16.2	89
68765	2024-05-26T23:28:56	16.3	90.5
68766	2024-05-26T23:31:25	16.1	88.5
68767	2024-05-26T23:41:06	16	90
68768	2024-05-26T23:51:06	16	89
68769	2024-05-27T00:01:06	16	86
68770	2024-05-27T00:11:06	15.8	89
68771	2024-05-27T00:21:06	15.7	90
68772	2024-05-27T00:31:06	15.7	89.5
68773	2024-05-27T00:41:06	15.8	89.5
68774	2024-05-27T00:51:06	15.8	89.5
68775	2024-05-27T01:01:06	15.7	90
68776	2024-05-27T01:11:06	15.6	89
68777	2024-05-27T01:21:06	15.5	90
68778	2024-05-27T01:31:06	15.5	91
68779	2024-05-27T01:41:06	15.5	90.5
68780	2024-05-27T01:51:06	15.4	91
68781	2024-05-27T02:01:06	15.5	91.5
68782	2024-05-27T02:11:06	15.4	91.5
68783	2024-05-27T02:21:06	15.3	91
68784	2024-05-27T02:31:06	15.4	91.5
68785	2024-05-27T02:41:06	15.4	91
68786	2024-05-27T02:51:06	15.4	92
68787	2024-05-27T03:01:06	15.4	92
68788	2024-05-27T03:11:06	15.4	91.5
68789	2024-05-27T03:21:06	15.3	92
68790	2024-05-27T03:31:06	15.3	90.5
68791	2024-05-27T03:41:06	15.3	91.5
68792	2024-05-27T03:51:06	15.3	91.5
68793	2024-05-27T04:01:05	15.1	92.5
68794	2024-05-27T04:11:05	15.1	92
68795	2024-05-27T04:21:05	15.1	92
68796	2024-05-27T04:31:05	15.2	92
68797	2024-05-27T04:41:05	15.2	91
68798	2024-05-27T04:51:05	15.3	90
68799	2024-05-27T05:01:05	15.5	89.5
68800	2024-05-27T05:11:05	15.7	88
68801	2024-05-27T05:21:05	15.8	89.5
68802	2024-05-27T05:31:05	15.7	90
68803	2024-05-27T05:41:05	15.9	89.5
68804	2024-05-27T05:51:05	16	89
68805	2024-05-27T06:01:05	15.9	89
68806	2024-05-27T06:11:05	16.5	88.5
68807	2024-05-27T06:21:05	16.9	85
68808	2024-05-27T06:31:05	17.1	85.5
68809	2024-05-27T06:41:05	17.5	85.5
68810	2024-05-27T06:51:05	17.7	82.5
68811	2024-05-27T07:01:05	18	79.5
68812	2024-05-27T07:11:05	18.3	76.5
68813	2024-05-27T07:21:05	18.5	74.5
68814	2024-05-27T07:31:05	18.7	74.5
68815	2024-05-27T07:41:05	19	73.5
68816	2024-05-27T07:51:05	18.8	74
68817	2024-05-27T08:01:05	18.4	76
68818	2024-05-27T08:11:05	18.9	74
68819	2024-05-27T08:21:05	19	73.5
68820	2024-05-27T08:31:05	19.3	70
68821	2024-05-27T08:41:05	20	68.5
68822	2024-05-27T08:51:05	20.9	65.5
68823	2024-05-27T09:01:05	21	63.5
68824	2024-05-27T09:11:05	20.5	64.5
68825	2024-05-27T09:21:05	20.2	67
68826	2024-05-27T09:31:05	20.5	67
68827	2024-05-27T09:41:05	21.2	63.5
68828	2024-05-27T09:51:05	22.2	61.5
68829	2024-05-27T10:01:05	22.5	63
68830	2024-05-27T10:11:05	23	58.5
68831	2024-05-27T10:21:05	23	55.5
68832	2024-05-27T10:31:05	22.5	58.5
68833	2024-05-27T10:41:05	23	59
68834	2024-05-27T10:51:05	23.1	58.5
68835	2024-05-27T11:01:05	23.3	56.5
68836	2024-05-27T11:11:05	23.5	54.5
68837	2024-05-27T11:21:05	23.8	53.5
68838	2024-05-27T11:31:05	24.4	52.5
68839	2024-05-27T11:41:05	24.6	51.5
68840	2024-05-27T11:51:05	25.2	51
68841	2024-05-27T12:01:05	24.3	51.5
68842	2024-05-27T12:11:05	25.7	47
68843	2024-05-27T12:21:05	27.4	42
68844	2024-05-27T12:31:05	28.9	41
68845	2024-05-27T12:41:05	29.9	45
68846	2024-05-27T12:51:05	30.5	41.5
68847	2024-05-27T13:01:05	30.7	41
68848	2024-05-27T13:11:05	29	40.5
68849	2024-05-27T13:21:05	31.7	38.5
68850	2024-05-27T13:31:05	33.2	31.5
68851	2024-05-27T13:41:05	32.4	33
68852	2024-05-27T13:51:05	31	34
68853	2024-05-27T14:01:05	32.1	33.5
68854	2024-05-27T14:11:05	29.7	34.5
68855	2024-05-27T14:21:05	31.8	34
68856	2024-05-27T14:31:05	30.8	35
68857	2024-05-27T14:41:05	32.6	33
68858	2024-05-27T14:51:05	31.1	35
68859	2024-05-27T15:01:04	28.1	39.5
68860	2024-05-27T15:11:04	25.7	42
68861	2024-05-27T15:21:04	24.6	44.5
68862	2024-05-27T15:31:04	23.5	47
68863	2024-05-27T15:41:04	19.4	91.5
68864	2024-05-27T15:51:04	20.5	99.5
68865	2024-05-27T16:01:04	21.2	100
68866	2024-05-27T16:11:04	21	100
68867	2024-05-27T16:21:04	22	100
68868	2024-05-27T16:31:04	21.8	78.5
68869	2024-05-27T16:41:04	20.8	67
68870	2024-05-27T16:51:04	20.5	69.5
68871	2024-05-27T17:01:04	19.8	71
68872	2024-05-27T17:11:04	19.7	72.5
68873	2024-05-27T17:21:04	19	79.5
68874	2024-05-27T17:31:04	19.3	75
68875	2024-05-27T17:41:04	19.6	75.5
68876	2024-05-27T17:51:04	19.6	78
68877	2024-05-27T18:01:04	19.7	74.5
68878	2024-05-27T18:11:04	19.6	71.5
68879	2024-05-27T18:21:04	19.3	74.5
68880	2024-05-27T18:31:04	19.1	78.5
68881	2024-05-27T18:41:04	19	78
68882	2024-05-27T18:51:04	18.5	79.5
68883	2024-05-27T19:01:04	16.1	97
68884	2024-05-27T19:11:04	15.8	99
68885	2024-05-27T19:21:04	15.7	100
68886	2024-05-27T19:31:04	16.2	100
68887	2024-05-27T19:41:04	16.2	100
68888	2024-05-27T19:51:04	16.1	99
68889	2024-05-27T20:01:04	15.9	99
68890	2024-05-27T20:11:04	15.8	97
68891	2024-05-27T20:21:04	15.7	97
68892	2024-05-27T20:31:04	15.6	96
68893	2024-05-27T20:41:04	15.5	95.5
68894	2024-05-27T20:51:04	15.5	93.5
68895	2024-05-27T21:01:04	15.4	93.5
68896	2024-05-27T21:11:04	15.3	93.5
68897	2024-05-27T21:21:04	15.3	94
68898	2024-05-27T21:31:04	15.2	93.5
68899	2024-05-27T21:41:04	15.1	93
68900	2024-05-27T21:51:04	14.9	93.5
68901	2024-05-27T22:01:04	14.8	93
68902	2024-05-27T22:11:04	14.5	95
68903	2024-05-27T22:21:04	14.1	95
68904	2024-05-27T22:31:04	14.2	95
68905	2024-05-27T22:41:04	14.1	95
68906	2024-05-27T22:51:04	14	94.5
68907	2024-05-27T23:30:09	13.9	94
68908	2024-05-27T23:30:10	13.8	94
68909	2024-05-27T23:30:10	13.7	93.5
68910	2024-05-27T23:32:23	13.7	93.5
68911	2024-05-27T23:41:04	13.7	93
68912	2024-05-27T23:51:04	13.7	91.5
68913	2024-05-28T00:01:04	13.6	91
68914	2024-05-28T00:11:04	13.5	90
68915	2024-05-28T00:21:04	13.3	90.5
68916	2024-05-28T00:31:04	13.1	89.5
68917	2024-05-28T00:41:04	13	89.5
68918	2024-05-28T00:51:04	13	88
68919	2024-05-28T01:01:04	12.9	87.5
68920	2024-05-28T01:11:04	13	87
68921	2024-05-28T01:21:04	12.7	91.5
68922	2024-05-28T01:31:04	12.5	91
68923	2024-05-28T01:41:04	12.4	90.5
68924	2024-05-28T01:51:04	12.4	90.5
68925	2024-05-28T02:01:04	12.3	90.5
68926	2024-05-28T02:11:04	12.5	90.5
68927	2024-05-28T02:21:04	12.6	89.5
68928	2024-05-28T02:31:04	12.5	88.5
68929	2024-05-28T02:41:04	12.5	87.5
68930	2024-05-28T02:51:04	12.7	87.5
68931	2024-05-28T03:01:04	12.7	87
68932	2024-05-28T03:11:04	12.3	88.5
68933	2024-05-28T03:21:04	11.9	89.5
68934	2024-05-28T03:31:04	11.9	90
68935	2024-05-28T03:41:03	11.7	92
68936	2024-05-28T03:51:03	11.5	93
68937	2024-05-28T04:01:03	11.5	93.5
68938	2024-05-28T04:11:03	11.6	92.5
68939	2024-05-28T04:21:03	11.6	92
68940	2024-05-28T04:31:03	12.1	89.5
68941	2024-05-28T04:41:03	12.5	87.5
68942	2024-05-28T04:51:03	12.8	85.5
68943	2024-05-28T05:01:03	13	83.5
68944	2024-05-28T05:11:03	13	83.5
68945	2024-05-28T05:21:03	12.9	83
68946	2024-05-28T05:31:03	13.1	81.5
68947	2024-05-28T05:41:03	13.3	82
68948	2024-05-28T05:51:03	13.4	82.5
68949	2024-05-28T06:01:03	13.4	81
68950	2024-05-28T06:11:03	13.5	79.5
68951	2024-05-28T06:21:03	13.7	80
68952	2024-05-28T06:41:03	13.9	78
68953	2024-05-28T06:51:03	14.1	78
68954	2024-05-28T07:01:03	13.4	80
68955	2024-05-28T07:11:03	13.6	80
68956	2024-05-28T07:21:03	13.9	79
68957	2024-05-28T07:31:03	14.1	76
68958	2024-05-28T07:41:03	14.7	72.5
68959	2024-05-28T07:51:03	15.1	71.5
68960	2024-05-28T08:01:03	14.8	73
68961	2024-05-28T08:11:03	15.6	71
68962	2024-05-28T08:21:03	15.8	68
68963	2024-05-28T08:31:03	15.8	68
68964	2024-05-28T08:41:03	15.6	67.5
68965	2024-05-28T08:51:03	16	64.5
68966	2024-05-28T09:01:03	16.6	62.5
68967	2024-05-28T09:11:03	16.9	62
68968	2024-05-28T09:21:03	17	64.5
68969	2024-05-28T09:31:03	17.3	61
68970	2024-05-28T09:41:03	17.2	61.5
68971	2024-05-28T09:51:03	17.8	59.5
68972	2024-05-28T10:01:03	17.6	56
68973	2024-05-28T10:11:03	17.5	55.5
68974	2024-05-28T10:21:03	17.9	55
68975	2024-05-28T10:31:03	18.5	49
68976	2024-05-28T10:41:03	18.7	52
68977	2024-05-28T10:51:03	18.6	51.5
68978	2024-05-28T11:01:03	19.2	52
68979	2024-05-28T11:11:03	19.2	50.5
68980	2024-05-28T11:21:03	19.5	48.5
68981	2024-05-28T11:31:03	19.8	46
68982	2024-05-28T11:41:03	20.4	44
68983	2024-05-28T11:51:03	21	42.5
68984	2024-05-28T12:01:03	21.6	42
68985	2024-05-28T12:11:03	21.3	43.5
68986	2024-05-28T12:21:03	22.2	40
68987	2024-05-28T12:31:03	23.2	40.5
68988	2024-05-28T12:41:03	24.8	37
68989	2024-05-28T12:51:03	25.4	35.5
68990	2024-05-28T13:01:03	24.4	38.5
68991	2024-05-28T13:11:03	24.3	36.5
68992	2024-05-28T13:21:03	23.6	40
68993	2024-05-28T13:31:03	25.2	37
68994	2024-05-28T13:41:03	27.6	33.5
68995	2024-05-28T13:51:03	25	36
68996	2024-05-28T14:01:03	27.9	30.5
68997	2024-05-28T14:11:03	27.9	29.5
68998	2024-05-28T14:21:03	31.8	26.5
68999	2024-05-28T14:31:03	30	29
69000	2024-05-28T14:41:03	28.1	32
69001	2024-05-28T14:51:03	32.4	26.5
69002	2024-05-28T15:01:03	30.6	27
69003	2024-05-28T15:11:03	29.9	27
69004	2024-05-28T15:21:03	30.1	28.5
69005	2024-05-28T15:31:03	31.9	26.5
69006	2024-05-28T15:41:02	32.3	25
69007	2024-05-28T15:51:03	34.2	23
69008	2024-05-28T16:01:02	29.3	27
69009	2024-05-28T16:11:02	33.5	24
69010	2024-05-28T16:21:02	33	25
69011	2024-05-28T16:31:02	32.6	25.5
69012	2024-05-28T16:41:02	33.3	24
69013	2024-05-28T16:51:02	32.4	24.5
69014	2024-05-28T17:01:02	32.1	24.5
69015	2024-05-28T17:11:02	30.9	27
69016	2024-05-28T17:21:02	30.3	27.5
69017	2024-05-28T17:31:02	29.9	27.5
69018	2024-05-28T17:41:02	29.1	28.5
69019	2024-05-28T17:51:02	27.7	30.5
69020	2024-05-28T18:01:02	26.6	33
69021	2024-05-28T18:11:02	24.2	38.5
69022	2024-05-28T18:21:02	23.8	42
69023	2024-05-28T18:31:02	23.5	45.5
69024	2024-05-28T18:41:02	23.2	47.5
69025	2024-05-28T18:51:02	22.7	50
69026	2024-05-28T19:01:02	22.4	53.5
69027	2024-05-28T19:11:02	22.1	54.5
69028	2024-05-28T19:21:02	21.8	53.5
69029	2024-05-28T19:31:02	21.6	54.5
69030	2024-05-28T19:41:02	21.1	54
69031	2024-05-28T19:51:02	20.8	58
69032	2024-05-28T20:01:02	20.6	57
69033	2024-05-28T20:11:02	20.2	58
69034	2024-05-28T20:21:02	20.3	58.5
69035	2024-05-28T20:31:02	20	60
69036	2024-05-28T20:41:02	19.9	61
69037	2024-05-28T20:51:02	19.7	63.5
69038	2024-05-28T21:01:02	19.6	62
69039	2024-05-28T21:11:02	19.5	61.5
69040	2024-05-28T21:21:02	19.2	62.5
69041	2024-05-28T21:31:02	18.8	65
69042	2024-05-28T21:41:02	18.6	67
69043	2024-05-28T21:51:02	18.4	65.5
69044	2024-05-28T22:01:02	18.4	66.5
69045	2024-05-28T22:11:02	18	68.5
69046	2024-05-28T22:21:02	17.7	70.5
69047	2024-05-28T22:31:02	17.4	72
69048	2024-05-28T22:41:02	17.1	72
69049	2024-05-28T22:51:02	17.1	72
69050	2024-05-28T23:28:06	16.6	73.5
69051	2024-05-28T23:28:06	16.3	75.5
69052	2024-05-28T23:28:07	16.9	73.5
69053	2024-05-28T23:31:02	16	75
69054	2024-05-28T23:41:02	16.1	75.5
69055	2024-05-28T23:51:02	16.1	76
69056	2024-05-29T00:01:02	15.8	75.5
69057	2024-05-29T00:11:02	15.8	77.5
69058	2024-05-29T00:21:02	15.8	77
69059	2024-05-29T00:31:02	15.8	77.5
69060	2024-05-29T00:41:02	15.8	77
69061	2024-05-29T00:51:02	15.7	76.5
69062	2024-05-29T01:01:02	15.7	77.5
69063	2024-05-29T01:11:02	15.7	77.5
69064	2024-05-29T01:21:02	15.7	76.5
69065	2024-05-29T01:31:02	15.6	78.5
69066	2024-05-29T01:41:02	15.5	79.5
69067	2024-05-29T01:51:02	15.4	80
69068	2024-05-29T01:56:09	15.5	80.5
69069	2024-05-29T02:06:09	15.5	80.5
69070	2024-05-29T02:16:09	15.2	82
69071	2024-05-29T02:26:09	15	83
69072	2024-05-29T02:36:09	15	83
69073	2024-05-29T02:46:09	14.8	83
69074	2024-05-29T02:56:08	14.7	84
69075	2024-05-29T03:06:08	14.5	84.5
69076	2024-05-29T03:16:08	14.4	84.5
69077	2024-05-29T03:26:08	14.4	84.5
69078	2024-05-29T03:36:08	14.3	85
69079	2024-05-29T03:46:08	14.2	85.5
69080	2024-05-29T03:56:08	14.2	85
69081	2024-05-29T04:06:08	14.3	85
69082	2024-05-29T04:16:08	14.4	85
69083	2024-05-29T04:26:08	14.4	85
69084	2024-05-29T04:36:08	14.6	84
69085	2024-05-29T04:46:08	14.7	84
69086	2024-05-29T04:56:08	14.9	84.5
69087	2024-05-29T05:06:08	15	84.5
69088	2024-05-29T05:16:08	15.2	84
69089	2024-05-29T05:26:08	15.4	84.5
69090	2024-05-29T05:36:08	15.6	84.5
69091	2024-05-29T05:46:08	16.1	84
69092	2024-05-29T05:56:08	16.1	80.5
69093	2024-05-29T06:06:08	16.2	78.5
69094	2024-05-29T06:16:08	16.3	76
69095	2024-05-29T06:26:08	16.2	76
69096	2024-05-29T06:36:08	15.6	80.5
69097	2024-05-29T06:46:08	14.1	92
69098	2024-05-29T06:56:08	14	91.5
69099	2024-05-29T07:06:08	14.5	91
69100	2024-05-29T07:16:08	14.6	88
69101	2024-05-29T07:26:08	15.2	87
69102	2024-05-29T07:36:08	15.4	87
69103	2024-05-29T07:46:08	15.6	80.5
69104	2024-05-29T07:56:08	15.7	80
69105	2024-05-29T08:06:08	16.3	76.5
69106	2024-05-29T08:16:08	16.9	75.5
69107	2024-05-29T08:26:08	17.8	72.5
69108	2024-05-29T08:36:08	18.5	71
69109	2024-05-29T08:46:08	18.6	68.5
69110	2024-05-29T08:56:08	18.9	67.5
69111	2024-05-29T09:06:08	18.8	67.5
69112	2024-05-29T09:16:08	19.2	67
69113	2024-05-29T09:26:08	19.9	64.5
69114	2024-05-29T09:36:08	19.6	65
69115	2024-05-29T09:46:08	19.4	65
69116	2024-05-29T09:56:08	19.4	65.5
69117	2024-05-29T10:06:08	19	67.5
69118	2024-05-29T10:16:08	18.6	68.5
69119	2024-05-29T10:26:08	18.4	70
69120	2024-05-29T10:36:08	18.3	71
69121	2024-05-29T10:46:08	18.2	71
69122	2024-05-29T10:56:08	18.2	70.5
69123	2024-05-29T11:06:08	18.1	72
69124	2024-05-29T11:16:08	17.3	84.5
69125	2024-05-29T11:26:08	15.8	98.5
69126	2024-05-29T11:36:08	15.7	99.5
69127	2024-05-29T11:46:08	16	100
69128	2024-05-29T11:56:08	16.1	100
69129	2024-05-29T12:26:08	16.4	100
69130	2024-05-29T12:36:08	15.9	100
69131	2024-05-29T12:46:08	16.1	100
69132	2024-05-29T12:56:08	17.5	100
69133	2024-05-29T13:06:08	17.8	100
69134	2024-05-29T13:16:08	18	100
69135	2024-05-29T13:26:08	18.6	100
69136	2024-05-29T13:36:08	21.1	100
69137	2024-05-29T13:46:08	20.8	100
69138	2024-05-29T13:56:08	19.2	100
69139	2024-05-29T14:06:08	18.4	99
69140	2024-05-29T14:16:08	18.6	98.5
69141	2024-05-29T14:26:08	18.5	97.5
69142	2024-05-29T14:36:08	20.6	96.5
69143	2024-05-29T14:46:08	21.6	95.5
69144	2024-05-29T14:56:08	20	73
69145	2024-05-29T15:06:07	20.6	71
69146	2024-05-29T15:16:07	19.4	75
69147	2024-05-29T15:26:07	19.1	75.5
69148	2024-05-29T15:36:07	18.7	77.5
69149	2024-05-29T15:46:07	17.8	86.5
69150	2024-05-29T15:56:07	17.1	82.5
69151	2024-05-29T16:06:07	17.4	80
69152	2024-05-29T16:16:07	17.2	80.5
69153	2024-05-29T16:26:07	17.3	79.5
69154	2024-05-29T16:36:07	17.2	79.5
69155	2024-05-29T16:46:07	17.1	80.5
69156	2024-05-29T17:16:07	16.8	80
69157	2024-05-29T17:26:07	16.9	80.5
69158	2024-05-29T17:36:07	17	79
69159	2024-05-29T17:46:07	17	79
69160	2024-05-29T17:56:07	16.8	78.5
69161	2024-05-29T18:06:07	16.5	78.5
69162	2024-05-29T18:16:07	16.6	78.5
69163	2024-05-29T18:26:07	16.5	79
69164	2024-05-29T18:36:07	16.4	79
69165	2024-05-29T18:46:07	16.4	79.5
69166	2024-05-29T18:56:07	16.2	80.5
69167	2024-05-29T19:06:07	16.2	82
69168	2024-05-29T19:16:07	16.1	83
69169	2024-05-29T19:26:07	15.9	84.5
69170	2024-05-29T19:36:07	15	94
69171	2024-05-29T19:46:07	14.8	95
69172	2024-05-29T19:56:07	14.6	98
69173	2024-05-29T20:06:07	14.6	98.5
69174	2024-05-29T20:16:07	14.6	98.5
69175	2024-05-29T20:26:07	14.6	99.5
69176	2024-05-29T20:36:07	14.7	99.5
69177	2024-05-29T20:46:07	14.7	99.5
69178	2024-05-29T20:56:07	14.7	100
69179	2024-05-29T21:06:07	14.8	100
69180	2024-05-29T21:16:07	14.7	100
69181	2024-05-29T21:26:07	14.7	100
69182	2024-05-29T21:36:07	14.6	100
69183	2024-05-29T21:46:07	14.8	100
69184	2024-05-29T21:56:07	14.8	100
69185	2024-05-29T22:06:07	14.6	99.5
69186	2024-05-29T22:16:07	14.6	100
69187	2024-05-29T22:26:07	14.6	99
69188	2024-05-29T22:36:07	14.6	99.5
69189	2024-05-29T22:46:07	14.5	99.5
69190	2024-05-29T22:56:07	14.5	100
69191	2024-05-29T23:06:07	14.5	100
69192	2024-05-29T23:16:07	14.4	100
69193	2024-05-29T23:29:19	14.6	100
69194	2024-05-29T23:36:07	14.5	100
69195	2024-05-29T23:46:07	14.6	100
69196	2024-05-29T23:56:07	14.6	100
69197	2024-05-30T00:06:07	14.5	100
69198	2024-05-30T00:16:07	14.4	100
69199	2024-05-30T00:26:07	14.4	100
69200	2024-05-30T00:36:07	14.5	100
69201	2024-05-30T00:46:07	14.5	100
69202	2024-05-30T00:56:07	14.5	100
69203	2024-05-30T01:06:07	14.4	100
69204	2024-05-30T01:16:07	14.3	100
69205	2024-05-30T01:26:07	14.3	100
69206	2024-05-30T01:36:07	14.3	100
69207	2024-05-30T01:46:07	14.4	100
69208	2024-05-30T01:56:07	14.1	100
69209	2024-05-30T02:06:07	14.2	98.5
69210	2024-05-30T02:16:07	14.1	98
69211	2024-05-30T02:26:07	14.2	98.5
69212	2024-05-30T02:36:07	14.1	98
69213	2024-05-30T02:46:07	14.1	98.5
69214	2024-05-30T02:56:07	14.1	99
69215	2024-05-30T03:06:07	14.1	98.5
69216	2024-05-30T03:16:07	14.2	98.5
69217	2024-05-30T03:26:07	14.1	99.5
69218	2024-05-30T03:36:07	14	100
69219	2024-05-30T03:46:06	14	100
69220	2024-05-30T03:56:06	14	100
69221	2024-05-30T04:06:06	14	100
69222	2024-05-30T04:16:06	14	100
69223	2024-05-30T04:26:06	14.1	100
69224	2024-05-30T04:36:06	14	100
69225	2024-05-30T04:46:06	14	100
69226	2024-05-30T04:56:06	14.1	100
69227	2024-05-30T05:06:06	14.3	100
69228	2024-05-30T05:16:06	14.3	100
69229	2024-05-30T05:26:06	14.5	100
69230	2024-05-30T05:36:06	14.6	100
69231	2024-05-30T05:46:06	14.7	100
69232	2024-05-30T05:56:06	14.8	100
69233	2024-05-30T06:06:06	14.9	100
69234	2024-05-30T06:16:06	15.1	100
69235	2024-05-30T06:26:06	15.2	100
69236	2024-05-30T06:36:06	15	100
69237	2024-05-30T06:46:06	15.1	100
69238	2024-05-30T06:56:06	15.5	100
69239	2024-05-30T07:06:06	15.5	100
69240	2024-05-30T07:16:06	15.5	100
69241	2024-05-30T07:26:06	15.5	100
69242	2024-05-30T07:36:06	15.7	100
69243	2024-05-30T07:46:06	15.8	100
69244	2024-05-30T07:56:06	16.2	100
69245	2024-05-30T08:06:06	16.3	100
69246	2024-05-30T08:16:06	16.3	100
69247	2024-05-30T08:26:06	16.7	100
69248	2024-05-30T08:36:06	17.1	100
69249	2024-05-30T08:46:06	17.3	100
69250	2024-05-30T08:56:06	17.2	99
69251	2024-05-30T09:06:06	17.9	95.5
69252	2024-05-30T09:16:06	17.8	78.5
69253	2024-05-30T09:26:06	17.5	75.5
69254	2024-05-30T09:36:06	18.3	73
69255	2024-05-30T09:46:06	18.5	72
69256	2024-05-30T09:56:06	18.7	72
69257	2024-05-30T10:06:06	18.7	71.5
69258	2024-05-30T10:16:06	19.1	68
69259	2024-05-30T10:26:06	19.5	65.5
69260	2024-05-30T10:36:06	20.1	65.5
69261	2024-05-30T10:46:06	19.8	64
69262	2024-05-30T10:56:06	19.7	60.5
69263	2024-05-30T11:06:06	20.2	59.5
69264	2024-05-30T11:16:06	20	59.5
69265	2024-05-30T11:26:06	19.6	62
69266	2024-05-30T11:36:06	19.9	58
69267	2024-05-30T11:46:06	19.8	59
69268	2024-05-30T11:56:06	20	59
69269	2024-05-30T12:06:06	22.6	50.5
69270	2024-05-30T12:16:06	22.1	51.5
69271	2024-05-30T12:26:06	24.4	46
69272	2024-05-30T12:36:06	26.8	43
69273	2024-05-30T12:46:06	28.1	37
69274	2024-05-30T12:56:06	28.7	34.5
69275	2024-05-30T13:06:06	28.8	34
69276	2024-05-30T13:16:06	28.4	33.5
69277	2024-05-30T13:26:06	30.5	33
69278	2024-05-30T13:36:06	30.1	32
69279	2024-05-30T13:46:06	29.7	33
69280	2024-05-30T13:56:06	30.3	32.5
69281	2024-05-30T14:06:06	29	34.5
69282	2024-05-30T14:16:06	29.7	32.5
69283	2024-05-30T14:26:06	28.1	35.5
69284	2024-05-30T14:36:06	28.6	33.5
69285	2024-05-30T14:46:06	27.3	36
69286	2024-05-30T14:56:06	31.6	31
69287	2024-05-30T15:06:06	28.5	35.5
69288	2024-05-30T15:16:05	30.2	34
69289	2024-05-30T15:26:05	29	34.5
69290	2024-05-30T15:36:05	28.7	36
69291	2024-05-30T15:46:05	25.4	39.5
69292	2024-05-30T15:56:05	26.9	38.5
69293	2024-05-30T16:06:05	27	39
69294	2024-05-30T16:16:05	24.5	45.5
69295	2024-05-30T16:26:05	23.8	47.5
69296	2024-05-30T16:36:05	24.2	49
69297	2024-05-30T16:46:05	26.8	42.5
69298	2024-05-30T16:56:05	30.1	35.5
69299	2024-05-30T17:06:05	31.4	33
69300	2024-05-30T17:16:05	31.4	32
69301	2024-05-30T17:26:05	31.6	33
69302	2024-05-30T17:36:05	31.1	33.5
69303	2024-05-30T17:46:05	29.8	36
69304	2024-05-30T17:56:05	29.6	36
69305	2024-05-30T18:06:05	28.2	38
69306	2024-05-30T18:16:05	27.9	40
69307	2024-05-30T18:26:05	26.3	43
69308	2024-05-30T18:36:05	25.2	46
69309	2024-05-30T18:46:05	22.6	52
69310	2024-05-30T18:56:05	21.5	56
69311	2024-05-30T19:06:05	20.8	55.5
69312	2024-05-30T19:16:05	20.4	55.5
69313	2024-05-30T19:26:05	20.2	56.5
69314	2024-05-30T19:36:05	19.9	57
69315	2024-05-30T19:46:05	19.6	59
69316	2024-05-30T19:56:05	19.5	58
69317	2024-05-30T20:06:05	19	58.5
69318	2024-05-30T20:16:05	18.9	62
69319	2024-05-30T20:26:05	18.9	62
69320	2024-05-30T20:36:05	18.9	63
69321	2024-05-30T20:46:05	18.8	63
69322	2024-05-30T20:56:05	18.6	64.5
69323	2024-05-30T21:06:05	18.5	66.5
69324	2024-05-30T21:16:05	18.3	64.5
69325	2024-05-30T21:26:05	18.4	64.5
69326	2024-05-30T21:36:05	17.6	66.5
69327	2024-05-30T21:46:05	16.5	74.5
69328	2024-05-30T21:56:05	15.8	81
69329	2024-05-30T22:06:05	15.4	82
69330	2024-05-30T22:16:05	15.1	82
69331	2024-05-30T22:26:05	15	82
69332	2024-05-30T22:36:05	15	82
69333	2024-05-30T22:46:05	14.9	82.5
69334	2024-05-30T22:56:05	14.7	83
69335	2024-05-30T23:06:05	14.6	83.5
69336	2024-05-30T23:16:05	14.5	83.5
69337	2024-05-30T23:29:24	14.4	83.5
69338	2024-05-30T23:36:05	14.4	84
69339	2024-05-30T23:46:05	14.3	84
69340	2024-05-30T23:56:05	14.2	84.5
69341	2024-05-31T00:06:05	14.1	85
69342	2024-05-31T00:16:05	14.1	85.5
69343	2024-05-31T00:26:05	14	86.5
69344	2024-05-31T00:36:05	13.9	87.5
69345	2024-05-31T00:46:05	14	87.5
69346	2024-05-31T00:56:05	13.7	88
69347	2024-05-31T01:16:05	13.6	89
69348	2024-05-31T01:26:05	13.6	89
69349	2024-05-31T01:36:05	13.5	89.5
69350	2024-05-31T01:46:05	13.5	90.5
69351	2024-05-31T01:56:05	13.3	90.5
69352	2024-05-31T02:06:05	13.3	91
69353	2024-05-31T02:16:05	13.3	91
69354	2024-05-31T02:26:05	13.4	91
69355	2024-05-31T02:36:05	13.4	91
69356	2024-05-31T02:46:05	13.3	90.5
69357	2024-05-31T02:56:04	13.3	91
69358	2024-05-31T03:06:04	13.3	91.5
69359	2024-05-31T03:16:04	13.2	92
69360	2024-05-31T03:26:04	13.3	92.5
69361	2024-05-31T03:36:04	13.1	92.5
69362	2024-05-31T03:46:04	13.1	93
69363	2024-05-31T03:56:04	13.1	94
69364	2024-05-31T04:06:04	13	95
69365	2024-05-31T04:16:04	13	95
69366	2024-05-31T04:26:04	13	95
69367	2024-05-31T04:36:04	13	95
69368	2024-05-31T04:46:04	13.2	95
69369	2024-05-31T04:56:04	13.2	94.5
69370	2024-05-31T05:06:04	13.2	94
69371	2024-05-31T05:16:04	13.3	94
69372	2024-05-31T05:26:04	13.2	93.5
69373	2024-05-31T05:36:04	13.4	93.5
69374	2024-05-31T05:46:04	13.4	93.5
69375	2024-05-31T05:56:04	13.5	93.5
69376	2024-05-31T06:06:04	13.7	92.5
69377	2024-05-31T06:16:04	13.8	92.5
69378	2024-05-31T06:26:04	13.9	91
69379	2024-05-31T06:36:04	14.3	91
69380	2024-05-31T06:46:23	14.3	90
69381	2024-05-31T06:56:04	14.4	88
69382	2024-05-31T07:06:04	14.5	88
69383	2024-05-31T07:16:04	14.5	88.5
69384	2024-05-31T07:26:04	14.4	89.5
69385	2024-05-31T07:36:04	14.2	94
69386	2024-05-31T07:46:04	13.7	99
69387	2024-05-31T07:56:04	13.7	99.5
69388	2024-05-31T08:06:04	14.2	97.5
69389	2024-05-31T08:16:04	14.8	91
69390	2024-05-31T08:26:04	15	87
69391	2024-05-31T08:36:04	15.1	86.5
69392	2024-05-31T08:46:04	15.5	86
69393	2024-05-31T08:56:04	15.6	83
69394	2024-05-31T09:06:04	15.7	85.5
69395	2024-05-31T09:16:04	15.6	84
69396	2024-05-31T09:26:04	15.5	85
69397	2024-05-31T09:36:04	15.4	87
69398	2024-05-31T09:46:04	15.6	87
69399	2024-05-31T09:56:04	16	85.5
69400	2024-05-31T10:06:04	15.9	86
69401	2024-05-31T10:16:04	15.3	88.5
69402	2024-05-31T10:26:04	15.3	86
69403	2024-05-31T10:36:04	15.7	83.5
69404	2024-05-31T10:46:04	16	82.5
69405	2024-05-31T10:56:04	15.7	84.5
69406	2024-05-31T11:06:04	15.7	85.5
69407	2024-05-31T11:16:04	16.4	85.5
69408	2024-05-31T11:26:04	16.7	79.5
69409	2024-05-31T11:36:04	16.8	79
69410	2024-05-31T11:46:04	16.6	78
69411	2024-05-31T11:56:04	16.8	74.5
69412	2024-05-31T12:06:04	16.8	78
69413	2024-05-31T12:16:04	16.6	79
69414	2024-05-31T12:26:04	16.5	78.5
69415	2024-05-31T12:36:04	17.2	77
69416	2024-05-31T12:46:04	17	76
69417	2024-05-31T12:56:04	16.8	78.5
69418	2024-05-31T13:06:04	17.2	77
69419	2024-05-31T13:16:04	16.6	83.5
69420	2024-05-31T13:26:04	16.6	82
69421	2024-05-31T13:36:04	16.5	80.5
69422	2024-05-31T13:46:04	16.3	82.5
69423	2024-05-31T13:56:04	16.3	83.5
69424	2024-05-31T14:06:04	16.3	82.5
69425	2024-05-31T14:16:04	16.2	83
69426	2024-05-31T14:26:04	16.2	83.5
69427	2024-05-31T14:36:04	16.6	81.5
69428	2024-05-31T14:46:04	16.8	81
69429	2024-05-31T14:56:04	16.7	78.5
69430	2024-05-31T15:16:04	16.8	79
69431	2024-05-31T15:26:04	17	78.5
69432	2024-05-31T15:36:03	17.2	77
69433	2024-05-31T15:46:03	17.7	77
69434	2024-05-31T15:56:03	17.7	76.5
69435	2024-05-31T16:06:03	17.8	75
69436	2024-05-31T16:16:03	17.5	75
69437	2024-05-31T16:26:03	17.1	77.5
69438	2024-05-31T16:36:03	16.9	77.5
69439	2024-05-31T16:46:03	16.8	77.5
69440	2024-05-31T16:56:03	16.6	78.5
69441	2024-05-31T17:06:03	16.4	79.5
69442	2024-05-31T17:16:03	16.4	80
69443	2024-05-31T17:26:03	16.3	80
69444	2024-05-31T17:36:03	16.4	80
69445	2024-05-31T17:46:03	16.2	81
69446	2024-05-31T17:56:03	16.2	82.5
69447	2024-05-31T18:06:03	16.1	83
69448	2024-05-31T18:16:03	15.9	83.5
69449	2024-05-31T18:26:03	15.8	84
69450	2024-05-31T18:36:03	15.7	84
69451	2024-05-31T18:46:03	15.6	84.5
69452	2024-05-31T18:56:03	15.1	88
69453	2024-05-31T19:06:03	14.9	91
69454	2024-05-31T19:16:03	14.8	92.5
69455	2024-05-31T19:26:03	14.7	92.5
69456	2024-05-31T19:36:03	14.3	95.5
69457	2024-05-31T19:46:03	14.2	95
69458	2024-05-31T19:56:03	14.1	95.5
69459	2024-05-31T20:06:03	14	96
69460	2024-05-31T20:16:03	13.9	96
69461	2024-05-31T20:26:03	13.7	97.5
69462	2024-05-31T20:36:03	13.6	99
69463	2024-05-31T20:46:03	13.5	100
69464	2024-05-31T20:56:03	13.4	100
69465	2024-05-31T21:06:03	13.2	100
69466	2024-05-31T21:16:03	13.2	100
69467	2024-05-31T21:26:03	13.1	100
69468	2024-05-31T21:36:03	13.2	100
69469	2024-05-31T21:46:03	13	100
69470	2024-05-31T21:56:03	13	100
69471	2024-05-31T22:06:03	12.9	100
69472	2024-05-31T22:16:03	12.9	100
69473	2024-05-31T22:26:03	12.9	100
69474	2024-05-31T22:36:03	12.7	100
69475	2024-05-31T22:46:03	12.8	100
69476	2024-05-31T22:56:03	12.8	100
69477	2024-05-31T23:29:12	12.8	100
69478	2024-05-31T23:29:13	12.7	100
69479	2024-05-31T23:29:13	12.6	100
69480	2024-05-31T23:36:03	12.6	100
69481	2024-05-31T23:46:03	12.6	100
69482	2024-05-31T23:56:03	12.7	100
69483	2024-06-01T00:06:03	12.6	100
69484	2024-06-01T00:16:03	12.7	100
69485	2024-06-01T00:26:03	12.5	99.5
69486	2024-06-01T00:36:03	12.5	98.5
69487	2024-06-01T00:46:03	12.4	97.5
69488	2024-06-01T00:56:03	12.4	96.5
69489	2024-06-01T01:06:03	12.5	95.5
69490	2024-06-01T01:16:03	12.6	94.5
69491	2024-06-01T01:26:03	12.6	94
69492	2024-06-01T01:36:03	12.4	94
69493	2024-06-01T01:46:03	12.6	94.5
69494	2024-06-01T01:56:03	12.6	94.5
69495	2024-06-01T02:06:03	12.5	94.5
69496	2024-06-01T02:16:03	12.6	94.5
69497	2024-06-01T02:26:03	12.6	94.5
69498	2024-06-01T02:36:03	12.6	94.5
69499	2024-06-01T02:46:03	12.6	94.5
69500	2024-06-01T02:56:03	12.5	94.5
69501	2024-06-01T03:06:03	12.5	94.5
69502	2024-06-01T03:16:03	12.6	94.5
69503	2024-06-01T03:26:03	12.6	94.5
69504	2024-06-01T03:36:03	12.6	94.5
69505	2024-06-01T03:46:03	12.5	94.5
69506	2024-06-01T03:56:03	12.6	94.5
69507	2024-06-01T04:06:03	12.7	94.5
69508	2024-06-01T04:16:03	12.7	94.5
69509	2024-06-01T04:26:03	12.8	94.5
69510	2024-06-01T04:36:03	12.8	94.5
69511	2024-06-01T04:46:03	12.8	94.5
69512	2024-06-01T04:56:02	13	94.5
69513	2024-06-01T05:06:02	13.1	94.5
69514	2024-06-01T05:16:02	13	94.5
69515	2024-06-01T05:26:02	13.1	94.5
69516	2024-06-01T05:36:02	13.2	94.5
69517	2024-06-01T05:46:02	13.3	94.5
69518	2024-06-01T05:56:02	13.4	94.5
69519	2024-06-01T06:06:02	13.7	94.5
69520	2024-06-01T06:16:02	13.8	94.5
69521	2024-06-01T06:26:02	13.9	94.5
69522	2024-06-01T06:36:02	14.2	94.5
69523	2024-06-01T06:46:02	14.2	94.5
69524	2024-06-01T06:56:02	14.4	94.5
69525	2024-06-01T07:06:02	14.7	94.5
69526	2024-06-01T07:16:02	14.8	94.5
69527	2024-06-01T07:26:02	15.1	95
69528	2024-06-01T07:36:02	15.1	94.5
69529	2024-06-01T07:46:02	15.3	94.5
69530	2024-06-01T07:56:02	15.7	94.5
69531	2024-06-01T08:06:02	15.8	94.5
69532	2024-06-01T08:16:02	15.8	94.5
69533	2024-06-01T08:26:02	15.7	94.5
69534	2024-06-01T08:36:02	16.1	95
69535	2024-06-01T08:46:02	16.2	95
69536	2024-06-01T08:56:02	16.4	94.5
69537	2024-06-01T09:06:02	16.5	95
69538	2024-06-01T09:16:02	16.7	95
69539	2024-06-01T09:26:02	16.8	95
69540	2024-06-01T09:36:02	16.3	95
69541	2024-06-01T09:46:02	16.2	95
69542	2024-06-01T09:56:02	17.2	95
69543	2024-06-01T10:06:02	17.4	95
69544	2024-06-01T10:16:02	17.5	95
69545	2024-06-01T10:26:02	16.9	95
69546	2024-06-01T10:36:02	16.5	95
69547	2024-06-01T10:46:02	16.2	95
69548	2024-06-01T10:56:02	16.5	95
69549	2024-06-01T11:06:02	16.8	95
69550	2024-06-01T11:16:02	17.2	95
69551	2024-06-01T11:26:02	16.8	95
69552	2024-06-01T11:36:02	16.8	95
69553	2024-06-01T11:46:02	16.8	95
69554	2024-06-01T11:56:02	16	95
69555	2024-06-01T12:06:02	15.8	95
69556	2024-06-01T12:16:02	16	95
69557	2024-06-01T12:26:02	16.4	95
69558	2024-06-01T12:36:02	16.5	95
69559	2024-06-01T12:46:02	16.6	95
69560	2024-06-01T12:56:02	16.6	95
69561	2024-06-01T13:06:02	16.5	95
69562	2024-06-01T13:16:02	16.4	95
69563	2024-06-01T13:26:02	16.5	95
69564	2024-06-01T13:36:02	17	95
69565	2024-06-01T13:46:02	16.9	95
69566	2024-06-01T13:56:02	16.5	95
69567	2024-06-01T14:06:02	16.4	95
69568	2024-06-01T14:16:02	15.9	95
69569	2024-06-01T14:26:02	15.8	95
69570	2024-06-01T14:36:02	15.7	95
69571	2024-06-01T14:46:02	15.6	95.5
69572	2024-06-01T14:56:02	15.7	95
69573	2024-06-01T15:06:02	15.9	95.5
69574	2024-06-01T15:16:02	15.7	95.5
69575	2024-06-01T15:26:02	15.7	95
69576	2024-06-01T15:36:02	15.8	95.5
69577	2024-06-01T15:46:02	15.7	95.5
69578	2024-06-01T15:56:02	15.5	95.5
69579	2024-06-01T16:06:02	15.4	95.5
69580	2024-06-01T16:16:02	15.4	95.5
69581	2024-06-01T16:26:02	15.6	95.5
69582	2024-06-01T16:36:02	15.6	95.5
69583	2024-06-01T16:56:02	15.5	95.5
69584	2024-06-01T17:06:02	15.4	95.5
69585	2024-06-01T17:16:02	15.6	95.5
69586	2024-06-01T17:26:02	15.6	95.5
69587	2024-06-01T17:36:01	15.5	95.5
69588	2024-06-01T17:46:01	15.6	95.5
69589	2024-06-01T17:56:01	15.5	95.5
69590	2024-06-01T18:06:01	15.5	95.5
69591	2024-06-01T18:16:01	15.5	95.5
69592	2024-06-01T18:26:01	15.4	95.5
69593	2024-06-01T18:36:01	15.2	95.5
69594	2024-06-01T18:46:01	15.2	95.5
69595	2024-06-01T18:56:01	15.3	95.5
69596	2024-06-01T19:06:01	15.2	95.5
69597	2024-06-01T19:16:01	15.3	95.5
69598	2024-06-01T19:26:01	15.2	95.5
69599	2024-06-01T19:36:21	15.2	95.5
69600	2024-06-01T19:46:01	15.2	95.5
69601	2024-06-01T19:56:01	15.2	95.5
69602	2024-06-01T20:06:01	15.1	95.5
69603	2024-06-01T20:16:01	15.1	95.5
69604	2024-06-01T20:26:01	15	95.5
69605	2024-06-01T20:36:01	15	95.5
69606	2024-06-01T20:46:01	14.9	95.5
69607	2024-06-01T20:56:01	14.9	95.5
69608	2024-06-01T21:06:01	14.8	95.5
69609	2024-06-01T21:16:01	14.7	95.5
69610	2024-06-01T21:26:01	14.7	95.5
69611	2024-06-01T21:36:01	14.8	95.5
69612	2024-06-01T21:46:01	14.7	95.5
69613	2024-06-01T21:56:01	14.8	95.5
69614	2024-06-01T22:06:01	14.9	95.5
69615	2024-06-01T22:16:01	14.9	95.5
69616	2024-06-01T22:26:01	15	95.5
69617	2024-06-01T22:36:01	14.8	95.5
69618	2024-06-01T22:46:01	14.8	95.5
69619	2024-06-01T22:56:01	14.7	95.5
69620	2024-06-01T23:06:01	14.7	95.5
69621	2024-06-01T23:16:01	14.7	95.5
69622	2024-06-01T23:30:23	14.6	95.5
69623	2024-06-01T23:36:01	14.6	95.5
69624	2024-06-01T23:46:01	14.6	95.5
69625	2024-06-01T23:56:01	14.6	95.5
69626	2024-06-02T00:06:01	14.6	95.5
69627	2024-06-02T00:16:01	14.6	96
69628	2024-06-02T00:26:01	14.6	95.5
69629	2024-06-02T00:36:01	14.5	95.5
69630	2024-06-02T00:46:01	14.6	95.5
69631	2024-06-02T00:56:01	14.6	95.5
69632	2024-06-02T01:06:01	14.6	95.5
69633	2024-06-02T01:16:01	14.6	95.5
69634	2024-06-02T01:26:01	14.5	96
69635	2024-06-02T01:36:01	14.5	96
69636	2024-06-02T01:46:01	14.6	95.5
69637	2024-06-02T01:56:01	14.6	96
69638	2024-06-02T02:06:01	14.5	95.5
69639	2024-06-02T02:16:01	14.5	96
69640	2024-06-02T02:26:01	14.5	96
69641	2024-06-02T02:36:01	14.4	96
69642	2024-06-02T02:46:01	14.4	96
69643	2024-06-02T02:56:01	14.5	96
69644	2024-06-02T03:06:01	14.5	96
69645	2024-06-02T03:16:01	14.4	96
69646	2024-06-02T03:26:01	14.5	96
69647	2024-06-02T03:36:01	14.5	96
69648	2024-06-02T03:46:01	14.4	96.5
69649	2024-06-02T03:56:01	14.5	96.5
69650	2024-06-02T04:06:01	14.4	96.5
69651	2024-06-02T04:16:01	14.5	96.5
69652	2024-06-02T04:26:01	14.4	96.5
69653	2024-06-02T04:36:01	14.4	96.5
69654	2024-06-02T04:46:01	14.4	96.5
69655	2024-06-02T04:56:01	14.5	96.5
69656	2024-06-02T05:06:01	14.6	96.5
69657	2024-06-02T05:16:01	14.6	96.5
69658	2024-06-02T05:26:01	14.5	96.5
69659	2024-06-02T05:36:01	14.6	96.5
69660	2024-06-02T05:46:01	14.5	96.5
69661	2024-06-02T05:56:01	14.7	96.5
69662	2024-06-02T06:06:01	14.7	96.5
69663	2024-06-02T06:16:01	14.7	96.5
69664	2024-06-02T06:26:00	14.8	96.5
69665	2024-06-02T06:36:00	14.8	96.5
69666	2024-06-02T06:46:00	14.9	96.5
69667	2024-06-02T06:56:00	15	96.5
69668	2024-06-02T07:06:00	15.1	96.5
69669	2024-06-02T07:16:00	15.1	96.5
69670	2024-06-02T07:26:00	15.2	96.5
69671	2024-06-02T07:36:00	15.2	96.5
69672	2024-06-02T07:46:00	15.3	96.5
69673	2024-06-02T07:56:00	15.4	96.5
69674	2024-06-02T08:06:00	15.4	96.5
69675	2024-06-02T08:16:00	15.5	96.5
69676	2024-06-02T08:26:00	15.6	97
69677	2024-06-02T08:36:00	15.7	96.5
69678	2024-06-02T08:46:00	16	96.5
69679	2024-06-02T08:56:00	15.7	96.5
69680	2024-06-02T09:06:00	15.6	96.5
69681	2024-06-02T09:16:00	15.6	96.5
69682	2024-06-02T09:26:00	15.8	96.5
69683	2024-06-02T09:36:00	15.8	96.5
69684	2024-06-02T09:46:00	16	96.5
69685	2024-06-02T09:56:00	16.2	96.5
69686	2024-06-02T10:06:00	16.8	96.5
69687	2024-06-02T10:16:00	17.2	96.5
69688	2024-06-02T10:26:00	17.2	96.5
69689	2024-06-02T10:36:00	17	96.5
69690	2024-06-02T10:46:00	16.7	96.5
69691	2024-06-02T10:56:00	16.9	96.5
69692	2024-06-02T11:06:00	18	96.5
69693	2024-06-02T11:16:00	18.2	96.5
69694	2024-06-02T11:26:00	18.1	96.5
69695	2024-06-02T11:36:00	17.9	96.5
69696	2024-06-02T11:46:00	18.5	96.5
69697	2024-06-02T11:56:00	19.6	96.5
69698	2024-06-02T12:06:00	20.2	96.5
69699	2024-06-02T12:16:00	19.3	96.5
69700	2024-06-02T12:26:00	19.3	96.5
69701	2024-06-02T12:36:00	19.3	96.5
69702	2024-06-02T12:46:00	19.1	96.5
69703	2024-06-02T12:56:00	18.9	96.5
69704	2024-06-02T13:06:00	19	96.5
69705	2024-06-02T13:16:00	19	96.5
69706	2024-06-02T13:26:00	18.8	96.5
69707	2024-06-02T13:36:00	19.3	96.5
69708	2024-06-02T13:46:00	19.2	96.5
69709	2024-06-02T13:56:00	19.8	96
69710	2024-06-02T14:06:00	19.9	96
69711	2024-06-02T14:16:00	19.9	96
69712	2024-06-02T14:26:00	20.5	96
69713	2024-06-02T14:36:00	20.2	96
69714	2024-06-02T14:46:00	20.7	96.5
69715	2024-06-02T14:56:00	20.6	96.5
69716	2024-06-02T15:06:00	19.8	99
69717	2024-06-02T15:16:00	20	99
69718	2024-06-02T15:26:00	19.6	99
69719	2024-06-02T15:36:00	19.6	100
69720	2024-06-02T15:46:00	19.8	100
69721	2024-06-02T15:56:00	19.5	100
69722	2024-06-02T16:06:00	19	100
69723	2024-06-02T16:16:00	18.8	100
69724	2024-06-02T16:26:00	18.7	100
69725	2024-06-02T16:36:00	18.6	100
69726	2024-06-02T16:46:00	18.6	100
69727	2024-06-02T16:56:00	18.6	100
69728	2024-06-02T17:06:00	18.7	100
69729	2024-06-02T17:16:00	18.4	100
69730	2024-06-02T17:26:00	18	100
69731	2024-06-02T17:36:00	17.9	100
69732	2024-06-02T17:46:00	17.7	100
69733	2024-06-02T17:55:59	17.5	100
69734	2024-06-02T18:05:59	17.4	100
69735	2024-06-02T18:15:59	17.3	100
69736	2024-06-02T18:25:59	17.2	100
69737	2024-06-02T18:35:59	17.1	100
69738	2024-06-02T18:45:59	16.9	100
69739	2024-06-02T18:55:59	16.7	100
69740	2024-06-02T19:05:59	16.6	100
69741	2024-06-02T19:15:59	16.4	100
69742	2024-06-02T19:25:59	16.4	100
69743	2024-06-02T19:35:59	16.1	100
69744	2024-06-02T19:45:59	16.1	99.5
69745	2024-06-02T19:55:59	15.9	91
69746	2024-06-02T20:05:59	15.9	91.5
69747	2024-06-02T20:15:59	15.8	92.5
69748	2024-06-02T20:25:59	15.7	92.5
69749	2024-06-02T20:35:59	15.6	92.5
69750	2024-06-02T20:45:59	15.6	90
69751	2024-06-02T20:55:59	15.4	90.5
69752	2024-06-02T21:05:59	15.4	90.5
69753	2024-06-02T21:15:59	15.3	90
69754	2024-06-02T21:25:59	15.2	91.5
69755	2024-06-02T21:35:59	15.2	91.5
69756	2024-06-02T21:45:59	15.2	94
69757	2024-06-02T21:55:59	15.2	95.5
69758	2024-06-02T22:05:59	15	95.5
69759	2024-06-02T22:15:59	15.1	95.5
69760	2024-06-02T22:25:59	15.1	96
69761	2024-06-02T22:35:59	15	95.5
69762	2024-06-02T22:45:59	14.9	95.5
69763	2024-06-02T22:55:59	14.9	96.5
69764	2024-06-02T23:05:59	14.8	95.5
69765	2024-06-02T23:15:59	14.9	94.5
69766	2024-06-02T23:29:53	14.9	90.5
69767	2024-06-02T23:35:59	14.8	93.5
69768	2024-06-02T23:45:59	14.8	90.5
69769	2024-06-02T23:55:59	14.8	91
69770	2024-06-03T00:05:59	14.8	92.5
69771	2024-06-03T00:16:18	14.7	94
69772	2024-06-03T00:25:59	14.6	94
69773	2024-06-03T00:35:59	14.6	96.5
69774	2024-06-03T00:45:59	14.6	95.5
69775	2024-06-03T00:55:59	14.6	96
69776	2024-06-03T01:05:59	14.6	95
69777	2024-06-03T01:15:59	14.5	93
69778	2024-06-03T01:25:59	14.5	95
69779	2024-06-03T01:35:59	14.4	94
69780	2024-06-03T01:45:59	14.4	95.5
69781	2024-06-03T01:55:59	14.4	97.5
69782	2024-06-03T02:05:59	14.4	97.5
69783	2024-06-03T02:15:59	14.2	97.5
69784	2024-06-03T02:25:59	14.3	97.5
69785	2024-06-03T02:35:59	14.2	98.5
69786	2024-06-03T02:45:59	14.2	97.5
69787	2024-06-03T02:55:59	14.2	98.5
69788	2024-06-03T03:05:59	14.1	99
69789	2024-06-03T03:15:59	14.2	97.5
69790	2024-06-03T03:25:59	14.2	97.5
69791	2024-06-03T03:35:59	14.2	98
69792	2024-06-03T03:45:59	14.1	98.5
69793	2024-06-03T03:55:59	14.2	98.5
69794	2024-06-03T04:05:59	14.2	96
69795	2024-06-03T04:15:59	14.2	94.5
69796	2024-06-03T04:25:59	14.2	94.5
69797	2024-06-03T04:35:59	14.2	95.5
69798	2024-06-03T04:45:59	14.2	94
69799	2024-06-03T04:55:59	14.4	94.5
69800	2024-06-03T05:05:59	14.4	94.5
69801	2024-06-03T05:15:59	14.7	94
69802	2024-06-03T05:25:59	14.7	91
69803	2024-06-03T05:35:59	14.9	89
69804	2024-06-03T05:45:59	15	88.5
69805	2024-06-03T05:55:59	15.1	87.5
69806	2024-06-03T06:05:59	15.2	87.5
69807	2024-06-03T06:15:59	15.4	85
69808	2024-06-03T06:25:59	15.4	82.5
69809	2024-06-03T06:35:59	15.3	82
69810	2024-06-03T06:45:58	15.5	82
69811	2024-06-03T06:55:58	15.6	79.5
69812	2024-06-03T07:05:58	15.9	77.5
69813	2024-06-03T07:15:58	16.2	79
69814	2024-06-03T07:25:58	16.1	76
69815	2024-06-03T07:35:58	16.4	75.5
69816	2024-06-03T07:45:58	16.4	77.5
69817	2024-06-03T07:55:58	16.4	76
69818	2024-06-03T08:05:58	16.3	76
69819	2024-06-03T08:15:58	16.5	77.5
69820	2024-06-03T08:25:58	16.7	79
69821	2024-06-03T08:35:58	16.6	76.5
69822	2024-06-03T08:45:58	16.5	78
69823	2024-06-03T08:55:58	16.8	76.5
69824	2024-06-03T09:05:58	17.2	75
69825	2024-06-03T09:15:58	17.2	75
69826	2024-06-03T09:25:58	17.1	76
69827	2024-06-03T09:35:58	17.3	74
69828	2024-06-03T09:45:58	17.6	75.5
69829	2024-06-03T09:55:58	17.8	71.5
69830	2024-06-03T10:05:58	17.8	72
69831	2024-06-03T10:15:58	17.5	72
69832	2024-06-03T10:25:58	17.4	71.5
69833	2024-06-03T10:35:58	17.7	74.5
69834	2024-06-03T10:45:58	17.8	71
69835	2024-06-03T10:55:58	18	68
69836	2024-06-03T11:05:58	18.4	71.5
69837	2024-06-03T11:15:58	18.8	67
69838	2024-06-03T11:25:58	18.6	66
69839	2024-06-03T11:35:58	19.1	64.5
69840	2024-06-03T11:45:58	19.7	65
69841	2024-06-03T11:55:58	20.2	61.5
69842	2024-06-03T12:05:58	23.4	53.5
69843	2024-06-03T12:15:58	22.8	52.5
69844	2024-06-03T12:25:58	25.2	48
69845	2024-06-03T12:35:58	23.5	54
69846	2024-06-03T12:45:58	24.7	49
69847	2024-06-03T12:55:58	24.6	47.5
69848	2024-06-03T13:05:58	23.6	50
69849	2024-06-03T13:15:58	22.5	52.5
69850	2024-06-03T13:25:58	25.7	46.5
69851	2024-06-03T13:35:58	30.8	35
69852	2024-06-03T13:45:58	29.6	38
69853	2024-06-03T13:55:58	25.9	43.5
69854	2024-06-03T14:05:58	25.1	52
69855	2024-06-03T14:15:58	29.5	41
69856	2024-06-03T14:25:58	27	45.5
69857	2024-06-03T14:35:58	32.7	37
69858	2024-06-03T14:45:58	32.3	34
69859	2024-06-03T14:55:58	30.5	36
69860	2024-06-03T15:05:58	28.7	39
69861	2024-06-03T15:15:58	30.5	36.5
69862	2024-06-03T15:25:58	27.5	41
69863	2024-06-03T15:35:58	27.3	41
69864	2024-06-03T15:45:58	27.8	40
69865	2024-06-03T15:55:58	28	41.5
69866	2024-06-03T16:05:58	24.4	47.5
69867	2024-06-03T16:15:58	23.8	48.5
69868	2024-06-03T16:25:58	23.4	51.5
69869	2024-06-03T16:35:58	25.8	47.5
69870	2024-06-03T16:45:58	27.5	42.5
69871	2024-06-03T16:55:58	23.7	50.5
69872	2024-06-03T17:05:58	22.6	55
69873	2024-06-03T17:15:58	22.2	55
69874	2024-06-03T17:25:58	21.7	57
69875	2024-06-03T17:35:58	21.2	58
69876	2024-06-03T17:45:57	21	59.5
69877	2024-06-03T17:55:57	20.4	60.5
69878	2024-06-03T18:05:57	20.1	62
69879	2024-06-03T18:15:57	20.2	63
69880	2024-06-03T18:25:57	20	66
69881	2024-06-03T18:35:57	19.7	66
69882	2024-06-03T18:45:57	19.5	68.5
69883	2024-06-03T18:55:57	19.4	69
69884	2024-06-03T19:05:57	19.5	72.5
69885	2024-06-03T19:15:57	19.2	72
69886	2024-06-03T19:25:57	18.9	70.5
69887	2024-06-03T19:35:57	18.6	71.5
69888	2024-06-03T19:45:57	18.5	72
69889	2024-06-03T19:55:57	18.3	72
69890	2024-06-03T20:05:57	18	72.5
69891	2024-06-03T20:15:57	17.8	76.5
69892	2024-06-03T20:25:57	17.5	79.5
69893	2024-06-03T20:35:57	17.1	82
69894	2024-06-03T20:45:57	16.7	83
69895	2024-06-03T20:55:57	16.6	85
69896	2024-06-03T21:05:57	16.6	84.5
69897	2024-06-03T21:15:57	16.7	82.5
69898	2024-06-03T21:25:57	16.7	81.5
69899	2024-06-03T21:35:57	16.7	84
69900	2024-06-03T21:45:57	16.8	82
69901	2024-06-03T21:55:57	16.9	83.5
69902	2024-06-03T22:05:57	16.9	82.5
69903	2024-06-03T22:15:57	16.9	83.5
69904	2024-06-03T22:25:57	16.8	84
69905	2024-06-03T22:35:57	16.8	84.5
69906	2024-06-03T22:45:57	16.7	76
69907	2024-06-03T22:55:57	16.6	70.5
69908	2024-06-03T23:27:40	16.2	71.5
69909	2024-06-03T23:27:40	16.5	71
69910	2024-06-03T23:27:40	15.9	71.5
69911	2024-06-03T23:35:57	15.8	73
69912	2024-06-03T23:45:57	15.2	74.5
69913	2024-06-03T23:55:57	15	74.5
69914	2024-06-04T00:05:57	14.9	74.5
69915	2024-06-04T00:15:57	14.5	76
69916	2024-06-04T00:25:57	14.3	78
69917	2024-06-04T00:35:57	14.6	79
69918	2024-06-04T00:45:57	14.7	78
69919	2024-06-04T00:55:57	14.9	79.5
69920	2024-06-04T01:05:57	14.7	80.5
69921	2024-06-04T01:15:57	14.9	78.5
69922	2024-06-04T01:25:57	14.5	80.5
69923	2024-06-04T01:35:57	14.3	81.5
69924	2024-06-04T01:45:57	14.2	83
69925	2024-06-04T01:55:57	14.1	84
69926	2024-06-04T02:05:57	13.8	83
69927	2024-06-04T02:15:57	13.4	84.5
69928	2024-06-04T02:25:57	13	87
69929	2024-06-04T02:35:57	12.7	88.5
69930	2024-06-04T02:45:57	12.5	90
69931	2024-06-04T02:55:57	12.3	91
69932	2024-06-04T03:05:57	12.2	91.5
69933	2024-06-04T03:15:57	12	92.5
69934	2024-06-04T03:25:57	11.8	92.5
69935	2024-06-04T03:35:57	11.9	92
69936	2024-06-04T03:45:57	11.7	91.5
69937	2024-06-04T03:55:57	11.7	92
69938	2024-06-04T04:05:57	11.6	92.5
69939	2024-06-04T04:15:57	11.6	92.5
69940	2024-06-04T04:25:57	11.6	93.5
69941	2024-06-04T04:35:57	11.8	93
69942	2024-06-04T04:45:57	11.8	93.5
69943	2024-06-04T04:55:57	12.1	93
69944	2024-06-04T05:05:57	12.2	92
69945	2024-06-04T05:15:57	12.4	92.5
69946	2024-06-04T05:25:57	12.5	90.5
69947	2024-06-04T05:35:57	13	88.5
69948	2024-06-04T05:45:57	13.7	87
69949	2024-06-04T05:55:57	14.2	86
69950	2024-06-04T06:05:57	14.6	83
69951	2024-06-04T06:15:56	14.7	81.5
69952	2024-06-04T06:25:56	15.1	80.5
69953	2024-06-04T06:35:56	15.4	79.5
69954	2024-06-04T06:45:56	15.6	79.5
69955	2024-06-04T06:55:56	15.8	78.5
69956	2024-06-04T07:05:56	16.1	77
69957	2024-06-04T07:15:56	16.2	75.5
69958	2024-06-04T07:25:56	16.7	76.5
69959	2024-06-04T07:35:56	17.3	74.5
69960	2024-06-04T07:45:56	17.4	73
69961	2024-06-04T07:55:56	17.9	70.5
69962	2024-06-04T08:05:56	18.1	72.5
69963	2024-06-04T08:15:56	18.5	69.5
69964	2024-06-04T08:25:56	18.6	70
69965	2024-06-04T08:35:56	18.9	70
69966	2024-06-04T08:45:56	19.5	68
69967	2024-06-04T08:55:56	19.7	69
69968	2024-06-04T09:05:56	19.6	68.5
69969	2024-06-04T09:15:56	19.2	70.5
69970	2024-06-04T09:25:56	18.8	73.5
69971	2024-06-04T09:35:56	18.9	72
69972	2024-06-04T09:45:56	19.1	72.5
69973	2024-06-04T09:55:56	19.5	69
69974	2024-06-04T10:05:56	19.9	65
69975	2024-06-04T10:15:56	19.9	63
69976	2024-06-04T10:25:56	19.5	64
69977	2024-06-04T10:35:56	19.7	63.5
69978	2024-06-04T10:45:56	20.5	61.5
69979	2024-06-04T10:55:56	21.4	58.5
69980	2024-06-04T11:05:56	21.7	55.5
69981	2024-06-04T11:15:56	21.9	56
69982	2024-06-04T11:25:56	22.3	56
69983	2024-06-04T11:35:56	22.2	55.5
69984	2024-06-04T11:45:56	22.2	55
69985	2024-06-04T11:55:56	22.2	54
69986	2024-06-04T12:05:56	24.9	48.5
69987	2024-06-04T12:15:56	28.3	41.5
69988	2024-06-04T12:25:56	29.1	40
69989	2024-06-04T12:35:56	29.2	38.5
69990	2024-06-04T12:45:56	27.1	42.5
69991	2024-06-04T12:55:56	29	40
69992	2024-06-04T13:05:56	26.2	43.5
69993	2024-06-04T13:15:56	27.7	40.5
69994	2024-06-04T13:25:56	27.5	39.5
69995	2024-06-04T13:35:56	29.1	36.5
69996	2024-06-04T13:45:56	32.5	31.5
69997	2024-06-04T13:55:56	34	32
69998	2024-06-04T14:05:56	35	29.5
69999	2024-06-04T14:15:56	35	29
70000	2024-06-04T14:25:56	36.8	26.5
70001	2024-06-04T14:35:56	34.7	28.5
70002	2024-06-04T14:45:56	33.1	31
70003	2024-06-04T14:55:56	35.6	28.5
70004	2024-06-04T15:15:56	34.7	28.5
70005	2024-06-04T15:25:56	35.2	30
70006	2024-06-04T15:35:56	34	30
70007	2024-06-04T15:45:56	32.9	33
70008	2024-06-04T15:55:56	32.9	32
70009	2024-06-04T16:05:56	31.8	33
70010	2024-06-04T16:15:56	32	32.5
70011	2024-06-04T16:25:56	31.2	34
70012	2024-06-04T16:35:56	33.8	32.5
70013	2024-06-04T16:45:56	29.7	38
70014	2024-06-04T16:55:56	33.2	31
70015	2024-06-04T17:05:55	33.7	31.5
70016	2024-06-04T17:15:56	32.3	33.5
70017	2024-06-04T17:25:56	32.5	32
70018	2024-06-04T17:35:55	32.8	32.5
70019	2024-06-04T17:45:55	31.8	34.5
70020	2024-06-04T17:55:55	31.1	35.5
70021	2024-06-04T18:05:55	29.5	38
70022	2024-06-04T18:15:55	26.5	44.5
70023	2024-06-04T18:25:55	25.4	47
70024	2024-06-04T18:35:55	25.1	50
70025	2024-06-04T18:45:55	24.9	53.5
70026	2024-06-04T18:55:55	24.9	57
70027	2024-06-04T19:05:55	24.1	59
70028	2024-06-04T19:15:55	23.6	62
70029	2024-06-04T19:25:55	23.5	62.5
70030	2024-06-04T19:35:55	23.1	63
70031	2024-06-04T19:45:55	22.5	64
70032	2024-06-04T19:55:55	22	66
70033	2024-06-04T20:05:55	21.5	67.5
70034	2024-06-04T20:15:55	21	70.5
70035	2024-06-04T20:25:55	21.1	70
70036	2024-06-04T20:35:55	21.1	70
70037	2024-06-04T20:45:55	20.8	70
70038	2024-06-04T20:55:55	20.6	73
70039	2024-06-04T21:05:55	20.6	72.5
70040	2024-06-04T21:15:55	20.5	72.5
70041	2024-06-04T21:25:55	20.1	73.5
70042	2024-06-04T21:35:55	19.7	75
70043	2024-06-04T21:45:55	19.2	76
70044	2024-06-04T22:05:55	19	77
70045	2024-06-04T22:15:55	18.7	75.5
70046	2024-06-04T22:25:55	18.5	76.5
70047	2024-06-04T22:35:55	18.2	77.5
70048	2024-06-04T22:45:55	18	78
70049	2024-06-04T22:55:55	17.7	80
70050	2024-06-04T23:28:25	17.1	82
70051	2024-06-04T23:28:25	17.2	82
70052	2024-06-04T23:28:25	16.9	82.5
70053	2024-06-04T23:35:55	17.1	82
70054	2024-06-04T23:45:55	17.2	81.5
70055	2024-06-04T23:55:55	17.2	81
70056	2024-06-05T00:05:55	17	82
70057	2024-06-05T00:15:55	16.8	83.5
70058	2024-06-05T00:25:55	16.5	83.5
70059	2024-06-05T00:35:55	16.1	85
70060	2024-06-05T00:45:55	15.7	86
70061	2024-06-05T00:55:55	15.5	86
70062	2024-06-05T01:15:55	15.3	87
70063	2024-06-05T01:25:55	15	87.5
70064	2024-06-05T01:35:55	14.9	87.5
70065	2024-06-05T01:45:55	14.6	87.5
70066	2024-06-05T01:55:55	14.6	88.5
70067	2024-06-05T02:05:55	14.4	88.5
70068	2024-06-05T02:15:55	14.3	88
70069	2024-06-05T02:25:55	14.3	89
70070	2024-06-05T02:35:55	14.2	88
70071	2024-06-05T02:45:55	14.3	87.5
70072	2024-06-05T02:55:55	14.3	87.5
70073	2024-06-05T03:05:55	14.4	88
70074	2024-06-05T03:15:55	14.2	88.5
70075	2024-06-05T03:25:55	14.3	88.5
70076	2024-06-05T03:35:55	14.3	89.5
70077	2024-06-05T03:45:55	14.3	88
70078	2024-06-05T03:55:55	14.3	89
70079	2024-06-05T04:05:55	14.3	89.5
70080	2024-06-05T04:15:55	14.7	88.5
70081	2024-06-05T04:25:55	14.9	88.5
70082	2024-06-05T04:35:55	15	88.5
70083	2024-06-05T04:45:54	15.2	89
70084	2024-06-05T04:55:54	15.4	88.5
70085	2024-06-05T05:05:54	15.4	88.5
70086	2024-06-05T05:15:54	15.3	86.5
70087	2024-06-05T05:25:54	15.1	89.5
70088	2024-06-05T05:35:54	15.2	89
70089	2024-06-05T05:45:54	15.9	87.5
70090	2024-06-05T05:55:54	16.6	84
70091	2024-06-05T06:05:54	16.9	83
70092	2024-06-05T06:15:54	17.7	81
70093	2024-06-05T06:25:54	18	77.5
70094	2024-06-05T06:35:54	18	77
70095	2024-06-05T06:45:54	18.3	76
70096	2024-06-05T06:55:54	18.6	75
70097	2024-06-05T07:05:54	19.2	73.5
70098	2024-06-05T07:15:54	18.8	74.5
70099	2024-06-05T07:25:54	18.3	74.5
70100	2024-06-05T07:35:54	18.2	75.5
70101	2024-06-05T07:45:54	18	77.5
70102	2024-06-05T07:55:54	17.7	80.5
70103	2024-06-05T08:05:54	17.3	81
70104	2024-06-05T08:15:54	16.9	85.5
70105	2024-06-05T08:25:54	16.3	93
70106	2024-06-05T08:35:54	16.2	96
70107	2024-06-05T08:45:54	16.2	97
70108	2024-06-05T08:55:54	16.4	96.5
70109	2024-06-05T09:05:54	17.1	94
70110	2024-06-05T09:15:54	17.6	89.5
70111	2024-06-05T09:25:54	18.1	87
70112	2024-06-05T09:35:54	18.6	85
70113	2024-06-05T09:45:54	19.1	81
70114	2024-06-05T09:55:54	19.5	79
70115	2024-06-05T10:05:54	19.7	76.5
70116	2024-06-05T10:15:54	20.6	75.5
70117	2024-06-05T10:25:54	21	72.5
70118	2024-06-05T10:35:54	20.7	72.5
70119	2024-06-05T10:45:54	21	71
70120	2024-06-05T10:55:54	21.6	70
70121	2024-06-05T11:05:54	21.8	65
70122	2024-06-05T11:15:54	21.9	66
70123	2024-06-05T11:25:54	22.4	63.5
70124	2024-06-05T11:35:54	23.1	61
70125	2024-06-05T11:45:54	23.6	59.5
70126	2024-06-05T11:55:54	23.8	59
70127	2024-06-05T12:05:54	24.3	58.5
70128	2024-06-05T12:15:54	25.8	52
70129	2024-06-05T12:25:54	27.1	48
70130	2024-06-05T12:35:54	28.5	43.5
70131	2024-06-05T12:45:54	26.4	48.5
70132	2024-06-05T12:55:54	28.7	44.5
70133	2024-06-05T13:05:54	29.7	40.5
70134	2024-06-05T13:15:54	31.1	37.5
70135	2024-06-05T13:25:54	31.9	37
70136	2024-06-05T13:35:54	28.5	42.5
70137	2024-06-05T13:45:54	28.9	40.5
70138	2024-06-05T13:55:54	30.6	37
70139	2024-06-05T14:05:54	32.4	34.5
70140	2024-06-05T14:15:54	31	38.5
70141	2024-06-05T14:25:54	31.6	37
70142	2024-06-05T14:35:54	33.8	33.5
70143	2024-06-05T14:45:54	29.7	39
70144	2024-06-05T14:55:54	29.8	40.5
70145	2024-06-05T15:05:54	28.6	42.5
70146	2024-06-05T15:15:54	27.9	45.5
70147	2024-06-05T15:25:54	26.6	48
70148	2024-06-05T15:35:54	25.9	53
70149	2024-06-05T15:45:53	25.2	52.5
70150	2024-06-05T15:55:53	23.2	89.5
70151	2024-06-05T16:05:53	21.5	93.5
70152	2024-06-05T16:15:53	23.9	94
70153	2024-06-05T16:25:53	23.9	94.5
70154	2024-06-05T16:35:53	24.2	95
70155	2024-06-05T16:45:53	23.7	95
70156	2024-06-05T16:55:53	23.6	95
70157	2024-06-05T17:05:53	23.2	97.5
70158	2024-06-05T17:15:54	22.9	100
70159	2024-06-05T17:35:53	21.7	99.5
70160	2024-06-05T17:45:53	21.6	100
70161	2024-06-05T17:55:53	21.6	100
70162	2024-06-05T18:05:53	21.4	100
70163	2024-06-05T18:15:53	21.9	100
70164	2024-06-05T18:25:53	21.7	100
70165	2024-06-05T18:35:53	21.6	100
70166	2024-06-05T18:45:53	22.2	100
70167	2024-06-05T18:55:53	21.6	100
70168	2024-06-05T19:05:53	21.3	100
70169	2024-06-05T19:15:53	21	100
70170	2024-06-05T19:25:53	20.6	100
70171	2024-06-05T19:35:53	20.5	100
70172	2024-06-05T19:45:53	20.2	100
70173	2024-06-05T19:55:53	19.7	99.5
70174	2024-06-05T20:05:53	19.3	100
70175	2024-06-05T20:15:53	19.3	100
70176	2024-06-05T20:25:53	19.3	100
70177	2024-06-05T20:35:53	19.1	100
70178	2024-06-05T20:45:53	18.8	100
70179	2024-06-05T20:55:53	18.9	97.5
70180	2024-06-05T21:05:53	18.9	88.5
70181	2024-06-05T21:15:53	18.9	84.5
70182	2024-06-05T21:25:53	18.8	83.5
70183	2024-06-05T21:35:53	18.7	83.5
70184	2024-06-05T21:45:53	18.7	83.5
70185	2024-06-05T21:55:53	18.5	84.5
70186	2024-06-05T22:05:53	18.5	83.5
70187	2024-06-05T22:15:53	18.3	85.5
70188	2024-06-05T22:25:53	18.3	85
70189	2024-06-05T22:35:53	18.2	84
70190	2024-06-05T22:45:53	18.1	85
70191	2024-06-05T22:55:53	17.9	87
70192	2024-06-05T23:27:55	17.5	90
70193	2024-06-05T23:27:55	17.5	90
70194	2024-06-05T23:27:55	17.5	91
70195	2024-06-05T23:35:53	17.5	90.5
70196	2024-06-05T23:45:53	17.6	89.5
70197	2024-06-05T23:55:53	17.3	89
70198	2024-06-06T00:05:53	17.2	90
70199	2024-06-06T00:15:53	17.1	91
70200	2024-06-06T00:25:53	16.9	91.5
70201	2024-06-06T00:35:53	16.4	93
70202	2024-06-06T00:45:53	16.2	93
70203	2024-06-06T00:55:53	15.9	93.5
70204	2024-06-06T01:15:53	15.5	95
70205	2024-06-06T01:25:53	15.4	93.5
70206	2024-06-06T01:35:53	15.7	93.5
70207	2024-06-06T01:45:53	15.6	93
70208	2024-06-06T01:55:53	15.3	94.5
70209	2024-06-06T02:05:53	15.1	94.5
70210	2024-06-06T02:15:53	15.1	93.5
70211	2024-06-06T02:25:53	15.1	94.5
70212	2024-06-06T02:35:53	14.8	94.5
70213	2024-06-06T02:45:53	14.6	95
70214	2024-06-06T02:55:53	14.7	94.5
70215	2024-06-06T03:05:52	15	95
70216	2024-06-06T03:15:52	15	94
70217	2024-06-06T03:25:52	15	94.5
70218	2024-06-06T03:35:52	14.9	94
70219	2024-06-06T03:45:52	15	94
70220	2024-06-06T03:55:52	15	94.5
70221	2024-06-06T04:05:52	15	95
70222	2024-06-06T04:15:52	15	94.5
70223	2024-06-06T04:25:52	15	94.5
70224	2024-06-06T04:35:52	15.3	94.5
70225	2024-06-06T04:45:52	15.5	93
70226	2024-06-06T04:55:52	15.5	94
70227	2024-06-06T05:05:52	15.7	93
70228	2024-06-06T05:15:52	16	92
70229	2024-06-06T05:25:52	16.4	90
70230	2024-06-06T05:35:52	16	92
70231	2024-06-06T05:45:52	16.4	91.5
70232	2024-06-06T05:55:52	15.9	92.5
70233	2024-06-06T06:05:52	16.4	91
70234	2024-06-06T06:15:52	16.6	90.5
70235	2024-06-06T06:25:52	17	88
70236	2024-06-06T06:35:52	16.9	88.5
70237	2024-06-06T06:45:52	17	88.5
70238	2024-06-06T06:55:52	17	87
70239	2024-06-06T07:05:52	17.5	88
70240	2024-06-06T07:15:52	18.1	85
70241	2024-06-06T07:25:52	18.5	85.5
70242	2024-06-06T07:35:52	18.9	83.5
70243	2024-06-06T07:45:52	18.9	82.5
70244	2024-06-06T07:55:52	18.7	85
70245	2024-06-06T08:05:52	18.7	80
70246	2024-06-06T08:15:52	18.9	78
70247	2024-06-06T08:25:52	18.8	77.5
70248	2024-06-06T08:35:52	19.2	76.5
70249	2024-06-06T08:45:52	19	76
70250	2024-06-06T08:55:52	19.4	72
70251	2024-06-06T09:05:52	19.7	71.5
70252	2024-06-06T09:15:52	19.8	70.5
70253	2024-06-06T09:25:52	20.1	70.5
70254	2024-06-06T09:35:52	20.3	68
70255	2024-06-06T09:45:52	20.7	66.5
70256	2024-06-06T09:55:52	21.3	65.5
70257	2024-06-06T10:05:52	21.8	62.5
70258	2024-06-06T10:15:52	21.9	61
70259	2024-06-06T10:25:52	22.3	58.5
70260	2024-06-06T10:35:52	22	58.5
70261	2024-06-06T10:45:52	22.1	60
70262	2024-06-06T10:55:52	22.5	56.5
70263	2024-06-06T11:05:52	22.7	54.5
70264	2024-06-06T11:15:52	22.9	54
70265	2024-06-06T11:25:52	23.4	51
70266	2024-06-06T11:35:52	23.6	53
70267	2024-06-06T11:45:52	24.2	49
70268	2024-06-06T11:55:52	24.6	47.5
70269	2024-06-06T12:05:52	27	43
70270	2024-06-06T12:15:52	29.3	39
70271	2024-06-06T12:25:52	30.1	37
70272	2024-06-06T12:35:52	31.9	35.5
70273	2024-06-06T12:45:52	34.2	33
70274	2024-06-06T12:55:52	35.1	32
70275	2024-06-06T13:05:52	34.6	31
70276	2024-06-06T13:15:52	33.3	34
70277	2024-06-06T13:25:52	29.9	40
70278	2024-06-06T13:35:52	28.4	42
70279	2024-06-06T13:45:52	34.8	34.5
70280	2024-06-06T13:55:52	33.8	34
70281	2024-06-06T14:05:52	32.5	36
70282	2024-06-06T14:15:52	34.4	31.5
70283	2024-06-06T14:25:51	34.5	31
70284	2024-06-06T14:35:52	36.1	30
70285	2024-06-06T14:45:51	38	26.5
70286	2024-06-06T14:55:51	39.3	24.5
70287	2024-06-06T15:05:51	40.5	24
70288	2024-06-06T15:15:51	40.6	23.5
70289	2024-06-06T15:25:51	39.9	24.5
70290	2024-06-06T15:35:51	36.3	28.5
70291	2024-06-06T15:45:51	38.4	26
70292	2024-06-06T15:55:51	39.9	23.5
70293	2024-06-06T16:05:51	40	25.5
70294	2024-06-06T16:15:51	39.8	24
70295	2024-06-06T16:25:51	39.8	25
70296	2024-06-06T16:35:51	39.8	25
70297	2024-06-06T16:45:51	39.7	26
70298	2024-06-06T16:55:51	40.8	25.5
70299	2024-06-06T17:05:51	40.3	25
70300	2024-06-06T17:15:51	39.7	26
70301	2024-06-06T17:25:51	38.2	27.5
70302	2024-06-06T17:35:51	36.7	29
70303	2024-06-06T17:45:51	30.8	37
70304	2024-06-06T17:55:51	32	35
70305	2024-06-06T18:05:51	30.2	38.5
70306	2024-06-06T18:15:51	28.8	40
70307	2024-06-06T18:25:51	27.6	43.5
70308	2024-06-06T18:35:51	27	45.5
70309	2024-06-06T18:45:51	26.8	46
70310	2024-06-06T18:55:51	27.8	44.5
70311	2024-06-06T19:05:51	27.1	45.5
70312	2024-06-06T19:15:51	26.4	47.5
70313	2024-06-06T19:25:51	26.1	47.5
70314	2024-06-06T19:35:51	25.7	49.5
70315	2024-06-06T19:45:51	25.4	48.5
70316	2024-06-06T19:55:51	25.2	51.5
70317	2024-06-06T20:05:51	24.9	51
70318	2024-06-06T20:15:51	24.7	53.5
70319	2024-06-06T20:25:51	24.1	59
70320	2024-06-06T20:35:51	24	57.5
70321	2024-06-06T20:45:51	23.8	58
70322	2024-06-06T20:55:51	23.5	57
70323	2024-06-06T21:05:51	23.3	57
70324	2024-06-06T21:15:51	23	59
70325	2024-06-06T21:25:51	22.8	60
70326	2024-06-06T21:35:51	22.7	59.5
70327	2024-06-06T21:45:51	22.4	63
70328	2024-06-06T21:55:51	22	64
70329	2024-06-06T22:05:51	21.9	62.5
70330	2024-06-06T22:15:51	21.5	63.5
70331	2024-06-06T22:25:51	21.2	62.5
70332	2024-06-06T22:35:51	20.9	62
70333	2024-06-06T22:45:51	21	63
70334	2024-06-06T22:55:51	20.8	63.5
70335	2024-06-06T23:27:44	20.6	66.5
70336	2024-06-06T23:27:45	20.6	66.5
70337	2024-06-06T23:27:45	20.4	68
70338	2024-06-06T23:35:51	20.2	54
70339	2024-06-06T23:45:51	20.1	51.5
70340	2024-06-06T23:55:51	19.8	52.5
70341	2024-06-07T00:05:51	19.6	51
70342	2024-06-07T00:15:51	19.4	52
70343	2024-06-07T00:25:51	19	52
70344	2024-06-07T00:35:51	18.7	53.5
70345	2024-06-07T00:45:51	18.5	56
70346	2024-06-07T00:55:51	18.2	58
70347	2024-06-07T01:05:50	18.2	58.5
70348	2024-06-07T01:15:50	17.8	64
70349	2024-06-07T01:25:50	17.4	67
70350	2024-06-07T01:35:50	17.2	65.5
70351	2024-06-07T01:45:50	17	67.5
70352	2024-06-07T01:55:50	16.8	69
70353	2024-06-07T02:05:50	16.5	69
70354	2024-06-07T02:15:50	16.2	71
70355	2024-06-07T02:25:50	15.9	72.5
70356	2024-06-07T02:35:50	15.6	72.5
70357	2024-06-07T02:45:50	15.4	74.5
70358	2024-06-07T02:55:50	15.2	74.5
70359	2024-06-07T03:05:50	15.3	74
70360	2024-06-07T03:15:50	15.6	73
70361	2024-06-07T03:25:50	15.9	71
70362	2024-06-07T03:46:07	15.6	73
70363	2024-06-07T03:55:50	15.9	71.5
70364	2024-06-07T04:05:50	15.8	74.5
70365	2024-06-07T04:15:50	16.1	73.5
70366	2024-06-07T04:25:50	16.1	73
70367	2024-06-07T04:35:50	16.2	71.5
70368	2024-06-07T04:45:50	16.2	72.5
70369	2024-06-07T04:55:50	16.6	72
70370	2024-06-07T05:05:50	16.6	72.5
70371	2024-06-07T05:15:50	16.4	73
70372	2024-06-07T05:25:50	16.2	75.5
70373	2024-06-07T05:35:50	16.4	73.5
70374	2024-06-07T05:45:50	16.5	72.5
70375	2024-06-07T05:55:50	16.9	72
70376	2024-06-07T06:05:50	16.8	71
70377	2024-06-07T06:15:50	16.6	70.5
70378	2024-06-07T06:25:50	16.7	71.5
70379	2024-06-07T06:35:50	16.9	70.5
70380	2024-06-07T06:45:50	17.3	70.5
70381	2024-06-07T06:55:50	17.9	66.5
70382	2024-06-07T07:05:50	17.8	68
70383	2024-06-07T07:15:50	17.9	66
70384	2024-06-07T07:25:50	17.9	67
70385	2024-06-07T07:35:50	18.5	64
70386	2024-06-07T07:45:50	18.7	64
70387	2024-06-07T07:55:50	18.8	66
70388	2024-06-07T08:05:50	18.6	68
70389	2024-06-07T08:15:50	18.8	66
70390	2024-06-07T08:25:50	18.9	66.5
70391	2024-06-07T08:35:50	18.9	69.5
70392	2024-06-07T08:45:50	19.6	68
70393	2024-06-07T08:55:50	20.2	64
70394	2024-06-07T09:05:50	21	61
70395	2024-06-07T09:15:50	21.5	57.5
70396	2024-06-07T09:25:50	21.9	57
70397	2024-06-07T09:35:50	22.1	55.5
70398	2024-06-07T09:45:50	22	54.5
70399	2024-06-07T09:55:50	22	49.5
70400	2024-06-07T10:06:06	21.7	47
70401	2024-06-07T10:15:50	21.3	50.5
70402	2024-06-07T10:25:50	21.6	49
70403	2024-06-07T10:35:50	21.7	52
70404	2024-06-07T10:45:50	21.8	50
70405	2024-06-07T10:55:50	21.9	50.5
70406	2024-06-07T11:05:50	22	51
70407	2024-06-07T11:15:50	22.3	50
70408	2024-06-07T11:25:50	22.7	52
70409	2024-06-07T11:35:50	23.1	47
70410	2024-06-07T11:45:50	23.8	47.5
70411	2024-06-07T11:55:50	24.3	46
70412	2024-06-07T12:05:50	26.5	41
70413	2024-06-07T12:15:50	31	34
70414	2024-06-07T12:25:50	30.7	32
70415	2024-06-07T12:35:49	31.9	30.5
70416	2024-06-07T12:45:49	30.8	33
70417	2024-06-07T12:55:49	32.2	31
70418	2024-06-07T13:05:49	31.3	30
70419	2024-06-07T13:15:49	33.2	28
70420	2024-06-07T13:25:49	33.8	29
70421	2024-06-07T13:35:49	35.7	25.5
70422	2024-06-07T13:45:49	36.2	25.5
70423	2024-06-07T13:55:49	36.8	24.5
70424	2024-06-07T14:05:49	35.7	26.5
70425	2024-06-07T14:15:49	36.7	24.5
70426	2024-06-07T14:25:49	38	23.5
70427	2024-06-07T14:35:49	37.5	24.5
70428	2024-06-07T14:45:49	38.6	22.5
70429	2024-06-07T14:55:49	38.4	23.5
70430	2024-06-07T15:05:49	38.7	23.5
70431	2024-06-07T15:15:49	39	23
70432	2024-06-07T15:25:49	38.8	23
70433	2024-06-07T15:35:49	38.4	23
70434	2024-06-07T15:45:49	39.3	23.5
70435	2024-06-07T15:55:49	39	22.5
70436	2024-06-07T16:05:49	32	30
70437	2024-06-07T16:15:49	32.1	29.5
70438	2024-06-07T16:25:49	35.3	26.5
70439	2024-06-07T16:35:49	30.7	32
70440	2024-06-07T16:45:49	31.9	30
70441	2024-06-07T16:55:49	32.2	29.5
70442	2024-06-07T17:05:49	34.9	26
70443	2024-06-07T17:15:49	35.6	27
70444	2024-06-07T17:25:49	35.9	24
70445	2024-06-07T17:35:49	34.4	25
70446	2024-06-07T17:45:49	33.8	27
70447	2024-06-07T17:55:49	33.3	26.5
70448	2024-06-07T18:05:49	32.9	27
70449	2024-06-07T18:15:49	31.5	28.5
70450	2024-06-07T18:25:49	31.4	29.5
70451	2024-06-07T18:35:49	31.5	29
70452	2024-06-07T18:45:49	28.4	36.5
70453	2024-06-07T18:55:49	27.4	37
70454	2024-06-07T19:05:49	26.8	43.5
70455	2024-06-07T19:15:49	25.6	48.5
70456	2024-06-07T19:25:49	25	52.5
70457	2024-06-07T19:35:49	24.2	51.5
70458	2024-06-07T19:45:49	23.7	54
70459	2024-06-07T19:55:49	23.2	55
70460	2024-06-07T20:05:49	22.6	57.5
70461	2024-06-07T20:15:49	22.3	56
70462	2024-06-07T20:25:49	21.9	60
70463	2024-06-07T20:35:49	21.4	60
70464	2024-06-07T20:45:49	21	61.5
70465	2024-06-07T20:55:49	20.8	62.5
70466	2024-06-07T21:05:49	20.4	61
70467	2024-06-07T21:15:49	20.1	61
70468	2024-06-07T21:25:49	19.8	64
70469	2024-06-07T21:35:49	19.5	64.5
70470	2024-06-07T21:45:49	19.2	65.5
70471	2024-06-07T21:55:49	18.7	67.5
70472	2024-06-07T22:05:49	18.6	68.5
70473	2024-06-07T22:15:49	18.5	69
70474	2024-06-07T22:25:49	18.2	69
70475	2024-06-07T22:35:49	18	68.5
70476	2024-06-07T22:45:49	17.6	71
70477	2024-06-07T22:55:49	17.4	72
70478	2024-06-07T23:28:10	17	73
70479	2024-06-07T23:28:11	17.1	73
70480	2024-06-07T23:28:11	16.7	74
70481	2024-06-07T23:35:48	16.5	74
70482	2024-06-07T23:45:48	16.4	75
70483	2024-06-07T23:55:48	16.2	76
70484	2024-06-08T00:05:48	16.2	75.5
70485	2024-06-08T00:15:48	16	77
70486	2024-06-08T00:25:48	15.8	77.5
70487	2024-06-08T00:35:48	15.9	77
70488	2024-06-08T00:45:48	15.5	78
70489	2024-06-08T00:55:48	15.5	78.5
70490	2024-06-08T01:05:48	15.5	79
70491	2024-06-08T01:15:48	15.6	78
70492	2024-06-08T01:25:48	15.4	79
70493	2024-06-08T01:35:48	15.2	79.5
70494	2024-06-08T01:45:48	15.2	80.5
70495	2024-06-08T01:55:48	14.8	81
70496	2024-06-08T02:05:48	15	80.5
70497	2024-06-08T02:15:48	14.7	82
70498	2024-06-08T02:25:48	14.8	81.5
70499	2024-06-08T02:35:48	14.5	83
70500	2024-06-08T02:45:48	14.3	82.5
70501	2024-06-08T02:55:48	14.2	84
70502	2024-06-08T03:05:48	14	84.5
70503	2024-06-08T03:15:48	14.1	84
70504	2024-06-08T03:25:48	14	84.5
70505	2024-06-08T03:35:48	13.9	85
70506	2024-06-08T03:45:48	14.1	84.5
70507	2024-06-08T03:55:48	14	85
70508	2024-06-08T04:05:48	13.9	85.5
70509	2024-06-08T04:15:48	13.7	86
70510	2024-06-08T04:25:48	13.7	85.5
70511	2024-06-08T04:35:48	13.7	86
70512	2024-06-08T04:45:48	13.8	85.5
70513	2024-06-08T04:55:48	14	86.5
70514	2024-06-08T05:05:48	14	86.5
70515	2024-06-08T05:15:48	14.3	84.5
70516	2024-06-08T05:25:48	14.6	85.5
70517	2024-06-08T05:35:48	14.7	84.5
70518	2024-06-08T05:45:48	14.9	83
70519	2024-06-08T05:55:48	15.1	80
70520	2024-06-08T06:05:48	15.2	80
70521	2024-06-08T06:15:48	15.5	79.5
70522	2024-06-08T06:25:48	15.6	80
70523	2024-06-08T06:35:48	15.8	79
70524	2024-06-08T06:45:48	16	79.5
70525	2024-06-08T06:55:48	16.4	77.5
70526	2024-06-08T07:05:48	16.7	78
70527	2024-06-08T07:15:48	17	76.5
70528	2024-06-08T07:25:48	17.4	70.5
70529	2024-06-08T07:35:48	17.7	66
70530	2024-06-08T07:45:48	17.7	70
70531	2024-06-08T07:55:48	18.1	68.5
70532	2024-06-08T08:05:48	18.5	66
70533	2024-06-08T08:15:48	18.7	68
70534	2024-06-08T08:25:48	18.9	66.5
70535	2024-06-08T08:35:48	19.5	63.5
70536	2024-06-08T08:45:48	19.8	61.5
70537	2024-06-08T08:55:48	20.3	57.5
70538	2024-06-08T09:05:48	20.7	57
70539	2024-06-08T09:15:48	21	54.5
70540	2024-06-08T09:25:48	21.6	53.5
70541	2024-06-08T09:35:48	21.6	52.5
70542	2024-06-08T09:45:48	21.9	54
70543	2024-06-08T09:55:48	22.3	52.5
70544	2024-06-08T10:05:48	22.8	51
70545	2024-06-08T10:15:48	23	49.5
70546	2024-06-08T10:25:48	22.9	50.5
70547	2024-06-08T10:35:48	23.7	47.5
70548	2024-06-08T10:45:48	24	47.5
70549	2024-06-08T10:55:48	24.7	45.5
70550	2024-06-08T11:05:47	24.4	46
70551	2024-06-08T11:15:47	24.4	47.5
70552	2024-06-08T11:25:47	24.8	45.5
70553	2024-06-08T11:35:47	24.9	45.5
70554	2024-06-08T11:45:47	25.6	44.5
70555	2024-06-08T11:55:47	26	45
70556	2024-06-08T12:05:47	26.7	42
70557	2024-06-08T12:15:47	27.6	40.5
70558	2024-06-08T12:25:47	27.5	39.5
70559	2024-06-08T12:35:47	28	40
70560	2024-06-08T12:45:47	28.6	39
70561	2024-06-08T12:55:47	29.9	37
70562	2024-06-08T13:05:47	30	35.5
70563	2024-06-08T13:15:47	30.2	36
70564	2024-06-08T13:25:47	30.6	37
70565	2024-06-08T13:35:47	29.5	37
70566	2024-06-08T13:45:47	28.8	39.5
70567	2024-06-08T13:55:47	27.9	41
70568	2024-06-08T14:05:47	27	43
70569	2024-06-08T14:15:47	26.4	46
70570	2024-06-08T14:25:47	26.7	46
70571	2024-06-08T14:35:47	26.5	47
70572	2024-06-08T14:45:47	26.2	47.5
70573	2024-06-08T14:55:47	25.8	49.5
70574	2024-06-08T15:05:47	25.4	50
70575	2024-06-08T15:15:47	25.2	51
70576	2024-06-08T15:25:47	25.4	51
70577	2024-06-08T15:35:47	25.5	51.5
70578	2024-06-08T15:45:47	25.5	53.5
70579	2024-06-08T15:55:47	25.6	55
70580	2024-06-08T16:05:47	25.8	55
70581	2024-06-08T16:15:47	25.1	58
70582	2024-06-08T16:25:47	25	57.5
70583	2024-06-08T16:35:47	24.9	58
70584	2024-06-08T16:45:47	26.9	54
70585	2024-06-08T16:55:47	26.1	56.5
70586	2024-06-08T17:05:47	24.9	60
70587	2024-06-08T17:15:47	24.5	62.5
70588	2024-06-08T17:25:47	23.9	63.5
70589	2024-06-08T17:35:47	23.6	65
70590	2024-06-08T17:45:47	23.3	67
70591	2024-06-08T17:55:47	22.9	68
70592	2024-06-08T18:05:47	22.6	70
70593	2024-06-08T18:15:47	22.2	72
70594	2024-06-08T18:25:47	21.9	73
70595	2024-06-08T18:35:47	21.8	74
70596	2024-06-08T18:45:47	21.7	75
70597	2024-06-08T18:55:47	21.4	76.5
70598	2024-06-08T19:05:47	21.2	77.5
70599	2024-06-08T19:15:47	21.1	78
70600	2024-06-08T19:25:47	21	79
70601	2024-06-08T19:35:47	20.9	79.5
70602	2024-06-08T19:45:47	20.8	80
70603	2024-06-08T19:55:47	20.6	80.5
70604	2024-06-08T20:05:47	20.7	80.5
70605	2024-06-08T20:15:47	20.4	80.5
70606	2024-06-08T20:25:47	20.4	79.5
70607	2024-06-08T20:35:47	20.2	79
70608	2024-06-08T20:45:47	20.2	79.5
70609	2024-06-08T20:55:47	20.1	80
70610	2024-06-08T21:05:47	20	80.5
70611	2024-06-08T21:15:47	20	82
70612	2024-06-08T21:25:47	20	82.5
70613	2024-06-08T21:35:46	19.9	83
70614	2024-06-08T21:45:46	19.7	84
70615	2024-06-08T21:55:46	19.7	84.5
70616	2024-06-08T22:05:46	19.7	85.5
70617	2024-06-08T22:15:46	19.5	86
70618	2024-06-08T22:25:46	19.4	87
70619	2024-06-08T22:35:46	19.5	88
70620	2024-06-08T22:45:46	19.5	88.5
70621	2024-06-08T22:55:46	19.4	88.5
70622	2024-06-08T23:27:42	19.4	88.5
70623	2024-06-08T23:27:42	19.3	88.5
70624	2024-06-08T23:27:42	19.3	89
70625	2024-06-08T23:35:46	19.3	89
70626	2024-06-08T23:45:46	19.3	88.5
70627	2024-06-08T23:55:46	19.4	87.5
70628	2024-06-09T00:05:46	19.2	71.5
70629	2024-06-09T00:15:46	18.7	71.5
70630	2024-06-09T00:25:46	18.1	72
70631	2024-06-09T00:35:46	17.6	73
70632	2024-06-09T00:45:46	17.3	70.5
70633	2024-06-09T00:55:46	17.2	73.5
70634	2024-06-09T01:05:46	17.2	73
70635	2024-06-09T01:15:46	16.6	75
70636	2024-06-09T01:25:46	16.3	78
70637	2024-06-09T01:35:46	16.2	78
70638	2024-06-09T01:45:46	16.1	78.5
70639	2024-06-09T01:55:46	15.7	77.5
70640	2024-06-09T02:05:46	15.5	80
70641	2024-06-09T02:15:46	15.2	82
70642	2024-06-09T02:25:46	15.1	82.5
70643	2024-06-09T02:35:46	14.8	82.5
70644	2024-06-09T02:45:46	14.6	83.5
70645	2024-06-09T02:55:46	14.6	83
70646	2024-06-09T03:05:46	14.4	80.5
70647	2024-06-09T03:15:46	14.3	81.5
70648	2024-06-09T03:25:46	14.1	82
70649	2024-06-09T03:35:46	13.9	83
70650	2024-06-09T03:45:46	14.1	80.5
70651	2024-06-09T03:55:46	14.1	81.5
70652	2024-06-09T04:05:46	14	83
70653	2024-06-09T04:15:46	14	82.5
70654	2024-06-09T04:25:46	13.9	83
70655	2024-06-09T04:35:46	13.9	83
70656	2024-06-09T04:45:46	14.2	83.5
70657	2024-06-09T04:55:46	14.3	83.5
70658	2024-06-09T05:05:46	14.4	83
70659	2024-06-09T05:15:46	14.7	80.5
70660	2024-06-09T05:25:46	14.8	79.5
70661	2024-06-09T05:35:46	14.9	78.5
70662	2024-06-09T05:45:46	15.2	76.5
70663	2024-06-09T05:55:46	15.3	77
70664	2024-06-09T06:05:46	15.5	75
70665	2024-06-09T06:15:46	15.6	75
70666	2024-06-09T06:25:46	15.7	76
70667	2024-06-09T06:35:46	15.9	75.5
70668	2024-06-09T06:45:46	16	73
70669	2024-06-09T06:55:46	16.1	71.5
70670	2024-06-09T07:05:46	16.2	74.5
70671	2024-06-09T07:15:46	16.5	72.5
70672	2024-06-09T07:25:46	16.5	73
70673	2024-06-09T07:35:46	16.7	72.5
70674	2024-06-09T07:45:46	17	72
70675	2024-06-09T07:55:46	17.4	71.5
70676	2024-06-09T08:05:46	17.6	70
70677	2024-06-09T08:15:46	18	68
70678	2024-06-09T08:25:46	18.4	65.5
70679	2024-06-09T08:35:46	18.6	65
70680	2024-06-09T08:45:46	18.8	64
70681	2024-06-09T08:55:46	19	63.5
70682	2024-06-09T09:05:46	19.4	64
70683	2024-06-09T09:15:46	19.6	61
70684	2024-06-09T09:25:46	19.8	60.5
70685	2024-06-09T09:35:45	20.2	61
70686	2024-06-09T09:45:45	20.4	57.5
70687	2024-06-09T09:55:45	20.9	59
70688	2024-06-09T10:05:45	21.2	56.5
70689	2024-06-09T10:15:45	21.5	57
70690	2024-06-09T10:25:45	22.1	57
70691	2024-06-09T10:35:45	22.2	54
70692	2024-06-09T10:45:45	23.2	51.5
70693	2024-06-09T10:55:45	23.8	49.5
70694	2024-06-09T11:05:45	23.5	49.5
70695	2024-06-09T11:15:45	23.8	48
70696	2024-06-09T11:25:45	24.2	48.5
70697	2024-06-09T11:35:45	24.8	49
70698	2024-06-09T11:45:45	25.2	48.5
70699	2024-06-09T11:55:45	25.9	44.5
70700	2024-06-09T12:05:45	28.2	40
70701	2024-06-09T12:15:45	31.3	34
70702	2024-06-09T12:25:45	33.3	32.5
70703	2024-06-09T12:35:45	35.3	29
70704	2024-06-09T12:45:45	36.3	27.5
70705	2024-06-09T12:55:45	38.5	26
70706	2024-06-09T13:05:45	39.5	24
70707	2024-06-09T13:15:45	36.8	26.5
70708	2024-06-09T13:25:45	38	25.5
70709	2024-06-09T13:35:45	40.3	23
70710	2024-06-09T13:45:45	40.4	23.5
70711	2024-06-09T13:55:45	39.7	23.5
70712	2024-06-09T14:05:45	40.9	21.5
70713	2024-06-09T14:15:45	35.8	25
70714	2024-06-09T14:25:45	38	25
70715	2024-06-09T14:35:45	35.1	27.5
70716	2024-06-09T14:45:45	35.7	25
70717	2024-06-09T14:55:45	33.9	26.5
70718	2024-06-09T15:05:45	31.8	29.5
70719	2024-06-09T15:15:45	33.3	28
70720	2024-06-09T15:25:45	32.8	30.5
70721	2024-06-09T15:35:45	34.1	29
70722	2024-06-09T15:45:45	36	26
70723	2024-06-09T15:55:45	34.6	27
70724	2024-06-09T16:05:45	31.8	32.5
70725	2024-06-09T16:15:45	33.6	30.5
70726	2024-06-09T16:25:45	36.5	27
70727	2024-06-09T16:35:45	35.6	26
70728	2024-06-09T16:45:45	33.4	29.5
70729	2024-06-09T16:55:45	33.4	30
70730	2024-06-09T17:05:45	30.5	34.5
70731	2024-06-09T17:15:45	28.5	37
70732	2024-06-09T17:25:45	27.2	38.5
70733	2024-06-09T17:35:45	26.7	39.5
70734	2024-06-09T17:45:45	26.5	42
70735	2024-06-09T17:55:45	26.1	42
70736	2024-06-09T18:05:45	25.7	42
70737	2024-06-09T18:35:45	27.3	39.5
70738	2024-06-09T18:55:45	27.8	41
70739	2024-06-09T19:05:45	25.8	43.5
70740	2024-06-09T19:15:45	24.2	47.5
70741	2024-06-09T19:25:45	23.6	51
70742	2024-06-09T19:35:45	23.1	55
70743	2024-06-09T19:45:45	22.6	57
70744	2024-06-09T19:55:44	22.1	55.5
70745	2024-06-09T20:05:45	21.8	57
70746	2024-06-09T20:15:45	21.4	58.5
70747	2024-06-09T20:25:44	21	59.5
70748	2024-06-09T20:35:44	20.8	61
70749	2024-06-09T20:45:44	20.4	62
70750	2024-06-09T20:55:44	20.1	63
70751	2024-06-09T21:05:44	19.9	64.5
70752	2024-06-09T21:15:44	19.6	63
70753	2024-06-09T21:25:44	19.4	67
70754	2024-06-09T21:35:44	19.2	67
70755	2024-06-09T21:45:44	19	66
70756	2024-06-09T21:55:44	19.1	66.5
70757	2024-06-09T22:05:44	18.9	67
70758	2024-06-09T22:15:44	18.6	67.5
70759	2024-06-09T22:25:44	18.7	68.5
70760	2024-06-09T22:35:44	18.6	69
70761	2024-06-09T22:45:44	18.8	67.5
70762	2024-06-09T22:55:44	18.9	67.5
70763	2024-06-09T23:27:59	18.7	69.5
70764	2024-06-09T23:27:59	18.6	70
70765	2024-06-09T23:27:59	18.4	70.5
70766	2024-06-09T23:35:44	18.3	68.5
70767	2024-06-09T23:45:44	18.1	67
70768	2024-06-09T23:55:44	17.9	67
70769	2024-06-10T00:05:44	17.6	66
70770	2024-06-10T00:15:44	17.5	64.5
70771	2024-06-10T00:25:44	17.3	62
70772	2024-06-10T00:35:44	17.2	61.5
70773	2024-06-10T00:45:44	17	60.5
70774	2024-06-10T00:55:44	16.9	59
70775	2024-06-10T01:05:44	16.8	56.5
70776	2024-06-10T01:15:44	16.6	58
70777	2024-06-10T01:35:44	16	58.5
70778	2024-06-10T01:45:44	15.8	60.5
70779	2024-06-10T01:55:44	15.8	58.5
70780	2024-06-10T02:05:44	15.9	57.5
70781	2024-06-10T02:15:44	15.9	57.5
70782	2024-06-10T02:25:44	15.5	57.5
70783	2024-06-10T02:35:44	15.3	60.5
70784	2024-06-10T02:45:44	14.9	60.5
70785	2024-06-10T02:55:44	14.5	65.5
70786	2024-06-10T03:05:44	14.1	67
70787	2024-06-10T03:15:44	13.8	68
70788	2024-06-10T03:25:44	13.8	70.5
70789	2024-06-10T03:35:44	13.5	71
70790	2024-06-10T03:45:44	13.3	72.5
70791	2024-06-10T03:55:44	13.3	71.5
70792	2024-06-10T04:05:44	13.2	71
70793	2024-06-10T04:15:44	13.2	71.5
70794	2024-06-10T04:25:44	13.1	72
70795	2024-06-10T04:36:03	13.3	73.5
70796	2024-06-10T04:45:44	13.4	72.5
70797	2024-06-10T04:55:44	13.5	71.5
70798	2024-06-10T05:05:44	13.7	71
70799	2024-06-10T05:15:44	13.8	69.5
70800	2024-06-10T05:25:44	13.8	71
70801	2024-06-10T05:35:44	14	68
70802	2024-06-10T05:45:44	14.1	67
70803	2024-06-10T05:55:44	14.2	65
70804	2024-06-10T06:05:44	14.3	66
70805	2024-06-10T06:15:44	14.4	64.5
70806	2024-06-10T06:25:44	14.6	65
70807	2024-06-10T06:35:44	14.7	65
70808	2024-06-10T06:45:44	14.9	64
70809	2024-06-10T06:55:44	15	61
70810	2024-06-10T07:05:44	15.2	64
70811	2024-06-10T07:15:44	15.4	60.5
70812	2024-06-10T07:25:44	15.4	61
70813	2024-06-10T07:35:44	15.7	60.5
70814	2024-06-10T07:45:44	15.9	58.5
70815	2024-06-10T07:55:43	16	60
70816	2024-06-10T08:05:43	16.2	58
70817	2024-06-10T08:15:43	16.5	56
70818	2024-06-10T08:25:43	16.8	56.5
70819	2024-06-10T08:35:43	17	56
70820	2024-06-10T08:45:43	17.2	54.5
70821	2024-06-10T08:55:43	17.3	54.5
70822	2024-06-10T09:05:43	17.7	55.5
70823	2024-06-10T09:15:43	18	51.5
70824	2024-06-10T09:25:43	18.1	50.5
70825	2024-06-10T09:35:43	18.6	50
70826	2024-06-10T09:45:43	18.7	48
70827	2024-06-10T09:55:43	18.9	48.5
70828	2024-06-10T10:05:43	19.2	46
70829	2024-06-10T10:15:43	19.5	45
70830	2024-06-10T10:25:43	19.5	48.5
70831	2024-06-10T10:35:43	19.7	46.5
70832	2024-06-10T10:45:43	19.7	48.5
70833	2024-06-10T10:55:43	20.1	49.5
70834	2024-06-10T11:05:43	20.4	45.5
70835	2024-06-10T11:15:43	20.7	46.5
70836	2024-06-10T11:25:43	21	47.5
70837	2024-06-10T11:35:43	21.4	46
70838	2024-06-10T11:45:43	22.2	43.5
70839	2024-06-10T11:55:43	22.4	43.5
70840	2024-06-10T12:05:43	22.4	44
70841	2024-06-10T12:15:43	26.1	36.5
70842	2024-06-10T12:25:43	26.8	34.5
70843	2024-06-10T12:35:43	28.5	32.5
70844	2024-06-10T12:45:43	28.7	31.5
70845	2024-06-10T12:55:43	28.6	31
70846	2024-06-10T13:05:43	30.4	27.5
70847	2024-06-10T13:15:43	31.1	26
70848	2024-06-10T13:25:43	32.7	25
70849	2024-06-10T13:35:43	32.5	24
70850	2024-06-10T13:45:43	33.4	24
70851	2024-06-10T13:55:43	33.3	24
70852	2024-06-10T14:05:43	33.2	24
70853	2024-06-10T14:15:43	33.4	25
70854	2024-06-10T14:25:43	34	25.5
70855	2024-06-10T14:35:43	33.6	26
70856	2024-06-10T14:45:43	34.5	24
70857	2024-06-10T14:55:43	34.7	25.5
70858	2024-06-10T15:05:43	34.6	25
70859	2024-06-10T15:15:43	33.5	25.5
70860	2024-06-10T15:25:43	32.6	26.5
70861	2024-06-10T15:35:43	29.4	31.5
70862	2024-06-10T15:45:43	27.1	34
70863	2024-06-10T15:55:43	26.5	36
70864	2024-06-10T16:05:43	24.7	40
70865	2024-06-10T16:15:43	24.2	41.5
70866	2024-06-10T16:25:43	23.4	43
70867	2024-06-10T16:35:43	23.1	44
70868	2024-06-10T16:45:43	22.7	45.5
70869	2024-06-10T16:55:43	22.1	46
70870	2024-06-10T17:05:43	21.7	49.5
70871	2024-06-10T17:15:43	21.5	48.5
70872	2024-06-10T17:25:43	21.5	48.5
70873	2024-06-10T17:35:43	21.8	48.5
70874	2024-06-10T17:45:43	23.7	43.5
70875	2024-06-10T17:55:43	21.6	48
70876	2024-06-10T18:05:43	21.2	47.5
70877	2024-06-10T18:15:43	20.8	49.5
70878	2024-06-10T18:25:43	20.3	49
70879	2024-06-10T18:35:42	19.9	50
70880	2024-06-10T18:45:42	19.7	51
70881	2024-06-10T18:55:42	19.3	51.5
70882	2024-06-10T19:05:42	19.1	53
70883	2024-06-10T19:15:42	18.8	54.5
70884	2024-06-10T19:25:42	18.2	56.5
70885	2024-06-10T19:35:42	17.6	57
70886	2024-06-10T19:45:42	17.4	56.5
70887	2024-06-10T19:55:42	17.3	53.5
70888	2024-06-10T20:05:42	17.3	55.5
70889	2024-06-10T20:15:42	16.8	54
70890	2024-06-10T20:25:42	16.6	54
70891	2024-06-10T20:35:42	16.2	55.5
70892	2024-06-10T20:45:42	16.1	57
70893	2024-06-10T20:55:42	16	62
70894	2024-06-10T21:05:42	15.7	61.5
70895	2024-06-10T21:15:42	15.2	70
70896	2024-06-10T21:25:42	14.9	70.5
70897	2024-06-10T21:35:42	14.5	90
70898	2024-06-10T21:45:42	13.5	96.5
70899	2024-06-10T21:55:42	13.3	97.5
70900	2024-06-10T22:05:42	13.1	97.5
70901	2024-06-10T22:15:42	13.4	98
70902	2024-06-10T22:25:42	13.5	97.5
70903	2024-06-10T22:35:42	13.3	96.5
70904	2024-06-10T22:45:42	13.2	93
70905	2024-06-10T22:55:42	13.1	87.5
70906	2024-06-10T23:28:43	13.1	74
70907	2024-06-10T23:28:44	13.2	73.5
70908	2024-06-10T23:28:44	13.3	70.5
70909	2024-06-10T23:35:42	13.4	70.5
70910	2024-06-10T23:45:42	13.4	71
70911	2024-06-11T00:05:42	13.3	69.5
70912	2024-06-11T00:15:42	13.3	67.5
70913	2024-06-11T00:25:42	13.3	68
70914	2024-06-11T00:35:42	13.2	68
70915	2024-06-11T00:45:42	13.1	69
70916	2024-06-11T00:55:42	12.6	68.5
70917	2024-06-11T01:05:42	12.1	69.5
70918	2024-06-11T01:15:42	11.7	69.5
70919	2024-06-11T01:25:42	11.6	70
70920	2024-06-11T01:35:42	11.7	70
70921	2024-06-11T01:45:42	11.6	71.5
70922	2024-06-11T01:55:42	11.1	77.5
70923	2024-06-11T02:05:42	10.5	80.5
70924	2024-06-11T02:15:42	10.3	80
70925	2024-06-11T02:25:42	10	81
70926	2024-06-11T02:35:42	9.9	81.5
70927	2024-06-11T02:45:42	9.7	82.5
70928	2024-06-11T02:55:42	9.4	83
70929	2024-06-11T03:05:42	9.4	83.5
70930	2024-06-11T03:15:42	9.3	84
70931	2024-06-11T03:25:42	9.2	84
70932	2024-06-11T03:35:42	9.2	84.5
70933	2024-06-11T03:45:42	9	84.5
70934	2024-06-11T03:55:42	9.1	84
70935	2024-06-11T04:05:42	9.1	85
70936	2024-06-11T04:15:42	9.2	85
70937	2024-06-11T04:25:42	9.3	85
70938	2024-06-11T04:35:42	9.4	85
70939	2024-06-11T04:45:42	9.6	84
70940	2024-06-11T04:55:42	9.8	83.5
70941	2024-06-11T05:05:42	10	83
70942	2024-06-11T05:15:42	10.2	81.5
70943	2024-06-11T05:25:42	10.4	81
70944	2024-06-11T05:35:42	10.6	79
70945	2024-06-11T05:46:01	10.7	78.5
70946	2024-06-11T05:55:42	10.9	76.5
70947	2024-06-11T06:05:42	11.1	77.5
70948	2024-06-11T06:15:42	11.3	75.5
70949	2024-06-11T06:25:42	11.4	75.5
70950	2024-06-11T06:35:42	11.9	73
70951	2024-06-11T06:45:42	12.4	71
70952	2024-06-11T06:55:42	12.6	69
70953	2024-06-11T07:05:42	12.6	69.5
70954	2024-06-11T07:15:42	13.4	65.5
70955	2024-06-11T07:25:42	13.3	65.5
70956	2024-06-11T07:35:42	13.5	65
70957	2024-06-11T07:45:42	13.6	65
70958	2024-06-11T07:55:42	14.1	64
70959	2024-06-11T08:05:42	14.4	63.5
70960	2024-06-11T08:15:42	14.9	62.5
70961	2024-06-11T08:25:42	15.2	59
70962	2024-06-11T08:35:41	16	58
70963	2024-06-11T08:45:41	16.3	55.5
70964	2024-06-11T08:55:41	16.6	55.5
70965	2024-06-11T09:05:41	17.1	54
70966	2024-06-11T09:15:41	16.6	51
70967	2024-06-11T09:25:41	16.5	54.5
70968	2024-06-11T09:35:41	16.6	52.5
70969	2024-06-11T09:45:41	17	52
70970	2024-06-11T09:55:41	16.6	54.5
70971	2024-06-11T10:05:41	16.7	53.5
70972	2024-06-11T10:15:41	17.6	48
70973	2024-06-11T10:25:41	17.8	48.5
70974	2024-06-11T10:35:41	17.3	48.5
70975	2024-06-11T10:45:41	17.1	50
70976	2024-06-11T10:55:41	18.1	48.5
70977	2024-06-11T11:05:41	18.5	42.5
70978	2024-06-11T11:15:41	18.7	43
70979	2024-06-11T11:25:41	18.6	44.5
70980	2024-06-11T11:35:41	18.2	47.5
70981	2024-06-11T11:45:41	18.7	45.5
70982	2024-06-11T11:55:41	20.1	41.5
70983	2024-06-11T12:05:41	22	36
70984	2024-06-11T12:15:41	24	34
70985	2024-06-11T12:25:41	22	38
70986	2024-06-11T12:35:41	28.3	30.5
70987	2024-06-11T12:45:41	29.5	26.5
70988	2024-06-11T12:55:41	27.2	30
70989	2024-06-11T13:05:41	29.7	25
70990	2024-06-11T13:15:41	33	22
70991	2024-06-11T13:25:41	34.5	21.5
70992	2024-06-11T13:35:41	33.3	21.5
70993	2024-06-11T13:45:41	32.4	23.5
70994	2024-06-11T13:55:41	33.8	22
70995	2024-06-11T14:05:41	36	19
70996	2024-06-11T14:15:41	34.7	19.5
70997	2024-06-11T14:25:41	33.3	21
70998	2024-06-11T14:35:41	30.8	23.5
70999	2024-06-11T14:45:41	29.1	23.5
71000	2024-06-11T14:55:41	30.1	23
71001	2024-06-11T15:05:41	27	27
71002	2024-06-11T15:15:41	26.6	28.5
71003	2024-06-11T15:25:41	27.7	26
71004	2024-06-11T15:35:41	29.6	25
71005	2024-06-11T15:45:41	29.6	23
71006	2024-06-11T15:55:41	30	24
71007	2024-06-11T16:05:41	31	23
71008	2024-06-11T16:15:41	33	22.5
71009	2024-06-11T16:25:41	28.1	28
71010	2024-06-11T16:35:41	27.7	27
71011	2024-06-11T16:45:41	30	26.5
71012	2024-06-11T16:55:41	28.1	27
71013	2024-06-11T17:05:41	29.6	26
71014	2024-06-11T17:15:41	29.2	27
71015	2024-06-11T17:25:41	31.6	24.5
71016	2024-06-11T17:35:41	32	24.5
71017	2024-06-11T17:45:41	31.5	24.5
71018	2024-06-11T17:55:41	30.2	25.5
71019	2024-06-11T18:05:41	29.9	25
71020	2024-06-11T18:15:41	30	27
71021	2024-06-11T18:25:41	28.5	26
71022	2024-06-11T18:35:41	24.9	29.5
71023	2024-06-11T18:45:41	23.2	35
71024	2024-06-11T18:55:41	23.4	36.5
71025	2024-06-11T19:05:40	21.5	38
71026	2024-06-11T19:15:40	20.6	40.5
71027	2024-06-11T19:25:40	19.8	45.5
71028	2024-06-11T19:35:40	19.1	50.5
71029	2024-06-11T19:45:40	18.5	53.5
71030	2024-06-11T19:55:40	17.9	53
71031	2024-06-11T20:05:40	17.1	53
71032	2024-06-11T20:15:40	16.8	55.5
71033	2024-06-11T20:25:40	16.3	57.5
71034	2024-06-11T20:35:40	16.1	57
71035	2024-06-11T20:45:40	16	58
71036	2024-06-11T20:55:40	15.2	59
71037	2024-06-11T21:05:40	15	62
71038	2024-06-11T21:15:40	15	59.5
71039	2024-06-11T21:25:40	14.6	60.5
71040	2024-06-11T21:35:40	14.3	63
71041	2024-06-11T21:45:40	14.4	62.5
71042	2024-06-11T21:55:40	14.4	61
71043	2024-06-11T22:05:40	13.9	62.5
71044	2024-06-11T22:15:40	13.8	65.5
71045	2024-06-11T22:25:40	13.7	66
71046	2024-06-11T22:35:40	13.5	66
71047	2024-06-11T22:45:40	13.2	68.5
71048	2024-06-11T22:55:40	12.9	70
71049	2024-06-11T23:05:40	12.7	69.5
71050	2024-06-11T23:15:40	12.3	71.5
71051	2024-06-11T23:25:40	12	72
71052	2024-06-11T23:35:40	11.8	73.5
71053	2024-06-11T23:45:40	11.5	75
71054	2024-06-11T23:55:40	11.2	76.5
71055	2024-06-12T00:05:40	11.1	76.5
71056	2024-06-12T00:15:40	11	76
71057	2024-06-12T00:25:40	10.8	77.5
71058	2024-06-12T00:35:40	10.5	78
71059	2024-06-12T00:45:40	10.5	78
71060	2024-06-12T00:55:40	10.3	78.5
71061	2024-06-12T01:05:40	10.3	78
71062	2024-06-12T01:15:40	10.1	77
71063	2024-06-12T01:25:40	10	78.5
71064	2024-06-12T01:35:40	9.6	80
71065	2024-06-12T01:45:40	9.6	80
71066	2024-06-12T01:55:40	9.4	81.5
71067	2024-06-12T02:05:40	9.2	81.5
71068	2024-06-12T02:15:40	9	82
71069	2024-06-12T02:25:40	8.8	83
71070	2024-06-12T02:35:40	8.8	83.5
71071	2024-06-12T02:45:40	8.6	83.5
71072	2024-06-12T02:55:40	8.5	84
71073	2024-06-12T03:05:40	8.4	84
71074	2024-06-12T03:15:40	8.3	85
71075	2024-06-12T03:25:40	8.2	85
71076	2024-06-12T03:35:40	8.1	85
71077	2024-06-12T03:45:40	8.2	85.5
71078	2024-06-12T03:55:40	8.1	86
71079	2024-06-12T04:05:40	8.1	86
71080	2024-06-12T04:15:40	8.2	86
71081	2024-06-12T04:25:40	8.2	85.5
71082	2024-06-12T04:35:40	8.4	85.5
71083	2024-06-12T04:45:40	8.6	86
71084	2024-06-12T04:55:40	8.8	84.5
71085	2024-06-12T05:05:40	9	85.5
71086	2024-06-12T05:15:40	9.1	86
71087	2024-06-12T05:25:40	9.4	84.5
71088	2024-06-12T05:35:40	9.8	83
71089	2024-06-12T05:45:40	10	82.5
71090	2024-06-12T05:55:40	10.8	79.5
71091	2024-06-12T06:05:40	11.1	78
71092	2024-06-12T06:15:40	11.2	77
71093	2024-06-12T06:25:40	11.2	77.5
71094	2024-06-12T06:35:40	11.5	75
71095	2024-06-12T06:45:40	11.7	76
71096	2024-06-12T06:55:40	11.8	74.5
71097	2024-06-12T07:05:40	12.1	75
71098	2024-06-12T07:15:40	12.2	75
71099	2024-06-12T07:25:40	12.5	72.5
71100	2024-06-12T07:35:40	12.5	73
71101	2024-06-12T07:45:40	12.7	73.5
71102	2024-06-12T07:55:40	13	71
71103	2024-06-12T08:05:40	13.1	69.5
71104	2024-06-12T08:15:40	13.4	69.5
71105	2024-06-12T08:25:40	13.4	68
71106	2024-06-12T08:35:40	13.8	65.5
71107	2024-06-12T08:45:40	14.1	64.5
71108	2024-06-12T08:55:40	14.2	62.5
71109	2024-06-12T09:05:40	14.4	64.5
71110	2024-06-12T09:15:40	14.7	66
71111	2024-06-12T09:25:40	15.2	64
71112	2024-06-12T09:35:40	15.3	61
71113	2024-06-12T09:45:39	15.9	58
71114	2024-06-12T09:55:39	16.1	59
71115	2024-06-12T10:05:39	16.4	57.5
71116	2024-06-12T10:15:39	16.3	55
71117	2024-06-12T10:25:40	17.1	54
71118	2024-06-12T10:35:39	17.4	52
71119	2024-06-12T10:45:39	17.3	51
71120	2024-06-12T10:55:39	17.5	48.5
71121	2024-06-12T11:05:39	17.5	47
71122	2024-06-12T11:15:39	18.5	45
71123	2024-06-12T11:25:39	19.2	44
71124	2024-06-12T11:35:39	19.5	43.5
71125	2024-06-12T11:45:39	19.8	39.5
71126	2024-06-12T11:55:39	21.4	38.5
71127	2024-06-12T12:05:39	21.6	37.5
71128	2024-06-12T12:15:39	21.2	39
71129	2024-06-12T12:25:39	20.9	38.5
71130	2024-06-12T12:35:39	21.1	36.5
71131	2024-06-12T12:45:39	25	36.5
71132	2024-06-12T12:55:39	23.7	37.5
71133	2024-06-12T13:05:39	28.7	30
71134	2024-06-12T13:15:39	32.7	26
71135	2024-06-12T13:25:39	32.3	25
71136	2024-06-12T13:35:39	35.6	22.5
71137	2024-06-12T13:45:39	28.5	28
71138	2024-06-12T13:55:39	25.8	34
71139	2024-06-12T14:05:39	25.1	35
71140	2024-06-12T14:15:39	25.4	35
71141	2024-06-12T14:25:39	29.5	29.5
71142	2024-06-12T14:35:39	33.6	24.5
71143	2024-06-12T14:45:39	35.8	22.5
71144	2024-06-12T14:55:39	34.1	23
71145	2024-06-12T15:05:39	31.6	23.5
71146	2024-06-12T15:15:39	27.3	31
71147	2024-06-12T15:25:39	27	30
71148	2024-06-12T15:35:58	25.7	32.5
71149	2024-06-12T15:45:39	32.7	24.5
71150	2024-06-12T15:55:39	31	25.5
71151	2024-06-12T16:05:39	28.1	28.5
71152	2024-06-12T16:15:39	28.2	29
71153	2024-06-12T16:25:39	26.8	31
71154	2024-06-12T16:35:39	26.1	31.5
71155	2024-06-12T16:45:39	25.9	31.5
71156	2024-06-12T16:55:39	27	31
71157	2024-06-12T17:05:39	25.2	33
71158	2024-06-12T17:15:39	24.1	35.5
71159	2024-06-12T17:25:39	23.6	37
71160	2024-06-12T17:35:39	22.8	37.5
71161	2024-06-12T17:45:39	22.5	38
71162	2024-06-12T17:55:39	21.7	39.5
71163	2024-06-12T18:05:39	21	41
71164	2024-06-12T18:15:39	20.3	42.5
71165	2024-06-12T18:25:39	20.1	43
71166	2024-06-12T18:35:39	19.7	44
71167	2024-06-12T18:45:39	19.7	45
71168	2024-06-12T18:55:39	19.1	45.5
71169	2024-06-12T19:05:39	19	46
71170	2024-06-12T19:15:39	18.7	47.5
71171	2024-06-12T19:25:39	18.4	50.5
71172	2024-06-12T19:35:39	18.2	51.5
71173	2024-06-12T19:45:39	17.9	51
71174	2024-06-12T19:55:39	17.8	52.5
71175	2024-06-12T20:05:39	17.5	53.5
71176	2024-06-12T20:15:39	17.3	55
71177	2024-06-12T20:25:39	17.1	58
71178	2024-06-12T20:35:38	17	57.5
71179	2024-06-12T20:45:38	16.9	54.5
71180	2024-06-12T20:55:38	16.9	55
71181	2024-06-12T21:05:38	16.8	56.5
71182	2024-06-12T21:15:38	16.5	57.5
71183	2024-06-12T21:25:38	16.4	58.5
71184	2024-06-12T21:35:38	16.1	59.5
71185	2024-06-12T21:45:38	16	61
71186	2024-06-12T21:55:38	15.7	61
71187	2024-06-12T22:05:38	15.6	60.5
71188	2024-06-12T22:15:38	15.5	60
71189	2024-06-12T22:25:38	15.4	60.5
71190	2024-06-12T22:35:38	15.4	59
71191	2024-06-12T22:45:38	15.4	59.5
71192	2024-06-12T22:55:38	15	59.5
71193	2024-06-12T23:28:33	14.5	63.5
71194	2024-06-12T23:28:34	14.4	66.5
71195	2024-06-12T23:28:34	14.1	68
71196	2024-06-12T23:35:38	13.7	70.5
71197	2024-06-12T23:45:38	13.5	71.5
71198	2024-06-12T23:55:38	13.4	72.5
71199	2024-06-13T00:05:38	13.2	72.5
71200	2024-06-13T00:15:38	13	73
71201	2024-06-13T00:25:38	13.3	72
71202	2024-06-13T00:35:38	13.1	71.5
71203	2024-06-13T00:45:38	12.8	72.5
71204	2024-06-13T00:55:38	12.6	75
71205	2024-06-13T01:05:38	12.4	76.5
71206	2024-06-13T01:15:38	12.1	76.5
71207	2024-06-13T01:25:38	11.7	77
71208	2024-06-13T01:35:38	11.5	77.5
71209	2024-06-13T01:45:38	11.5	77.5
71210	2024-06-13T01:55:38	11.3	77
71211	2024-06-13T02:05:38	11.2	78.5
71212	2024-06-13T02:15:38	10.9	79.5
71213	2024-06-13T02:25:38	10.8	79
71214	2024-06-13T02:35:38	10.5	80
71215	2024-06-13T02:45:38	10.4	81.5
71216	2024-06-13T02:55:38	10.2	81.5
71217	2024-06-13T03:05:38	10.2	82
71218	2024-06-13T03:15:38	10.2	81
71219	2024-06-13T03:25:38	10.2	81.5
71220	2024-06-13T03:35:38	10.2	81.5
71221	2024-06-13T03:45:38	10.3	81.5
71222	2024-06-13T03:55:38	10.3	81
71223	2024-06-13T04:05:38	10.3	81
71224	2024-06-13T04:15:38	10.1	82.5
71225	2024-06-13T04:25:38	10	83
71226	2024-06-13T04:35:38	10.2	82.5
71227	2024-06-13T04:45:38	10.5	82.5
71228	2024-06-13T04:55:38	10.7	82
71229	2024-06-13T05:05:38	11	81
71230	2024-06-13T05:15:38	10.8	85.5
71231	2024-06-13T05:25:38	10.7	85
71232	2024-06-13T05:35:38	10.5	85.5
71233	2024-06-13T05:45:38	10.8	86.5
71234	2024-06-13T05:55:38	11.2	80
71235	2024-06-13T06:05:38	11.4	77.5
71236	2024-06-13T06:15:38	11.8	75.5
71237	2024-06-13T06:25:38	11.8	75
71238	2024-06-13T06:35:38	12.1	73.5
71239	2024-06-13T06:45:38	12.3	73
71240	2024-06-13T06:55:38	12.5	72
71241	2024-06-13T07:05:38	12.9	71.5
71242	2024-06-13T07:15:38	13.2	69.5
71243	2024-06-13T07:25:38	13.6	68.5
71244	2024-06-13T07:35:38	13.8	65
71245	2024-06-13T07:45:38	14.1	63.5
71246	2024-06-13T07:55:38	14.3	62.5
71247	2024-06-13T08:05:38	14.9	60.5
71248	2024-06-13T08:15:38	15	63
71249	2024-06-13T08:25:38	15.2	55.5
71250	2024-06-13T08:35:38	15.8	58
71251	2024-06-13T08:45:38	16.2	55.5
71252	2024-06-13T08:55:38	16.7	55
71253	2024-06-13T09:05:38	16.2	56.5
71254	2024-06-13T09:15:38	15.9	57.5
71255	2024-06-13T09:25:38	16.1	55
71256	2024-06-13T09:35:38	16.1	55.5
71257	2024-06-13T09:45:38	16.2	55
71258	2024-06-13T09:55:37	16.3	52
71259	2024-06-13T10:05:37	16.5	51.5
71260	2024-06-13T10:15:37	17.2	48.5
71261	2024-06-13T10:25:37	17.5	49
71262	2024-06-13T10:35:37	17.3	50
71263	2024-06-13T10:45:37	17.4	52
71264	2024-06-13T10:55:37	17.5	48
71265	2024-06-13T11:05:37	17.7	47.5
71266	2024-06-13T11:15:37	17.7	48
71267	2024-06-13T11:25:37	18.1	45.5
71268	2024-06-13T11:35:37	18.3	44.5
71269	2024-06-13T11:45:37	18.8	46
71270	2024-06-13T11:55:37	19.2	42
71271	2024-06-13T12:05:37	21.1	36.5
71272	2024-06-13T12:15:37	24.6	32.5
71273	2024-06-13T12:25:37	27.8	28.5
71274	2024-06-13T12:35:37	28.7	25
71275	2024-06-13T12:45:37	28.8	26
71276	2024-06-13T12:55:37	31.8	24.5
71277	2024-06-13T13:05:37	29.5	26
71278	2024-06-13T13:15:37	31.7	23.5
71279	2024-06-13T13:25:37	32.5	22.5
71280	2024-06-13T13:35:37	32.7	21.5
71281	2024-06-13T13:45:37	33.9	22
71282	2024-06-13T13:55:37	34.4	20
71283	2024-06-13T14:05:37	35.2	21.5
71284	2024-06-13T14:15:37	35.7	20.5
71285	2024-06-13T14:25:37	35.6	20
71286	2024-06-13T14:35:37	37.8	18.5
71287	2024-06-13T14:45:37	36.5	19
71288	2024-06-13T14:55:37	35.7	18
71289	2024-06-13T15:05:37	36.8	18.5
71290	2024-06-13T15:15:37	35.6	18
71291	2024-06-13T15:25:37	34.9	19.5
71292	2024-06-13T15:35:37	37.1	17.5
71293	2024-06-13T15:45:37	36.7	18.5
71294	2024-06-13T15:55:37	36.2	18.5
71295	2024-06-13T16:05:37	36.3	18.5
71296	2024-06-13T16:15:37	37	18.5
71297	2024-06-13T16:25:37	37.4	18
71298	2024-06-13T16:35:37	37.7	18.5
71299	2024-06-13T16:45:37	35.9	18.5
71300	2024-06-13T16:55:37	35.9	18.5
71301	2024-06-13T17:05:37	34.3	20
71302	2024-06-13T17:15:37	32.9	21.5
71303	2024-06-13T17:25:37	30.5	23
71304	2024-06-13T17:35:37	29.2	26.5
71305	2024-06-13T17:45:37	28.2	27
71306	2024-06-13T17:55:37	27.8	27.5
71307	2024-06-13T18:05:37	27	30
71308	2024-06-13T18:15:37	26.3	33
71309	2024-06-13T18:25:37	25.2	35.5
71310	2024-06-13T18:35:37	24.7	38.5
71311	2024-06-13T18:45:37	24	41
71312	2024-06-13T18:55:37	23.4	42
71313	2024-06-13T19:05:37	23	44.5
71314	2024-06-13T19:15:37	22.5	45
71315	2024-06-13T19:25:37	22	45
71316	2024-06-13T19:35:37	21.5	48.5
71317	2024-06-13T19:45:37	21	49.5
71318	2024-06-13T19:55:37	20.4	51.5
71319	2024-06-13T20:05:37	19.8	52
71320	2024-06-13T20:15:37	19.3	52.5
71321	2024-06-13T20:25:37	18.9	53
71322	2024-06-13T20:35:36	18.6	53.5
71323	2024-06-13T20:45:36	18.3	54
71324	2024-06-13T20:55:36	18.1	54.5
71325	2024-06-13T21:05:36	17.7	56.5
71326	2024-06-13T21:15:36	17.2	57
71327	2024-06-13T21:25:36	17.1	57
71328	2024-06-13T21:35:36	16.6	57.5
71329	2024-06-13T21:45:36	16.6	57.5
71330	2024-06-13T21:55:36	16.5	58.5
71331	2024-06-13T22:05:36	16.5	56.5
71332	2024-06-13T22:15:36	16.4	58
71333	2024-06-13T22:25:36	16.3	59.5
71334	2024-06-13T22:35:36	16.1	59.5
71335	2024-06-13T22:45:36	16.1	60
71336	2024-06-13T22:55:36	16	60
71337	2024-06-13T23:29:34	15.8	60
71338	2024-06-13T23:29:35	16.1	56
71339	2024-06-13T23:29:35	16.4	55.5
71340	2024-06-13T23:35:36	16.2	57.5
71341	2024-06-13T23:45:36	16.1	59.5
71342	2024-06-13T23:55:36	15.9	61
71343	2024-06-14T00:05:36	15.9	62.5
71344	2024-06-14T00:15:36	15.7	63
71345	2024-06-14T00:25:36	15.8	64.5
71346	2024-06-14T00:35:36	15.6	66.5
71347	2024-06-14T00:45:36	15.4	68
71348	2024-06-14T00:55:36	15.3	69.5
71349	2024-06-14T01:05:36	14.9	71.5
71350	2024-06-14T01:15:36	14.9	71
71351	2024-06-14T01:25:36	14.9	69
71352	2024-06-14T01:35:36	14.8	70
71353	2024-06-14T01:45:36	14.8	70.5
71354	2024-06-14T01:55:36	14.8	69.5
71355	2024-06-14T02:05:36	14.7	70
71356	2024-06-14T02:15:36	14.5	69.5
71357	2024-06-14T02:25:36	14.4	71
71358	2024-06-14T02:35:36	14.2	72.5
71359	2024-06-14T02:45:36	14.2	73
71360	2024-06-14T02:55:36	14.3	73
71361	2024-06-14T03:05:36	14.1	73.5
71362	2024-06-14T03:15:36	14.1	73
71363	2024-06-14T03:25:36	14.1	74
71364	2024-06-14T03:35:36	14.2	73
71365	2024-06-14T03:45:36	14.1	73
71366	2024-06-14T03:55:36	14.2	73.5
71367	2024-06-14T04:05:36	14.3	74
71368	2024-06-14T04:15:36	14.3	75
71369	2024-06-14T04:25:36	14.3	78.5
71370	2024-06-14T04:35:36	14.3	80
71371	2024-06-14T04:45:36	14.1	75.5
71372	2024-06-14T04:55:36	14	79.5
71373	2024-06-14T05:05:36	13.8	86
71374	2024-06-14T05:15:36	13.7	90
71375	2024-06-14T05:25:36	13.4	90.5
71376	2024-06-14T05:35:36	12.7	98
71377	2024-06-14T05:45:36	12.8	97
71378	2024-06-14T05:55:36	13	96
71379	2024-06-14T06:05:36	13.3	96.5
71380	2024-06-14T06:15:36	13.8	95.5
71381	2024-06-14T06:25:36	14.1	94
71382	2024-06-14T06:35:36	14.1	93
71383	2024-06-14T06:45:36	14.4	94
71384	2024-06-14T06:55:36	14.5	88.5
71385	2024-06-14T07:05:36	14.5	92.5
71386	2024-06-14T07:15:36	14.9	91
71387	2024-06-14T07:25:36	14.9	89
71388	2024-06-14T07:35:36	14.9	90
71389	2024-06-14T07:45:36	15	90.5
71390	2024-06-14T07:55:36	15	91
71391	2024-06-14T08:05:36	15.2	88
71392	2024-06-14T08:15:36	15.2	83.5
71393	2024-06-14T08:25:36	15.3	83
71394	2024-06-14T08:35:36	15.4	83
71395	2024-06-14T08:45:36	15.9	84.5
71396	2024-06-14T08:55:35	16.4	86
71397	2024-06-14T09:05:35	16.7	82
71398	2024-06-14T09:15:35	16.6	82
71399	2024-06-14T09:25:35	16.9	81
71400	2024-06-14T09:35:35	17.7	78
71401	2024-06-14T09:45:35	17.9	74.5
71402	2024-06-14T09:55:35	18.8	71.5
71403	2024-06-14T10:05:35	18.6	71
71404	2024-06-14T10:15:35	18.9	70
71405	2024-06-14T10:25:35	19.2	68.5
71406	2024-06-14T10:35:35	18.7	69.5
71407	2024-06-14T10:45:35	18.6	67.5
71408	2024-06-14T10:55:35	18.4	72
71409	2024-06-14T11:05:35	17.6	77
71410	2024-06-14T11:15:35	18.3	84
71411	2024-06-14T11:25:35	19	71.5
71412	2024-06-14T11:35:35	19.5	68
71413	2024-06-14T11:45:35	19.9	66.5
71414	2024-06-14T11:55:35	21.2	62
71415	2024-06-14T12:05:35	21.4	61.5
71416	2024-06-14T12:15:35	25.3	50
71417	2024-06-14T12:25:35	26.1	47.5
71418	2024-06-14T12:35:35	23.5	53.5
71419	2024-06-14T12:45:35	23	53.5
71420	2024-06-14T12:55:35	21.7	57
71421	2024-06-14T13:05:35	21	59.5
71422	2024-06-14T13:15:35	20.3	62.5
71423	2024-06-14T13:25:35	20.6	66.5
71424	2024-06-14T13:35:35	21.2	63
71425	2024-06-14T13:45:35	21.1	63
71426	2024-06-14T13:55:35	21	63.5
71427	2024-06-14T14:05:35	20.5	65
71428	2024-06-14T14:15:35	20.4	67
71429	2024-06-14T14:25:35	20.3	67
71430	2024-06-14T14:35:35	20.3	67.5
71431	2024-06-14T14:45:35	20.3	67.5
71432	2024-06-14T14:55:35	20.5	68.5
71433	2024-06-14T15:05:35	20.7	67
71434	2024-06-14T15:15:35	20.8	66.5
71435	2024-06-14T15:25:35	20.9	66
71436	2024-06-14T15:35:35	20.4	66.5
71437	2024-06-14T15:45:35	20.6	67
71438	2024-06-14T15:55:35	20.5	68
71439	2024-06-14T16:05:35	20.7	68
71440	2024-06-14T16:15:35	20.5	66
71441	2024-06-14T16:25:35	20.3	66
71442	2024-06-14T16:35:35	20.4	66.5
71443	2024-06-14T16:45:35	20	77
71444	2024-06-14T16:55:35	18.2	89.5
71445	2024-06-14T17:05:35	18.1	91.5
71446	2024-06-14T17:15:35	18.5	91.5
71447	2024-06-14T17:25:35	18.8	92
71448	2024-06-14T17:35:35	18.9	90.5
71449	2024-06-14T17:45:35	19.2	91.5
71450	2024-06-14T17:55:35	19.1	90
71451	2024-06-14T18:05:35	19.5	88.5
71452	2024-06-14T18:15:35	19.4	89.5
71453	2024-06-14T18:25:35	18.8	85.5
71454	2024-06-14T18:35:35	18.9	89.5
71455	2024-06-14T18:45:35	18.6	91
71456	2024-06-14T18:55:35	18.5	91
71457	2024-06-14T19:05:35	18.3	90
71458	2024-06-14T19:15:35	18.1	91
71459	2024-06-14T19:25:35	18.1	93
71460	2024-06-14T19:35:35	17.9	95
71461	2024-06-14T19:45:34	17.8	94.5
71462	2024-06-14T19:55:34	17.8	92.5
71463	2024-06-14T20:05:35	17.7	93.5
71464	2024-06-14T20:15:35	17.7	93.5
71465	2024-06-14T20:25:34	17.6	91
71466	2024-06-14T20:35:34	17.5	92
71467	2024-06-14T20:45:34	17.5	93
71468	2024-06-14T20:55:34	17.4	93
71469	2024-06-14T21:05:34	17.2	92
71470	2024-06-14T21:15:34	17.2	93.5
71471	2024-06-14T21:25:34	17	94
71472	2024-06-14T21:35:34	16.8	94
71473	2024-06-14T21:45:34	16.8	94.5
71474	2024-06-14T21:55:34	16.7	92.5
71475	2024-06-14T22:05:34	17.2	85.5
71476	2024-06-14T22:15:34	17.6	83
71477	2024-06-14T22:25:34	18	80.5
71478	2024-06-14T22:35:34	17.9	80
71479	2024-06-14T22:45:34	18.1	78.5
71480	2024-06-14T22:55:34	18.4	77.5
71481	2024-06-14T23:05:34	17.7	96.5
71482	2024-06-14T23:15:34	17.4	97.5
71483	2024-06-14T23:29:45	16.5	98
71484	2024-06-14T23:35:34	16.4	98.5
71485	2024-06-14T23:45:34	16.1	100
71486	2024-06-14T23:55:34	16.1	100
71487	2024-06-15T00:05:34	15.8	100
71488	2024-06-15T00:15:34	15.7	100
71489	2024-06-15T00:25:34	15.6	100
71490	2024-06-15T00:35:34	15.4	100
71491	2024-06-15T00:45:34	15.3	100
71492	2024-06-15T00:55:34	15.4	100
71493	2024-06-15T01:05:34	15.5	100
71494	2024-06-15T01:15:34	14.9	100
71495	2024-06-15T01:25:34	14.7	100
71496	2024-06-15T01:35:34	14.5	100
71497	2024-06-15T01:45:34	14.5	100
71498	2024-06-15T01:55:34	14.5	100
71499	2024-06-15T02:05:34	14.3	100
71500	2024-06-15T02:15:34	14.2	100
71501	2024-06-15T02:25:34	14.1	100
71502	2024-06-15T02:35:34	14	100
71503	2024-06-15T02:45:34	13.7	100
71504	2024-06-15T02:55:34	13.6	100
71505	2024-06-15T03:05:34	13.6	100
71506	2024-06-15T03:15:34	13.5	100
71507	2024-06-15T03:25:34	13.4	100
71508	2024-06-15T03:35:34	13.3	100
71509	2024-06-15T03:45:34	13.3	100
71510	2024-06-15T03:55:34	13.2	100
71511	2024-06-15T04:05:34	13.4	100
71512	2024-06-15T04:15:34	13.5	100
71513	2024-06-15T04:25:34	13.4	100
71514	2024-06-15T04:35:34	13.4	100
71515	2024-06-15T04:45:34	13.6	100
71516	2024-06-15T04:55:34	13.6	100
71517	2024-06-15T05:05:34	13.6	100
71518	2024-06-15T05:15:34	13.7	100
71519	2024-06-15T05:25:34	14	100
71520	2024-06-15T05:35:34	14.1	100
71521	2024-06-15T05:45:34	14.1	100
71522	2024-06-15T05:55:34	13.3	100
71523	2024-06-15T06:05:34	12.3	100
71524	2024-06-15T06:15:34	12.2	100
71525	2024-06-15T06:25:34	12.5	100
71526	2024-06-15T06:35:34	12.4	100
71527	2024-06-15T06:45:34	12.5	100
71528	2024-06-15T06:55:34	13.2	100
71529	2024-06-15T07:05:34	13.8	100
71530	2024-06-15T07:15:34	14.6	100
71531	2024-06-15T07:25:34	14.7	100
71532	2024-06-15T07:35:34	14.7	100
71533	2024-06-15T07:45:34	14.6	100
71534	2024-06-15T07:55:34	14.8	100
71535	2024-06-15T08:05:34	15.4	100
71536	2024-06-15T08:15:33	15.8	100
71537	2024-06-15T08:25:33	15.8	100
71538	2024-06-15T08:35:33	16.1	100
71539	2024-06-15T08:45:33	16.3	100
71540	2024-06-15T08:55:33	17	100
71541	2024-06-15T09:05:33	17.1	100
71542	2024-06-15T09:15:33	17.6	100
71543	2024-06-15T09:25:33	17.9	100
71544	2024-06-15T09:35:33	18.3	100
71545	2024-06-15T09:45:33	18.2	100
71546	2024-06-15T09:55:33	18.8	100
71547	2024-06-15T10:05:33	17.7	100
71548	2024-06-15T10:15:33	16	100
71549	2024-06-15T10:25:33	14.9	100
71550	2024-06-15T10:35:33	16.3	100
71551	2024-06-15T10:45:33	16.7	100
71552	2024-06-15T10:55:33	14.9	100
71553	2024-06-15T11:05:33	15.8	100
71554	2024-06-15T11:15:33	17	100
71555	2024-06-15T11:25:33	16.5	100
71556	2024-06-15T11:35:33	16.7	100
71557	2024-06-15T11:45:33	16.4	100
71558	2024-06-15T11:55:33	14.9	100
71559	2024-06-15T12:05:33	16.8	100
71560	2024-06-15T12:15:33	18.7	100
71561	2024-06-15T12:25:33	20	100
71562	2024-06-15T12:35:33	18.6	100
71563	2024-06-15T12:45:33	18.3	100
71564	2024-06-15T12:55:33	17.7	98.5
71565	2024-06-15T13:05:33	17.7	97.5
71566	2024-06-15T13:15:33	19.1	96.5
71567	2024-06-15T13:25:33	22.5	95.5
71568	2024-06-15T13:35:33	24.2	95.5
71569	2024-06-15T13:45:33	25.5	98.5
71570	2024-06-15T13:55:33	26.8	97.5
71571	2024-06-15T14:05:33	27.1	76.5
71572	2024-06-15T14:15:33	26.9	42
71573	2024-06-15T14:25:33	25.1	45
71574	2024-06-15T14:35:33	23.9	46
71575	2024-06-15T14:45:33	22	49.5
71576	2024-06-15T14:55:33	21.3	51.5
71577	2024-06-15T15:05:33	21.1	53
71578	2024-06-15T15:15:33	23.7	48
71579	2024-06-15T15:25:33	26.2	39.5
71580	2024-06-15T15:35:33	27.5	37
71581	2024-06-15T15:45:33	29	35.5
71582	2024-06-15T15:55:33	29.1	34
71583	2024-06-15T16:05:33	29.3	33
71584	2024-06-15T16:15:33	28.6	34
71585	2024-06-15T16:25:33	25.6	37.5
71586	2024-06-15T16:35:33	23.5	44.5
71587	2024-06-15T16:45:33	22.8	45
71588	2024-06-15T16:55:33	23	47
71589	2024-06-15T17:05:33	22.5	46.5
71590	2024-06-15T17:15:33	22.1	48.5
71591	2024-06-15T17:25:33	26.8	40
71592	2024-06-15T17:35:33	27.7	37
71593	2024-06-15T17:45:33	27.2	37
71594	2024-06-15T17:55:33	25.1	41
71595	2024-06-15T18:05:33	22	47.5
71596	2024-06-15T18:15:33	23.1	45.5
71597	2024-06-15T18:25:33	22.3	47.5
71598	2024-06-15T18:35:33	20.7	51.5
71599	2024-06-15T18:45:33	20	59.5
71600	2024-06-15T18:55:32	19.6	60
71601	2024-06-15T19:05:32	19.5	63.5
71602	2024-06-15T19:15:32	18.9	69.5
71603	2024-06-15T19:25:32	18.4	71.5
71604	2024-06-15T19:35:32	17.9	73.5
71605	2024-06-15T19:45:32	17.4	76
71606	2024-06-15T19:55:32	17.1	74.5
71607	2024-06-15T20:05:32	16.8	76
71608	2024-06-15T20:15:32	16.6	76
71609	2024-06-15T20:25:32	16.5	74
71610	2024-06-15T20:35:32	16.2	75.5
71611	2024-06-15T20:45:32	15.9	78.5
71612	2024-06-15T20:55:32	15.8	79
71613	2024-06-15T21:05:32	15.6	79.5
71614	2024-06-15T21:15:32	15.5	79
71615	2024-06-15T21:25:32	15.4	79.5
71616	2024-06-15T21:35:32	15	81
71617	2024-06-15T21:45:32	14.7	81
71618	2024-06-15T21:55:32	14.7	83
71619	2024-06-15T22:05:32	14.8	81
71620	2024-06-15T22:15:32	15.1	73.5
71621	2024-06-15T22:25:32	15.6	70
71622	2024-06-15T22:35:32	15.7	69.5
71623	2024-06-15T22:45:32	15.6	69.5
71624	2024-06-15T22:55:32	15.8	68.5
71625	2024-06-15T23:05:32	15.9	68
71626	2024-06-15T23:15:32	16.1	66.5
71627	2024-06-15T23:25:32	16	67
71628	2024-06-15T23:35:32	16	67.5
71629	2024-06-15T23:45:32	15.8	76.5
71630	2024-06-15T23:55:32	16	69
71631	2024-06-16T00:05:32	16	69
71632	2024-06-16T00:15:32	15.9	69.5
71633	2024-06-16T00:25:32	15.9	71
71634	2024-06-16T00:35:32	15.8	71
71635	2024-06-16T00:45:32	15.9	70.5
71636	2024-06-16T00:55:32	16	69.5
71637	2024-06-16T01:05:32	16	69.5
71638	2024-06-16T01:15:32	15.8	70.5
71639	2024-06-16T01:25:32	15.6	71
71640	2024-06-16T01:35:32	15.5	71.5
71641	2024-06-16T01:45:32	15.5	71.5
71642	2024-06-16T01:55:32	15.4	72
71643	2024-06-16T02:15:32	15.3	74
71644	2024-06-16T02:25:32	15.1	75.5
71645	2024-06-16T02:35:32	15.1	75.5
71646	2024-06-16T02:45:32	15.1	78
71647	2024-06-16T02:55:32	15	80
71648	2024-06-16T03:05:32	13.8	95.5
71649	2024-06-16T03:15:32	13.7	97.5
71650	2024-06-16T03:25:32	13.6	97.5
71651	2024-06-16T03:35:32	13.7	97.5
71652	2024-06-16T03:45:32	13.6	96.5
71653	2024-06-16T03:55:32	13.7	98.5
71654	2024-06-16T04:05:32	13.7	99
71655	2024-06-16T04:15:32	13.8	99
71656	2024-06-16T04:25:32	13.4	98.5
71657	2024-06-16T04:35:32	13.4	98.5
71658	2024-06-16T04:45:32	13.4	97
71659	2024-06-16T04:55:32	13.8	96.5
71660	2024-06-16T05:05:32	14	94.5
71661	2024-06-16T05:15:32	14	94.5
71662	2024-06-16T05:25:32	14.2	94
71663	2024-06-16T05:35:32	14.5	92.5
71664	2024-06-16T05:45:32	14.4	91.5
71665	2024-06-16T05:55:32	14.6	90
71666	2024-06-16T06:05:32	14.9	89
71667	2024-06-16T06:15:32	15.7	83.5
71668	2024-06-16T06:25:32	15.7	84.5
71669	2024-06-16T06:35:32	15.7	82.5
71670	2024-06-16T06:45:32	15.5	81
71671	2024-06-16T06:55:32	15.5	82.5
71672	2024-06-16T07:05:32	15.7	82
71673	2024-06-16T07:15:31	16.2	78
71674	2024-06-16T07:25:31	16.7	76
71675	2024-06-16T07:35:31	17	75.5
71676	2024-06-16T07:45:31	16.9	73.5
71677	2024-06-16T07:55:31	17.2	74
71678	2024-06-16T08:05:31	16.8	75.5
71679	2024-06-16T08:15:31	16.7	77
71680	2024-06-16T08:25:31	16.9	76.5
71681	2024-06-16T08:35:31	17.3	76.5
71682	2024-06-16T08:45:31	17.1	76
71683	2024-06-16T08:55:31	17.4	74.5
71684	2024-06-16T09:05:31	18	69.5
71685	2024-06-16T09:15:31	17.9	71
71686	2024-06-16T09:25:31	18	69
71687	2024-06-16T09:35:31	18.3	66
71688	2024-06-16T09:45:31	18.5	64
71689	2024-06-16T09:55:31	19.4	60.5
71690	2024-06-16T10:05:31	19.7	58.5
71691	2024-06-16T10:15:31	20.5	54
71692	2024-06-16T10:25:31	20.9	52.5
71693	2024-06-16T10:35:31	20.8	52
71694	2024-06-16T10:45:31	21.4	51
71695	2024-06-16T10:55:31	21.6	47
71696	2024-06-16T11:05:31	21.7	50.5
71697	2024-06-16T11:15:31	22.1	48
71698	2024-06-16T11:25:31	21.8	50.5
71699	2024-06-16T11:35:31	22.2	48.5
71700	2024-06-16T11:45:31	22.6	46
71701	2024-06-16T11:55:31	23.3	45
71702	2024-06-16T12:05:31	24.4	43
71703	2024-06-16T12:15:31	24.8	41.5
71704	2024-06-16T12:25:31	27.4	37
71705	2024-06-16T12:35:31	29.8	34
71706	2024-06-16T12:45:31	29.5	32.5
71707	2024-06-16T12:55:31	29.9	33
71708	2024-06-16T13:05:31	30.1	33
71709	2024-06-16T13:15:31	28.5	33
71710	2024-06-16T13:25:31	31.7	30
71711	2024-06-16T13:35:31	31.5	29.5
71712	2024-06-16T13:45:31	32.2	29
71713	2024-06-16T13:55:31	32.5	28
71714	2024-06-16T14:05:31	32.2	30
71715	2024-06-16T14:15:31	31.9	28.5
71716	2024-06-16T14:25:31	30.4	31
71717	2024-06-16T14:35:31	27.6	36
71718	2024-06-16T14:45:31	27.9	35
71719	2024-06-16T14:55:31	28.3	34.5
71720	2024-06-16T15:05:31	28.7	33.5
71721	2024-06-16T15:15:31	27.5	35
71722	2024-06-16T15:25:31	27.3	37
71723	2024-06-16T15:35:31	28.2	35.5
71724	2024-06-16T15:45:31	27.6	36.5
71725	2024-06-16T15:55:31	26.1	40
71726	2024-06-16T16:05:31	24.7	43
71727	2024-06-16T16:15:31	24	44.5
71728	2024-06-16T16:25:31	23.7	45
71729	2024-06-16T16:35:31	23.3	46
71730	2024-06-16T16:45:31	22.8	48
71731	2024-06-16T16:55:31	22.5	49.5
71732	2024-06-16T17:05:31	22.2	50.5
71733	2024-06-16T17:15:31	22.1	51
71734	2024-06-16T17:25:31	22.2	51.5
71735	2024-06-16T17:35:31	22	54.5
71736	2024-06-16T17:45:30	21.8	56
71737	2024-06-16T17:55:30	21.4	56.5
71738	2024-06-16T18:05:30	21.6	57
71739	2024-06-16T18:15:30	21.8	59.5
71740	2024-06-16T18:25:30	21.7	58.5
71741	2024-06-16T18:35:30	21.4	59.5
71742	2024-06-16T18:45:30	21.2	61.5
71743	2024-06-16T18:55:30	21	65
71744	2024-06-16T19:05:30	20.4	67
71745	2024-06-16T19:15:30	20.4	66
71746	2024-06-16T19:25:30	19.9	64
71747	2024-06-16T19:35:30	19.9	64
71748	2024-06-16T19:45:31	19.4	67.5
71749	2024-06-16T19:55:30	18.9	75.5
71750	2024-06-16T20:05:30	17.9	81
71751	2024-06-16T20:15:30	17.4	84.5
71752	2024-06-16T20:25:30	16.9	89.5
71753	2024-06-16T20:35:30	16.9	86.5
71754	2024-06-16T20:45:30	16.9	86
71755	2024-06-16T20:55:30	17.1	83.5
71756	2024-06-16T21:05:30	17.1	84
71757	2024-06-16T21:15:30	17	85
71758	2024-06-16T21:25:30	17.1	83
71759	2024-06-16T21:35:30	17	89
71760	2024-06-16T21:45:30	16.8	92.5
71761	2024-06-16T21:55:30	16.3	90.5
71762	2024-06-16T22:05:30	16.3	94
71763	2024-06-16T22:15:48	16.4	93.5
71764	2024-06-16T22:25:30	16.5	91
71765	2024-06-16T22:35:30	16.4	92.5
71766	2024-06-16T22:45:30	16.5	92
71767	2024-06-16T22:55:30	16.6	92.5
71768	2024-06-16T23:29:34	16.9	93.5
71769	2024-06-16T23:29:34	16.9	92.5
71770	2024-06-16T23:29:34	16.7	93.5
71771	2024-06-16T23:35:30	17	92.5
71772	2024-06-16T23:45:30	16.9	93.5
71773	2024-06-16T23:55:30	17	93.5
71774	2024-06-17T00:05:30	16.9	93.5
71775	2024-06-17T00:15:30	16.8	94
71776	2024-06-17T00:25:30	16.9	93
71777	2024-06-17T00:35:30	16.9	92.5
71778	2024-06-17T00:45:30	16.8	92.5
71779	2024-06-17T00:55:30	16.9	93
71780	2024-06-17T01:05:30	16.7	93
71781	2024-06-17T01:15:30	16.6	94
71782	2024-06-17T01:25:30	16.6	94
71783	2024-06-17T01:35:30	16.5	94.5
71784	2024-06-17T01:45:30	16.4	99.5
71785	2024-06-17T01:55:30	16.3	100
71786	2024-06-17T02:05:30	16.3	100
71787	2024-06-17T02:15:30	16.2	100
71788	2024-06-17T02:25:30	16.2	100
71789	2024-06-17T02:35:30	16.1	100
71790	2024-06-17T02:45:30	16.1	100
71791	2024-06-17T02:55:30	16	100
71792	2024-06-17T03:05:30	16	100
71793	2024-06-17T03:15:30	15.9	100
71794	2024-06-17T03:25:30	16	100
71795	2024-06-17T03:35:30	16	100
71796	2024-06-17T03:45:30	16	100
71797	2024-06-17T03:55:30	15.9	99
71798	2024-06-17T04:05:30	16	99
71799	2024-06-17T04:15:30	16	99
71800	2024-06-17T04:25:30	16	100
71801	2024-06-17T04:35:30	16	100
71802	2024-06-17T04:45:30	16.2	100
71803	2024-06-17T04:55:30	16.2	100
71804	2024-06-17T05:05:30	16.1	100
71805	2024-06-17T05:15:30	16.2	100
71806	2024-06-17T05:25:29	16.2	100
71807	2024-06-17T05:35:29	16.2	100
71808	2024-06-17T05:45:29	16.1	100
71809	2024-06-17T05:55:29	16.1	100
71810	2024-06-17T06:05:29	16.1	100
71811	2024-06-17T06:15:29	16.2	100
71812	2024-06-17T06:25:29	16.3	100
71813	2024-06-17T06:35:29	16.3	100
71814	2024-06-17T06:45:29	16.5	100
71815	2024-06-17T06:55:29	16.5	100
71816	2024-06-17T07:05:29	17.1	100
71817	2024-06-17T07:15:29	17.2	100
71818	2024-06-17T07:25:29	17.4	100
71819	2024-06-17T07:35:29	17.5	98.5
71820	2024-06-17T07:45:29	18.2	97.5
71821	2024-06-17T07:55:29	18.4	94.5
71822	2024-06-17T08:05:29	18.4	92.5
71823	2024-06-17T08:15:29	18.9	91
71824	2024-06-17T08:25:29	19.1	89
71825	2024-06-17T08:35:29	19.8	87.5
71826	2024-06-17T08:45:29	20.3	81
71827	2024-06-17T08:55:29	20.5	79
71828	2024-06-17T09:05:29	20.4	82.5
71829	2024-06-17T09:15:29	20.7	79
71830	2024-06-17T09:25:29	20.7	78.5
71831	2024-06-17T09:35:29	20.8	77.5
71832	2024-06-17T09:45:29	21.1	77.5
71833	2024-06-17T09:55:29	21.8	75
71834	2024-06-17T10:05:29	21.9	74
71835	2024-06-17T10:15:29	22.3	74
71836	2024-06-17T10:25:29	22.8	72.5
71837	2024-06-17T10:35:29	23.4	70.5
71838	2024-06-17T10:45:29	23.2	66.5
71839	2024-06-17T10:55:29	23.1	69.5
71840	2024-06-17T11:05:29	22.6	70
71841	2024-06-17T11:15:29	22.5	70
71842	2024-06-17T11:25:29	22.7	65.5
71843	2024-06-17T11:35:29	23	65
71844	2024-06-17T11:45:29	23.7	63
71845	2024-06-17T11:55:29	24.1	60.5
71846	2024-06-17T12:05:29	25	59.5
71847	2024-06-17T12:25:29	24.7	57.5
71848	2024-06-17T12:35:29	24.1	60.5
71849	2024-06-17T12:45:29	23.6	61.5
71850	2024-06-17T12:55:29	23.3	62
71851	2024-06-17T13:05:29	23.1	65
71852	2024-06-17T13:15:29	23.2	66.5
71853	2024-06-17T13:25:29	22.9	68.5
71854	2024-06-17T13:35:29	22.8	67.5
71855	2024-06-17T13:45:29	22.9	68.5
71856	2024-06-17T13:55:29	23	68
71857	2024-06-17T14:25:29	23.4	66.5
71858	2024-06-17T14:35:29	23.5	66.5
71859	2024-06-17T14:45:29	23.6	65.5
71860	2024-06-17T14:55:29	24.1	65.5
71861	2024-06-17T15:05:29	23.9	67.5
71862	2024-06-17T15:15:29	23.7	65.5
71863	2024-06-17T15:25:29	23.5	65.5
71864	2024-06-17T15:35:29	23.8	63.5
71865	2024-06-17T15:45:29	23.8	63.5
71866	2024-06-17T15:55:28	24	61.5
71867	2024-06-17T16:05:28	24.2	60.5
71868	2024-06-17T16:15:28	23.7	61.5
71869	2024-06-17T16:25:28	23.4	62.5
71870	2024-06-17T16:35:28	23.2	62.5
71871	2024-06-17T16:45:28	22.8	64.5
71872	2024-06-17T16:55:28	22.6	66
71873	2024-06-17T17:05:28	22.7	66
71874	2024-06-17T17:15:28	22.7	66.5
71875	2024-06-17T17:25:28	23.3	65
71876	2024-06-17T17:35:28	24.1	63
71877	2024-06-17T17:45:28	25.5	57.5
71878	2024-06-17T17:55:28	28.2	51
71879	2024-06-17T18:05:28	28.1	51
71880	2024-06-17T18:15:28	27.8	51.5
71881	2024-06-17T18:25:28	26.8	53.5
71882	2024-06-17T18:35:28	27	52.5
71883	2024-06-17T18:45:28	24	61.5
71884	2024-06-17T18:55:28	25.6	57.5
71885	2024-06-17T19:05:28	24.3	61
71886	2024-06-17T19:15:28	22.7	69
71887	2024-06-17T19:25:28	21.9	73
71888	2024-06-17T19:35:28	21.2	76
71889	2024-06-17T19:45:28	20.8	77
71890	2024-06-17T19:55:28	20.2	77
71891	2024-06-17T20:05:28	19.9	78.5
71892	2024-06-17T20:15:28	19.6	82
71893	2024-06-17T20:25:28	19.3	82.5
71894	2024-06-17T20:35:28	19	83
71895	2024-06-17T20:45:28	18.9	83.5
71896	2024-06-17T20:55:28	18.5	83.5
71897	2024-06-17T21:05:28	18.4	83.5
71898	2024-06-17T21:15:28	18.2	84.5
71899	2024-06-17T21:25:28	17.8	84.5
71900	2024-06-17T21:35:28	17.6	84.5
71901	2024-06-17T21:45:28	17.4	85.5
71902	2024-06-17T21:55:28	17.3	86.5
71903	2024-06-17T22:05:28	17.2	86.5
71904	2024-06-17T22:15:28	17	86.5
71905	2024-06-17T22:25:28	16.8	88
71906	2024-06-17T22:35:28	16.7	88
71907	2024-06-17T22:45:28	16.5	88.5
71908	2024-06-17T22:55:28	16.6	88.5
71909	2024-06-17T23:29:56	16.4	89
71910	2024-06-17T23:29:56	16.2	89
71911	2024-06-17T23:29:57	16.3	89.5
71912	2024-06-17T23:35:28	16.1	89.5
71913	2024-06-17T23:45:28	16	90
71914	2024-06-17T23:55:28	15.9	90.5
71915	2024-06-18T00:05:28	15.7	90.5
71916	2024-06-18T00:15:28	15.6	91
71917	2024-06-18T00:25:28	15.6	91
71918	2024-06-18T00:35:28	15.5	91.5
71919	2024-06-18T00:45:28	15.4	91
71920	2024-06-18T00:55:28	15.3	91.5
71921	2024-06-18T01:05:28	15.3	91.5
71922	2024-06-18T01:15:28	15.2	91
71923	2024-06-18T01:25:28	15.3	90.5
71924	2024-06-18T01:35:28	15.3	91
71925	2024-06-18T01:45:28	15.4	91
71926	2024-06-18T01:55:28	15.4	89.5
71927	2024-06-18T02:05:28	15.4	91
71928	2024-06-18T02:15:28	15.2	92
71929	2024-06-18T02:25:28	15.4	92
71930	2024-06-18T02:35:28	15.3	94
71931	2024-06-18T02:45:28	15	95.5
71932	2024-06-18T02:55:28	14.8	95.5
71933	2024-06-18T03:05:27	14.6	95
71934	2024-06-18T03:15:27	14.4	95
71935	2024-06-18T03:25:27	14.4	95
71936	2024-06-18T03:35:27	14.3	95
71937	2024-06-18T03:45:27	14.2	95.5
71938	2024-06-18T03:55:27	14.3	94.5
71939	2024-06-18T04:05:27	14.6	93.5
71940	2024-06-18T04:15:27	14.9	92.5
71941	2024-06-18T04:25:27	15.2	92
71942	2024-06-18T04:35:27	15.4	91.5
71943	2024-06-18T04:45:28	15	96.5
71944	2024-06-18T04:55:27	15.1	99
71945	2024-06-18T05:05:27	15.2	99
71946	2024-06-18T05:15:27	15.1	100
71947	2024-06-18T05:25:27	15.1	100
71948	2024-06-18T05:35:27	15.2	100
71949	2024-06-18T05:45:27	15.3	100
71950	2024-06-18T05:55:27	15.5	100
71951	2024-06-18T06:05:27	15.8	100
71952	2024-06-18T06:15:27	15.9	99.5
71953	2024-06-18T06:25:27	16.1	98
71954	2024-06-18T06:35:27	16.5	96.5
71955	2024-06-18T06:45:27	16.8	94.5
71956	2024-06-18T06:55:27	17.3	95
71957	2024-06-18T07:05:27	17.9	93
71958	2024-06-18T07:15:27	18.2	92.5
71959	2024-06-18T07:25:27	18.4	90
71960	2024-06-18T07:35:27	18.4	91
71961	2024-06-18T07:45:27	18.5	91.5
71962	2024-06-18T07:55:27	18.5	90.5
71963	2024-06-18T08:05:27	18.7	90
71964	2024-06-18T08:15:27	19	89
71965	2024-06-18T08:25:27	19.1	89
71966	2024-06-18T08:35:27	19.5	87.5
71967	2024-06-18T08:45:27	20.6	85
71968	2024-06-18T08:55:27	22.1	79
71969	2024-06-18T09:05:27	23.2	76
71970	2024-06-18T09:15:27	23.3	74.5
71971	2024-06-18T09:25:27	22.9	76
71972	2024-06-18T09:35:27	23.3	72.5
71973	2024-06-18T09:45:27	23.6	73
71974	2024-06-18T09:55:27	23.4	73.5
71975	2024-06-18T10:05:27	23.6	73.5
71976	2024-06-18T10:15:27	23.6	71
71977	2024-06-18T10:25:27	24.1	71
71978	2024-06-18T10:35:27	24.4	72.5
71979	2024-06-18T10:45:27	25	69
71980	2024-06-18T10:55:27	25.8	69.5
71981	2024-06-18T11:05:27	26.2	65.5
71982	2024-06-18T11:15:27	26.7	65.5
71983	2024-06-18T11:25:27	27.4	65.5
71984	2024-06-18T11:35:27	28	61.5
71985	2024-06-18T11:45:27	28.3	58.5
71986	2024-06-18T11:55:27	29	57.5
71987	2024-06-18T12:05:27	29.8	54
71988	2024-06-18T12:15:27	31.5	51
71989	2024-06-18T12:25:27	31.6	50.5
71990	2024-06-18T12:35:27	32.3	49.5
71991	2024-06-18T12:45:27	32.7	48
71992	2024-06-18T12:55:27	33.8	44
71993	2024-06-18T13:05:27	35	41
71994	2024-06-18T13:15:27	37.5	38.5
71995	2024-06-18T13:25:27	38.4	36.5
71996	2024-06-18T13:35:27	37.4	36.5
71997	2024-06-18T13:45:27	39.6	35.5
71998	2024-06-18T13:55:27	39.5	32.5
71999	2024-06-18T14:05:27	39.6	32
72000	2024-06-18T14:15:27	39.7	31.5
72001	2024-06-18T14:25:26	39.1	33
72002	2024-06-18T14:35:27	41.1	30
72003	2024-06-18T14:45:26	40.9	30.5
72004	2024-06-18T14:55:26	41.1	29.5
72005	2024-06-18T15:05:26	40.2	30
72006	2024-06-18T15:15:26	38.4	32.5
72007	2024-06-18T15:25:26	39.1	31
72008	2024-06-18T15:35:26	36.8	35
72009	2024-06-18T15:45:26	35.3	37.5
72010	2024-06-18T15:55:26	33.8	41.5
72011	2024-06-18T16:05:26	34.1	43
72012	2024-06-18T16:15:26	32.3	45.5
72013	2024-06-18T16:25:26	31.6	49
72014	2024-06-18T16:35:26	31.1	49
72015	2024-06-18T16:45:26	31.1	49.5
72016	2024-06-18T16:55:26	31.5	48.5
72017	2024-06-18T17:05:26	36.1	41.5
72018	2024-06-18T17:15:26	36.4	40.5
72019	2024-06-18T17:25:26	33.6	44.5
72020	2024-06-18T17:35:26	31.5	46
72021	2024-06-18T17:45:26	30.6	48
72022	2024-06-18T17:55:26	30.1	51
72023	2024-06-18T18:05:26	29.2	54
72024	2024-06-18T18:15:26	28.9	58.5
72025	2024-06-18T18:25:26	28.7	58.5
72026	2024-06-18T18:35:26	28.3	61.5
72027	2024-06-18T18:45:26	28	65.5
72028	2024-06-18T18:55:26	27.4	65.5
72029	2024-06-18T19:05:26	27.1	66
72030	2024-06-18T19:15:26	26.8	67
72031	2024-06-18T19:25:26	26.5	65.5
72032	2024-06-18T19:35:26	26.2	65.5
72033	2024-06-18T19:45:26	26	65.5
72034	2024-06-18T19:55:26	25.8	67
72035	2024-06-18T20:05:26	25.6	67
72036	2024-06-18T20:15:26	25.7	69
72037	2024-06-18T20:25:26	25.4	69.5
72038	2024-06-18T20:35:26	24.9	72
72039	2024-06-18T20:45:26	24.8	71.5
72040	2024-06-18T20:55:26	24.4	73
72041	2024-06-18T21:05:26	24	74.5
72042	2024-06-18T21:15:26	23.8	75.5
72043	2024-06-18T21:25:26	23.6	75.5
72044	2024-06-18T21:35:26	23.4	76.5
72045	2024-06-18T21:45:26	23.2	77
72046	2024-06-18T21:55:26	23.3	77.5
72047	2024-06-18T22:05:26	22.9	79
72048	2024-06-18T22:15:26	22.6	80
72049	2024-06-18T22:25:26	22.3	80.5
72050	2024-06-18T22:35:26	22.2	80.5
72051	2024-06-18T22:45:26	22.1	80.5
72052	2024-06-18T22:55:26	21.9	79.5
72053	2024-06-18T23:32:47	22.1	78.5
72054	2024-06-18T23:32:47	22.1	83.5
72055	2024-06-18T23:32:47	22	80.5
72056	2024-06-18T23:35:26	21.5	90
72057	2024-06-18T23:45:26	21.3	86.5
72058	2024-06-18T23:55:26	21.4	85
72059	2024-06-19T00:05:26	21.4	86.5
72060	2024-06-19T00:15:26	21.3	88
72061	2024-06-19T00:25:26	21.4	86.5
72062	2024-06-19T00:35:26	21.3	86
72063	2024-06-19T00:45:26	21.3	86
72064	2024-06-19T00:55:25	21.1	87
72065	2024-06-19T01:05:26	21.1	86.5
72066	2024-06-19T01:15:26	21	86
72067	2024-06-19T01:25:25	21.1	85
72068	2024-06-19T01:35:25	21.1	87
72069	2024-06-19T01:45:25	20.8	88.5
72070	2024-06-19T01:55:25	20.8	89
72071	2024-06-19T02:05:25	20.8	89.5
72072	2024-06-19T02:15:25	20.8	88.5
72073	2024-06-19T02:25:25	20.8	83
72074	2024-06-19T02:35:25	20.6	84
72075	2024-06-19T02:45:25	20.7	83.5
72076	2024-06-19T02:55:25	20.7	85
72077	2024-06-19T03:05:25	20.5	85.5
72078	2024-06-19T03:15:25	20.5	87.5
72079	2024-06-19T03:25:25	20.4	86.5
72080	2024-06-19T03:35:25	20.4	87
72081	2024-06-19T03:45:25	20.4	91.5
72082	2024-06-19T03:55:25	20.2	92
72083	2024-06-19T04:05:25	20.3	88.5
72084	2024-06-19T04:15:25	20.3	87
72085	2024-06-19T04:25:25	20.1	89.5
72086	2024-06-19T04:35:25	20.2	90
72087	2024-06-19T04:45:25	20.3	89
72088	2024-06-19T04:55:25	20.2	89.5
72089	2024-06-19T05:05:25	20.4	90
72090	2024-06-19T05:15:25	20.5	91
72091	2024-06-19T05:25:25	20.4	90
72092	2024-06-19T05:35:25	20.6	90.5
72093	2024-06-19T05:45:25	20.5	90
72094	2024-06-19T05:55:25	20.7	90.5
72095	2024-06-19T06:05:25	21.1	90
72096	2024-06-19T06:15:25	21.1	88.5
72097	2024-06-19T06:25:25	21.1	85.5
72098	2024-06-19T06:35:25	21.4	87.5
72099	2024-06-19T06:45:25	21.5	86.5
72100	2024-06-19T06:55:25	21.4	86
72101	2024-06-19T07:05:25	21.3	86
72102	2024-06-19T07:15:25	21.3	87
72103	2024-06-19T07:25:25	21.6	86.5
72104	2024-06-19T07:35:25	21.2	86.5
72105	2024-06-19T07:45:25	21.1	86.5
72106	2024-06-19T07:55:25	21.6	85.5
72107	2024-06-19T08:05:25	22	84.5
72108	2024-06-19T08:15:25	22.8	81
72109	2024-06-19T08:25:25	23.1	79.5
72110	2024-06-19T08:35:25	23.5	76.5
72111	2024-06-19T08:45:25	23.7	72.5
72112	2024-06-19T09:05:25	23.1	74.5
72113	2024-06-19T09:15:25	23.2	77
72114	2024-06-19T09:25:25	23.8	74.5
72115	2024-06-19T09:35:25	23.7	75
72116	2024-06-19T09:45:25	24.2	70.5
72117	2024-06-19T09:55:25	24.5	69.5
72118	2024-06-19T10:05:25	24.6	70.5
72119	2024-06-19T10:15:25	24.8	69.5
72120	2024-06-19T10:25:25	24.9	65
72121	2024-06-19T10:35:25	25.1	65
72122	2024-06-19T10:45:25	25.1	66
72123	2024-06-19T10:55:25	24.9	67
72124	2024-06-19T11:05:24	25.1	67
72125	2024-06-19T11:15:24	25.8	63
72126	2024-06-19T11:25:25	26.4	60
72127	2024-06-19T11:35:24	27.5	59.5
72128	2024-06-19T11:45:24	27.4	60.5
72129	2024-06-19T11:55:24	27.4	62
72130	2024-06-19T12:05:24	28.3	60.5
72131	2024-06-19T12:15:24	29.1	55.5
72132	2024-06-19T12:25:24	30.3	52.5
72133	2024-06-19T12:35:24	28.8	55.5
72134	2024-06-19T12:45:24	29	56
72135	2024-06-19T12:55:24	30.5	50.5
72136	2024-06-19T13:05:24	30.3	51
72137	2024-06-19T13:15:24	32	47
72138	2024-06-19T13:25:24	33.4	44.5
72139	2024-06-19T13:35:24	31.1	49
72140	2024-06-19T13:45:24	33.3	45.5
72141	2024-06-19T13:55:24	36.8	39
72142	2024-06-19T14:05:24	33.3	44.5
72143	2024-06-19T14:15:24	30.7	49.5
72144	2024-06-19T14:25:24	34.8	42.5
72145	2024-06-19T14:35:24	35.7	39.5
72146	2024-06-19T14:45:24	33.3	43
72147	2024-06-19T14:55:24	31.6	47
72148	2024-06-19T15:05:24	34.1	41.5
72149	2024-06-19T15:15:24	34.8	41
72150	2024-06-19T15:25:24	35.3	39.5
72151	2024-06-19T15:35:24	30.8	48.5
72152	2024-06-19T15:45:24	29	53
72153	2024-06-19T15:55:24	27.8	55
72154	2024-06-19T16:05:24	26.7	57.5
72155	2024-06-19T16:15:24	27.6	55
72156	2024-06-19T16:25:24	28.8	52
72157	2024-06-19T16:35:24	28.4	53
72158	2024-06-19T16:45:24	26.5	56.5
72159	2024-06-19T16:55:24	25.7	58
72160	2024-06-19T17:05:24	25.4	59
72161	2024-06-19T17:15:24	25.6	59
72162	2024-06-19T17:25:24	29.6	49.5
72163	2024-06-19T17:35:24	27.2	55
72164	2024-06-19T17:45:24	26.1	57.5
72165	2024-06-19T17:55:24	29.2	50
72166	2024-06-19T18:05:24	27.8	51
72167	2024-06-19T18:15:24	25	59
72168	2024-06-19T18:25:24	25.4	58
72169	2024-06-19T18:35:24	26.5	55
72170	2024-06-19T18:45:24	26.4	55.5
72171	2024-06-19T18:55:24	25.5	57.5
72172	2024-06-19T19:05:24	24.1	61.5
72173	2024-06-19T19:15:24	23.2	65
72174	2024-06-19T19:25:24	22.5	66
72175	2024-06-19T19:35:24	22.3	67
72176	2024-06-19T19:45:24	22.1	67.5
72177	2024-06-19T19:55:24	21.7	68.5
72178	2024-06-19T20:05:24	21.4	68.5
72179	2024-06-19T20:15:24	21.1	69
72180	2024-06-19T20:25:24	21.1	69
72181	2024-06-19T20:35:24	20.9	70.5
72182	2024-06-19T20:45:24	20.8	71
72183	2024-06-19T20:55:24	20.7	72
72184	2024-06-19T21:05:24	20.6	72
72185	2024-06-19T21:15:23	20.6	72.5
72186	2024-06-19T21:25:23	20.5	73
72187	2024-06-19T21:35:23	20.4	73
72188	2024-06-19T21:45:23	20.4	73.5
72189	2024-06-19T21:55:23	19.9	74.5
72190	2024-06-19T22:05:23	19.9	75
72191	2024-06-19T22:15:23	19.9	75
72192	2024-06-19T22:25:23	19.6	75.5
72193	2024-06-19T22:35:23	19.5	76
72194	2024-06-19T22:45:23	19.4	76.5
72195	2024-06-19T22:55:23	19.1	78
72196	2024-06-19T23:05:23	18.7	79
72197	2024-06-19T23:15:23	18.4	80.5
72198	2024-06-19T23:29:27	18.1	81.5
72199	2024-06-19T23:35:23	18	82
72200	2024-06-19T23:45:23	17.9	82.5
72201	2024-06-19T23:55:23	17.8	83
72202	2024-06-20T00:05:23	17.8	83.5
72203	2024-06-20T00:15:23	17.8	83.5
72204	2024-06-20T00:25:23	17.7	84
72205	2024-06-20T00:35:23	17.6	84
72206	2024-06-20T00:45:23	17.5	84.5
72207	2024-06-20T00:55:23	17.4	85
72208	2024-06-20T01:05:23	17.3	85
72209	2024-06-20T01:15:23	17.3	85
72210	2024-06-20T01:25:23	17.2	85
72211	2024-06-20T01:35:23	17	85
72212	2024-06-20T01:45:23	17	85.5
72213	2024-06-20T01:55:23	16.9	85.5
72214	2024-06-20T02:05:23	16.9	86
72215	2024-06-20T02:15:23	16.9	86
72216	2024-06-20T02:25:23	16.8	86.5
72217	2024-06-20T02:35:23	16.8	86.5
72218	2024-06-20T02:45:23	16.7	86.5
72219	2024-06-20T02:55:23	16.8	87
72220	2024-06-20T03:05:23	16.8	86.5
72221	2024-06-20T03:15:23	16.8	86.5
72222	2024-06-20T03:25:23	17	86.5
72223	2024-06-20T03:35:23	17.1	86
72224	2024-06-20T03:45:23	17	86
72225	2024-06-20T03:55:23	17	86
72226	2024-06-20T04:05:23	17.1	86
72227	2024-06-20T04:15:23	17	86
72228	2024-06-20T04:25:23	17.2	86
72229	2024-06-20T04:35:23	17.1	86
72230	2024-06-20T04:45:23	17.3	86
72231	2024-06-20T04:55:23	17.4	86
72232	2024-06-20T05:05:23	17.5	86
72233	2024-06-20T05:15:23	17.5	86
72234	2024-06-20T05:25:23	17.5	85.5
72235	2024-06-20T05:35:23	17.5	85.5
72236	2024-06-20T05:45:23	17.9	85
72237	2024-06-20T05:55:23	18.1	85
72238	2024-06-20T06:05:23	18.5	83.5
72239	2024-06-20T06:15:23	18.7	83
72240	2024-06-20T06:25:23	18.9	83
72241	2024-06-20T06:35:23	19.2	82
72242	2024-06-20T06:45:23	19.3	82.5
72243	2024-06-20T06:55:23	19.1	83.5
72244	2024-06-20T07:05:23	19.5	83
72245	2024-06-20T07:15:23	19.8	81.5
72246	2024-06-20T07:25:23	20.2	81
72247	2024-06-20T07:35:23	20.8	79.5
72248	2024-06-20T07:45:23	21.2	78.5
72249	2024-06-20T07:55:23	21.5	77
72250	2024-06-20T08:05:44	22	77
72251	2024-06-20T08:15:23	22.4	75
72252	2024-06-20T08:25:23	22.6	74.5
72253	2024-06-20T08:35:22	22.7	73.5
72254	2024-06-20T08:45:22	22.9	75
72255	2024-06-20T08:55:22	23.4	72.5
72256	2024-06-20T09:05:22	24.2	70
72257	2024-06-20T09:15:22	24.2	70
72258	2024-06-20T09:25:22	24.6	70
72259	2024-06-20T09:35:22	25	68.5
72260	2024-06-20T09:45:22	24.8	70
72261	2024-06-20T09:55:22	25.1	70
72262	2024-06-20T10:05:22	25.3	69
72263	2024-06-20T10:15:22	25.6	69
72264	2024-06-20T10:25:22	25.5	69
72265	2024-06-20T10:35:22	25.9	69
72266	2024-06-20T10:45:22	25.9	68
72267	2024-06-20T10:55:22	26.2	67.5
72268	2024-06-20T11:05:22	26	68
72269	2024-06-20T11:15:22	25.6	69.5
72270	2024-06-20T11:25:22	25.7	68
72271	2024-06-20T11:35:22	25.9	67.5
72272	2024-06-20T11:45:22	25.6	69
72273	2024-06-20T11:55:22	25.2	70
72274	2024-06-20T12:05:22	25.2	74
72275	2024-06-20T12:15:22	25.8	72
72276	2024-06-20T12:25:22	27.2	68.5
72277	2024-06-20T12:35:22	27	66.5
72278	2024-06-20T12:45:22	27.1	65.5
72279	2024-06-20T12:55:22	27	66.5
72280	2024-06-20T13:05:22	27.7	64
72281	2024-06-20T13:15:22	28.4	63
72282	2024-06-20T13:25:22	31.6	55
72283	2024-06-20T13:35:22	29.6	58
72284	2024-06-20T13:45:22	30.5	57
72285	2024-06-20T13:55:22	33.2	51
72286	2024-06-20T14:05:22	32.5	51.5
72287	2024-06-20T14:15:22	29.9	58
72288	2024-06-20T14:25:22	28.3	62
72289	2024-06-20T14:35:22	27.2	65.5
72290	2024-06-20T14:45:22	26.7	78.5
72291	2024-06-20T14:55:22	26.5	76.5
72292	2024-06-20T15:05:22	27.2	77.5
72293	2024-06-20T15:15:22	26.9	78.5
72294	2024-06-20T15:25:22	27.3	75.5
72295	2024-06-20T15:35:22	28.9	68
72296	2024-06-20T15:45:22	27.3	73
72297	2024-06-20T15:55:22	27.1	73
72298	2024-06-20T16:05:22	27.1	73
72299	2024-06-20T16:15:22	26.6	75
72300	2024-06-20T16:25:22	29.2	65
72301	2024-06-20T16:35:22	32.3	57.5
72302	2024-06-20T16:45:22	32.8	55.5
72303	2024-06-20T16:55:22	32.7	55.5
72304	2024-06-20T17:05:22	29.8	62.5
72305	2024-06-20T17:15:22	29.6	63.5
72306	2024-06-20T17:25:22	28.8	66
72307	2024-06-20T17:35:22	28	69
72308	2024-06-20T17:45:22	27.6	70
72309	2024-06-20T17:55:22	27.1	72.5
72310	2024-06-20T18:05:22	26.9	73.5
72311	2024-06-20T18:15:22	26.6	75.5
72312	2024-06-20T18:25:21	26	77
72313	2024-06-20T18:35:21	25.7	79
72314	2024-06-20T18:45:21	25.6	80
72315	2024-06-20T18:55:21	25.3	81
72316	2024-06-20T19:05:21	24.9	82
72317	2024-06-20T19:15:21	24.9	81.5
72318	2024-06-20T19:25:21	24.6	83
72319	2024-06-20T19:35:21	24.3	82.5
72320	2024-06-20T19:45:21	24.1	82.5
72321	2024-06-20T19:55:21	23.9	83.5
72322	2024-06-20T20:05:21	23.7	84.5
72323	2024-06-20T20:15:21	23.6	85
72324	2024-06-20T20:25:21	23.8	84
72325	2024-06-20T20:35:21	23.8	84
72326	2024-06-20T20:45:21	23.6	85
72327	2024-06-20T20:55:21	23.4	86
72328	2024-06-20T21:05:21	23.2	86.5
72329	2024-06-20T21:15:21	23.1	87.5
72330	2024-06-20T21:25:21	22.8	88
72331	2024-06-20T21:35:21	22.8	89
72332	2024-06-20T21:45:21	22.3	90
72333	2024-06-20T21:55:21	22.2	90.5
72334	2024-06-20T22:05:21	22	91
72335	2024-06-20T22:15:21	21.9	91
72336	2024-06-20T22:25:21	21.6	91.5
72337	2024-06-20T22:35:21	21.5	92
72338	2024-06-20T22:45:21	21.4	91.5
72339	2024-06-20T22:55:21	21.1	92.5
72340	2024-06-20T23:27:25	21	93
72341	2024-06-20T23:27:25	20.8	93
72342	2024-06-20T23:27:25	21	93.5
72343	2024-06-20T23:35:21	20.8	93
72344	2024-06-20T23:45:21	20.5	94
72345	2024-06-20T23:55:21	20.4	92
72346	2024-06-21T00:05:38	20.5	93
72347	2024-06-21T00:15:21	20.4	93
72348	2024-06-21T00:25:21	20.4	93.5
72349	2024-06-21T00:35:21	20.3	94
72350	2024-06-21T00:45:21	20.3	94
72351	2024-06-21T00:55:21	20.1	94.5
72352	2024-06-21T01:05:21	19.9	95
72353	2024-06-21T01:15:21	19.8	95
72354	2024-06-21T01:25:21	19.8	96
72355	2024-06-21T01:35:21	19.7	96
72356	2024-06-21T01:45:21	19.5	96
72357	2024-06-21T01:55:21	19.4	96
72358	2024-06-21T02:05:21	19.3	97
72359	2024-06-21T02:15:21	19.4	97
72360	2024-06-21T02:25:21	19.2	97
72361	2024-06-21T02:35:21	19.1	97
72362	2024-06-21T02:45:21	19.1	97.5
72363	2024-06-21T02:55:21	19.1	97.5
72364	2024-06-21T03:05:21	18.9	97.5
72365	2024-06-21T03:15:21	19.1	97
72366	2024-06-21T03:25:21	19.2	96.5
72367	2024-06-21T03:35:21	19.2	96.5
72368	2024-06-21T03:45:21	19.2	96.5
72369	2024-06-21T03:55:21	19.1	96.5
72370	2024-06-21T04:05:21	19.3	96.5
72371	2024-06-21T04:15:21	19.5	95.5
72372	2024-06-21T04:25:21	19.6	95
72373	2024-06-21T04:35:21	19.6	95.5
72374	2024-06-21T04:45:21	19.7	96
72375	2024-06-21T04:55:21	19.8	95.5
72376	2024-06-21T05:05:20	19.7	96.5
72377	2024-06-21T05:15:20	19.8	95.5
72378	2024-06-21T05:25:20	19.9	95.5
72379	2024-06-21T05:35:20	19.5	97.5
72380	2024-06-21T05:45:20	19.3	99.5
72381	2024-06-21T05:55:20	19.3	100
72382	2024-06-21T06:05:20	19.4	100
72383	2024-06-21T06:15:20	19.3	100
72384	2024-06-21T06:25:20	19.4	100
72385	2024-06-21T06:35:20	19.3	100
72386	2024-06-21T06:45:20	19.5	100
72387	2024-06-21T06:55:20	19.4	100
72388	2024-06-21T07:05:20	19.5	100
72389	2024-06-21T07:15:20	19.7	100
72390	2024-06-21T07:25:20	19.8	100
72391	2024-06-21T07:35:20	19.7	100
72392	2024-06-21T07:45:20	19.7	100
72393	2024-06-21T07:55:20	19.8	100
72394	2024-06-21T08:05:20	19.8	100
72395	2024-06-21T08:15:20	20	100
72396	2024-06-21T08:25:20	20.3	100
72397	2024-06-21T08:35:20	20.7	100
72398	2024-06-21T08:45:20	20.6	100
72399	2024-06-21T08:55:20	20.3	100
72400	2024-06-21T09:05:20	20.3	100
72401	2024-06-21T09:15:20	20.4	100
72402	2024-06-21T09:25:20	20.4	100
72403	2024-06-21T09:35:20	20.5	100
72404	2024-06-21T09:45:20	20.5	99.5
72405	2024-06-21T09:55:20	20.8	100
72406	2024-06-21T10:05:20	21.4	97.5
72407	2024-06-21T10:15:20	21.8	96.5
72408	2024-06-21T10:25:20	22.9	89
72409	2024-06-21T10:35:20	23.2	87.5
72410	2024-06-21T10:45:20	23.2	82
72411	2024-06-21T10:55:20	23.6	81
72412	2024-06-21T11:05:20	23.8	78.5
72413	2024-06-21T11:15:20	23.6	79.5
72414	2024-06-21T11:25:20	23.3	80
72415	2024-06-21T11:35:20	23.8	80
72416	2024-06-21T11:45:20	24.1	75.5
72417	2024-06-21T11:55:20	24.8	73
72418	2024-06-21T12:05:20	25.9	70.5
72419	2024-06-21T12:15:20	29.3	58
72420	2024-06-21T12:25:20	30.8	51
72421	2024-06-21T12:35:20	32	47
72422	2024-06-21T12:45:20	31.9	46.5
72423	2024-06-21T12:55:20	31.6	46.5
72424	2024-06-21T13:05:20	32.6	42
72425	2024-06-21T13:15:20	31.7	44.5
72426	2024-06-21T13:25:20	29.2	50
72427	2024-06-21T13:35:20	30.7	47
72428	2024-06-21T13:45:20	29.2	50.5
72429	2024-06-21T13:55:20	28	53.5
72430	2024-06-21T14:05:20	28	53
72431	2024-06-21T14:15:20	29.4	51
72432	2024-06-21T14:25:20	30.8	48.5
72433	2024-06-21T14:35:20	29.5	51.5
72434	2024-06-21T14:45:20	28.2	53.5
72435	2024-06-21T14:55:20	29.2	50
72436	2024-06-21T15:05:20	27.4	54.5
72437	2024-06-21T15:15:20	26.8	57
72438	2024-06-21T15:25:19	26.2	58.5
72439	2024-06-21T15:35:19	24.4	78.5
72440	2024-06-21T15:45:20	21.3	98.5
72441	2024-06-21T15:55:19	20	100
72442	2024-06-21T16:05:19	20.4	99
72443	2024-06-21T16:15:19	21.1	99.5
72444	2024-06-21T16:25:19	23.8	99
72445	2024-06-21T16:35:19	22.2	99
72446	2024-06-21T16:45:19	21.2	99
72447	2024-06-21T16:55:19	20.8	99.5
72448	2024-06-21T17:05:19	20.4	99
72449	2024-06-21T17:15:19	20.2	99
72450	2024-06-21T17:25:19	19.8	98.5
72451	2024-06-21T17:35:19	19.7	98
72452	2024-06-21T17:45:19	19.6	97
72453	2024-06-21T17:55:19	19.5	96.5
72454	2024-06-21T18:05:19	19.4	95.5
72455	2024-06-21T18:15:19	19.5	95
72456	2024-06-21T18:25:19	19.3	94.5
72457	2024-06-21T18:35:19	19.2	95
72458	2024-06-21T18:45:19	19	95
72459	2024-06-21T18:55:19	18.9	95
72460	2024-06-21T19:05:19	18.7	95
72461	2024-06-21T19:15:19	18.4	95
72462	2024-06-21T19:25:19	18.4	95
72463	2024-06-21T19:35:19	18.3	95
72464	2024-06-21T19:45:19	18.4	95
72465	2024-06-21T19:55:19	18	95.5
72466	2024-06-21T20:05:19	17.3	95.5
72467	2024-06-21T20:15:19	17	95.5
72468	2024-06-21T20:25:19	16.9	95.5
72469	2024-06-21T20:35:19	16.9	96
72470	2024-06-21T20:45:34	16.6	95.5
72471	2024-06-21T20:55:19	16.5	96
72472	2024-06-21T21:05:19	16.5	96
72473	2024-06-21T21:15:19	16.3	96
72474	2024-06-21T21:25:19	16.2	96
72475	2024-06-21T21:35:19	16.3	96
72476	2024-06-21T21:45:19	16.3	96
72477	2024-06-21T21:55:19	16.1	96
72478	2024-06-21T22:05:19	16.1	96
72479	2024-06-21T22:15:19	16.1	96
72480	2024-06-21T22:25:19	16	96
72481	2024-06-21T22:35:19	15.9	96
72482	2024-06-21T22:45:19	15.9	96
72483	2024-06-21T22:55:19	15.8	96
72484	2024-06-21T23:27:20	15.5	96
72485	2024-06-21T23:27:21	15.2	96
72486	2024-06-21T23:27:21	15.2	96
72487	2024-06-21T23:35:19	15.3	96
72488	2024-06-21T23:45:19	15.1	96
72489	2024-06-21T23:55:19	15	96
72490	2024-06-22T00:05:19	14.9	96
72491	2024-06-22T00:15:19	15	96
72492	2024-06-22T00:25:19	14.9	96
72493	2024-06-22T00:35:19	14.8	96
72494	2024-06-22T00:45:19	14.6	96
72495	2024-06-22T00:55:19	14.6	96
72496	2024-06-22T01:05:19	14.5	96
72497	2024-06-22T01:15:19	14.5	96
72498	2024-06-22T01:25:19	14.6	96
72499	2024-06-22T01:35:19	14.7	96
72500	2024-06-22T01:45:19	14.6	96
72501	2024-06-22T01:55:19	14.7	96
72502	2024-06-22T02:05:19	14.9	96
72503	2024-06-22T02:15:19	14.9	96
72504	2024-06-22T02:25:19	14.9	96
72505	2024-06-22T02:35:19	14.7	96
72506	2024-06-22T02:45:19	14.7	96
72507	2024-06-22T02:55:19	14.5	96
72508	2024-06-22T03:05:18	14.2	96
72509	2024-06-22T03:15:18	14.1	96
72510	2024-06-22T03:25:18	13.8	96
72511	2024-06-22T03:35:18	14.1	96
72512	2024-06-22T03:45:18	14	96
72513	2024-06-22T03:55:18	13.6	96
72514	2024-06-22T04:05:18	13.4	96
72515	2024-06-22T04:15:18	13.3	96
72516	2024-06-22T04:25:18	13.6	96
72517	2024-06-22T04:35:18	13.7	96
72518	2024-06-22T04:45:18	13.7	96
72519	2024-06-22T04:55:18	13.9	96
72520	2024-06-22T05:05:18	14.1	96
72521	2024-06-22T05:15:18	14.4	96
72522	2024-06-22T05:25:18	15.1	96
72523	2024-06-22T05:35:18	15.9	96
72524	2024-06-22T05:45:18	16.5	96
72525	2024-06-22T05:55:18	16.8	96
72526	2024-06-22T06:05:18	16.8	96
72527	2024-06-22T06:15:18	17.4	96
72528	2024-06-22T06:25:18	17.3	96
72529	2024-06-22T06:35:18	17.2	96
72530	2024-06-22T06:45:18	17.3	96
72531	2024-06-22T06:55:18	17.4	96
72532	2024-06-22T07:05:18	17.4	96
72533	2024-06-22T07:15:18	17.7	96
72534	2024-06-22T07:25:18	18.1	96
72535	2024-06-22T07:35:18	18.3	96
72536	2024-06-22T07:45:18	18.8	96
72537	2024-06-22T07:55:18	19.6	96
72538	2024-06-22T08:05:18	19.7	95.5
72539	2024-06-22T08:15:18	20	95.5
72540	2024-06-22T08:25:18	20.5	96
72541	2024-06-22T08:35:18	20.6	95.5
72542	2024-06-22T08:45:18	20.6	96
72543	2024-06-22T08:55:18	21.1	96
72544	2024-06-22T09:05:18	21.1	96
72545	2024-06-22T09:15:18	21.9	96
72546	2024-06-22T09:25:18	22.9	96
72547	2024-06-22T09:35:18	22.4	96
72548	2024-06-22T09:45:18	18.6	99
72549	2024-06-22T09:55:18	17.7	99
72550	2024-06-22T10:05:18	17.3	96
72551	2024-06-22T10:15:18	17.2	96
72552	2024-06-22T10:25:18	16.4	96
72553	2024-06-22T10:35:18	15.7	96.5
72554	2024-06-22T10:45:18	15	96.5
72555	2024-06-22T10:55:18	14.2	96.5
72556	2024-06-22T11:05:18	13.9	96.5
72557	2024-06-22T11:15:18	13.9	96.5
72558	2024-06-22T11:25:18	13.9	96.5
72559	2024-06-22T11:35:18	13.9	96.5
72560	2024-06-22T11:45:18	13.7	96.5
72561	2024-06-22T11:55:18	13.7	96.5
72562	2024-06-22T12:05:18	13.7	96.5
72563	2024-06-22T12:15:18	13.9	96.5
72564	2024-06-22T12:25:18	13.9	96.5
72565	2024-06-22T12:35:18	14	96.5
72566	2024-06-22T12:45:18	14.2	96.5
72567	2024-06-22T12:55:18	14.3	96.5
72568	2024-06-22T13:05:18	14.3	96.5
72569	2024-06-22T13:15:18	14.2	96.5
72570	2024-06-22T13:25:18	14.2	96.5
72571	2024-06-22T13:35:18	14.3	96.5
72572	2024-06-22T13:45:18	14.6	96.5
72573	2024-06-22T13:55:18	15.4	96.5
72574	2024-06-22T14:05:18	16	96.5
72575	2024-06-22T14:15:18	16.7	96.5
72576	2024-06-22T14:25:18	20.1	96
72577	2024-06-22T14:35:18	21.7	96
72578	2024-06-22T14:45:18	20.8	96
72579	2024-06-22T14:55:18	19.3	96
72580	2024-06-22T15:05:17	18.8	96
72581	2024-06-22T15:15:17	18.4	96
72582	2024-06-22T15:25:17	18	96
72583	2024-06-22T15:35:17	19.5	96
72584	2024-06-22T15:45:18	19.1	96
72585	2024-06-22T15:55:17	18.9	96
72586	2024-06-22T16:05:17	18.7	96
72587	2024-06-22T16:15:17	18.9	96
72588	2024-06-22T16:25:17	18.9	96
72589	2024-06-22T16:35:17	18.9	96
72590	2024-06-22T16:45:17	20.4	96
72591	2024-06-22T16:55:17	24.1	96
72592	2024-06-22T17:05:17	20	96
72593	2024-06-22T17:15:17	19.3	96
72594	2024-06-22T17:25:17	18.4	99
72595	2024-06-22T17:35:17	18	84
72596	2024-06-22T17:45:17	17.5	84
72597	2024-06-22T17:55:17	17.1	85.5
72598	2024-06-22T18:05:17	16.9	88
72599	2024-06-22T18:15:17	16.7	87.5
72600	2024-06-22T18:25:17	17.9	85
72601	2024-06-22T18:35:17	16.9	88
72602	2024-06-22T18:45:17	16.7	89.5
72603	2024-06-22T18:55:17	16.4	90.5
72604	2024-06-22T19:05:17	16.1	92.5
72605	2024-06-22T19:15:17	15.8	93.5
72606	2024-06-22T19:25:17	15.8	94.5
72607	2024-06-22T19:35:17	15.6	93
72608	2024-06-22T19:45:17	15.7	93
72609	2024-06-22T19:55:17	15.8	93
72610	2024-06-22T20:05:17	15.8	91.5
72611	2024-06-22T20:15:17	15.9	91.5
72612	2024-06-22T20:25:17	15.7	90.5
72613	2024-06-22T20:35:17	15.7	91.5
72614	2024-06-22T20:45:17	15.5	91
72615	2024-06-22T20:55:17	15.5	89
72616	2024-06-22T21:05:17	15.4	89.5
72617	2024-06-22T21:15:17	15.3	90.5
72618	2024-06-22T21:25:17	14.9	96
72619	2024-06-22T21:35:17	14.6	98
72620	2024-06-22T21:45:17	14.3	99
72621	2024-06-22T21:55:17	14.2	100
72622	2024-06-22T22:05:17	13.8	100
72623	2024-06-22T22:15:17	13.7	100
72624	2024-06-22T22:25:17	13.4	100
72625	2024-06-22T22:35:17	13.4	100
72626	2024-06-22T22:45:17	13.4	100
72627	2024-06-22T22:55:17	13.5	100
72628	2024-06-22T23:05:17	13.7	100
72629	2024-06-22T23:15:17	13.8	100
72630	2024-06-22T23:25:17	14	100
72631	2024-06-22T23:35:17	13.9	100
72632	2024-06-22T23:45:17	13.9	100
72633	2024-06-22T23:55:17	13.9	100
72634	2024-06-23T00:05:17	13.9	100
72635	2024-06-23T00:15:17	13.9	100
72636	2024-06-23T00:25:17	14	100
72637	2024-06-23T00:35:17	13.9	100
72638	2024-06-23T00:45:17	14	100
72639	2024-06-23T00:55:17	13.9	100
72640	2024-06-23T01:05:17	13.8	100
72641	2024-06-23T01:15:17	13.5	100
72642	2024-06-23T01:25:17	13.4	100
72643	2024-06-23T01:35:17	13.4	100
72644	2024-06-23T01:45:17	13.2	100
72645	2024-06-23T01:55:17	13.3	100
72646	2024-06-23T02:05:17	13.5	100
72647	2024-06-23T02:15:17	13.5	100
72648	2024-06-23T02:25:17	13.5	100
72649	2024-06-23T02:35:17	13.3	100
72650	2024-06-23T02:45:17	13.1	100
72651	2024-06-23T02:55:17	13.2	100
72652	2024-06-23T03:05:17	13	100
72653	2024-06-23T03:15:17	12.9	100
72654	2024-06-23T03:25:17	12.8	100
72655	2024-06-23T03:35:17	12.8	100
72656	2024-06-23T03:45:16	13.1	100
72657	2024-06-23T03:55:16	13.1	100
72658	2024-06-23T04:05:16	13.3	100
72659	2024-06-23T04:15:16	13.3	100
72660	2024-06-23T04:25:16	13.3	100
72661	2024-06-23T04:35:16	13.2	100
72662	2024-06-23T04:45:16	13.1	100
72663	2024-06-23T04:55:16	13.2	100
72664	2024-06-23T05:05:16	13.3	100
72665	2024-06-23T05:15:16	13.3	100
72666	2024-06-23T05:25:16	13.4	100
72667	2024-06-23T05:35:16	13.6	100
72668	2024-06-23T05:45:16	13.6	100
72669	2024-06-23T05:55:16	13.8	100
72670	2024-06-23T06:05:16	14	100
72671	2024-06-23T06:15:16	14.3	100
72672	2024-06-23T06:25:16	14.4	100
72673	2024-06-23T06:35:16	14.9	100
72674	2024-06-23T06:45:16	15.3	98.5
72675	2024-06-23T06:55:16	15.6	95
72676	2024-06-23T07:05:16	15.6	93.5
72677	2024-06-23T07:15:16	15.8	95
72678	2024-06-23T07:25:16	16	92
72679	2024-06-23T07:35:16	16.7	90.5
72680	2024-06-23T07:45:16	17	90.5
72681	2024-06-23T07:55:16	17	90.5
72682	2024-06-23T08:05:16	17.2	89.5
72683	2024-06-23T08:15:16	17.4	87
72684	2024-06-23T08:25:16	17.9	84.5
72685	2024-06-23T08:35:16	18.5	84.5
72686	2024-06-23T08:45:16	18.8	83.5
72687	2024-06-23T08:55:16	18.7	81.5
72688	2024-06-23T09:05:16	19.4	81
72689	2024-06-23T09:15:16	19.6	80
72690	2024-06-23T09:25:16	20	77
72691	2024-06-23T09:35:16	20.8	73.5
72692	2024-06-23T09:45:16	20.6	71
72693	2024-06-23T09:55:16	21.5	70
72694	2024-06-23T10:05:16	22.1	70.5
72695	2024-06-23T10:15:16	22	68.5
72696	2024-06-23T10:25:16	22.3	70
72697	2024-06-23T10:35:16	22.6	67.5
72698	2024-06-23T10:45:16	22.5	70.5
72699	2024-06-23T10:55:16	23.4	67
72700	2024-06-23T11:05:16	24.4	65
72701	2024-06-23T11:15:16	25.1	62
72702	2024-06-23T11:25:16	25.4	59.5
72703	2024-06-23T11:35:16	25.5	55
72704	2024-06-23T11:45:16	25.5	60
72705	2024-06-23T11:55:16	25.1	57
72706	2024-06-23T12:05:16	25.7	56
72707	2024-06-23T12:15:16	28.7	50
72708	2024-06-23T12:25:16	28.3	51
72709	2024-06-23T12:35:16	26.8	51
72710	2024-06-23T12:45:16	27	55
72711	2024-06-23T12:55:16	26.9	54
72712	2024-06-23T13:05:16	31.4	44.5
72713	2024-06-23T13:15:16	35.4	39
72714	2024-06-23T13:25:16	38.2	31
72715	2024-06-23T13:35:16	34.6	36.5
72716	2024-06-23T13:45:16	31.6	43.5
72717	2024-06-23T13:55:16	28.3	48.5
72718	2024-06-23T14:05:16	26.9	51.5
72719	2024-06-23T14:15:16	25.9	56
72720	2024-06-23T14:25:16	25.8	57
72721	2024-06-23T14:35:16	33.8	40
72722	2024-06-23T14:45:16	36.6	37
72723	2024-06-23T14:55:16	39.8	32
72724	2024-06-23T15:05:15	37.9	33
72725	2024-06-23T15:15:15	37.6	31.5
72726	2024-06-23T15:25:15	31.4	40.5
72727	2024-06-23T15:35:15	29.7	44.5
72728	2024-06-23T15:45:15	28.8	48
72729	2024-06-23T15:55:15	27.9	50.5
72730	2024-06-23T16:05:15	28.2	49
72731	2024-06-23T16:15:15	28.2	48
72732	2024-06-23T16:25:15	27.3	49
72733	2024-06-23T16:35:15	26.8	53.5
72734	2024-06-23T16:45:15	26.2	53.5
72735	2024-06-23T16:55:15	25.9	56
72736	2024-06-23T17:05:15	25.7	56.5
72737	2024-06-23T17:15:15	25.6	61
72738	2024-06-23T17:25:15	25.4	60.5
72739	2024-06-23T17:35:15	25.3	61
72740	2024-06-23T17:45:15	25.6	62
72741	2024-06-23T17:55:15	27.3	59
72742	2024-06-23T18:05:15	30.8	49.5
72743	2024-06-23T18:15:15	30.4	48
72744	2024-06-23T18:25:15	30.2	46
72745	2024-06-23T18:35:15	29.1	49
72746	2024-06-23T18:45:15	27.6	56
72747	2024-06-23T18:55:15	26.5	60.5
72748	2024-06-23T19:05:15	25.2	66.5
72749	2024-06-23T19:15:15	24.1	69.5
72750	2024-06-23T19:25:15	23.5	71
72751	2024-06-23T19:35:15	23.2	73.5
72752	2024-06-23T19:45:15	22.7	74
72753	2024-06-23T19:55:15	22.6	75.5
72754	2024-06-23T20:05:15	22.4	75.5
72755	2024-06-23T20:15:15	21.7	77
72756	2024-06-23T20:25:15	21.2	77.5
72757	2024-06-23T20:35:15	20.8	78.5
72758	2024-06-23T20:45:15	20.4	80
72759	2024-06-23T20:55:15	20.1	80.5
72760	2024-06-23T21:05:15	20	83
72761	2024-06-23T21:15:15	19.7	82
72762	2024-06-23T21:25:15	19.5	82.5
72763	2024-06-23T21:35:15	19.3	83.5
72764	2024-06-23T21:45:15	19.1	84
72765	2024-06-23T21:55:15	18.8	83.5
72766	2024-06-23T22:05:15	18.7	84.5
72767	2024-06-23T22:15:15	18.5	85
72768	2024-06-23T22:25:15	18.5	85
72769	2024-06-23T22:35:15	18.4	85
72770	2024-06-23T22:45:15	18.3	86.5
72771	2024-06-23T22:55:15	18.2	86
72772	2024-06-23T23:05:15	18.3	86.5
72773	2024-06-23T23:15:15	18.1	86.5
72774	2024-06-23T23:25:15	18.3	86.5
72775	2024-06-23T23:35:15	18	87.5
72776	2024-06-23T23:45:15	17.7	87.5
72777	2024-06-23T23:55:15	17.5	89.5
72778	2024-06-24T00:05:15	17.3	89
72779	2024-06-24T00:15:15	17.2	89.5
72780	2024-06-24T00:25:15	17	89.5
72781	2024-06-24T00:35:15	16.8	90.5
72782	2024-06-24T00:45:15	16.6	90.5
72783	2024-06-24T00:55:15	16.5	91
72784	2024-06-24T01:05:15	16.4	91
72785	2024-06-24T01:15:15	16.3	91.5
72786	2024-06-24T01:25:15	16.2	92
72787	2024-06-24T01:35:15	16	92
72788	2024-06-24T01:45:15	15.9	92
72789	2024-06-24T01:55:14	15.7	92.5
72790	2024-06-24T02:05:14	15.7	92.5
72791	2024-06-24T02:15:14	15.8	92.5
72792	2024-06-24T02:25:14	15.8	92
72793	2024-06-24T02:35:14	15.6	92.5
72794	2024-06-24T02:45:14	15.5	92.5
72795	2024-06-24T02:55:14	15.3	93
72796	2024-06-24T03:05:14	15.2	93.5
72797	2024-06-24T03:15:14	15.1	93.5
72798	2024-06-24T03:25:14	15	93.5
72799	2024-06-24T03:35:14	15.1	94
72800	2024-06-24T03:45:14	15	94
72801	2024-06-24T03:55:14	15	94
72802	2024-06-24T04:05:14	14.9	94
72803	2024-06-24T04:15:14	14.9	94.5
72804	2024-06-24T04:25:14	15.1	94
72805	2024-06-24T04:35:14	15.2	94
72806	2024-06-24T04:45:14	15.3	94
72807	2024-06-24T04:55:14	15.5	94.5
72808	2024-06-24T05:05:14	15.8	93.5
72809	2024-06-24T05:15:14	16.1	92
72810	2024-06-24T05:25:14	16.3	91.5
72811	2024-06-24T05:35:14	16.5	92
72812	2024-06-24T05:45:14	16.6	92
72813	2024-06-24T05:55:14	16.9	91
72814	2024-06-24T06:05:14	17	90
72815	2024-06-24T06:15:14	17.2	88.5
72816	2024-06-24T06:25:14	17.4	88.5
72817	2024-06-24T06:35:14	17.7	88
72818	2024-06-24T06:45:14	17.8	89
72819	2024-06-24T06:55:14	18	87.5
72820	2024-06-24T07:05:14	18.4	87
72821	2024-06-24T07:15:14	18.6	86.5
72822	2024-06-24T07:25:14	18.9	85
72823	2024-06-24T07:35:14	19.2	84.5
72824	2024-06-24T07:45:14	19.3	84
72825	2024-06-24T07:55:14	19.7	82.5
72826	2024-06-24T08:05:14	19.9	81
72827	2024-06-24T08:15:14	20.1	80.5
72828	2024-06-24T08:25:14	20.5	80
72829	2024-06-24T08:35:14	20.8	78
72830	2024-06-24T08:45:14	21	79.5
72831	2024-06-24T08:55:14	21.4	76.5
72832	2024-06-24T09:05:14	21.7	76
72833	2024-06-24T09:15:14	21.9	76
72834	2024-06-24T09:25:14	22.2	73
72835	2024-06-24T09:35:14	22.5	73.5
72836	2024-06-24T09:45:14	22.8	69.5
72837	2024-06-24T09:55:14	22.9	71.5
72838	2024-06-24T10:05:14	23.6	69.5
72839	2024-06-24T10:15:14	23.7	70
72840	2024-06-24T10:25:14	24	65
72841	2024-06-24T10:35:14	24.3	65.5
72842	2024-06-24T10:45:14	24.9	62.5
72843	2024-06-24T10:55:14	24.8	64
72844	2024-06-24T11:05:14	25.2	63
72845	2024-06-24T11:15:14	25.5	59.5
72846	2024-06-24T11:25:14	25.3	58.5
72847	2024-06-24T11:35:14	26	58
72848	2024-06-24T11:45:14	26.1	57
72849	2024-06-24T11:55:14	26.7	54.5
72850	2024-06-24T12:05:14	27.8	52
72851	2024-06-24T12:15:14	32	44.5
72852	2024-06-24T12:25:14	35.5	37
72853	2024-06-24T12:35:14	37.7	35.5
72854	2024-06-24T12:45:14	38	33
72855	2024-06-24T12:55:14	39.8	30.5
72856	2024-06-24T13:05:14	36.7	34
72857	2024-06-24T13:15:13	39.6	31
72858	2024-06-24T13:25:13	40.6	30
72859	2024-06-24T13:35:13	41.4	28
72860	2024-06-24T13:45:13	40.4	28.5
72861	2024-06-24T13:55:13	39.1	30
72862	2024-06-24T14:05:13	41.5	26.5
72863	2024-06-24T14:15:13	38	31
72864	2024-06-24T14:25:13	41.6	27
72865	2024-06-24T14:35:13	42.7	25
72866	2024-06-24T14:45:13	37.2	32
72867	2024-06-24T14:55:13	41.8	26.5
72868	2024-06-24T15:05:13	40.2	27.5
72869	2024-06-24T15:15:13	42.5	26
72870	2024-06-24T15:25:13	42.1	25
72871	2024-06-24T15:35:13	44.3	24.5
72872	2024-06-24T15:45:13	43.9	23.5
72873	2024-06-24T15:55:13	42.6	24.5
72874	2024-06-24T16:05:13	43.1	24
72875	2024-06-24T16:15:13	43.6	23
72876	2024-06-24T16:25:13	42.1	24.5
72877	2024-06-24T16:35:13	41.7	24.5
72878	2024-06-24T16:45:13	41.5	25.5
72879	2024-06-24T16:55:13	42.2	24.5
72880	2024-06-24T17:05:13	40.6	26
72881	2024-06-24T17:15:13	40.7	26
72882	2024-06-24T17:25:13	40.2	26
72883	2024-06-24T17:35:13	39.5	26
72884	2024-06-24T17:45:13	38	28
72885	2024-06-24T17:55:13	37.8	29
72886	2024-06-24T18:05:13	37.1	29.5
72887	2024-06-24T18:15:13	36.3	31
72888	2024-06-24T18:25:13	35.6	32.5
72889	2024-06-24T18:35:13	34.3	34
72890	2024-06-24T18:45:13	33.4	36
72891	2024-06-24T18:55:13	32.3	38
72892	2024-06-24T19:05:13	31.1	40.5
72893	2024-06-24T19:15:13	29	44.5
72894	2024-06-24T19:25:13	28	47
72895	2024-06-24T19:35:13	27.5	48
72896	2024-06-24T19:45:13	26.8	50.5
72897	2024-06-24T19:55:13	26.3	50.5
72898	2024-06-24T20:05:13	25.9	53.5
72899	2024-06-24T20:15:13	25.4	54.5
72900	2024-06-24T20:25:13	25.1	55.5
72901	2024-06-24T20:35:13	24.7	57.5
72902	2024-06-24T20:45:13	24.5	60
72903	2024-06-24T20:55:13	24.1	61.5
72904	2024-06-24T21:05:13	23.6	61.5
72905	2024-06-24T21:15:13	23.4	63.5
72906	2024-06-24T21:25:13	23.1	64.5
72907	2024-06-24T21:35:13	22.8	65.5
72908	2024-06-24T21:45:13	22.4	66.5
72909	2024-06-24T21:55:13	22.2	68
72910	2024-06-24T22:05:13	21.9	69
72911	2024-06-24T22:15:13	21.7	69.5
72912	2024-06-24T22:25:13	21.2	70.5
72913	2024-06-24T22:35:13	20.9	71
72914	2024-06-24T22:45:13	20.7	72
72915	2024-06-24T22:55:13	20.4	72.5
72916	2024-06-24T23:05:13	20.3	73.5
72917	2024-06-24T23:15:13	20.1	74
72918	2024-06-24T23:25:13	19.8	74.5
72919	2024-06-24T23:35:13	19.5	75.5
72920	2024-06-24T23:45:13	19.5	75.5
72921	2024-06-24T23:55:13	19.1	76
72922	2024-06-25T00:05:13	19	76.5
72923	2024-06-25T00:15:12	18.9	77
72924	2024-06-25T00:25:12	18.7	77
72925	2024-06-25T00:35:12	18.4	78.5
72926	2024-06-25T00:45:12	18.3	78.5
72927	2024-06-25T00:55:12	18.2	78.5
72928	2024-06-25T01:05:12	18.2	78
72929	2024-06-25T01:15:12	18.1	78
72930	2024-06-25T01:25:12	17.9	78.5
72931	2024-06-25T01:35:12	17.8	79
72932	2024-06-25T01:45:12	17.6	79.5
72933	2024-06-25T01:55:12	17.5	79.5
72934	2024-06-25T02:05:12	17.5	80
72935	2024-06-25T02:15:12	17.5	80
72936	2024-06-25T02:25:12	17.4	79.5
72937	2024-06-25T02:35:12	17.4	79
72938	2024-06-25T02:45:12	17.4	79.5
72939	2024-06-25T02:55:12	17.4	79
72940	2024-06-25T03:05:12	17.3	79.5
72941	2024-06-25T03:15:12	17.1	79.5
72942	2024-06-25T03:25:12	17.2	79
72943	2024-06-25T03:35:12	17.2	79
72944	2024-06-25T03:45:12	17.2	79.5
72945	2024-06-25T03:55:12	17	79.5
72946	2024-06-25T04:05:12	17.2	79.5
72947	2024-06-25T04:15:12	17.1	79.5
72948	2024-06-25T04:25:12	17.2	79.5
72949	2024-06-25T04:35:12	17.2	80
72950	2024-06-25T04:45:12	17.2	80
72951	2024-06-25T04:55:12	17.3	80.5
72952	2024-06-25T05:05:12	17.4	79.5
72953	2024-06-25T05:15:12	17.5	80
72954	2024-06-25T05:25:12	17.6	79.5
72955	2024-06-25T05:35:12	17.8	79.5
72956	2024-06-25T05:45:12	18	79.5
72957	2024-06-25T05:55:12	18.1	78.5
72958	2024-06-25T06:05:12	18.3	77.5
72959	2024-06-25T06:15:12	18.5	78
72960	2024-06-25T06:25:12	18.7	78
72961	2024-06-25T06:35:12	18.9	76
72962	2024-06-25T06:45:12	19.2	76.5
72963	2024-06-25T06:55:12	19.4	75
72964	2024-06-25T07:05:12	19.6	75.5
72965	2024-06-25T07:15:12	19.8	75
72966	2024-06-25T07:25:12	20.1	72.5
72967	2024-06-25T07:35:12	20.4	73
72968	2024-06-25T07:45:12	20.5	74
72969	2024-06-25T07:55:12	20.9	72
72970	2024-06-25T08:05:12	21.1	70.5
72971	2024-06-25T08:15:12	21.3	70.5
72972	2024-06-25T08:25:12	21.5	71
72973	2024-06-25T08:35:12	21.6	70
72974	2024-06-25T08:45:12	22	68
72975	2024-06-25T08:55:12	22.2	69
72976	2024-06-25T09:05:12	22.4	66.5
72977	2024-06-25T09:15:12	22.6	66.5
72978	2024-06-25T09:25:12	22.8	65.5
72979	2024-06-25T09:35:12	23.1	66.5
72980	2024-06-25T09:45:12	23.4	65.5
72981	2024-06-25T09:55:12	23.5	65.5
72982	2024-06-25T10:05:12	23.9	63
72983	2024-06-25T10:15:12	24.1	62.5
72984	2024-06-25T10:25:12	24.3	61
72985	2024-06-25T10:35:12	24.6	59
72986	2024-06-25T10:45:12	24.9	57.5
72987	2024-06-25T10:55:12	25.1	58
72988	2024-06-25T11:05:12	25.3	59.5
72989	2024-06-25T11:15:12	25.6	58
72990	2024-06-25T11:25:11	25.7	60.5
72991	2024-06-25T11:35:11	25.9	57
72992	2024-06-25T11:45:11	26.3	59
72993	2024-06-25T11:55:11	26.9	55
72994	2024-06-25T12:05:11	28	53.5
72995	2024-06-25T12:15:11	32.3	42.5
72996	2024-06-25T12:25:11	35	38.5
72997	2024-06-25T12:35:11	36.2	35
72998	2024-06-25T12:45:11	37.4	35.5
72999	2024-06-25T12:55:11	38.8	31
73000	2024-06-25T13:05:11	40.3	29
73001	2024-06-25T13:15:11	40.1	28
73002	2024-06-25T13:25:11	41.4	26.5
73003	2024-06-25T13:35:11	42.9	26
73004	2024-06-25T13:45:11	42.7	25.5
73005	2024-06-25T13:55:11	43.5	24.5
73006	2024-06-25T14:05:11	44.4	25
73007	2024-06-25T14:15:11	45.1	24
73008	2024-06-25T14:25:11	44.9	23.5
73009	2024-06-25T14:35:11	44.7	22
73010	2024-06-25T14:45:11	44.2	22.5
73011	2024-06-25T14:55:11	45.7	21.5
73012	2024-06-25T15:05:11	45.2	22.5
73013	2024-06-25T15:15:11	44.4	22.5
73014	2024-06-25T15:25:11	45.3	21
73015	2024-06-25T15:35:11	44.9	21
73016	2024-06-25T15:45:11	45.1	22
73017	2024-06-25T15:55:11	44.6	21.5
73018	2024-06-25T16:05:11	44.9	22
73019	2024-06-25T16:15:11	45.3	21.5
73020	2024-06-25T16:25:11	44.2	22
73021	2024-06-25T16:35:11	43.5	22.5
73022	2024-06-25T16:45:11	43.3	23
73023	2024-06-25T16:55:11	43.1	23.5
73024	2024-06-25T17:05:11	41.8	24
73025	2024-06-25T17:15:11	41.6	23.5
73026	2024-06-25T17:25:11	41.4	24
73027	2024-06-25T17:35:11	39.9	25.5
73028	2024-06-25T17:45:11	40.5	24.5
73029	2024-06-25T17:55:11	40.4	26
73030	2024-06-25T18:05:11	39.9	27
73031	2024-06-25T18:15:11	39.1	27
73032	2024-06-25T18:25:11	37.5	29
73033	2024-06-25T18:35:11	36.6	30.5
73034	2024-06-25T18:45:11	33.9	35.5
73035	2024-06-25T18:55:11	32.3	39
73036	2024-06-25T19:05:11	31.3	41
73037	2024-06-25T19:15:11	30.4	45
73038	2024-06-25T19:25:11	29.7	49
73039	2024-06-25T19:35:11	29.2	51
73040	2024-06-25T19:45:11	28.5	53
73041	2024-06-25T19:55:11	28	54.5
73042	2024-06-25T20:05:11	27.5	55.5
73043	2024-06-25T20:15:11	27.1	57
73044	2024-06-25T20:25:11	26.7	57
73045	2024-06-25T20:35:11	26.3	57.5
73046	2024-06-25T20:45:11	25.9	57.5
73047	2024-06-25T20:55:11	25.6	58.5
73048	2024-06-25T21:05:11	25.3	59
73049	2024-06-25T21:15:11	25	59
73050	2024-06-25T21:25:11	24.5	60.5
73051	2024-06-25T21:35:11	24.2	61
73052	2024-06-25T21:45:11	23.8	62
73053	2024-06-25T21:55:11	23.4	63
73054	2024-06-25T22:05:11	23.3	63.5
73055	2024-06-25T22:15:11	23.1	65.5
73056	2024-06-25T22:25:11	22.9	66
73057	2024-06-25T22:35:11	22.7	67
73058	2024-06-25T22:45:11	22.4	67.5
73059	2024-06-25T22:55:11	22.2	68.5
73060	2024-06-25T23:31:40	22.2	68.5
73061	2024-06-25T23:31:40	22	68.5
73062	2024-06-25T23:31:40	21.8	68
73063	2024-06-25T23:35:10	21.7	68
73064	2024-06-25T23:45:10	21.4	68.5
73065	2024-06-25T23:55:10	21.3	70
73066	2024-06-26T00:05:10	21	69.5
73067	2024-06-26T00:15:10	21	70.5
73068	2024-06-26T00:25:10	20.7	72
73069	2024-06-26T00:35:10	20.5	73
73070	2024-06-26T00:45:10	20.4	73.5
73071	2024-06-26T00:55:10	20.2	74
73072	2024-06-26T01:05:10	20	75
73073	2024-06-26T01:15:10	19.9	75.5
73074	2024-06-26T01:25:10	19.7	76.5
73075	2024-06-26T01:35:10	19.5	77
73076	2024-06-26T01:45:10	19.2	78.5
73077	2024-06-26T01:55:10	19.1	78
73078	2024-06-26T02:05:10	19	78.5
73079	2024-06-26T02:15:10	19	79
73080	2024-06-26T02:25:10	18.7	79.5
73081	2024-06-26T02:35:10	18.5	80.5
73082	2024-06-26T02:45:10	18.5	79.5
73083	2024-06-26T02:55:10	18.4	80.5
73084	2024-06-26T03:05:10	18.3	80.5
73085	2024-06-26T03:15:10	18.2	81
73086	2024-06-26T03:25:10	18.2	81.5
73087	2024-06-26T03:35:10	18	82.5
73088	2024-06-26T03:45:10	18	82.5
73089	2024-06-26T03:55:10	17.8	82.5
73090	2024-06-26T04:05:10	17.9	81.5
73091	2024-06-26T04:15:10	18	81.5
73092	2024-06-26T04:25:10	17.9	82.5
73093	2024-06-26T04:35:10	18	82.5
73094	2024-06-26T04:45:10	18.1	82
73095	2024-06-26T04:55:10	18.4	82
73096	2024-06-26T05:05:10	18.4	82
73097	2024-06-26T05:15:10	18.6	81.5
73098	2024-06-26T05:25:10	18.8	81.5
73099	2024-06-26T05:35:10	18.8	81.5
73100	2024-06-26T05:45:10	19	81.5
73101	2024-06-26T05:55:10	19.3	80.5
73102	2024-06-26T06:05:10	19.5	80
73103	2024-06-26T06:15:10	20.2	76
73104	2024-06-26T06:25:10	20.7	74.5
73105	2024-06-26T06:35:10	20.9	73.5
73106	2024-06-26T06:45:10	20.8	74
73107	2024-06-26T06:55:10	20.8	75
73108	2024-06-26T07:05:10	20.9	75
73109	2024-06-26T07:15:10	21.1	75.5
73110	2024-06-26T07:25:10	21.3	74.5
73111	2024-06-26T07:35:10	21.5	72.5
73112	2024-06-26T07:45:10	21.7	73
73113	2024-06-26T07:55:10	22	72.5
73114	2024-06-26T08:05:10	22.2	74
73115	2024-06-26T08:15:10	22.5	71
73116	2024-06-26T08:25:10	22.6	72.5
73117	2024-06-26T08:35:10	22.9	72
73118	2024-06-26T08:45:10	23.3	69.5
73119	2024-06-26T08:55:10	23.5	70.5
73120	2024-06-26T09:05:10	23.8	69
73121	2024-06-26T09:15:10	24.1	66.5
73122	2024-06-26T09:25:10	24.4	67
73123	2024-06-26T09:35:10	24.4	68
73124	2024-06-26T09:45:09	24.6	67.5
73125	2024-06-26T09:55:10	25	66.5
73126	2024-06-26T10:05:09	25.2	67.5
73127	2024-06-26T10:15:09	25.4	66
73128	2024-06-26T10:25:09	25.8	63
73129	2024-06-26T10:35:09	26.1	62.5
73130	2024-06-26T10:45:09	26.5	62
73131	2024-06-26T10:55:09	26.7	58.5
73132	2024-06-26T11:05:09	27	59.5
73133	2024-06-26T11:15:09	27.9	58.5
73134	2024-06-26T11:25:09	29.1	56
73135	2024-06-26T11:35:09	29.9	52
73136	2024-06-26T11:45:09	29.5	53.5
73137	2024-06-26T11:55:09	29.2	54.5
73138	2024-06-26T12:05:09	29.6	53.5
73139	2024-06-26T12:15:09	31.2	48.5
73140	2024-06-26T12:25:09	32.8	44.5
73141	2024-06-26T12:35:09	34.4	41.5
73142	2024-06-26T12:45:09	34	41.5
73143	2024-06-26T12:55:09	30.5	48.5
73144	2024-06-26T13:05:09	29.8	49.5
73145	2024-06-26T13:15:09	29.3	52
73146	2024-06-26T13:25:09	29.6	52.5
73147	2024-06-26T13:35:09	33.8	42.5
73148	2024-06-26T13:45:09	36	39.5
73149	2024-06-26T13:55:09	37.3	36
73150	2024-06-26T14:05:09	36.1	38
73151	2024-06-26T14:15:09	36.5	38
73152	2024-06-26T14:25:09	35.3	39.5
73153	2024-06-26T14:35:09	34.4	40.5
73154	2024-06-26T14:45:09	33.5	43.5
73155	2024-06-26T14:55:09	32.3	46
73156	2024-06-26T15:05:09	32.5	48
73157	2024-06-26T15:15:09	32.3	48.5
73158	2024-06-26T15:25:09	31.1	51.5
73159	2024-06-26T15:35:09	30.3	55
73160	2024-06-26T15:45:09	29.9	56.5
73161	2024-06-26T15:55:09	29.7	58.5
73162	2024-06-26T16:05:09	29.4	60
73163	2024-06-26T16:15:09	29.1	61.5
73164	2024-06-26T16:25:09	28.7	62
73165	2024-06-26T16:35:09	28.4	64
73166	2024-06-26T16:45:09	27.7	72
73167	2024-06-26T16:55:09	27.4	72
73168	2024-06-26T17:05:09	27.3	71
73169	2024-06-26T17:15:09	27	72
73170	2024-06-26T17:25:09	26.7	69.5
73171	2024-06-26T17:35:09	26.4	68.5
73172	2024-06-26T17:45:09	26.4	69.5
73173	2024-06-26T17:55:09	26.1	71.5
73174	2024-06-26T18:05:09	25.9	73
73175	2024-06-26T18:15:09	25.9	75
73176	2024-06-26T18:25:09	25.8	75.5
73177	2024-06-26T18:35:09	25.5	76
73178	2024-06-26T18:45:09	25.5	78
73179	2024-06-26T18:55:09	25.6	78
73180	2024-06-26T19:05:09	25.7	77.5
73181	2024-06-26T19:15:09	25.2	80.5
73182	2024-06-26T19:25:09	25	80.5
73183	2024-06-26T19:35:09	24.6	79
73184	2024-06-26T19:45:09	24.5	80
73185	2024-06-26T19:55:08	24.4	81
73186	2024-06-26T20:05:09	23.9	77.5
73187	2024-06-26T20:15:08	23.5	82.5
73188	2024-06-26T20:25:08	23.3	82.5
73189	2024-06-26T20:35:08	23.1	83
73190	2024-06-26T20:45:08	23	82
73191	2024-06-26T20:55:08	23.2	82.5
73192	2024-06-26T21:05:08	23.1	83.5
73193	2024-06-26T21:15:08	22.9	83.5
73194	2024-06-26T21:25:08	23	83.5
73195	2024-06-26T21:35:08	22.8	83
73196	2024-06-26T21:45:08	22.7	82.5
73197	2024-06-26T21:55:08	22.6	84
73198	2024-06-26T22:05:08	22.3	84.5
73199	2024-06-26T22:15:08	22	85
73200	2024-06-26T22:25:08	21.9	86
73201	2024-06-26T22:35:08	21.7	86.5
73202	2024-06-26T22:45:08	21.5	86.5
73203	2024-06-26T22:55:08	21.5	87.5
73204	2024-06-26T23:05:08	21.3	87.5
73205	2024-06-26T23:15:08	21.2	88
73206	2024-06-26T23:25:08	21.1	87.5
73207	2024-06-26T23:35:08	20.9	88
73208	2024-06-26T23:45:26	20.8	88
73209	2024-06-26T23:55:08	20.8	88.5
73210	2024-06-27T00:05:08	20.6	89
73211	2024-06-27T00:15:08	20.6	88.5
73212	2024-06-27T00:25:08	20.3	88.5
73213	2024-06-27T00:35:08	20.2	88
73214	2024-06-27T00:45:08	20.7	87.5
73215	2024-06-27T00:55:08	20.8	86.5
73216	2024-06-27T01:05:08	21.1	85
73217	2024-06-27T01:15:08	21.3	84.5
73218	2024-06-27T01:25:08	21.3	84
73219	2024-06-27T01:35:08	21.4	83.5
73220	2024-06-27T01:45:08	21.3	83
73221	2024-06-27T01:55:08	21.3	83.5
73222	2024-06-27T02:05:08	21.2	84.5
73223	2024-06-27T02:15:08	21.1	84.5
73224	2024-06-27T02:25:08	21	84
73225	2024-06-27T02:35:08	21.1	84.5
73226	2024-06-27T02:45:08	21	85
73227	2024-06-27T02:55:08	21	85.5
73228	2024-06-27T03:05:08	20.9	86
73229	2024-06-27T03:15:08	20.8	86
73230	2024-06-27T03:25:08	20.7	86
73231	2024-06-27T03:35:08	20.7	87
73232	2024-06-27T03:45:08	20.7	88.5
73233	2024-06-27T03:55:08	20.6	90
73234	2024-06-27T04:05:08	20.4	88.5
73235	2024-06-27T04:15:08	20.2	90.5
73236	2024-06-27T04:25:08	20.2	91.5
73237	2024-06-27T04:35:08	20	90.5
73238	2024-06-27T04:45:08	20.1	90.5
73239	2024-06-27T04:55:08	20.5	90.5
73240	2024-06-27T05:05:08	20.7	90
73241	2024-06-27T05:15:08	20.7	88.5
73242	2024-06-27T05:25:08	21	89
73243	2024-06-27T05:35:08	21.1	88.5
73244	2024-06-27T05:45:08	21.3	87.5
73245	2024-06-27T05:55:08	21.3	87
73246	2024-06-27T06:05:08	21.6	86
73247	2024-06-27T06:15:08	21.7	85.5
73248	2024-06-27T06:25:08	22.2	84.5
73249	2024-06-27T06:35:07	22.3	83
73250	2024-06-27T06:45:07	22.6	81.5
73251	2024-06-27T06:55:07	22.9	79.5
73252	2024-06-27T07:05:07	23.4	79
73253	2024-06-27T07:15:07	23.7	78.5
73254	2024-06-27T07:25:08	23.7	77.5
73255	2024-06-27T07:35:07	24.1	76
73256	2024-06-27T07:45:07	24.4	74
73257	2024-06-27T07:55:07	24.6	73.5
73258	2024-06-27T08:05:07	25.4	71.5
73259	2024-06-27T08:15:07	25.8	71
73260	2024-06-27T08:25:07	26.4	68
73261	2024-06-27T08:35:07	26.2	68
73262	2024-06-27T08:45:07	26.3	68.5
73263	2024-06-27T08:55:07	26.4	68.5
73264	2024-06-27T09:05:07	26.7	66.5
73265	2024-06-27T09:15:07	26.9	67
73266	2024-06-27T09:25:07	27.3	67
73267	2024-06-27T09:35:07	28	64
73268	2024-06-27T09:45:07	27.9	64
73269	2024-06-27T09:55:07	27.8	64
73270	2024-06-27T10:05:07	28.2	62.5
73271	2024-06-27T10:15:07	28.4	61.5
73272	2024-06-27T10:25:07	29	59
73273	2024-06-27T10:35:07	28.6	59
73274	2024-06-27T10:45:07	28.7	58.5
73275	2024-06-27T10:55:07	29	56.5
73276	2024-06-27T11:05:07	29	57.5
73277	2024-06-27T11:15:07	29.1	54.5
73278	2024-06-27T11:25:07	29.2	53
73279	2024-06-27T11:35:07	29.4	53
73280	2024-06-27T11:45:07	29.6	53.5
73281	2024-06-27T11:55:07	30	52.5
73282	2024-06-27T12:05:07	30.6	51
73283	2024-06-27T12:15:07	34.3	44.5
73284	2024-06-27T12:25:07	36.6	39.5
73285	2024-06-27T12:35:07	36.2	38.5
73286	2024-06-27T12:45:07	37.7	36.5
73287	2024-06-27T12:55:07	39.1	33.5
73288	2024-06-27T13:05:07	36.1	37
73289	2024-06-27T13:15:07	35.3	41
73290	2024-06-27T13:25:07	39.4	32.5
73291	2024-06-27T13:35:07	39	32.5
73292	2024-06-27T13:45:07	39.7	33
73293	2024-06-27T13:55:07	40.8	30.5
73294	2024-06-27T14:05:07	41.1	30.5
73295	2024-06-27T14:15:07	38.7	32
73296	2024-06-27T14:25:07	41.2	29
73297	2024-06-27T14:35:07	40.1	30
73298	2024-06-27T14:45:07	41.2	29
73299	2024-06-27T15:25:07	40	30
73300	2024-06-27T15:35:07	41.9	28.5
73301	2024-06-27T15:45:07	41.9	26
73302	2024-06-27T15:55:07	42.5	26
73303	2024-06-27T16:05:07	41.6	26.5
73304	2024-06-27T16:15:07	39.8	29
73305	2024-06-27T16:25:07	36.7	37.5
73306	2024-06-27T16:35:07	37.5	37.5
73307	2024-06-27T16:45:07	35.9	40
73308	2024-06-27T16:55:07	36.5	39.5
73309	2024-06-27T17:05:07	35.9	41
73310	2024-06-27T17:15:07	33.1	45.5
73311	2024-06-27T17:25:06	33.9	44
73312	2024-06-27T17:35:07	34.1	43
73313	2024-06-27T17:45:06	34.6	42.5
73314	2024-06-27T17:55:06	32.4	46
73315	2024-06-27T18:05:06	32.5	45
73316	2024-06-27T18:15:06	33	45
73317	2024-06-27T18:25:06	32.4	45
73318	2024-06-27T18:35:06	32.3	45.5
73319	2024-06-27T18:45:06	30.4	49.5
73320	2024-06-27T18:55:06	29.4	52.5
73321	2024-06-27T19:05:06	28.7	54.5
73322	2024-06-27T19:15:06	28.2	56
73323	2024-06-27T19:25:06	27.9	56.5
73324	2024-06-27T19:35:06	27.4	58
73325	2024-06-27T19:45:06	27.3	59
73326	2024-06-27T19:55:06	26.9	61.5
73327	2024-06-27T20:05:06	26.7	62
73328	2024-06-27T20:15:06	26.6	63
73329	2024-06-27T20:25:06	26.4	63
73330	2024-06-27T20:35:06	25.9	63.5
73331	2024-06-27T20:45:06	25.7	64.5
73332	2024-06-27T20:55:06	25.6	66
73333	2024-06-27T21:05:06	25.5	67
73334	2024-06-27T21:15:06	25.3	70
73335	2024-06-27T21:25:06	25.1	70.5
73336	2024-06-27T21:35:06	24.8	71
73337	2024-06-27T21:45:06	24.7	71.5
73338	2024-06-27T21:55:06	24.6	72
73339	2024-06-27T22:05:06	24.5	72
73340	2024-06-27T22:15:06	24.4	73
73341	2024-06-27T22:25:06	24.3	72.5
73342	2024-06-27T22:35:06	24.5	72.5
73343	2024-06-27T22:45:06	24.5	72.5
73344	2024-06-27T22:55:06	24.4	73.5
73345	2024-06-27T23:28:42	23.5	76
73346	2024-06-27T23:28:42	24	75
73347	2024-06-27T23:28:42	23.7	74
73348	2024-06-27T23:35:06	24.2	72
73349	2024-06-27T23:45:06	24.1	73
73350	2024-06-27T23:55:06	24.2	72.5
73351	2024-06-28T00:05:06	24.1	72.5
73352	2024-06-28T00:15:06	24	73
73353	2024-06-28T00:25:06	23.8	73
73354	2024-06-28T00:35:06	23.7	73.5
73355	2024-06-28T00:45:06	23.5	73.5
73356	2024-06-28T00:55:06	23.3	74.5
73357	2024-06-28T01:05:06	23.2	75.5
73358	2024-06-28T01:15:06	23.1	76
73359	2024-06-28T01:25:06	22.9	76.5
73360	2024-06-28T01:35:06	22.7	77
73361	2024-06-28T01:45:06	22.5	78
73362	2024-06-28T01:55:06	22.3	79
73363	2024-06-28T02:05:06	22	80
73364	2024-06-28T02:15:06	21.9	81
73365	2024-06-28T02:25:06	21.8	82
73366	2024-06-28T02:35:06	21.6	83
73367	2024-06-28T02:45:06	21.7	82.5
73368	2024-06-28T02:55:06	21.9	81.5
73369	2024-06-28T03:05:06	22.2	81
73370	2024-06-28T03:15:05	22	81
73371	2024-06-28T03:25:05	21.8	81.5
73372	2024-06-28T03:35:05	21.4	82
73373	2024-06-28T03:45:05	21.4	82
73374	2024-06-28T03:55:05	21.4	82.5
73375	2024-06-28T04:05:05	21.4	83
73376	2024-06-28T04:15:05	21.3	83.5
73377	2024-06-28T04:25:05	21.3	84.5
73378	2024-06-28T04:35:05	21.3	84.5
73379	2024-06-28T04:45:05	21.4	84.5
73380	2024-06-28T04:55:05	21.5	84.5
73381	2024-06-28T05:05:05	21.5	84
73382	2024-06-28T05:15:05	21.8	83
73383	2024-06-28T05:25:05	22.2	83
73384	2024-06-28T05:35:05	22.3	82
73385	2024-06-28T05:45:05	22.4	81.5
73386	2024-06-28T05:55:05	22.7	81
73387	2024-06-28T06:05:05	23.1	80
73388	2024-06-28T06:15:05	23.3	77
73389	2024-06-28T06:25:05	23.5	75
73390	2024-06-28T06:35:05	23.7	74.5
73391	2024-06-28T06:45:05	23.9	74.5
73392	2024-06-28T06:55:05	24.6	72.5
73393	2024-06-28T07:05:05	24.4	70.5
73394	2024-06-28T07:15:05	24.5	71
73395	2024-06-28T07:25:05	24.6	72
73396	2024-06-28T07:35:05	24.9	72
73397	2024-06-28T07:45:05	25	71.5
73398	2024-06-28T07:55:05	25.1	71
73399	2024-06-28T08:05:05	25.2	71.5
73400	2024-06-28T08:15:05	25.6	68.5
73401	2024-06-28T08:25:05	26.3	65.5
73402	2024-06-28T08:35:05	25.9	66
73403	2024-06-28T08:45:05	26.4	65
73404	2024-06-28T08:55:05	26.5	63.5
73405	2024-06-28T09:05:05	26.7	63.5
73406	2024-06-28T09:15:05	27.1	63
73407	2024-06-28T09:25:05	27.1	62
73408	2024-06-28T09:35:05	27.5	64.5
73409	2024-06-28T09:45:05	27.7	64.5
73410	2024-06-28T09:55:05	27.9	64
73411	2024-06-28T10:05:05	27.8	64.5
73412	2024-06-28T10:15:05	28.7	62
73413	2024-06-28T10:25:05	28.9	61.5
73414	2024-06-28T10:35:05	28.7	61
73415	2024-06-28T10:45:05	28.7	62
73416	2024-06-28T10:55:05	28.7	61
73417	2024-06-28T11:05:05	28.5	62.5
73418	2024-06-28T11:15:05	28.9	62
73419	2024-06-28T11:25:05	28.3	61.5
73420	2024-06-28T11:35:05	28.2	64
73421	2024-06-28T11:45:05	29.3	57.5
73422	2024-06-28T11:55:05	29.2	59
73423	2024-06-28T12:05:05	29.3	57.5
73424	2024-06-28T12:15:05	31.6	48.5
73425	2024-06-28T12:25:05	33.6	42
73426	2024-06-28T12:35:05	34.7	40
73427	2024-06-28T12:45:05	34.6	40.5
73428	2024-06-28T12:55:05	35.9	38
73429	2024-06-28T13:05:05	38.2	36
73430	2024-06-28T13:15:05	38.2	35.5
73431	2024-06-28T13:25:05	37.2	36
73432	2024-06-28T13:35:04	34.5	41
73433	2024-06-28T13:45:04	34.8	41
73434	2024-06-28T13:55:04	37.2	37
73435	2024-06-28T14:05:04	33.9	41
73436	2024-06-28T14:15:04	36.8	37
73437	2024-06-28T14:25:04	38.6	33
73438	2024-06-28T14:35:04	40.6	29
73439	2024-06-28T14:45:04	37.2	34
73440	2024-06-28T14:55:04	40.1	30
73441	2024-06-28T15:05:04	38.1	32
73442	2024-06-28T15:15:04	40.2	30.5
73443	2024-06-28T15:25:04	40.7	30
73444	2024-06-28T15:35:04	41.9	28
73445	2024-06-28T15:45:04	40.8	29
73446	2024-06-28T15:55:04	40.9	28.5
73447	2024-06-28T16:05:04	41.6	28.5
73448	2024-06-28T16:15:04	40.9	28.5
73449	2024-06-28T16:25:04	40.6	29.5
73450	2024-06-28T16:35:04	41.5	28.5
73451	2024-06-28T16:45:04	40.9	28.5
73452	2024-06-28T16:55:04	40	29.5
73453	2024-06-28T17:05:04	40.5	27.5
73454	2024-06-28T17:15:04	40.2	28.5
73455	2024-06-28T17:25:04	40.7	28
73456	2024-06-28T17:35:04	39.4	29.5
73457	2024-06-28T17:45:04	39	30
73458	2024-06-28T17:55:04	37.6	31
73459	2024-06-28T18:05:04	37	31.5
73460	2024-06-28T18:15:04	37	32
73461	2024-06-28T18:25:04	36	33
73462	2024-06-28T18:35:04	35.8	35
73463	2024-06-28T18:45:04	33.7	38.5
73464	2024-06-28T18:55:04	32	43.5
73465	2024-06-28T19:05:04	31.9	41.5
73466	2024-06-28T19:15:04	30.4	46
73467	2024-06-28T19:25:04	29.9	50
73468	2024-06-28T19:35:04	29.3	52.5
73469	2024-06-28T19:45:04	28.7	54
73470	2024-06-28T19:55:04	28.2	56.5
73471	2024-06-28T20:05:04	27.8	57.5
73472	2024-06-28T20:15:04	27.3	59
73473	2024-06-28T20:25:04	26.9	60.5
73474	2024-06-28T20:35:04	26.6	61
73475	2024-06-28T20:45:04	26.3	61.5
73476	2024-06-28T20:55:04	25.8	61
73477	2024-06-28T21:05:04	25.6	63
73478	2024-06-28T21:15:04	25.3	63
73479	2024-06-28T21:25:04	25.1	63
73480	2024-06-28T21:35:04	24.8	64
73481	2024-06-28T21:45:04	24.7	63.5
73482	2024-06-28T21:55:04	24.4	64.5
73483	2024-06-28T22:05:04	24.1	65
73484	2024-06-28T22:15:04	24.1	66
73485	2024-06-28T22:25:04	24	67
73486	2024-06-28T22:35:04	23.6	67.5
73487	2024-06-28T22:45:04	23.4	68
73488	2024-06-28T22:55:04	23.2	68.5
73489	2024-06-28T23:26:52	23.2	69.5
73490	2024-06-28T23:26:52	23.3	68
73491	2024-06-28T23:26:52	22.9	70
73492	2024-06-28T23:35:04	22.8	70.5
73493	2024-06-28T23:45:04	22.8	71
73494	2024-06-28T23:55:04	22.6	72
73495	2024-06-29T00:05:03	22.4	72.5
73496	2024-06-29T00:15:03	22.4	73.5
73497	2024-06-29T00:25:03	22.1	74
73498	2024-06-29T00:35:03	22.1	74
73499	2024-06-29T00:45:03	22	75
73500	2024-06-29T00:55:03	21.7	75.5
73501	2024-06-29T01:05:04	21.8	75.5
73502	2024-06-29T01:15:03	21.6	75.5
73503	2024-06-29T01:25:03	21.4	76
73504	2024-06-29T01:35:03	21.2	76.5
73505	2024-06-29T01:45:03	21.1	77
73506	2024-06-29T01:55:03	21.1	77
73507	2024-06-29T02:05:03	21	77
73508	2024-06-29T02:15:03	20.7	78
73509	2024-06-29T02:25:03	20.5	79
73510	2024-06-29T02:35:03	20.4	79.5
73511	2024-06-29T02:45:03	20.3	79.5
73512	2024-06-29T02:55:03	20.3	79.5
73513	2024-06-29T03:05:03	20.5	79.5
73514	2024-06-29T03:15:03	20.2	79.5
73515	2024-06-29T03:25:03	20.3	79
73516	2024-06-29T03:35:03	20.3	79
73517	2024-06-29T03:45:03	20.3	78.5
73518	2024-06-29T03:55:03	20.3	78.5
73519	2024-06-29T04:05:03	20.3	80.5
73520	2024-06-29T04:15:03	20.2	81.5
73521	2024-06-29T04:25:03	20.2	81.5
73522	2024-06-29T04:35:03	20.3	81
73523	2024-06-29T04:45:03	20.3	80.5
73524	2024-06-29T04:55:03	20.4	79.5
73525	2024-06-29T05:05:03	20.7	79.5
73526	2024-06-29T05:15:03	20.7	80
73527	2024-06-29T05:25:03	21	79.5
73528	2024-06-29T05:35:03	21.1	78.5
73529	2024-06-29T05:45:03	21.2	78.5
73530	2024-06-29T05:55:03	21.4	77.5
73531	2024-06-29T06:05:03	21.6	76.5
73532	2024-06-29T06:15:03	21.7	75.5
73533	2024-06-29T06:25:03	21.9	75
73534	2024-06-29T06:35:03	22.2	74.5
73535	2024-06-29T06:45:03	22.3	74.5
73536	2024-06-29T06:55:03	22.6	73.5
73537	2024-06-29T07:05:03	22.9	71.5
73538	2024-06-29T07:15:03	23	72.5
73539	2024-06-29T07:25:03	23.2	72.5
73540	2024-06-29T07:35:03	23.5	72
73541	2024-06-29T07:45:03	23.5	72.5
73542	2024-06-29T07:55:03	24	71
73543	2024-06-29T08:05:03	24.6	70
73544	2024-06-29T08:15:03	25	69.5
73545	2024-06-29T08:25:03	25.4	69.5
73546	2024-06-29T08:35:03	26	68
73547	2024-06-29T08:45:03	26.1	67
73548	2024-06-29T08:55:03	26.7	66.5
73549	2024-06-29T09:05:03	27.2	65
73550	2024-06-29T09:15:03	27.3	65.5
73551	2024-06-29T09:25:03	27.5	64
73552	2024-06-29T09:35:03	27.6	64
73553	2024-06-29T09:45:03	27.6	64
73554	2024-06-29T09:55:03	27.7	65.5
73555	2024-06-29T10:05:03	27.9	65.5
73556	2024-06-29T10:15:03	28.1	65.5
73557	2024-06-29T10:25:03	28.3	66.5
73558	2024-06-29T10:35:02	28.5	65
73559	2024-06-29T10:45:02	28.8	65
73560	2024-06-29T10:55:02	28.9	64.5
73561	2024-06-29T11:05:02	29.2	63.5
73562	2024-06-29T11:15:02	29.8	63.5
73563	2024-06-29T11:25:02	30.2	61
73564	2024-06-29T11:35:02	30.6	61.5
73565	2024-06-29T11:45:02	31.1	61.5
73566	2024-06-29T11:55:02	31.8	59.5
73567	2024-06-29T12:05:02	32.9	57
73568	2024-06-29T12:15:02	36.8	49
73569	2024-06-29T12:25:02	39.1	42.5
73570	2024-06-29T12:35:02	38.6	43.5
73571	2024-06-29T12:45:02	41.1	39.5
73572	2024-06-29T12:55:02	43.9	35.5
73573	2024-06-29T13:05:02	44.2	33.5
73574	2024-06-29T13:15:02	43.8	34.5
73575	2024-06-29T13:25:02	45.1	32.5
73576	2024-06-29T13:35:02	42.5	35.5
73577	2024-06-29T13:45:02	40.2	39.5
73578	2024-06-29T13:55:02	40.2	40
73579	2024-06-29T14:05:02	42.9	36.5
73580	2024-06-29T14:15:02	43.9	35.5
73581	2024-06-29T14:25:02	43.7	34.5
73582	2024-06-29T14:35:02	44.9	34
73583	2024-06-29T14:45:02	43.4	35.5
73584	2024-06-29T14:55:02	41	38
73585	2024-06-29T15:05:02	39.9	41
73586	2024-06-29T15:15:02	39.3	42
73587	2024-06-29T15:25:02	38.8	43
73588	2024-06-29T15:35:02	37.7	46
73589	2024-06-29T15:45:02	37.5	47.5
73590	2024-06-29T15:55:02	37.7	48.5
73591	2024-06-29T16:05:02	37.4	49.5
73592	2024-06-29T16:15:02	36.8	50
73593	2024-06-29T16:25:02	35.9	52.5
73594	2024-06-29T16:35:02	35.4	54
73595	2024-06-29T16:45:02	34.7	56
73596	2024-06-29T16:55:02	34.1	57.5
73597	2024-06-29T17:05:02	33.7	58.5
73598	2024-06-29T17:15:02	33.3	59.5
73599	2024-06-29T17:25:02	33	59.5
73600	2024-06-29T17:35:02	32.7	59
73601	2024-06-29T17:45:02	32.4	61.5
73602	2024-06-29T17:55:02	32	58
73603	2024-06-29T18:05:02	32	57.5
73604	2024-06-29T18:15:02	31.5	58.5
73605	2024-06-29T18:25:02	30.3	73.5
73606	2024-06-29T18:35:02	30.4	68
73607	2024-06-29T18:45:02	30.5	67
73608	2024-06-29T18:55:02	30.2	68
73609	2024-06-29T19:05:02	29.9	68.5
73610	2024-06-29T19:15:02	29.6	70.5
73611	2024-06-29T19:25:02	29.4	70.5
73612	2024-06-29T19:35:02	29.3	70
73613	2024-06-29T19:45:02	28.9	71.5
73614	2024-06-29T19:55:02	28.9	71
73615	2024-06-29T20:05:02	28.6	71.5
73616	2024-06-29T20:15:02	28	72.5
73617	2024-06-29T20:25:02	27.8	73.5
73618	2024-06-29T20:35:02	27.9	72.5
73619	2024-06-29T20:45:02	27.9	73
73620	2024-06-29T20:55:02	27.8	73.5
73621	2024-06-29T21:05:02	27.6	74.5
73622	2024-06-29T21:15:02	27.3	74.5
73623	2024-06-29T21:25:01	27	75
73624	2024-06-29T21:35:01	26.6	75
73625	2024-06-29T21:45:01	26.6	77.5
73626	2024-06-29T21:55:01	26.6	74.5
73627	2024-06-29T22:05:01	26.5	74
73628	2024-06-29T22:15:01	26.3	72
73629	2024-06-29T22:25:01	26.1	70.5
73630	2024-06-29T22:35:01	25.6	67
73631	2024-06-29T22:45:01	25	63
73632	2024-06-29T22:55:01	24.7	62
73633	2024-06-29T23:28:51	22	76.5
73634	2024-06-29T23:28:51	24.5	63
73635	2024-06-29T23:28:51	22.3	73
73636	2024-06-29T23:35:01	22.6	71.5
73637	2024-06-29T23:45:01	21.9	80
73638	2024-06-29T23:55:01	19.9	98
73639	2024-06-30T00:05:01	19.7	99
73640	2024-06-30T00:15:01	19.9	100
73641	2024-06-30T00:25:01	19.7	100
73642	2024-06-30T00:35:01	19.6	100
73643	2024-06-30T00:45:01	19.7	100
73644	2024-06-30T00:55:01	19.7	100
73645	2024-06-30T01:05:01	19.8	100
73646	2024-06-30T01:15:01	20	100
73647	2024-06-30T01:25:01	20.1	100
73648	2024-06-30T01:35:01	20.2	100
73649	2024-06-30T01:45:01	20.2	100
73650	2024-06-30T01:55:01	20.2	100
73651	2024-06-30T02:05:01	20.2	100
73652	2024-06-30T02:15:01	20.2	100
73653	2024-06-30T02:25:01	20.3	100
73654	2024-06-30T02:35:01	20	100
73655	2024-06-30T02:45:01	19.9	100
73656	2024-06-30T02:55:01	19.8	100
73657	2024-06-30T03:05:01	19.6	100
73658	2024-06-30T03:15:01	19.6	100
73659	2024-06-30T03:25:01	19.7	100
73660	2024-06-30T03:35:01	19.7	100
73661	2024-06-30T03:45:01	19.6	100
73662	2024-06-30T03:55:01	19.4	100
73663	2024-06-30T04:05:01	19.3	100
73664	2024-06-30T04:15:01	19.4	100
73665	2024-06-30T04:25:01	19.4	100
73666	2024-06-30T04:35:01	19.7	100
73667	2024-06-30T04:45:01	19.9	100
73668	2024-06-30T04:55:01	19.9	100
73669	2024-06-30T05:05:01	20.2	99.5
73670	2024-06-30T05:15:01	20.6	100
73671	2024-06-30T05:25:01	20.6	100
73672	2024-06-30T05:35:01	20.7	99.5
73673	2024-06-30T05:45:01	20.6	98
73674	2024-06-30T05:55:01	20.8	95.5
73675	2024-06-30T06:05:01	21	89
73676	2024-06-30T06:15:01	21	84.5
73677	2024-06-30T06:25:01	20.4	92.5
73678	2024-06-30T06:35:01	19.3	99.5
73679	2024-06-30T06:45:01	19.5	98.5
73680	2024-06-30T06:55:01	19.9	93
73681	2024-06-30T07:05:01	20.3	90
73682	2024-06-30T07:15:01	20.4	87.5
73683	2024-06-30T07:25:01	20.9	86.5
73684	2024-06-30T07:35:01	21.1	84.5
73685	2024-06-30T07:45:01	21.2	83
73686	2024-06-30T07:55:01	21.3	82.5
73687	2024-06-30T08:05:00	21.1	83
73688	2024-06-30T08:15:00	21.4	81.5
73689	2024-06-30T08:25:00	21.7	81
73690	2024-06-30T08:35:00	21.4	84.5
73691	2024-06-30T08:45:00	21.4	81.5
73692	2024-06-30T08:55:00	21.4	82
73693	2024-06-30T09:05:00	21	88.5
73694	2024-06-30T09:15:00	19.5	100
73695	2024-06-30T09:25:00	19.3	100
73696	2024-06-30T09:35:00	20	100
73697	2024-06-30T09:45:00	20.3	100
73698	2024-06-30T09:55:00	20.7	100
73699	2024-06-30T10:05:00	21	99.5
73700	2024-06-30T10:15:00	21.9	98.5
73701	2024-06-30T10:25:00	21.9	97.5
73702	2024-06-30T10:35:00	22.1	99
73703	2024-06-30T10:45:00	22.1	90.5
73704	2024-06-30T10:55:00	22.1	82
73705	2024-06-30T11:05:00	21.6	83
73706	2024-06-30T11:15:00	21.1	86
73707	2024-06-30T11:25:00	19.6	99
73708	2024-06-30T11:35:00	19.5	98.5
73709	2024-06-30T11:45:00	19.4	99
73710	2024-06-30T11:55:00	19.5	99.5
73711	2024-06-30T12:05:00	19.5	99.5
73712	2024-06-30T12:15:00	19.1	100
73713	2024-06-30T12:25:00	18.6	100
73714	2024-06-30T12:35:00	18.5	95
73715	2024-06-30T12:45:00	18.3	94
73716	2024-06-30T12:55:00	18.1	94
73717	2024-06-30T13:05:00	18.2	94
73718	2024-06-30T13:15:00	18	94.5
73719	2024-06-30T13:25:00	17.9	94.5
73720	2024-06-30T13:35:00	17.8	94.5
73721	2024-06-30T13:45:00	17.6	94.5
73722	2024-06-30T13:55:00	17.6	94.5
73723	2024-06-30T14:05:00	17.5	94.5
73724	2024-06-30T14:15:00	17.6	94.5
73725	2024-06-30T14:25:00	17.6	95
73726	2024-06-30T14:35:00	17.4	95
73727	2024-06-30T14:45:00	17.4	95
73728	2024-06-30T14:55:00	17.3	95
73729	2024-06-30T15:05:00	17.2	95.5
73730	2024-06-30T15:15:00	17.1	95.5
73731	2024-06-30T15:25:00	16.8	96
73732	2024-06-30T15:35:00	16.8	96
73733	2024-06-30T15:45:00	16.9	95.5
73734	2024-06-30T15:55:00	16.9	95.5
73735	2024-06-30T16:05:00	16.7	95.5
73736	2024-06-30T16:15:00	16.8	95.5
73737	2024-06-30T16:25:00	16.8	95.5
73738	2024-06-30T16:35:00	16.8	95.5
73739	2024-06-30T16:45:00	16.8	95.5
73740	2024-06-30T16:55:00	16.8	95.5
73741	2024-06-30T17:05:00	16.9	95.5
73742	2024-06-30T17:15:00	16.9	95.5
73743	2024-06-30T17:25:00	16.8	95.5
73744	2024-06-30T17:35:00	16.8	95.5
73745	2024-06-30T17:45:00	16.8	95.5
73746	2024-06-30T17:55:00	16.8	95.5
73747	2024-06-30T18:05:00	16.8	95.5
73748	2024-06-30T18:15:00	17	95.5
73749	2024-06-30T18:25:00	16.8	95.5
73750	2024-06-30T18:35:00	16.7	95.5
73751	2024-06-30T18:45:00	16.7	95.5
73752	2024-06-30T18:55:00	16.7	95.5
73753	2024-06-30T19:04:59	16.7	95.5
73754	2024-06-30T19:14:59	16.4	95.5
73755	2024-06-30T19:24:59	16.1	95.5
73756	2024-06-30T19:34:59	15.8	95.5
73757	2024-06-30T19:44:59	15.6	95.5
73758	2024-06-30T19:55:00	15.6	95.5
73759	2024-06-30T20:04:59	15.4	95.5
73760	2024-06-30T20:14:59	15.4	95.5
73761	2024-06-30T20:24:59	15.2	95.5
73762	2024-06-30T20:34:59	15.2	95.5
73763	2024-06-30T20:44:59	15.1	95.5
73764	2024-06-30T20:54:59	15.1	95.5
73765	2024-06-30T21:04:59	15	95.5
73766	2024-06-30T21:14:59	15.1	95.5
73767	2024-06-30T21:24:59	15.2	95.5
73768	2024-06-30T21:34:59	15.4	95.5
73769	2024-06-30T21:44:59	15.5	95.5
73770	2024-06-30T21:54:59	15.2	95.5
73771	2024-06-30T22:04:59	15.2	95.5
73772	2024-06-30T22:14:59	14.9	95.5
73773	2024-06-30T22:24:59	15.1	95.5
73774	2024-06-30T22:34:59	15.1	95.5
73775	2024-06-30T22:44:59	15.1	95.5
73776	2024-06-30T22:54:59	15.1	95.5
73777	2024-06-30T23:29:46	14.9	96
73778	2024-06-30T23:29:46	15.1	95.5
73779	2024-06-30T23:29:46	14.7	95.5
73780	2024-06-30T23:34:59	14.6	96
73781	2024-06-30T23:44:59	14.4	96
73782	2024-06-30T23:54:59	14.3	95.5
73783	2024-07-01T00:04:59	14.4	96
73784	2024-07-01T00:14:59	14.3	95.5
73785	2024-07-01T00:24:59	14.3	96
73786	2024-07-01T00:34:59	14.4	96
73787	2024-07-01T00:44:59	14.3	96
73788	2024-07-01T00:54:59	14.4	96
73789	2024-07-01T01:04:59	14.1	96
73790	2024-07-01T01:14:59	14	96
73791	2024-07-01T01:24:59	14.1	96
73792	2024-07-01T01:34:59	14.2	96
73793	2024-07-01T01:44:59	14.1	96
73794	2024-07-01T01:54:59	14.1	96
73795	2024-07-01T02:04:59	14	96
73796	2024-07-01T02:15:19	14.3	96
73797	2024-07-01T02:24:59	14.5	96
73798	2024-07-01T02:34:59	14.6	96
73799	2024-07-01T02:44:59	14.7	96
73800	2024-07-01T02:54:59	14.8	96
73801	2024-07-01T03:04:59	14.8	96
73802	2024-07-01T03:14:59	14.7	96
73803	2024-07-01T03:24:59	14.9	96
73804	2024-07-01T03:34:59	14.8	96
73805	2024-07-01T03:44:59	15	96
73806	2024-07-01T03:54:59	15.1	96
73807	2024-07-01T04:04:59	15.1	96
73808	2024-07-01T04:14:59	15.2	96
73809	2024-07-01T04:24:59	15.3	96
73810	2024-07-01T04:34:59	15.5	96
73811	2024-07-01T04:44:59	15.7	96
73812	2024-07-01T04:54:59	15.7	96
73813	2024-07-01T05:04:59	16.1	96
73814	2024-07-01T05:14:59	16.4	96
73815	2024-07-01T05:24:59	16.4	96
73816	2024-07-01T05:34:59	16.4	96
73817	2024-07-01T05:44:59	16.5	96
73818	2024-07-01T05:54:59	16.6	96
73819	2024-07-01T06:04:59	16.6	96
73820	2024-07-01T06:14:59	16.7	96
73821	2024-07-01T06:24:59	17	96
73822	2024-07-01T06:34:59	17.2	96
73823	2024-07-01T06:44:59	17.5	96
73824	2024-07-01T06:54:59	17.3	96
73825	2024-07-01T07:04:59	18	96
73826	2024-07-01T07:14:59	18.1	96
73827	2024-07-01T07:24:59	18.6	96
73828	2024-07-01T07:34:58	18.9	96
73829	2024-07-01T07:44:58	19	96
73830	2024-07-01T07:54:58	19.3	96
73831	2024-07-01T08:04:58	19	96
73832	2024-07-01T08:14:58	18.8	96
73833	2024-07-01T08:24:58	18	96
73834	2024-07-01T08:34:58	17.2	96
73835	2024-07-01T08:44:58	17	96
73836	2024-07-01T08:54:58	17.2	96
73837	2024-07-01T09:04:58	17.7	96
73838	2024-07-01T09:14:58	18	96
73839	2024-07-01T09:24:58	17.9	96
73840	2024-07-01T09:34:58	17.5	96
73841	2024-07-01T09:44:58	16.9	96
73842	2024-07-01T09:54:58	17.9	96
73843	2024-07-01T10:04:58	17.6	96
73844	2024-07-01T10:14:58	17.7	96
73845	2024-07-01T10:24:58	17	96
73846	2024-07-01T10:34:58	16.7	96
73847	2024-07-01T10:44:58	16.7	96
73848	2024-07-01T10:54:58	16.9	96
73849	2024-07-01T11:04:58	18	96
73850	2024-07-01T11:14:58	18.7	96
73851	2024-07-01T11:24:58	18.5	96
73852	2024-07-01T11:34:58	18.4	96
73853	2024-07-01T11:44:58	18.1	96
73854	2024-07-01T11:54:58	18	96
73855	2024-07-01T12:04:58	18.1	96
73856	2024-07-01T12:14:58	18.5	96
73857	2024-07-01T12:24:58	18.8	96
73858	2024-07-01T12:34:58	19.1	96
73859	2024-07-01T12:44:58	19.7	96
73860	2024-07-01T12:54:58	19.9	96
73861	2024-07-01T13:04:58	20.2	96
73862	2024-07-01T13:14:58	23.4	96
73863	2024-07-01T13:24:58	20.2	99
73864	2024-07-01T13:34:58	18.3	100
73865	2024-07-01T13:44:58	19.3	100
73866	2024-07-01T13:54:58	24.4	100
73867	2024-07-01T14:04:58	26.9	100
73868	2024-07-01T14:14:58	28.4	100
73869	2024-07-01T14:24:58	26.8	100
73870	2024-07-01T14:34:58	29.6	57
73871	2024-07-01T14:44:58	27.1	62.5
73872	2024-07-01T14:54:58	29.2	59
73873	2024-07-01T15:04:58	33.7	44
73874	2024-07-01T15:14:58	30.9	48
73875	2024-07-01T15:24:58	27.8	47
73876	2024-07-01T15:34:58	24.6	56
73877	2024-07-01T15:44:58	23.8	68
73878	2024-07-01T15:54:58	23.3	69.5
73879	2024-07-01T16:04:58	23	67
73880	2024-07-01T16:14:58	23	66.5
73881	2024-07-01T16:24:58	22.4	68.5
73882	2024-07-01T16:34:58	22.4	68.5
73883	2024-07-01T16:44:58	25.4	58
73884	2024-07-01T16:54:58	24.8	59.5
73885	2024-07-01T17:04:58	23.9	66.5
73886	2024-07-01T17:14:58	24.5	60.5
73887	2024-07-01T17:24:58	30.4	47
73888	2024-07-01T17:34:58	30.8	45.5
73889	2024-07-01T17:44:58	26.3	54
73890	2024-07-01T17:54:58	26.3	52
73891	2024-07-01T18:04:58	24.5	60
73892	2024-07-01T18:14:58	23.1	67
73893	2024-07-01T18:24:57	22.4	67.5
73894	2024-07-01T18:34:57	22	67.5
73895	2024-07-01T18:44:57	21.5	68
73896	2024-07-01T18:54:57	21.6	74
73897	2024-07-01T19:04:57	20.7	70.5
73898	2024-07-01T19:14:57	20.1	75
73899	2024-07-01T19:24:57	19.5	82
73900	2024-07-01T19:34:57	19.3	85
73901	2024-07-01T19:44:57	19.4	84.5
73902	2024-07-01T19:54:57	19.3	82.5
73903	2024-07-01T20:04:57	18.9	83.5
73904	2024-07-01T20:14:57	18.7	84.5
73905	2024-07-01T20:24:57	18.5	85
73906	2024-07-01T20:34:57	18.5	85
73907	2024-07-01T20:44:57	18.2	84
73908	2024-07-01T20:54:57	18	84.5
73909	2024-07-01T21:04:57	18.1	83
73910	2024-07-01T21:14:57	18.1	84
73911	2024-07-01T21:24:57	17.9	86
73912	2024-07-01T21:34:57	17.7	83.5
73913	2024-07-01T21:44:57	17.7	84.5
73914	2024-07-01T21:54:57	17.5	85
73915	2024-07-01T22:04:57	17.2	85
73916	2024-07-01T22:14:57	17	85.5
73917	2024-07-01T22:24:57	17	86.5
73918	2024-07-01T22:34:57	16.9	87
73919	2024-07-01T22:44:57	16.8	87.5
73920	2024-07-01T22:54:57	16.7	87
73921	2024-07-01T23:29:40	15.7	90
73922	2024-07-01T23:29:40	16.3	88
73923	2024-07-01T23:29:57	15.9	89
73924	2024-07-01T23:34:57	15.4	89.5
73925	2024-07-01T23:44:57	15.5	89.5
73926	2024-07-01T23:54:57	15.8	87.5
73927	2024-07-02T00:04:57	15.5	88
73928	2024-07-02T00:14:57	15.3	89
73929	2024-07-02T00:24:57	15.4	88.5
73930	2024-07-02T00:34:57	15.3	89
73931	2024-07-02T00:44:57	15.2	90
73932	2024-07-02T00:54:57	15.4	90
73933	2024-07-02T01:04:57	15.5	91
73934	2024-07-02T01:14:57	15.5	90.5
73935	2024-07-02T01:24:57	15.4	91
73936	2024-07-02T01:34:57	15.4	91
73937	2024-07-02T01:44:57	15.4	91.5
73938	2024-07-02T01:54:57	15.4	92
73939	2024-07-02T02:04:57	15.3	92
73940	2024-07-02T02:14:57	15.2	91.5
73941	2024-07-02T02:24:57	15.1	92
73942	2024-07-02T02:34:57	15.1	91.5
73943	2024-07-02T02:44:57	15	93
73944	2024-07-02T02:54:57	15	93
73945	2024-07-02T03:04:57	14.7	90.5
73946	2024-07-02T03:14:57	14.9	89
73947	2024-07-02T03:24:57	14.8	89.5
73948	2024-07-02T03:34:57	14.7	90.5
73949	2024-07-02T03:44:57	14.7	89.5
73950	2024-07-02T03:54:57	14.7	89
73951	2024-07-02T04:04:57	14.8	90
73952	2024-07-02T04:14:57	14.6	89.5
73953	2024-07-02T04:24:57	14.6	89
73954	2024-07-02T04:34:57	14.6	89.5
73955	2024-07-02T04:44:57	14.5	90
73956	2024-07-02T04:54:57	14.6	89
73957	2024-07-02T05:04:57	14.9	88
73958	2024-07-02T05:14:57	15.1	87
73959	2024-07-02T05:24:57	15.1	86.5
73960	2024-07-02T05:34:57	15.3	86
73961	2024-07-02T05:44:57	15.4	85.5
73962	2024-07-02T05:54:57	15.5	85.5
73963	2024-07-02T06:04:57	15.9	84
73964	2024-07-02T06:14:56	16	83
73965	2024-07-02T06:24:56	16.3	81
73966	2024-07-02T06:34:56	16.7	79
73967	2024-07-02T06:44:56	16.8	79.5
73968	2024-07-02T06:54:56	16.8	77.5
73969	2024-07-02T07:04:56	16.7	78.5
73970	2024-07-02T07:24:56	17.4	75.5
73971	2024-07-02T07:34:56	18	74.5
73972	2024-07-02T07:44:56	18.3	74
73973	2024-07-02T07:54:56	18.9	65
73974	2024-07-02T08:04:56	19.2	64.5
73975	2024-07-02T08:14:56	19.2	65
73976	2024-07-02T08:24:56	19.2	66.5
73977	2024-07-02T08:34:56	19.6	65
73978	2024-07-02T08:44:56	19.5	65
73979	2024-07-02T08:54:56	19.5	64.5
73980	2024-07-02T09:04:56	19.6	63.5
73981	2024-07-02T09:14:56	19.7	63.5
73982	2024-07-02T09:24:56	19.9	63.5
73983	2024-07-02T09:34:56	19.9	64
73984	2024-07-02T09:44:56	20	63.5
73985	2024-07-02T09:54:56	20.6	63
73986	2024-07-02T10:04:56	20.4	63.5
73987	2024-07-02T10:14:56	20.4	63
73988	2024-07-02T10:24:56	20.1	62.5
73989	2024-07-02T10:34:56	20.2	61.5
73990	2024-07-02T10:44:56	20.9	60
73991	2024-07-02T10:54:56	21.3	55.5
73992	2024-07-02T11:04:56	21.7	55.5
73993	2024-07-02T11:14:56	21.9	56
73994	2024-07-02T11:24:56	22.2	55
73995	2024-07-02T11:34:56	22.2	56
73996	2024-07-02T11:44:56	20.8	61.5
73997	2024-07-02T11:54:56	17.7	87
73998	2024-07-02T12:04:56	16.9	94
73999	2024-07-02T12:14:56	16.5	99
74000	2024-07-02T12:24:56	16.2	100
74001	2024-07-02T12:34:56	16	100
74002	2024-07-02T12:44:56	15.7	100
74003	2024-07-02T12:54:56	15.5	97
74004	2024-07-02T13:04:56	15.6	97
74005	2024-07-02T13:14:56	15.9	97.5
74006	2024-07-02T13:24:56	15.7	97.5
74007	2024-07-02T13:34:56	15.5	97.5
74008	2024-07-02T13:44:56	15.4	100
74009	2024-07-02T13:54:56	15.3	100
74010	2024-07-02T14:04:56	15.1	100
74011	2024-07-02T14:14:56	15.1	100
74012	2024-07-02T14:24:56	15.5	100
74013	2024-07-02T14:34:56	15.5	100
74014	2024-07-02T14:44:56	15.4	100
74015	2024-07-02T14:54:56	15.3	100
74016	2024-07-02T15:04:56	15.1	100
74017	2024-07-02T15:14:56	15.1	100
74018	2024-07-02T15:24:56	15.3	100
74019	2024-07-02T15:34:56	15.2	100
74020	2024-07-02T15:44:56	15.2	100
74021	2024-07-02T15:54:56	15.1	100
74022	2024-07-02T16:04:56	15.3	100
74023	2024-07-02T16:14:56	15.2	100
74024	2024-07-02T16:24:56	15.2	100
74025	2024-07-02T16:34:56	14.9	100
74026	2024-07-02T16:44:56	14.8	100
74027	2024-07-02T16:54:56	14.8	100
74028	2024-07-02T17:04:56	14.8	100
74029	2024-07-02T17:14:56	14.8	100
74030	2024-07-02T17:24:56	14.8	100
74031	2024-07-02T17:34:56	15	100
74032	2024-07-02T17:44:56	15.1	100
74033	2024-07-02T17:54:56	15	100
74034	2024-07-02T18:04:55	14.9	100
74035	2024-07-02T18:14:55	14.9	100
74036	2024-07-02T18:24:55	14.9	100
74037	2024-07-02T18:34:55	14.7	100
74038	2024-07-02T18:44:55	14.6	100
74039	2024-07-02T18:54:55	14.4	100
74040	2024-07-02T19:04:55	14.4	100
74041	2024-07-02T19:14:55	14.4	100
74042	2024-07-02T19:24:55	14.3	100
74043	2024-07-02T19:34:55	14.2	100
74044	2024-07-02T19:44:55	14.2	100
74045	2024-07-02T19:54:55	14.1	100
74046	2024-07-02T20:04:55	14.3	100
74047	2024-07-02T20:14:55	14.3	100
74048	2024-07-02T20:24:55	14.4	100
74049	2024-07-02T20:34:55	14.3	100
74050	2024-07-02T20:44:55	14.2	100
74051	2024-07-02T20:54:55	14.1	100
74052	2024-07-02T21:04:55	14.1	99.5
74053	2024-07-02T21:14:55	14	99
74054	2024-07-02T21:24:55	14.1	97.5
74055	2024-07-02T21:34:55	14	97
74056	2024-07-02T21:44:55	14	96
74057	2024-07-02T21:54:55	14	95.5
74058	2024-07-02T22:04:55	14	95
74059	2024-07-02T22:14:55	14	95
74060	2024-07-02T22:24:55	14.1	95
74061	2024-07-02T22:34:55	14.1	95
74062	2024-07-02T22:44:55	14.1	95.5
74063	2024-07-02T22:54:55	14.2	95.5
74064	2024-07-02T23:29:48	14.2	95
74065	2024-07-02T23:29:48	14.2	95
74066	2024-07-02T23:29:48	14.3	95.5
74067	2024-07-02T23:34:55	14.3	95.5
74068	2024-07-02T23:44:55	14.2	95.5
74069	2024-07-02T23:54:55	14.1	95.5
74070	2024-07-03T00:04:55	14.1	95.5
74071	2024-07-03T00:14:55	14.1	95.5
74072	2024-07-03T00:24:55	14	95.5
74073	2024-07-03T00:34:55	14	95.5
74074	2024-07-03T00:44:55	14	95.5
74075	2024-07-03T00:54:55	14	95.5
74076	2024-07-03T01:04:55	14	95.5
74077	2024-07-03T01:14:55	14	95.5
74078	2024-07-03T01:24:55	14.1	95.5
74079	2024-07-03T01:34:55	14.2	95.5
74080	2024-07-03T01:44:55	14.1	95.5
74081	2024-07-03T01:54:55	14.2	95.5
74082	2024-07-03T02:04:55	14.1	95.5
74083	2024-07-03T02:14:55	14.1	95.5
74084	2024-07-03T02:24:55	14	95.5
74085	2024-07-03T02:34:55	13.9	95.5
74086	2024-07-03T02:44:55	14	95.5
74087	2024-07-03T02:54:55	14	95.5
74088	2024-07-03T03:04:55	14	95.5
74089	2024-07-03T03:14:55	13.8	96
74090	2024-07-03T03:24:55	13.9	96
74091	2024-07-03T03:34:55	13.9	96
74092	2024-07-03T03:44:55	14	96
74093	2024-07-03T03:54:55	13.9	96
74094	2024-07-03T04:04:55	13.9	96
74095	2024-07-03T04:14:55	13.8	96
74096	2024-07-03T04:24:55	14	96
74097	2024-07-03T04:34:55	13.9	96
74098	2024-07-03T04:44:55	14	96
74099	2024-07-03T04:54:55	14.1	96
74100	2024-07-03T05:04:55	14.3	96
74101	2024-07-03T05:14:55	14.5	96
74102	2024-07-03T05:24:55	14.8	96
74103	2024-07-03T05:34:55	14.6	96
74104	2024-07-03T05:44:55	14.8	96
74105	2024-07-03T05:54:55	14.9	96
74106	2024-07-03T06:04:55	15	96
74107	2024-07-03T06:14:55	14.9	96
74108	2024-07-03T06:24:55	15.1	96
74109	2024-07-03T06:34:55	15.3	96
74110	2024-07-03T06:44:55	15.6	96
74111	2024-07-03T06:54:55	15.9	96
74112	2024-07-03T07:04:54	16	96
74113	2024-07-03T07:14:55	15.5	96
74114	2024-07-03T07:24:54	15.8	96
74115	2024-07-03T07:34:54	16.1	96
74116	2024-07-03T07:44:54	15.9	96
74117	2024-07-03T07:54:54	16.2	96
74118	2024-07-03T08:04:54	16.5	96
74119	2024-07-03T08:14:54	17.2	96
74120	2024-07-03T08:24:54	17.5	95.5
74121	2024-07-03T08:34:54	17.8	96
74122	2024-07-03T08:44:54	17.1	95.5
74123	2024-07-03T08:54:54	15.7	96
74124	2024-07-03T09:04:54	16	96
74125	2024-07-03T09:14:54	16.7	96
74126	2024-07-03T09:24:54	17.1	96
74127	2024-07-03T09:34:54	16.9	96
74128	2024-07-03T09:44:54	17.1	96
74129	2024-07-03T09:54:54	17.2	96
74130	2024-07-03T10:04:54	17.3	96
74131	2024-07-03T10:14:54	17.7	96
74132	2024-07-03T10:24:54	18	95.5
74133	2024-07-03T10:34:54	18.8	95.5
74134	2024-07-03T10:44:54	18.2	96
74135	2024-07-03T10:54:54	18.1	96
74136	2024-07-03T11:04:54	17.7	95.5
74137	2024-07-03T11:14:54	16.5	96
74138	2024-07-03T11:24:54	16.9	96
74139	2024-07-03T11:34:54	16.7	96
74140	2024-07-03T11:44:54	16.6	96
74141	2024-07-03T11:54:54	15.8	96
74142	2024-07-03T12:04:54	15.6	96
74143	2024-07-03T12:14:54	15.3	96
74144	2024-07-03T12:24:54	14.7	96
74145	2024-07-03T12:34:54	14.4	96
74146	2024-07-03T12:44:54	14.8	96
74147	2024-07-03T12:54:54	14.9	96
74148	2024-07-03T13:04:54	14.6	96
74149	2024-07-03T13:14:54	14.3	96.5
74150	2024-07-03T13:24:54	14.6	96.5
74151	2024-07-03T13:34:54	14.5	96.5
74152	2024-07-03T13:44:54	14.4	96.5
74153	2024-07-03T13:54:54	14.5	96.5
74154	2024-07-03T14:04:54	14.8	96.5
74155	2024-07-03T14:14:54	14.8	96.5
74156	2024-07-03T14:24:54	14.9	96.5
74157	2024-07-03T14:34:54	15.2	96.5
74158	2024-07-03T14:44:54	15.5	96.5
74159	2024-07-03T14:54:54	15.9	96.5
74160	2024-07-03T15:04:54	15.9	96.5
74161	2024-07-03T15:14:54	16	96.5
74162	2024-07-03T15:24:54	15.6	96.5
74163	2024-07-03T15:34:54	15.8	96.5
74164	2024-07-03T15:44:54	15.3	96.5
74165	2024-07-03T15:54:54	14.9	96.5
74166	2024-07-03T16:04:54	14.8	96.5
74167	2024-07-03T16:14:54	14.5	96.5
74168	2024-07-03T16:24:54	14.5	96.5
74169	2024-07-03T16:34:54	14.7	96.5
74170	2024-07-03T16:44:54	14.9	96.5
74171	2024-07-03T16:54:54	14.8	96.5
74172	2024-07-03T17:04:54	14.7	96.5
74173	2024-07-03T17:14:54	14.6	96.5
74174	2024-07-03T17:24:54	14.6	96.5
74175	2024-07-03T17:34:54	14.5	96.5
74176	2024-07-03T17:44:54	14.4	96.5
74177	2024-07-03T17:54:54	14.3	96.5
74178	2024-07-03T18:04:54	14.2	96.5
74179	2024-07-03T18:14:54	14	96.5
74180	2024-07-03T18:24:54	13.9	96.5
74181	2024-07-03T18:34:54	13.8	96.5
74182	2024-07-03T18:44:54	13.7	96.5
74183	2024-07-03T18:54:54	13.6	96.5
74184	2024-07-03T19:04:54	13.4	96.5
74185	2024-07-03T19:14:54	13.3	96.5
74186	2024-07-03T19:34:53	13.2	96.5
74187	2024-07-03T19:44:53	13.1	96.5
74188	2024-07-03T19:54:53	13.1	96.5
74189	2024-07-03T20:04:53	13.1	96.5
74190	2024-07-03T20:14:53	13.2	96.5
74191	2024-07-03T20:24:53	13.1	96.5
74192	2024-07-03T20:34:53	13.3	96.5
74193	2024-07-03T20:44:53	13.3	96.5
74194	2024-07-03T20:54:53	13.2	96.5
74195	2024-07-03T21:04:53	13.3	96.5
74196	2024-07-03T21:14:53	13.4	96.5
74197	2024-07-03T21:24:53	13.2	96.5
74198	2024-07-03T21:34:53	13.4	96.5
74199	2024-07-03T21:44:53	13.3	96.5
74200	2024-07-03T21:54:53	13.5	96.5
74201	2024-07-03T22:04:53	13	96.5
74202	2024-07-03T22:14:53	13	96.5
74203	2024-07-03T22:24:53	13	96.5
74204	2024-07-03T22:34:53	13.1	96.5
74205	2024-07-03T22:44:53	13	96.5
74206	2024-07-03T22:54:53	13.1	96.5
74207	2024-07-03T23:30:46	13.2	96.5
74208	2024-07-03T23:30:46	13.3	96.5
74209	2024-07-03T23:30:46	13.5	96.5
74210	2024-07-03T23:34:53	13.6	96.5
74211	2024-07-03T23:44:53	13.5	96.5
74212	2024-07-03T23:54:53	13.4	96.5
74213	2024-07-04T00:04:53	13.2	96.5
74214	2024-07-04T00:14:53	13.3	96.5
74215	2024-07-04T00:24:53	13.2	96.5
74216	2024-07-04T00:34:53	13.1	96.5
74217	2024-07-04T00:44:53	13	96.5
74218	2024-07-04T00:54:53	12.7	96.5
74219	2024-07-04T01:04:53	12.6	96.5
74220	2024-07-04T01:14:53	12.9	96.5
74221	2024-07-04T01:24:53	13	96.5
74222	2024-07-04T01:34:53	13.1	96.5
74223	2024-07-04T01:44:53	13.3	96.5
74224	2024-07-04T01:54:53	13.4	96.5
74225	2024-07-04T02:04:53	13.4	96.5
74226	2024-07-04T02:14:53	13.6	96.5
74227	2024-07-04T02:24:53	13.7	96.5
74228	2024-07-04T02:34:53	13.7	96.5
74229	2024-07-04T02:44:53	13.8	96.5
74230	2024-07-04T02:54:53	13.9	96.5
74231	2024-07-04T03:04:53	13.8	96.5
74232	2024-07-04T03:14:53	14	96.5
74233	2024-07-04T03:25:13	14.1	96.5
74234	2024-07-04T03:34:53	14.3	96.5
74235	2024-07-04T03:44:53	14.5	96.5
74236	2024-07-04T03:54:53	14.6	96.5
74237	2024-07-04T04:04:53	14.9	96.5
74238	2024-07-04T04:14:53	14.9	96.5
74239	2024-07-04T04:24:53	15	96.5
74240	2024-07-04T04:34:53	15.4	96.5
74241	2024-07-04T04:44:53	15.4	96.5
74242	2024-07-04T04:54:53	15.1	96.5
74243	2024-07-04T05:04:53	15.3	97
74244	2024-07-04T05:14:53	15.4	97
74245	2024-07-04T05:24:53	15.5	97
74246	2024-07-04T05:34:53	15.5	97
74247	2024-07-04T05:44:53	15.5	97
74248	2024-07-04T05:54:53	15.8	97
74249	2024-07-04T06:04:53	16.1	97
74250	2024-07-04T06:14:53	16.1	96.5
74251	2024-07-04T06:24:53	16.3	96.5
74252	2024-07-04T06:34:53	16.6	96.5
74253	2024-07-04T06:44:53	16.9	96.5
74254	2024-07-04T06:54:53	17	96.5
74255	2024-07-04T07:04:53	17.3	96.5
74256	2024-07-04T07:14:53	17.5	96.5
74257	2024-07-04T07:24:53	17.6	96.5
74258	2024-07-04T07:34:53	17.9	96.5
74259	2024-07-04T07:44:53	17.8	96.5
74260	2024-07-04T07:54:53	18.1	96.5
74261	2024-07-04T08:04:53	18.2	96.5
74262	2024-07-04T08:14:52	17.9	99.5
74263	2024-07-04T08:24:52	18	99.5
74264	2024-07-04T08:34:52	18.2	100
74265	2024-07-04T08:44:52	17.9	100
74266	2024-07-04T08:54:52	18.4	100
74267	2024-07-04T09:04:52	18.6	100
74268	2024-07-04T09:14:52	18.9	100
74269	2024-07-04T09:24:52	18.4	100
74270	2024-07-04T09:34:52	17.3	100
74271	2024-07-04T09:44:52	16.2	100
74272	2024-07-04T09:54:52	16.1	100
74273	2024-07-04T10:04:52	16	100
74274	2024-07-04T10:14:52	16.2	100
74275	2024-07-04T10:24:52	16.8	100
74276	2024-07-04T10:34:52	17.8	100
74277	2024-07-04T10:44:52	18.5	100
74278	2024-07-04T10:54:52	19.3	100
74279	2024-07-04T11:04:52	19.4	100
74280	2024-07-04T11:14:52	19.2	100
74281	2024-07-04T11:24:52	18.8	100
74282	2024-07-04T11:34:52	19.3	100
74283	2024-07-04T11:44:52	20.3	100
74284	2024-07-04T11:54:52	21	100
74285	2024-07-04T12:04:52	20.7	100
74286	2024-07-04T12:14:52	20.2	100
74287	2024-07-04T12:24:52	19	100
74288	2024-07-04T12:34:52	17.6	100
74289	2024-07-04T12:44:52	16.9	99.5
74290	2024-07-04T12:54:52	17.2	99
74291	2024-07-04T13:04:52	17.4	98.5
74292	2024-07-04T13:14:52	17.7	97.5
74293	2024-07-04T13:24:52	17.8	97.5
74294	2024-07-04T13:34:52	18.3	97.5
74295	2024-07-04T13:44:52	17.7	97.5
74296	2024-07-04T13:54:52	19.3	97.5
74297	2024-07-04T14:04:52	21.1	97
74298	2024-07-04T14:14:52	19.8	97
74299	2024-07-04T14:24:52	21.7	97
74300	2024-07-04T14:34:52	20.4	97
74301	2024-07-04T14:44:52	20.1	97
74302	2024-07-04T14:54:52	21.8	97
74303	2024-07-04T15:04:52	25	97
74304	2024-07-04T15:14:52	26.4	97
74305	2024-07-04T15:24:52	22.6	97
74306	2024-07-04T15:34:52	21.2	96.5
74307	2024-07-04T15:44:52	20.4	99.5
74308	2024-07-04T15:54:52	22.6	99.5
74309	2024-07-04T16:04:52	22.2	99.5
74310	2024-07-04T16:14:52	26.9	99.5
74311	2024-07-04T16:24:52	22.4	99.5
74312	2024-07-04T16:34:52	26	99.5
74313	2024-07-04T16:44:52	26.1	100
74314	2024-07-04T16:54:52	24.5	80.5
74315	2024-07-04T17:04:52	24.9	71
74316	2024-07-04T17:14:52	26.7	65.5
74317	2024-07-04T17:24:52	26.8	63.5
74318	2024-07-04T17:34:52	26.9	53.5
74319	2024-07-04T17:44:52	27.2	53
74320	2024-07-04T17:54:52	26.8	49.5
74321	2024-07-04T18:04:52	26.5	46.5
74322	2024-07-04T18:14:52	25.6	48.5
74323	2024-07-04T18:24:52	25	52
74324	2024-07-04T18:34:52	24.9	51
74325	2024-07-04T18:44:52	23.8	53.5
74326	2024-07-04T18:54:51	23.1	55
74327	2024-07-04T19:04:51	22.1	59
74328	2024-07-04T19:14:51	20.1	66.5
74329	2024-07-04T19:24:51	19.3	68.5
74330	2024-07-04T19:34:51	18.7	70
74331	2024-07-04T19:44:52	18.2	71
74332	2024-07-04T19:54:51	17.9	72.5
74333	2024-07-04T20:04:51	17.6	71.5
74334	2024-07-04T20:14:51	17.3	72.5
74335	2024-07-04T20:24:51	17.2	73
74336	2024-07-04T20:34:51	17	73
74337	2024-07-04T20:44:51	16.6	74.5
74338	2024-07-04T20:54:51	16.4	76
74339	2024-07-04T21:04:51	16.3	77.5
74340	2024-07-04T21:14:51	16.1	77.5
74341	2024-07-04T21:24:51	15.9	78
74342	2024-07-04T21:34:51	15.8	77.5
74343	2024-07-04T21:44:51	15.6	78.5
74344	2024-07-04T21:54:51	15.7	78
74345	2024-07-04T22:04:51	15.5	79
74346	2024-07-04T22:14:51	15.5	80.5
74347	2024-07-04T22:24:51	15	80.5
74348	2024-07-04T22:34:51	14.9	81.5
74349	2024-07-04T22:44:51	14.8	82.5
74350	2024-07-04T22:54:51	14.7	83
74351	2024-07-04T23:28:47	14.4	85.5
74352	2024-07-04T23:28:48	14.3	85.5
74353	2024-07-04T23:28:48	14.2	87
74354	2024-07-04T23:34:51	14.1	88
74355	2024-07-04T23:44:51	13.7	91
74356	2024-07-04T23:54:51	13.6	92.5
74357	2024-07-05T00:04:51	13.3	93
74358	2024-07-05T00:14:51	13.1	94
74359	2024-07-05T00:24:51	13	94.5
74360	2024-07-05T00:34:51	13.3	94
74361	2024-07-05T00:44:51	13.5	92.5
74362	2024-07-05T00:54:51	13.7	91.5
74363	2024-07-05T01:04:51	13.4	92.5
74364	2024-07-05T01:14:51	13.2	94
74365	2024-07-05T01:24:51	12.9	95
74366	2024-07-05T01:34:51	12.8	95.5
74367	2024-07-05T01:44:51	12.7	96
74368	2024-07-05T01:54:51	12.5	96.5
74369	2024-07-05T02:04:51	12.5	97.5
74370	2024-07-05T02:14:51	12.6	97.5
74371	2024-07-05T02:24:51	12.4	97.5
74372	2024-07-05T02:34:51	12.2	98.5
74373	2024-07-05T02:44:51	12.1	99
74374	2024-07-05T02:54:51	12	99.5
74375	2024-07-05T03:04:51	11.9	100
74376	2024-07-05T03:14:51	11.8	100
74377	2024-07-05T03:24:51	11.7	100
74378	2024-07-05T03:34:51	11.7	100
74379	2024-07-05T03:44:51	11.7	100
74380	2024-07-05T03:54:51	11.6	100
74381	2024-07-05T04:04:51	11.7	100
74382	2024-07-05T04:14:51	11.8	100
74383	2024-07-05T04:24:51	11.9	100
74384	2024-07-05T04:34:51	12	100
74385	2024-07-05T04:44:51	12.2	100
74386	2024-07-05T04:54:51	12.4	100
74387	2024-07-05T05:04:51	12.9	100
74388	2024-07-05T05:14:51	13.5	97.5
74389	2024-07-05T05:24:51	13.9	96.5
74390	2024-07-05T05:34:51	14.2	95
74391	2024-07-05T05:44:51	14.4	93.5
74392	2024-07-05T05:54:51	14.8	91.5
74393	2024-07-05T06:04:51	15	91
74394	2024-07-05T06:14:51	15.4	89
74395	2024-07-05T06:24:51	15.7	87
74396	2024-07-05T06:34:51	15.9	84.5
74397	2024-07-05T06:44:51	16	82.5
74398	2024-07-05T06:54:51	16.1	84
74399	2024-07-05T07:04:51	16.5	83
74400	2024-07-05T07:14:51	16.7	83.5
74401	2024-07-05T07:24:51	17	82.5
74402	2024-07-05T07:34:51	17.5	80
74403	2024-07-05T07:44:50	17.8	80.5
74404	2024-07-05T07:54:50	18	78.5
74405	2024-07-05T08:04:51	18.4	76
74406	2024-07-05T08:14:50	19	70.5
74407	2024-07-05T08:24:50	19.6	68.5
74408	2024-07-05T08:34:50	19.5	60
74409	2024-07-05T08:44:50	20	59
74410	2024-07-05T08:54:50	20.1	59.5
74411	2024-07-05T09:04:50	20.2	59
74412	2024-07-05T09:14:50	20.7	59
74413	2024-07-05T09:24:50	20.8	57
74414	2024-07-05T09:34:50	21.4	56.5
74415	2024-07-05T09:44:50	21.5	53.5
74416	2024-07-05T09:54:50	21.5	52
74417	2024-07-05T10:04:50	21.8	52.5
74418	2024-07-05T10:14:50	22	52
74419	2024-07-05T10:24:50	21.9	54.5
74420	2024-07-05T10:34:50	22	52.5
74421	2024-07-05T10:44:50	22.1	52
74422	2024-07-05T10:54:50	22.2	51
74423	2024-07-05T11:04:50	22.4	52.5
74424	2024-07-05T11:14:50	23	48.5
74425	2024-07-05T11:24:50	23.3	49
74426	2024-07-05T11:34:50	23.7	48.5
74427	2024-07-05T11:44:50	24.1	48
74428	2024-07-05T11:54:50	24.7	48.5
74429	2024-07-05T12:04:50	25	46.5
74430	2024-07-05T12:14:50	26.2	44.5
74431	2024-07-05T12:24:50	27.1	43.5
74432	2024-07-05T12:34:50	28.4	42
74433	2024-07-05T12:44:50	28.4	41
74434	2024-07-05T12:54:50	27.3	41.5
74435	2024-07-05T13:04:50	26.2	41
74436	2024-07-05T13:14:50	26.3	41.5
74437	2024-07-05T13:24:50	26.7	43.5
74438	2024-07-05T13:34:50	26.6	42.5
74439	2024-07-05T13:44:50	26.9	43.5
74440	2024-07-05T13:54:50	27.5	42
74441	2024-07-05T14:04:50	26.9	45.5
74442	2024-07-05T14:14:50	25.9	47.5
74443	2024-07-05T14:24:50	25.6	48.5
74444	2024-07-05T14:34:50	25.5	50
74445	2024-07-05T14:44:50	25.2	50
74446	2024-07-05T14:54:50	25	50.5
74447	2024-07-05T15:04:50	24.7	52
74448	2024-07-05T15:14:50	24.5	52.5
74449	2024-07-05T15:24:50	24.4	53.5
74450	2024-07-05T15:34:50	24.4	54
74451	2024-07-05T15:44:50	24.2	54.5
74452	2024-07-05T15:54:50	24.1	58.5
74453	2024-07-05T16:04:50	24.8	61
74454	2024-07-05T16:14:50	25	58
74455	2024-07-05T16:24:50	24.9	58.5
74456	2024-07-05T16:34:50	24.4	58.5
74457	2024-07-05T16:44:50	24.3	62
74458	2024-07-05T16:54:50	24.4	65.5
74459	2024-07-05T17:04:50	24.1	66
74460	2024-07-05T17:14:50	24.1	65
74461	2024-07-05T17:24:50	23.8	67
74462	2024-07-05T17:34:50	23.7	67
74463	2024-07-05T17:44:50	23.4	68.5
74464	2024-07-05T17:54:50	23.2	70
74465	2024-07-05T18:04:49	23	70.5
74466	2024-07-05T18:14:50	22.6	72
74467	2024-07-05T18:24:49	22.4	72
74468	2024-07-05T18:34:49	22	73
74469	2024-07-05T18:44:49	22	73
74470	2024-07-05T18:54:49	21.5	76.5
74471	2024-07-05T19:04:49	21.2	78.5
74472	2024-07-05T19:14:49	20.8	74.5
74473	2024-07-05T19:24:49	20.8	78
74474	2024-07-05T19:34:49	20.3	79.5
74475	2024-07-05T19:44:49	20.1	80.5
74476	2024-07-05T19:54:49	19.7	82.5
74477	2024-07-05T20:04:49	19.6	81
74478	2024-07-05T20:14:49	19.4	83.5
74479	2024-07-05T20:24:49	19.3	83.5
74480	2024-07-05T20:34:49	19	85
74481	2024-07-05T20:44:49	18.7	85.5
74482	2024-07-05T20:54:49	18.5	86
74483	2024-07-05T21:04:49	18.4	86.5
74484	2024-07-05T21:14:49	18.1	87.5
74485	2024-07-05T21:24:49	17.9	87.5
74486	2024-07-05T21:34:49	17.8	87.5
74487	2024-07-05T21:44:49	17.8	87.5
74488	2024-07-05T21:54:49	17.7	87
74489	2024-07-05T22:04:49	17.6	86.5
74490	2024-07-05T22:14:49	17.5	88
74491	2024-07-05T22:24:49	17.3	88
74492	2024-07-05T22:34:49	17.1	88.5
74493	2024-07-05T22:44:49	16.9	89
74494	2024-07-05T22:54:49	16.6	90
74495	2024-07-05T23:28:50	16.4	90.5
74496	2024-07-05T23:28:56	16.3	91.5
74497	2024-07-05T23:28:58	16.2	91
74498	2024-07-05T23:34:49	16.1	90.5
74499	2024-07-05T23:44:49	15.9	90.5
74500	2024-07-05T23:54:49	15.8	91
74501	2024-07-06T00:04:49	15.5	90.5
74502	2024-07-06T00:14:49	15.4	91.5
74503	2024-07-06T00:24:49	15.2	92
74504	2024-07-06T00:34:49	15.1	91.5
74505	2024-07-06T00:44:49	15.1	91.5
74506	2024-07-06T00:54:49	15.1	90.5
74507	2024-07-06T01:04:49	15.1	90.5
74508	2024-07-06T01:14:49	14.9	92
74509	2024-07-06T01:24:49	14.7	93
74510	2024-07-06T01:34:49	14.6	93.5
74511	2024-07-06T01:44:49	14.5	94
74512	2024-07-06T01:54:49	14.4	93.5
74513	2024-07-06T02:04:49	14.3	94.5
74514	2024-07-06T02:14:49	14.1	94.5
74515	2024-07-06T02:24:49	14	95
74516	2024-07-06T02:34:49	14	95
74517	2024-07-06T02:44:49	13.9	95
74518	2024-07-06T02:54:49	13.8	95.5
74519	2024-07-06T03:04:49	13.7	95.5
74520	2024-07-06T03:14:49	13.7	96
74521	2024-07-06T03:24:49	13.6	96
74522	2024-07-06T03:34:49	13.5	95.5
74523	2024-07-06T03:44:49	13.5	96
74524	2024-07-06T03:54:49	13.5	96.5
74525	2024-07-06T04:04:49	13.7	96.5
74526	2024-07-06T04:14:49	13.8	96
74527	2024-07-06T04:24:49	13.8	96
74528	2024-07-06T04:34:49	14	96
74529	2024-07-06T04:44:49	14.3	95
74530	2024-07-06T04:54:49	14.8	95
74531	2024-07-06T05:04:49	14.8	95
74532	2024-07-06T05:14:49	15.1	95
74533	2024-07-06T05:24:49	15.3	94
74534	2024-07-06T05:34:49	15.7	94
74535	2024-07-06T05:44:49	15.7	93.5
74536	2024-07-06T05:54:49	15.7	94
74537	2024-07-06T06:04:49	16	93
74538	2024-07-06T06:14:48	17	91
74539	2024-07-06T06:24:48	17.4	90
74540	2024-07-06T06:34:48	18.3	87.5
74541	2024-07-06T06:44:48	18.3	83
74542	2024-07-06T06:54:48	18.5	82.5
74543	2024-07-06T07:04:48	18.8	82
74544	2024-07-06T07:14:48	18.8	80.5
74545	2024-07-06T07:24:48	19.6	79.5
74546	2024-07-06T07:34:48	20.1	79.5
74547	2024-07-06T07:44:48	19.8	80
74548	2024-07-06T07:54:48	19.8	83
74549	2024-07-06T08:04:48	20.3	81.5
74550	2024-07-06T08:14:48	20.7	82
74551	2024-07-06T08:24:48	21.5	80
74552	2024-07-06T08:34:48	22.2	79
74553	2024-07-06T08:44:48	23.2	74
74554	2024-07-06T08:54:48	23.5	73
74555	2024-07-06T09:04:48	23.6	73
74556	2024-07-06T09:14:48	24.6	67
74557	2024-07-06T09:24:48	25.4	64.5
74558	2024-07-06T09:34:48	25.9	63.5
74559	2024-07-06T09:44:48	25.7	62
74560	2024-07-06T09:54:48	24.3	69.5
74561	2024-07-06T10:04:48	22.3	88
74562	2024-07-06T10:14:48	19.9	100
74563	2024-07-06T10:24:48	19.4	100
74564	2024-07-06T10:34:48	19.5	100
74565	2024-07-06T10:44:48	19.6	100
74566	2024-07-06T10:54:48	19.5	99.5
74567	2024-07-06T11:04:48	19.1	99.5
74568	2024-07-06T11:14:48	19	99
74569	2024-07-06T11:24:48	19.1	98.5
74570	2024-07-06T11:34:48	19.2	98
74571	2024-07-06T11:44:48	19.2	97.5
74572	2024-07-06T11:54:48	19.3	97
74573	2024-07-06T12:04:48	19.3	96.5
74574	2024-07-06T12:14:48	19.2	96
74575	2024-07-06T12:24:48	19.1	95.5
74576	2024-07-06T12:34:48	19.3	95.5
74577	2024-07-06T12:44:48	19.3	95.5
74578	2024-07-06T12:54:48	19.2	95.5
74579	2024-07-06T13:04:48	19	95.5
74580	2024-07-06T13:14:48	18.8	95.5
74581	2024-07-06T13:24:48	18.6	95.5
74582	2024-07-06T13:34:48	18.6	95.5
74583	2024-07-06T13:44:48	18.9	95.5
74584	2024-07-06T13:54:48	18.9	95.5
74585	2024-07-06T14:04:48	19.1	95.5
74586	2024-07-06T14:14:48	18.9	95.5
74587	2024-07-06T14:24:48	18.8	96
74588	2024-07-06T14:34:48	18.9	96
74589	2024-07-06T14:44:48	18.8	96
74590	2024-07-06T14:54:48	18.9	96
74591	2024-07-06T15:04:48	18.8	96
74592	2024-07-06T15:14:48	18.6	96
74593	2024-07-06T15:24:48	18.9	96
74594	2024-07-06T15:34:48	20.2	96
74595	2024-07-06T15:44:48	19.7	96
74596	2024-07-06T15:54:48	20	96
74597	2024-07-06T16:04:48	19.8	96
74598	2024-07-06T16:14:48	19.2	96
74599	2024-07-06T16:24:48	18.9	96
74600	2024-07-06T16:34:48	18.8	96
74601	2024-07-06T16:45:08	18.9	96
74602	2024-07-06T16:54:48	18.8	96
74603	2024-07-06T17:04:48	19.1	96
74604	2024-07-06T17:14:48	19.2	96
74605	2024-07-06T17:24:47	19.8	96
74606	2024-07-06T17:34:47	23.9	96
74607	2024-07-06T17:44:47	20.6	96
74608	2024-07-06T17:54:47	19.5	96
74609	2024-07-06T18:04:47	19.3	96
74610	2024-07-06T18:14:47	19	96
74611	2024-07-06T18:24:47	18.9	96
74612	2024-07-06T18:34:47	18.7	96
74613	2024-07-06T18:44:47	17.2	96
74614	2024-07-06T18:54:47	16.9	96
74615	2024-07-06T19:04:47	17	96
74616	2024-07-06T19:14:47	16.8	96
74617	2024-07-06T19:24:47	16.5	96
74618	2024-07-06T19:34:47	16.5	96
74619	2024-07-06T19:44:47	16.4	96.5
74620	2024-07-06T19:54:47	16.4	96
74621	2024-07-06T20:04:47	16.5	96.5
74622	2024-07-06T20:14:47	16.3	96.5
74623	2024-07-06T20:24:47	16.2	96
74624	2024-07-06T20:34:47	16.1	96
74625	2024-07-06T20:44:47	16.1	96.5
74626	2024-07-06T20:54:47	16	96.5
74627	2024-07-06T21:04:47	15.9	96.5
74628	2024-07-06T21:14:47	15.8	96.5
74629	2024-07-06T21:24:47	15.8	96.5
74630	2024-07-06T21:34:47	15.6	96.5
74631	2024-07-06T21:44:47	15.4	96.5
74632	2024-07-06T21:54:47	15.2	96.5
74633	2024-07-06T22:04:47	15.1	96.5
74634	2024-07-06T22:14:47	15.2	96.5
74635	2024-07-06T22:24:47	14.9	96.5
74636	2024-07-06T22:34:47	14.9	96.5
74637	2024-07-06T22:44:47	15	96.5
74638	2024-07-06T22:54:47	14.8	96.5
74639	2024-07-06T23:28:57	14.5	96.5
74640	2024-07-06T23:28:58	14	96.5
74641	2024-07-06T23:28:58	14.3	96.5
74642	2024-07-06T23:34:47	13.8	96.5
74643	2024-07-06T23:44:47	13.8	96.5
74644	2024-07-06T23:54:47	13.7	96.5
74645	2024-07-07T00:04:47	13.6	96.5
74646	2024-07-07T00:14:47	13.4	96.5
74647	2024-07-07T00:24:47	13.5	96.5
74648	2024-07-07T00:35:07	13.4	96.5
74649	2024-07-07T00:44:47	13.5	96.5
74650	2024-07-07T00:54:47	13.6	96.5
74651	2024-07-07T01:04:47	13.3	96.5
74652	2024-07-07T01:14:47	13.1	96.5
74653	2024-07-07T01:24:47	12.7	96.5
74654	2024-07-07T01:34:47	12.8	96.5
74655	2024-07-07T01:44:47	12.7	96.5
74656	2024-07-07T01:54:47	12.4	96.5
74657	2024-07-07T02:04:47	12.3	96.5
74658	2024-07-07T02:14:47	12.2	96.5
74659	2024-07-07T02:24:47	12.1	96.5
74660	2024-07-07T02:34:47	12.1	96.5
74661	2024-07-07T02:44:47	12.3	96.5
74662	2024-07-07T02:54:47	12.3	96.5
74663	2024-07-07T03:04:47	12.2	96.5
74664	2024-07-07T03:14:47	12	96.5
74665	2024-07-07T03:24:47	12	96.5
74666	2024-07-07T03:34:47	11.8	96.5
74667	2024-07-07T03:44:47	11.8	96.5
74668	2024-07-07T03:54:47	11.9	96.5
74669	2024-07-07T04:04:47	11.9	96.5
74670	2024-07-07T04:14:47	11.8	96.5
74671	2024-07-07T04:24:47	11.9	96.5
74672	2024-07-07T04:34:47	12.1	96.5
74673	2024-07-07T04:44:47	12.3	96.5
74674	2024-07-07T04:54:47	12.3	96.5
74675	2024-07-07T05:04:47	12.5	96.5
74676	2024-07-07T05:14:47	12.7	96.5
74677	2024-07-07T05:24:47	12.8	96.5
74678	2024-07-07T05:34:47	13	96.5
74679	2024-07-07T05:44:47	13.2	96.5
74680	2024-07-07T05:54:47	13.4	96.5
74681	2024-07-07T06:04:47	13.8	96.5
74682	2024-07-07T06:14:46	14.1	96.5
74683	2024-07-07T06:24:46	14.6	96.5
74684	2024-07-07T06:34:46	15.2	96.5
74685	2024-07-07T06:44:46	15.9	96.5
74686	2024-07-07T06:54:46	16.3	96.5
74687	2024-07-07T07:04:46	16.7	96.5
74688	2024-07-07T07:14:46	16.7	96.5
74689	2024-07-07T07:24:46	16.7	96.5
74690	2024-07-07T07:34:46	16.9	96.5
74691	2024-07-07T07:44:46	16.7	96.5
74692	2024-07-07T07:54:46	17.1	96.5
74693	2024-07-07T08:04:46	17	96.5
74694	2024-07-07T08:14:46	17.3	96.5
74695	2024-07-07T08:24:46	18.1	96.5
74696	2024-07-07T08:34:46	18.1	96.5
74697	2024-07-07T08:44:46	18.1	96.5
74698	2024-07-07T08:54:46	18.2	96.5
74699	2024-07-07T09:04:46	18.1	96.5
74700	2024-07-07T09:14:46	18.1	96.5
74701	2024-07-07T09:24:46	18.9	96
74702	2024-07-07T09:34:46	19.2	96.5
74703	2024-07-07T09:44:46	19.3	96.5
74704	2024-07-07T09:54:46	19.5	99
74705	2024-07-07T10:04:46	19.5	99
74706	2024-07-07T10:14:46	19.3	100
74707	2024-07-07T10:24:46	19.1	100
74708	2024-07-07T10:34:46	19.4	100
74709	2024-07-07T10:44:46	19.7	100
74710	2024-07-07T10:54:46	19.7	100
74711	2024-07-07T11:04:46	19.7	93.5
74712	2024-07-07T11:14:46	20	57
74713	2024-07-07T11:24:46	20	54
74714	2024-07-07T11:34:46	20.1	60.5
74715	2024-07-07T11:44:46	20.4	52
74716	2024-07-07T11:54:46	21	52
74717	2024-07-07T12:04:46	21.4	48
74718	2024-07-07T12:14:46	25.1	43
74719	2024-07-07T12:24:46	28.7	35
74720	2024-07-07T12:34:46	30.6	31.5
74721	2024-07-07T12:44:46	31.4	31.5
74722	2024-07-07T12:54:46	33.1	30
74723	2024-07-07T13:04:46	34.2	27.5
74724	2024-07-07T13:14:46	36.2	25.5
74725	2024-07-07T13:24:46	35.9	28
74726	2024-07-07T13:34:46	36.9	24.5
74727	2024-07-07T13:44:46	36.1	26.5
74728	2024-07-07T13:54:46	35	25.5
74729	2024-07-07T14:04:46	38.4	25
74730	2024-07-07T14:14:46	38.1	23
74731	2024-07-07T14:24:46	37.6	22.5
74732	2024-07-07T14:34:46	38.3	22
74733	2024-07-07T14:44:46	37.5	22
74734	2024-07-07T14:54:46	36.7	23.5
74735	2024-07-07T15:04:46	40.7	21
74736	2024-07-07T15:14:46	39.7	19.5
74737	2024-07-07T15:24:46	39.5	21
74738	2024-07-07T15:34:46	39.8	21.5
74739	2024-07-07T15:44:46	36.5	22.5
74740	2024-07-07T15:54:46	39.3	21
74741	2024-07-07T16:04:46	39	23
74742	2024-07-07T16:14:46	35.5	24
74743	2024-07-07T16:24:46	40.2	19.5
74744	2024-07-07T16:34:46	39.2	21
74745	2024-07-07T16:44:46	39.2	21
74746	2024-07-07T16:54:46	39	20.5
74747	2024-07-07T17:04:46	39.1	21.5
74748	2024-07-07T17:14:46	38.7	20.5
74749	2024-07-07T17:24:46	38.3	21.5
74750	2024-07-07T17:34:45	36.7	22
74751	2024-07-07T17:44:46	37.3	25
74752	2024-07-07T17:54:45	36.3	24.5
74753	2024-07-07T18:04:45	35	25
74754	2024-07-07T18:14:45	34.6	26
74755	2024-07-07T18:24:45	33.5	26.5
74756	2024-07-07T18:34:45	32.7	32.5
74757	2024-07-07T18:44:45	31	35.5
74758	2024-07-07T18:54:45	30.5	35.5
74759	2024-07-07T19:04:45	29.7	39
74760	2024-07-07T19:14:45	27.1	44.5
74761	2024-07-07T19:24:45	25.6	49
74762	2024-07-07T19:34:45	24.6	51.5
74763	2024-07-07T19:44:45	24.4	52
74764	2024-07-07T19:54:45	23.6	53.5
74765	2024-07-07T20:04:45	22.9	56
74766	2024-07-07T20:14:45	22.7	59.5
74767	2024-07-07T20:24:45	22	60
74768	2024-07-07T20:34:45	21.7	61
74769	2024-07-07T20:44:45	21.3	61
74770	2024-07-07T20:54:45	21.3	62
74771	2024-07-07T21:04:45	20.9	63.5
74772	2024-07-07T21:14:45	20.8	64.5
74773	2024-07-07T21:24:45	20.2	64
74774	2024-07-07T21:34:45	19.9	66.5
74775	2024-07-07T21:44:45	19.3	65.5
74776	2024-07-07T21:54:45	19	67.5
74777	2024-07-07T22:04:45	18.9	69
74778	2024-07-07T22:14:45	18.4	68.5
74779	2024-07-07T22:24:45	18.2	70.5
74780	2024-07-07T22:34:45	18	70
74781	2024-07-07T22:44:45	17.9	70.5
74782	2024-07-07T22:54:45	17.7	70.5
74783	2024-07-07T23:29:27	17.5	72
74784	2024-07-07T23:29:28	17.5	72
74785	2024-07-07T23:29:28	17.5	72
74786	2024-07-07T23:34:45	17.3	71.5
74787	2024-07-07T23:44:45	17.2	71.5
74788	2024-07-07T23:54:45	17.2	72.5
74789	2024-07-08T00:04:45	16.8	73.5
74790	2024-07-08T00:14:45	16.4	76
74791	2024-07-08T00:24:45	16.3	77
74792	2024-07-08T00:34:45	16.2	79
74793	2024-07-08T00:44:45	15.9	80
74794	2024-07-08T00:54:45	15.7	80.5
74795	2024-07-08T01:04:45	15.6	81.5
74796	2024-07-08T01:14:45	15.3	81.5
74797	2024-07-08T01:24:45	15.1	83
74798	2024-07-08T01:34:45	15	84.5
74799	2024-07-08T01:44:45	14.9	83
74800	2024-07-08T01:54:45	14.8	83.5
74801	2024-07-08T02:04:45	14.7	83
74802	2024-07-08T02:14:45	14.4	84.5
74803	2024-07-08T02:24:45	14.3	85
74804	2024-07-08T02:34:45	14	85.5
74805	2024-07-08T02:44:45	13.9	86.5
74806	2024-07-08T02:54:45	13.7	87
74807	2024-07-08T03:04:45	13.5	87.5
74808	2024-07-08T03:14:45	13.3	88.5
74809	2024-07-08T03:24:45	13.2	89.5
74810	2024-07-08T03:34:45	13.1	89
74811	2024-07-08T03:44:45	13	89
74812	2024-07-08T03:54:45	12.9	89.5
74813	2024-07-08T04:04:45	12.9	90.5
74814	2024-07-08T04:14:45	12.9	89.5
74815	2024-07-08T04:24:45	13	90
74816	2024-07-08T04:34:45	13.1	90.5
74817	2024-07-08T04:44:45	13.1	90
74818	2024-07-08T04:54:45	13.3	90
74819	2024-07-08T05:04:45	13.5	90.5
74820	2024-07-08T05:14:45	13.7	91
74821	2024-07-08T05:24:44	13.7	91
74822	2024-07-08T05:34:44	14.1	89
74823	2024-07-08T05:44:44	14.2	89.5
74824	2024-07-08T05:54:44	14.4	88.5
74825	2024-07-08T06:04:44	14.6	89
74826	2024-07-08T06:14:44	14.8	88.5
74827	2024-07-08T06:24:44	15.1	88
74828	2024-07-08T06:34:44	15.5	87
74829	2024-07-08T06:44:44	16	85.5
74830	2024-07-08T06:54:44	16.3	83
74831	2024-07-08T07:04:44	17	80
74832	2024-07-08T07:14:44	17	79.5
74833	2024-07-08T07:24:44	17.3	79.5
74834	2024-07-08T07:34:44	17.4	79.5
74835	2024-07-08T07:44:44	17.7	78
74836	2024-07-08T07:54:44	18	77
74837	2024-07-08T08:04:44	18.2	80
74838	2024-07-08T08:14:44	18.4	77
74839	2024-07-08T08:24:44	18.7	77.5
74840	2024-07-08T08:34:44	19	76
74841	2024-07-08T08:44:44	19.2	76
74842	2024-07-08T08:54:44	19.5	72.5
74843	2024-07-08T09:04:44	19.6	71
74844	2024-07-08T09:14:44	19.7	70
74845	2024-07-08T09:24:44	19.9	67.5
74846	2024-07-08T09:34:44	20.3	62.5
74847	2024-07-08T09:44:44	20.3	67.5
74848	2024-07-08T09:54:44	20.6	68
74849	2024-07-08T10:04:44	20.8	67.5
74850	2024-07-08T10:14:44	21.1	62.5
74851	2024-07-08T10:24:44	21.1	64
74852	2024-07-08T10:34:44	21.5	62.5
74853	2024-07-08T10:44:44	21.7	59
74854	2024-07-08T10:54:44	21.9	62.5
74855	2024-07-08T11:04:44	22.3	57.5
74856	2024-07-08T11:14:44	22.7	58
74857	2024-07-08T11:24:44	23.1	58.5
74858	2024-07-08T11:34:44	23.4	56.5
74859	2024-07-08T11:44:44	23.5	54
74860	2024-07-08T11:54:44	24.1	54.5
74861	2024-07-08T12:04:44	24.8	52.5
74862	2024-07-08T12:14:44	29.2	44
74863	2024-07-08T12:24:44	32.5	38
74864	2024-07-08T12:34:44	36	34.5
74865	2024-07-08T12:44:44	35.6	31.5
74866	2024-07-08T12:54:44	36.7	29.5
74867	2024-07-08T13:04:44	37.7	32.5
74868	2024-07-08T13:14:44	39.2	29
74869	2024-07-08T13:24:44	40.9	27.5
74870	2024-07-08T13:34:44	41.8	23.5
74871	2024-07-08T13:44:44	42.7	23.5
74872	2024-07-08T13:54:44	43.5	23.5
74873	2024-07-08T14:04:44	44.4	22
74874	2024-07-08T14:14:44	44.1	23
74875	2024-07-08T14:24:44	45.2	22
74876	2024-07-08T14:34:44	46.1	21.5
74877	2024-07-08T14:44:44	45.6	22
74878	2024-07-08T14:54:44	47.3	21.5
74879	2024-07-08T15:04:44	46.4	19.5
74880	2024-07-08T15:14:44	46.1	20.5
74881	2024-07-08T15:24:44	45.6	21
74882	2024-07-08T15:34:44	46.2	20.5
74883	2024-07-08T15:44:44	46.2	19.5
74884	2024-07-08T15:54:44	46.7	18.5
74885	2024-07-08T16:04:44	46.1	18.5
74886	2024-07-08T16:14:44	45.6	20
74887	2024-07-08T16:24:44	45.7	19.5
74888	2024-07-08T16:34:44	45.1	20.5
74889	2024-07-08T16:44:44	44.7	20.5
74890	2024-07-08T16:54:44	44.4	20
74891	2024-07-08T17:04:44	44.4	20.5
74892	2024-07-08T17:14:44	43.8	21.5
74893	2024-07-08T17:24:44	43.6	22.5
74894	2024-07-08T17:34:44	42.2	22.5
74895	2024-07-08T17:44:43	40.5	24.5
74896	2024-07-08T17:54:43	40.4	26.5
74897	2024-07-08T18:04:43	40.1	27.5
74898	2024-07-08T18:14:43	39.3	28
74899	2024-07-08T18:24:43	38	30
74900	2024-07-08T18:34:43	37.3	31
74901	2024-07-08T18:44:43	35.7	33.5
74902	2024-07-08T18:54:43	32.5	41
74903	2024-07-08T19:04:43	30.4	45
74904	2024-07-08T19:14:43	28.9	48
74905	2024-07-08T19:24:43	28.2	51
74906	2024-07-08T19:34:43	27.4	50.5
74907	2024-07-08T19:44:43	26.8	52
74908	2024-07-08T19:54:43	26.5	58
74909	2024-07-08T20:04:43	25.9	60
74910	2024-07-08T20:14:43	25.4	59.5
74911	2024-07-08T20:24:43	25.1	57.5
74912	2024-07-08T20:34:43	24.6	59.5
74913	2024-07-08T20:44:43	24.3	59.5
74914	2024-07-08T20:54:43	23.7	60
74915	2024-07-08T21:04:43	23.4	61.5
74916	2024-07-08T21:14:43	23.2	63
74917	2024-07-08T21:24:43	22.9	65
74918	2024-07-08T21:34:43	22.7	65.5
74919	2024-07-08T21:44:43	22.4	66
74920	2024-07-08T21:54:43	22.1	67.5
74921	2024-07-08T22:04:43	21.8	68.5
74922	2024-07-08T22:14:43	21.5	68
74923	2024-07-08T22:24:43	21.2	69
74924	2024-07-08T22:34:43	21	70
74925	2024-07-08T22:44:43	20.9	71
74926	2024-07-08T22:54:43	20.5	72
74927	2024-07-08T23:29:07	20.1	74
74928	2024-07-08T23:29:07	19.9	73.5
74929	2024-07-08T23:29:07	20.2	73
74930	2024-07-08T23:34:43	19.8	74.5
74931	2024-07-08T23:44:43	19.6	75
74932	2024-07-08T23:54:43	19.3	76.5
74933	2024-07-09T00:04:43	19.3	75.5
74934	2024-07-09T00:14:43	19	76.5
74935	2024-07-09T00:24:43	18.9	77
74936	2024-07-09T00:34:43	18.7	76.5
74937	2024-07-09T00:44:43	18.6	78
74938	2024-07-09T00:54:43	18.4	79
74939	2024-07-09T01:04:43	18.3	80
74940	2024-07-09T01:14:43	18.2	80
74941	2024-07-09T01:24:43	18.1	80
74942	2024-07-09T01:34:43	17.9	80.5
74943	2024-07-09T01:44:43	17.7	81
74944	2024-07-09T01:54:43	17.6	81
74945	2024-07-09T02:04:43	17.5	81.5
74946	2024-07-09T02:14:43	17.3	82
74947	2024-07-09T02:24:43	17	82.5
74948	2024-07-09T02:34:43	17	83
74949	2024-07-09T02:44:43	16.9	83.5
74950	2024-07-09T02:54:43	16.8	83.5
74951	2024-07-09T03:04:43	16.8	83.5
74952	2024-07-09T03:14:43	16.6	84
74953	2024-07-09T03:24:43	16.6	85
74954	2024-07-09T03:34:43	16.5	85
74955	2024-07-09T03:44:43	16.4	85.5
74956	2024-07-09T03:54:43	16.3	85.5
74957	2024-07-09T04:04:43	16.3	86
74958	2024-07-09T04:14:43	16.2	86
74959	2024-07-09T04:24:43	16.4	86
74960	2024-07-09T04:34:43	16.5	86.5
74961	2024-07-09T04:44:42	16.7	86
74962	2024-07-09T04:54:42	16.8	86
74963	2024-07-09T05:04:42	17	85.5
74964	2024-07-09T05:14:42	17.1	85.5
74965	2024-07-09T05:24:42	17.2	85
74966	2024-07-09T05:34:42	17.5	86
74967	2024-07-09T05:44:42	17.7	85
74968	2024-07-09T05:54:42	17.9	84
74969	2024-07-09T06:04:42	18.2	84.5
74970	2024-07-09T06:14:42	18.3	83.5
74971	2024-07-09T06:24:42	18.6	82
74972	2024-07-09T06:34:42	18.7	83
74973	2024-07-09T06:44:42	19	81
74974	2024-07-09T06:54:42	19.3	81
74975	2024-07-09T07:04:42	19.7	79.5
74976	2024-07-09T07:14:42	19.8	80
74977	2024-07-09T07:24:42	20	79.5
74978	2024-07-09T07:34:42	20.4	78.5
74979	2024-07-09T07:44:42	20.7	76
74980	2024-07-09T07:54:42	20.9	76
74981	2024-07-09T08:04:42	21.3	75
74982	2024-07-09T08:14:42	21.5	74.5
74983	2024-07-09T08:24:42	21.7	74.5
74984	2024-07-09T08:34:42	22.1	76
74985	2024-07-09T08:44:42	22.3	74.5
74986	2024-07-09T08:54:42	22.5	74
74987	2024-07-09T09:04:42	23	74
74988	2024-07-09T09:14:42	23.2	72
74989	2024-07-09T09:24:42	23.5	72.5
74990	2024-07-09T09:34:42	23.9	71
74991	2024-07-09T09:44:42	24.2	71.5
74992	2024-07-09T09:54:42	24.5	71.5
74993	2024-07-09T10:04:42	24.9	69
74994	2024-07-09T10:14:42	25.1	69
74995	2024-07-09T10:24:42	25.6	66.5
74996	2024-07-09T10:34:42	26	66
74997	2024-07-09T10:44:42	26.3	64.5
74998	2024-07-09T10:54:42	26.5	63.5
74999	2024-07-09T11:04:42	27	62
75000	2024-07-09T11:14:42	27.2	64
75001	2024-07-09T11:24:42	27.6	61
75002	2024-07-09T11:34:42	28	58
75003	2024-07-09T11:44:42	28.5	57
75004	2024-07-09T11:54:42	29.2	54
75005	2024-07-09T12:04:42	30.1	51.5
75006	2024-07-09T12:14:42	32.7	47
75007	2024-07-09T12:24:42	37.1	37
75008	2024-07-09T12:34:42	39.6	33.5
75009	2024-07-09T12:44:42	41.4	32.5
75010	2024-07-09T12:54:42	43.5	28
75011	2024-07-09T13:04:42	42.6	29
75012	2024-07-09T13:14:42	43.8	28.5
75013	2024-07-09T13:24:42	45.9	25
75014	2024-07-09T13:34:42	47	23
75015	2024-07-09T13:44:42	46.4	24
75016	2024-07-09T13:54:42	47.9	23
75017	2024-07-09T14:04:42	49.7	21.5
75018	2024-07-09T14:14:42	49.3	23
75019	2024-07-09T14:24:42	50.1	22
75020	2024-07-09T14:34:42	50.3	21
75021	2024-07-09T14:44:42	50.8	20.5
75022	2024-07-09T14:54:42	50.5	19.5
75023	2024-07-09T15:04:42	51.1	20.5
75024	2024-07-09T15:14:42	51.4	19
75025	2024-07-09T15:24:42	52.5	19
75026	2024-07-09T15:34:42	51.8	20
75027	2024-07-09T15:44:42	52.9	18
75028	2024-07-09T15:54:42	52.3	18.5
75029	2024-07-09T16:04:42	52.6	18.5
75030	2024-07-09T16:14:42	52.4	17.5
75031	2024-07-09T16:24:42	51.1	18.5
75032	2024-07-09T16:34:42	48.8	21
75033	2024-07-09T16:44:42	48.4	20.5
75034	2024-07-09T16:54:42	48.6	21.5
75035	2024-07-09T17:04:42	47.1	21.5
75036	2024-07-09T17:14:42	45.3	26
75037	2024-07-09T17:24:42	44.7	24.5
75038	2024-07-09T17:34:42	44.8	28.5
75039	2024-07-09T17:44:42	45.3	26
75040	2024-07-09T17:54:42	44.1	28
75041	2024-07-09T18:04:42	42.7	35
75042	2024-07-09T18:14:41	42.3	34
75043	2024-07-09T18:24:41	41.9	36
75044	2024-07-09T18:34:41	40.4	39.5
75045	2024-07-09T18:44:41	39	38
75046	2024-07-09T18:54:41	37.3	42
75047	2024-07-09T19:04:41	36.2	45
75048	2024-07-09T19:14:41	34.8	46.5
75049	2024-07-09T19:24:41	34.1	47
75050	2024-07-09T19:34:41	33.8	47.5
75051	2024-07-09T19:44:41	33.4	50
75052	2024-07-09T19:54:41	32.9	51
75053	2024-07-09T20:04:41	32.6	52.5
75054	2024-07-09T20:14:41	32.3	52.5
75055	2024-07-09T20:24:41	31.9	53.5
75056	2024-07-09T20:34:41	31.4	51.5
75057	2024-07-09T20:44:41	31.2	55
75058	2024-07-09T20:54:41	31	56.5
75059	2024-07-09T21:04:41	30.4	54.5
75060	2024-07-09T21:14:41	29.8	57
75061	2024-07-09T21:24:41	29.7	56
75062	2024-07-09T21:34:41	29.6	59
75063	2024-07-09T21:44:41	29.5	57
75064	2024-07-09T21:54:41	29.2	58
75065	2024-07-09T22:04:41	28.4	61.5
75066	2024-07-09T22:14:41	28.5	62.5
75067	2024-07-09T22:24:41	28.3	61
75068	2024-07-09T22:34:41	28.1	62
75069	2024-07-09T22:44:41	27.9	63.5
75070	2024-07-09T22:54:41	27.7	63.5
75071	2024-07-09T23:28:38	26.9	65.5
75072	2024-07-09T23:28:38	27.2	64
75073	2024-07-09T23:28:39	27.1	66
75074	2024-07-09T23:34:41	26.6	64
75075	2024-07-09T23:44:41	26.4	65
75076	2024-07-09T23:54:41	25.9	64.5
75077	2024-07-10T00:04:41	25.7	64.5
75078	2024-07-10T00:14:41	25.8	64
75079	2024-07-10T00:24:41	25.9	65
75080	2024-07-10T00:34:41	25.9	66
75081	2024-07-10T00:44:41	25.8	64.5
75082	2024-07-10T00:54:41	25.8	66
75083	2024-07-10T01:04:41	25.7	66.5
75084	2024-07-10T01:14:41	25.6	66.5
75085	2024-07-10T01:24:41	25.5	68
75086	2024-07-10T01:34:41	25.4	67
75087	2024-07-10T01:44:41	25.5	69
75088	2024-07-10T01:54:41	25.1	67.5
75089	2024-07-10T02:04:41	25	69.5
75090	2024-07-10T02:14:41	24.4	69
75091	2024-07-10T02:24:41	24.5	67.5
75092	2024-07-10T02:34:41	24.3	68
75093	2024-07-10T02:44:41	24.4	68
75094	2024-07-10T02:54:41	24.2	69.5
75095	2024-07-10T03:04:41	24.1	70
75096	2024-07-10T03:14:41	24	71
75097	2024-07-10T03:24:41	24	73.5
75098	2024-07-10T03:34:41	23.9	76.5
75099	2024-07-10T03:44:41	23.9	76.5
75100	2024-07-10T03:54:41	23.9	78
75101	2024-07-10T04:04:41	24	78.5
75102	2024-07-10T04:14:41	23.8	79
75103	2024-07-10T04:24:41	23.8	79
75104	2024-07-10T04:34:40	23.9	79
75105	2024-07-10T04:44:40	23.7	79
75106	2024-07-10T04:54:40	23.8	79
75107	2024-07-10T05:04:40	23.8	79
75108	2024-07-10T05:14:40	23.8	79.5
75109	2024-07-10T05:24:40	23.8	78
75110	2024-07-10T05:34:40	23.8	78
75111	2024-07-10T05:44:40	23.7	78
75112	2024-07-10T05:54:40	23.8	77
75113	2024-07-10T06:04:40	24	76
75114	2024-07-10T06:14:40	24	76
75115	2024-07-10T06:24:40	23.9	76.5
75116	2024-07-10T06:34:40	23.9	77.5
75117	2024-07-10T06:44:40	24	76.5
75118	2024-07-10T06:54:40	23.9	77.5
75119	2024-07-10T07:04:40	24.1	78
75120	2024-07-10T07:14:40	24.1	78
75121	2024-07-10T07:24:40	24.1	77.5
75122	2024-07-10T07:34:40	24.7	74.5
75123	2024-07-10T07:44:40	24.9	73.5
75124	2024-07-10T07:54:40	25.1	70.5
75125	2024-07-10T08:04:40	25.4	69
75126	2024-07-10T08:14:40	25.4	68.5
75127	2024-07-10T08:24:40	25.4	67.5
75128	2024-07-10T08:34:40	25.3	69.5
75129	2024-07-10T08:44:40	25.1	68.5
75130	2024-07-10T08:54:40	25.2	70
75131	2024-07-10T09:04:40	25	69.5
75132	2024-07-10T09:14:40	25	71
75133	2024-07-10T09:24:40	24.6	75
75134	2024-07-10T09:34:40	24.4	77
75135	2024-07-10T09:44:40	24.2	82
75136	2024-07-10T09:54:40	22.9	89
75137	2024-07-10T10:04:40	22.5	90.5
75138	2024-07-10T10:14:40	22.1	98
75139	2024-07-10T10:24:40	21.7	95
75140	2024-07-10T10:34:40	21.9	97
75141	2024-07-10T10:44:40	22	98
75142	2024-07-10T10:54:40	22.2	98
75143	2024-07-10T11:04:40	22.8	99.5
75144	2024-07-10T11:14:40	23.6	99
75145	2024-07-10T11:24:40	24.2	95.5
75146	2024-07-10T11:34:40	24.6	93
75147	2024-07-10T11:44:40	25	88.5
75148	2024-07-10T11:54:40	25.3	82.5
75149	2024-07-10T12:04:40	25.4	75
75150	2024-07-10T12:14:40	25.5	75
75151	2024-07-10T12:24:40	26.5	69.5
75152	2024-07-10T12:34:40	27.5	66
75153	2024-07-10T12:44:40	27.3	61
75154	2024-07-10T12:54:40	27.1	69
75155	2024-07-10T13:04:40	29	61
75156	2024-07-10T13:14:40	29.2	57
75157	2024-07-10T13:24:40	30.3	50.5
75158	2024-07-10T13:34:40	31.2	51
75159	2024-07-10T13:44:40	32.5	46
75160	2024-07-10T13:54:40	32.7	45
75161	2024-07-10T14:04:40	32.9	45
75162	2024-07-10T14:14:40	33.2	45
75163	2024-07-10T14:24:40	33.6	43.5
75164	2024-07-10T14:34:40	34.1	43
75165	2024-07-10T14:44:39	34.2	42
75166	2024-07-10T14:54:39	34.9	43.5
75167	2024-07-10T15:04:40	36.2	39.5
75168	2024-07-10T15:14:39	37	38
75169	2024-07-10T15:24:39	35.3	47
75170	2024-07-10T15:34:39	35	45
75171	2024-07-10T15:44:39	35.9	40.5
75172	2024-07-10T15:54:39	34.7	45.5
75173	2024-07-10T16:04:40	33.3	45
75174	2024-07-10T16:14:39	32.3	47.5
75175	2024-07-10T16:24:39	32	54.5
75176	2024-07-10T16:34:39	31.6	55.5
75177	2024-07-10T16:44:39	31.1	58
75178	2024-07-10T16:54:39	30.7	61
75179	2024-07-10T17:04:39	23.9	99.5
75180	2024-07-10T17:14:39	21.9	100
75181	2024-07-10T17:24:39	22.4	100
75182	2024-07-10T17:34:39	22.1	100
75183	2024-07-10T17:44:39	21.3	100
75184	2024-07-10T17:54:39	20.6	100
75185	2024-07-10T18:04:39	21	100
75186	2024-07-10T18:14:39	20.3	100
75187	2024-07-10T18:24:39	20.8	100
75188	2024-07-10T18:34:39	21.2	100
75189	2024-07-10T18:44:39	21	100
75190	2024-07-10T18:54:39	20.9	100
75191	2024-07-10T19:04:39	20.2	100
75192	2024-07-10T19:14:39	20.7	100
75193	2024-07-10T19:24:39	20	100
75194	2024-07-10T19:34:39	20.2	100
75195	2024-07-10T19:44:39	20.2	100
75196	2024-07-10T19:54:39	20.4	100
75197	2024-07-10T20:04:39	20.2	100
75198	2024-07-10T20:14:39	20	100
75199	2024-07-10T20:24:39	20.1	100
75200	2024-07-10T20:34:39	20.1	99.5
75201	2024-07-10T20:44:39	19.9	98.5
75202	2024-07-10T20:54:39	19.9	97.5
75203	2024-07-10T21:04:39	20.1	97
75204	2024-07-10T21:14:39	20	96
75205	2024-07-10T21:24:39	19.9	95.5
75206	2024-07-10T21:34:39	19.8	95.5
75207	2024-07-10T21:44:39	19.6	95.5
75208	2024-07-10T21:54:39	19.8	96
75209	2024-07-10T22:04:39	19.7	96
75210	2024-07-10T22:14:39	19.6	96
75211	2024-07-10T22:24:39	19.7	96
75212	2024-07-10T22:34:39	19.7	96
75213	2024-07-10T22:44:39	19.8	96
75214	2024-07-10T22:54:39	19.8	96
75215	2024-07-10T23:28:57	19.8	96
75216	2024-07-10T23:28:58	19.6	96
75217	2024-07-10T23:28:58	19.7	96
75218	2024-07-10T23:34:39	19.7	96
75219	2024-07-10T23:44:39	19.8	96
75220	2024-07-10T23:54:39	19.6	96
75221	2024-07-11T00:04:39	19.6	96
75222	2024-07-11T00:14:39	19.6	96
75223	2024-07-11T00:24:39	19.6	96
75224	2024-07-11T00:34:39	19.6	96
75225	2024-07-11T00:44:39	19.6	96
75226	2024-07-11T00:54:39	19.6	96
75227	2024-07-11T01:04:39	19.6	96
75228	2024-07-11T01:14:39	19.4	96
75229	2024-07-11T01:24:39	19.4	96
75230	2024-07-11T01:34:38	19.6	96
75231	2024-07-11T01:44:38	19.5	96
75232	2024-07-11T01:54:38	19.5	96
75233	2024-07-11T02:04:38	19.5	96
75234	2024-07-11T02:14:38	19.4	96
75235	2024-07-11T02:24:38	19.5	96
75236	2024-07-11T02:34:38	19.4	96
75237	2024-07-11T02:44:38	19.5	96
75238	2024-07-11T02:54:38	19.5	96
75239	2024-07-11T03:04:38	19.4	96
75240	2024-07-11T03:14:38	19.3	96
75241	2024-07-11T03:24:38	19.4	96
75242	2024-07-11T03:34:38	19.3	96
75243	2024-07-11T03:44:38	19.2	96
75244	2024-07-11T03:54:38	19.3	96
75245	2024-07-11T04:04:38	19.2	96
75246	2024-07-11T04:14:38	19.3	96
75247	2024-07-11T04:24:38	19.4	96
75248	2024-07-11T04:34:38	19.5	96
75249	2024-07-11T04:44:38	19.6	96
75250	2024-07-11T04:54:38	19.9	96
75251	2024-07-11T05:04:38	19.8	96
75252	2024-07-11T05:14:38	19.7	96
75253	2024-07-11T05:24:38	19.8	96
75254	2024-07-11T05:34:38	19.8	96
75255	2024-07-11T05:44:38	19.9	96
75256	2024-07-11T05:54:38	20.2	96
75257	2024-07-11T06:04:38	20.4	96
75258	2024-07-11T06:14:38	20.4	96
75259	2024-07-11T06:24:38	20.5	96
75260	2024-07-11T06:34:38	20.6	96
75261	2024-07-11T06:44:38	20.6	96
75262	2024-07-11T06:54:38	20.7	96
75263	2024-07-11T07:04:38	20.9	96
75264	2024-07-11T07:14:38	20.7	96
75265	2024-07-11T07:24:38	20.5	96
75266	2024-07-11T07:34:38	20.4	96
75267	2024-07-11T07:44:38	20.6	96
75268	2024-07-11T07:54:38	20.8	96
75269	2024-07-11T08:04:38	21.4	96
75270	2024-07-11T08:14:38	21.8	96
75271	2024-07-11T08:24:38	21.6	96
75272	2024-07-11T08:34:38	21.6	96
75273	2024-07-11T08:44:38	21.9	96
75274	2024-07-11T08:54:38	21.9	96
75275	2024-07-11T09:04:38	22.1	96
75276	2024-07-11T09:14:38	23.3	96
75277	2024-07-11T09:24:38	23.5	96
75278	2024-07-11T09:34:38	23.5	96
75279	2024-07-11T09:44:38	23.9	96
75280	2024-07-11T09:54:38	23.9	96
75281	2024-07-11T10:04:38	24.4	96
75282	2024-07-11T10:14:38	24.8	96
75283	2024-07-11T10:24:38	24.7	96
75284	2024-07-11T10:34:38	24.6	96.5
75285	2024-07-11T10:44:38	25.4	96.5
75286	2024-07-11T10:54:38	25.6	96.5
75287	2024-07-11T11:04:38	25.5	96.5
75288	2024-07-11T11:14:38	26.5	96.5
75289	2024-07-11T11:24:38	26.6	96.5
75290	2024-07-11T11:34:38	26.6	96
75291	2024-07-11T11:44:38	26.7	96.5
75292	2024-07-11T11:54:38	26.2	96.5
75293	2024-07-11T12:04:38	26.3	96.5
75294	2024-07-11T12:14:38	26.8	96.5
75295	2024-07-11T12:24:37	30.8	99.5
75296	2024-07-11T12:34:37	33	100
75297	2024-07-11T12:44:37	32.1	97.5
75298	2024-07-11T12:54:37	31.9	99.5
75299	2024-07-11T13:04:37	35.2	94.5
75300	2024-07-11T13:14:37	36.3	43
75301	2024-07-11T13:24:37	37.6	40.5
75302	2024-07-11T13:34:37	37.5	38.5
75303	2024-07-11T13:44:37	38.8	38
75304	2024-07-11T13:54:37	40	40.5
75305	2024-07-11T14:04:37	40.3	37
75306	2024-07-11T14:14:37	41.4	36.5
75307	2024-07-11T14:24:37	41.1	32.5
75308	2024-07-11T14:34:37	40.8	36.5
75309	2024-07-11T14:44:37	43	34.5
75310	2024-07-11T14:54:38	38.4	39
75311	2024-07-11T15:04:37	36.1	39.5
75312	2024-07-11T15:14:37	34	42.5
75313	2024-07-11T15:24:37	34.5	45
75314	2024-07-11T15:34:37	34.1	46.5
75315	2024-07-11T15:44:38	33.3	45
75316	2024-07-11T15:54:37	35.4	41
75317	2024-07-11T16:04:37	34.7	46
75318	2024-07-11T16:14:37	33.1	47.5
75319	2024-07-11T16:24:37	31.9	50.5
75320	2024-07-11T16:34:37	30.6	53
75321	2024-07-11T16:44:37	30.6	50.5
75322	2024-07-11T16:54:37	30.6	56.5
75323	2024-07-11T17:04:37	30.6	57.5
75324	2024-07-11T17:14:37	30.2	58.5
75325	2024-07-11T17:24:37	30.1	60
75326	2024-07-11T17:34:37	29.8	62
75327	2024-07-11T17:44:37	29.5	64.5
75328	2024-07-11T17:54:37	29.3	66
75329	2024-07-11T18:04:37	30	62.5
75330	2024-07-11T18:14:37	30.3	60
75331	2024-07-11T18:24:37	29.9	61
75332	2024-07-11T18:34:37	29.3	62.5
75333	2024-07-11T18:44:37	28.4	65.5
75334	2024-07-11T18:54:37	27.8	68.5
75335	2024-07-11T19:04:37	27.8	67
75336	2024-07-11T19:14:37	27.3	69.5
75337	2024-07-11T19:24:37	26.9	71.5
75338	2024-07-11T19:34:37	26.5	73
75339	2024-07-11T19:44:37	26	73
75340	2024-07-11T19:54:37	25.7	74
75341	2024-07-11T20:04:37	25.4	72.5
75342	2024-07-11T20:14:37	25	74
75343	2024-07-11T20:24:37	24.7	74
75344	2024-07-11T20:34:37	24.5	76
75345	2024-07-11T20:44:37	24.3	76.5
75346	2024-07-11T20:54:37	24.1	77
75347	2024-07-11T21:04:37	23.9	78
75348	2024-07-11T21:14:37	23.8	78.5
75349	2024-07-11T21:24:37	23.5	80
75350	2024-07-11T21:34:37	23.5	80.5
75351	2024-07-11T21:44:37	23.2	80.5
75352	2024-07-11T21:54:37	23.1	81
75353	2024-07-11T22:04:37	23.1	82
75354	2024-07-11T22:14:37	22.9	82
75355	2024-07-11T22:24:37	22.8	81
75356	2024-07-11T22:34:37	22.7	81.5
75357	2024-07-11T22:44:37	22.5	81
75358	2024-07-11T22:54:37	22.5	83
75359	2024-07-11T23:29:20	22.3	82
75360	2024-07-11T23:29:20	22.3	82
75361	2024-07-11T23:29:21	22.1	82.5
75362	2024-07-11T23:34:36	22	83
75363	2024-07-11T23:44:36	21.8	83
75364	2024-07-11T23:54:36	21.7	82.5
75365	2024-07-12T00:04:36	21.5	82
75366	2024-07-12T00:14:36	21.6	82
75367	2024-07-12T00:24:36	21.5	81.5
75368	2024-07-12T00:34:36	21.2	81.5
75369	2024-07-12T00:44:36	21.2	82.5
75370	2024-07-12T00:54:36	21.3	82.5
75371	2024-07-12T01:04:36	21.4	83
75372	2024-07-12T01:14:36	21.4	82
75373	2024-07-12T01:24:36	21.5	82
75374	2024-07-12T01:34:36	21.5	81.5
75375	2024-07-12T01:44:36	21.5	82
75376	2024-07-12T01:54:36	21.5	79.5
75377	2024-07-12T02:04:36	21.5	82.5
75378	2024-07-12T02:14:36	21.5	82.5
75379	2024-07-12T02:24:36	21.4	82.5
75380	2024-07-12T02:34:36	21.4	82.5
75381	2024-07-12T02:44:36	21.2	85
75382	2024-07-12T02:54:36	21.2	85
75383	2024-07-12T03:04:36	21.1	85
75384	2024-07-12T03:14:36	21	86
75385	2024-07-12T03:24:36	20.9	86.5
75386	2024-07-12T03:34:36	20.9	87
75387	2024-07-12T03:44:36	20.7	87.5
75388	2024-07-12T03:54:36	20.6	88
75389	2024-07-12T04:04:36	20.6	89
75390	2024-07-12T04:14:36	20.6	89.5
75391	2024-07-12T04:24:36	20.7	90
75392	2024-07-12T04:34:36	20.7	89
75393	2024-07-12T04:44:36	20.6	90
75394	2024-07-12T04:54:36	20.5	90.5
75395	2024-07-12T05:04:36	20.5	91
75396	2024-07-12T05:14:36	20.7	91
75397	2024-07-12T05:24:36	20.8	91
75398	2024-07-12T05:34:36	20.8	91
75399	2024-07-12T05:44:36	21	90.5
75400	2024-07-12T05:54:36	21	90
75401	2024-07-12T06:04:36	21.3	90
75402	2024-07-12T06:14:36	21.4	89
75403	2024-07-12T06:24:36	21.5	88.5
75404	2024-07-12T06:34:36	21.7	88.5
75405	2024-07-12T06:44:36	21.7	88
75406	2024-07-12T06:54:36	21.9	88
75407	2024-07-12T07:04:36	22	87
75408	2024-07-12T07:14:36	22.1	87
75409	2024-07-12T07:24:36	21.9	87.5
75410	2024-07-12T07:34:36	22	87.5
75411	2024-07-12T07:44:36	22.3	87
75412	2024-07-12T07:54:36	22.5	86
75413	2024-07-12T08:04:36	22.5	86
75414	2024-07-12T08:14:36	22.5	86
75415	2024-07-12T08:24:36	22.2	86.5
75416	2024-07-12T08:34:36	22.3	87
75417	2024-07-12T08:54:36	22.9	85
75418	2024-07-12T09:14:36	23.9	81.5
75419	2024-07-12T09:24:36	24.2	81
75420	2024-07-12T09:34:36	24.6	79.5
75421	2024-07-12T09:44:36	24.9	78
75422	2024-07-12T09:54:36	25.3	76
75423	2024-07-12T10:04:36	25.2	75
75424	2024-07-12T10:14:35	25.1	74.5
75425	2024-07-12T10:24:35	24.6	76
75426	2024-07-12T10:34:35	24.1	78.5
75427	2024-07-12T10:44:35	24.4	77
75428	2024-07-12T10:54:35	25.1	73
75429	2024-07-12T11:04:35	25	72.5
75430	2024-07-12T11:14:35	24.7	74
75431	2024-07-12T11:24:35	24.3	71.5
75432	2024-07-12T11:34:35	23.9	75
75433	2024-07-12T11:44:35	23.8	75
75434	2024-07-12T11:54:35	23.9	75
75435	2024-07-12T12:04:35	23.4	80.5
75436	2024-07-12T12:14:35	23.1	80.5
75437	2024-07-12T12:24:35	23.1	80.5
75438	2024-07-12T12:34:35	23.1	80.5
75439	2024-07-12T12:44:35	23.4	80
75440	2024-07-12T12:54:35	24.2	76.5
75441	2024-07-12T13:04:35	24.9	75
75442	2024-07-12T13:14:35	25.1	73.5
75443	2024-07-12T13:24:35	24.8	72.5
75444	2024-07-12T13:34:35	24.5	73
75445	2024-07-12T13:44:35	24.3	73
75446	2024-07-12T13:54:35	24.6	72.5
75447	2024-07-12T14:04:35	25.3	71.5
75448	2024-07-12T14:14:35	28.6	62
75449	2024-07-12T14:24:35	29.9	56.5
75450	2024-07-12T14:34:35	29	58
75451	2024-07-12T14:44:35	27.4	61
75452	2024-07-12T14:54:35	26.6	63
75453	2024-07-12T15:04:35	26.5	63
75454	2024-07-12T15:14:35	25.8	64.5
75455	2024-07-12T15:24:35	24.3	73
75456	2024-07-12T15:34:35	21.9	97.5
75457	2024-07-12T15:44:35	21.2	97.5
75458	2024-07-12T15:54:35	20.7	98
75459	2024-07-12T16:04:35	20.5	96
75460	2024-07-12T16:14:35	20.7	97
75461	2024-07-12T16:24:35	20.7	96
75462	2024-07-12T16:34:35	20.9	95.5
75463	2024-07-12T16:44:35	21.3	96.5
75464	2024-07-12T16:54:35	21.4	95
75465	2024-07-12T17:04:35	21.1	93
75466	2024-07-12T17:14:35	20.8	95.5
75467	2024-07-12T17:24:35	20.7	95
75468	2024-07-12T17:34:35	20.7	95
75469	2024-07-12T17:44:35	20.5	95
75470	2024-07-12T17:54:35	20.4	96
75471	2024-07-12T18:04:35	20.1	95
75472	2024-07-12T18:14:35	20	93
75473	2024-07-12T18:24:35	19.8	94
75474	2024-07-12T18:34:35	19.7	93
75475	2024-07-12T18:44:35	19.6	92
75476	2024-07-12T18:54:35	19.5	90.5
75477	2024-07-12T19:04:35	19.5	91
75478	2024-07-12T19:14:35	19.3	90
75479	2024-07-12T19:24:35	19.2	90
75480	2024-07-12T19:34:35	19.3	91
75481	2024-07-12T19:44:35	19.2	90
75482	2024-07-12T19:54:35	19.4	89.5
75483	2024-07-12T20:04:35	19.4	89.5
75484	2024-07-12T20:14:35	19.3	89.5
75485	2024-07-12T20:24:35	19.5	88
75486	2024-07-12T20:34:35	19.7	87.5
75487	2024-07-12T20:44:35	19.5	88
75488	2024-07-12T20:54:35	19.4	88
75489	2024-07-12T21:04:35	19.3	89
75490	2024-07-12T21:14:34	19.4	88
75491	2024-07-12T21:24:34	19.3	87
75492	2024-07-12T21:34:34	19.1	83
75493	2024-07-12T21:54:34	18.9	84.5
75494	2024-07-12T22:04:34	18.8	84.5
75495	2024-07-12T22:14:34	18.7	83.5
75496	2024-07-12T22:24:34	18.7	83.5
75497	2024-07-12T22:34:34	18.5	84
75498	2024-07-12T22:44:34	18.3	84.5
75499	2024-07-12T22:54:34	18.2	84
75500	2024-07-12T23:29:23	18.1	84
75501	2024-07-12T23:29:23	17.8	85
75502	2024-07-12T23:29:24	17.6	85.5
75503	2024-07-12T23:34:34	17.5	86.5
75504	2024-07-12T23:44:34	17.5	87
75505	2024-07-12T23:54:34	17.5	87
75506	2024-07-13T00:04:34	17.4	87
75507	2024-07-13T00:14:34	17.3	87.5
75508	2024-07-13T00:24:34	17.3	87.5
75509	2024-07-13T00:34:34	17.2	88
75510	2024-07-13T00:44:34	17	88.5
75511	2024-07-13T00:54:34	17.1	89
75512	2024-07-13T01:04:34	17	89
75513	2024-07-13T01:14:34	16.9	88.5
75514	2024-07-13T01:24:34	17	89
75515	2024-07-13T01:34:34	16.5	90
75516	2024-07-13T01:44:34	16.3	90
75517	2024-07-13T01:54:34	16.1	91
75518	2024-07-13T02:04:34	16	91.5
75519	2024-07-13T02:14:34	15.9	90.5
75520	2024-07-13T02:24:34	15.7	91.5
75521	2024-07-13T02:34:34	15.6	92.5
75522	2024-07-13T02:44:34	15.6	91.5
75523	2024-07-13T02:54:34	15.8	90.5
75524	2024-07-13T03:04:34	15.6	91
75525	2024-07-13T03:14:34	15.3	91
75526	2024-07-13T03:24:34	15.2	91.5
75527	2024-07-13T03:34:34	14.9	91.5
75528	2024-07-13T03:44:34	14.8	92
75529	2024-07-13T03:54:34	14.9	91.5
75530	2024-07-13T04:04:34	14.8	91.5
75531	2024-07-13T04:14:34	14.7	92
75532	2024-07-13T04:24:34	14.7	92
75533	2024-07-13T04:34:34	14.6	91.5
75534	2024-07-13T04:44:34	14.7	91.5
75535	2024-07-13T04:54:34	14.9	90.5
75536	2024-07-13T05:04:34	15.1	90.5
75537	2024-07-13T05:14:34	15.1	90
75538	2024-07-13T05:24:34	15.4	88
75539	2024-07-13T05:34:34	15.8	87
75540	2024-07-13T05:44:34	16.1	86
75541	2024-07-13T05:54:34	16.4	84
75542	2024-07-13T06:04:34	16.4	84.5
75543	2024-07-13T06:14:34	16.5	84
75544	2024-07-13T06:24:34	16.5	83.5
75545	2024-07-13T06:34:34	16.7	84
75546	2024-07-13T06:44:34	16.9	82.5
75547	2024-07-13T06:54:34	17.3	83
75548	2024-07-13T07:04:34	17.6	81
75549	2024-07-13T07:14:34	17.9	81
75550	2024-07-13T07:24:34	17.9	79.5
75551	2024-07-13T07:34:34	18.1	80.5
75552	2024-07-13T07:44:34	18.5	79.5
75553	2024-07-13T07:54:34	18.6	78.5
75554	2024-07-13T08:04:34	18.6	78
75555	2024-07-13T08:14:34	18.6	77
75556	2024-07-13T08:24:34	19	74.5
75557	2024-07-13T08:34:34	19.2	71
75558	2024-07-13T08:44:34	19.3	72
75559	2024-07-13T08:54:34	19.9	71.5
75560	2024-07-13T09:04:33	20	69.5
75561	2024-07-13T09:14:33	20.3	69.5
75562	2024-07-13T09:24:33	20.6	70.5
75563	2024-07-13T09:34:33	20.5	69.5
75564	2024-07-13T09:44:33	20	70.5
75565	2024-07-13T09:54:33	20.6	69
75566	2024-07-13T10:04:33	20.7	68.5
75567	2024-07-13T10:14:33	20.6	68
75568	2024-07-13T10:24:33	20.9	67
75569	2024-07-13T10:34:33	20.7	65.5
75570	2024-07-13T10:44:33	20.9	67
75571	2024-07-13T10:54:33	21.2	63.5
75572	2024-07-13T11:04:33	21.3	64
75573	2024-07-13T11:14:33	21.3	62.5
75574	2024-07-13T11:24:33	21.4	63.5
75575	2024-07-13T11:34:33	21.5	63.5
75576	2024-07-13T11:44:33	21.8	64.5
75577	2024-07-13T11:54:33	22.5	60
75578	2024-07-13T12:04:33	22.6	59
75579	2024-07-13T12:14:33	22.8	59
75580	2024-07-13T12:24:33	26.2	50
75581	2024-07-13T12:34:33	27.9	47.5
75582	2024-07-13T12:44:33	28.8	43.5
75583	2024-07-13T12:54:33	30.2	39.5
75584	2024-07-13T13:04:33	29.9	38.5
75585	2024-07-13T13:14:33	31.3	36.5
75586	2024-07-13T13:24:33	31.4	35.5
75587	2024-07-13T13:34:33	30.4	38
75588	2024-07-13T13:44:33	27.4	42
75589	2024-07-13T13:54:33	30.3	37
75590	2024-07-13T14:04:33	27.5	42
75591	2024-07-13T14:14:33	27.9	41
75592	2024-07-13T14:24:49	27.8	43
75593	2024-07-13T14:34:33	29.3	40
75594	2024-07-13T14:44:33	27.8	42
75595	2024-07-13T14:54:33	27	41.5
75596	2024-07-13T15:04:33	27.7	40
75597	2024-07-13T15:14:33	30.6	34.5
75598	2024-07-13T15:24:33	30.5	35
75599	2024-07-13T15:34:33	32.1	33
75600	2024-07-13T15:44:33	31.3	35.5
75601	2024-07-13T15:54:33	29.5	38
75602	2024-07-13T16:04:33	32.4	34
75603	2024-07-13T16:14:33	32	34
75604	2024-07-13T16:24:33	31.7	32
75605	2024-07-13T16:34:33	32	32.5
75606	2024-07-13T16:44:33	32.2	33
75607	2024-07-13T16:54:33	31.6	34
75608	2024-07-13T17:04:33	29.2	37.5
75609	2024-07-13T17:14:33	29.7	39
75610	2024-07-13T17:24:33	29.4	38
75611	2024-07-13T17:34:33	27.5	41
75612	2024-07-13T17:44:33	25.6	45.5
75613	2024-07-13T17:54:33	25.4	45.5
75614	2024-07-13T18:04:33	24.9	49
75615	2024-07-13T18:14:33	24.8	51.5
75616	2024-07-13T18:24:33	24.7	54
75617	2024-07-13T18:34:33	24.6	55.5
75618	2024-07-13T18:44:33	24.5	56
75619	2024-07-13T18:54:33	24.2	59
75620	2024-07-13T19:04:33	24.4	58
75621	2024-07-13T19:14:33	23.6	59
75622	2024-07-13T19:24:33	23	59.5
75623	2024-07-13T19:34:32	22.6	60.5
75624	2024-07-13T19:44:32	22.2	59.5
75625	2024-07-13T19:54:32	22.1	60
75626	2024-07-13T20:04:33	21.7	63.5
75627	2024-07-13T20:14:32	21.4	65
75628	2024-07-13T20:24:33	20.9	65.5
75629	2024-07-13T20:34:32	20.5	67
75630	2024-07-13T20:44:32	20.4	67.5
75631	2024-07-13T20:54:32	20.3	67
75632	2024-07-13T21:04:32	20.2	67.5
75633	2024-07-13T21:14:32	19.9	69
75634	2024-07-13T21:24:32	19.8	68
75635	2024-07-13T21:34:32	19.4	70
75636	2024-07-13T21:44:32	19.2	69.5
75637	2024-07-13T21:54:32	18.9	70.5
75638	2024-07-13T22:04:32	18.5	73
75639	2024-07-13T22:14:32	18.3	73.5
75640	2024-07-13T22:24:32	18	74
75641	2024-07-13T22:34:32	18	74.5
75642	2024-07-13T22:44:32	17.8	74
75643	2024-07-13T22:54:32	17.8	75.5
75644	2024-07-13T23:29:44	17.9	75.5
75645	2024-07-13T23:29:44	17.9	77.5
75646	2024-07-13T23:29:44	17.9	77
75647	2024-07-13T23:34:32	17.9	76.5
75648	2024-07-13T23:44:32	17.8	76.5
75649	2024-07-13T23:54:32	17.8	77.5
75650	2024-07-14T00:04:32	17.5	78.5
75651	2024-07-14T00:14:32	17.6	79
75652	2024-07-14T00:24:32	17.3	79.5
75653	2024-07-14T00:34:32	17.1	80.5
75654	2024-07-14T00:44:32	16.8	80.5
75655	2024-07-14T00:54:32	16.5	81
75656	2024-07-14T01:04:32	16.4	82
75657	2024-07-14T01:14:32	16.2	82.5
75658	2024-07-14T01:24:32	16	83.5
75659	2024-07-14T01:34:32	15.8	83
75660	2024-07-14T01:44:32	15.8	83
75661	2024-07-14T01:54:32	15.6	83
75662	2024-07-14T02:04:32	15.4	84
75663	2024-07-14T02:14:32	15.2	84
75664	2024-07-14T02:24:32	15	82.5
75665	2024-07-14T02:34:32	15.1	83
75666	2024-07-14T02:44:32	15	82.5
75667	2024-07-14T02:54:32	14.9	83
75668	2024-07-14T03:04:32	14.7	84.5
75669	2024-07-14T03:14:32	14.5	85
75670	2024-07-14T03:24:32	14.4	85
75671	2024-07-14T03:34:32	14.3	83.5
75672	2024-07-14T03:44:32	14.2	85
75673	2024-07-14T03:54:32	14	85.5
75674	2024-07-14T04:04:32	13.9	86.5
75675	2024-07-14T04:14:32	14	86.5
75676	2024-07-14T04:24:32	14	86.5
75677	2024-07-14T04:34:32	14	87
75678	2024-07-14T04:44:32	14	86.5
75679	2024-07-14T04:54:32	14.2	86.5
75680	2024-07-14T05:04:32	14.3	86.5
75681	2024-07-14T05:14:32	14.4	86.5
75682	2024-07-14T05:24:32	14.6	86.5
75683	2024-07-14T05:34:32	14.8	85.5
75684	2024-07-14T05:44:32	14.9	85
75685	2024-07-14T05:54:32	15.1	85
75686	2024-07-14T06:04:32	15.3	85
75687	2024-07-14T06:14:32	15.5	82.5
75688	2024-07-14T06:24:32	15.7	82.5
75689	2024-07-14T06:34:32	15.9	82.5
75690	2024-07-14T06:44:32	16	80.5
75691	2024-07-14T06:54:32	16.3	79.5
75692	2024-07-14T07:04:32	16.6	77
75693	2024-07-14T07:14:32	16.9	78
75694	2024-07-14T07:24:32	17.1	77.5
75695	2024-07-14T07:34:32	17.2	77.5
75696	2024-07-14T07:44:31	17.5	76
75697	2024-07-14T07:54:31	17.9	74.5
75698	2024-07-14T08:04:31	18.3	70
75699	2024-07-14T08:14:31	18.4	74.5
75700	2024-07-14T08:24:31	18.6	73
75701	2024-07-14T08:34:31	18.8	71
75702	2024-07-14T08:44:31	19	72
75703	2024-07-14T08:54:31	19.1	72.5
75704	2024-07-14T09:04:31	19.6	69.5
75705	2024-07-14T09:14:31	19.7	68.5
75706	2024-07-14T09:24:31	19.8	69.5
75707	2024-07-14T09:34:31	20.3	59.5
75708	2024-07-14T09:44:31	20.4	64.5
75709	2024-07-14T09:54:31	20.9	64
75710	2024-07-14T10:04:31	21.1	61.5
75711	2024-07-14T10:14:31	21.4	60.5
75712	2024-07-14T10:24:31	21.7	57.5
75713	2024-07-14T10:34:31	22.1	53.5
75714	2024-07-14T10:44:31	22.6	52.5
75715	2024-07-14T10:54:31	23.1	52.5
75716	2024-07-14T11:04:31	23.2	53
75717	2024-07-14T11:14:31	23.4	51.5
75718	2024-07-14T11:24:31	23.5	52
75719	2024-07-14T11:34:31	23.6	50
75720	2024-07-14T11:44:31	23.7	49
75721	2024-07-14T11:54:31	23.9	50
75722	2024-07-14T12:04:31	24.6	47
75723	2024-07-14T12:14:31	25.2	48
75724	2024-07-14T12:24:31	29	39.5
75725	2024-07-14T12:34:31	31.2	33.5
75726	2024-07-14T12:44:31	30.6	34.5
75727	2024-07-14T12:54:31	29.1	36
75728	2024-07-14T13:04:31	28.1	39
75729	2024-07-14T13:14:31	27.7	43
75730	2024-07-14T13:24:31	28	41.5
75731	2024-07-14T13:34:31	28.5	39.5
75732	2024-07-14T13:44:31	31.1	38.5
75733	2024-07-14T13:54:31	30.5	37
75734	2024-07-14T14:04:31	30.5	38
75735	2024-07-14T14:14:31	31	37.5
75736	2024-07-14T14:24:31	30.5	37
75737	2024-07-14T14:34:31	28.6	39
75738	2024-07-14T14:44:31	29.9	38
75739	2024-07-14T14:54:31	28.4	41.5
75740	2024-07-14T15:04:31	27.5	41.5
75741	2024-07-14T15:14:31	26.7	44
75742	2024-07-14T15:24:31	26.6	50
75743	2024-07-14T15:34:31	27	47
75744	2024-07-14T15:44:31	27	49.5
75745	2024-07-14T15:54:31	26.7	46
75746	2024-07-14T16:04:31	26.5	48
75747	2024-07-14T16:14:31	26.4	46.5
75748	2024-07-14T16:24:31	26.3	46
75749	2024-07-14T16:34:31	25.9	48
75750	2024-07-14T16:44:31	25.8	58
75751	2024-07-14T16:54:31	25.4	59
75752	2024-07-14T17:04:31	25.1	59
75753	2024-07-14T17:14:31	24.9	61
75754	2024-07-14T17:24:31	24.6	60.5
75755	2024-07-14T17:34:31	24.1	62.5
75756	2024-07-14T17:44:31	23.8	60.5
75757	2024-07-14T17:54:31	23.7	60
75758	2024-07-14T18:14:30	23.6	64
75759	2024-07-14T18:24:30	23.5	64.5
75760	2024-07-14T18:34:30	23.4	65.5
75761	2024-07-14T18:44:30	23.1	64.5
75762	2024-07-14T18:54:30	23	64.5
75763	2024-07-14T19:04:30	22.7	65.5
75764	2024-07-14T19:14:30	22.6	67.5
75765	2024-07-14T19:24:30	22.4	69
75766	2024-07-14T19:34:30	22.2	70
75767	2024-07-14T19:44:30	22.1	69
75768	2024-07-14T19:54:30	21.8	70
75769	2024-07-14T20:04:30	21.6	70.5
75770	2024-07-14T20:14:30	21.2	69.5
75771	2024-07-14T20:24:30	21	70
75772	2024-07-14T20:34:30	20.9	70.5
75773	2024-07-14T20:44:30	21	71
75774	2024-07-14T20:54:30	20.9	73
75775	2024-07-14T21:04:30	20.4	74.5
75776	2024-07-14T21:14:30	20.3	75.5
75777	2024-07-14T21:24:30	20.1	77
75778	2024-07-14T21:34:30	19.8	77
75779	2024-07-14T21:44:30	19.6	77
75780	2024-07-14T21:54:30	19.4	78
75781	2024-07-14T22:04:30	19.1	79.5
75782	2024-07-14T22:14:30	19	80
75783	2024-07-14T22:24:30	18.9	80
75784	2024-07-14T22:34:30	18.6	80.5
75785	2024-07-14T22:44:30	18.5	79.5
75786	2024-07-14T22:54:30	18.4	79.5
75787	2024-07-14T23:29:32	18.1	81
75788	2024-07-14T23:29:32	18.1	81.5
75789	2024-07-14T23:29:33	18	80.5
75790	2024-07-14T23:34:30	17.8	81
75791	2024-07-14T23:44:30	17.6	82
75792	2024-07-14T23:54:30	17.4	82.5
75793	2024-07-15T00:04:30	17.5	81.5
75794	2024-07-15T00:14:30	17.6	81
75795	2024-07-15T00:24:30	17.8	79
75796	2024-07-15T00:34:30	17.8	80
75797	2024-07-15T00:44:30	17.8	80.5
75798	2024-07-15T00:54:30	17.8	81
75799	2024-07-15T01:04:30	17.8	81.5
75800	2024-07-15T01:14:30	17.8	82
75801	2024-07-15T01:24:30	17.8	81.5
75802	2024-07-15T01:34:30	17.7	82.5
75803	2024-07-15T01:44:30	17.4	83
75804	2024-07-15T01:54:30	17.3	83.5
75805	2024-07-15T02:04:30	17	84
75806	2024-07-15T02:14:30	16.8	84.5
75807	2024-07-15T02:24:30	16.7	85.5
75808	2024-07-15T02:34:30	16.5	85.5
75809	2024-07-15T02:44:30	16.2	86.5
75810	2024-07-15T02:54:30	16.1	87
75811	2024-07-15T03:04:30	16.1	87.5
75812	2024-07-15T03:14:30	16	87.5
75813	2024-07-15T03:24:30	15.8	87.5
75814	2024-07-15T03:34:30	15.8	87.5
75815	2024-07-15T03:44:30	15.8	88
75816	2024-07-15T03:54:30	15.8	88
75817	2024-07-15T04:04:30	15.7	88.5
75818	2024-07-15T04:14:30	15.6	88
75819	2024-07-15T04:24:30	15.7	88.5
75820	2024-07-15T04:34:30	15.7	89
75821	2024-07-15T04:44:30	15.8	88.5
75822	2024-07-15T04:54:30	15.8	89
75823	2024-07-15T05:04:30	15.9	89.5
75824	2024-07-15T05:14:30	16	89.5
75825	2024-07-15T05:24:30	16.2	89.5
75826	2024-07-15T05:34:29	16.3	89.5
75827	2024-07-15T05:44:29	16.5	89
75828	2024-07-15T05:54:29	16.7	88.5
75829	2024-07-15T06:04:29	17	88
75830	2024-07-15T06:14:29	17.2	86
75831	2024-07-15T06:24:29	17.3	85.5
75832	2024-07-15T06:34:29	17.4	84.5
75833	2024-07-15T06:44:29	17.8	84
75834	2024-07-15T06:54:29	18.1	84
75835	2024-07-15T07:04:29	18.2	84
75836	2024-07-15T07:14:29	18.4	83.5
75837	2024-07-15T07:24:29	18.7	82
75838	2024-07-15T07:34:29	18.9	81.5
75839	2024-07-15T07:44:29	19.2	81
75840	2024-07-15T07:54:29	19.4	81
75841	2024-07-15T08:04:29	19.8	80.5
75842	2024-07-15T08:14:29	20	80.5
75843	2024-07-15T08:24:29	20.3	78.5
75844	2024-07-15T08:34:29	20.6	77.5
75845	2024-07-15T08:44:29	20.8	76.5
75846	2024-07-15T08:54:29	21	75.5
75847	2024-07-15T09:04:29	21.4	76.5
75848	2024-07-15T09:14:29	21.7	73.5
75849	2024-07-15T09:24:29	22.1	72
75850	2024-07-15T09:34:29	22.3	72.5
75851	2024-07-15T09:44:29	22.8	69
75852	2024-07-15T09:54:29	23	70
75853	2024-07-15T10:04:29	23.4	68.5
75854	2024-07-15T10:14:29	23.7	66.5
75855	2024-07-15T10:24:29	24.1	65.5
75856	2024-07-15T10:34:29	24.5	63
75857	2024-07-15T10:44:29	24.6	63.5
75858	2024-07-15T10:54:29	25.1	63
75859	2024-07-15T11:04:29	25.5	61.5
75860	2024-07-15T11:14:29	25.8	61
75861	2024-07-15T11:24:29	26.3	61
75862	2024-07-15T11:34:29	26.7	60.5
75863	2024-07-15T11:44:29	27.2	60.5
75864	2024-07-15T11:54:29	27.5	58.5
75865	2024-07-15T12:04:29	28.3	55.5
75866	2024-07-15T12:14:29	29.1	52
75867	2024-07-15T12:24:29	33.2	45
75868	2024-07-15T12:34:29	37	39
75869	2024-07-15T12:44:29	38.5	33.5
75870	2024-07-15T12:54:29	38.4	36
75871	2024-07-15T13:04:29	39.9	35
75872	2024-07-15T13:14:29	39.6	33.5
75873	2024-07-15T13:24:29	40.6	32
75874	2024-07-15T13:34:29	42.8	29.5
75875	2024-07-15T13:44:29	41.6	32
75876	2024-07-15T13:54:29	39.6	34
75877	2024-07-15T14:04:29	36.4	36.5
75878	2024-07-15T14:14:29	37.7	37
75879	2024-07-15T14:24:29	38.2	37
75880	2024-07-15T14:34:29	40.2	33
75881	2024-07-15T14:44:29	40.9	31
75882	2024-07-15T14:54:29	40.3	31
75883	2024-07-15T15:04:29	41.8	30
75884	2024-07-15T15:14:29	43.9	30
75885	2024-07-15T15:24:29	43.6	28.5
75886	2024-07-15T15:34:29	44.8	27
75887	2024-07-15T15:44:29	42.3	28.5
75888	2024-07-15T15:54:29	42.1	29
75889	2024-07-15T16:04:29	44.1	28
75890	2024-07-15T16:14:29	42.3	31.5
75891	2024-07-15T16:24:29	39.9	32.5
75892	2024-07-15T16:34:29	36.9	36
75893	2024-07-15T16:44:29	35.2	42
75894	2024-07-15T16:54:29	34.2	49.5
75895	2024-07-15T17:04:28	33.6	51
75896	2024-07-15T17:14:29	32.7	53
75897	2024-07-15T17:24:28	31.8	55
75898	2024-07-15T17:34:28	31.5	55
75899	2024-07-15T17:44:28	31.5	57
75900	2024-07-15T17:54:28	31.4	57.5
75901	2024-07-15T18:04:28	31.4	58
75902	2024-07-15T18:14:28	31	57.5
75903	2024-07-15T18:24:28	30.7	56.5
75904	2024-07-15T18:34:28	30.4	56.5
75905	2024-07-15T18:44:28	29.6	59.5
75906	2024-07-15T18:54:28	29.6	60.5
75907	2024-07-15T19:04:28	29	63
75908	2024-07-15T19:14:28	28.6	65
75909	2024-07-15T19:24:28	28.6	65
75910	2024-07-15T19:34:28	28.5	65
75911	2024-07-15T19:44:28	28.1	67
75912	2024-07-15T19:54:28	23.4	91.5
75913	2024-07-15T20:04:28	21	100
75914	2024-07-15T20:14:28	20.5	100
75915	2024-07-15T20:24:28	20.3	100
75916	2024-07-15T20:34:28	20.1	100
75917	2024-07-15T20:44:28	20.4	100
75918	2024-07-15T20:54:28	20.5	100
75919	2024-07-15T21:04:28	20.6	100
75920	2024-07-15T21:14:28	20.7	100
75921	2024-07-15T21:24:28	20.6	100
75922	2024-07-15T21:34:28	20.6	99.5
75923	2024-07-15T21:44:28	20.7	98.5
75924	2024-07-15T21:54:28	20.7	97.5
75925	2024-07-15T22:04:28	20.3	96.5
75926	2024-07-15T22:14:28	20.2	95.5
75927	2024-07-15T22:24:28	19.8	94.5
75928	2024-07-15T22:34:28	19.6	94.5
75929	2024-07-15T22:44:28	19.4	94.5
75930	2024-07-15T22:54:28	19.2	94.5
75931	2024-07-15T23:29:38	19	94.5
75932	2024-07-15T23:29:39	19	94.5
75933	2024-07-15T23:29:39	18.8	94.5
75934	2024-07-15T23:34:28	18.9	95
75935	2024-07-15T23:44:28	18.7	95
75936	2024-07-15T23:54:28	18.7	95.5
75937	2024-07-16T00:04:28	18.6	95.5
75938	2024-07-16T00:14:28	18.8	95.5
75939	2024-07-16T00:24:28	18.8	95.5
75940	2024-07-16T00:34:28	18.8	95.5
75941	2024-07-16T00:44:28	18.9	95.5
75942	2024-07-16T00:54:28	18.9	95.5
75943	2024-07-16T01:04:28	19.2	95.5
75944	2024-07-16T01:14:28	19.2	95.5
75945	2024-07-16T01:24:28	19	95.5
75946	2024-07-16T01:34:28	19.1	95.5
75947	2024-07-16T01:44:28	19	95.5
75948	2024-07-16T01:54:28	19.1	95.5
75949	2024-07-16T02:04:28	19	95.5
75950	2024-07-16T02:14:28	18.9	95.5
75951	2024-07-16T02:24:28	18.7	95.5
75952	2024-07-16T02:34:28	18.8	95.5
75953	2024-07-16T02:44:28	18.9	96
75954	2024-07-16T02:54:28	19	95.5
75955	2024-07-16T03:04:28	18.9	95.5
75956	2024-07-16T03:14:28	18.9	96
75957	2024-07-16T03:24:28	19	95.5
75958	2024-07-16T03:34:28	18.8	96
75959	2024-07-16T03:44:28	18.8	96
75960	2024-07-16T03:54:28	18.7	95.5
75961	2024-07-16T04:04:28	18.7	96
75962	2024-07-16T04:14:27	18.6	96
75963	2024-07-16T04:24:27	18.6	96
75964	2024-07-16T04:34:27	18.4	96
75965	2024-07-16T04:44:27	18.5	96
75966	2024-07-16T04:54:27	18.5	96
75967	2024-07-16T05:04:27	18.4	96
75968	2024-07-16T05:14:27	18.3	96
75969	2024-07-16T05:24:27	18.3	96
75970	2024-07-16T05:34:27	18.8	96
75971	2024-07-16T05:44:27	18.9	96
75972	2024-07-16T05:54:27	18.8	96
75973	2024-07-16T06:04:27	19.1	99
75974	2024-07-16T06:14:27	19.5	99
75975	2024-07-16T06:24:27	19.8	99
75976	2024-07-16T06:34:27	20.1	100
75977	2024-07-16T06:44:27	20.3	99.5
75978	2024-07-16T06:54:27	20.3	92.5
75979	2024-07-16T07:04:27	20.7	93
75980	2024-07-16T07:14:27	20.9	87.5
75981	2024-07-16T07:24:27	20.8	79
75982	2024-07-16T07:34:27	21.2	77.5
75983	2024-07-16T07:44:27	21.7	76.5
75984	2024-07-16T07:54:27	21.6	72.5
75985	2024-07-16T08:04:27	21.7	72
75986	2024-07-16T08:14:27	21.7	72
75987	2024-07-16T08:24:27	22	71
75988	2024-07-16T08:34:27	22	73.5
75989	2024-07-16T08:44:27	21.7	73
75990	2024-07-16T08:54:27	21.7	73.5
75991	2024-07-16T09:04:27	22	71.5
75992	2024-07-16T09:14:27	22.2	71
75993	2024-07-16T09:24:27	22.4	69
75994	2024-07-16T09:34:27	22	68.5
75995	2024-07-16T09:44:27	22.2	70.5
75996	2024-07-16T09:54:27	22	70
75997	2024-07-16T10:04:27	21.7	70.5
75998	2024-07-16T10:14:27	22.2	70
75999	2024-07-16T10:24:27	22.7	68
76000	2024-07-16T10:34:27	23.2	66
76001	2024-07-16T10:44:27	23.7	65
76002	2024-07-16T10:54:27	23.8	61.5
76003	2024-07-16T11:04:27	24	61.5
76004	2024-07-16T11:14:27	24.3	62.5
76005	2024-07-16T11:24:27	24	60
76006	2024-07-16T11:34:27	24.2	57
76007	2024-07-16T11:44:27	24.4	59
76008	2024-07-16T11:54:27	24.5	60
76009	2024-07-16T12:04:27	24.7	60
76010	2024-07-16T12:14:27	25.1	57.5
76011	2024-07-16T12:24:27	29	49.5
76012	2024-07-16T12:44:27	26.9	52
76013	2024-07-16T12:54:27	29.9	46.5
76014	2024-07-16T13:04:27	31.2	46
76015	2024-07-16T13:14:27	30.3	46.5
76016	2024-07-16T13:24:27	27.1	53.5
76017	2024-07-16T13:34:27	26.7	53.5
76018	2024-07-16T13:44:27	30.6	43.5
76019	2024-07-16T13:54:27	32.1	40
76020	2024-07-16T14:04:27	30.5	42
76021	2024-07-16T14:14:46	28.4	47
76022	2024-07-16T14:24:27	29.7	43
76023	2024-07-16T14:34:27	28.6	44
76024	2024-07-16T14:44:27	27.7	47.5
76025	2024-07-16T14:54:27	27.1	47
76026	2024-07-16T14:59:34	27.8	46
76027	2024-07-16T15:09:34	30.4	40.5
76028	2024-07-16T15:19:34	28.7	43.5
76029	2024-07-16T15:29:33	28.2	45
76030	2024-07-16T15:39:33	27	47.5
76031	2024-07-16T15:49:33	26.8	48.5
76032	2024-07-16T15:59:33	26.5	48
76033	2024-07-16T16:09:33	28.1	44.5
76034	2024-07-16T16:19:33	30.8	40
76035	2024-07-16T16:29:33	31.5	39
76036	2024-07-16T16:39:33	31.3	38
76037	2024-07-16T16:49:33	29.7	39
76038	2024-07-16T16:59:33	29.2	41
76039	2024-07-16T17:09:33	27.5	43.5
76040	2024-07-16T17:19:33	27	45.5
76041	2024-07-16T17:29:33	27.6	44
76042	2024-07-16T17:39:33	28.6	41.5
76043	2024-07-16T17:49:33	29.5	42.5
76044	2024-07-16T17:59:33	28.1	41
76045	2024-07-16T18:09:33	28.1	41
76046	2024-07-16T18:19:33	28	42.5
76047	2024-07-16T18:29:33	27.5	43.5
76048	2024-07-16T18:39:33	26.7	44.5
76049	2024-07-16T18:49:33	25.8	47.5
76050	2024-07-16T18:59:33	25.3	49.5
76051	2024-07-16T19:09:33	24.5	52.5
76052	2024-07-16T19:19:33	24.1	54
76053	2024-07-16T19:29:33	23.6	55.5
76054	2024-07-16T19:39:33	23.6	58
76055	2024-07-16T19:49:33	23.1	61.5
76056	2024-07-16T19:59:33	22.9	63.5
76057	2024-07-16T20:09:33	22.5	66
76058	2024-07-16T20:19:33	22.3	66
76059	2024-07-16T20:29:33	22.1	67.5
76060	2024-07-16T20:39:33	21.9	69.5
76061	2024-07-16T20:49:33	21.7	70.5
76062	2024-07-16T20:59:33	21.5	71
76063	2024-07-16T21:09:33	21.5	69.5
76064	2024-07-16T21:19:33	21.4	68
76065	2024-07-16T21:29:33	21.3	69.5
76066	2024-07-16T21:39:33	21.1	70.5
76067	2024-07-16T21:49:33	20.6	71.5
76068	2024-07-16T21:59:33	20.3	73.5
76069	2024-07-16T22:09:33	20.3	73
76070	2024-07-16T22:19:33	20	73.5
76071	2024-07-16T22:29:33	19.8	75
76072	2024-07-16T22:39:33	19.6	75.5
76073	2024-07-16T22:49:33	19.4	76
76074	2024-07-16T22:59:33	19.3	76.5
76075	2024-07-16T23:29:25	19	77.5
76076	2024-07-16T23:29:25	19	78
76077	2024-07-16T23:29:41	18.8	79
76078	2024-07-16T23:39:33	18.7	79.5
76079	2024-07-16T23:49:33	18.7	80
76080	2024-07-16T23:59:33	18.6	80.5
76081	2024-07-17T00:09:33	18.7	80
76082	2024-07-17T00:19:33	18.6	79.5
76083	2024-07-17T00:29:33	18.4	81
76084	2024-07-17T00:39:33	18.4	81.5
76085	2024-07-17T00:49:33	18.3	81.5
76086	2024-07-17T00:59:33	18.4	82.5
76087	2024-07-17T01:09:33	18.3	83
76088	2024-07-17T01:19:33	18.3	82.5
76089	2024-07-17T01:29:33	18.1	83
76090	2024-07-17T01:39:33	18.1	84
76091	2024-07-17T01:49:33	18	84
76092	2024-07-17T01:59:33	17.9	84
76093	2024-07-17T02:09:33	17.9	84
76094	2024-07-17T02:19:33	17.9	84
76095	2024-07-17T02:29:32	17.8	84.5
76096	2024-07-17T02:39:32	17.7	85.5
76097	2024-07-17T02:49:32	17.7	86
76098	2024-07-17T02:59:32	17.8	86
76099	2024-07-17T03:09:32	17.6	86.5
76100	2024-07-17T03:19:32	17.7	85
76101	2024-07-17T03:29:32	17.6	85.5
76102	2024-07-17T03:39:32	17.7	85.5
76103	2024-07-17T03:49:32	17.6	85.5
76104	2024-07-17T03:59:32	17.6	85
76105	2024-07-17T04:09:32	17.4	86.5
76106	2024-07-17T04:19:32	17.2	87.5
76107	2024-07-17T04:29:32	17.2	88
76108	2024-07-17T04:39:32	17.2	88
76109	2024-07-17T04:49:32	17	88.5
76110	2024-07-17T04:59:32	17.1	88.5
76111	2024-07-17T05:09:32	17.5	87
76112	2024-07-17T05:19:32	17.9	83.5
76113	2024-07-17T05:29:32	18.5	82
76114	2024-07-17T05:39:32	18.8	80.5
76115	2024-07-17T05:49:32	19.1	76.5
76116	2024-07-17T05:59:32	19.3	76.5
76117	2024-07-17T06:09:32	19.5	75.5
76118	2024-07-17T06:19:32	19.7	76
76119	2024-07-17T06:29:32	19.8	75.5
76120	2024-07-17T06:39:32	19.8	76
76121	2024-07-17T06:49:32	19.7	74.5
76122	2024-07-17T06:59:32	19.9	73.5
76123	2024-07-17T07:09:32	19.8	73.5
76124	2024-07-17T07:19:32	20.1	71.5
76125	2024-07-17T07:29:32	20.3	70.5
76126	2024-07-17T07:39:32	20.4	71
76127	2024-07-17T07:49:32	20.5	70.5
76128	2024-07-17T07:59:32	20.5	71.5
76129	2024-07-17T08:09:32	20.9	70.5
76130	2024-07-17T08:19:32	21	70
76131	2024-07-17T08:29:32	21.3	69
76132	2024-07-17T08:39:32	21.3	66.5
76133	2024-07-17T08:49:32	21.4	67
76134	2024-07-17T08:59:32	21.5	67.5
76135	2024-07-17T09:09:32	21.8	65
76136	2024-07-17T09:19:32	21.8	66.5
76137	2024-07-17T09:29:32	21.9	65
76138	2024-07-17T09:39:32	22.1	64.5
76139	2024-07-17T09:49:32	22.3	62.5
76140	2024-07-17T09:59:32	22.6	59.5
76141	2024-07-17T10:09:32	22.9	62
76142	2024-07-17T10:19:32	22.9	61.5
76143	2024-07-17T10:29:32	23.2	60.5
76144	2024-07-17T10:39:32	23.2	59
76145	2024-07-17T10:49:32	23.4	59.5
76146	2024-07-17T10:59:32	23.6	59.5
76147	2024-07-17T11:19:32	23.9	57
76148	2024-07-17T11:29:32	24.2	57
76149	2024-07-17T11:39:32	24.8	54.5
76150	2024-07-17T11:49:32	25.4	53.5
76151	2024-07-17T11:59:32	25.9	52.5
76152	2024-07-17T12:09:32	26.5	49.5
76153	2024-07-17T12:19:32	28.4	49.5
76154	2024-07-17T12:29:32	31.9	40
76155	2024-07-17T12:39:32	32.7	39
76156	2024-07-17T12:49:32	33.8	37.5
76157	2024-07-17T12:59:32	34.5	37
76158	2024-07-17T13:09:32	33.9	38
76159	2024-07-17T13:19:32	36	31.5
76160	2024-07-17T13:29:32	34.8	31
76161	2024-07-17T13:39:31	35.9	30.5
76162	2024-07-17T13:49:31	36.8	29.5
76163	2024-07-17T13:59:31	37.7	29.5
76164	2024-07-17T14:09:31	37.9	28.5
76165	2024-07-17T14:19:31	38	29
76166	2024-07-17T14:29:31	37.7	28.5
76167	2024-07-17T14:39:31	38.6	27.5
76168	2024-07-17T14:49:31	40.8	25
76169	2024-07-17T14:59:31	41.9	25
76170	2024-07-17T15:09:31	40.6	26.5
76171	2024-07-17T15:19:31	42.4	25.5
76172	2024-07-17T15:29:31	43.2	25.5
76173	2024-07-17T15:39:31	43.6	23.5
76174	2024-07-17T15:49:31	42.8	23.5
76175	2024-07-17T15:59:31	42.3	22.5
76176	2024-07-17T16:09:31	42	24.5
76177	2024-07-17T16:19:31	42.5	24
76178	2024-07-17T16:29:31	42.4	25.5
76179	2024-07-17T16:39:31	42.3	23.5
76180	2024-07-17T16:49:31	42.7	24.5
76181	2024-07-17T16:59:31	41.6	25
76182	2024-07-17T17:09:31	42.4	24
76183	2024-07-17T17:19:31	40.2	25.5
76184	2024-07-17T17:29:31	39.7	26
76185	2024-07-17T17:39:31	39.8	25
76186	2024-07-17T17:49:31	38.9	28
76187	2024-07-17T17:59:31	38.1	29
76188	2024-07-17T18:09:31	38.5	30
76189	2024-07-17T18:19:31	38.3	30
76190	2024-07-17T18:29:31	36.8	33.5
76191	2024-07-17T18:39:31	36.1	34.5
76192	2024-07-17T18:49:31	34.8	36.5
76193	2024-07-17T18:59:31	33.3	40.5
76194	2024-07-17T19:09:31	31.9	44
76195	2024-07-17T19:19:31	30.9	47
76196	2024-07-17T20:29:31	26.2	55.5
76197	2024-07-17T20:39:31	25.7	57
76198	2024-07-17T20:49:31	25.5	57
76199	2024-07-17T20:59:31	25.2	59
76200	2024-07-17T21:09:31	24.7	60
76201	2024-07-17T21:19:31	24.4	61
76202	2024-07-17T21:29:31	24.1	61
76203	2024-07-17T21:39:31	23.8	62.5
76204	2024-07-17T21:49:31	23.6	62.5
76205	2024-07-17T21:59:31	23.4	63.5
76206	2024-07-17T22:09:31	23.3	64
76207	2024-07-17T22:19:31	22.9	64.5
76208	2024-07-17T22:29:31	22.7	65
76209	2024-07-17T22:39:31	22.5	66
76210	2024-07-17T22:49:31	22.4	65
76211	2024-07-17T22:59:31	22.3	65.5
76212	2024-07-17T23:29:41	21.9	66
76213	2024-07-17T23:29:41	22.2	65.5
76214	2024-07-17T23:29:41	21.8	66.5
76215	2024-07-17T23:39:31	21.9	66
76216	2024-07-17T23:49:31	21.6	66
76217	2024-07-17T23:59:31	21.4	68
76218	2024-07-18T00:09:31	21.4	67
76219	2024-07-18T00:19:31	21	68.5
76220	2024-07-18T00:29:31	20.7	69
76221	2024-07-18T00:39:31	20.7	69.5
76222	2024-07-18T00:49:31	20.7	69.5
76223	2024-07-18T00:59:30	20.2	70.5
76224	2024-07-18T01:09:30	20.1	70
76225	2024-07-18T01:19:30	19.8	71.5
76226	2024-07-18T01:29:30	19.6	72.5
76227	2024-07-18T01:39:30	19.4	72.5
76228	2024-07-18T01:49:30	19.5	73
76229	2024-07-18T01:59:30	19.2	73.5
76230	2024-07-18T02:09:30	19	74
76231	2024-07-18T02:19:30	18.8	74
76232	2024-07-18T02:29:30	18.7	74.5
76233	2024-07-18T02:39:30	18.6	74.5
76234	2024-07-18T02:49:30	18.5	74.5
76235	2024-07-18T02:59:30	18.5	74
76236	2024-07-18T03:09:30	18.4	75
76237	2024-07-18T03:19:30	18.2	75
76238	2024-07-18T03:29:30	18.2	75.5
76239	2024-07-18T03:39:30	18	76
76240	2024-07-18T03:49:30	17.9	76
76241	2024-07-18T03:59:30	17.9	76.5
76242	2024-07-18T04:09:30	17.8	76.5
76243	2024-07-18T04:19:30	17.9	76.5
76244	2024-07-18T04:29:30	17.8	76.5
76245	2024-07-18T04:39:30	17.8	76.5
76246	2024-07-18T04:49:30	17.9	76.5
76247	2024-07-18T04:59:30	18.1	77
76248	2024-07-18T05:09:30	18.2	76.5
76249	2024-07-18T05:19:30	18.4	77
76250	2024-07-18T05:29:30	18.5	77.5
76251	2024-07-18T05:39:30	18.6	77.5
76252	2024-07-18T05:49:30	18.8	77
76253	2024-07-18T05:59:30	18.9	77
76254	2024-07-18T06:09:30	19.1	77
76255	2024-07-18T06:19:30	19.4	76
76256	2024-07-18T06:29:30	19.6	75.5
76257	2024-07-18T06:39:30	19.7	76
76258	2024-07-18T06:49:30	20.2	74.5
76259	2024-07-18T06:59:30	20.4	74.5
76260	2024-07-18T07:09:30	20.7	73
76261	2024-07-18T07:19:30	21	73.5
76262	2024-07-18T07:29:30	21.4	72
76263	2024-07-18T07:39:30	21.6	72
76264	2024-07-18T07:49:30	22	70.5
76265	2024-07-18T07:59:30	22.2	70.5
76266	2024-07-18T08:09:30	22.6	70
76267	2024-07-18T08:19:30	22.8	69.5
76268	2024-07-18T08:29:30	22.9	68
76269	2024-07-18T08:39:30	23.3	66
76270	2024-07-18T08:49:30	23.6	67.5
76271	2024-07-18T08:59:30	23.7	65.5
76272	2024-07-18T09:09:30	23.8	65
76273	2024-07-18T09:19:30	23.8	64.5
76274	2024-07-18T09:29:30	23.9	62.5
76275	2024-07-18T09:39:30	24	62.5
76276	2024-07-18T09:49:30	24.2	61
76277	2024-07-18T09:59:30	24.4	62.5
76278	2024-07-18T10:09:30	24.6	61
76279	2024-07-18T10:19:30	24.9	62
76280	2024-07-18T10:29:30	25.1	58.5
76281	2024-07-18T10:39:30	25.4	55
76282	2024-07-18T10:49:30	25.6	55.5
76283	2024-07-18T10:59:30	25.9	57
76284	2024-07-18T11:09:30	26.1	51.5
76285	2024-07-18T11:19:30	26.5	51.5
76286	2024-07-18T11:29:30	26.7	49
76287	2024-07-18T11:39:30	27.2	51
76288	2024-07-18T11:49:30	27.5	48
76289	2024-07-18T11:59:30	27.7	47
76290	2024-07-18T12:09:30	28.4	49.5
76291	2024-07-18T12:19:29	30.1	45.5
76292	2024-07-18T12:29:29	35.2	36
76293	2024-07-18T12:39:30	37.3	34.5
76294	2024-07-18T12:49:29	38.1	31.5
76295	2024-07-18T12:59:29	38.6	29
76296	2024-07-18T13:09:29	39.3	29.5
76297	2024-07-18T13:19:29	41.2	27.5
76298	2024-07-18T13:29:29	42.4	26.5
76299	2024-07-18T13:39:29	43.3	26
76300	2024-07-18T13:49:29	43.4	25.5
76301	2024-07-18T13:59:29	43.3	24.5
76302	2024-07-18T14:09:29	44.8	24.5
76303	2024-07-18T14:19:29	45.2	24
76304	2024-07-18T14:29:29	46.2	23
76305	2024-07-18T14:39:29	46	22.5
76306	2024-07-18T14:49:29	45.1	23.5
76307	2024-07-18T14:59:29	45.4	22.5
76308	2024-07-18T15:09:29	46.5	22.5
76309	2024-07-18T15:19:29	47	21.5
76310	2024-07-18T15:29:29	46.8	22
76311	2024-07-18T15:39:29	46.6	21.5
76312	2024-07-18T15:49:29	46.1	22.5
76313	2024-07-18T15:59:29	46.8	21.5
76314	2024-07-18T16:09:29	46.3	22
76315	2024-07-18T16:19:29	45.5	22.5
76316	2024-07-18T16:29:29	45.1	23
76317	2024-07-18T16:39:29	44.4	23
76318	2024-07-18T16:49:29	42.8	24
76319	2024-07-18T16:59:29	43.3	24
76320	2024-07-18T17:09:29	42.7	25
76321	2024-07-18T17:19:29	42.4	26
76322	2024-07-18T17:29:29	41.2	26
76323	2024-07-18T17:39:29	40.7	26.5
76324	2024-07-18T17:49:29	39.9	28
76325	2024-07-18T17:59:29	38.9	30
76326	2024-07-18T18:09:29	38.6	30
76327	2024-07-18T18:19:29	37.8	31
76328	2024-07-18T18:29:29	36	34
76329	2024-07-18T18:39:29	34.8	37
76330	2024-07-18T18:49:29	34	38
76331	2024-07-18T18:59:29	33.1	39.5
76332	2024-07-18T19:09:29	32.1	42
76333	2024-07-18T19:19:29	31.5	44
76334	2024-07-18T19:29:29	30.8	46
76335	2024-07-18T19:39:29	30.1	48
76336	2024-07-18T19:49:29	29.5	50
76337	2024-07-18T19:59:29	29.3	51
76338	2024-07-18T20:09:29	28.7	52
76339	2024-07-18T20:19:29	28.2	53
76340	2024-07-18T20:29:29	27.5	54.5
76341	2024-07-18T20:39:29	26.9	56.5
76342	2024-07-18T20:49:29	26.7	57
76343	2024-07-18T20:59:29	26.3	58
76344	2024-07-18T21:09:29	25.9	58.5
76345	2024-07-18T21:19:29	25.5	59.5
76346	2024-07-18T21:29:29	25.4	61
76347	2024-07-18T21:39:29	25	61
76348	2024-07-18T21:49:29	24.7	62
76349	2024-07-18T21:59:29	24.4	62
76350	2024-07-18T22:09:29	24.2	62.5
76351	2024-07-18T22:19:29	24.1	63.5
76352	2024-07-18T22:29:29	23.7	64
76353	2024-07-18T22:39:29	23.7	64
76354	2024-07-18T22:49:29	23.8	63
76355	2024-07-18T22:59:29	23.9	63.5
76356	2024-07-18T23:33:14	23.1	65.5
76357	2024-07-18T23:33:14	22.8	66
76358	2024-07-18T23:33:14	23.5	64
76359	2024-07-18T23:39:29	22.9	66
76360	2024-07-18T23:49:29	22.8	67
76361	2024-07-18T23:59:29	22.7	68.5
76362	2024-07-19T00:09:29	22.5	68.5
76363	2024-07-19T00:19:28	22.3	68.5
76364	2024-07-19T00:29:28	22.2	69
76365	2024-07-19T00:39:28	21.9	69.5
76366	2024-07-19T00:49:28	21.7	70.5
76367	2024-07-19T00:59:28	21.6	71
76368	2024-07-19T01:09:28	21.6	71
76369	2024-07-19T01:19:28	21.6	71.5
76370	2024-07-19T01:29:28	21.5	71.5
76371	2024-07-19T01:39:28	21.3	72
76372	2024-07-19T01:49:28	21.3	72
76373	2024-07-19T01:59:28	21.2	73
76374	2024-07-19T02:09:28	21	73.5
76375	2024-07-19T02:19:28	20.9	74
76376	2024-07-19T02:29:28	20.8	73.5
76377	2024-07-19T02:39:28	20.7	74
76378	2024-07-19T02:49:28	20.6	74.5
76379	2024-07-19T02:59:28	20.8	74
76380	2024-07-19T03:09:28	20.8	74
76381	2024-07-19T03:19:28	20.8	75
76382	2024-07-19T03:29:28	20.7	75.5
76383	2024-07-19T03:39:28	20.5	76.5
76384	2024-07-19T03:49:28	20.4	76
76385	2024-07-19T03:59:28	20.3	76
76386	2024-07-19T04:09:28	20.4	76
76387	2024-07-19T04:19:28	20.3	76
76388	2024-07-19T04:29:28	20.3	76
76389	2024-07-19T04:39:28	20.4	75.5
76390	2024-07-19T04:49:28	20.4	76
76391	2024-07-19T04:59:28	20.4	76
76392	2024-07-19T05:09:28	20.5	76
76393	2024-07-19T05:19:28	20.7	77
76394	2024-07-19T05:29:28	20.7	76.5
76395	2024-07-19T05:39:28	20.7	77.5
76396	2024-07-19T05:49:28	20.8	76.5
76397	2024-07-19T05:59:28	21	76.5
76398	2024-07-19T06:09:28	21.1	76.5
76399	2024-07-19T06:19:28	21.2	76
76400	2024-07-19T06:29:28	21.2	75.5
76401	2024-07-19T06:39:28	21.5	75.5
76402	2024-07-19T06:49:28	21.6	76
76403	2024-07-19T06:59:28	21.9	74.5
76404	2024-07-19T07:09:28	22.1	74
76405	2024-07-19T07:19:28	22.3	73
76406	2024-07-19T07:29:28	22.3	73
76407	2024-07-19T07:39:28	22.5	73
76408	2024-07-19T07:49:28	22.8	72.5
76409	2024-07-19T07:59:28	22.7	72
76410	2024-07-19T08:09:28	23	72
76411	2024-07-19T08:19:28	23.3	71.5
76412	2024-07-19T08:29:28	23.5	71
76413	2024-07-19T08:39:28	23.6	72
76414	2024-07-19T08:49:28	23.8	70
76415	2024-07-19T08:59:28	23.9	71.5
76416	2024-07-19T09:09:28	24.1	70.5
76417	2024-07-19T09:19:28	24.3	71
76418	2024-07-19T09:29:28	24.4	68.5
76419	2024-07-19T09:39:28	24.5	69.5
76420	2024-07-19T09:49:28	24.8	68.5
76421	2024-07-19T09:59:28	25	68
76422	2024-07-19T10:09:28	25.3	67.5
76423	2024-07-19T10:19:28	25.7	66.5
76424	2024-07-19T10:29:28	25.7	67
76425	2024-07-19T10:39:28	26.2	66.5
76426	2024-07-19T10:49:28	26.5	64
76427	2024-07-19T10:59:27	26.8	64
76428	2024-07-19T11:09:27	27	62
76429	2024-07-19T11:19:27	27.3	62
76430	2024-07-19T11:29:27	27.6	62
76431	2024-07-19T11:39:27	27.9	60.5
76432	2024-07-19T11:49:27	28.3	60
76433	2024-07-19T11:59:27	28.7	57.5
76434	2024-07-19T12:09:27	29.4	57.5
76435	2024-07-19T12:19:27	31.1	53.5
76436	2024-07-19T12:29:27	35.4	42
76437	2024-07-19T12:39:27	37.2	39
76438	2024-07-19T12:49:27	39	36.5
76439	2024-07-19T12:59:27	40.3	32.5
76440	2024-07-19T13:09:27	41.5	31.5
76441	2024-07-19T13:19:27	42.1	31
76442	2024-07-19T13:29:27	43	28.5
76443	2024-07-19T13:39:27	42.7	29.5
76444	2024-07-19T13:49:27	41.3	29
76445	2024-07-19T13:59:27	43.8	27.5
76446	2024-07-19T14:09:27	42.6	28
76447	2024-07-19T14:19:27	42.9	29.5
76448	2024-07-19T14:29:27	42	27.5
76449	2024-07-19T14:39:27	42	29.5
76450	2024-07-19T14:49:27	43.1	28
76451	2024-07-19T14:59:27	43.6	28
76452	2024-07-19T15:09:27	43.5	29
76453	2024-07-19T15:19:27	44.2	27.5
76454	2024-07-19T15:29:27	45.6	27.5
76455	2024-07-19T15:39:27	45.5	26
76456	2024-07-19T15:49:27	43.8	26
76457	2024-07-19T15:59:27	44.7	27.5
76458	2024-07-19T16:09:27	43.6	27.5
76459	2024-07-19T16:19:27	43.7	28.5
76460	2024-07-19T16:29:27	44.2	26.5
76461	2024-07-19T16:39:27	44.3	26
76462	2024-07-19T16:49:27	44.6	26.5
76463	2024-07-19T16:59:27	43.1	28.5
76464	2024-07-19T17:09:27	44.2	27
76465	2024-07-19T17:19:27	44.6	26.5
76466	2024-07-19T17:29:27	44.2	25
76467	2024-07-19T17:39:27	42.8	26.5
76468	2024-07-19T17:49:27	41.2	28.5
76469	2024-07-19T17:59:27	41.1	33
76470	2024-07-19T18:09:27	40.9	35.5
76471	2024-07-19T18:19:27	40.2	36.5
76472	2024-07-19T18:29:27	38	39
76473	2024-07-19T18:39:27	35.7	44
76474	2024-07-19T18:49:27	35.1	45.5
76475	2024-07-19T18:59:27	33.9	47
76476	2024-07-19T19:09:27	33.2	46.5
76477	2024-07-19T19:19:27	31.8	50
76478	2024-07-19T19:29:27	31.5	52
76479	2024-07-19T19:39:27	31.1	52.5
76480	2024-07-19T19:49:27	30.7	54.5
76481	2024-07-19T19:59:27	30.4	56
76482	2024-07-19T20:09:27	29.8	56.5
76483	2024-07-19T20:19:27	29.6	57.5
76484	2024-07-19T20:29:27	29.1	57.5
76485	2024-07-19T20:39:27	28.9	58
76486	2024-07-19T20:49:27	28.5	57.5
76487	2024-07-19T20:59:27	28.3	58.5
76488	2024-07-19T21:09:27	27.8	59
76489	2024-07-19T21:19:27	27.6	61
76490	2024-07-19T21:29:27	27.4	62
76491	2024-07-19T21:39:27	27.3	61.5
76492	2024-07-19T21:49:27	27.1	62.5
76493	2024-07-19T21:59:27	26.7	64.5
76494	2024-07-19T22:09:27	26.6	65.5
76495	2024-07-19T22:19:27	26.2	66.5
76496	2024-07-19T22:29:27	26.1	67
76497	2024-07-19T22:39:27	25.8	68.5
76498	2024-07-19T22:49:27	25.5	69.5
76499	2024-07-19T22:59:26	25.3	69
76500	2024-07-19T23:33:00	25.2	68.5
76501	2024-07-19T23:33:01	24.8	70
76502	2024-07-19T23:33:01	24.8	69.5
76503	2024-07-19T23:39:26	24.6	70
76504	2024-07-19T23:49:26	24.3	71.5
76505	2024-07-19T23:59:26	24.1	71.5
76506	2024-07-20T00:09:26	23.9	72
76507	2024-07-20T00:19:26	23.7	72
76508	2024-07-20T00:29:26	23.5	73.5
76509	2024-07-20T00:39:26	23.4	73.5
76510	2024-07-20T00:49:26	22.6	76
76511	2024-07-20T00:59:26	22.6	76.5
76512	2024-07-20T01:09:26	22.7	76
76513	2024-07-20T01:19:26	22.6	76.5
76514	2024-07-20T01:29:26	22.3	76.5
76515	2024-07-20T01:39:26	22.2	77.5
76516	2024-07-20T01:49:26	22	78
76517	2024-07-20T01:59:26	21.9	78
76518	2024-07-20T02:09:26	21.9	78.5
76519	2024-07-20T02:19:26	21.7	78.5
76520	2024-07-20T02:29:26	21.5	79.5
76521	2024-07-20T02:39:26	21.4	80
76522	2024-07-20T02:49:26	21.3	80
76523	2024-07-20T02:59:26	21.3	80
76524	2024-07-20T03:09:26	21	81
76525	2024-07-20T03:19:26	20.9	81
76526	2024-07-20T03:29:26	20.8	81
76527	2024-07-20T03:39:26	20.6	81
76528	2024-07-20T03:49:26	20.4	81.5
76529	2024-07-20T03:59:26	20.5	81.5
76530	2024-07-20T04:09:26	20.3	81.5
76531	2024-07-20T04:19:26	20.4	82
76532	2024-07-20T04:29:26	20.3	83
76533	2024-07-20T04:39:26	20.3	83.5
76534	2024-07-20T04:49:26	20.3	83.5
76535	2024-07-20T04:59:26	20.3	85
76536	2024-07-20T05:09:26	20.4	86
76537	2024-07-20T05:19:26	20.4	85
76538	2024-07-20T05:29:26	20.5	85
76539	2024-07-20T05:39:26	20.7	85
76540	2024-07-20T05:49:26	20.8	84.5
76541	2024-07-20T05:59:26	21	83.5
76542	2024-07-20T06:09:26	21.1	83
76543	2024-07-20T06:19:26	21.4	82.5
76544	2024-07-20T06:29:26	21.6	81
76545	2024-07-20T06:39:26	21.9	80
76546	2024-07-20T06:49:26	22.1	80
76547	2024-07-20T06:59:26	22.3	79
76548	2024-07-20T07:09:26	22.5	79
76549	2024-07-20T07:19:26	22.7	78.5
76550	2024-07-20T07:29:26	23	77.5
76551	2024-07-20T07:39:26	23.3	79
76552	2024-07-20T07:49:26	23.5	76
76553	2024-07-20T07:59:26	23.8	72.5
76554	2024-07-20T08:09:26	24.2	70
76555	2024-07-20T08:19:26	24.5	70.5
76556	2024-07-20T08:29:26	24.9	70.5
76557	2024-07-20T08:39:26	25	71.5
76558	2024-07-20T08:49:26	25.2	71.5
76559	2024-07-20T08:59:26	25.6	70.5
76560	2024-07-20T09:09:26	25.8	67.5
76561	2024-07-20T09:19:26	26	68
76562	2024-07-20T09:29:25	26.2	68
76563	2024-07-20T09:39:25	26.6	65.5
76564	2024-07-20T09:49:25	26.9	66
76565	2024-07-20T09:59:25	27	65.5
76566	2024-07-20T10:09:25	27	64
76567	2024-07-20T10:19:25	27.3	64
76568	2024-07-20T10:29:25	27.5	62.5
76569	2024-07-20T10:39:25	27.7	59.5
76570	2024-07-20T10:49:25	27.9	58.5
76571	2024-07-20T10:59:25	28.2	55
76572	2024-07-20T11:09:25	28.5	54
76573	2024-07-20T11:19:25	28.7	45
76574	2024-07-20T11:29:25	28.9	52.5
76575	2024-07-20T11:39:25	29.2	50.5
76576	2024-07-20T11:49:25	29.4	51.5
76577	2024-07-20T11:59:25	29.8	49
76578	2024-07-20T12:09:25	30.2	50
76579	2024-07-20T12:19:25	31.8	49.5
76580	2024-07-20T12:29:25	36.6	38
76581	2024-07-20T12:39:25	38.1	33
76582	2024-07-20T12:49:25	39.7	32
76583	2024-07-20T12:59:25	42	30
76584	2024-07-20T13:09:25	42.3	26.5
76585	2024-07-20T13:19:25	42.7	27
76586	2024-07-20T13:29:25	43.1	27.5
76587	2024-07-20T13:39:25	42.8	27
76588	2024-07-20T13:49:25	43.8	23
76589	2024-07-20T13:59:25	43.5	24.5
76590	2024-07-20T14:09:25	46.8	23.5
76591	2024-07-20T14:19:25	44.6	22.5
76592	2024-07-20T14:29:25	45.8	24
76593	2024-07-20T14:39:25	46.8	22
76594	2024-07-20T14:49:25	47.3	20
76595	2024-07-20T14:59:25	45.7	20.5
76596	2024-07-20T15:09:25	47.8	21
76597	2024-07-20T15:19:25	48.9	19.5
76598	2024-07-20T15:29:25	48.2	20
76599	2024-07-20T15:39:25	47.3	20.5
76600	2024-07-20T15:49:25	44.4	21.5
76601	2024-07-20T15:59:25	40.8	24
76602	2024-07-20T16:09:25	39.3	26
76603	2024-07-20T16:19:25	38	28.5
76604	2024-07-20T16:29:25	39.3	35.5
76605	2024-07-20T16:39:25	39.1	35.5
76606	2024-07-20T16:49:25	38.5	38
76607	2024-07-20T16:59:25	40.3	35.5
76608	2024-07-20T17:09:25	41.5	33
76609	2024-07-20T17:19:25	42.8	31.5
76610	2024-07-20T17:29:25	43.5	30
76611	2024-07-20T17:39:25	43.1	31
76612	2024-07-20T17:49:25	42.7	30
76613	2024-07-20T17:59:25	40	34
76614	2024-07-20T18:09:25	37.3	38.5
76615	2024-07-20T18:19:25	35.9	41
76616	2024-07-20T18:29:25	34.4	43
76617	2024-07-20T18:39:25	33.8	43.5
76618	2024-07-20T18:49:25	33.4	45
76619	2024-07-20T18:59:25	32.9	48
76620	2024-07-20T19:09:25	32.3	49
76621	2024-07-20T19:19:25	31.3	47.5
76622	2024-07-20T19:29:25	31.1	49.5
76623	2024-07-20T19:39:25	30.8	51
76624	2024-07-20T19:49:25	30.4	50.5
76625	2024-07-20T19:59:25	30	51
76626	2024-07-20T20:09:25	29.7	53.5
76627	2024-07-20T20:19:25	29.5	52.5
76628	2024-07-20T20:29:25	29.3	54
76629	2024-07-20T20:39:25	29.1	55
76630	2024-07-20T20:49:25	28.8	54.5
76631	2024-07-20T20:59:25	28.5	56.5
76632	2024-07-20T21:09:25	28.2	58
76633	2024-07-20T21:19:25	27.8	59.5
76634	2024-07-20T21:29:24	27.5	60.5
76635	2024-07-20T21:39:24	27.2	61.5
76636	2024-07-20T21:49:24	26.9	61.5
76637	2024-07-20T21:59:24	26.5	60.5
76638	2024-07-20T22:09:24	26.1	63.5
76639	2024-07-20T22:19:24	26	64.5
76640	2024-07-20T22:29:24	25.8	65
76641	2024-07-20T22:39:24	25.8	65.5
76642	2024-07-20T22:49:24	25.6	64.5
76643	2024-07-20T22:59:24	24.7	65.5
76644	2024-07-20T23:31:10	25	65.5
76645	2024-07-20T23:31:10	24.8	66
76646	2024-07-20T23:31:10	24.9	66
76647	2024-07-20T23:39:24	24.5	67
76648	2024-07-20T23:49:24	24.3	67.5
76649	2024-07-20T23:59:24	24.2	67.5
76650	2024-07-21T00:09:24	24.1	68
76651	2024-07-21T00:19:24	23.9	70
76652	2024-07-21T00:29:24	23.7	70.5
76653	2024-07-21T00:39:24	23.3	72.5
76654	2024-07-21T00:59:24	23.2	73.5
76655	2024-07-21T01:09:24	23.2	74
76656	2024-07-21T01:19:24	23	74
76657	2024-07-21T01:29:24	22.7	74.5
76658	2024-07-21T01:39:24	21.9	76.5
76659	2024-07-21T01:49:24	21.9	77
76660	2024-07-21T01:59:24	22.1	79.5
76661	2024-07-21T02:09:24	22.3	81.5
76662	2024-07-21T02:19:24	22.3	81
76663	2024-07-21T02:29:24	22.6	80
76664	2024-07-21T02:39:24	22.6	79
76665	2024-07-21T02:49:24	22.7	78.5
76666	2024-07-21T02:59:24	22.7	78.5
76667	2024-07-21T03:09:24	22.7	78
76668	2024-07-21T03:19:24	22.7	78
76669	2024-07-21T03:29:24	22.6	78
76670	2024-07-21T03:39:24	22.6	77.5
76671	2024-07-21T03:49:24	22.5	77.5
76672	2024-07-21T03:59:24	22.5	76.5
76673	2024-07-21T04:09:24	22.6	76
76674	2024-07-21T04:19:24	22.6	77.5
76675	2024-07-21T04:29:24	22.6	78
76676	2024-07-21T04:39:24	22.6	79
76677	2024-07-21T04:49:24	22.7	78.5
76678	2024-07-21T04:59:24	22.8	78
76679	2024-07-21T05:09:24	22.8	78.5
76680	2024-07-21T05:19:24	22.7	79
76681	2024-07-21T05:29:24	22.9	80
76682	2024-07-21T05:39:24	23	79
76683	2024-07-21T05:49:24	23.1	78.5
76684	2024-07-21T05:59:24	23.3	77
76685	2024-07-21T06:09:24	23.5	76.5
76686	2024-07-21T06:19:24	23.4	78
76687	2024-07-21T06:29:24	23.2	79.5
76688	2024-07-21T06:39:24	23.1	79.5
76689	2024-07-21T06:49:24	23.5	77.5
76690	2024-07-21T06:59:24	23.7	77
76691	2024-07-21T07:09:24	24.1	75
76692	2024-07-21T07:19:24	24.5	73.5
76693	2024-07-21T07:29:24	24.9	73
76694	2024-07-21T07:39:23	24.8	73
76695	2024-07-21T07:49:23	24.7	72.5
76696	2024-07-21T07:59:23	24.7	72
76697	2024-07-21T08:09:23	24.9	72
76698	2024-07-21T08:19:23	25.4	71.5
76699	2024-07-21T08:29:23	25.4	70.5
76700	2024-07-21T08:39:23	25.6	71
76701	2024-07-21T08:49:23	25.8	71
76702	2024-07-21T08:59:23	26	71
76703	2024-07-21T09:09:23	26.5	69.5
76704	2024-07-21T09:19:23	26.8	66
76705	2024-07-21T09:29:23	26.7	66.5
76706	2024-07-21T09:39:23	26.9	66.5
76707	2024-07-21T09:49:23	27.1	66
76708	2024-07-21T09:59:23	27.4	65
76709	2024-07-21T10:09:23	27.1	65.5
76710	2024-07-21T10:19:23	27.6	64
76711	2024-07-21T10:29:23	28.1	63
76712	2024-07-21T10:39:23	27.9	61
76713	2024-07-21T10:49:23	27.6	62
76714	2024-07-21T10:59:23	27.7	63.5
76715	2024-07-21T11:09:23	27.9	62
76716	2024-07-21T11:19:23	28	60.5
76717	2024-07-21T11:29:23	28.3	61
76718	2024-07-21T11:39:23	29.1	57
76719	2024-07-21T11:49:23	29.2	58
76720	2024-07-21T11:59:23	29.4	56
76721	2024-07-21T12:09:23	29.6	56
76722	2024-07-21T12:19:23	29.4	53
76723	2024-07-21T12:29:23	31.5	48
76724	2024-07-21T12:39:23	30.2	49
76725	2024-07-21T12:49:23	29	51.5
76726	2024-07-21T13:09:23	25.3	74
76727	2024-07-21T13:19:23	28	58
76728	2024-07-21T13:29:23	30	52
76729	2024-07-21T13:39:23	32.1	47.5
76730	2024-07-21T13:49:23	33	46
76731	2024-07-21T13:59:23	33.4	46.5
76732	2024-07-21T14:09:23	31.9	49.5
76733	2024-07-21T14:19:23	29.5	55.5
76734	2024-07-21T14:29:23	32.1	49.5
76735	2024-07-21T14:39:23	32.7	48.5
76736	2024-07-21T14:49:23	31.5	48
76737	2024-07-21T14:59:23	32.1	47.5
76738	2024-07-21T15:09:23	32.3	47.5
76739	2024-07-21T15:19:23	32	48.5
76740	2024-07-21T15:29:23	32.3	47
76741	2024-07-21T15:39:23	34.7	43
76742	2024-07-21T15:49:23	31.8	48.5
76743	2024-07-21T15:59:23	34.5	44
76744	2024-07-21T16:09:23	35.1	40
76745	2024-07-21T16:19:23	34.5	42.5
76746	2024-07-21T16:29:23	32.3	44.5
76747	2024-07-21T16:39:23	31.2	49
76748	2024-07-21T16:49:23	30.3	51.5
76749	2024-07-21T16:59:23	29.8	52.5
76750	2024-07-21T17:09:23	29.3	54
76751	2024-07-21T17:19:23	29.2	54.5
76752	2024-07-21T17:29:23	28.8	55.5
76753	2024-07-21T17:39:23	28.6	56
76754	2024-07-21T17:49:22	28.2	57.5
76755	2024-07-21T17:59:22	27.8	58.5
76756	2024-07-21T18:09:22	27.5	59.5
76757	2024-07-21T18:19:22	28.8	58
76758	2024-07-21T18:29:22	29.4	56.5
76759	2024-07-21T18:39:22	29	57
76760	2024-07-21T18:49:22	27.4	60.5
76761	2024-07-21T18:59:22	26.7	62.5
76762	2024-07-21T19:09:22	26.3	64
76763	2024-07-21T19:19:22	26.2	65.5
76764	2024-07-21T19:29:22	25.8	66.5
76765	2024-07-21T19:39:22	25.7	66.5
76766	2024-07-21T19:49:22	25.5	67
76767	2024-07-21T19:59:22	25.2	68
76768	2024-07-21T20:09:22	25	66.5
76769	2024-07-21T20:19:22	24.8	64.5
76770	2024-07-21T20:29:22	24.6	65
76771	2024-07-21T20:39:22	24.8	67.5
76772	2024-07-21T20:49:22	24.5	68.5
76773	2024-07-21T20:59:22	24.3	69.5
76774	2024-07-21T21:09:22	24.2	71.5
76775	2024-07-21T21:19:22	24	72.5
76776	2024-07-21T21:29:22	23.9	72.5
76777	2024-07-21T21:39:22	23.8	73
76778	2024-07-21T21:49:22	23.6	74
76779	2024-07-21T21:59:22	23.4	74.5
76780	2024-07-21T22:09:22	23.3	74.5
76781	2024-07-21T22:19:22	23.2	75
76782	2024-07-21T22:29:22	23.2	76
76783	2024-07-21T22:39:22	23	76.5
76784	2024-07-21T22:49:22	22.9	76.5
76785	2024-07-21T22:59:22	22.9	77.5
76786	2024-07-21T23:32:19	22.8	77.5
76787	2024-07-21T23:32:19	22.6	79
76788	2024-07-21T23:32:19	22.6	78.5
76789	2024-07-21T23:39:22	22.7	79
76790	2024-07-21T23:49:22	22.7	79
76791	2024-07-21T23:59:22	22.7	79
76792	2024-07-22T00:09:22	22.6	79.5
76793	2024-07-22T00:19:22	22.7	80
76794	2024-07-22T00:29:22	22.5	80.5
76795	2024-07-22T00:39:22	22.4	80.5
76796	2024-07-22T00:49:22	22.2	81
76797	2024-07-22T00:59:22	22.1	81.5
76798	2024-07-22T01:09:22	22	81.5
76799	2024-07-22T01:19:22	21.9	82
76800	2024-07-22T01:29:22	21.8	83
76801	2024-07-22T01:39:22	21.6	83.5
76802	2024-07-22T01:49:22	21.5	84.5
76803	2024-07-22T01:59:22	21.4	84.5
76804	2024-07-22T02:09:22	21.3	84.5
76805	2024-07-22T02:19:22	21.3	85
76806	2024-07-22T02:29:22	21.2	85.5
76807	2024-07-22T02:39:22	21.2	85.5
76808	2024-07-22T02:49:22	21.1	86
76809	2024-07-22T02:59:22	21	86
76810	2024-07-22T03:09:22	21	86
76811	2024-07-22T03:19:22	21.1	86
76812	2024-07-22T03:29:22	21.1	86
76813	2024-07-22T03:39:22	21	86
76814	2024-07-22T03:49:22	21	86
76815	2024-07-22T03:59:22	20.9	86.5
76816	2024-07-22T04:09:22	20.8	86
76817	2024-07-22T04:19:21	20.9	86.5
76818	2024-07-22T04:29:21	20.8	87
76819	2024-07-22T04:39:42	20.9	86.5
76820	2024-07-22T04:49:21	21	86.5
76821	2024-07-22T04:59:21	21	86.5
76822	2024-07-22T05:09:21	20.9	86.5
76823	2024-07-22T05:19:21	20.6	90
76824	2024-07-22T05:29:21	20.4	92
76825	2024-07-22T05:39:21	20.4	92
76826	2024-07-22T05:49:21	20.5	91.5
76827	2024-07-22T05:59:21	20.6	91
76828	2024-07-22T06:09:21	20.7	90.5
76829	2024-07-22T06:19:21	20.6	91
76830	2024-07-22T06:29:21	20.7	90
76831	2024-07-22T06:39:21	21	89
76832	2024-07-22T06:49:21	21.3	88.5
76833	2024-07-22T06:59:21	21.8	86.5
76834	2024-07-22T07:09:21	22.1	85.5
76835	2024-07-22T07:19:21	22.2	84
76836	2024-07-22T07:29:21	22.8	81.5
76837	2024-07-22T07:39:21	22.8	81.5
76838	2024-07-22T07:49:21	23.2	77.5
76839	2024-07-22T07:59:21	23.3	76.5
76840	2024-07-22T08:09:21	23.2	76.5
76841	2024-07-22T08:19:21	23.3	75
76842	2024-07-22T08:29:21	23.6	72.5
76843	2024-07-22T08:39:21	23.9	71.5
76844	2024-07-22T08:49:21	24.3	70.5
76845	2024-07-22T08:59:21	23.8	70.5
76846	2024-07-22T09:09:21	24.2	70
76847	2024-07-22T09:19:21	24.3	68.5
76848	2024-07-22T09:29:21	24.1	65
76849	2024-07-22T09:39:21	24.1	66
76850	2024-07-22T09:49:21	24.1	67
76851	2024-07-22T09:59:21	23.9	66
76852	2024-07-22T10:09:21	24.4	63.5
76853	2024-07-22T10:19:21	24.5	62.5
76854	2024-07-22T10:29:21	24.2	62
76855	2024-07-22T10:39:21	24.4	60.5
76856	2024-07-22T10:49:21	24.4	60
76857	2024-07-22T10:59:21	24.4	60
76858	2024-07-22T11:09:21	24.7	58.5
76859	2024-07-22T11:19:21	24.8	60
76860	2024-07-22T11:39:21	25.1	57
76861	2024-07-22T11:49:21	25.8	57
76862	2024-07-22T11:59:21	26.2	55
76863	2024-07-22T12:09:21	26.1	56
76864	2024-07-22T12:19:21	26.7	54
76865	2024-07-22T12:29:21	28.4	49
76866	2024-07-22T12:39:21	30.1	46
76867	2024-07-22T12:49:21	30.5	43
76868	2024-07-22T12:59:21	31.7	41.5
76869	2024-07-22T13:09:21	32.7	39
76870	2024-07-22T13:19:21	32.8	38
76871	2024-07-22T13:29:21	33.4	36.5
76872	2024-07-22T13:39:21	33.9	36.5
76873	2024-07-22T13:49:21	33.6	37
76874	2024-07-22T13:59:21	34.4	35.5
76875	2024-07-22T14:09:21	33.9	35.5
76876	2024-07-22T14:19:21	35	32
76877	2024-07-22T14:29:20	34.9	32.5
76878	2024-07-22T14:39:20	35.6	30.5
76879	2024-07-22T14:49:20	34.6	32
76880	2024-07-22T14:59:20	34.6	31.5
76881	2024-07-22T15:09:20	34.4	32.5
76882	2024-07-22T15:19:20	35.1	30.5
76883	2024-07-22T15:29:20	35	30.5
76884	2024-07-22T15:39:20	34.7	31
76885	2024-07-22T15:49:20	36.3	30.5
76886	2024-07-22T15:59:20	35.4	30.5
76887	2024-07-22T16:09:20	35.1	30
76888	2024-07-22T16:19:20	35.4	28.5
76889	2024-07-22T16:29:20	35.5	29.5
76890	2024-07-22T16:39:20	34.3	30.5
76891	2024-07-22T16:49:20	35.9	30.5
76892	2024-07-22T16:59:20	35.3	30.5
76893	2024-07-22T17:09:20	35.6	31
76894	2024-07-22T17:19:20	33.9	31.5
76895	2024-07-22T17:29:20	33.6	32
76896	2024-07-22T17:39:20	32.6	34
76897	2024-07-22T17:49:20	32.5	34.5
76898	2024-07-22T17:59:20	31.4	36
76899	2024-07-22T18:09:20	31.1	37.5
76900	2024-07-22T18:19:20	30.9	38
76901	2024-07-22T18:29:20	30.2	40.5
76902	2024-07-22T18:39:20	28.4	43
76903	2024-07-22T18:49:20	27.3	45
76904	2024-07-22T18:59:20	26.7	47
76905	2024-07-22T19:09:20	26.8	50
76906	2024-07-22T19:19:20	26.4	52
76907	2024-07-22T19:29:20	26.1	54
76908	2024-07-22T19:39:20	25.5	54
76909	2024-07-22T19:49:20	25.2	56
76910	2024-07-22T19:59:20	24.8	56
76911	2024-07-22T20:09:20	24.3	57.5
76912	2024-07-22T20:19:20	24.2	58.5
76913	2024-07-22T20:29:20	23.9	58
76914	2024-07-22T20:39:20	23.4	59.5
76915	2024-07-22T20:49:20	23.3	61
76916	2024-07-22T20:59:20	22.9	61
76917	2024-07-22T21:09:20	22.6	61.5
76918	2024-07-22T21:19:20	22	63
76919	2024-07-22T21:29:20	21.8	63.5
76920	2024-07-22T21:39:20	21.9	64.5
76921	2024-07-22T21:49:20	21.9	65.5
76922	2024-07-22T21:59:20	21.7	65.5
76923	2024-07-22T22:09:20	21.6	66
76924	2024-07-22T22:19:20	21.4	66.5
76925	2024-07-22T22:29:20	21.2	67.5
76926	2024-07-22T22:39:20	21.1	68.5
76927	2024-07-22T22:49:20	21	67.5
76928	2024-07-22T22:59:20	21	69.5
76929	2024-07-22T23:32:13	21	70.5
76930	2024-07-22T23:32:13	20.9	71.5
76931	2024-07-22T23:32:13	20.8	71
76932	2024-07-22T23:39:20	20.7	71.5
76933	2024-07-22T23:49:20	20.6	72
76934	2024-07-22T23:59:20	20.6	71.5
76935	2024-07-23T00:09:20	20.5	71.5
76936	2024-07-23T00:19:20	20.5	72
76937	2024-07-23T00:29:20	20.6	73
76938	2024-07-23T00:39:20	20.6	72.5
76939	2024-07-23T00:49:20	20.7	72
76940	2024-07-23T00:59:19	20.8	72
76941	2024-07-23T01:09:20	20.8	71
76942	2024-07-23T01:19:19	20.7	70.5
76943	2024-07-23T01:29:19	20.5	69.5
76944	2024-07-23T01:39:19	20.5	69.5
76945	2024-07-23T01:49:19	20.5	69.5
76946	2024-07-23T01:59:19	20.5	70
76947	2024-07-23T02:09:19	20.5	70
76948	2024-07-23T02:19:19	20.4	71
76949	2024-07-23T02:29:19	20.3	71
76950	2024-07-23T02:39:19	20.1	71.5
76951	2024-07-23T02:49:19	20	72.5
76952	2024-07-23T02:59:19	20	72.5
76953	2024-07-23T03:09:19	20	72.5
76954	2024-07-23T03:19:19	20.1	72
76955	2024-07-23T03:29:19	20.1	72.5
76956	2024-07-23T03:39:19	20	72.5
76957	2024-07-23T03:49:19	20	72.5
76958	2024-07-23T03:59:19	20.1	72
76959	2024-07-23T04:09:19	20.2	72.5
76960	2024-07-23T04:19:19	20.2	73
76961	2024-07-23T04:29:19	20.2	72.5
76962	2024-07-23T04:39:19	20.3	72.5
76963	2024-07-23T04:49:19	20.3	73
76964	2024-07-23T04:59:19	20.4	73.5
76965	2024-07-23T05:09:19	20.5	73
76966	2024-07-23T05:19:19	20.6	73
76967	2024-07-23T05:29:19	20.5	73
76968	2024-07-23T05:39:19	20.7	73.5
76969	2024-07-23T05:49:19	21.1	71
76970	2024-07-23T05:59:19	21.4	69.5
76971	2024-07-23T06:09:19	21.8	68
76972	2024-07-23T06:19:19	21.8	68
76973	2024-07-23T06:29:19	21.8	69
76974	2024-07-23T06:39:19	21.7	68.5
76975	2024-07-23T06:49:19	21.7	67.5
76976	2024-07-23T06:59:19	21.6	69
76977	2024-07-23T07:09:19	21.8	68
76978	2024-07-23T07:19:19	22.1	68.5
76979	2024-07-23T07:29:19	22.5	66
76980	2024-07-23T07:39:19	22.5	65.5
76981	2024-07-23T07:49:19	22.6	65
76982	2024-07-23T07:59:19	23	64.5
76983	2024-07-23T08:09:19	23	64
76984	2024-07-23T08:19:19	22.8	65
76985	2024-07-23T08:29:19	22.7	65
76986	2024-07-23T08:39:19	22.8	64
76987	2024-07-23T08:49:19	23	64.5
76988	2024-07-23T08:59:19	23.4	63
76989	2024-07-23T09:09:19	23.4	61.5
76990	2024-07-23T09:19:19	23.7	62
76991	2024-07-23T09:29:19	24.1	59.5
76992	2024-07-23T09:39:19	24.3	59
76993	2024-07-23T09:49:19	24.6	58.5
76994	2024-07-23T09:59:19	24.8	58.5
76995	2024-07-23T10:09:19	24.7	58
76996	2024-07-23T10:19:19	24.5	59.5
76997	2024-07-23T10:29:19	24.8	60.5
76998	2024-07-23T10:39:19	24.8	58.5
76999	2024-07-23T10:49:19	25.5	54.5
77000	2024-07-23T10:59:19	25.6	54.5
77001	2024-07-23T11:09:19	26	54
77002	2024-07-23T11:19:19	25.8	55
77003	2024-07-23T11:29:19	25.8	55.5
77004	2024-07-23T11:39:18	26.1	54.5
77005	2024-07-23T11:49:18	26.6	53
77006	2024-07-23T11:59:18	26.8	52.5
77007	2024-07-23T12:09:18	27.5	51
77008	2024-07-23T12:19:18	28.1	50
77009	2024-07-23T12:29:18	27.3	51
77010	2024-07-23T12:39:18	26.1	53.5
77011	2024-07-23T12:49:18	26	54
77012	2024-07-23T12:59:18	26	55
77013	2024-07-23T13:09:18	25.9	56
77014	2024-07-23T13:19:18	26.7	54.5
77015	2024-07-23T13:29:18	27.2	54.5
77016	2024-07-23T13:39:18	26.1	57
77017	2024-07-23T13:49:18	25.8	59.5
77018	2024-07-23T13:59:18	25	75
77019	2024-07-23T14:09:18	21.9	96.5
77020	2024-07-23T14:19:18	21.5	99.5
77021	2024-07-23T14:29:18	20.9	100
77022	2024-07-23T14:39:18	20.6	100
77023	2024-07-23T14:49:18	20.3	100
77024	2024-07-23T14:59:18	20.2	100
77025	2024-07-23T15:09:18	20.2	100
77026	2024-07-23T15:19:18	20.2	100
77027	2024-07-23T15:29:18	20.3	100
77028	2024-07-23T15:39:18	20.7	100
77029	2024-07-23T15:49:18	20.3	100
77030	2024-07-23T15:59:18	20.6	100
77031	2024-07-23T16:09:18	20.5	100
77032	2024-07-23T16:19:18	20.8	100
77033	2024-07-23T16:29:18	21.8	100
77034	2024-07-23T16:39:18	20.8	100
77035	2024-07-23T16:49:18	21.1	100
77036	2024-07-23T16:59:18	20.5	100
77037	2024-07-23T17:09:18	20.3	100
77038	2024-07-23T17:19:18	20.6	100
77039	2024-07-23T17:29:18	20.6	99.5
77040	2024-07-23T17:39:18	20.6	100
77041	2024-07-23T17:49:18	20.4	100
77042	2024-07-23T17:59:18	20.2	100
77043	2024-07-23T18:09:18	19.8	100
77044	2024-07-23T18:19:18	19.7	100
77045	2024-07-23T18:29:18	19.8	100
77046	2024-07-23T18:39:18	19.8	100
77047	2024-07-23T18:49:18	19.3	100
77048	2024-07-23T18:59:18	19.3	100
77049	2024-07-23T19:09:18	19.1	100
77050	2024-07-23T19:19:18	18.9	100
77051	2024-07-23T19:29:18	18.7	100
77052	2024-07-23T19:39:18	18.5	100
77053	2024-07-23T19:49:18	18.7	100
77054	2024-07-23T19:59:18	18.5	100
77055	2024-07-23T20:09:18	18.6	100
77056	2024-07-23T20:19:18	18.6	100
77057	2024-07-23T20:29:18	18.7	100
77058	2024-07-23T20:39:18	18.7	100
77059	2024-07-23T20:49:18	18.5	100
77060	2024-07-23T20:59:18	18.5	100
77061	2024-07-23T21:09:18	18.5	100
77062	2024-07-23T21:19:18	18.5	100
77063	2024-07-23T21:29:18	18.3	100
77064	2024-07-23T21:39:18	18.2	100
77065	2024-07-23T21:49:18	18.2	100
77066	2024-07-23T21:59:18	18.3	100
77067	2024-07-23T22:09:17	18.3	100
77068	2024-07-23T22:19:17	18.4	100
77069	2024-07-23T22:29:17	18.5	100
77070	2024-07-23T22:39:17	18.5	100
77071	2024-07-23T22:49:17	18.5	100
77072	2024-07-23T22:59:17	18.5	100
77073	2024-07-23T23:30:42	18.5	99.5
77074	2024-07-23T23:30:43	18.4	99
77075	2024-07-23T23:30:43	18.3	99
77076	2024-07-23T23:39:17	18.1	98
77077	2024-07-23T23:49:17	17.7	95.5
77078	2024-07-23T23:59:17	17.6	95.5
77079	2024-07-24T00:09:17	17.4	94
77080	2024-07-24T00:19:17	17	94.5
77081	2024-07-24T00:29:17	16.9	96.5
77082	2024-07-24T00:39:17	16.9	99
77083	2024-07-24T00:49:17	16.7	98.5
77084	2024-07-24T00:59:17	16.4	96.5
77085	2024-07-24T01:09:17	16.5	96.5
77086	2024-07-24T01:19:17	16.4	96
77087	2024-07-24T01:29:17	16.2	96.5
77088	2024-07-24T01:39:17	16.1	96.5
77089	2024-07-24T01:49:17	16.1	96
77090	2024-07-24T01:59:17	15.8	96
77091	2024-07-24T02:09:17	15.6	96
77092	2024-07-24T02:19:17	15.6	95.5
77093	2024-07-24T02:29:17	15.7	95
77094	2024-07-24T02:39:17	15.8	94.5
77095	2024-07-24T02:49:17	15.8	94
77096	2024-07-24T02:59:17	15.8	93
77097	2024-07-24T03:09:17	15.9	91.5
77098	2024-07-24T03:19:17	16.1	91.5
77099	2024-07-24T03:29:17	16.1	91
77100	2024-07-24T03:39:17	16.1	91
77101	2024-07-24T03:49:17	16.3	90.5
77102	2024-07-24T03:59:17	16.3	89.5
77103	2024-07-24T04:09:17	16.5	89.5
77104	2024-07-24T04:19:17	16.4	90
77105	2024-07-24T04:29:17	16.4	89
77106	2024-07-24T04:39:17	16.4	90
77107	2024-07-24T04:49:17	16.6	89
77108	2024-07-24T04:59:17	16.7	89
77109	2024-07-24T05:09:17	16.7	88.5
77110	2024-07-24T05:19:17	16.7	88.5
77111	2024-07-24T05:29:17	16.7	88
77112	2024-07-24T05:39:17	16.8	87.5
77113	2024-07-24T05:49:17	16.7	87
77114	2024-07-24T05:59:17	16.7	88
77115	2024-07-24T06:09:17	17.1	87.5
77116	2024-07-24T06:19:17	17.2	86
77117	2024-07-24T06:29:17	17.4	86.5
77118	2024-07-24T06:39:17	17.4	85.5
77119	2024-07-24T06:49:17	17.6	85.5
77120	2024-07-24T06:59:17	17.6	84
77121	2024-07-24T07:09:17	17.7	84
77122	2024-07-24T07:19:17	17.8	84
77123	2024-07-24T07:29:17	17.9	84.5
77124	2024-07-24T07:39:17	18.1	83.5
77125	2024-07-24T07:49:17	18.2	83
77126	2024-07-24T07:59:17	18.1	82
77127	2024-07-24T08:09:17	18.4	82.5
77128	2024-07-24T08:19:17	18.5	81.5
77129	2024-07-24T08:29:17	18.7	80.5
77130	2024-07-24T08:39:17	19.2	79
77131	2024-07-24T08:49:17	19.8	78.5
77132	2024-07-24T08:59:17	20	77.5
77133	2024-07-24T09:09:17	20.6	75.5
77134	2024-07-24T09:19:17	20.8	75
77135	2024-07-24T09:29:17	21.5	73
77136	2024-07-24T09:39:17	21.6	70
77137	2024-07-24T09:49:16	21.2	71
77138	2024-07-24T09:59:16	21.9	70.5
77139	2024-07-24T10:09:16	22	68.5
77140	2024-07-24T10:19:16	22.1	68
77141	2024-07-24T10:29:16	23	68
77142	2024-07-24T10:39:16	23.4	65
77143	2024-07-24T10:49:16	23.4	67
77144	2024-07-24T10:59:16	23.7	64.5
77145	2024-07-24T11:09:16	23.5	64.5
77146	2024-07-24T11:19:16	23.5	66
77147	2024-07-24T11:29:16	24.1	62.5
77148	2024-07-24T11:59:16	24.8	62
77149	2024-07-24T12:19:16	24.8	62
77150	2024-07-24T12:29:16	25.6	61.5
77151	2024-07-24T12:39:16	28.2	51.5
77152	2024-07-24T12:49:16	28.2	52.5
77153	2024-07-24T12:59:16	28	53
77154	2024-07-24T13:09:16	27.5	53.5
77155	2024-07-24T13:19:16	27.2	53.5
77156	2024-07-24T13:29:16	26.9	55.5
77157	2024-07-24T13:39:16	27.9	54.5
77158	2024-07-24T13:49:16	31.2	44.5
77159	2024-07-24T13:59:16	29.1	47
77160	2024-07-24T14:09:16	28.7	47.5
77161	2024-07-24T14:19:16	27.5	53
77162	2024-07-24T14:29:16	31	43.5
77163	2024-07-24T14:39:16	31.1	44
77164	2024-07-24T14:49:16	32.9	40
77165	2024-07-24T14:59:16	29.5	45.5
77166	2024-07-24T15:09:16	29.5	44.5
77167	2024-07-24T15:19:16	28.9	46
77168	2024-07-24T15:29:16	32.8	41
77169	2024-07-24T15:39:16	35.9	34.5
77170	2024-07-24T15:49:16	33.2	36.5
77171	2024-07-24T15:59:16	29	46.5
77172	2024-07-24T16:09:16	30.6	43
77173	2024-07-24T16:19:16	28.6	49
77174	2024-07-24T16:29:16	33.2	39
77175	2024-07-24T16:39:16	32.4	38
77176	2024-07-24T16:49:16	33.3	38
77177	2024-07-24T16:59:16	34.2	35.5
77178	2024-07-24T17:09:16	34.4	36
77179	2024-07-24T17:19:16	34.7	36.5
77180	2024-07-24T17:29:16	34.5	37
77181	2024-07-24T17:39:16	33.2	36.5
77182	2024-07-24T17:49:16	32	38
77183	2024-07-24T17:59:16	31.7	41
77184	2024-07-24T18:09:16	30.5	41
77185	2024-07-24T18:19:16	30.5	43.5
77186	2024-07-24T18:29:16	29.1	45
77187	2024-07-24T18:39:16	26.7	50
77188	2024-07-24T18:49:16	26.2	55.5
77189	2024-07-24T18:59:16	25.7	59.5
77190	2024-07-24T19:09:16	25.4	62
77191	2024-07-24T19:19:16	24.8	63
77192	2024-07-24T19:29:16	24.5	64
77193	2024-07-24T19:39:16	24	64
77194	2024-07-24T19:49:16	23.5	64.5
77195	2024-07-24T19:59:15	23.1	67.5
77196	2024-07-24T20:09:15	23.1	68.5
77197	2024-07-24T20:19:16	22.7	68.5
77198	2024-07-24T20:29:16	22.4	68.5
77199	2024-07-24T20:39:15	22.2	69
77200	2024-07-24T20:49:15	21.9	70.5
77201	2024-07-24T20:59:15	21.5	71.5
77202	2024-07-24T21:09:15	21.2	72
77203	2024-07-24T21:19:15	20.9	71.5
77204	2024-07-24T21:29:15	20.4	73.5
77205	2024-07-24T21:39:15	20	74
77206	2024-07-24T21:49:15	19.7	73
77207	2024-07-24T21:59:15	19.7	75
77208	2024-07-24T22:09:15	19.6	76
77209	2024-07-24T22:19:15	19.6	76.5
77210	2024-07-24T22:29:15	19.5	76.5
77211	2024-07-24T22:39:15	19.1	76.5
77212	2024-07-24T22:49:15	19.1	77
77213	2024-07-24T22:59:15	18.9	77.5
77214	2024-07-24T23:29:20	18.8	78
77215	2024-07-24T23:29:20	18.5	79
77216	2024-07-24T23:29:20	18.7	78
77217	2024-07-24T23:39:15	18.5	79
77218	2024-07-24T23:49:15	18.2	79.5
77219	2024-07-24T23:59:15	18.1	80.5
77220	2024-07-25T00:09:15	17.9	80.5
77221	2024-07-25T00:19:15	17.7	82
77222	2024-07-25T00:29:15	17.7	82
77223	2024-07-25T00:39:15	17.4	82
77224	2024-07-25T00:49:15	17.3	82
77225	2024-07-25T00:59:15	17.2	82.5
77226	2024-07-25T01:09:15	17.1	82.5
77227	2024-07-25T01:19:15	16.9	82.5
77228	2024-07-25T01:29:15	16.9	82.5
77229	2024-07-25T01:39:15	16.8	83
77230	2024-07-25T01:49:15	16.6	83
77231	2024-07-25T01:59:15	16.4	84
77232	2024-07-25T02:09:15	16.3	84
77233	2024-07-25T02:19:15	16.2	84
77234	2024-07-25T02:29:15	16.1	84
77235	2024-07-25T02:39:15	16	84.5
77236	2024-07-25T02:49:15	15.8	84.5
77237	2024-07-25T02:59:15	15.7	85.5
77238	2024-07-25T03:09:15	15.6	85.5
77239	2024-07-25T03:19:15	15.5	85.5
77240	2024-07-25T03:29:15	15.3	85.5
77241	2024-07-25T03:39:15	15.3	86
77242	2024-07-25T03:49:15	15.1	86
77243	2024-07-25T03:59:15	15.2	86
77244	2024-07-25T04:09:15	15	86.5
77245	2024-07-25T04:19:15	14.9	86.5
77246	2024-07-25T04:29:15	15	86.5
77247	2024-07-25T04:39:15	15	87
77248	2024-07-25T04:49:15	15.2	86.5
77249	2024-07-25T04:59:15	15	87
77250	2024-07-25T05:09:15	15.2	87
77251	2024-07-25T05:19:15	15.2	87.5
77252	2024-07-25T05:29:15	15.3	88
77253	2024-07-25T05:39:15	15.5	88
77254	2024-07-25T05:49:15	15.7	88
77255	2024-07-25T05:59:15	15.8	88
77256	2024-07-25T06:09:15	16	88
77257	2024-07-25T06:19:15	16.2	87.5
77258	2024-07-25T06:29:15	16.5	86.5
77259	2024-07-25T06:39:15	16.7	86
77260	2024-07-25T06:49:15	17	84.5
77261	2024-07-25T06:59:15	17.1	85
77262	2024-07-25T07:09:15	17.4	85.5
77263	2024-07-25T07:19:15	17.9	83
77264	2024-07-25T07:29:14	18.3	81
77265	2024-07-25T07:39:14	18.6	80
77266	2024-07-25T07:49:14	18.8	77.5
77267	2024-07-25T07:59:14	19.1	78.5
77268	2024-07-25T08:09:14	19.2	76
77269	2024-07-25T08:19:14	19.5	75
77270	2024-07-25T08:29:14	19.9	73
77271	2024-07-25T08:39:14	19.9	74
77272	2024-07-25T08:49:14	20.4	73
77273	2024-07-25T08:59:14	20.5	71
77274	2024-07-25T09:09:14	20.6	69.5
77275	2024-07-25T09:19:14	21	69
77276	2024-07-25T09:29:14	21	67.5
77277	2024-07-25T09:39:14	21.2	64.5
77278	2024-07-25T09:49:14	21.4	65.5
77279	2024-07-25T09:59:14	21.7	63.5
77280	2024-07-25T10:09:14	22.2	60
77281	2024-07-25T10:19:14	22.4	60.5
77282	2024-07-25T10:29:14	22.9	60.5
77283	2024-07-25T10:39:14	23.1	59
77284	2024-07-25T10:49:14	23.3	59.5
77285	2024-07-25T10:59:14	23.5	59.5
77286	2024-07-25T11:09:14	23.7	55.5
77287	2024-07-25T11:19:14	24.1	57.5
77288	2024-07-25T11:29:14	24.6	52.5
77289	2024-07-25T11:39:14	25	57
77290	2024-07-25T11:49:14	25.7	52.5
77291	2024-07-25T11:59:14	26.9	49.5
77292	2024-07-25T12:09:14	27.6	47.5
77293	2024-07-25T12:19:14	28.1	47.5
77294	2024-07-25T12:29:14	27.9	46
77295	2024-07-25T12:39:14	32.4	38.5
77296	2024-07-25T12:49:14	34.8	34.5
77297	2024-07-25T12:59:14	36.2	32.5
77298	2024-07-25T13:09:14	37.2	32
77299	2024-07-25T13:19:14	37.6	31.5
77300	2024-07-25T13:29:14	37.2	31.5
77301	2024-07-25T13:39:14	38.9	28.5
77302	2024-07-25T13:49:14	38.5	29
77303	2024-07-25T13:59:14	39	29.5
77304	2024-07-25T14:09:14	37.6	30
77305	2024-07-25T14:19:14	37	31
77306	2024-07-25T14:29:14	35.5	34
77307	2024-07-25T14:39:14	36.4	34
77308	2024-07-25T14:49:14	37	30.5
77309	2024-07-25T14:59:14	35.5	33
77310	2024-07-25T15:09:14	33.1	36.5
77311	2024-07-25T15:19:14	34.2	34.5
77312	2024-07-25T15:39:14	35.4	33.5
77313	2024-07-25T15:49:14	34.6	35
77314	2024-07-25T16:09:14	33.3	36
77315	2024-07-25T16:19:14	33.2	37.5
77316	2024-07-25T16:29:14	32.4	38
77317	2024-07-25T16:39:14	31.8	41
77318	2024-07-25T16:49:14	31.1	41
77319	2024-07-25T16:59:14	30.3	43.5
77320	2024-07-25T17:09:14	29.9	43.5
77321	2024-07-25T17:19:14	29.9	44
77322	2024-07-25T17:29:14	30.7	43.5
77323	2024-07-25T17:39:14	32.4	41
77324	2024-07-25T17:49:14	31.6	43
77325	2024-07-25T17:59:14	30.6	46
77326	2024-07-25T18:09:13	29.8	49
77327	2024-07-25T18:19:13	28.8	53.5
77328	2024-07-25T18:29:13	28	54.5
77329	2024-07-25T18:39:13	27.3	56.5
77330	2024-07-25T18:49:13	27	57
77331	2024-07-25T18:59:13	26.7	59.5
77332	2024-07-25T19:09:13	26.3	60
77333	2024-07-25T19:19:13	25.9	60
77334	2024-07-25T19:29:13	25.6	61
77335	2024-07-25T19:39:13	25.3	61
77336	2024-07-25T19:49:13	24.9	61
77337	2024-07-25T19:59:13	24.8	63
77338	2024-07-25T20:09:13	24.3	64
77339	2024-07-25T20:19:13	24.1	63
77340	2024-07-25T20:29:13	23.8	64.5
77341	2024-07-25T20:39:13	23.7	65.5
77342	2024-07-25T20:49:13	23.6	65.5
77343	2024-07-25T20:59:13	23.4	66.5
77344	2024-07-25T21:09:13	23.2	67
77345	2024-07-25T21:19:13	23.1	67.5
77346	2024-07-25T21:29:13	22.9	68.5
77347	2024-07-25T21:39:13	22.6	68.5
77348	2024-07-25T21:49:13	22.6	68.5
77349	2024-07-25T21:59:13	22.5	69
77350	2024-07-25T22:09:13	22.1	70.5
77351	2024-07-25T22:19:13	21.8	71.5
77352	2024-07-25T22:29:13	21.6	72.5
77353	2024-07-25T22:39:13	21.4	73.5
77354	2024-07-25T22:49:13	21.2	74
77355	2024-07-25T22:59:13	21.1	74.5
77356	2024-07-25T23:29:36	20.9	75
77357	2024-07-25T23:29:36	20.8	75.5
77358	2024-07-25T23:29:37	20.6	75.5
77359	2024-07-25T23:39:13	20.4	76
77360	2024-07-25T23:49:13	20.3	76
77361	2024-07-25T23:59:13	20.1	76
77362	2024-07-26T00:09:13	20.2	76
77363	2024-07-26T00:19:13	20.1	76
77364	2024-07-26T00:29:13	20.3	76
77365	2024-07-26T00:39:13	20	75
77366	2024-07-26T00:49:13	20	77
77367	2024-07-26T00:59:13	19.8	77
77368	2024-07-26T01:09:13	19.6	78
77369	2024-07-26T01:19:13	19.4	79
77370	2024-07-26T01:29:13	19.3	79
77371	2024-07-26T01:39:13	19.3	79
77372	2024-07-26T01:49:13	19.4	78.5
77373	2024-07-26T01:59:13	19.2	79
77374	2024-07-26T02:09:13	19.2	78.5
77375	2024-07-26T02:19:13	19.1	79.5
77376	2024-07-26T02:29:13	19.1	79.5
77377	2024-07-26T02:39:13	18.9	80
77378	2024-07-26T02:49:13	18.9	81
77379	2024-07-26T02:59:13	18.8	82
77380	2024-07-26T03:09:13	18.7	82
77381	2024-07-26T03:19:13	18.6	82
77382	2024-07-26T03:29:13	18.5	82
77383	2024-07-26T03:39:13	18.5	82.5
77384	2024-07-26T03:49:13	18.5	83
77385	2024-07-26T03:59:13	18.5	83
77386	2024-07-26T04:09:13	18.5	83
77387	2024-07-26T04:19:13	18.4	84
77388	2024-07-26T04:29:13	18.5	83.5
77389	2024-07-26T04:39:12	18.6	83
77390	2024-07-26T04:49:12	18.8	83
77391	2024-07-26T04:59:12	18.7	82
77392	2024-07-26T05:09:12	18.9	83
77393	2024-07-26T05:19:12	19.2	82
77394	2024-07-26T05:29:12	19.2	83.5
77395	2024-07-26T05:39:12	19.4	83
77396	2024-07-26T05:49:12	19.5	82
77397	2024-07-26T05:59:12	20	80.5
77398	2024-07-26T06:09:12	20.3	80
77399	2024-07-26T06:19:12	20.4	81
77400	2024-07-26T06:29:12	20.6	80
77401	2024-07-26T06:39:12	20.9	78
77402	2024-07-26T06:49:12	21.1	76.5
77403	2024-07-26T06:59:12	21.2	77
77404	2024-07-26T07:09:12	21.4	76
77405	2024-07-26T07:19:12	21.6	75
77406	2024-07-26T07:29:12	21.9	75
77407	2024-07-26T07:39:12	22	74.5
77408	2024-07-26T07:49:12	22.2	74
77409	2024-07-26T07:59:12	22.3	73.5
77410	2024-07-26T08:09:12	22.8	74.5
77411	2024-07-26T08:19:12	23.1	72
77412	2024-07-26T08:29:12	23.3	70
77413	2024-07-26T08:39:12	23.4	69.5
77414	2024-07-26T08:49:12	23.9	68
77415	2024-07-26T08:59:12	24.2	66
77416	2024-07-26T09:09:12	24.4	65
77417	2024-07-26T09:19:12	24.9	63.5
77418	2024-07-26T09:29:12	25.3	60
77419	2024-07-26T09:39:12	25.3	61
77420	2024-07-26T09:49:12	25.6	60.5
77421	2024-07-26T09:59:12	25.6	59
77422	2024-07-26T10:09:12	25.3	61
77423	2024-07-26T10:19:12	25.2	61
77424	2024-07-26T10:29:12	25.4	60
77425	2024-07-26T10:39:12	25.4	60.5
77426	2024-07-26T10:49:12	26.2	59.5
77427	2024-07-26T10:59:12	26.8	59
77428	2024-07-26T11:09:12	26.9	62
77429	2024-07-26T11:19:12	27	61.5
77430	2024-07-26T11:29:12	27.3	61.5
77431	2024-07-26T11:39:12	27.9	60
77432	2024-07-26T11:49:12	28.6	57.5
77433	2024-07-26T11:59:12	28.5	56.5
77434	2024-07-26T12:09:12	29.5	53
77435	2024-07-26T12:19:12	29.3	54
77436	2024-07-26T12:29:12	29	53
77437	2024-07-26T12:39:12	29.2	51.5
77438	2024-07-26T12:49:12	30.3	48
77439	2024-07-26T12:59:12	30	47
77440	2024-07-26T13:09:12	30.4	47
77441	2024-07-26T13:19:12	30.8	48
77442	2024-07-26T13:29:12	31	47
77443	2024-07-26T13:39:12	32.3	43.5
77444	2024-07-26T13:49:12	32.8	42
77445	2024-07-26T13:59:12	33.7	41.5
77446	2024-07-26T14:09:12	33.9	43
77447	2024-07-26T14:19:12	37.5	34.5
77448	2024-07-26T14:29:12	38.4	34.5
77449	2024-07-26T14:39:12	39	32
77450	2024-07-26T14:49:12	38.2	35.5
77451	2024-07-26T14:59:12	35.8	36
77452	2024-07-26T15:09:11	35.6	35.5
77453	2024-07-26T15:19:11	35.7	36.5
77454	2024-07-26T15:29:11	37	35.5
77455	2024-07-26T15:39:11	37.2	34.5
77456	2024-07-26T15:49:11	35.9	35.5
77457	2024-07-26T15:59:11	38.1	34
77458	2024-07-26T16:09:11	38.8	32
77459	2024-07-26T16:19:11	37.8	33.5
77460	2024-07-26T16:29:11	36.3	37
77461	2024-07-26T16:39:11	34.7	40.5
77462	2024-07-26T16:49:11	34.7	40.5
77463	2024-07-26T16:59:11	34.4	39.5
77464	2024-07-26T17:09:11	33.6	44.5
77465	2024-07-26T17:19:11	32.7	44.5
77466	2024-07-26T17:29:11	32.1	45.5
77467	2024-07-26T17:39:11	32.1	49.5
77468	2024-07-26T17:49:11	31.9	51
77469	2024-07-26T17:59:11	31.7	53
77470	2024-07-26T18:09:11	31.3	53
77471	2024-07-26T18:19:11	31.1	53.5
77472	2024-07-26T18:29:11	30.7	53.5
77473	2024-07-26T18:39:11	30.4	54.5
77474	2024-07-26T18:49:11	30.5	59
77475	2024-07-26T18:59:11	30.5	58.5
77476	2024-07-26T19:09:11	30.4	60.5
77477	2024-07-26T19:19:11	30.3	61.5
77478	2024-07-26T19:29:11	30.1	60
77479	2024-07-26T19:39:11	29.9	62
77480	2024-07-26T19:49:11	29.7	62
77481	2024-07-26T19:59:11	29.5	61.5
77482	2024-07-26T20:09:11	29.4	63
77483	2024-07-26T20:19:11	29.2	63
77484	2024-07-26T20:29:11	29.1	62.5
77485	2024-07-26T20:39:11	29	63
77486	2024-07-26T20:49:11	28.8	63
77487	2024-07-26T20:59:11	28.6	62.5
77488	2024-07-26T21:09:11	28.5	63.5
77489	2024-07-26T21:19:11	28.1	62.5
77490	2024-07-26T21:29:11	28	63
77491	2024-07-26T21:39:11	27.9	63
77492	2024-07-26T21:49:11	27.8	64.5
77493	2024-07-26T21:59:11	27.7	65
77494	2024-07-26T22:09:11	27.4	65.5
77495	2024-07-26T22:19:11	27.3	65
77496	2024-07-26T22:29:11	27.2	65
77497	2024-07-26T22:39:11	27.1	66
77498	2024-07-26T22:49:11	27.1	67.5
77499	2024-07-26T22:59:11	27	69
77500	2024-07-26T23:29:50	26.8	69
77501	2024-07-26T23:29:50	26.4	74.5
77502	2024-07-26T23:29:50	26.5	73
77503	2024-07-26T23:39:11	26.1	72.5
77504	2024-07-26T23:49:11	26	72.5
77505	2024-07-26T23:59:11	25.8	72
77506	2024-07-27T00:09:11	25.6	73
77507	2024-07-27T00:19:11	25.5	73
77508	2024-07-27T00:29:11	25.2	74
77509	2024-07-27T00:39:11	24.9	74.5
77510	2024-07-27T00:49:11	24.8	75
77511	2024-07-27T00:59:11	24.7	75.5
77512	2024-07-27T01:09:11	24.5	75.5
77513	2024-07-27T01:19:10	24.5	75.5
77514	2024-07-27T01:29:10	24.3	75.5
77515	2024-07-27T01:39:10	24.1	76
77516	2024-07-27T01:49:10	23.9	76.5
77517	2024-07-27T01:59:10	23.7	76
77518	2024-07-27T02:09:10	23.6	77
77519	2024-07-27T02:19:10	23.6	77.5
77520	2024-07-27T02:29:10	23.5	78
77521	2024-07-27T02:39:10	23.1	79.5
77522	2024-07-27T02:49:10	23.1	80
77523	2024-07-27T02:59:10	23	79.5
77524	2024-07-27T03:09:10	22.9	80
77525	2024-07-27T03:19:10	22.6	80.5
77526	2024-07-27T03:29:10	22.6	80.5
77527	2024-07-27T03:39:10	22.4	81
77528	2024-07-27T03:49:10	22.5	81
77529	2024-07-27T03:59:10	22.7	81
77530	2024-07-27T04:09:10	22.6	81
77531	2024-07-27T04:19:10	22.6	81
77532	2024-07-27T04:29:10	22.6	81.5
77533	2024-07-27T04:39:10	22.5	82
77534	2024-07-27T04:49:10	22.3	82
77535	2024-07-27T04:59:10	22.3	82.5
77536	2024-07-27T05:09:10	22.3	82.5
77537	2024-07-27T05:19:10	22.5	82
77538	2024-07-27T05:29:10	22.5	82
77539	2024-07-27T05:39:10	22.5	82
77540	2024-07-27T05:49:10	22.7	81.5
77541	2024-07-27T05:59:10	22.7	81
77542	2024-07-27T06:09:10	22.8	81
77543	2024-07-27T06:19:10	22.7	81
77544	2024-07-27T06:29:10	22.8	81.5
77545	2024-07-27T06:39:10	22.8	81
77546	2024-07-27T06:49:10	23.1	81
77547	2024-07-27T06:59:10	23.3	80
77548	2024-07-27T07:09:10	23.3	78.5
77549	2024-07-27T07:19:10	23.6	78.5
77550	2024-07-27T07:29:10	23.8	77.5
77551	2024-07-27T07:39:10	24	77
77552	2024-07-27T07:49:10	24.1	77
77553	2024-07-27T07:59:10	24.5	76
77554	2024-07-27T08:09:10	24.6	75.5
77555	2024-07-27T08:19:10	24.8	75
77556	2024-07-27T08:29:10	25.3	74
77557	2024-07-27T08:39:10	25.4	74.5
77558	2024-07-27T08:49:10	25.7	74.5
77559	2024-07-27T08:59:10	25.5	74
77560	2024-07-27T09:09:10	25.7	73.5
77561	2024-07-27T09:19:10	25.7	74
77562	2024-07-27T09:29:10	25.9	74
77563	2024-07-27T09:39:10	26.3	72
77564	2024-07-27T09:49:10	26.2	71.5
77565	2024-07-27T09:59:10	26.4	73
77566	2024-07-27T10:09:10	26.8	71
77567	2024-07-27T10:19:10	27.2	72
77568	2024-07-27T10:29:10	27.4	69.5
77569	2024-07-27T10:39:10	27.6	68.5
77570	2024-07-27T10:49:10	27.9	68
77571	2024-07-27T10:59:10	28.1	67.5
77572	2024-07-27T11:09:10	28.3	67.5
77573	2024-07-27T11:19:10	28.6	66.5
77574	2024-07-27T11:29:09	28.9	64.5
77575	2024-07-27T11:39:09	28.8	66
77576	2024-07-27T11:49:09	28.6	65.5
77577	2024-07-27T11:59:10	29	67.5
77578	2024-07-27T12:09:09	29.3	64
77579	2024-07-27T12:19:09	29.1	64.5
77580	2024-07-27T12:29:09	28.9	65
77581	2024-07-27T12:39:09	28.9	66
77582	2024-07-27T12:49:09	28.6	65.5
77583	2024-07-27T12:59:09	28.4	66.5
77584	2024-07-27T13:09:09	28.1	66.5
77585	2024-07-27T13:19:09	27.8	68.5
77586	2024-07-27T13:29:09	25.7	91.5
77587	2024-07-27T13:39:09	25.5	81.5
77588	2024-07-27T13:49:09	25.7	82
77589	2024-07-27T13:59:09	25.3	95.5
77590	2024-07-27T14:09:09	25.2	99.5
77591	2024-07-27T14:19:09	24.9	99.5
77592	2024-07-27T14:29:09	25.1	97
77593	2024-07-27T14:39:09	25.3	89
77594	2024-07-27T14:49:09	26.3	80
77595	2024-07-27T14:59:09	26.9	78.5
77596	2024-07-27T15:09:09	27	77
77597	2024-07-27T15:19:09	26.7	76.5
77598	2024-07-27T15:29:09	26.5	74
77599	2024-07-27T15:39:09	26.5	70.5
77600	2024-07-27T15:49:09	26.5	71.5
77601	2024-07-27T15:59:09	26.4	71
77602	2024-07-27T16:09:09	26.2	71.5
77603	2024-07-27T16:19:09	25.9	72.5
77604	2024-07-27T16:29:09	26	73.5
77605	2024-07-27T16:39:09	26	74
77606	2024-07-27T16:49:09	26.1	75.5
77607	2024-07-27T16:59:09	26.2	73
77608	2024-07-27T17:09:09	25.9	71.5
77609	2024-07-27T17:19:09	25.8	73
77610	2024-07-27T17:29:09	25.6	74
77611	2024-07-27T17:39:09	25.6	72.5
77612	2024-07-27T17:49:09	25.3	73
77613	2024-07-27T17:59:09	25.3	74
77614	2024-07-27T18:09:09	25	73
77615	2024-07-27T18:19:09	24.8	73.5
77616	2024-07-27T18:29:09	24.6	74
77617	2024-07-27T18:49:09	24.3	75.5
77618	2024-07-27T18:59:09	24.3	79.5
77619	2024-07-27T19:09:09	23.7	83
77620	2024-07-27T19:19:09	23.6	84
77621	2024-07-27T19:29:09	23.6	84
77622	2024-07-27T19:39:09	23.4	82.5
77623	2024-07-27T19:59:09	23.1	83.5
77624	2024-07-27T20:09:09	23	86.5
77625	2024-07-27T20:19:09	22.2	98.5
77626	2024-07-27T20:29:09	21.6	100
77627	2024-07-27T20:39:09	21.2	100
77628	2024-07-27T20:49:09	21.2	100
77629	2024-07-27T20:59:09	20.8	100
77630	2024-07-27T21:09:09	20.9	100
77631	2024-07-27T21:19:09	20.7	100
77632	2024-07-27T21:29:09	20.5	100
77633	2024-07-27T21:39:08	20.5	100
77634	2024-07-27T21:49:08	20.3	100
77635	2024-07-27T21:59:09	20.4	100
77636	2024-07-27T22:09:08	20.2	100
77637	2024-07-27T22:19:08	20.3	100
77638	2024-07-27T22:29:08	20.2	100
77639	2024-07-27T22:39:08	20.2	100
77640	2024-07-27T22:49:08	20.1	100
77641	2024-07-27T22:59:08	20.1	100
77642	2024-07-27T23:29:17	20.1	100
77643	2024-07-27T23:29:18	19.8	100
77644	2024-07-27T23:29:18	19.8	100
77645	2024-07-27T23:39:08	19.8	100
77646	2024-07-27T23:49:08	19.7	100
77647	2024-07-27T23:59:08	19.6	100
77648	2024-07-28T00:09:08	19.3	100
77649	2024-07-28T00:19:08	19.4	100
77650	2024-07-28T00:29:08	19.3	100
77651	2024-07-28T00:39:08	19.2	100
77652	2024-07-28T00:49:08	19	94.5
77653	2024-07-28T00:59:08	19	94
77654	2024-07-28T01:09:08	18.7	94
77655	2024-07-28T01:19:08	18.9	94.5
77656	2024-07-28T01:29:08	19	94
77657	2024-07-28T01:39:08	18.8	94.5
77658	2024-07-28T01:49:08	19	94.5
77659	2024-07-28T01:59:08	18.8	94.5
77660	2024-07-28T02:09:08	18.4	94.5
77661	2024-07-28T02:19:08	18.5	94
77662	2024-07-28T02:29:08	18.2	94.5
77663	2024-07-28T02:39:08	18	94.5
77664	2024-07-28T02:49:08	18	94.5
77665	2024-07-28T02:59:08	18	94.5
77666	2024-07-28T03:09:08	17.7	94.5
77667	2024-07-28T03:19:08	17.7	94.5
77668	2024-07-28T03:29:08	17.5	94.5
77669	2024-07-28T03:39:08	17.5	94.5
77670	2024-07-28T03:49:08	17.4	94.5
77671	2024-07-28T03:59:08	17.4	94.5
77672	2024-07-28T04:09:08	17.3	94.5
77673	2024-07-28T04:19:08	17.1	94.5
77674	2024-07-28T04:29:08	17	94.5
77675	2024-07-28T04:39:08	17	95
77676	2024-07-28T04:49:08	17.1	95
77677	2024-07-28T04:59:08	16.9	95
77678	2024-07-28T05:19:08	16.9	95
77679	2024-07-28T05:29:08	17.3	95
77680	2024-07-28T05:49:08	17.1	95.5
77681	2024-07-28T05:59:08	17	95.5
77682	2024-07-28T06:09:08	17	95.5
77683	2024-07-28T06:19:08	17.1	95.5
77684	2024-07-28T06:29:08	17.3	95
77685	2024-07-28T06:39:08	17.2	95.5
77686	2024-07-28T06:49:08	17.2	95.5
77687	2024-07-28T06:59:08	17.4	95.5
77688	2024-07-28T07:09:08	17.4	95.5
77689	2024-07-28T07:19:08	17.4	95.5
77690	2024-07-28T07:29:08	17.4	95.5
77691	2024-07-28T07:39:08	17.7	95.5
77692	2024-07-28T07:49:08	17.6	95.5
77693	2024-07-28T07:59:08	18.1	95.5
77694	2024-07-28T08:09:08	18.6	95.5
77695	2024-07-28T08:19:08	18.3	95.5
77696	2024-07-28T08:29:08	18.2	95.5
77697	2024-07-28T08:39:08	18.5	95.5
77698	2024-07-28T08:49:08	18.9	95.5
77699	2024-07-28T08:59:08	19	95.5
77700	2024-07-28T09:09:07	19.1	95.5
77701	2024-07-28T09:19:07	19.1	95.5
77702	2024-07-28T09:29:07	19.6	95.5
77703	2024-07-28T09:39:07	19.7	95.5
77704	2024-07-28T09:49:07	19.7	98.5
77705	2024-07-28T09:59:07	19.9	98.5
77706	2024-07-28T10:09:07	20.1	100
77707	2024-07-28T10:19:07	20.1	100
77708	2024-07-28T10:29:07	20.1	100
77709	2024-07-28T10:39:07	20.7	100
77710	2024-07-28T10:49:07	20.8	100
77711	2024-07-28T10:59:07	20.7	100
77712	2024-07-28T11:09:07	20.9	100
77713	2024-07-28T11:19:07	21.5	100
77714	2024-07-28T11:29:07	21.6	100
77715	2024-07-28T11:39:07	21.8	100
77716	2024-07-28T11:49:07	22.2	65.5
77717	2024-07-28T12:09:07	22.8	66.5
77718	2024-07-28T12:19:07	23	63.5
77719	2024-07-28T12:29:07	24.1	65
77720	2024-07-28T12:39:07	26.9	53.5
77721	2024-07-28T12:49:07	29.3	47.5
77722	2024-07-28T12:59:07	31.4	48
77723	2024-07-28T13:09:07	31.9	44.5
77724	2024-07-28T13:19:07	32.7	45.5
77725	2024-07-28T13:29:07	33.7	41.5
77726	2024-07-28T13:39:07	34.6	42.5
77727	2024-07-28T13:49:07	35.2	43.5
77728	2024-07-28T13:59:07	33.9	40
77729	2024-07-28T14:09:07	34	35
77730	2024-07-28T14:19:07	35.5	39
77731	2024-07-28T14:29:07	36.7	40
77732	2024-07-28T14:39:07	37.5	35.5
77733	2024-07-28T14:49:07	37.4	36
77734	2024-07-28T14:59:07	37.7	34
77735	2024-07-28T15:09:07	38.1	34
77736	2024-07-28T15:19:07	38.1	32.5
77737	2024-07-28T15:29:07	38.8	33
77738	2024-07-28T15:39:07	39.4	35
77739	2024-07-28T15:49:07	39.1	29
77740	2024-07-28T15:59:07	38.7	31
77741	2024-07-28T16:09:07	39.2	29.5
77742	2024-07-28T16:19:07	39.1	33
77743	2024-07-28T16:29:07	39.1	28
77744	2024-07-28T16:39:07	39.1	30
77745	2024-07-28T16:49:07	38.7	34
77746	2024-07-28T16:59:07	38.6	33.5
77747	2024-07-28T17:09:07	37.6	33.5
77748	2024-07-28T17:19:07	35.9	34
77749	2024-07-28T17:29:07	35.3	42.5
77750	2024-07-28T17:39:07	35.5	41.5
77751	2024-07-28T17:49:07	35.2	39.5
77752	2024-07-28T17:59:07	34.3	44.5
77753	2024-07-28T18:09:07	32.9	48.5
77754	2024-07-28T18:19:07	32.5	48
77755	2024-07-28T18:29:07	32.1	50
77756	2024-07-28T18:39:07	31.5	52.5
77757	2024-07-28T18:49:07	30.3	52.5
77758	2024-07-28T18:59:07	29.4	54.5
77759	2024-07-28T19:09:07	28.8	58.5
77760	2024-07-28T19:19:07	28.2	61
77761	2024-07-28T19:29:07	27.6	61
77762	2024-07-28T19:39:07	27.1	63.5
77763	2024-07-28T19:49:07	26.7	65.5
77764	2024-07-28T19:59:06	26.3	67
77765	2024-07-28T20:09:06	25.8	67.5
77766	2024-07-28T20:19:07	25.4	68
77767	2024-07-28T20:29:06	24.9	66.5
77768	2024-07-28T20:39:06	24.6	70
77769	2024-07-28T20:49:06	24.2	69.5
77770	2024-07-28T20:59:06	23.9	71
77771	2024-07-28T21:09:06	23.5	70
77772	2024-07-28T21:19:06	23.3	69.5
77773	2024-07-28T21:29:06	23	71
77774	2024-07-28T21:39:06	22.8	73.5
77775	2024-07-28T21:49:06	22.4	67.5
77776	2024-07-28T21:59:06	22.2	72
77777	2024-07-28T22:09:06	22	72.5
77778	2024-07-28T22:19:06	21.7	73.5
77779	2024-07-28T22:29:06	21.5	73.5
77780	2024-07-28T22:39:06	21.2	73.5
77781	2024-07-28T22:49:06	21.1	73
77782	2024-07-28T22:59:06	20.8	72
77783	2024-07-28T23:30:12	20.2	74.5
77784	2024-07-28T23:30:12	20.5	73.5
77785	2024-07-28T23:30:12	20.3	71.5
77786	2024-07-28T23:39:06	19.9	70.5
77787	2024-07-28T23:49:06	19.6	72
77788	2024-07-28T23:59:06	19.5	72
77789	2024-07-29T00:09:06	19.1	72
77790	2024-07-29T00:19:06	19	72.5
77791	2024-07-29T00:29:06	19	72.5
77792	2024-07-29T00:39:06	18.6	73
77793	2024-07-29T00:49:06	18.5	75
77794	2024-07-29T00:59:06	18.3	75.5
77795	2024-07-29T01:09:06	18.1	74.5
77796	2024-07-29T01:19:06	18	76
77797	2024-07-29T01:29:06	17.8	76.5
77798	2024-07-29T01:39:06	17.8	75.5
77799	2024-07-29T01:49:06	17.7	77.5
77800	2024-07-29T01:59:06	17.6	76
77801	2024-07-29T02:09:06	17.5	76.5
77802	2024-07-29T02:19:06	17.4	77
77803	2024-07-29T02:29:06	17.3	76.5
77804	2024-07-29T02:39:06	17.2	78
77805	2024-07-29T02:49:06	17.1	77.5
77806	2024-07-29T02:59:06	17	77.5
77807	2024-07-29T03:09:06	16.9	77
77808	2024-07-29T03:19:06	16.7	78
77809	2024-07-29T03:29:06	16.7	77.5
77810	2024-07-29T03:39:06	16.6	77
77811	2024-07-29T03:49:06	16.5	78
77812	2024-07-29T03:59:06	16.4	78
77813	2024-07-29T04:09:06	16.3	78
77814	2024-07-29T04:19:06	16.3	78.5
77815	2024-07-29T04:29:06	16.3	78.5
77816	2024-07-29T04:39:06	16.2	79
77817	2024-07-29T04:49:06	16.2	79
77818	2024-07-29T04:59:06	16.2	79
77819	2024-07-29T05:09:06	16.2	79.5
77820	2024-07-29T05:19:06	16.2	79
77821	2024-07-29T05:29:06	16.3	79.5
77822	2024-07-29T05:39:06	16.4	79.5
77823	2024-07-29T05:49:06	16.5	79.5
77824	2024-07-29T05:59:06	16.6	80.5
77825	2024-07-29T06:09:06	16.8	79.5
77826	2024-07-29T06:19:06	17	79.5
77827	2024-07-29T06:29:06	17.2	80
77828	2024-07-29T06:39:06	17.4	80
77829	2024-07-29T06:49:06	17.6	80
77830	2024-07-29T06:59:06	17.7	80
77831	2024-07-29T07:09:06	17.9	81
77832	2024-07-29T07:19:06	18.2	79
77833	2024-07-29T07:29:05	18.5	79.5
77834	2024-07-29T07:39:06	18.6	79.5
77835	2024-07-29T07:49:05	18.9	78.5
77836	2024-07-29T07:59:05	19.1	77
77837	2024-07-29T08:09:05	19.3	76.5
77838	2024-07-29T08:19:05	19.5	76
77839	2024-07-29T08:29:05	19.8	74
77840	2024-07-29T08:39:05	19.9	73.5
77841	2024-07-29T08:49:05	20.3	75.5
77842	2024-07-29T08:59:05	20.5	73
77843	2024-07-29T09:09:05	20.8	73
77844	2024-07-29T09:19:05	20.8	72.5
77845	2024-07-29T09:29:05	21.1	72
77846	2024-07-29T09:39:05	21.3	72
77847	2024-07-29T09:49:05	21.6	70
77848	2024-07-29T09:59:05	21.7	71
77849	2024-07-29T10:09:05	21.9	68.5
77850	2024-07-29T10:19:05	22.3	66.5
77851	2024-07-29T10:29:05	22.5	65
77852	2024-07-29T10:39:05	22.7	64.5
77853	2024-07-29T10:49:05	22.8	63
77854	2024-07-29T10:59:05	23.1	63
77855	2024-07-29T11:09:05	23.2	64.5
77856	2024-07-29T11:19:05	23.5	61.5
77857	2024-07-29T11:29:05	23.7	61
77858	2024-07-29T11:39:05	23.9	60.5
77859	2024-07-29T11:49:05	24.1	58
77860	2024-07-29T11:59:05	24.5	59
77861	2024-07-29T12:09:05	25.1	57
77862	2024-07-29T12:19:05	25.6	55.5
77863	2024-07-29T12:29:05	29.7	45.5
77864	2024-07-29T12:39:05	32.5	42
77865	2024-07-29T12:49:05	34.2	39.5
77866	2024-07-29T12:59:05	35.4	35.5
77867	2024-07-29T13:09:05	36.6	34
77868	2024-07-29T13:19:05	37.3	31
77869	2024-07-29T13:29:05	37.8	31
77870	2024-07-29T13:39:05	38.8	33.5
77871	2024-07-29T13:49:05	39.7	29.5
77872	2024-07-29T13:59:05	40.1	27
77873	2024-07-29T14:09:05	40.2	30
77874	2024-07-29T14:19:05	41.2	28
77875	2024-07-29T14:29:05	41.6	28.5
77876	2024-07-29T14:39:05	42.1	26
77877	2024-07-29T14:49:05	42.6	28
77878	2024-07-29T14:59:05	42.7	29.5
77879	2024-07-29T15:09:05	42.7	26
77880	2024-07-29T15:19:05	42.7	27
77881	2024-07-29T15:29:05	43.2	29.5
77882	2024-07-29T15:39:05	42.5	26
77883	2024-07-29T15:49:05	43.4	29
77884	2024-07-29T15:59:05	43.7	28.5
77885	2024-07-29T16:09:05	43.6	25
77886	2024-07-29T16:19:05	43.7	28
77887	2024-07-29T16:29:05	43.2	28.5
77888	2024-07-29T16:39:05	43.2	28
77889	2024-07-29T16:49:05	43.1	27
77890	2024-07-29T16:59:25	42.5	27.5
77891	2024-07-29T17:09:05	42.2	30
77892	2024-07-29T17:19:05	41.9	29
77893	2024-07-29T17:29:05	41.5	28.5
77894	2024-07-29T17:39:05	40.9	31
77895	2024-07-29T17:49:05	40	29.5
77896	2024-07-29T17:59:05	38.3	35.5
77897	2024-07-29T18:09:05	36.7	36
77898	2024-07-29T18:19:05	35.6	38.5
77899	2024-07-29T18:29:05	35.5	40
77900	2024-07-29T18:39:05	34.7	40
77901	2024-07-29T18:49:05	33.5	40.5
77902	2024-07-29T18:59:05	32.5	41
77903	2024-07-29T19:09:05	31.8	46
77904	2024-07-29T19:19:05	31.2	48
77905	2024-07-29T19:29:05	30.5	47.5
77906	2024-07-29T19:39:04	30.1	50
77907	2024-07-29T19:59:04	29.1	51
77908	2024-07-29T20:09:05	28.7	50.5
77909	2024-07-29T20:19:05	28.1	53
77910	2024-07-29T20:29:04	27.7	54.5
77911	2024-07-29T20:39:04	27.2	53
77912	2024-07-29T20:49:04	26.9	51
77913	2024-07-29T20:59:04	26.5	52.5
77914	2024-07-29T21:09:04	25.9	53.5
77915	2024-07-29T21:19:04	25.9	52.5
77916	2024-07-29T21:29:04	25.7	51
77917	2024-07-29T21:39:04	25.7	51
77918	2024-07-29T21:49:04	25.4	52.5
77919	2024-07-29T21:59:04	25.1	50
77920	2024-07-29T22:09:04	24.9	54.5
77921	2024-07-29T22:19:04	24.7	55
77922	2024-07-29T22:29:04	24.3	56.5
77923	2024-07-29T22:39:04	24.2	59
77924	2024-07-29T22:49:04	24	57
77925	2024-07-29T22:59:04	23.8	52.5
77926	2024-07-29T23:31:25	23.8	56
77927	2024-07-29T23:31:25	23.6	56.5
77928	2024-07-29T23:31:25	23.4	57.5
77929	2024-07-29T23:39:04	23.2	58.5
77930	2024-07-29T23:49:04	23	60.5
77931	2024-07-29T23:59:04	22.7	60
77932	2024-07-30T00:09:04	22.6	62.5
77933	2024-07-30T00:19:04	22.4	63.5
77934	2024-07-30T00:29:04	22.3	64.5
77935	2024-07-30T00:39:04	22.2	66
77936	2024-07-30T00:49:04	22.1	67
77937	2024-07-30T00:59:04	21.9	67.5
77938	2024-07-30T01:09:04	21.8	67.5
77939	2024-07-30T01:19:04	21.5	69
77940	2024-07-30T01:29:04	21.4	68.5
77941	2024-07-30T01:39:04	21.3	68.5
77942	2024-07-30T01:49:04	21.1	70
77943	2024-07-30T01:59:04	21	70.5
77944	2024-07-30T02:09:04	20.9	71.5
77945	2024-07-30T02:19:04	20.8	72
77946	2024-07-30T02:29:04	20.6	72
77947	2024-07-30T02:39:04	20.4	72
77948	2024-07-30T02:49:04	20.3	71.5
77949	2024-07-30T02:59:04	20.1	72.5
77950	2024-07-30T03:09:04	20.1	72
77951	2024-07-30T03:19:04	19.9	73.5
77952	2024-07-30T03:29:04	19.7	72.5
77953	2024-07-30T03:39:04	19.7	73.5
77954	2024-07-30T03:49:04	19.5	74.5
77955	2024-07-30T03:59:04	19.5	74
77956	2024-07-30T04:09:04	19.3	75
77957	2024-07-30T04:19:04	19.4	75
77958	2024-07-30T04:29:04	19.3	75.5
77959	2024-07-30T04:39:04	19.2	75.5
77960	2024-07-30T04:49:04	19.3	76.5
77961	2024-07-30T04:59:04	19.2	77
77962	2024-07-30T05:09:04	19.3	77
77963	2024-07-30T05:19:04	19.5	76.5
77964	2024-07-30T05:29:04	19.5	76
77965	2024-07-30T05:39:04	19.4	75.5
77966	2024-07-30T05:49:04	19.5	75.5
77967	2024-07-30T05:59:04	19.6	74.5
77968	2024-07-30T06:09:04	19.6	74.5
77969	2024-07-30T06:19:03	19.8	75
77970	2024-07-30T06:29:03	19.8	75.5
77971	2024-07-30T06:39:03	20	75
77972	2024-07-30T06:49:03	19.9	76
77973	2024-07-30T06:59:03	20.2	75
77974	2024-07-30T07:09:03	20.3	74
77975	2024-07-30T07:19:03	20.5	74.5
77976	2024-07-30T07:29:03	20.7	74
77977	2024-07-30T07:39:03	21	72
77978	2024-07-30T07:49:03	21.2	70.5
77979	2024-07-30T07:59:03	21.5	68.5
77980	2024-07-30T08:09:03	21.7	71
77981	2024-07-30T08:19:03	21.8	70
77982	2024-07-30T08:29:03	22.2	69
77983	2024-07-30T08:39:03	22.3	70.5
77984	2024-07-30T08:49:03	22.4	69
77985	2024-07-30T08:59:03	22.7	68
77986	2024-07-30T09:09:03	22.8	67.5
77987	2024-07-30T09:19:03	23	67.5
77988	2024-07-30T09:29:03	23.2	66.5
77989	2024-07-30T09:39:03	23.2	66
77990	2024-07-30T09:49:03	23.6	65.5
77991	2024-07-30T09:59:03	23.6	65.5
77992	2024-07-30T10:09:03	23.8	65
77993	2024-07-30T10:19:03	24	65
77994	2024-07-30T10:29:03	24.3	63.5
77995	2024-07-30T10:39:03	24.6	63
77996	2024-07-30T10:49:03	24.8	64.5
77997	2024-07-30T10:59:03	25.4	65.5
77998	2024-07-30T11:09:03	26.5	62
77999	2024-07-30T11:19:03	26.9	62
78000	2024-07-30T11:29:03	26.8	60.5
78001	2024-07-30T11:39:03	26.9	61.5
78002	2024-07-30T11:49:03	27.1	61.5
78003	2024-07-30T11:59:03	27.5	59
78004	2024-07-30T12:09:03	28	59
78005	2024-07-30T12:19:03	28.7	57.5
78006	2024-07-30T12:29:03	32.4	47.5
78007	2024-07-30T12:39:03	34.9	43
78008	2024-07-30T12:49:04	36.7	39.5
78009	2024-07-30T12:59:03	38.1	36
78010	2024-07-30T13:09:03	39.1	33.5
78011	2024-07-30T13:19:03	39.6	33
78012	2024-07-30T13:29:03	39.8	34
78013	2024-07-30T13:39:03	40.7	34
78014	2024-07-30T13:49:03	40.7	31.5
78015	2024-07-30T13:59:03	41.6	29.5
78016	2024-07-30T14:09:03	42.3	33.5
78017	2024-07-30T14:19:03	42.9	33.5
78018	2024-07-30T14:29:03	42.3	30
78019	2024-07-30T14:39:03	43	33.5
78020	2024-07-30T14:49:03	43.3	32
78021	2024-07-30T14:59:03	43.8	32.5
78022	2024-07-30T15:09:03	43.4	32.5
78023	2024-07-30T15:19:03	43.6	29.5
78024	2024-07-30T15:29:03	43.2	29.5
78025	2024-07-30T15:39:03	43.6	33.5
78026	2024-07-30T15:49:03	44	32
78027	2024-07-30T15:59:03	44.6	33.5
78028	2024-07-30T16:09:03	44.5	34.5
78029	2024-07-30T16:19:03	44.3	33
78030	2024-07-30T16:29:03	44.4	31.5
78031	2024-07-30T16:39:03	43.8	32
78032	2024-07-30T16:49:03	43.8	33
78033	2024-07-30T16:59:03	43.1	29
78034	2024-07-30T17:09:03	42.5	28.5
78035	2024-07-30T17:19:03	42.4	31
78036	2024-07-30T17:29:03	41.6	32.5
78037	2024-07-30T17:39:03	41.3	40
78038	2024-07-30T17:49:03	40.4	41.5
78039	2024-07-30T17:59:03	39.2	43.5
78040	2024-07-30T18:09:03	38.1	47
78041	2024-07-30T18:19:03	37.6	49
78042	2024-07-30T18:29:03	36.9	47
78043	2024-07-30T18:39:02	36.1	48
78044	2024-07-30T18:49:02	35.3	51.5
78045	2024-07-30T18:59:02	34.6	51.5
78046	2024-07-30T19:09:02	34	51
78047	2024-07-30T19:19:02	33.4	52.5
78048	2024-07-30T19:29:02	32.9	53
78049	2024-07-30T19:39:02	32.5	56
78050	2024-07-30T19:49:02	32	56
78051	2024-07-30T19:59:02	31.6	54
78052	2024-07-30T20:09:02	30.9	56
78053	2024-07-30T20:19:02	30.5	58
78054	2024-07-30T20:29:02	30.3	59.5
78055	2024-07-30T20:39:02	30.1	60.5
78056	2024-07-30T20:49:02	29.8	60
78057	2024-07-30T20:59:02	29.5	60.5
78058	2024-07-30T21:09:02	29.2	61.5
78059	2024-07-30T21:19:02	29	62
78060	2024-07-30T21:29:02	28.8	62.5
78061	2024-07-30T21:39:02	28.5	63.5
78062	2024-07-30T21:49:02	28.2	63.5
78063	2024-07-30T21:59:02	27.9	64
78064	2024-07-30T22:09:02	27.7	64.5
78065	2024-07-30T22:19:02	27.5	65
78066	2024-07-30T22:29:02	27.3	65
78067	2024-07-30T22:39:02	27	66.5
78068	2024-07-30T22:49:02	26.9	67
78069	2024-07-30T22:59:02	26.6	66.5
78070	2024-07-30T23:30:19	26.2	68
78071	2024-07-30T23:30:19	26	68.5
78072	2024-07-30T23:30:19	26.5	68
78073	2024-07-30T23:39:02	25.8	68.5
78074	2024-07-30T23:49:02	25.7	68.5
78075	2024-07-30T23:59:02	25.4	69
78076	2024-07-31T00:09:02	25.3	69.5
78077	2024-07-31T00:19:02	25.1	69.5
78078	2024-07-31T00:29:02	25	69.5
78079	2024-07-31T00:39:02	24.7	70
78080	2024-07-31T00:49:02	24.5	70
78081	2024-07-31T00:59:02	24.4	71
78082	2024-07-31T01:09:02	24.3	70.5
78083	2024-07-31T01:19:02	24.1	71
78084	2024-07-31T01:29:02	23.9	71.5
78085	2024-07-31T01:39:02	23.8	72
78086	2024-07-31T01:49:02	23.7	72.5
78087	2024-07-31T01:59:02	23.5	73
78088	2024-07-31T02:19:02	23.1	73.5
78089	2024-07-31T02:29:02	23.1	73.5
78090	2024-07-31T02:39:02	22.9	73.5
78091	2024-07-31T02:49:02	22.8	73.5
78092	2024-07-31T02:59:02	22.7	74
78093	2024-07-31T03:09:02	22.5	74.5
78094	2024-07-31T03:19:02	22.4	74.5
78095	2024-07-31T03:29:02	22.3	74.5
78096	2024-07-31T03:39:02	22.1	75
78097	2024-07-31T03:49:02	22.1	75.5
78098	2024-07-31T03:59:02	21.9	75.5
78099	2024-07-31T04:09:02	21.8	75.5
78100	2024-07-31T04:19:02	21.7	76
78101	2024-07-31T04:29:02	21.8	76.5
78102	2024-07-31T04:39:02	21.7	76.5
78103	2024-07-31T04:49:02	21.7	77
78104	2024-07-31T04:59:01	21.9	78
78105	2024-07-31T05:09:01	21.8	78.5
78106	2024-07-31T05:19:01	21.7	78.5
78107	2024-07-31T05:29:01	22	80
78108	2024-07-31T05:39:01	22.1	79
78109	2024-07-31T05:49:01	22.2	78
78110	2024-07-31T05:59:01	22.3	78
78111	2024-07-31T06:09:01	22.5	78
78112	2024-07-31T06:19:01	22.7	79
78113	2024-07-31T06:29:01	22.7	79
78114	2024-07-31T06:39:01	22.7	79
78115	2024-07-31T06:49:01	22.7	80
78116	2024-07-31T06:59:01	22.7	80.5
78117	2024-07-31T07:09:01	22.9	80.5
78118	2024-07-31T07:19:01	23	81
78119	2024-07-31T07:29:01	23.1	79.5
78120	2024-07-31T07:39:01	23.4	80.5
78121	2024-07-31T07:49:01	23.5	79.5
78122	2024-07-31T07:59:01	23.8	79.5
78123	2024-07-31T08:09:01	24	79
78124	2024-07-31T08:19:01	24.1	78
78125	2024-07-31T08:29:01	24.3	79
78126	2024-07-31T08:39:01	24.5	79
78127	2024-07-31T08:49:01	24.8	77
78128	2024-07-31T08:59:01	25	77
78129	2024-07-31T09:09:01	25.2	75.5
78130	2024-07-31T09:19:01	25.4	75
78131	2024-07-31T09:29:01	25.6	75.5
78132	2024-07-31T09:39:01	25.8	72.5
78133	2024-07-31T09:49:01	26.4	72
78134	2024-07-31T09:59:01	26.8	70
78135	2024-07-31T10:09:01	27.2	69
78136	2024-07-31T10:19:01	27.7	66.5
78137	2024-07-31T10:29:01	28.1	65
78138	2024-07-31T10:39:01	28.5	63
78139	2024-07-31T10:49:01	28.9	61.5
78140	2024-07-31T10:59:01	29.2	58.5
78141	2024-07-31T11:09:01	29.1	62.5
78142	2024-07-31T11:19:01	29.3	61
78143	2024-07-31T11:29:01	29.4	61
78144	2024-07-31T11:39:01	29.7	60
78145	2024-07-31T11:49:01	30.1	57.5
78146	2024-07-31T11:59:01	30.4	54
78147	2024-07-31T12:09:01	30.8	52.5
78148	2024-07-31T12:19:01	31.1	52
78149	2024-07-31T12:29:01	33	48.5
78150	2024-07-31T12:39:01	34	45.5
78151	2024-07-31T12:49:01	35.1	44
78152	2024-07-31T12:59:01	35.7	42
78153	2024-07-31T13:09:01	34.7	48.5
78154	2024-07-31T13:19:01	35.1	48.5
78155	2024-07-31T13:29:01	36.6	47
78156	2024-07-31T13:39:01	36.6	45
78157	2024-07-31T13:49:01	35.8	46.5
78158	2024-07-31T13:59:01	36	46.5
78159	2024-07-31T14:09:01	35.5	49.5
78160	2024-07-31T14:19:01	35.1	50.5
78161	2024-07-31T14:29:01	35.4	48
78162	2024-07-31T14:39:01	35.3	49
78163	2024-07-31T14:49:01	35.9	49
78164	2024-07-31T14:59:01	37.8	46
78165	2024-07-31T15:09:01	38.4	44
78166	2024-07-31T15:19:01	39.7	42.5
78167	2024-07-31T15:29:00	40.8	37
78168	2024-07-31T15:39:00	41.8	40
78169	2024-07-31T15:49:01	41.2	38
78170	2024-07-31T15:59:01	40.4	40
78171	2024-07-31T16:09:00	39.6	42
78172	2024-07-31T16:19:00	38.6	44
78173	2024-07-31T16:29:00	37.5	46.5
78174	2024-07-31T16:39:00	36.6	51
78175	2024-07-31T16:49:00	35.9	53.5
78176	2024-07-31T16:59:00	35.2	56.5
78177	2024-07-31T17:09:00	34.8	57
78178	2024-07-31T17:19:00	34	56
78179	2024-07-31T17:29:00	33.8	58
78180	2024-07-31T17:39:00	33.6	59
78181	2024-07-31T17:49:00	32.8	58
78182	2024-07-31T17:59:00	32.5	58.5
78183	2024-07-31T18:09:00	32.1	57.5
78184	2024-07-31T18:19:00	31.6	60.5
78185	2024-07-31T18:29:00	31.6	61.5
78186	2024-07-31T18:39:00	31.2	60.5
78187	2024-07-31T18:49:00	30.5	61.5
78188	2024-07-31T18:59:00	30	64
78189	2024-07-31T19:09:00	29.1	70.5
78190	2024-07-31T19:19:00	28.2	74
78191	2024-07-31T19:29:00	27.9	75.5
78192	2024-07-31T19:39:00	28.1	74.5
78193	2024-07-31T19:49:00	28.1	75
78194	2024-07-31T19:59:00	28.1	75
78195	2024-07-31T20:09:00	28.2	75
78196	2024-07-31T20:19:00	28	75
78197	2024-07-31T20:29:00	27.8	71.5
78198	2024-07-31T20:39:00	27.7	70.5
78199	2024-07-31T20:49:00	27.6	72
78200	2024-07-31T20:59:00	27.4	73
78201	2024-07-31T21:09:00	27.3	74
78202	2024-07-31T21:19:00	27.1	73.5
78203	2024-07-31T21:29:00	26.9	74
78204	2024-07-31T21:39:00	26.7	74
78205	2024-07-31T21:49:00	26	75
78206	2024-07-31T21:59:00	25.8	75
78207	2024-07-31T22:09:00	25.7	75
78208	2024-07-31T22:19:00	25.7	75.5
78209	2024-07-31T22:29:00	25.7	76
78210	2024-07-31T22:39:00	25.6	76.5
78211	2024-07-31T22:49:00	25.4	76.5
78212	2024-07-31T22:59:00	25.4	76.5
78213	2024-07-31T23:29:08	25.4	77
78214	2024-07-31T23:29:09	25.1	77
78215	2024-07-31T23:29:10	24.9	77
78216	2024-07-31T23:39:00	24.8	77.5
78217	2024-07-31T23:49:00	24.6	77.5
78218	2024-07-31T23:59:00	24.4	78
78219	2024-08-01T00:09:00	24.2	78.5
78220	2024-08-01T00:19:00	24.3	78.5
78221	2024-08-01T00:29:00	24.1	78.5
78222	2024-08-01T00:39:00	24.2	78.5
78223	2024-08-01T00:49:00	24.1	78.5
78224	2024-08-01T00:59:00	24	79
78225	2024-08-01T01:09:00	23.9	79
78226	2024-08-01T01:19:00	24	79.5
78227	2024-08-01T01:29:00	23.7	80
78228	2024-08-01T01:38:59	23.6	80.5
78229	2024-08-01T01:48:59	23.6	80.5
78230	2024-08-01T01:58:59	23.4	80.5
78231	2024-08-01T02:08:59	23.2	81
78232	2024-08-01T02:18:59	23.3	81.5
78233	2024-08-01T02:28:59	23.2	81.5
78234	2024-08-01T02:38:59	23	81.5
78235	2024-08-01T02:48:59	22.9	82
78236	2024-08-01T02:58:59	22.8	82
78237	2024-08-01T03:08:59	22.7	82
78238	2024-08-01T03:18:59	22.7	82.5
78239	2024-08-01T03:28:59	22.7	82
78240	2024-08-01T03:38:59	22.7	82
78241	2024-08-01T03:48:59	22.6	82.5
78242	2024-08-01T03:58:59	22.6	82
78243	2024-08-01T04:08:59	22.4	82.5
78244	2024-08-01T04:18:59	22.5	82.5
78245	2024-08-01T04:28:59	22.4	82.5
78246	2024-08-01T04:38:59	22.4	82.5
78247	2024-08-01T04:48:59	22.4	82.5
78248	2024-08-01T04:58:59	22.2	83
78249	2024-08-01T05:08:59	22.4	83
78250	2024-08-01T05:18:59	22.3	83
78251	2024-08-01T05:28:59	22.4	83.5
78252	2024-08-01T05:38:59	22.3	83.5
78253	2024-08-01T05:48:59	22.5	84
78254	2024-08-01T05:58:59	22.5	83
78255	2024-08-01T06:08:59	22.7	83
78256	2024-08-01T06:18:59	23	82
78257	2024-08-01T06:28:59	23.3	82
78258	2024-08-01T06:38:59	23.5	81
78259	2024-08-01T06:48:59	23.7	80
78260	2024-08-01T06:58:59	24	80
78261	2024-08-01T07:08:59	24.1	79
78262	2024-08-01T07:18:59	24.2	77.5
78263	2024-08-01T07:28:59	24.3	77.5
78264	2024-08-01T07:38:59	24.3	78
78265	2024-08-01T07:48:59	24.4	78.5
78266	2024-08-01T07:58:59	24.5	78.5
78267	2024-08-01T08:08:59	24.6	78.5
78268	2024-08-01T08:18:59	24.5	79
78269	2024-08-01T08:28:59	24.4	79
78270	2024-08-01T08:38:59	24.5	79
78271	2024-08-01T08:48:59	24.6	78
78272	2024-08-01T08:58:59	25.2	77
78273	2024-08-01T09:08:59	25.5	73
78274	2024-08-01T09:18:59	25.9	73
78275	2024-08-01T09:28:59	26	67
78276	2024-08-01T09:38:59	26.1	67.5
78277	2024-08-01T09:48:59	26.3	67
78278	2024-08-01T09:58:59	26.4	68
78279	2024-08-01T10:08:59	26.1	69
78280	2024-08-01T10:18:59	25.9	69
78281	2024-08-01T10:28:59	26.1	69
78282	2024-08-01T10:38:59	26.1	69.5
78283	2024-08-01T10:48:59	25.8	71
78284	2024-08-01T10:58:59	24.5	87.5
78285	2024-08-01T11:08:59	23.5	97.5
78286	2024-08-01T11:18:59	23.2	98.5
78287	2024-08-01T11:28:59	23	100
78288	2024-08-01T11:38:59	23	99.5
78289	2024-08-01T11:48:59	22.8	98.5
78290	2024-08-01T11:58:58	19.3	100
78291	2024-08-01T12:08:58	20.3	100
78292	2024-08-01T12:18:58	20.8	100
78293	2024-08-01T12:28:58	20.8	100
78294	2024-08-01T12:38:58	21	100
78295	2024-08-01T12:48:58	20.9	99
78296	2024-08-01T12:58:58	20.1	99
78297	2024-08-01T13:08:58	21.3	98.5
78298	2024-08-01T13:18:58	21.8	98.5
78299	2024-08-01T13:28:58	22.2	98
78300	2024-08-01T13:38:58	22.9	97
78301	2024-08-01T13:48:58	23.8	96.5
78302	2024-08-01T13:58:58	24.2	95.5
78303	2024-08-01T14:08:58	24.9	95
78304	2024-08-01T14:18:58	25	94
78305	2024-08-01T14:28:58	26.6	94
78306	2024-08-01T14:38:58	28	94
78307	2024-08-01T14:48:58	27.6	94
78308	2024-08-01T14:58:58	26.8	94
78309	2024-08-01T15:08:58	26.8	94.5
78310	2024-08-01T15:18:58	26.6	94.5
78311	2024-08-01T15:28:58	26.3	94.5
78312	2024-08-01T15:38:58	26	94.5
78313	2024-08-01T15:48:58	25.6	94.5
78314	2024-08-01T15:58:58	25.6	94.5
78315	2024-08-01T16:08:58	25.6	94.5
78316	2024-08-01T16:18:58	25.5	94.5
78317	2024-08-01T16:28:58	25.4	94.5
78318	2024-08-01T16:38:58	25.2	94.5
78319	2024-08-01T16:48:58	25.1	94.5
78320	2024-08-01T16:58:58	24.9	94.5
78321	2024-08-01T17:08:58	25	94.5
78322	2024-08-01T17:18:58	25	94.5
78323	2024-08-01T17:28:58	24.9	94.5
78324	2024-08-01T17:38:58	25.5	95
78325	2024-08-01T17:48:58	25.3	95
78326	2024-08-01T17:58:58	24.6	95
78327	2024-08-01T18:08:58	24.4	95
78328	2024-08-01T18:18:58	24.1	95
78329	2024-08-01T18:28:58	23.9	95
78330	2024-08-01T18:38:58	23.8	95
78331	2024-08-01T18:48:58	23.5	95
78332	2024-08-01T18:58:58	23.6	95
78333	2024-08-01T19:08:58	23.4	95
78334	2024-08-01T19:18:58	23.2	95
78335	2024-08-01T19:28:58	23.1	95
78336	2024-08-01T19:38:58	23	95
78337	2024-08-01T19:48:58	22.9	95
78338	2024-08-01T19:58:58	22.8	95
78339	2024-08-01T20:08:58	22.7	95
78340	2024-08-01T20:18:58	22.6	95
78341	2024-08-01T20:28:58	22.5	95
78342	2024-08-01T20:38:58	22.4	95
78343	2024-08-01T20:48:58	22.4	95
78344	2024-08-01T20:58:58	22.5	95
78345	2024-08-01T21:08:58	22.4	95
78346	2024-08-01T21:18:58	22.5	95
78347	2024-08-01T21:28:58	22.4	95
78348	2024-08-01T21:38:58	22.4	95
78349	2024-08-01T21:48:58	22.5	95
78350	2024-08-01T21:58:58	22.4	95
78351	2024-08-01T22:08:58	22.5	95
78352	2024-08-01T22:18:57	22.3	95
78353	2024-08-01T22:28:57	22.1	95
78354	2024-08-01T22:38:57	21.9	95
78355	2024-08-01T22:48:57	22	95
78356	2024-08-01T22:58:57	21.8	95
78357	2024-08-01T23:29:18	21.7	95.5
78358	2024-08-01T23:29:18	21.8	95
78359	2024-08-01T23:29:18	21.7	95
78360	2024-08-01T23:38:57	21.6	95.5
78361	2024-08-01T23:48:57	21.5	95.5
78362	2024-08-01T23:58:57	21.3	95.5
78363	2024-08-02T00:08:57	21.3	95.5
78364	2024-08-02T00:18:57	21.2	95.5
78365	2024-08-02T00:28:57	21.1	95.5
78366	2024-08-02T00:38:57	21.1	95.5
78367	2024-08-02T00:48:57	21	95.5
78368	2024-08-02T00:58:57	20.9	96
78369	2024-08-02T01:08:57	20.8	95.5
78370	2024-08-02T01:18:57	20.7	95.5
78371	2024-08-02T01:28:57	20.6	95.5
78372	2024-08-02T01:38:57	20.6	96
78373	2024-08-02T01:48:57	20.6	96
78374	2024-08-02T01:58:57	20.7	95.5
78375	2024-08-02T02:08:57	20.7	95.5
78376	2024-08-02T02:18:57	20.6	95.5
78377	2024-08-02T02:28:57	20.7	95.5
78378	2024-08-02T02:38:57	20.8	96
78379	2024-08-02T02:48:57	20.8	96
78380	2024-08-02T02:58:57	20.7	96
78381	2024-08-02T03:08:57	20.6	96
78382	2024-08-02T03:18:57	20.6	96
78383	2024-08-02T03:28:57	20.6	96
78384	2024-08-02T03:38:57	20.5	96
78385	2024-08-02T03:48:57	20.4	96
78386	2024-08-02T03:58:57	20.3	96
78387	2024-08-02T04:08:57	20.2	96
78388	2024-08-02T04:18:57	20.2	96
78389	2024-08-02T04:28:57	20.3	96
78390	2024-08-02T04:38:57	20.2	96
78391	2024-08-02T04:48:57	20.3	96
78392	2024-08-02T04:58:57	20.4	96
78393	2024-08-02T05:08:57	20.4	96
78394	2024-08-02T05:18:57	20.5	96
78395	2024-08-02T05:28:57	20.5	96
78396	2024-08-02T05:38:57	20.4	96
78397	2024-08-02T05:48:57	20.6	96
78398	2024-08-02T05:58:57	20.8	96
78399	2024-08-02T06:08:57	20.9	96
78400	2024-08-02T06:18:57	21.1	96
78401	2024-08-02T06:28:57	21.1	96
78402	2024-08-02T06:38:57	21.1	96
78403	2024-08-02T06:48:57	21.2	96
78404	2024-08-02T06:58:57	21.5	96
78405	2024-08-02T07:08:57	21.7	96
78406	2024-08-02T07:18:57	21.7	96
78407	2024-08-02T07:28:57	21.9	96
78408	2024-08-02T07:38:57	22	99
78409	2024-08-02T07:48:57	22.1	100
78410	2024-08-02T07:58:57	22.5	100
78411	2024-08-02T08:08:57	22.7	100
78412	2024-08-02T08:18:57	22.9	100
78413	2024-08-02T08:28:57	22.9	100
78414	2024-08-02T08:38:56	23.1	100
78415	2024-08-02T08:48:56	23.5	100
78416	2024-08-02T08:58:56	23.6	100
78417	2024-08-02T09:08:56	23.7	100
78418	2024-08-02T09:18:56	23.8	100
78419	2024-08-02T09:28:56	23.8	100
78420	2024-08-02T09:38:56	24	100
78421	2024-08-02T09:48:56	24.3	97
78422	2024-08-02T09:58:56	24.8	79
78423	2024-08-02T10:08:56	25.1	76
78424	2024-08-02T10:18:56	25.2	74.5
78425	2024-08-02T10:28:56	25.3	75
78426	2024-08-02T10:38:56	25.5	74
78427	2024-08-02T10:48:56	25.5	73.5
78428	2024-08-02T10:58:56	25.6	73
78429	2024-08-02T11:08:56	26	73.5
78430	2024-08-02T11:18:56	26.1	72.5
78431	2024-08-02T11:28:56	26.1	70.5
78432	2024-08-02T11:38:56	26.3	70.5
78433	2024-08-02T11:48:56	26.6	69
78434	2024-08-02T11:58:56	26.8	68.5
78435	2024-08-02T12:08:56	26.7	69
78436	2024-08-02T12:18:56	26.9	70
78437	2024-08-02T12:28:56	28.5	63.5
78438	2024-08-02T12:38:56	28.6	62.5
78439	2024-08-02T12:48:56	28.8	63.5
78440	2024-08-02T12:58:56	30.8	61.5
78441	2024-08-02T13:08:56	32.1	53
78442	2024-08-02T13:18:56	32.5	50
78443	2024-08-02T13:28:56	34.5	48
78444	2024-08-02T13:38:56	34.3	44.5
78445	2024-08-02T13:48:56	32	53.5
78446	2024-08-02T13:58:56	30.6	54
78447	2024-08-02T14:08:56	30	60
78448	2024-08-02T14:18:56	29.6	61
78449	2024-08-02T14:28:56	30.9	59.5
78450	2024-08-02T14:38:56	31.5	61.5
78451	2024-08-02T14:48:56	31	60
78452	2024-08-02T14:58:56	30.5	59.5
78453	2024-08-02T15:08:56	30.3	58
78454	2024-08-02T15:18:56	30.2	61
78455	2024-08-02T15:28:56	32.3	51
78456	2024-08-02T15:38:56	32.7	50
78457	2024-08-02T15:48:56	32.9	49.5
78458	2024-08-02T15:58:56	34.2	45
78459	2024-08-02T16:08:56	33.3	47
78460	2024-08-02T16:18:56	33.7	45
78461	2024-08-02T16:28:56	31.8	51.5
78462	2024-08-02T16:38:56	30.7	52.5
78463	2024-08-02T16:48:56	29.6	54.5
78464	2024-08-02T16:58:56	29.2	58.5
78465	2024-08-02T17:08:56	28.4	62.5
78466	2024-08-02T17:18:56	28.1	65
78467	2024-08-02T17:28:56	27.7	68
78468	2024-08-02T17:38:56	27.3	84.5
78469	2024-08-02T17:48:56	25.1	100
78470	2024-08-02T17:58:56	23.7	99.5
78471	2024-08-02T18:08:56	23.3	100
78472	2024-08-02T18:18:56	22.7	100
78473	2024-08-02T18:28:56	21.9	100
78474	2024-08-02T18:38:56	21.2	100
78475	2024-08-02T18:48:56	20.3	100
78476	2024-08-02T18:58:55	19.5	100
78477	2024-08-02T19:08:55	19.4	100
78478	2024-08-02T19:18:55	19.6	100
78479	2024-08-02T19:28:55	19.8	100
78480	2024-08-02T19:38:55	19.9	100
78481	2024-08-02T19:48:55	19.5	100
78482	2024-08-02T19:58:55	19.5	100
78483	2024-08-02T20:08:55	19.6	100
78484	2024-08-02T20:18:56	19.8	100
78485	2024-08-02T20:38:55	19.9	100
78486	2024-08-02T20:48:55	19.9	100
78487	2024-08-02T20:58:55	19.9	100
78488	2024-08-02T21:08:55	19.9	100
78489	2024-08-02T21:18:55	19.8	100
78490	2024-08-02T21:28:55	19.7	100
78491	2024-08-02T21:38:55	19.6	100
78492	2024-08-02T21:48:55	19.4	98.5
78493	2024-08-02T21:58:55	19.5	95.5
78494	2024-08-02T22:08:55	19.4	95.5
78495	2024-08-02T22:18:55	19.1	95.5
78496	2024-08-02T22:28:55	18.9	95.5
78497	2024-08-02T22:38:55	18.9	95.5
78498	2024-08-02T22:48:55	18.7	95.5
78499	2024-08-02T22:58:55	18.7	95.5
78500	2024-08-02T23:31:29	18.6	95.5
78501	2024-08-02T23:31:29	18.6	95.5
78502	2024-08-02T23:31:30	18.6	95.5
78503	2024-08-02T23:38:55	18.6	95.5
78504	2024-08-02T23:48:55	18.5	95.5
78505	2024-08-02T23:58:55	18.3	95.5
78506	2024-08-03T00:08:55	18.4	95.5
78507	2024-08-03T00:18:55	18.3	95.5
78508	2024-08-03T00:28:55	18.1	95.5
78509	2024-08-03T00:38:55	17.9	95.5
78510	2024-08-03T00:48:55	17.8	96
78511	2024-08-03T00:58:55	17.7	95.5
78512	2024-08-03T01:08:55	17.7	96
78513	2024-08-03T01:18:55	17.7	95.5
78514	2024-08-03T01:28:55	17.6	96
78515	2024-08-03T01:38:55	17.5	95.5
78516	2024-08-03T01:48:55	17.5	96
78517	2024-08-03T01:58:55	17.5	96
78518	2024-08-03T02:08:55	17.4	96
78519	2024-08-03T02:18:55	17.4	96
78520	2024-08-03T02:28:55	17.4	96
78521	2024-08-03T02:38:55	17.4	96
78522	2024-08-03T02:48:55	17.3	96
78523	2024-08-03T02:58:55	17.3	96
78524	2024-08-03T03:08:55	17.3	96
78525	2024-08-03T03:18:55	17.1	96
78526	2024-08-03T03:28:55	17.2	96
78527	2024-08-03T03:38:55	17.1	96
78528	2024-08-03T03:48:55	17.1	96
78529	2024-08-03T03:58:55	17.1	96
78530	2024-08-03T04:08:55	17.1	96
78531	2024-08-03T04:18:55	17	96
78532	2024-08-03T04:28:55	17.1	96
78533	2024-08-03T04:38:55	17.1	96
78534	2024-08-03T04:48:55	17.1	96
78535	2024-08-03T04:58:55	17.2	96
78536	2024-08-03T05:08:55	17.2	96
78537	2024-08-03T05:18:55	17.2	96
78538	2024-08-03T05:28:55	17.3	96
78539	2024-08-03T05:38:55	17.6	96
78540	2024-08-03T05:48:55	17.6	96
78541	2024-08-03T05:58:55	17.8	96
78542	2024-08-03T06:08:55	17.8	96
78543	2024-08-03T06:18:55	18	96
78544	2024-08-03T06:28:54	18.1	96
78545	2024-08-03T06:38:54	18.2	96
78546	2024-08-03T06:48:54	18.3	96
78547	2024-08-03T06:58:54	18.2	96
78548	2024-08-03T07:08:54	18.4	96
78549	2024-08-03T07:18:54	18.5	96
78550	2024-08-03T07:28:54	18.5	96
78551	2024-08-03T07:38:54	18.9	96
78552	2024-08-03T07:48:54	18.9	96
78553	2024-08-03T07:58:54	19.1	96
78554	2024-08-03T08:08:54	19.3	96
78555	2024-08-03T08:18:54	19.7	96
78556	2024-08-03T08:28:54	19.9	96
78557	2024-08-03T08:38:54	20	96
78558	2024-08-03T08:48:54	20.1	96
78559	2024-08-03T08:58:54	20.3	96
78560	2024-08-03T09:08:54	20.6	96
78561	2024-08-03T09:18:54	20.7	96
78562	2024-08-03T09:28:54	21	96
78563	2024-08-03T09:38:54	21.4	96
78564	2024-08-03T09:48:54	21.6	96
78565	2024-08-03T09:58:54	21.7	96
78566	2024-08-03T10:08:54	21.6	96
78567	2024-08-03T10:18:54	21.5	96
78568	2024-08-03T10:28:54	21.8	96
78569	2024-08-03T10:38:54	22.1	96
78570	2024-08-03T10:48:54	22.5	96
78571	2024-08-03T10:58:54	22.5	96
78572	2024-08-03T11:08:54	22.3	96
78573	2024-08-03T11:18:54	22.9	96
78574	2024-08-03T11:28:54	23.4	96
78575	2024-08-03T11:38:54	24	87
78576	2024-08-03T11:48:54	23.7	83
78577	2024-08-03T11:58:54	24.4	80
78578	2024-08-03T12:08:54	24.3	79
78579	2024-08-03T12:18:54	25.2	77
78580	2024-08-03T12:28:54	25.2	75.5
78581	2024-08-03T12:38:54	27.5	64
78582	2024-08-03T12:48:54	28.9	58.5
78583	2024-08-03T12:58:54	29.2	58
78584	2024-08-03T13:08:54	28	61.5
78585	2024-08-03T13:18:54	27.1	64
78586	2024-08-03T13:28:54	28.3	61.5
78587	2024-08-03T13:38:54	28.7	60.5
78588	2024-08-03T13:48:54	30.4	55
78589	2024-08-03T13:58:54	30.2	53.5
78590	2024-08-03T14:08:54	30.5	52.5
78591	2024-08-03T14:18:54	30.9	50
78592	2024-08-03T14:28:54	30.5	50.5
78593	2024-08-03T14:38:54	30.1	50
78594	2024-08-03T14:48:54	30.6	49
78595	2024-08-03T14:58:54	30.6	48.5
78596	2024-08-03T15:08:54	30.2	47.5
78597	2024-08-03T15:18:54	30.6	47
78598	2024-08-03T15:28:54	32.1	45.5
78599	2024-08-03T15:38:54	32.4	42.5
78600	2024-08-03T15:48:54	32.3	43
78601	2024-08-03T15:58:54	32.5	43
78602	2024-08-03T16:08:54	31.9	43
78603	2024-08-03T16:18:54	32	43.5
78604	2024-08-03T16:28:54	31.7	44.5
78605	2024-08-03T16:38:54	30.9	45.5
78606	2024-08-03T16:48:54	30.3	45.5
78607	2024-08-03T16:58:53	30	47.5
78608	2024-08-03T17:08:53	29.1	47.5
78609	2024-08-03T17:18:53	28.3	49
78610	2024-08-03T17:28:53	28	51
78611	2024-08-03T17:38:53	27.9	50.5
78612	2024-08-03T17:48:53	27.4	51
78613	2024-08-03T17:58:53	27	52.5
78614	2024-08-03T18:08:53	26.7	53
78615	2024-08-03T18:18:53	26.4	53.5
78616	2024-08-03T18:28:53	26.2	56
78617	2024-08-03T18:38:53	25.8	58.5
78618	2024-08-03T18:48:53	25.4	58.5
78619	2024-08-03T18:58:53	24.9	58.5
78620	2024-08-03T19:08:53	24.6	60
78621	2024-08-03T19:18:53	24.4	61
78622	2024-08-03T19:28:53	24	61.5
78623	2024-08-03T19:38:53	23.8	62.5
78624	2024-08-03T19:48:53	23.6	62.5
78625	2024-08-03T19:58:53	23.4	63.5
78626	2024-08-03T20:08:53	23.3	65.5
78627	2024-08-03T20:18:53	23	66
78628	2024-08-03T20:28:53	22.7	67
78629	2024-08-03T20:38:53	22.6	68
78630	2024-08-03T20:48:53	22.4	69
78631	2024-08-03T20:58:53	22.1	70.5
78632	2024-08-03T21:08:53	21.9	71
78633	2024-08-03T21:18:54	21.9	71.5
78634	2024-08-03T21:28:53	21.6	72.5
78635	2024-08-03T21:38:53	21.6	73
78636	2024-08-03T21:48:53	21.3	73
78637	2024-08-03T21:58:53	21.4	73
78638	2024-08-03T22:08:53	21.3	74
78639	2024-08-03T22:18:53	21.1	74
78640	2024-08-03T22:28:53	21.2	74.5
78641	2024-08-03T22:38:53	21	75
78642	2024-08-03T22:48:53	20.9	75
78643	2024-08-03T22:58:53	20.8	75
78644	2024-08-03T23:31:38	20.7	75
78645	2024-08-03T23:31:39	20.8	76
78646	2024-08-03T23:31:39	20.8	76
78647	2024-08-03T23:38:53	20.7	76
78648	2024-08-03T23:48:53	20.6	76
78649	2024-08-03T23:58:53	20.5	76
78650	2024-08-04T00:08:53	20.4	76
78651	2024-08-04T00:18:53	20.4	76
78652	2024-08-04T00:28:53	20.3	76.5
78653	2024-08-04T00:38:53	20.2	77
78654	2024-08-04T00:48:53	20.3	77
78655	2024-08-04T00:58:53	20.3	77.5
78656	2024-08-04T01:08:53	20	77.5
78657	2024-08-04T01:18:53	20.1	78
78658	2024-08-04T01:28:53	20	78
78659	2024-08-04T01:38:53	20	78.5
78660	2024-08-04T01:48:53	20	78.5
78661	2024-08-04T01:58:53	19.9	79
78662	2024-08-04T02:08:53	19.8	79
78663	2024-08-04T02:18:53	19.8	79
78664	2024-08-04T02:28:53	19.7	79
78665	2024-08-04T02:38:53	19.8	79.5
78666	2024-08-04T02:48:53	19.7	79.5
78667	2024-08-04T02:58:53	19.7	79.5
78668	2024-08-04T03:08:53	19.7	79.5
78669	2024-08-04T03:18:53	19.6	80
78670	2024-08-04T03:28:52	19.3	81
78671	2024-08-04T03:38:52	19.4	81.5
78672	2024-08-04T03:48:52	19.1	81.5
78673	2024-08-04T03:58:52	19.2	81.5
78674	2024-08-04T04:08:52	19.1	81.5
78675	2024-08-04T04:18:52	19.1	82.5
78676	2024-08-04T04:28:52	19.1	83.5
78677	2024-08-04T04:38:52	19.1	83.5
78678	2024-08-04T04:48:52	18.9	83.5
78679	2024-08-04T04:58:52	19	84
78680	2024-08-04T05:08:52	19	84.5
78681	2024-08-04T05:18:53	19.1	85
78682	2024-08-04T05:28:52	19.1	85.5
78683	2024-08-04T05:38:52	19.2	84.5
78684	2024-08-04T05:48:52	19.3	84
78685	2024-08-04T05:58:52	19.6	83.5
78686	2024-08-04T06:08:52	19.9	81.5
78687	2024-08-04T06:18:53	20.1	80.5
78688	2024-08-04T06:28:52	20.2	78.5
78689	2024-08-04T06:38:52	20.2	78.5
78690	2024-08-04T06:48:52	20.3	78.5
78691	2024-08-04T06:58:52	20.7	78
78692	2024-08-04T07:08:52	20.8	76
78693	2024-08-04T07:18:52	21	75.5
78694	2024-08-04T07:28:52	21.3	75.5
78695	2024-08-04T07:38:52	21.5	73
78696	2024-08-04T07:48:52	21.8	72.5
78697	2024-08-04T07:58:52	22	71
78698	2024-08-04T08:08:52	22.2	70
78699	2024-08-04T08:18:52	22.2	70.5
78700	2024-08-04T08:28:52	22.5	71
78701	2024-08-04T08:38:52	22.7	71
78702	2024-08-04T08:48:52	22.7	69
78703	2024-08-04T08:59:09	22.8	69
78704	2024-08-04T09:08:52	22.9	69
78705	2024-08-04T09:18:52	23.2	67.5
78706	2024-08-04T09:28:52	23.4	67.5
78707	2024-08-04T09:38:52	23.4	66.5
78708	2024-08-04T09:48:52	23.2	68
78709	2024-08-04T09:58:52	23.4	67.5
78710	2024-08-04T10:08:52	23.4	67
78711	2024-08-04T10:18:52	23.6	67
78712	2024-08-04T10:28:52	23.8	67.5
78713	2024-08-04T10:38:52	23.9	66.5
78714	2024-08-04T10:48:52	24.1	65
78715	2024-08-04T10:58:52	24.3	64.5
78716	2024-08-04T11:08:52	24.6	65.5
78717	2024-08-04T11:18:52	24.8	64
78718	2024-08-04T11:28:52	24.6	64.5
78719	2024-08-04T11:38:52	24.7	64.5
78720	2024-08-04T11:48:52	25	64
78721	2024-08-04T11:58:52	25.2	64.5
78722	2024-08-04T12:08:52	25.3	62.5
78723	2024-08-04T12:18:53	25.7	62
78724	2024-08-04T12:28:52	26.2	60.5
78725	2024-08-04T12:38:52	27.5	57.5
78726	2024-08-04T12:48:52	26.9	58
78727	2024-08-04T12:58:52	26.8	58.5
78728	2024-08-04T13:08:52	26.7	59.5
78729	2024-08-04T13:18:52	27.6	58
78730	2024-08-04T13:28:52	28.1	57
78731	2024-08-04T13:38:52	27.2	57.5
78732	2024-08-04T13:48:52	27.7	58
78733	2024-08-04T13:58:51	28.3	54.5
78734	2024-08-04T14:08:51	29.6	53
78735	2024-08-04T14:18:51	29.1	54.5
78736	2024-08-04T14:28:51	28.6	56
78737	2024-08-04T14:38:51	28.2	54.5
78738	2024-08-04T14:48:51	27.8	56.5
78739	2024-08-04T14:58:51	27.4	58
78740	2024-08-04T15:08:51	27	58
78741	2024-08-04T15:18:51	26.8	58.5
78742	2024-08-04T15:28:51	27	60.5
78743	2024-08-04T15:38:51	26.9	59.5
78744	2024-08-04T15:48:51	26.4	61
78745	2024-08-04T15:58:51	26.2	62
78746	2024-08-04T16:08:51	26	62.5
78747	2024-08-04T16:18:51	25.6	65
78748	2024-08-04T16:28:51	22.9	96
78749	2024-08-04T16:38:51	22.7	100
78750	2024-08-04T16:48:51	22.3	100
78751	2024-08-04T16:58:51	23	100
78752	2024-08-04T17:08:51	23.1	100
78753	2024-08-04T17:18:51	22.6	97
78754	2024-08-04T17:28:51	22.8	96.5
78755	2024-08-04T17:38:51	22.5	89.5
78756	2024-08-04T17:48:51	22.2	90.5
78757	2024-08-04T17:58:51	21.9	89
78758	2024-08-04T18:08:51	21.9	89.5
78759	2024-08-04T18:18:51	21.8	90
78760	2024-08-04T18:28:51	21.7	89.5
78761	2024-08-04T18:38:51	21.5	90
78762	2024-08-04T18:48:51	21.6	90.5
78763	2024-08-04T18:58:51	21.4	91
78764	2024-08-04T19:08:51	21.3	92.5
78765	2024-08-04T19:18:51	21.5	90.5
78766	2024-08-04T19:28:51	21.3	91.5
78767	2024-08-04T19:38:51	21.3	93
78768	2024-08-04T19:48:51	21.3	92
78769	2024-08-04T19:58:51	21	91
78770	2024-08-04T20:08:51	20.8	91.5
78771	2024-08-04T20:18:51	20.8	92
78772	2024-08-04T20:28:51	20.8	93.5
78773	2024-08-04T20:38:51	20.8	91
78774	2024-08-04T20:48:51	20.9	90.5
78775	2024-08-04T20:58:51	20.8	92
78776	2024-08-04T21:08:51	20.7	91.5
78777	2024-08-04T21:18:51	20.6	91.5
78778	2024-08-04T21:28:51	20.5	90
78779	2024-08-04T21:38:51	20.4	91
78780	2024-08-04T21:48:51	20.4	91.5
78781	2024-08-04T21:58:51	20.4	90.5
78782	2024-08-04T22:08:51	20.3	89.5
78783	2024-08-04T22:18:51	20.1	89.5
78784	2024-08-04T22:28:51	20.1	91
78785	2024-08-04T22:38:51	20.1	90
78786	2024-08-04T22:48:51	20.1	91.5
78787	2024-08-04T22:58:51	20	91.5
78788	2024-08-04T23:31:18	20.1	91
78789	2024-08-04T23:31:18	20.1	92
78790	2024-08-04T23:31:18	20.1	91.5
78791	2024-08-04T23:38:51	20	91.5
78792	2024-08-04T23:48:51	19.9	91.5
78793	2024-08-04T23:58:51	19.9	92
78794	2024-08-05T00:08:51	19.8	92
78795	2024-08-05T00:18:51	19.8	92.5
78796	2024-08-05T00:28:50	19.8	92.5
78797	2024-08-05T00:38:50	19.8	93
78798	2024-08-05T00:48:50	19.6	93
78799	2024-08-05T00:58:50	19.6	92.5
78800	2024-08-05T01:08:50	19.7	93
78801	2024-08-05T01:18:50	19.7	93
78802	2024-08-05T01:28:50	19.6	92
78803	2024-08-05T01:38:50	19.5	91
78804	2024-08-05T01:48:50	19.5	92
78805	2024-08-05T01:58:50	19.4	92
78806	2024-08-05T02:08:50	19.5	91.5
78807	2024-08-05T02:18:50	19.5	92
78808	2024-08-05T02:28:50	19.4	91.5
78809	2024-08-05T02:38:50	19.2	92
78810	2024-08-05T02:48:50	19.2	92
78811	2024-08-05T02:58:50	19.1	92.5
78812	2024-08-05T03:08:50	19.1	93
78813	2024-08-05T03:18:50	19.1	93.5
78814	2024-08-05T03:28:50	19.2	92.5
78815	2024-08-05T03:38:50	19	93
78816	2024-08-05T03:48:50	19	93
78817	2024-08-05T03:58:50	18.9	93.5
78818	2024-08-05T04:08:50	18.9	93.5
78819	2024-08-05T04:18:50	18.9	93.5
78820	2024-08-05T04:28:50	18.9	94
78821	2024-08-05T04:38:50	19	94
78822	2024-08-05T04:48:50	19	93
78823	2024-08-05T04:58:50	18.9	93
78824	2024-08-05T05:08:50	19	93.5
78825	2024-08-05T05:18:50	19.1	93
78826	2024-08-05T05:28:50	19.1	93.5
78827	2024-08-05T05:38:50	19.2	93.5
78828	2024-08-05T05:48:50	19.4	93.5
78829	2024-08-05T05:58:50	19.5	93
78830	2024-08-05T06:08:50	19.5	92.5
78831	2024-08-05T06:18:50	19.6	92
78832	2024-08-05T06:28:50	19.8	91.5
78833	2024-08-05T06:38:50	19.9	90
78834	2024-08-05T06:48:50	20	89
78835	2024-08-05T06:58:50	20.2	89.5
78836	2024-08-05T07:08:50	20.4	89
78837	2024-08-05T07:18:50	20.5	87.5
78838	2024-08-05T07:28:50	20.6	88.5
78839	2024-08-05T07:38:50	20.8	88
78840	2024-08-05T07:48:50	20.9	86
78841	2024-08-05T07:58:50	21.1	85
78842	2024-08-05T08:08:50	21.4	84.5
78843	2024-08-05T08:18:50	21.6	84
78844	2024-08-05T08:28:50	21.7	82.5
78845	2024-08-05T08:38:50	21.7	78.5
78846	2024-08-05T08:48:50	21.7	80.5
78847	2024-08-05T08:58:50	21.9	80
78848	2024-08-05T09:08:50	22.2	78.5
78849	2024-08-05T09:18:50	22.4	77.5
78850	2024-08-05T09:28:50	22.2	77
78851	2024-08-05T09:38:50	22.1	78.5
78852	2024-08-05T09:48:50	22.1	74
78853	2024-08-05T09:58:50	22.3	72.5
78854	2024-08-05T10:08:50	22.7	73
78855	2024-08-05T10:18:50	22.7	73
78856	2024-08-05T10:28:50	22.6	71
78857	2024-08-05T10:38:50	22.6	73.5
78858	2024-08-05T10:48:50	22.8	72
78859	2024-08-05T10:58:50	23.2	70.5
78860	2024-08-05T11:08:50	23.3	69
78861	2024-08-05T11:18:49	23.5	66.5
78862	2024-08-05T11:28:49	23.8	66.5
78863	2024-08-05T11:38:49	24.1	63
78864	2024-08-05T11:48:49	24	65
78865	2024-08-05T11:58:49	24.3	63.5
78866	2024-08-05T12:08:49	24.5	61.5
78867	2024-08-05T12:18:49	24.9	58
78868	2024-08-05T12:28:49	29.2	52
78869	2024-08-05T12:38:49	31.4	44.5
78870	2024-08-05T12:48:49	32.7	40
78871	2024-08-05T12:58:49	33.9	38
78872	2024-08-05T13:08:49	34.1	40.5
78873	2024-08-05T13:18:49	35.7	37.5
78874	2024-08-05T13:28:49	36	34
78875	2024-08-05T13:38:49	35.7	33
78876	2024-08-05T13:48:49	36.9	35
78877	2024-08-05T13:58:49	38	34
78878	2024-08-05T14:08:49	39	33.5
78879	2024-08-05T14:18:49	39.7	34
78880	2024-08-05T14:28:49	40.6	29.5
78881	2024-08-05T14:38:49	40.9	30.5
78882	2024-08-05T14:48:49	40	26
78883	2024-08-05T14:58:49	39.6	28
78884	2024-08-05T15:08:49	40.8	31.5
78885	2024-08-05T15:18:49	41.6	30.5
78886	2024-08-05T15:28:49	42	30.5
78887	2024-08-05T15:38:49	42.2	29.5
78888	2024-08-05T15:48:49	42.5	25.5
78889	2024-08-05T15:58:49	41.6	28.5
78890	2024-08-05T16:08:49	42.1	24
78891	2024-08-05T16:18:49	41	25.5
78892	2024-08-05T16:28:49	41.4	27.5
78893	2024-08-05T16:38:49	41.9	29.5
78894	2024-08-05T16:48:49	41.8	27.5
78895	2024-08-05T16:58:49	41.3	27
78896	2024-08-05T17:08:49	41.2	28
78897	2024-08-05T17:18:49	40.8	31
78898	2024-08-05T17:28:49	40.2	30
78899	2024-08-05T17:38:49	39.8	31
78900	2024-08-05T17:48:49	38.7	33.5
78901	2024-08-05T17:58:49	36.4	35.5
78902	2024-08-05T18:08:49	35.1	37.5
78903	2024-08-05T18:18:49	34.2	39
78904	2024-08-05T18:28:49	33.4	43
78905	2024-08-05T18:38:49	32.8	47.5
78906	2024-08-05T18:48:49	32.1	49.5
78907	2024-08-05T18:58:49	31.4	49.5
78908	2024-08-05T19:08:49	30.9	51
78909	2024-08-05T19:18:49	30.3	51.5
78910	2024-08-05T19:28:49	29.9	53
78911	2024-08-05T19:38:49	29.3	54
78912	2024-08-05T19:48:49	28.9	55
78913	2024-08-05T19:58:49	28.5	55.5
78914	2024-08-05T20:08:49	27.9	54.5
78915	2024-08-05T20:18:49	27.4	54.5
78916	2024-08-05T20:28:49	27	56.5
78917	2024-08-05T20:38:49	26.7	57.5
78918	2024-08-05T20:48:49	26.3	56.5
78919	2024-08-05T20:58:49	25.8	58
78920	2024-08-05T21:08:49	25.6	60
78921	2024-08-05T21:18:49	25.2	62
78922	2024-08-05T21:28:49	24.9	62.5
78923	2024-08-05T21:38:49	24.7	61
78924	2024-08-05T21:48:49	24.4	62.5
78925	2024-08-05T21:58:49	24.2	62
78926	2024-08-05T22:08:49	24	64.5
78927	2024-08-05T22:18:49	23.9	65
78928	2024-08-05T22:28:49	23.7	64
78929	2024-08-05T22:38:49	23.6	65.5
78930	2024-08-05T22:48:48	23.5	66.5
78931	2024-08-05T22:58:48	23.1	66.5
78932	2024-08-05T23:31:10	22.9	66.5
78933	2024-08-05T23:31:10	22.5	67.5
78934	2024-08-05T23:31:10	22.8	68
78935	2024-08-05T23:38:48	22.4	68.5
78936	2024-08-05T23:48:48	22.3	68.5
78937	2024-08-05T23:58:48	22	69.5
78938	2024-08-06T00:08:48	22	69.5
78939	2024-08-06T00:18:48	21.8	69.5
78940	2024-08-06T00:28:48	21.6	70
78941	2024-08-06T00:38:48	21.5	71
78942	2024-08-06T00:48:48	21.3	70.5
78943	2024-08-06T00:58:48	21.3	72
78944	2024-08-06T01:08:48	21.1	72.5
78945	2024-08-06T01:18:48	20.9	73
78946	2024-08-06T01:28:48	20.8	73
78947	2024-08-06T01:38:48	20.6	73.5
78948	2024-08-06T01:48:48	20.5	74
78949	2024-08-06T01:58:48	20.4	74.5
78950	2024-08-06T02:08:48	20.2	74.5
78951	2024-08-06T02:18:48	20	74.5
78952	2024-08-06T02:28:48	19.9	75
78953	2024-08-06T02:38:48	19.8	75.5
78954	2024-08-06T02:48:48	19.7	76
78955	2024-08-06T02:58:48	19.4	76
78956	2024-08-06T03:08:48	19.3	76.5
78957	2024-08-06T03:18:48	19.3	77
78958	2024-08-06T03:28:48	19.2	77
78959	2024-08-06T03:48:48	18.9	77.5
78960	2024-08-06T03:58:48	18.8	78
78961	2024-08-06T04:08:48	18.7	78
78962	2024-08-06T04:18:48	18.6	78.5
78963	2024-08-06T04:28:48	18.5	78.5
78964	2024-08-06T04:38:48	18.5	79
78965	2024-08-06T04:48:48	18.4	79
78966	2024-08-06T04:58:48	18.5	79.5
78967	2024-08-06T05:08:48	18.5	80
78968	2024-08-06T05:18:48	18.4	80
78969	2024-08-06T05:28:48	18.5	79.5
78970	2024-08-06T05:38:48	18.5	81.5
78971	2024-08-06T05:48:48	18.2	81.5
78972	2024-08-06T05:58:48	18.5	82
78973	2024-08-06T06:08:48	18.5	82.5
78974	2024-08-06T06:18:48	18.5	82.5
78975	2024-08-06T06:28:48	18.7	82
78976	2024-08-06T06:38:48	18.7	82
78977	2024-08-06T06:48:48	18.7	81
78978	2024-08-06T06:58:48	18.9	82
78979	2024-08-06T07:08:48	19.1	81.5
78980	2024-08-06T07:18:48	19.3	81.5
78981	2024-08-06T07:28:48	19.4	82
78982	2024-08-06T07:38:48	19.5	81.5
78983	2024-08-06T07:48:48	19.7	81
78984	2024-08-06T07:58:48	20.1	80.5
78985	2024-08-06T08:08:48	20.1	82
78986	2024-08-06T08:18:48	20.3	81
78987	2024-08-06T08:28:48	20.6	80.5
78988	2024-08-06T08:38:48	20.8	79.5
78989	2024-08-06T08:48:48	21	78.5
78990	2024-08-06T08:58:48	21.3	78.5
78991	2024-08-06T09:08:48	21.5	78.5
78992	2024-08-06T09:18:48	21.7	79
78993	2024-08-06T09:28:48	22	74
78994	2024-08-06T09:38:48	22.2	76
78995	2024-08-06T09:48:47	22.5	72.5
78996	2024-08-06T09:58:47	22.7	72
78997	2024-08-06T10:08:47	22.9	72.5
78998	2024-08-06T10:18:47	23.1	74
78999	2024-08-06T10:28:47	23.2	72
79000	2024-08-06T10:38:47	23.6	69
79001	2024-08-06T10:48:47	23.8	71
79002	2024-08-06T10:58:47	24.2	68
79003	2024-08-06T11:08:47	24.6	69.5
79004	2024-08-06T11:18:47	24.9	68.5
79005	2024-08-06T11:28:47	25.2	66
79006	2024-08-06T11:38:47	25.5	65.5
79007	2024-08-06T11:48:47	25.8	65.5
79008	2024-08-06T11:58:47	26.2	65.5
79009	2024-08-06T12:08:47	26.6	61.5
79010	2024-08-06T12:18:47	27.1	63
79011	2024-08-06T12:28:47	30.1	53
79012	2024-08-06T12:38:47	32.1	47.5
79013	2024-08-06T12:48:47	33.2	46.5
79014	2024-08-06T12:58:47	34.2	41
79015	2024-08-06T13:08:47	34.9	40.5
79016	2024-08-06T13:18:47	35.8	39.5
79017	2024-08-06T13:28:47	36	38
79018	2024-08-06T13:38:47	36.8	37.5
79019	2024-08-06T13:48:47	35.8	38.5
79020	2024-08-06T13:58:47	36.6	39.5
79021	2024-08-06T14:08:47	37	37
79022	2024-08-06T14:18:47	37.3	36.5
79023	2024-08-06T14:28:47	37.9	35.5
79024	2024-08-06T14:38:47	38.1	36.5
79025	2024-08-06T14:48:47	38.3	36.5
79026	2024-08-06T14:58:47	38.7	33
79027	2024-08-06T15:08:47	38.7	36
79028	2024-08-06T15:18:47	38.2	36.5
79029	2024-08-06T15:28:47	38.3	35
79030	2024-08-06T15:38:47	38.9	35.5
79031	2024-08-06T15:48:47	39.6	33.5
79032	2024-08-06T15:58:47	38.1	35.5
79033	2024-08-06T16:08:47	37.5	36.5
79034	2024-08-06T16:18:47	37.4	37
79035	2024-08-06T16:28:47	37.1	34
79036	2024-08-06T16:38:47	38.2	35
79037	2024-08-06T16:48:47	38.7	34.5
79038	2024-08-06T16:58:47	37.9	34
79039	2024-08-06T17:08:47	36.8	35
79040	2024-08-06T17:18:47	38.1	37
79041	2024-08-06T17:28:47	38.1	36
79042	2024-08-06T17:38:47	37.5	34.5
79043	2024-08-06T17:48:47	36.9	37.5
79044	2024-08-06T17:58:47	35.3	42
79045	2024-08-06T18:08:47	34.6	46.5
79046	2024-08-06T18:18:47	34	49
79047	2024-08-06T18:28:47	33.2	50.5
79048	2024-08-06T18:38:47	32.4	49.5
79049	2024-08-06T18:48:47	31.7	53
79050	2024-08-06T18:58:47	31.2	52.5
79051	2024-08-06T19:08:47	30.5	54
79052	2024-08-06T19:18:47	30.1	55
79053	2024-08-06T19:28:47	29.7	57.5
79054	2024-08-06T19:38:47	29.5	58
79055	2024-08-06T19:48:47	29.1	59.5
79056	2024-08-06T19:58:47	28.9	60
79057	2024-08-06T20:08:47	28.6	60.5
79058	2024-08-06T20:18:47	28.3	61
79059	2024-08-06T20:28:47	28	62.5
79060	2024-08-06T20:38:46	27.7	63
79061	2024-08-06T20:48:46	27.4	64
79062	2024-08-06T20:58:46	27.2	64.5
79063	2024-08-06T21:08:46	27	65.5
79064	2024-08-06T21:18:46	26.7	66
79065	2024-08-06T21:28:46	26.5	66
79066	2024-08-06T21:38:46	26.1	66.5
79067	2024-08-06T21:48:46	25.9	67.5
79068	2024-08-06T21:58:46	25.7	68
79069	2024-08-06T22:08:46	25.6	68
79070	2024-08-06T22:18:46	25.3	68.5
79071	2024-08-06T22:28:46	25.1	69
79072	2024-08-06T22:38:46	24.9	69.5
79073	2024-08-06T22:48:46	24.8	70
79074	2024-08-06T23:30:50	24.3	71
79075	2024-08-06T23:30:50	24.2	71.5
79076	2024-08-06T23:30:50	24	71.5
79077	2024-08-06T23:38:46	23.8	72
79078	2024-08-06T23:48:46	23.8	72.5
79079	2024-08-06T23:58:46	23.6	72.5
79080	2024-08-07T00:08:46	23.4	73
79081	2024-08-07T00:18:46	23.2	73.5
79082	2024-08-07T00:28:46	23.1	73.5
79083	2024-08-07T00:38:46	22.9	74
79084	2024-08-07T00:48:46	22.8	74.5
79085	2024-08-07T00:58:46	22.5	74.5
79086	2024-08-07T01:08:46	22.4	75
79087	2024-08-07T01:18:46	22.3	75
79088	2024-08-07T01:28:46	22.1	75
79089	2024-08-07T01:38:46	22	75.5
79090	2024-08-07T01:48:46	21.9	76
79091	2024-08-07T01:58:46	21.8	76
79092	2024-08-07T02:08:46	21.7	76.5
79093	2024-08-07T02:18:46	21.5	77
79094	2024-08-07T02:28:46	21.2	77
79095	2024-08-07T02:38:46	21.2	77
79096	2024-08-07T02:48:46	21.2	77.5
79097	2024-08-07T02:58:46	21.1	78
79098	2024-08-07T03:08:46	21	78
79099	2024-08-07T03:18:46	21	78.5
79100	2024-08-07T03:28:46	20.9	78.5
79101	2024-08-07T03:38:46	20.7	79
79102	2024-08-07T03:48:46	20.7	79
79103	2024-08-07T03:58:46	20.6	79
79104	2024-08-07T04:08:46	20.4	79
79105	2024-08-07T04:18:46	20.4	79.5
79106	2024-08-07T04:28:46	20.3	80
79107	2024-08-07T04:38:46	20.3	80
79108	2024-08-07T04:48:46	20.2	80.5
79109	2024-08-07T04:58:46	20.3	80.5
79110	2024-08-07T05:08:46	20.3	81
79111	2024-08-07T05:18:46	20.4	81
79112	2024-08-07T05:28:46	20.5	81
79113	2024-08-07T05:38:46	20.7	81
79114	2024-08-07T05:48:46	20.8	83
79115	2024-08-07T05:58:46	21.1	82
79116	2024-08-07T06:08:46	21.2	81.5
79117	2024-08-07T06:18:46	21.4	80.5
79118	2024-08-07T06:28:46	21.6	80.5
79119	2024-08-07T06:38:46	21.8	81.5
79120	2024-08-07T06:48:46	21.9	82
79121	2024-08-07T06:58:46	22.1	81.5
79122	2024-08-07T07:08:46	22.3	81
79123	2024-08-07T07:18:45	22.5	79.5
79124	2024-08-07T07:28:45	22.9	79
79125	2024-08-07T07:38:45	23	78
79126	2024-08-07T07:48:45	23.2	77.5
79127	2024-08-07T07:58:45	23.4	76.5
79128	2024-08-07T08:08:45	23.5	76
79129	2024-08-07T08:18:45	23.6	77
79130	2024-08-07T08:28:45	23.7	75.5
79131	2024-08-07T08:38:45	23.8	76
79132	2024-08-07T08:48:45	23.8	76.5
79133	2024-08-07T08:58:45	23.9	77
79134	2024-08-07T09:08:45	24	76.5
79135	2024-08-07T09:18:45	24.2	76.5
79136	2024-08-07T09:28:45	24.2	77.5
79137	2024-08-07T09:38:45	24.4	75
79138	2024-08-07T09:48:45	24.5	75
79139	2024-08-07T09:58:45	24.3	75
79140	2024-08-07T10:08:45	24.3	75
79141	2024-08-07T10:18:45	24.6	71.5
79142	2024-08-07T10:28:45	25.2	66.5
79143	2024-08-07T10:38:45	25.6	66.5
79144	2024-08-07T10:48:45	25.8	65.5
79145	2024-08-07T10:58:45	26.1	63
79146	2024-08-07T11:08:45	26.3	62
79147	2024-08-07T11:18:45	26.3	61
79148	2024-08-07T11:28:45	26.5	60.5
79149	2024-08-07T11:38:45	26.7	60
79150	2024-08-07T11:48:45	26.5	61.5
79151	2024-08-07T11:58:45	26.6	63
79152	2024-08-07T12:08:45	26.9	62
79153	2024-08-07T12:18:45	27.5	61
79154	2024-08-07T12:28:45	29.4	54.5
79155	2024-08-07T12:38:45	30.5	51.5
79156	2024-08-07T12:48:45	31.2	49.5
79157	2024-08-07T12:58:45	31.3	50.5
79158	2024-08-07T13:08:45	30.2	52
79159	2024-08-07T13:18:45	29.1	55.5
79160	2024-08-07T13:28:45	28.6	57.5
79161	2024-08-07T13:38:45	28.6	57.5
79162	2024-08-07T13:48:45	28.4	57.5
79163	2024-08-07T13:58:45	29.2	54
79164	2024-08-07T14:08:45	30.6	51
79165	2024-08-07T14:18:45	31.9	47.5
79166	2024-08-07T14:28:45	30.7	50.5
79167	2024-08-07T14:38:45	30.1	52.5
79168	2024-08-07T14:48:45	29.2	54.5
79169	2024-08-07T14:58:45	29.2	56
79170	2024-08-07T15:08:45	31.3	52
79171	2024-08-07T15:18:45	31.9	50
79172	2024-08-07T15:28:45	32.5	48.5
79173	2024-08-07T15:38:45	32.9	48
79174	2024-08-07T15:48:45	33	48
79175	2024-08-07T15:58:45	33.5	47
79176	2024-08-07T16:08:45	33.5	47
79177	2024-08-07T16:18:45	32.6	48.5
79178	2024-08-07T16:28:45	32.4	49.5
79179	2024-08-07T16:38:45	32.6	50
79180	2024-08-07T16:48:45	32.6	49.5
79181	2024-08-07T16:58:45	32	50.5
79182	2024-08-07T17:08:45	30.8	54.5
79183	2024-08-07T17:18:45	30.5	55
79184	2024-08-07T17:28:45	30	56
79185	2024-08-07T17:38:45	29.7	57.5
79186	2024-08-07T17:48:45	29.4	59
79187	2024-08-07T17:58:44	28.7	62
79188	2024-08-07T18:08:44	28.2	63.5
79189	2024-08-07T18:18:44	27.9	64.5
79190	2024-08-07T18:28:44	27.5	66
79191	2024-08-07T18:38:44	27.2	67
79192	2024-08-07T18:48:44	27.1	67.5
79193	2024-08-07T18:58:44	26.9	68.5
79194	2024-08-07T19:08:44	26.9	69.5
79195	2024-08-07T19:18:44	26.7	70.5
79196	2024-08-07T19:28:44	26.5	71
79197	2024-08-07T19:38:44	26.4	72
79198	2024-08-07T19:48:44	26.2	72
79199	2024-08-07T19:58:44	25.9	72.5
79200	2024-08-07T20:08:44	25.6	72.5
79201	2024-08-07T20:18:44	25.7	72.5
79202	2024-08-07T20:28:44	25.4	72.5
79203	2024-08-07T20:38:44	25.3	72.5
79204	2024-08-07T20:48:44	25.3	73
79205	2024-08-07T20:58:44	25.4	73.5
79206	2024-08-07T21:08:44	25.1	73.5
79207	2024-08-07T21:18:44	25.1	72
79208	2024-08-07T21:28:44	24.9	71.5
79209	2024-08-07T21:38:44	24.8	69.5
79210	2024-08-07T21:48:44	24.8	70.5
79211	2024-08-07T21:58:44	24.7	70.5
79212	2024-08-07T22:08:44	24.5	70
79213	2024-08-07T22:18:44	24.4	70
79214	2024-08-07T22:28:44	24.2	70
79215	2024-08-07T22:38:44	24.3	69.5
79216	2024-08-07T22:48:44	24.2	70
79217	2024-08-07T22:58:44	24	69.5
79218	2024-08-07T23:30:07	23.8	70
79219	2024-08-07T23:30:07	23.7	70
79220	2024-08-07T23:30:07	23.7	70
79221	2024-08-07T23:38:44	23.7	68.5
79222	2024-08-07T23:48:44	23.6	68.5
79223	2024-08-07T23:58:44	23.5	68.5
79224	2024-08-08T00:08:44	23.4	68
79225	2024-08-08T00:18:44	23.3	67.5
79226	2024-08-08T00:28:44	23.3	68.5
79227	2024-08-08T00:38:44	23.2	68.5
79228	2024-08-08T00:48:44	23.1	69
79229	2024-08-08T00:58:44	23.1	69.5
79230	2024-08-08T01:08:44	23	70
79231	2024-08-08T01:18:44	23	71
79232	2024-08-08T01:28:44	23	69
79233	2024-08-08T01:38:44	22.9	70.5
79234	2024-08-08T01:48:44	22.9	70.5
79235	2024-08-08T01:58:44	22.8	70
79236	2024-08-08T02:08:44	22.8	72.5
79237	2024-08-08T02:18:44	22.6	71.5
79238	2024-08-08T02:28:44	22.5	72
79239	2024-08-08T02:38:44	22.5	72.5
79240	2024-08-08T02:48:44	22.6	72.5
79241	2024-08-08T02:58:44	22.5	73.5
79242	2024-08-08T03:08:44	22.2	71.5
79243	2024-08-08T03:18:44	22.2	72.5
79244	2024-08-08T03:28:44	22.1	75
79245	2024-08-08T03:38:43	22	74.5
79246	2024-08-08T03:48:43	22	74.5
79247	2024-08-08T03:58:43	21.8	73
79248	2024-08-08T04:08:43	21.7	73.5
79249	2024-08-08T04:18:43	21.7	73
79250	2024-08-08T04:28:43	21.5	71.5
79251	2024-08-08T04:38:43	21.4	73
79252	2024-08-08T04:48:43	21.5	74.5
79253	2024-08-08T04:58:43	21.5	74.5
79254	2024-08-08T05:08:43	21.5	75
79255	2024-08-08T05:18:43	21.5	75
79256	2024-08-08T05:28:43	21.4	76
79257	2024-08-08T05:38:43	21.4	75
79258	2024-08-08T05:48:43	21.5	76.5
79259	2024-08-08T05:58:43	21.2	76.5
79260	2024-08-08T06:08:43	21.4	76
79261	2024-08-08T06:18:43	21.4	76
79262	2024-08-08T06:28:43	21.4	75
79263	2024-08-08T06:38:43	21.5	75.5
79264	2024-08-08T06:48:43	21.6	74
79265	2024-08-08T06:58:43	21.5	72.5
79266	2024-08-08T07:08:43	21.4	70.5
79267	2024-08-08T07:18:43	21.5	71.5
79268	2024-08-08T07:28:43	21.5	72.5
79269	2024-08-08T07:38:43	21.4	72
79270	2024-08-08T07:48:43	21.5	72
79271	2024-08-08T07:58:43	21.7	70
79272	2024-08-08T08:08:43	21.9	70
79273	2024-08-08T08:18:43	22	68
79274	2024-08-08T08:28:43	22.1	68
79275	2024-08-08T08:38:43	22.5	66
79276	2024-08-08T08:48:43	22.8	65
79277	2024-08-08T08:58:43	22.9	65
79278	2024-08-08T09:08:43	23.1	64.5
79279	2024-08-08T09:18:43	23.2	61
79280	2024-08-08T09:28:43	23.8	60
79281	2024-08-08T09:38:43	23.6	59
79282	2024-08-08T09:48:43	24.1	57
79283	2024-08-08T09:58:43	24.3	54
79284	2024-08-08T10:08:43	24.3	55.5
79285	2024-08-08T10:18:43	24.2	55
79286	2024-08-08T10:28:43	24.4	57.5
79287	2024-08-08T10:38:43	25	54.5
79288	2024-08-08T10:48:43	25.6	52
79289	2024-08-08T10:58:43	25.7	53
79290	2024-08-08T11:08:43	25.5	51
79291	2024-08-08T11:18:43	25.6	52
79292	2024-08-08T11:28:43	26.1	51.5
79293	2024-08-08T11:38:43	26.8	46.5
79294	2024-08-08T11:48:43	26.9	47.5
79295	2024-08-08T11:58:43	27.2	45
79296	2024-08-08T12:08:43	26.8	49
79297	2024-08-08T12:18:43	26.7	48.5
79298	2024-08-08T12:28:43	28.7	42.5
79299	2024-08-08T12:38:43	28.8	43
79300	2024-08-08T12:48:43	31.1	40
79301	2024-08-08T12:58:43	30.3	39.5
79302	2024-08-08T13:08:43	29.5	43
79303	2024-08-08T13:18:43	29.7	45.5
79304	2024-08-08T13:28:43	29.8	44.5
79305	2024-08-08T13:38:43	32.2	41
79306	2024-08-08T13:48:42	33.8	35
79307	2024-08-08T13:58:42	33.1	36
79308	2024-08-08T14:08:42	33	35
79309	2024-08-08T14:18:42	34.6	31.5
79310	2024-08-08T14:28:42	34.4	33
79311	2024-08-08T14:38:42	33.1	34.5
79312	2024-08-08T14:48:42	33.1	35
79313	2024-08-08T14:58:42	34	34
79314	2024-08-08T15:08:42	34.1	32.5
79315	2024-08-08T15:18:43	33.6	36
79316	2024-08-08T15:28:42	34.8	32.5
79317	2024-08-08T15:38:42	35.7	31.5
79318	2024-08-08T15:48:42	36.3	32
79319	2024-08-08T15:58:42	33.8	31.5
79320	2024-08-08T16:08:42	34.6	31.5
79321	2024-08-08T16:18:42	35.2	31
79322	2024-08-08T16:28:42	35.8	30.5
79323	2024-08-08T16:38:42	35.3	30
79324	2024-08-08T16:48:42	34.7	31
79325	2024-08-08T16:58:42	33.5	32
79326	2024-08-08T17:08:42	33.7	32
79327	2024-08-08T17:18:42	33.2	34
79328	2024-08-08T17:28:42	33.3	32.5
79329	2024-08-08T17:38:42	32.7	36
79330	2024-08-08T17:48:42	31.2	37
79331	2024-08-08T17:58:42	29.8	38
79332	2024-08-08T18:08:42	29.4	39.5
79333	2024-08-08T18:18:42	28.8	42
79334	2024-08-08T18:28:42	28.8	45
79335	2024-08-08T18:38:42	28.9	49
79336	2024-08-08T18:48:42	28.5	49
79337	2024-08-08T18:58:42	28	51
79338	2024-08-08T19:08:42	27.6	52.5
79339	2024-08-08T19:18:42	27.3	54
79340	2024-08-08T19:28:42	26.9	53
79341	2024-08-08T19:38:42	26.5	55.5
79342	2024-08-08T19:48:42	26.2	57.5
79343	2024-08-08T19:58:42	25.9	58.5
79344	2024-08-08T20:08:42	25.6	59
79345	2024-08-08T20:18:42	25.4	59
79346	2024-08-08T20:28:42	25	58.5
79347	2024-08-08T20:38:42	24.7	60
79348	2024-08-08T20:48:42	24.5	61
79349	2024-08-08T20:58:42	24.3	61.5
79350	2024-08-08T21:08:42	24.1	62.5
79351	2024-08-08T21:18:42	23.9	63
79352	2024-08-08T21:28:42	23.6	63.5
79353	2024-08-08T21:38:42	23.5	64
79354	2024-08-08T21:48:42	23.2	64.5
79355	2024-08-08T21:58:42	23	64.5
79356	2024-08-08T22:08:59	22.8	64.5
79357	2024-08-08T22:18:42	22.6	66
79358	2024-08-08T22:28:42	22.4	65.5
79359	2024-08-08T22:38:42	22.2	66.5
79360	2024-08-08T22:48:42	22	66.5
79361	2024-08-08T22:58:42	21.9	67
79362	2024-08-08T23:30:48	21.6	67.5
79363	2024-08-08T23:30:48	21.7	67.5
79364	2024-08-08T23:30:48	21.4	68
79365	2024-08-08T23:38:42	21.3	68.5
79366	2024-08-08T23:48:42	21.1	69
79367	2024-08-08T23:58:42	20.9	69.5
79368	2024-08-09T00:08:42	20.8	70
79369	2024-08-09T00:18:41	20.5	70.5
79370	2024-08-09T00:28:41	20.5	70.5
79371	2024-08-09T00:38:41	20.4	70.5
79372	2024-08-09T00:48:41	20.1	70.5
79373	2024-08-09T00:58:41	20.1	71.5
79374	2024-08-09T01:08:41	20	72.5
79375	2024-08-09T01:18:41	19.9	72.5
79376	2024-08-09T01:28:41	19.7	72.5
79377	2024-08-09T01:38:41	19.5	73
79378	2024-08-09T01:48:41	19.4	73
79379	2024-08-09T01:58:41	19.4	74
79380	2024-08-09T02:08:41	19.3	74
79381	2024-08-09T02:18:41	19.2	75
79382	2024-08-09T02:28:41	19	75
79383	2024-08-09T02:38:41	18.9	75.5
79384	2024-08-09T02:48:41	18.8	75.5
79385	2024-08-09T02:58:41	18.8	75.5
79386	2024-08-09T03:08:41	18.6	76
79387	2024-08-09T03:18:41	18.6	76
79388	2024-08-09T03:28:41	18.5	76.5
79389	2024-08-09T03:38:41	18.4	76.5
79390	2024-08-09T03:48:41	18.2	77
79391	2024-08-09T03:58:41	18.1	76.5
79392	2024-08-09T04:08:41	18	77
79393	2024-08-09T04:18:41	18.1	77.5
79394	2024-08-09T04:28:41	17.9	77.5
79395	2024-08-09T04:38:41	18	77.5
79396	2024-08-09T04:48:41	18	78
79397	2024-08-09T04:58:41	17.9	78
79398	2024-08-09T05:08:41	17.9	78
79399	2024-08-09T05:18:41	18	78.5
79400	2024-08-09T05:28:41	18.1	78.5
79401	2024-08-09T05:38:41	18.1	79
79402	2024-08-09T05:48:41	18.1	78.5
79403	2024-08-09T05:58:41	18.3	79
79404	2024-08-09T06:08:41	18.4	79
79405	2024-08-09T06:18:41	18.5	79.5
79406	2024-08-09T06:28:41	18.6	77.5
79407	2024-08-09T06:38:41	18.8	77.5
79408	2024-08-09T06:48:41	18.9	78.5
79409	2024-08-09T06:58:41	19.1	78.5
79410	2024-08-09T07:08:41	19.3	78
79411	2024-08-09T07:18:41	19.6	75
79412	2024-08-09T07:28:41	19.9	73.5
79413	2024-08-09T07:38:41	20.1	73
79414	2024-08-09T07:48:41	20.5	72
79415	2024-08-09T07:58:41	20.8	71.5
79416	2024-08-09T08:08:41	21	72
79417	2024-08-09T08:18:41	21.2	72
79418	2024-08-09T08:28:41	21.5	71.5
79419	2024-08-09T08:38:41	21.7	72
79420	2024-08-09T08:48:41	22.1	70.5
79421	2024-08-09T08:58:41	22.8	66.5
79422	2024-08-09T09:08:41	23	66
79423	2024-08-09T09:18:41	23.2	65
79424	2024-08-09T09:28:41	23.3	64.5
79425	2024-08-09T09:38:41	23.7	64.5
79426	2024-08-09T09:48:41	24	61.5
79427	2024-08-09T09:58:41	24.2	61
79428	2024-08-09T10:08:41	24.2	62
79429	2024-08-09T10:18:41	24.4	58.5
79430	2024-08-09T10:28:41	24.7	57.5
79431	2024-08-09T10:38:41	25	57
79432	2024-08-09T10:48:41	25.2	55.5
79433	2024-08-09T10:58:41	25.4	56
79434	2024-08-09T11:08:56	25.6	53.5
79435	2024-08-09T11:18:40	25.9	55
79436	2024-08-09T11:28:40	26.1	55
79437	2024-08-09T11:38:40	26.4	54
79438	2024-08-09T11:48:41	26.6	52.5
79439	2024-08-09T11:58:40	26.8	53.5
79440	2024-08-09T12:08:40	27.1	52.5
79441	2024-08-09T12:18:40	27.7	51.5
79442	2024-08-09T12:28:40	29.8	49
79443	2024-08-09T12:38:40	31.1	44.5
79444	2024-08-09T12:48:40	32.1	42
79445	2024-08-09T12:58:40	31.9	44.5
79446	2024-08-09T13:08:40	32.3	42.5
79447	2024-08-09T13:18:40	33.2	41
79448	2024-08-09T13:28:40	33.5	40
79449	2024-08-09T13:38:40	33.2	41.5
79450	2024-08-09T13:48:40	34.2	40
79451	2024-08-09T13:58:40	33.8	40.5
79452	2024-08-09T14:08:40	35.2	39.5
79453	2024-08-09T14:18:40	35.7	37.5
79454	2024-08-09T14:28:40	35.3	37.5
79455	2024-08-09T14:38:40	35.7	37
79456	2024-08-09T14:48:40	35.4	38
79457	2024-08-09T14:58:40	34.8	39
79458	2024-08-09T15:08:40	34.8	39
79459	2024-08-09T15:18:40	34.3	41.5
79460	2024-08-09T15:28:40	33	43
79461	2024-08-09T15:38:40	32.4	46.5
79462	2024-08-09T15:48:40	33.2	43
79463	2024-08-09T15:58:40	34.3	42
79464	2024-08-09T16:08:40	34.2	41
79465	2024-08-09T16:18:40	34.7	41.5
79466	2024-08-09T16:28:40	34.8	40
79467	2024-08-09T16:38:40	33.6	42
79468	2024-08-09T16:48:40	32.8	43.5
79469	2024-08-09T16:58:40	33.3	42.5
79470	2024-08-09T17:08:40	33.7	42
79471	2024-08-09T17:18:40	32.5	44
79472	2024-08-09T17:28:40	33.5	42
79473	2024-08-09T17:38:40	32.8	44
79474	2024-08-09T17:48:40	31.9	45
79475	2024-08-09T17:58:40	31	47.5
79476	2024-08-09T18:08:40	30.4	49
79477	2024-08-09T18:18:40	30	49.5
79478	2024-08-09T18:28:40	29.8	51
79479	2024-08-09T18:38:40	29.4	52
79480	2024-08-09T18:48:40	29.2	54
79481	2024-08-09T18:58:40	28.9	56
79482	2024-08-09T19:08:40	28.7	57.5
79483	2024-08-09T19:18:40	28.4	59
79484	2024-08-09T19:28:40	27.9	60
79485	2024-08-09T19:38:40	27.7	61
79486	2024-08-09T19:48:40	27.5	61.5
79487	2024-08-09T19:58:40	27.2	62.5
79488	2024-08-09T20:08:40	26.6	63.5
79489	2024-08-09T20:18:40	26.5	64.5
79490	2024-08-09T20:28:40	26.4	64.5
79491	2024-08-09T20:38:40	26.2	65
79492	2024-08-09T20:48:40	26.1	66
79493	2024-08-09T20:58:40	25.9	66
79494	2024-08-09T21:08:40	25.6	66
79495	2024-08-09T21:18:40	25.1	66
79496	2024-08-09T21:28:40	24.8	66.5
79497	2024-08-09T21:38:39	24.7	67
79498	2024-08-09T21:48:39	24.5	67
79499	2024-08-09T21:58:39	24.5	68
79500	2024-08-09T22:08:39	24.3	69
79501	2024-08-09T22:18:39	24.3	69
79502	2024-08-09T22:28:39	24.1	69.5
79503	2024-08-09T22:38:39	23.9	70.5
79504	2024-08-09T22:48:39	23.9	71
79505	2024-08-09T22:58:39	23.8	71.5
79506	2024-08-09T23:30:07	23.4	71.5
79507	2024-08-09T23:30:07	23.5	72
79508	2024-08-09T23:30:07	23.3	72.5
79509	2024-08-09T23:38:39	23.1	73
79510	2024-08-09T23:49:00	23.1	73.5
79511	2024-08-09T23:58:39	22.9	74
79512	2024-08-10T00:08:39	22.8	74
79513	2024-08-10T00:18:39	22.6	74
79514	2024-08-10T00:28:39	22.6	74.5
79515	2024-08-10T00:38:39	22.4	75
79516	2024-08-10T00:49:00	22.4	75
79517	2024-08-10T00:58:39	22.3	75.5
79518	2024-08-10T01:08:39	22.1	75.5
79519	2024-08-10T01:18:39	22.1	76
79520	2024-08-10T01:28:39	21.9	76.5
79521	2024-08-10T01:38:39	21.9	76.5
79522	2024-08-10T01:48:39	21.8	77
79523	2024-08-10T01:58:39	21.7	77
79524	2024-08-10T02:08:39	21.6	77.5
79525	2024-08-10T02:18:39	21.5	77.5
79526	2024-08-10T02:28:39	21.4	78
79527	2024-08-10T02:38:39	21.3	78.5
79528	2024-08-10T02:48:39	21.2	78.5
79529	2024-08-10T02:58:39	21	78.5
79530	2024-08-10T03:08:39	21	79
79531	2024-08-10T03:18:39	20.9	79
79532	2024-08-10T03:28:39	20.8	79.5
79533	2024-08-10T03:38:39	20.8	79.5
79534	2024-08-10T03:48:39	20.7	80
79535	2024-08-10T03:58:39	20.6	80
79536	2024-08-10T04:08:39	20.4	80
79537	2024-08-10T04:18:39	20.4	80.5
79538	2024-08-10T04:28:39	20.4	80.5
79539	2024-08-10T04:38:39	20.5	80.5
79540	2024-08-10T04:48:39	20.4	81
79541	2024-08-10T04:58:39	20.4	81.5
79542	2024-08-10T05:08:39	20.3	81.5
79543	2024-08-10T05:18:39	20.4	82.5
79544	2024-08-10T05:28:39	20.4	83
79545	2024-08-10T05:38:39	20.4	83
79546	2024-08-10T05:48:39	20.5	84
79547	2024-08-10T05:58:39	20.8	85
79548	2024-08-10T06:08:39	20.9	84.5
79549	2024-08-10T06:18:39	21.2	83
79550	2024-08-10T06:28:39	21.4	82
79551	2024-08-10T06:38:39	22	79
79552	2024-08-10T06:48:39	22.6	77.5
79553	2024-08-10T07:08:39	23	75
79554	2024-08-10T07:18:39	22.8	76
79555	2024-08-10T07:28:39	23	75.5
79556	2024-08-10T07:38:39	23.2	75.5
79557	2024-08-10T07:48:39	23.4	74.5
79558	2024-08-10T07:58:39	23.5	74
79559	2024-08-10T08:08:38	23.8	74
79560	2024-08-10T08:18:38	23.8	74
79561	2024-08-10T08:28:38	23.8	74
79562	2024-08-10T08:38:38	23.6	75
79563	2024-08-10T08:48:38	23.8	74
79564	2024-08-10T08:58:38	23.9	75.5
79565	2024-08-10T09:08:38	24	73.5
79566	2024-08-10T09:18:38	24.2	73.5
79567	2024-08-10T09:28:38	24.5	73.5
79568	2024-08-10T09:38:38	24.7	72
79569	2024-08-10T09:48:38	25	71.5
79570	2024-08-10T09:58:38	25.1	69.5
79571	2024-08-10T10:08:38	25.3	68
79572	2024-08-10T10:18:38	25.5	67.5
79573	2024-08-10T10:28:38	25.8	68
79574	2024-08-10T10:38:38	26.2	66.5
79575	2024-08-10T10:48:38	26.6	64
79576	2024-08-10T10:58:38	26.5	66
79577	2024-08-10T11:08:38	26.4	65
79578	2024-08-10T11:18:38	26.5	65
79579	2024-08-10T11:28:38	27	63
79580	2024-08-10T11:38:38	27.1	61
79581	2024-08-10T11:48:38	27.2	62
79582	2024-08-10T11:58:38	27.5	60
79583	2024-08-10T12:08:38	27.8	59.5
79584	2024-08-10T12:18:38	28.4	57
79585	2024-08-10T12:28:38	28.5	57
79586	2024-08-10T12:38:38	29.6	55
79587	2024-08-10T12:48:38	30.2	50
79588	2024-08-10T12:58:38	30.9	49.5
79589	2024-08-10T13:08:38	33.4	44.5
79590	2024-08-10T13:18:38	34.5	42
79591	2024-08-10T13:28:38	35.3	39.5
79592	2024-08-10T13:38:38	35.8	38.5
79593	2024-08-10T13:48:38	36.2	40
79594	2024-08-10T13:58:38	36.5	37
79595	2024-08-10T14:08:38	38	34.5
79596	2024-08-10T14:18:38	38.3	35.5
79597	2024-08-10T14:28:38	38.3	33.5
79598	2024-08-10T14:38:38	37.4	35
79599	2024-08-10T14:48:38	38.6	35
79600	2024-08-10T14:58:38	39.1	33
79601	2024-08-10T15:08:38	39.1	37
79602	2024-08-10T15:18:38	39.8	32.5
79603	2024-08-10T15:28:38	38.6	33.5
79604	2024-08-10T15:38:38	38.7	33
79605	2024-08-10T15:48:38	39.1	33
79606	2024-08-10T15:58:38	38.8	35
79607	2024-08-10T16:08:38	39.2	32.5
79608	2024-08-10T16:18:38	39.5	34.5
79609	2024-08-10T16:28:38	40.1	34.5
79610	2024-08-10T16:38:38	39.4	33
79611	2024-08-10T16:48:38	39.7	34.5
79612	2024-08-10T16:58:38	39.2	33.5
79613	2024-08-10T17:08:38	39.3	33.5
79614	2024-08-10T17:18:38	37.9	36
79615	2024-08-10T17:28:38	38.7	34.5
79616	2024-08-10T17:38:38	38.5	36
79617	2024-08-10T17:48:38	36.9	39.5
79618	2024-08-10T17:58:38	35.3	41
79619	2024-08-10T18:08:38	34.6	44
79620	2024-08-10T18:18:38	34.1	43.5
79621	2024-08-10T18:28:38	33.5	45.5
79622	2024-08-10T18:38:38	33.2	47.5
79623	2024-08-10T18:48:38	32.3	51
79624	2024-08-10T18:58:37	31.8	52.5
79625	2024-08-10T19:08:37	31.3	54.5
79626	2024-08-10T19:18:37	30.9	54.5
79627	2024-08-10T19:28:37	30.6	55.5
79628	2024-08-10T19:38:37	30.3	55.5
79629	2024-08-10T19:48:37	29.9	57.5
79630	2024-08-10T19:58:37	29.6	57.5
79631	2024-08-10T20:08:37	29.3	58
79632	2024-08-10T20:18:37	29.1	59.5
79633	2024-08-10T20:28:37	28.8	60
79634	2024-08-10T20:38:37	28.4	61
79635	2024-08-10T20:48:37	28.2	60.5
79636	2024-08-10T20:58:37	27.9	61.5
79637	2024-08-10T21:08:37	27.7	62.5
79638	2024-08-10T21:18:37	27.3	63
79639	2024-08-10T21:28:37	27.1	63.5
79640	2024-08-10T21:38:37	26.9	64
79641	2024-08-10T21:48:37	26.7	64.5
79642	2024-08-10T21:58:37	26.4	65
79643	2024-08-10T22:08:37	26.2	65.5
79644	2024-08-10T22:18:37	26	66
79645	2024-08-10T22:28:37	25.8	66.5
79646	2024-08-10T22:38:37	25.7	67
79647	2024-08-10T22:48:37	25.4	67
79648	2024-08-10T22:58:37	25.1	68
79649	2024-08-10T23:30:45	24.8	68
79650	2024-08-10T23:30:45	25	68
79651	2024-08-10T23:30:46	24.7	68.5
79652	2024-08-10T23:38:37	24.4	69
79653	2024-08-10T23:48:37	24.1	69.5
79654	2024-08-10T23:58:37	24	70
79655	2024-08-11T00:08:37	23.7	70
79656	2024-08-11T00:18:37	23.8	70.5
79657	2024-08-11T00:28:37	23.5	70.5
79658	2024-08-11T00:38:37	23.3	71
79659	2024-08-11T00:48:37	23.1	72
79660	2024-08-11T00:58:37	22.9	71.5
79661	2024-08-11T01:08:37	22.7	72
79662	2024-08-11T01:18:37	22.7	71.5
79663	2024-08-11T01:28:37	22.5	72.5
79664	2024-08-11T01:38:37	22.5	72.5
79665	2024-08-11T01:48:37	22.3	73
79666	2024-08-11T01:58:37	22.2	73
79667	2024-08-11T02:08:37	22	73.5
79668	2024-08-11T02:18:37	21.9	73.5
79669	2024-08-11T02:28:37	21.8	74.5
79670	2024-08-11T02:38:37	21.6	74.5
79671	2024-08-11T02:48:37	21.5	75
79672	2024-08-11T02:58:37	21.3	75
79673	2024-08-11T03:08:37	21.2	75.5
79674	2024-08-11T03:18:37	21	75.5
79675	2024-08-11T03:28:37	21	76
79676	2024-08-11T03:38:37	20.9	76
79677	2024-08-11T03:48:37	20.8	76.5
79678	2024-08-11T03:58:37	20.6	76.5
79679	2024-08-11T04:08:37	20.5	77
79680	2024-08-11T04:18:37	20.5	77
79681	2024-08-11T04:28:37	20.3	77
79682	2024-08-11T04:38:37	20.3	77.5
79683	2024-08-11T04:48:37	20.3	77.5
79684	2024-08-11T04:58:37	20.3	78
79685	2024-08-11T05:08:37	20.2	78.5
79686	2024-08-11T05:18:37	20.2	78.5
79687	2024-08-11T05:28:36	20.2	79
79688	2024-08-11T05:38:36	20.3	79
79689	2024-08-11T05:48:36	20.4	80
79690	2024-08-11T05:58:36	20.5	80
79691	2024-08-11T06:08:36	20.7	80
79692	2024-08-11T06:18:36	20.6	80
79693	2024-08-11T06:28:36	20.8	79.5
79694	2024-08-11T06:38:36	21	79.5
79695	2024-08-11T06:48:36	21.2	80
79696	2024-08-11T06:58:56	21.3	80
79697	2024-08-11T07:08:36	21.4	79.5
79698	2024-08-11T07:18:36	21.5	80
79699	2024-08-11T07:28:36	21.7	79.5
79700	2024-08-11T07:38:36	21.9	79
79701	2024-08-11T07:48:36	22.1	78
79702	2024-08-11T07:58:36	22.4	76.5
79703	2024-08-11T08:08:36	22.4	77
79704	2024-08-11T08:18:36	22.6	76.5
79705	2024-08-11T08:28:36	22.9	76
79706	2024-08-11T08:38:36	23	75.5
79707	2024-08-11T08:48:36	23.2	74.5
79708	2024-08-11T08:58:36	23.4	75.5
79709	2024-08-11T09:08:36	23.7	75.5
79710	2024-08-11T09:18:36	23.7	74.5
79711	2024-08-11T09:28:36	24	74
79712	2024-08-11T09:38:36	24.3	72
79713	2024-08-11T09:48:36	24.5	71.5
79714	2024-08-11T09:58:36	24.6	71
79715	2024-08-11T10:08:36	24.9	70.5
79716	2024-08-11T10:18:36	25.2	69
79717	2024-08-11T10:28:36	25.2	68
79718	2024-08-11T10:38:36	25.5	67.5
79719	2024-08-11T10:48:36	25.7	68
79720	2024-08-11T10:58:36	26	67.5
79721	2024-08-11T11:08:36	26.2	67
79722	2024-08-11T11:18:36	26.3	66
79723	2024-08-11T11:28:36	26.7	63
79724	2024-08-11T11:38:36	26.9	64.5
79725	2024-08-11T11:48:36	27.2	64
79726	2024-08-11T11:58:36	27.5	63.5
79727	2024-08-11T12:08:36	28.1	63
79728	2024-08-11T12:18:36	28.8	59
79729	2024-08-11T12:28:36	32.8	51.5
79730	2024-08-11T12:38:36	35.2	43.5
79731	2024-08-11T12:48:36	36.8	40
79732	2024-08-11T12:58:36	37.9	38.5
79733	2024-08-11T13:08:36	38.6	37.5
79734	2024-08-11T13:18:36	39.5	37
79735	2024-08-11T13:28:36	40.3	36.5
79736	2024-08-11T13:38:36	40.8	34
79737	2024-08-11T13:48:36	41.4	32.5
79738	2024-08-11T13:58:36	42.1	32
79739	2024-08-11T14:08:36	42.7	31
79740	2024-08-11T14:18:36	43.2	31.5
79741	2024-08-11T14:28:36	43.8	30
79742	2024-08-11T14:38:36	43.7	29.5
79743	2024-08-11T14:48:36	43.7	30.5
79744	2024-08-11T14:58:36	44	28.5
79745	2024-08-11T15:08:36	44.6	30.5
79746	2024-08-11T15:18:36	44.4	28.5
79747	2024-08-11T15:28:36	44.6	28
79748	2024-08-11T15:38:36	44.9	28
79749	2024-08-11T15:48:36	45.1	30
79750	2024-08-11T15:58:36	44.7	29
79751	2024-08-11T16:08:36	45	27
79752	2024-08-11T16:18:36	44.6	29.5
79753	2024-08-11T16:28:36	44.6	27.5
79754	2024-08-11T16:38:36	43.9	27.5
79755	2024-08-11T16:48:36	44.1	29.5
79756	2024-08-11T16:58:36	43.9	28.5
79757	2024-08-11T17:08:36	43.6	29.5
79758	2024-08-11T17:18:36	42.7	29
79759	2024-08-11T17:28:36	42	31
79760	2024-08-11T17:38:35	41.6	31.5
79761	2024-08-11T17:48:35	39.9	33.5
79762	2024-08-11T17:58:35	38.6	36
79763	2024-08-11T18:08:35	37.8	38.5
79764	2024-08-11T18:18:35	36.8	40
79765	2024-08-11T18:28:35	36.1	41
79766	2024-08-11T18:38:35	35.4	42.5
79767	2024-08-11T18:48:35	34.7	43
79768	2024-08-11T18:58:35	34.1	43.5
79769	2024-08-11T19:08:35	33.5	46
79770	2024-08-11T19:18:35	33.1	47
79771	2024-08-11T19:28:35	32.8	49
79772	2024-08-11T19:38:35	32.2	50
79773	2024-08-11T19:48:35	31.8	51
79774	2024-08-11T19:58:35	31.3	52
79775	2024-08-11T20:08:35	30.8	52.5
79776	2024-08-11T20:18:35	30.2	54
79777	2024-08-11T20:28:35	29.9	54.5
79778	2024-08-11T20:38:35	29.4	55.5
79779	2024-08-11T20:48:35	29.1	55.5
79780	2024-08-11T20:58:35	29	55.5
79781	2024-08-11T21:08:35	28.7	56.5
79782	2024-08-11T21:18:35	28.7	57.5
79783	2024-08-11T21:28:35	28.6	57.5
79784	2024-08-11T21:38:35	28.3	58.5
79785	2024-08-11T21:48:35	28.1	59
79786	2024-08-11T21:58:35	27.8	59.5
79787	2024-08-11T22:08:35	27.3	60
79788	2024-08-11T22:18:35	26.8	60.5
79789	2024-08-11T22:28:35	26.7	61
79790	2024-08-11T22:38:35	26.6	61.5
79791	2024-08-11T22:48:35	26.2	62.5
79792	2024-08-11T22:58:35	26	63
79793	2024-08-11T23:31:31	25.8	63
79794	2024-08-11T23:31:31	25.5	63.5
79795	2024-08-11T23:31:32	25.5	64
79796	2024-08-11T23:38:35	25.3	64
79797	2024-08-11T23:48:35	25.1	65.5
79798	2024-08-11T23:58:35	25	65.5
79799	2024-08-12T00:08:35	24.7	66
79800	2024-08-12T00:18:35	24.7	66.5
79801	2024-08-12T00:28:35	24.5	67
79802	2024-08-12T00:38:35	24.6	67
79803	2024-08-12T00:48:35	24.5	67.5
79804	2024-08-12T00:58:35	24.4	68
79805	2024-08-12T01:08:35	24.3	68.5
79806	2024-08-12T01:18:35	24.2	69
79807	2024-08-12T01:28:35	23.9	69
79808	2024-08-12T01:38:35	23.9	69.5
79809	2024-08-12T01:48:35	23.7	70
79810	2024-08-12T01:58:35	23.5	70
79811	2024-08-12T02:08:35	23.3	70.5
79812	2024-08-12T02:18:35	23.2	71
79813	2024-08-12T02:28:35	23.1	71
79814	2024-08-12T02:38:35	23	72
79815	2024-08-12T02:48:35	22.8	72.5
79816	2024-08-12T02:58:35	22.7	72.5
79817	2024-08-12T03:08:35	22.8	72.5
79818	2024-08-12T03:18:35	22.7	73.5
79819	2024-08-12T03:28:35	22.4	74
79820	2024-08-12T03:38:35	22.3	74.5
79821	2024-08-12T03:48:34	22.3	75
79822	2024-08-12T03:58:34	22.2	75
79823	2024-08-12T04:18:34	22.1	75.5
79824	2024-08-12T04:28:34	22.1	75.5
79825	2024-08-12T04:38:34	22.1	75.5
79826	2024-08-12T04:48:34	21.9	76
79827	2024-08-12T04:58:34	22	76
79828	2024-08-12T05:08:34	22	75.5
79829	2024-08-12T05:18:34	22	75.5
79830	2024-08-12T05:28:34	22	75.5
79831	2024-08-12T05:38:34	22	78
79832	2024-08-12T05:58:34	22	78
79833	2024-08-12T06:08:34	22	78.5
79834	2024-08-12T06:18:34	22	78
79835	2024-08-12T06:28:34	22.2	77.5
79836	2024-08-12T06:38:34	22.3	75.5
79837	2024-08-12T06:48:34	22.6	75
79838	2024-08-12T06:58:34	23	74.5
79839	2024-08-12T07:08:34	23.3	75
79840	2024-08-12T07:18:34	23.4	75.5
79841	2024-08-12T07:28:34	23.7	75
79842	2024-08-12T07:38:34	23.9	75
79843	2024-08-12T07:48:34	24.1	73.5
79844	2024-08-12T07:58:34	24.1	74
79845	2024-08-12T08:08:34	23.9	75.5
79846	2024-08-12T08:18:34	24	76.5
79847	2024-08-12T08:28:34	24	77.5
79848	2024-08-12T08:38:34	23.8	78
79849	2024-08-12T08:48:34	24.1	78.5
79850	2024-08-12T08:58:34	24.3	79
79851	2024-08-12T09:08:34	24.5	78
79852	2024-08-12T09:18:34	24.3	77.5
79853	2024-08-12T09:28:34	24.5	77.5
79854	2024-08-12T09:38:34	24.6	78.5
79855	2024-08-12T09:48:34	24.4	79
79856	2024-08-12T09:58:34	24.5	78.5
79857	2024-08-12T10:08:34	24.9	76
79858	2024-08-12T10:18:34	25.2	76
79859	2024-08-12T10:28:34	25.6	75.5
79860	2024-08-12T10:38:34	25.9	74.5
79861	2024-08-12T10:48:34	26.1	75.5
79862	2024-08-12T10:58:34	26.6	73
79863	2024-08-12T11:08:34	26.8	72
79864	2024-08-12T11:18:34	27	69.5
79865	2024-08-12T11:28:34	27.5	69
79866	2024-08-12T11:38:34	27.8	68
79867	2024-08-12T11:48:34	28.2	67
79868	2024-08-12T11:58:34	28.4	68
79869	2024-08-12T12:08:34	28.8	66
79870	2024-08-12T12:18:34	29.5	64
79871	2024-08-12T12:28:34	33	54.5
79872	2024-08-12T12:38:34	35.4	49
79873	2024-08-12T12:48:34	36.8	47
79874	2024-08-12T12:58:34	37.8	46
79875	2024-08-12T13:08:34	38.6	44
79876	2024-08-12T13:18:34	39.1	44.5
79877	2024-08-12T13:28:34	40	40.5
79878	2024-08-12T13:38:34	40.5	42.5
79879	2024-08-12T13:48:34	41.4	39.5
79880	2024-08-12T13:58:34	42.5	39.5
79881	2024-08-12T14:08:34	43.5	35.5
79882	2024-08-12T14:18:34	44.1	36.5
79883	2024-08-12T14:28:33	44.5	29.5
79884	2024-08-12T14:38:34	44.1	31
79885	2024-08-12T14:48:33	43.8	32.5
79886	2024-08-12T14:58:33	44.4	33.5
79887	2024-08-12T15:08:33	44.1	31
79888	2024-08-12T15:18:33	45.2	33.5
79889	2024-08-12T15:28:33	44.6	32.5
79890	2024-08-12T15:38:33	44.8	31
79891	2024-08-12T15:48:33	45.2	29.5
79892	2024-08-12T15:58:33	44.9	29.5
79893	2024-08-12T16:08:33	45.5	32.5
79894	2024-08-12T16:18:33	45	31.5
79895	2024-08-12T16:28:33	45	29.5
79896	2024-08-12T16:38:33	45	31
79897	2024-08-12T16:48:33	45.1	31
79898	2024-08-12T16:58:33	45	30.5
79899	2024-08-12T17:08:33	44.7	32.5
79900	2024-08-12T17:18:33	43.9	32
79901	2024-08-12T17:28:33	43.8	35.5
79902	2024-08-12T17:38:33	43.5	37.5
79903	2024-08-12T17:48:33	41.7	41
79904	2024-08-12T17:58:33	40.5	43.5
79905	2024-08-12T18:08:33	39.4	44.5
79906	2024-08-12T18:18:33	38.5	45.5
79907	2024-08-12T18:28:33	37.8	47.5
79908	2024-08-12T18:38:33	37	47
79909	2024-08-12T18:48:33	36.3	47
79910	2024-08-12T18:58:33	35.7	50
79911	2024-08-12T19:08:33	35.3	52
79912	2024-08-12T19:18:33	34.8	53
79913	2024-08-12T19:28:33	34.4	53.5
79914	2024-08-12T19:38:33	34	55
79915	2024-08-12T19:48:33	33.6	54.5
79916	2024-08-12T19:58:33	33.1	56
79917	2024-08-12T20:08:33	32.9	56.5
79918	2024-08-12T20:18:33	32.6	57
79919	2024-08-12T20:28:33	32.3	57.5
79920	2024-08-12T20:38:33	31.9	58.5
79921	2024-08-12T20:48:33	31.7	59
79922	2024-08-12T20:58:33	31.4	60
79923	2024-08-12T21:08:33	31.2	61
79924	2024-08-12T21:18:33	30.9	61
79925	2024-08-12T21:28:33	30.6	62
79926	2024-08-12T21:38:33	30.4	62.5
79927	2024-08-12T21:48:33	30.2	63.5
79928	2024-08-12T21:58:33	30.1	63.5
79929	2024-08-12T22:08:33	29.9	64
79930	2024-08-12T22:18:33	29.6	64
79931	2024-08-12T22:28:33	29.4	65
79932	2024-08-12T22:38:33	29.3	65.5
79933	2024-08-12T22:48:33	29	65.5
79934	2024-08-12T22:58:33	28.8	67
79935	2024-08-12T23:29:52	28.6	66.5
79936	2024-08-12T23:29:52	28.1	69
79937	2024-08-12T23:29:52	27.9	69.5
79938	2024-08-12T23:38:33	27.7	69
79939	2024-08-12T23:48:33	27.1	69.5
79940	2024-08-12T23:58:33	26.9	70.5
79941	2024-08-13T00:08:33	26.9	70.5
79942	2024-08-13T00:18:33	26.8	70.5
79943	2024-08-13T00:28:33	26.6	70
79944	2024-08-13T00:38:33	26.4	69.5
79945	2024-08-13T00:48:33	26.4	69.5
79946	2024-08-13T00:58:33	26.3	70
79947	2024-08-13T01:08:33	26.2	71
79948	2024-08-13T01:18:33	26.2	71.5
79949	2024-08-13T01:28:33	26.1	72
79950	2024-08-13T01:38:33	26	72.5
79951	2024-08-13T01:48:33	25.8	73
79952	2024-08-13T01:58:33	25.8	73
79953	2024-08-13T02:08:32	25.7	73.5
79954	2024-08-13T02:18:32	25.4	74
79955	2024-08-13T02:28:32	25.4	73.5
79956	2024-08-13T02:38:32	25.3	73.5
79957	2024-08-13T02:48:32	25.1	73.5
79958	2024-08-13T02:58:32	25	74
79959	2024-08-13T03:08:32	25	74
79960	2024-08-13T03:18:32	24.7	74.5
79961	2024-08-13T03:38:32	24.5	74.5
79962	2024-08-13T03:48:32	24.4	74.5
79963	2024-08-13T03:58:32	24.3	74.5
79964	2024-08-13T04:08:32	24.1	75
79965	2024-08-13T04:18:32	23.9	75
79966	2024-08-13T04:28:32	23.9	75.5
79967	2024-08-13T04:38:32	23.9	75.5
79968	2024-08-13T04:48:32	23.7	76.5
79969	2024-08-13T04:58:32	23.6	77
79970	2024-08-13T05:08:32	23.5	77.5
79971	2024-08-13T05:18:32	23.6	77.5
79972	2024-08-13T05:28:32	23.8	76.5
79973	2024-08-13T05:38:32	23.8	75.5
79974	2024-08-13T05:48:32	23.9	75.5
79975	2024-08-13T05:58:32	23.8	77.5
79976	2024-08-13T06:08:32	23.8	77.5
79977	2024-08-13T06:18:32	24	76
79978	2024-08-13T06:28:32	24	74
79979	2024-08-13T06:38:32	24.2	74.5
79980	2024-08-13T06:48:32	24.3	73
79981	2024-08-13T06:58:32	24.2	72
79982	2024-08-13T07:08:32	24.4	73
79983	2024-08-13T07:18:32	24.5	73
79984	2024-08-13T07:28:32	24.7	72
79985	2024-08-13T07:38:32	24.8	72
79986	2024-08-13T07:48:32	24.9	71
79987	2024-08-13T07:58:32	25.1	69.5
79988	2024-08-13T08:08:32	25.2	70
79989	2024-08-13T08:18:32	25.5	68
79990	2024-08-13T08:28:32	25.7	63.5
79991	2024-08-13T08:38:32	25.8	64
79992	2024-08-13T08:48:32	26	66.5
79993	2024-08-13T08:58:32	26.1	65.5
79994	2024-08-13T09:08:32	26.5	65
79995	2024-08-13T09:18:32	26.8	64
79996	2024-08-13T09:28:32	26.9	66
79997	2024-08-13T09:38:32	27.2	62
79998	2024-08-13T09:48:32	27.4	61
79999	2024-08-13T09:58:32	27.5	62
80000	2024-08-13T10:08:32	27.6	62.5
80001	2024-08-13T10:18:32	28	60
80002	2024-08-13T10:28:32	28.1	59
80003	2024-08-13T10:38:32	28.3	58
80004	2024-08-13T10:48:32	28.6	57.5
80005	2024-08-13T10:58:32	28.9	57
80006	2024-08-13T11:08:32	29.3	56.5
80007	2024-08-13T11:18:32	29.6	56.5
80008	2024-08-13T11:28:32	29.8	55
80009	2024-08-13T11:38:32	30.1	55
80010	2024-08-13T11:48:32	30.3	54
80011	2024-08-13T11:58:32	30.7	55
80012	2024-08-13T12:08:31	31.1	54.5
80013	2024-08-13T12:18:31	31.6	51
80014	2024-08-13T12:28:31	34.4	47
80015	2024-08-13T12:38:31	36	42
80016	2024-08-13T12:48:31	37.8	43.5
80017	2024-08-13T12:58:31	38.6	40
80018	2024-08-13T13:08:31	40.1	36
80019	2024-08-13T13:18:31	40.9	34
80020	2024-08-13T13:28:31	41.7	33.5
80021	2024-08-13T13:38:31	42.2	32
80022	2024-08-13T13:48:31	40.6	34
80023	2024-08-13T13:58:31	40.3	32.5
80024	2024-08-13T14:08:31	40.9	32
80025	2024-08-13T14:18:31	41.4	31
80026	2024-08-13T14:28:31	40.3	32
80027	2024-08-13T14:38:31	38.6	36.5
80028	2024-08-13T14:48:31	38.9	38.5
80029	2024-08-13T14:58:31	39.7	40
80030	2024-08-13T15:08:31	41	38
80031	2024-08-13T15:18:31	39.5	40
80032	2024-08-13T15:28:31	38.9	41.5
80033	2024-08-13T15:38:31	38.3	43.5
80034	2024-08-13T15:48:31	37.7	45.5
80035	2024-08-13T15:58:31	38	46
80036	2024-08-13T16:08:31	37.6	43.5
80037	2024-08-13T16:18:31	37.2	45.5
80038	2024-08-13T16:28:31	36.5	45.5
80039	2024-08-13T16:38:31	35.9	48.5
80040	2024-08-13T16:48:31	35.3	49
80041	2024-08-13T16:58:31	34.5	47
80042	2024-08-13T17:08:31	33.6	49
80043	2024-08-13T17:18:31	32.9	50.5
80044	2024-08-13T17:28:31	31.7	65.5
80045	2024-08-13T17:38:31	29.8	78
80046	2024-08-13T17:48:31	28.5	75
80047	2024-08-13T17:58:31	28.7	85
80048	2024-08-13T18:08:31	28.2	95.5
80049	2024-08-13T18:18:31	28.2	89.5
80050	2024-08-13T18:28:31	28.4	81
80051	2024-08-13T18:38:31	28.1	73
80052	2024-08-13T18:48:31	28.1	74
80053	2024-08-13T18:58:31	27.8	71
80054	2024-08-13T19:08:31	27.7	71.5
80055	2024-08-13T19:18:31	27.6	72.5
80056	2024-08-13T19:28:31	27.5	71.5
80057	2024-08-13T19:38:31	26.7	68.5
80058	2024-08-13T19:48:31	26.6	73
80059	2024-08-13T19:58:31	26.6	74.5
80060	2024-08-13T20:08:31	26.3	74
80061	2024-08-13T20:18:31	26.1	75
80062	2024-08-13T20:28:31	25.7	74.5
80063	2024-08-13T20:38:31	25.6	75
80064	2024-08-13T20:48:31	25.4	75
80065	2024-08-13T20:58:31	25.3	76.5
80066	2024-08-13T21:08:31	25.2	77
80067	2024-08-13T21:18:31	25.1	74.5
80068	2024-08-13T21:28:31	24.9	74
80069	2024-08-13T21:38:31	24.7	74
80070	2024-08-13T21:48:31	24.8	73.5
80071	2024-08-13T21:58:49	24.5	74
80072	2024-08-13T22:08:31	24.3	75.5
80073	2024-08-13T22:18:31	24.2	76
80074	2024-08-13T22:28:31	23.7	76.5
80075	2024-08-13T22:38:31	23.6	76.5
80076	2024-08-13T22:48:31	23.5	77
80077	2024-08-13T22:58:31	23.4	77.5
80078	2024-08-13T23:32:05	23.4	77.5
80079	2024-08-13T23:32:05	23.2	78
80080	2024-08-13T23:32:05	23.1	77
80081	2024-08-13T23:38:30	23	78.5
80082	2024-08-13T23:48:30	23	79
80083	2024-08-13T23:58:30	22.9	79.5
80084	2024-08-14T00:08:30	22.9	79.5
80085	2024-08-14T00:18:30	22.7	80
80086	2024-08-14T00:28:30	22.6	80
80087	2024-08-14T00:38:30	22.6	80
80088	2024-08-14T00:48:30	22.5	80
80089	2024-08-14T00:58:30	22.5	80
80090	2024-08-14T01:08:30	22.3	80
80091	2024-08-14T01:18:30	22.2	80.5
80092	2024-08-14T01:28:30	21.9	81.5
80093	2024-08-14T01:38:30	21.7	82.5
80094	2024-08-14T01:58:30	21.8	82
80095	2024-08-14T02:08:30	21.2	83
80096	2024-08-14T02:18:30	21.2	84
80097	2024-08-14T02:28:30	21.1	84
80098	2024-08-14T02:38:30	20.7	87
80099	2024-08-14T02:48:30	20.5	88.5
80100	2024-08-14T02:58:30	20.6	89.5
80101	2024-08-14T03:08:30	20.5	89.5
80102	2024-08-14T03:18:30	20.7	90
80103	2024-08-14T03:28:30	20.5	90
80104	2024-08-14T03:38:30	20.4	89.5
80105	2024-08-14T03:48:30	20.4	89.5
80106	2024-08-14T03:58:30	20.3	89
80107	2024-08-14T04:08:30	20.4	89.5
80108	2024-08-14T04:18:30	20.5	89
80109	2024-08-14T04:28:30	20.4	87.5
80110	2024-08-14T04:38:30	20.6	86.5
80111	2024-08-14T04:48:30	20.8	85.5
80112	2024-08-14T04:58:30	20.9	85
80113	2024-08-14T05:08:30	21	84.5
80114	2024-08-14T05:18:30	21	83.5
80115	2024-08-14T05:28:30	21.2	83.5
80116	2024-08-14T05:38:30	21.4	82.5
80117	2024-08-14T05:48:30	21.5	82.5
80118	2024-08-14T05:58:30	21.8	82
80119	2024-08-14T06:08:30	22	80
80120	2024-08-14T06:18:30	22.2	80.5
80121	2024-08-14T06:28:30	22.3	79.5
80122	2024-08-14T06:38:30	22.2	79.5
80123	2024-08-14T06:48:30	22.1	83
80124	2024-08-14T06:58:30	21.4	90
80125	2024-08-14T07:08:30	21.2	89.5
80126	2024-08-14T07:18:30	21.4	90
80127	2024-08-14T07:28:30	21.6	87.5
80128	2024-08-14T07:38:30	22	86
80129	2024-08-14T07:48:30	22.4	83.5
80130	2024-08-14T07:58:30	22.6	82
80131	2024-08-14T08:08:30	22.7	81
80132	2024-08-14T08:18:30	22.9	80
80133	2024-08-14T08:28:30	23.2	80
80134	2024-08-14T08:38:30	23.2	77.5
80135	2024-08-14T08:48:30	23.4	75.5
80136	2024-08-14T08:58:30	23.6	74.5
80137	2024-08-14T09:08:30	23.8	73
80138	2024-08-14T09:18:30	23.9	72.5
80139	2024-08-14T09:28:30	24.1	72
80140	2024-08-14T09:48:29	24.5	72.5
80141	2024-08-14T09:58:29	24.5	74
80142	2024-08-14T10:08:29	24.6	72.5
80143	2024-08-14T10:18:29	24.9	74
80144	2024-08-14T10:28:29	24.8	73.5
80145	2024-08-14T10:38:29	24.9	73
80146	2024-08-14T10:48:29	25.3	71.5
80147	2024-08-14T10:58:29	25.5	70.5
80148	2024-08-14T11:08:29	25.7	70
80149	2024-08-14T11:18:29	25.9	68.5
80150	2024-08-14T11:28:29	26.1	66.5
80151	2024-08-14T11:38:29	26.3	64.5
80152	2024-08-14T11:48:29	26.6	64.5
80153	2024-08-14T11:58:29	26.9	64.5
80154	2024-08-14T12:08:29	27.3	61.5
80155	2024-08-14T12:18:29	27.8	61.5
80156	2024-08-14T12:28:29	31.1	53
80157	2024-08-14T12:38:29	33.5	47.5
80158	2024-08-14T12:48:29	34.3	46.5
80159	2024-08-14T12:58:29	34.5	43.5
80160	2024-08-14T13:08:29	35.7	44
80161	2024-08-14T13:18:29	36.2	40
80162	2024-08-14T13:28:29	36.7	38
80163	2024-08-14T13:38:29	37	39.5
80164	2024-08-14T13:48:29	37.2	38
80165	2024-08-14T13:58:29	37	38.5
80166	2024-08-14T14:08:29	36.2	39
80167	2024-08-14T14:18:29	36.5	39
80168	2024-08-14T14:28:29	35.7	41.5
80169	2024-08-14T14:38:29	37.4	38
80170	2024-08-14T14:48:29	36.2	39.5
80171	2024-08-14T14:58:29	34.6	42.5
80172	2024-08-14T15:08:29	33.1	45.5
80173	2024-08-14T15:18:29	32.4	48
80174	2024-08-14T15:28:29	32.3	49
80175	2024-08-14T15:38:29	31.9	49
80176	2024-08-14T15:48:29	30.9	53
80177	2024-08-14T15:58:29	30.2	56
80178	2024-08-14T16:08:29	29.3	57.5
80179	2024-08-14T16:18:29	29.3	57
80180	2024-08-14T16:28:29	28.7	59
80181	2024-08-14T16:38:29	27.9	60
80182	2024-08-14T16:48:29	27	62
80183	2024-08-14T16:58:29	26.4	64.5
80184	2024-08-14T17:08:29	26.1	65.5
80185	2024-08-14T17:18:29	25.8	73.5
80186	2024-08-14T17:28:29	24.2	81.5
80187	2024-08-14T17:38:29	24.3	77
80188	2024-08-14T17:48:29	24.3	75.5
80189	2024-08-14T17:58:29	24.2	73.5
80190	2024-08-14T18:08:29	24	74
80191	2024-08-14T18:18:29	24.1	74
80192	2024-08-14T18:28:29	24.5	75
80193	2024-08-14T18:38:29	24.5	74.5
80194	2024-08-14T18:48:29	24.2	75
80195	2024-08-14T18:58:29	24.1	75.5
80196	2024-08-14T19:08:29	24.1	76
80197	2024-08-14T19:18:29	24	76
80198	2024-08-14T19:28:29	23.7	76
80199	2024-08-14T19:38:29	23.5	76.5
80200	2024-08-14T19:48:29	23.2	77.5
80201	2024-08-14T19:58:28	22.8	78.5
80202	2024-08-14T20:08:29	22.8	79.5
80203	2024-08-14T20:18:29	22.7	79.5
80204	2024-08-14T20:28:28	22.7	80
80205	2024-08-14T20:38:28	22.6	79.5
80206	2024-08-14T20:48:28	22.5	80
80207	2024-08-14T20:58:28	22.4	80
80208	2024-08-14T21:08:28	22.4	80.5
80209	2024-08-14T21:18:28	22.3	81
80210	2024-08-14T21:28:28	22.3	81
80211	2024-08-14T21:38:28	22.1	81
80212	2024-08-14T21:48:28	22.1	81.5
80213	2024-08-14T21:58:28	22	82.5
80214	2024-08-14T22:18:28	21.8	83.5
80215	2024-08-14T22:28:28	21.8	83.5
80216	2024-08-14T22:38:28	21.7	83.5
80217	2024-08-14T22:48:28	21.6	84
80218	2024-08-14T22:58:28	21.5	84.5
80219	2024-08-14T23:31:46	21.5	83.5
80220	2024-08-14T23:31:46	21.4	83.5
80221	2024-08-14T23:31:46	21.4	84
80222	2024-08-14T23:38:28	21.3	83.5
80223	2024-08-14T23:48:28	21.3	84
80224	2024-08-14T23:58:28	21.1	84
80225	2024-08-15T00:08:28	21.1	84.5
80226	2024-08-15T00:18:28	21	84
80227	2024-08-15T00:28:28	20.9	85
80228	2024-08-15T00:38:28	20.8	85
80229	2024-08-15T00:48:28	20.7	84.5
80230	2024-08-15T00:58:28	20.6	86.5
80231	2024-08-15T01:08:28	20.5	86
80232	2024-08-15T01:18:28	20.5	85.5
80233	2024-08-15T01:28:28	20.5	86.5
80234	2024-08-15T01:38:28	20.5	86
80235	2024-08-15T01:48:28	20.4	85.5
80236	2024-08-15T01:58:28	20.3	86
80237	2024-08-15T02:18:28	20	88
80238	2024-08-15T02:28:28	20.1	87.5
80239	2024-08-15T02:38:28	20	88
80240	2024-08-15T02:48:28	19.9	87.5
80241	2024-08-15T02:58:28	19.9	87.5
80242	2024-08-15T03:08:28	19.9	88.5
80243	2024-08-15T03:18:28	19.8	89
80244	2024-08-15T03:28:28	19.6	88
80245	2024-08-15T03:38:28	19.6	89.5
80246	2024-08-15T03:48:28	19.4	90.5
80247	2024-08-15T03:58:28	19.3	91.5
80248	2024-08-15T04:08:28	19.3	91.5
80249	2024-08-15T04:18:28	19.2	91
80250	2024-08-15T04:28:28	19.2	90.5
80251	2024-08-15T04:38:28	19.3	89.5
80252	2024-08-15T04:48:28	19.2	90
80253	2024-08-15T04:58:28	19.2	89.5
80254	2024-08-15T05:08:28	19.1	89.5
80255	2024-08-15T05:18:28	19.3	90
80256	2024-08-15T05:28:28	19.3	90.5
80257	2024-08-15T05:38:28	19.3	89.5
80258	2024-08-15T05:48:28	19.4	90
80259	2024-08-15T05:58:28	19.5	90
80260	2024-08-15T06:08:28	19.5	90
80261	2024-08-15T06:18:28	19.7	90
80262	2024-08-15T06:28:28	19.8	88.5
80263	2024-08-15T06:38:28	19.9	88
80264	2024-08-15T06:48:27	20	87
80265	2024-08-15T06:58:27	20.1	85.5
80266	2024-08-15T07:08:27	20.2	83.5
80267	2024-08-15T07:18:27	20.4	83
80268	2024-08-15T07:28:27	20.6	83.5
80269	2024-08-15T07:38:27	20.7	82
80270	2024-08-15T07:48:45	20.8	82
80271	2024-08-15T07:58:27	21	82
80272	2024-08-15T08:08:27	21.1	81.5
80273	2024-08-15T08:18:27	21.3	81
80274	2024-08-15T08:28:27	21.4	80
80275	2024-08-15T08:38:27	21.6	79
80276	2024-08-15T08:48:27	22	77.5
80277	2024-08-15T08:58:27	22.1	78
80278	2024-08-15T09:08:27	22.3	77
80279	2024-08-15T09:18:27	22.4	76.5
80280	2024-08-15T09:28:27	22.6	76.5
80281	2024-08-15T09:38:27	22.6	75
80282	2024-08-15T09:48:27	22.9	73
80283	2024-08-15T09:58:27	23	71.5
80284	2024-08-15T10:08:27	23.1	72.5
80285	2024-08-15T10:18:27	23.2	70
80286	2024-08-15T10:28:27	23.4	67
80287	2024-08-15T10:38:27	23.6	66.5
80288	2024-08-15T10:48:27	23.6	66.5
80289	2024-08-15T10:58:27	23.8	63.5
80290	2024-08-15T11:08:27	23.9	63.5
80291	2024-08-15T11:18:27	24.2	63
80292	2024-08-15T11:28:27	24.5	61
80293	2024-08-15T11:38:27	24.5	62.5
80294	2024-08-15T11:48:27	24.8	57.5
80295	2024-08-15T11:58:27	25.2	59
80296	2024-08-15T12:08:27	25.7	58
80297	2024-08-15T12:18:27	26.4	54.5
80298	2024-08-15T12:28:27	30.3	44
80299	2024-08-15T12:38:27	32.7	42
80300	2024-08-15T12:48:27	34.9	41
80301	2024-08-15T12:58:27	35.8	38
80302	2024-08-15T13:08:27	37.2	36
80303	2024-08-15T13:18:27	38	34
80304	2024-08-15T13:28:27	38.3	35
80305	2024-08-15T13:38:27	38.2	30.5
80306	2024-08-15T13:48:27	39.5	32.5
80307	2024-08-15T13:58:27	40.4	31
80308	2024-08-15T14:08:27	40.1	28.5
80309	2024-08-15T14:18:27	40.1	31.5
80310	2024-08-15T14:28:27	41	29
80311	2024-08-15T14:38:27	41.5	25.5
80312	2024-08-15T14:48:27	41.8	25
80313	2024-08-15T14:58:27	41.1	29
80314	2024-08-15T15:08:27	41.9	30.5
80315	2024-08-15T15:18:27	43.4	31
80316	2024-08-15T15:28:27	43.6	29.5
80317	2024-08-15T15:38:27	43.7	28
80318	2024-08-15T15:48:27	43.5	27
80319	2024-08-15T15:58:27	43.3	30
80320	2024-08-15T16:08:27	43	26.5
80321	2024-08-15T16:18:27	43.3	30
80322	2024-08-15T16:28:27	43.6	30
80323	2024-08-15T16:38:27	42.7	29.5
80324	2024-08-15T16:48:27	42.3	28.5
80325	2024-08-15T16:58:27	41.9	30.5
80326	2024-08-15T17:08:27	41.2	29.5
80327	2024-08-15T17:18:27	40.9	30
80328	2024-08-15T17:28:27	39.5	32.5
80329	2024-08-15T17:38:27	39.5	33
80330	2024-08-15T17:48:27	37.7	38.5
80331	2024-08-15T17:58:27	36.7	42.5
80332	2024-08-15T18:08:27	35.7	44.5
80333	2024-08-15T18:18:27	34.9	45.5
80334	2024-08-15T18:28:26	34	46.5
80335	2024-08-15T18:38:26	33.5	47
80336	2024-08-15T18:48:26	32.8	47
80337	2024-08-15T18:58:26	32.1	49.5
80338	2024-08-15T19:08:26	31.6	49
80339	2024-08-15T19:18:26	31	50
80340	2024-08-15T19:28:26	30.4	51
80341	2024-08-15T19:38:26	30	53.5
80342	2024-08-15T19:48:26	29.8	54.5
80343	2024-08-15T19:58:26	29.6	56
80344	2024-08-15T20:08:26	29.1	56.5
80345	2024-08-15T20:18:26	28.8	57.5
80346	2024-08-15T20:28:26	28.6	58.5
80347	2024-08-15T20:38:26	28.4	59.5
80348	2024-08-15T20:48:26	28	57
80349	2024-08-15T20:58:26	27.8	58
80350	2024-08-15T21:08:26	27.6	59.5
80351	2024-08-15T21:18:26	27	62
80352	2024-08-15T21:28:26	26.9	63
80353	2024-08-15T21:38:26	26.7	62.5
80354	2024-08-15T21:48:26	26.5	62.5
80355	2024-08-15T21:58:26	26.3	63
80356	2024-08-15T22:08:26	26	64
80357	2024-08-15T22:18:26	25.7	65
80358	2024-08-15T22:28:26	25.6	65
80359	2024-08-15T22:38:26	25.5	65
80360	2024-08-15T22:48:26	25.1	65.5
80361	2024-08-15T22:58:26	25	66.5
80362	2024-08-15T23:31:47	24.8	67.5
80363	2024-08-15T23:31:47	25.1	67
80364	2024-08-15T23:31:47	24.6	67.5
80365	2024-08-15T23:38:26	24.5	68.5
80366	2024-08-15T23:48:26	24.3	69
80367	2024-08-15T23:58:26	24.1	69.5
80368	2024-08-16T00:08:26	24	70
80369	2024-08-16T00:18:26	23.8	70.5
80370	2024-08-16T00:28:26	23.7	70.5
80371	2024-08-16T00:38:26	23.6	71
80372	2024-08-16T00:48:26	23.5	71.5
80373	2024-08-16T00:58:26	23.4	72
80374	2024-08-16T01:08:26	23.2	72.5
80375	2024-08-16T01:18:26	23	73
80376	2024-08-16T01:28:26	22.9	73.5
80377	2024-08-16T01:38:26	22.7	74
80378	2024-08-16T01:48:26	22.7	74
80379	2024-08-16T01:58:26	22.5	74
80380	2024-08-16T02:08:26	22.3	74.5
80381	2024-08-16T02:18:26	22.2	75
80382	2024-08-16T02:28:26	22.1	75
80383	2024-08-16T02:38:26	21.9	75
80384	2024-08-16T02:48:26	21.9	75.5
80385	2024-08-16T02:58:26	21.8	75.5
80386	2024-08-16T03:08:26	21.7	75.5
80387	2024-08-16T03:18:26	21.6	76
80388	2024-08-16T03:28:26	21.5	76.5
80389	2024-08-16T03:38:26	21.4	76.5
80390	2024-08-16T03:48:26	21.3	77
80391	2024-08-16T03:58:26	21.3	77
80392	2024-08-16T04:08:26	21.1	77.5
80393	2024-08-16T04:18:26	21	78
80394	2024-08-16T04:28:26	20.9	78
80395	2024-08-16T04:38:25	20.9	78.5
80396	2024-08-16T04:48:25	20.9	78.5
80397	2024-08-16T04:58:25	20.8	78.5
80398	2024-08-16T05:08:25	20.9	79
80399	2024-08-16T05:18:25	20.8	79
80400	2024-08-16T05:28:25	20.9	79
80401	2024-08-16T05:38:25	21	80
80402	2024-08-16T05:48:25	21	80.5
80403	2024-08-16T05:58:25	21	81
80404	2024-08-16T06:08:25	21	81
80405	2024-08-16T06:18:25	21.2	81
80406	2024-08-16T06:28:25	21.3	81.5
80407	2024-08-16T06:38:25	21.5	83
80408	2024-08-16T06:48:25	21.8	81.5
80409	2024-08-16T06:58:25	22.1	81
80410	2024-08-16T07:08:25	22.5	78.5
80411	2024-08-16T07:18:25	22.5	77.5
80412	2024-08-16T07:28:25	22.6	77
80413	2024-08-16T07:38:25	22.8	77.5
80414	2024-08-16T07:48:25	22.9	76
80415	2024-08-16T07:58:25	23.2	75
80416	2024-08-16T08:08:25	23.3	73
80417	2024-08-16T08:18:25	23.5	70
80418	2024-08-16T08:28:25	23.7	72
80419	2024-08-16T08:38:25	23.8	69.5
80420	2024-08-16T08:48:25	24.2	62
80421	2024-08-16T08:58:25	24.3	63
80422	2024-08-16T09:08:25	24.6	64
80423	2024-08-16T09:18:25	24.7	64.5
80424	2024-08-16T09:28:25	24.8	63
80425	2024-08-16T09:38:25	24.9	61
80426	2024-08-16T09:48:25	25	61.5
80427	2024-08-16T09:58:25	25	62
80428	2024-08-16T10:08:25	25.3	62
80429	2024-08-16T10:18:25	25.4	61.5
80430	2024-08-16T10:28:25	25.5	62
80431	2024-08-16T10:38:25	25.7	64
80432	2024-08-16T10:48:25	25.9	64
80433	2024-08-16T10:58:25	26.3	63.5
80434	2024-08-16T11:08:25	26.3	63.5
80435	2024-08-16T11:18:25	26.4	62.5
80436	2024-08-16T11:28:25	26.7	63
80437	2024-08-16T11:38:25	26.9	61.5
80438	2024-08-16T11:48:25	27.3	61
80439	2024-08-16T11:58:25	27.5	61.5
80440	2024-08-16T12:08:25	27.8	59.5
80441	2024-08-16T12:18:25	28.4	57.5
80442	2024-08-16T12:28:25	31.5	50.5
80443	2024-08-16T12:38:25	33.1	48
80444	2024-08-16T12:48:25	34.7	43
80445	2024-08-16T12:58:25	34.5	44
80446	2024-08-16T13:08:25	35.5	42.5
80447	2024-08-16T13:18:25	36.8	40
80448	2024-08-16T13:28:25	36.5	39
80449	2024-08-16T13:38:25	36.7	37.5
80450	2024-08-16T13:58:25	36.4	38.5
80451	2024-08-16T14:08:25	37.8	39.5
80452	2024-08-16T14:18:25	37.5	37
80453	2024-08-16T14:28:25	38.5	35.5
80454	2024-08-16T14:38:25	39.4	35.5
80455	2024-08-16T14:48:25	38.2	36
80456	2024-08-16T14:58:25	40.5	34
80457	2024-08-16T15:08:25	40.2	33.5
80458	2024-08-16T15:18:24	39.5	35
80459	2024-08-16T15:28:24	39.7	35
80460	2024-08-16T15:38:24	38.4	36.5
80461	2024-08-16T15:48:24	37.7	35.5
80462	2024-08-16T15:58:46	38.8	36
80463	2024-08-16T16:08:24	38.5	35
80464	2024-08-16T16:18:24	39.8	32.5
80465	2024-08-16T16:28:24	39.7	32.5
80466	2024-08-16T16:38:24	39.1	34
80467	2024-08-16T16:48:24	39.2	35.5
80468	2024-08-16T16:58:24	38.7	33.5
80469	2024-08-16T17:08:24	37.9	35.5
80470	2024-08-16T17:18:24	37.4	34.5
80471	2024-08-16T17:28:24	36.5	36.5
80472	2024-08-16T17:38:24	36.4	36.5
80473	2024-08-16T17:48:24	35.1	39.5
80474	2024-08-16T17:58:24	34.6	39
80475	2024-08-16T18:08:24	33.4	40.5
80476	2024-08-16T18:18:24	32.8	39
80477	2024-08-16T18:28:24	32.5	39
80478	2024-08-16T18:38:24	32	41.5
80479	2024-08-16T18:48:24	31.7	47.5
80480	2024-08-16T18:58:24	31.2	49.5
80481	2024-08-16T19:08:24	30.6	49.5
80482	2024-08-16T19:18:24	30.3	48.5
80483	2024-08-16T19:28:24	29.9	50
80484	2024-08-16T19:38:24	29.6	50
80485	2024-08-16T19:48:24	29.4	52
80486	2024-08-16T19:58:24	29	51
80487	2024-08-16T20:08:24	28.9	51
80488	2024-08-16T20:18:24	28.5	52
80489	2024-08-16T20:28:24	28.1	52.5
80490	2024-08-16T20:38:24	27.8	54
80491	2024-08-16T20:48:24	27.6	55
80492	2024-08-16T20:58:24	27.3	55
80493	2024-08-16T21:08:24	27.1	56
80494	2024-08-16T21:18:24	26.9	57.5
80495	2024-08-16T21:28:24	26.7	57.5
80496	2024-08-16T21:38:24	26.4	58.5
80497	2024-08-16T21:48:24	26.2	59.5
80498	2024-08-16T21:58:24	25.9	59.5
80499	2024-08-16T22:08:24	25.7	59.5
80500	2024-08-16T22:18:24	25.6	60
80501	2024-08-16T22:28:24	25.3	60.5
80502	2024-08-16T22:38:24	25.1	60.5
80503	2024-08-16T22:48:24	24.9	61.5
80504	2024-08-16T22:58:24	24.7	61.5
80505	2024-08-16T23:29:33	24.6	62
80506	2024-08-16T23:29:33	24.5	62
80507	2024-08-16T23:29:33	24.3	62.5
80508	2024-08-16T23:38:24	24.1	63.5
80509	2024-08-16T23:48:24	23.9	64.5
80510	2024-08-16T23:58:24	23.7	64.5
80511	2024-08-17T00:08:24	23.4	65
80512	2024-08-17T00:18:24	23.3	66
80513	2024-08-17T00:28:24	23.2	67
80514	2024-08-17T00:48:24	22.9	66
80515	2024-08-17T00:58:24	22.7	66
80516	2024-08-17T01:08:24	22.5	67.5
80517	2024-08-17T01:18:24	22.4	68
80518	2024-08-17T01:28:24	22.2	68.5
80519	2024-08-17T01:38:24	22.1	69
80520	2024-08-17T01:48:24	22	69.5
80521	2024-08-17T01:58:23	21.9	69
80522	2024-08-17T02:08:23	21.7	69
80523	2024-08-17T02:18:23	21.6	69
80524	2024-08-17T02:28:23	21.5	69.5
80525	2024-08-17T02:38:23	21.2	70
80526	2024-08-17T02:48:23	21.1	71
80527	2024-08-17T02:58:23	21.1	71
80528	2024-08-17T03:08:23	20.9	71
80529	2024-08-17T03:18:23	20.8	71.5
80530	2024-08-17T03:28:23	20.6	71.5
80531	2024-08-17T03:38:23	20.6	72
80532	2024-08-17T03:48:23	20.4	72
80533	2024-08-17T03:58:23	20.4	72.5
80534	2024-08-17T04:08:23	20.3	73
80535	2024-08-17T04:18:23	20.1	73
80536	2024-08-17T04:28:23	20.2	73
80537	2024-08-17T04:38:23	20.2	73.5
80538	2024-08-17T04:48:23	20.1	74
80539	2024-08-17T04:58:23	20	74
80540	2024-08-17T05:08:23	20	74.5
80541	2024-08-17T05:18:23	20.1	74.5
80542	2024-08-17T05:28:23	20.3	75
80543	2024-08-17T05:38:23	20.5	74.5
80544	2024-08-17T05:48:23	20.6	73.5
80545	2024-08-17T05:58:23	20.7	73
80546	2024-08-17T06:08:23	20.8	73
80547	2024-08-17T06:18:23	21.1	73
80548	2024-08-17T06:28:23	21.2	72.5
80549	2024-08-17T06:38:23	21.5	72.5
80550	2024-08-17T06:48:23	21.7	72
80551	2024-08-17T06:58:23	21.9	71.5
80552	2024-08-17T07:08:23	22	71.5
80553	2024-08-17T07:18:23	22.1	71
80554	2024-08-17T07:28:23	22.2	71.5
80555	2024-08-17T07:38:23	22.2	73
80556	2024-08-17T07:48:23	22.2	73
80557	2024-08-17T07:58:23	22.3	73.5
80558	2024-08-17T08:08:23	22.6	74
80559	2024-08-17T08:18:23	22.6	74
80560	2024-08-17T08:28:23	22.8	74
80561	2024-08-17T08:38:23	22.8	74.5
80562	2024-08-17T08:48:23	22.8	74.5
80563	2024-08-17T08:58:23	23	73
80564	2024-08-17T09:08:23	23.4	69.5
80565	2024-08-17T09:18:23	23.8	67
80566	2024-08-17T09:28:23	24.3	63
80567	2024-08-17T09:38:23	24.6	62
80568	2024-08-17T09:48:23	24.8	60
80569	2024-08-17T09:58:23	24.8	60.5
80570	2024-08-17T10:08:23	25.1	60.5
80571	2024-08-17T10:18:23	25.3	60.5
80572	2024-08-17T10:28:23	25.6	59.5
80573	2024-08-17T10:38:23	26.2	58.5
80574	2024-08-17T10:48:23	26.6	57.5
80575	2024-08-17T10:58:23	27.1	56.5
80576	2024-08-17T11:08:23	27.5	54
80577	2024-08-17T11:18:23	27.7	54.5
80578	2024-08-17T11:28:23	27.8	54
80579	2024-08-17T11:38:23	27.9	53
80580	2024-08-17T11:48:23	28.1	52.5
80581	2024-08-17T11:58:23	28.4	54
80582	2024-08-17T12:08:23	28.8	54
80583	2024-08-17T12:18:22	29.5	51
80584	2024-08-17T12:28:22	32.6	47
80585	2024-08-17T12:38:22	33.2	42.5
80586	2024-08-17T12:48:22	33.8	42
80587	2024-08-17T12:58:22	34.4	41
80588	2024-08-17T13:08:22	34.8	42.5
80589	2024-08-17T13:18:22	34.9	40.5
80590	2024-08-17T13:28:22	36.6	38
80591	2024-08-17T13:38:22	36.5	36.5
80592	2024-08-17T13:48:22	36.4	37.5
80593	2024-08-17T13:58:22	35.7	39
80594	2024-08-17T14:08:22	34.3	41.5
80595	2024-08-17T14:18:22	34	45
80596	2024-08-17T14:28:22	33.1	44
80597	2024-08-17T14:38:22	33.4	43
80598	2024-08-17T14:48:22	34.3	45
80599	2024-08-17T14:58:22	34.4	42.5
80600	2024-08-17T15:08:22	34.3	41
80601	2024-08-17T15:18:22	34.8	43
80602	2024-08-17T15:28:22	34.1	42.5
80603	2024-08-17T15:38:22	33.6	44.5
80604	2024-08-17T15:48:22	33.6	45
80605	2024-08-17T15:58:22	33.6	44
80606	2024-08-17T16:08:22	33.1	44.5
80607	2024-08-17T16:18:22	32.7	46
80608	2024-08-17T16:28:22	32.5	47
80609	2024-08-17T16:38:22	32.2	45.5
80610	2024-08-17T16:48:22	31.8	48.5
80611	2024-08-17T16:58:22	31.7	49.5
80612	2024-08-17T17:08:22	31.7	50.5
80613	2024-08-17T17:18:22	31.7	51
80614	2024-08-17T17:28:22	31.3	53.5
80615	2024-08-17T17:38:22	30.9	55.5
80616	2024-08-17T17:48:22	30.6	57
80617	2024-08-17T17:58:22	30.1	59
80618	2024-08-17T18:08:22	29.6	59.5
80619	2024-08-17T18:18:22	29.4	60
80620	2024-08-17T18:28:22	28.9	60.5
80621	2024-08-17T18:38:22	28.7	61
80622	2024-08-17T18:48:22	28.5	62
80623	2024-08-17T19:08:22	28.1	63
80624	2024-08-17T19:18:22	27.8	64
80625	2024-08-17T19:28:22	27.7	63.5
80626	2024-08-17T19:38:22	27.6	64.5
80627	2024-08-17T19:48:22	27.4	65
80628	2024-08-17T19:58:22	27.3	65
80629	2024-08-17T20:08:22	27.1	64
80630	2024-08-17T20:18:22	26.6	66.5
80631	2024-08-17T20:28:22	26.6	66.5
80632	2024-08-17T20:38:22	26.3	66.5
80633	2024-08-17T20:48:22	26.3	66.5
80634	2024-08-17T20:58:22	26.1	66
80635	2024-08-17T21:08:22	26.1	67.5
80636	2024-08-17T21:18:22	26	68
80637	2024-08-17T21:28:22	25.9	68
80638	2024-08-17T21:38:22	25.7	69
80639	2024-08-17T21:48:22	25.6	69.5
80640	2024-08-17T21:58:22	25.4	70
80641	2024-08-17T22:08:22	25.4	70
80642	2024-08-17T22:18:22	25.2	70
80643	2024-08-17T22:28:21	25.2	70
80644	2024-08-17T22:38:21	25.2	70.5
80645	2024-08-17T22:48:21	25	71
80646	2024-08-17T22:58:21	24.8	71.5
80647	2024-08-17T23:30:25	24.6	73
80648	2024-08-17T23:30:25	24.7	72.5
80649	2024-08-17T23:30:25	24.5	73
80650	2024-08-17T23:38:21	24.4	73.5
80651	2024-08-17T23:48:21	24.2	73
80652	2024-08-17T23:58:21	24.2	74
80653	2024-08-18T00:08:21	24	74.5
80654	2024-08-18T00:18:21	23.7	76
80655	2024-08-18T00:28:21	23.6	76.5
80656	2024-08-18T00:38:21	23.4	78
80657	2024-08-18T00:48:21	23.1	79.5
80658	2024-08-18T00:58:21	22.7	81.5
80659	2024-08-18T01:08:21	22.7	82
80660	2024-08-18T01:18:21	22.6	82.5
80661	2024-08-18T01:28:21	22.5	83.5
80662	2024-08-18T01:38:21	22.5	83.5
80663	2024-08-18T01:48:21	22.6	83
80664	2024-08-18T01:58:21	22.8	83
80665	2024-08-18T02:08:21	22.8	82.5
80666	2024-08-18T02:18:21	22.8	82.5
80667	2024-08-18T02:28:21	22.6	82.5
80668	2024-08-18T02:38:21	22.6	82.5
80669	2024-08-18T02:48:21	22.6	83
80670	2024-08-18T02:58:21	22.6	83
80671	2024-08-18T03:08:21	22.6	83.5
80672	2024-08-18T03:18:21	22.5	84
80673	2024-08-18T03:28:21	22.3	84.5
80674	2024-08-18T03:38:21	22.4	84.5
80675	2024-08-18T03:48:21	22.2	85.5
80676	2024-08-18T03:58:21	22.1	87
80677	2024-08-18T04:08:21	21.5	93
80678	2024-08-18T04:18:21	21.5	98
80679	2024-08-18T04:28:21	21.2	97
80680	2024-08-18T04:38:21	21.2	98
80681	2024-08-18T04:48:21	21.3	97
80682	2024-08-18T04:58:21	21.3	97.5
80683	2024-08-18T05:08:21	21.4	97
80684	2024-08-18T05:18:21	21.1	96.5
80685	2024-08-18T05:28:21	20.9	97.5
80686	2024-08-18T05:38:21	20.9	98.5
80687	2024-08-18T05:48:21	20.8	97.5
80688	2024-08-18T05:58:21	20.6	96
80689	2024-08-18T06:08:21	20.2	97
80690	2024-08-18T06:18:21	20.3	99
80691	2024-08-18T06:28:21	20.3	99.5
80692	2024-08-18T06:38:21	20.4	99
80693	2024-08-18T06:48:21	20.3	98.5
80694	2024-08-18T06:58:21	20.2	100
80695	2024-08-18T07:08:21	19.9	100
80696	2024-08-18T07:18:21	20	100
80697	2024-08-18T07:28:21	20	100
80698	2024-08-18T07:38:21	20	100
80699	2024-08-18T07:48:21	19.9	100
80700	2024-08-18T07:58:21	20	100
80701	2024-08-18T08:08:21	20.2	100
80702	2024-08-18T08:18:21	20	100
80703	2024-08-18T08:28:21	20	100
80704	2024-08-18T08:38:21	20	100
80705	2024-08-18T08:48:21	20	100
80706	2024-08-18T08:58:20	20	98
80707	2024-08-18T09:08:20	20.3	98.5
80708	2024-08-18T09:18:20	20.2	98
80709	2024-08-18T09:28:21	20.4	97.5
80710	2024-08-18T09:38:20	20.4	98.5
80711	2024-08-18T09:48:20	20.7	96.5
80712	2024-08-18T09:58:20	21	95.5
80713	2024-08-18T10:08:20	21	95.5
80714	2024-08-18T10:18:20	21.4	94.5
80715	2024-08-18T10:28:20	21.5	93.5
80716	2024-08-18T10:38:20	21.2	94
80717	2024-08-18T10:48:20	21.3	95.5
80718	2024-08-18T10:58:20	21.3	91
80719	2024-08-18T11:08:20	21.3	94
80720	2024-08-18T11:18:20	21.3	92
80721	2024-08-18T11:28:20	21.5	91
80722	2024-08-18T11:38:20	21.7	89
80723	2024-08-18T11:48:20	20.4	100
80724	2024-08-18T11:58:21	20.4	100
80725	2024-08-18T12:08:20	20.4	100
80726	2024-08-18T12:18:20	20.5	100
80727	2024-08-18T12:28:20	20.7	100
80728	2024-08-18T12:38:20	20.7	100
80729	2024-08-18T12:48:20	20.6	100
80730	2024-08-18T12:58:20	20.5	100
80731	2024-08-18T13:08:20	20.5	100
80732	2024-08-18T13:18:20	20.2	100
80733	2024-08-18T13:28:20	20.5	100
80734	2024-08-18T13:38:20	20.2	100
80735	2024-08-18T13:48:20	20.4	100
80736	2024-08-18T13:58:20	20.1	100
80737	2024-08-18T14:08:20	20.1	100
80738	2024-08-18T14:18:20	19.8	100
80739	2024-08-18T14:28:20	19.9	100
80740	2024-08-18T14:38:20	19.4	100
80741	2024-08-18T14:48:20	19.7	99.5
80742	2024-08-18T14:58:20	19.8	99.5
80743	2024-08-18T15:08:20	19.8	99.5
80744	2024-08-18T15:18:20	19.9	99.5
80745	2024-08-18T15:28:20	20	99
80746	2024-08-18T15:38:20	20	99
80747	2024-08-18T15:48:20	19.9	98.5
80748	2024-08-18T15:58:20	19.9	97.5
80749	2024-08-18T16:08:20	19.8	96.5
80750	2024-08-18T16:18:20	19.8	96
80751	2024-08-18T16:28:20	19.7	95.5
80752	2024-08-18T16:38:20	19.8	94.5
80753	2024-08-18T16:48:20	19.8	94.5
80754	2024-08-18T16:58:20	19.7	94.5
80755	2024-08-18T17:08:20	19.7	94.5
80756	2024-08-18T17:18:20	19.7	94.5
80757	2024-08-18T17:28:20	19.7	94.5
80758	2024-08-18T17:38:20	19.7	94.5
80759	2024-08-18T17:48:20	19.8	94.5
80760	2024-08-18T17:58:20	19.8	94.5
80761	2024-08-18T18:08:20	19.7	94.5
80762	2024-08-18T18:18:20	19.5	94.5
80763	2024-08-18T18:28:20	19.6	94.5
80764	2024-08-18T18:38:20	19.5	94.5
80765	2024-08-18T18:48:20	19.4	94.5
80766	2024-08-18T18:58:20	19.4	94.5
80767	2024-08-18T19:08:20	19.3	94.5
80768	2024-08-18T19:18:20	19.3	94.5
80769	2024-08-18T19:28:20	19.2	94.5
80770	2024-08-18T19:38:20	19.2	94.5
80771	2024-08-18T19:48:19	19.2	94.5
80772	2024-08-18T19:58:20	19.1	95
80773	2024-08-18T20:08:19	19.2	94.5
80774	2024-08-18T20:18:19	19.1	95
80775	2024-08-18T20:28:19	18.8	95
80776	2024-08-18T20:38:19	18.7	95
80777	2024-08-18T20:48:19	18.7	95
80778	2024-08-18T20:58:19	18.7	95
80779	2024-08-18T21:08:19	18.6	95
80780	2024-08-18T21:18:19	18.6	95
80781	2024-08-18T21:28:19	18.6	95
80782	2024-08-18T21:38:19	18.4	95
80783	2024-08-18T21:48:19	18.2	95
80784	2024-08-18T21:58:19	18.2	95
80785	2024-08-18T22:08:19	18.3	95
80786	2024-08-18T22:18:19	18.2	95
80787	2024-08-18T22:28:19	18.1	95
80788	2024-08-18T22:38:19	17.9	95
80789	2024-08-18T22:48:19	18	95
80790	2024-08-18T22:58:19	17.9	95
80791	2024-08-18T23:31:24	17.7	95
80792	2024-08-18T23:31:24	17.7	95
80793	2024-08-18T23:31:25	17.7	95
80794	2024-08-18T23:38:19	17.5	95
80795	2024-08-18T23:48:19	17.6	95
80796	2024-08-18T23:58:19	17.5	95
80797	2024-08-19T00:08:19	17.4	95
80798	2024-08-19T00:18:19	17.4	95
80799	2024-08-19T00:28:19	17.3	95
80800	2024-08-19T00:38:19	17.2	95
80801	2024-08-19T00:48:19	17.1	95
80802	2024-08-19T00:58:19	17.2	95
80803	2024-08-19T01:08:19	17	95
80804	2024-08-19T01:18:19	17	95
80805	2024-08-19T01:28:19	17	95
80806	2024-08-19T01:38:19	16.9	95
80807	2024-08-19T01:48:19	16.9	95
80808	2024-08-19T01:58:19	16.9	95
80809	2024-08-19T02:08:19	16.8	95
80810	2024-08-19T02:18:19	16.7	95
80811	2024-08-19T02:28:19	16.6	95
80812	2024-08-19T02:38:19	16.5	95
80813	2024-08-19T02:48:19	16.5	95.5
80814	2024-08-19T02:58:19	16.4	95.5
80815	2024-08-19T03:08:19	16.3	95
80816	2024-08-19T03:18:19	16.2	95.5
80817	2024-08-19T03:28:19	16.2	95
80818	2024-08-19T03:38:19	16.1	95
80819	2024-08-19T03:48:19	15.9	95.5
80820	2024-08-19T03:58:19	15.9	95.5
80821	2024-08-19T04:08:19	15.8	95.5
80822	2024-08-19T04:18:19	15.8	95.5
80823	2024-08-19T04:28:19	15.7	95.5
80824	2024-08-19T04:38:19	15.7	95.5
80825	2024-08-19T04:48:19	15.6	95.5
80826	2024-08-19T04:58:19	15.6	95.5
80827	2024-08-19T05:08:19	15.6	95.5
80828	2024-08-19T05:18:19	15.5	95.5
80829	2024-08-19T05:28:19	15.5	95.5
80830	2024-08-19T05:38:19	15.6	95.5
80831	2024-08-19T05:48:19	15.6	95.5
80832	2024-08-19T05:58:19	15.7	95.5
80833	2024-08-19T06:08:19	15.7	95.5
80834	2024-08-19T06:18:19	15.8	95.5
80835	2024-08-19T06:28:19	16	95.5
80836	2024-08-19T06:38:19	16	95.5
80837	2024-08-19T06:48:19	16.2	95.5
80838	2024-08-19T06:58:19	16.3	95.5
80839	2024-08-19T07:08:19	16.5	95.5
80840	2024-08-19T07:18:18	16.6	95.5
80841	2024-08-19T07:28:18	16.8	95.5
80842	2024-08-19T07:38:18	16.9	95.5
80843	2024-08-19T07:48:18	17.1	95.5
80844	2024-08-19T07:58:19	17.3	95.5
80845	2024-08-19T08:08:18	17.4	95.5
80846	2024-08-19T08:18:18	17.5	95.5
80847	2024-08-19T08:28:18	17.8	95.5
80848	2024-08-19T08:38:18	17.9	95.5
80849	2024-08-19T08:48:18	18.1	95.5
80850	2024-08-19T08:58:18	18.4	95.5
80851	2024-08-19T09:08:18	18.5	95.5
80852	2024-08-19T09:18:18	18.7	95.5
80853	2024-08-19T09:28:18	18.9	95.5
80854	2024-08-19T09:38:18	19.1	95.5
80855	2024-08-19T09:48:18	19.4	95.5
80856	2024-08-19T09:58:18	19.5	96
80857	2024-08-19T10:08:18	19.8	95.5
80858	2024-08-19T10:18:18	20.2	95.5
80859	2024-08-19T10:28:18	20.3	95.5
80860	2024-08-19T10:38:18	20.6	95.5
80861	2024-08-19T10:48:18	20.9	95.5
80862	2024-08-19T10:58:18	21.3	95.5
80863	2024-08-19T11:08:18	21.4	95.5
80864	2024-08-19T11:18:18	21.8	95.5
80865	2024-08-19T11:28:18	22.2	96
80866	2024-08-19T11:38:18	22.5	96
80867	2024-08-19T11:48:18	22.8	95.5
80868	2024-08-19T11:58:18	23.2	96
80869	2024-08-19T12:08:18	23.7	96
80870	2024-08-19T12:18:18	24.5	99
80871	2024-08-19T12:28:18	27.7	100
80872	2024-08-19T12:38:18	29.8	98
80873	2024-08-19T12:48:18	31.3	97.5
80874	2024-08-19T12:58:18	32.3	97
80875	2024-08-19T13:08:18	31	90
80876	2024-08-19T13:18:18	30.3	46
80877	2024-08-19T13:28:18	31.2	45.5
80878	2024-08-19T13:38:18	30.1	48.5
80879	2024-08-19T13:48:18	32.2	42.5
80880	2024-08-19T13:58:18	34.1	40.5
80881	2024-08-19T14:08:18	32.9	41.5
80882	2024-08-19T14:18:18	32.9	41.5
80883	2024-08-19T14:28:18	34.1	40
80884	2024-08-19T14:38:18	34.9	37.5
80885	2024-08-19T14:48:18	35.9	36
80886	2024-08-19T14:58:18	36.5	39
80887	2024-08-19T15:08:18	37	36
80888	2024-08-19T15:18:18	37.2	34.5
80889	2024-08-19T15:28:18	37	35.5
80890	2024-08-19T15:38:18	37.1	37
80891	2024-08-19T15:48:18	37	34.5
80892	2024-08-19T15:58:18	36.9	31.5
80893	2024-08-19T16:08:18	37.5	36
80894	2024-08-19T16:18:18	37.1	36
80895	2024-08-19T16:28:18	37	34
80896	2024-08-19T16:38:18	37.2	38
80897	2024-08-19T16:48:18	37.2	37.5
80898	2024-08-19T16:58:18	36.7	36.5
80899	2024-08-19T17:08:18	35.7	39
80900	2024-08-19T17:18:18	34.9	39
80901	2024-08-19T17:28:18	34.6	40.5
80902	2024-08-19T17:38:18	34	38
80903	2024-08-19T17:48:18	32.5	44.5
80904	2024-08-19T17:58:18	31.2	45
80905	2024-08-19T18:08:18	30.3	49
80906	2024-08-19T18:18:17	29.6	48
80907	2024-08-19T18:28:17	29	54.5
80908	2024-08-19T18:38:17	28.6	58
80909	2024-08-19T18:48:17	28	59.5
80910	2024-08-19T18:58:17	27.4	59.5
80911	2024-08-19T19:08:17	27.2	61
80912	2024-08-19T19:18:17	26.7	61.5
80913	2024-08-19T19:28:17	26.3	62.5
80914	2024-08-19T19:38:17	25.9	63.5
80915	2024-08-19T19:48:17	25.6	63.5
80916	2024-08-19T19:58:17	25.2	63.5
80917	2024-08-19T20:08:17	24.8	64
80918	2024-08-19T20:18:17	24.5	67
80919	2024-08-19T20:28:17	24.3	63.5
80920	2024-08-19T20:38:17	23.9	63.5
80921	2024-08-19T20:48:36	23.7	66.5
80922	2024-08-19T20:58:17	23.5	67.5
80923	2024-08-19T21:08:17	23.4	68
80924	2024-08-19T21:18:17	23.1	68
80925	2024-08-19T21:28:17	22.8	68.5
80926	2024-08-19T21:38:17	22.5	68.5
80927	2024-08-19T21:48:17	22.3	69.5
80928	2024-08-19T21:58:17	22.1	71
80929	2024-08-19T22:08:17	22	72
80930	2024-08-19T22:18:17	21.8	72
80931	2024-08-19T22:28:17	21.7	72.5
80932	2024-08-19T22:38:17	21.4	74.5
80933	2024-08-19T22:48:17	21.2	73
80934	2024-08-19T22:58:17	21.1	73.5
80935	2024-08-19T23:32:02	20.7	72.5
80936	2024-08-19T23:32:05	20.6	74
80937	2024-08-19T23:32:05	20.5	75
80938	2024-08-19T23:38:17	20.4	75.5
80939	2024-08-19T23:48:17	20.1	75.5
80940	2024-08-19T23:58:17	20	76.5
80941	2024-08-20T00:08:17	19.9	76
80942	2024-08-20T00:18:17	19.7	77
80943	2024-08-20T00:28:17	19.6	77.5
80944	2024-08-20T00:38:17	19.5	76
80945	2024-08-20T00:48:17	19.5	78
80946	2024-08-20T00:58:17	19.4	78.5
80947	2024-08-20T01:08:17	19.3	78.5
80948	2024-08-20T01:18:17	19.2	79
80949	2024-08-20T01:28:17	19.1	79
80950	2024-08-20T01:38:17	19	80
80951	2024-08-20T01:48:17	18.8	80
80952	2024-08-20T01:58:17	18.8	80.5
80953	2024-08-20T02:08:17	18.8	81
80954	2024-08-20T02:18:17	18.6	81
80955	2024-08-20T02:28:17	18.6	81
80956	2024-08-20T02:38:17	18.5	81
80957	2024-08-20T02:48:17	18.5	81
80958	2024-08-20T02:58:17	18.5	81.5
80959	2024-08-20T03:08:17	18.5	82
80960	2024-08-20T03:18:17	18.2	81.5
80961	2024-08-20T03:28:17	18.2	82
80962	2024-08-20T03:38:17	17.8	81
80963	2024-08-20T03:48:17	17.8	82.5
80964	2024-08-20T03:58:17	17.7	82.5
80965	2024-08-20T04:08:17	17.7	82
80966	2024-08-20T04:18:17	17.8	82.5
80967	2024-08-20T04:28:17	17.6	83
80968	2024-08-20T04:38:17	17.7	82.5
80969	2024-08-20T04:48:17	17.6	82.5
80970	2024-08-20T04:58:17	17.4	83.5
80971	2024-08-20T05:08:16	17.6	84
80972	2024-08-20T05:18:16	17.5	83.5
80973	2024-08-20T05:28:16	17.7	84
80974	2024-08-20T05:38:16	17.7	84
80975	2024-08-20T05:48:16	17.8	84
80976	2024-08-20T05:58:16	17.9	84.5
80977	2024-08-20T06:08:16	18.1	84.5
80978	2024-08-20T06:18:16	18.1	84
80979	2024-08-20T06:28:16	18.3	83.5
80980	2024-08-20T06:38:16	18.4	84
80981	2024-08-20T06:48:16	18.5	82.5
80982	2024-08-20T06:58:16	18.7	82.5
80983	2024-08-20T07:08:16	18.8	82.5
80984	2024-08-20T07:18:16	19.2	81
80985	2024-08-20T07:28:16	19.5	79
80986	2024-08-20T07:38:16	19.6	77.5
80987	2024-08-20T07:48:17	19.9	78
80988	2024-08-20T07:58:16	20	76.5
80989	2024-08-20T08:08:17	19.9	77.5
80990	2024-08-20T08:18:16	20.1	78
80991	2024-08-20T08:28:16	20.5	76
80992	2024-08-20T08:38:16	20.9	74
80993	2024-08-20T08:48:16	21.2	74.5
80994	2024-08-20T08:58:16	21.7	72
80995	2024-08-20T09:08:16	21.9	72
80996	2024-08-20T09:18:16	22.1	72
80997	2024-08-20T09:28:16	22.2	71
80998	2024-08-20T09:38:16	22.4	72
80999	2024-08-20T09:48:16	22.7	70.5
81000	2024-08-20T09:58:16	23	69.5
81001	2024-08-20T10:08:16	23.1	68.5
81002	2024-08-20T10:18:16	23.2	69
81003	2024-08-20T10:28:16	23.6	68
81004	2024-08-20T10:38:16	23.6	67.5
81005	2024-08-20T10:48:16	23.9	67.5
81006	2024-08-20T10:58:16	24	66.5
81007	2024-08-20T11:08:16	24.1	66.5
81008	2024-08-20T11:18:16	24.4	65.5
81009	2024-08-20T11:28:16	24.5	66
81010	2024-08-20T11:38:16	24.7	65.5
81011	2024-08-20T11:48:16	24.9	63.5
81012	2024-08-20T11:58:16	25.1	63.5
81013	2024-08-20T12:08:16	25.4	63.5
81014	2024-08-20T12:18:16	26.3	61
81015	2024-08-20T12:28:16	29.6	52.5
81016	2024-08-20T12:38:16	29.5	53
81017	2024-08-20T12:48:16	29.5	55
81018	2024-08-20T12:58:16	28.8	55.5
81019	2024-08-20T13:08:16	29.7	53.5
81020	2024-08-20T13:18:16	29.4	52.5
81021	2024-08-20T13:28:16	29.4	52
81022	2024-08-20T13:38:16	30.2	52.5
81023	2024-08-20T13:48:16	31.3	50
81024	2024-08-20T13:58:16	30.6	50
81025	2024-08-20T14:08:16	30.4	51
81026	2024-08-20T14:18:16	30.3	51
81027	2024-08-20T14:28:16	29.8	53
81028	2024-08-20T14:38:16	30	52.5
81029	2024-08-20T14:48:16	30.4	50.5
81030	2024-08-20T14:58:16	30.9	49.5
81031	2024-08-20T15:08:16	31.8	49
81032	2024-08-20T15:18:16	30.8	51.5
81033	2024-08-20T15:28:15	31.6	48.5
81034	2024-08-20T15:38:16	31.7	48
81035	2024-08-20T15:48:15	33.3	45
81036	2024-08-20T15:58:15	34	44
81037	2024-08-20T16:08:15	35.1	43.5
81038	2024-08-20T16:18:15	34.3	42.5
81039	2024-08-20T16:28:15	34.2	43
81040	2024-08-20T16:38:15	34.4	45.5
81041	2024-08-20T16:48:15	34.9	45.5
81042	2024-08-20T16:58:15	35.3	46
81043	2024-08-20T17:08:15	34	46
81044	2024-08-20T17:18:15	33.3	49.5
81045	2024-08-20T17:28:16	32.8	51
81046	2024-08-20T17:38:15	31.9	52.5
81047	2024-08-20T17:48:15	31.2	55
81048	2024-08-20T17:58:15	30.4	55.5
81049	2024-08-20T18:08:15	29.5	59.5
81050	2024-08-20T18:18:15	29	59
81051	2024-08-20T18:28:15	28.5	60.5
81052	2024-08-20T18:38:15	28.1	62.5
81053	2024-08-20T18:48:15	27.7	61.5
81054	2024-08-20T18:58:15	27.2	63.5
81055	2024-08-20T19:08:15	27	65.5
81056	2024-08-20T19:18:15	26.9	66
81057	2024-08-20T19:28:15	26.7	67
81058	2024-08-20T19:38:15	26.3	66.5
81059	2024-08-20T19:48:15	26.1	68.5
81060	2024-08-20T19:58:15	25.9	69.5
81061	2024-08-20T20:08:15	25.6	70
81062	2024-08-20T20:18:15	25.6	69.5
81063	2024-08-20T20:28:15	25.3	70.5
81064	2024-08-20T20:38:15	25.2	71
81065	2024-08-20T20:48:15	24.9	72
81066	2024-08-20T20:58:15	24.6	71.5
81067	2024-08-20T21:08:15	24.6	72
81068	2024-08-20T21:18:15	24.2	72
81069	2024-08-20T21:28:15	23.7	74.5
81070	2024-08-20T21:38:15	23.4	75.5
81071	2024-08-20T21:48:15	23.1	75.5
81072	2024-08-20T21:58:15	23	75.5
81073	2024-08-20T22:08:15	22.8	75.5
81074	2024-08-20T22:18:15	22.8	75
81075	2024-08-20T22:28:15	22.6	75
81076	2024-08-20T22:38:15	22.4	76
81077	2024-08-20T22:48:15	22.5	74.5
81078	2024-08-20T22:58:15	22.4	75
81079	2024-08-20T23:31:24	22	75.5
81080	2024-08-20T23:31:24	22.2	75.5
81081	2024-08-20T23:31:24	21.9	75.5
81082	2024-08-20T23:38:15	21.8	75.5
81083	2024-08-20T23:48:15	21.7	75.5
81084	2024-08-20T23:58:15	21.7	76
81085	2024-08-21T00:08:15	21.9	76
81086	2024-08-21T00:18:15	21.8	75.5
81087	2024-08-21T00:28:15	21.7	76
81088	2024-08-21T00:38:15	21.6	75.5
81089	2024-08-21T00:48:15	21.4	76.5
81090	2024-08-21T00:58:15	21.3	77.5
81091	2024-08-21T01:08:15	21.1	77.5
81092	2024-08-21T01:18:15	21	78
81093	2024-08-21T01:28:15	20.9	77.5
81094	2024-08-21T01:38:15	20.8	77.5
81095	2024-08-21T01:48:14	20.9	77.5
81096	2024-08-21T01:58:14	20.9	77
81097	2024-08-21T02:08:14	20.8	76.5
81098	2024-08-21T02:18:14	20.7	76.5
81099	2024-08-21T02:28:14	20.6	77
81100	2024-08-21T02:38:14	20.7	77.5
81101	2024-08-21T02:48:15	20.7	77.5
81102	2024-08-21T02:58:14	20.6	77.5
81103	2024-08-21T03:08:14	20.5	78.5
81104	2024-08-21T03:18:14	20.4	79.5
81105	2024-08-21T03:28:15	20.1	79.5
81106	2024-08-21T03:38:14	20.2	79
81107	2024-08-21T03:48:14	20.1	79.5
81108	2024-08-21T03:58:15	20.2	79.5
81109	2024-08-21T04:08:14	20.2	79
81110	2024-08-21T04:18:14	19.9	78.5
81111	2024-08-21T04:28:14	20	76
81112	2024-08-21T04:38:15	19.8	75
81113	2024-08-21T04:48:14	19.6	74.5
81114	2024-08-21T04:58:15	19.6	75
81115	2024-08-21T05:08:14	19.3	76
81116	2024-08-21T05:18:14	19.5	76
81117	2024-08-21T05:28:14	19.4	75.5
81118	2024-08-21T05:38:14	19.5	76.5
81119	2024-08-21T05:48:14	19.2	78
81120	2024-08-21T05:58:14	18.9	79
81121	2024-08-21T06:08:14	18	87.5
81122	2024-08-21T06:18:14	18	87
81123	2024-08-21T06:28:14	18.3	84
81124	2024-08-21T06:38:14	18.5	81.5
81125	2024-08-21T06:48:14	18.5	75
81126	2024-08-21T06:58:14	18.6	73.5
81127	2024-08-21T07:08:14	18.7	74
81128	2024-08-21T07:18:14	18.8	74.5
81129	2024-08-21T07:28:14	18.6	74
81130	2024-08-21T07:38:14	18.6	72.5
81131	2024-08-21T07:48:14	18.5	71
81132	2024-08-21T07:58:14	18.5	70
81133	2024-08-21T08:08:14	18.6	68.5
81134	2024-08-21T08:18:14	18.9	66.5
81135	2024-08-21T08:28:14	19.1	66.5
81136	2024-08-21T08:38:14	19.1	64.5
81137	2024-08-21T08:48:14	19.2	64.5
81138	2024-08-21T08:58:15	19.3	66.5
81139	2024-08-21T09:08:15	19.5	63.5
81140	2024-08-21T09:18:14	19.5	65.5
81141	2024-08-21T09:28:15	19.5	65
81142	2024-08-21T09:58:14	20	63.5
81143	2024-08-21T10:08:14	20.3	61.5
81144	2024-08-21T10:18:14	20.4	61.5
81145	2024-08-21T10:28:14	20.4	60.5
81146	2024-08-21T10:38:14	20.6	59.5
81147	2024-08-21T10:48:14	20.7	57.5
81148	2024-08-21T10:58:14	20.8	57
81149	2024-08-21T11:08:14	20.9	57.5
81150	2024-08-21T11:18:14	21.1	55
81151	2024-08-21T11:28:14	21.2	54.5
81152	2024-08-21T11:38:14	21.1	53.5
81153	2024-08-21T11:48:14	21.3	54.5
81154	2024-08-21T11:58:14	21.7	51
81155	2024-08-21T12:08:14	22	52.5
81156	2024-08-21T12:18:14	22.8	49
81157	2024-08-21T12:28:14	23.2	49
81158	2024-08-21T12:38:13	25.1	46
81159	2024-08-21T12:48:13	26.8	38
81160	2024-08-21T12:58:14	26.6	39
81161	2024-08-21T13:08:13	26.4	41
81162	2024-08-21T13:18:13	28.1	36.5
81163	2024-08-21T13:28:13	27	37.5
81164	2024-08-21T13:38:13	25.8	40.5
81165	2024-08-21T13:48:13	27	38.5
81166	2024-08-21T13:58:13	26.3	40
81167	2024-08-21T14:08:13	25.3	42
81168	2024-08-21T14:18:13	26.9	38.5
81169	2024-08-21T14:28:13	28	37
81170	2024-08-21T14:38:13	27.6	36
81171	2024-08-21T14:48:13	29.3	36
81172	2024-08-21T14:58:13	27.6	38.5
81173	2024-08-21T15:08:13	27.2	38
81174	2024-08-21T15:18:13	29.1	36.5
81175	2024-08-21T15:28:13	30	33
81176	2024-08-21T15:38:13	29.2	34
81177	2024-08-21T15:48:13	29.3	34
81178	2024-08-21T15:58:13	29.5	32
81179	2024-08-21T16:08:13	29.1	33
81180	2024-08-21T16:18:13	28.5	35
81181	2024-08-21T16:28:13	28.5	34.5
81182	2024-08-21T16:38:13	27.3	38
81183	2024-08-21T16:48:13	27.1	36.5
81184	2024-08-21T16:58:14	26.8	39
81185	2024-08-21T17:08:13	26.5	40.5
81186	2024-08-21T17:18:13	25.3	41.5
81187	2024-08-21T17:28:13	25.2	41.5
81188	2024-08-21T17:38:13	24.8	43
81189	2024-08-21T17:48:13	24.5	43
81190	2024-08-21T17:58:13	23.9	45.5
81191	2024-08-21T18:08:13	23.7	45
81192	2024-08-21T18:18:13	23.2	46.5
81193	2024-08-21T18:28:13	23	54.5
81194	2024-08-21T18:38:13	22.9	55
81195	2024-08-21T18:48:13	22.6	56
81196	2024-08-21T18:58:13	22.3	56
81197	2024-08-21T19:08:13	22.1	56
81198	2024-08-21T19:18:13	21.8	56.5
81199	2024-08-21T19:28:13	21.5	57.5
81200	2024-08-21T19:38:13	21.5	59
81201	2024-08-21T19:48:13	21	57
81202	2024-08-21T19:58:13	20.9	60.5
81203	2024-08-21T20:08:13	20.7	61
81204	2024-08-21T20:18:13	20.4	62.5
81205	2024-08-21T20:28:13	20.3	62
81206	2024-08-21T20:38:13	20.1	62
81207	2024-08-21T20:48:13	19.8	62
81208	2024-08-21T20:58:13	19.6	63.5
81209	2024-08-21T21:08:13	19.6	64.5
81210	2024-08-21T21:18:13	19.3	65.5
81211	2024-08-21T21:28:13	19.1	65.5
81212	2024-08-21T21:38:13	18.9	67
81213	2024-08-21T21:48:13	18.7	67
81214	2024-08-21T21:58:13	18.6	67.5
81215	2024-08-21T22:08:13	18.4	68
81216	2024-08-21T22:18:13	18.2	68.5
81217	2024-08-21T22:28:13	18.1	69
81218	2024-08-21T22:38:13	18	69.5
81219	2024-08-21T22:48:13	17.8	70
81220	2024-08-21T22:58:13	17.6	70.5
81221	2024-08-21T23:31:51	17.5	70.5
81222	2024-08-21T23:32:01	17.4	70.5
81223	2024-08-21T23:32:02	17.3	71
81224	2024-08-21T23:38:12	17	71.5
81225	2024-08-21T23:48:13	17	72
81226	2024-08-21T23:58:13	16.9	71.5
81227	2024-08-22T00:08:12	16.8	72.5
81228	2024-08-22T00:18:12	16.7	73
81229	2024-08-22T00:28:12	16.6	73
81230	2024-08-22T00:38:12	16.5	73.5
81231	2024-08-22T00:48:12	16.3	74
81232	2024-08-22T00:58:12	16.3	74
81233	2024-08-22T01:08:12	16.1	74.5
81234	2024-08-22T01:18:12	16	74.5
81235	2024-08-22T01:28:12	16	74.5
81236	2024-08-22T01:38:12	16	75
81237	2024-08-22T01:48:12	15.8	75
81238	2024-08-22T01:58:12	15.7	75.5
81239	2024-08-22T02:08:12	15.6	75.5
81240	2024-08-22T02:18:12	15.6	75.5
81241	2024-08-22T02:28:12	15.4	76
81242	2024-08-22T02:38:12	15.4	76
81243	2024-08-22T02:48:12	15.3	76.5
81244	2024-08-22T02:58:12	15.1	76.5
81245	2024-08-22T03:08:12	15	76.5
81246	2024-08-22T03:18:12	15	76.5
81247	2024-08-22T03:28:12	14.9	77
81248	2024-08-22T03:38:12	14.7	77
81249	2024-08-22T03:48:12	14.8	77.5
81250	2024-08-22T03:58:12	14.7	77.5
81251	2024-08-22T04:08:12	14.6	78
81252	2024-08-22T04:18:12	14.5	78
81253	2024-08-22T04:28:12	14.4	78
81254	2024-08-22T04:38:12	14.4	78.5
81255	2024-08-22T04:48:12	14.3	79
81256	2024-08-22T04:58:12	14.3	78.5
81257	2024-08-22T05:08:12	14.2	78.5
81258	2024-08-22T05:18:13	14.3	79
81259	2024-08-22T05:28:12	14.2	79
81260	2024-08-22T05:38:12	14.2	79
81261	2024-08-22T05:48:12	14.3	79
81262	2024-08-22T05:58:12	14.5	78.5
81263	2024-08-22T06:08:12	14.7	78
81264	2024-08-22T06:18:12	14.8	77.5
81265	2024-08-22T06:28:12	14.9	78.5
81266	2024-08-22T06:38:12	15	77.5
81267	2024-08-22T06:48:12	15.2	77.5
81268	2024-08-22T06:58:12	15.4	77
81269	2024-08-22T07:08:12	15.5	77
81270	2024-08-22T07:18:12	15.6	76.5
81271	2024-08-22T07:28:12	15.7	77
81272	2024-08-22T07:38:12	15.8	76
81273	2024-08-22T07:48:12	15.8	76
81274	2024-08-22T07:58:12	15.9	75.5
81275	2024-08-22T08:08:12	16	75
81276	2024-08-22T08:18:12	16.1	75
81277	2024-08-22T08:48:12	16.7	74.5
81278	2024-08-22T08:58:12	16.8	76
81279	2024-08-22T09:08:12	17.1	74.5
81280	2024-08-22T09:18:12	17.3	74
81281	2024-08-22T09:28:12	17.6	71
81282	2024-08-22T09:38:12	17.7	70.5
81283	2024-08-22T09:48:12	17.9	70.5
81284	2024-08-22T09:58:12	18.2	69.5
81285	2024-08-22T10:08:12	18.5	68.5
81286	2024-08-22T10:18:12	18.8	66
81287	2024-08-22T10:28:12	19.1	63.5
81288	2024-08-22T10:38:12	19.3	61.5
81289	2024-08-22T10:48:12	19.4	64
81290	2024-08-22T10:58:12	19.6	63
81291	2024-08-22T11:08:12	19.9	62
81292	2024-08-22T11:18:12	20.2	60
81293	2024-08-22T11:28:11	20.5	60
81294	2024-08-22T11:38:11	20.6	62
81295	2024-08-22T11:48:11	21.1	58
81296	2024-08-22T11:58:11	21.5	58
81297	2024-08-22T12:08:11	21.9	55
81298	2024-08-22T12:18:11	22.7	55
81299	2024-08-22T12:28:11	26.2	46.5
81300	2024-08-22T12:38:11	27.9	44
81301	2024-08-22T12:48:11	29.3	42
81302	2024-08-22T12:58:11	30	38
81303	2024-08-22T13:08:11	30.3	39.5
81304	2024-08-22T13:18:11	30.3	38
81305	2024-08-22T13:28:11	30.8	37.5
81306	2024-08-22T13:38:11	31	36
81307	2024-08-22T13:48:11	31.5	36.5
81308	2024-08-22T13:58:11	31.5	36
81309	2024-08-22T14:08:11	31.5	37.5
81310	2024-08-22T14:18:11	31.8	36
81311	2024-08-22T14:28:11	32.2	34.5
81312	2024-08-22T14:38:11	32.6	34.5
81313	2024-08-22T14:48:11	32.6	35.5
81314	2024-08-22T14:58:11	33.4	32
81315	2024-08-22T15:08:11	32.3	33.5
81316	2024-08-22T15:18:11	33	33
81317	2024-08-22T15:28:11	33.7	30.5
81318	2024-08-22T15:38:11	33.5	30
81319	2024-08-22T15:48:11	33.6	29
81320	2024-08-22T15:58:11	32	31.5
81321	2024-08-22T16:08:11	32.3	33.5
81322	2024-08-22T16:18:11	32	34
81323	2024-08-22T16:28:11	32.7	33
81324	2024-08-22T16:38:11	32.4	33
81325	2024-08-22T16:48:11	31.6	35
81326	2024-08-22T16:58:11	31.6	37.5
81327	2024-08-22T17:08:11	30.6	37.5
81328	2024-08-22T17:18:11	30	38.5
81329	2024-08-22T17:28:11	30.2	39.5
81330	2024-08-22T17:38:11	29.7	41
81331	2024-08-22T17:48:11	29	47
81332	2024-08-22T17:58:11	28.8	50
81333	2024-08-22T18:08:11	28.3	51.5
81334	2024-08-22T18:18:11	27.8	52
81335	2024-08-22T18:28:11	27.2	53.5
81336	2024-08-22T18:38:11	26.8	54
81337	2024-08-22T18:48:11	26.3	54.5
81338	2024-08-22T18:58:11	25.8	56
81339	2024-08-22T19:08:11	25.5	57
81340	2024-08-22T19:18:11	25	57
81341	2024-08-22T19:28:11	24.7	58.5
81342	2024-08-22T19:38:11	24.5	58
81343	2024-08-22T19:48:11	24.1	59.5
81344	2024-08-22T19:58:11	23.6	61
81345	2024-08-22T20:08:11	23.4	61
81346	2024-08-22T20:18:11	23.2	62
81347	2024-08-22T20:28:11	22.8	62
81348	2024-08-22T20:38:11	22.6	62.5
81349	2024-08-22T20:48:11	22.2	63
81350	2024-08-22T20:58:11	22	64
81351	2024-08-22T21:08:11	21.9	64.5
81352	2024-08-22T21:18:11	21.7	65.5
81353	2024-08-22T21:28:11	21.5	65.5
81354	2024-08-22T21:38:10	21.5	66
81355	2024-08-22T21:48:10	21.1	66.5
81356	2024-08-22T21:58:10	21	67
81357	2024-08-22T22:08:10	20.8	67.5
81358	2024-08-22T22:18:10	20.5	68
81359	2024-08-22T22:28:10	20.3	68.5
81360	2024-08-22T22:38:10	20.2	68.5
81361	2024-08-22T22:48:10	20.1	69
81362	2024-08-22T22:58:10	19.9	69.5
81363	2024-08-22T23:32:21	19.8	70
81364	2024-08-22T23:32:21	19.6	70.5
81365	2024-08-22T23:32:23	19.5	71
81366	2024-08-22T23:38:10	19.3	71
81367	2024-08-22T23:48:10	19	71.5
81368	2024-08-22T23:58:10	19	71.5
81369	2024-08-23T00:08:10	18.8	72
81370	2024-08-23T00:18:10	18.7	72
81371	2024-08-23T00:28:10	18.5	72.5
81372	2024-08-23T00:38:10	18.3	72.5
81373	2024-08-23T00:48:10	18.2	73
81374	2024-08-23T00:58:10	18.1	73
81375	2024-08-23T01:08:10	18	73.5
81376	2024-08-23T01:18:10	17.9	73.5
81377	2024-08-23T01:28:10	17.7	74
81378	2024-08-23T01:38:10	17.5	74
81379	2024-08-23T01:48:10	17.5	74.5
81380	2024-08-23T01:58:10	17.3	74.5
81381	2024-08-23T02:08:10	17.2	74.5
81382	2024-08-23T02:18:10	17	75
81383	2024-08-23T02:28:10	16.8	75
81384	2024-08-23T02:38:10	16.7	75.5
81385	2024-08-23T02:48:10	16.5	75.5
81386	2024-08-23T02:58:10	16.4	75.5
81387	2024-08-23T03:08:10	16.3	76
81388	2024-08-23T03:18:10	16.1	75.5
81389	2024-08-23T03:28:10	16	76
81390	2024-08-23T03:38:10	16	76
81391	2024-08-23T03:48:10	15.8	76
81392	2024-08-23T03:58:10	15.8	76.5
81393	2024-08-23T04:08:10	15.6	76.5
81394	2024-08-23T04:18:10	15.6	76.5
81395	2024-08-23T04:28:10	15.4	76.5
81396	2024-08-23T04:38:29	15.3	76.5
81397	2024-08-23T04:48:10	15.3	77
81398	2024-08-23T04:58:10	15.1	77
81399	2024-08-23T05:08:10	15.2	77
81400	2024-08-23T05:18:10	15.2	77.5
81401	2024-08-23T05:28:10	15.2	77.5
81402	2024-08-23T05:38:10	15.2	78.5
81403	2024-08-23T05:48:10	15.3	78.5
81404	2024-08-23T05:58:10	15.3	78.5
81405	2024-08-23T06:08:10	15.4	78.5
81406	2024-08-23T06:18:10	15.6	78.5
81407	2024-08-23T06:28:10	15.7	79
81408	2024-08-23T06:38:10	15.7	78
81409	2024-08-23T06:48:10	15.9	77.5
81410	2024-08-23T06:58:10	16.1	76.5
81411	2024-08-23T07:08:10	16.1	75.5
81412	2024-08-23T07:18:10	16.3	77
81413	2024-08-23T07:28:10	16.5	77
81414	2024-08-23T07:38:10	16.6	76.5
81415	2024-08-23T07:48:10	16.8	75.5
81416	2024-08-23T07:58:10	17	77
81417	2024-08-23T08:08:10	17.2	76.5
81418	2024-08-23T08:18:10	17.5	77
81419	2024-08-23T08:28:10	17.8	75
81420	2024-08-23T08:38:10	18	75.5
81421	2024-08-23T08:48:10	18.2	75
81422	2024-08-23T08:58:10	18.6	76
81423	2024-08-23T09:08:10	18.8	77
81424	2024-08-23T09:18:10	19.6	69.5
81425	2024-08-23T09:28:10	20.9	62.5
81426	2024-08-23T09:38:09	21.8	59
81427	2024-08-23T09:48:09	22.2	58.5
81428	2024-08-23T09:58:09	22.6	56.5
81429	2024-08-23T10:08:09	23	56
81430	2024-08-23T10:18:09	23.3	55.5
81431	2024-08-23T10:28:09	23.8	53
81432	2024-08-23T10:38:10	24.2	52
81433	2024-08-23T10:48:09	24.6	49
81434	2024-08-23T10:58:09	25	48
81435	2024-08-23T11:08:09	25.2	47.5
81436	2024-08-23T11:18:09	25.4	47
81437	2024-08-23T11:28:09	25.7	46.5
81438	2024-08-23T11:38:09	26	45
81439	2024-08-23T11:48:09	26.2	44.5
81440	2024-08-23T11:58:09	26.4	45
81441	2024-08-23T12:08:09	26.7	45
81442	2024-08-23T12:18:09	27.5	43.5
81443	2024-08-23T12:28:09	30	39
81444	2024-08-23T12:38:09	30.7	37.5
81445	2024-08-23T12:48:09	31.4	37
81446	2024-08-23T12:58:09	32	37
81447	2024-08-23T13:08:09	32.2	36
81448	2024-08-23T13:18:09	32.4	36
81449	2024-08-23T13:28:09	33.2	34.5
81450	2024-08-23T13:38:09	33.5	35.5
81451	2024-08-23T13:48:09	33.8	35
81452	2024-08-23T13:58:09	34.4	33
81453	2024-08-23T14:08:09	34.2	34
81454	2024-08-23T14:18:09	34.6	34
81455	2024-08-23T14:28:09	34.5	33.5
81456	2024-08-23T14:38:09	34.7	33.5
81457	2024-08-23T14:48:09	34.5	33.5
81458	2024-08-23T14:58:09	34.8	33.5
81459	2024-08-23T15:08:09	35	34
81460	2024-08-23T15:18:09	34.9	33
81461	2024-08-23T15:28:09	35	34
81462	2024-08-23T15:38:09	35.6	34
81463	2024-08-23T15:48:09	34.7	35.5
81464	2024-08-23T15:58:09	34.7	35.5
81465	2024-08-23T16:08:09	34.8	35
81466	2024-08-23T16:18:09	34.3	34.5
81467	2024-08-23T16:28:09	35.5	34.5
81468	2024-08-23T16:38:09	34.6	34
81469	2024-08-23T16:48:09	33.9	34
81470	2024-08-23T16:58:09	33.1	35
81471	2024-08-23T17:08:09	32.1	37
81472	2024-08-23T17:18:09	31.7	37.5
81473	2024-08-23T17:28:09	30.8	40.5
81474	2024-08-23T17:38:09	30.9	41.5
81475	2024-08-23T17:48:09	30.5	44.5
81476	2024-08-23T17:58:09	30	45
81477	2024-08-23T18:08:09	29.8	48
81478	2024-08-23T18:18:09	29.5	50
81479	2024-08-23T18:28:09	29.1	51.5
81480	2024-08-23T18:38:09	28.6	49.5
81481	2024-08-23T18:48:09	28.2	52
81482	2024-08-23T18:58:09	28	52.5
81483	2024-08-23T19:08:09	27.6	52.5
81484	2024-08-23T19:18:09	27.2	53
81485	2024-08-23T19:28:09	27	56
81486	2024-08-23T19:38:09	26.6	57
81487	2024-08-23T19:48:08	26.5	58
81488	2024-08-23T19:58:08	26.2	58.5
81489	2024-08-23T20:08:08	25.9	59
81490	2024-08-23T20:18:09	25.7	60
81491	2024-08-23T20:28:08	25.4	60.5
81492	2024-08-23T20:38:08	25.3	61.5
81493	2024-08-23T20:48:08	25	61.5
81494	2024-08-23T20:58:08	24.8	62
81495	2024-08-23T21:08:08	24.7	63
81496	2024-08-23T21:18:08	24.4	63.5
81497	2024-08-23T21:28:08	24.3	64
81498	2024-08-23T21:38:08	24.1	64.5
81499	2024-08-23T21:48:08	23.8	65
81500	2024-08-23T21:58:08	23.7	65.5
81501	2024-08-23T22:08:08	23.4	66
81502	2024-08-23T22:18:08	23.3	66
81503	2024-08-23T22:28:08	23.2	66.5
81504	2024-08-23T22:38:08	22.9	67.5
81505	2024-08-23T22:48:08	22.8	67.5
81506	2024-08-23T22:58:08	22.7	68
81507	2024-08-23T23:30:28	22.6	68.5
81508	2024-08-23T23:30:29	22.2	69.5
81509	2024-08-23T23:30:29	22.4	69
81510	2024-08-23T23:38:08	22.1	70
81511	2024-08-23T23:48:08	22	70
81512	2024-08-23T23:58:08	21.8	70.5
81513	2024-08-24T00:08:08	21.7	71
81514	2024-08-24T00:18:08	21.5	71
81515	2024-08-24T00:28:08	21.5	71.5
81516	2024-08-24T00:38:08	21.3	72
81517	2024-08-24T00:48:08	21.1	72
81518	2024-08-24T00:58:08	21.1	72.5
81519	2024-08-24T01:08:08	20.9	72.5
81520	2024-08-24T01:18:08	20.9	73
81521	2024-08-24T01:28:08	20.7	73.5
81522	2024-08-24T01:38:08	20.5	73.5
81523	2024-08-24T01:48:08	20.4	73.5
81524	2024-08-24T01:58:08	20.3	74
81525	2024-08-24T02:08:08	20.1	74.5
81526	2024-08-24T02:18:08	20.1	74.5
81527	2024-08-24T02:28:08	20	74.5
81528	2024-08-24T02:38:08	20	74.5
81529	2024-08-24T02:48:08	19.9	75
81530	2024-08-24T02:58:08	19.8	75.5
81531	2024-08-24T03:08:08	19.7	75.5
81532	2024-08-24T03:18:08	19.5	76
81533	2024-08-24T03:28:08	19.5	76
81534	2024-08-24T03:38:08	19.3	76
81535	2024-08-24T03:48:08	19.2	76.5
81536	2024-08-24T03:58:08	19.2	77
81537	2024-08-24T04:08:08	18.9	77.5
81538	2024-08-24T04:18:08	18.9	77.5
81539	2024-08-24T04:28:08	18.8	77.5
81540	2024-08-24T04:38:08	18.8	78
81541	2024-08-24T04:48:08	18.7	78.5
81542	2024-08-24T04:58:08	18.7	78.5
81543	2024-08-24T05:08:08	18.6	78.5
81544	2024-08-24T05:18:08	18.6	78.5
81545	2024-08-24T05:28:08	18.5	78.5
81546	2024-08-24T05:38:08	18.6	79.5
81547	2024-08-24T05:48:08	18.7	79
81548	2024-08-24T05:58:08	18.7	79.5
81549	2024-08-24T06:08:08	18.8	79.5
81550	2024-08-24T06:18:08	18.8	80
81551	2024-08-24T06:28:08	19.1	80
81552	2024-08-24T06:38:07	19.1	80
81553	2024-08-24T06:48:07	19.2	80
81554	2024-08-24T06:58:07	19.4	79
81555	2024-08-24T07:08:07	19.5	79.5
81556	2024-08-24T07:18:07	19.7	78.5
81557	2024-08-24T07:28:07	19.7	78.5
81558	2024-08-24T07:38:07	20	78
81559	2024-08-24T07:48:07	20.1	77.5
81560	2024-08-24T07:58:07	20.3	77.5
81561	2024-08-24T08:08:07	20.7	77
81562	2024-08-24T08:18:07	20.7	78.5
81563	2024-08-24T08:28:07	21	79.5
81564	2024-08-24T08:38:07	21.2	78.5
81565	2024-08-24T08:48:07	21.4	80
81566	2024-08-24T08:58:07	21.7	77.5
81567	2024-08-24T09:08:07	22	78
81568	2024-08-24T09:18:07	22	77.5
81569	2024-08-24T09:28:07	22.1	75
81570	2024-08-24T09:38:07	22.3	73.5
81571	2024-08-24T09:48:07	22.5	72
81572	2024-08-24T09:58:07	22.7	73
81573	2024-08-24T10:08:07	22.9	73.5
81574	2024-08-24T10:18:07	23.3	71.5
81575	2024-08-24T10:28:07	23.5	69.5
81576	2024-08-24T10:38:07	23.9	67
81577	2024-08-24T10:48:07	24.1	66
81578	2024-08-24T10:58:07	24.3	67.5
81579	2024-08-24T11:08:07	24.6	65
81580	2024-08-24T11:18:07	25.3	65.5
81581	2024-08-24T11:28:07	25.6	63.5
81582	2024-08-24T11:38:07	26	61.5
81583	2024-08-24T11:48:07	26.4	59
81584	2024-08-24T11:58:07	26.9	58.5
81585	2024-08-24T12:08:07	27.4	58.5
81586	2024-08-24T12:18:07	28.6	53.5
81587	2024-08-24T12:28:07	32.3	45.5
81588	2024-08-24T12:38:07	34.5	42
81589	2024-08-24T12:48:07	35.7	41
81590	2024-08-24T12:58:07	37.3	38.5
81591	2024-08-24T13:08:07	38.5	38.5
81592	2024-08-24T13:18:07	39.7	35.5
81593	2024-08-24T13:28:07	40.7	34.5
81594	2024-08-24T13:38:07	41.5	34.5
81595	2024-08-24T13:48:07	42.3	31.5
81596	2024-08-24T13:58:07	42.6	30
81597	2024-08-24T14:08:07	43.4	32.5
81598	2024-08-24T14:18:07	42.7	27
81599	2024-08-24T14:28:07	41.9	27
81600	2024-08-24T14:38:07	41.4	29
81601	2024-08-24T14:48:07	40.3	30.5
81602	2024-08-24T14:58:07	40.5	31.5
81603	2024-08-24T15:08:07	38.9	32.5
81604	2024-08-24T15:18:07	38.2	34
81605	2024-08-24T15:28:07	39	35
81606	2024-08-24T15:38:07	39.5	39.5
81607	2024-08-24T15:48:07	40.3	39.5
81608	2024-08-24T15:58:07	42	37.5
81609	2024-08-24T16:08:07	42.9	35
81610	2024-08-24T16:18:07	43.1	36
81611	2024-08-24T16:28:07	43.2	34.5
81612	2024-08-24T16:38:07	43.5	35.5
81613	2024-08-24T16:48:07	43.2	35
81614	2024-08-24T16:58:07	42.5	36.5
81615	2024-08-24T17:08:07	41.2	39
81616	2024-08-24T17:18:07	40.1	42.5
81617	2024-08-24T17:28:07	39.1	44
81618	2024-08-24T17:38:07	38.1	45.5
81619	2024-08-24T17:48:07	37.2	48
81620	2024-08-24T17:58:07	36.3	49
81621	2024-08-24T18:08:07	35.5	48
81622	2024-08-24T18:18:06	34.9	48
81623	2024-08-24T18:28:06	34.3	50
81624	2024-08-24T18:38:06	33.8	51
81625	2024-08-24T18:48:06	33	50
81626	2024-08-24T18:58:06	32	47.5
81627	2024-08-24T19:08:06	31.8	49.5
81628	2024-08-24T19:18:06	31.2	48
81629	2024-08-24T19:28:06	31	47.5
81630	2024-08-24T19:38:06	31	50.5
81631	2024-08-24T19:48:06	30.8	50.5
81632	2024-08-24T19:58:06	30.6	50.5
81633	2024-08-24T20:08:07	30.2	51.5
81634	2024-08-24T20:18:06	29.8	48.5
81635	2024-08-24T20:28:06	28.8	59.5
81636	2024-08-24T20:38:06	26.6	57.5
81637	2024-08-24T20:48:06	27.3	57.5
81638	2024-08-24T20:58:06	27.8	53.5
81639	2024-08-24T21:08:06	28.2	49.5
81640	2024-08-24T21:18:06	28.2	49
81641	2024-08-24T21:28:06	28.1	48
81642	2024-08-24T21:38:06	27.7	49.5
81643	2024-08-24T21:48:06	27.4	51.5
81644	2024-08-24T21:58:06	27	53.5
81645	2024-08-24T22:08:06	26.7	55
81646	2024-08-24T22:18:06	26	59.5
81647	2024-08-24T22:28:06	25.8	60.5
81648	2024-08-24T22:38:06	23.9	86
81649	2024-08-24T22:48:06	22.1	97.5
81650	2024-08-24T22:58:06	21.6	93.5
81651	2024-08-24T23:29:38	20.7	100
81652	2024-08-24T23:29:39	20.8	100
81653	2024-08-24T23:29:39	20.9	99.5
81654	2024-08-24T23:38:06	20.8	100
81655	2024-08-24T23:48:06	21	100
81656	2024-08-24T23:58:06	20.5	100
81657	2024-08-25T00:08:06	20.6	100
81658	2024-08-25T00:18:06	20.6	100
81659	2024-08-25T00:28:06	20.9	100
81660	2024-08-25T00:38:06	20.6	100
81661	2024-08-25T00:48:06	20.5	100
81662	2024-08-25T00:58:06	20.3	100
81663	2024-08-25T01:08:06	19.6	100
81664	2024-08-25T01:18:06	19	100
81665	2024-08-25T01:28:06	19	94
81666	2024-08-25T01:38:06	18.9	94
81667	2024-08-25T01:48:06	18.6	94
81668	2024-08-25T01:58:06	18	94
81669	2024-08-25T02:08:06	17.9	94.5
81670	2024-08-25T02:18:06	17.9	94
81671	2024-08-25T02:28:06	17.5	94
81672	2024-08-25T02:38:06	17.7	94.5
81673	2024-08-25T02:48:06	17.5	94.5
81674	2024-08-25T02:58:06	17.3	94.5
81675	2024-08-25T03:08:06	17.4	94.5
81676	2024-08-25T03:18:06	17.3	94.5
81677	2024-08-25T03:28:06	17	94.5
81678	2024-08-25T03:38:06	17.2	94.5
81679	2024-08-25T03:48:06	17	94.5
81680	2024-08-25T03:58:24	16.9	94.5
81681	2024-08-25T04:08:06	17	94.5
81682	2024-08-25T04:18:06	16.9	94.5
81683	2024-08-25T04:28:06	16.9	94.5
81684	2024-08-25T04:38:06	16.8	94.5
81685	2024-08-25T04:48:06	16.5	94.5
81686	2024-08-25T04:58:05	16.3	94.5
81687	2024-08-25T05:08:05	16.2	94.5
81688	2024-08-25T05:18:05	16.2	94.5
81689	2024-08-25T05:38:05	15.9	95
81690	2024-08-25T05:48:05	15.8	95
81691	2024-08-25T05:58:05	15.7	95
81692	2024-08-25T06:08:05	15.5	95
81693	2024-08-25T06:18:05	15.6	95
81694	2024-08-25T06:28:05	15.5	95
81695	2024-08-25T06:38:05	15.4	95
81696	2024-08-25T06:48:05	15.4	95
81697	2024-08-25T06:58:05	15.4	95
81698	2024-08-25T07:08:05	15.7	95
81699	2024-08-25T07:18:05	15.6	95
81700	2024-08-25T07:28:05	15.6	95
81701	2024-08-25T07:38:05	15.6	95
81702	2024-08-25T07:48:05	15.7	95
81703	2024-08-25T07:58:05	15.8	95
81704	2024-08-25T08:08:05	15.9	95
81705	2024-08-25T08:18:05	16	95
81706	2024-08-25T08:28:05	16.2	95
81707	2024-08-25T08:38:05	16.2	95
81708	2024-08-25T08:48:05	16.6	95
81709	2024-08-25T08:58:05	16.9	95
81710	2024-08-25T09:08:05	17.3	95
81711	2024-08-25T09:18:05	17.6	95
81712	2024-08-25T09:28:05	17.8	95.5
81713	2024-08-25T09:38:05	17.8	95.5
81714	2024-08-25T09:48:05	18.1	95.5
81715	2024-08-25T09:58:05	18.5	95
81716	2024-08-25T10:08:05	18.6	95.5
81717	2024-08-25T10:18:05	18.7	95.5
81718	2024-08-25T10:28:05	18.7	95.5
81719	2024-08-25T10:38:05	19	95.5
81720	2024-08-25T10:48:05	19.2	95.5
81721	2024-08-25T10:58:05	19.2	95.5
81722	2024-08-25T11:08:05	19.4	95.5
81723	2024-08-25T11:18:05	19.6	95.5
81724	2024-08-25T11:28:05	19.9	95.5
81725	2024-08-25T11:38:05	19.9	95.5
81726	2024-08-25T11:48:05	20.3	95.5
81727	2024-08-25T11:58:05	20.5	98.5
81728	2024-08-25T12:08:05	20.9	100
81729	2024-08-25T12:28:05	23.9	98
81730	2024-08-25T12:38:05	24.5	99
81731	2024-08-25T12:48:05	26.3	97.5
81732	2024-08-25T12:58:05	25	92.5
81733	2024-08-25T13:08:05	27.3	43
81734	2024-08-25T13:18:05	28.4	40.5
81735	2024-08-25T13:28:05	29.4	39
81736	2024-08-25T13:38:05	28.8	42
81737	2024-08-25T13:48:05	29.3	36.5
81738	2024-08-25T13:58:05	29.8	38.5
81739	2024-08-25T14:08:05	28.9	36.5
81740	2024-08-25T14:18:05	29.1	36
81741	2024-08-25T14:28:05	30.4	36.5
81742	2024-08-25T14:38:05	32.1	30.5
81743	2024-08-25T14:48:05	32.5	29
81744	2024-08-25T14:58:05	31.9	33
81745	2024-08-25T15:08:05	31.6	33.5
81746	2024-08-25T15:18:05	31.2	31.5
81747	2024-08-25T15:28:05	30.2	34
81748	2024-08-25T15:38:05	31.1	34.5
81749	2024-08-25T15:48:05	32.4	33.5
81750	2024-08-25T15:58:04	33.1	29
81751	2024-08-25T16:08:04	32	29.5
81752	2024-08-25T16:18:04	31.6	32.5
81753	2024-08-25T16:28:04	32.1	29
81754	2024-08-25T16:38:05	32	29
81755	2024-08-25T16:48:04	32.9	34
81756	2024-08-25T16:58:04	33.1	35
81757	2024-08-25T17:08:04	31.6	34.5
81758	2024-08-25T17:18:04	30.3	37.5
81759	2024-08-25T17:28:04	29.2	42
81760	2024-08-25T17:38:04	28.5	43.5
81761	2024-08-25T17:48:04	27.5	40.5
81762	2024-08-25T17:58:04	26.9	48.5
81763	2024-08-25T18:08:04	26.1	52
81764	2024-08-25T18:18:04	25.4	53.5
81765	2024-08-25T18:28:04	24.7	57
81766	2024-08-25T18:38:04	24.3	62
81767	2024-08-25T18:48:04	24	61.5
81768	2024-08-25T18:58:04	23.5	58
81769	2024-08-25T19:08:04	23.2	62.5
81770	2024-08-25T19:18:04	22.8	65.5
81771	2024-08-25T19:28:04	22.5	66
81772	2024-08-25T19:38:04	22.1	65
81773	2024-08-25T19:48:04	21.7	62
81774	2024-08-25T19:58:04	21.3	65.5
81775	2024-08-25T20:08:04	21.2	66.5
81776	2024-08-25T20:18:04	20.8	65
81777	2024-08-25T20:28:04	20.3	64
81778	2024-08-25T20:38:04	20.1	69.5
81779	2024-08-25T20:48:04	20	70
81780	2024-08-25T20:58:04	19.8	71
81781	2024-08-25T21:08:04	19.6	68
81782	2024-08-25T21:18:04	19.5	69.5
81783	2024-08-25T21:28:04	19.1	71.5
81784	2024-08-25T21:38:04	19	73
81785	2024-08-25T21:48:04	18.8	74
81786	2024-08-25T21:58:04	18.7	74.5
81787	2024-08-25T22:08:04	18.5	75
81788	2024-08-25T22:18:04	18.2	75
81789	2024-08-25T22:28:04	18	75.5
81790	2024-08-25T22:38:04	17.9	76
81791	2024-08-25T22:48:04	17.7	76.5
81792	2024-08-25T22:58:04	17.6	76.5
81793	2024-08-25T23:31:57	17.4	76.5
81794	2024-08-25T23:31:57	17.3	77
81795	2024-08-25T23:31:57	17	77
81796	2024-08-25T23:38:04	16.9	78
81797	2024-08-25T23:48:04	17	77.5
81798	2024-08-25T23:58:04	16.9	78
81799	2024-08-26T00:08:04	16.9	78.5
81800	2024-08-26T00:18:04	16.8	78
81801	2024-08-26T00:28:04	16.7	79
81802	2024-08-26T00:38:04	16.4	78
81803	2024-08-26T00:48:04	16.1	78.5
81804	2024-08-26T00:58:04	15.9	79
81805	2024-08-26T01:08:04	15.8	80.5
81806	2024-08-26T01:18:04	15.7	81
81807	2024-08-26T01:28:04	15.4	79
81808	2024-08-26T01:38:04	15.4	80
81809	2024-08-26T01:48:04	15.3	80
81810	2024-08-26T01:58:04	15.2	79
81811	2024-08-26T02:08:04	15	81
81812	2024-08-26T02:18:04	14.9	81
81813	2024-08-26T02:28:04	14.7	81
81814	2024-08-26T02:38:04	14.6	80.5
81815	2024-08-26T02:48:04	14.4	81.5
81816	2024-08-26T02:58:04	14.4	80.5
81817	2024-08-26T03:08:04	14.4	81.5
81818	2024-08-26T03:18:04	14.2	81.5
81819	2024-08-26T03:28:03	14.1	81.5
81820	2024-08-26T03:38:03	13.9	83
81821	2024-08-26T03:48:03	13.9	83
81822	2024-08-26T03:58:03	13.7	83
81823	2024-08-26T04:08:03	13.7	83.5
81824	2024-08-26T04:18:03	13.5	83
81825	2024-08-26T04:28:03	13.5	84
81826	2024-08-26T04:38:03	13.3	83
81827	2024-08-26T04:48:03	13.3	84.5
81828	2024-08-26T04:58:03	13.4	84
81829	2024-08-26T05:08:03	13.3	84.5
81830	2024-08-26T05:18:03	13.2	84.5
81831	2024-08-26T05:28:03	13.2	85
81832	2024-08-26T05:38:03	13.3	85
81833	2024-08-26T05:48:03	13.6	85
81834	2024-08-26T05:58:03	13.9	84.5
81835	2024-08-26T06:08:03	14	84
81836	2024-08-26T06:18:03	14.1	83.5
81837	2024-08-26T06:28:03	14	83.5
81838	2024-08-26T06:38:03	14.1	84
81839	2024-08-26T06:48:03	14.1	83.5
81840	2024-08-26T06:58:03	14.3	83.5
81841	2024-08-26T07:08:03	14.4	83
81842	2024-08-26T07:18:03	14.5	82
81843	2024-08-26T07:28:03	14.8	82.5
81844	2024-08-26T07:38:03	15	81
81845	2024-08-26T07:48:03	15.1	79.5
81846	2024-08-26T07:58:03	15.3	78.5
81847	2024-08-26T08:08:03	15.6	77
81848	2024-08-26T08:18:03	15.6	75
81849	2024-08-26T08:28:03	15.9	75
81850	2024-08-26T08:38:03	16.1	73.5
81851	2024-08-26T08:48:03	16.3	72.5
81852	2024-08-26T08:58:03	16.4	72.5
81853	2024-08-26T09:08:03	16.7	70.5
81854	2024-08-26T09:18:03	16.9	71
81855	2024-08-26T09:28:03	17.1	69.5
81856	2024-08-26T09:38:03	17.4	69.5
81857	2024-08-26T09:48:03	17.5	68.5
81858	2024-08-26T09:58:03	17.8	66.5
81859	2024-08-26T10:08:03	17.9	69.5
81860	2024-08-26T10:18:03	18.1	68
81861	2024-08-26T10:28:03	18.4	66.5
81862	2024-08-26T10:38:03	18.6	67
81863	2024-08-26T10:48:03	18.7	66
81864	2024-08-26T10:58:03	19.1	67
81865	2024-08-26T11:08:03	19.3	65.5
81866	2024-08-26T11:18:03	19.5	65
81867	2024-08-26T11:28:03	19.6	64
81868	2024-08-26T11:38:03	20	64.5
81869	2024-08-26T11:48:03	20.3	62.5
81870	2024-08-26T11:58:03	20.7	62
81871	2024-08-26T12:08:03	21.2	60.5
81872	2024-08-26T12:18:03	22.5	58
81873	2024-08-26T12:28:03	26.6	48.5
81874	2024-08-26T12:38:03	29	44
81875	2024-08-26T12:48:03	30.3	39
81876	2024-08-26T12:58:03	31.6	39
81877	2024-08-26T13:08:03	32.9	36.5
81878	2024-08-26T13:18:03	33.9	32.5
81879	2024-08-26T13:28:03	34.6	35
81880	2024-08-26T13:38:03	33.8	32
81881	2024-08-26T13:48:03	35.4	34.5
81882	2024-08-26T13:58:03	34.4	35
81883	2024-08-26T14:08:03	35.5	34
81884	2024-08-26T14:18:03	36.5	32
81885	2024-08-26T14:28:03	37.4	32.5
81886	2024-08-26T14:38:03	38.1	29.5
81887	2024-08-26T14:48:03	38.6	30
81888	2024-08-26T14:58:03	38.3	27
81889	2024-08-26T15:08:03	38.1	28.5
81890	2024-08-26T15:18:03	38.1	28
81891	2024-08-26T15:28:03	37.9	29.5
81892	2024-08-26T15:38:02	37.7	28.5
81893	2024-08-26T15:48:02	37.3	27.5
81894	2024-08-26T15:58:02	37.4	29.5
81895	2024-08-26T16:08:02	37.3	30
81896	2024-08-26T16:18:02	37.7	29
81897	2024-08-26T16:28:02	37.6	31.5
81898	2024-08-26T16:38:02	36.9	28.5
81899	2024-08-26T16:48:02	36.5	30
81900	2024-08-26T16:58:02	35.5	31.5
81901	2024-08-26T17:08:02	34	31.5
81902	2024-08-26T17:18:02	32.7	36.5
81903	2024-08-26T17:28:02	31.7	35
81904	2024-08-26T17:38:02	31.1	39.5
81905	2024-08-26T17:48:02	30.1	42
81906	2024-08-26T17:58:02	29.5	44.5
81907	2024-08-26T18:08:02	29	48
81908	2024-08-26T18:18:02	28.3	51.5
81909	2024-08-26T18:28:02	27.8	52.5
81910	2024-08-26T18:38:02	27.2	53.5
81911	2024-08-26T18:48:02	26.8	54.5
81912	2024-08-26T18:58:02	26.2	55.5
81913	2024-08-26T19:18:02	25.3	57.5
81914	2024-08-26T19:28:02	25	57.5
81915	2024-08-26T19:38:02	24.6	58
81916	2024-08-26T19:48:02	24.3	58.5
81917	2024-08-26T19:58:02	24	59.5
81918	2024-08-26T20:08:02	23.6	60
81919	2024-08-26T20:18:02	23.2	60
81920	2024-08-26T20:28:02	22.9	61
81921	2024-08-26T20:38:02	22.5	60
81922	2024-08-26T20:48:02	22.1	61.5
81923	2024-08-26T20:58:02	22	62
81924	2024-08-26T21:08:02	21.6	62.5
81925	2024-08-26T21:18:02	21.5	63
81926	2024-08-26T21:28:02	21.2	62
81927	2024-08-26T21:38:02	20.9	63
81928	2024-08-26T21:48:02	20.8	64.5
81929	2024-08-26T21:58:02	20.6	64
81930	2024-08-26T22:08:02	20.4	65.5
81931	2024-08-26T22:18:02	20.1	65.5
81932	2024-08-26T22:28:02	19.9	65.5
81933	2024-08-26T22:38:02	19.6	67
81934	2024-08-26T22:48:02	19.4	67.5
81935	2024-08-26T22:58:02	19.3	67.5
81936	2024-08-26T23:31:38	18.9	68
81937	2024-08-26T23:31:38	19	66.5
81938	2024-08-26T23:31:38	18.6	67.5
81939	2024-08-26T23:38:02	18.5	68.5
81940	2024-08-26T23:48:02	18.3	68.5
81941	2024-08-26T23:58:02	18.1	69
81942	2024-08-27T00:08:02	17.7	70
81943	2024-08-27T00:18:02	17.5	70
81944	2024-08-27T00:28:02	17.5	69.5
81945	2024-08-27T00:38:02	17.3	69.5
81946	2024-08-27T00:48:02	17.2	70.5
81947	2024-08-27T00:58:02	17.1	71
81948	2024-08-27T01:08:02	17.1	71
81949	2024-08-27T01:18:02	16.9	70.5
81950	2024-08-27T01:28:02	16.7	72
81951	2024-08-27T01:38:02	16.5	72.5
81952	2024-08-27T01:48:02	16.4	72.5
81953	2024-08-27T01:58:02	16.2	73
81954	2024-08-27T02:08:02	16.3	73.5
81955	2024-08-27T02:18:02	16.2	73.5
81956	2024-08-27T02:28:02	16	74
81957	2024-08-27T02:38:01	15.9	74.5
81958	2024-08-27T02:48:01	15.9	74.5
81959	2024-08-27T02:58:01	15.5	74.5
81960	2024-08-27T03:08:01	15.4	75
81961	2024-08-27T03:18:01	15.2	75.5
81962	2024-08-27T03:28:01	15.1	76
81963	2024-08-27T03:38:01	15.1	76
81964	2024-08-27T03:48:01	15	77
81965	2024-08-27T03:58:01	15	77
81966	2024-08-27T04:08:01	15	77
81967	2024-08-27T04:18:01	14.9	77
81968	2024-08-27T04:28:01	14.7	77
81969	2024-08-27T04:38:01	14.7	77.5
81970	2024-08-27T04:48:01	14.5	78
81971	2024-08-27T04:58:01	14.5	78.5
81972	2024-08-27T05:08:01	14.5	78.5
81973	2024-08-27T05:18:01	14.7	79
81974	2024-08-27T05:28:01	14.5	79
81975	2024-08-27T05:38:01	14.6	79
81976	2024-08-27T05:48:01	14.7	79.5
81977	2024-08-27T05:58:01	14.8	80
81978	2024-08-27T06:08:01	14.8	80
81979	2024-08-27T06:18:01	15	79.5
81980	2024-08-27T06:28:01	15.1	79.5
81981	2024-08-27T06:38:01	15.1	80
81982	2024-08-27T06:48:01	15.4	80
81983	2024-08-27T06:58:01	15.6	80
81984	2024-08-27T07:08:01	15.8	80
81985	2024-08-27T07:18:01	15.9	80
81986	2024-08-27T07:28:01	16.1	80
81987	2024-08-27T07:38:01	16.4	79.5
81988	2024-08-27T07:48:01	16.5	79
81989	2024-08-27T07:58:01	16.7	78
81990	2024-08-27T08:18:01	17.3	77.5
81991	2024-08-27T08:28:01	17.4	77.5
81992	2024-08-27T08:38:01	17.6	77.5
81993	2024-08-27T08:48:01	17.9	76.5
81994	2024-08-27T08:58:01	18.1	76
81995	2024-08-27T09:08:01	18.5	74.5
81996	2024-08-27T09:18:01	18.6	74
81997	2024-08-27T09:38:01	19.3	71
81998	2024-08-27T09:48:01	19.6	70.5
81999	2024-08-27T09:58:01	20	69
82000	2024-08-27T10:08:01	20.1	69
82001	2024-08-27T10:18:01	20.6	69
82002	2024-08-27T10:28:01	20.9	66
82003	2024-08-27T10:38:01	21.1	66
82004	2024-08-27T10:48:01	21.5	62
82005	2024-08-27T10:58:01	21.8	63
82006	2024-08-27T11:08:01	22	61
82007	2024-08-27T11:18:01	22.3	62
82008	2024-08-27T11:28:01	22.4	62.5
82009	2024-08-27T11:38:01	22.7	60
82010	2024-08-27T11:48:01	23	62
82011	2024-08-27T11:58:01	23.4	61
82012	2024-08-27T12:08:01	24.1	59.5
82013	2024-08-27T12:18:01	25.5	58
82014	2024-08-27T12:28:01	29.3	48
82015	2024-08-27T12:38:01	31.2	43
82016	2024-08-27T12:58:01	33.6	38
82017	2024-08-27T13:08:01	34.6	36.5
82018	2024-08-27T13:18:01	35.2	35
82019	2024-08-27T13:28:01	36.1	35.5
82020	2024-08-27T13:38:01	36.7	34.5
82021	2024-08-27T13:48:01	37.4	34.5
82022	2024-08-27T13:58:01	38.5	33.5
82023	2024-08-27T14:08:01	39.1	32.5
82024	2024-08-27T14:18:01	39.4	31
82025	2024-08-27T14:28:01	39.9	30
82026	2024-08-27T14:38:00	40.4	32
82027	2024-08-27T14:48:00	40.7	31
82028	2024-08-27T14:58:00	41.3	31
82029	2024-08-27T15:08:01	41.4	29.5
82030	2024-08-27T15:18:00	41	28.5
82031	2024-08-27T15:28:00	41	29
82032	2024-08-27T15:38:00	41	30.5
82033	2024-08-27T15:48:00	40.9	29.5
82034	2024-08-27T15:58:00	40.6	30
82035	2024-08-27T16:08:00	40.5	31
82036	2024-08-27T16:18:00	40.6	30
82037	2024-08-27T16:28:00	40.2	32
82038	2024-08-27T16:38:00	39.9	30.5
82039	2024-08-27T16:48:00	39	34.5
82040	2024-08-27T16:58:00	38.7	35
82041	2024-08-27T17:08:00	36.8	35
82042	2024-08-27T17:18:00	35.6	39
82043	2024-08-27T17:28:00	34.8	38.5
82044	2024-08-27T17:38:00	33.8	41
82045	2024-08-27T17:48:00	33	43.5
82046	2024-08-27T17:58:00	32.2	43
82047	2024-08-27T18:08:00	31.5	45
82048	2024-08-27T18:18:00	30.8	45.5
82049	2024-08-27T18:28:00	30.5	49
82050	2024-08-27T18:38:00	30.2	52
82051	2024-08-27T18:48:00	29.5	52
82052	2024-08-27T18:58:00	29.2	55
82053	2024-08-27T19:08:00	28.8	55
82054	2024-08-27T19:18:00	28.3	56
82055	2024-08-27T19:28:00	27.7	56
82056	2024-08-27T19:38:00	27.3	58
82057	2024-08-27T19:48:00	27.1	57.5
82058	2024-08-27T19:58:00	26.8	59
82059	2024-08-27T20:08:00	26.5	60
82060	2024-08-27T20:18:00	26.3	61
82061	2024-08-27T20:28:00	25.9	62
82062	2024-08-27T20:38:00	25.8	62
82063	2024-08-27T20:48:00	25.5	63
82064	2024-08-27T20:58:00	25.1	64
82065	2024-08-27T21:08:00	24.9	64.5
82066	2024-08-27T21:18:00	24.7	65.5
82067	2024-08-27T21:28:00	24.4	65.5
82068	2024-08-27T21:38:00	24.1	65.5
82069	2024-08-27T21:48:00	23.9	67
82070	2024-08-27T21:58:00	23.9	67.5
82071	2024-08-27T22:08:00	23.6	68
82072	2024-08-27T22:18:00	23.5	68.5
82073	2024-08-27T22:28:00	23.3	69
82074	2024-08-27T22:38:00	23.2	69
82075	2024-08-27T22:48:00	22.9	69.5
82076	2024-08-27T22:58:00	22.7	70
82077	2024-08-27T23:31:39	22.6	70.5
82078	2024-08-27T23:31:39	22.4	71
82079	2024-08-27T23:31:39	22.2	71.5
82080	2024-08-27T23:38:00	22.1	72
82081	2024-08-27T23:48:00	21.8	72.5
82082	2024-08-27T23:58:00	21.7	72.5
82083	2024-08-28T00:08:00	21.6	73
82084	2024-08-28T00:18:00	21.5	73
82085	2024-08-28T00:28:00	21.2	73.5
82086	2024-08-28T00:38:00	21.2	74
82087	2024-08-28T00:48:00	21	74
82088	2024-08-28T00:58:00	21	74.5
82089	2024-08-28T01:08:00	20.9	74.5
82090	2024-08-28T01:18:00	20.8	75
82091	2024-08-28T01:28:00	20.6	75
82092	2024-08-28T01:37:59	20.4	75.5
82093	2024-08-28T01:47:59	20.3	76
82094	2024-08-28T01:57:59	20.2	76
82095	2024-08-28T02:07:59	20.1	76.5
82096	2024-08-28T02:17:59	20.1	77
82097	2024-08-28T02:27:59	19.7	78
82098	2024-08-28T02:37:59	19.6	78
82099	2024-08-28T02:47:59	19.5	78.5
82100	2024-08-28T02:57:59	19.4	78.5
82101	2024-08-28T03:07:59	19.3	78.5
82102	2024-08-28T03:17:59	19.1	79
82103	2024-08-28T03:27:59	19	79
82104	2024-08-28T03:38:20	18.9	79
82105	2024-08-28T03:47:59	18.7	79.5
82106	2024-08-28T03:57:59	18.7	79.5
82107	2024-08-28T04:07:59	18.6	79.5
82108	2024-08-28T04:17:59	18.5	80
82109	2024-08-28T04:27:59	18.4	79.5
82110	2024-08-28T04:37:59	18.2	79.5
82111	2024-08-28T04:47:59	18.1	80
82112	2024-08-28T04:57:59	18	80
82113	2024-08-28T05:07:59	18	80
82114	2024-08-28T05:17:59	17.9	80
82115	2024-08-28T05:27:59	17.9	81
82116	2024-08-28T05:37:59	18	81
82117	2024-08-28T05:47:59	17.9	81.5
82118	2024-08-28T05:57:59	18	82.5
82119	2024-08-28T06:07:59	18.1	82.5
82120	2024-08-28T06:17:59	18.1	84
82121	2024-08-28T06:27:59	18.2	83.5
82122	2024-08-28T06:37:59	18.4	84
82123	2024-08-28T06:47:59	18.4	84.5
82124	2024-08-28T06:57:59	18.4	85
82125	2024-08-28T07:07:59	18.6	85.5
82126	2024-08-28T07:17:59	18.7	84.5
82127	2024-08-28T07:27:59	18.8	85.5
82128	2024-08-28T07:37:59	18.9	85
82129	2024-08-28T07:47:59	19.2	84.5
82130	2024-08-28T07:57:59	19.4	84.5
82131	2024-08-28T08:07:59	19.5	84.5
82132	2024-08-28T08:17:59	19.7	84
82133	2024-08-28T08:27:59	19.8	84
82134	2024-08-28T08:37:59	20	83.5
82135	2024-08-28T08:47:59	20.1	84.5
82136	2024-08-28T08:57:59	20.3	84.5
82137	2024-08-28T09:07:59	20.5	84.5
82138	2024-08-28T09:17:59	20.7	84
82139	2024-08-28T09:27:59	21	83
82140	2024-08-28T09:37:59	21.2	82
82141	2024-08-28T09:47:59	21.4	82.5
82142	2024-08-28T09:57:59	21.5	82
82143	2024-08-28T10:07:59	21.8	81.5
82144	2024-08-28T10:17:59	22	82
82145	2024-08-28T10:27:59	22.2	81
82146	2024-08-28T10:37:59	22.7	79
82147	2024-08-28T10:47:59	22.9	78
82148	2024-08-28T10:57:59	23.3	75.5
82149	2024-08-28T11:07:59	23.6	75.5
82150	2024-08-28T11:17:59	24	74
82151	2024-08-28T11:27:59	24.1	74
82152	2024-08-28T11:37:59	24.8	69.5
82153	2024-08-28T11:47:59	25.1	68.5
82154	2024-08-28T11:57:59	25.6	68
82155	2024-08-28T12:07:58	25.8	69
82156	2024-08-28T12:17:58	27.3	67.5
82157	2024-08-28T12:27:58	30.8	55.5
82158	2024-08-28T12:37:58	32.9	51
82159	2024-08-28T12:47:58	34.7	46
82160	2024-08-28T12:57:58	35.3	43
82161	2024-08-28T13:07:58	36.1	42.5
82162	2024-08-28T13:17:58	37.2	41.5
82163	2024-08-28T13:27:58	37.6	37.5
82164	2024-08-28T13:37:58	37.4	40
82165	2024-08-28T13:47:58	38.2	38
82166	2024-08-28T13:57:58	38.4	38.5
82167	2024-08-28T14:07:58	39.1	36
82168	2024-08-28T14:17:58	39.6	35
82169	2024-08-28T14:27:58	40.5	35
82170	2024-08-28T14:37:58	39.4	34.5
82171	2024-08-28T14:47:58	39.9	34.5
82172	2024-08-28T14:57:58	39.6	35.5
82173	2024-08-28T15:07:58	40.8	37
82174	2024-08-28T15:17:58	41.4	34
82175	2024-08-28T15:27:58	42.3	35.5
82176	2024-08-28T15:37:58	41.9	31.5
82177	2024-08-28T15:47:58	42.2	33.5
82178	2024-08-28T15:57:58	42.9	34.5
82179	2024-08-28T16:07:58	43.2	33
82180	2024-08-28T16:17:58	43.2	32.5
82181	2024-08-28T16:27:58	43	34.5
82182	2024-08-28T16:37:58	42.5	35
82183	2024-08-28T16:47:58	41.8	35
82184	2024-08-28T16:57:58	41.1	35
82185	2024-08-28T17:07:58	39.5	38
82186	2024-08-28T17:17:58	38.8	43
82187	2024-08-28T17:27:58	37.9	45.5
82188	2024-08-28T17:37:58	37	47.5
82189	2024-08-28T17:47:58	36	49.5
82190	2024-08-28T17:57:58	35.1	50.5
82191	2024-08-28T18:07:58	34.5	52.5
82192	2024-08-28T18:17:58	33.7	53
82193	2024-08-28T18:27:58	33.2	53.5
82194	2024-08-28T18:37:58	32.5	53
82195	2024-08-28T18:47:58	31.7	53
82196	2024-08-28T18:57:58	31.2	54.5
82197	2024-08-28T19:07:58	30.7	55
82198	2024-08-28T19:17:58	30.4	55.5
82199	2024-08-28T19:27:58	30	56.5
82200	2024-08-28T19:37:58	29.6	57
82201	2024-08-28T19:47:58	29.3	57
82202	2024-08-28T19:57:58	29.1	58.5
82203	2024-08-28T20:07:58	28.8	59.5
82204	2024-08-28T20:17:58	28.5	60
82205	2024-08-28T20:27:58	28.2	60.5
82206	2024-08-28T20:37:58	28	59
82207	2024-08-28T20:47:58	27.8	61
82208	2024-08-28T20:57:58	27.5	62
82209	2024-08-28T21:07:58	27.3	63
82210	2024-08-28T21:17:58	27.1	63.5
82211	2024-08-28T21:27:58	26.9	63.5
82212	2024-08-28T21:37:58	26.7	64.5
82213	2024-08-28T21:47:58	26.4	65
82214	2024-08-28T21:57:58	26.2	65
82215	2024-08-28T22:07:58	25.9	65
82216	2024-08-28T22:17:58	25.7	65.5
82217	2024-08-28T22:27:58	25.7	66
82218	2024-08-28T22:37:58	25.4	65
82219	2024-08-28T22:47:58	25.1	67
82220	2024-08-28T22:57:58	25	67.5
82221	2024-08-28T23:32:37	24.8	67.5
82222	2024-08-28T23:32:37	24.7	67.5
82223	2024-08-28T23:32:37	24.5	69
82224	2024-08-28T23:37:57	24.3	69.5
82225	2024-08-28T23:47:57	24.2	70
82226	2024-08-28T23:57:57	24	70
82227	2024-08-29T00:07:57	23.6	70.5
82228	2024-08-29T00:17:57	23.6	71
82229	2024-08-29T00:27:57	23.5	71.5
82230	2024-08-29T00:37:57	23.3	71
82231	2024-08-29T00:47:57	23.2	71
82232	2024-08-29T00:57:57	23	71.5
82233	2024-08-29T01:07:57	22.9	72
82234	2024-08-29T01:17:57	22.6	72.5
82235	2024-08-29T01:27:57	22.5	72.5
82236	2024-08-29T01:37:57	22.4	73
82237	2024-08-29T01:47:57	22.3	73
82238	2024-08-29T01:57:57	22.2	73
82239	2024-08-29T02:07:57	22.1	73.5
82240	2024-08-29T02:17:57	22	74
82241	2024-08-29T02:27:57	21.8	74
82242	2024-08-29T02:37:57	21.6	74
82243	2024-08-29T02:47:57	21.6	74.5
82244	2024-08-29T02:57:57	21.5	75
82245	2024-08-29T03:07:57	21.4	75.5
82246	2024-08-29T03:17:57	21.2	76
82247	2024-08-29T03:27:57	21.2	76.5
82248	2024-08-29T03:37:57	21	76
82249	2024-08-29T03:47:57	20.9	77
82250	2024-08-29T03:57:57	20.8	76.5
82251	2024-08-29T04:07:57	20.7	77
82252	2024-08-29T04:17:57	20.6	77.5
82253	2024-08-29T04:27:57	20.5	77.5
82254	2024-08-29T04:37:57	20.4	77.5
82255	2024-08-29T04:47:57	20.2	78.5
82256	2024-08-29T04:57:57	20.2	78
82257	2024-08-29T05:07:57	20.1	78.5
82258	2024-08-29T05:17:57	20.2	78.5
82259	2024-08-29T05:27:57	20.1	79
82260	2024-08-29T05:37:57	20.2	79.5
82261	2024-08-29T05:47:57	20.1	79.5
82262	2024-08-29T05:57:57	20.3	79.5
82263	2024-08-29T06:07:57	20.4	79.5
82264	2024-08-29T06:17:57	20.4	80.5
82265	2024-08-29T06:27:57	20.7	80.5
82266	2024-08-29T06:37:57	20.7	80.5
82267	2024-08-29T06:47:57	20.8	80.5
82268	2024-08-29T06:57:57	21	81
82269	2024-08-29T07:07:57	21.1	80.5
82270	2024-08-29T07:17:57	21.5	77.5
82271	2024-08-29T07:27:57	21.7	76
82272	2024-08-29T07:37:57	21.8	78
82273	2024-08-29T07:47:57	21.8	79
82274	2024-08-29T07:57:57	22	79.5
82275	2024-08-29T08:07:57	22.1	80.5
82276	2024-08-29T08:17:57	22.3	81
82277	2024-08-29T08:27:57	22.7	77
82278	2024-08-29T08:37:57	23.1	76
82279	2024-08-29T08:47:57	23.2	75.5
82280	2024-08-29T08:57:57	23.4	76
82281	2024-08-29T09:07:57	23.7	75
82282	2024-08-29T09:17:57	24.2	73.5
82283	2024-08-29T09:27:57	24.1	75
82284	2024-08-29T09:37:57	24.6	73.5
82285	2024-08-29T09:47:56	25	70.5
82286	2024-08-29T09:57:56	25.4	70
82287	2024-08-29T10:07:56	25.6	68
82288	2024-08-29T10:17:56	25.8	67
82289	2024-08-29T10:27:56	25.9	69
82290	2024-08-29T10:37:56	26.2	66
82291	2024-08-29T10:47:56	26.7	63.5
82292	2024-08-29T10:57:56	26.8	63
82293	2024-08-29T11:07:56	27.3	62
82294	2024-08-29T11:17:56	27.6	62.5
82295	2024-08-29T11:27:56	27.6	62
82296	2024-08-29T11:37:56	28	61
82297	2024-08-29T11:47:56	28.2	59
82298	2024-08-29T11:57:56	28.5	58.5
82299	2024-08-29T12:07:56	29.1	57.5
82300	2024-08-29T12:17:56	30.4	55
82301	2024-08-29T12:27:56	33.7	49.5
82302	2024-08-29T12:37:56	36	44
82303	2024-08-29T12:47:56	37.6	41.5
82304	2024-08-29T12:57:56	38.3	40.5
82305	2024-08-29T13:07:56	39	37
82306	2024-08-29T13:17:56	39.6	37.5
82307	2024-08-29T13:27:56	40.3	36
82308	2024-08-29T13:37:56	41	35.5
82309	2024-08-29T13:47:56	41.2	36
82310	2024-08-29T13:57:56	42	33
82311	2024-08-29T14:07:56	41.1	33
82312	2024-08-29T14:17:56	42.6	31.5
82313	2024-08-29T14:27:56	43.5	34.5
82314	2024-08-29T14:37:56	43.5	32.5
82315	2024-08-29T14:47:56	43.9	30.5
82316	2024-08-29T14:57:56	44	32
82317	2024-08-29T15:07:56	43.4	33
82318	2024-08-29T15:17:56	43.3	32
82319	2024-08-29T15:27:56	43.1	31
82320	2024-08-29T15:37:56	42.2	31
82321	2024-08-29T15:47:56	42.4	34
82322	2024-08-29T15:57:56	42.9	30
82323	2024-08-29T16:07:56	42.6	30.5
82324	2024-08-29T16:17:56	42.6	32.5
82325	2024-08-29T16:27:56	42.9	34.5
82326	2024-08-29T16:37:56	42.5	32.5
82327	2024-08-29T16:47:56	42.1	35.5
82328	2024-08-29T16:57:56	41.4	37.5
82329	2024-08-29T17:07:56	40.2	41.5
82330	2024-08-29T17:17:56	39.9	43
82331	2024-08-29T17:27:56	38.7	46
82332	2024-08-29T17:37:56	37.5	45.5
82333	2024-08-29T17:47:56	36.5	46
82334	2024-08-29T17:57:56	35.6	49
82335	2024-08-29T18:07:56	34.9	48.5
82336	2024-08-29T18:17:56	34.3	51
82337	2024-08-29T18:27:56	33.9	52.5
82338	2024-08-29T18:37:56	33.5	55
82339	2024-08-29T18:47:56	33	55.5
82340	2024-08-29T18:57:56	32.6	56
82341	2024-08-29T19:07:56	32.3	56.5
82342	2024-08-29T19:17:56	31.9	57
82343	2024-08-29T19:27:56	31.4	57
82344	2024-08-29T19:37:56	31	57.5
82345	2024-08-29T19:47:56	30.7	57.5
82346	2024-08-29T19:57:56	30.5	58.5
82347	2024-08-29T20:07:56	30.1	58.5
82348	2024-08-29T20:17:56	30	59.5
82349	2024-08-29T20:27:56	29.7	60.5
82350	2024-08-29T20:37:56	29.5	61
82351	2024-08-29T20:47:56	29.2	62
82352	2024-08-29T20:57:56	29	62.5
82353	2024-08-29T21:07:56	28.7	63.5
82354	2024-08-29T21:17:56	28.3	64
82355	2024-08-29T21:27:55	28.2	64
82356	2024-08-29T21:37:55	28	64.5
82357	2024-08-29T21:47:55	27.7	65
82358	2024-08-29T21:57:55	27.5	65.5
82359	2024-08-29T22:07:55	27.3	66
82360	2024-08-29T22:17:55	27	66.5
82361	2024-08-29T22:27:55	26.9	67
82362	2024-08-29T22:37:55	26.7	67
82363	2024-08-29T22:47:55	26.5	68
82364	2024-08-29T22:57:55	26.4	68.5
82365	2024-08-29T23:31:12	26.1	69
82366	2024-08-29T23:31:13	25.8	69
82367	2024-08-29T23:31:13	26	68.5
82368	2024-08-29T23:37:55	25.8	69
82369	2024-08-29T23:47:55	25.6	69.5
82370	2024-08-30T00:07:55	25.3	70
82371	2024-08-30T00:17:55	25.1	70.5
82372	2024-08-30T00:27:55	25.1	71
82373	2024-08-30T00:37:55	24.8	71.5
82374	2024-08-30T00:47:55	24.6	71.5
82375	2024-08-30T00:57:55	24.5	72
82376	2024-08-30T01:07:55	24.5	72.5
82377	2024-08-30T01:17:55	24.2	73
82378	2024-08-30T01:27:55	24.1	73
82379	2024-08-30T01:37:55	24	73.5
82380	2024-08-30T01:47:55	23.8	74
82381	2024-08-30T01:57:55	23.7	74.5
82382	2024-08-30T02:07:55	23.5	75
82383	2024-08-30T02:17:55	23.4	75
82384	2024-08-30T02:27:55	23.4	75.5
82385	2024-08-30T02:37:55	23.2	75.5
82386	2024-08-30T02:47:55	23.2	76
82387	2024-08-30T02:57:55	23	76
82388	2024-08-30T03:07:55	22.9	76.5
82389	2024-08-30T03:17:55	22.9	76.5
82390	2024-08-30T03:27:55	22.7	77
82391	2024-08-30T03:37:55	22.6	77.5
82392	2024-08-30T03:47:55	22.6	78
82393	2024-08-30T03:57:55	22.5	78.5
82394	2024-08-30T04:07:55	22.4	78
82395	2024-08-30T04:17:55	22.2	78.5
82396	2024-08-30T04:27:55	22.1	78.5
82397	2024-08-30T04:37:55	22	78.5
82398	2024-08-30T04:47:55	21.9	79
82399	2024-08-30T04:57:55	21.8	79.5
82400	2024-08-30T05:07:55	21.7	79.5
82401	2024-08-30T05:17:55	21.7	79.5
82402	2024-08-30T05:27:55	21.7	79.5
82403	2024-08-30T05:37:55	21.7	80.5
82404	2024-08-30T05:47:55	21.6	80.5
82405	2024-08-30T05:57:55	21.6	80.5
82406	2024-08-30T06:07:55	21.7	80
82407	2024-08-30T06:17:55	21.9	80.5
82408	2024-08-30T06:27:55	22	80.5
82409	2024-08-30T06:37:55	22.1	80.5
82410	2024-08-30T06:47:55	22	81.5
82411	2024-08-30T06:57:55	22.2	81.5
82412	2024-08-30T07:07:55	22.3	81
82413	2024-08-30T07:17:55	22.3	81.5
82414	2024-08-30T07:27:55	22.5	81.5
82415	2024-08-30T07:37:54	22.6	80.5
82416	2024-08-30T07:47:54	22.8	81
82417	2024-08-30T07:57:54	22.9	80.5
82418	2024-08-30T08:07:54	23	80.5
82419	2024-08-30T08:17:54	23.2	77.5
82420	2024-08-30T08:27:54	23.4	78
82421	2024-08-30T08:37:54	23.6	77.5
82422	2024-08-30T08:47:54	23.7	77.5
82423	2024-08-30T08:57:54	23.9	76.5
82424	2024-08-30T09:07:54	23.9	76.5
82425	2024-08-30T09:17:54	24.2	76.5
82426	2024-08-30T09:27:54	24.3	75.5
82427	2024-08-30T09:37:54	24.8	75.5
82428	2024-08-30T09:47:54	25.1	74.5
82429	2024-08-30T09:57:54	25.3	74
82430	2024-08-30T10:07:54	25.6	73.5
82431	2024-08-30T10:17:54	25.8	71
82432	2024-08-30T10:37:54	26.6	68.5
82433	2024-08-30T10:47:54	26.9	68.5
82434	2024-08-30T10:57:54	27.2	67
82435	2024-08-30T11:07:54	27.6	67
82436	2024-08-30T11:17:54	27.8	67
82437	2024-08-30T11:27:54	28.2	64.5
82438	2024-08-30T11:37:54	28.7	65
82439	2024-08-30T11:47:54	29.1	62.5
82440	2024-08-30T11:57:54	29.3	61.5
82441	2024-08-30T12:07:54	29.6	61
82442	2024-08-30T12:17:54	30.2	59
82443	2024-08-30T12:27:54	31	57.5
82444	2024-08-30T12:37:54	31.3	58
82445	2024-08-30T12:47:54	32.4	55
82446	2024-08-30T12:57:54	34	51.5
82447	2024-08-30T13:07:54	34.7	49.5
82448	2024-08-30T13:17:54	34.1	50
82449	2024-08-30T13:27:54	35.8	47.5
82450	2024-08-30T13:37:54	37.2	45.5
82451	2024-08-30T13:47:54	38.2	44
82452	2024-08-30T13:57:54	38.4	42.5
82453	2024-08-30T14:07:54	39.1	42.5
82454	2024-08-30T14:17:54	39.7	41.5
82455	2024-08-30T14:27:54	40.1	40
82456	2024-08-30T14:37:54	39.7	39
82457	2024-08-30T14:47:54	40.2	41
82458	2024-08-30T14:57:54	40.9	40
82459	2024-08-30T15:07:54	40.6	38.5
82460	2024-08-30T15:17:54	40.1	40.5
82461	2024-08-30T15:27:54	39.4	41.5
82462	2024-08-30T15:37:54	38.3	44
82463	2024-08-30T15:47:54	37.3	44
82464	2024-08-30T15:57:54	36.4	45.5
82465	2024-08-30T16:07:54	35.6	47
82466	2024-08-30T16:17:54	35	48
82467	2024-08-30T16:27:54	34.6	50
82468	2024-08-30T16:37:54	34	49.5
82469	2024-08-30T16:47:54	33.6	50
82470	2024-08-30T16:57:54	33.1	50.5
82471	2024-08-30T17:07:54	32.9	52
82472	2024-08-30T17:17:54	32.7	52
82473	2024-08-30T17:27:54	32.5	53.5
82474	2024-08-30T17:37:54	32	55
82475	2024-08-30T17:47:54	31.6	55.5
82476	2024-08-30T17:57:54	31.2	56.5
82477	2024-08-30T18:07:54	30.9	58
82478	2024-08-30T18:17:53	30.5	57
82479	2024-08-30T18:27:53	30.1	58
82480	2024-08-30T18:37:53	29.8	59.5
82481	2024-08-30T18:47:53	29.6	61.5
82482	2024-08-30T18:57:53	29.3	63
82483	2024-08-30T19:07:53	29.2	64.5
82484	2024-08-30T19:17:53	28.9	65
82485	2024-08-30T19:27:53	28.8	65.5
82486	2024-08-30T19:37:53	28.5	66
82487	2024-08-30T19:47:53	28.3	66.5
82488	2024-08-30T19:57:53	28.1	66.5
82489	2024-08-30T20:07:53	27.9	67
82490	2024-08-30T20:17:53	27.7	67.5
82491	2024-08-30T20:27:53	27.4	68
82492	2024-08-30T20:37:53	27.2	69
82493	2024-08-30T20:47:53	27	69.5
82494	2024-08-30T20:57:53	26.9	70
82495	2024-08-30T21:07:53	26.8	70.5
82496	2024-08-30T21:17:53	26.7	69.5
82497	2024-08-30T21:27:53	26.5	70
82498	2024-08-30T21:37:53	26.3	70
82499	2024-08-30T21:47:53	26.2	70.5
82500	2024-08-30T21:57:53	26	70.5
82501	2024-08-30T22:07:53	25.9	70.5
82502	2024-08-30T22:17:53	25.7	70
82503	2024-08-30T22:27:53	25.6	70
82504	2024-08-30T22:37:53	25.5	70.5
82505	2024-08-30T22:47:53	25.3	70
82506	2024-08-30T22:57:53	25	70.5
82507	2024-08-30T23:31:51	24.8	71
82508	2024-08-30T23:31:51	24.9	71
82509	2024-08-30T23:31:51	24.7	72
82510	2024-08-30T23:37:53	24.4	71
82511	2024-08-30T23:47:53	24.4	71.5
82512	2024-08-30T23:57:53	24.4	72.5
82513	2024-08-31T00:07:53	24	73.5
82514	2024-08-31T00:17:53	23.9	73.5
82515	2024-08-31T00:27:53	23.8	73.5
82516	2024-08-31T00:37:53	23.7	74
82517	2024-08-31T00:47:53	23.4	74
82518	2024-08-31T00:57:53	23.3	74
82519	2024-08-31T01:07:53	23.1	74.5
82520	2024-08-31T01:17:53	23	75
82521	2024-08-31T01:27:53	22.9	75
82522	2024-08-31T01:37:53	22.7	75.5
82523	2024-08-31T01:47:53	22.5	75.5
82524	2024-08-31T01:57:53	22.4	76
82525	2024-08-31T02:07:53	22.3	76
82526	2024-08-31T02:17:53	22.2	76
82527	2024-08-31T02:27:53	22.1	77
82528	2024-08-31T02:37:53	21.9	78
82529	2024-08-31T02:47:53	21.7	78.5
82530	2024-08-31T02:57:53	21.6	78.5
82531	2024-08-31T03:07:53	21.6	78.5
82532	2024-08-31T03:17:53	21.7	78.5
82533	2024-08-31T03:27:53	21.7	78.5
82534	2024-08-31T03:37:53	21.5	78.5
82535	2024-08-31T03:47:53	21.4	79.5
82536	2024-08-31T03:57:53	21.3	79.5
82537	2024-08-31T04:07:53	21	80
82538	2024-08-31T04:17:53	20.9	80.5
82539	2024-08-31T04:27:52	20.8	81
82540	2024-08-31T04:37:52	20.7	81
82541	2024-08-31T04:47:52	20.8	81
82542	2024-08-31T04:57:52	20.6	81
82543	2024-08-31T05:07:53	20.5	81
82544	2024-08-31T05:17:52	20.6	81.5
82545	2024-08-31T05:27:52	20.4	81.5
82546	2024-08-31T05:37:52	20.4	82
82547	2024-08-31T05:47:52	20.3	82.5
82548	2024-08-31T05:57:52	20.2	83
82549	2024-08-31T06:07:52	20.3	83
82550	2024-08-31T06:17:52	20.4	82.5
82551	2024-08-31T06:27:52	20.3	83
82552	2024-08-31T06:37:52	20.4	83
82553	2024-08-31T06:47:52	20.5	83
82554	2024-08-31T06:57:52	20.5	83
82555	2024-08-31T07:07:52	20.6	83.5
82556	2024-08-31T07:17:52	20.7	83.5
82557	2024-08-31T07:27:52	20.9	83.5
82558	2024-08-31T07:37:52	21	83
82559	2024-08-31T07:47:52	21	82.5
82560	2024-08-31T07:57:52	21.2	83
82561	2024-08-31T08:07:52	21.5	83
82562	2024-08-31T08:17:52	21.6	82.5
82563	2024-08-31T08:27:52	21.8	81.5
82564	2024-08-31T08:37:52	22	82.5
82565	2024-08-31T08:47:52	22.2	80.5
82566	2024-08-31T08:57:52	22.5	80.5
82567	2024-08-31T09:07:52	22.6	80.5
82568	2024-08-31T09:17:52	22.9	79.5
82569	2024-08-31T09:27:52	23	79.5
82570	2024-08-31T09:47:52	23.6	79
82571	2024-08-31T09:57:52	23.9	76.5
82572	2024-08-31T10:07:52	24.1	75
82573	2024-08-31T10:17:52	24.4	74.5
82574	2024-08-31T10:27:52	24.5	75
82575	2024-08-31T10:37:52	24.9	74
82576	2024-08-31T10:47:52	25.1	73.5
82577	2024-08-31T10:57:52	25.3	74
82578	2024-08-31T11:07:52	25.7	72.5
82579	2024-08-31T11:17:52	26	68.5
82580	2024-08-31T11:27:52	26.3	69.5
82581	2024-08-31T11:37:52	26.6	66.5
82582	2024-08-31T11:47:52	26.9	66
82583	2024-08-31T11:57:52	27.3	66.5
82584	2024-08-31T12:07:52	27.8	63
82585	2024-08-31T12:17:52	29.5	60
82586	2024-08-31T12:27:52	32.2	53.5
82587	2024-08-31T12:37:52	33.5	49.5
82588	2024-08-31T12:47:52	34.7	48.5
82589	2024-08-31T12:57:52	35.7	45.5
82590	2024-08-31T13:07:52	36.6	43.5
82591	2024-08-31T13:17:52	37.6	41.5
82592	2024-08-31T13:27:52	38.4	39.5
82593	2024-08-31T13:37:52	38.6	39.5
82594	2024-08-31T13:47:52	39.1	38
82595	2024-08-31T13:57:52	39.5	37.5
82596	2024-08-31T14:07:52	39.9	37.5
82597	2024-08-31T14:17:52	40.3	37
82598	2024-08-31T14:27:52	40.5	34.5
82599	2024-08-31T14:37:52	40.6	35
82600	2024-08-31T14:47:52	41	34.5
82601	2024-08-31T14:57:52	41.3	36
82602	2024-08-31T15:07:52	41.3	33.5
82603	2024-08-31T15:17:52	41.5	34
82604	2024-08-31T15:27:52	41.3	34.5
82605	2024-08-31T15:37:51	40.5	36
82606	2024-08-31T15:47:51	39.7	36.5
82607	2024-08-31T15:57:51	39.6	37
82608	2024-08-31T16:07:51	39.9	37
82609	2024-08-31T16:17:51	38.9	38.5
82610	2024-08-31T16:27:51	38.2	40.5
82611	2024-08-31T16:37:51	38.1	40.5
82612	2024-08-31T16:47:51	37.6	41
82613	2024-08-31T16:57:51	37	42.5
82614	2024-08-31T17:07:51	36.1	44.5
82615	2024-08-31T17:17:51	35.3	46.5
82616	2024-08-31T17:27:51	34.8	48.5
82617	2024-08-31T17:37:51	34.2	50
82618	2024-08-31T17:47:51	33.7	52
82619	2024-08-31T17:57:51	33.3	53
82620	2024-08-31T18:07:51	33	54.5
82621	2024-08-31T18:17:51	32.4	54.5
82622	2024-08-31T18:27:51	32.1	55.5
82623	2024-08-31T18:37:51	31.7	56.5
82624	2024-08-31T18:47:51	31.2	57.5
82625	2024-08-31T18:57:51	31	58.5
82626	2024-08-31T19:07:51	30.8	59.5
82627	2024-08-31T19:17:51	30.3	60.5
82628	2024-08-31T19:27:51	30	61
82629	2024-08-31T19:37:51	29.8	62
82630	2024-08-31T19:47:51	29.6	62.5
82631	2024-08-31T19:57:51	29.3	63.5
82632	2024-08-31T20:07:51	29.1	64
82633	2024-08-31T20:17:51	28.8	65
82634	2024-08-31T20:27:51	28.5	65.5
82635	2024-08-31T20:37:51	28.3	66
82636	2024-08-31T20:47:51	28	66.5
82637	2024-08-31T20:57:51	27.9	67.5
82638	2024-08-31T21:07:51	27.5	68
82639	2024-08-31T21:17:51	27.4	68
82640	2024-08-31T21:27:51	27.2	68.5
82641	2024-08-31T21:37:51	27.2	69
82642	2024-08-31T21:47:51	27	69.5
82643	2024-08-31T21:57:51	26.7	69.5
82644	2024-08-31T22:07:51	26.6	70.5
82645	2024-08-31T22:17:51	26.5	70.5
82646	2024-08-31T22:27:51	26.4	70.5
82647	2024-08-31T22:37:51	26.2	71
82648	2024-08-31T22:47:51	26	71
82649	2024-08-31T22:57:51	25.9	71.5
82650	2024-08-31T23:31:17	25.6	72
82651	2024-08-31T23:31:17	25.8	71.5
82652	2024-08-31T23:31:17	25.4	72.5
82653	2024-08-31T23:37:51	25.2	73
82654	2024-08-31T23:47:51	24.9	73.5
82655	2024-08-31T23:57:51	24.6	74
82656	2024-09-01T00:07:51	24.5	74.5
82657	2024-09-01T00:17:51	24.4	74.5
82658	2024-09-01T00:27:51	24.3	74.5
82659	2024-09-01T00:37:51	24.1	75
82660	2024-09-01T00:47:51	24	75.5
82661	2024-09-01T00:57:51	24	75.5
82662	2024-09-01T01:07:51	24	75.5
82663	2024-09-01T01:17:51	23.8	75.5
82664	2024-09-01T01:27:51	23.8	76
82665	2024-09-01T01:37:50	23.5	77
82666	2024-09-01T01:47:50	23.3	77.5
82667	2024-09-01T01:57:50	23.2	78
82668	2024-09-01T02:07:50	22.9	78.5
82669	2024-09-01T02:17:50	23	78.5
82670	2024-09-01T02:27:50	22.8	78.5
82671	2024-09-01T02:37:50	22.6	78.5
82672	2024-09-01T02:47:50	22.6	78.5
82673	2024-09-01T02:57:50	22.5	78.5
82674	2024-09-01T03:07:50	22.5	78.5
82675	2024-09-01T03:17:50	22.3	78.5
82676	2024-09-01T03:27:50	22.3	79
82677	2024-09-01T03:37:50	22.1	79.5
82678	2024-09-01T03:47:50	22.1	79
82679	2024-09-01T03:57:50	22	79.5
82680	2024-09-01T04:07:50	22	79.5
82681	2024-09-01T04:17:50	21.7	79.5
82682	2024-09-01T04:27:50	21.6	80
82683	2024-09-01T04:37:50	21.5	80.5
82684	2024-09-01T04:47:50	21.5	80.5
82685	2024-09-01T04:57:50	21.4	81
82686	2024-09-01T05:07:50	21.3	81
82687	2024-09-01T05:17:50	21.2	81.5
82688	2024-09-01T05:27:50	21.2	81
82689	2024-09-01T05:37:50	21.2	81.5
82690	2024-09-01T05:47:50	21.2	81.5
82691	2024-09-01T05:57:50	21.1	81
82692	2024-09-01T06:07:50	21.2	81
82693	2024-09-01T06:17:50	21.3	81
82694	2024-09-01T06:27:50	21.4	81
82695	2024-09-01T06:37:50	21.6	80.5
82696	2024-09-01T06:47:50	21.6	80.5
82697	2024-09-01T06:57:50	21.7	80
82698	2024-09-01T07:07:50	21.8	80
82699	2024-09-01T07:17:50	21.9	79.5
82700	2024-09-01T07:27:50	22.1	79
82701	2024-09-01T07:37:50	22.2	79.5
82702	2024-09-01T07:47:50	22.4	79
82703	2024-09-01T07:57:50	22.6	78.5
82704	2024-09-01T08:07:50	22.8	78.5
82705	2024-09-01T08:17:50	22.8	78
82706	2024-09-01T08:27:50	23	78
82707	2024-09-01T08:37:50	23.2	77
82708	2024-09-01T08:47:50	23.4	77
82709	2024-09-01T08:57:50	23.6	76
82710	2024-09-01T09:07:50	23.9	76.5
82711	2024-09-01T09:17:50	24	75.5
82712	2024-09-01T09:27:50	24.2	75
82713	2024-09-01T09:37:50	24.3	74
82714	2024-09-01T09:47:50	24.6	73.5
82715	2024-09-01T09:57:50	24.8	72.5
82716	2024-09-01T10:07:50	25	72.5
82717	2024-09-01T10:17:50	25.3	72
82718	2024-09-01T10:27:50	25.6	72
82719	2024-09-01T10:37:50	25.8	69.5
82720	2024-09-01T10:47:50	26.1	69
82721	2024-09-01T10:57:50	26.3	68
82722	2024-09-01T11:07:50	26.7	67
82723	2024-09-01T11:17:50	27.1	65.5
82724	2024-09-01T11:27:50	27.5	65
82725	2024-09-01T11:37:50	27.7	63.5
82726	2024-09-01T11:47:49	28	64
82727	2024-09-01T11:57:49	28.4	63
82728	2024-09-01T12:07:49	28.9	60.5
82729	2024-09-01T12:17:49	30.5	58
82730	2024-09-01T12:27:49	33.6	50.5
82731	2024-09-01T12:37:49	35.3	45
82732	2024-09-01T12:47:49	36.5	43.5
82733	2024-09-01T12:57:49	37.6	41.5
82734	2024-09-01T13:07:49	38.5	39.5
82735	2024-09-01T13:17:49	38.9	39.5
82736	2024-09-01T13:27:49	39.7	38
82737	2024-09-01T13:37:49	40.1	36
82738	2024-09-01T13:47:49	40.9	38.5
82739	2024-09-01T13:57:49	41.6	35.5
82740	2024-09-01T14:07:49	41.7	36.5
82741	2024-09-01T14:17:49	42.4	36
82742	2024-09-01T14:27:49	42.8	35.5
82743	2024-09-01T14:37:49	43.2	35
82744	2024-09-01T14:47:49	43.6	31.5
82745	2024-09-01T14:57:49	43.6	32
82746	2024-09-01T15:07:49	43.7	33
82747	2024-09-01T15:17:49	43.7	33.5
82748	2024-09-01T15:27:49	43.6	32.5
82749	2024-09-01T15:37:49	43.8	31
82750	2024-09-01T15:47:49	43.3	33.5
82751	2024-09-01T15:57:49	43.3	33.5
82752	2024-09-01T16:07:49	42.8	34
82753	2024-09-01T16:17:49	42.9	34.5
82754	2024-09-01T16:27:49	42.8	33.5
82755	2024-09-01T16:37:49	42.2	34.5
82756	2024-09-01T16:47:49	40.7	37.5
82757	2024-09-01T16:57:49	39.8	39.5
82758	2024-09-01T17:07:49	39	40
82759	2024-09-01T17:17:49	38.4	41
82760	2024-09-01T17:27:49	37.8	43
82761	2024-09-01T17:37:49	37	44
82762	2024-09-01T17:47:49	36.2	47
82763	2024-09-01T17:57:49	35.4	50
82764	2024-09-01T18:07:49	34.7	50.5
82765	2024-09-01T18:17:49	34.1	50.5
82766	2024-09-01T18:27:49	33.4	51
82767	2024-09-01T18:37:49	32.6	54
82768	2024-09-01T19:37:49	30	59
82769	2024-09-01T19:47:49	29.9	60
82770	2024-09-01T19:57:49	29.7	61
82771	2024-09-01T20:07:49	29.7	61.5
82772	2024-09-01T20:17:49	29.3	61.5
82773	2024-09-01T20:27:49	29.1	62
82774	2024-09-01T20:37:49	28.8	63
82775	2024-09-01T20:47:49	28.6	63.5
82776	2024-09-01T20:57:49	28.5	63.5
82777	2024-09-01T21:07:49	28.2	64
82778	2024-09-01T21:17:49	28	64
82779	2024-09-01T21:27:49	27.8	64.5
82780	2024-09-01T21:37:49	27.6	65
82781	2024-09-01T21:47:49	27.4	65
82782	2024-09-01T21:57:49	27.4	65
82783	2024-09-01T22:07:49	27.1	66.5
82784	2024-09-01T22:17:49	27	67
82785	2024-09-01T22:27:49	26.9	67.5
82786	2024-09-01T22:37:49	26.7	68
82787	2024-09-01T22:47:49	26.6	68.5
82788	2024-09-01T22:57:49	26.3	68.5
82789	2024-09-01T23:30:44	26.2	69
82790	2024-09-01T23:30:44	25.5	72
82791	2024-09-01T23:30:44	26.1	70
82792	2024-09-01T23:37:48	24.9	73.5
82793	2024-09-01T23:47:48	24.8	74
82794	2024-09-01T23:57:48	23.6	93.5
82795	2024-09-02T00:07:48	21.5	98
82796	2024-09-02T00:17:48	21.3	100
82797	2024-09-02T00:27:48	21.5	100
82798	2024-09-02T00:37:48	21.2	100
82799	2024-09-02T00:47:48	20.7	100
82800	2024-09-02T00:57:48	20.7	100
82801	2024-09-02T01:07:48	20.7	100
82802	2024-09-02T01:17:48	20.1	100
82803	2024-09-02T01:27:48	20.1	100
82804	2024-09-02T01:37:48	20.2	100
82805	2024-09-02T01:47:48	20.5	100
82806	2024-09-02T01:57:48	20.6	100
82807	2024-09-02T02:07:48	20.7	100
82808	2024-09-02T02:17:48	20.6	100
82809	2024-09-02T02:27:48	20.8	100
82810	2024-09-02T02:37:48	20.8	100
82811	2024-09-02T02:47:48	20.7	100
82812	2024-09-02T02:57:48	20.6	100
82813	2024-09-02T03:07:48	20.6	99.5
82814	2024-09-02T03:17:48	20.8	99.5
82815	2024-09-02T03:27:48	20.6	99.5
82816	2024-09-02T03:37:48	20.6	99.5
82817	2024-09-02T03:47:48	20.6	98.5
82818	2024-09-02T03:57:48	20.6	98.5
82819	2024-09-02T04:07:48	20.6	98.5
82820	2024-09-02T04:17:48	20.6	98.5
82821	2024-09-02T04:27:48	20.4	98.5
82822	2024-09-02T04:37:48	20.3	94.5
82823	2024-09-02T04:47:48	20.2	94.5
82824	2024-09-02T04:57:48	20.2	95
82825	2024-09-02T05:07:48	20.2	95
82826	2024-09-02T05:17:48	20.2	95
82827	2024-09-02T05:27:48	20.2	95
82828	2024-09-02T05:37:48	20.2	95
82829	2024-09-02T05:47:48	20.2	95
82830	2024-09-02T05:57:48	20.1	95
82831	2024-09-02T06:07:48	20	95
82832	2024-09-02T06:17:48	20	95
82833	2024-09-02T06:27:48	20	95
82834	2024-09-02T06:38:08	20.2	95
82835	2024-09-02T06:47:48	20.2	95
82836	2024-09-02T06:57:48	20.3	95
82837	2024-09-02T07:07:48	20.4	95
82838	2024-09-02T07:17:48	20.5	95
82839	2024-09-02T07:27:48	20.8	95
82840	2024-09-02T07:37:48	20.9	95
82841	2024-09-02T07:47:48	21.1	95
82842	2024-09-02T07:57:48	21.1	95
82843	2024-09-02T08:07:48	21.2	95
82844	2024-09-02T08:17:48	21.4	95
82845	2024-09-02T08:27:48	21.7	95
82846	2024-09-02T08:37:48	22	95
82847	2024-09-02T08:47:48	22.3	95.5
82848	2024-09-02T08:57:48	22.4	95.5
82849	2024-09-02T09:07:48	22.6	95.5
82850	2024-09-02T09:17:48	22.7	95.5
82851	2024-09-02T09:27:48	22.9	98.5
82852	2024-09-02T09:37:48	23.2	100
82853	2024-09-02T09:47:48	23.4	99.5
82854	2024-09-02T09:57:47	23.7	96.5
82855	2024-09-02T10:07:47	24	78.5
82856	2024-09-02T10:17:47	24.3	76.5
82857	2024-09-02T10:27:47	24.7	75
82858	2024-09-02T10:37:47	25.2	72.5
82859	2024-09-02T10:47:47	25.4	72
82860	2024-09-02T10:57:47	25.8	70.5
82861	2024-09-02T11:07:47	25.9	69.5
82862	2024-09-02T11:17:47	26	70.5
82863	2024-09-02T11:27:47	26.3	69.5
82864	2024-09-02T11:37:47	26.6	69.5
82865	2024-09-02T11:47:47	27	70
82866	2024-09-02T11:57:47	27	69.5
82867	2024-09-02T12:07:47	27.2	65.5
82868	2024-09-02T12:17:47	28	63.5
82869	2024-09-02T12:27:47	31.1	59
82870	2024-09-02T12:37:47	33.6	53
82871	2024-09-02T12:47:47	34.8	49.5
82872	2024-09-02T12:57:47	33.2	51
82873	2024-09-02T13:07:47	31.7	53
82874	2024-09-02T13:17:47	31.3	53.5
82875	2024-09-02T13:27:47	32.2	54.5
82876	2024-09-02T13:37:47	35.5	47
82877	2024-09-02T13:47:47	36.8	44.5
82878	2024-09-02T13:57:47	36.8	45.5
82879	2024-09-02T14:07:47	36.6	47
82880	2024-09-02T14:17:47	34.9	44.5
82881	2024-09-02T14:27:47	33.4	47
82882	2024-09-02T14:37:47	33.5	47.5
82883	2024-09-02T14:47:47	34.4	47.5
82884	2024-09-02T14:57:47	35.6	45
82885	2024-09-02T15:07:47	36.9	40.5
82886	2024-09-02T15:17:47	36.1	42.5
82887	2024-09-02T15:27:47	33.8	45
82888	2024-09-02T15:37:47	33.1	46
82889	2024-09-02T15:47:47	32.8	47
82890	2024-09-02T15:57:47	32.1	49
82891	2024-09-02T16:07:47	31.1	52
82892	2024-09-02T16:17:47	30.6	51.5
82893	2024-09-02T16:27:47	30.4	52
82894	2024-09-02T16:37:47	30.4	55
82895	2024-09-02T16:47:47	30.3	56.5
82896	2024-09-02T16:57:47	29.9	57
82897	2024-09-02T17:07:47	29.8	61.5
82898	2024-09-02T17:17:47	29.5	61
82899	2024-09-02T17:27:47	29.3	64
82900	2024-09-02T17:37:47	29	64
82901	2024-09-02T17:47:47	28.8	63.5
82902	2024-09-02T17:57:47	28.5	65.5
82903	2024-09-02T18:07:47	28.2	64.5
82904	2024-09-02T18:17:47	27.8	67.5
82905	2024-09-02T18:27:47	27.6	68.5
82906	2024-09-02T18:37:47	27.4	69
82907	2024-09-02T18:47:47	27.1	69.5
82908	2024-09-02T18:57:47	27	70.5
82909	2024-09-02T19:07:47	26.9	70.5
82910	2024-09-02T19:17:47	26.7	70.5
82911	2024-09-02T19:27:47	26.7	70.5
82912	2024-09-02T19:37:47	26.4	71
82913	2024-09-02T19:47:47	26.3	71
82914	2024-09-02T19:57:47	26.1	70.5
82915	2024-09-02T20:07:46	25.9	72
82916	2024-09-02T20:17:47	25.7	70.5
82917	2024-09-02T20:27:46	25.5	72
82918	2024-09-02T20:37:46	25.4	70.5
82919	2024-09-02T20:47:46	25.3	72.5
82920	2024-09-02T20:57:46	25.2	72
82921	2024-09-02T21:07:46	25	72.5
82922	2024-09-02T21:17:46	24.7	73
82923	2024-09-02T21:27:46	24.6	74
82924	2024-09-02T21:37:46	24.6	74
82925	2024-09-02T21:47:46	24.3	74
82926	2024-09-02T21:57:46	24.2	75.5
82927	2024-09-02T22:07:46	24.2	76
82928	2024-09-02T22:17:46	24.1	76
82929	2024-09-02T22:27:46	23.9	77
82930	2024-09-02T22:37:46	23.7	77.5
82931	2024-09-02T22:47:46	23.5	78
82932	2024-09-02T22:57:46	23.4	78
82933	2024-09-02T23:32:12	23.3	78.5
82934	2024-09-02T23:32:12	23.1	78.5
82935	2024-09-02T23:32:12	23.1	79
82936	2024-09-02T23:37:46	23.1	79
82937	2024-09-02T23:47:46	23	79
82938	2024-09-02T23:57:46	22.9	79
82939	2024-09-03T00:07:46	22.9	79
82940	2024-09-03T00:17:46	22.8	79
82941	2024-09-03T00:27:46	22.9	80
82942	2024-09-03T00:37:46	22.7	80
82943	2024-09-03T00:47:46	22.5	80.5
82944	2024-09-03T00:57:46	22.4	81
82945	2024-09-03T01:07:46	22.3	81.5
82946	2024-09-03T01:17:46	22.1	81.5
82947	2024-09-03T01:27:46	21.9	82
82948	2024-09-03T01:37:46	21.9	82
82949	2024-09-03T01:47:46	21.7	82
82950	2024-09-03T01:57:46	21.8	82.5
82951	2024-09-03T02:07:46	21.6	82.5
82952	2024-09-03T02:17:46	21.4	82.5
82953	2024-09-03T02:27:46	21.4	82.5
82954	2024-09-03T02:37:46	21.3	83
82955	2024-09-03T02:47:46	21.2	83
82956	2024-09-03T02:57:46	21.2	83
82957	2024-09-03T03:07:46	21	83.5
82958	2024-09-03T03:17:46	20.9	83.5
82959	2024-09-03T03:27:46	20.9	83.5
82960	2024-09-03T03:37:46	20.8	83.5
82961	2024-09-03T03:47:46	20.7	84
82962	2024-09-03T03:57:46	20.7	83.5
82963	2024-09-03T04:02:53	20.7	84
82964	2024-09-03T04:12:53	20.5	84
82965	2024-09-03T04:22:53	20.5	84
82966	2024-09-03T04:32:53	20.3	84
82967	2024-09-03T04:42:53	20.3	84
82968	2024-09-03T04:52:53	20.2	84.5
82969	2024-09-03T05:02:53	20.1	84.5
82970	2024-09-03T05:12:53	20.1	84.5
82971	2024-09-03T05:22:53	20.1	85
82972	2024-09-03T05:32:53	20.1	85
82973	2024-09-03T05:42:53	20.2	85
82974	2024-09-03T05:52:53	20.2	85.5
82975	2024-09-03T06:02:53	20.2	86
82976	2024-09-03T06:12:53	20.4	86
82977	2024-09-03T06:22:53	20.4	86.5
82978	2024-09-03T06:32:53	20.5	86.5
82979	2024-09-03T06:42:52	20.7	88.5
82980	2024-09-03T07:02:52	21	86
82981	2024-09-03T07:12:52	21.1	86
82982	2024-09-03T07:22:52	21.2	86
82983	2024-09-03T07:32:52	21.3	85
82984	2024-09-03T07:42:52	21.6	84.5
82985	2024-09-03T07:52:52	21.7	84.5
82986	2024-09-03T08:02:52	22	83.5
82987	2024-09-03T08:12:52	22.2	84
82988	2024-09-03T08:22:52	22.4	82.5
82989	2024-09-03T08:32:52	22.9	81
82990	2024-09-03T08:42:52	23.4	79.5
82991	2024-09-03T08:52:52	23.8	79
82992	2024-09-03T09:02:52	23.9	78
82993	2024-09-03T09:12:52	24.2	78
82994	2024-09-03T09:22:52	24.4	76
82995	2024-09-03T09:32:52	24.5	75.5
82996	2024-09-03T09:42:52	24.7	76
82997	2024-09-03T09:52:52	24.8	75.5
82998	2024-09-03T10:02:52	25.1	75
82999	2024-09-03T10:12:52	25.3	75.5
83000	2024-09-03T10:22:52	25.4	76
83001	2024-09-03T10:32:52	25.5	75
83002	2024-09-03T10:42:52	25.6	74
83003	2024-09-03T10:52:52	25.7	72
83004	2024-09-03T11:02:52	25.9	71
83005	2024-09-03T11:12:52	26.3	70.5
83006	2024-09-03T11:22:52	26.7	70.5
83007	2024-09-03T11:32:52	27.4	65.5
83008	2024-09-03T11:42:52	27.6	64.5
83009	2024-09-03T11:52:52	28.2	62.5
83010	2024-09-03T12:02:52	28.5	64.5
83011	2024-09-03T12:12:52	29.3	60.5
83012	2024-09-03T12:22:52	31.6	56
83013	2024-09-03T12:32:52	31.2	56
83014	2024-09-03T12:42:52	31.7	55
83015	2024-09-03T12:52:52	32.3	55.5
83016	2024-09-03T13:02:52	34.3	50
83017	2024-09-03T13:12:52	34.4	44.5
83018	2024-09-03T13:22:52	34.4	44.5
83019	2024-09-03T13:32:52	35.1	46.5
83020	2024-09-03T13:42:52	37	43.5
83021	2024-09-03T13:52:52	35.7	44
83022	2024-09-03T14:02:52	36.6	44
83023	2024-09-03T14:12:52	37.3	43
83024	2024-09-03T14:22:52	36.6	41.5
83025	2024-09-03T14:32:52	35.8	42
83026	2024-09-03T14:42:52	35.7	42
83027	2024-09-03T14:52:52	33.9	45
83028	2024-09-03T15:02:52	35.5	46
83029	2024-09-03T15:12:52	37.7	41
83030	2024-09-03T15:22:52	39	39
83031	2024-09-03T15:32:52	39.5	39
83032	2024-09-03T15:42:52	40	38.5
83033	2024-09-03T15:52:52	40.2	39.5
83034	2024-09-03T16:02:52	40.4	40
83035	2024-09-03T16:12:52	40.2	38
83036	2024-09-03T16:22:52	40.4	37
83037	2024-09-03T16:32:52	40.4	39
83038	2024-09-03T16:42:52	38.9	37
83039	2024-09-03T16:52:52	37.2	39.5
83040	2024-09-03T17:02:52	36.1	38.5
83041	2024-09-03T17:12:52	35.5	46.5
83042	2024-09-03T17:22:52	35.1	48
83043	2024-09-03T17:32:51	34.2	50.5
83044	2024-09-03T17:42:51	33.5	52
83045	2024-09-03T17:52:51	32.9	54
83046	2024-09-03T18:02:51	32.2	56
83047	2024-09-03T18:12:51	31.7	55.5
83048	2024-09-03T18:22:51	31	58.5
83049	2024-09-03T18:32:51	30.7	58.5
83050	2024-09-03T18:42:51	30.3	59
83051	2024-09-03T18:52:51	30.1	59.5
83052	2024-09-03T19:02:51	29.9	60
83053	2024-09-03T19:12:51	29.7	60.5
83054	2024-09-03T19:22:51	29.4	62
83055	2024-09-03T19:32:51	29.1	61
83056	2024-09-03T19:42:51	28.9	62
83057	2024-09-03T19:52:51	28.7	63
83058	2024-09-03T20:02:51	28.6	63
83059	2024-09-03T20:12:51	28.3	64
83060	2024-09-03T20:22:51	28.1	64
83061	2024-09-03T20:32:51	27.8	64
83062	2024-09-03T20:42:51	27.2	67.5
83063	2024-09-03T20:52:51	27.1	66.5
83064	2024-09-03T21:02:51	27.1	67.5
83065	2024-09-03T21:12:51	26.9	67.5
83066	2024-09-03T21:22:51	26.6	68.5
83067	2024-09-03T21:32:51	26.6	69
83068	2024-09-03T21:42:51	26.2	69.5
83069	2024-09-03T21:52:51	26	70
83070	2024-09-03T22:02:51	25.9	70
83071	2024-09-03T22:12:51	25.6	70.5
83072	2024-09-03T22:22:51	25.6	71
83073	2024-09-03T22:32:51	25.3	71.5
83074	2024-09-03T22:42:51	25.2	71.5
83075	2024-09-03T22:52:52	25	71.5
83076	2024-09-03T23:32:00	24.7	71.5
83077	2024-09-03T23:32:00	24.3	73
83078	2024-09-03T23:32:00	24.3	73.5
83079	2024-09-03T23:33:11	24	73.5
83080	2024-09-03T23:42:51	23.8	74
83081	2024-09-03T23:52:51	23.6	75
83082	2024-09-04T00:02:51	23.7	75
83083	2024-09-04T00:12:51	23.5	74.5
83084	2024-09-04T00:22:51	23.4	75
83085	2024-09-04T00:32:51	23.2	75.5
83086	2024-09-04T00:42:51	23.2	75.5
83087	2024-09-04T00:52:51	23.3	75.5
83088	2024-09-04T01:02:51	23	76
83089	2024-09-04T01:12:51	23.1	76
83090	2024-09-04T01:22:51	23	76
83091	2024-09-04T01:32:51	23	76.5
83092	2024-09-04T01:42:51	23	76.5
83093	2024-09-04T01:52:51	22.7	77
83094	2024-09-04T02:02:51	22.5	78
83095	2024-09-04T02:12:51	22.3	78.5
83096	2024-09-04T02:22:51	22.4	78.5
83097	2024-09-04T02:32:51	22.1	79
83098	2024-09-04T02:42:51	22	80
83099	2024-09-04T02:52:51	21.7	83
83100	2024-09-04T03:02:51	21.6	83
83101	2024-09-04T03:12:51	21.7	82.5
83102	2024-09-04T03:22:51	21.4	84
83103	2024-09-04T03:32:50	21	87.5
83104	2024-09-04T03:42:50	20.7	89
83105	2024-09-04T03:52:50	20.4	91.5
83106	2024-09-04T04:02:50	20	98
83107	2024-09-04T04:12:50	19.8	99.5
83108	2024-09-04T04:22:50	19.7	100
83109	2024-09-04T04:32:50	19.6	100
83110	2024-09-04T04:42:50	19.8	100
83111	2024-09-04T04:52:50	19.7	100
83112	2024-09-04T05:02:50	19.8	100
83113	2024-09-04T05:12:50	19.8	100
83114	2024-09-04T05:22:50	19.9	100
83115	2024-09-04T05:32:50	20	100
83116	2024-09-04T05:42:50	20	100
83117	2024-09-04T05:52:50	20.2	100
83118	2024-09-04T06:02:50	20.3	100
83119	2024-09-04T06:12:50	20.4	100
83120	2024-09-04T06:22:50	20.5	100
83121	2024-09-04T06:32:50	20.6	100
83122	2024-09-04T06:52:50	20.8	100
83123	2024-09-04T07:02:50	20.8	100
83124	2024-09-04T07:12:50	20.8	100
83125	2024-09-04T07:22:50	21	100
83126	2024-09-04T07:32:50	21.2	99.5
83127	2024-09-04T07:42:50	21.4	96
83128	2024-09-04T07:52:50	21.4	97.5
83129	2024-09-04T08:02:50	21.4	96.5
83130	2024-09-04T08:12:50	21.4	96.5
83131	2024-09-04T08:22:50	21.7	95.5
83132	2024-09-04T08:32:50	21.8	96.5
83133	2024-09-04T08:42:50	22	96
83134	2024-09-04T08:52:50	22.4	94
83135	2024-09-04T09:02:50	22.4	92.5
83136	2024-09-04T09:12:50	22.7	93.5
83137	2024-09-04T09:22:50	22.7	93.5
83138	2024-09-04T09:32:50	22.9	93
83139	2024-09-04T09:42:50	23	90.5
83140	2024-09-04T09:52:50	23.3	87
83141	2024-09-04T10:02:50	23.6	89
83142	2024-09-04T10:12:50	23.7	80
83143	2024-09-04T10:22:50	23.5	78.5
83144	2024-09-04T10:32:50	24	81
83145	2024-09-04T10:42:50	23.9	81.5
83146	2024-09-04T10:52:50	24.3	79.5
83147	2024-09-04T11:02:50	24.8	79
83148	2024-09-04T11:12:50	25.3	78.5
83149	2024-09-04T11:22:50	25.4	79
83150	2024-09-04T11:32:50	25.5	77.5
83151	2024-09-04T11:42:50	26	76.5
83152	2024-09-04T11:52:50	25.7	78
83153	2024-09-04T12:02:50	25.8	70.5
83154	2024-09-04T12:12:50	25.9	73.5
83155	2024-09-04T12:22:50	25.9	71.5
83156	2024-09-04T12:32:50	25.8	74
83157	2024-09-04T12:42:50	25.9	72
83158	2024-09-04T12:52:50	26.1	74
83159	2024-09-04T13:02:50	26.8	72
83160	2024-09-04T13:12:50	26.8	69.5
83161	2024-09-04T13:22:50	26.8	70.5
83162	2024-09-04T13:32:50	26.9	71
83163	2024-09-04T13:42:50	26.9	70.5
83164	2024-09-04T13:52:49	27.3	70
83165	2024-09-04T14:02:49	27.5	70
83166	2024-09-04T14:12:49	27.7	68.5
83167	2024-09-04T14:22:49	29.1	67
83168	2024-09-04T14:32:49	30.7	62.5
83169	2024-09-04T14:42:49	31.2	57
83170	2024-09-04T14:52:49	32	56.5
83171	2024-09-04T15:02:49	31.3	58.5
83172	2024-09-04T15:12:49	30.8	60.5
83173	2024-09-04T15:22:49	31.5	60
83174	2024-09-04T15:32:49	31.2	59.5
83175	2024-09-04T15:42:49	31.3	60
83176	2024-09-04T15:52:49	30.7	61.5
83177	2024-09-04T16:02:49	30	62.5
83178	2024-09-04T16:12:49	29.5	62
83179	2024-09-04T16:22:49	29	65.5
83180	2024-09-04T16:32:49	28.7	66.5
83181	2024-09-04T16:42:49	28.3	67.5
83182	2024-09-04T16:52:49	28	69.5
83183	2024-09-04T17:02:49	27.8	70
83184	2024-09-04T17:12:49	27.7	72
83185	2024-09-04T17:22:49	27.4	72.5
83186	2024-09-04T17:32:49	27.2	72.5
83187	2024-09-04T17:42:49	26.7	73
83188	2024-09-04T17:52:49	26.5	73.5
83189	2024-09-04T18:02:49	26.1	73
83190	2024-09-04T18:12:49	25.7	73.5
83191	2024-09-04T18:22:49	25.5	75.5
83192	2024-09-04T18:32:49	25.3	75
83193	2024-09-04T18:42:49	25.1	76
83194	2024-09-04T18:52:49	24.9	76.5
83195	2024-09-04T19:02:49	24.9	76.5
83196	2024-09-04T19:12:49	24.6	77
83197	2024-09-04T19:22:49	24.4	76.5
83198	2024-09-04T19:32:49	24.3	77
83199	2024-09-04T19:42:49	24.1	78
83200	2024-09-04T19:52:49	24	78
83201	2024-09-04T20:02:49	23.8	78.5
83202	2024-09-04T20:12:49	23.6	79
83203	2024-09-04T20:22:49	23.5	79.5
83204	2024-09-04T20:32:49	23.4	79.5
83205	2024-09-04T20:42:49	23.5	80
83206	2024-09-04T20:52:49	23.4	80
83207	2024-09-04T21:02:49	23.2	80
83208	2024-09-04T21:12:49	23	80
83209	2024-09-04T21:22:49	22.9	80.5
83210	2024-09-04T21:32:49	22.9	81
83211	2024-09-04T21:42:49	22.9	80.5
83212	2024-09-04T21:52:49	22.7	81.5
83213	2024-09-04T22:02:49	22.7	81.5
83214	2024-09-04T22:12:49	22.4	82
83215	2024-09-04T22:22:49	22.3	82.5
83216	2024-09-04T22:32:49	22.1	83.5
83217	2024-09-04T22:42:49	22.1	83.5
83218	2024-09-04T22:52:49	21.8	84
83219	2024-09-04T23:02:49	21.8	84.5
83220	2024-09-04T23:31:24	21.7	85.5
83221	2024-09-04T23:31:25	21.7	85
83222	2024-09-04T23:32:49	21.8	85.5
83223	2024-09-04T23:42:49	21.8	86.5
83224	2024-09-04T23:52:48	21.9	85.5
83225	2024-09-05T00:02:48	21.8	85.5
83226	2024-09-05T00:12:48	21.8	85.5
83227	2024-09-05T00:22:48	21.7	86
83228	2024-09-05T00:32:48	21.5	86.5
83229	2024-09-05T00:42:48	21.5	86
83230	2024-09-05T00:52:48	21.4	86
83231	2024-09-05T01:02:48	21.4	86
83232	2024-09-05T01:12:48	21.3	86
83233	2024-09-05T01:22:48	21.2	86
83234	2024-09-05T01:32:48	21.2	86.5
83235	2024-09-05T01:42:48	21.1	86.5
83236	2024-09-05T01:52:48	21.1	86.5
83237	2024-09-05T02:02:48	21.1	86.5
83238	2024-09-05T02:12:48	21	87
83239	2024-09-05T02:22:48	20.9	87
83240	2024-09-05T02:32:48	21	87
83241	2024-09-05T02:42:48	20.9	86.5
83242	2024-09-05T02:52:48	20.9	87
83243	2024-09-05T03:02:48	20.8	87.5
83244	2024-09-05T03:12:48	20.8	87.5
83245	2024-09-05T03:22:48	20.8	87.5
83246	2024-09-05T03:32:48	20.7	88
83247	2024-09-05T03:42:48	20.7	88
83248	2024-09-05T03:52:48	20.7	87.5
83249	2024-09-05T04:02:48	20.6	87.5
83250	2024-09-05T04:12:48	20.7	87.5
83251	2024-09-05T04:22:48	20.5	88
83252	2024-09-05T04:32:48	20.4	88
83253	2024-09-05T04:42:48	20.5	88.5
83254	2024-09-05T04:52:48	20.5	88.5
83255	2024-09-05T05:02:48	20.5	88.5
83256	2024-09-05T05:12:48	20.4	89
83257	2024-09-05T05:22:48	20.4	88.5
83258	2024-09-05T05:32:48	20.4	89
83259	2024-09-05T05:42:48	20.4	89
83260	2024-09-05T05:52:48	20.5	88.5
83261	2024-09-05T06:02:48	20.5	88.5
83262	2024-09-05T06:12:48	20.7	88
83263	2024-09-05T06:22:48	20.8	87.5
83264	2024-09-05T06:32:48	20.9	87
83265	2024-09-05T06:42:48	21	87
83266	2024-09-05T06:52:48	21.2	87
83267	2024-09-05T07:02:48	21.2	86.5
83268	2024-09-05T07:12:48	21.4	86
83269	2024-09-05T07:22:48	21.5	85.5
83270	2024-09-05T07:32:48	21.9	85
83271	2024-09-05T07:42:48	22	84.5
83272	2024-09-05T07:52:48	22	84.5
83273	2024-09-05T08:02:48	22.3	83.5
83274	2024-09-05T08:12:48	22.6	83
83275	2024-09-05T08:22:48	22.8	82.5
83276	2024-09-05T08:32:48	22.6	82.5
83277	2024-09-05T08:42:48	22.5	83
83278	2024-09-05T08:52:48	22.7	84
83279	2024-09-05T09:02:48	22.9	82.5
83280	2024-09-05T09:12:48	23	83.5
83281	2024-09-05T09:22:48	23	84
83282	2024-09-05T09:32:48	23.2	82.5
83283	2024-09-05T09:42:48	23.4	82
83284	2024-09-05T09:52:48	23.6	81
83285	2024-09-05T10:02:48	23.7	82
83286	2024-09-05T10:12:47	23.9	80.5
83287	2024-09-05T10:22:47	24.2	80
83288	2024-09-05T10:32:47	24.3	79.5
83289	2024-09-05T10:42:47	24.6	80
83290	2024-09-05T10:52:47	24.9	78
83291	2024-09-05T11:02:47	25.2	77.5
83292	2024-09-05T11:12:47	25.6	76.5
83293	2024-09-05T11:22:47	26	74.5
83294	2024-09-05T11:32:47	26.1	74.5
83295	2024-09-05T11:42:47	26.3	73
83296	2024-09-05T11:52:47	26.2	73.5
83297	2024-09-05T12:02:47	26.4	72.5
83298	2024-09-05T12:12:47	26.7	72.5
83299	2024-09-05T12:22:47	27.2	70.5
83300	2024-09-05T12:32:47	27.7	68.5
83301	2024-09-05T12:42:47	29.5	63.5
83302	2024-09-05T12:52:47	29.9	62
83303	2024-09-05T13:02:47	30.3	61.5
83304	2024-09-05T13:12:47	30.7	59.5
83305	2024-09-05T13:22:47	30.6	58.5
83306	2024-09-05T13:32:47	31	57
83307	2024-09-05T13:42:47	31.6	55
83308	2024-09-05T13:52:47	31.7	55.5
83309	2024-09-05T14:02:47	31.5	56
83310	2024-09-05T14:12:47	31.2	55.5
83311	2024-09-05T14:22:47	29.8	59.5
83312	2024-09-05T14:32:47	29.3	61.5
83313	2024-09-05T14:42:47	29	62.5
83314	2024-09-05T14:52:47	29	63
83315	2024-09-05T15:02:47	28.4	64.5
83316	2024-09-05T15:12:47	28	65.5
83317	2024-09-05T15:22:47	27.9	66.5
83318	2024-09-05T15:32:47	27.9	66
83319	2024-09-05T15:42:47	27.4	68
83320	2024-09-05T15:52:47	27	68.5
83321	2024-09-05T16:02:47	26.7	70
83322	2024-09-05T16:12:47	26.5	71
83323	2024-09-05T16:22:47	26.2	71.5
83324	2024-09-05T16:32:47	26.1	72
83325	2024-09-05T16:42:47	25.8	73.5
83326	2024-09-05T16:52:47	25.5	74
83327	2024-09-05T17:02:47	25.4	75
83328	2024-09-05T17:12:47	25.2	75
83329	2024-09-05T17:22:47	25	75.5
83330	2024-09-05T17:32:47	24.8	75.5
83331	2024-09-05T17:42:47	24.6	76
83332	2024-09-05T17:52:47	24.5	76
83333	2024-09-05T18:02:47	24.3	76.5
83334	2024-09-05T18:12:47	24.1	77
83335	2024-09-05T18:22:47	23.9	77.5
83336	2024-09-05T18:32:47	23.8	78.5
83337	2024-09-05T18:42:47	23.5	78
83338	2024-09-05T18:52:47	23.3	75.5
83339	2024-09-05T19:02:47	22.6	76.5
83340	2024-09-05T19:12:47	22	81.5
83341	2024-09-05T19:22:47	21.7	82
83342	2024-09-05T19:32:47	21.5	82.5
83343	2024-09-05T19:42:47	21	91
83344	2024-09-05T19:52:47	20	93.5
83345	2024-09-05T20:02:47	19.8	94
83346	2024-09-05T20:12:47	19.7	93.5
83347	2024-09-05T20:22:47	19.6	93.5
83348	2024-09-05T20:32:46	19.6	92.5
83349	2024-09-05T20:42:46	18.9	100
83350	2024-09-05T20:52:46	18.7	100
83351	2024-09-05T21:02:46	18.4	100
83352	2024-09-05T21:12:46	18.2	100
83353	2024-09-05T21:22:46	18.1	100
83354	2024-09-05T21:32:46	17.6	100
83355	2024-09-05T21:42:46	17.7	100
83356	2024-09-05T21:52:46	17.6	100
83357	2024-09-05T22:02:46	17.5	100
83358	2024-09-05T22:12:46	17.5	100
83359	2024-09-05T22:22:46	17.4	100
83360	2024-09-05T22:32:46	17.4	100
83361	2024-09-05T22:42:46	17.4	100
83362	2024-09-05T22:52:46	17.5	100
83363	2024-09-05T23:30:31	17.4	100
83364	2024-09-05T23:30:31	17.3	100
83365	2024-09-05T23:30:31	17.4	100
83366	2024-09-05T23:32:46	17.3	100
83367	2024-09-05T23:42:46	17.2	100
83368	2024-09-05T23:52:46	17.1	100
83369	2024-09-06T00:02:46	16.9	100
83370	2024-09-06T00:12:46	16.9	94
83371	2024-09-06T00:22:46	16.9	94
83372	2024-09-06T00:32:46	16.8	94
83373	2024-09-06T00:42:46	16.9	94
83374	2024-09-06T00:52:46	16.7	94
83375	2024-09-06T01:02:46	16.8	94
83376	2024-09-06T01:12:46	16.8	94
83377	2024-09-06T01:22:46	16.9	94
83378	2024-09-06T01:32:46	16.8	94
83379	2024-09-06T01:42:46	16.8	94
83380	2024-09-06T01:52:46	16.6	94
83381	2024-09-06T02:02:46	16.7	94
83382	2024-09-06T02:12:46	16.8	94
83383	2024-09-06T02:22:46	16.7	94.5
83384	2024-09-06T02:32:46	16.6	94
83385	2024-09-06T02:42:46	16.8	94
83386	2024-09-06T02:52:46	16.7	94.5
83387	2024-09-06T03:02:46	16.8	94
83388	2024-09-06T03:12:46	16.8	94.5
83389	2024-09-06T03:22:46	16.9	94.5
83390	2024-09-06T03:32:46	16.7	94.5
83391	2024-09-06T03:42:46	16.6	94.5
83392	2024-09-06T03:52:46	16.6	94.5
83393	2024-09-06T04:02:46	16.5	94.5
83394	2024-09-06T04:12:46	16.5	94.5
83395	2024-09-06T04:22:46	16.2	94.5
83396	2024-09-06T04:32:46	16.1	94.5
83397	2024-09-06T04:42:46	15.9	94.5
83398	2024-09-06T04:52:46	16.1	94.5
83399	2024-09-06T05:02:46	16.1	94.5
83400	2024-09-06T05:12:46	16.1	94.5
83401	2024-09-06T05:22:46	16.1	94.5
83402	2024-09-06T05:32:46	16.3	94.5
83403	2024-09-06T05:42:46	16.3	94.5
83404	2024-09-06T05:52:46	16.4	94.5
83405	2024-09-06T06:02:46	16.5	94.5
83406	2024-09-06T06:12:46	16.7	94.5
83407	2024-09-06T06:22:46	16.8	94.5
83408	2024-09-06T06:32:46	16.8	94.5
83409	2024-09-06T06:42:46	16.9	94.5
83410	2024-09-06T06:52:46	17.1	94.5
83411	2024-09-06T07:02:46	17.2	94.5
83412	2024-09-06T07:12:46	17.6	94.5
83413	2024-09-06T07:22:46	17.6	94.5
83414	2024-09-06T07:32:46	17.5	94.5
83415	2024-09-06T07:42:45	17.4	94.5
83416	2024-09-06T07:52:45	17.6	94.5
83417	2024-09-06T08:02:45	17.7	94.5
83418	2024-09-06T08:12:45	17.8	94.5
83419	2024-09-06T08:22:45	17.9	94.5
83420	2024-09-06T08:32:45	18.1	94.5
83421	2024-09-06T08:42:45	18	94.5
83422	2024-09-06T08:52:45	17.9	95
83423	2024-09-06T09:02:45	18.4	95
83424	2024-09-06T09:12:45	18.7	95
83425	2024-09-06T09:22:45	18.9	95
83426	2024-09-06T09:32:45	18.9	95
83427	2024-09-06T09:42:45	19	95
83428	2024-09-06T09:52:45	19.3	95
83429	2024-09-06T10:02:45	19.6	95
83430	2024-09-06T10:12:45	19.8	95
83431	2024-09-06T10:22:45	20.1	95
83432	2024-09-06T10:32:45	20.4	95
83433	2024-09-06T10:42:45	20.7	95
83434	2024-09-06T10:52:45	21.1	95
83435	2024-09-06T11:02:45	21.4	95
83436	2024-09-06T11:12:45	21.5	95
83437	2024-09-06T11:22:45	22	95
83438	2024-09-06T11:32:45	22	95
83439	2024-09-06T11:42:45	22.4	95
83440	2024-09-06T11:52:45	22.3	95.5
83441	2024-09-06T12:02:45	22.4	95
83442	2024-09-06T12:12:45	23.1	95.5
83443	2024-09-06T12:22:45	24.3	95.5
83444	2024-09-06T12:32:45	24.6	95.5
83445	2024-09-06T12:42:45	24.9	95.5
83446	2024-09-06T12:52:45	25.5	95.5
83447	2024-09-06T13:02:45	26.8	95.5
83448	2024-09-06T13:12:45	26.2	98.5
83449	2024-09-06T13:22:45	26	98.5
83450	2024-09-06T13:32:45	26.2	100
83451	2024-09-06T13:42:45	27.2	100
83452	2024-09-06T13:52:45	30.4	98.5
83453	2024-09-06T14:02:45	29.8	99
83454	2024-09-06T14:12:45	30.5	97
83455	2024-09-06T14:22:45	31	92
83456	2024-09-06T14:32:45	33.4	54.5
83457	2024-09-06T14:42:45	32.8	56.5
83458	2024-09-06T14:52:45	34.4	52
83459	2024-09-06T15:02:45	34.6	49
83460	2024-09-06T15:12:45	32.8	56
83461	2024-09-06T15:22:45	34.2	50.5
83462	2024-09-06T15:32:45	34.9	51.5
83463	2024-09-06T15:42:45	34.6	49.5
83464	2024-09-06T15:52:45	34.9	45.5
83465	2024-09-06T16:02:45	34.7	48
83466	2024-09-06T16:12:45	34.8	46.5
83467	2024-09-06T16:22:45	33.9	53
83468	2024-09-06T16:32:45	32.5	55
83469	2024-09-06T16:42:45	31.2	55.5
83470	2024-09-06T16:52:45	30.4	58
83471	2024-09-06T17:02:45	29.7	61
83472	2024-09-06T17:12:45	29.2	62.5
83473	2024-09-06T17:22:45	28.4	65
83474	2024-09-06T17:32:45	28	68.5
83475	2024-09-06T17:42:45	27.4	73
83476	2024-09-06T17:52:45	26.9	74.5
83477	2024-09-06T18:02:45	26.5	77
83478	2024-09-06T18:12:44	26.1	78
83479	2024-09-06T18:22:44	25.6	79
83480	2024-09-06T18:32:44	25.2	79.5
83481	2024-09-06T18:42:44	24.9	80.5
83482	2024-09-06T18:52:44	24.6	81
83483	2024-09-06T19:02:44	24.4	81
83484	2024-09-06T19:12:44	23.9	77.5
83485	2024-09-06T19:22:44	23.7	80.5
83486	2024-09-06T19:32:44	23.5	82.5
83487	2024-09-06T19:42:44	23.2	81
83488	2024-09-06T19:52:44	22.9	81.5
83489	2024-09-06T20:02:44	22.7	84
83490	2024-09-06T20:12:44	22.5	81
83491	2024-09-06T20:22:44	22.3	81.5
83492	2024-09-06T20:32:44	22.1	81.5
83493	2024-09-06T20:42:44	21.7	80.5
83494	2024-09-06T20:52:44	21.7	82.5
83495	2024-09-06T21:02:44	21.5	85
83496	2024-09-06T21:12:44	21.4	83.5
83497	2024-09-06T21:22:44	21.2	83.5
83498	2024-09-06T21:32:44	21	84.5
83499	2024-09-06T21:42:44	20.9	82
83500	2024-09-06T21:52:44	20.5	83.5
83501	2024-09-06T22:02:44	20.4	84.5
83502	2024-09-06T22:12:44	20.3	84.5
83503	2024-09-06T22:22:44	20.3	84
83504	2024-09-06T22:32:44	20	84.5
83505	2024-09-06T22:42:44	19.9	84
83506	2024-09-06T22:52:44	19.9	84.5
83507	2024-09-06T23:02:44	19.7	86
83508	2024-09-06T23:31:13	19.6	87.5
83509	2024-09-06T23:31:14	19.6	86
83510	2024-09-06T23:32:44	19.5	87.5
83511	2024-09-06T23:42:44	19.3	87
83512	2024-09-06T23:52:44	19.2	86
83513	2024-09-07T00:02:44	19.1	87.5
83514	2024-09-07T00:12:44	19.1	88
83515	2024-09-07T00:22:44	18.9	89
83516	2024-09-07T00:32:44	18.8	89
83517	2024-09-07T00:42:44	18.8	89.5
83518	2024-09-07T00:52:44	18.6	89.5
83519	2024-09-07T01:02:44	18.5	90
83520	2024-09-07T01:12:44	18.4	88.5
83521	2024-09-07T01:22:44	18.4	88.5
83522	2024-09-07T01:32:44	18.1	87.5
83523	2024-09-07T01:42:44	18	88
83524	2024-09-07T01:52:44	17.9	89.5
83525	2024-09-07T02:02:44	17.9	90.5
83526	2024-09-07T02:22:44	17.7	90
83527	2024-09-07T02:32:44	17.7	91
83528	2024-09-07T02:42:44	17.7	90.5
83529	2024-09-07T02:52:44	17.6	91
83530	2024-09-07T03:02:44	17.5	90.5
83531	2024-09-07T03:12:44	17.4	90.5
83532	2024-09-07T03:22:44	17.3	90.5
83533	2024-09-07T03:32:44	17.2	90.5
83534	2024-09-07T03:42:44	17.1	91
83535	2024-09-07T03:52:44	17.1	89.5
83536	2024-09-07T04:02:44	16.8	89.5
83537	2024-09-07T04:12:44	16.8	90.5
83538	2024-09-07T04:22:44	16.8	91
83539	2024-09-07T04:32:44	16.8	91
83540	2024-09-07T04:42:44	16.6	91
83541	2024-09-07T04:52:44	16.6	92
83542	2024-09-07T05:02:44	16.5	92
83543	2024-09-07T05:12:43	16.5	92
83544	2024-09-07T05:22:43	16.6	92.5
83545	2024-09-07T05:32:43	16.8	92.5
83546	2024-09-07T05:42:43	16.8	93
83547	2024-09-07T05:52:43	17	94
83548	2024-09-07T06:02:43	16.8	95
83549	2024-09-07T06:12:43	17	96
83550	2024-09-07T06:22:43	17	95
83551	2024-09-07T06:42:43	17.6	93.5
83552	2024-09-07T06:52:43	17.7	92.5
83553	2024-09-07T07:02:43	17.8	92.5
83554	2024-09-07T07:12:43	17.9	92.5
83555	2024-09-07T07:22:43	17.9	93
83556	2024-09-07T07:32:43	17.9	93.5
83557	2024-09-07T07:42:43	18	94
83558	2024-09-07T07:52:43	18.1	94
83559	2024-09-07T08:02:43	18.3	94
83560	2024-09-07T08:12:43	18.4	94
83561	2024-09-07T08:22:43	18.7	94
83562	2024-09-07T08:32:43	19	94
83563	2024-09-07T08:42:43	19.1	93.5
83564	2024-09-07T08:52:43	19.4	93
83565	2024-09-07T09:02:43	19.6	92.5
83566	2024-09-07T09:12:43	19.9	91.5
83567	2024-09-07T09:22:43	20	92
83568	2024-09-07T09:32:43	20.5	90.5
83569	2024-09-07T09:42:43	20.6	91
83570	2024-09-07T09:52:43	20.9	91.5
83571	2024-09-07T10:02:43	21.1	90.5
83572	2024-09-07T10:12:43	21.4	90.5
83573	2024-09-07T10:22:43	21.6	89.5
83574	2024-09-07T10:32:43	22	88.5
83575	2024-09-07T10:42:43	22.2	87.5
83576	2024-09-07T10:52:43	22.6	85
83577	2024-09-07T11:02:43	22.9	81
83578	2024-09-07T11:12:43	23.4	75.5
83579	2024-09-07T11:22:43	23.8	73.5
83580	2024-09-07T11:32:43	24	73.5
83581	2024-09-07T11:42:43	24.4	70
83582	2024-09-07T11:52:43	24.8	68
83583	2024-09-07T12:02:43	25.3	69
83584	2024-09-07T12:12:43	26.3	62.5
83585	2024-09-07T12:22:43	30.1	53
83586	2024-09-07T12:32:43	32.4	48
83587	2024-09-07T12:42:43	34	45
83588	2024-09-07T12:52:43	35.4	40.5
83589	2024-09-07T13:02:43	36.3	39.5
83590	2024-09-07T13:12:43	37.2	42.5
83591	2024-09-07T13:22:43	37.6	36.5
83592	2024-09-07T13:32:43	38.8	40
83593	2024-09-07T13:42:43	39.5	36
83594	2024-09-07T13:52:43	39.4	37
83595	2024-09-07T14:02:43	39.3	38
83596	2024-09-07T14:12:43	40.5	36
83597	2024-09-07T14:22:43	41	38.5
83598	2024-09-07T14:32:43	41.7	32
83599	2024-09-07T14:42:43	41.7	31.5
83600	2024-09-07T14:52:43	41.8	33.5
83601	2024-09-07T15:02:43	41.9	32
83602	2024-09-07T15:13:03	41.9	33
83603	2024-09-07T15:22:43	41.2	31
83604	2024-09-07T15:32:43	40.3	38
83605	2024-09-07T15:42:43	40.1	36.5
83606	2024-09-07T15:52:43	40.6	33
83607	2024-09-07T16:02:43	40.8	35.5
83608	2024-09-07T16:12:43	40.9	34.5
83609	2024-09-07T16:22:43	40	34
83610	2024-09-07T16:32:43	38.6	40
83611	2024-09-07T16:42:43	37.2	42.5
83612	2024-09-07T16:52:43	36.2	42.5
83613	2024-09-07T17:02:42	35.5	46
83614	2024-09-07T17:12:42	34.7	47
83615	2024-09-07T17:22:42	33.9	50
83616	2024-09-07T17:32:42	33.3	53
83617	2024-09-07T17:42:42	32.6	50
83618	2024-09-07T17:52:42	32	52
83619	2024-09-07T18:02:42	31.6	56
83620	2024-09-07T18:12:42	31.1	59
83621	2024-09-07T18:22:42	30.6	60
83622	2024-09-07T18:32:42	30.2	60
83623	2024-09-07T18:42:42	29.6	58.5
83624	2024-09-07T18:52:42	29.2	61
83625	2024-09-07T19:02:42	28.7	61.5
83626	2024-09-07T19:12:42	28.3	62.5
83627	2024-09-07T19:22:42	28	61
83628	2024-09-07T19:32:42	27.6	61.5
83629	2024-09-07T19:42:42	27.3	61.5
83630	2024-09-07T19:52:42	27.1	62.5
83631	2024-09-07T20:02:42	26.6	61.5
83632	2024-09-07T20:12:42	26.5	61
83633	2024-09-07T20:22:42	26.3	57
83634	2024-09-07T20:32:42	26.2	57.5
83635	2024-09-07T20:42:42	26	59
83636	2024-09-07T20:52:42	25.8	62
83637	2024-09-07T21:02:42	25.5	63.5
83638	2024-09-07T21:12:42	25.4	66
83639	2024-09-07T21:22:42	25.4	64.5
83640	2024-09-07T21:32:42	25.3	65.5
83641	2024-09-07T21:42:42	25.2	66
83642	2024-09-07T21:52:42	24.5	65.5
83643	2024-09-07T22:02:42	24.6	68.5
83644	2024-09-07T22:12:42	24.5	68
83645	2024-09-07T22:32:42	24.5	69.5
83646	2024-09-07T22:42:42	24.5	69.5
83647	2024-09-07T22:52:42	24.3	71
83648	2024-09-07T23:02:42	24.2	71
83649	2024-09-07T23:31:18	24	72
83650	2024-09-07T23:31:18	23.6	74
83651	2024-09-07T23:32:59	23.2	76
83652	2024-09-07T23:42:42	23.2	76
83653	2024-09-07T23:52:42	23.2	75.5
83654	2024-09-08T00:02:42	23.2	77
83655	2024-09-08T00:12:42	23	77.5
83656	2024-09-08T00:22:42	22.9	78
83657	2024-09-08T00:32:42	22.8	79
83658	2024-09-08T00:42:42	22.8	78
83659	2024-09-08T00:52:42	22.7	76
83660	2024-09-08T01:02:42	22.5	75
83661	2024-09-08T01:12:42	22.5	74.5
83662	2024-09-08T01:22:42	22.6	74
83663	2024-09-08T01:32:42	22.6	74
83664	2024-09-08T01:42:42	22.4	75
83665	2024-09-08T01:52:42	22.4	76
83666	2024-09-08T02:02:42	22.6	76.5
83667	2024-09-08T02:12:42	22.4	77
83668	2024-09-08T02:22:42	22.3	78
83669	2024-09-08T02:32:42	22.2	77.5
83670	2024-09-08T02:42:42	22.1	78.5
83671	2024-09-08T02:52:42	22	78
83672	2024-09-08T03:02:41	21.7	78
83673	2024-09-08T03:12:41	21.5	78
83674	2024-09-08T03:22:41	21.5	78.5
83675	2024-09-08T03:32:41	21.3	79.5
83676	2024-09-08T03:42:41	21.3	80
83677	2024-09-08T03:52:41	21	81
83678	2024-09-08T04:02:41	21	81
83679	2024-09-08T04:12:41	21	81.5
83680	2024-09-08T04:22:41	20.9	81.5
83681	2024-09-08T04:32:41	20.9	81.5
83682	2024-09-08T04:42:41	20.8	81.5
83683	2024-09-08T04:52:41	20.8	82
83684	2024-09-08T05:02:41	20.6	82
83685	2024-09-08T05:12:41	20.7	82.5
83686	2024-09-08T05:22:41	20.7	83
83687	2024-09-08T05:32:41	20.6	83
83688	2024-09-08T05:42:41	20.7	83.5
83689	2024-09-08T05:52:41	20.7	83.5
83690	2024-09-08T06:02:41	20.9	83
83691	2024-09-08T06:12:41	20.7	83.5
83692	2024-09-08T06:22:41	20.9	83
83693	2024-09-08T06:32:41	21	83
83694	2024-09-08T06:42:41	21.1	82.5
83695	2024-09-08T06:52:41	21.3	81.5
83696	2024-09-08T07:02:41	21.1	82.5
83697	2024-09-08T07:12:41	21	83.5
83698	2024-09-08T07:22:41	20.9	83.5
83699	2024-09-08T07:32:41	20.9	84
83700	2024-09-08T07:42:41	20.9	82.5
83701	2024-09-08T07:52:41	20.8	81
83702	2024-09-08T08:02:41	20.8	81.5
83703	2024-09-08T08:12:41	20.7	81
83704	2024-09-08T08:22:41	20.6	81.5
83705	2024-09-08T08:32:41	20.5	81.5
83706	2024-09-08T08:42:41	20.6	80.5
83707	2024-09-08T08:52:41	20.7	78.5
83708	2024-09-08T09:02:41	20.7	77
83709	2024-09-08T09:12:41	20.6	76
83710	2024-09-08T09:22:41	20.3	76
83711	2024-09-08T09:32:41	20	78
83712	2024-09-08T09:42:41	20	78
83713	2024-09-08T09:52:41	20	79.5
83714	2024-09-08T10:02:41	19.9	79.5
83715	2024-09-08T10:12:41	19.8	79
83716	2024-09-08T10:22:41	19.9	80
83717	2024-09-08T10:32:41	19.6	80
83718	2024-09-08T10:42:41	19.7	79.5
83719	2024-09-08T10:52:41	19.7	79.5
83720	2024-09-08T11:02:41	19.6	79.5
83721	2024-09-08T11:12:41	20	78.5
83722	2024-09-08T11:22:41	20.2	79
83723	2024-09-08T11:32:41	20.3	78.5
83724	2024-09-08T11:42:41	19.9	79
83725	2024-09-08T11:52:41	20.2	77
83726	2024-09-08T12:02:41	20.4	76
83727	2024-09-08T12:12:41	20.8	75
83728	2024-09-08T12:22:41	21	74
83729	2024-09-08T12:32:41	21.5	73.5
83730	2024-09-08T12:42:41	21.1	74
83731	2024-09-08T12:52:41	21.1	76.5
83732	2024-09-08T13:02:41	21	76
83733	2024-09-08T13:12:41	20.9	77
83734	2024-09-08T13:22:41	20.6	77
83735	2024-09-08T13:32:41	20.4	77.5
83736	2024-09-08T13:42:40	20.4	78
83737	2024-09-08T13:52:40	20.4	79.5
83738	2024-09-08T14:02:41	20.5	79.5
83739	2024-09-08T14:12:41	20.5	79.5
83740	2024-09-08T14:22:40	20.8	80
83741	2024-09-08T14:32:40	20.7	79.5
83742	2024-09-08T14:42:40	20.6	80
83743	2024-09-08T14:52:40	20.6	81.5
83744	2024-09-08T15:02:40	20.5	83
83745	2024-09-08T15:12:40	20.3	84
83746	2024-09-08T15:22:40	20.3	83
83747	2024-09-08T15:32:40	20.2	82
83748	2024-09-08T15:42:40	19.9	82
83749	2024-09-08T15:52:40	20	83.5
83750	2024-09-08T16:02:40	20	83.5
83751	2024-09-08T16:12:40	19.8	83.5
83752	2024-09-08T16:22:40	19.9	84
83753	2024-09-08T16:32:40	19.8	84.5
83754	2024-09-08T16:42:40	19.6	85
83755	2024-09-08T16:52:40	19.6	85.5
83756	2024-09-08T17:02:40	19.5	85.5
83757	2024-09-08T17:12:40	19.3	85.5
83758	2024-09-08T17:22:40	19.2	83.5
83759	2024-09-08T17:32:40	19	85.5
83760	2024-09-08T17:42:40	19	89.5
83761	2024-09-08T17:52:40	19	89
83762	2024-09-08T18:02:40	18.8	87.5
83763	2024-09-08T18:12:40	18.8	88
83764	2024-09-08T18:22:40	18.7	88
83765	2024-09-08T18:32:40	18.6	87.5
83766	2024-09-08T18:42:40	18.6	88
83767	2024-09-08T18:52:57	18.6	87.5
83768	2024-09-08T19:02:40	18.5	88
83769	2024-09-08T19:12:40	18.5	89
83770	2024-09-08T19:22:40	18.5	97.5
83771	2024-09-08T19:32:40	18.4	98
83772	2024-09-08T19:42:40	18.3	97.5
83773	2024-09-08T19:52:40	18.3	95.5
83774	2024-09-08T20:02:40	18.2	94.5
83775	2024-09-08T20:12:40	18	94
83776	2024-09-08T20:22:40	18.1	91.5
83777	2024-09-08T20:32:40	18	91
83778	2024-09-08T20:42:40	17.9	89
83779	2024-09-08T20:52:40	17.7	89.5
83780	2024-09-08T21:02:40	17.6	89.5
83781	2024-09-08T21:12:40	17.5	89
83782	2024-09-08T21:22:40	17.2	89.5
83783	2024-09-08T21:32:40	17	89.5
83784	2024-09-08T21:42:40	16.8	89.5
83785	2024-09-08T21:52:40	16.8	90
83786	2024-09-08T22:02:40	16.6	88
83787	2024-09-08T22:12:40	16.6	87.5
83788	2024-09-08T22:22:40	16.6	89
83789	2024-09-08T22:32:40	16.6	89
83790	2024-09-08T22:42:40	16.6	89
83791	2024-09-08T22:52:40	16.5	89.5
83792	2024-09-08T23:31:05	16.4	89.5
83793	2024-09-08T23:31:06	16.5	89.5
83794	2024-09-08T23:31:06	16.6	89.5
83795	2024-09-08T23:32:42	16.5	89.5
83796	2024-09-08T23:42:40	16.6	89.5
83797	2024-09-08T23:52:40	16.4	89.5
83798	2024-09-09T00:02:40	16.5	90
83799	2024-09-09T00:12:40	16.5	89.5
83800	2024-09-09T00:22:40	16.4	90
83801	2024-09-09T00:32:40	16.4	90.5
83802	2024-09-09T00:42:40	16.2	90.5
83803	2024-09-09T00:52:39	16.1	91
83804	2024-09-09T01:02:39	16.3	91
83805	2024-09-09T01:12:39	16.1	91.5
83806	2024-09-09T01:22:39	16	91.5
83807	2024-09-09T01:32:39	16	91
83808	2024-09-09T01:42:39	15.9	91
83809	2024-09-09T01:52:39	15.9	91
83810	2024-09-09T02:02:39	15.8	91.5
83811	2024-09-09T02:12:39	15.8	91.5
83812	2024-09-09T02:22:39	15.7	91
83813	2024-09-09T02:32:39	15.6	91
83814	2024-09-09T02:42:39	15.6	91
83815	2024-09-09T02:52:39	15.6	91.5
83816	2024-09-09T03:02:39	15.5	91.5
83817	2024-09-09T03:12:39	15.4	91.5
83818	2024-09-09T03:22:39	15.4	91.5
83819	2024-09-09T03:32:39	15.3	92
83820	2024-09-09T03:42:39	15.2	92.5
83821	2024-09-09T03:52:39	15.3	92
83822	2024-09-09T04:02:39	15.3	91.5
83823	2024-09-09T04:12:39	15.2	91.5
83824	2024-09-09T04:22:39	15.1	92.5
83825	2024-09-09T04:32:39	15.1	92.5
83826	2024-09-09T04:42:39	15	92.5
83827	2024-09-09T04:52:39	14.9	92
83828	2024-09-09T05:02:39	14.8	92
83829	2024-09-09T05:12:39	14.8	92
83830	2024-09-09T05:22:39	14.8	92
83831	2024-09-09T05:32:39	14.9	92.5
83832	2024-09-09T05:42:39	15	91.5
83833	2024-09-09T05:52:39	15.2	90.5
83834	2024-09-09T06:02:39	15.4	90.5
83835	2024-09-09T06:12:39	15.8	89.5
83836	2024-09-09T06:22:39	16	88.5
83837	2024-09-09T06:32:39	16.1	87.5
83838	2024-09-09T06:42:39	15.9	93.5
83839	2024-09-09T06:52:39	15.4	96
83840	2024-09-09T07:02:39	15.3	97
83841	2024-09-09T07:12:39	15.3	98
83842	2024-09-09T07:22:39	15.5	98.5
83843	2024-09-09T07:32:39	15.4	99.5
83844	2024-09-09T07:42:39	15.4	100
83845	2024-09-09T07:52:39	15.2	100
83846	2024-09-09T08:02:39	15.4	100
83847	2024-09-09T08:12:39	15.5	100
83848	2024-09-09T08:22:39	15.5	100
83849	2024-09-09T08:32:39	15.4	99.5
83850	2024-09-09T08:42:39	15.4	99.5
83851	2024-09-09T08:52:39	15.5	100
83852	2024-09-09T09:02:39	15.8	99.5
83853	2024-09-09T09:12:39	16.1	98.5
83854	2024-09-09T09:22:39	16.8	96.5
83855	2024-09-09T09:32:39	17	95.5
83856	2024-09-09T09:42:39	17	94.5
83857	2024-09-09T09:52:39	17.2	93.5
83858	2024-09-09T10:02:39	17.5	87.5
83859	2024-09-09T10:12:39	17.7	86.5
83860	2024-09-09T10:22:39	17.9	86.5
83861	2024-09-09T10:32:39	18.3	85
83862	2024-09-09T10:42:39	18.2	85
83863	2024-09-09T10:52:39	18.3	83
83864	2024-09-09T11:02:39	18.5	84.5
83865	2024-09-09T11:12:39	18.5	82
83866	2024-09-09T11:22:39	18.8	80.5
83867	2024-09-09T11:32:39	18.7	85
83868	2024-09-09T11:42:39	19.3	80.5
83869	2024-09-09T11:52:39	19.4	79.5
83870	2024-09-09T12:02:39	19	83
83871	2024-09-09T12:12:39	18.4	81
83872	2024-09-09T12:22:39	19.8	77.5
83873	2024-09-09T12:42:39	21.4	70
83874	2024-09-09T12:52:39	21.5	72
83875	2024-09-09T13:02:38	23.4	66.5
83876	2024-09-09T13:12:38	23.8	63.5
83877	2024-09-09T13:22:38	22.6	63.5
83878	2024-09-09T13:32:38	23.7	60
83879	2024-09-09T13:42:38	22.3	63
83880	2024-09-09T13:52:38	21.6	65.5
83881	2024-09-09T14:02:38	21.8	64.5
83882	2024-09-09T14:12:38	21.8	64.5
83883	2024-09-09T14:22:38	18.6	98.5
83884	2024-09-09T14:32:38	18.3	100
83885	2024-09-09T14:42:38	17.7	100
83886	2024-09-09T14:52:38	17.2	100
83887	2024-09-09T15:02:38	16.6	100
83888	2024-09-09T15:12:38	16.9	100
83889	2024-09-09T15:22:38	17.3	100
83890	2024-09-09T15:32:38	17.2	100
83891	2024-09-09T15:42:38	17.1	100
83892	2024-09-09T15:52:38	16.5	100
83893	2024-09-09T16:02:38	16.1	100
83894	2024-09-09T16:12:38	16.5	100
83895	2024-09-09T16:22:38	17.2	100
83896	2024-09-09T16:32:38	17.3	100
83897	2024-09-09T16:42:38	17.2	99.5
83898	2024-09-09T16:52:38	16.9	99.5
83899	2024-09-09T17:02:38	16.9	99
83900	2024-09-09T17:12:38	17	99
83901	2024-09-09T17:22:38	17.1	98.5
83902	2024-09-09T17:32:38	16.9	97.5
83903	2024-09-09T17:42:38	17	97
83904	2024-09-09T17:52:38	17	96.5
83905	2024-09-09T18:02:38	17	95.5
83906	2024-09-09T18:12:38	17	95
83907	2024-09-09T18:22:38	16.8	94.5
83908	2024-09-09T18:32:38	16.8	94.5
83909	2024-09-09T18:42:38	16.5	94.5
83910	2024-09-09T18:52:38	16.5	94.5
83911	2024-09-09T19:02:38	16.4	94.5
83912	2024-09-09T19:12:38	16.5	94.5
83913	2024-09-09T19:22:38	16.6	94.5
83914	2024-09-09T19:32:38	16.4	94.5
83915	2024-09-09T19:42:38	16.5	94.5
83916	2024-09-09T19:52:38	16.4	95
83917	2024-09-09T20:02:38	16.5	94.5
83918	2024-09-09T20:12:38	16.5	94.5
83919	2024-09-09T20:22:38	16.6	95
83920	2024-09-09T20:32:38	16.7	95
83921	2024-09-09T20:42:38	16.7	95
83922	2024-09-09T20:52:38	16.8	95
83923	2024-09-09T21:02:38	16.3	95
83924	2024-09-09T21:12:38	16.2	95
83925	2024-09-09T21:22:38	16.1	94.5
83926	2024-09-09T21:32:38	16.1	94.5
83927	2024-09-09T21:42:38	16.1	94.5
83928	2024-09-09T21:52:38	16.1	94.5
83929	2024-09-09T22:02:38	16	94.5
83930	2024-09-09T22:12:38	16	94.5
83931	2024-09-09T22:22:38	16.1	94.5
83932	2024-09-09T22:32:38	16.2	94.5
83933	2024-09-09T22:42:38	16	94.5
83934	2024-09-09T22:52:38	16	94.5
83935	2024-09-09T23:30:42	16	94.5
83936	2024-09-09T23:30:43	15.9	94.5
83937	2024-09-09T23:30:43	15.9	94.5
83938	2024-09-09T23:32:38	15.9	94.5
83939	2024-09-09T23:42:38	15.7	95
83940	2024-09-09T23:52:38	15.6	95
83941	2024-09-10T00:02:38	15.6	95
83942	2024-09-10T00:12:38	15.5	95
83943	2024-09-10T00:22:37	15.5	95
83944	2024-09-10T00:32:37	15.6	95
83945	2024-09-10T00:42:37	15.4	95
83946	2024-09-10T00:52:37	15.6	95
83947	2024-09-10T01:02:37	15.5	95
83948	2024-09-10T01:12:37	15.5	95
83949	2024-09-10T01:22:37	15.6	95
83950	2024-09-10T01:32:37	15.4	95
83951	2024-09-10T01:42:37	15.5	95
83952	2024-09-10T01:52:37	15.5	95
83953	2024-09-10T02:02:37	15.4	95
83954	2024-09-10T02:12:37	15.4	95
83955	2024-09-10T02:22:37	15.6	95
83956	2024-09-10T02:32:37	15.5	95.5
83957	2024-09-10T02:42:37	15.5	95.5
83958	2024-09-10T02:52:37	15.6	95
83959	2024-09-10T03:02:37	15.6	95.5
83960	2024-09-10T03:12:37	15.6	95.5
83961	2024-09-10T03:22:37	15.6	95
83962	2024-09-10T03:32:37	15.6	95
83963	2024-09-10T03:42:37	15.6	95.5
83964	2024-09-10T03:52:37	15.6	95.5
83965	2024-09-10T04:02:37	15.7	95.5
83966	2024-09-10T04:12:37	15.6	95.5
83967	2024-09-10T04:22:37	15.6	95.5
83968	2024-09-10T04:32:37	15.6	95.5
83969	2024-09-10T04:42:37	15.7	95.5
83970	2024-09-10T04:52:37	15.6	95.5
83971	2024-09-10T05:02:37	15.6	95.5
83972	2024-09-10T05:12:37	15.6	95.5
83973	2024-09-10T05:22:37	15.5	95.5
83974	2024-09-10T05:32:37	15.6	95.5
83975	2024-09-10T05:42:37	15.7	95.5
83976	2024-09-10T05:52:37	15.6	95.5
83977	2024-09-10T06:02:37	15.6	95.5
83978	2024-09-10T06:12:37	15.3	95.5
83979	2024-09-10T06:22:37	15.1	95.5
83980	2024-09-10T06:32:37	15.2	95.5
83981	2024-09-10T06:42:37	15.2	95.5
83982	2024-09-10T06:52:37	15.4	95.5
83983	2024-09-10T07:02:37	15.3	95.5
83984	2024-09-10T07:12:37	15.4	95.5
83985	2024-09-10T07:22:37	15.5	95.5
83986	2024-09-10T07:32:37	15.6	95.5
83987	2024-09-10T07:42:37	15.7	95.5
83988	2024-09-10T07:52:37	16	95.5
83989	2024-09-10T08:02:37	16.1	95.5
83990	2024-09-10T08:12:37	16	95.5
83991	2024-09-10T08:22:37	16.1	95.5
83992	2024-09-10T08:32:37	16.1	95.5
83993	2024-09-10T08:42:37	16.2	95.5
83994	2024-09-10T08:52:37	16.5	95.5
83995	2024-09-10T09:02:37	16.7	95.5
83996	2024-09-10T09:12:37	16.6	95.5
83997	2024-09-10T09:22:37	16.8	95.5
83998	2024-09-10T09:32:37	17	95.5
83999	2024-09-10T09:42:37	17	95.5
84000	2024-09-10T09:52:37	17	95.5
84001	2024-09-10T10:02:37	17.1	98.5
84002	2024-09-10T10:12:37	17.4	98.5
84003	2024-09-10T10:22:37	17.8	98.5
84004	2024-09-10T10:32:37	17.8	100
84005	2024-09-10T10:42:37	18.1	100
84006	2024-09-10T10:52:37	18.1	100
84007	2024-09-10T11:02:37	18.2	100
84008	2024-09-10T11:12:37	18.5	100
84009	2024-09-10T11:22:54	18	100
84010	2024-09-10T11:32:37	18.2	100
84011	2024-09-10T11:42:37	18.5	100
84012	2024-09-10T11:52:37	18.5	100
84013	2024-09-10T12:02:37	18.9	97
84014	2024-09-10T12:12:37	19.6	69.5
84015	2024-09-10T12:22:36	19.3	72
84016	2024-09-10T12:32:36	19.3	68.5
84017	2024-09-10T12:42:36	19.7	65.5
84018	2024-09-10T12:52:36	19.6	64.5
84019	2024-09-10T13:02:36	20.5	62
84020	2024-09-10T13:12:36	21.3	56.5
84021	2024-09-10T13:22:36	20.3	60.5
84022	2024-09-10T13:32:36	20.1	59
84023	2024-09-10T13:42:36	21.2	56.5
84024	2024-09-10T13:52:36	21.2	55.5
84025	2024-09-10T14:02:36	21.6	54.5
84026	2024-09-10T14:12:36	21.7	54
84027	2024-09-10T14:22:36	21.6	54
84028	2024-09-10T14:32:36	22.3	51
84029	2024-09-10T14:42:36	22.4	51.5
84030	2024-09-10T14:52:36	23.1	51
84031	2024-09-10T15:02:36	22.9	50.5
84032	2024-09-10T15:12:36	22.6	52.5
84033	2024-09-10T15:22:36	22	53.5
84034	2024-09-10T15:32:36	22	55
84035	2024-09-10T15:42:36	21.5	55
84036	2024-09-10T15:52:36	20.9	56.5
84037	2024-09-10T16:02:36	20.6	57
84038	2024-09-10T16:12:36	20.1	57.5
84039	2024-09-10T16:22:36	19.6	58.5
84040	2024-09-10T16:32:36	19.3	60
84041	2024-09-10T16:42:36	19.1	60.5
84042	2024-09-10T16:52:36	19	61
84043	2024-09-10T17:02:36	18.9	61
84044	2024-09-10T17:12:36	18.8	61.5
84045	2024-09-10T17:22:36	18.5	63
84046	2024-09-10T17:32:36	18.4	63.5
84047	2024-09-10T17:42:36	18.1	64
84048	2024-09-10T17:52:36	17.8	66
84049	2024-09-10T18:02:36	17.7	66.5
84050	2024-09-10T18:12:36	17.5	67
84051	2024-09-10T18:22:36	17.4	69
84052	2024-09-10T18:32:36	17.2	69.5
84053	2024-09-10T18:42:36	17.1	70
84054	2024-09-10T18:52:36	16.9	70.5
84055	2024-09-10T19:02:36	16.8	71.5
84056	2024-09-10T19:12:36	16.7	71.5
84057	2024-09-10T19:22:36	16.6	71.5
84058	2024-09-10T19:32:36	16.6	72
84059	2024-09-10T19:42:36	16.5	72
84060	2024-09-10T19:52:36	16.4	72
84061	2024-09-10T20:02:36	16.4	72
84062	2024-09-10T20:12:36	16.3	72
84063	2024-09-10T20:22:36	16.3	72
84064	2024-09-10T20:32:36	16.2	72
84065	2024-09-10T20:42:36	16.2	72
84066	2024-09-10T20:52:36	16	71.5
84067	2024-09-10T21:02:36	16	72
84068	2024-09-10T21:12:36	16.1	71
84069	2024-09-10T21:22:36	16.2	70.5
84070	2024-09-10T21:32:36	16.2	70.5
84071	2024-09-10T21:42:36	16.2	70.5
84072	2024-09-10T21:52:36	16.3	70
84073	2024-09-10T22:02:36	16.2	70.5
84074	2024-09-10T22:12:36	16.1	70.5
84075	2024-09-10T22:22:36	16	70.5
84076	2024-09-10T22:32:36	16	70
84077	2024-09-10T22:42:36	16.1	70
84078	2024-09-10T22:52:36	16.1	69.5
84079	2024-09-10T23:02:36	16.2	70
84080	2024-09-10T23:30:40	16.2	69.5
84081	2024-09-10T23:30:41	16.2	69.5
84082	2024-09-10T23:32:59	16.2	69
84083	2024-09-10T23:42:35	16.4	69
84084	2024-09-10T23:52:35	16.5	69
84085	2024-09-11T00:02:35	16.5	68.5
84086	2024-09-11T00:12:35	16.5	69
84087	2024-09-11T00:22:35	16.6	68.5
84088	2024-09-11T00:32:35	16.6	69
84089	2024-09-11T00:42:35	16.5	69
84090	2024-09-11T00:52:35	16.3	69.5
84091	2024-09-11T01:02:35	16.4	70.5
84092	2024-09-11T01:12:35	16.3	71
84093	2024-09-11T01:22:35	16.2	71.5
84094	2024-09-11T01:32:35	16.1	72
84095	2024-09-11T01:42:35	16	72
84096	2024-09-11T01:52:35	16	72
84097	2024-09-11T02:02:35	16	72
84098	2024-09-11T02:12:35	15.8	72.5
84099	2024-09-11T02:22:35	15.8	72.5
84100	2024-09-11T02:32:35	15.9	72.5
84101	2024-09-11T02:42:35	15.8	72.5
84102	2024-09-11T02:52:35	15.9	72
84103	2024-09-11T03:02:35	15.8	72
84104	2024-09-11T03:12:35	15.8	71.5
84105	2024-09-11T03:22:35	15.8	71
84106	2024-09-11T03:32:35	15.7	72
84107	2024-09-11T03:42:35	15.7	72
84108	2024-09-11T03:52:35	15.7	72.5
84109	2024-09-11T04:02:35	15.6	72
84110	2024-09-11T04:12:35	15.7	71.5
84111	2024-09-11T04:22:35	15.9	71
84112	2024-09-11T04:32:35	15.8	70
84113	2024-09-11T04:42:35	15.9	70
84114	2024-09-11T04:52:35	15.9	70
84115	2024-09-11T05:02:35	16	69.5
84116	2024-09-11T05:12:35	16	69
84117	2024-09-11T05:22:35	16.1	68.5
84118	2024-09-11T05:32:35	16.2	68
84119	2024-09-11T05:42:35	15.6	72
84120	2024-09-11T05:52:35	15.7	70.5
84121	2024-09-11T06:02:35	15.8	73
84122	2024-09-11T06:12:35	15	79.5
84123	2024-09-11T06:22:35	14.8	79.5
84124	2024-09-11T06:32:35	14.6	80.5
84125	2024-09-11T06:42:35	14.8	79
84126	2024-09-11T06:52:35	15.1	77
84127	2024-09-11T07:02:35	15.3	76.5
84128	2024-09-11T07:12:35	15.5	75.5
84129	2024-09-11T07:22:35	15.4	76.5
84130	2024-09-11T07:32:35	15.2	79
84131	2024-09-11T07:42:35	14.7	81.5
84132	2024-09-11T07:52:35	15	80
84133	2024-09-11T08:02:35	15.1	79.5
84134	2024-09-11T08:12:35	15.3	80.5
84135	2024-09-11T08:22:35	14.9	83
84136	2024-09-11T08:32:35	14.6	87
84137	2024-09-11T08:42:35	14.5	87
84138	2024-09-11T08:52:35	14.5	89
84139	2024-09-11T09:02:35	14.4	89
84140	2024-09-11T09:12:35	14.5	88
84141	2024-09-11T09:22:35	14.6	86
84142	2024-09-11T09:32:35	14.7	86
84143	2024-09-11T09:42:35	14.8	87
84144	2024-09-11T09:52:35	14.7	88
84145	2024-09-11T10:02:35	14.3	93.5
84146	2024-09-11T10:12:35	14.1	96
84147	2024-09-11T10:22:35	14.1	98
84148	2024-09-11T10:32:35	14.1	99.5
84149	2024-09-11T10:42:35	14.2	99.5
84150	2024-09-11T10:52:35	14.1	100
84151	2024-09-11T11:02:35	14.3	100
84152	2024-09-11T11:12:35	14	100
84153	2024-09-11T11:22:35	14	100
84154	2024-09-11T11:32:35	13.9	100
84155	2024-09-11T11:42:35	14	100
84156	2024-09-11T11:52:35	13.7	100
84157	2024-09-11T12:02:34	13.7	100
84158	2024-09-11T12:12:34	13.4	100
84159	2024-09-11T12:22:34	13.2	100
84160	2024-09-11T12:32:34	12.8	100
84161	2024-09-11T12:42:34	12.8	100
84162	2024-09-11T12:52:34	12.7	100
84163	2024-09-11T13:02:34	12.6	100
84164	2024-09-11T13:12:34	12.4	100
84165	2024-09-11T13:22:34	12.4	100
84166	2024-09-11T13:32:34	12.1	100
84167	2024-09-11T13:42:34	12	100
84168	2024-09-11T13:52:34	11.9	100
84169	2024-09-11T14:02:34	11.9	100
84170	2024-09-11T14:12:34	11.7	100
84171	2024-09-11T14:22:34	11.8	100
84172	2024-09-11T14:32:34	11.5	100
84173	2024-09-11T14:42:34	11.5	100
84174	2024-09-11T14:52:34	11.5	100
84175	2024-09-11T15:02:34	11.3	100
84176	2024-09-11T15:12:34	11.5	100
84177	2024-09-11T15:22:34	11.4	100
84178	2024-09-11T15:32:34	11.4	100
84179	2024-09-11T15:42:34	11.2	100
84180	2024-09-11T15:52:34	11.3	100
84181	2024-09-11T16:02:34	11.2	100
84182	2024-09-11T16:12:34	11.3	100
84183	2024-09-11T16:22:34	11.2	100
84184	2024-09-11T16:32:34	11.3	100
84185	2024-09-11T16:42:34	11.2	100
84186	2024-09-11T16:52:34	11.1	100
84187	2024-09-11T17:02:34	11.1	100
84188	2024-09-11T17:12:34	11	100
84189	2024-09-11T17:22:34	11	100
84190	2024-09-11T17:32:34	10.9	100
84191	2024-09-11T17:42:34	11	100
84192	2024-09-11T17:52:34	11.1	100
84193	2024-09-11T18:02:34	11	100
84194	2024-09-11T18:12:34	11	100
84195	2024-09-11T18:22:34	10.9	100
84196	2024-09-11T18:32:34	10.9	100
84197	2024-09-11T18:42:34	10.8	100
84198	2024-09-11T18:52:34	10.7	100
84199	2024-09-11T19:02:34	10.6	100
84200	2024-09-11T19:12:34	10.5	100
84201	2024-09-11T19:22:34	10.3	100
84202	2024-09-11T19:32:34	10.3	100
84203	2024-09-11T19:42:34	10.1	100
84204	2024-09-11T19:52:34	10	100
84205	2024-09-11T20:02:34	10	100
84206	2024-09-11T20:12:34	9.9	100
84207	2024-09-11T20:22:34	9.9	100
84208	2024-09-11T20:32:34	9.9	100
84209	2024-09-11T20:42:34	9.9	100
84210	2024-09-11T20:52:34	10	100
84211	2024-09-11T21:02:34	10.1	100
84212	2024-09-11T21:12:34	10.2	100
84213	2024-09-11T21:22:34	10.2	100
84214	2024-09-11T21:32:34	10.2	100
84215	2024-09-11T21:42:34	10.2	100
84216	2024-09-11T21:52:34	10.2	100
84217	2024-09-11T22:02:34	10.2	100
84218	2024-09-11T22:12:34	10.3	100
84219	2024-09-11T22:22:34	10.3	100
84220	2024-09-11T22:32:34	10.3	100
84221	2024-09-11T22:42:34	10.3	100
84222	2024-09-11T22:52:34	10.3	100
84223	2024-09-11T23:31:49	10.4	100
84224	2024-09-11T23:31:49	10.4	100
84225	2024-09-11T23:31:49	10.5	100
84226	2024-09-11T23:32:34	10.5	100
84227	2024-09-11T23:42:34	10.5	100
84228	2024-09-11T23:52:34	10.4	100
84229	2024-09-12T00:02:34	10.3	100
84230	2024-09-12T00:12:34	10	100
84231	2024-09-12T00:22:34	10	100
84232	2024-09-12T00:32:34	9.8	100
84233	2024-09-12T00:42:34	9.7	100
84234	2024-09-12T00:52:34	9.6	100
84235	2024-09-12T01:02:34	9.6	100
84236	2024-09-12T01:12:34	9.5	100
84237	2024-09-12T01:22:34	9.5	100
84238	2024-09-12T01:32:34	9.4	100
84239	2024-09-12T01:42:34	9.6	100
84240	2024-09-12T01:52:34	9.7	100
84241	2024-09-12T02:02:34	9.5	100
84242	2024-09-12T02:12:34	9.4	100
84243	2024-09-12T02:22:34	9.5	100
84244	2024-09-12T02:32:34	9.4	100
84245	2024-09-12T02:42:34	9.4	100
84246	2024-09-12T02:52:34	9.4	100
84247	2024-09-12T03:02:34	9.3	100
84248	2024-09-12T03:12:34	9.4	100
84249	2024-09-12T03:22:34	9.4	100
84250	2024-09-12T03:32:34	9.4	100
84251	2024-09-12T03:42:34	9.4	100
84252	2024-09-12T03:52:33	9.4	100
84253	2024-09-12T04:02:33	9.5	100
84254	2024-09-12T04:12:33	9.4	100
84255	2024-09-12T04:22:33	9.3	100
84256	2024-09-12T04:32:33	9.3	100
84257	2024-09-12T04:42:33	9.4	100
84258	2024-09-12T04:52:33	9.3	100
84259	2024-09-12T05:02:33	9.4	100
84260	2024-09-12T05:12:33	9.5	100
84261	2024-09-12T05:22:33	9.5	100
84262	2024-09-12T05:32:33	9.7	100
84263	2024-09-12T05:42:33	9.8	100
84264	2024-09-12T05:52:33	9.9	100
84265	2024-09-12T06:02:33	10	100
84266	2024-09-12T06:12:33	10.1	100
84267	2024-09-12T06:22:33	10.3	100
84268	2024-09-12T06:32:33	10.3	100
84269	2024-09-12T06:42:33	10.5	100
84270	2024-09-12T06:52:33	10.6	100
84271	2024-09-12T07:02:33	10.8	100
84272	2024-09-12T07:12:33	10.9	94.5
84273	2024-09-12T07:22:33	11.1	90.5
84274	2024-09-12T07:32:33	11.3	88
84275	2024-09-12T07:42:33	11.4	86.5
84276	2024-09-12T07:52:33	11.4	86.5
84277	2024-09-12T08:02:33	11.7	85
84278	2024-09-12T08:12:33	11.7	82.5
84279	2024-09-12T08:22:33	11.9	83.5
84280	2024-09-12T08:32:33	12.7	80.5
84281	2024-09-12T08:42:33	12.9	78.5
84282	2024-09-12T08:52:33	12.8	80
84283	2024-09-12T09:02:33	12.9	78.5
84284	2024-09-12T09:12:33	12.7	79
84285	2024-09-12T09:22:33	13.1	79.5
84286	2024-09-12T09:32:33	13.3	81.5
84287	2024-09-12T09:42:33	13.3	84
84288	2024-09-12T09:52:33	12.5	86
84289	2024-09-12T10:02:33	12.6	84
84290	2024-09-12T10:12:33	12.5	89
84291	2024-09-12T10:22:33	11.1	99
84292	2024-09-12T10:32:33	11.4	100
84293	2024-09-12T10:42:33	11.5	100
84294	2024-09-12T10:52:33	11.6	100
84295	2024-09-12T11:02:33	11.9	98.5
84296	2024-09-12T11:12:33	12.1	97.5
84297	2024-09-12T11:22:33	12.1	96.5
84298	2024-09-12T11:32:33	12.6	91.5
84299	2024-09-12T11:42:33	12.8	90.5
84300	2024-09-12T11:52:33	13.1	84.5
84301	2024-09-12T12:02:33	13.4	82
84302	2024-09-12T12:12:33	14.7	76
84303	2024-09-12T12:22:33	16.9	68.5
84304	2024-09-12T12:32:33	18.6	60.5
84305	2024-09-12T12:42:33	19.6	54
84306	2024-09-12T12:52:33	18.6	56
84307	2024-09-12T13:02:33	17.8	64.5
84308	2024-09-12T13:12:33	17.4	59
84309	2024-09-12T13:22:33	17.9	58
84310	2024-09-12T13:32:33	18.6	49.5
84311	2024-09-12T13:42:33	19.4	48
84312	2024-09-12T13:52:33	20.6	46
84313	2024-09-12T14:02:33	21.2	45
84314	2024-09-12T14:12:33	21.1	41
84315	2024-09-12T14:22:33	21.7	45
84316	2024-09-12T14:32:33	21.5	42.5
84317	2024-09-12T14:42:33	22	39.5
84318	2024-09-12T14:52:33	21.4	45
84319	2024-09-12T15:02:33	20.7	50
84320	2024-09-12T15:12:33	21.1	42
84321	2024-09-12T15:22:33	21.4	43.5
84322	2024-09-12T15:32:33	21.1	44
84323	2024-09-12T15:42:33	20	44.5
84324	2024-09-12T15:52:33	20	48.5
84325	2024-09-12T16:02:33	20.9	47
84326	2024-09-12T16:12:33	21.1	45
84327	2024-09-12T16:22:33	20.4	46.5
84328	2024-09-12T16:32:33	19.3	49
84329	2024-09-12T16:42:33	18.8	48.5
84330	2024-09-12T16:52:32	18.3	52
84331	2024-09-12T17:02:32	17.5	53
84332	2024-09-12T17:12:32	17.1	55.5
84333	2024-09-12T17:22:33	16.8	57.5
84334	2024-09-12T17:32:32	16.5	63
84335	2024-09-12T17:42:32	16.2	62.5
84336	2024-09-12T17:52:32	15.6	63
84337	2024-09-12T18:02:32	14.9	64.5
84338	2024-09-12T18:12:32	14.8	66.5
84339	2024-09-12T18:22:32	14.2	61.5
84340	2024-09-12T18:32:32	14.1	59.5
84341	2024-09-12T18:42:32	14	63
84342	2024-09-12T18:52:32	13.8	61
84343	2024-09-12T19:02:32	13.8	62
84344	2024-09-12T19:12:33	13.6	60.5
84345	2024-09-12T19:22:32	13.7	62
84346	2024-09-12T19:32:32	13.7	67.5
84347	2024-09-12T19:42:32	13.3	65
84348	2024-09-12T19:52:32	12.9	68
84349	2024-09-12T20:02:32	13.1	72.5
84350	2024-09-12T20:12:32	13.1	73
84351	2024-09-12T20:22:32	13	72.5
84352	2024-09-12T20:32:32	12.8	77
84353	2024-09-12T20:42:32	12.5	76
84354	2024-09-12T20:52:32	12.4	79
84355	2024-09-12T21:02:32	12.3	80.5
84356	2024-09-12T21:12:33	12	76.5
84357	2024-09-12T21:22:32	11.7	76.5
84358	2024-09-12T21:32:32	11.6	79.5
84359	2024-09-12T21:42:32	11.4	81.5
84360	2024-09-12T21:52:32	11.3	83
84361	2024-09-12T22:02:32	11.1	80.5
84362	2024-09-12T22:12:32	10.8	81.5
84363	2024-09-12T22:22:32	10.8	84
84364	2024-09-12T22:32:32	10.7	84
84365	2024-09-12T22:42:32	10.6	85
84366	2024-09-12T22:52:32	10.5	85.5
84367	2024-09-12T23:02:32	10.4	84
84368	2024-09-12T23:31:51	10.3	85.5
84369	2024-09-12T23:31:53	10.1	86.5
84370	2024-09-12T23:32:32	10	86
84371	2024-09-12T23:42:32	10	84
84372	2024-09-12T23:52:33	10.1	86
84373	2024-09-13T00:02:32	10.2	86
84374	2024-09-13T00:12:32	10.1	86.5
84375	2024-09-13T00:22:33	10.1	87
84376	2024-09-13T00:32:32	10.2	86
84377	2024-09-13T00:42:32	10.2	86.5
84378	2024-09-13T00:52:32	10.2	86
84379	2024-09-13T01:02:32	10.2	86.5
84380	2024-09-13T01:12:32	10.2	87.5
84381	2024-09-13T01:22:32	10.2	87.5
84382	2024-09-13T01:32:32	10.1	87.5
84383	2024-09-13T01:42:32	10	88
84384	2024-09-13T01:52:32	10	88.5
84385	2024-09-13T02:02:32	9.9	87
84386	2024-09-13T02:12:32	9.9	87.5
84387	2024-09-13T02:22:32	9.8	87
84388	2024-09-13T02:32:32	9.6	88
84389	2024-09-13T02:42:32	9.6	88
84390	2024-09-13T02:52:32	9.6	88
84391	2024-09-13T03:02:32	9.5	88.5
84392	2024-09-13T03:12:32	9.3	88.5
84393	2024-09-13T03:22:32	9.2	89.5
84394	2024-09-13T03:32:32	9.1	90.5
84395	2024-09-13T03:42:32	9.1	91
84396	2024-09-13T03:52:32	9	90.5
84397	2024-09-13T04:02:32	9	90.5
84398	2024-09-13T04:12:32	8.9	89.5
84399	2024-09-13T04:22:32	8.8	89
84400	2024-09-13T04:32:32	8.8	90
84401	2024-09-13T04:42:32	8.8	90
84402	2024-09-13T04:52:32	8.5	91
84403	2024-09-13T05:02:32	8.5	91.5
84404	2024-09-13T05:12:32	8.4	92
84405	2024-09-13T05:22:32	8.6	92
84406	2024-09-13T05:32:32	8.5	91.5
84407	2024-09-13T05:42:32	8.7	91.5
84408	2024-09-13T05:52:32	8.7	91
84409	2024-09-13T06:02:32	8.8	91.5
84410	2024-09-13T06:12:32	9.1	91
84411	2024-09-13T06:22:32	9.2	91.5
84412	2024-09-13T06:32:32	9.3	91
84413	2024-09-13T06:42:32	9.6	90.5
84414	2024-09-13T06:52:32	9.7	90
84415	2024-09-13T07:02:32	9.8	89.5
84416	2024-09-13T07:12:32	9.9	89.5
84417	2024-09-13T07:22:32	10	89
84418	2024-09-13T07:32:32	10.2	89
84419	2024-09-13T07:42:32	10.4	89
84420	2024-09-13T07:52:32	10.3	89
84421	2024-09-13T08:02:32	10.6	86
84422	2024-09-13T08:12:32	10.8	84.5
84423	2024-09-13T08:22:32	11	84.5
84424	2024-09-13T08:32:32	11	82.5
84425	2024-09-13T08:42:32	11	81.5
84426	2024-09-13T08:52:31	11.4	81
84427	2024-09-13T09:02:32	11.7	80.5
84428	2024-09-13T09:12:32	12.1	79
84429	2024-09-13T09:22:31	12.3	77.5
84430	2024-09-13T09:32:31	12.5	77.5
84431	2024-09-13T09:42:31	12.5	78
84432	2024-09-13T09:52:31	12.7	78
84433	2024-09-13T10:12:31	13	75.5
84434	2024-09-13T10:22:31	12.9	74.5
84435	2024-09-13T10:32:31	13.2	74.5
84436	2024-09-13T10:42:31	13.6	74
84437	2024-09-13T10:52:31	13.7	72
84438	2024-09-13T11:02:31	14	71.5
84439	2024-09-13T11:12:31	14.2	70.5
84440	2024-09-13T11:22:31	13.5	91
84441	2024-09-13T11:32:31	13.8	85
84442	2024-09-13T11:42:31	14.3	75.5
84443	2024-09-13T11:52:31	14.8	72.5
84444	2024-09-13T12:02:31	15.8	66
84445	2024-09-13T12:12:31	15.9	62.5
84446	2024-09-13T12:22:31	16.9	61
84447	2024-09-13T12:32:31	16.7	63
84448	2024-09-13T12:42:31	16.1	64
84449	2024-09-13T12:52:31	16.5	67
84450	2024-09-13T13:02:31	17.8	60.5
84451	2024-09-13T13:12:31	18.7	59
84452	2024-09-13T13:22:31	17.7	61.5
84453	2024-09-13T13:32:31	18.2	61.5
84454	2024-09-13T13:42:31	19.7	56.5
84455	2024-09-13T13:52:31	20.4	53.5
84456	2024-09-13T14:02:31	19	58.5
84457	2024-09-13T14:12:31	18.5	67.5
84458	2024-09-13T14:22:31	19.1	56
84459	2024-09-13T14:32:31	16	96.5
84460	2024-09-13T14:42:31	16.2	100
84461	2024-09-13T14:52:31	16.5	100
84462	2024-09-13T15:02:31	16.3	100
84463	2024-09-13T15:12:31	16.2	100
84464	2024-09-13T15:22:31	15	100
84465	2024-09-13T15:32:31	15	100
84466	2024-09-13T15:42:31	14.8	100
84467	2024-09-13T15:52:31	14.7	100
84468	2024-09-13T16:02:31	14.8	100
84469	2024-09-13T16:12:31	15.8	100
84470	2024-09-13T16:22:31	15.3	100
84471	2024-09-13T16:32:31	15.2	100
84472	2024-09-13T16:42:31	14.7	100
84473	2024-09-13T16:52:31	15	100
84474	2024-09-13T17:02:31	15.2	100
84475	2024-09-13T17:12:31	14.9	100
84476	2024-09-13T17:22:31	14.1	100
84477	2024-09-13T17:32:31	13.9	100
84478	2024-09-13T17:42:31	13.6	100
84479	2024-09-13T17:52:31	13.3	100
84480	2024-09-13T18:02:31	13.1	100
84481	2024-09-13T18:12:31	13	100
84482	2024-09-13T18:22:31	13	100
84483	2024-09-13T18:32:31	12.8	100
84484	2024-09-13T18:42:31	12.6	100
84485	2024-09-13T18:52:31	12.6	100
84486	2024-09-13T19:02:31	12.7	100
84487	2024-09-13T19:12:31	12.6	100
84488	2024-09-13T19:22:31	12.4	100
84489	2024-09-13T19:32:31	12.2	100
84490	2024-09-13T19:42:31	12.1	100
84491	2024-09-13T19:52:31	12	100
84492	2024-09-13T20:02:31	11.9	100
84493	2024-09-13T20:12:31	11.8	100
84494	2024-09-13T20:22:31	11.7	100
84495	2024-09-13T20:32:31	11.7	100
84496	2024-09-13T20:42:31	11.7	100
84497	2024-09-13T20:52:31	11.7	100
84498	2024-09-13T21:02:31	11.5	100
84499	2024-09-13T21:12:31	11.4	100
84500	2024-09-13T21:22:31	11.4	100
84501	2024-09-13T21:32:31	11.3	100
84502	2024-09-13T21:42:31	11.4	100
84503	2024-09-13T21:52:31	11.1	100
84504	2024-09-13T22:02:30	10.9	100
84505	2024-09-13T22:12:30	11.1	100
84506	2024-09-13T22:22:30	11.1	100
84507	2024-09-13T22:32:30	11	100
84508	2024-09-13T22:42:30	11.1	100
84509	2024-09-13T22:52:30	10.9	100
84510	2024-09-13T23:32:15	10.8	100
84511	2024-09-13T23:32:16	10.6	100
84512	2024-09-13T23:32:16	10.8	100
84513	2024-09-13T23:32:35	10.6	100
84514	2024-09-13T23:42:30	10.5	100
84515	2024-09-13T23:52:30	10.1	100
84516	2024-09-14T00:02:30	10	100
84517	2024-09-14T00:12:30	10	100
84518	2024-09-14T00:22:30	10.1	100
84519	2024-09-14T00:32:48	10.2	100
84520	2024-09-14T00:42:30	10.3	100
84521	2024-09-14T00:52:30	10.2	100
84522	2024-09-14T01:02:30	10.2	100
84523	2024-09-14T01:12:30	10.2	100
84524	2024-09-14T01:22:30	10.2	100
84525	2024-09-14T01:32:30	10.3	100
84526	2024-09-14T01:42:30	10.2	100
84527	2024-09-14T01:52:30	10.3	100
84528	2024-09-14T02:02:30	10.3	100
84529	2024-09-14T02:12:30	10.3	100
84530	2024-09-14T02:22:30	10.2	100
84531	2024-09-14T02:32:30	10.2	100
84532	2024-09-14T02:42:30	10.2	100
84533	2024-09-14T02:52:30	10.3	100
84534	2024-09-14T03:02:30	10.3	100
84535	2024-09-14T03:12:30	10.3	100
84536	2024-09-14T03:22:30	10.2	100
84537	2024-09-14T03:32:30	10.2	100
84538	2024-09-14T03:42:30	10.2	100
84539	2024-09-14T03:52:30	10.3	100
84540	2024-09-14T04:02:30	10.2	100
84541	2024-09-14T04:12:30	10.1	100
84542	2024-09-14T04:22:30	10.2	100
84543	2024-09-14T04:32:30	10.2	100
84544	2024-09-14T04:42:30	10.2	100
84545	2024-09-14T04:52:30	10.2	100
84546	2024-09-14T05:02:30	10.2	100
84547	2024-09-14T05:12:30	10.2	100
84548	2024-09-14T05:22:30	10.3	100
84549	2024-09-14T05:32:30	10.3	100
84550	2024-09-14T05:42:30	10.2	100
84551	2024-09-14T05:52:30	10.3	100
84552	2024-09-14T06:02:30	10.2	100
84553	2024-09-14T06:12:30	10.4	100
84554	2024-09-14T06:22:30	10.4	100
84555	2024-09-14T06:32:30	10.5	100
84556	2024-09-14T06:42:30	10.6	100
84557	2024-09-14T06:52:30	10.6	100
84558	2024-09-14T07:02:30	10.8	100
84559	2024-09-14T07:12:30	10.9	100
84560	2024-09-14T07:22:30	11.2	100
84561	2024-09-14T07:32:30	11.3	100
84562	2024-09-14T07:42:30	11.4	100
84563	2024-09-14T07:52:30	11.6	100
84564	2024-09-14T08:02:30	11.8	100
84565	2024-09-14T08:12:30	12	91
84566	2024-09-14T08:22:30	12.2	87
84567	2024-09-14T08:32:30	12.4	85.5
84568	2024-09-14T08:42:30	12.7	84.5
84569	2024-09-14T08:52:30	12.8	80.5
84570	2024-09-14T09:02:30	12.9	81.5
84571	2024-09-14T09:12:30	13	80.5
84572	2024-09-14T09:22:30	13.2	80
84573	2024-09-14T09:32:30	13.2	79
84574	2024-09-14T09:42:30	13.1	78
84575	2024-09-14T09:52:30	13.5	79.5
84576	2024-09-14T10:02:30	13.7	76.5
84577	2024-09-14T10:12:30	13.8	74
84578	2024-09-14T10:22:30	14	70.5
84579	2024-09-14T10:32:30	14.1	68.5
84580	2024-09-14T10:42:30	14	73
84581	2024-09-14T10:52:30	14.3	69
84582	2024-09-14T11:02:30	14.6	72
84583	2024-09-14T11:12:30	15.2	72
84584	2024-09-14T11:22:30	15.2	68
84585	2024-09-14T11:32:30	15.1	64
84586	2024-09-14T11:42:30	15.4	67
84587	2024-09-14T11:52:30	15.5	67.5
84588	2024-09-14T12:02:30	15.4	67
84589	2024-09-14T12:12:30	15.2	67
84590	2024-09-14T12:22:30	15.4	67.5
84591	2024-09-14T12:32:30	15.5	67
84592	2024-09-14T12:42:30	15.9	65.5
84593	2024-09-14T12:52:29	17.3	63
84594	2024-09-14T13:02:29	17.9	59.5
84595	2024-09-14T13:12:29	16.8	58.5
84596	2024-09-14T13:22:29	16.5	62.5
84597	2024-09-14T13:32:29	16.9	60.5
84598	2024-09-14T13:42:29	16.6	61
84599	2024-09-14T13:52:29	16.8	63
84600	2024-09-14T14:02:29	20.3	56
84601	2024-09-14T14:12:29	21.7	50
84602	2024-09-14T14:22:29	21.8	44.5
84603	2024-09-14T14:32:29	20.8	47.5
84604	2024-09-14T14:42:29	20.8	49.5
84605	2024-09-14T14:52:29	19.9	50
84606	2024-09-14T15:02:29	19.3	49.5
84607	2024-09-14T15:12:29	18.8	53.5
84608	2024-09-14T15:22:29	18.2	57
84609	2024-09-14T15:32:29	17.8	59.5
84610	2024-09-14T15:42:29	17.6	59
84611	2024-09-14T15:52:29	17.6	59.5
84612	2024-09-14T16:02:29	17.5	61
84613	2024-09-14T16:12:29	17.2	61
84614	2024-09-14T16:22:29	17.1	61
84615	2024-09-14T16:32:29	16.6	61
84616	2024-09-14T16:42:29	16.6	64
84617	2024-09-14T16:52:29	16.1	65
84618	2024-09-14T17:02:29	16	65.5
84619	2024-09-14T17:12:29	15.9	68.5
84620	2024-09-14T17:22:29	15.9	71
84621	2024-09-14T17:32:29	15.6	69
84622	2024-09-14T17:42:29	15.5	71.5
84623	2024-09-14T17:52:29	15	71.5
84624	2024-09-14T18:02:29	14.8	73.5
84625	2024-09-14T18:12:29	14.4	73
84626	2024-09-14T18:22:29	14.1	76
84627	2024-09-14T18:32:29	14	74.5
84628	2024-09-14T18:42:29	13.7	75.5
84629	2024-09-14T18:52:29	13.7	75
84630	2024-09-14T19:02:29	13.7	76.5
84631	2024-09-14T19:12:29	13.8	76.5
84632	2024-09-14T19:22:29	13.6	77.5
84633	2024-09-14T19:32:29	13.6	78
84634	2024-09-14T19:42:29	13.5	79.5
84635	2024-09-14T19:52:29	13.4	80.5
84636	2024-09-14T20:02:29	13.4	81
84637	2024-09-14T20:12:29	13.4	80
84638	2024-09-14T20:22:29	13.4	82.5
84639	2024-09-14T20:32:29	13.4	80
84640	2024-09-14T20:42:29	13.2	81.5
84641	2024-09-14T20:52:29	13	81
84642	2024-09-14T21:02:29	13.1	82
84643	2024-09-14T21:12:29	13	82.5
84644	2024-09-14T21:22:29	12.9	81.5
84645	2024-09-14T21:32:29	12.8	83
84646	2024-09-14T21:42:29	12.7	84
84647	2024-09-14T21:52:29	12.6	83.5
84648	2024-09-14T22:02:29	12.4	85
84649	2024-09-14T22:12:29	12.4	86.5
84650	2024-09-14T22:22:29	12.3	86
84651	2024-09-14T22:32:29	12.2	86
84652	2024-09-14T22:42:29	12.1	85.5
84653	2024-09-14T22:52:29	12.2	85
84654	2024-09-14T23:31:50	12.2	85
84655	2024-09-14T23:31:50	12.1	86
84656	2024-09-14T23:31:50	12	87
84657	2024-09-14T23:32:29	12.1	87
84658	2024-09-14T23:42:29	12.1	87.5
84659	2024-09-14T23:52:29	12	87.5
84660	2024-09-15T00:02:29	12	87.5
84661	2024-09-15T00:12:29	12	87
84662	2024-09-15T00:22:29	11.9	87.5
84663	2024-09-15T00:32:29	12	88
84664	2024-09-15T00:42:29	12	87
84665	2024-09-15T00:52:29	11.9	87.5
84666	2024-09-15T01:02:29	12	87.5
84667	2024-09-15T01:12:29	11.9	87
84668	2024-09-15T01:22:29	11.8	87
84669	2024-09-15T01:32:29	11.8	88
84670	2024-09-15T01:42:29	11.8	88
84671	2024-09-15T01:52:29	11.7	88
84672	2024-09-15T02:02:28	11.8	89
84673	2024-09-15T02:12:28	11.6	89
84674	2024-09-15T02:22:28	11.6	89
84675	2024-09-15T02:32:28	11.4	89.5
84676	2024-09-15T02:42:28	11.2	90
84677	2024-09-15T02:52:28	11.2	90.5
84678	2024-09-15T03:02:28	11.2	90
84679	2024-09-15T03:12:28	11.1	89
84680	2024-09-15T03:22:28	11.2	89
84681	2024-09-15T03:32:28	11.1	89.5
84682	2024-09-15T03:42:28	11.3	89.5
84683	2024-09-15T03:52:28	11.2	88.5
84684	2024-09-15T04:02:28	11.2	87.5
84685	2024-09-15T04:12:28	11.2	88.5
84686	2024-09-15T04:22:28	11.1	89
84687	2024-09-15T04:32:28	11.1	88.5
84688	2024-09-15T04:42:28	11.2	89
84689	2024-09-15T04:52:28	11.1	89.5
84690	2024-09-15T05:02:28	11.1	89
84691	2024-09-15T05:12:28	11.1	89
84692	2024-09-15T05:22:28	11.1	89.5
84693	2024-09-15T05:32:28	11.1	89.5
84694	2024-09-15T05:42:28	11.1	89.5
84695	2024-09-15T05:52:28	11.2	89.5
84696	2024-09-15T06:02:28	11.2	88.5
84697	2024-09-15T06:12:28	11.2	89
84698	2024-09-15T06:22:28	11.4	89
84699	2024-09-15T06:32:28	11.3	89.5
84700	2024-09-15T06:42:28	11.2	89
84701	2024-09-15T06:52:28	11.3	89.5
84702	2024-09-15T07:02:28	11.4	88
84703	2024-09-15T07:12:28	11.7	85.5
84704	2024-09-15T07:22:28	11.8	85
84705	2024-09-15T07:32:28	12.1	83
84706	2024-09-15T07:42:28	12.3	80
84707	2024-09-15T07:52:28	12.5	79.5
84708	2024-09-15T08:02:28	12.6	80
84709	2024-09-15T08:12:28	12.7	78
84710	2024-09-15T08:22:28	13.1	77.5
84711	2024-09-15T08:32:28	13.3	78.5
84712	2024-09-15T08:42:28	13.2	78
84713	2024-09-15T08:52:28	13	78
84714	2024-09-15T09:02:28	12.8	77.5
84715	2024-09-15T09:12:28	12.9	76.5
84716	2024-09-15T09:22:28	13	77.5
84717	2024-09-15T09:32:28	13.4	74
84718	2024-09-15T09:42:28	13.6	72.5
84719	2024-09-15T09:52:28	14.1	67
84720	2024-09-15T10:02:28	14.4	68.5
84721	2024-09-15T10:12:28	14.7	67
84722	2024-09-15T10:22:28	14.7	68
84723	2024-09-15T10:32:28	14.9	69
84724	2024-09-15T10:42:28	15.2	63.5
84725	2024-09-15T10:52:28	15.3	62.5
84726	2024-09-15T11:02:28	15.4	63.5
84727	2024-09-15T11:12:28	15.1	64
84728	2024-09-15T11:22:28	15.9	61
84729	2024-09-15T11:32:28	16	60.5
84730	2024-09-15T11:42:28	16	61
84731	2024-09-15T11:52:28	16.5	59.5
84732	2024-09-15T12:02:28	17	58
84733	2024-09-15T12:12:28	17	58
84734	2024-09-15T12:22:28	19.5	53.5
84735	2024-09-15T12:32:28	20.8	47.5
84736	2024-09-15T12:42:28	22.3	43.5
84737	2024-09-15T12:52:28	24.1	43
84738	2024-09-15T13:02:28	25.3	41
84739	2024-09-15T13:12:28	24.2	41.5
84740	2024-09-15T13:22:28	25.4	41.5
84741	2024-09-15T13:32:28	25.4	38.5
84742	2024-09-15T13:42:28	26.9	36.5
84743	2024-09-15T13:52:28	27.6	35.5
84744	2024-09-15T14:02:28	28.9	34
84745	2024-09-15T14:12:28	27.8	36.5
84746	2024-09-15T14:22:28	27.3	39
84747	2024-09-15T14:32:28	26.6	40
84748	2024-09-15T14:42:28	25.6	43.5
84749	2024-09-15T14:52:27	24.8	39.5
84750	2024-09-15T15:02:27	26.2	40
84751	2024-09-15T15:12:27	27.5	35.5
84752	2024-09-15T15:22:27	28	37.5
84753	2024-09-15T15:32:27	28.7	36.5
84754	2024-09-15T15:42:27	28.6	35
84755	2024-09-15T15:52:27	28.2	35
84756	2024-09-15T16:02:27	27.8	33
84757	2024-09-15T16:12:27	27.6	36.5
84758	2024-09-15T16:22:27	26.5	38
84759	2024-09-15T16:32:27	25.1	42.5
84760	2024-09-15T16:42:27	24.3	45.5
84761	2024-09-15T16:52:27	23.6	45.5
84762	2024-09-15T17:02:27	23.2	51
84763	2024-09-15T17:12:27	22.5	51
84764	2024-09-15T17:22:27	21.7	52.5
84765	2024-09-15T17:32:27	21.1	54.5
84766	2024-09-15T17:42:27	20.4	55
84767	2024-09-15T17:52:27	20	58.5
84768	2024-09-15T18:02:27	19.5	57.5
84769	2024-09-15T18:12:27	19	59
84770	2024-09-15T18:22:27	18.7	62.5
84771	2024-09-15T18:32:27	18.5	64.5
84772	2024-09-15T18:42:27	17.8	62.5
84773	2024-09-15T18:52:27	17.6	66
84774	2024-09-15T19:02:27	17.3	68
84775	2024-09-15T19:12:27	17	69
84776	2024-09-15T19:22:27	16.7	70
84777	2024-09-15T19:32:27	16.5	70
84778	2024-09-15T19:42:27	16.2	70.5
84779	2024-09-15T19:52:27	16.1	70.5
84780	2024-09-15T20:02:27	15.9	71.5
84781	2024-09-15T20:12:27	15.6	71.5
84782	2024-09-15T20:22:27	15.5	72
84783	2024-09-15T20:32:27	15.2	73
84784	2024-09-15T20:42:27	15	73.5
84785	2024-09-15T20:52:27	14.8	74
84786	2024-09-15T21:02:27	14.8	74.5
84787	2024-09-15T21:12:27	14.7	75
84788	2024-09-15T21:22:27	14.4	75
84789	2024-09-15T21:32:27	14.2	75.5
84790	2024-09-15T21:42:27	14	76
84791	2024-09-15T21:52:27	13.8	76.5
84792	2024-09-15T22:02:27	13.7	75.5
84793	2024-09-15T22:12:27	13.7	75
84794	2024-09-15T22:22:27	13.8	76.5
84795	2024-09-15T22:32:27	13.7	76.5
84796	2024-09-15T22:42:27	13.5	76.5
84797	2024-09-15T22:52:27	13.5	78
84798	2024-09-15T23:31:59	13.4	78
84799	2024-09-15T23:31:59	13.3	78.5
84800	2024-09-15T23:31:59	13.2	78.5
84801	2024-09-15T23:32:28	13.2	79
84802	2024-09-15T23:42:27	13.2	79.5
84803	2024-09-15T23:52:27	13.1	79.5
84804	2024-09-16T00:02:27	13	80
84805	2024-09-16T00:12:27	13.1	80.5
84806	2024-09-16T00:22:27	13	80.5
84807	2024-09-16T00:32:27	12.8	81
84808	2024-09-16T00:42:27	12.9	81.5
84809	2024-09-16T00:52:27	12.7	81.5
84810	2024-09-16T01:02:27	12.7	82.5
84811	2024-09-16T01:12:27	12.5	82.5
84812	2024-09-16T01:22:27	12.3	83
84813	2024-09-16T01:32:27	12	83
84814	2024-09-16T01:42:27	12.1	83.5
84815	2024-09-16T01:52:27	11.8	83.5
84816	2024-09-16T02:02:27	11.8	84
84817	2024-09-16T02:12:27	11.8	84
84818	2024-09-16T02:22:27	11.8	84
84819	2024-09-16T02:32:27	11.8	84.5
84820	2024-09-16T02:42:27	11.8	84
84821	2024-09-16T02:52:27	11.6	83.5
84822	2024-09-16T03:02:27	11.7	84
84823	2024-09-16T03:12:27	11.6	84.5
84824	2024-09-16T03:22:27	11.6	85
84825	2024-09-16T03:32:27	11.6	85
84826	2024-09-16T03:42:26	11.5	85.5
84827	2024-09-16T03:52:26	11.5	85.5
84828	2024-09-16T04:02:26	11.4	85.5
84829	2024-09-16T04:12:26	11.4	85.5
84830	2024-09-16T04:22:26	11.5	85.5
84831	2024-09-16T04:32:26	11.3	86
84832	2024-09-16T04:42:26	11.3	86
84833	2024-09-16T04:52:26	11.3	86
84834	2024-09-16T05:02:26	11.4	86
84835	2024-09-16T05:12:26	11.3	86
84836	2024-09-16T05:22:26	11.3	86.5
84837	2024-09-16T05:32:26	11.1	86.5
84838	2024-09-16T05:42:26	11.1	87
84839	2024-09-16T05:52:26	11.1	87
84840	2024-09-16T06:02:26	11.2	87.5
84841	2024-09-16T06:12:26	11.4	87.5
84842	2024-09-16T06:22:26	11.4	87.5
84843	2024-09-16T06:32:26	11.5	87
84844	2024-09-16T06:42:26	11.4	87.5
84845	2024-09-16T06:52:26	11.7	86.5
84846	2024-09-16T07:02:26	11.8	86
84847	2024-09-16T07:12:26	12.1	86
84848	2024-09-16T07:22:26	12.2	85
84849	2024-09-16T07:32:26	12.3	84
84850	2024-09-16T07:42:26	12.4	83
84851	2024-09-16T07:52:26	12.6	82.5
84852	2024-09-16T08:02:26	12.7	85
84853	2024-09-16T08:12:26	12.7	84.5
84854	2024-09-16T08:22:26	12.7	83
84855	2024-09-16T08:32:26	12.8	82.5
84856	2024-09-16T08:42:26	13.1	81.5
84857	2024-09-16T08:52:26	13.1	81.5
84858	2024-09-16T09:02:26	13.3	81
84859	2024-09-16T09:12:26	13.4	78.5
84860	2024-09-16T09:22:26	13.8	78
84861	2024-09-16T09:32:26	13.8	78
84862	2024-09-16T09:42:26	14.1	77
84863	2024-09-16T09:52:26	14.2	77
84864	2024-09-16T10:02:26	14.4	76.5
84865	2024-09-16T10:12:26	14.4	76
84866	2024-09-16T10:22:26	14.6	76
84867	2024-09-16T10:32:26	14.9	76
84868	2024-09-16T10:42:26	15	76
84869	2024-09-16T10:52:26	15.1	75
84870	2024-09-16T11:02:26	15.5	73
84871	2024-09-16T11:12:26	15.5	73
84872	2024-09-16T11:22:26	15.3	77
84873	2024-09-16T11:32:26	14.9	77.5
84874	2024-09-16T11:42:26	14.9	78.5
84875	2024-09-16T11:52:26	14.8	79.5
84876	2024-09-16T12:02:26	14.9	80.5
84877	2024-09-16T12:12:26	14.9	81
84878	2024-09-16T12:22:26	14.8	81.5
84879	2024-09-16T12:32:26	14.7	82.5
84880	2024-09-16T12:42:26	14.7	82
84881	2024-09-16T12:52:26	14.8	81.5
84882	2024-09-16T13:02:26	14.8	81
84883	2024-09-16T13:12:26	14.8	81
84884	2024-09-16T13:22:26	14.9	81
84885	2024-09-16T13:32:26	14.9	81.5
84886	2024-09-16T13:42:26	14.9	82
84887	2024-09-16T13:52:26	14.8	83
84888	2024-09-16T14:02:26	14.7	87
84889	2024-09-16T14:12:26	14.6	88
84890	2024-09-16T14:22:26	14.6	88.5
84891	2024-09-16T14:32:26	14.6	90.5
84892	2024-09-16T14:42:26	14.6	91
84893	2024-09-16T14:52:26	14.6	90.5
84894	2024-09-16T15:02:26	14.6	90.5
84895	2024-09-16T15:12:26	14.4	91
84896	2024-09-16T15:22:26	14.5	91
84897	2024-09-16T15:32:26	14.4	93
84898	2024-09-16T15:42:26	14.3	92.5
84899	2024-09-16T15:52:26	14.3	93
84900	2024-09-16T16:02:26	14.2	93.5
84901	2024-09-16T16:12:26	14.1	96
84902	2024-09-16T16:22:26	14.1	95.5
84903	2024-09-16T16:32:26	14	95.5
84904	2024-09-16T16:42:26	14.1	95
84905	2024-09-16T16:52:26	14.1	95
84906	2024-09-16T17:02:25	14	95
84907	2024-09-16T17:12:25	14	95
84908	2024-09-16T17:22:25	14	96
84909	2024-09-16T17:32:25	14	95.5
84910	2024-09-16T17:42:25	14	95.5
84911	2024-09-16T17:52:25	14	95
84912	2024-09-16T18:02:25	14.1	95
84913	2024-09-16T18:12:25	14	95
84914	2024-09-16T18:22:25	14	95
84915	2024-09-16T18:32:25	14	95
84916	2024-09-16T18:42:25	14	95.5
84917	2024-09-16T18:52:25	14	95
84918	2024-09-16T19:02:25	14	95
84919	2024-09-16T19:12:25	14.1	95
84920	2024-09-16T19:22:25	14	95
84921	2024-09-16T19:32:25	14	94.5
84922	2024-09-16T19:42:25	14	95
84923	2024-09-16T19:52:25	14	94.5
84924	2024-09-16T20:02:25	14	95
84925	2024-09-16T20:12:25	14	94.5
84926	2024-09-16T20:22:25	14.1	94.5
84927	2024-09-16T20:32:25	14.1	94.5
84928	2024-09-16T20:42:25	14	94.5
84929	2024-09-16T20:52:25	14.1	94.5
84930	2024-09-16T21:02:25	14.1	94.5
84931	2024-09-16T21:12:25	14.1	94.5
84932	2024-09-16T21:22:25	14.1	94.5
84933	2024-09-16T21:32:25	14.2	94.5
84934	2024-09-16T21:42:25	14.1	95
84935	2024-09-16T21:52:25	14.1	94.5
84936	2024-09-16T22:02:25	14.2	94.5
84937	2024-09-16T22:12:25	14.1	94.5
84938	2024-09-16T22:22:25	14.1	94.5
84939	2024-09-16T22:32:25	14	94.5
84940	2024-09-16T22:42:25	14.2	94.5
84941	2024-09-16T22:52:25	14.1	94.5
84942	2024-09-16T23:31:27	14.1	94.5
84943	2024-09-16T23:31:28	14	95
84944	2024-09-16T23:31:28	14	95
84945	2024-09-16T23:32:32	14.1	94.5
84946	2024-09-16T23:42:25	14.1	94.5
84947	2024-09-16T23:52:25	14.1	94.5
84948	2024-09-17T00:02:25	14.1	94.5
84949	2024-09-17T00:12:25	14.1	95
84950	2024-09-17T00:22:25	14.1	94.5
84951	2024-09-17T00:32:25	14	94.5
84952	2024-09-17T00:42:25	14.1	95
84953	2024-09-17T00:52:25	14	95
84954	2024-09-17T01:02:25	14	95
84955	2024-09-17T01:12:25	14	95
84956	2024-09-17T01:22:25	14	95
84957	2024-09-17T01:32:25	13.9	94.5
84958	2024-09-17T01:42:25	13.9	94.5
84959	2024-09-17T01:52:25	14	94.5
84960	2024-09-17T02:02:25	14	94.5
84961	2024-09-17T02:12:25	14	94.5
84962	2024-09-17T02:22:25	13.8	94
84963	2024-09-17T02:32:25	13.9	94
84964	2024-09-17T02:42:25	14	94
84965	2024-09-17T02:52:25	13.9	94
84966	2024-09-17T03:02:25	14	94.5
84967	2024-09-17T03:12:25	14	94
84968	2024-09-17T03:22:25	14	93.5
84969	2024-09-17T03:32:25	14.2	93
84970	2024-09-17T03:42:25	14.1	92.5
84971	2024-09-17T03:52:25	14	92.5
84972	2024-09-17T04:02:25	14.1	92.5
84973	2024-09-17T04:12:25	14.1	93
84974	2024-09-17T04:22:25	14	92.5
84975	2024-09-17T04:32:25	14	92.5
84976	2024-09-17T04:42:25	14	92.5
84977	2024-09-17T04:52:25	14.1	92.5
84978	2024-09-17T05:02:25	14.1	92
84979	2024-09-17T05:12:25	14.1	92
84980	2024-09-17T05:22:25	14.1	91.5
84981	2024-09-17T05:32:25	14.1	91
84982	2024-09-17T05:42:25	14.2	91
84983	2024-09-17T05:52:25	14.2	91.5
84984	2024-09-17T06:02:25	14.1	91
84985	2024-09-17T06:12:25	14.1	91
84986	2024-09-17T06:22:24	14.2	91
84987	2024-09-17T06:32:24	14.1	90.5
84988	2024-09-17T06:42:24	14.2	90.5
84989	2024-09-17T06:52:24	14.2	89.5
84990	2024-09-17T07:02:24	14.3	89.5
84991	2024-09-17T07:12:24	14.2	89
84992	2024-09-17T07:22:24	14.3	89
84993	2024-09-17T07:32:24	14.3	88.5
84994	2024-09-17T07:42:24	14.3	88
84995	2024-09-17T07:52:24	14.3	88
84996	2024-09-17T08:02:24	14.4	88
84997	2024-09-17T08:12:24	14.3	88
84998	2024-09-17T08:22:24	14.4	87.5
84999	2024-09-17T08:32:24	14.5	88.5
85000	2024-09-17T08:42:24	14.5	88.5
85001	2024-09-17T08:52:24	14.8	88.5
85002	2024-09-17T09:02:24	14.9	87.5
85003	2024-09-17T09:12:24	15	87.5
85004	2024-09-17T09:22:24	15	88
85005	2024-09-17T09:32:24	15.1	88
85006	2024-09-17T09:42:24	15.1	88.5
85007	2024-09-17T09:52:24	15.2	88.5
85008	2024-09-17T10:02:24	15.4	88.5
85009	2024-09-17T10:12:24	15.6	88
85010	2024-09-17T10:22:24	15.8	88
85011	2024-09-17T10:32:24	15.8	87.5
85012	2024-09-17T10:42:24	16.1	86.5
85013	2024-09-17T10:52:24	16.3	86.5
85014	2024-09-17T11:02:24	16.2	86.5
85015	2024-09-17T11:12:24	16.3	87.5
85016	2024-09-17T11:22:24	16.4	87.5
85017	2024-09-17T11:32:24	16.6	87
85018	2024-09-17T11:42:24	16.6	86.5
85019	2024-09-17T11:52:24	16.8	86.5
85020	2024-09-17T12:02:45	16.6	87
85021	2024-09-17T12:12:24	16.8	86.5
85022	2024-09-17T12:22:24	16.8	86.5
85023	2024-09-17T12:32:24	16.8	88.5
85024	2024-09-17T12:42:24	16.7	89
85025	2024-09-17T12:52:24	16.9	88.5
85026	2024-09-17T13:02:24	17.2	88.5
85027	2024-09-17T13:12:24	17.5	88.5
85028	2024-09-17T13:22:24	18	86
85029	2024-09-17T13:32:24	19.4	83.5
85030	2024-09-17T13:42:24	21.5	76.5
85031	2024-09-17T13:52:24	22.7	70.5
85032	2024-09-17T14:02:24	21.6	73
85033	2024-09-17T14:12:24	21.9	74.5
85034	2024-09-17T14:22:24	22.7	68.5
85035	2024-09-17T14:32:24	22.2	67
85036	2024-09-17T14:42:24	22	69
85037	2024-09-17T14:52:24	21.5	70.5
85038	2024-09-17T15:02:24	21.2	71.5
85039	2024-09-17T15:12:24	21	74
85040	2024-09-17T15:22:24	20.8	73.5
85041	2024-09-17T15:32:24	20.7	75
85042	2024-09-17T15:42:24	20.8	75.5
85043	2024-09-17T15:52:24	20.5	76
85044	2024-09-17T16:02:24	20.2	77
85045	2024-09-17T16:12:24	20.2	77.5
85046	2024-09-17T16:22:24	20.1	78
85047	2024-09-17T16:32:24	19.9	78.5
85048	2024-09-17T16:42:24	19.8	78
85049	2024-09-17T16:52:24	19.6	78
85050	2024-09-17T17:02:24	19.5	79
85051	2024-09-17T17:12:24	19.4	79
85052	2024-09-17T17:22:24	19.1	80
85053	2024-09-17T17:32:24	19	81.5
85054	2024-09-17T17:42:24	18.7	81
85055	2024-09-17T17:52:23	18.6	81.5
85056	2024-09-17T18:02:23	18.4	82
85057	2024-09-17T18:12:23	18.3	83
85058	2024-09-17T18:22:23	18.3	83
85059	2024-09-17T18:32:23	18.2	83.5
85060	2024-09-17T18:42:23	18.1	84
85061	2024-09-17T18:52:23	18.1	83.5
85062	2024-09-17T19:02:23	17.9	84.5
85063	2024-09-17T19:12:23	17.6	84.5
85064	2024-09-17T19:22:23	17.5	85
85065	2024-09-17T19:32:23	17.4	85.5
85066	2024-09-17T19:42:23	17.2	85.5
85067	2024-09-17T19:52:23	17	85.5
85068	2024-09-17T20:02:23	17	85.5
85069	2024-09-17T20:12:23	16.8	86
85070	2024-09-17T20:22:23	16.8	86.5
85071	2024-09-17T20:32:23	16.6	86.5
85072	2024-09-17T20:42:23	16.4	86.5
85073	2024-09-17T20:52:23	16.4	87
85074	2024-09-17T21:02:23	16.3	87
85075	2024-09-17T21:12:23	16.1	87
85076	2024-09-17T21:22:23	16.1	87.5
85077	2024-09-17T21:32:23	15.9	87.5
85078	2024-09-17T21:42:23	16	88
85079	2024-09-17T21:52:23	15.8	88
85080	2024-09-17T22:02:23	15.8	88.5
85081	2024-09-17T22:12:23	15.8	88.5
85082	2024-09-17T22:22:23	15.7	88.5
85083	2024-09-17T22:32:23	15.6	88.5
85084	2024-09-17T22:42:23	15.5	89
85085	2024-09-17T22:52:23	15.4	88.5
85086	2024-09-17T23:02:23	15.3	89
85087	2024-09-17T23:29:48	15.2	89
85088	2024-09-17T23:29:48	15.2	89
85089	2024-09-17T23:32:23	15.1	89.5
85090	2024-09-17T23:42:23	14.9	89.5
85091	2024-09-17T23:52:23	14.9	89.5
85092	2024-09-18T00:02:23	14.9	90
85093	2024-09-18T00:12:23	14.8	90
85094	2024-09-18T00:22:23	14.7	90
85095	2024-09-18T00:32:23	14.6	90
85096	2024-09-18T00:42:23	14.6	90.5
85097	2024-09-18T00:52:23	14.5	90.5
85098	2024-09-18T01:02:23	14.5	91
85099	2024-09-18T01:12:23	14.5	91.5
85100	2024-09-18T01:22:23	14.4	91.5
85101	2024-09-18T01:32:23	14.4	91
85102	2024-09-18T01:42:23	14.2	90.5
85103	2024-09-18T01:52:23	14.1	90.5
85104	2024-09-18T02:02:23	14	90.5
85105	2024-09-18T02:12:23	13.9	91
85106	2024-09-18T02:22:23	13.8	91
85107	2024-09-18T02:32:23	13.8	91
85108	2024-09-18T02:42:23	13.7	91.5
85109	2024-09-18T02:52:23	13.6	91.5
85110	2024-09-18T03:02:23	13.6	91.5
85111	2024-09-18T03:12:23	13.6	91.5
85112	2024-09-18T03:22:23	13.5	92
85113	2024-09-18T03:32:23	13.5	92.5
85114	2024-09-18T03:42:23	13.4	93
85115	2024-09-18T03:52:23	13.4	93.5
85116	2024-09-18T04:02:23	13.3	94
85117	2024-09-18T04:12:23	13.2	94.5
85118	2024-09-18T04:22:23	13.2	95
85119	2024-09-18T04:32:23	13.3	96
85120	2024-09-18T04:42:23	13.3	96
85121	2024-09-18T04:52:23	13.2	95
85122	2024-09-18T05:02:23	13.3	95
85123	2024-09-18T05:12:23	13.1	95
85124	2024-09-18T05:22:23	13.1	95
85125	2024-09-18T05:32:23	13.2	95
85126	2024-09-18T05:42:23	13.2	95
85127	2024-09-18T05:52:23	13.2	94.5
85128	2024-09-18T06:02:23	13.3	95
85129	2024-09-18T06:12:23	13.4	95
85130	2024-09-18T06:22:23	13.3	95
85131	2024-09-18T06:32:23	13.6	95.5
85132	2024-09-18T06:42:22	13.7	96
85133	2024-09-18T06:52:22	13.8	96
85134	2024-09-18T07:02:22	13.9	96
85135	2024-09-18T07:12:22	14.1	96
85136	2024-09-18T07:22:22	14.3	96
85137	2024-09-18T07:32:22	14.4	96
85138	2024-09-18T07:42:22	14.5	96
85139	2024-09-18T07:52:22	14.9	95.5
85140	2024-09-18T08:02:22	15.2	94
85141	2024-09-18T08:12:22	15.7	92.5
85142	2024-09-18T08:22:22	16	91
85143	2024-09-18T08:32:22	16.6	90.5
85144	2024-09-18T08:42:22	16.9	89
85145	2024-09-18T08:52:22	17.2	87
85146	2024-09-18T09:02:22	17.3	86
85147	2024-09-18T09:12:22	17.5	86
85148	2024-09-18T09:22:22	17.7	85
85149	2024-09-18T09:32:22	17.7	84.5
85150	2024-09-18T09:42:22	18	83.5
85151	2024-09-18T09:52:22	18.4	82.5
85152	2024-09-18T10:02:22	18.5	82.5
85153	2024-09-18T10:12:22	18.7	80
85154	2024-09-18T10:22:22	18.8	80
85155	2024-09-18T10:32:22	19	79.5
85156	2024-09-18T10:42:22	19.4	77.5
85157	2024-09-18T10:52:22	19.5	76.5
85158	2024-09-18T11:02:22	20	74
85159	2024-09-18T11:12:22	20.3	73.5
85160	2024-09-18T11:22:22	20.6	73.5
85161	2024-09-18T11:32:22	20.9	72
85162	2024-09-18T11:42:22	21.1	71
85163	2024-09-18T11:52:22	21.5	69.5
85164	2024-09-18T12:02:22	21.9	67
85165	2024-09-18T12:12:22	22.4	67.5
85166	2024-09-18T12:22:22	24.4	61.5
85167	2024-09-18T12:32:22	24.2	61
85168	2024-09-18T12:42:22	26.4	56.5
85169	2024-09-18T12:52:22	26.4	54.5
85170	2024-09-18T13:02:22	27.9	49.5
85171	2024-09-18T13:12:22	27.6	48.5
85172	2024-09-18T13:22:22	26.3	52
85173	2024-09-18T13:32:22	26.5	50
85174	2024-09-18T13:42:22	25.9	51.5
85175	2024-09-18T13:52:22	27.1	49.5
85176	2024-09-18T14:02:22	27.7	48.5
85177	2024-09-18T14:12:22	29.3	46
85178	2024-09-18T14:22:22	30.3	44
85179	2024-09-18T14:32:22	31.1	42.5
85180	2024-09-18T14:42:22	31.3	39.5
85181	2024-09-18T14:52:22	30.1	41.5
85182	2024-09-18T15:02:22	29.6	39.5
85183	2024-09-18T15:12:22	29.3	40.5
85184	2024-09-18T15:22:22	30	42
85185	2024-09-18T15:32:22	30.1	39.5
85186	2024-09-18T15:42:22	29.2	42
85187	2024-09-18T15:52:22	29.4	40.5
85188	2024-09-18T16:02:22	29.7	41
85189	2024-09-18T16:12:22	29.4	39.5
85190	2024-09-18T16:22:22	28.8	41
85191	2024-09-18T16:32:22	27.6	42
85192	2024-09-18T16:42:22	26.9	44
85193	2024-09-18T16:52:22	26.2	45.5
85194	2024-09-18T17:02:22	25.6	46.5
85195	2024-09-18T17:12:22	25.1	49.5
85196	2024-09-18T17:22:21	24.7	49.5
85197	2024-09-18T17:32:21	24.2	50.5
85198	2024-09-18T17:42:21	23.8	52.5
85199	2024-09-18T17:52:21	23.5	53
85200	2024-09-18T18:02:21	23.2	56.5
85201	2024-09-18T18:12:21	22.9	57
85202	2024-09-18T18:22:21	22.6	55.5
85203	2024-09-18T18:32:21	22.3	58.5
85204	2024-09-18T18:42:21	22.1	59.5
85205	2024-09-18T18:52:21	21.8	60.5
85206	2024-09-18T19:02:21	21.6	60.5
85207	2024-09-18T19:12:21	21.3	61
85208	2024-09-18T19:32:21	21	61.5
85209	2024-09-18T19:42:21	20.7	62.5
85210	2024-09-18T19:52:21	20.6	62.5
85211	2024-09-18T20:02:21	20.3	63.5
85212	2024-09-18T20:12:21	20.1	65.5
85213	2024-09-18T20:22:21	19.9	66
85214	2024-09-18T20:32:21	19.7	66
85215	2024-09-18T20:42:21	19.5	67.5
85216	2024-09-18T20:52:21	19.3	67.5
85217	2024-09-18T21:02:21	19.1	68.5
85218	2024-09-18T21:12:21	19	68.5
85219	2024-09-18T21:22:21	18.7	70.5
85220	2024-09-18T21:32:21	18.6	71
85221	2024-09-18T21:42:21	18.5	71.5
85222	2024-09-18T21:52:21	18.3	72
85223	2024-09-18T22:02:21	18	73
85224	2024-09-18T22:12:21	17.8	73
85225	2024-09-18T22:22:21	17.6	73.5
85226	2024-09-18T22:32:21	17.5	73.5
85227	2024-09-18T22:42:21	17.3	73.5
85228	2024-09-18T23:02:21	17	74
85229	2024-09-18T23:30:42	17	75
85230	2024-09-18T23:30:43	16.8	75.5
85231	2024-09-18T23:32:32	16.6	74.5
85232	2024-09-18T23:42:21	16.5	75
85233	2024-09-18T23:52:21	16.4	75.5
85234	2024-09-19T00:02:21	16.3	75
85235	2024-09-19T00:12:21	16	76.5
85236	2024-09-19T00:22:21	16	75.5
85237	2024-09-19T00:32:21	16	75.5
85238	2024-09-19T00:42:21	15.9	75
85239	2024-09-19T00:52:21	15.7	76
85240	2024-09-19T01:02:21	15.6	77
85241	2024-09-19T01:12:21	15.5	77.5
85242	2024-09-19T01:22:21	15.3	77.5
85243	2024-09-19T01:32:21	15.1	78
85244	2024-09-19T01:42:21	15	78
85245	2024-09-19T01:52:21	14.9	78.5
85246	2024-09-19T02:02:21	14.7	79.5
85247	2024-09-19T02:12:21	14.7	79.5
85248	2024-09-19T02:22:21	14.6	80
85249	2024-09-19T02:32:21	14.4	80.5
85250	2024-09-19T02:42:21	14.4	80.5
85251	2024-09-19T02:52:21	14.3	80
85252	2024-09-19T03:02:21	14.2	81
85253	2024-09-19T03:12:21	14.2	81
85254	2024-09-19T03:22:21	14.3	81
85255	2024-09-19T03:32:21	14.1	81
85256	2024-09-19T03:42:21	14	81
85257	2024-09-19T03:52:21	14	82
85258	2024-09-19T04:02:21	13.8	82
85259	2024-09-19T04:12:21	13.7	82
85260	2024-09-19T04:22:21	13.6	82.5
85261	2024-09-19T04:32:21	13.6	83.5
85262	2024-09-19T04:42:21	13.5	83
85263	2024-09-19T04:52:21	13.6	83
85264	2024-09-19T05:02:21	13.4	83
85265	2024-09-19T05:12:21	13.3	83.5
85266	2024-09-19T05:22:21	13.1	84
85267	2024-09-19T05:32:20	13.1	83.5
85268	2024-09-19T05:42:20	13	84.5
85269	2024-09-19T05:52:20	13.1	84.5
85270	2024-09-19T06:02:20	13	85
85271	2024-09-19T06:12:20	13.1	85.5
85272	2024-09-19T06:22:20	13.2	85.5
85273	2024-09-19T06:32:20	13.3	86
85274	2024-09-19T06:42:20	13.4	86
85275	2024-09-19T06:52:20	13.7	86
85276	2024-09-19T07:02:20	13.8	86
85277	2024-09-19T07:12:20	14.2	85.5
85278	2024-09-19T07:22:20	14.3	85.5
85279	2024-09-19T07:32:20	14.5	84.5
85280	2024-09-19T07:42:20	14.7	84
85281	2024-09-19T07:52:20	14.8	84
85282	2024-09-19T08:02:20	15.2	83.5
85283	2024-09-19T08:12:20	15.4	82.5
85284	2024-09-19T08:22:20	15.8	82
85285	2024-09-19T08:32:20	15.9	80.5
85286	2024-09-19T08:42:20	16.2	79.5
85287	2024-09-19T08:52:20	16.4	80
85288	2024-09-19T09:02:20	16.5	79.5
85289	2024-09-19T09:12:20	16.9	77
85290	2024-09-19T09:22:20	17.1	78
85291	2024-09-19T09:32:20	17.4	76.5
85292	2024-09-19T09:42:20	17.6	76.5
85293	2024-09-19T09:52:20	17.8	74
85294	2024-09-19T10:02:20	18.1	72
85295	2024-09-19T10:12:20	18.4	73
85296	2024-09-19T10:22:20	18.6	70.5
85297	2024-09-19T10:32:20	19.1	69
85298	2024-09-19T10:42:20	19.2	70
85299	2024-09-19T10:52:20	19.5	68.5
85300	2024-09-19T11:02:20	19.8	69
85301	2024-09-19T11:12:20	20	64
85302	2024-09-19T11:22:20	20.4	65
85303	2024-09-19T11:32:20	20.7	65.5
85304	2024-09-19T11:42:20	21	63
85305	2024-09-19T11:52:20	21.6	59
85306	2024-09-19T12:02:20	22.1	57.5
85307	2024-09-19T12:12:20	23.9	53
85308	2024-09-19T12:22:20	26.1	47.5
85309	2024-09-19T12:32:20	27.1	45.5
85310	2024-09-19T12:42:20	28.3	43
85311	2024-09-19T12:52:20	29.3	40.5
85312	2024-09-19T13:02:20	29.4	38.5
85313	2024-09-19T13:12:20	29.7	37
85314	2024-09-19T13:22:20	30.1	38
85315	2024-09-19T13:32:20	29.2	39
85316	2024-09-19T13:42:20	29.9	38
85317	2024-09-19T13:52:20	30.8	36.5
85318	2024-09-19T14:02:20	30.7	36.5
85319	2024-09-19T14:12:20	31.2	36
85320	2024-09-19T14:22:20	31.4	36.5
85321	2024-09-19T14:32:20	31.9	35
85322	2024-09-19T14:42:20	32.1	35
85323	2024-09-19T14:52:20	32.7	33.5
85324	2024-09-19T15:02:20	32.4	32.5
85325	2024-09-19T15:12:20	32.4	33.5
85326	2024-09-19T15:22:20	32.2	32.5
85327	2024-09-19T15:32:20	32.1	35
85328	2024-09-19T15:42:20	32	32.5
85329	2024-09-19T15:52:20	31.5	34
85330	2024-09-19T16:02:20	31.4	34
85331	2024-09-19T16:12:20	31.3	37
85332	2024-09-19T16:22:20	30.4	36.5
85333	2024-09-19T16:32:20	28.9	36.5
85334	2024-09-19T16:42:19	28	39.5
85335	2024-09-19T16:52:19	27.2	41
85336	2024-09-19T17:02:19	26.6	43
85337	2024-09-19T17:12:19	26.1	44
85338	2024-09-19T17:22:19	25.7	48.5
85339	2024-09-19T17:32:19	25.3	51
85340	2024-09-19T17:42:19	24.9	51.5
85341	2024-09-19T17:52:19	24.5	52
85342	2024-09-19T18:02:19	24.1	54
85343	2024-09-19T18:12:19	23.8	54.5
85344	2024-09-19T18:22:19	23.4	52.5
85345	2024-09-19T18:32:19	23.1	55.5
85346	2024-09-19T18:42:19	22.9	55.5
85347	2024-09-19T18:52:19	22.4	55
85348	2024-09-19T19:02:19	22.1	57
85349	2024-09-19T19:12:19	22	59
85350	2024-09-19T19:22:19	21.7	60
85351	2024-09-19T19:32:19	21.3	61.5
85352	2024-09-19T19:42:19	20.9	61.5
85353	2024-09-19T19:52:19	20.7	62.5
85354	2024-09-19T20:02:19	20.5	64.5
85355	2024-09-19T20:12:19	20.3	64.5
85356	2024-09-19T20:22:19	19.9	65.5
85357	2024-09-19T20:32:19	19.6	65
85358	2024-09-19T20:42:19	19.4	66.5
85359	2024-09-19T20:52:19	19.1	66.5
85360	2024-09-19T21:02:19	19.1	67.5
85361	2024-09-19T21:12:19	19	68.5
85362	2024-09-19T21:22:19	18.8	68.5
85363	2024-09-19T21:32:19	18.6	69
85364	2024-09-19T21:42:19	18.4	69.5
85365	2024-09-19T21:52:19	18.2	70.5
85366	2024-09-19T22:02:19	18	70.5
85367	2024-09-19T22:12:19	17.8	71
85368	2024-09-19T22:22:19	17.6	71.5
85369	2024-09-19T22:32:19	17.5	71.5
85370	2024-09-19T22:42:19	17.4	72
85371	2024-09-19T22:52:19	17.2	72
85372	2024-09-19T23:02:19	17.1	71.5
85373	2024-09-19T23:33:16	16.5	73.5
85374	2024-09-19T23:33:16	17	73
85375	2024-09-19T23:33:16	16.7	72.5
85376	2024-09-19T23:42:19	16.4	73.5
85377	2024-09-19T23:52:19	16.2	74.5
85378	2024-09-20T00:02:19	16	75
85379	2024-09-20T00:12:19	15.7	75
85380	2024-09-20T00:22:19	15.5	76
85381	2024-09-20T00:32:19	15.2	76.5
85382	2024-09-20T00:42:19	15.2	77
85383	2024-09-20T00:52:19	15	77.5
85384	2024-09-20T01:02:19	14.9	78
85385	2024-09-20T01:12:19	14.9	78.5
85386	2024-09-20T01:22:19	14.9	78.5
85387	2024-09-20T01:32:19	14.9	78.5
85388	2024-09-20T01:42:19	14.9	79
85389	2024-09-20T01:52:19	14.8	78.5
85390	2024-09-20T02:02:19	14.7	79
85391	2024-09-20T02:12:19	14.5	79.5
85392	2024-09-20T02:22:19	14.3	80
85393	2024-09-20T02:32:19	14.3	80.5
85394	2024-09-20T02:42:19	14.1	81
85395	2024-09-20T02:52:19	14.1	81
85396	2024-09-20T03:02:19	14	81.5
85397	2024-09-20T03:12:19	14.1	81.5
85398	2024-09-20T03:22:19	13.9	81
85399	2024-09-20T03:32:19	14	81
85400	2024-09-20T03:42:19	14	81.5
85401	2024-09-20T03:52:19	13.9	81
85402	2024-09-20T04:02:19	13.7	81
85403	2024-09-20T04:12:19	13.5	82
85404	2024-09-20T04:22:19	13.4	82.5
85405	2024-09-20T04:32:19	13.3	83
85406	2024-09-20T04:42:18	13.3	83
85407	2024-09-20T04:52:18	13.4	83
85408	2024-09-20T05:02:18	13.4	83
85409	2024-09-20T05:12:18	13.2	83.5
85410	2024-09-20T05:22:18	13.2	83.5
85411	2024-09-20T05:32:18	13.2	84
85412	2024-09-20T05:42:18	13.2	84
85413	2024-09-20T05:52:18	13.2	84
85414	2024-09-20T06:02:18	13.2	84.5
85415	2024-09-20T06:12:18	13.4	84
85416	2024-09-20T06:22:18	13.4	84
85417	2024-09-20T06:32:18	13.6	84
85418	2024-09-20T06:42:18	13.5	84
85419	2024-09-20T06:52:18	13.7	84.5
85420	2024-09-20T07:02:18	13.9	84.5
85421	2024-09-20T07:12:18	14.1	84.5
85422	2024-09-20T07:22:18	14.3	84.5
85423	2024-09-20T07:32:18	14.4	84.5
85424	2024-09-20T07:42:18	14.6	84.5
85425	2024-09-20T07:52:18	14.8	84.5
85426	2024-09-20T08:02:18	15	84.5
85427	2024-09-20T08:12:18	15.2	84
85428	2024-09-20T08:22:18	15.3	83.5
85429	2024-09-20T08:32:18	15.5	83.5
85430	2024-09-20T08:42:18	15.8	82
85431	2024-09-20T08:52:18	16	81.5
85432	2024-09-20T09:02:18	16.2	80
85433	2024-09-20T09:12:18	16.4	78.5
85434	2024-09-20T09:22:18	16.4	77.5
85435	2024-09-20T09:32:18	16.6	77.5
85436	2024-09-20T09:42:18	16.9	77
85437	2024-09-20T09:52:18	17.1	78.5
85438	2024-09-20T10:02:18	17.4	78
85439	2024-09-20T10:12:18	17.6	77.5
85440	2024-09-20T10:22:18	17.8	76.5
85441	2024-09-20T10:32:18	18.1	76.5
85442	2024-09-20T10:42:18	18.3	75
85443	2024-09-20T10:52:18	18.6	75
85444	2024-09-20T11:02:18	18.8	74
85445	2024-09-20T11:12:18	19	73
85446	2024-09-20T11:22:18	19.4	71.5
85447	2024-09-20T11:32:18	19.6	71
85448	2024-09-20T11:42:18	20	71.5
85449	2024-09-20T11:52:18	20.5	70
85450	2024-09-20T12:02:18	21	67.5
85451	2024-09-20T12:12:18	22.9	63
85452	2024-09-20T12:22:18	25.6	55.5
85453	2024-09-20T12:32:18	27.4	51
85454	2024-09-20T12:42:18	28.8	46.5
85455	2024-09-20T12:52:18	29.6	45
85456	2024-09-20T13:02:18	30.4	43
85457	2024-09-20T13:12:18	31.2	41.5
85458	2024-09-20T13:22:18	31.5	41
85459	2024-09-20T13:32:18	32	40
85460	2024-09-20T13:42:18	32.4	38.5
85461	2024-09-20T13:52:18	33	38
85462	2024-09-20T14:02:18	33.7	36.5
85463	2024-09-20T14:12:18	34	35.5
85464	2024-09-20T14:22:18	34.6	36.5
85465	2024-09-20T14:32:18	35	34.5
85466	2024-09-20T14:42:18	35.4	34.5
85467	2024-09-20T14:52:18	35.4	36
85468	2024-09-20T15:02:18	35.5	35
85469	2024-09-20T15:12:18	35.5	35
85470	2024-09-20T15:22:18	35.1	34.5
85471	2024-09-20T15:32:18	35.1	37
85472	2024-09-20T15:42:18	34.8	35
85473	2024-09-20T15:52:18	34.6	35.5
85474	2024-09-20T16:02:18	34.3	35
85475	2024-09-20T16:12:17	34	38.5
85476	2024-09-20T16:22:17	33.1	37
85477	2024-09-20T16:32:17	32.1	42.5
85478	2024-09-20T16:42:17	31.2	44.5
85479	2024-09-20T16:52:17	30.1	46
85480	2024-09-20T17:02:17	29.3	46.5
85481	2024-09-20T17:12:17	28.5	49.5
85482	2024-09-20T17:22:18	27.9	53
85483	2024-09-20T17:32:17	27.4	54.5
85484	2024-09-20T17:42:17	26.9	55
85485	2024-09-20T17:52:17	26.3	56.5
85486	2024-09-20T18:02:17	25.8	57.5
85487	2024-09-20T18:12:17	25.4	59
85488	2024-09-20T18:22:17	25	59.5
85489	2024-09-20T18:32:17	24.5	60.5
85490	2024-09-20T18:42:17	24.1	61.5
85491	2024-09-20T18:52:17	23.7	61
85492	2024-09-20T19:02:17	23.5	62.5
85493	2024-09-20T19:12:17	22.9	62.5
85494	2024-09-20T19:22:17	22.5	63.5
85495	2024-09-20T19:32:17	22.3	64.5
85496	2024-09-20T19:42:17	22.1	65.5
85497	2024-09-20T19:52:17	21.8	65.5
85498	2024-09-20T20:02:17	21.6	65
85499	2024-09-20T20:12:17	20.9	66
85500	2024-09-20T20:22:17	20.7	66.5
85501	2024-09-20T20:32:17	20.6	65
85502	2024-09-20T20:42:17	20.4	66
85503	2024-09-20T20:52:17	20.1	66.5
85504	2024-09-20T21:02:17	20	68.5
85505	2024-09-20T21:12:17	19.8	68
85506	2024-09-20T21:22:17	19.7	69
85507	2024-09-20T21:32:17	19.5	69.5
85508	2024-09-20T21:42:17	19.4	70
85509	2024-09-20T21:52:17	19.2	70.5
85510	2024-09-20T22:02:17	19.2	70.5
85511	2024-09-20T22:12:17	19.1	71
85512	2024-09-20T22:22:17	18.7	71
85513	2024-09-20T22:32:17	18.4	72
85514	2024-09-20T22:42:17	18.4	72
85515	2024-09-20T22:52:17	18	72.5
85516	2024-09-20T23:02:17	17.9	73
85517	2024-09-20T23:32:10	17.8	73
85518	2024-09-20T23:32:10	17.7	72.5
85519	2024-09-20T23:32:28	17.5	73
85520	2024-09-20T23:42:17	17.2	75
85521	2024-09-20T23:52:17	17.1	75
85522	2024-09-21T00:02:17	17.1	75
85523	2024-09-21T00:12:17	16.9	75
85524	2024-09-21T00:22:17	16.8	75.5
85525	2024-09-21T00:32:17	16.7	76.5
85526	2024-09-21T00:42:17	16.5	76.5
85527	2024-09-21T00:52:17	16.3	77
85528	2024-09-21T01:02:17	16.1	76
85529	2024-09-21T01:12:17	15.7	77.5
85530	2024-09-21T01:22:17	15.5	78
85531	2024-09-21T01:32:17	15.4	79
85532	2024-09-21T01:42:17	15.4	78.5
85533	2024-09-21T01:52:17	15.3	79
85534	2024-09-21T02:02:17	15.1	79
85535	2024-09-21T02:12:17	14.9	77.5
85536	2024-09-21T02:22:17	14.7	80
85537	2024-09-21T02:32:17	14.7	80
85538	2024-09-21T02:42:17	14.7	80
85539	2024-09-21T02:52:17	14.5	80
85540	2024-09-21T03:02:17	14.4	80
85541	2024-09-21T03:12:17	14.4	79.5
85542	2024-09-21T03:22:17	14.3	79.5
85543	2024-09-21T03:32:16	14.3	79.5
85544	2024-09-21T03:42:16	14.1	80
85545	2024-09-21T03:52:16	14	80
85546	2024-09-21T04:02:16	13.9	80
85547	2024-09-21T04:12:16	13.8	80
85548	2024-09-21T04:22:16	13.8	80
85549	2024-09-21T04:32:16	13.6	80
85550	2024-09-21T04:42:16	13.4	80
85551	2024-09-21T04:52:16	13.5	80.5
85552	2024-09-21T05:02:16	13.4	80.5
85553	2024-09-21T05:12:16	13.3	80.5
85554	2024-09-21T05:22:16	13.1	80.5
85555	2024-09-21T05:32:16	13	81
85556	2024-09-21T05:42:16	13.1	81.5
85557	2024-09-21T05:52:16	13.1	81.5
85558	2024-09-21T06:02:16	13.1	81.5
85559	2024-09-21T06:12:16	13.1	81.5
85560	2024-09-21T06:22:16	13.1	82
85561	2024-09-21T06:32:16	13.1	82.5
85562	2024-09-21T06:42:16	13.2	84
85563	2024-09-21T06:52:16	13.3	84
85564	2024-09-21T07:02:16	13.4	84
85565	2024-09-21T07:12:16	13.4	84.5
85566	2024-09-21T07:22:16	13.6	85
85567	2024-09-21T07:32:16	13.7	86.5
85568	2024-09-21T07:42:34	13.8	85.5
85569	2024-09-21T07:52:16	13.9	85.5
85570	2024-09-21T08:02:16	14	86
85571	2024-09-21T08:12:16	14.2	86
85572	2024-09-21T08:22:16	14.4	87
85573	2024-09-21T08:32:16	14.5	86.5
85574	2024-09-21T08:42:16	14.7	86
85575	2024-09-21T08:52:16	14.8	85.5
85576	2024-09-21T09:02:16	15.2	85
85577	2024-09-21T09:12:16	15.3	85.5
85578	2024-09-21T09:22:16	15.5	85.5
85579	2024-09-21T09:32:16	15.6	85
85580	2024-09-21T09:42:16	15.8	84.5
85581	2024-09-21T09:52:16	16	84.5
85582	2024-09-21T10:02:16	16.2	84
85583	2024-09-21T10:12:16	16.6	83.5
85584	2024-09-21T10:22:16	16.7	82
85585	2024-09-21T10:32:16	16.9	82.5
85586	2024-09-21T10:42:16	17.2	80.5
85587	2024-09-21T10:52:16	17.6	80
85588	2024-09-21T11:02:16	17.7	79.5
85589	2024-09-21T11:12:16	18.2	77
85590	2024-09-21T11:22:16	18.4	76
85591	2024-09-21T11:32:16	18.6	74.5
85592	2024-09-21T11:42:16	18.8	74
85593	2024-09-21T11:52:16	19.4	74.5
85594	2024-09-21T12:02:16	19.9	72.5
85595	2024-09-21T12:12:16	22.1	66.5
85596	2024-09-21T12:22:16	25.1	58.5
85597	2024-09-21T12:32:16	27.1	54.5
85598	2024-09-21T12:42:16	28.3	51
85599	2024-09-21T12:52:16	29.4	48.5
85600	2024-09-21T13:02:16	30.4	45.5
85601	2024-09-21T13:12:16	31.1	45
85602	2024-09-21T13:22:16	31.8	42
85603	2024-09-21T13:32:16	32.3	40.5
85604	2024-09-21T13:42:16	32.7	42.5
85605	2024-09-21T13:52:16	33.4	40.5
85606	2024-09-21T14:02:16	34	39
85607	2024-09-21T14:12:16	34.5	38
85608	2024-09-21T14:22:16	35.1	37.5
85609	2024-09-21T14:32:16	35.3	39
85610	2024-09-21T14:42:16	35.7	35.5
85611	2024-09-21T14:52:16	35.6	36.5
85612	2024-09-21T15:02:16	35.8	38
85613	2024-09-21T15:12:16	35.9	34
85614	2024-09-21T15:22:16	35.9	36
85615	2024-09-21T15:32:16	35.9	34
85616	2024-09-21T15:42:16	35.5	37
85617	2024-09-21T15:52:15	35.4	36.5
85618	2024-09-21T16:02:15	35	37
85619	2024-09-21T16:12:15	34.8	36
85620	2024-09-21T16:22:15	33.4	37.5
85621	2024-09-21T16:32:15	32.1	41.5
85622	2024-09-21T16:42:15	31.4	43
85623	2024-09-21T16:52:15	30.4	47
85624	2024-09-21T17:02:15	29.7	47.5
85625	2024-09-21T17:12:15	29	51.5
85626	2024-09-21T17:22:15	28.3	53.5
85627	2024-09-21T17:32:15	27.7	55
85628	2024-09-21T17:42:15	27.1	56
85629	2024-09-21T17:52:15	26.6	56.5
85630	2024-09-21T18:02:15	26.2	57.5
85631	2024-09-21T18:12:15	25.7	58.5
85632	2024-09-21T18:22:15	25.3	59.5
85633	2024-09-21T18:32:15	24.8	60
85634	2024-09-21T18:42:15	24.3	61
85635	2024-09-21T18:52:15	23.9	61.5
85636	2024-09-21T19:02:15	23.6	62
85637	2024-09-21T19:12:15	23.3	62.5
85638	2024-09-21T19:22:15	23	63.5
85639	2024-09-21T19:32:15	22.7	64
85640	2024-09-21T19:42:15	22.2	63
85641	2024-09-21T19:52:15	21.9	64
85642	2024-09-21T20:02:15	21.7	65.5
85643	2024-09-21T20:12:15	21.4	66
85644	2024-09-21T20:22:15	21.2	66.5
85645	2024-09-21T20:42:15	20.7	68.5
85646	2024-09-21T20:52:15	20.6	69
85647	2024-09-21T21:02:15	20.3	69.5
85648	2024-09-21T21:12:15	20.1	69
85649	2024-09-21T21:22:15	19.8	69.5
85650	2024-09-21T21:32:15	19.8	70.5
85651	2024-09-21T21:42:15	19.5	70.5
85652	2024-09-21T21:52:15	19.4	71
85653	2024-09-21T22:02:15	19.2	71.5
85654	2024-09-21T22:12:15	19	71.5
85655	2024-09-21T22:22:15	18.7	72
85656	2024-09-21T22:32:15	18.7	72.5
85657	2024-09-21T22:42:15	18.6	73
85658	2024-09-21T22:52:15	18.4	73
85659	2024-09-21T23:31:15	18.1	73.5
85660	2024-09-21T23:31:15	17.9	74
85661	2024-09-21T23:31:16	17.7	74.5
85662	2024-09-21T23:32:16	17.6	74.5
85663	2024-09-21T23:42:15	17.6	74
85664	2024-09-21T23:52:15	17.5	75
85665	2024-09-22T00:02:15	17.2	74.5
85666	2024-09-22T00:12:15	16.9	75.5
85667	2024-09-22T00:22:15	16.5	76
85668	2024-09-22T00:32:15	16.5	76.5
85669	2024-09-22T00:42:15	16.5	77
85670	2024-09-22T00:52:15	16.5	77
85671	2024-09-22T01:02:15	16.3	77.5
85672	2024-09-22T01:12:15	16.2	77.5
85673	2024-09-22T01:22:15	16.1	77.5
85674	2024-09-22T01:32:15	16	77.5
85675	2024-09-22T01:42:15	15.9	77.5
85676	2024-09-22T01:52:15	15.7	77.5
85677	2024-09-22T02:02:15	15.6	78
85678	2024-09-22T02:12:15	15.5	78
85679	2024-09-22T02:22:15	15.4	78.5
85680	2024-09-22T02:32:15	15.2	78.5
85681	2024-09-22T02:42:15	15.2	78
85682	2024-09-22T02:52:15	15.2	78
85683	2024-09-22T03:02:14	14.9	78.5
85684	2024-09-22T03:12:14	14.9	78.5
85685	2024-09-22T03:22:14	14.8	79
85686	2024-09-22T03:32:14	14.7	79
85687	2024-09-22T03:42:14	14.6	79
85688	2024-09-22T03:52:14	14.5	79
85689	2024-09-22T04:02:14	14.3	79
85690	2024-09-22T04:12:14	14.2	78.5
85691	2024-09-22T04:22:14	14.1	79.5
85692	2024-09-22T04:32:14	13.9	79
85693	2024-09-22T04:42:14	13.9	79.5
85694	2024-09-22T04:52:14	13.8	79.5
85695	2024-09-22T05:02:14	13.8	80
85696	2024-09-22T05:12:14	13.7	80
85697	2024-09-22T05:22:14	13.6	81
85698	2024-09-22T05:32:14	13.5	81
85699	2024-09-22T05:42:14	13.4	81
85700	2024-09-22T05:52:14	13.4	81
85701	2024-09-22T06:02:14	13.4	81.5
85702	2024-09-22T06:12:14	13.6	81.5
85703	2024-09-22T06:22:14	13.6	82
85704	2024-09-22T06:32:14	13.8	82.5
85705	2024-09-22T06:42:14	13.9	83
85706	2024-09-22T06:52:14	14	83.5
85707	2024-09-22T07:02:14	14.3	85.5
85708	2024-09-22T07:12:14	14.3	85.5
85709	2024-09-22T07:22:14	14.5	86
85710	2024-09-22T07:32:14	14.7	86
85711	2024-09-22T07:42:14	14.7	86.5
85712	2024-09-22T07:52:14	14.9	86.5
85713	2024-09-22T08:02:14	15	86
85714	2024-09-22T08:12:14	15.1	86.5
85715	2024-09-22T08:22:14	15.4	87
85716	2024-09-22T08:32:14	15.6	87
85717	2024-09-22T08:42:14	15.8	86.5
85718	2024-09-22T08:52:14	16	86.5
85719	2024-09-22T09:02:14	16.2	86.5
85720	2024-09-22T09:12:14	16.4	86.5
85721	2024-09-22T09:22:14	16.7	85.5
85722	2024-09-22T09:32:14	17.1	84
85723	2024-09-22T09:42:14	17.3	83
85724	2024-09-22T09:52:14	17.6	83
85725	2024-09-22T10:02:14	18	82.5
85726	2024-09-22T10:12:14	18.3	81.5
85727	2024-09-22T10:22:14	18.5	81
85728	2024-09-22T10:32:14	18.9	79
85729	2024-09-22T10:42:14	19.2	78
85730	2024-09-22T10:52:14	19.4	77.5
85731	2024-09-22T11:02:14	19.7	76
85732	2024-09-22T11:12:14	20	75.5
85733	2024-09-22T11:22:14	20.2	74.5
85734	2024-09-22T11:32:14	20.6	73.5
85735	2024-09-22T11:42:14	20.9	73
85736	2024-09-22T11:52:14	21	72.5
85737	2024-09-22T12:02:14	21.2	71
85738	2024-09-22T12:12:14	21.8	70
85739	2024-09-22T12:22:14	22.2	68
85740	2024-09-22T12:32:14	22.3	68.5
85741	2024-09-22T12:42:14	22.8	68.5
85742	2024-09-22T12:52:14	23.1	67.5
85743	2024-09-22T13:02:14	23.4	66
85744	2024-09-22T13:12:14	24	63.5
85745	2024-09-22T13:22:14	24.3	64.5
85746	2024-09-22T13:32:14	24.4	65
85747	2024-09-22T13:42:14	24.3	65
85748	2024-09-22T13:52:14	24.2	65
85749	2024-09-22T14:02:14	24.2	64.5
85750	2024-09-22T14:12:14	24	65
85751	2024-09-22T14:22:14	24	66
85752	2024-09-22T14:32:14	24	65.5
85753	2024-09-22T14:42:13	24	65.5
85754	2024-09-22T14:52:13	23.9	66
85755	2024-09-22T15:02:13	23.8	66
85756	2024-09-22T15:12:13	24.3	66.5
85757	2024-09-22T15:22:13	24.5	66.5
85758	2024-09-22T15:32:13	24.3	65.5
85759	2024-09-22T15:42:13	24	66.5
85760	2024-09-22T15:52:13	24	67.5
85761	2024-09-22T16:02:13	23.8	67.5
85762	2024-09-22T16:12:13	23.4	69
85763	2024-09-22T16:22:13	23.1	71
85764	2024-09-22T16:32:13	22.9	71
85765	2024-09-22T16:42:13	22.6	72
85766	2024-09-22T16:52:13	22.3	74
85767	2024-09-22T17:02:13	22.1	76.5
85768	2024-09-22T17:12:13	21.8	77.5
85769	2024-09-22T17:22:13	21.4	77.5
85770	2024-09-22T17:32:13	21.2	78
85771	2024-09-22T17:42:13	20.9	79
85772	2024-09-22T17:52:13	20.7	79
85773	2024-09-22T18:02:13	20.6	79.5
85774	2024-09-22T18:12:13	20.6	79.5
85775	2024-09-22T18:22:13	20.3	80
85776	2024-09-22T18:32:13	20.1	80.5
85777	2024-09-22T18:42:13	20	80.5
85778	2024-09-22T18:52:13	20	81.5
85779	2024-09-22T19:02:13	19.7	82
85780	2024-09-22T19:12:13	19.7	82
85781	2024-09-22T19:32:13	19.4	82.5
85782	2024-09-22T19:42:13	19.4	82.5
85783	2024-09-22T19:52:13	19.3	82.5
85784	2024-09-22T20:02:13	19.2	82.5
85785	2024-09-22T20:12:13	19	83
85786	2024-09-22T20:22:13	18.8	84
85787	2024-09-22T20:32:13	18.7	83.5
85788	2024-09-22T20:42:13	18.7	83.5
85789	2024-09-22T20:52:13	18.6	83.5
85790	2024-09-22T21:02:13	18.7	83.5
85791	2024-09-22T21:12:13	18.6	83.5
85792	2024-09-22T21:22:13	18.6	83.5
85793	2024-09-22T21:32:13	18.5	84
85794	2024-09-22T21:42:13	18.5	84
85795	2024-09-22T21:52:13	18.5	83.5
85796	2024-09-22T22:02:13	18.5	84
85797	2024-09-22T22:12:13	18.5	84
85798	2024-09-22T22:22:13	18.5	84
85799	2024-09-22T22:32:13	18.3	85
85800	2024-09-22T22:42:13	18.3	85
85801	2024-09-22T22:52:13	18.2	85.5
85802	2024-09-22T23:32:16	18	86.5
85803	2024-09-22T23:32:17	17.9	86
85804	2024-09-22T23:32:17	18	86
85805	2024-09-22T23:32:17	18	85.5
85806	2024-09-22T23:42:13	18	86
85807	2024-09-22T23:52:13	17.9	86.5
85808	2024-09-23T00:02:13	17.9	86
85809	2024-09-23T00:12:13	17.9	86
85810	2024-09-23T00:22:13	17.8	86
85811	2024-09-23T00:32:13	17.9	86.5
85812	2024-09-23T00:42:13	17.9	87
85813	2024-09-23T00:52:13	17.8	86.5
85814	2024-09-23T01:02:13	17.7	87
85815	2024-09-23T01:12:13	17.5	87.5
85816	2024-09-23T01:22:13	17.5	88
85817	2024-09-23T01:32:13	17.4	88.5
85818	2024-09-23T01:42:12	17.3	88.5
85819	2024-09-23T01:52:12	17.3	89
85820	2024-09-23T02:02:12	17.3	89
85821	2024-09-23T02:12:12	17.3	89
85822	2024-09-23T02:22:12	17.2	89
85823	2024-09-23T02:32:12	17.2	89
85824	2024-09-23T02:42:12	17.1	89
85825	2024-09-23T02:52:12	17	90.5
85826	2024-09-23T03:02:12	17.1	90.5
85827	2024-09-23T03:12:12	17.1	90.5
85828	2024-09-23T03:22:12	17	90
85829	2024-09-23T03:32:12	17.1	90.5
85830	2024-09-23T03:42:12	17	90
85831	2024-09-23T03:52:12	17.1	90
85832	2024-09-23T04:02:12	16.9	90
85833	2024-09-23T04:12:12	17	89.5
85834	2024-09-23T04:22:12	16.8	90.5
85835	2024-09-23T04:32:12	16.8	90.5
85836	2024-09-23T04:42:12	16.9	89.5
85837	2024-09-23T04:52:12	16.8	89.5
85838	2024-09-23T05:02:12	16.7	89.5
85839	2024-09-23T05:12:12	16.7	90.5
85840	2024-09-23T05:22:12	16.7	90
85841	2024-09-23T05:32:12	16.7	90
85842	2024-09-23T05:42:12	16.7	90
85843	2024-09-23T05:52:12	16.6	90
85844	2024-09-23T06:02:12	16.6	90.5
85845	2024-09-23T06:12:12	16.6	91.5
85846	2024-09-23T06:22:12	16.7	91.5
85847	2024-09-23T06:32:12	17	90.5
85848	2024-09-23T06:42:12	17	90.5
85849	2024-09-23T06:52:12	17.1	90.5
85850	2024-09-23T07:12:12	17.2	90
85851	2024-09-23T07:22:12	17.3	90
85852	2024-09-23T07:32:12	17.5	89
85853	2024-09-23T07:42:12	17.5	87.5
85854	2024-09-23T07:52:12	17.6	87
85855	2024-09-23T08:02:12	17.7	86.5
85856	2024-09-23T08:12:12	17.7	86.5
85857	2024-09-23T08:22:12	17.9	85.5
85858	2024-09-23T08:32:12	17.8	86
85859	2024-09-23T08:42:12	17.8	86
85860	2024-09-23T08:52:12	17.7	87
85861	2024-09-23T09:02:12	17.9	87
85862	2024-09-23T09:12:12	18	85.5
85863	2024-09-23T09:22:12	18.1	84.5
85864	2024-09-23T09:32:12	18.1	92
85865	2024-09-23T09:42:12	17.6	97
85866	2024-09-23T09:52:12	17.5	96
85867	2024-09-23T10:02:12	17.5	97
85868	2024-09-23T10:12:12	17.7	93
85869	2024-09-23T10:22:12	17.6	97.5
85870	2024-09-23T10:32:12	17.7	98.5
85871	2024-09-23T10:42:12	17.8	97
85872	2024-09-23T10:52:12	18.2	97.5
85873	2024-09-23T11:02:12	18.4	93.5
85874	2024-09-23T11:12:12	18.8	90.5
85875	2024-09-23T11:22:12	19.2	91.5
85876	2024-09-23T11:32:12	19.4	89
85877	2024-09-23T11:42:12	19.4	88.5
85878	2024-09-23T11:52:12	19.2	88
85879	2024-09-23T12:02:12	19.2	85.5
85880	2024-09-23T12:12:12	19.3	86.5
85881	2024-09-23T12:22:12	19.5	83
85882	2024-09-23T12:32:12	19.5	86.5
85883	2024-09-23T12:42:12	19.5	84
85884	2024-09-23T12:52:12	19.6	83.5
85885	2024-09-23T13:02:11	19.6	81.5
85886	2024-09-23T13:12:11	19.5	82.5
85887	2024-09-23T13:22:11	19.3	79.5
85888	2024-09-23T13:32:11	19.4	80.5
85889	2024-09-23T13:42:11	19.4	81
85890	2024-09-23T13:52:11	19.3	82
85891	2024-09-23T14:02:11	19.1	85
85892	2024-09-23T14:12:11	18.5	97.5
85893	2024-09-23T14:22:11	17.6	99.5
85894	2024-09-23T14:32:11	16.4	100
85895	2024-09-23T14:42:11	16.2	100
85896	2024-09-23T14:52:11	16.5	100
85897	2024-09-23T15:02:11	16.3	100
85898	2024-09-23T15:12:11	16	100
85899	2024-09-23T15:22:11	15.9	100
85900	2024-09-23T15:32:11	15.9	100
85901	2024-09-23T15:42:11	15.9	100
85902	2024-09-23T15:52:11	16	100
85903	2024-09-23T16:02:11	15.9	100
85904	2024-09-23T16:12:11	15.8	100
85905	2024-09-23T16:22:11	15.5	100
85906	2024-09-23T16:32:11	15.6	100
85907	2024-09-23T16:42:11	15.7	100
85908	2024-09-23T16:52:11	15.8	100
85909	2024-09-23T17:02:11	15.8	100
85910	2024-09-23T17:12:11	15.8	98.5
85911	2024-09-23T17:22:11	15.8	98
85912	2024-09-23T17:32:11	15.7	97
85913	2024-09-23T17:42:11	15.5	96
85914	2024-09-23T18:02:11	15.6	94.5
85915	2024-09-23T18:12:11	15.5	94
85916	2024-09-23T18:22:11	15.4	94
85917	2024-09-23T18:32:11	15.5	94
85918	2024-09-23T18:42:11	15.3	94
85919	2024-09-23T18:52:11	15.3	94
85920	2024-09-23T19:02:11	15.3	94.5
85921	2024-09-23T19:12:11	15.2	94
85922	2024-09-23T19:22:11	15.1	94.5
85923	2024-09-23T19:32:11	15	94.5
85924	2024-09-23T19:42:11	15	94.5
85925	2024-09-23T19:52:11	14.9	94.5
85926	2024-09-23T20:02:11	14.9	94.5
85927	2024-09-23T20:12:11	14.9	94.5
85928	2024-09-23T20:22:11	14.9	94.5
85929	2024-09-23T20:32:11	14.6	94.5
85930	2024-09-23T20:42:11	14.6	94.5
85931	2024-09-23T20:52:11	14.7	94.5
85932	2024-09-23T21:02:11	14.8	94.5
85933	2024-09-23T21:12:11	14.6	94.5
85934	2024-09-23T21:22:11	14.7	94.5
85935	2024-09-23T21:32:11	14.7	94.5
85936	2024-09-23T21:42:11	14.7	94.5
85937	2024-09-23T21:52:11	14.7	94.5
85938	2024-09-23T22:02:11	14.6	94.5
85939	2024-09-23T22:12:11	14.6	94.5
85940	2024-09-23T22:52:11	14.4	94.5
85941	2024-09-23T23:32:15	14.2	94.5
85942	2024-09-23T23:32:15	14.1	94.5
85943	2024-09-23T23:32:15	14.1	94.5
85944	2024-09-23T23:32:15	14.1	94.5
85945	2024-09-23T23:42:11	13.9	94.5
85946	2024-09-23T23:52:11	14	95
85947	2024-09-24T00:02:11	13.8	94.5
85948	2024-09-24T00:12:11	13.8	94.5
85949	2024-09-24T00:22:11	13.6	95
85950	2024-09-24T00:32:11	13.6	94.5
85951	2024-09-24T00:42:11	13.6	94.5
85952	2024-09-24T00:52:11	13.6	95
85953	2024-09-24T01:12:11	13.8	95
85954	2024-09-24T01:22:11	13.7	95
85955	2024-09-24T01:32:10	13.7	94.5
85956	2024-09-24T01:42:10	13.6	95
85957	2024-09-24T01:52:10	13.8	95
85958	2024-09-24T02:02:10	13.7	95
85959	2024-09-24T02:12:10	13.6	95
85960	2024-09-24T02:22:10	13.5	95
85961	2024-09-24T02:32:10	13.5	95
85962	2024-09-24T02:42:10	13.4	95
85963	2024-09-24T02:52:10	13.4	95
85964	2024-09-24T03:02:10	13.4	95
85965	2024-09-24T03:12:10	13.5	95
85966	2024-09-24T03:22:10	13.5	95
85967	2024-09-24T03:32:10	13.4	95
85968	2024-09-24T03:42:10	13.3	95
85969	2024-09-24T03:52:10	13.3	95
85970	2024-09-24T04:02:10	13.2	95
85971	2024-09-24T04:12:10	13.2	95
85972	2024-09-24T04:22:10	13.2	95
85973	2024-09-24T04:32:10	13.1	95
85974	2024-09-24T04:42:10	13	95
85975	2024-09-24T04:52:10	13	95
85976	2024-09-24T05:02:10	13.2	95
85977	2024-09-24T05:12:10	13.2	95
85978	2024-09-24T05:22:10	13.3	95
85979	2024-09-24T05:32:10	13.3	95
85980	2024-09-24T05:42:10	13.4	95
85981	2024-09-24T05:52:10	13.2	95
85982	2024-09-24T06:02:10	13.3	95
85983	2024-09-24T06:12:10	13.2	95
85984	2024-09-24T06:22:10	13.5	95
85985	2024-09-24T06:32:10	13.5	95
85986	2024-09-24T06:42:10	13.7	95
85987	2024-09-24T06:52:10	13.9	95
85988	2024-09-24T07:02:10	13.9	95
85989	2024-09-24T07:12:10	14	95
85990	2024-09-24T07:22:10	14.2	95
85991	2024-09-24T07:32:10	14.3	95
85992	2024-09-24T07:42:10	14.3	95
85993	2024-09-24T07:52:10	14.3	95
85994	2024-09-24T08:02:10	14.4	95
85995	2024-09-24T08:12:10	14.7	95
85996	2024-09-24T08:22:10	14.8	95
85997	2024-09-24T08:32:10	15	95
85998	2024-09-24T08:42:10	15.1	95
85999	2024-09-24T08:52:10	15.1	95
86000	2024-09-24T09:02:10	15.1	95
86001	2024-09-24T09:12:10	14.5	95
86002	2024-09-24T09:22:10	14.4	95
86003	2024-09-24T09:32:10	14.3	95
86004	2024-09-24T09:42:10	14.2	95
86005	2024-09-24T09:52:10	14.3	95
86006	2024-09-24T10:02:10	14.5	95
86007	2024-09-24T10:12:10	15.2	95
86008	2024-09-24T10:22:10	15.5	95
86009	2024-09-24T10:32:10	15.8	95
86010	2024-09-24T10:42:10	16.1	95
86011	2024-09-24T10:52:10	16.2	95
86012	2024-09-24T11:02:10	16.2	95
86013	2024-09-24T11:12:10	16.7	95
86014	2024-09-24T11:22:10	16.9	95
86015	2024-09-24T11:32:10	17.2	95
86016	2024-09-24T11:42:10	17.9	95
86017	2024-09-24T11:52:10	18	95
86018	2024-09-24T12:02:10	18.6	95
86019	2024-09-24T12:12:10	18.2	95
86020	2024-09-24T12:22:10	18.6	95
86021	2024-09-24T12:32:10	19.5	95
86022	2024-09-24T12:42:10	19.9	95
86023	2024-09-24T12:52:10	20.1	95.5
86024	2024-09-24T13:02:10	19	95.5
86025	2024-09-24T13:12:10	18.8	95.5
86026	2024-09-24T13:22:10	19.5	95.5
86027	2024-09-24T13:32:10	20.4	95.5
86028	2024-09-24T13:42:10	20.4	95.5
86029	2024-09-24T13:52:10	19.3	95
86030	2024-09-24T14:02:10	19.2	95.5
86031	2024-09-24T14:12:09	19	95.5
86032	2024-09-24T14:22:09	19	95.5
86033	2024-09-24T14:32:09	18.8	95.5
86034	2024-09-24T14:42:09	18.7	95.5
86035	2024-09-24T14:52:09	18.6	95.5
86036	2024-09-24T15:02:09	18.4	98.5
86037	2024-09-24T15:12:09	18.6	98.5
86038	2024-09-24T15:22:09	18.5	100
86039	2024-09-24T15:32:09	18.3	100
86040	2024-09-24T15:42:09	17.8	100
86041	2024-09-24T15:52:09	17.6	100
86042	2024-09-24T16:02:09	17.6	100
86043	2024-09-24T16:12:09	17.6	100
86044	2024-09-24T16:22:09	17.5	100
86045	2024-09-24T16:32:09	17.2	100
86046	2024-09-24T16:42:09	16.5	100
86047	2024-09-24T16:52:09	16.7	100
86048	2024-09-24T17:02:09	16.6	100
86049	2024-09-24T17:12:09	16.4	100
86050	2024-09-24T17:22:09	16.4	99
86051	2024-09-24T17:32:09	16.4	95
86052	2024-09-24T17:42:09	16.3	85.5
86053	2024-09-24T17:52:09	16.4	83.5
86054	2024-09-24T18:02:09	16.3	82
86055	2024-09-24T18:12:09	16.2	81.5
86056	2024-09-24T18:22:09	16.2	82
86057	2024-09-24T18:32:09	16	81.5
86058	2024-09-24T18:42:09	16	78
86059	2024-09-24T18:52:09	16.2	75.5
86060	2024-09-24T19:02:09	16.6	74
86061	2024-09-24T19:12:09	16.5	72.5
86062	2024-09-24T19:22:09	16.7	73
86063	2024-09-24T19:32:09	16.8	72
86064	2024-09-24T19:42:09	16.8	72
86065	2024-09-24T19:52:09	16.7	72.5
86066	2024-09-24T20:02:09	16.7	73
86067	2024-09-24T20:12:09	16.5	74
86068	2024-09-24T20:22:09	16.2	74.5
86069	2024-09-24T20:32:09	16.1	75
86070	2024-09-24T20:42:09	16.2	74.5
86071	2024-09-24T20:52:09	16.1	75
86072	2024-09-24T21:02:09	16.1	75.5
86073	2024-09-24T21:12:09	16.2	75.5
86074	2024-09-24T21:22:09	16.2	76
86075	2024-09-24T21:32:09	15.9	76.5
86076	2024-09-24T21:42:09	15.9	77
86077	2024-09-24T21:52:09	16	76.5
86078	2024-09-24T22:02:09	16.2	76.5
86079	2024-09-24T22:12:09	16.2	77
86080	2024-09-24T22:22:09	16.3	77.5
86081	2024-09-24T22:32:09	16.2	77.5
86082	2024-09-24T22:42:09	16.3	77.5
86083	2024-09-24T22:52:09	16.2	77.5
86084	2024-09-24T23:32:55	16.2	77.5
86085	2024-09-24T23:32:56	16.1	77.5
86086	2024-09-24T23:32:56	16.1	77.5
86087	2024-09-24T23:32:56	16.2	77.5
86088	2024-09-24T23:42:09	16.3	77.5
86089	2024-09-24T23:52:09	16.4	77.5
86090	2024-09-25T00:02:09	16.3	77.5
86091	2024-09-25T00:12:09	16.4	77
86092	2024-09-25T00:22:09	16.3	76.5
86093	2024-09-25T00:32:09	16.2	77
86094	2024-09-25T00:42:09	16.1	77
86095	2024-09-25T00:52:09	16.1	77.5
86096	2024-09-25T01:02:09	16.1	78
86097	2024-09-25T01:12:09	15.9	78.5
86098	2024-09-25T01:22:09	15.6	79.5
86099	2024-09-25T01:32:09	15.4	81
86100	2024-09-25T01:42:09	15.2	81
86101	2024-09-25T01:52:09	15.2	81.5
86102	2024-09-25T02:02:08	15.2	82
86103	2024-09-25T02:12:08	15.2	82
86104	2024-09-25T02:22:08	15.4	82
86105	2024-09-25T02:32:08	15.4	82
86106	2024-09-25T02:42:08	15.4	83
86107	2024-09-25T02:52:08	15.4	83.5
86108	2024-09-25T03:02:08	15.3	83
86109	2024-09-25T03:12:08	15.3	83
86110	2024-09-25T03:22:08	15.2	83.5
86111	2024-09-25T03:32:08	14.8	92.5
86112	2024-09-25T03:42:08	14.6	94
86113	2024-09-25T03:52:08	14.6	93.5
86114	2024-09-25T04:02:08	14.6	93.5
86115	2024-09-25T04:12:08	14.6	92.5
86116	2024-09-25T04:22:08	14.5	92
86117	2024-09-25T04:32:08	14.7	91
86118	2024-09-25T04:42:08	14.7	91.5
86119	2024-09-25T04:52:08	14.7	93.5
86120	2024-09-25T05:02:08	14.8	94
86121	2024-09-25T05:12:08	14.7	93.5
86122	2024-09-25T05:22:08	14.7	93.5
86123	2024-09-25T05:32:08	14.8	93.5
86124	2024-09-25T05:42:08	14.9	93.5
86125	2024-09-25T05:52:08	14.8	93
86126	2024-09-25T06:02:08	14.9	93
86127	2024-09-25T06:12:08	15	93.5
86128	2024-09-25T06:22:08	15.1	93.5
86129	2024-09-25T06:32:08	15.1	93.5
86130	2024-09-25T06:42:08	15.2	95.5
86131	2024-09-25T06:52:08	15	94
86132	2024-09-25T07:02:08	15.2	94.5
86133	2024-09-25T07:12:08	15.5	93.5
86134	2024-09-25T07:22:08	15.7	93
86135	2024-09-25T07:32:08	15.8	93
86136	2024-09-25T07:42:08	16.1	92
86137	2024-09-25T07:52:08	16.3	90.5
86138	2024-09-25T08:02:08	16.3	90.5
86139	2024-09-25T08:12:08	16.3	89.5
86140	2024-09-25T08:22:08	16.2	90.5
86141	2024-09-25T08:32:08	16.2	91.5
86142	2024-09-25T08:42:08	16.3	89.5
86143	2024-09-25T08:52:08	16.7	90
86144	2024-09-25T09:02:08	16.9	89.5
86145	2024-09-25T09:12:08	17.1	85.5
86146	2024-09-25T09:22:08	17.3	85
86147	2024-09-25T09:32:08	17.5	84
86148	2024-09-25T09:42:08	17.5	83
86149	2024-09-25T09:52:08	17.8	81
86150	2024-09-25T10:02:08	17.9	80
86151	2024-09-25T10:12:08	18.3	78.5
86152	2024-09-25T10:22:08	18.4	73.5
86153	2024-09-25T10:32:08	18.5	73
86154	2024-09-25T10:42:08	18.5	73
86155	2024-09-25T10:52:08	18.8	72.5
86156	2024-09-25T11:02:08	19.1	70.5
86157	2024-09-25T11:12:08	19.2	69.5
86158	2024-09-25T11:22:08	19.2	70.5
86159	2024-09-25T11:32:08	19.5	70
86160	2024-09-25T11:42:08	19.8	69
86161	2024-09-25T11:52:08	20	68.5
86162	2024-09-25T12:02:08	20.3	66.5
86163	2024-09-25T12:12:08	21	63.5
86164	2024-09-25T12:22:08	21.6	61
86165	2024-09-25T12:32:08	21.3	61.5
86166	2024-09-25T12:42:08	21.3	62
86167	2024-09-25T12:52:08	21.4	61.5
86168	2024-09-25T13:02:08	21.1	62.5
86169	2024-09-25T13:12:08	21	63
86170	2024-09-25T13:22:08	21	62.5
86171	2024-09-25T13:32:08	21	63.5
86172	2024-09-25T13:42:07	20.7	64
86173	2024-09-25T13:52:07	21	62
86174	2024-09-25T14:02:07	21.4	62
86175	2024-09-25T14:12:07	22	60
86176	2024-09-25T14:22:07	22.4	56.5
86177	2024-09-25T14:32:07	22.6	54
86178	2024-09-25T14:42:07	22.4	54.5
86179	2024-09-25T14:52:07	22.1	55.5
86180	2024-09-25T15:02:07	22.3	54
86181	2024-09-25T15:12:07	21.8	55
86182	2024-09-25T15:22:07	21.2	57
86183	2024-09-25T15:32:07	21.1	58.5
86184	2024-09-25T15:42:07	21.3	59.5
86185	2024-09-25T15:52:07	21.3	59.5
86186	2024-09-25T16:02:07	21	60.5
86187	2024-09-25T16:12:07	20.6	61.5
86188	2024-09-25T16:22:07	20.4	62.5
86189	2024-09-25T16:32:07	20.1	61
86190	2024-09-25T16:42:07	19.9	58.5
86191	2024-09-25T16:52:07	19.7	58
86192	2024-09-25T17:02:07	19.7	57.5
86193	2024-09-25T17:12:07	19.4	58
86194	2024-09-25T17:22:07	19.5	57.5
86195	2024-09-25T17:32:07	19.3	57.5
86196	2024-09-25T17:42:07	19.4	57
86197	2024-09-25T17:52:07	19.2	58
86198	2024-09-25T18:02:07	19.1	58
86199	2024-09-25T18:12:07	19.1	59
86200	2024-09-25T18:22:07	19	59.5
86201	2024-09-25T18:32:07	19	60.5
86202	2024-09-25T18:42:07	18.9	62
86203	2024-09-25T18:52:07	18.8	62
86204	2024-09-25T19:02:07	18.7	63
86205	2024-09-25T19:12:07	18.6	63
86206	2024-09-25T19:22:07	18.5	64.5
86207	2024-09-25T19:32:07	18.5	64.5
86208	2024-09-25T19:42:07	18.4	65.5
86209	2024-09-25T19:52:07	18.5	67.5
86210	2024-09-25T20:02:07	18.3	72
86211	2024-09-25T20:12:07	18.3	68.5
86212	2024-09-25T20:22:07	18.2	74
86213	2024-09-25T20:32:07	18	76
86214	2024-09-25T20:42:07	17.8	74
86215	2024-09-25T20:52:07	17.5	72
86216	2024-09-25T21:02:07	17.4	74
86217	2024-09-25T21:12:07	17.2	79.5
86218	2024-09-25T21:22:07	16.9	77
86219	2024-09-25T21:32:07	16.8	79
86220	2024-09-25T21:42:07	16.7	78.5
86221	2024-09-25T21:52:07	16.6	81
86222	2024-09-25T22:02:07	16.5	82.5
86223	2024-09-25T22:12:07	16.5	83.5
86224	2024-09-25T22:22:07	16.5	81
86225	2024-09-25T22:32:07	16.6	82.5
86226	2024-09-25T22:42:07	16.6	84
86227	2024-09-25T22:52:07	16.5	82
86228	2024-09-25T23:02:07	16.6	84.5
86229	2024-09-25T23:32:41	16.5	85
86230	2024-09-25T23:32:42	16.5	85
86231	2024-09-25T23:32:42	16.6	85
86232	2024-09-25T23:42:07	16.6	85
86233	2024-09-25T23:52:07	16.5	86
86234	2024-09-26T00:02:07	16.5	86.5
86235	2024-09-26T00:12:07	16.4	85
86236	2024-09-26T00:22:07	16.4	82
86237	2024-09-26T00:32:07	16.4	82
86238	2024-09-26T00:42:07	16.4	82.5
86239	2024-09-26T00:52:07	16.2	83.5
86240	2024-09-26T01:02:06	16.3	85
86241	2024-09-26T01:12:06	16.1	85
86242	2024-09-26T01:22:06	15.8	90.5
86243	2024-09-26T01:32:06	15.6	94
86244	2024-09-26T01:42:06	15.5	98
86245	2024-09-26T01:52:06	15.1	98.5
86246	2024-09-26T02:02:06	15.3	100
86247	2024-09-26T02:12:06	15	100
86248	2024-09-26T02:22:06	15	100
86249	2024-09-26T02:32:06	14.9	100
86250	2024-09-26T02:42:06	14.8	100
86251	2024-09-26T02:52:06	14.9	100
86252	2024-09-26T03:02:06	14.9	100
86253	2024-09-26T03:12:06	15	100
86254	2024-09-26T03:22:06	15.3	100
86255	2024-09-26T03:32:06	15.3	100
86256	2024-09-26T03:42:06	15.4	100
86257	2024-09-26T03:52:06	15.4	100
86258	2024-09-26T04:02:06	15.3	100
86259	2024-09-26T04:12:06	15.4	100
86260	2024-09-26T04:22:06	15.4	100
86261	2024-09-26T04:32:06	15.5	100
86262	2024-09-26T04:42:06	16	100
86263	2024-09-26T04:52:06	16.8	100
86264	2024-09-26T05:02:06	17	98.5
86265	2024-09-26T05:12:06	16.6	99
86266	2024-09-26T05:22:06	17.1	94
86267	2024-09-26T05:32:06	16.9	97.5
86268	2024-09-26T05:42:06	16.9	96
86269	2024-09-26T05:52:06	16.8	97.5
86270	2024-09-26T06:02:06	16.6	100
86271	2024-09-26T06:12:06	16.7	100
86272	2024-09-26T06:22:06	16.8	100
86273	2024-09-26T06:32:06	17.2	100
86274	2024-09-26T06:42:06	17.5	100
86275	2024-09-26T06:52:06	17.6	100
86276	2024-09-26T07:02:06	17.8	99.5
86277	2024-09-26T07:12:06	18.1	99.5
86278	2024-09-26T07:22:06	18.4	98.5
86279	2024-09-26T07:32:06	18.5	98
86280	2024-09-26T07:42:06	18.6	98.5
86281	2024-09-26T07:52:06	18.7	98.5
86282	2024-09-26T08:02:06	18.6	96.5
86283	2024-09-26T08:12:06	18	99
86284	2024-09-26T08:22:06	17.8	96
86285	2024-09-26T08:32:06	18.3	92.5
86286	2024-09-26T08:42:06	18.5	91.5
86287	2024-09-26T08:52:06	18.8	89.5
86288	2024-09-26T09:02:06	18.9	90
86289	2024-09-26T09:12:06	18.6	90.5
86290	2024-09-26T09:22:06	18.2	94
86291	2024-09-26T09:32:06	17.6	100
86292	2024-09-26T09:42:06	17.4	100
86293	2024-09-26T09:52:06	17.4	100
86294	2024-09-26T10:02:06	17.4	100
86295	2024-09-26T10:12:06	17.5	100
86296	2024-09-26T10:22:06	17.6	100
86297	2024-09-26T10:32:06	17.8	100
86298	2024-09-26T10:42:06	17.7	99
86299	2024-09-26T10:52:06	17.4	99.5
86300	2024-09-26T11:02:06	17.1	99
86301	2024-09-26T11:12:06	17	98
86302	2024-09-26T11:22:06	17.1	96
86303	2024-09-26T11:32:06	17.3	92
86304	2024-09-26T11:42:06	17.2	91
86305	2024-09-26T11:52:06	17.2	90.5
86306	2024-09-26T12:02:06	17.5	92
86307	2024-09-26T12:12:06	17.1	95.5
86308	2024-09-26T12:22:06	17.3	96.5
86309	2024-09-26T12:32:06	17.3	96
86310	2024-09-26T12:42:05	17.4	92.5
86311	2024-09-26T12:52:05	17.8	92.5
86312	2024-09-26T13:02:05	17.9	91.5
86313	2024-09-26T13:12:05	17.7	93.5
86314	2024-09-26T13:22:05	17.4	94
86315	2024-09-26T13:32:05	17.3	92.5
86316	2024-09-26T13:42:05	16.9	96
86317	2024-09-26T13:52:05	16.6	95
86318	2024-09-26T14:02:05	16.1	100
86319	2024-09-26T14:12:05	15.9	100
86320	2024-09-26T14:22:05	15.6	100
86321	2024-09-26T14:32:05	15.5	100
86322	2024-09-26T14:42:05	15.4	100
86323	2024-09-26T14:52:05	15.5	100
86324	2024-09-26T15:02:05	15.9	100
86325	2024-09-26T15:12:05	15.7	100
86326	2024-09-26T15:22:05	15.5	100
86327	2024-09-26T15:32:05	15.3	100
86328	2024-09-26T15:42:05	15.3	100
86329	2024-09-26T15:52:05	15.4	100
86330	2024-09-26T16:02:05	15.4	100
86331	2024-09-26T16:12:05	15.3	100
86332	2024-09-26T16:22:05	15.3	100
86333	2024-09-26T16:32:05	15.7	100
86334	2024-09-26T16:42:05	15.6	100
86335	2024-09-26T16:52:05	15.5	100
86336	2024-09-26T17:02:05	15.4	100
86337	2024-09-26T17:12:05	15.6	100
86338	2024-09-26T17:22:05	15.3	100
86339	2024-09-26T17:32:05	15.4	100
86340	2024-09-26T17:42:05	15.4	100
86341	2024-09-26T17:52:05	15.4	100
86342	2024-09-26T18:02:05	15.4	100
86343	2024-09-26T18:12:05	15.3	100
86344	2024-09-26T18:22:05	15.1	100
86345	2024-09-26T18:32:05	15.5	100
86346	2024-09-26T18:42:05	15.9	100
86347	2024-09-26T18:52:05	15.8	100
86348	2024-09-26T19:02:05	16.1	100
86349	2024-09-26T19:12:05	16.2	100
86350	2024-09-26T19:22:05	16.4	100
86351	2024-09-26T19:32:05	15.4	100
86352	2024-09-26T19:42:05	15.3	100
86353	2024-09-26T19:52:05	15.2	100
86354	2024-09-26T20:02:05	15.2	100
86355	2024-09-26T20:12:05	15.3	100
86356	2024-09-26T20:22:05	15.5	100
86357	2024-09-26T20:32:05	15.4	100
86358	2024-09-26T20:42:05	15.1	100
86359	2024-09-26T20:52:05	15	100
86360	2024-09-26T21:02:05	14.8	100
86361	2024-09-26T21:12:05	14.7	100
86362	2024-09-26T21:22:05	14.6	99.5
86363	2024-09-26T21:32:05	14.5	99
86364	2024-09-26T21:42:05	14.5	98
86365	2024-09-26T21:52:05	14.4	97
86366	2024-09-26T22:02:05	14.3	96
86367	2024-09-26T22:12:05	14.4	95.5
86368	2024-09-26T22:22:05	14.4	95.5
86369	2024-09-26T22:32:05	14.4	95.5
86370	2024-09-26T22:42:05	14.6	95.5
86371	2024-09-26T22:52:05	14.5	95.5
86372	2024-09-26T23:32:51	13.7	95.5
86373	2024-09-26T23:32:51	13.3	95.5
86374	2024-09-26T23:32:51	13.3	95.5
86375	2024-09-26T23:32:51	13.2	95.5
86376	2024-09-26T23:42:05	13.3	95.5
86377	2024-09-26T23:52:05	13.5	95.5
86378	2024-09-27T00:02:05	13.4	95.5
86379	2024-09-27T00:12:05	13.3	95.5
86380	2024-09-27T00:22:05	13.4	95.5
86381	2024-09-27T00:32:05	13.3	95.5
86382	2024-09-27T00:42:05	13.2	95.5
86383	2024-09-27T00:52:05	13.2	95.5
86384	2024-09-27T01:02:05	13.1	95.5
86385	2024-09-27T01:12:05	13.1	95.5
86386	2024-09-27T01:22:04	13.1	95.5
86387	2024-09-27T01:32:04	12.9	95.5
86388	2024-09-27T01:42:04	12.8	95.5
86389	2024-09-27T01:52:04	12.8	95.5
86390	2024-09-27T02:02:04	12.7	95.5
86391	2024-09-27T02:12:04	12.6	95.5
86392	2024-09-27T02:22:04	12.5	95.5
86393	2024-09-27T02:32:04	12.3	95.5
86394	2024-09-27T02:42:04	12.3	95.5
86395	2024-09-27T02:52:04	12.7	95.5
86396	2024-09-27T03:02:04	12.8	95.5
86397	2024-09-27T03:12:04	12.8	95.5
86398	2024-09-27T03:22:04	12.8	95.5
86399	2024-09-27T03:32:04	12.8	95.5
86400	2024-09-27T03:42:04	12.8	95.5
86401	2024-09-27T03:52:04	12.9	95.5
86402	2024-09-27T04:02:04	13.1	95.5
86403	2024-09-27T04:12:04	13.2	95.5
86404	2024-09-27T04:22:04	13.4	95.5
86405	2024-09-27T04:32:04	13.2	95.5
86406	2024-09-27T04:42:04	13.2	95.5
86407	2024-09-27T04:52:04	13.1	95.5
86408	2024-09-27T05:02:04	13.1	95.5
86409	2024-09-27T05:12:04	12.9	95.5
86410	2024-09-27T05:22:04	12.8	95.5
86411	2024-09-27T05:32:04	12.9	95.5
86412	2024-09-27T05:42:04	13	95.5
86413	2024-09-27T05:52:04	13.1	95.5
86414	2024-09-27T06:02:04	13.2	95.5
86415	2024-09-27T06:12:04	13.1	95.5
86416	2024-09-27T06:22:04	12.9	95.5
86417	2024-09-27T06:32:04	12.8	95.5
86418	2024-09-27T06:42:04	12.9	95.5
86419	2024-09-27T06:52:04	13.2	95.5
86420	2024-09-27T07:02:04	13.5	95.5
86421	2024-09-27T07:12:04	13.5	95.5
86422	2024-09-27T07:22:04	13.5	95.5
86423	2024-09-27T07:32:04	13.6	95.5
86424	2024-09-27T07:42:04	13.8	95.5
86425	2024-09-27T07:52:04	14.1	95.5
86426	2024-09-27T08:02:04	14.3	95.5
86427	2024-09-27T08:12:04	14.4	95.5
86428	2024-09-27T08:22:04	14.5	95.5
86429	2024-09-27T08:32:04	14.6	95.5
86430	2024-09-27T08:42:04	14.7	95.5
86431	2024-09-27T08:52:04	14.8	95.5
86432	2024-09-27T09:02:04	15.3	95.5
86433	2024-09-27T09:12:04	15.3	95.5
86434	2024-09-27T09:22:04	15.5	95.5
86435	2024-09-27T09:32:04	15.6	95.5
86436	2024-09-27T09:42:04	15.7	95.5
86437	2024-09-27T09:52:04	15.8	95.5
86438	2024-09-27T10:02:04	15.9	95.5
86439	2024-09-27T10:12:04	15.7	95.5
86440	2024-09-27T10:22:04	15.2	95.5
86441	2024-09-27T10:32:04	15	95.5
86442	2024-09-27T10:42:04	14.4	95.5
86443	2024-09-27T10:52:04	13.9	95.5
86444	2024-09-27T11:02:04	12.7	95.5
86445	2024-09-27T11:12:04	12.5	96
86446	2024-09-27T11:22:04	12.4	96
86447	2024-09-27T11:32:04	12.1	96
86448	2024-09-27T11:42:04	12.3	96
86449	2024-09-27T11:52:04	12.7	96
86450	2024-09-27T12:02:04	12.8	96
86451	2024-09-27T12:12:04	13.9	96
86452	2024-09-27T12:22:04	14.7	96
86453	2024-09-27T12:32:04	14.4	96
86454	2024-09-27T12:42:04	14	96
86455	2024-09-27T12:52:04	13.7	96
86456	2024-09-27T13:02:04	13.8	96
86457	2024-09-27T13:12:04	13.6	96
86458	2024-09-27T13:22:04	13.3	96
86459	2024-09-27T13:32:04	13.1	96
86460	2024-09-27T13:42:04	13	96
86461	2024-09-27T13:52:04	12.8	96
86462	2024-09-27T14:02:04	12.8	96
86463	2024-09-27T14:12:04	13.2	96
86464	2024-09-27T14:22:04	13.5	96
86465	2024-09-27T14:32:03	13.5	96
86466	2024-09-27T14:42:03	13.7	96
86467	2024-09-27T14:52:03	13.6	96
86468	2024-09-27T15:02:03	13.3	96
86469	2024-09-27T15:12:03	12.5	96
86470	2024-09-27T15:22:03	12.1	96
86471	2024-09-27T15:32:03	12.2	96
86472	2024-09-27T15:42:03	13.2	96
86473	2024-09-27T15:52:03	13.5	96
86474	2024-09-27T16:02:03	13.1	96
86475	2024-09-27T16:12:03	13	96
86476	2024-09-27T16:22:03	12.6	96
86477	2024-09-27T16:32:03	12.5	96
86478	2024-09-27T16:42:03	12.4	96
86479	2024-09-27T16:52:03	12.3	96
86480	2024-09-27T17:02:03	12.4	96
86481	2024-09-27T17:12:03	12.4	96
86482	2024-09-27T17:22:03	12.3	96
86483	2024-09-27T17:32:03	12.2	96
86484	2024-09-27T17:42:03	12	96
86485	2024-09-27T17:52:03	12.1	96
86486	2024-09-27T18:02:03	12.2	96
86487	2024-09-27T18:12:03	12.1	96
86488	2024-09-27T18:22:03	12.2	96
86489	2024-09-27T18:32:03	12.3	96
86490	2024-09-27T18:42:03	12.3	96
86491	2024-09-27T18:52:03	12.2	96
86492	2024-09-27T19:02:03	12.3	96
86493	2024-09-27T19:12:03	12.2	96
86494	2024-09-27T19:22:03	12.3	96
86495	2024-09-27T19:32:03	12.4	96
86496	2024-09-27T19:42:03	12.5	96
86497	2024-09-27T19:52:03	12.6	96
86498	2024-09-27T20:02:03	12.5	96
86499	2024-09-27T20:12:03	12.7	96
86500	2024-09-27T20:22:03	12.7	96
86501	2024-09-27T20:32:03	12.7	96
86502	2024-09-27T20:42:03	12.8	96
86503	2024-09-27T20:52:03	12.9	96
86504	2024-09-27T21:02:03	12.8	96
86505	2024-09-27T21:12:03	12.8	96
86506	2024-09-27T21:22:03	12.7	96
86507	2024-09-27T21:32:03	12.7	96
86508	2024-09-27T21:42:03	12.7	96
86509	2024-09-27T21:52:03	12.8	96
86510	2024-09-27T22:02:03	12.7	96.5
86511	2024-09-27T22:12:03	12.7	96.5
86512	2024-09-27T22:22:03	12.5	96.5
86513	2024-09-27T22:32:03	12.6	96.5
86514	2024-09-27T22:42:03	12.6	96.5
86515	2024-09-27T22:52:03	12.5	96.5
86516	2024-09-27T23:31:51	12.2	96.5
86517	2024-09-27T23:31:51	11.7	96.5
86518	2024-09-27T23:31:51	11.6	96.5
86519	2024-09-27T23:32:03	11.5	96.5
86520	2024-09-27T23:42:03	11.4	96.5
86521	2024-09-27T23:52:03	11.5	96.5
86522	2024-09-28T00:02:03	11.6	96.5
86523	2024-09-28T00:12:03	11.7	96.5
86524	2024-09-28T00:22:03	11.5	96.5
86525	2024-09-28T00:32:03	11.5	96.5
86526	2024-09-28T00:42:03	11.6	96.5
86527	2024-09-28T00:52:03	11.6	96.5
86528	2024-09-28T01:02:03	11.6	96.5
86529	2024-09-28T01:12:03	11.6	96.5
86530	2024-09-28T01:22:03	11.5	96.5
86531	2024-09-28T01:32:03	11.4	96.5
86532	2024-09-28T01:42:03	11.3	96.5
86533	2024-09-28T01:52:03	11.3	96.5
86534	2024-09-28T02:02:03	11.3	96.5
86535	2024-09-28T02:12:03	11.3	96.5
86536	2024-09-28T02:22:03	11.4	96.5
86537	2024-09-28T02:32:03	11.3	96.5
86538	2024-09-28T02:42:03	11.3	96.5
86539	2024-09-28T02:52:03	11.3	96.5
86540	2024-09-28T03:02:03	11.4	96.5
86541	2024-09-28T03:12:03	11.4	96.5
86542	2024-09-28T03:22:03	11.4	96.5
86543	2024-09-28T03:32:03	11.5	96.5
86544	2024-09-28T03:42:03	11.5	96.5
86545	2024-09-28T03:52:03	11.6	96.5
86546	2024-09-28T04:02:03	11.4	96.5
86547	2024-09-28T04:12:03	11.4	96.5
86548	2024-09-28T04:22:03	11.3	96.5
86549	2024-09-28T04:32:03	11.4	96.5
86550	2024-09-28T04:42:03	11.4	96.5
86551	2024-09-28T04:52:02	11.5	96.5
86552	2024-09-28T05:02:02	11.4	96.5
86553	2024-09-28T05:12:02	11.4	96.5
86554	2024-09-28T05:22:02	11.4	96.5
86555	2024-09-28T05:32:02	11.4	96.5
86556	2024-09-28T05:42:02	11.4	96.5
86557	2024-09-28T05:52:02	11.4	96.5
86558	2024-09-28T06:02:02	11.4	96.5
86559	2024-09-28T06:12:02	11.5	96.5
86560	2024-09-28T06:22:02	11.5	96.5
86561	2024-09-28T06:32:02	11.5	96.5
86562	2024-09-28T06:42:02	11.5	96.5
86563	2024-09-28T06:52:02	11.6	96.5
86564	2024-09-28T07:02:02	11.7	96.5
86565	2024-09-28T07:12:02	11.9	96.5
86566	2024-09-28T07:22:02	11.9	96.5
86567	2024-09-28T07:32:02	11.9	96.5
86568	2024-09-28T07:42:02	12.1	96.5
86569	2024-09-28T07:52:02	12.1	96.5
86570	2024-09-28T08:02:02	12.3	96.5
86571	2024-09-28T08:12:02	12.5	96.5
86572	2024-09-28T08:22:02	12.5	96.5
86573	2024-09-28T08:32:02	12.6	96.5
86574	2024-09-28T08:42:02	12.7	96.5
86575	2024-09-28T08:52:02	12.7	96.5
86576	2024-09-28T09:02:02	12.8	96.5
86577	2024-09-28T09:12:02	13.3	96.5
86578	2024-09-28T09:22:02	13.1	96.5
86579	2024-09-28T09:32:02	13.2	96.5
86580	2024-09-28T09:42:02	13.4	96.5
86581	2024-09-28T09:52:02	13.7	96.5
86582	2024-09-28T10:02:02	13.7	96.5
86583	2024-09-28T10:12:02	13.9	96.5
86584	2024-09-28T10:22:02	14.2	96.5
86585	2024-09-28T10:32:02	14	96.5
86586	2024-09-28T10:42:02	14.1	99.5
86587	2024-09-28T10:52:02	14.2	99.5
86588	2024-09-28T11:02:02	14.2	99.5
86589	2024-09-28T11:12:02	14.4	99.5
86590	2024-09-28T11:22:02	14.6	99.5
86591	2024-09-28T11:32:02	12.9	100
86592	2024-09-28T11:42:02	12.6	100
86593	2024-09-28T11:52:02	13.1	100
86594	2024-09-28T12:02:02	12.9	100
86595	2024-09-28T12:12:02	14.4	100
86596	2024-09-28T12:22:02	16.3	100
86597	2024-09-28T12:32:02	17.3	100
86598	2024-09-28T12:42:02	15	100
86599	2024-09-28T12:52:02	13.5	100
86600	2024-09-28T13:02:02	13.8	100
86601	2024-09-28T13:12:02	15.4	100
86602	2024-09-28T13:22:02	17.1	100
86603	2024-09-28T13:32:02	17	100
86604	2024-09-28T13:42:02	15	100
86605	2024-09-28T13:52:02	13.2	100
86606	2024-09-28T14:02:02	13.6	100
86607	2024-09-28T14:12:02	16.1	100
86608	2024-09-28T14:22:02	17.3	100
86609	2024-09-28T14:32:02	16.1	100
86610	2024-09-28T14:42:02	16.2	100
86611	2024-09-28T14:52:02	15.5	100
86612	2024-09-28T15:02:02	14.9	100
86613	2024-09-28T15:12:02	14.8	100
86614	2024-09-28T15:32:02	14.7	100
86615	2024-09-28T15:42:02	15.7	100
86616	2024-09-28T15:52:02	15.2	100
86617	2024-09-28T16:02:02	15.7	100
86618	2024-09-28T16:12:02	15.4	100
86619	2024-09-28T16:22:02	14.9	100
86620	2024-09-28T16:32:02	14.5	100
86621	2024-09-28T16:42:02	13.9	100
86622	2024-09-28T16:52:02	13.5	100
86623	2024-09-28T17:02:02	13.2	100
86624	2024-09-28T17:12:02	13.1	100
86625	2024-09-28T17:22:02	12.8	100
86626	2024-09-28T17:32:02	12.6	100
86627	2024-09-28T17:42:02	12.1	100
86628	2024-09-28T17:52:02	12.2	100
86629	2024-09-28T18:02:02	11.9	100
86630	2024-09-28T18:12:02	11.8	100
86631	2024-09-28T18:22:01	11.7	100
86632	2024-09-28T18:32:01	11.7	100
86633	2024-09-28T18:42:02	11.4	100
86634	2024-09-28T18:52:01	11.7	100
86635	2024-09-28T19:02:01	11.3	100
86636	2024-09-28T19:12:01	11.2	100
86637	2024-09-28T19:22:01	11	100
86638	2024-09-28T19:32:01	11.1	100
86639	2024-09-28T19:52:01	11.2	100
86640	2024-09-28T20:02:01	10.9	100
86641	2024-09-28T20:12:01	10.7	100
86642	2024-09-28T20:22:01	10.6	100
86643	2024-09-28T20:32:01	10.4	100
86644	2024-09-28T20:42:01	10.4	100
86645	2024-09-28T20:52:01	10.3	100
86646	2024-09-28T21:02:01	10	100
86647	2024-09-28T21:12:01	10	100
86648	2024-09-28T21:22:01	9.9	100
86649	2024-09-28T21:32:01	9.7	100
86650	2024-09-28T21:42:01	9.8	100
86651	2024-09-28T21:52:01	9.8	100
86652	2024-09-28T22:02:01	9.8	100
86653	2024-09-28T22:12:01	9.6	100
86654	2024-09-28T22:22:01	9.5	100
86655	2024-09-28T22:32:01	9.4	100
86656	2024-09-28T22:42:01	9.4	100
86657	2024-09-28T22:52:01	9.3	100
86658	2024-09-28T23:32:00	9.4	100
86659	2024-09-28T23:32:00	9.2	100
86660	2024-09-28T23:32:00	9	100
86661	2024-09-28T23:32:01	8.8	100
86662	2024-09-28T23:42:01	8.8	100
86663	2024-09-28T23:52:01	8.6	100
86664	2024-09-29T00:02:01	8.5	100
86665	2024-09-29T00:12:01	8.5	100
86666	2024-09-29T00:22:01	8.3	100
86667	2024-09-29T00:32:01	8.3	100
86668	2024-09-29T00:42:01	8.1	97
86669	2024-09-29T00:52:01	8	97
86670	2024-09-29T01:02:01	8	96.5
86671	2024-09-29T01:12:01	7.9	97
86672	2024-09-29T01:22:01	7.8	97
86673	2024-09-29T01:32:01	7.7	97
86674	2024-09-29T01:42:01	7.7	97
86675	2024-09-29T01:52:01	7.5	97
86676	2024-09-29T02:02:01	7.5	97
86677	2024-09-29T02:12:01	7.3	97
86678	2024-09-29T02:22:01	7.2	97
86679	2024-09-29T02:32:01	7.1	97
86680	2024-09-29T02:42:01	7.2	97
86681	2024-09-29T02:52:01	6.9	97
86682	2024-09-29T03:02:01	7	97
86683	2024-09-29T03:12:01	6.9	97
86684	2024-09-29T03:22:01	6.8	97
86685	2024-09-29T03:32:01	6.8	97
86686	2024-09-29T03:42:01	6.6	97
86687	2024-09-29T03:52:01	6.6	97
86688	2024-09-29T04:02:01	6.5	97
86689	2024-09-29T04:12:01	6.4	97
86690	2024-09-29T04:22:01	6.5	97
86691	2024-09-29T04:32:01	6.5	97
86692	2024-09-29T04:42:01	6.4	97
86693	2024-09-29T04:52:01	6.3	97
86694	2024-09-29T05:02:01	6.2	97
86695	2024-09-29T05:12:01	6.2	97
86696	2024-09-29T05:22:01	6.1	97
86697	2024-09-29T05:32:01	6.1	97
86698	2024-09-29T05:42:01	6	97
86699	2024-09-29T05:52:01	6	97
86700	2024-09-29T06:02:01	6.1	97
86701	2024-09-29T06:12:01	6.1	97
86702	2024-09-29T06:22:01	6.2	97
86703	2024-09-29T06:32:01	6.3	97
86704	2024-09-29T06:42:01	6.4	97
86705	2024-09-29T06:52:01	6.5	97
86706	2024-09-29T07:02:01	6.6	97
86707	2024-09-29T07:12:01	6.9	97
86708	2024-09-29T07:22:01	7.1	97
86709	2024-09-29T07:32:01	7.3	97
86710	2024-09-29T07:42:01	7.5	97
86711	2024-09-29T07:52:01	7.9	97
86712	2024-09-29T08:02:01	8	97
86713	2024-09-29T08:12:01	8.2	97
86714	2024-09-29T08:22:01	8.5	97
86715	2024-09-29T08:32:01	8.7	97
86716	2024-09-29T08:42:01	9	97
86717	2024-09-29T08:52:01	9.1	97
86718	2024-09-29T09:02:01	9.3	97
86719	2024-09-29T09:12:01	9.6	97
86720	2024-09-29T09:22:01	9.9	97
86721	2024-09-29T09:32:01	10.1	97
86722	2024-09-29T09:42:01	10.5	97
86723	2024-09-29T09:52:01	10.5	97
86724	2024-09-29T10:02:01	10.9	97
86725	2024-09-29T10:12:01	11.2	97
86726	2024-09-29T10:22:01	11.6	96.5
86727	2024-09-29T10:32:01	11.9	96.5
86728	2024-09-29T10:42:01	12.4	96.5
86729	2024-09-29T10:52:01	13	96.5
86730	2024-09-29T11:02:01	13.2	96.5
86731	2024-09-29T11:12:01	13.5	96.5
86732	2024-09-29T11:22:01	13.9	94.5
86733	2024-09-29T11:32:01	14.3	87
86734	2024-09-29T11:42:01	14.7	74.5
86735	2024-09-29T11:52:01	14.9	71.5
86736	2024-09-29T12:02:01	15.4	69.5
86737	2024-09-29T12:12:01	16	67
86738	2024-09-29T12:22:01	16.5	66.5
86739	2024-09-29T12:32:01	16.6	64
86740	2024-09-29T12:42:01	16.6	64.5
86741	2024-09-29T12:52:01	16.5	64.5
86742	2024-09-29T13:02:00	16.6	65
86743	2024-09-29T13:12:00	16.6	65
86744	2024-09-29T13:22:00	16.5	66
86745	2024-09-29T13:32:00	16.8	63.5
86746	2024-09-29T13:42:00	16.9	64.5
86747	2024-09-29T13:52:00	16.8	66
86748	2024-09-29T14:02:00	16.6	64
86749	2024-09-29T14:12:00	16.3	64.5
86750	2024-09-29T14:22:00	16	66
86751	2024-09-29T14:32:00	16	69
86752	2024-09-29T14:42:00	16	66.5
86753	2024-09-29T14:52:00	15.9	66.5
86754	2024-09-29T15:02:00	15.6	69
86755	2024-09-29T15:12:00	15.4	68.5
86756	2024-09-29T15:22:00	15.3	73
86757	2024-09-29T15:32:00	15.3	72
86758	2024-09-29T15:42:00	15.1	70.5
86759	2024-09-29T15:52:00	15.1	73
86760	2024-09-29T16:02:00	15	68.5
86761	2024-09-29T16:12:00	14.9	70
86762	2024-09-29T16:22:00	14.8	69
86763	2024-09-29T16:32:00	14.5	72
86764	2024-09-29T16:42:00	14.4	73.5
86765	2024-09-29T16:52:00	14.3	76.5
86766	2024-09-29T17:02:00	14	73.5
86767	2024-09-29T17:12:00	13.8	76
86768	2024-09-29T17:22:00	13.5	76
86769	2024-09-29T17:32:00	13.4	79
86770	2024-09-29T17:42:00	13.2	78.5
86771	2024-09-29T17:52:00	13	80
86772	2024-09-29T18:02:00	12.9	77
86773	2024-09-29T18:12:00	12.8	77.5
86774	2024-09-29T18:22:00	12.6	76
86775	2024-09-29T18:32:00	12.5	75
86776	2024-09-29T18:42:00	12.4	76.5
86777	2024-09-29T18:52:00	12.3	76.5
86778	2024-09-29T19:02:00	12.2	77.5
86779	2024-09-29T19:12:00	12.1	78
86780	2024-09-29T19:22:00	11.9	76.5
86781	2024-09-29T19:32:00	11.9	75.5
86782	2024-09-29T19:42:00	11.8	75.5
86783	2024-09-29T19:52:00	11.8	75
86784	2024-09-29T20:02:00	11.7	75.5
86785	2024-09-29T20:12:00	11.8	74.5
86786	2024-09-29T20:22:00	11.7	73.5
86787	2024-09-29T20:32:00	11.8	74.5
86788	2024-09-29T20:42:00	11.6	76
86789	2024-09-29T20:52:00	11.4	79
86790	2024-09-29T21:02:00	11.4	81
86791	2024-09-29T21:12:00	11.2	80.5
86792	2024-09-29T21:22:00	11.1	79.5
86793	2024-09-29T21:32:00	11	80
86794	2024-09-29T21:42:00	10.9	80.5
86795	2024-09-29T21:52:00	10.9	80.5
86796	2024-09-29T22:02:00	10.9	82
86797	2024-09-29T22:12:00	10.9	82.5
86798	2024-09-29T22:22:00	11	83
86799	2024-09-29T22:32:00	11.1	83.5
86800	2024-09-29T22:42:00	11	84.5
86801	2024-09-29T22:52:00	11.2	83.5
86802	2024-09-29T23:32:55	11.1	81.5
86803	2024-09-29T23:32:56	11.3	81
86804	2024-09-29T23:32:56	11.2	80
86805	2024-09-29T23:32:56	11.3	82
86806	2024-09-29T23:42:00	11.3	81
86807	2024-09-29T23:52:00	11.3	81.5
86808	2024-09-30T00:02:00	11.2	79.5
86809	2024-09-30T00:12:00	11.2	83
86810	2024-09-30T00:22:00	11.1	83
86811	2024-09-30T00:32:00	11.2	85
86812	2024-09-30T00:42:00	11.1	87
86813	2024-09-30T00:52:00	11	88
86814	2024-09-30T01:02:00	10.9	86
86815	2024-09-30T01:12:00	10.7	87.5
86816	2024-09-30T01:22:00	10.5	88.5
86817	2024-09-30T01:32:00	10.3	90
86818	2024-09-30T01:42:00	10.4	91
86819	2024-09-30T01:52:00	10.4	90.5
86820	2024-09-30T02:02:00	10.3	89
86821	2024-09-30T02:12:00	10.3	90.5
86822	2024-09-30T02:22:00	10.1	92
86823	2024-09-30T02:32:00	10.2	92.5
86824	2024-09-30T02:42:00	10.1	92.5
86825	2024-09-30T02:52:00	10.1	92.5
86826	2024-09-30T03:02:00	10.2	92.5
86827	2024-09-30T03:12:00	10.2	92
86828	2024-09-30T03:22:00	10.3	92.5
86829	2024-09-30T03:32:00	10.2	92
86830	2024-09-30T03:42:00	10.2	92.5
86831	2024-09-30T03:51:59	10	93.5
86832	2024-09-30T04:01:59	9.8	94
86833	2024-09-30T04:11:59	9.9	94
86834	2024-09-30T04:22:00	10	94
86835	2024-09-30T04:31:59	10	93.5
86836	2024-09-30T04:41:59	10.2	94
86837	2024-09-30T04:51:59	10.3	94
86838	2024-09-30T05:01:59	10.1	94
86839	2024-09-30T05:11:59	10.2	94.5
86840	2024-09-30T05:21:59	10.3	95
86841	2024-09-30T05:31:59	10.2	95
86842	2024-09-30T05:41:59	10.4	95.5
86843	2024-09-30T05:51:59	10.4	95.5
86844	2024-09-30T06:01:59	10.5	95.5
86845	2024-09-30T06:11:59	10.6	95
86846	2024-09-30T06:21:59	10.5	97
86847	2024-09-30T06:31:59	10.5	97
86848	2024-09-30T06:41:59	10.6	96.5
86849	2024-09-30T06:51:59	10.7	96.5
86850	2024-09-30T07:01:59	10.9	96.5
86851	2024-09-30T07:11:59	11	96.5
86852	2024-09-30T07:21:59	11	96.5
86853	2024-09-30T07:31:59	11.3	96.5
86854	2024-09-30T07:41:59	11.6	96
86855	2024-09-30T07:51:59	11.6	96
86856	2024-09-30T08:01:59	11.7	96
86857	2024-09-30T08:11:59	12	96
86858	2024-09-30T08:21:59	12.1	96.5
86859	2024-09-30T08:31:59	12.2	96.5
86860	2024-09-30T08:41:59	12.4	96.5
86861	2024-09-30T08:51:59	12.6	95.5
86862	2024-09-30T09:01:59	12.8	95
86863	2024-09-30T09:11:59	13.1	95
86864	2024-09-30T09:21:59	13.3	95
86865	2024-09-30T09:31:59	13.5	94.5
86866	2024-09-30T09:41:59	14	92
86867	2024-09-30T09:51:59	14.4	93.5
86868	2024-09-30T10:01:59	14.6	91.5
86869	2024-09-30T10:11:59	14.8	91
86870	2024-09-30T10:21:59	14.9	89.5
86871	2024-09-30T10:31:59	15	88.5
86872	2024-09-30T10:41:59	14.8	89
86873	2024-09-30T10:51:59	15	90
86874	2024-09-30T11:01:59	15.2	89
86875	2024-09-30T11:11:59	15.4	89
86876	2024-09-30T11:21:59	15.7	88
86877	2024-09-30T11:31:59	16.3	86.5
86878	2024-09-30T11:41:59	16.9	85
86879	2024-09-30T11:51:59	17.2	82.5
86880	2024-09-30T12:01:59	17.3	80.5
86881	2024-09-30T12:11:59	16.7	88
86882	2024-09-30T12:21:59	16.3	89
86883	2024-09-30T12:31:59	17.2	81.5
86884	2024-09-30T12:41:59	18.9	78
86885	2024-09-30T12:51:59	21.4	67.5
86886	2024-09-30T13:01:59	22	64.5
86887	2024-09-30T13:11:59	21.1	65
86888	2024-09-30T13:21:59	20.7	66
86889	2024-09-30T13:31:59	20	67.5
86890	2024-09-30T13:41:59	19.4	69
86891	2024-09-30T13:51:59	18	86.5
86892	2024-09-30T14:01:59	16.5	93.5
86893	2024-09-30T14:12:16	16.1	94
86894	2024-09-30T14:21:59	16.2	95
86895	2024-09-30T14:31:59	16.6	98
86896	2024-09-30T14:41:59	16.8	100
86897	2024-09-30T14:51:59	16.9	100
86898	2024-09-30T15:01:59	16.9	100
86899	2024-09-30T15:11:59	16.9	100
86900	2024-09-30T15:21:59	16.9	100
86901	2024-09-30T15:31:59	16.7	100
86902	2024-09-30T15:41:59	16.8	100
86903	2024-09-30T15:51:59	16.6	92.5
86904	2024-09-30T16:01:59	16.4	89
86905	2024-09-30T16:11:59	16.3	85.5
86906	2024-09-30T16:21:59	16.2	88.5
86907	2024-09-30T16:31:59	16.3	87
86908	2024-09-30T16:41:59	16.4	87
86909	2024-09-30T16:51:59	16.2	92
86910	2024-09-30T17:01:59	16.2	95.5
86911	2024-09-30T17:11:58	16.1	92.5
86912	2024-09-30T17:21:58	16.1	95.5
86913	2024-09-30T17:31:58	16.1	92.5
86914	2024-09-30T17:41:58	15.9	86.5
86915	2024-09-30T17:51:58	16	86.5
86916	2024-09-30T18:01:58	15.9	84
86917	2024-09-30T18:11:58	16.1	82
86918	2024-09-30T18:21:58	16.1	78.5
86919	2024-09-30T18:31:58	16.5	77
86920	2024-09-30T18:41:58	16.6	75.5
86921	2024-09-30T18:51:58	16.7	76
86922	2024-09-30T19:01:58	16.7	76.5
86923	2024-09-30T19:11:58	16.5	77
86924	2024-09-30T19:21:58	16.6	76.5
86925	2024-09-30T19:31:58	16.6	76.5
86926	2024-09-30T19:41:58	16.6	76.5
86927	2024-09-30T19:51:58	16.5	76
86928	2024-09-30T20:01:58	16.6	75.5
86929	2024-09-30T20:11:58	16.5	77
86930	2024-09-30T20:21:58	16.6	75.5
86931	2024-09-30T20:31:58	16.6	75
86932	2024-09-30T20:41:58	16.9	73
86933	2024-09-30T20:51:58	17.1	72
86934	2024-09-30T21:11:58	16.9	73.5
86935	2024-09-30T21:21:58	16.8	74
86936	2024-09-30T21:31:58	16.9	74
86937	2024-09-30T21:41:58	16.9	72.5
86938	2024-09-30T21:51:58	17.1	71.5
86939	2024-09-30T22:01:58	17.1	72
86940	2024-09-30T22:11:58	17.1	72
86941	2024-09-30T22:21:58	17.1	72.5
86942	2024-09-30T22:31:58	17.1	73.5
86943	2024-09-30T22:41:58	17	74
86944	2024-09-30T22:51:58	16.8	75
86945	2024-09-30T23:33:00	16.7	75.5
86946	2024-09-30T23:33:01	16.6	76
86947	2024-09-30T23:33:01	16.8	75.5
86948	2024-09-30T23:33:01	16.7	76
86949	2024-09-30T23:41:58	16.6	76
86950	2024-09-30T23:51:58	16.5	75.5
86951	2024-10-01T00:01:58	16.5	75.5
86952	2024-10-01T00:11:58	16.4	75.5
86953	2024-10-01T00:21:58	16.3	76.5
86954	2024-10-01T00:31:58	16.3	76.5
86955	2024-10-01T00:41:58	16.2	77
86956	2024-10-01T00:51:58	16.1	77.5
86957	2024-10-01T01:01:58	16.1	78
86958	2024-10-01T01:11:58	16	78.5
86959	2024-10-01T01:21:58	16	78.5
86960	2024-10-01T01:31:58	16	78.5
86961	2024-10-01T01:41:58	16	78.5
86962	2024-10-01T01:51:58	15.9	79
86963	2024-10-01T02:01:58	15.9	79
86964	2024-10-01T02:11:58	15.7	79.5
86965	2024-10-01T02:21:58	15.7	79.5
86966	2024-10-01T02:31:58	15.7	80
86967	2024-10-01T02:41:58	15.8	79.5
86968	2024-10-01T02:51:58	15.6	79.5
86969	2024-10-01T03:01:58	15.7	79.5
86970	2024-10-01T03:11:58	15.7	79.5
86971	2024-10-01T03:21:58	15.6	79.5
86972	2024-10-01T03:31:58	15.5	79
86973	2024-10-01T03:41:58	15.4	79.5
86974	2024-10-01T03:51:58	15.3	80
86975	2024-10-01T04:01:58	15.4	80
86976	2024-10-01T04:11:58	15.4	80
86977	2024-10-01T04:31:58	15.2	80
86978	2024-10-01T04:41:58	15.2	81
86979	2024-10-01T04:51:58	14.8	87
86980	2024-10-01T05:01:58	13.8	98
86981	2024-10-01T05:11:57	13.2	100
86982	2024-10-01T05:21:57	13.3	100
86983	2024-10-01T05:31:57	13.1	100
86984	2024-10-01T05:41:57	13.1	100
86985	2024-10-01T05:51:57	13.3	100
86986	2024-10-01T06:01:57	13.3	100
86987	2024-10-01T06:11:57	13.5	100
86988	2024-10-01T06:21:57	13.4	100
86989	2024-10-01T06:31:57	13.5	100
86990	2024-10-01T06:41:57	13.7	100
86991	2024-10-01T07:01:57	13.7	100
86992	2024-10-01T07:11:57	13.6	100
86993	2024-10-01T07:21:57	13.7	100
86994	2024-10-01T07:31:57	13.8	100
86995	2024-10-01T07:41:57	13.8	100
86996	2024-10-01T07:51:57	13.9	100
86997	2024-10-01T08:01:57	13.9	100
86998	2024-10-01T08:11:57	14	100
86999	2024-10-01T08:21:57	14	100
87000	2024-10-01T08:31:57	14	100
87001	2024-10-01T08:41:57	14.2	100
87002	2024-10-01T08:51:57	14.2	100
87003	2024-10-01T09:01:57	14.4	100
87004	2024-10-01T09:11:57	14.7	100
87005	2024-10-01T09:21:57	14.9	100
87006	2024-10-01T09:31:57	15.2	100
87007	2024-10-01T09:41:57	15.3	100
87008	2024-10-01T09:51:57	15.4	100
87009	2024-10-01T10:01:57	15.5	100
87010	2024-10-01T10:11:57	15.7	100
87011	2024-10-01T10:21:57	16.2	100
87012	2024-10-01T10:31:57	16.3	100
87013	2024-10-01T10:41:57	16.5	99.5
87014	2024-10-01T10:51:57	16.5	91
87015	2024-10-01T11:01:57	16.8	78
87016	2024-10-01T11:11:57	16.8	74
87017	2024-10-01T11:21:57	17.1	74.5
87018	2024-10-01T11:31:57	17.3	72
87019	2024-10-01T11:41:57	17.4	70.5
87020	2024-10-01T11:51:57	17.6	71
87021	2024-10-01T12:01:57	17.6	68.5
87022	2024-10-01T12:11:57	17.8	67.5
87023	2024-10-01T12:21:57	18.8	64.5
87024	2024-10-01T12:31:57	18.9	65
87025	2024-10-01T12:41:57	19.5	62.5
87026	2024-10-01T12:51:57	19.7	62.5
87027	2024-10-01T13:01:57	19.6	62
87028	2024-10-01T13:11:57	19.6	64
87029	2024-10-01T13:21:57	19.8	62.5
87030	2024-10-01T13:31:57	19.4	64
87031	2024-10-01T13:41:57	19	63.5
87032	2024-10-01T13:51:57	19.1	65
87033	2024-10-01T14:01:57	18.8	64
87034	2024-10-01T14:11:57	18.7	66
87035	2024-10-01T14:21:57	18.6	65
87036	2024-10-01T14:31:57	18.4	65.5
87037	2024-10-01T14:41:57	18.2	67
87038	2024-10-01T14:51:57	18.3	69
87039	2024-10-01T15:01:57	18.1	69
87040	2024-10-01T15:11:57	18	69
87041	2024-10-01T15:21:57	18.1	73.5
87042	2024-10-01T15:31:57	18.1	75
87043	2024-10-01T15:41:57	18.1	77.5
87044	2024-10-01T15:51:57	18	80
87045	2024-10-01T16:01:57	18	81.5
87046	2024-10-01T16:11:57	17.8	81
87047	2024-10-01T16:21:57	17.8	82
87048	2024-10-01T16:31:57	17.6	81
87049	2024-10-01T16:41:57	17.4	84
87050	2024-10-01T16:51:57	17.4	86
87051	2024-10-01T17:01:57	17.4	86
87052	2024-10-01T17:11:57	17.3	87.5
87053	2024-10-01T17:21:57	17.1	87.5
87054	2024-10-01T17:31:56	17.2	87.5
87055	2024-10-01T17:41:56	17.1	84.5
87056	2024-10-01T18:01:56	16.5	85
87057	2024-10-01T18:11:56	15.9	98.5
87058	2024-10-01T18:21:56	16.1	100
87059	2024-10-01T18:31:56	16.2	100
87060	2024-10-01T18:41:56	15.5	100
87061	2024-10-01T18:51:56	15.6	100
87062	2024-10-01T19:01:56	15.6	100
87063	2024-10-01T19:11:56	15.5	100
87064	2024-10-01T19:21:56	15.4	100
87065	2024-10-01T19:31:56	15.3	100
87066	2024-10-01T19:41:56	15.3	100
87067	2024-10-01T19:51:56	15.3	100
87068	2024-10-01T20:01:56	15.2	100
87069	2024-10-01T20:11:56	15.2	100
87070	2024-10-01T20:21:56	15.1	100
87071	2024-10-01T20:31:56	15.1	100
87072	2024-10-01T20:41:56	15	100
87073	2024-10-01T20:51:56	14.9	100
87074	2024-10-01T21:01:56	14.9	100
87075	2024-10-01T21:11:56	14.8	100
87076	2024-10-01T21:21:56	14.9	100
87077	2024-10-01T21:31:56	14.8	100
87078	2024-10-01T21:41:56	14.8	100
87079	2024-10-01T21:51:56	14.6	97.5
87080	2024-10-01T22:01:56	14.6	98.5
87081	2024-10-01T22:11:56	14.6	99.5
87082	2024-10-01T22:21:56	14.5	100
87083	2024-10-01T22:31:56	14.4	99
87084	2024-10-01T22:41:56	14.3	99
87085	2024-10-01T22:51:56	14.2	100
87086	2024-10-01T23:01:56	14.2	99
87087	2024-10-01T23:31:52	14.2	98.5
87088	2024-10-01T23:31:52	14	99
87089	2024-10-01T23:31:56	14	99.5
87090	2024-10-01T23:41:56	14	100
87091	2024-10-01T23:51:56	14.1	99.5
87092	2024-10-02T00:01:56	14	100
87093	2024-10-02T00:11:56	14	100
87094	2024-10-02T00:21:56	14	100
87095	2024-10-02T00:31:56	13.8	99
87096	2024-10-02T00:41:56	13.9	100
87097	2024-10-02T00:51:56	13.8	99.5
87098	2024-10-02T01:01:56	13.4	100
87099	2024-10-02T01:11:56	13.4	99
87100	2024-10-02T01:21:56	13.2	100
87101	2024-10-02T01:31:56	13.1	100
87102	2024-10-02T01:41:56	13.2	100
87103	2024-10-02T01:51:56	13.2	100
87104	2024-10-02T02:01:56	13.3	100
87105	2024-10-02T02:11:56	13.2	100
87106	2024-10-02T02:21:56	13.2	100
87107	2024-10-02T02:31:56	13.2	100
87108	2024-10-02T02:41:56	13.2	100
87109	2024-10-02T02:51:56	13.2	100
87110	2024-10-02T03:11:56	13	98
87111	2024-10-02T03:21:56	12.9	99.5
87112	2024-10-02T03:31:56	12.9	99.5
87113	2024-10-02T03:41:56	12.7	97.5
87114	2024-10-02T03:51:56	12.5	98.5
87115	2024-10-02T04:01:56	12.5	100
87116	2024-10-02T04:11:56	12.4	100
87117	2024-10-02T04:21:56	12.4	100
87118	2024-10-02T04:31:56	12.1	100
87119	2024-10-02T04:41:56	12.1	100
87120	2024-10-02T04:51:56	11.9	100
87121	2024-10-02T05:01:56	12.1	100
87122	2024-10-02T05:11:56	11.8	100
87123	2024-10-02T05:21:56	12	100
87124	2024-10-02T05:31:56	11.8	100
87125	2024-10-02T05:41:56	11.8	100
87126	2024-10-02T05:51:56	11.8	100
87127	2024-10-02T06:01:56	11.8	100
87128	2024-10-02T06:11:56	11.9	100
87129	2024-10-02T06:21:56	12.2	100
87130	2024-10-02T06:31:56	12.2	100
87131	2024-10-02T06:41:56	12.4	100
87132	2024-10-02T06:51:55	12.3	100
87133	2024-10-02T07:01:55	12.4	100
87134	2024-10-02T07:11:55	12.5	100
87135	2024-10-02T07:21:55	12.5	100
87136	2024-10-02T07:31:55	12.4	100
87137	2024-10-02T07:41:55	12.4	98.5
87138	2024-10-02T07:51:55	12.3	98.5
87139	2024-10-02T08:01:55	12.1	98.5
87140	2024-10-02T08:11:55	11.9	100
87141	2024-10-02T08:21:55	12	100
87142	2024-10-02T08:31:55	11.8	100
87143	2024-10-02T08:41:55	11.8	100
87144	2024-10-02T08:51:55	11.8	100
87145	2024-10-02T09:01:55	11.8	100
87146	2024-10-02T09:11:55	11.7	100
87147	2024-10-02T09:21:55	11.8	100
87148	2024-10-02T09:31:55	11.6	100
87149	2024-10-02T09:41:55	11.4	100
87150	2024-10-02T09:51:55	11.6	100
87151	2024-10-02T10:01:55	11.3	100
87152	2024-10-02T10:11:55	11.2	100
87153	2024-10-02T10:21:55	11.6	100
87154	2024-10-02T10:31:55	11.8	100
87155	2024-10-02T10:41:55	11.6	100
87156	2024-10-02T10:51:55	11.9	100
87157	2024-10-02T11:01:55	12.4	100
87158	2024-10-02T11:11:55	12.7	100
87159	2024-10-02T11:21:55	12.8	100
87160	2024-10-02T11:31:55	13	100
87161	2024-10-02T11:41:55	12.9	100
87162	2024-10-02T11:51:55	13.3	100
87163	2024-10-02T12:01:55	13.6	100
87164	2024-10-02T12:11:55	15.7	100
87165	2024-10-02T12:21:55	17.9	98.5
87166	2024-10-02T12:31:55	17.8	87
87167	2024-10-02T12:41:55	16.6	86.5
87168	2024-10-02T12:51:55	16.8	79.5
87169	2024-10-02T13:01:55	17.7	81
87170	2024-10-02T13:11:55	17.7	77
87171	2024-10-02T13:21:55	17.2	72
87172	2024-10-02T13:31:55	17.1	71.5
87173	2024-10-02T13:41:55	17.1	71.5
87174	2024-10-02T13:51:55	17.4	71
87175	2024-10-02T14:01:55	18.1	67.5
87176	2024-10-02T14:11:55	19.2	65.5
87177	2024-10-02T14:21:55	19.7	64
87178	2024-10-02T14:31:55	20	61
87179	2024-10-02T14:41:55	18.9	65
87180	2024-10-02T14:51:55	17.9	66.5
87181	2024-10-02T15:01:55	17.5	68.5
87182	2024-10-02T15:11:55	17.5	70
87183	2024-10-02T15:21:55	18	67.5
87184	2024-10-02T15:31:55	17.8	69.5
87185	2024-10-02T15:41:55	18.9	64.5
87186	2024-10-02T15:51:55	18.2	66.5
87187	2024-10-02T16:01:55	17.8	69
87188	2024-10-02T16:11:55	17.1	70.5
87189	2024-10-02T16:21:55	16.9	75.5
87190	2024-10-02T16:31:55	16.6	78
87191	2024-10-02T16:41:55	16.2	84
87192	2024-10-02T16:51:55	15.9	87.5
87193	2024-10-02T17:01:55	15.6	87.5
87194	2024-10-02T17:11:55	15.3	89
87195	2024-10-02T17:21:55	15.2	88.5
87196	2024-10-02T17:31:55	15.1	89.5
87197	2024-10-02T17:41:55	14.8	83.5
87198	2024-10-02T17:51:55	14.6	90.5
87199	2024-10-02T18:01:55	14.4	92.5
87200	2024-10-02T18:11:55	14.2	92
87201	2024-10-02T18:21:55	14.1	87
87202	2024-10-02T18:31:55	13.8	92
87203	2024-10-02T18:41:55	13.7	91.5
87204	2024-10-02T18:51:55	13.5	93.5
87205	2024-10-02T19:01:55	13.3	93.5
87206	2024-10-02T19:11:55	13.1	90
87207	2024-10-02T19:21:55	12.9	92
87208	2024-10-02T19:31:55	12.8	94
87209	2024-10-02T19:41:55	12.6	92
87210	2024-10-02T19:51:55	12.4	95
87211	2024-10-02T20:01:55	12.3	94.5
87212	2024-10-02T20:11:54	12.2	95
87213	2024-10-02T20:21:54	12	92
87214	2024-10-02T20:31:54	11.9	93.5
87215	2024-10-02T20:41:54	11.7	95
87216	2024-10-02T20:51:54	11.6	95.5
87217	2024-10-02T21:01:54	11.5	97
87218	2024-10-02T21:11:54	11.4	96.5
87219	2024-10-02T21:21:54	11.2	95
87220	2024-10-02T21:31:54	11.2	96
87221	2024-10-02T21:41:54	11	96
87222	2024-10-02T21:51:54	10.8	93.5
87223	2024-10-02T22:01:54	10.8	95.5
87224	2024-10-02T22:11:54	10.7	94
87225	2024-10-02T22:21:54	10.7	94.5
87226	2024-10-02T22:31:54	10.6	95.5
87227	2024-10-02T22:41:54	10.4	95.5
87228	2024-10-02T22:51:54	10.3	96
87229	2024-10-02T23:31:47	10.1	96
87230	2024-10-02T23:31:47	10.1	95.5
87231	2024-10-02T23:31:47	10.1	94.5
87232	2024-10-02T23:32:00	10	96
87233	2024-10-02T23:41:54	10	94.5
87234	2024-10-02T23:51:54	9.8	95
87235	2024-10-03T00:01:54	9.7	95
87236	2024-10-03T00:11:54	9.7	94
87237	2024-10-03T00:21:54	9.5	95
87238	2024-10-03T00:31:54	9.5	94
87239	2024-10-03T00:41:54	9.4	95
87240	2024-10-03T00:51:54	9.4	95
87241	2024-10-03T01:01:54	9.3	94
87242	2024-10-03T01:11:54	9.3	95.5
87243	2024-10-03T01:21:54	9.2	94.5
87244	2024-10-03T01:31:54	9	95.5
87245	2024-10-03T01:41:54	9	95.5
87246	2024-10-03T01:51:54	9.2	94
87247	2024-10-03T02:01:54	9.4	94.5
87248	2024-10-03T02:11:54	9.5	94
87249	2024-10-03T02:21:54	9.5	94
87250	2024-10-03T02:31:54	9.6	94
87251	2024-10-03T02:41:54	9.6	94.5
87252	2024-10-03T02:51:54	9.8	94
87253	2024-10-03T03:01:54	9.7	94
87254	2024-10-03T03:11:54	9.7	94.5
87255	2024-10-03T03:21:54	9.8	94.5
87256	2024-10-03T03:31:54	9.8	95
87257	2024-10-03T03:41:54	9.8	95
87258	2024-10-03T03:51:54	9.9	95.5
87259	2024-10-03T04:01:54	9.9	96
87260	2024-10-03T04:11:54	9.9	96.5
87261	2024-10-03T04:21:54	10.2	96.5
87262	2024-10-03T04:31:54	10.2	97
87263	2024-10-03T04:41:54	10.2	97.5
87264	2024-10-03T04:51:54	10.3	97.5
87265	2024-10-03T05:01:54	10.3	97.5
87266	2024-10-03T05:11:54	10.4	97.5
87267	2024-10-03T05:21:54	10.4	97.5
87268	2024-10-03T05:31:54	10.5	97.5
87269	2024-10-03T05:41:54	10.4	97.5
87270	2024-10-03T05:51:54	10.5	97.5
87271	2024-10-03T06:01:54	10.5	97.5
87272	2024-10-03T06:11:54	10.5	97.5
87273	2024-10-03T06:21:54	10.6	97.5
87274	2024-10-03T06:31:54	10.7	97.5
87275	2024-10-03T06:41:54	10.7	97.5
87276	2024-10-03T06:51:54	10.7	97
87277	2024-10-03T07:01:54	10.8	97
87278	2024-10-03T07:11:54	10.8	97
87279	2024-10-03T07:21:54	10.8	97
87280	2024-10-03T07:31:54	10.9	96.5
87281	2024-10-03T07:41:54	10.9	95.5
87282	2024-10-03T07:51:54	11.1	94.5
87283	2024-10-03T08:01:54	10.9	94
87284	2024-10-03T08:11:54	11	93.5
87285	2024-10-03T08:21:54	11	93
87286	2024-10-03T08:31:54	11.1	94
87287	2024-10-03T08:41:54	11.1	93.5
87288	2024-10-03T08:51:54	11.1	93
87289	2024-10-03T09:01:54	11.2	92
87290	2024-10-03T09:11:54	11.3	91.5
87291	2024-10-03T09:21:54	11.4	92
87292	2024-10-03T09:31:54	11.7	92.5
87293	2024-10-03T09:41:54	11.6	91.5
87294	2024-10-03T09:51:54	11.6	92
87295	2024-10-03T10:01:54	11.7	92
87296	2024-10-03T10:11:54	11.8	91
87297	2024-10-03T10:21:54	11.9	90.5
87298	2024-10-03T10:31:54	12	89.5
87299	2024-10-03T10:41:54	11.9	88
87300	2024-10-03T10:51:54	12	89
87301	2024-10-03T11:01:54	12	90
87302	2024-10-03T11:11:54	12.2	90.5
87303	2024-10-03T11:21:54	12.3	89
87304	2024-10-03T11:31:54	12.4	88
87305	2024-10-03T11:41:54	12.6	86
87306	2024-10-03T11:51:54	12.9	85
87307	2024-10-03T12:01:54	13	84
87308	2024-10-03T12:11:54	12.8	84
87309	2024-10-03T12:21:54	12.7	86
87310	2024-10-03T12:31:53	12.7	86.5
87311	2024-10-03T12:51:53	13.1	87
87312	2024-10-03T13:01:53	13	85
87313	2024-10-03T13:11:53	13	85
87314	2024-10-03T13:21:53	13.1	84.5
87315	2024-10-03T13:31:53	13.3	84
87316	2024-10-03T13:41:53	13.4	83
87317	2024-10-03T13:51:53	13.5	83.5
87318	2024-10-03T14:01:53	13.7	84
87319	2024-10-03T14:11:53	14	83
87320	2024-10-03T14:21:53	14.3	83
87321	2024-10-03T14:31:53	13.9	85.5
87322	2024-10-03T14:41:53	13	90
87323	2024-10-03T14:51:53	12.9	93.5
87324	2024-10-03T15:01:53	13.3	95
87325	2024-10-03T15:11:53	13.6	94
87326	2024-10-03T15:21:53	14	91.5
87327	2024-10-03T15:31:53	14	92
87328	2024-10-03T15:41:53	14	92.5
87329	2024-10-03T15:51:53	16	89
87330	2024-10-03T16:01:53	16.5	82.5
87331	2024-10-03T16:11:53	15.6	85
87332	2024-10-03T16:21:53	14.9	85
87333	2024-10-03T16:31:53	14.2	83
87334	2024-10-03T16:41:53	13.7	84
87335	2024-10-03T16:51:53	13.3	88
87336	2024-10-03T17:01:53	13	89
87337	2024-10-03T17:11:53	12.9	90
87338	2024-10-03T17:21:53	12.8	90
87339	2024-10-03T17:31:53	12.6	90.5
87340	2024-10-03T17:41:53	12.6	91
87341	2024-10-03T17:51:53	12.5	91.5
87342	2024-10-03T18:01:53	12.5	91.5
87343	2024-10-03T18:11:53	12.4	92
87344	2024-10-03T18:21:53	12.5	92
87345	2024-10-03T18:31:53	12.4	92.5
87346	2024-10-03T18:41:53	12.4	92.5
87347	2024-10-03T18:51:53	12.3	92.5
87348	2024-10-03T19:01:53	12.3	92.5
87349	2024-10-03T19:11:53	12.2	92.5
87350	2024-10-03T19:21:53	12.3	92.5
87351	2024-10-03T19:31:53	12.1	93
87352	2024-10-03T19:41:53	12.1	92
87353	2024-10-03T19:51:53	12.1	92
87354	2024-10-03T20:01:53	12	92.5
87355	2024-10-03T20:11:53	11.9	92.5
87356	2024-10-03T20:21:53	11.9	92.5
87357	2024-10-03T20:31:53	11.9	93.5
87358	2024-10-03T20:41:53	11.8	93
87359	2024-10-03T20:51:53	11.8	93.5
87360	2024-10-03T21:01:53	11.8	93
87361	2024-10-03T21:11:53	11.7	93
87362	2024-10-03T21:21:53	11.7	93
87363	2024-10-03T21:31:53	11.7	94
87364	2024-10-03T21:41:53	11.6	93.5
87365	2024-10-03T21:51:53	11.5	94
87366	2024-10-03T22:01:53	11.6	93.5
87367	2024-10-03T22:11:53	11.6	93.5
87368	2024-10-03T22:21:53	11.5	93
87369	2024-10-03T22:31:53	11.5	92.5
87370	2024-10-03T22:41:53	11.4	92.5
87371	2024-10-03T22:51:53	11.4	92.5
87372	2024-10-03T23:01:53	11.3	92.5
87373	2024-10-03T23:30:55	11.3	93.5
87374	2024-10-03T23:30:55	11.3	92.5
87375	2024-10-03T23:31:56	11.3	93.5
87376	2024-10-03T23:41:53	11.2	93
87377	2024-10-03T23:51:53	11.2	92.5
87378	2024-10-04T00:01:53	11.2	92.5
87379	2024-10-04T00:11:53	11.2	91.5
87380	2024-10-04T00:21:53	11.2	92
87381	2024-10-04T00:31:53	11.1	91.5
87382	2024-10-04T00:41:53	11.2	92.5
87383	2024-10-04T00:51:53	11.1	92.5
87384	2024-10-04T01:01:53	11.1	91.5
87385	2024-10-04T01:11:53	11	91.5
87386	2024-10-04T01:21:53	11.1	90.5
87387	2024-10-04T01:31:53	11	90.5
87388	2024-10-04T01:41:53	11	91
87389	2024-10-04T01:51:53	11	91
87390	2024-10-04T02:01:53	11	91
87391	2024-10-04T02:11:53	11	91.5
87392	2024-10-04T02:21:53	11	92
87393	2024-10-04T02:31:53	10.8	91
87394	2024-10-04T02:41:53	10.8	91
87395	2024-10-04T02:51:53	10.8	91.5
87396	2024-10-04T03:01:53	10.9	92
87397	2024-10-04T03:11:52	10.9	92
87398	2024-10-04T03:21:52	10.9	92
87399	2024-10-04T03:31:52	10.9	93
87400	2024-10-04T03:41:52	10.9	92.5
87401	2024-10-04T03:51:52	10.8	92
87402	2024-10-04T04:01:52	10.8	91.5
87403	2024-10-04T04:11:52	10.6	92
87404	2024-10-04T04:21:52	10.7	92.5
87405	2024-10-04T04:31:52	10.7	93
87406	2024-10-04T04:41:52	10.7	93
87407	2024-10-04T04:51:52	10.6	93.5
87408	2024-10-04T05:01:52	10.7	93.5
87409	2024-10-04T05:11:52	10.6	93
87410	2024-10-04T05:21:52	10.6	93.5
87411	2024-10-04T05:31:52	10.7	93.5
87412	2024-10-04T05:41:52	10.7	94
87413	2024-10-04T05:51:52	10.7	93.5
87414	2024-10-04T06:01:52	10.8	93.5
87415	2024-10-04T06:11:52	10.6	94
87416	2024-10-04T06:21:52	10.7	94
87417	2024-10-04T06:31:52	10.7	94
87418	2024-10-04T06:41:52	10.7	94
87419	2024-10-04T06:51:52	10.8	94
87420	2024-10-04T07:01:52	10.8	94
87421	2024-10-04T07:11:52	10.9	94
87422	2024-10-04T07:21:52	11	94
87423	2024-10-04T07:31:52	11	93.5
87424	2024-10-04T07:41:52	11.2	93.5
87425	2024-10-04T07:51:52	11.1	93.5
87426	2024-10-04T08:01:52	11.3	93.5
87427	2024-10-04T08:11:52	11.5	93.5
87428	2024-10-04T08:21:52	11.9	92.5
87429	2024-10-04T08:31:52	11.9	92
87430	2024-10-04T08:41:52	12	91.5
87431	2024-10-04T08:51:52	12.1	90.5
87432	2024-10-04T09:01:52	12.3	90
87433	2024-10-04T09:11:52	12.3	89.5
87434	2024-10-04T09:21:52	12.5	89.5
87435	2024-10-04T09:31:52	12.6	89.5
87436	2024-10-04T09:41:52	12.8	87
87437	2024-10-04T09:51:52	12.9	87.5
87438	2024-10-04T10:01:52	13.5	84.5
87439	2024-10-04T10:11:52	13.1	84
87440	2024-10-04T10:21:52	13.3	84.5
87441	2024-10-04T10:31:52	13.3	85
87442	2024-10-04T10:41:52	13.3	84.5
87443	2024-10-04T10:51:52	13.1	86
87444	2024-10-04T11:01:52	13.2	85
87445	2024-10-04T11:11:52	13.3	84.5
87446	2024-10-04T11:21:52	13.4	84.5
87447	2024-10-04T11:31:52	13.4	82.5
87448	2024-10-04T11:41:52	13.6	81
87449	2024-10-04T11:51:52	14.1	79.5
87450	2024-10-04T12:01:52	15.5	78.5
87451	2024-10-04T12:11:52	16.4	67.5
87452	2024-10-04T12:21:52	18.7	65
87453	2024-10-04T12:31:52	16.8	68
87454	2024-10-04T12:41:52	16	71.5
87455	2024-10-04T12:51:52	16	72
87456	2024-10-04T13:01:52	15.6	73.5
87457	2024-10-04T13:11:52	15.4	77
87458	2024-10-04T13:21:52	15.3	74.5
87459	2024-10-04T13:31:52	15.3	75.5
87460	2024-10-04T13:41:52	14.6	85
87461	2024-10-04T13:51:52	14.4	87
87462	2024-10-04T14:01:52	14.8	85
87463	2024-10-04T14:11:52	16.9	85
87464	2024-10-04T14:21:52	19.6	71
87465	2024-10-04T14:31:52	18.1	73
87466	2024-10-04T14:41:52	17.4	75
87467	2024-10-04T14:51:52	16.6	77
87468	2024-10-04T15:01:52	16.2	78.5
87469	2024-10-04T15:11:52	15.9	79
87470	2024-10-04T15:21:52	15.5	81.5
87471	2024-10-04T15:31:52	15.4	83
87472	2024-10-04T15:41:52	15.2	82
87473	2024-10-04T15:51:52	15	83
87474	2024-10-04T16:01:52	14.9	82
87475	2024-10-04T16:11:52	14.8	82.5
87476	2024-10-04T16:21:52	14.7	84.5
87477	2024-10-04T16:31:52	14.4	82.5
87478	2024-10-04T16:41:52	14.4	83.5
87479	2024-10-04T16:51:52	14.1	84
87480	2024-10-04T17:01:52	14.1	85
87481	2024-10-04T17:11:52	13.6	90.5
87482	2024-10-04T17:21:52	13.5	91
87483	2024-10-04T17:31:51	13.5	90
87484	2024-10-04T17:41:51	13.5	90
87485	2024-10-04T17:51:51	13.5	89.5
87486	2024-10-04T18:01:51	13.5	91
87487	2024-10-04T18:11:51	13.4	90.5
87488	2024-10-04T18:21:51	13.3	91
87489	2024-10-04T18:31:51	13.3	91.5
87490	2024-10-04T18:41:51	13.3	91
87491	2024-10-04T18:51:51	13.2	91.5
87492	2024-10-04T19:01:51	13.2	91.5
87493	2024-10-04T19:11:51	13	90.5
87494	2024-10-04T19:21:51	12.9	93
87495	2024-10-04T19:31:51	12.8	92.5
87496	2024-10-04T19:41:51	12.8	93
87497	2024-10-04T19:51:51	12.8	93
87498	2024-10-04T20:01:51	12.8	93.5
87499	2024-10-04T20:11:51	12.8	94
87500	2024-10-04T20:21:51	12.7	93.5
87501	2024-10-04T20:31:51	12.7	93.5
87502	2024-10-04T20:41:51	12.6	94
87503	2024-10-04T20:51:51	12.6	93.5
87504	2024-10-04T21:01:51	12.5	94
87505	2024-10-04T21:11:51	12.3	94
87506	2024-10-04T21:21:51	12	92
87507	2024-10-04T21:31:51	12	94
87508	2024-10-04T21:41:51	12	94
87509	2024-10-04T21:51:51	12	94
87510	2024-10-04T22:01:51	12	94
87511	2024-10-04T22:11:51	11.8	94.5
87512	2024-10-04T22:21:51	11.8	95
87513	2024-10-04T22:31:51	11.7	95
87514	2024-10-04T22:41:51	11.5	95
87515	2024-10-04T22:51:51	11.4	95
87516	2024-10-04T23:01:51	11.4	95.5
87517	2024-10-04T23:31:26	11.3	95.5
87518	2024-10-04T23:31:26	11.2	94.5
87519	2024-10-04T23:31:55	11.1	95
87520	2024-10-04T23:41:51	11.2	95.5
87521	2024-10-04T23:51:51	11.1	95
87522	2024-10-05T00:01:51	11.1	95.5
87523	2024-10-05T00:11:51	10.9	94
87524	2024-10-05T00:21:51	10.9	95
87525	2024-10-05T00:31:51	10.9	95
87526	2024-10-05T00:41:51	11	95
87527	2024-10-05T00:51:51	11.1	94.5
87528	2024-10-05T01:01:51	11	94.5
87529	2024-10-05T01:11:51	11	94.5
87530	2024-10-05T01:21:51	11	94.5
87531	2024-10-05T01:31:51	10.9	94.5
87532	2024-10-05T01:51:51	10.7	94.5
87533	2024-10-05T02:11:51	10.5	94
87534	2024-10-05T02:21:51	10.4	94.5
87535	2024-10-05T02:31:51	10.3	94.5
87536	2024-10-05T02:41:51	10.1	95
87537	2024-10-05T02:51:51	10.2	95.5
87538	2024-10-05T03:01:51	10.3	95.5
87539	2024-10-05T03:11:51	10.4	95
87540	2024-10-05T03:21:51	10.4	95
87541	2024-10-05T03:31:51	10.4	95
87542	2024-10-05T03:41:51	10.2	95
87543	2024-10-05T03:51:51	10.2	95
87544	2024-10-05T04:01:51	10	95.5
87545	2024-10-05T04:11:51	9.9	95.5
87546	2024-10-05T04:21:51	9.7	95
87547	2024-10-05T04:31:51	9.6	95.5
87548	2024-10-05T04:41:51	9.7	95.5
87549	2024-10-05T04:51:51	9.7	95.5
87550	2024-10-05T05:01:51	9.8	95.5
87551	2024-10-05T05:11:51	9.9	95.5
87552	2024-10-05T05:21:51	9.9	95
87553	2024-10-05T05:31:51	9.8	93.5
87554	2024-10-05T05:41:51	9.7	93.5
87555	2024-10-05T05:51:51	9.8	94.5
87556	2024-10-05T06:01:51	9.8	95
87557	2024-10-05T06:11:51	9.8	95
87558	2024-10-05T06:21:51	9.7	95
87559	2024-10-05T06:31:51	9.7	95
87560	2024-10-05T06:41:51	9.8	95
87561	2024-10-05T06:51:51	10.1	95
87562	2024-10-05T07:01:51	10.3	95
87563	2024-10-05T07:11:51	10.3	94.5
87564	2024-10-05T07:21:51	10.3	94.5
87565	2024-10-05T07:31:51	10.5	93.5
87566	2024-10-05T07:41:51	10.4	94
87567	2024-10-05T07:51:51	10.7	94
87568	2024-10-05T08:01:51	10.8	93
87569	2024-10-05T08:11:51	11.1	93
87570	2024-10-05T08:21:51	11.2	92.5
87571	2024-10-05T08:31:51	11.2	94
87572	2024-10-05T08:41:51	11.2	93.5
87573	2024-10-05T08:51:51	11.2	93
87574	2024-10-05T09:01:51	11.2	92.5
87575	2024-10-05T09:11:50	11.2	92
87576	2024-10-05T09:21:50	11.2	92
87577	2024-10-05T09:31:50	11.4	93
87578	2024-10-05T09:41:51	11.8	91.5
87579	2024-10-05T09:51:50	12.2	90
87580	2024-10-05T10:01:50	12.5	89
87581	2024-10-05T10:11:50	12.6	88
87582	2024-10-05T10:21:50	13	87.5
87583	2024-10-05T10:31:50	13.3	86.5
87584	2024-10-05T10:41:50	13.4	84.5
87585	2024-10-05T10:51:50	13.6	86
87586	2024-10-05T11:01:50	14	83.5
87587	2024-10-05T11:11:50	14.4	81
87588	2024-10-05T11:21:50	14.9	80.5
87589	2024-10-05T11:31:50	15.2	79
87590	2024-10-05T11:41:50	15.2	78.5
87591	2024-10-05T11:51:50	15.2	78
87592	2024-10-05T12:01:50	15.4	77
87593	2024-10-05T12:11:50	18.1	68
87594	2024-10-05T12:21:50	20.6	59
87595	2024-10-05T12:31:50	19.7	59
87596	2024-10-05T12:41:50	18.6	64
87597	2024-10-05T12:51:50	19.8	60.5
87598	2024-10-05T13:01:50	20.7	59.5
87599	2024-10-05T13:11:50	23.4	54
87600	2024-10-05T13:21:50	22.5	50.5
87601	2024-10-05T13:31:50	22	53
87602	2024-10-05T13:41:50	20.6	56.5
87603	2024-10-05T13:51:50	19.6	57.5
87604	2024-10-05T14:01:50	19.2	58
87605	2024-10-05T14:11:50	18.8	59
87606	2024-10-05T14:21:50	18.6	59.5
87607	2024-10-05T14:31:50	18.4	60.5
87608	2024-10-05T14:41:50	18	60
87609	2024-10-05T14:51:50	18	62.5
87610	2024-10-05T15:01:50	17.8	61.5
87611	2024-10-05T15:11:50	17.7	64.5
87612	2024-10-05T15:21:50	17.4	67
87613	2024-10-05T15:31:50	17.3	67
87614	2024-10-05T15:41:50	17.2	69
87615	2024-10-05T15:51:50	16.9	68
87616	2024-10-05T16:01:50	16.7	68
87617	2024-10-05T16:11:50	16.6	67.5
87618	2024-10-05T16:21:50	16.4	69
87619	2024-10-05T16:31:50	16.1	72.5
87620	2024-10-05T16:41:50	16.1	75.5
87621	2024-10-05T16:51:50	16	77.5
87622	2024-10-05T17:01:50	15.8	78.5
87623	2024-10-05T17:11:50	15.6	77
87624	2024-10-05T17:21:50	15.4	78
87625	2024-10-05T17:31:50	15.4	80.5
87626	2024-10-05T17:41:50	15.1	79.5
87627	2024-10-05T17:51:50	14.7	79.5
87628	2024-10-05T18:01:50	14.6	79.5
87629	2024-10-05T18:11:50	14.4	80.5
87630	2024-10-05T18:21:50	14.1	79.5
87631	2024-10-05T18:31:50	14	82
87632	2024-10-05T18:41:50	13.8	81
87633	2024-10-05T18:51:50	13.5	81.5
87634	2024-10-05T19:01:50	13.3	80.5
87635	2024-10-05T19:11:50	13	80.5
87636	2024-10-05T19:21:50	13	83
87637	2024-10-05T19:31:50	12.8	81.5
87638	2024-10-05T19:41:50	12.6	82
87639	2024-10-05T19:51:50	12.4	82
87640	2024-10-05T20:01:50	12.3	82.5
87641	2024-10-05T20:11:50	12.2	82.5
87642	2024-10-05T20:21:50	11.9	83
87643	2024-10-05T20:31:50	11.8	84
87644	2024-10-05T20:51:50	11.5	84.5
87645	2024-10-05T21:01:50	11.5	85
87646	2024-10-05T21:11:50	11.4	86
87647	2024-10-05T21:21:50	11.3	85.5
87648	2024-10-05T21:31:50	11.1	85
87649	2024-10-05T21:41:50	11.1	85.5
87650	2024-10-05T21:51:50	10.8	86
87651	2024-10-05T22:01:50	10.7	86
87652	2024-10-05T22:11:49	10.8	87
87653	2024-10-05T22:21:49	10.5	87
87654	2024-10-05T22:31:49	10.5	87
87655	2024-10-05T22:41:49	10.3	87
87656	2024-10-05T22:51:49	10.1	87
87657	2024-10-05T23:31:19	10.1	87.5
87658	2024-10-05T23:31:20	10.1	87
87659	2024-10-05T23:31:20	10.1	87
87660	2024-10-05T23:31:57	10	87.5
87661	2024-10-05T23:41:49	9.8	87.5
87662	2024-10-05T23:51:49	9.9	88
87663	2024-10-06T00:01:49	9.6	88
87664	2024-10-06T00:11:49	9.6	88.5
87665	2024-10-06T00:21:49	9.6	89
87666	2024-10-06T00:31:49	9.5	89
87667	2024-10-06T00:41:49	9.4	89
87668	2024-10-06T00:51:49	9.2	89
87669	2024-10-06T01:01:49	9.3	89
87670	2024-10-06T01:11:49	9	89
87671	2024-10-06T01:21:49	9	90
87672	2024-10-06T01:31:49	8.9	89.5
87673	2024-10-06T01:41:49	8.8	89
87674	2024-10-06T01:51:49	8.7	90
87675	2024-10-06T02:01:49	8.7	90
87676	2024-10-06T02:11:49	8.6	90
87677	2024-10-06T02:21:49	8.4	88.5
87678	2024-10-06T02:31:49	8.4	90
87679	2024-10-06T02:41:49	8.4	89.5
87680	2024-10-06T02:51:49	8.3	89.5
87681	2024-10-06T03:01:49	8.2	89.5
87682	2024-10-06T03:11:49	8.2	90.5
87683	2024-10-06T03:21:49	8.1	90
87684	2024-10-06T03:31:49	8	90.5
87685	2024-10-06T03:41:49	8	90.5
87686	2024-10-06T03:51:49	8	91
87687	2024-10-06T04:01:49	7.9	90.5
87688	2024-10-06T04:11:49	7.7	90.5
87689	2024-10-06T04:21:49	7.6	91
87690	2024-10-06T04:31:49	7.6	90.5
87691	2024-10-06T04:41:49	7.4	90.5
87692	2024-10-06T04:51:49	7.4	90.5
87693	2024-10-06T05:01:49	7.4	89.5
87694	2024-10-06T05:11:49	7.3	89
87695	2024-10-06T05:21:49	7.1	89.5
87696	2024-10-06T05:31:49	7.1	90.5
87697	2024-10-06T05:41:49	7	90.5
87698	2024-10-06T05:51:49	7	90.5
87699	2024-10-06T06:01:49	6.9	90.5
87700	2024-10-06T06:11:49	6.9	90.5
87701	2024-10-06T06:21:49	7	91
87702	2024-10-06T06:31:49	7.1	91.5
87703	2024-10-06T06:41:49	7.1	90.5
87704	2024-10-06T06:51:49	7.3	91.5
87705	2024-10-06T07:01:49	7.4	92
87706	2024-10-06T07:11:49	7.7	92.5
87707	2024-10-06T07:21:49	8.1	92
87708	2024-10-06T07:31:49	8.3	92.5
87709	2024-10-06T07:41:49	8.6	92.5
87710	2024-10-06T07:51:49	8.7	92
87711	2024-10-06T08:01:49	8.9	91.5
87712	2024-10-06T08:11:49	9.3	91.5
87713	2024-10-06T08:21:49	9.5	90.5
87714	2024-10-06T08:31:49	9.9	91
87715	2024-10-06T08:41:49	10	91
87716	2024-10-06T08:51:49	10.2	90.5
87717	2024-10-06T09:01:49	10.5	90
87718	2024-10-06T09:11:49	10.7	90
87719	2024-10-06T09:21:49	11	89.5
87720	2024-10-06T09:31:49	11.1	89
87721	2024-10-06T09:41:49	11.2	88.5
87722	2024-10-06T09:51:49	11.6	88.5
87723	2024-10-06T10:01:49	11.7	87
87724	2024-10-06T10:11:49	11.9	86
87725	2024-10-06T10:21:49	12.3	85.5
87726	2024-10-06T10:31:49	12.5	86
87727	2024-10-06T10:41:49	12.5	86
87728	2024-10-06T10:51:49	12.9	85.5
87729	2024-10-06T11:01:49	13.3	83.5
87730	2024-10-06T11:11:49	13.2	81
87731	2024-10-06T11:21:49	13.4	82
87732	2024-10-06T11:31:49	13.5	82.5
87733	2024-10-06T11:41:49	13.9	80.5
87734	2024-10-06T11:51:49	14.4	79
87735	2024-10-06T12:01:49	15.2	76.5
87736	2024-10-06T12:11:49	15.6	75
87737	2024-10-06T12:21:49	15.9	73.5
87738	2024-10-06T12:31:49	17	71
87739	2024-10-06T12:41:49	16.8	69
87740	2024-10-06T12:51:49	16.5	69
87741	2024-10-06T13:01:49	16.3	69.5
87742	2024-10-06T13:11:49	16	71.5
87743	2024-10-06T13:21:49	16	74
87744	2024-10-06T13:31:49	15.9	74.5
87745	2024-10-06T13:41:49	16.1	74.5
87746	2024-10-06T13:51:49	16.3	73.5
87747	2024-10-06T14:01:49	16.6	72
87748	2024-10-06T14:11:49	16.6	72
87749	2024-10-06T14:21:49	16.3	72
87750	2024-10-06T14:31:49	16.4	72
87751	2024-10-06T14:41:49	16.7	70.5
87752	2024-10-06T14:51:48	16.8	70.5
87753	2024-10-06T15:01:48	17.2	71
87754	2024-10-06T15:11:48	19.2	66.5
87755	2024-10-06T15:21:48	18.7	65
87756	2024-10-06T15:31:48	17.7	68.5
87757	2024-10-06T15:41:48	17.2	71
87758	2024-10-06T15:51:48	17	73
87759	2024-10-06T16:01:48	16.7	73
87760	2024-10-06T16:11:48	16.6	74
87761	2024-10-06T16:21:48	16.6	75
87762	2024-10-06T16:31:48	16.2	74
87763	2024-10-06T16:41:48	16.1	77
87764	2024-10-06T16:51:48	16	77
87765	2024-10-06T17:01:48	15.8	78.5
87766	2024-10-06T17:11:48	15.6	81.5
87767	2024-10-06T17:21:48	15.5	82.5
87768	2024-10-06T17:31:48	15.4	83
87769	2024-10-06T17:41:48	15.3	83.5
87770	2024-10-06T17:51:48	15.2	84
87771	2024-10-06T18:01:48	15.2	83
87772	2024-10-06T18:11:48	15	84.5
87773	2024-10-06T18:21:48	14.8	84
87774	2024-10-06T18:31:48	14.8	83.5
87775	2024-10-06T18:41:48	14.7	83.5
87776	2024-10-06T18:51:48	14.5	83.5
87777	2024-10-06T19:01:48	14.4	84
87778	2024-10-06T19:11:48	14.3	84
87779	2024-10-06T19:21:48	14.2	85
87780	2024-10-06T19:31:48	14.2	85
87781	2024-10-06T19:41:48	14.1	87
87782	2024-10-06T19:51:48	14.3	87.5
87783	2024-10-06T20:01:48	14	94.5
87784	2024-10-06T20:11:48	14	95.5
87785	2024-10-06T20:21:48	14	95.5
87786	2024-10-06T20:31:48	13.8	95
87787	2024-10-06T20:41:48	13.9	95.5
87788	2024-10-06T20:51:48	13.8	95.5
87789	2024-10-06T21:01:48	13.7	95.5
87790	2024-10-06T21:11:48	13.7	95.5
87791	2024-10-06T21:21:48	13.7	94
87792	2024-10-06T21:31:48	13.7	94.5
87793	2024-10-06T21:41:48	13.7	92.5
87794	2024-10-06T21:51:48	13.8	92.5
87795	2024-10-06T22:01:48	13.8	93
87796	2024-10-06T22:11:48	13.7	92.5
87797	2024-10-06T22:21:48	13.7	92.5
87798	2024-10-06T22:31:48	13.7	93
87799	2024-10-06T22:41:48	13.8	93
87800	2024-10-06T22:51:48	13.7	93
87801	2024-10-06T23:01:48	13.7	93.5
87802	2024-10-06T23:31:51	13.6	93
87803	2024-10-06T23:31:51	13.6	93
87804	2024-10-06T23:31:52	13.7	93.5
87805	2024-10-06T23:41:48	13.6	93.5
87806	2024-10-06T23:51:48	13.6	93.5
87807	2024-10-07T00:01:48	13.6	93.5
87808	2024-10-07T00:11:48	13.6	93.5
87809	2024-10-07T00:21:48	13.7	93.5
87810	2024-10-07T00:31:48	13.6	93.5
87811	2024-10-07T00:41:48	13.6	94.5
87812	2024-10-07T00:51:48	13.6	94.5
87813	2024-10-07T01:01:48	13.6	94.5
87814	2024-10-07T01:11:48	13.6	94.5
87815	2024-10-07T01:21:48	13.7	94.5
87816	2024-10-07T01:31:48	13.6	94.5
87817	2024-10-07T01:41:48	13.6	94.5
87818	2024-10-07T01:51:48	13.4	94.5
87819	2024-10-07T02:01:48	13.2	95
87820	2024-10-07T02:11:48	13.1	95
87821	2024-10-07T02:21:48	13	95
87822	2024-10-07T02:31:48	13	95.5
87823	2024-10-07T02:41:48	13	95
87824	2024-10-07T02:51:48	13	95
87825	2024-10-07T03:01:48	13.1	94.5
87826	2024-10-07T03:11:48	13.1	94.5
87827	2024-10-07T03:21:48	13	94.5
87828	2024-10-07T03:31:48	13.1	94
87829	2024-10-07T03:41:48	13	94.5
87830	2024-10-07T03:51:48	12.9	94.5
87831	2024-10-07T04:01:48	12.7	94.5
87832	2024-10-07T04:11:47	12.7	95
87833	2024-10-07T04:21:47	12.8	95
87834	2024-10-07T04:31:47	12.7	94.5
87835	2024-10-07T04:41:47	12.5	95
87836	2024-10-07T04:51:47	12.4	95
87837	2024-10-07T05:01:47	12.5	94.5
87838	2024-10-07T05:11:47	12.5	94.5
87839	2024-10-07T05:21:47	12.5	94.5
87840	2024-10-07T05:31:47	12.5	95
87841	2024-10-07T05:41:47	12.4	95
87842	2024-10-07T05:51:47	12.5	95
87843	2024-10-07T06:01:47	12.5	94.5
87844	2024-10-07T06:11:47	12.5	95
87845	2024-10-07T06:21:47	12.4	95
87846	2024-10-07T06:31:47	12.5	95.5
87847	2024-10-07T06:41:48	12.6	95
87848	2024-10-07T06:51:47	12.8	95.5
87849	2024-10-07T07:01:47	12.9	95.5
87850	2024-10-07T07:11:47	13	95.5
87851	2024-10-07T07:21:47	13.1	95.5
87852	2024-10-07T07:31:47	13.2	96.5
87853	2024-10-07T07:41:47	13.2	96.5
87854	2024-10-07T07:51:47	13.3	97
87855	2024-10-07T08:01:47	13.4	97
87856	2024-10-07T08:11:47	13.5	97
87857	2024-10-07T08:21:47	13.6	97
87858	2024-10-07T08:31:47	13.7	97.5
87859	2024-10-07T08:41:47	14	97.5
87860	2024-10-07T08:51:47	14.1	98
87861	2024-10-07T09:11:47	14.4	97.5
87862	2024-10-07T09:21:47	14.5	97
87863	2024-10-07T09:31:47	14.7	97
87864	2024-10-07T09:41:47	14.7	97
87865	2024-10-07T09:51:47	14.7	97
87866	2024-10-07T10:01:47	14.7	97.5
87867	2024-10-07T10:11:47	14.7	98
87868	2024-10-07T10:21:47	14.7	98.5
87869	2024-10-07T10:31:47	14.7	98.5
87870	2024-10-07T10:41:47	14.9	99
87871	2024-10-07T10:51:47	15	99
87872	2024-10-07T11:01:47	15.2	99
87873	2024-10-07T11:11:47	15.3	99
87874	2024-10-07T11:21:47	15.6	99
87875	2024-10-07T11:31:47	15.5	99
87876	2024-10-07T11:41:47	15.6	99.5
87877	2024-10-07T11:51:47	16	99.5
87878	2024-10-07T12:01:47	16.3	99
87879	2024-10-07T12:11:47	16.7	98
87880	2024-10-07T12:21:47	17.3	96.5
87881	2024-10-07T12:31:47	17.5	95
87882	2024-10-07T12:41:47	17.6	95
87883	2024-10-07T12:51:47	17.5	94.5
87884	2024-10-07T13:01:47	17.6	94
87885	2024-10-07T13:11:47	17.9	94
87886	2024-10-07T13:21:47	18.1	92.5
87887	2024-10-07T13:31:47	18.2	92
87888	2024-10-07T13:41:47	18.4	92.5
87889	2024-10-07T13:51:47	18	93
87890	2024-10-07T14:01:47	18	93.5
87891	2024-10-07T14:11:47	17.8	94
87892	2024-10-07T14:21:47	17.8	94.5
87893	2024-10-07T14:31:47	17.6	95
87894	2024-10-07T14:41:47	17.5	95.5
87895	2024-10-07T14:51:47	17.4	99
87896	2024-10-07T15:01:47	17.1	100
87897	2024-10-07T15:11:47	17.1	100
87898	2024-10-07T15:21:47	17	100
87899	2024-10-07T15:31:47	17.1	100
87900	2024-10-07T15:41:47	17	100
87901	2024-10-07T15:51:47	17	100
87902	2024-10-07T16:01:47	17	100
87903	2024-10-07T16:11:47	16.8	100
87904	2024-10-07T16:21:47	16.8	100
87905	2024-10-07T16:31:47	16.8	100
87906	2024-10-07T16:41:47	16.7	100
87907	2024-10-07T16:51:46	16.7	100
87908	2024-10-07T17:01:46	16.8	100
87909	2024-10-07T17:11:46	16.6	100
87910	2024-10-07T17:21:46	16.6	100
87911	2024-10-07T17:31:46	16.7	100
87912	2024-10-07T17:41:46	16.6	100
87913	2024-10-07T17:51:46	16.5	100
87914	2024-10-07T18:01:46	16.5	100
87915	2024-10-07T18:11:46	16.5	100
87916	2024-10-07T18:21:46	16.6	100
87917	2024-10-07T18:31:46	16.5	100
87918	2024-10-07T18:41:46	16.6	100
87919	2024-10-07T18:51:46	16.5	100
87920	2024-10-07T19:01:46	16.5	100
87921	2024-10-07T19:11:46	16.4	100
87922	2024-10-07T19:21:46	16.3	100
87923	2024-10-07T19:31:46	16.5	100
87924	2024-10-07T19:41:46	16.4	100
87925	2024-10-07T19:51:46	16.4	100
87926	2024-10-07T20:01:46	16.5	100
87927	2024-10-07T20:11:46	16.4	100
87928	2024-10-07T20:21:46	16.4	100
87929	2024-10-07T20:31:46	16.4	100
87930	2024-10-07T20:41:46	16.4	100
87931	2024-10-07T20:51:46	16.3	100
87932	2024-10-07T21:01:46	16.4	100
87933	2024-10-07T21:11:46	16.4	100
87934	2024-10-07T21:21:46	16.4	100
87935	2024-10-07T21:31:46	16.4	100
87936	2024-10-07T21:41:46	16.4	100
87937	2024-10-07T21:51:46	16.4	100
87938	2024-10-07T22:01:46	16.4	100
87939	2024-10-07T22:11:46	16.3	100
87940	2024-10-07T22:21:46	16.5	100
87941	2024-10-07T22:31:46	16.3	100
87942	2024-10-07T22:41:46	16.3	100
87943	2024-10-07T22:51:46	16.4	100
87944	2024-10-07T23:30:45	16.2	100
87945	2024-10-07T23:30:45	16.2	100
87946	2024-10-07T23:30:45	16.3	100
87947	2024-10-07T23:31:47	16.1	100
87948	2024-10-07T23:41:46	16	96.5
87949	2024-10-07T23:51:46	16	96
87950	2024-10-08T00:01:46	15.9	96
87951	2024-10-08T00:11:46	16	96
87952	2024-10-08T00:21:46	16	96
87953	2024-10-08T00:31:46	15.9	95.5
87954	2024-10-08T00:41:46	15.8	95.5
87955	2024-10-08T00:51:46	15.7	96
87956	2024-10-08T01:01:46	15.7	96
87957	2024-10-08T01:11:46	15.6	96
87958	2024-10-08T01:21:46	15.5	96
87959	2024-10-08T01:31:46	15.5	96
87960	2024-10-08T01:41:46	15.6	96
87961	2024-10-08T01:51:46	15.5	96
87962	2024-10-08T02:01:46	15.3	95.5
87963	2024-10-08T02:11:46	15.3	96
87964	2024-10-08T02:21:46	15.3	96
87965	2024-10-08T02:31:46	15.3	96
87966	2024-10-08T02:41:46	15.2	96
87967	2024-10-08T02:51:46	15	96
87968	2024-10-08T03:01:46	15	96
87969	2024-10-08T03:11:46	14.8	96
87970	2024-10-08T03:21:46	14.9	96
87971	2024-10-08T03:31:46	14.8	96
87972	2024-10-08T03:41:46	14.7	96
87973	2024-10-08T03:51:46	14.7	96
87974	2024-10-08T04:01:46	14.8	96
87975	2024-10-08T04:11:46	14.7	96
87976	2024-10-08T04:21:46	14.6	96
87977	2024-10-08T04:31:46	14.7	96
87978	2024-10-08T04:41:46	14.8	96
87979	2024-10-08T04:51:46	14.8	96
87980	2024-10-08T05:01:46	14.9	96.5
87981	2024-10-08T05:11:45	15	96.5
87982	2024-10-08T05:21:45	15.1	96.5
87983	2024-10-08T05:31:45	15.2	96.5
87984	2024-10-08T05:41:45	15.4	96.5
87985	2024-10-08T05:51:45	15.4	96.5
87986	2024-10-08T06:01:45	15.4	97
87987	2024-10-08T06:11:45	15.4	97
87988	2024-10-08T06:21:45	15.5	99
87989	2024-10-08T06:31:45	15.5	99
87990	2024-10-08T06:41:45	15.6	99
87991	2024-10-08T06:51:45	15.5	99
87992	2024-10-08T07:01:45	15.3	99
87993	2024-10-08T07:11:45	15.3	99
87994	2024-10-08T07:21:45	15.2	99
87995	2024-10-08T07:31:45	15.3	99
87996	2024-10-08T07:41:45	15.3	99
87997	2024-10-08T07:51:45	15.4	99
87998	2024-10-08T08:01:45	15.4	99
87999	2024-10-08T08:11:45	15.6	99
88000	2024-10-08T08:21:45	15.6	99
88001	2024-10-08T08:31:45	15.6	99
88002	2024-10-08T08:41:45	15.6	99
88003	2024-10-08T08:51:45	15.7	99
88004	2024-10-08T09:01:45	15.5	99
88005	2024-10-08T09:11:45	15.6	99
88006	2024-10-08T09:21:45	15.6	99
88007	2024-10-08T09:31:45	15.8	99
88008	2024-10-08T09:41:45	15.8	99
88009	2024-10-08T09:51:45	16	99
88010	2024-10-08T10:01:45	15.9	99
88011	2024-10-08T10:11:45	16	99
88012	2024-10-08T10:21:45	16.1	99
88013	2024-10-08T10:31:45	16.2	99
88014	2024-10-08T10:41:45	16.3	99
88015	2024-10-08T10:51:45	16.3	99
88016	2024-10-08T11:01:45	16.4	99
88017	2024-10-08T11:11:45	16.2	99
88018	2024-10-08T11:21:45	15.9	99
88019	2024-10-08T11:31:45	15.7	99
88020	2024-10-08T11:41:45	15.7	99
88021	2024-10-08T11:51:45	15.5	99
88022	2024-10-08T12:01:45	15.6	99
88023	2024-10-08T12:11:45	15.5	99
88024	2024-10-08T12:21:45	15.4	99
88025	2024-10-08T12:31:45	15.5	99
88026	2024-10-08T12:41:45	15.2	99
88027	2024-10-08T12:51:45	15.1	99
88028	2024-10-08T13:01:45	15.1	99
88029	2024-10-08T13:11:45	15.1	99
88030	2024-10-08T13:21:45	15	99
88031	2024-10-08T13:31:45	15	98.5
88032	2024-10-08T13:41:45	15	98.5
88033	2024-10-08T13:51:45	15	96
88034	2024-10-08T14:01:45	15.1	96.5
88035	2024-10-08T14:11:45	15	96.5
88036	2024-10-08T14:21:45	15	96
88037	2024-10-08T14:31:45	14.9	96
88038	2024-10-08T14:41:45	15	96.5
88039	2024-10-08T14:51:45	14.9	96.5
88040	2024-10-08T15:01:45	15	96.5
88041	2024-10-08T15:11:45	14.9	96.5
88042	2024-10-08T15:21:45	14.9	96
88043	2024-10-08T15:31:45	14.9	96.5
88044	2024-10-08T15:41:45	14.8	96.5
88045	2024-10-08T15:51:45	14.8	96.5
88046	2024-10-08T16:01:45	14.8	96.5
88047	2024-10-08T16:11:45	14.8	96.5
88048	2024-10-08T16:21:45	14.8	96.5
88049	2024-10-08T16:31:45	14.6	96
88050	2024-10-08T16:41:45	14.8	96.5
88051	2024-10-08T16:51:45	14.6	96.5
88052	2024-10-08T17:01:45	14.6	96.5
88053	2024-10-08T17:11:45	14.5	96.5
88054	2024-10-08T17:21:45	14.4	96.5
88055	2024-10-08T17:31:45	14.5	96.5
88056	2024-10-08T17:41:44	14.4	96.5
88057	2024-10-08T17:51:44	14.3	96.5
88058	2024-10-08T18:01:44	14.2	96.5
88059	2024-10-08T18:11:44	14.2	96.5
88060	2024-10-08T18:21:44	14.1	96.5
88061	2024-10-08T18:31:44	14.1	96.5
88062	2024-10-08T18:41:44	14.1	96.5
88063	2024-10-08T18:51:44	14.1	96.5
88064	2024-10-08T19:01:44	14	96.5
88065	2024-10-08T19:11:44	13.9	96.5
88066	2024-10-08T19:21:44	13.8	96.5
88067	2024-10-08T19:31:44	13.8	96.5
88068	2024-10-08T19:41:44	13.7	96.5
88069	2024-10-08T19:51:44	13.7	96.5
88070	2024-10-08T20:01:44	13.7	96.5
88071	2024-10-08T20:11:44	13.5	96.5
88072	2024-10-08T20:21:44	13.5	96
88073	2024-10-08T20:31:44	13.3	96.5
88074	2024-10-08T20:41:44	13.2	96.5
88075	2024-10-08T20:51:44	13.2	96
88076	2024-10-08T21:01:44	13.2	96.5
88077	2024-10-08T21:11:44	13.2	96.5
88078	2024-10-08T21:21:44	13.1	96.5
88079	2024-10-08T21:31:44	13.1	96
88080	2024-10-08T21:41:44	13.1	96.5
88081	2024-10-08T21:51:44	12.9	96.5
88082	2024-10-08T22:01:44	12.9	96.5
88083	2024-10-08T22:11:44	12.7	96
88084	2024-10-08T22:21:44	12.6	96.5
88085	2024-10-08T22:31:44	12.6	96
88086	2024-10-08T22:41:44	12.6	96
88087	2024-10-08T22:51:44	12.4	96.5
88088	2024-10-08T23:31:17	12.3	96
88089	2024-10-08T23:31:17	12.3	96.5
88090	2024-10-08T23:31:17	12.3	96.5
88091	2024-10-08T23:32:24	12.1	96.5
88092	2024-10-08T23:41:44	12.1	96.5
88093	2024-10-08T23:51:44	12	96.5
88094	2024-10-09T00:01:44	11.9	96.5
88095	2024-10-09T00:11:44	11.8	96.5
88096	2024-10-09T00:21:44	11.7	96.5
88097	2024-10-09T00:31:44	11.6	96
88098	2024-10-09T00:41:44	11.5	96.5
88099	2024-10-09T00:51:44	11.4	96.5
88100	2024-10-09T01:01:44	11.3	96.5
88101	2024-10-09T01:11:44	11.4	96.5
88102	2024-10-09T01:21:44	11.4	96.5
88103	2024-10-09T01:31:44	11.4	96.5
88104	2024-10-09T01:41:44	11.4	96.5
88105	2024-10-09T01:51:44	11.5	96.5
88106	2024-10-09T02:01:44	11.5	96.5
88107	2024-10-09T02:11:44	11.6	96.5
88108	2024-10-09T02:21:44	11.6	96.5
88109	2024-10-09T02:31:44	11.6	96.5
88110	2024-10-09T02:41:44	11.4	96.5
88111	2024-10-09T02:51:44	11.3	96.5
88112	2024-10-09T03:01:44	11.2	96.5
88113	2024-10-09T03:11:44	11.1	96.5
88114	2024-10-09T03:21:44	11.2	96
88115	2024-10-09T03:31:44	11.3	96.5
88116	2024-10-09T03:41:44	11.2	96.5
88117	2024-10-09T03:51:44	11.2	96
88118	2024-10-09T04:01:44	11.1	96.5
88119	2024-10-09T04:11:44	10.9	96.5
88120	2024-10-09T04:21:44	11	96.5
88121	2024-10-09T04:31:44	10.8	96.5
88122	2024-10-09T04:41:44	10.8	96.5
88123	2024-10-09T04:51:44	10.7	96.5
88124	2024-10-09T05:01:44	10.6	96.5
88125	2024-10-09T05:11:44	10.5	96
88126	2024-10-09T05:21:44	10.5	96.5
88127	2024-10-09T05:31:44	10.5	96.5
88128	2024-10-09T05:41:44	10.5	96.5
88129	2024-10-09T05:51:44	10.4	96.5
88130	2024-10-09T06:01:44	10.3	96.5
88131	2024-10-09T06:11:44	10.3	96
88132	2024-10-09T06:21:44	10.4	96
88133	2024-10-09T06:31:44	10.5	96
88134	2024-10-09T06:41:44	10.6	96.5
88135	2024-10-09T06:51:44	10.7	96.5
88136	2024-10-09T07:01:44	10.7	96.5
88137	2024-10-09T07:11:44	10.7	96.5
88138	2024-10-09T07:21:44	10.7	96.5
88139	2024-10-09T07:31:44	10.9	96.5
88140	2024-10-09T07:41:44	10.9	96.5
88141	2024-10-09T07:51:44	10.9	96.5
88142	2024-10-09T08:01:44	11.1	96.5
88143	2024-10-09T08:11:44	11.5	96.5
88144	2024-10-09T08:21:44	11.8	96.5
88145	2024-10-09T08:31:44	12.2	96
88146	2024-10-09T08:41:44	12.6	96.5
88147	2024-10-09T08:51:43	12.7	96.5
88148	2024-10-09T09:01:43	13.1	96.5
88149	2024-10-09T09:11:43	13.4	96
88150	2024-10-09T09:21:43	13.7	96.5
88151	2024-10-09T09:31:43	13.7	96.5
88152	2024-10-09T09:41:43	13.8	96.5
88153	2024-10-09T09:51:43	13.9	96
88154	2024-10-09T10:01:43	14.1	96.5
88155	2024-10-09T10:11:43	14.2	96.5
88156	2024-10-09T10:21:43	14.5	96.5
88157	2024-10-09T10:31:43	14.6	96.5
88158	2024-10-09T10:41:43	14.9	96.5
88159	2024-10-09T10:51:43	15	96.5
88160	2024-10-09T11:01:43	15.1	96.5
88161	2024-10-09T11:11:43	15.2	96.5
88162	2024-10-09T11:21:43	15.5	96.5
88163	2024-10-09T11:31:43	15.7	96.5
88164	2024-10-09T11:41:43	16.1	96
88165	2024-10-09T11:51:43	16.4	96.5
88166	2024-10-09T12:01:43	16.4	96
88167	2024-10-09T12:11:43	16.5	96.5
88168	2024-10-09T12:21:43	16.5	96
88169	2024-10-09T12:31:43	16.4	96
88170	2024-10-09T12:41:43	16.7	96
88171	2024-10-09T13:01:43	17.3	96.5
88172	2024-10-09T13:11:43	17.5	96
88173	2024-10-09T13:21:43	17.6	96
88174	2024-10-09T13:31:43	17.1	96.5
88175	2024-10-09T13:41:43	17	96.5
88176	2024-10-09T13:51:43	16.9	96.5
88177	2024-10-09T14:01:43	16.7	96
88178	2024-10-09T14:11:43	16.7	96.5
88179	2024-10-09T14:21:43	16.7	96.5
88180	2024-10-09T14:31:43	16.6	96
88181	2024-10-09T14:41:43	16.8	96.5
88182	2024-10-09T14:51:43	16.8	96
88183	2024-10-09T15:01:43	16.8	96
88184	2024-10-09T15:11:43	16.7	96
88185	2024-10-09T15:21:43	16.6	96.5
88186	2024-10-09T15:31:43	16.6	96.5
88187	2024-10-09T15:41:43	16.5	96.5
88188	2024-10-09T15:51:43	16.4	96.5
88189	2024-10-09T16:01:43	16.4	96.5
88190	2024-10-09T16:11:43	16.2	96.5
88191	2024-10-09T16:21:43	16.1	96.5
88192	2024-10-09T16:31:43	16	96.5
88193	2024-10-09T16:41:43	15.9	96.5
88194	2024-10-09T16:51:43	15.9	96.5
88195	2024-10-09T17:01:43	15.9	96.5
88196	2024-10-09T17:11:43	16	96.5
88197	2024-10-09T17:21:43	16	96.5
88198	2024-10-09T17:31:43	15.9	96
88199	2024-10-09T17:41:43	15.8	96.5
88200	2024-10-09T17:51:43	15.6	96.5
88201	2024-10-09T18:01:43	15.5	96.5
88202	2024-10-09T18:11:43	15.5	96.5
88203	2024-10-09T18:21:43	15.3	96.5
88204	2024-10-09T18:31:43	15.3	96.5
88205	2024-10-09T18:41:43	15.3	96.5
88206	2024-10-09T18:51:43	15.2	96.5
88207	2024-10-09T19:01:43	15.1	96.5
88208	2024-10-09T19:11:43	15	96.5
88209	2024-10-09T19:21:43	14.9	96.5
88210	2024-10-09T19:31:43	15	96.5
88211	2024-10-09T19:41:43	15	96.5
88212	2024-10-09T19:51:43	14.9	96.5
88213	2024-10-09T20:01:43	15	96.5
88214	2024-10-09T20:11:43	15	96.5
88215	2024-10-09T20:21:43	15	96.5
88216	2024-10-09T20:31:43	15	96.5
88217	2024-10-09T20:41:43	15	96.5
88218	2024-10-09T20:51:43	14.9	96.5
88219	2024-10-09T21:01:43	15	96.5
88220	2024-10-09T21:11:42	14.9	96.5
88221	2024-10-09T21:21:42	14.9	96.5
88222	2024-10-09T21:31:42	14.9	96.5
88223	2024-10-09T21:41:42	14.9	96.5
88224	2024-10-09T21:51:42	15	96.5
88225	2024-10-09T22:01:42	15	96.5
88226	2024-10-09T22:11:42	15.2	96.5
88227	2024-10-09T22:21:42	16.5	96.5
88228	2024-10-09T22:31:42	17.1	96.5
88229	2024-10-09T22:42:00	17.7	96.5
88230	2024-10-09T22:51:42	18.5	96.5
88231	2024-10-09T23:31:08	19	96
88232	2024-10-09T23:31:08	19.7	96
88233	2024-10-09T23:31:08	20.2	96.5
88234	2024-10-09T23:31:43	21.1	69.5
88235	2024-10-09T23:51:42	21.4	67
88236	2024-10-10T00:01:42	21.4	66.5
88237	2024-10-10T00:11:42	21.6	65
88238	2024-10-10T00:21:42	21.7	64.5
88239	2024-10-10T00:31:42	21.7	64.5
88240	2024-10-10T00:41:42	21.8	64
88241	2024-10-10T00:51:42	22	64
88242	2024-10-10T01:01:42	21.9	64
88243	2024-10-10T01:11:42	22	64
88244	2024-10-10T01:21:42	21.9	64.5
88245	2024-10-10T01:31:42	21.8	65
88246	2024-10-10T01:41:42	21.3	66
88247	2024-10-10T01:51:42	21.3	66
88248	2024-10-10T02:01:42	21.1	67
88249	2024-10-10T02:11:42	21	66
88250	2024-10-10T02:21:42	21.1	65.5
88251	2024-10-10T02:31:42	20.5	78.5
88252	2024-10-10T02:41:42	17	92.5
88253	2024-10-10T02:51:42	16.4	86
88254	2024-10-10T03:01:42	16	85.5
88255	2024-10-10T03:11:42	15.9	85.5
88256	2024-10-10T03:21:42	15.6	86
88257	2024-10-10T03:31:42	15.5	86.5
88258	2024-10-10T03:41:42	15.3	86.5
88259	2024-10-10T03:51:42	15.2	86
88260	2024-10-10T04:01:42	15	87
88261	2024-10-10T04:11:42	14.9	87
88262	2024-10-10T04:21:42	14.8	86
88263	2024-10-10T04:31:42	14.7	86.5
88264	2024-10-10T04:41:42	14.4	90
88265	2024-10-10T04:51:42	13.8	94.5
88266	2024-10-10T05:01:42	13.9	92.5
88267	2024-10-10T05:11:42	13.9	91
88268	2024-10-10T05:21:42	13.9	91
88269	2024-10-10T05:31:42	14.1	90
88270	2024-10-10T05:41:42	14.1	88.5
88271	2024-10-10T05:51:42	14.2	88
88272	2024-10-10T06:01:42	14.2	87.5
88273	2024-10-10T06:11:42	14.2	87.5
88274	2024-10-10T06:21:42	14.2	87.5
88275	2024-10-10T06:31:42	14.4	87
88276	2024-10-10T06:41:42	14.5	86
88277	2024-10-10T06:51:42	14.6	84.5
88278	2024-10-10T07:01:42	14.6	84.5
88279	2024-10-10T07:11:42	14.7	84.5
88280	2024-10-10T07:21:42	14.8	84.5
88281	2024-10-10T07:31:42	14.8	84
88282	2024-10-10T07:41:42	14.9	83.5
88283	2024-10-10T07:51:42	15.1	83
88284	2024-10-10T08:01:42	15	83
88285	2024-10-10T08:11:42	15	82.5
88286	2024-10-10T08:21:42	15.1	82.5
88287	2024-10-10T08:31:42	15.1	82
88288	2024-10-10T08:41:42	15	82
88289	2024-10-10T08:51:42	15	81.5
88290	2024-10-10T09:01:42	15.1	81.5
88291	2024-10-10T09:11:41	15	81.5
88292	2024-10-10T09:21:42	15.3	81
88293	2024-10-10T09:31:41	15.4	80.5
88294	2024-10-10T09:41:41	15.4	80.5
88295	2024-10-10T09:51:41	15.5	80.5
88296	2024-10-10T10:01:41	15.4	81
88297	2024-10-10T10:11:41	15.2	86.5
88298	2024-10-10T10:21:41	14.3	94
88299	2024-10-10T10:31:41	14	95
88300	2024-10-10T10:41:41	14.2	93.5
88301	2024-10-10T10:51:41	14	99
88302	2024-10-10T11:01:41	13.9	100
88303	2024-10-10T11:11:41	14	100
88304	2024-10-10T11:21:41	14	100
88305	2024-10-10T11:31:41	14.1	100
88306	2024-10-10T11:41:41	13.9	100
88307	2024-10-10T11:51:41	13.6	100
88308	2024-10-10T12:01:41	13.8	100
88309	2024-10-10T12:11:41	14.1	100
88310	2024-10-10T12:21:41	14.1	100
88311	2024-10-10T12:31:41	14.5	100
88312	2024-10-10T12:41:41	14.1	100
88313	2024-10-10T12:52:16	14.2	100
88314	2024-10-10T13:01:41	14.3	100
88315	2024-10-10T13:11:41	14.7	100
88316	2024-10-10T13:21:41	14.7	100
88317	2024-10-10T13:31:41	14.8	100
88318	2024-10-10T13:41:41	14.5	100
88319	2024-10-10T13:51:41	14.6	100
88320	2024-10-10T14:01:41	14.4	100
88321	2024-10-10T14:11:41	14.3	100
88322	2024-10-10T14:21:41	14.5	100
88323	2024-10-10T14:31:41	14.5	100
88324	2024-10-10T14:41:41	14.2	100
88325	2024-10-10T14:51:41	14.1	100
88326	2024-10-10T15:01:41	14	100
88327	2024-10-10T15:11:41	13.8	100
88328	2024-10-10T15:21:41	13	100
88329	2024-10-10T15:31:41	13.1	100
88330	2024-10-10T15:41:41	12.9	100
88331	2024-10-10T15:51:41	12.7	100
88332	2024-10-10T16:01:41	12.9	99
88333	2024-10-10T16:11:41	12.7	98.5
88334	2024-10-10T16:21:41	12.6	97
88335	2024-10-10T16:31:41	12.4	96
88336	2024-10-10T16:41:41	12.4	96
88337	2024-10-10T16:51:41	12.3	96
88338	2024-10-10T17:01:41	12.3	96
88339	2024-10-10T17:11:41	12.2	96
88340	2024-10-10T17:21:41	12.2	96
88341	2024-10-10T17:31:41	12	96
88342	2024-10-10T17:41:41	12	96
88343	2024-10-10T17:51:41	12	96
88344	2024-10-10T18:01:41	12.1	96
88345	2024-10-10T18:11:41	12.1	96
88346	2024-10-10T18:21:41	12.1	96
88347	2024-10-10T18:31:41	12.2	96
88348	2024-10-10T18:41:41	12.2	96
88349	2024-10-10T18:51:41	12.3	96
88350	2024-10-10T19:01:41	12.2	96
88351	2024-10-10T19:11:41	12.3	96
88352	2024-10-10T19:21:41	12.3	96
88353	2024-10-10T19:31:41	12.3	96
88354	2024-10-10T19:41:41	12.3	96
88355	2024-10-10T19:51:41	12.3	96
88356	2024-10-10T20:01:41	12.2	96
88357	2024-10-10T20:11:41	12.3	96
88358	2024-10-10T20:21:41	12.3	96
88359	2024-10-10T20:31:41	12.4	96
88360	2024-10-10T20:41:41	12.2	96
88361	2024-10-10T20:51:41	12.3	96
88362	2024-10-10T21:01:41	12.2	96
88363	2024-10-10T21:11:41	12.2	96
88364	2024-10-10T21:21:41	12.1	96
88365	2024-10-10T21:31:41	12	96
88366	2024-10-10T21:41:41	12	96
88367	2024-10-10T21:51:41	12.1	96
88368	2024-10-10T22:01:41	12.1	96
88369	2024-10-10T22:11:41	12	96
88370	2024-10-10T22:21:41	12.1	96
88371	2024-10-10T22:31:41	12.2	96
88372	2024-10-10T22:41:41	12.2	96
88373	2024-10-10T22:51:41	12.2	96
88374	2024-10-10T23:31:28	12.5	96
88375	2024-10-10T23:31:28	12.4	96
88376	2024-10-10T23:31:29	12.3	96
88377	2024-10-10T23:31:43	12.3	96
88378	2024-10-10T23:41:40	12.5	96
88379	2024-10-10T23:51:40	12.3	96
88380	2024-10-11T00:01:40	12.3	96
88381	2024-10-11T00:11:40	12.4	96
88382	2024-10-11T00:21:40	12.5	96
88383	2024-10-11T00:31:40	12.3	96
88384	2024-10-11T00:41:40	12.3	96
88385	2024-10-11T00:51:40	12.3	96
88386	2024-10-11T01:01:40	12.2	96
88387	2024-10-11T01:11:40	12.3	96
88388	2024-10-11T01:21:40	12.2	96
88389	2024-10-11T01:31:40	12.3	96
88390	2024-10-11T01:41:40	12.1	96
88391	2024-10-11T01:51:40	12.1	96
88392	2024-10-11T02:01:40	12	96
88393	2024-10-11T02:11:40	11.9	96
88394	2024-10-11T02:21:40	12	96
88395	2024-10-11T02:31:40	11.8	96
88396	2024-10-11T02:41:40	11.8	96
88397	2024-10-11T02:51:40	11.6	96
88398	2024-10-11T03:01:40	11.6	96
88399	2024-10-11T03:11:40	11.6	96
88400	2024-10-11T03:21:40	11.6	96
88401	2024-10-11T03:31:40	11.6	96
88402	2024-10-11T03:41:40	11.6	96
88403	2024-10-11T03:51:40	11.6	96
88404	2024-10-11T04:01:40	11.7	96.5
88405	2024-10-11T04:11:40	11.5	96.5
88406	2024-10-11T04:21:40	11.6	96
88407	2024-10-11T04:31:40	11.8	96
88408	2024-10-11T04:41:40	11.8	96
88409	2024-10-11T04:51:40	11.7	96
88410	2024-10-11T05:01:40	11.7	96.5
88411	2024-10-11T05:11:40	11.6	96
88412	2024-10-11T05:21:40	11.6	96
88413	2024-10-11T05:31:40	11.7	96
88414	2024-10-11T05:41:40	11.6	96.5
88415	2024-10-11T05:51:40	11.7	96
88416	2024-10-11T06:01:40	11.6	96.5
88417	2024-10-11T06:11:40	11.6	96.5
88418	2024-10-11T06:21:40	11.6	96.5
88419	2024-10-11T06:31:40	11.6	96
88420	2024-10-11T06:41:40	11.6	96.5
88421	2024-10-11T06:51:40	11.6	96
88422	2024-10-11T07:01:40	11.2	96.5
88423	2024-10-11T07:11:40	11.4	96.5
88424	2024-10-11T07:21:40	11.1	96.5
88425	2024-10-11T07:31:40	11.1	96.5
88426	2024-10-11T07:41:40	11.3	96.5
88427	2024-10-11T07:51:40	11.4	96.5
88428	2024-10-11T08:01:40	11.4	96.5
88429	2024-10-11T08:11:40	11.3	96.5
88430	2024-10-11T08:21:40	11.3	96
88431	2024-10-11T08:31:40	11.7	96.5
88432	2024-10-11T08:41:40	11.8	96
88433	2024-10-11T08:51:40	11.8	96.5
88434	2024-10-11T09:01:40	12.2	96.5
88435	2024-10-11T09:11:40	12.2	96.5
88436	2024-10-11T09:21:40	12.1	96
88437	2024-10-11T09:32:33	12.6	96
88438	2024-10-11T09:41:40	12.8	96
88439	2024-10-11T09:51:40	13.2	96.5
88440	2024-10-11T10:01:40	13.3	96
88441	2024-10-11T10:11:40	13.6	96
88442	2024-10-11T10:21:40	13.6	96.5
88443	2024-10-11T10:31:40	13.8	96.5
88444	2024-10-11T10:41:40	13.7	96.5
88445	2024-10-11T10:51:40	14.1	96.5
88446	2024-10-11T11:01:40	14.1	96
88447	2024-10-11T11:11:40	14.3	96
88448	2024-10-11T11:21:40	14.1	96
88449	2024-10-11T11:31:40	14.4	96
88450	2024-10-11T11:41:40	14.9	96
88451	2024-10-11T11:51:40	15.3	96.5
88452	2024-10-11T12:01:40	15.7	96
88453	2024-10-11T12:11:40	16.4	96
88454	2024-10-11T12:21:40	16.7	96
88455	2024-10-11T12:31:40	16.8	96
88456	2024-10-11T12:41:40	16.5	96
88457	2024-10-11T12:51:40	16.6	96
88458	2024-10-11T13:01:40	17.2	96
88459	2024-10-11T13:11:40	17.9	96
88460	2024-10-11T13:21:39	19.3	96
88461	2024-10-11T13:31:39	20.7	96
88462	2024-10-11T13:41:39	21.7	96
88463	2024-10-11T13:51:39	23.1	96
88464	2024-10-11T14:01:39	23.8	96
88465	2024-10-11T14:11:39	23.1	96
88466	2024-10-11T14:21:39	22.9	96
88467	2024-10-11T14:31:39	23.2	96.5
88468	2024-10-11T14:41:39	23.6	96
88469	2024-10-11T14:51:39	24	96.5
88470	2024-10-11T15:01:39	24.1	96
88471	2024-10-11T15:11:39	24.1	96
88472	2024-10-11T15:21:39	24.5	96
88473	2024-10-11T15:31:39	24.3	96
88474	2024-10-11T15:41:39	23.6	96
88475	2024-10-11T15:51:39	22.4	96
88476	2024-10-11T16:01:39	21.8	96
88477	2024-10-11T16:11:39	20.9	96.5
88478	2024-10-11T16:21:39	20.1	96
88479	2024-10-11T16:31:39	19.6	96.5
88480	2024-10-11T16:41:39	19	96.5
88481	2024-10-11T16:51:39	18.5	96.5
88482	2024-10-11T17:01:39	18.2	96.5
88483	2024-10-11T17:11:39	17.7	96.5
88484	2024-10-11T17:21:39	17.3	96.5
88485	2024-10-11T17:31:39	17.1	99.5
88486	2024-10-11T17:41:39	16.8	99.5
88487	2024-10-11T18:01:39	15.9	99.5
88488	2024-10-11T18:11:39	15.6	99.5
88489	2024-10-11T18:21:39	15	99.5
88490	2024-10-11T18:31:39	14.8	99.5
88491	2024-10-11T18:41:39	14.5	99.5
88492	2024-10-11T18:51:39	14.2	99.5
88493	2024-10-11T19:01:39	14	99.5
88494	2024-10-11T19:11:39	13.6	99.5
88495	2024-10-11T19:21:39	13.6	99
88496	2024-10-11T19:31:39	13.3	96.5
88497	2024-10-11T19:41:39	13.2	96.5
88498	2024-10-11T19:51:39	13	96.5
88499	2024-10-11T20:01:39	12.8	96.5
88500	2024-10-11T20:11:39	12.7	96.5
88501	2024-10-11T20:21:39	12.4	96.5
88502	2024-10-11T20:31:39	12.2	96.5
88503	2024-10-11T20:41:39	12.1	96.5
88504	2024-10-11T20:51:39	11.8	96.5
88505	2024-10-11T21:01:39	11.5	96.5
88506	2024-10-11T21:11:39	11.4	97
88507	2024-10-11T21:21:39	11.2	96.5
88508	2024-10-11T21:31:39	11.1	96.5
88509	2024-10-11T21:41:39	11	96.5
88510	2024-10-11T21:51:39	10.8	96.5
88511	2024-10-11T22:01:39	10.9	97
88512	2024-10-11T22:11:39	10.7	96.5
88513	2024-10-11T22:21:39	10.5	96.5
88514	2024-10-11T22:31:39	10.5	96.5
88515	2024-10-11T22:41:39	10.3	96.5
88516	2024-10-11T22:51:39	10.3	96.5
88517	2024-10-11T23:32:14	10.1	96.5
88518	2024-10-11T23:32:15	9.9	96.5
88519	2024-10-11T23:32:15	10	96.5
88520	2024-10-11T23:32:15	9.7	96.5
88521	2024-10-11T23:41:39	9.4	96.5
88522	2024-10-11T23:51:39	9.5	99.5
88523	2024-10-12T00:01:39	9.3	100
88524	2024-10-12T00:11:39	9.2	99.5
88525	2024-10-12T00:21:39	9.2	98
88526	2024-10-12T00:31:39	9.1	95.5
88527	2024-10-12T00:41:39	9	95
88528	2024-10-12T00:51:39	9	95.5
88529	2024-10-12T01:01:39	8.8	95.5
88530	2024-10-12T01:11:39	8.7	90.5
88531	2024-10-12T01:21:39	8.7	92
88532	2024-10-12T01:31:39	8.6	89.5
88533	2024-10-12T01:41:39	8.5	91
88534	2024-10-12T01:51:39	8.5	92.5
88535	2024-10-12T02:01:39	8.3	91.5
88536	2024-10-12T02:11:39	8.3	90
88537	2024-10-12T02:21:39	8	91
88538	2024-10-12T02:31:39	8	90.5
88539	2024-10-12T02:41:39	7.9	93.5
88540	2024-10-12T02:51:39	7.8	92
88541	2024-10-12T03:01:39	7.7	93
88542	2024-10-12T03:11:39	7.6	93
88543	2024-10-12T03:21:39	7.5	95
88544	2024-10-12T03:31:39	7.4	95.5
88545	2024-10-12T03:41:39	7.3	95.5
88546	2024-10-12T03:51:39	7.3	95.5
88547	2024-10-12T04:01:39	7.1	95
88548	2024-10-12T04:11:38	7.1	91.5
88549	2024-10-12T04:21:39	6.8	91.5
88550	2024-10-12T04:31:38	6.8	91
88551	2024-10-12T04:41:38	6.6	91.5
88552	2024-10-12T04:51:38	6.5	93.5
88553	2024-10-12T05:01:38	6.5	95
88554	2024-10-12T05:11:38	6.5	94.5
88555	2024-10-12T05:21:38	6.4	93.5
88556	2024-10-12T05:31:39	6.3	96
88557	2024-10-12T05:41:38	6.3	90.5
88558	2024-10-12T05:51:38	6.1	92.5
88559	2024-10-12T06:01:55	6.2	92.5
88560	2024-10-12T06:11:38	6.3	94.5
88561	2024-10-12T06:21:38	6.3	95
88562	2024-10-12T06:31:38	6.4	95.5
88563	2024-10-12T06:41:38	6.6	95.5
88564	2024-10-12T06:51:38	6.6	96
88565	2024-10-12T07:01:38	6.8	94
88566	2024-10-12T07:11:38	6.8	94.5
88567	2024-10-12T07:21:38	6.9	95
88568	2024-10-12T07:31:38	6.9	95.5
88569	2024-10-12T07:41:38	7	95.5
88570	2024-10-12T07:51:39	7.1	95
88571	2024-10-12T08:01:38	7.5	95.5
88572	2024-10-12T08:11:38	7.6	96
88573	2024-10-12T08:21:38	7.8	96
88574	2024-10-12T08:31:39	8.1	96.5
88575	2024-10-12T08:41:38	8.2	96
88576	2024-10-12T08:51:38	8.4	96
88577	2024-10-12T09:01:38	8.6	95.5
88578	2024-10-12T09:11:38	8.9	95
88579	2024-10-12T09:21:38	9.1	94.5
88580	2024-10-12T09:31:38	9.5	94.5
88581	2024-10-12T09:41:38	10	94
88582	2024-10-12T09:51:38	10.4	92
88583	2024-10-12T10:01:38	10.9	91
88584	2024-10-12T10:11:38	11	89
88585	2024-10-12T10:21:38	11	89
88586	2024-10-12T10:31:38	11.1	89
88587	2024-10-12T10:41:38	11.4	87
88588	2024-10-12T10:51:38	11.5	86.5
88589	2024-10-12T11:01:38	11.7	84.5
88590	2024-10-12T11:11:38	11.9	81
88591	2024-10-12T11:21:38	12.2	82
88592	2024-10-12T11:31:38	12.5	80.5
88593	2024-10-12T11:41:38	12.7	81
88594	2024-10-12T11:51:38	12.6	78.5
88595	2024-10-12T12:01:38	12.5	79.5
88596	2024-10-12T12:11:38	12.3	79
88597	2024-10-12T12:21:38	12.5	79.5
88598	2024-10-12T12:31:38	12.5	81
88599	2024-10-12T12:41:38	12.6	83
88600	2024-10-12T12:51:38	12.7	82.5
88601	2024-10-12T13:01:38	12.7	80.5
88602	2024-10-12T13:11:38	12.7	83
88603	2024-10-12T13:21:38	13	81.5
88604	2024-10-12T13:31:38	14	81
88605	2024-10-12T13:41:38	16.4	75
88606	2024-10-12T13:51:38	16.5	74
88607	2024-10-12T14:01:38	16.9	72
88608	2024-10-12T14:11:38	17	73.5
88609	2024-10-12T14:21:38	16.8	73.5
88610	2024-10-12T14:31:38	17.3	75.5
88611	2024-10-12T14:41:38	18.1	67.5
88612	2024-10-12T14:51:38	17.6	70
88613	2024-10-12T15:01:38	17	72
88614	2024-10-12T15:11:38	16.5	73
88615	2024-10-12T15:21:38	16.1	70.5
88616	2024-10-12T15:31:38	15.1	74.5
88617	2024-10-12T15:41:38	14.9	75.5
88618	2024-10-12T15:51:38	14.6	76
88619	2024-10-12T16:01:38	14.4	76
88620	2024-10-12T16:11:38	14.4	80
88621	2024-10-12T16:21:38	14.4	84.5
88622	2024-10-12T16:31:38	14.4	81.5
88623	2024-10-12T16:41:38	14.1	83
88624	2024-10-12T16:51:38	14.2	87.5
88625	2024-10-12T17:01:38	14.1	89
88626	2024-10-12T17:11:38	14.1	89
88627	2024-10-12T17:21:38	13.9	90.5
88628	2024-10-12T17:31:38	13.7	87.5
88629	2024-10-12T17:41:38	13.7	90.5
88630	2024-10-12T17:51:38	13.5	91.5
88631	2024-10-12T18:11:38	13.4	91.5
88632	2024-10-12T18:21:38	13.2	90.5
88633	2024-10-12T18:31:38	13.1	91.5
88634	2024-10-12T18:41:38	13.1	91.5
88635	2024-10-12T18:51:38	13	90.5
88636	2024-10-12T19:01:38	12.8	90
88637	2024-10-12T19:11:38	12.8	91.5
88638	2024-10-12T19:21:38	12.7	90.5
88639	2024-10-12T19:31:38	12.9	92
88640	2024-10-12T19:41:38	12.8	91
88641	2024-10-12T19:51:38	12.7	93
88642	2024-10-12T20:01:38	12.6	94
88643	2024-10-12T20:11:38	12.3	92
88644	2024-10-12T20:21:38	12.5	94
88645	2024-10-12T20:31:37	13.3	92
88646	2024-10-12T20:41:37	13.8	90.5
88647	2024-10-12T20:51:37	14.1	89.5
88648	2024-10-12T21:01:37	14.4	89
88649	2024-10-12T21:11:37	14.4	88.5
88650	2024-10-12T21:31:37	15.2	87
88651	2024-10-12T21:41:37	15.3	86
88652	2024-10-12T21:51:37	15.5	85.5
88653	2024-10-12T22:01:37	15	90
88654	2024-10-12T22:11:37	15.6	86
88655	2024-10-12T22:21:37	15.9	84.5
88656	2024-10-12T22:31:37	16	84
88657	2024-10-12T22:41:37	16	86.5
88658	2024-10-12T22:51:37	16	85.5
88659	2024-10-12T23:31:13	16.3	84
88660	2024-10-12T23:31:13	16.6	82.5
88661	2024-10-12T23:31:13	16.5	83.5
88662	2024-10-12T23:32:01	16.8	82
88663	2024-10-12T23:41:37	16.8	82.5
88664	2024-10-12T23:51:37	16.7	82
88665	2024-10-13T00:01:37	16.7	82.5
88666	2024-10-13T00:11:37	16.8	82.5
88667	2024-10-13T00:21:37	16.7	82.5
88668	2024-10-13T00:31:37	16.8	82.5
88669	2024-10-13T00:41:37	16.9	82
88670	2024-10-13T00:51:37	16.8	82
88671	2024-10-13T01:01:37	16.5	88.5
88672	2024-10-13T01:11:37	15.6	93
88673	2024-10-13T01:21:37	15.8	88
88674	2024-10-13T01:31:37	16.3	89.5
88675	2024-10-13T01:41:37	15	100
88676	2024-10-13T01:51:37	14.8	100
88677	2024-10-13T02:01:37	14.7	100
88678	2024-10-13T02:11:37	14.6	100
88679	2024-10-13T02:21:37	14.6	100
88680	2024-10-13T02:31:37	14.4	100
88681	2024-10-13T02:41:37	14.5	100
88682	2024-10-13T02:51:37	14.4	100
88683	2024-10-13T03:01:37	14.4	100
88684	2024-10-13T03:11:37	14.5	100
88685	2024-10-13T03:21:37	14.3	100
88686	2024-10-13T03:31:37	14.2	100
88687	2024-10-13T03:41:37	14.2	100
88688	2024-10-13T03:51:37	14.3	99.5
88689	2024-10-13T04:01:37	13.8	98.5
88690	2024-10-13T04:11:37	13.8	97.5
88691	2024-10-13T04:21:37	13.7	97
88692	2024-10-13T04:31:37	13.7	96
88693	2024-10-13T04:41:37	13.4	96
88694	2024-10-13T04:51:37	13.4	96
88695	2024-10-13T05:01:37	13.3	96
88696	2024-10-13T05:11:37	13	96
88697	2024-10-13T05:21:37	12.9	96
88698	2024-10-13T05:31:37	12.9	96
88699	2024-10-13T05:41:37	12.8	96
88700	2024-10-13T05:51:37	12.8	96
88701	2024-10-13T06:01:37	12.9	96
88702	2024-10-13T06:11:37	12.7	96
88703	2024-10-13T06:21:37	12.7	96
88704	2024-10-13T06:31:37	12.7	96
88705	2024-10-13T06:41:37	12.6	96
88706	2024-10-13T06:51:37	12.5	96
88707	2024-10-13T07:01:37	12.5	96
88708	2024-10-13T07:11:37	12.5	96
88709	2024-10-13T07:21:37	12.5	96
88710	2024-10-13T07:31:37	12.4	96
88711	2024-10-13T07:41:37	12.5	96
88712	2024-10-13T07:51:37	12.3	96
88713	2024-10-13T08:01:37	12.4	96
88714	2024-10-13T08:11:37	12.3	96
88715	2024-10-13T08:21:37	12.3	96.5
88716	2024-10-13T08:31:37	12.2	96.5
88717	2024-10-13T08:41:37	12.2	96.5
88718	2024-10-13T08:51:37	12.3	96.5
88719	2024-10-13T09:01:37	12.4	96.5
88720	2024-10-13T09:11:37	12.4	96.5
88721	2024-10-13T09:21:36	12.5	96.5
88722	2024-10-13T09:31:36	12.5	96.5
88723	2024-10-13T09:41:36	12.7	96.5
88724	2024-10-13T09:51:36	12.8	96.5
88725	2024-10-13T10:01:36	12.9	96
88726	2024-10-13T10:11:36	13.1	96.5
88727	2024-10-13T10:21:36	13.1	96.5
88728	2024-10-13T10:31:36	13.1	96.5
88729	2024-10-13T10:41:36	13.3	96.5
88730	2024-10-13T10:51:36	13.2	96.5
88731	2024-10-13T11:01:36	13.3	96.5
88732	2024-10-13T11:11:36	13.6	96.5
88733	2024-10-13T11:21:36	13.7	96.5
88734	2024-10-13T11:31:36	13.8	96.5
88735	2024-10-13T11:41:36	13.9	96
88736	2024-10-13T11:51:36	14.2	96.5
88737	2024-10-13T12:01:36	14.6	99.5
88738	2024-10-13T12:11:36	16.2	99
88739	2024-10-13T12:21:36	17	100
88740	2024-10-13T12:31:36	17.6	99.5
88741	2024-10-13T12:41:36	18	98
88742	2024-10-13T12:51:36	18.1	97.5
88743	2024-10-13T13:01:36	18.5	97
88744	2024-10-13T13:11:36	19.2	78.5
88745	2024-10-13T13:21:36	19.3	44
88746	2024-10-13T13:31:36	19.6	40.5
88747	2024-10-13T13:41:36	20.5	41
88748	2024-10-13T13:51:36	21	40
88749	2024-10-13T14:01:36	20.4	37.5
88750	2024-10-13T14:11:36	19.7	35.5
88751	2024-10-13T14:21:36	19.4	38.5
88752	2024-10-13T14:31:36	18.8	39.5
88753	2024-10-13T14:41:36	17.9	41
88754	2024-10-13T14:51:36	17.7	47.5
88755	2024-10-13T15:01:36	17.2	43.5
88756	2024-10-13T15:11:36	16.6	50.5
88757	2024-10-13T15:21:36	16.4	49.5
88758	2024-10-13T15:31:36	16.6	50
88759	2024-10-13T15:41:36	16.2	45.5
88760	2024-10-13T15:51:36	16.6	48
88761	2024-10-13T16:01:36	16.7	52.5
88762	2024-10-13T16:11:36	16.1	50.5
88763	2024-10-13T16:21:36	15.6	56
88764	2024-10-13T16:31:36	15.2	59.5
88765	2024-10-13T16:41:36	14.9	65.5
88766	2024-10-13T16:51:36	14.6	66.5
88767	2024-10-13T17:01:36	14.4	68.5
88768	2024-10-13T17:11:36	14.2	74
88769	2024-10-13T17:21:36	13.9	72
88770	2024-10-13T17:31:36	13.5	71
88771	2024-10-13T17:41:36	13.4	76
88772	2024-10-13T17:51:36	13.2	79.5
88773	2024-10-13T18:01:36	12.9	79
88774	2024-10-13T18:11:36	12.8	81
88775	2024-10-13T18:21:36	12.7	78
88776	2024-10-13T18:31:36	12.5	81
88777	2024-10-13T18:41:36	12.3	77.5
88778	2024-10-13T18:51:36	12.1	81.5
88779	2024-10-13T19:11:36	11.9	80.5
88780	2024-10-13T19:21:36	11.9	82.5
88781	2024-10-13T19:31:36	12	83.5
88782	2024-10-13T19:41:36	12	81
88783	2024-10-13T19:51:36	11.9	81.5
88784	2024-10-13T20:01:36	11.7	84
88785	2024-10-13T20:11:36	11.7	83.5
88786	2024-10-13T20:21:36	11.7	85
88787	2024-10-13T20:31:36	11.6	85.5
88788	2024-10-13T20:41:36	11.5	83.5
88789	2024-10-13T20:51:36	11.5	86
88790	2024-10-13T21:01:36	11.4	83.5
88791	2024-10-13T21:11:36	11.3	84
88792	2024-10-13T21:21:36	11.2	84.5
88793	2024-10-13T21:31:36	11.2	85
88794	2024-10-13T21:41:36	11.1	85.5
88795	2024-10-13T21:51:36	10.9	82
88796	2024-10-13T22:01:36	10.9	85.5
88797	2024-10-13T22:11:36	10.9	85.5
88798	2024-10-13T22:21:36	10.9	87
88799	2024-10-13T22:31:36	10.8	87.5
88800	2024-10-13T22:41:36	10.7	85.5
88801	2024-10-13T22:51:36	10.6	87
88802	2024-10-13T23:32:50	10.5	83.5
88803	2024-10-13T23:32:50	10.4	82.5
88804	2024-10-13T23:32:50	10.5	81.5
88805	2024-10-13T23:32:51	10.4	83
88806	2024-10-13T23:41:35	10.3	82
88807	2024-10-13T23:51:35	10.2	79.5
88808	2024-10-14T00:01:35	9.9	82
88809	2024-10-14T00:11:35	9.8	83.5
88810	2024-10-14T00:21:35	9.6	80.5
88811	2024-10-14T00:31:35	9.5	80.5
88812	2024-10-14T00:41:35	9.2	81.5
88813	2024-10-14T00:51:35	9.2	77.5
88814	2024-10-14T01:01:35	9.2	81
88815	2024-10-14T01:11:35	9.1	84
88816	2024-10-14T01:21:35	9.1	83.5
88817	2024-10-14T01:31:35	9.1	85.5
88818	2024-10-14T01:41:35	9.1	85
88819	2024-10-14T01:51:35	9.3	87
88820	2024-10-14T02:01:35	9.5	83.5
88821	2024-10-14T02:11:35	9.5	86.5
88822	2024-10-14T02:21:35	9.5	80
88823	2024-10-14T02:31:35	9.6	83
88824	2024-10-14T02:41:35	9.5	85.5
88825	2024-10-14T02:51:35	9.4	84.5
88826	2024-10-14T03:01:35	9.3	85
88827	2024-10-14T03:11:35	9.3	84.5
88828	2024-10-14T03:21:35	9.2	87
88829	2024-10-14T03:31:35	9.2	88.5
88830	2024-10-14T03:41:35	9.2	89.5
88831	2024-10-14T03:51:35	9.1	85.5
88832	2024-10-14T04:01:35	9	88
88833	2024-10-14T04:11:35	9.1	89.5
88834	2024-10-14T04:21:35	9.3	90
88835	2024-10-14T04:31:35	9.3	88.5
88836	2024-10-14T04:41:35	9.5	88.5
88837	2024-10-14T04:51:35	9.4	89.5
88838	2024-10-14T05:01:35	9.5	89.5
88839	2024-10-14T05:11:35	9.6	88
88840	2024-10-14T05:21:35	9.4	85.5
88841	2024-10-14T05:31:35	9.5	86
88842	2024-10-14T05:41:35	9.5	88.5
88843	2024-10-14T05:51:52	9.5	89
88844	2024-10-14T06:01:35	9.5	89
88845	2024-10-14T06:11:35	9.4	84.5
88846	2024-10-14T06:21:35	9.3	86
88847	2024-10-14T06:31:35	9.6	87.5
88848	2024-10-14T06:41:35	9.2	86
88849	2024-10-14T06:51:35	9.1	87.5
88850	2024-10-14T07:01:35	9.2	87.5
88851	2024-10-14T07:11:35	9.4	88.5
88852	2024-10-14T07:21:35	9.7	89.5
88853	2024-10-14T07:31:35	10	90
88854	2024-10-14T07:41:35	9.9	88.5
88855	2024-10-14T07:51:35	9.9	88.5
88856	2024-10-14T08:01:35	10.1	90
88857	2024-10-14T08:11:35	10.1	89
88858	2024-10-14T08:21:35	10.2	90
88859	2024-10-14T08:31:35	10.1	88.5
88860	2024-10-14T08:41:35	10.3	93.5
88861	2024-10-14T08:51:35	10.4	91.5
88862	2024-10-14T09:01:35	10.5	90.5
88863	2024-10-14T09:11:35	10.8	91
88864	2024-10-14T09:21:35	11.3	90.5
88865	2024-10-14T09:31:35	11.2	90.5
88866	2024-10-14T09:41:35	11.6	89
88867	2024-10-14T09:51:35	11.6	85.5
88868	2024-10-14T10:01:35	11.7	87.5
88869	2024-10-14T10:11:35	12.2	86
88870	2024-10-14T10:21:35	12.2	87
88871	2024-10-14T10:31:35	12.1	87
88872	2024-10-14T10:41:35	12	87.5
88873	2024-10-14T10:51:35	11.8	89
88874	2024-10-14T11:01:35	11.7	89
88875	2024-10-14T11:11:35	11.6	91
88876	2024-10-14T11:21:35	11.5	94
88877	2024-10-14T11:31:35	11.5	97.5
88878	2024-10-14T11:41:35	11.7	97
88879	2024-10-14T11:51:35	12.1	95
88880	2024-10-14T12:01:35	12.6	93
88881	2024-10-14T12:11:35	12.9	91
88882	2024-10-14T12:21:35	13.7	90
88883	2024-10-14T12:31:35	14.4	85
88884	2024-10-14T12:41:35	14.4	86
88885	2024-10-14T12:51:35	14.5	86.5
88886	2024-10-14T13:01:35	14.5	85.5
88887	2024-10-14T13:11:35	15.2	85.5
88888	2024-10-14T13:21:35	15.3	84.5
88889	2024-10-14T13:31:35	14.9	87
88890	2024-10-14T13:41:35	14.5	86
88891	2024-10-14T13:51:35	14.6	85.5
88892	2024-10-14T14:01:35	14.6	86.5
88893	2024-10-14T14:11:35	14.7	86.5
88894	2024-10-14T14:21:35	14.8	87
88895	2024-10-14T14:31:35	14.5	86.5
88896	2024-10-14T14:41:35	14.3	88
88897	2024-10-14T14:51:35	14.4	89
88898	2024-10-14T15:01:35	14.6	88
88899	2024-10-14T15:11:35	14.7	88
88900	2024-10-14T15:21:35	14.8	89
88901	2024-10-14T15:31:35	16	86
88902	2024-10-14T15:41:34	16.5	84.5
88903	2024-10-14T15:51:34	15.7	84
88904	2024-10-14T16:01:34	15.1	87
88905	2024-10-14T16:11:34	14.8	88.5
88906	2024-10-14T16:21:34	14.6	90
88907	2024-10-14T16:31:34	14.3	90
88908	2024-10-14T16:41:34	13.9	91
88909	2024-10-14T16:51:34	13.7	91
88910	2024-10-14T17:01:34	13.6	92
88911	2024-10-14T17:11:34	13.8	92.5
88912	2024-10-14T17:21:35	13.6	92.5
88913	2024-10-14T17:31:34	13.4	92
88914	2024-10-14T17:41:34	13.3	93
88915	2024-10-14T17:51:34	13.3	93
88916	2024-10-14T18:01:34	13.2	92.5
88917	2024-10-14T18:11:34	13.1	93
88918	2024-10-14T18:21:34	13.1	93.5
88919	2024-10-14T18:31:34	13	96.5
88920	2024-10-14T18:41:34	13	100
88921	2024-10-14T18:51:34	12.9	100
88922	2024-10-14T19:01:34	13	100
88923	2024-10-14T19:11:34	12.9	100
88924	2024-10-14T19:21:34	13	100
88925	2024-10-14T19:31:34	12.9	100
88926	2024-10-14T19:41:34	12.7	100
88927	2024-10-14T19:51:34	12.8	100
88928	2024-10-14T20:01:34	12.8	100
88929	2024-10-14T20:11:34	12.7	100
88930	2024-10-14T20:21:34	12.6	100
88931	2024-10-14T20:31:34	12.6	100
88932	2024-10-14T20:41:34	12.6	100
88933	2024-10-14T20:51:34	12.4	100
88934	2024-10-14T21:01:34	12.6	100
88935	2024-10-14T21:11:34	12.5	100
88936	2024-10-14T21:21:34	12.5	100
88937	2024-10-14T21:31:34	12.6	100
88938	2024-10-14T21:41:34	12.5	100
88939	2024-10-14T21:51:34	12.6	100
88940	2024-10-14T22:01:34	12.6	100
88941	2024-10-14T22:11:34	12.6	100
88942	2024-10-14T22:21:34	12.4	100
88943	2024-10-14T22:31:34	12.5	100
88944	2024-10-14T22:41:34	12.4	100
88945	2024-10-14T22:51:34	12.5	100
88946	2024-10-14T23:32:13	12.5	100
88947	2024-10-14T23:32:13	12.5	100
88948	2024-10-14T23:32:13	12.5	100
88949	2024-10-14T23:32:13	12.5	100
88950	2024-10-14T23:41:34	12.4	100
88951	2024-10-14T23:51:34	12.3	99.5
88952	2024-10-15T00:01:34	12.3	99
88953	2024-10-15T00:11:34	12.2	98.5
88954	2024-10-15T00:21:34	12.2	98
88955	2024-10-15T00:31:34	12.3	99
88956	2024-10-15T00:41:34	12.2	99
88957	2024-10-15T00:51:34	12.3	99
88958	2024-10-15T01:01:34	12.2	98.5
88959	2024-10-15T01:11:34	12.1	98
88960	2024-10-15T01:21:34	12.2	97.5
88961	2024-10-15T01:31:34	12.2	98
88962	2024-10-15T01:41:34	12	98.5
88963	2024-10-15T01:51:34	12	97.5
88964	2024-10-15T02:01:34	12.1	97.5
88965	2024-10-15T02:11:34	12.1	98
88966	2024-10-15T02:21:34	12.1	98.5
88967	2024-10-15T02:31:34	12	97.5
88968	2024-10-15T02:41:34	12	98
88969	2024-10-15T02:51:34	11.9	97
88970	2024-10-15T03:01:34	11.9	97
88971	2024-10-15T03:11:34	11.9	96.5
88972	2024-10-15T03:21:34	11.8	96
88973	2024-10-15T03:31:34	11.6	97
88974	2024-10-15T03:41:34	11.5	96.5
88975	2024-10-15T03:51:34	11.6	96.5
88976	2024-10-15T04:01:34	11.5	96
88977	2024-10-15T04:11:34	11.5	96.5
88978	2024-10-15T04:21:34	11.4	96.5
88979	2024-10-15T04:31:34	11.4	96.5
88980	2024-10-15T04:41:34	11.4	97
88981	2024-10-15T04:51:34	11.3	96
88982	2024-10-15T05:01:34	11.3	96.5
88983	2024-10-15T05:11:34	11.3	96.5
88984	2024-10-15T05:21:34	11.1	97
88985	2024-10-15T05:31:34	11.1	97
88986	2024-10-15T05:41:34	11.1	96.5
88987	2024-10-15T05:51:34	11.1	97.5
88988	2024-10-15T06:01:33	11.2	97.5
88989	2024-10-15T06:11:33	11	97
88990	2024-10-15T06:21:33	11.1	97.5
88991	2024-10-15T06:31:33	11.2	98
88992	2024-10-15T06:41:33	11.2	98
88993	2024-10-15T06:51:33	11.4	98.5
88994	2024-10-15T07:01:33	11.4	98.5
88995	2024-10-15T07:11:33	11.4	99.5
88996	2024-10-15T07:21:33	11.3	99.5
88997	2024-10-15T07:31:33	11.6	99.5
88998	2024-10-15T07:41:33	11.5	100
88999	2024-10-15T07:51:33	11.6	100
89000	2024-10-15T08:01:33	11.8	100
89001	2024-10-15T08:11:33	11.7	99
89002	2024-10-15T08:21:33	11.8	98.5
89003	2024-10-15T08:31:33	12.1	99
89004	2024-10-15T08:41:33	12.1	97.5
89005	2024-10-15T08:51:33	12.3	98
89006	2024-10-15T09:01:33	12.4	97
89007	2024-10-15T09:11:33	12.7	97
89008	2024-10-15T09:21:33	12.7	97
89009	2024-10-15T09:31:33	12.8	96.5
89010	2024-10-15T10:01:33	13.5	95
89011	2024-10-15T10:11:33	13.7	95
89012	2024-10-15T10:21:33	14.1	94
89013	2024-10-15T10:31:33	14.5	92.5
89014	2024-10-15T10:41:33	14.7	91.5
89015	2024-10-15T10:51:33	14.9	91
89016	2024-10-15T11:01:33	15.1	90.5
89017	2024-10-15T11:11:33	15.5	89.5
89018	2024-10-15T11:21:33	15.5	89
89019	2024-10-15T11:31:33	15.7	89.5
89020	2024-10-15T11:41:33	16.1	88
89021	2024-10-15T11:51:33	16.1	87
89022	2024-10-15T12:01:33	16.1	88
89023	2024-10-15T12:11:33	16.1	87
89024	2024-10-15T12:21:33	16.1	87
89025	2024-10-15T12:31:33	16.2	87
89026	2024-10-15T12:41:33	16.3	87.5
89027	2024-10-15T12:51:33	16.4	88
89028	2024-10-15T13:01:33	16.5	88
89029	2024-10-15T13:11:33	16.7	88
89030	2024-10-15T13:21:33	16.6	88
89031	2024-10-15T13:31:33	16.7	88.5
89032	2024-10-15T13:41:33	16.7	88.5
89033	2024-10-15T13:51:33	16.9	89.5
89034	2024-10-15T14:01:33	17.1	89
89035	2024-10-15T14:11:33	17.5	87.5
89036	2024-10-15T14:21:33	17.4	87.5
89037	2024-10-15T14:31:33	17.2	88.5
89038	2024-10-15T14:41:33	17.3	88.5
89039	2024-10-15T14:51:33	17.1	89
89040	2024-10-15T15:01:33	17.1	89.5
89041	2024-10-15T15:11:33	17.1	90
89042	2024-10-15T15:21:33	17	89.5
89043	2024-10-15T15:31:33	16.8	90
89044	2024-10-15T15:41:33	16.7	90.5
89045	2024-10-15T15:51:33	16.6	90.5
89046	2024-10-15T16:01:33	16.4	91
89047	2024-10-15T16:11:33	16.4	91
89048	2024-10-15T16:21:33	16.2	92
89049	2024-10-15T16:31:33	16.1	92
89050	2024-10-15T16:41:33	16	92.5
89051	2024-10-15T16:51:33	15.8	93
89052	2024-10-15T17:01:33	15.7	93.5
89053	2024-10-15T17:11:33	15.6	94
89054	2024-10-15T17:21:33	15.5	94
89055	2024-10-15T17:31:33	15.4	94.5
89056	2024-10-15T17:41:33	15.2	94.5
89057	2024-10-15T17:51:33	15.1	94.5
89058	2024-10-15T18:01:33	15.1	94.5
89059	2024-10-15T18:11:33	15	94.5
89060	2024-10-15T18:21:33	15.2	94.5
89061	2024-10-15T18:31:33	15.2	94.5
89062	2024-10-15T18:41:33	15.1	94.5
89063	2024-10-15T18:51:33	15.1	94.5
89064	2024-10-15T19:01:32	15.1	95
89065	2024-10-15T19:11:32	15.2	94.5
89066	2024-10-15T19:21:32	15.1	94
89067	2024-10-15T19:31:32	15.1	94
89068	2024-10-15T19:41:32	15.1	94.5
89069	2024-10-15T19:51:32	15	94
89070	2024-10-15T20:01:32	14.9	94.5
89071	2024-10-15T20:11:32	14.9	94.5
89072	2024-10-15T20:21:32	14.8	94.5
89073	2024-10-15T20:31:32	14.9	94
89074	2024-10-15T20:41:32	14.8	94.5
89075	2024-10-15T20:51:32	14.8	94.5
89076	2024-10-15T21:01:32	14.7	94.5
89077	2024-10-15T21:11:32	14.7	95
89078	2024-10-15T21:21:32	14.9	95
89079	2024-10-15T21:31:32	14.8	95
89080	2024-10-15T21:41:32	14.8	95
89081	2024-10-15T21:51:32	14.8	95
89082	2024-10-15T22:01:32	14.8	94.5
89083	2024-10-15T22:11:32	14.8	94.5
89084	2024-10-15T22:21:32	14.8	94.5
89085	2024-10-15T22:31:32	14.8	94.5
89086	2024-10-15T22:41:32	15	94
89087	2024-10-15T22:51:32	14.9	94
89088	2024-10-15T23:31:35	15	94
89089	2024-10-15T23:31:35	15	93.5
89090	2024-10-15T23:31:35	15	93
89091	2024-10-15T23:31:36	15	94
89092	2024-10-15T23:41:32	15	93.5
89093	2024-10-15T23:51:32	14.9	93.5
89094	2024-10-16T00:01:32	14.9	93.5
89095	2024-10-16T00:11:32	15	93.5
89096	2024-10-16T00:21:32	14.9	92.5
89097	2024-10-16T00:31:32	14.9	92.5
89098	2024-10-16T00:41:32	14.9	92.5
89099	2024-10-16T00:51:32	14.8	93
89100	2024-10-16T01:01:32	14.8	92.5
89101	2024-10-16T01:11:32	14.8	92.5
89102	2024-10-16T01:21:32	14.8	93
89103	2024-10-16T01:31:32	14.8	93
89104	2024-10-16T01:41:32	14.8	93
89105	2024-10-16T01:51:32	14.6	93
89106	2024-10-16T02:01:32	14.5	93
89107	2024-10-16T02:11:32	14.4	93
89108	2024-10-16T02:21:32	14.5	93
89109	2024-10-16T02:31:32	14.4	93.5
89110	2024-10-16T02:41:32	14.4	93.5
89111	2024-10-16T02:51:32	14.3	93.5
89112	2024-10-16T03:01:32	13.8	93
89113	2024-10-16T03:11:32	13.8	93.5
89114	2024-10-16T03:21:32	13.8	96
89115	2024-10-16T03:31:32	13.8	96
89116	2024-10-16T03:41:32	13.6	97.5
89117	2024-10-16T03:51:32	13.8	98.5
89118	2024-10-16T04:01:32	13.8	99
89119	2024-10-16T04:11:32	13.7	99.5
89120	2024-10-16T04:21:32	13.7	99.5
89121	2024-10-16T04:31:32	13.5	99
89122	2024-10-16T04:41:32	13.4	98.5
89123	2024-10-16T04:51:32	13.4	99.5
89124	2024-10-16T05:01:32	13.4	99
89125	2024-10-16T05:11:32	13.4	99
89126	2024-10-16T05:21:32	13.4	100
89127	2024-10-16T05:31:32	13.5	99.5
89128	2024-10-16T05:41:32	13.4	99.5
89129	2024-10-16T05:51:32	13.5	99
89130	2024-10-16T06:01:32	13.6	98
89131	2024-10-16T06:11:32	13.5	98.5
89132	2024-10-16T06:21:32	13.6	99
89133	2024-10-16T06:31:32	13.5	98.5
89134	2024-10-16T06:41:32	13.5	97.5
89135	2024-10-16T06:51:32	13.5	98.5
89136	2024-10-16T07:01:32	13.6	98
89137	2024-10-16T07:11:32	13.8	98
89138	2024-10-16T07:21:32	13.9	97.5
89139	2024-10-16T07:31:32	13.9	97
89140	2024-10-16T07:41:32	13.8	97
89141	2024-10-16T07:51:32	13.9	96.5
89142	2024-10-16T08:01:32	14	96.5
89143	2024-10-16T08:11:32	14	96.5
89144	2024-10-16T08:21:31	14.3	96.5
89145	2024-10-16T08:31:31	14.4	96
89146	2024-10-16T08:41:31	14.7	93.5
89147	2024-10-16T08:51:31	14.9	93.5
89148	2024-10-16T09:01:31	15.1	91.5
89149	2024-10-16T09:11:31	15.4	90.5
89150	2024-10-16T09:21:31	15.7	90
89151	2024-10-16T09:31:31	15.7	90
89152	2024-10-16T09:41:31	15.7	91.5
89153	2024-10-16T09:51:31	15.6	90.5
89154	2024-10-16T10:01:31	15.5	89.5
89155	2024-10-16T10:11:31	15.8	90.5
89156	2024-10-16T10:21:31	15.8	89.5
89157	2024-10-16T10:31:31	15.9	89.5
89158	2024-10-16T10:41:31	16	88.5
89159	2024-10-16T10:51:31	15.8	89
89160	2024-10-16T11:01:31	15.8	90.5
89161	2024-10-16T11:11:31	15.8	90
89162	2024-10-16T11:21:31	15.7	89
89163	2024-10-16T11:31:31	15.8	89
89164	2024-10-16T11:41:31	15.8	88.5
89165	2024-10-16T11:51:31	15.8	91
89166	2024-10-16T12:01:31	15.8	90.5
89167	2024-10-16T12:11:31	15.8	89.5
89168	2024-10-16T12:21:31	16.1	88.5
89169	2024-10-16T12:31:31	16.2	88.5
89170	2024-10-16T12:41:31	16.2	88.5
89171	2024-10-16T12:51:31	16.2	88.5
89172	2024-10-16T13:01:31	16.6	88.5
89173	2024-10-16T13:11:31	17.2	85
89174	2024-10-16T13:21:31	17.4	86.5
89175	2024-10-16T13:31:31	17.5	86
89176	2024-10-16T13:41:31	17.7	86
89177	2024-10-16T13:51:31	17.7	87
89178	2024-10-16T14:01:31	17.8	86
89179	2024-10-16T14:11:31	18	85
89180	2024-10-16T14:21:31	18	85
89181	2024-10-16T14:31:31	18	83.5
89182	2024-10-16T14:41:31	17.9	84
89183	2024-10-16T14:51:31	17.8	83
89184	2024-10-16T15:01:31	18.1	84.5
89185	2024-10-16T15:11:31	19.7	80
89186	2024-10-16T15:21:31	20.6	75
89187	2024-10-16T15:31:31	20.9	72
89188	2024-10-16T15:41:31	20.2	73.5
89189	2024-10-16T15:51:31	19.6	76
89190	2024-10-16T16:01:31	19.1	79
89191	2024-10-16T16:11:31	18.7	79.5
89192	2024-10-16T16:21:31	18.3	82.5
89193	2024-10-16T16:31:31	17.9	82.5
89194	2024-10-16T16:41:31	17.5	84
89195	2024-10-16T16:51:31	17.6	86
89196	2024-10-16T17:01:31	17.3	86.5
89197	2024-10-16T17:11:31	17.1	87
89198	2024-10-16T17:21:31	16.9	86.5
89199	2024-10-16T17:31:31	16.7	89
89200	2024-10-16T17:41:31	16.5	89
89201	2024-10-16T17:51:31	16.2	90
89202	2024-10-16T18:01:31	16.1	89
89203	2024-10-16T18:11:31	16.1	88.5
89204	2024-10-16T18:21:31	15.8	89.5
89205	2024-10-16T18:31:31	15.7	88
89206	2024-10-16T18:41:31	15.8	89
89207	2024-10-16T18:51:31	15.6	91
89208	2024-10-16T19:01:31	15.5	91.5
89209	2024-10-16T19:11:31	15.5	92
89210	2024-10-16T19:21:31	15.3	92
89211	2024-10-16T19:31:31	15.1	90.5
89212	2024-10-16T19:41:31	15	90.5
89213	2024-10-16T19:51:31	14.9	91.5
89214	2024-10-16T20:01:31	14.5	92
89215	2024-10-16T20:11:31	14.7	91
89216	2024-10-16T20:21:31	14.6	92.5
89217	2024-10-16T20:31:30	14.3	94
89218	2024-10-16T20:41:30	14.3	94.5
89219	2024-10-16T20:51:30	14.4	94
89220	2024-10-16T21:01:30	14.4	93.5
89221	2024-10-16T21:11:30	14.6	94
89222	2024-10-16T21:21:30	14.5	93.5
89223	2024-10-16T21:31:30	14.6	94
89224	2024-10-16T21:41:30	14.6	94
89225	2024-10-16T21:51:30	14.6	94.5
89226	2024-10-16T22:01:30	14.6	94
89227	2024-10-16T22:11:30	14.6	93.5
89228	2024-10-16T22:21:30	14.4	94
89229	2024-10-16T22:31:30	14.3	94
89230	2024-10-16T22:41:30	14.2	94.5
89231	2024-10-16T22:51:30	14.3	95
89232	2024-10-16T23:01:30	14.3	95
89233	2024-10-16T23:31:45	14.4	95
89234	2024-10-16T23:31:45	14.4	95
89235	2024-10-16T23:31:46	14.4	95
89236	2024-10-16T23:41:30	14.3	95.5
89237	2024-10-16T23:51:30	14.4	95.5
89238	2024-10-17T00:01:30	14.5	95.5
89239	2024-10-17T00:11:30	14.5	96
89240	2024-10-17T00:21:30	14.5	95.5
89241	2024-10-17T00:31:30	14.4	95.5
89242	2024-10-17T00:41:30	14.3	96
89243	2024-10-17T00:51:30	14.4	96
89244	2024-10-17T01:01:30	14.5	96
89245	2024-10-17T01:11:30	14.4	96
89246	2024-10-17T01:21:30	14.5	96.5
89247	2024-10-17T01:31:30	14.4	96.5
89248	2024-10-17T01:41:30	14.4	96
89249	2024-10-17T01:51:30	14.4	96.5
89250	2024-10-17T02:01:30	14.4	96
89251	2024-10-17T02:11:30	14.4	94.5
89252	2024-10-17T02:21:30	14.5	95.5
89253	2024-10-17T02:31:30	14.3	96
89254	2024-10-17T02:41:30	14.2	96.5
89255	2024-10-17T02:51:30	14.2	97
89256	2024-10-17T03:01:30	14.2	97
89257	2024-10-17T03:11:30	14.1	97
89258	2024-10-17T03:21:30	14	97
89259	2024-10-17T03:31:30	14	97
89260	2024-10-17T03:41:30	14.1	97
89261	2024-10-17T03:51:30	14	97
89262	2024-10-17T04:01:30	14	97
89263	2024-10-17T04:11:30	14	97
89264	2024-10-17T04:21:30	14.1	97.5
89265	2024-10-17T04:31:30	14	97
89266	2024-10-17T04:41:30	13.9	97
89267	2024-10-17T04:51:30	13.8	97.5
89268	2024-10-17T05:01:30	13.7	97.5
89269	2024-10-17T05:11:30	13.7	97.5
89270	2024-10-17T05:21:30	13.6	97.5
89271	2024-10-17T05:31:30	13.6	97
89272	2024-10-17T05:41:30	13.4	97.5
89273	2024-10-17T05:51:30	13.3	98
89274	2024-10-17T06:01:30	13.2	98
89275	2024-10-17T06:11:30	13.3	98
89276	2024-10-17T06:21:30	13.4	97.5
89277	2024-10-17T06:31:30	13.5	98
89278	2024-10-17T06:41:30	13.5	97.5
89279	2024-10-17T06:51:30	13.5	97
89280	2024-10-17T07:01:30	13.6	97
89281	2024-10-17T07:11:30	13.8	97
89282	2024-10-17T07:21:30	13.8	97
89283	2024-10-17T07:31:30	14	97
89284	2024-10-17T07:41:30	14	96.5
89285	2024-10-17T07:51:30	14.1	97
89286	2024-10-17T08:01:30	14.4	95.5
89287	2024-10-17T08:11:30	14.4	96
89288	2024-10-17T08:21:30	14.4	96
89289	2024-10-17T08:31:30	14.7	96
89290	2024-10-17T08:41:30	14.8	95.5
89291	2024-10-17T08:51:30	15	95
89292	2024-10-17T09:01:30	14.9	95
89293	2024-10-17T09:11:30	15	95
89294	2024-10-17T09:21:30	15	95
89295	2024-10-17T09:31:30	15	95.5
89296	2024-10-17T09:41:29	15.3	96
89297	2024-10-17T09:51:29	15.5	95.5
89298	2024-10-17T10:01:29	15.8	96
89299	2024-10-17T10:11:29	16.3	94
89300	2024-10-17T10:21:29	16.9	93
89301	2024-10-17T10:31:29	17.3	91
89302	2024-10-17T10:41:29	17.4	89.5
89303	2024-10-17T10:51:29	17.7	90
89304	2024-10-17T11:01:29	17.9	89.5
89305	2024-10-17T11:11:29	18.3	88
89306	2024-10-17T11:21:29	18.7	88.5
89307	2024-10-17T11:31:29	19.3	87.5
89308	2024-10-17T11:41:29	19.6	86
89309	2024-10-17T11:51:29	20.1	85
89310	2024-10-17T12:01:29	20.1	86
89311	2024-10-17T12:11:29	20.1	85
89312	2024-10-17T12:21:29	20.2	84.5
89313	2024-10-17T12:31:29	20.5	84.5
89314	2024-10-17T12:41:29	20.8	84
89315	2024-10-17T12:51:29	21.7	81.5
89316	2024-10-17T13:01:29	23.6	77
89317	2024-10-17T13:11:29	23.3	77
89318	2024-10-17T13:21:29	22.8	79
89319	2024-10-17T13:31:29	23.1	79
89320	2024-10-17T13:41:29	23.5	76.5
89321	2024-10-17T13:51:29	24.9	73
89322	2024-10-17T14:01:29	25.7	69
89323	2024-10-17T14:11:29	25.8	68
89324	2024-10-17T14:21:29	25.7	66
89325	2024-10-17T14:31:29	25.8	66.5
89326	2024-10-17T14:41:29	25.2	67.5
89327	2024-10-17T14:51:29	24.4	71.5
89328	2024-10-17T15:01:29	24.1	73.5
89329	2024-10-17T15:11:29	24.4	72
89330	2024-10-17T15:21:29	24.2	74
89331	2024-10-17T15:31:29	23.6	73
89332	2024-10-17T15:41:29	23	77
89333	2024-10-17T15:51:29	22.5	78
89334	2024-10-17T16:01:29	22.2	81
89335	2024-10-17T16:11:29	22	80
89336	2024-10-17T16:21:29	21.8	80
89337	2024-10-17T16:31:29	21.4	79.5
89338	2024-10-17T16:41:29	21	80
89339	2024-10-17T16:51:29	20.8	80.5
89340	2024-10-17T17:01:29	20.5	81
89341	2024-10-17T17:11:29	20.3	82
89342	2024-10-17T17:21:29	20.2	83
89343	2024-10-17T17:31:29	20.1	83
89344	2024-10-17T17:41:29	19.9	83.5
89345	2024-10-17T18:11:29	19.5	84.5
89346	2024-10-17T18:21:29	19.4	85.5
89347	2024-10-17T18:31:29	19.4	86
89348	2024-10-17T18:41:29	19.1	86.5
89349	2024-10-17T19:01:29	19	87
89350	2024-10-17T19:11:29	18.8	87.5
89351	2024-10-17T19:21:29	18.5	88
89352	2024-10-17T19:31:29	18.5	88.5
89353	2024-10-17T19:41:29	18.4	88.5
89354	2024-10-17T19:51:29	18.4	88.5
89355	2024-10-17T20:01:29	18.2	89
89356	2024-10-17T20:11:29	18.1	89
89357	2024-10-17T20:21:29	18	89.5
89358	2024-10-17T20:31:29	17.8	89.5
89359	2024-10-17T20:41:28	17.6	90
89360	2024-10-17T20:51:28	17.5	90
89361	2024-10-17T21:01:28	17.4	90
89362	2024-10-17T21:11:28	17.2	91.5
89363	2024-10-17T21:21:28	17.1	91
89364	2024-10-17T21:31:28	16.9	91
89365	2024-10-17T21:41:28	16.9	91.5
89366	2024-10-17T21:51:28	16.7	91.5
89367	2024-10-17T22:01:28	16.7	92
89368	2024-10-17T22:11:28	16.6	91.5
89369	2024-10-17T22:31:28	16.5	92
89370	2024-10-17T22:41:28	16.3	92
89371	2024-10-17T22:51:28	16.3	92
89372	2024-10-17T23:01:28	16.2	92
89373	2024-10-17T23:33:11	16.1	92.5
89374	2024-10-17T23:33:11	16.1	92.5
89375	2024-10-17T23:33:11	16.2	93
89376	2024-10-17T23:41:28	16	93
89377	2024-10-17T23:51:28	16	92.5
89378	2024-10-18T00:01:28	16	92.5
89379	2024-10-18T00:11:28	16.1	92.5
89380	2024-10-18T00:21:28	16.1	92.5
89381	2024-10-18T00:31:28	16.2	92.5
89382	2024-10-18T00:41:28	16	92.5
89383	2024-10-18T00:51:28	16	93
89384	2024-10-18T01:01:28	15.9	93
89385	2024-10-18T01:11:28	15.9	92.5
89386	2024-10-18T01:21:28	15.9	91.5
89387	2024-10-18T01:31:28	15.7	91.5
89388	2024-10-18T01:41:28	15.8	92
89389	2024-10-18T01:51:28	15.7	92
89390	2024-10-18T02:01:28	15.7	92
89391	2024-10-18T02:11:28	15.5	92
89392	2024-10-18T02:21:28	15.5	92
89393	2024-10-18T02:31:28	15.5	91.5
89394	2024-10-18T02:41:28	15.4	91.5
89395	2024-10-18T02:51:28	15.3	91
89396	2024-10-18T03:01:28	15.2	90.5
89397	2024-10-18T03:11:28	15.1	90
89398	2024-10-18T03:21:28	15	90.5
89399	2024-10-18T03:31:28	15	90
89400	2024-10-18T03:41:28	15	90
89401	2024-10-18T03:51:28	15	90
89402	2024-10-18T04:01:28	15	90
89403	2024-10-18T04:11:28	15	90.5
89404	2024-10-18T04:21:28	14.9	90
89405	2024-10-18T04:31:28	14.9	90
89406	2024-10-18T04:41:28	14.9	90
89407	2024-10-18T04:51:28	14.8	90.5
89408	2024-10-18T05:01:28	14.7	91
89409	2024-10-18T05:11:28	14.8	91.5
89410	2024-10-18T05:21:28	14.8	92
89411	2024-10-18T05:31:28	14.9	92
89412	2024-10-18T05:41:28	14.6	91.5
89413	2024-10-18T05:51:28	14.5	91.5
89414	2024-10-18T06:01:28	14.5	92
89415	2024-10-18T06:11:28	14.5	92.5
89416	2024-10-18T06:21:28	14.3	93
89417	2024-10-18T06:31:28	14.4	93.5
89418	2024-10-18T06:41:28	14.4	93.5
89419	2024-10-18T06:51:28	14.4	93.5
89420	2024-10-18T07:01:28	14.5	93.5
89421	2024-10-18T07:11:28	14.5	93
89422	2024-10-18T07:21:28	14.7	93.5
89423	2024-10-18T07:31:28	14.7	93
89424	2024-10-18T07:41:28	14.7	93
89425	2024-10-18T07:51:28	14.8	92.5
89426	2024-10-18T08:01:28	14.9	92.5
89427	2024-10-18T08:11:28	14.8	92
89428	2024-10-18T08:21:28	14.9	91.5
89429	2024-10-18T08:31:28	15.1	92.5
89430	2024-10-18T08:41:28	15.1	94
89431	2024-10-18T08:51:28	15	95
89432	2024-10-18T09:01:28	15.2	95
89433	2024-10-18T09:11:27	15.2	94.5
89434	2024-10-18T09:21:27	15.2	94.5
89435	2024-10-18T09:31:28	15.4	94.5
89436	2024-10-18T09:41:27	15.4	93
89437	2024-10-18T09:51:27	15.5	93
89438	2024-10-18T10:01:27	15.6	93.5
89439	2024-10-18T10:11:27	15.6	93
89440	2024-10-18T10:21:27	15.7	92.5
89441	2024-10-18T10:31:27	15.9	92.5
89442	2024-10-18T10:41:27	16.1	92.5
89443	2024-10-18T10:51:27	16.2	92.5
89444	2024-10-18T11:01:27	16.2	92
89445	2024-10-18T11:11:27	16.2	92
89446	2024-10-18T11:21:27	16.2	92.5
89447	2024-10-18T11:31:27	16.2	91.5
89448	2024-10-18T11:41:27	16.3	92.5
89449	2024-10-18T11:51:27	16.2	92
89450	2024-10-18T12:01:27	16	91.5
89451	2024-10-18T12:11:27	16	92.5
89452	2024-10-18T12:21:27	16	92
89453	2024-10-18T12:31:27	16.2	92.5
89454	2024-10-18T12:41:27	16.2	92
89455	2024-10-18T12:51:27	16.4	91.5
89456	2024-10-18T13:01:27	16.4	91.5
89457	2024-10-18T13:11:27	16.7	90.5
89458	2024-10-18T13:21:27	16.8	90.5
89459	2024-10-18T13:31:27	16.7	91.5
89460	2024-10-18T13:41:27	16.6	91.5
89461	2024-10-18T13:51:27	16.6	91.5
89462	2024-10-18T14:01:27	16.7	91.5
89463	2024-10-18T14:11:27	16.7	91.5
89464	2024-10-18T14:21:27	16.7	92
89465	2024-10-18T14:31:27	16.6	92
89466	2024-10-18T14:41:27	16.5	92.5
89467	2024-10-18T14:51:27	16.6	93
89468	2024-10-18T15:01:27	16.5	92.5
89469	2024-10-18T15:11:27	16.4	93
89470	2024-10-18T15:21:27	16.4	93
89471	2024-10-18T15:31:27	16.5	93.5
89472	2024-10-18T15:41:27	16.5	94
89473	2024-10-18T15:51:27	16.4	93.5
89474	2024-10-18T16:01:27	16.3	94
89475	2024-10-18T16:11:27	16.2	94
89476	2024-10-18T16:21:27	16.2	94.5
89477	2024-10-18T16:31:27	16	94.5
89478	2024-10-18T16:41:27	16	94.5
89479	2024-10-18T16:51:27	15.9	95
89480	2024-10-18T17:01:27	15.9	95
89481	2024-10-18T17:11:27	15.9	95.5
89482	2024-10-18T17:21:27	15.9	95.5
89483	2024-10-18T17:31:27	15.9	95.5
89484	2024-10-18T17:41:27	15.8	95.5
89485	2024-10-18T17:51:27	15.8	95.5
89486	2024-10-18T18:01:27	15.7	96
89487	2024-10-18T18:11:27	15.7	96
89488	2024-10-18T18:21:27	15.7	96
89489	2024-10-18T18:31:27	15.5	96.5
89490	2024-10-18T18:41:27	15.6	96
89491	2024-10-18T18:51:27	15.5	95.5
89492	2024-10-18T19:01:27	15.4	96
89493	2024-10-18T19:11:27	15.4	96
89494	2024-10-18T19:21:27	15.4	96
89495	2024-10-18T19:31:27	15.4	96
89496	2024-10-18T19:41:27	15.4	96.5
89497	2024-10-18T19:51:27	15.4	96.5
89498	2024-10-18T20:01:27	15.4	96.5
89499	2024-10-18T20:11:27	15.3	96.5
89500	2024-10-18T20:21:27	15.4	96.5
89501	2024-10-18T20:31:27	15.4	96.5
89502	2024-10-18T20:41:27	15.3	96.5
89503	2024-10-18T20:51:27	15.4	97
89504	2024-10-18T21:01:27	15.4	97
89505	2024-10-18T21:11:27	15.4	97
89506	2024-10-18T21:21:27	15.3	97
89507	2024-10-18T21:31:27	15.3	97
89508	2024-10-18T21:41:26	15.3	97
89509	2024-10-18T21:51:26	15.3	97
89510	2024-10-18T22:01:26	15.3	97
89511	2024-10-18T22:11:26	15.3	97
89512	2024-10-18T22:21:26	15.2	97.5
89513	2024-10-18T22:31:26	15.2	97.5
89514	2024-10-18T22:41:26	15.2	97.5
89515	2024-10-18T22:51:26	15.2	97.5
89516	2024-10-18T23:31:51	15.2	97
89517	2024-10-18T23:31:51	15	97
89518	2024-10-18T23:31:51	15.1	97.5
89519	2024-10-18T23:41:26	15	97
89520	2024-10-18T23:51:26	14.9	97
89521	2024-10-19T00:01:26	15	97
89522	2024-10-19T00:11:26	14.9	97.5
89523	2024-10-19T00:21:26	14.8	97.5
89524	2024-10-19T00:31:26	14.7	97.5
89525	2024-10-19T00:41:26	14.8	97.5
89526	2024-10-19T00:51:26	14.9	97.5
89527	2024-10-19T01:01:26	14.9	97
89528	2024-10-19T01:11:26	14.8	97.5
89529	2024-10-19T01:21:26	14.7	97.5
89530	2024-10-19T01:31:26	14.8	97.5
89531	2024-10-19T01:41:26	14.7	97
89532	2024-10-19T01:51:26	14.7	97
89533	2024-10-19T02:01:26	14.7	97
89534	2024-10-19T02:11:26	14.6	97
89535	2024-10-19T02:21:26	14.6	97.5
89536	2024-10-19T02:31:26	14.4	97.5
89537	2024-10-19T02:41:26	14.1	97.5
89538	2024-10-19T02:51:26	14	97.5
89539	2024-10-19T03:01:26	14	97
89540	2024-10-19T03:11:26	14	96.5
89541	2024-10-19T03:21:26	14	95.5
89542	2024-10-19T03:31:26	13.9	94
89543	2024-10-19T03:41:26	13.9	94.5
89544	2024-10-19T03:51:26	13.9	95.5
89545	2024-10-19T04:01:26	13.8	96
89546	2024-10-19T04:11:26	13.8	96.5
89547	2024-10-19T04:21:26	13.8	96.5
89548	2024-10-19T04:31:26	13.7	96.5
89549	2024-10-19T04:41:26	13.7	96
89550	2024-10-19T04:51:26	13.7	96.5
89551	2024-10-19T05:01:26	13.6	96.5
89552	2024-10-19T05:11:26	13.6	96.5
89553	2024-10-19T05:21:26	13.6	96.5
89554	2024-10-19T05:31:26	13.6	96
89555	2024-10-19T05:41:26	13.5	96
89556	2024-10-19T05:51:26	13.5	96
89557	2024-10-19T06:01:26	13.5	95.5
89558	2024-10-19T06:11:26	13.5	96
89559	2024-10-19T06:21:26	13.2	96
89560	2024-10-19T06:31:26	13.1	96
89561	2024-10-19T06:41:26	13	96.5
89562	2024-10-19T06:51:26	13	96.5
89563	2024-10-19T07:01:26	13.1	96.5
89564	2024-10-19T07:11:26	13.2	96.5
89565	2024-10-19T07:21:26	13.2	96.5
89566	2024-10-19T07:31:26	13.3	96
89567	2024-10-19T07:41:26	13.4	95.5
89568	2024-10-19T07:51:26	13.5	95
89569	2024-10-19T08:01:26	13.6	95.5
89570	2024-10-19T08:11:26	13.9	95
89571	2024-10-19T08:21:26	13.9	95.5
89572	2024-10-19T08:31:26	14	95.5
89573	2024-10-19T08:41:26	14.1	95.5
89574	2024-10-19T08:51:26	14.3	94.5
89575	2024-10-19T09:01:26	14.4	94
89576	2024-10-19T09:11:26	14.5	93.5
89577	2024-10-19T09:21:26	14.6	94.5
89578	2024-10-19T09:31:26	14.7	93.5
89579	2024-10-19T09:41:26	14.9	93
89580	2024-10-19T09:51:26	15	91.5
89581	2024-10-19T10:01:26	15.4	91
89582	2024-10-19T10:11:26	15.5	91
89583	2024-10-19T10:21:26	15.6	91
89584	2024-10-19T10:31:26	15.9	91
89585	2024-10-19T10:41:26	16.1	91
89586	2024-10-19T10:51:25	16.4	89.5
89587	2024-10-19T11:01:25	16.6	89.5
89588	2024-10-19T11:11:25	16.9	89
89589	2024-10-19T11:21:25	17.1	89
89590	2024-10-19T11:31:25	17.2	89
89591	2024-10-19T11:41:25	17.4	88
89592	2024-10-19T11:51:25	17.6	88.5
89593	2024-10-19T12:01:25	17.6	87.5
89594	2024-10-19T12:11:25	17.7	86
89595	2024-10-19T12:21:25	17.7	86
89596	2024-10-19T12:31:25	17.8	85.5
89597	2024-10-19T12:41:25	17.8	85
89598	2024-10-19T12:51:25	17.9	86.5
89599	2024-10-19T13:01:25	18	83.5
89600	2024-10-19T13:11:25	17.9	82.5
89601	2024-10-19T13:21:25	17.9	83
89602	2024-10-19T13:31:25	17.8	84
89603	2024-10-19T13:41:25	17.7	84
89604	2024-10-19T13:51:25	17.5	83
89605	2024-10-19T14:01:25	17.7	84
89606	2024-10-19T14:11:25	17.5	83.5
89607	2024-10-19T14:21:25	17.5	84
89608	2024-10-19T14:31:45	17.5	83.5
89609	2024-10-19T14:41:25	17.4	83.5
89610	2024-10-19T14:51:25	17.4	83.5
89611	2024-10-19T15:01:25	17.4	86
89612	2024-10-19T15:11:25	17.4	86.5
89613	2024-10-19T15:21:25	17.3	87
89614	2024-10-19T15:31:25	17.3	87.5
89615	2024-10-19T15:41:25	17.1	88.5
89616	2024-10-19T15:51:25	17.1	89.5
89617	2024-10-19T16:01:25	17	90
89618	2024-10-19T16:11:25	17.1	90
89619	2024-10-19T16:21:25	16.9	90
89620	2024-10-19T16:31:25	16.7	89.5
89621	2024-10-19T16:41:25	16.6	90.5
89622	2024-10-19T16:51:25	16.4	90.5
89623	2024-10-19T17:01:25	16.3	91.5
89624	2024-10-19T17:11:25	16.1	88
89625	2024-10-19T17:21:25	16.1	89.5
89626	2024-10-19T17:31:25	15.9	90
89627	2024-10-19T17:41:25	15.9	90.5
89628	2024-10-19T17:51:25	15.8	90.5
89629	2024-10-19T18:01:25	15.6	90.5
89630	2024-10-19T18:11:25	15.6	91.5
89631	2024-10-19T18:21:25	15.5	91.5
89632	2024-10-19T18:31:25	15.5	91.5
89633	2024-10-19T18:41:25	15.5	90.5
89634	2024-10-19T18:51:25	15.4	90.5
89635	2024-10-19T19:01:25	15.3	91
89636	2024-10-19T19:11:25	15.3	91
89637	2024-10-19T19:21:25	15.1	92
89638	2024-10-19T19:31:25	15.1	92.5
89639	2024-10-19T19:41:25	15.1	92.5
89640	2024-10-19T19:51:25	15	93
89641	2024-10-19T20:01:25	14.9	92.5
89642	2024-10-19T20:11:25	14.7	93
89643	2024-10-19T20:21:25	14.7	93
89644	2024-10-19T20:31:25	14.5	93
89645	2024-10-19T20:41:25	14.4	93.5
89646	2024-10-19T20:51:25	14.4	93.5
89647	2024-10-19T21:01:25	14.3	93
89648	2024-10-19T21:11:25	14.2	93
89649	2024-10-19T21:21:25	13.9	92.5
89650	2024-10-19T21:31:25	13.9	93
89651	2024-10-19T21:41:25	13.8	94
89652	2024-10-19T21:51:25	13.7	93.5
89653	2024-10-19T22:01:25	13.7	94
89654	2024-10-19T22:11:25	13.6	93.5
89655	2024-10-19T22:21:25	13.4	90.5
89656	2024-10-19T22:31:25	13.3	93
89657	2024-10-19T22:41:25	13.2	93.5
89658	2024-10-19T22:51:25	13.2	94
89659	2024-10-19T23:01:25	13.1	94
89660	2024-10-19T23:32:47	13	93.5
89661	2024-10-19T23:32:48	12.7	93.5
89662	2024-10-19T23:32:48	12.8	93.5
89663	2024-10-19T23:41:24	12.8	92.5
89664	2024-10-19T23:51:24	12.7	93
89665	2024-10-20T00:01:24	12.6	92
89666	2024-10-20T00:11:24	12.4	92.5
89667	2024-10-20T00:21:24	12.3	92
89668	2024-10-20T00:31:24	12.4	92
89669	2024-10-20T00:41:24	12.3	92.5
89670	2024-10-20T00:51:24	12.1	92
89671	2024-10-20T01:01:24	12.1	91.5
89672	2024-10-20T01:11:24	11.9	91
89673	2024-10-20T01:21:24	11.8	88
89674	2024-10-20T01:31:24	11.7	91
89675	2024-10-20T01:41:24	11.7	92
89676	2024-10-20T01:51:24	11.6	95.5
89677	2024-10-20T02:01:24	11.8	95
89678	2024-10-20T02:11:24	11.8	96.5
89679	2024-10-20T02:21:24	11.8	98.5
89680	2024-10-20T02:31:24	11.9	98.5
89681	2024-10-20T02:41:24	11.9	97
89682	2024-10-20T02:51:24	12.1	96
89683	2024-10-20T03:01:24	12	95.5
89684	2024-10-20T03:11:24	12.1	96
89685	2024-10-20T03:21:24	12.1	96
89686	2024-10-20T03:31:24	12.1	98
89687	2024-10-20T03:41:24	12	98.5
89688	2024-10-20T03:51:24	12	99
89689	2024-10-20T04:01:24	11.9	97
89690	2024-10-20T04:11:24	11.9	96.5
89691	2024-10-20T04:21:24	11.6	96
89692	2024-10-20T04:31:24	11.8	95.5
89693	2024-10-20T04:41:24	11.6	95.5
89694	2024-10-20T04:51:24	11.6	96
89695	2024-10-20T05:01:24	11.6	95.5
89696	2024-10-20T05:11:24	11.4	95.5
89697	2024-10-20T05:21:24	11.2	94.5
89698	2024-10-20T05:31:24	11.3	94.5
89699	2024-10-20T05:41:24	11.2	94.5
89700	2024-10-20T05:51:24	11.5	95.5
89701	2024-10-20T06:01:24	11.4	95
89702	2024-10-20T06:11:24	11.5	95
89703	2024-10-20T06:21:24	11.4	95
89704	2024-10-20T06:31:24	11.4	96.5
89705	2024-10-20T06:41:24	11.6	98.5
89706	2024-10-20T06:51:24	11.6	98.5
89707	2024-10-20T07:01:24	11.7	98
89708	2024-10-20T07:11:24	11.7	98.5
89709	2024-10-20T07:21:24	12	98.5
89710	2024-10-20T07:31:24	12	97.5
89711	2024-10-20T07:41:24	12.1	97
89712	2024-10-20T07:51:24	12.3	95.5
89713	2024-10-20T08:01:24	12.3	94.5
89714	2024-10-20T08:11:24	12.2	94.5
89715	2024-10-20T08:21:24	12	95
89716	2024-10-20T08:31:24	12.2	96
89717	2024-10-20T08:41:24	12.2	96.5
89718	2024-10-20T08:51:24	12.4	97.5
89719	2024-10-20T09:01:24	12.2	98.5
89720	2024-10-20T09:11:24	12.4	99.5
89721	2024-10-20T09:21:24	12.5	99
89722	2024-10-20T09:31:24	12.6	99
89723	2024-10-20T09:41:24	12.8	98.5
89724	2024-10-20T09:51:24	13	98
89725	2024-10-20T10:01:24	13.3	97.5
89726	2024-10-20T10:11:24	13.5	97
89727	2024-10-20T10:21:24	13.6	96
89728	2024-10-20T10:31:24	14	95
89729	2024-10-20T10:41:24	14.1	94
89730	2024-10-20T10:51:24	14.4	93
89731	2024-10-20T11:01:24	14.5	92.5
89732	2024-10-20T11:11:24	14.9	91.5
89733	2024-10-20T11:21:24	15	91
89734	2024-10-20T11:31:24	15.4	89
89735	2024-10-20T11:41:24	15.8	88.5
89736	2024-10-20T11:51:24	16.1	87
89737	2024-10-20T12:01:24	16.4	86
89738	2024-10-20T12:11:24	16.7	83.5
89739	2024-10-20T12:21:24	16.7	84
89740	2024-10-20T12:31:24	16.6	84.5
89741	2024-10-20T12:41:24	16.5	85
89742	2024-10-20T12:51:24	16.7	84
89743	2024-10-20T13:01:24	16.7	83.5
89744	2024-10-20T13:11:24	16.8	83
89745	2024-10-20T13:21:24	17	82.5
89746	2024-10-20T13:31:24	17	83
89747	2024-10-20T13:41:23	17	81.5
89748	2024-10-20T13:51:23	17.2	82
89749	2024-10-20T14:11:23	17.1	83
89750	2024-10-20T14:21:23	17.2	82
89751	2024-10-20T14:31:23	17.2	82
89752	2024-10-20T14:41:23	17.1	82
89753	2024-10-20T14:51:23	17.1	84
89754	2024-10-20T15:01:23	17	84
89755	2024-10-20T15:11:23	16.9	84.5
89756	2024-10-20T15:21:23	16.9	86
89757	2024-10-20T15:31:23	16.9	87.5
89758	2024-10-20T15:41:23	16.9	88
89759	2024-10-20T15:51:23	16.7	89
89760	2024-10-20T16:01:23	16.7	89.5
89761	2024-10-20T16:11:23	16.5	89.5
89762	2024-10-20T16:21:23	16.2	90.5
89763	2024-10-20T16:31:23	16	91
89764	2024-10-20T16:41:23	15.8	91.5
89765	2024-10-20T16:51:23	15.6	91.5
89766	2024-10-20T17:01:23	15.4	91
89767	2024-10-20T17:11:23	15.2	92
89768	2024-10-20T17:21:23	15	91.5
89769	2024-10-20T17:31:23	14.8	92
89770	2024-10-20T17:41:23	14.8	92
89771	2024-10-20T17:51:23	14.6	92
89772	2024-10-20T18:01:23	14.5	92.5
89773	2024-10-20T18:11:23	14.5	92.5
89774	2024-10-20T18:21:23	14.4	92.5
89775	2024-10-20T18:31:23	14.2	92
89776	2024-10-20T18:41:23	14.2	92
89777	2024-10-20T18:51:23	14	92
89778	2024-10-20T19:01:23	14	92.5
89779	2024-10-20T19:11:23	13.7	92.5
89780	2024-10-20T19:21:23	13.7	92.5
89781	2024-10-20T19:31:23	13.7	92.5
89782	2024-10-20T19:41:23	13.6	92
89783	2024-10-20T19:51:23	13.6	92
89784	2024-10-20T20:01:23	13.4	90
89785	2024-10-20T20:11:23	13.4	91.5
89786	2024-10-20T20:21:23	13.4	90.5
89787	2024-10-20T20:31:23	13.4	90.5
89788	2024-10-20T20:41:23	13.5	91.5
89789	2024-10-20T20:51:23	13.4	92
89790	2024-10-20T21:01:23	13.4	92.5
89791	2024-10-20T21:11:23	13.4	92.5
89792	2024-10-20T21:21:23	13.4	93
89793	2024-10-20T21:31:23	13.3	92.5
89794	2024-10-20T21:41:23	13.2	92.5
89795	2024-10-20T21:51:23	13.2	93
89796	2024-10-20T22:01:23	13.1	93
89797	2024-10-20T22:11:23	13	93.5
89798	2024-10-20T22:21:23	12.9	93.5
89799	2024-10-20T22:31:23	12.8	92.5
89800	2024-10-20T22:41:23	12.8	93.5
89801	2024-10-20T22:51:23	12.9	93.5
89802	2024-10-20T23:34:02	12.7	93
89803	2024-10-20T23:34:02	12.8	93.5
89804	2024-10-20T23:34:02	12.7	93
89805	2024-10-20T23:34:02	12.7	93
89806	2024-10-20T23:41:23	12.7	92.5
89807	2024-10-20T23:51:23	12.7	93
89808	2024-10-21T00:01:23	12.7	92.5
89809	2024-10-21T00:11:23	12.6	93
89810	2024-10-21T00:21:23	12.6	92.5
89811	2024-10-21T00:31:23	12.6	93
89812	2024-10-21T00:41:23	12.6	93.5
89813	2024-10-21T00:51:23	12.6	93.5
89814	2024-10-21T01:01:23	12.6	93.5
89815	2024-10-21T01:11:23	12.6	93.5
89816	2024-10-21T01:21:23	12.6	93.5
89817	2024-10-21T01:31:23	12.5	93
89818	2024-10-21T01:41:23	12.5	94
89819	2024-10-21T01:51:23	12.5	94
89820	2024-10-21T02:01:23	12.5	94
89821	2024-10-21T02:11:23	12.4	94
89822	2024-10-21T02:21:23	12.5	94.5
89823	2024-10-21T02:31:23	12.3	94.5
89824	2024-10-21T02:41:23	12.4	94.5
89825	2024-10-21T02:51:23	12.4	94.5
89826	2024-10-21T03:01:23	12.3	94
89827	2024-10-21T03:11:23	12.2	94.5
89828	2024-10-21T03:21:23	12.2	95
89829	2024-10-21T03:31:22	12.2	94.5
89830	2024-10-21T03:41:22	12.3	94.5
89831	2024-10-21T03:51:23	12.3	94.5
89832	2024-10-21T04:01:22	12.3	94.5
89833	2024-10-21T04:11:22	12.3	94
89834	2024-10-21T04:21:22	12.3	94.5
89835	2024-10-21T04:31:22	12.2	94.5
89836	2024-10-21T04:41:22	12.2	94.5
89837	2024-10-21T04:51:22	12.2	94.5
89838	2024-10-21T05:01:23	12.2	94.5
89839	2024-10-21T05:11:22	12.3	94.5
89840	2024-10-21T05:21:22	12.3	94.5
89841	2024-10-21T05:31:22	12.2	94.5
89842	2024-10-21T05:41:22	12.2	95
89843	2024-10-21T05:51:22	12.2	95
89844	2024-10-21T06:01:22	12.1	95.5
89845	2024-10-21T06:11:22	11.9	95.5
89846	2024-10-21T06:21:22	12	95.5
89847	2024-10-21T06:31:22	11.9	95.5
89848	2024-10-21T06:41:22	11.9	95.5
89849	2024-10-21T06:51:22	11.9	95.5
89850	2024-10-21T07:01:22	12	95.5
89851	2024-10-21T07:11:22	12.2	95.5
89852	2024-10-21T07:21:22	12.3	96
89853	2024-10-21T07:31:22	12.4	97
89854	2024-10-21T07:41:22	12.7	97.5
89855	2024-10-21T07:51:22	12.8	97.5
89856	2024-10-21T08:01:22	13	97
89857	2024-10-21T08:11:22	13.1	97.5
89858	2024-10-21T08:21:22	13.3	96.5
89859	2024-10-21T08:31:22	13.6	96
89860	2024-10-21T08:41:22	13.8	95.5
89861	2024-10-21T08:51:22	14.1	95
89862	2024-10-21T09:01:22	14.4	94
89863	2024-10-21T09:11:22	14.6	93.5
89864	2024-10-21T09:21:22	14.9	92.5
89865	2024-10-21T09:31:22	14.9	90.5
89866	2024-10-21T09:41:22	15	91.5
89867	2024-10-21T09:51:22	15.2	91
89868	2024-10-21T10:01:22	15.5	91
89869	2024-10-21T10:11:22	15.6	91
89870	2024-10-21T10:21:22	15.9	90.5
89871	2024-10-21T10:31:22	16	89.5
89872	2024-10-21T10:41:22	16.4	89.5
89873	2024-10-21T10:51:22	16.8	88
89874	2024-10-21T11:01:22	17.3	87
89875	2024-10-21T11:11:22	17.5	86.5
89876	2024-10-21T11:21:22	17.8	85.5
89877	2024-10-21T11:31:22	18.1	86.5
89878	2024-10-21T11:41:22	18.2	85
89879	2024-10-21T11:51:22	18.5	83.5
89880	2024-10-21T12:01:22	18.6	83
89881	2024-10-21T12:11:22	18.7	83
89882	2024-10-21T12:21:22	18.7	83
89883	2024-10-21T12:31:22	18.8	83
89884	2024-10-21T12:41:22	19	80
89885	2024-10-21T12:51:22	19.2	81.5
89886	2024-10-21T13:01:22	19.5	79
89887	2024-10-21T13:11:22	19.7	78.5
89888	2024-10-21T13:21:22	19.8	79.5
89889	2024-10-21T13:31:22	20	80
89890	2024-10-21T13:41:22	20.3	80
89891	2024-10-21T13:51:22	20.5	79
89892	2024-10-21T14:01:22	20.2	76
89893	2024-10-21T14:11:22	20.2	79.5
89894	2024-10-21T14:21:22	20.4	80
89895	2024-10-21T14:31:22	20.6	80
89896	2024-10-21T14:41:22	20.7	80.5
89897	2024-10-21T14:51:22	20.5	80.5
89898	2024-10-21T15:01:22	20.5	81.5
89899	2024-10-21T15:11:22	20.3	82.5
89900	2024-10-21T15:21:22	20.1	82.5
89901	2024-10-21T15:31:22	20	84
89902	2024-10-21T15:41:22	19.7	85
89903	2024-10-21T15:51:22	19.4	86
89904	2024-10-21T16:01:22	19.2	86.5
89905	2024-10-21T16:11:22	19.1	87.5
89906	2024-10-21T16:21:21	18.7	88
89907	2024-10-21T16:31:21	18.5	87
89908	2024-10-21T16:41:21	18.4	87
89909	2024-10-21T16:51:21	18.1	88.5
89910	2024-10-21T17:01:21	17.9	89
89911	2024-10-21T17:06:28	17.9	89.5
89912	2024-10-21T17:16:28	17.7	89.5
89913	2024-10-21T17:26:28	17.4	89
89914	2024-10-21T17:36:28	17.3	89
89915	2024-10-21T17:46:28	17.3	90
89916	2024-10-21T17:56:28	17.2	90
89917	2024-10-21T18:06:28	16.9	90.5
89918	2024-10-21T18:16:28	16.8	90.5
89919	2024-10-21T18:26:28	16.5	90.5
89920	2024-10-21T18:36:28	16.4	90.5
89921	2024-10-21T18:46:28	16.3	90.5
89922	2024-10-21T18:56:28	16.2	90.5
89923	2024-10-21T19:06:28	16	90.5
89924	2024-10-21T19:16:28	15.9	90
89925	2024-10-21T19:26:28	15.7	90
89926	2024-10-21T19:36:28	15.6	90
89927	2024-10-21T19:46:28	15.5	90
89928	2024-10-21T19:56:28	15.3	90.5
89929	2024-10-21T20:06:28	15.2	90.5
89930	2024-10-21T20:16:28	15.1	90
89931	2024-10-21T20:26:28	15	89.5
89932	2024-10-21T20:36:28	14.8	89.5
89933	2024-10-21T20:46:28	14.8	89.5
89934	2024-10-21T20:56:28	14.6	88.5
89935	2024-10-21T21:06:28	14.6	90
89936	2024-10-21T21:16:28	14.5	90
89937	2024-10-21T21:26:28	14.3	90
89938	2024-10-21T21:36:28	14.2	90.5
89939	2024-10-21T21:46:28	14.2	88.5
89940	2024-10-21T21:56:28	14.1	89
89941	2024-10-21T22:06:28	14	90
89942	2024-10-21T22:16:28	13.7	90
89943	2024-10-21T22:26:28	13.7	90
89944	2024-10-21T22:36:28	13.7	89
89945	2024-10-21T22:46:28	13.6	89.5
89946	2024-10-21T22:56:28	13.6	90.5
89947	2024-10-21T23:31:56	13.5	90
89948	2024-10-21T23:31:56	13.5	90.5
89949	2024-10-21T23:31:56	13.3	90.5
89950	2024-10-21T23:36:28	13.3	91
89951	2024-10-21T23:46:28	13.2	91
89952	2024-10-21T23:56:28	13.1	90
89953	2024-10-22T00:06:28	13.1	90
89954	2024-10-22T00:16:28	12.9	90
89955	2024-10-22T00:26:28	12.9	90
89956	2024-10-22T00:36:28	12.7	90.5
89957	2024-10-22T00:46:28	12.9	91
89958	2024-10-22T00:56:28	13	91
89959	2024-10-22T01:06:28	12.9	91.5
89960	2024-10-22T01:16:28	13	91
89961	2024-10-22T01:26:28	12.9	92
89962	2024-10-22T01:36:28	13	92
89963	2024-10-22T01:46:28	13	92
89964	2024-10-22T01:56:28	13.1	92
89965	2024-10-22T02:06:28	13.1	92
89966	2024-10-22T02:16:28	13.2	92.5
89967	2024-10-22T02:26:28	13.1	92.5
89968	2024-10-22T02:36:28	13.1	93
89969	2024-10-22T02:46:28	13.2	93.5
89970	2024-10-22T02:56:28	13.3	93.5
89971	2024-10-22T03:06:28	13.4	94
89972	2024-10-22T03:16:28	13.5	95
89973	2024-10-22T03:26:28	13.7	95.5
89974	2024-10-22T03:36:28	13.7	95
89975	2024-10-22T03:46:28	13.8	95
89976	2024-10-22T03:56:28	13.9	95
89977	2024-10-22T04:06:28	13.9	95
89978	2024-10-22T04:16:28	14	96
89979	2024-10-22T04:26:28	14	96
89980	2024-10-22T04:36:28	14.1	97
89981	2024-10-22T04:46:28	14.1	97
89982	2024-10-22T04:56:28	14.1	97.5
89983	2024-10-22T05:06:28	14.3	97.5
89984	2024-10-22T05:16:28	14.3	97.5
89985	2024-10-22T05:26:27	14.3	97.5
89986	2024-10-22T05:36:28	14.4	97.5
89987	2024-10-22T05:46:27	14.4	97
89988	2024-10-22T05:56:27	14.4	98
89989	2024-10-22T06:06:27	14.5	97.5
89990	2024-10-22T06:16:27	14.5	97
89991	2024-10-22T06:26:27	14.5	99
89992	2024-10-22T06:36:27	14.6	99
89993	2024-10-22T06:46:27	14.6	99
89994	2024-10-22T06:56:27	14.7	99
89995	2024-10-22T07:06:27	14.8	98.5
89996	2024-10-22T07:16:27	14.7	99.5
89997	2024-10-22T07:26:27	14.9	99.5
89998	2024-10-22T07:36:27	15	99.5
89999	2024-10-22T07:46:27	15.1	100
90000	2024-10-22T07:56:27	15.1	100
90001	2024-10-22T08:06:27	15.3	100
90002	2024-10-22T08:16:27	15.5	99.5
90003	2024-10-22T08:26:27	15.7	99
90004	2024-10-22T08:36:27	15.8	98.5
90005	2024-10-22T08:46:27	16	98
90006	2024-10-22T08:56:27	16	97.5
90007	2024-10-22T09:06:27	16.3	96.5
90008	2024-10-22T09:16:27	16.5	96.5
90009	2024-10-22T09:26:27	16.5	95.5
90010	2024-10-22T09:36:27	16.7	95
90011	2024-10-22T09:46:27	16.8	92.5
90012	2024-10-22T09:56:28	16.9	92.5
90013	2024-10-22T10:06:27	17	94.5
90014	2024-10-22T10:16:27	16.7	96
90015	2024-10-22T10:26:27	16.6	97
90016	2024-10-22T10:36:27	16.3	99.5
90017	2024-10-22T10:46:27	16.3	98.5
90018	2024-10-22T10:56:27	16.5	98.5
90019	2024-10-22T11:06:27	16.7	98.5
90020	2024-10-22T11:16:27	16.7	93.5
90021	2024-10-22T11:26:27	16.6	96
90022	2024-10-22T11:36:27	16.8	95.5
90023	2024-10-22T11:46:27	16.8	94
90024	2024-10-22T11:56:27	16.8	93.5
90025	2024-10-22T12:06:27	16.8	90
90026	2024-10-22T12:16:27	16.7	88
90027	2024-10-22T12:26:27	17	86
90028	2024-10-22T12:36:27	17.2	88
90029	2024-10-22T12:46:27	17.9	83
90030	2024-10-22T12:56:27	18.2	83
90031	2024-10-22T13:06:27	18.4	81.5
90032	2024-10-22T13:16:27	18.2	82.5
90033	2024-10-22T13:26:27	18.2	82.5
90034	2024-10-22T13:36:27	18.9	83
90035	2024-10-22T13:46:27	19.1	81
90036	2024-10-22T13:56:27	18.9	81.5
90037	2024-10-22T14:06:27	18.4	83
90038	2024-10-22T14:16:27	18.2	79.5
90039	2024-10-22T14:26:27	17.9	83
90040	2024-10-22T14:36:27	17.7	82.5
90041	2024-10-22T14:46:27	17.6	80.5
90042	2024-10-22T14:56:27	17.5	80.5
90043	2024-10-22T15:06:27	17.4	83
90044	2024-10-22T15:16:27	17.2	83.5
90045	2024-10-22T15:26:27	17.2	84.5
90046	2024-10-22T15:36:27	17.1	82.5
90047	2024-10-22T15:46:27	17	83.5
90048	2024-10-22T15:56:27	16.8	82
90049	2024-10-22T16:06:27	16.9	84.5
90050	2024-10-22T16:16:27	16.7	84.5
90051	2024-10-22T16:26:27	16.8	86
90052	2024-10-22T16:36:27	16.6	86.5
90053	2024-10-22T16:46:27	16.6	86
90054	2024-10-22T16:56:27	16.5	86.5
90055	2024-10-22T17:06:27	16.4	86
90056	2024-10-22T17:16:27	16.3	87
90057	2024-10-22T17:26:26	16.3	86
90058	2024-10-22T17:36:26	16.1	84.5
90059	2024-10-22T17:46:26	16	87
90060	2024-10-22T17:56:26	16	86.5
90061	2024-10-22T18:06:26	15.8	84.5
90062	2024-10-22T18:16:26	15.6	83.5
90063	2024-10-22T18:26:26	15.6	85.5
90064	2024-10-22T18:36:26	15.7	85
90065	2024-10-22T18:46:26	15.6	86
90066	2024-10-22T18:56:26	15.5	85
90067	2024-10-22T19:06:26	15.3	86
90068	2024-10-22T19:16:26	15	85
90069	2024-10-22T19:26:26	14.7	86.5
90070	2024-10-22T19:46:26	14.4	88.5
90071	2024-10-22T19:56:26	14.2	89
90072	2024-10-22T20:06:26	14.1	88
90073	2024-10-22T20:16:26	13.9	88.5
90074	2024-10-22T20:36:26	13.6	89
90075	2024-10-22T20:46:26	13.5	89
90076	2024-10-22T20:56:26	13.4	88.5
90077	2024-10-22T21:06:26	13.3	89
90078	2024-10-22T21:16:26	13.1	89
90079	2024-10-22T21:26:26	13	88.5
90080	2024-10-22T21:36:26	12.9	88.5
90081	2024-10-22T21:46:26	12.7	89
90082	2024-10-22T21:56:26	12.7	88.5
90083	2024-10-22T22:06:26	12.4	87.5
90084	2024-10-22T22:16:26	12.4	88
90085	2024-10-22T22:26:26	12.2	88.5
90086	2024-10-22T22:36:26	12	88
90087	2024-10-22T22:46:26	11.8	88.5
90088	2024-10-22T22:56:26	11.8	89
90089	2024-10-22T23:31:43	11.9	89
90090	2024-10-22T23:31:43	11.8	88.5
90091	2024-10-22T23:31:43	11.6	88
90092	2024-10-22T23:36:26	11.5	88.5
90093	2024-10-22T23:46:26	11.4	89
90094	2024-10-22T23:56:26	11.3	89.5
90095	2024-10-23T00:06:26	11.1	89.5
90096	2024-10-23T00:16:26	11.1	88.5
90097	2024-10-23T00:26:26	10.9	89.5
90098	2024-10-23T00:36:26	10.9	90
90099	2024-10-23T00:46:26	10.7	88.5
90100	2024-10-23T00:56:26	10.7	89
90101	2024-10-23T01:06:26	10.6	88.5
90102	2024-10-23T01:16:26	10.5	89
90103	2024-10-23T01:26:26	10.5	89.5
90104	2024-10-23T01:36:26	10.3	89
90105	2024-10-23T01:46:26	10.2	88.5
90106	2024-10-23T01:56:26	10.2	89.5
90107	2024-10-23T02:06:26	10	89
90108	2024-10-23T02:16:26	9.9	90
90109	2024-10-23T02:26:26	9.8	89
90110	2024-10-23T02:36:26	9.6	89.5
90111	2024-10-23T02:46:26	9.7	90
90112	2024-10-23T02:56:26	9.6	90
90113	2024-10-23T03:06:26	9.5	91
90114	2024-10-23T03:16:26	9.4	89.5
90115	2024-10-23T03:26:26	9.3	90.5
90116	2024-10-23T03:36:26	9.3	90.5
90117	2024-10-23T03:46:26	9.1	90.5
90118	2024-10-23T03:56:26	9	90.5
90119	2024-10-23T04:06:26	9	91
90120	2024-10-23T04:16:26	9	90
90121	2024-10-23T04:26:26	8.9	91.5
90122	2024-10-23T04:36:26	8.7	90.5
90123	2024-10-23T04:46:26	8.7	91
90124	2024-10-23T04:56:26	8.7	91.5
90125	2024-10-23T05:06:26	8.6	91
90126	2024-10-23T05:16:26	8.4	92
90127	2024-10-23T05:26:26	8.3	91.5
90128	2024-10-23T05:36:26	8.4	91.5
90129	2024-10-23T05:46:26	8.2	91.5
90130	2024-10-23T05:56:26	8.1	92
90131	2024-10-23T06:06:26	8	92.5
90132	2024-10-23T06:16:26	8.1	92
90133	2024-10-23T06:26:26	8	91.5
90134	2024-10-23T06:36:26	8	92
90135	2024-10-23T06:46:26	7.9	91.5
90136	2024-10-23T06:56:26	7.9	92
90137	2024-10-23T07:06:26	8	92
90138	2024-10-23T07:16:26	8	93
90139	2024-10-23T07:26:26	8.2	93.5
90140	2024-10-23T07:36:26	8.3	93.5
90141	2024-10-23T07:46:26	8.4	94
90142	2024-10-23T07:56:26	8.6	95
90143	2024-10-23T08:06:26	8.7	95
90144	2024-10-23T08:16:26	9	96
90145	2024-10-23T08:26:26	9.1	96
90146	2024-10-23T08:36:26	9.2	96.5
90147	2024-10-23T08:46:26	9.5	96.5
90148	2024-10-23T08:56:26	9.7	97
90149	2024-10-23T09:06:26	10	96.5
90150	2024-10-23T09:16:26	10.2	96.5
90151	2024-10-23T09:26:26	10.5	96
90152	2024-10-23T09:36:26	10.6	96
90153	2024-10-23T09:46:26	10.8	95
90154	2024-10-23T09:56:26	11	94
90155	2024-10-23T10:06:26	11.3	93
90156	2024-10-23T10:16:26	11.7	91
90157	2024-10-23T10:26:25	11.8	90
90158	2024-10-23T10:36:25	11.9	90.5
90159	2024-10-23T10:46:25	12.2	89
90160	2024-10-23T10:56:25	12.4	86.5
90161	2024-10-23T11:06:25	12.7	85.5
90162	2024-10-23T11:16:25	13	85.5
90163	2024-10-23T11:26:25	13.3	82.5
90164	2024-10-23T11:36:25	13.6	80
90165	2024-10-23T11:46:25	14.1	79.5
90166	2024-10-23T11:56:25	15.8	77
90167	2024-10-23T12:06:25	18.1	69
90168	2024-10-23T12:16:25	20.1	63.5
90169	2024-10-23T12:26:25	20.9	59
90170	2024-10-23T12:36:25	21.8	55.5
90171	2024-10-23T12:46:25	22.6	54.5
90172	2024-10-23T12:56:25	23.6	47.5
90173	2024-10-23T13:06:25	24.2	48.5
90174	2024-10-23T13:16:25	24.7	46
90175	2024-10-23T13:26:25	25.3	45.5
90176	2024-10-23T13:36:25	25.7	42.5
90177	2024-10-23T13:46:25	25.9	45
90178	2024-10-23T13:56:25	26.3	42.5
90179	2024-10-23T14:06:25	26.7	43
90180	2024-10-23T14:16:25	26.6	42
90181	2024-10-23T14:26:25	26.5	42
90182	2024-10-23T14:36:25	26.4	40.5
90183	2024-10-23T14:46:25	26.2	43
90184	2024-10-23T14:56:25	26.1	43.5
90185	2024-10-23T15:06:25	26.1	45
90186	2024-10-23T15:16:25	25.7	41
90187	2024-10-23T15:26:25	25.3	40.5
90188	2024-10-23T15:36:25	24.7	44.5
90189	2024-10-23T15:46:25	24.2	46
90190	2024-10-23T15:56:25	23.6	48.5
90191	2024-10-23T16:06:25	22.8	49.5
90192	2024-10-23T16:16:25	21.8	53
90193	2024-10-23T16:26:25	21	56
90194	2024-10-23T16:36:25	20.4	60
90195	2024-10-23T16:46:25	19.8	56.5
90196	2024-10-23T16:56:25	19.3	60
90197	2024-10-23T17:06:25	18.8	63
90198	2024-10-23T17:16:25	18.3	59
90199	2024-10-23T17:26:25	18	62
90200	2024-10-23T17:36:25	17.5	62.5
90201	2024-10-23T17:46:25	17.2	65.5
90202	2024-10-23T17:56:25	16.7	64.5
90203	2024-10-23T18:16:25	16	66.5
90204	2024-10-23T18:26:25	15.5	67
90205	2024-10-23T18:36:25	15.2	68.5
90206	2024-10-23T18:46:25	15	70
90207	2024-10-23T18:56:25	14.7	70
90208	2024-10-23T19:06:25	14.5	71
90209	2024-10-23T19:16:25	14.3	71.5
90210	2024-10-23T19:26:25	14.1	72.5
90211	2024-10-23T19:36:25	13.9	75.5
90212	2024-10-23T19:46:25	13.9	75
90213	2024-10-23T19:56:25	13.9	75
90214	2024-10-23T20:06:25	13.8	76.5
90215	2024-10-23T20:16:25	13.7	77
90216	2024-10-23T20:26:25	13.5	78.5
90217	2024-10-23T20:36:25	13.4	77.5
90218	2024-10-23T20:46:25	13.1	78
90219	2024-10-23T20:56:25	13.1	79
90220	2024-10-23T21:06:25	12.7	78.5
90221	2024-10-23T21:16:25	12.5	79.5
90222	2024-10-23T21:26:25	12.4	80
90223	2024-10-23T21:36:25	12.2	81
90224	2024-10-23T21:46:25	12.2	82
90225	2024-10-23T21:56:25	12.1	82
90226	2024-10-23T22:06:25	11.9	82.5
90227	2024-10-23T22:16:25	12	83
90228	2024-10-23T22:26:25	11.8	83.5
90229	2024-10-23T22:36:24	11.9	83.5
90230	2024-10-23T22:46:24	11.8	83.5
90231	2024-10-23T22:56:24	11.8	85
90232	2024-10-23T23:32:04	11.9	84.5
90233	2024-10-23T23:32:04	11.8	85
90234	2024-10-23T23:32:05	11.6	84.5
90235	2024-10-23T23:36:24	11.6	85
90236	2024-10-23T23:46:24	11.5	84.5
90237	2024-10-23T23:56:24	11.3	84
90238	2024-10-24T00:06:24	11	85
90239	2024-10-24T00:16:24	10.9	86.5
90240	2024-10-24T00:26:24	11	86.5
90241	2024-10-24T00:36:24	10.9	87
90242	2024-10-24T00:46:24	10.9	87.5
90243	2024-10-24T00:56:24	10.8	87.5
90244	2024-10-24T01:06:24	10.9	88
90245	2024-10-24T01:16:24	10.8	88
90246	2024-10-24T01:26:24	10.6	88
90247	2024-10-24T01:36:24	10.6	88.5
90248	2024-10-24T01:46:24	10.7	88.5
90249	2024-10-24T01:56:24	10.6	89
90250	2024-10-24T02:06:24	10.7	89.5
90251	2024-10-24T02:16:24	10.7	89.5
90252	2024-10-24T02:26:24	10.7	90.5
90253	2024-10-24T02:36:24	10.7	90
90254	2024-10-24T02:46:24	10.6	89.5
90255	2024-10-24T02:56:24	10.7	90
90256	2024-10-24T03:06:24	10.8	90
90257	2024-10-24T03:16:24	11	90.5
90258	2024-10-24T03:26:24	11.1	90.5
90259	2024-10-24T03:36:24	11.2	90.5
90260	2024-10-24T03:46:24	11.2	91
90261	2024-10-24T03:56:24	11.4	91
90262	2024-10-24T04:06:24	11.3	91
90263	2024-10-24T04:16:24	11.5	91.5
90264	2024-10-24T04:26:24	11.5	91.5
90265	2024-10-24T04:36:24	11.6	92
90266	2024-10-24T04:46:24	11.7	92
90267	2024-10-24T04:56:24	11.8	92
90268	2024-10-24T05:06:24	11.9	91.5
90269	2024-10-24T05:16:24	11.9	91.5
90270	2024-10-24T05:26:24	12	91.5
90271	2024-10-24T05:36:24	12	91.5
90272	2024-10-24T05:46:24	12.1	91.5
90273	2024-10-24T06:06:24	12.2	91
90274	2024-10-24T06:16:24	12.3	91
90275	2024-10-24T06:26:24	12.3	91
90276	2024-10-24T06:36:24	12.4	91
90277	2024-10-24T06:46:24	12.5	90.5
90278	2024-10-24T06:56:24	12.7	90
90279	2024-10-24T07:06:24	12.7	90
90280	2024-10-24T07:16:24	12.8	89.5
90281	2024-10-24T07:26:24	12.9	89.5
90282	2024-10-24T07:36:24	12.9	89.5
90283	2024-10-24T07:46:24	13.1	89.5
90284	2024-10-24T07:56:24	13.2	89.5
90285	2024-10-24T08:06:24	13.3	89
90286	2024-10-24T08:16:24	13.4	89
90287	2024-10-24T08:26:24	13.6	89
90288	2024-10-24T08:36:24	13.6	89
90289	2024-10-24T08:46:24	13.8	88.5
90290	2024-10-24T08:56:24	13.9	88
90291	2024-10-24T09:06:24	14	87.5
90292	2024-10-24T09:16:24	14	88
90293	2024-10-24T09:26:24	14.2	88
90294	2024-10-24T09:36:24	14.3	87.5
90295	2024-10-24T09:56:24	14.3	87
90296	2024-10-24T10:06:24	14.4	86.5
90297	2024-10-24T10:16:24	14.7	86.5
90298	2024-10-24T10:26:24	14.8	86.5
90299	2024-10-24T10:36:24	14.9	87
90300	2024-10-24T10:46:24	15	86.5
90301	2024-10-24T10:56:24	15.2	86
90302	2024-10-24T11:06:24	15.2	85.5
90303	2024-10-24T11:16:24	15.3	85
90304	2024-10-24T11:26:24	15.4	85
90305	2024-10-24T11:36:24	15.5	85
90306	2024-10-24T11:46:24	15.5	83
90307	2024-10-24T11:56:24	15.5	83
90308	2024-10-24T12:06:24	15.7	82
90309	2024-10-24T12:16:24	15.7	82
90310	2024-10-24T12:26:24	15.7	81
90311	2024-10-24T12:36:24	15.7	81
90312	2024-10-24T12:46:24	15.9	82
90313	2024-10-24T12:56:24	15.8	78.5
90314	2024-10-24T13:06:24	15.8	79.5
90315	2024-10-24T13:16:23	15.8	81
90316	2024-10-24T13:26:23	15.7	80
90317	2024-10-24T13:36:23	15.9	80.5
90318	2024-10-24T13:46:23	16.3	81
90319	2024-10-24T13:56:23	18.4	77.5
90320	2024-10-24T14:06:23	20.5	70.5
90321	2024-10-24T14:16:23	21.7	63.5
90322	2024-10-24T14:26:23	22.4	63.5
90323	2024-10-24T14:36:23	22.7	62.5
90324	2024-10-24T14:46:23	23.2	61
90325	2024-10-24T14:56:23	23.6	60.5
90326	2024-10-24T15:06:23	23.5	57
90327	2024-10-24T15:16:23	23.4	56.5
90328	2024-10-24T15:26:23	23	60
90329	2024-10-24T15:36:23	22.9	62
90330	2024-10-24T15:46:23	21.9	61
90331	2024-10-24T15:56:23	21.1	65
90332	2024-10-24T16:06:23	20.5	67.5
90333	2024-10-24T16:16:23	19.7	67.5
90334	2024-10-24T16:26:23	19	70.5
90335	2024-10-24T16:36:23	18.6	73
90336	2024-10-24T16:46:23	18.2	73
90337	2024-10-24T16:56:23	17.6	73.5
90338	2024-10-24T17:06:23	17.4	74.5
90339	2024-10-24T17:16:23	17.4	77
90340	2024-10-24T17:26:23	17.2	77.5
90341	2024-10-24T17:36:23	17	78.5
90342	2024-10-24T17:46:23	16.8	79
90343	2024-10-24T17:56:23	16.5	79.5
90344	2024-10-24T18:06:23	16.4	80
90345	2024-10-24T18:16:23	16.1	79.5
90346	2024-10-24T18:26:23	15.9	80.5
90347	2024-10-24T18:36:23	15.7	80
90348	2024-10-24T18:46:23	15.4	80.5
90349	2024-10-24T18:56:23	15.2	82.5
90350	2024-10-24T19:06:23	15	82.5
90351	2024-10-24T19:16:23	14.9	82.5
90352	2024-10-24T19:26:23	14.8	82
90353	2024-10-24T19:36:23	14.6	81.5
90354	2024-10-24T19:46:23	14.3	84
90355	2024-10-24T19:56:23	14.2	84
90356	2024-10-24T20:06:23	14.1	84
90357	2024-10-24T20:16:23	13.9	84
90358	2024-10-24T20:26:23	13.9	84.5
90359	2024-10-24T20:36:23	13.8	85
90360	2024-10-24T20:46:23	13.7	85.5
90361	2024-10-24T20:56:23	13.6	85.5
90362	2024-10-24T21:06:23	13.3	85
90363	2024-10-24T21:16:23	13.1	83.5
90364	2024-10-24T21:26:23	12.9	85.5
90365	2024-10-24T21:46:23	12.5	89
90366	2024-10-24T21:56:23	12.5	87
90367	2024-10-24T22:06:23	12.3	88.5
90368	2024-10-24T22:26:23	12.2	87.5
90369	2024-10-24T22:36:23	12	87.5
90370	2024-10-24T22:46:23	12	88
90371	2024-10-24T22:56:23	11.9	88.5
90372	2024-10-24T23:35:15	11.8	88
90373	2024-10-24T23:35:15	11.8	88
90374	2024-10-24T23:35:16	11.7	87
90375	2024-10-24T23:36:23	11.8	87.5
90376	2024-10-24T23:46:23	11.9	87.5
90377	2024-10-24T23:56:23	11.9	87.5
90378	2024-10-25T00:06:23	11.9	87.5
90379	2024-10-25T00:26:23	11.8	88
90380	2024-10-25T00:36:23	11.8	87.5
90381	2024-10-25T00:46:23	11.7	88.5
90382	2024-10-25T00:56:23	11.6	88.5
90383	2024-10-25T01:06:23	11.7	89
90384	2024-10-25T01:16:23	11.6	89.5
90385	2024-10-25T01:26:23	11.6	89.5
90386	2024-10-25T01:36:23	11.5	90
90387	2024-10-25T01:46:23	11.6	90
90388	2024-10-25T01:56:23	11.4	89.5
90389	2024-10-25T02:06:22	11.5	89.5
90390	2024-10-25T02:16:22	11.6	89
90391	2024-10-25T02:26:22	11.5	89.5
90392	2024-10-25T02:36:22	11.6	89.5
90393	2024-10-25T02:46:22	11.6	90
90394	2024-10-25T02:56:22	11.6	90.5
90395	2024-10-25T03:06:22	11.7	90.5
90396	2024-10-25T03:16:22	11.7	90.5
90397	2024-10-25T03:26:22	11.6	90.5
90398	2024-10-25T03:36:22	11.6	92.5
90399	2024-10-25T03:46:22	11.4	91.5
90400	2024-10-25T03:56:22	11.3	92.5
90401	2024-10-25T04:06:22	11.4	93
90402	2024-10-25T04:16:22	11.4	92.5
90403	2024-10-25T04:26:22	11.4	92
90404	2024-10-25T04:36:22	11.2	92.5
90405	2024-10-25T04:46:22	11.4	92.5
90406	2024-10-25T04:56:22	11.3	92.5
90407	2024-10-25T05:06:22	11.2	92.5
90408	2024-10-25T05:16:22	11.2	92.5
90409	2024-10-25T05:26:22	11.2	93
90410	2024-10-25T05:36:22	11.3	92.5
90411	2024-10-25T05:56:22	11.3	92.5
90412	2024-10-25T06:06:22	11.3	93
90413	2024-10-25T06:16:22	11.5	93
90414	2024-10-25T06:26:22	11.5	93.5
90415	2024-10-25T06:36:22	11.6	94
90416	2024-10-25T06:46:22	11.6	94
90417	2024-10-25T06:56:22	11.6	94
90418	2024-10-25T07:06:22	11.7	94
90419	2024-10-25T07:16:22	11.8	94.5
90420	2024-10-25T07:26:22	11.9	94.5
90421	2024-10-25T07:36:22	11.9	94.5
90422	2024-10-25T07:46:22	11.9	94.5
90423	2024-10-25T07:56:22	12	95
90424	2024-10-25T08:06:22	12.2	94.5
90425	2024-10-25T08:16:22	12.3	93.5
90426	2024-10-25T08:26:22	12.4	93.5
90427	2024-10-25T08:36:22	12.7	93
90428	2024-10-25T08:46:22	12.8	93
90429	2024-10-25T08:56:22	12.9	93
90430	2024-10-25T09:06:22	12.7	93.5
90431	2024-10-25T09:16:22	12.7	94.5
90432	2024-10-25T09:26:22	12.7	95
90433	2024-10-25T09:36:22	12.9	96
90434	2024-10-25T09:46:22	13	96.5
90435	2024-10-25T09:56:22	13.2	96
90436	2024-10-25T10:06:22	13.3	96.5
90437	2024-10-25T10:16:22	13.6	96.5
90438	2024-10-25T10:26:22	13.8	95.5
90439	2024-10-25T10:36:22	14.2	95
90440	2024-10-25T10:46:22	14.4	94
90441	2024-10-25T10:56:22	14.6	94
90442	2024-10-25T11:06:22	14.8	93
90443	2024-10-25T11:16:22	15.3	91
90444	2024-10-25T11:26:22	15.7	90.5
90445	2024-10-25T11:36:22	16	89
90446	2024-10-25T11:46:22	16.7	88
90447	2024-10-25T11:56:22	19.3	81.5
90448	2024-10-25T12:06:22	21.5	75
90449	2024-10-25T12:16:22	22.9	68
90450	2024-10-25T12:26:22	24.2	67.5
90451	2024-10-25T12:36:22	25.2	63.5
90452	2024-10-25T12:46:22	26	58.5
90453	2024-10-25T12:56:22	26.6	58
90454	2024-10-25T13:06:22	27.1	56.5
90455	2024-10-25T13:16:22	27.6	55.5
90456	2024-10-25T13:26:22	28	55
90457	2024-10-25T13:36:22	28.4	53.5
90458	2024-10-25T13:46:22	28.7	51.5
90459	2024-10-25T13:56:22	28.8	52.5
90460	2024-10-25T14:06:22	29.2	53
90461	2024-10-25T14:16:22	29.3	53
90462	2024-10-25T14:26:22	29.3	51.5
90463	2024-10-25T14:36:22	29	52
90464	2024-10-25T14:46:22	29.2	52
90465	2024-10-25T14:56:22	29.4	53
90466	2024-10-25T15:06:22	28.9	54
90467	2024-10-25T15:16:21	28.3	53.5
90468	2024-10-25T15:26:21	28	54.5
90469	2024-10-25T15:36:21	27.3	57.5
90470	2024-10-25T15:46:21	26.5	60
90471	2024-10-25T15:56:21	26.2	63
90472	2024-10-25T16:06:21	25.5	65.5
90473	2024-10-25T16:16:21	24.7	67
90474	2024-10-25T16:26:21	24.1	68.5
90475	2024-10-25T16:36:21	23.5	68
90476	2024-10-25T16:46:21	22.7	68
90477	2024-10-25T16:56:21	22.2	69
90478	2024-10-25T17:06:21	21.9	70.5
90479	2024-10-25T17:16:21	21.7	71
90480	2024-10-25T17:26:21	21.4	73
90481	2024-10-25T17:36:21	21.1	73
90482	2024-10-25T17:46:21	20.7	73.5
90483	2024-10-25T17:56:21	20.5	74.5
90484	2024-10-25T18:06:21	20.2	75
90485	2024-10-25T18:16:21	19.9	74.5
90486	2024-10-25T18:26:21	19.7	76
90487	2024-10-25T18:36:21	19.5	76.5
90488	2024-10-25T18:46:21	19.4	77
90489	2024-10-25T18:56:21	18.9	75.5
90490	2024-10-25T19:06:21	18.7	78
90491	2024-10-25T19:16:21	18.5	78
90492	2024-10-25T19:26:21	18.5	78
90493	2024-10-25T19:36:21	18.2	78
90494	2024-10-25T19:46:21	18	78
90495	2024-10-25T19:56:41	17.7	78.5
90496	2024-10-25T20:06:21	17.5	78.5
90497	2024-10-25T20:16:21	17.3	79.5
90498	2024-10-25T20:26:21	17.2	80
90499	2024-10-25T20:36:21	17.1	79.5
90500	2024-10-25T20:46:21	17	80
90501	2024-10-25T20:56:21	16.9	80
90502	2024-10-25T21:06:21	16.6	80.5
90503	2024-10-25T21:16:21	16.4	80
90504	2024-10-25T21:26:21	16.3	80
90505	2024-10-25T21:36:21	15.9	81.5
90506	2024-10-25T21:46:21	15.8	82
90507	2024-10-25T21:56:21	15.8	82.5
90508	2024-10-25T22:06:21	15.5	80.5
90509	2024-10-25T22:16:21	15.1	80.5
90510	2024-10-25T22:26:21	14.8	82
90511	2024-10-25T22:36:21	14.7	83.5
90512	2024-10-25T22:46:21	14.7	84
90513	2024-10-25T22:56:21	14.6	84.5
90514	2024-10-25T23:33:32	14.5	84
90515	2024-10-25T23:33:32	14.4	84
90516	2024-10-25T23:33:32	14.3	84.5
90517	2024-10-25T23:36:21	14.1	84
90518	2024-10-25T23:46:21	14	84.5
90519	2024-10-25T23:56:21	14	84.5
90520	2024-10-26T00:06:21	13.8	84.5
90521	2024-10-26T00:16:21	13.7	84
90522	2024-10-26T00:26:21	13.4	81.5
90523	2024-10-26T00:36:21	13.4	83.5
90524	2024-10-26T00:46:21	13.1	83
90525	2024-10-26T00:56:21	13.1	84
90526	2024-10-26T01:06:21	13.2	84.5
90527	2024-10-26T01:16:21	13.3	84.5
90528	2024-10-26T01:26:21	13.2	84.5
90529	2024-10-26T01:36:21	13.2	84.5
90530	2024-10-26T01:46:21	13.3	85.5
90531	2024-10-26T01:56:21	13.1	90
90532	2024-10-26T02:06:21	12.9	95.5
90533	2024-10-26T02:16:21	12.8	95
90534	2024-10-26T02:26:21	12.5	90.5
90535	2024-10-26T02:36:21	12.4	88
90536	2024-10-26T02:46:21	12.3	87.5
90537	2024-10-26T02:56:21	12.2	87.5
90538	2024-10-26T03:06:21	12.2	88
90539	2024-10-26T03:16:21	12.1	88
90540	2024-10-26T03:26:21	12.1	88.5
90541	2024-10-26T03:36:21	12.1	92.5
90542	2024-10-26T03:46:21	11.9	93.5
90543	2024-10-26T03:56:21	11.7	91
90544	2024-10-26T04:06:20	11.5	88
90545	2024-10-26T04:16:20	11.4	88.5
90546	2024-10-26T04:26:20	11.4	88
90547	2024-10-26T04:36:20	11.4	88
90548	2024-10-26T04:46:20	11.2	87.5
90549	2024-10-26T04:56:20	11.1	88
90550	2024-10-26T05:06:20	11	88.5
90551	2024-10-26T05:16:20	10.9	88.5
90552	2024-10-26T05:26:20	10.9	87.5
90553	2024-10-26T05:36:20	10.8	88
90554	2024-10-26T05:46:20	10.8	88.5
90555	2024-10-26T05:56:20	10.7	89
90556	2024-10-26T06:06:20	10.6	88.5
90557	2024-10-26T06:16:20	10.5	89
90558	2024-10-26T06:26:20	10.4	90
90559	2024-10-26T06:36:20	10.5	90
90560	2024-10-26T06:46:20	10.5	90
90561	2024-10-26T06:56:20	10.5	90.5
90562	2024-10-26T07:06:20	10.7	90.5
90563	2024-10-26T07:16:20	10.9	90.5
90564	2024-10-26T07:26:20	10.9	90.5
90565	2024-10-26T07:36:20	11	90.5
90566	2024-10-26T07:46:20	11.2	91
90567	2024-10-26T07:56:20	11.3	90.5
90568	2024-10-26T08:06:20	11.6	90
90569	2024-10-26T08:16:20	11.9	90
90570	2024-10-26T08:26:20	12	89
90571	2024-10-26T08:36:20	12.4	88.5
90572	2024-10-26T08:46:20	12.5	88.5
90573	2024-10-26T08:56:20	12.7	87.5
90574	2024-10-26T09:06:20	12.9	86.5
90575	2024-10-26T09:16:20	13.1	86
90576	2024-10-26T09:26:20	13.3	85
90577	2024-10-26T09:36:20	13.6	85.5
90578	2024-10-26T09:46:20	13.8	84
90579	2024-10-26T09:56:20	14.2	84
90580	2024-10-26T10:06:20	14.4	83
90581	2024-10-26T10:16:20	14.4	82.5
90582	2024-10-26T10:26:20	14.4	83.5
90583	2024-10-26T10:36:20	14.5	83
90584	2024-10-26T10:46:20	14.4	83.5
90585	2024-10-26T10:56:20	14.5	83
90586	2024-10-26T11:06:20	14.7	82.5
90587	2024-10-26T11:16:20	15	81.5
90588	2024-10-26T11:26:20	15.2	81
90589	2024-10-26T11:36:20	15.6	80.5
90590	2024-10-26T11:46:20	16.2	78.5
90591	2024-10-26T11:56:20	18.5	73.5
90592	2024-10-26T12:06:20	20.2	67.5
90593	2024-10-26T12:16:20	21.6	63.5
90594	2024-10-26T12:26:20	22.5	61.5
90595	2024-10-26T12:36:20	23.3	60.5
90596	2024-10-26T12:46:20	24	56.5
90597	2024-10-26T12:56:20	24.2	54.5
90598	2024-10-26T13:06:20	24.1	54.5
90599	2024-10-26T13:16:20	24.4	56.5
90600	2024-10-26T13:26:20	24.3	57
90601	2024-10-26T13:36:20	25.1	54
90602	2024-10-26T13:46:20	24.5	55
90603	2024-10-26T13:56:20	24.2	57
90604	2024-10-26T14:06:20	24.2	55
90605	2024-10-26T14:16:20	25	55.5
90606	2024-10-26T14:26:20	24.8	55
90607	2024-10-26T14:36:20	24.5	55.5
90608	2024-10-26T14:46:20	24.5	54
90609	2024-10-26T14:56:20	24.5	55.5
90610	2024-10-26T15:06:20	24.1	55.5
90611	2024-10-26T15:16:20	24	56.5
90612	2024-10-26T15:26:20	23.6	57
90613	2024-10-26T15:36:20	23.2	58.5
90614	2024-10-26T15:46:20	22.4	62.5
90615	2024-10-26T15:56:20	22	66
90616	2024-10-26T16:06:20	21.3	67
90617	2024-10-26T16:16:20	20.6	65.5
90618	2024-10-26T16:26:20	19.1	68
90619	2024-10-26T16:36:20	18.5	69
90620	2024-10-26T16:46:20	18	70.5
90621	2024-10-26T16:56:19	17.6	71.5
90622	2024-10-26T17:06:19	16.6	74.5
90623	2024-10-26T17:16:20	16.1	75.5
90624	2024-10-26T17:26:19	16	75.5
90625	2024-10-26T17:36:19	15.4	77.5
90626	2024-10-26T17:46:19	15	79
90627	2024-10-26T17:56:19	14.4	81
90628	2024-10-26T18:06:19	14.4	81
90629	2024-10-26T18:16:19	14.6	81
90630	2024-10-26T18:26:19	14.3	82
90631	2024-10-26T18:36:19	14.2	82.5
90632	2024-10-26T18:46:19	14.3	82.5
90633	2024-10-26T18:56:19	14.3	82
90634	2024-10-26T19:06:19	14.4	82
90635	2024-10-26T19:16:19	14.2	83
90636	2024-10-26T19:26:19	14.4	82.5
90637	2024-10-26T19:36:19	14.4	82
90638	2024-10-26T19:46:19	14.1	83
90639	2024-10-26T19:56:19	14	84
90640	2024-10-26T20:06:19	14	84
90641	2024-10-26T20:16:19	13.7	85
90642	2024-10-26T20:26:19	13.9	85
90643	2024-10-26T20:36:19	14.1	84.5
90644	2024-10-26T20:46:19	13.9	84.5
90645	2024-10-26T20:56:19	13.7	85
90646	2024-10-26T21:06:19	13.8	85.5
90647	2024-10-26T21:16:19	13.7	86
90648	2024-10-26T21:26:19	13.6	86.5
90649	2024-10-26T21:36:19	13.6	87
90650	2024-10-26T21:46:19	13.7	87.5
90651	2024-10-26T21:56:19	14	87.5
90652	2024-10-26T22:06:19	13.8	87
90653	2024-10-26T22:16:19	13.6	88.5
90654	2024-10-26T22:26:19	13.5	89
90655	2024-10-26T22:36:19	13.3	89.5
90656	2024-10-26T22:46:19	13.2	89.5
90657	2024-10-26T22:56:19	13.3	89
90658	2024-10-26T23:33:53	13.1	89.5
90659	2024-10-26T23:33:53	13.1	89
90660	2024-10-26T23:33:53	12.9	89.5
90661	2024-10-26T23:36:22	13.1	89.5
90662	2024-10-26T23:46:19	13.3	89
90663	2024-10-26T23:56:19	13.2	89
90664	2024-10-27T00:06:19	13.1	89
90665	2024-10-27T00:16:19	13.1	89
90666	2024-10-27T00:26:19	12.9	89
90667	2024-10-27T00:36:19	12.9	89
90668	2024-10-27T00:46:19	13	89.5
90669	2024-10-27T00:56:19	13.1	89.5
90670	2024-10-27T01:06:19	12.8	89.5
90671	2024-10-27T01:16:19	12.6	91
90672	2024-10-27T01:26:19	12.5	92
90673	2024-10-27T01:36:19	12.3	92
90674	2024-10-27T01:46:19	12.1	93
90675	2024-10-27T01:56:19	12.3	92.5
90676	2024-10-27T02:06:19	12.1	93
90677	2024-10-27T02:16:19	12	92.5
90678	2024-10-27T02:26:19	12.1	91.5
90679	2024-10-27T02:36:19	12.2	92
90680	2024-10-27T02:46:19	12.1	92
90681	2024-10-27T02:56:19	12.3	92.5
90682	2024-10-27T03:06:19	12.1	92.5
90683	2024-10-27T03:16:19	12	93
90684	2024-10-27T03:26:19	12.1	93
90685	2024-10-27T03:36:19	12.1	93
90686	2024-10-27T03:46:19	12.1	92.5
90687	2024-10-27T03:56:19	12.2	92
90688	2024-10-27T04:06:19	12.1	92
90689	2024-10-27T04:16:19	12.1	92.5
90690	2024-10-27T04:26:19	12	92.5
90691	2024-10-27T04:36:19	12	93
90692	2024-10-27T04:46:19	12	93.5
90693	2024-10-27T04:56:19	12	93
90694	2024-10-27T05:06:19	12	93
90695	2024-10-27T05:16:19	12.1	93.5
90696	2024-10-27T05:26:19	12	93
90697	2024-10-27T05:36:19	12.1	93
90698	2024-10-27T05:46:19	11.9	93
90699	2024-10-27T05:56:19	12	93
90700	2024-10-27T06:06:19	12.1	92.5
90701	2024-10-27T06:16:19	12.1	92.5
90702	2024-10-27T06:26:19	12	92.5
90703	2024-10-27T06:36:19	12.3	92
90704	2024-10-27T06:46:19	12.3	92
90705	2024-10-27T06:56:19	12.4	91.5
90706	2024-10-27T07:06:18	12.5	91
90707	2024-10-27T07:16:18	12.5	91
90708	2024-10-27T07:26:18	12.7	90.5
90709	2024-10-27T07:36:18	12.9	90
90710	2024-10-27T07:46:18	13	89.5
90711	2024-10-27T07:56:18	13	89.5
90712	2024-10-27T08:06:18	13.1	88.5
90713	2024-10-27T08:16:18	13.5	88.5
90714	2024-10-27T08:26:18	13.5	88
90715	2024-10-27T08:36:18	13.6	88
90716	2024-10-27T08:46:18	13.6	88
90717	2024-10-27T08:56:18	13.8	87.5
90718	2024-10-27T09:06:18	13.9	87.5
90719	2024-10-27T09:16:18	14.1	86.5
90720	2024-10-27T09:26:18	14.3	86
90721	2024-10-27T09:36:18	14.2	86.5
90722	2024-10-27T09:46:18	14.5	85.5
90723	2024-10-27T09:56:18	14.8	85
90724	2024-10-27T10:06:18	15	84.5
90725	2024-10-27T10:16:18	15.1	83.5
90726	2024-10-27T10:26:18	15.4	84
90727	2024-10-27T10:36:18	15.6	82.5
90728	2024-10-27T10:46:18	15.5	83
90729	2024-10-27T10:56:18	15.6	83.5
90730	2024-10-27T11:06:18	15.8	83
90731	2024-10-27T11:16:18	16.2	81
90732	2024-10-27T11:26:18	16.5	79.5
90733	2024-10-27T11:36:18	16.8	79.5
90734	2024-10-27T11:46:18	17.1	78
90735	2024-10-27T11:56:18	19.1	74.5
90736	2024-10-27T12:06:18	20.9	66.5
90737	2024-10-27T12:16:18	22	62.5
90738	2024-10-27T12:26:18	22.1	61
90739	2024-10-27T12:36:18	21.7	63
90740	2024-10-27T12:46:18	21.3	64
90741	2024-10-27T12:56:18	21.8	63
90742	2024-10-27T13:06:18	22.4	63
90743	2024-10-27T13:16:18	24.3	58.5
90744	2024-10-27T13:26:18	25.2	55.5
90745	2024-10-27T13:36:18	26.1	54.5
90746	2024-10-27T13:46:18	26.4	52.5
90747	2024-10-27T13:56:18	26.9	54
90748	2024-10-27T14:06:18	27.5	50.5
90749	2024-10-27T14:16:18	27.8	50.5
90750	2024-10-27T14:26:18	28.2	51
90751	2024-10-27T14:36:18	27.8	47.5
90752	2024-10-27T14:46:18	27.7	52
90753	2024-10-27T14:56:18	27.5	54.5
90754	2024-10-27T15:06:18	27.2	54
90755	2024-10-27T15:16:18	26.7	54.5
90756	2024-10-27T15:26:18	26.3	57.5
90757	2024-10-27T15:36:18	26	55.5
90758	2024-10-27T15:46:18	25.6	60
90759	2024-10-27T15:56:18	24.8	62
90760	2024-10-27T16:06:18	23.9	64.5
90761	2024-10-27T16:16:18	23.3	65.5
90762	2024-10-27T16:26:18	22.7	67
90763	2024-10-27T16:36:18	22.1	67.5
90764	2024-10-27T16:46:18	21.7	68.5
90765	2024-10-27T16:56:18	21.2	69.5
90766	2024-10-27T17:06:18	20.8	69.5
90767	2024-10-27T17:16:18	20.5	71
90768	2024-10-27T17:26:18	20.2	71.5
90769	2024-10-27T17:36:18	19.9	72
90770	2024-10-27T17:46:18	19.5	72
90771	2024-10-27T17:56:18	19.4	73.5
90772	2024-10-27T18:06:18	19.1	74
90773	2024-10-27T18:16:18	18.9	72.5
90774	2024-10-27T18:26:17	18.6	74
90775	2024-10-27T18:36:17	18.3	74.5
90776	2024-10-27T18:46:17	18.2	75.5
90777	2024-10-27T18:56:17	17.9	75
90778	2024-10-27T19:06:17	17.6	76.5
90779	2024-10-27T19:16:17	17.5	76.5
90780	2024-10-27T19:26:17	17.2	76
90781	2024-10-27T19:36:17	17	78
90782	2024-10-27T19:46:17	16.8	77.5
90783	2024-10-27T19:56:17	16.7	77.5
90784	2024-10-27T20:06:17	16.5	78
90785	2024-10-27T20:16:17	16.2	78.5
90786	2024-10-27T20:26:17	16	79
90787	2024-10-27T20:36:17	16	78.5
90788	2024-10-27T20:46:17	15.6	79.5
90789	2024-10-27T20:56:17	15.5	79.5
90790	2024-10-27T21:06:17	15.4	79.5
90791	2024-10-27T21:16:17	15.3	78.5
90792	2024-10-27T21:26:17	15	80
90793	2024-10-27T21:36:17	15	80
90794	2024-10-27T21:46:17	14.8	80.5
90795	2024-10-27T21:56:17	14.7	81
90796	2024-10-27T22:06:17	14.5	80.5
90797	2024-10-27T22:16:17	14.5	80.5
90798	2024-10-27T22:26:17	14.3	81.5
90799	2024-10-27T22:36:17	14.1	80.5
90800	2024-10-27T22:46:17	14.1	80.5
90801	2024-10-27T22:56:17	13.9	81.5
90802	2024-10-27T23:06:17	13.8	81.5
90803	2024-10-27T23:16:17	13.8	81.5
90804	2024-10-27T23:26:17	13.7	81
90805	2024-10-27T23:36:17	13.7	81.5
90806	2024-10-27T23:46:17	13.3	83.5
90807	2024-10-27T23:56:17	13.2	86.5
90808	2024-10-28T00:34:04	13.2	85.5
90809	2024-10-28T00:34:05	13.1	85
90810	2024-10-28T00:34:05	13	84
90811	2024-10-28T00:36:17	13.1	84
90812	2024-10-28T00:46:17	12.9	84.5
90813	2024-10-28T00:56:17	12.7	84
90814	2024-10-28T01:06:17	12.7	84.5
90815	2024-10-28T01:16:17	12.5	84
90816	2024-10-28T01:26:17	12.4	83.5
90817	2024-10-28T01:36:17	12.3	84
90818	2024-10-28T01:46:17	12.2	84
90819	2024-10-28T01:56:17	12.2	84.5
90820	2024-10-28T02:06:17	12.1	84
90821	2024-10-28T02:16:17	12	84
90822	2024-10-28T02:26:17	12	84.5
90823	2024-10-28T02:36:17	11.7	84.5
90824	2024-10-28T02:46:17	11.8	84.5
90825	2024-10-28T02:56:17	11.6	84.5
90826	2024-10-28T03:06:17	11.5	83.5
90827	2024-10-28T03:16:17	11.4	83.5
90828	2024-10-28T03:26:17	11.3	85
90829	2024-10-28T03:36:17	11.3	85
90830	2024-10-28T03:46:17	11.1	84.5
90831	2024-10-28T03:56:17	11.1	85
90832	2024-10-28T04:06:17	11.1	85
90833	2024-10-28T04:16:17	11.1	85.5
90834	2024-10-28T04:26:17	10.9	86.5
90835	2024-10-28T04:36:17	10.9	85.5
90836	2024-10-28T04:46:17	10.6	85.5
90837	2024-10-28T04:56:17	10.6	86.5
90838	2024-10-28T05:06:17	10.7	86.5
90839	2024-10-28T05:16:17	10.6	86
90840	2024-10-28T05:26:17	10.6	86
90841	2024-10-28T05:36:17	10.4	86
90842	2024-10-28T05:46:17	10.4	86.5
90843	2024-10-28T05:56:17	10.3	86.5
90844	2024-10-28T06:06:17	10.4	86
90845	2024-10-28T06:16:17	10.3	86.5
90846	2024-10-28T06:26:17	10.1	87
90847	2024-10-28T06:36:17	10.1	87
90848	2024-10-28T06:46:17	10.2	87
90849	2024-10-28T06:56:17	10.1	87
90850	2024-10-28T07:06:17	10.2	87.5
90851	2024-10-28T07:16:17	10.1	87.5
90852	2024-10-28T07:26:17	10.3	88.5
90853	2024-10-28T07:36:17	10.3	89
90854	2024-10-28T07:46:17	10.4	89
90855	2024-10-28T07:56:17	10.5	90
90856	2024-10-28T08:06:17	10.7	91.5
90857	2024-10-28T08:16:17	10.9	92.5
90858	2024-10-28T08:26:17	11.4	93.5
90859	2024-10-28T08:36:17	11.9	92.5
90860	2024-10-28T08:46:17	12.1	92.5
90861	2024-10-28T08:56:17	12	93
90862	2024-10-28T09:06:17	12.3	92.5
90863	2024-10-28T09:16:17	12.5	92.5
90864	2024-10-28T09:26:16	12.8	91.5
90865	2024-10-28T09:36:16	13	92
90866	2024-10-28T09:46:16	13.1	92.5
90867	2024-10-28T09:56:16	13.2	92
90868	2024-10-28T10:06:16	13.2	91.5
90869	2024-10-28T10:16:16	13.2	92
90870	2024-10-28T10:26:16	13.4	92.5
90871	2024-10-28T10:36:16	13.4	93
90872	2024-10-28T10:46:16	13.7	93
90873	2024-10-28T10:56:16	14	92.5
90874	2024-10-28T11:06:16	14.2	91.5
90875	2024-10-28T11:16:16	14.9	90.5
90876	2024-10-28T11:26:16	15.4	88.5
90877	2024-10-28T11:36:36	15.8	88.5
90878	2024-10-28T11:46:16	16.3	85.5
90879	2024-10-28T11:56:16	18.7	80
90880	2024-10-28T12:06:16	20.9	73
90881	2024-10-28T12:16:16	22.4	66.5
90882	2024-10-28T12:26:16	23.2	62.5
90883	2024-10-28T12:36:16	23.7	59.5
90884	2024-10-28T12:46:16	24.5	58.5
90885	2024-10-28T12:56:16	25.2	56
90886	2024-10-28T13:06:16	25.7	57.5
90887	2024-10-28T13:16:16	26.5	57.5
90888	2024-10-28T13:26:16	27.2	54.5
90889	2024-10-28T13:36:16	27.9	53.5
90890	2024-10-28T13:46:16	28.5	51
90891	2024-10-28T13:56:16	29	51.5
90892	2024-10-28T14:06:16	28.7	48
90893	2024-10-28T14:16:16	28.5	46.5
90894	2024-10-28T14:26:16	28	48
90895	2024-10-28T14:36:16	27.4	49
90896	2024-10-28T14:46:16	27.9	49
90897	2024-10-28T14:56:16	28.1	50
90898	2024-10-28T15:06:16	27.7	50
90899	2024-10-28T15:16:16	27.5	51.5
90900	2024-10-28T15:26:16	27.1	56.5
90901	2024-10-28T15:36:16	27.2	59
90902	2024-10-28T15:46:16	27	57.5
90903	2024-10-28T15:56:16	26.2	58
90904	2024-10-28T16:06:16	25.1	61
90905	2024-10-28T16:16:16	24.3	63
90906	2024-10-28T16:26:16	23.6	65
90907	2024-10-28T16:36:16	23	64
90908	2024-10-28T16:46:16	22.5	67
90909	2024-10-28T16:56:16	22.2	67.5
90910	2024-10-28T17:06:16	21.7	67
90911	2024-10-28T17:16:16	21.4	68
90912	2024-10-28T17:26:16	20.9	69
90913	2024-10-28T17:36:16	20.6	71.5
90914	2024-10-28T17:46:16	20.3	72
90915	2024-10-28T17:56:16	20.1	72.5
90916	2024-10-28T18:06:16	19.9	72.5
90917	2024-10-28T18:16:16	19.7	72.5
90918	2024-10-28T18:26:16	19.4	73
90919	2024-10-28T18:36:16	19.1	74
90920	2024-10-28T18:56:16	18.8	74.5
90921	2024-10-28T19:06:16	18.4	74.5
90922	2024-10-28T19:16:16	18.3	75
90923	2024-10-28T19:26:16	17.9	74.5
90924	2024-10-28T19:36:16	17.8	75.5
90925	2024-10-28T19:46:16	17.6	76
90926	2024-10-28T19:56:16	17.5	75
90927	2024-10-28T20:06:16	17.1	75
90928	2024-10-28T20:16:16	17	76.5
90929	2024-10-28T20:26:16	16.8	76.5
90930	2024-10-28T20:36:15	16.6	77
90931	2024-10-28T20:46:15	16.6	77.5
90932	2024-10-28T20:56:15	16.3	77.5
90933	2024-10-28T21:06:15	16.2	77
90934	2024-10-28T21:16:15	16	78
90935	2024-10-28T21:26:15	15.8	77
90936	2024-10-28T21:36:15	15.8	78.5
90937	2024-10-28T21:46:15	15.6	78
90938	2024-10-28T21:56:15	15.5	78.5
90939	2024-10-28T22:06:15	15.3	79
90940	2024-10-28T22:16:15	15.3	78.5
90941	2024-10-28T22:26:15	15.2	79.5
90942	2024-10-28T22:36:15	15	79.5
90943	2024-10-28T22:46:15	14.7	79.5
90944	2024-10-28T22:56:15	14.7	79.5
90945	2024-10-28T23:06:35	14.5	79.5
90946	2024-10-28T23:16:15	14.4	80
90947	2024-10-28T23:26:15	14.4	80
90948	2024-10-28T23:36:15	14.3	80.5
90949	2024-10-28T23:46:15	14	80
90950	2024-10-28T23:56:15	13.9	80.5
90951	2024-10-29T00:34:43	13.8	80.5
90952	2024-10-29T00:34:44	13.6	81
90953	2024-10-29T00:34:44	13.7	81
90954	2024-10-29T00:36:15	13.5	81
90955	2024-10-29T00:46:15	13.4	81.5
90956	2024-10-29T00:56:15	13.2	82
90957	2024-10-29T01:06:15	13.1	81
90958	2024-10-29T01:16:15	13	82
90959	2024-10-29T01:26:15	12.9	82.5
90960	2024-10-29T01:36:15	12.8	82.5
90961	2024-10-29T01:46:15	12.7	82
90962	2024-10-29T01:56:15	12.6	83
90963	2024-10-29T02:06:15	12.5	83.5
90964	2024-10-29T02:16:15	12.4	83.5
90965	2024-10-29T02:26:15	12.5	83.5
90966	2024-10-29T02:36:15	12.4	83
90967	2024-10-29T02:46:15	12.3	83.5
90968	2024-10-29T02:56:15	12.1	83
90969	2024-10-29T03:06:15	12	84
90970	2024-10-29T03:16:15	11.9	84
90971	2024-10-29T03:26:15	11.9	84
90972	2024-10-29T03:36:15	11.8	84.5
90973	2024-10-29T03:46:15	11.8	84.5
90974	2024-10-29T03:56:15	11.7	84.5
90975	2024-10-29T04:06:15	11.6	85
90976	2024-10-29T04:16:15	11.6	85
90977	2024-10-29T04:26:15	11.5	85
90978	2024-10-29T04:36:15	11.4	85
90979	2024-10-29T04:46:15	11.4	85.5
90980	2024-10-29T04:56:15	11.3	85.5
90981	2024-10-29T05:06:15	11.2	85.5
90982	2024-10-29T05:16:15	11.2	85.5
90983	2024-10-29T05:26:15	11.1	86
90984	2024-10-29T05:36:15	11.2	86
90985	2024-10-29T05:46:15	11.1	86
90986	2024-10-29T05:56:15	11	86.5
90987	2024-10-29T06:06:15	11	87.5
90988	2024-10-29T06:16:15	10.9	87.5
90989	2024-10-29T06:26:15	10.9	87.5
90990	2024-10-29T06:36:15	10.9	88.5
90991	2024-10-29T06:46:15	10.8	88
90992	2024-10-29T06:56:15	10.9	88
90993	2024-10-29T07:06:15	10.9	88
90994	2024-10-29T07:16:15	11	88.5
90995	2024-10-29T07:26:15	11	90.5
90996	2024-10-29T07:36:15	11.1	93.5
90997	2024-10-29T07:46:15	11.2	94.5
90998	2024-10-29T07:56:15	11.4	95
90999	2024-10-29T08:06:15	11.6	95
91000	2024-10-29T08:16:15	11.8	96
91001	2024-10-29T08:26:15	11.9	95.5
91002	2024-10-29T08:36:15	12.1	96.5
91003	2024-10-29T08:46:15	12.5	95.5
91004	2024-10-29T08:56:15	12.9	94
91005	2024-10-29T09:06:15	13	93.5
91006	2024-10-29T09:16:15	13.2	92.5
91007	2024-10-29T09:26:15	13.4	92.5
91008	2024-10-29T09:36:15	13.7	91.5
91009	2024-10-29T09:46:15	14.1	90.5
91010	2024-10-29T09:56:15	14.4	89.5
91011	2024-10-29T10:06:15	14.6	87
91012	2024-10-29T10:16:15	14.8	86.5
91013	2024-10-29T10:26:15	15	86
91014	2024-10-29T10:36:15	15.2	86
91015	2024-10-29T10:46:15	15.4	84.5
91016	2024-10-29T10:56:15	15.6	83.5
91017	2024-10-29T11:06:14	15.6	84
91018	2024-10-29T11:16:14	16.3	81.5
91019	2024-10-29T11:26:15	16.7	81
91020	2024-10-29T11:36:14	16.7	80
91021	2024-10-29T11:46:14	17.2	79
91022	2024-10-29T11:56:14	18.9	75
91023	2024-10-29T12:06:14	20.8	68
91024	2024-10-29T12:16:14	21.8	64.5
91025	2024-10-29T12:26:14	22.5	61
91026	2024-10-29T12:36:14	23.2	61
91027	2024-10-29T12:46:14	23.9	59.5
91028	2024-10-29T12:56:14	24.7	59.5
91029	2024-10-29T13:06:14	25.4	55.5
91030	2024-10-29T13:16:14	25.4	52.5
91031	2024-10-29T13:26:14	25.2	53.5
91032	2024-10-29T13:36:14	24.9	55
91033	2024-10-29T13:46:14	25.3	52.5
91034	2024-10-29T13:56:14	25.1	53.5
91035	2024-10-29T14:06:14	25.1	53.5
91036	2024-10-29T14:16:14	25.9	54.5
91037	2024-10-29T14:26:14	26	51.5
91038	2024-10-29T14:36:14	26.1	52.5
91039	2024-10-29T14:46:14	26.6	50.5
91040	2024-10-29T14:56:14	26.5	50.5
91041	2024-10-29T15:06:14	25.5	53.5
91042	2024-10-29T15:16:14	25.4	53
91043	2024-10-29T15:26:14	24.3	56
91044	2024-10-29T15:36:14	23.8	57.5
91045	2024-10-29T15:46:14	24	58
91046	2024-10-29T15:56:14	23.5	62.5
91047	2024-10-29T16:06:14	23	64.5
91048	2024-10-29T16:16:14	22.5	65.5
91049	2024-10-29T16:26:14	21.6	64
91050	2024-10-29T16:36:14	21.1	65.5
91051	2024-10-29T16:46:14	20.6	67
91052	2024-10-29T16:56:14	20.1	70
91053	2024-10-29T17:06:14	19.8	69
91054	2024-10-29T17:16:14	19.5	71
91055	2024-10-29T17:26:14	19.3	72
91056	2024-10-29T17:36:14	19	73
91057	2024-10-29T17:46:14	18.7	72.5
91058	2024-10-29T17:56:14	18.4	74
91059	2024-10-29T18:06:14	18.3	74.5
91060	2024-10-29T18:16:14	18	74.5
91061	2024-10-29T18:26:14	17.7	74.5
91062	2024-10-29T18:36:14	17.6	75
91063	2024-10-29T18:46:14	17.3	74.5
91064	2024-10-29T18:56:14	17	76
91065	2024-10-29T19:06:14	16.9	76.5
91066	2024-10-29T19:16:14	16.8	76
91067	2024-10-29T19:26:14	16.5	76
91068	2024-10-29T19:36:14	16.4	76
91069	2024-10-29T19:56:14	15.9	75.5
91070	2024-10-29T20:06:14	15.7	76
91071	2024-10-29T20:16:14	15.6	77.5
91072	2024-10-29T20:26:14	15.4	77.5
91073	2024-10-29T20:36:14	15.1	78
91074	2024-10-29T20:46:14	15.1	78
91075	2024-10-29T20:56:14	14.9	77
91076	2024-10-29T21:06:14	14.8	78.5
91077	2024-10-29T21:16:14	14.7	78.5
91078	2024-10-29T21:26:14	14.5	78.5
91079	2024-10-29T21:36:14	14.3	78.5
91080	2024-10-29T21:46:14	14.1	78.5
91081	2024-10-29T21:56:14	14.1	79
91082	2024-10-29T22:16:14	13.7	79.5
91083	2024-10-29T22:26:14	13.7	79
91084	2024-10-29T22:36:13	13.5	79.5
91085	2024-10-29T22:46:13	13.4	79.5
91086	2024-10-29T22:56:13	13.2	79.5
91087	2024-10-29T23:06:13	13.2	79.5
91088	2024-10-29T23:16:13	12.9	79.5
91089	2024-10-29T23:26:13	12.8	80
91090	2024-10-29T23:36:13	12.7	80
91091	2024-10-29T23:46:13	12.5	80
91092	2024-10-29T23:56:13	12.6	80
91093	2024-10-30T00:34:08	12.3	80.5
91094	2024-10-30T00:34:08	12.2	81
91095	2024-10-30T00:36:23	11.9	81
91096	2024-10-30T00:46:13	11.8	81
91097	2024-10-30T00:56:13	11.8	81.5
91098	2024-10-30T01:16:13	11.6	81.5
91099	2024-10-30T01:26:13	11.5	81.5
91100	2024-10-30T01:36:13	11.3	79.5
91101	2024-10-30T01:46:13	11.3	82
91102	2024-10-30T01:56:13	11.2	82.5
91103	2024-10-30T02:06:13	11	82.5
91104	2024-10-30T02:16:13	10.9	82.5
91105	2024-10-30T02:26:13	10.8	82.5
91106	2024-10-30T02:36:13	10.8	82.5
91107	2024-10-30T02:46:13	10.6	82.5
91108	2024-10-30T02:56:13	10.6	82.5
91109	2024-10-30T03:06:13	10.7	82.5
91110	2024-10-30T03:16:13	10.6	83.5
91111	2024-10-30T03:26:13	10.6	83
91112	2024-10-30T03:36:13	10.5	83.5
91113	2024-10-30T03:46:13	10.4	84
91114	2024-10-30T03:56:13	10.3	83.5
91115	2024-10-30T04:06:13	10.2	84
91116	2024-10-30T04:16:13	10.1	84
91117	2024-10-30T04:26:13	10.2	84
91118	2024-10-30T04:36:13	10.2	84.5
91119	2024-10-30T04:46:13	10.3	84
91120	2024-10-30T04:56:13	10.3	84.5
91121	2024-10-30T05:06:13	10.2	84.5
91122	2024-10-30T05:16:13	9.9	85
91123	2024-10-30T05:26:13	9.9	85
91124	2024-10-30T05:36:13	9.8	85
91125	2024-10-30T05:46:13	9.7	85
91126	2024-10-30T05:56:13	9.7	86
91127	2024-10-30T06:06:13	9.6	86.5
91128	2024-10-30T06:16:13	9.6	88
91129	2024-10-30T06:26:13	9.7	87.5
91130	2024-10-30T06:36:13	9.8	88
91131	2024-10-30T06:46:13	9.8	87
91132	2024-10-30T06:56:13	10.1	87
91133	2024-10-30T07:06:13	10.2	87
91134	2024-10-30T07:16:13	10.3	88
91135	2024-10-30T07:26:13	10.4	88.5
91136	2024-10-30T07:36:13	10.5	89.5
91137	2024-10-30T07:46:13	10.5	91
91138	2024-10-30T07:56:13	10.6	92
91139	2024-10-30T08:06:13	10.5	93
91140	2024-10-30T08:16:13	10.6	94
91141	2024-10-30T08:26:13	10.9	92.5
91142	2024-10-30T08:36:13	11	90
91143	2024-10-30T08:46:13	11.2	90
91144	2024-10-30T08:56:13	11.3	90
91145	2024-10-30T09:06:13	11.4	90
91146	2024-10-30T09:16:13	11.5	90
91147	2024-10-30T09:26:13	11.5	89.5
91148	2024-10-30T09:46:13	12	88
91149	2024-10-30T10:16:13	12.2	88
91150	2024-10-30T10:26:13	12.4	87.5
91151	2024-10-30T10:36:13	12.5	87.5
91152	2024-10-30T10:46:13	12.5	87.5
91153	2024-10-30T10:56:13	12.7	87.5
91154	2024-10-30T11:06:13	12.8	87
91155	2024-10-30T11:16:13	12.8	86.5
91156	2024-10-30T11:26:13	12.9	86.5
91157	2024-10-30T11:36:13	13	87
91158	2024-10-30T11:46:13	13	87
91159	2024-10-30T11:56:13	13.1	87
91160	2024-10-30T12:06:13	13.1	87.5
91161	2024-10-30T12:16:13	13	87.5
91162	2024-10-30T12:26:13	13.2	87.5
91163	2024-10-30T12:36:13	13.3	86.5
91164	2024-10-30T12:46:13	13.1	87
91165	2024-10-30T12:56:13	13.3	87.5
91166	2024-10-30T13:06:13	13.2	87.5
91167	2024-10-30T13:16:13	13.3	87.5
91168	2024-10-30T13:26:13	13.2	88
91169	2024-10-30T13:36:13	13.2	88
91170	2024-10-30T13:46:13	13	88
91171	2024-10-30T13:56:13	13	88
91172	2024-10-30T14:06:13	13	88.5
91173	2024-10-30T14:16:13	13	88.5
91174	2024-10-30T14:26:12	12.9	89
91175	2024-10-30T14:36:12	13	89.5
91176	2024-10-30T14:46:12	12.9	89.5
91177	2024-10-30T14:56:12	12.9	89
91178	2024-10-30T15:06:12	13.1	88.5
91179	2024-10-30T15:16:12	13.1	88.5
91180	2024-10-30T15:26:12	13	89
91181	2024-10-30T15:36:12	12.9	89
91182	2024-10-30T15:46:12	12.8	89.5
91183	2024-10-30T15:56:12	12.7	90
91184	2024-10-30T16:06:12	12.5	90.5
91185	2024-10-30T16:16:12	12.4	91.5
91186	2024-10-30T16:26:12	12.4	91.5
91187	2024-10-30T16:36:12	12.1	91.5
91188	2024-10-30T16:46:12	11.9	92
91189	2024-10-30T16:56:12	11.8	92.5
91190	2024-10-30T17:06:12	11.7	93
91191	2024-10-30T17:16:12	11.7	94
91192	2024-10-30T17:26:12	11.7	94
91193	2024-10-30T17:36:12	11.8	93.5
91194	2024-10-30T17:46:12	11.6	93.5
91195	2024-10-30T17:56:12	11.5	93.5
91196	2024-10-30T18:06:12	11.4	93
91197	2024-10-30T18:16:12	11.2	93
91198	2024-10-30T18:26:12	11.2	93.5
91199	2024-10-30T18:36:12	11.2	94
91200	2024-10-30T18:46:12	11.1	94
91201	2024-10-30T18:56:12	11.1	94
91202	2024-10-30T19:06:12	11	94
91203	2024-10-30T19:16:12	11.1	94.5
91204	2024-10-30T19:26:12	11.2	95
91205	2024-10-30T19:36:12	11.3	95.5
91206	2024-10-30T19:46:12	11.3	95
91207	2024-10-30T19:56:12	11.5	96
91208	2024-10-30T20:06:12	11.6	96
91209	2024-10-30T20:16:12	11.7	96
91210	2024-10-30T20:26:12	11.7	96
91211	2024-10-30T20:36:12	11.9	95.5
91212	2024-10-30T20:46:12	11.9	95.5
91213	2024-10-30T20:56:12	12	95.5
91214	2024-10-30T21:06:12	12	95.5
91215	2024-10-30T21:16:12	12	95.5
91216	2024-10-30T21:26:12	12.1	95
91217	2024-10-30T21:36:12	12.1	95
91218	2024-10-30T21:46:12	12	95
91219	2024-10-30T21:56:12	11.9	95
91220	2024-10-30T22:06:12	11.8	95
91221	2024-10-30T22:16:12	11.6	95
91222	2024-10-30T22:26:12	11.7	95
91223	2024-10-30T22:36:12	11.5	94.5
91224	2024-10-30T22:46:12	11.6	94.5
91225	2024-10-30T22:56:12	11.6	94.5
91226	2024-10-30T23:06:12	11.5	94
91227	2024-10-30T23:16:12	11.5	94
91228	2024-10-30T23:26:12	11.4	94.5
91229	2024-10-30T23:36:12	11.5	94
91230	2024-10-30T23:46:12	11.3	94
91231	2024-10-30T23:56:12	11.3	94.5
91232	2024-10-31T00:34:26	11.5	92
91233	2024-10-31T00:34:27	11.2	93.5
91234	2024-10-31T00:36:12	11.5	92
91235	2024-10-31T00:46:12	11.5	92
91236	2024-10-31T00:56:12	11.5	92
91237	2024-10-31T01:06:12	11.7	92.5
91238	2024-10-31T01:16:12	11.7	93
91239	2024-10-31T01:26:12	11.8	93
91240	2024-10-31T01:36:12	11.9	93
91241	2024-10-31T01:46:12	11.9	93
91242	2024-10-31T01:56:12	11.9	92.5
91243	2024-10-31T02:06:12	12	92.5
91244	2024-10-31T02:16:12	11.9	92.5
91245	2024-10-31T02:26:12	11.9	92.5
91246	2024-10-31T02:36:12	12	92.5
91247	2024-10-31T02:46:12	12	92
91248	2024-10-31T02:56:12	12	92
91249	2024-10-31T03:06:12	11.9	91.5
91250	2024-10-31T03:16:12	11.9	91
91251	2024-10-31T03:26:12	11.8	91.5
91252	2024-10-31T03:46:12	11.9	91.5
91253	2024-10-31T03:56:12	12	92
91254	2024-10-31T04:06:12	12	92
91255	2024-10-31T04:16:12	12	91.5
91256	2024-10-31T04:26:12	11.9	92
91257	2024-10-31T04:36:12	11.8	92
91258	2024-10-31T04:46:12	11.7	92
91259	2024-10-31T04:56:12	11.7	92
91260	2024-10-31T05:06:12	11.7	91.5
91261	2024-10-31T05:16:11	11.5	92
91262	2024-10-31T05:26:11	11.6	92
91263	2024-10-31T05:36:11	11.6	91.5
91264	2024-10-31T05:46:11	11.8	92
91265	2024-10-31T05:56:11	11.6	91
91266	2024-10-31T06:06:11	11.7	91.5
91267	2024-10-31T06:16:11	11.6	91.5
91268	2024-10-31T06:26:11	11.7	91.5
91269	2024-10-31T06:36:11	11.8	91
91270	2024-10-31T06:46:11	11.8	91
91271	2024-10-31T06:56:11	11.8	91.5
91272	2024-10-31T07:06:11	11.8	92
91273	2024-10-31T07:16:11	11.9	92
91274	2024-10-31T07:26:11	11.9	92
91275	2024-10-31T07:36:11	12	92
91276	2024-10-31T07:46:11	12.1	92
91277	2024-10-31T07:56:11	12.1	91.5
91278	2024-10-31T08:06:11	12.1	91.5
91279	2024-10-31T08:16:11	12.3	91.5
91280	2024-10-31T08:26:11	12.5	91
91281	2024-10-31T08:36:11	12.5	90
91282	2024-10-31T08:46:11	12.7	89.5
91283	2024-10-31T08:56:11	12.9	88.5
91284	2024-10-31T09:06:11	13	86.5
91285	2024-10-31T09:16:11	13.1	87.5
91286	2024-10-31T09:26:11	13.3	87.5
91287	2024-10-31T09:36:11	13.4	86.5
91288	2024-10-31T09:46:11	13.5	86.5
91289	2024-10-31T09:56:11	13.5	86
91290	2024-10-31T10:06:11	13.7	86
91291	2024-10-31T10:16:11	13.8	85.5
91292	2024-10-31T10:26:11	13.9	85
91293	2024-10-31T10:36:11	13.8	85
91294	2024-10-31T10:46:11	14.1	85.5
91295	2024-10-31T10:56:11	14	85.5
91296	2024-10-31T11:06:11	14.1	85
91297	2024-10-31T11:16:11	14.1	85
91298	2024-10-31T11:26:11	14.1	84.5
91299	2024-10-31T11:36:11	14	84.5
91300	2024-10-31T11:46:11	14.1	85
91301	2024-10-31T11:56:11	14.1	85
91302	2024-10-31T12:06:11	14	84.5
91303	2024-10-31T12:16:11	14	85
91304	2024-10-31T12:26:11	14.1	85
91305	2024-10-31T12:36:11	14.2	84.5
91306	2024-10-31T12:46:11	14.1	84
91307	2024-10-31T12:56:11	14.3	85
91308	2024-10-31T13:06:11	14.4	84
91309	2024-10-31T13:16:27	14.4	84.5
91310	2024-10-31T13:26:11	14.2	85
91311	2024-10-31T13:36:11	14.3	85
91312	2024-10-31T13:46:11	14	85.5
91313	2024-10-31T13:56:11	13.8	86
91314	2024-10-31T14:06:11	13.9	86
91315	2024-10-31T14:16:11	13.9	86
91316	2024-10-31T14:26:11	14	86
91317	2024-10-31T14:36:11	14	86.5
91318	2024-10-31T14:46:11	13.9	86.5
91319	2024-10-31T14:56:11	13.8	87
91320	2024-10-31T15:06:11	13.8	87
91321	2024-10-31T15:16:11	13.6	86.5
91322	2024-10-31T15:26:11	13.7	87
91323	2024-10-31T15:36:11	13.6	87.5
91324	2024-10-31T15:46:11	13.5	88
91325	2024-10-31T15:56:11	13.3	88
91326	2024-10-31T16:06:11	13.4	88
91327	2024-10-31T16:16:11	13.5	88.5
91328	2024-10-31T16:26:11	13.3	89
91329	2024-10-31T16:36:11	13.5	89
91330	2024-10-31T16:46:11	13.5	89
91331	2024-10-31T16:56:11	13.5	89
91332	2024-10-31T17:06:11	13.4	89.5
91333	2024-10-31T17:16:11	13.3	89.5
91334	2024-10-31T17:26:11	13.3	90
91335	2024-10-31T17:36:11	13.3	90
91336	2024-10-31T17:46:11	13.2	90.5
91337	2024-10-31T17:56:11	13.2	90.5
91338	2024-10-31T18:06:11	13.2	91
91339	2024-10-31T18:16:11	13.1	91
91340	2024-10-31T18:26:11	13.1	91.5
91341	2024-10-31T18:36:11	13.1	91
91342	2024-10-31T18:46:11	13	91
91343	2024-10-31T18:56:11	13.1	91.5
91344	2024-10-31T19:06:11	13	91.5
91345	2024-10-31T19:16:10	13.1	91.5
91346	2024-10-31T19:26:10	12.9	90.5
91347	2024-10-31T19:36:10	13	90.5
91348	2024-10-31T19:46:10	13	90.5
91349	2024-10-31T19:56:10	13	90
91350	2024-10-31T20:06:10	13	91
91351	2024-10-31T20:16:10	12.9	91
91352	2024-10-31T20:26:10	12.9	91
91353	2024-10-31T20:36:10	13	91
91354	2024-10-31T20:46:10	12.8	91
91355	2024-10-31T20:56:10	12.9	91
91356	2024-10-31T21:06:10	12.8	91
91357	2024-10-31T21:16:10	12.8	90
91358	2024-10-31T21:26:10	12.7	91
91359	2024-10-31T21:36:10	12.7	91.5
91360	2024-10-31T21:46:10	12.8	91
91361	2024-10-31T21:56:10	12.7	91.5
91362	2024-10-31T22:06:10	12.7	92
91363	2024-10-31T22:16:10	12.6	91.5
91364	2024-10-31T22:26:10	12.7	91.5
91365	2024-10-31T22:36:10	12.5	90.5
91366	2024-10-31T22:46:10	12.5	91
91367	2024-10-31T22:56:10	12.4	91.5
91368	2024-10-31T23:06:10	12.4	91.5
91369	2024-10-31T23:16:10	12.4	92
91370	2024-10-31T23:26:10	12.5	92
91371	2024-10-31T23:36:10	12.4	92
91372	2024-10-31T23:46:10	12.5	91.5
91373	2024-10-31T23:56:10	12.4	91.5
91374	2024-11-01T00:34:41	12.3	90
91375	2024-11-01T00:34:41	12.2	90.5
91376	2024-11-01T00:34:41	12.1	89.5
91377	2024-11-01T00:36:10	12.3	90.5
91378	2024-11-01T00:46:10	12.1	90.5
91379	2024-11-01T00:56:10	12.1	91
91380	2024-11-01T01:16:10	11.9	91.5
91381	2024-11-01T01:26:10	12	91.5
91382	2024-11-01T01:36:10	11.9	91
91383	2024-11-01T01:46:10	12	91.5
91384	2024-11-01T01:56:10	12	92
91385	2024-11-01T02:06:10	11.8	92
91386	2024-11-01T02:16:10	11.8	92
91387	2024-11-01T02:26:10	11.8	92
91388	2024-11-01T02:36:10	11.8	91
91389	2024-11-01T02:46:10	11.7	90.5
91390	2024-11-01T02:56:10	11.7	90
91391	2024-11-01T03:06:10	11.7	91
91392	2024-11-01T03:16:10	11.8	90.5
91393	2024-11-01T03:26:10	11.9	91
91394	2024-11-01T03:36:10	11.8	90.5
91395	2024-11-01T03:46:10	11.9	91
91396	2024-11-01T03:56:10	11.9	91.5
91397	2024-11-01T04:06:10	12	91
91398	2024-11-01T04:16:10	11.9	91
91399	2024-11-01T04:26:10	12	91
91400	2024-11-01T04:36:10	11.9	90
91401	2024-11-01T04:46:10	11.8	90
91402	2024-11-01T04:56:10	12	90.5
91403	2024-11-01T05:06:10	11.9	90.5
91404	2024-11-01T05:16:10	11.8	90.5
91405	2024-11-01T05:26:10	11.9	90.5
91406	2024-11-01T05:36:10	11.8	91
91407	2024-11-01T05:46:10	11.8	91.5
91408	2024-11-01T05:56:10	11.8	91.5
91409	2024-11-01T06:06:10	11.7	91
91410	2024-11-01T06:16:10	11.7	91.5
91411	2024-11-01T06:26:10	11.8	91.5
91412	2024-11-01T06:36:10	11.8	92
91413	2024-11-01T06:46:10	11.8	91.5
91414	2024-11-01T06:56:10	11.6	91.5
91415	2024-11-01T07:06:10	11.5	91.5
91416	2024-11-01T07:16:10	11.5	92
91417	2024-11-01T07:26:10	11.4	91.5
91418	2024-11-01T07:36:10	11.2	91
91419	2024-11-01T07:46:10	11.3	92
91420	2024-11-01T07:56:10	11.1	91.5
91421	2024-11-01T08:06:10	11.3	91
91422	2024-11-01T08:16:10	11.3	91
91423	2024-11-01T08:26:10	11.1	91.5
91424	2024-11-01T08:36:10	11.2	91
91425	2024-11-01T08:46:10	11.3	91.5
91426	2024-11-01T08:56:10	11.2	90.5
91427	2024-11-01T09:06:10	11.2	91
91428	2024-11-01T09:16:10	11.2	91
91429	2024-11-01T09:26:10	11.3	89.5
91430	2024-11-01T09:36:10	11.2	90
91431	2024-11-01T09:46:10	11.4	90
91432	2024-11-01T09:56:10	11.5	89.5
91433	2024-11-01T10:06:09	11.4	89.5
91434	2024-11-01T10:16:09	11.4	89
91435	2024-11-01T10:26:09	11.5	89
91436	2024-11-01T10:36:09	11.4	89
91437	2024-11-01T10:46:09	11.6	89
91438	2024-11-01T10:56:09	11.6	88.5
91439	2024-11-01T11:06:09	11.8	88.5
91440	2024-11-01T11:16:09	11.9	89
91441	2024-11-01T11:26:09	11.8	88.5
91442	2024-11-01T11:36:09	11.8	88
91443	2024-11-01T11:46:09	12	88.5
91444	2024-11-01T11:56:09	12	87.5
91445	2024-11-01T12:06:09	12	88
91446	2024-11-01T12:16:09	12.1	88
91447	2024-11-01T12:26:09	12	88
91448	2024-11-01T12:36:09	12.1	87
91449	2024-11-01T12:46:09	12.1	87.5
91450	2024-11-01T12:56:09	12.1	87.5
91451	2024-11-01T13:06:09	12	88.5
91452	2024-11-01T13:16:09	11.9	89
91453	2024-11-01T13:26:09	12.1	88.5
91454	2024-11-01T13:36:09	11.9	88.5
91455	2024-11-01T13:46:09	12.1	88
91456	2024-11-01T13:56:09	12.1	88.5
91457	2024-11-01T14:06:09	12	88
91458	2024-11-01T14:16:09	12.1	88
91459	2024-11-01T14:26:09	12	88
91460	2024-11-01T14:36:09	12.1	88
91461	2024-11-01T14:46:09	12	88.5
91462	2024-11-01T14:56:09	12.1	88
91463	2024-11-01T15:06:09	12	88
91464	2024-11-01T15:16:09	12.1	88.5
91465	2024-11-01T15:26:09	12.1	88.5
91466	2024-11-01T15:36:09	11.9	88.5
91467	2024-11-01T15:46:09	11.9	89
91468	2024-11-01T15:56:09	11.9	88.5
91469	2024-11-01T16:06:09	11.9	89
91470	2024-11-01T16:16:09	11.8	89.5
91471	2024-11-01T16:26:09	11.8	89
91472	2024-11-01T16:36:09	11.9	89
91473	2024-11-01T16:46:09	11.8	89
91474	2024-11-01T16:56:09	11.6	88.5
91475	2024-11-01T17:06:09	11.7	89
91476	2024-11-01T17:16:09	11.8	89
91477	2024-11-01T17:26:09	11.9	89
91478	2024-11-01T17:36:09	11.9	89
91479	2024-11-01T17:46:09	12	88.5
91480	2024-11-01T17:56:09	11.9	88.5
91481	2024-11-01T18:06:09	11.8	87.5
91482	2024-11-01T18:16:09	11.8	87
91483	2024-11-01T18:26:09	11.7	87
91484	2024-11-01T18:36:09	11.8	86.5
91485	2024-11-01T18:46:09	11.8	86.5
91486	2024-11-01T18:56:09	11.7	86.5
91487	2024-11-01T19:06:09	11.8	86.5
91488	2024-11-01T19:16:09	11.6	86.5
91489	2024-11-01T19:26:09	11.6	86.5
91490	2024-11-01T19:36:09	11.7	86
91491	2024-11-01T19:46:09	11.7	86
91492	2024-11-01T19:56:09	11.4	85.5
91493	2024-11-01T20:06:09	11.7	86
91494	2024-11-01T20:16:09	11.7	85
91495	2024-11-01T20:26:09	11.5	85.5
91496	2024-11-01T20:36:09	11.7	86
91497	2024-11-01T20:46:09	11.7	86.5
91498	2024-11-01T20:56:09	11.6	86.5
91499	2024-11-01T21:06:09	11.6	86.5
91500	2024-11-01T21:16:09	11.4	86.5
91501	2024-11-01T21:26:09	11.6	87
91502	2024-11-01T21:36:09	11.3	86.5
91503	2024-11-01T21:46:09	11.2	86.5
91504	2024-11-01T21:56:09	11.2	87
91505	2024-11-01T22:06:09	11.4	87
91506	2024-11-01T22:16:09	11.3	86.5
91507	2024-11-01T22:26:09	11.3	85.5
91508	2024-11-01T22:36:09	11.4	86.5
91509	2024-11-01T22:56:09	11.5	86
91510	2024-11-01T23:06:09	11.4	86.5
91511	2024-11-01T23:16:09	11.4	87
91512	2024-11-01T23:26:09	11.3	87.5
91513	2024-11-01T23:36:09	11.5	88
91514	2024-11-01T23:46:09	11.4	88
91515	2024-11-01T23:56:09	11.5	88
91516	2024-11-02T00:32:43	11.5	88.5
91517	2024-11-02T00:32:43	11.5	88.5
91518	2024-11-02T00:32:45	11.5	88.5
91519	2024-11-02T00:36:09	11.4	88
91520	2024-11-02T00:46:09	11.5	87.5
91521	2024-11-02T00:56:09	11.4	88
91522	2024-11-02T01:06:09	11.4	87
91523	2024-11-02T01:16:08	11.5	86
91524	2024-11-02T01:26:08	11.4	87
91525	2024-11-02T01:36:08	11.4	87.5
91526	2024-11-02T01:46:08	11.4	88
91527	2024-11-02T01:56:08	11.5	88
91528	2024-11-02T02:06:08	11.4	88.5
91529	2024-11-02T02:16:08	11.3	88.5
91530	2024-11-02T02:26:08	11.4	88.5
91531	2024-11-02T02:36:08	11.4	88.5
91532	2024-11-02T02:46:08	11.4	89
91533	2024-11-02T02:56:08	11.3	88.5
91534	2024-11-02T03:06:08	11.4	89
91535	2024-11-02T03:16:08	11.4	88.5
91536	2024-11-02T03:26:08	11.4	88.5
91537	2024-11-02T03:36:08	11.4	88.5
91538	2024-11-02T03:46:08	11.5	88.5
91539	2024-11-02T03:56:08	11.4	88.5
91540	2024-11-02T04:06:08	11.3	88.5
91541	2024-11-02T04:16:08	11.4	89
91542	2024-11-02T04:26:08	11.4	89
91543	2024-11-02T04:36:08	11.4	88.5
91544	2024-11-02T04:46:08	11.4	88.5
91545	2024-11-02T04:56:08	11.3	88
91546	2024-11-02T05:06:08	11.3	87.5
91547	2024-11-02T05:16:08	11.4	87
91548	2024-11-02T05:26:08	11.3	86.5
91549	2024-11-02T05:36:08	11.4	86.5
91550	2024-11-02T05:46:08	11.3	86.5
91551	2024-11-02T05:56:08	11.2	85
91552	2024-11-02T06:06:08	11.3	85
91553	2024-11-02T06:16:08	11.2	85.5
91554	2024-11-02T06:26:08	11.2	85
91555	2024-11-02T06:36:08	11.2	85
91556	2024-11-02T06:46:08	11.2	85.5
91557	2024-11-02T06:56:08	11.2	85.5
91558	2024-11-02T07:06:08	11.2	85.5
91559	2024-11-02T07:16:08	11.3	85.5
91560	2024-11-02T07:26:08	11.3	84.5
91561	2024-11-02T07:36:08	11.4	84
91562	2024-11-02T07:46:08	11.4	84
91563	2024-11-02T07:56:08	11.5	83
91564	2024-11-02T08:06:08	11.5	83
91565	2024-11-02T08:16:08	11.6	82.5
91566	2024-11-02T08:26:08	11.7	82
91567	2024-11-02T08:36:08	11.8	81
91568	2024-11-02T08:46:08	11.9	80.5
91569	2024-11-02T08:56:08	12	81
91570	2024-11-02T09:06:08	12.2	81
91571	2024-11-02T09:16:08	12.3	80
91572	2024-11-02T09:26:08	12	77
91573	2024-11-02T09:36:08	12.1	77.5
91574	2024-11-02T09:46:08	12.2	75.5
91575	2024-11-02T09:56:08	12.3	75.5
91576	2024-11-02T10:06:08	12.5	75.5
91577	2024-11-02T10:16:08	12.8	75.5
91578	2024-11-02T10:26:08	12.9	74
91579	2024-11-02T10:36:08	13.1	73
91580	2024-11-02T10:46:28	13.3	73
91581	2024-11-02T10:56:08	13.5	71
91582	2024-11-02T11:06:08	13.7	72.5
91583	2024-11-02T11:16:08	13.5	72
91584	2024-11-02T11:26:08	13.5	72
91585	2024-11-02T11:36:08	13.4	72.5
91586	2024-11-02T11:46:08	13.4	72
91587	2024-11-02T11:56:08	13.5	73
91588	2024-11-02T12:06:08	13.4	74
91589	2024-11-02T12:16:08	13.4	73
91590	2024-11-02T12:26:08	13.6	73.5
91591	2024-11-02T12:36:08	13.5	74.5
91592	2024-11-02T12:46:08	13.5	74.5
91593	2024-11-02T12:56:08	13.4	73
91594	2024-11-02T13:06:08	13.5	74
91595	2024-11-02T13:16:08	13.6	73.5
91596	2024-11-02T13:26:08	13.4	73
91597	2024-11-02T13:36:08	13.4	74
91598	2024-11-02T13:46:08	13.3	74
91599	2024-11-02T13:56:08	13.2	75.5
91600	2024-11-02T14:06:08	13.3	75
91601	2024-11-02T14:16:08	13.1	74
91602	2024-11-02T14:36:08	13	74.5
91603	2024-11-02T14:46:08	12.9	75
91604	2024-11-02T14:56:08	13	75
91605	2024-11-02T15:06:08	12.9	75.5
91606	2024-11-02T15:16:08	12.9	77
91607	2024-11-02T15:26:08	12.9	76.5
91608	2024-11-02T15:36:08	12.7	77
91609	2024-11-02T15:46:08	12.6	78.5
91610	2024-11-02T15:56:07	12.7	78.5
91611	2024-11-02T16:06:07	12.6	78
91612	2024-11-02T16:16:07	12.6	80
91613	2024-11-02T16:26:07	12.6	80
91614	2024-11-02T16:36:07	12.5	80
91615	2024-11-02T16:46:07	12.6	80
91616	2024-11-02T16:56:07	12.5	79
91617	2024-11-02T17:06:07	12.4	80
91618	2024-11-02T17:16:07	12.4	79.5
91619	2024-11-02T17:26:07	12.4	80.5
91620	2024-11-02T17:36:07	12.4	80.5
91621	2024-11-02T17:46:07	12.4	80
91622	2024-11-02T17:56:07	12.4	80.5
91623	2024-11-02T18:06:07	12.3	79.5
91624	2024-11-02T18:16:07	12.2	79
91625	2024-11-02T18:26:07	12.4	79
91626	2024-11-02T18:36:07	12.4	80
91627	2024-11-02T18:46:07	12.3	79.5
91628	2024-11-02T18:56:07	12.3	79
91629	2024-11-02T19:06:07	12.2	78.5
91630	2024-11-02T19:16:07	12.2	79
91631	2024-11-02T19:26:07	12.3	79
91632	2024-11-02T19:36:07	12.3	79
91633	2024-11-02T19:46:07	12.2	79.5
91634	2024-11-02T19:56:07	12.4	80
91635	2024-11-02T20:06:07	12.3	79.5
91636	2024-11-02T20:16:07	12.3	80.5
91637	2024-11-02T20:26:07	12.3	80.5
91638	2024-11-02T20:36:07	12.4	79.5
91639	2024-11-02T20:46:07	12.3	80.5
91640	2024-11-02T20:56:07	12.3	81
91641	2024-11-02T21:06:07	12.4	81
91642	2024-11-02T21:16:07	12.3	80.5
91643	2024-11-02T21:26:07	12.4	81.5
91644	2024-11-02T21:36:07	12.4	81.5
91645	2024-11-02T21:46:07	12.3	81
91646	2024-11-02T21:56:07	12.3	80.5
91647	2024-11-02T22:06:07	12.3	81.5
91648	2024-11-02T22:16:07	12.4	82
91649	2024-11-02T22:26:07	12.3	80.5
91650	2024-11-02T22:36:07	12.3	82.5
91651	2024-11-02T22:46:07	12.4	82
91652	2024-11-02T22:56:07	12.3	81.5
91653	2024-11-02T23:06:07	12.3	80.5
91654	2024-11-02T23:16:07	12.3	80.5
91655	2024-11-02T23:26:07	12.4	79.5
91656	2024-11-02T23:36:07	12.4	80
91657	2024-11-02T23:46:07	12.3	80.5
91658	2024-11-02T23:56:07	12.4	81
91659	2024-11-03T00:33:45	12.4	80.5
91660	2024-11-03T00:33:48	12.4	81.5
91661	2024-11-03T00:33:48	12.4	80
91662	2024-11-03T00:36:07	12.3	79.5
91663	2024-11-03T00:46:07	12.3	80.5
91664	2024-11-03T00:56:07	12.3	80.5
91665	2024-11-03T01:16:07	12.4	80.5
91666	2024-11-03T01:26:07	12.4	80
91667	2024-11-03T01:36:07	12.3	80.5
91668	2024-11-03T01:46:07	12.4	79
91669	2024-11-03T01:56:07	12.4	81
91670	2024-11-03T02:06:07	12.4	80.5
91671	2024-11-03T02:16:07	12.4	80
91672	2024-11-03T02:26:07	12.4	81.5
91673	2024-11-03T02:36:07	12.4	80
91674	2024-11-03T02:46:07	12.4	80.5
91675	2024-11-03T02:56:07	12.5	81
91676	2024-11-03T03:06:07	12.4	81
91677	2024-11-03T03:16:07	12.3	79.5
91678	2024-11-03T03:26:07	12.3	80.5
91679	2024-11-03T03:36:07	12.4	80.5
91680	2024-11-03T03:46:07	12.3	79.5
91681	2024-11-03T03:56:07	12.3	78.5
91682	2024-11-03T04:06:07	12.4	80
91683	2024-11-03T04:16:07	12.3	80.5
91684	2024-11-03T04:26:07	12.3	79
91685	2024-11-03T04:36:07	12.3	80.5
91686	2024-11-03T04:46:07	12.3	81
91687	2024-11-03T04:56:07	12.3	81.5
91688	2024-11-03T05:06:07	12.3	79
91689	2024-11-03T05:16:07	12.2	81
91690	2024-11-03T05:26:07	12.3	81
91691	2024-11-03T05:36:07	12.2	80.5
91692	2024-11-03T05:46:07	12.2	80.5
91693	2024-11-03T05:56:07	12.1	79.5
91694	2024-11-03T06:06:07	12.1	78
91695	2024-11-03T06:16:07	12.1	77.5
91696	2024-11-03T06:26:06	12.1	78.5
91697	2024-11-03T06:36:06	12	77.5
91698	2024-11-03T06:46:06	12	76
91699	2024-11-03T06:56:06	11.8	76.5
91700	2024-11-03T07:06:06	11.6	77.5
91701	2024-11-03T07:16:06	11.5	78
91702	2024-11-03T07:26:06	11.3	77
91703	2024-11-03T07:36:06	11.4	76.5
91704	2024-11-03T07:46:06	11.4	76
91705	2024-11-03T07:56:06	11.5	78
91706	2024-11-03T08:06:06	11.6	77
91707	2024-11-03T08:16:06	11.8	75.5
91708	2024-11-03T08:26:06	11.8	74
91709	2024-11-03T08:36:06	11.8	75
91710	2024-11-03T08:46:06	11.8	75
91711	2024-11-03T08:56:06	11.7	75
91712	2024-11-03T09:06:06	11.9	75
91713	2024-11-03T09:16:06	11.8	76
91714	2024-11-03T09:26:06	11.9	75.5
91715	2024-11-03T09:36:06	12	75
91716	2024-11-03T09:46:06	12.1	76
91717	2024-11-03T09:56:06	12.1	76
91718	2024-11-03T10:06:06	12.4	76.5
91719	2024-11-03T10:16:06	12.4	75
91720	2024-11-03T10:26:06	12.5	75.5
91721	2024-11-03T10:36:06	12.6	75
91722	2024-11-03T10:46:06	12.7	75.5
91723	2024-11-03T10:56:06	12.9	74.5
91724	2024-11-03T11:06:06	13	74
91725	2024-11-03T11:16:06	13.5	73.5
91726	2024-11-03T11:26:06	14.2	71
91727	2024-11-03T11:36:06	14.3	71
91728	2024-11-03T11:46:06	14.7	69
91729	2024-11-03T11:56:06	16.4	65
91730	2024-11-03T12:06:06	18.4	59
91731	2024-11-03T12:16:06	19.6	57
91732	2024-11-03T12:26:06	20.6	53
91733	2024-11-03T12:36:06	21.4	51.5
91734	2024-11-03T12:46:06	22.2	49
91735	2024-11-03T12:56:06	22.6	47.5
91736	2024-11-03T13:06:06	23.1	45.5
91737	2024-11-03T13:16:06	23.2	45.5
91738	2024-11-03T13:26:06	23.4	45
91739	2024-11-03T13:36:06	23.8	43
91740	2024-11-03T13:46:06	24	43
91741	2024-11-03T13:56:06	24.2	43.5
91742	2024-11-03T14:06:06	24.6	42
91743	2024-11-03T14:16:06	24.4	44
91744	2024-11-03T14:26:06	24.3	42.5
91745	2024-11-03T14:36:06	24.7	44
91746	2024-11-03T14:46:06	24.6	44
91747	2024-11-03T14:56:06	24.2	44
91748	2024-11-03T15:06:06	23	47
91749	2024-11-03T15:16:06	22.1	46.5
91750	2024-11-03T15:26:06	21.2	47.5
91751	2024-11-03T15:36:06	20.4	51.5
91752	2024-11-03T15:46:06	19.4	54.5
91753	2024-11-03T15:56:06	18.6	54.5
91754	2024-11-03T16:06:06	18.1	57.5
91755	2024-11-03T16:16:06	17.3	58
91756	2024-11-03T16:26:06	16.7	58
91757	2024-11-03T16:36:06	16.3	61.5
91758	2024-11-03T16:46:06	16	62
91759	2024-11-03T16:56:06	15.6	61.5
91760	2024-11-03T17:06:06	15.2	62
91761	2024-11-03T17:16:06	14.9	65
91762	2024-11-03T17:26:06	14.5	65.5
91763	2024-11-03T17:36:06	14.2	65.5
91764	2024-11-03T17:46:06	14	67
91765	2024-11-03T17:56:06	13.6	68.5
91766	2024-11-03T18:06:06	13.4	69
91767	2024-11-03T18:16:06	13.2	70
91768	2024-11-03T18:26:06	12.9	70
91769	2024-11-03T18:36:06	12.8	69.5
91770	2024-11-03T18:46:05	12.3	70
91771	2024-11-03T18:56:06	12	72
91772	2024-11-03T19:06:05	11.8	72.5
91773	2024-11-03T19:16:05	11.5	73
91774	2024-11-03T19:26:05	11.5	73
91775	2024-11-03T19:36:05	11.6	73.5
91776	2024-11-03T19:46:05	11.4	75
91777	2024-11-03T19:56:05	11.3	75
91778	2024-11-03T20:06:05	11.2	75
91779	2024-11-03T20:16:05	11.1	76.5
91780	2024-11-03T20:26:05	11	76.5
91781	2024-11-03T20:36:05	10.8	77
91782	2024-11-03T20:46:05	10.6	77.5
91783	2024-11-03T20:56:05	10.4	77
91784	2024-11-03T21:06:05	10.3	77
91785	2024-11-03T21:16:05	10.2	78
91786	2024-11-03T21:26:05	10	77
91787	2024-11-03T21:36:05	9.8	78
91788	2024-11-03T21:46:05	9.7	77.5
91789	2024-11-03T21:56:05	9.6	77.5
91790	2024-11-03T22:06:05	9.4	78
91791	2024-11-03T22:16:05	9.3	78
91792	2024-11-03T22:26:05	9.2	78
91793	2024-11-03T22:36:05	9.1	78.5
91794	2024-11-03T22:46:05	8.9	78
91795	2024-11-03T22:56:05	8.7	78
91796	2024-11-03T23:06:05	8.7	77.5
91797	2024-11-03T23:16:05	8.4	78
91798	2024-11-03T23:26:05	8.2	78.5
91799	2024-11-03T23:36:05	8.1	78
91800	2024-11-03T23:46:05	8.1	79.5
91801	2024-11-03T23:56:05	8	79
91802	2024-11-04T00:36:11	8	79
91803	2024-11-04T00:36:11	7.7	78.5
91804	2024-11-04T00:36:11	7.8	79.5
91805	2024-11-04T00:36:12	7.6	79.5
91806	2024-11-04T00:46:05	7.4	79.5
91807	2024-11-04T00:56:05	7.3	79.5
91808	2024-11-04T01:06:05	7.2	79.5
91809	2024-11-04T01:16:05	7	80
91810	2024-11-04T01:26:05	6.8	79.5
91811	2024-11-04T01:36:05	6.8	80.5
91812	2024-11-04T01:46:05	6.7	80.5
91813	2024-11-04T01:56:05	6.6	80.5
91814	2024-11-04T02:06:05	6.5	80.5
91815	2024-11-04T02:16:05	6.4	80
91816	2024-11-04T02:26:05	6.3	80.5
91817	2024-11-04T02:36:05	6.1	80.5
91818	2024-11-04T02:46:05	6	81
91819	2024-11-04T02:56:05	6.1	81.5
91820	2024-11-04T03:16:05	6	83
91821	2024-11-04T03:26:05	5.9	82.5
91822	2024-11-04T03:36:21	5.8	82.5
91823	2024-11-04T03:46:05	5.8	82.5
91824	2024-11-04T03:56:05	5.6	82.5
91825	2024-11-04T04:06:05	5.6	83
91826	2024-11-04T04:16:05	5.6	83.5
91827	2024-11-04T04:26:05	5.4	82.5
91828	2024-11-04T04:36:05	5.2	83.5
91829	2024-11-04T04:46:05	5.3	83
91830	2024-11-04T04:56:05	5.1	83.5
91831	2024-11-04T05:06:05	5.1	84.5
91832	2024-11-04T05:16:05	5.1	84
91833	2024-11-04T05:26:05	5	84.5
91834	2024-11-04T05:36:05	4.9	84.5
91835	2024-11-04T05:46:05	5	84.5
91836	2024-11-04T05:56:05	4.9	85
91837	2024-11-04T06:06:05	5	85
91838	2024-11-04T06:16:05	5.1	85.5
91839	2024-11-04T06:26:05	5.3	85.5
91840	2024-11-04T06:36:05	5.4	84.5
91841	2024-11-04T06:46:05	5.6	85
91842	2024-11-04T06:56:05	5.8	87
91843	2024-11-04T07:06:05	6	89.5
91844	2024-11-04T07:16:05	6.2	90
91845	2024-11-04T07:26:05	6.5	91
91846	2024-11-04T07:36:05	6.7	91
91847	2024-11-04T07:46:05	7	90.5
91848	2024-11-04T07:56:05	7.2	90.5
91849	2024-11-04T08:06:05	7.5	89.5
91850	2024-11-04T08:16:05	7.6	88.5
91851	2024-11-04T08:26:05	7.8	88.5
91852	2024-11-04T08:36:05	7.9	87.5
91853	2024-11-04T08:46:05	8.1	86.5
91854	2024-11-04T08:56:05	8.3	85.5
91855	2024-11-04T09:06:05	8.7	85
91856	2024-11-04T09:16:05	8.8	83.5
91857	2024-11-04T09:26:05	9	83.5
91858	2024-11-04T09:36:05	9.2	82.5
91859	2024-11-04T09:46:05	9.4	82
91860	2024-11-04T09:56:05	9.6	81
91861	2024-11-04T10:06:05	9.8	81
91862	2024-11-04T10:16:05	10	80.5
91863	2024-11-04T10:26:05	10.1	80
91864	2024-11-04T10:36:05	10.3	79
91865	2024-11-04T10:46:05	10.5	79
91866	2024-11-04T10:56:05	10.7	78
91867	2024-11-04T11:06:05	10.9	78
91868	2024-11-04T11:16:05	11.1	77.5
91869	2024-11-04T11:26:05	11.3	76
91870	2024-11-04T11:36:05	11.4	76
91871	2024-11-04T11:46:05	11.8	75.5
91872	2024-11-04T11:56:05	13.3	72
91873	2024-11-04T12:06:05	15.7	64
91874	2024-11-04T12:16:05	16.9	59.5
91875	2024-11-04T12:26:05	18.2	56.5
91876	2024-11-04T12:36:05	18.8	53.5
91877	2024-11-04T12:46:05	19.6	53
91878	2024-11-04T12:56:05	20.2	52
91879	2024-11-04T13:06:05	20.8	49
91880	2024-11-04T13:16:05	21.5	49.5
91881	2024-11-04T13:26:05	22.1	48.5
91882	2024-11-04T13:36:05	22.4	45.5
91883	2024-11-04T13:46:05	22.6	44
91884	2024-11-04T13:56:05	22.5	44.5
91885	2024-11-04T14:06:05	22.7	47.5
91886	2024-11-04T14:16:05	22.9	46
91887	2024-11-04T14:26:04	22.8	44.5
91888	2024-11-04T14:36:04	22.6	47.5
91889	2024-11-04T14:46:05	22.7	45
91890	2024-11-04T14:56:04	22.9	49.5
91891	2024-11-04T15:06:04	21.8	47
91892	2024-11-04T15:16:04	20.7	52
91893	2024-11-04T15:26:04	20	51.5
91894	2024-11-04T15:36:04	19.4	55
91895	2024-11-04T15:46:04	18.6	55.5
91896	2024-11-04T16:06:04	17.4	62
91897	2024-11-04T16:16:04	16.9	62.5
91898	2024-11-04T16:26:04	15.7	61.5
91899	2024-11-04T16:36:04	14.4	65.5
91900	2024-11-04T16:46:04	13.8	67.5
91901	2024-11-04T16:56:04	13.2	69
91902	2024-11-04T17:06:04	12.9	71
91903	2024-11-04T17:16:04	13	70
91904	2024-11-04T17:26:04	12.8	72
91905	2024-11-04T17:36:04	12.9	73
91906	2024-11-04T17:46:04	12.7	73.5
91907	2024-11-04T17:56:04	12.5	73.5
91908	2024-11-04T18:06:04	12.3	70.5
91909	2024-11-04T18:16:04	11.8	69.5
91910	2024-11-04T18:26:04	11.5	72
91911	2024-11-04T18:36:04	11	72.5
91912	2024-11-04T18:46:04	11	74.5
91913	2024-11-04T18:56:04	10.8	74.5
91914	2024-11-04T19:06:04	10.8	75
91915	2024-11-04T19:16:04	10.7	76
91916	2024-11-04T19:26:04	10.9	76
91917	2024-11-04T19:36:04	11	76.5
91918	2024-11-04T19:46:04	11.1	77
91919	2024-11-04T19:56:04	11.1	76.5
91920	2024-11-04T20:06:04	10.6	78.5
91921	2024-11-04T20:16:04	10.5	79
91922	2024-11-04T20:26:04	10.3	81
91923	2024-11-04T20:36:04	10.2	81.5
91924	2024-11-04T20:46:04	9.9	82
91925	2024-11-04T20:56:04	9.8	82.5
91926	2024-11-04T21:06:04	9.9	83
91927	2024-11-04T21:16:04	9.8	83.5
91928	2024-11-04T21:26:04	9.6	83
91929	2024-11-04T21:36:04	9.9	83.5
91930	2024-11-04T21:46:04	10.2	83
91931	2024-11-04T21:56:04	10.1	83.5
91932	2024-11-04T22:06:04	10.2	83.5
91933	2024-11-04T22:16:04	10.1	84
91934	2024-11-04T22:26:04	10	83.5
91935	2024-11-04T22:36:04	9.7	84
91936	2024-11-04T22:46:04	9.7	84
91937	2024-11-04T22:56:04	9.7	83.5
91938	2024-11-04T23:06:04	9.7	84
91939	2024-11-04T23:16:04	9.9	84
91940	2024-11-04T23:26:04	9.8	84
91941	2024-11-04T23:36:04	9.9	84
91942	2024-11-04T23:46:04	9.8	84
91943	2024-11-04T23:56:04	9.9	84
91944	2024-11-05T00:32:32	9.8	83
91945	2024-11-05T00:32:32	9.7	84
91946	2024-11-05T00:32:32	9.7	83.5
91947	2024-11-05T00:36:04	9.7	84
91948	2024-11-05T00:46:04	9.7	83.5
91949	2024-11-05T00:56:04	9.4	85
91950	2024-11-05T01:06:04	9.4	84.5
91951	2024-11-05T01:16:04	9.2	85
91952	2024-11-05T01:26:04	9	86
91953	2024-11-05T01:36:04	8.8	87
91954	2024-11-05T01:46:04	9.1	87
91955	2024-11-05T01:56:04	9.1	86
91956	2024-11-05T02:06:04	8.8	87.5
91957	2024-11-05T02:16:04	9.1	87
91958	2024-11-05T02:26:04	9	87
91959	2024-11-05T02:36:04	9	86.5
91960	2024-11-05T02:46:04	8.9	87.5
91961	2024-11-05T02:56:04	9.1	87.5
91962	2024-11-05T03:06:04	9	87
91963	2024-11-05T03:16:04	9.1	87
91964	2024-11-05T03:26:04	9.1	87
91965	2024-11-05T03:36:04	9	86.5
91966	2024-11-05T03:46:04	9	87.5
91967	2024-11-05T03:56:04	9	87.5
91968	2024-11-05T04:06:04	9	87.5
91969	2024-11-05T04:16:04	8.9	85
91970	2024-11-05T04:26:04	8.7	84.5
91971	2024-11-05T04:36:04	8.8	84.5
91972	2024-11-05T04:46:04	8.8	85
91973	2024-11-05T04:56:04	8.8	85
91974	2024-11-05T05:06:04	8.8	85
91975	2024-11-05T05:16:04	8.8	85
91976	2024-11-05T05:26:04	8.8	85
91977	2024-11-05T05:36:04	8.7	85
91978	2024-11-05T05:46:04	8.8	85
91979	2024-11-05T05:56:04	8.8	85.5
91980	2024-11-05T06:06:04	8.8	85.5
91981	2024-11-05T06:16:04	8.7	85.5
91982	2024-11-05T06:26:04	8.7	86
91983	2024-11-05T06:36:04	8.8	86.5
91984	2024-11-05T06:46:04	8.7	86
91985	2024-11-05T06:56:04	8.7	86
91986	2024-11-05T07:06:03	8.8	86
91987	2024-11-05T07:16:03	8.9	85.5
91988	2024-11-05T07:26:03	8.9	85.5
91989	2024-11-05T07:36:03	9	85
91990	2024-11-05T07:46:03	9	85
91991	2024-11-05T07:56:03	9	84.5
91992	2024-11-05T08:06:03	9.2	85
91993	2024-11-05T08:16:03	9.3	84.5
91994	2024-11-05T08:26:03	9.4	84.5
91995	2024-11-05T08:36:03	9.3	84
91996	2024-11-05T08:46:03	9.4	84.5
91997	2024-11-05T08:56:03	9.5	84.5
91998	2024-11-05T09:06:03	9.6	84
91999	2024-11-05T09:16:03	9.8	83
92000	2024-11-05T09:26:03	9.9	82.5
92001	2024-11-05T09:36:03	10	82.5
92002	2024-11-05T09:46:03	10	81
92003	2024-11-05T09:56:03	10.2	82
92004	2024-11-05T10:06:03	10.3	81
92005	2024-11-05T10:16:03	10.5	80
92006	2024-11-05T10:26:03	10.6	80
92007	2024-11-05T10:36:03	10.6	79.5
92008	2024-11-05T10:46:03	10.8	79
92009	2024-11-05T10:56:03	11.2	78.5
92010	2024-11-05T11:06:03	11.3	78
92011	2024-11-05T11:16:03	11.4	76.5
92012	2024-11-05T11:26:03	11.1	77
92013	2024-11-05T11:36:03	11.2	78.5
92014	2024-11-05T11:46:03	11.5	78.5
92015	2024-11-05T11:56:03	11.5	78
92016	2024-11-05T12:06:03	11.5	78
92017	2024-11-05T12:16:03	11.4	76
92018	2024-11-05T12:26:03	11.4	76.5
92019	2024-11-05T12:36:03	11.4	76.5
92020	2024-11-05T12:46:03	11.7	76.5
92021	2024-11-05T12:56:03	12.7	74
92022	2024-11-05T13:06:03	13.7	71
92023	2024-11-05T13:16:03	14.4	67.5
92024	2024-11-05T13:26:03	15.6	65.5
92025	2024-11-05T13:36:03	16.6	63
92026	2024-11-05T13:46:03	16.8	62.5
92027	2024-11-05T13:56:03	17.6	61
92028	2024-11-05T14:06:03	18.1	59
92029	2024-11-05T14:16:03	18.4	59
92030	2024-11-05T14:26:03	18.2	60
92031	2024-11-05T14:36:03	18.5	58
92032	2024-11-05T14:46:03	18.3	59
92033	2024-11-05T14:56:03	18.3	60.5
92034	2024-11-05T15:06:03	17.2	62
92035	2024-11-05T15:16:03	16.8	64
92036	2024-11-05T15:26:03	16	65.5
92037	2024-11-05T15:36:03	15.4	67
92038	2024-11-05T15:46:03	14.9	68
92039	2024-11-05T15:56:03	14.3	70
92040	2024-11-05T16:06:03	14	71
92041	2024-11-05T16:16:03	13.5	71
92042	2024-11-05T16:26:03	13	72
92043	2024-11-05T16:36:03	12.8	73.5
92044	2024-11-05T16:46:03	12.6	75.5
92045	2024-11-05T16:56:03	12.5	76
92046	2024-11-05T17:06:03	12.3	76
92047	2024-11-05T17:16:03	12.1	75.5
92048	2024-11-05T17:26:03	11.8	77
92049	2024-11-05T17:36:03	11.6	77.5
92050	2024-11-05T17:46:03	11.6	77.5
92051	2024-11-05T17:56:03	11.4	78
92052	2024-11-05T18:06:03	11.3	78
92053	2024-11-05T18:16:03	11.1	78.5
92054	2024-11-05T18:26:03	10.9	76.5
92055	2024-11-05T18:36:03	10.7	78.5
92056	2024-11-05T18:46:03	10.7	78
92057	2024-11-05T18:56:03	10.5	79
92058	2024-11-05T19:06:03	10.4	79.5
92059	2024-11-05T19:16:03	10.3	79.5
92060	2024-11-05T19:26:03	10.2	80
92061	2024-11-05T19:36:03	10.1	80
92062	2024-11-05T19:46:03	9.8	80
92063	2024-11-05T19:56:03	9.8	80
92064	2024-11-05T20:06:03	9.7	80
92065	2024-11-05T20:16:03	9.5	80
92066	2024-11-05T20:26:03	9.5	80.5
92067	2024-11-05T20:36:03	9.3	81
92068	2024-11-05T20:46:03	9.2	80.5
92069	2024-11-05T20:56:03	9.1	81
92070	2024-11-05T21:06:03	9	80.5
92071	2024-11-05T21:16:03	8.9	81
92072	2024-11-05T21:26:03	9.1	81.5
92073	2024-11-05T21:36:03	9	82.5
92074	2024-11-05T21:46:03	9.1	82.5
92075	2024-11-05T21:56:03	9	82
92076	2024-11-05T22:06:03	9.1	81.5
92077	2024-11-05T22:16:03	9.1	82
92078	2024-11-05T22:26:02	9.2	82.5
92079	2024-11-05T22:36:02	9.1	83
92080	2024-11-05T22:46:02	9	84
92081	2024-11-05T22:56:02	9.1	84.5
92082	2024-11-05T23:06:03	9	84.5
92083	2024-11-05T23:16:02	9.1	84
92084	2024-11-05T23:26:02	9	84
92085	2024-11-05T23:36:02	9	84.5
92086	2024-11-05T23:46:02	9.1	84.5
92087	2024-11-05T23:56:02	9	85
92088	2024-11-06T00:34:04	8.9	85
92089	2024-11-06T00:34:04	9	85.5
92090	2024-11-06T00:34:04	8.9	85.5
92091	2024-11-06T00:36:02	9	85
92092	2024-11-06T00:46:02	9	85
92093	2024-11-06T00:56:02	9.1	85
92094	2024-11-06T01:06:02	9	85
92095	2024-11-06T01:16:02	8.9	84.5
92096	2024-11-06T01:26:02	9	85
92097	2024-11-06T01:36:02	9	85
92098	2024-11-06T01:46:02	9.1	85
92099	2024-11-06T01:56:02	9	85
92100	2024-11-06T02:06:02	9	85.5
92101	2024-11-06T02:16:02	9	85.5
92102	2024-11-06T02:26:02	9.1	85.5
92103	2024-11-06T02:36:02	9.1	85.5
92104	2024-11-06T02:46:02	8.9	85.5
92105	2024-11-06T02:56:02	8.8	86
92106	2024-11-06T03:06:02	8.8	86
92107	2024-11-06T03:16:02	8.7	86.5
92108	2024-11-06T03:26:02	8.8	86.5
92109	2024-11-06T03:36:02	8.8	87
92110	2024-11-06T03:46:02	8.8	86.5
92111	2024-11-06T03:56:02	8.7	87
92112	2024-11-06T04:06:02	8.7	87
92113	2024-11-06T04:16:02	8.6	87
92114	2024-11-06T04:26:02	8.7	87
92115	2024-11-06T04:36:02	8.8	87
92116	2024-11-06T04:46:02	8.9	87
92117	2024-11-06T04:56:02	8.9	87
92118	2024-11-06T05:06:02	8.9	87
92119	2024-11-06T05:16:02	8.9	87
92120	2024-11-06T05:26:02	8.9	87
92121	2024-11-06T05:36:02	8.9	87
92122	2024-11-06T05:46:02	8.9	87
92123	2024-11-06T05:56:02	9	87
92124	2024-11-06T06:06:02	8.9	87
92125	2024-11-06T06:16:02	8.9	87.5
92126	2024-11-06T06:26:02	8.9	88
92127	2024-11-06T06:36:02	8.8	88
92128	2024-11-06T06:46:02	8.8	88
92129	2024-11-06T06:56:02	9	88
92130	2024-11-06T07:06:02	9	88
92131	2024-11-06T07:16:02	9	88
92132	2024-11-06T07:26:02	9.1	88.5
92133	2024-11-06T07:36:02	9.1	89
92134	2024-11-06T07:46:02	9.3	89
92135	2024-11-06T07:56:02	9.3	89
92136	2024-11-06T08:06:02	9.5	88.5
92137	2024-11-06T08:16:02	9.6	88.5
92138	2024-11-06T08:26:02	9.8	88.5
92139	2024-11-06T08:36:02	9.9	88
92140	2024-11-06T08:46:02	10.1	88
92141	2024-11-06T08:56:02	10.2	87.5
92142	2024-11-06T09:06:02	10.4	87
92143	2024-11-06T09:16:02	10.4	87
92144	2024-11-06T09:26:02	10.6	86.5
92145	2024-11-06T09:36:02	10.8	86.5
92146	2024-11-06T09:46:02	10.7	86
92147	2024-11-06T09:56:02	10.5	87.5
92148	2024-11-06T10:06:02	10.6	87.5
92149	2024-11-06T10:16:02	10.8	87
92150	2024-11-06T10:26:02	10.9	86.5
92151	2024-11-06T10:36:02	11	86
92152	2024-11-06T10:46:02	11.4	85
92153	2024-11-06T10:56:02	11.6	84.5
92154	2024-11-06T11:06:02	11.8	83.5
92155	2024-11-06T11:16:02	12.2	83
92156	2024-11-06T11:26:02	12.7	81
92157	2024-11-06T11:36:02	12.8	80.5
92158	2024-11-06T11:46:02	13.1	80
92159	2024-11-06T11:56:02	14.2	77
92160	2024-11-06T12:06:02	15.3	73.5
92161	2024-11-06T12:16:02	16.2	70.5
92162	2024-11-06T12:26:02	17.1	67.5
92163	2024-11-06T12:36:02	17.8	64.5
92164	2024-11-06T12:46:02	18.4	61.5
92165	2024-11-06T12:56:02	18.6	61
92166	2024-11-06T13:06:02	18.5	61
92167	2024-11-06T13:16:02	19.2	60
92168	2024-11-06T13:26:02	19.4	59.5
92169	2024-11-06T13:36:02	19.8	59
92170	2024-11-06T13:46:02	19.8	58.5
92171	2024-11-06T13:56:02	19.8	56
92172	2024-11-06T14:06:02	19.7	56.5
92173	2024-11-06T14:16:02	19.4	57
92174	2024-11-06T14:26:02	19	58.5
92175	2024-11-06T14:36:02	18.7	60
92176	2024-11-06T14:46:01	17.4	62.5
92177	2024-11-06T14:56:01	16.8	65
92178	2024-11-06T15:06:01	16.2	67
92179	2024-11-06T15:16:01	15.7	67.5
92180	2024-11-06T15:26:01	15.3	69
92181	2024-11-06T15:36:01	15.1	70
92182	2024-11-06T15:46:01	14.7	70.5
92183	2024-11-06T15:56:01	14.5	71.5
92184	2024-11-06T16:06:01	14.2	73.5
92185	2024-11-06T16:16:01	14	73.5
92186	2024-11-06T16:26:01	13.8	74
92187	2024-11-06T16:36:01	13.5	76
92188	2024-11-06T16:46:01	13.4	75.5
92189	2024-11-06T16:56:01	13.1	76.5
92190	2024-11-06T17:06:01	13	77.5
92191	2024-11-06T17:16:01	13	78
92192	2024-11-06T17:26:01	12.8	77
92193	2024-11-06T17:36:01	12.5	77.5
92194	2024-11-06T17:46:01	12.4	78.5
92195	2024-11-06T17:56:01	12.3	78
92196	2024-11-06T18:06:01	12.3	79
92197	2024-11-06T18:16:01	12.2	80
92198	2024-11-06T18:26:01	12.1	80
92199	2024-11-06T18:36:01	11.9	81
92200	2024-11-06T18:46:01	11.9	81.5
92201	2024-11-06T18:56:01	11.8	82
92202	2024-11-06T19:06:01	11.8	81
92203	2024-11-06T19:16:01	11.5	82
92204	2024-11-06T19:26:01	11.5	83
92205	2024-11-06T19:36:01	11.3	84
92206	2024-11-06T19:46:01	11.1	81.5
92207	2024-11-06T19:56:01	11	82.5
92208	2024-11-06T20:06:01	11	83
92209	2024-11-06T20:16:01	10.8	84
92210	2024-11-06T20:26:01	10.8	87
92211	2024-11-06T20:36:01	10.5	91
92212	2024-11-06T20:46:01	10.4	91
92213	2024-11-06T20:56:01	10.2	92
92214	2024-11-06T21:06:01	10	92.5
92215	2024-11-06T21:16:01	10.2	93
92216	2024-11-06T21:26:01	10.1	94
92217	2024-11-06T21:36:01	10	94.5
92218	2024-11-06T21:46:01	9.8	93.5
92219	2024-11-06T21:56:01	9.8	96
92220	2024-11-06T22:06:01	9.7	96.5
92221	2024-11-06T22:16:01	9.7	95.5
92222	2024-11-06T22:26:01	9.5	94.5
92223	2024-11-06T22:36:01	9.6	96
92224	2024-11-06T22:46:01	9.6	94.5
92225	2024-11-06T22:56:01	9.5	93.5
92226	2024-11-06T23:06:01	9.4	92
92227	2024-11-06T23:16:01	9.5	91
92228	2024-11-06T23:26:01	9.4	92.5
92229	2024-11-06T23:36:01	9.4	90.5
92230	2024-11-06T23:46:01	9.3	90
92231	2024-11-06T23:56:01	9.2	90.5
92232	2024-11-07T00:32:45	9.3	90
92233	2024-11-07T00:32:45	9.3	89
92234	2024-11-07T00:32:45	9.3	90.5
92235	2024-11-07T00:36:01	9.2	89
92236	2024-11-07T00:46:01	9.2	89
92237	2024-11-07T00:56:01	9.2	88
92238	2024-11-07T01:16:01	9.2	88.5
92239	2024-11-07T01:26:01	9.2	88.5
92240	2024-11-07T01:36:01	9.3	88
92241	2024-11-07T01:46:01	9.3	88
92242	2024-11-07T01:56:01	9.3	87
92243	2024-11-07T02:06:01	9.2	85.5
92244	2024-11-07T02:16:01	9.1	85
92245	2024-11-07T02:26:01	9	85
92246	2024-11-07T02:36:01	9	85
92247	2024-11-07T02:46:01	8.9	83.5
92248	2024-11-07T02:56:01	8.9	84
92249	2024-11-07T03:06:01	8.7	83.5
92250	2024-11-07T03:16:01	8.6	83
92251	2024-11-07T03:26:01	8.5	83
92252	2024-11-07T03:36:01	8.5	83
92253	2024-11-07T03:46:01	8.4	83
92254	2024-11-07T03:56:01	8.4	82.5
92255	2024-11-07T04:06:01	8.3	82.5
92256	2024-11-07T04:16:01	8.3	82.5
92257	2024-11-07T04:26:01	8.2	83
92258	2024-11-07T04:36:01	8.2	82
92259	2024-11-07T04:46:01	8.2	83
92260	2024-11-07T04:56:01	8.1	82.5
92261	2024-11-07T05:06:01	8.1	83
92262	2024-11-07T05:16:01	8	82
92263	2024-11-07T05:26:01	8.2	83
92264	2024-11-07T05:36:01	8	82.5
92265	2024-11-07T05:46:01	8	82.5
92266	2024-11-07T05:56:01	8	83.5
92267	2024-11-07T06:06:01	7.9	83.5
92268	2024-11-07T06:16:01	8	84.5
92269	2024-11-07T06:26:01	8	84
92270	2024-11-07T06:36:01	8	84
92271	2024-11-07T06:46:01	7.9	84
92272	2024-11-07T06:56:01	8	84.5
92273	2024-11-07T07:06:01	7.9	84.5
92274	2024-11-07T07:26:01	7.9	85
92275	2024-11-07T07:36:01	7.9	85.5
92276	2024-11-07T07:46:00	7.9	85.5
92277	2024-11-07T07:56:00	8	85.5
92278	2024-11-07T08:06:00	8.1	85
92279	2024-11-07T08:16:00	8	85.5
92280	2024-11-07T08:26:00	8.2	86.5
92281	2024-11-07T08:36:00	8.2	86
92282	2024-11-07T08:46:00	8.3	85.5
92283	2024-11-07T08:56:01	8.3	85.5
92284	2024-11-07T09:06:00	8.3	85.5
92285	2024-11-07T09:16:00	8.4	85
92286	2024-11-07T09:26:00	8.3	84.5
92287	2024-11-07T09:36:00	8.6	83.5
92288	2024-11-07T09:46:00	8.6	82.5
92289	2024-11-07T09:56:00	8.6	83.5
92290	2024-11-07T10:06:00	8.8	83.5
92291	2024-11-07T10:16:00	9	83
92292	2024-11-07T10:26:00	9.1	82.5
92293	2024-11-07T10:36:00	9.1	83
92294	2024-11-07T10:46:00	9.2	83
92295	2024-11-07T10:56:00	9.3	83.5
92296	2024-11-07T11:06:00	9.3	83
92297	2024-11-07T11:16:00	9.4	83
92298	2024-11-07T11:26:00	9.4	82.5
92299	2024-11-07T11:36:00	9.6	83
92300	2024-11-07T11:46:00	9.5	82.5
92301	2024-11-07T11:56:00	9.4	83
92302	2024-11-07T12:06:00	9.5	82.5
92303	2024-11-07T12:16:00	9.6	83
92304	2024-11-07T12:26:00	9.7	82
92305	2024-11-07T12:36:00	9.8	82
92306	2024-11-07T12:46:00	9.9	81.5
92307	2024-11-07T12:56:00	9.9	82
92308	2024-11-07T13:06:00	10	81.5
92309	2024-11-07T13:16:00	9.9	81.5
92310	2024-11-07T13:26:00	10.1	81.5
92311	2024-11-07T13:36:00	10.1	81.5
92312	2024-11-07T13:46:00	10.1	81
92313	2024-11-07T13:56:00	10	81.5
92314	2024-11-07T14:06:00	10.1	81.5
92315	2024-11-07T14:16:00	10.1	82.5
92316	2024-11-07T14:26:00	10.2	82.5
92317	2024-11-07T14:36:00	10.1	82.5
92318	2024-11-07T14:46:00	10	82
92319	2024-11-07T14:56:00	10	82
92320	2024-11-07T15:06:00	9.9	82
92321	2024-11-07T15:16:00	10	82
92322	2024-11-07T15:26:00	9.9	82
92323	2024-11-07T15:36:00	9.9	82.5
92324	2024-11-07T15:46:00	9.9	83
92325	2024-11-07T15:56:00	9.8	82.5
92326	2024-11-07T16:06:00	9.7	83
92327	2024-11-07T16:16:00	9.7	83
92328	2024-11-07T16:26:00	9.8	83.5
92329	2024-11-07T16:36:00	9.7	83.5
92330	2024-11-07T16:46:00	9.6	83.5
92331	2024-11-07T16:56:00	9.8	83.5
92332	2024-11-07T17:06:00	9.8	84
92333	2024-11-07T17:16:00	9.8	84
92334	2024-11-07T17:26:00	9.9	83.5
92335	2024-11-07T17:36:00	9.8	83.5
92336	2024-11-07T17:46:00	9.6	83
92337	2024-11-07T17:56:00	9.7	83
92338	2024-11-07T18:06:00	9.6	82.5
92339	2024-11-07T18:16:00	9.6	82.5
92340	2024-11-07T18:26:00	9.5	82.5
92341	2024-11-07T18:36:00	9.6	82.5
92342	2024-11-07T18:46:00	9.6	81.5
92343	2024-11-07T18:56:00	9.6	82
92344	2024-11-07T19:06:00	9.6	82.5
92345	2024-11-07T19:16:00	9.5	82
92346	2024-11-07T19:26:00	9.6	82.5
92347	2024-11-07T19:36:00	9.5	82
92348	2024-11-07T19:46:00	9.5	82
92349	2024-11-07T19:56:00	9.4	82
92350	2024-11-07T20:06:00	9.3	83
92351	2024-11-07T20:16:00	9.5	83
92352	2024-11-07T20:26:00	9.5	82
92353	2024-11-07T20:36:00	9.4	82.5
92354	2024-11-07T20:46:00	9.5	83
92355	2024-11-07T20:56:00	9.4	82.5
92356	2024-11-07T21:06:00	9.4	83
92357	2024-11-07T21:16:00	9.4	83.5
92358	2024-11-07T21:26:00	9.3	83.5
92359	2024-11-07T21:36:00	9.3	83
92360	2024-11-07T21:46:00	9.3	83
92361	2024-11-07T21:56:00	9.3	83.5
92362	2024-11-07T22:06:00	9.3	84
92363	2024-11-07T22:16:00	9.3	84
92364	2024-11-07T22:26:00	9.2	85.5
92365	2024-11-07T22:36:00	9.3	86
92366	2024-11-07T22:46:00	9.3	86
92367	2024-11-07T22:56:00	9.3	86
92368	2024-11-07T23:06:00	9.3	86
92369	2024-11-07T23:16:00	9.1	86.5
92370	2024-11-07T23:26:00	9.3	87
92371	2024-11-07T23:36:00	9.3	86.5
92372	2024-11-07T23:46:00	9.2	87
92373	2024-11-07T23:56:00	9.1	87.5
92374	2024-11-08T00:33:18	9	87.5
92375	2024-11-08T00:33:18	9.1	88
92376	2024-11-08T00:33:18	9	87.5
92377	2024-11-08T00:35:59	9	88
92378	2024-11-08T00:45:59	8.8	88
92379	2024-11-08T00:55:59	8.9	88.5
92380	2024-11-08T01:06:00	8.9	88
92381	2024-11-08T01:15:59	8.9	88
92382	2024-11-08T01:25:59	8.8	88
92383	2024-11-08T01:35:59	8.9	87.5
92384	2024-11-08T01:45:59	8.8	88
92385	2024-11-08T01:55:59	9	88
92386	2024-11-08T02:05:59	8.9	88
92387	2024-11-08T02:15:59	8.9	88
92388	2024-11-08T02:25:59	8.9	88.5
92389	2024-11-08T02:35:59	9	88
92390	2024-11-08T02:45:59	9	87.5
92391	2024-11-08T02:55:59	8.9	87.5
92392	2024-11-08T03:05:59	8.8	88
92393	2024-11-08T03:15:59	8.9	88
92394	2024-11-08T03:25:59	8.9	88
92395	2024-11-08T03:35:59	8.7	88
92396	2024-11-08T03:45:59	8.8	88
92397	2024-11-08T03:55:59	8.7	88
92398	2024-11-08T04:05:59	8.8	88
92399	2024-11-08T04:15:59	8.8	88.5
92400	2024-11-08T04:35:59	8.8	88
92401	2024-11-08T04:45:59	8.7	88
92402	2024-11-08T04:55:59	8.7	88
92403	2024-11-08T05:05:59	8.8	88.5
92404	2024-11-08T05:15:59	8.8	88
92405	2024-11-08T05:25:59	8.9	87.5
92406	2024-11-08T05:35:59	9	87.5
92407	2024-11-08T05:45:59	9	87
92408	2024-11-08T05:55:59	9	87.5
92409	2024-11-08T06:05:59	9.1	87
92410	2024-11-08T06:25:59	9	86.5
92411	2024-11-08T06:35:59	9	86.5
92412	2024-11-08T06:45:59	9.1	86
92413	2024-11-08T06:55:59	9.2	86
92414	2024-11-08T07:05:59	9.1	85.5
92415	2024-11-08T07:15:59	9.2	85
92416	2024-11-08T07:25:59	9.3	85
92417	2024-11-08T07:35:59	9.2	85
92418	2024-11-08T07:45:59	9.3	85
92419	2024-11-08T07:55:59	9.3	85
92420	2024-11-08T08:05:59	9.3	85
92421	2024-11-08T08:15:59	9.4	84
92422	2024-11-08T08:25:59	9.5	84
92423	2024-11-08T08:35:59	9.6	84
92424	2024-11-08T08:45:59	9.6	83
92425	2024-11-08T08:55:59	9.7	82.5
92426	2024-11-08T09:05:59	9.8	82
92427	2024-11-08T09:15:59	9.8	81
92428	2024-11-08T09:25:59	10	81.5
92429	2024-11-08T09:35:59	10	79.5
92430	2024-11-08T09:45:59	10.1	80.5
92431	2024-11-08T09:55:59	10.3	80.5
92432	2024-11-08T10:05:59	10.3	81
92433	2024-11-08T10:15:59	10.5	80.5
92434	2024-11-08T10:25:59	10.5	80
92435	2024-11-08T10:45:59	10.8	79
92436	2024-11-08T10:55:59	10.8	78.5
92437	2024-11-08T11:05:59	10.8	79
92438	2024-11-08T11:15:59	10.8	77.5
92439	2024-11-08T11:25:59	11	80
92440	2024-11-08T11:35:59	11	78.5
92441	2024-11-08T11:45:59	11	78.5
92442	2024-11-08T11:55:59	11.1	79
92443	2024-11-08T12:05:59	11.2	78
92444	2024-11-08T12:15:59	11.3	77.5
92445	2024-11-08T12:25:59	11.2	77
92446	2024-11-08T12:35:59	11.2	77.5
92447	2024-11-08T12:45:59	11.4	78
92448	2024-11-08T12:55:59	11.4	78
92449	2024-11-08T13:05:59	11.3	77
92450	2024-11-08T13:15:59	11.3	77
92451	2024-11-08T13:25:59	11.2	76
92452	2024-11-08T13:35:59	11.1	77.5
92453	2024-11-08T13:45:59	11.1	76.5
92454	2024-11-08T13:55:59	11.2	77
92455	2024-11-08T14:05:59	11.2	77.5
92456	2024-11-08T14:15:59	11.2	77.5
92457	2024-11-08T14:25:59	11.2	77.5
92458	2024-11-08T14:35:59	11.1	77
92459	2024-11-08T14:45:59	11.1	76.5
92460	2024-11-08T14:55:59	11	77.5
92461	2024-11-08T15:05:59	11	78
92462	2024-11-08T15:15:59	10.9	77.5
92463	2024-11-08T15:25:59	10.9	78.5
92464	2024-11-08T15:35:59	10.8	79
92465	2024-11-08T15:45:59	10.8	78.5
92466	2024-11-08T15:55:59	10.7	78
92467	2024-11-08T16:05:59	10.6	78.5
92468	2024-11-08T16:15:59	10.7	79.5
92469	2024-11-08T16:25:59	10.6	80
92470	2024-11-08T16:35:59	10.6	80
92471	2024-11-08T16:45:59	10.5	79.5
92472	2024-11-08T16:55:59	10.5	80.5
92473	2024-11-08T17:05:59	10.5	80.5
92474	2024-11-08T17:15:59	10.5	80.5
92475	2024-11-08T17:25:59	10.4	81.5
92476	2024-11-08T17:35:59	10.4	81.5
92477	2024-11-08T17:45:59	10.5	82
92478	2024-11-08T17:55:59	10.2	80.5
92479	2024-11-08T18:05:59	10.2	80.5
92480	2024-11-08T18:15:59	10.2	80.5
92481	2024-11-08T18:25:59	10.2	81
92482	2024-11-08T18:35:58	10.3	81.5
92483	2024-11-08T18:45:58	10.2	82
92484	2024-11-08T18:55:58	10.2	81.5
92485	2024-11-08T19:06:17	10.2	82.5
92486	2024-11-08T19:15:58	10.1	82
92487	2024-11-08T19:25:58	10.1	83
92488	2024-11-08T19:35:58	10.1	83.5
92489	2024-11-08T19:45:58	10	83
92490	2024-11-08T19:55:58	9.9	83.5
92491	2024-11-08T20:05:58	9.8	83.5
92492	2024-11-08T20:15:58	9.8	84
92493	2024-11-08T20:25:58	9.9	83.5
92494	2024-11-08T20:35:58	10	84
92495	2024-11-08T20:45:58	9.9	84
92496	2024-11-08T20:55:58	9.9	84.5
92497	2024-11-08T21:05:58	10	84.5
92498	2024-11-08T21:15:58	9.9	84.5
92499	2024-11-08T21:25:58	9.9	85
92500	2024-11-08T21:35:58	9.9	85
92501	2024-11-08T21:45:58	10	85
92502	2024-11-08T21:55:58	9.9	85
92503	2024-11-08T22:05:58	10	85.5
92504	2024-11-08T22:15:58	10	85.5
92505	2024-11-08T22:25:58	10	85.5
92506	2024-11-08T22:35:58	10	85.5
92507	2024-11-08T22:45:58	10	86
92508	2024-11-08T22:55:58	10	86
92509	2024-11-08T23:05:58	10.1	86
92510	2024-11-08T23:15:58	10.1	86
92511	2024-11-08T23:25:58	10	85.5
92512	2024-11-08T23:35:58	9.9	86
92513	2024-11-08T23:45:58	10	86
92514	2024-11-08T23:55:58	9.9	86
92515	2024-11-09T00:33:49	9.9	86
92516	2024-11-09T00:33:49	9.7	86
92517	2024-11-09T00:33:49	9.8	86
92518	2024-11-09T00:35:58	9.9	86
92519	2024-11-09T00:45:58	9.8	86
92520	2024-11-09T00:55:58	9.9	86.5
92521	2024-11-09T01:05:58	9.8	86.5
92522	2024-11-09T01:15:58	9.9	86.5
92523	2024-11-09T01:25:58	9.8	86.5
92524	2024-11-09T01:35:58	10	87
92525	2024-11-09T01:45:58	9.8	87
92526	2024-11-09T01:55:58	9.8	87
92527	2024-11-09T02:05:58	9.8	87
92528	2024-11-09T02:15:58	9.8	87
92529	2024-11-09T02:25:58	9.8	87
92530	2024-11-09T02:35:58	9.8	87
92531	2024-11-09T02:45:58	9.6	87.5
92532	2024-11-09T02:55:58	9.6	87.5
92533	2024-11-09T03:05:58	9.7	87.5
92534	2024-11-09T03:15:58	9.6	88
92535	2024-11-09T03:25:58	9.6	88
92536	2024-11-09T03:35:58	9.6	87.5
92537	2024-11-09T03:45:58	9.5	87.5
92538	2024-11-09T03:55:58	9.5	87.5
92539	2024-11-09T04:05:58	9.5	87
92540	2024-11-09T04:15:58	9.4	87.5
92541	2024-11-09T04:25:58	9.4	87.5
92542	2024-11-09T04:35:58	9.4	88
92543	2024-11-09T04:45:58	9.3	87.5
92544	2024-11-09T04:55:58	9.3	88
92545	2024-11-09T05:05:58	9.3	87.5
92546	2024-11-09T05:15:58	9.4	87.5
92547	2024-11-09T05:25:58	9.4	88
92548	2024-11-09T05:35:58	9.4	88
92549	2024-11-09T05:45:58	9.5	88
92550	2024-11-09T05:55:58	9.4	87.5
92551	2024-11-09T06:05:58	9.3	88
92552	2024-11-09T06:15:58	9.4	87.5
92553	2024-11-09T06:25:58	9.4	87.5
92554	2024-11-09T06:35:58	9.4	88
92555	2024-11-09T06:45:58	9.4	88
92556	2024-11-09T06:55:58	9.4	88
92557	2024-11-09T07:05:58	9.5	88
92558	2024-11-09T07:15:58	9.6	88
92559	2024-11-09T07:25:58	9.6	87.5
92560	2024-11-09T07:35:58	9.7	87.5
92561	2024-11-09T07:45:58	9.8	87
92562	2024-11-09T07:55:58	9.8	87
92563	2024-11-09T08:05:58	9.8	86
92564	2024-11-09T08:15:58	9.8	86
92565	2024-11-09T08:25:58	9.9	85.5
92566	2024-11-09T08:35:58	9.9	85.5
92567	2024-11-09T08:45:58	10.1	84.5
92568	2024-11-09T08:55:58	10.2	85
92569	2024-11-09T09:05:58	10.2	85
92570	2024-11-09T09:15:58	10.3	85
92571	2024-11-09T09:25:58	10.4	84
92572	2024-11-09T09:35:58	10.4	84
92573	2024-11-09T09:45:58	10.5	84.5
92574	2024-11-09T09:55:58	10.6	84
92575	2024-11-09T10:05:58	10.7	84
92576	2024-11-09T10:15:58	11	83.5
92577	2024-11-09T10:25:58	10.9	84
92578	2024-11-09T10:35:58	11	84
92579	2024-11-09T10:45:58	11.2	83.5
92580	2024-11-09T10:55:58	11.4	83.5
92581	2024-11-09T11:05:58	11.4	83
92582	2024-11-09T11:15:58	11.5	82
92583	2024-11-09T11:25:58	11.5	82
92584	2024-11-09T11:35:58	11.5	82
92585	2024-11-09T11:45:57	11.5	81
92586	2024-11-09T11:55:57	12	82
92587	2024-11-09T12:05:57	13.8	77
92588	2024-11-09T12:15:57	15.2	71
92589	2024-11-09T12:25:57	16.1	68
92590	2024-11-09T12:35:57	16.8	66
92591	2024-11-09T12:45:57	17.5	64
92592	2024-11-09T12:55:57	18	61
92593	2024-11-09T13:05:57	18.4	60.5
92594	2024-11-09T13:15:57	18.9	59
92595	2024-11-09T13:25:57	18.9	58
92596	2024-11-09T13:35:57	18.8	58
92597	2024-11-09T13:45:57	19.1	60
92598	2024-11-09T13:55:57	19.7	58
92599	2024-11-09T14:05:57	19.7	57.5
92600	2024-11-09T14:15:57	19.9	56.5
92601	2024-11-09T14:25:57	19.8	55.5
92602	2024-11-09T14:35:57	18.9	57
92603	2024-11-09T14:45:57	17.7	60
92604	2024-11-09T14:55:57	16.7	64
92605	2024-11-09T15:05:57	16.4	66.5
92606	2024-11-09T15:16:14	16.1	67.5
92607	2024-11-09T15:25:57	15.7	70
92608	2024-11-09T15:35:57	15.6	71
92609	2024-11-09T15:45:57	15.1	69.5
92610	2024-11-09T15:55:57	14.5	70
92611	2024-11-09T16:05:57	13.9	71.5
92612	2024-11-09T16:15:57	13.7	72.5
92613	2024-11-09T16:25:57	13.3	73
92614	2024-11-09T16:35:57	13.1	74.5
92615	2024-11-09T16:45:57	12.9	75.5
92616	2024-11-09T17:05:57	12.4	76
92617	2024-11-09T17:15:57	12.2	75.5
92618	2024-11-09T17:25:57	12	76.5
92619	2024-11-09T17:35:57	11.6	77
92620	2024-11-09T17:45:57	11.5	77
92621	2024-11-09T17:55:57	11.4	77.5
92622	2024-11-09T18:05:57	11.1	78
92623	2024-11-09T18:15:57	10.9	76.5
92624	2024-11-09T18:25:57	10.6	78
92625	2024-11-09T18:35:57	10.5	78.5
92626	2024-11-09T18:45:57	10.3	79
92627	2024-11-09T18:55:57	10.2	76.5
92628	2024-11-09T19:05:57	10	79
92629	2024-11-09T19:15:57	9.9	78.5
92630	2024-11-09T19:25:57	9.9	79.5
92631	2024-11-09T19:35:57	9.8	79
92632	2024-11-09T19:45:57	9.9	79.5
92633	2024-11-09T19:55:57	10	80
92634	2024-11-09T20:05:57	10	80
92635	2024-11-09T20:15:57	10.1	80
92636	2024-11-09T20:25:57	9.7	79.5
92637	2024-11-09T20:35:57	9.6	79.5
92638	2024-11-09T20:45:57	9.5	80.5
92639	2024-11-09T20:55:57	9.3	80
92640	2024-11-09T21:05:57	9.2	80
92641	2024-11-09T21:15:57	9.2	81
92642	2024-11-09T21:25:57	9.2	82
92643	2024-11-09T21:35:57	9.3	81.5
92644	2024-11-09T21:45:57	9.1	81
92645	2024-11-09T21:55:57	9.1	82.5
92646	2024-11-09T22:05:57	9.1	82
92647	2024-11-09T22:15:57	9.1	83
92648	2024-11-09T22:25:57	9.3	83
92649	2024-11-09T22:35:57	9.3	82
92650	2024-11-09T22:45:57	9.2	83
92651	2024-11-09T22:55:57	9.2	82.5
92652	2024-11-09T23:05:57	9.2	83.5
92653	2024-11-09T23:15:57	9	82.5
92654	2024-11-09T23:25:57	8.9	84
92655	2024-11-09T23:35:57	8.9	84
92656	2024-11-09T23:45:57	9	85.5
92657	2024-11-09T23:55:57	8.8	86
92658	2024-11-10T00:33:24	8.5	91.5
92659	2024-11-10T00:33:24	8.8	87
92660	2024-11-10T00:33:24	8.6	88.5
92661	2024-11-10T00:35:57	8.5	93.5
92662	2024-11-10T00:45:57	8.5	94
92663	2024-11-10T00:55:57	8.4	95.5
92664	2024-11-10T01:05:57	8.5	96.5
92665	2024-11-10T01:15:57	8.5	96.5
92666	2024-11-10T01:25:57	8.5	95.5
92667	2024-11-10T01:35:57	8.4	94.5
92668	2024-11-10T01:45:57	8.4	93.5
92669	2024-11-10T01:55:57	8.4	93.5
92670	2024-11-10T02:05:57	8.4	90.5
92671	2024-11-10T02:15:57	8.3	89
92672	2024-11-10T02:35:57	8.3	89
92673	2024-11-10T02:45:57	8.3	90
92674	2024-11-10T02:55:57	8.3	88.5
92675	2024-11-10T03:05:57	8.3	89
92676	2024-11-10T03:15:57	8.2	88
92677	2024-11-10T03:25:56	8.4	88.5
92678	2024-11-10T03:35:56	8.4	89
92679	2024-11-10T03:45:56	8.3	89.5
92680	2024-11-10T03:55:56	8.3	88.5
92681	2024-11-10T04:05:56	8.3	88.5
92682	2024-11-10T04:15:56	8.3	89
92683	2024-11-10T04:25:56	8.4	89
92684	2024-11-10T04:35:56	8.3	90
92685	2024-11-10T04:45:56	8.2	88.5
92686	2024-11-10T04:55:56	8.2	90
92687	2024-11-10T05:05:56	8.1	88.5
92688	2024-11-10T05:15:56	8.2	89
92689	2024-11-10T05:25:56	8.3	89
92690	2024-11-10T05:35:56	8.2	89.5
92691	2024-11-10T05:45:56	8.3	88.5
92692	2024-11-10T05:55:56	8.2	87
92693	2024-11-10T06:05:56	8.2	87.5
92694	2024-11-10T06:15:56	8.3	87.5
92695	2024-11-10T06:25:56	8.3	87
92696	2024-11-10T06:35:56	8.2	87
92697	2024-11-10T06:45:56	8.2	87
92698	2024-11-10T06:55:56	8.3	86.5
92699	2024-11-10T07:05:56	8.4	87
92700	2024-11-10T07:15:56	8.2	87
92701	2024-11-10T07:25:56	8.4	87
92702	2024-11-10T07:35:56	8.3	86.5
92703	2024-11-10T07:45:56	8.3	87
92704	2024-11-10T07:55:56	8.4	86.5
92705	2024-11-10T08:05:56	8.3	85.5
92706	2024-11-10T08:15:56	8.4	86
92707	2024-11-10T08:25:56	8.4	86
92708	2024-11-10T08:35:56	8.6	86
92709	2024-11-10T08:45:56	8.6	85
92710	2024-11-10T08:55:56	8.7	85
92711	2024-11-10T09:05:56	8.8	84.5
92712	2024-11-10T09:15:56	8.8	83.5
92713	2024-11-10T09:25:56	8.5	84.5
92714	2024-11-10T09:35:56	8.5	84.5
92715	2024-11-10T09:45:56	8.6	85.5
92716	2024-11-10T09:55:56	8.4	85
92717	2024-11-10T10:05:56	8.6	85
92718	2024-11-10T10:15:56	8.8	84.5
92719	2024-11-10T10:25:56	8.8	84
92720	2024-11-10T10:35:56	8.9	84
92721	2024-11-10T10:45:56	9.1	82.5
92722	2024-11-10T10:55:56	9	83
92723	2024-11-10T11:05:56	9.2	83
92724	2024-11-10T11:15:56	9.4	82.5
92725	2024-11-10T11:25:56	9.4	82
92726	2024-11-10T11:35:56	9.5	82
92727	2024-11-10T11:45:56	9.4	82
92728	2024-11-10T11:55:56	9.4	82
92729	2024-11-10T12:05:56	9.5	82
92730	2024-11-10T12:15:56	9.4	81.5
92731	2024-11-10T12:25:56	9.5	82.5
92732	2024-11-10T12:35:56	9.4	82.5
92733	2024-11-10T12:45:56	9.5	82
92734	2024-11-10T12:55:56	9.4	82
92735	2024-11-10T13:05:56	9.4	83
92736	2024-11-10T13:15:56	9.4	82
92737	2024-11-10T13:25:56	9.4	83
92738	2024-11-10T13:35:56	9.4	83
92739	2024-11-10T13:45:56	9.3	83
92740	2024-11-10T13:55:56	9.2	83
92741	2024-11-10T14:05:56	9.3	83.5
92742	2024-11-10T14:15:56	9.3	83.5
92743	2024-11-10T14:25:56	9.2	83.5
92744	2024-11-10T14:35:56	9.3	83
92745	2024-11-10T14:45:56	9.1	83.5
92746	2024-11-10T14:55:56	9.1	83.5
92747	2024-11-10T15:05:56	9.1	84.5
92748	2024-11-10T15:15:56	9	83.5
92749	2024-11-10T15:25:56	8.9	83.5
92750	2024-11-10T15:35:56	8.9	84
92751	2024-11-10T15:45:56	8.8	83.5
92752	2024-11-10T16:05:56	8.6	84.5
92753	2024-11-10T16:15:56	8.6	85
92754	2024-11-10T16:25:56	8.5	84.5
92755	2024-11-10T16:35:56	8.5	84.5
92756	2024-11-10T16:45:56	8.5	84.5
92757	2024-11-10T16:55:56	8.6	84.5
92758	2024-11-10T17:05:56	8.4	84.5
92759	2024-11-10T17:15:56	8.4	84.5
92760	2024-11-10T17:25:56	8.4	84.5
92761	2024-11-10T17:35:56	8.4	84
92762	2024-11-10T17:45:56	8.3	84
92763	2024-11-10T17:55:56	8.4	84.5
92764	2024-11-10T18:05:56	8.3	85.5
92765	2024-11-10T18:15:56	8.3	84.5
92766	2024-11-10T18:25:56	8.1	84.5
92767	2024-11-10T18:35:56	8.2	84.5
92768	2024-11-10T18:45:56	8	85
92769	2024-11-10T18:55:56	8.1	84.5
92770	2024-11-10T19:05:56	8.1	85
92771	2024-11-10T19:15:56	8	85.5
92772	2024-11-10T19:25:56	7.9	85
92773	2024-11-10T19:35:56	7.9	85.5
92774	2024-11-10T19:45:56	7.9	85.5
92775	2024-11-10T19:55:56	7.9	85
92776	2024-11-10T20:05:56	7.8	85.5
92777	2024-11-10T20:15:56	7.7	84.5
92778	2024-11-10T20:25:56	7.8	85
92779	2024-11-10T20:35:56	7.8	85
92780	2024-11-10T20:45:56	7.7	85
92781	2024-11-10T20:55:56	7.6	85.5
92782	2024-11-10T21:05:56	7.7	86
92783	2024-11-10T21:15:56	7.7	86
92784	2024-11-10T21:25:56	7.7	86.5
92785	2024-11-10T21:35:56	7.6	86.5
92786	2024-11-10T21:45:56	7.6	86.5
92787	2024-11-10T21:55:56	7.6	87
92788	2024-11-10T22:05:56	7.7	88.5
92789	2024-11-10T22:15:56	7.6	87
92790	2024-11-10T22:25:56	7.6	86.5
92791	2024-11-10T22:35:56	7.4	87.5
92792	2024-11-10T22:45:56	7.5	87
92793	2024-11-10T22:55:56	7.5	88.5
92794	2024-11-10T23:05:56	7.5	87.5
92795	2024-11-10T23:15:55	7.5	87
92796	2024-11-10T23:25:55	7.5	88
92797	2024-11-10T23:35:55	7.4	87
92798	2024-11-10T23:45:55	7.4	86.5
92799	2024-11-10T23:55:55	7.3	86.5
92800	2024-11-11T00:35:19	7.3	87
92801	2024-11-11T00:35:19	7.3	86.5
92802	2024-11-11T00:35:20	7.4	87
92803	2024-11-11T00:35:57	7.3	86.5
92804	2024-11-11T00:45:55	7.3	86.5
92805	2024-11-11T00:55:55	7.2	86.5
92806	2024-11-11T01:05:55	7.4	87.5
92807	2024-11-11T01:25:55	7.4	87.5
92808	2024-11-11T01:35:55	7.4	87
92809	2024-11-11T01:45:55	7.3	86.5
92810	2024-11-11T01:55:55	7.3	87
92811	2024-11-11T02:05:55	7.3	85.5
92812	2024-11-11T02:15:55	7.3	86.5
92813	2024-11-11T02:25:55	7.3	86.5
92814	2024-11-11T02:35:55	7.3	87
92815	2024-11-11T02:45:55	7.3	87
92816	2024-11-11T02:55:55	7.2	86.5
92817	2024-11-11T03:05:55	7.2	87.5
92818	2024-11-11T03:15:55	7.2	87
92819	2024-11-11T03:25:55	7.2	86.5
92820	2024-11-11T03:35:55	7.1	87
92821	2024-11-11T03:45:55	7.2	86.5
92822	2024-11-11T03:55:55	7.2	87
92823	2024-11-11T04:05:55	7.1	87
92824	2024-11-11T04:15:55	7.1	87.5
92825	2024-11-11T04:25:55	7.2	87
92826	2024-11-11T04:35:55	7.2	87
92827	2024-11-11T04:45:55	7.1	86
92828	2024-11-11T04:55:55	7.1	86.5
92829	2024-11-11T05:05:55	7.1	86.5
92830	2024-11-11T05:15:55	7.2	86.5
92831	2024-11-11T05:25:55	7.2	86
92832	2024-11-11T05:35:55	7.1	86
92833	2024-11-11T05:45:55	7.1	85
92834	2024-11-11T05:55:55	7	85.5
92835	2024-11-11T06:05:55	7	86.5
92836	2024-11-11T06:15:55	7.1	86.5
92837	2024-11-11T06:25:55	7	86.5
92838	2024-11-11T06:35:55	7	87
92839	2024-11-11T06:45:55	7	87
92840	2024-11-11T06:55:55	6.7	88
92841	2024-11-11T07:05:55	6.7	87.5
92842	2024-11-11T07:15:55	6.7	89
92843	2024-11-11T07:25:55	6.8	88.5
92844	2024-11-11T07:35:55	6.7	87.5
92845	2024-11-11T07:45:55	6.6	88
92846	2024-11-11T07:55:55	6.3	89
92847	2024-11-11T08:05:55	6.3	89.5
92848	2024-11-11T08:15:55	6.3	89.5
92849	2024-11-11T08:25:55	6.2	90.5
92850	2024-11-11T08:35:55	6.1	91
92851	2024-11-11T08:45:55	6.2	90.5
92852	2024-11-11T08:55:55	6	91
92853	2024-11-11T09:05:55	6.2	90.5
92854	2024-11-11T09:15:55	6.2	90
92855	2024-11-11T09:25:55	6.5	90
92856	2024-11-11T09:35:55	6.4	89.5
92857	2024-11-11T09:45:55	6.4	90
92858	2024-11-11T09:55:55	6.4	89.5
92859	2024-11-11T10:05:55	6.4	90
92860	2024-11-11T10:15:55	6.5	89.5
92861	2024-11-11T10:25:55	6.5	90
92862	2024-11-11T10:35:55	6.6	89.5
92863	2024-11-11T10:45:55	6.6	89
92864	2024-11-11T10:55:55	6.7	89.5
92865	2024-11-11T11:05:55	6.6	89.5
92866	2024-11-11T11:15:55	6.6	89.5
92867	2024-11-11T11:25:55	6.5	89.5
92868	2024-11-11T11:35:55	6.7	89.5
92869	2024-11-11T11:45:55	6.4	90.5
92870	2024-11-11T11:55:55	6.5	91
92871	2024-11-11T12:05:55	6.5	91.5
92872	2024-11-11T12:15:55	6.8	91
92873	2024-11-11T12:25:55	7	90
92874	2024-11-11T12:35:55	7.1	89.5
92875	2024-11-11T12:45:55	7.1	89.5
92876	2024-11-11T12:55:55	7.1	90
92877	2024-11-11T13:05:55	7.1	90
92878	2024-11-11T13:15:55	7.1	90
92879	2024-11-11T13:25:55	7.2	90
92880	2024-11-11T13:35:55	7.2	90
92881	2024-11-11T13:45:55	7.2	89.5
92882	2024-11-11T13:55:55	7.2	89.5
92883	2024-11-11T14:05:55	7.3	89.5
92884	2024-11-11T14:15:55	7.3	89.5
92885	2024-11-11T14:25:55	7.3	89.5
92886	2024-11-11T14:35:55	7.1	92
92887	2024-11-11T14:55:55	6.8	100
92888	2024-11-11T15:05:55	6.7	100
92889	2024-11-11T15:15:55	6.8	100
92890	2024-11-11T15:25:55	6.7	100
92891	2024-11-11T15:35:55	6.7	100
92892	2024-11-11T15:45:55	6.7	100
92893	2024-11-11T16:05:55	6.4	100
92894	2024-11-11T16:15:55	6.5	100
92895	2024-11-11T16:25:55	6.8	100
92896	2024-11-11T16:35:55	6.7	100
92897	2024-11-11T16:45:55	6.6	100
92898	2024-11-11T16:55:55	6.5	100
92899	2024-11-11T17:05:55	6.7	100
92900	2024-11-11T17:15:55	6.7	100
92901	2024-11-11T17:25:55	6.8	100
92902	2024-11-11T17:35:55	6.8	100
92903	2024-11-11T17:45:55	6.9	100
92904	2024-11-11T17:55:55	6.8	100
92905	2024-11-11T18:05:55	6.9	100
92906	2024-11-11T18:15:55	6.9	100
92907	2024-11-11T18:25:55	6.7	100
92908	2024-11-11T18:35:55	6.7	100
92909	2024-11-11T18:45:55	6.7	100
92910	2024-11-11T18:55:55	6.8	100
92911	2024-11-11T19:05:55	6.8	100
92912	2024-11-11T19:15:55	6.8	100
92913	2024-11-11T19:25:55	6.8	100
92914	2024-11-11T19:35:55	7	100
92915	2024-11-11T19:45:55	7	100
92916	2024-11-11T19:55:55	6.9	100
92917	2024-11-11T20:05:55	6.9	100
92918	2024-11-11T20:15:55	6.9	100
92919	2024-11-11T20:25:55	6.8	100
92920	2024-11-11T20:35:55	6.8	100
92921	2024-11-11T20:45:55	6.7	100
92922	2024-11-11T20:55:55	6.8	100
92923	2024-11-11T21:05:55	6.9	100
92924	2024-11-11T21:15:55	6.9	100
92925	2024-11-11T21:25:55	6.8	100
92926	2024-11-11T21:35:55	6.6	100
92927	2024-11-11T21:45:55	6.5	100
92928	2024-11-11T21:55:55	6.5	100
92929	2024-11-11T22:05:55	6.3	100
92930	2024-11-11T22:15:55	6.4	100
92931	2024-11-11T22:25:55	6.2	100
92932	2024-11-11T22:35:54	6.1	100
92933	2024-11-11T22:45:55	6.1	100
92934	2024-11-11T22:55:54	6	100
92935	2024-11-11T23:05:54	5.8	100
92936	2024-11-11T23:15:54	5.7	100
92937	2024-11-11T23:25:55	5.9	100
92938	2024-11-11T23:35:55	5.6	100
92939	2024-11-11T23:45:54	5.5	100
92940	2024-11-11T23:55:54	5.8	100
92941	2024-11-12T00:34:53	6	100
92942	2024-11-12T00:34:53	5.9	100
92943	2024-11-12T00:34:53	5.8	100
92944	2024-11-12T00:35:54	5.7	100
92945	2024-11-12T00:45:54	5.5	100
92946	2024-11-12T00:55:54	5.5	100
92947	2024-11-12T01:15:54	5.3	100
92948	2024-11-12T01:25:54	5.2	100
92949	2024-11-12T01:35:54	5.1	100
92950	2024-11-12T01:45:54	5.2	100
92951	2024-11-12T01:55:54	5.3	100
92952	2024-11-12T02:05:54	5.3	100
92953	2024-11-12T02:15:54	5.5	100
92954	2024-11-12T02:25:54	5.7	100
92955	2024-11-12T02:35:54	5.7	100
92956	2024-11-12T02:45:54	5.7	100
92957	2024-11-12T02:55:54	5.9	100
92958	2024-11-12T03:05:54	6	100
92959	2024-11-12T03:15:54	6	100
92960	2024-11-12T03:25:54	6.1	99.5
92961	2024-11-12T03:35:54	6.3	99.5
92962	2024-11-12T03:45:54	6.3	99.5
92963	2024-11-12T03:55:54	6.4	99.5
92964	2024-11-12T04:05:54	6.4	99
92965	2024-11-12T04:15:54	6.5	99
92966	2024-11-12T04:25:54	6.4	98.5
92967	2024-11-12T04:35:54	6.4	98.5
92968	2024-11-12T04:45:54	6.6	98.5
92969	2024-11-12T04:55:54	6.6	98.5
92970	2024-11-12T05:05:54	6.6	98.5
92971	2024-11-12T05:15:54	6.6	98.5
92972	2024-11-12T05:25:54	6.7	98.5
92973	2024-11-12T05:35:54	6.6	98.5
92974	2024-11-12T05:45:54	6.5	98.5
92975	2024-11-12T05:55:54	6.4	98.5
92976	2024-11-12T06:05:54	6.4	98.5
92977	2024-11-12T06:15:54	6.2	98.5
92978	2024-11-12T06:25:54	6.1	98.5
92979	2024-11-12T06:35:54	6.2	98.5
92980	2024-11-12T06:45:54	6.3	98.5
92981	2024-11-12T06:55:54	6.4	98.5
92982	2024-11-12T07:05:54	6.5	98.5
92983	2024-11-12T07:15:54	6.7	98.5
92984	2024-11-12T07:25:54	6.7	98.5
92985	2024-11-12T07:35:54	6.8	98.5
92986	2024-11-12T07:45:54	6.8	98.5
92987	2024-11-12T07:55:54	6.9	98.5
92988	2024-11-12T08:05:54	6.9	98.5
92989	2024-11-12T08:15:54	6.9	98.5
92990	2024-11-12T08:25:54	7.1	98.5
92991	2024-11-12T08:35:54	7	98.5
92992	2024-11-12T08:45:54	7.2	98.5
92993	2024-11-12T08:55:54	7.4	98.5
92994	2024-11-12T09:05:54	7.5	98.5
92995	2024-11-12T09:15:54	7.5	98.5
92996	2024-11-12T09:25:54	7.6	98.5
92997	2024-11-12T09:35:54	7.8	98.5
92998	2024-11-12T09:45:54	7.7	98.5
92999	2024-11-12T09:55:54	7.8	98.5
93000	2024-11-12T10:05:54	8	95.5
93001	2024-11-12T10:15:54	8	95.5
93002	2024-11-12T10:25:54	8.1	95.5
93003	2024-11-12T10:35:54	8.2	95.5
93004	2024-11-12T10:45:54	8.4	95.5
93005	2024-11-12T10:55:54	8.4	95.5
93006	2024-11-12T11:05:54	8.6	95.5
93007	2024-11-12T11:15:54	8.8	95.5
93008	2024-11-12T11:25:54	8.8	95.5
93009	2024-11-12T11:35:54	8.8	95.5
93010	2024-11-12T11:45:54	8.7	95.5
93011	2024-11-12T11:55:54	8.6	95.5
93012	2024-11-12T12:05:54	8.8	95.5
93013	2024-11-12T12:15:54	8.6	95.5
93014	2024-11-12T12:25:54	8.6	95.5
93015	2024-11-12T12:35:54	8.5	95.5
93016	2024-11-12T12:45:54	8.8	95.5
93017	2024-11-12T12:55:54	8.6	95.5
93018	2024-11-12T13:05:54	8.5	95.5
93019	2024-11-12T13:15:54	8.6	95.5
93020	2024-11-12T13:25:54	8.6	95.5
93021	2024-11-12T13:35:54	8.7	95.5
93022	2024-11-12T13:45:54	8.6	95.5
93023	2024-11-12T13:55:54	8.6	95.5
93024	2024-11-12T14:05:54	8.6	95.5
93025	2024-11-12T14:15:54	8.6	95.5
93026	2024-11-12T14:25:54	8.5	95.5
93027	2024-11-12T14:35:54	8.5	95.5
93028	2024-11-12T14:45:54	8.6	95.5
93029	2024-11-12T14:55:54	8.5	95.5
93030	2024-11-12T15:05:54	8.5	95.5
93031	2024-11-12T15:15:54	8.5	95.5
93032	2024-11-12T15:25:54	8.4	95.5
93033	2024-11-12T15:35:54	8.4	95.5
93034	2024-11-12T15:45:54	8.5	98.5
93035	2024-11-12T15:55:54	8.4	89
93036	2024-11-12T16:05:54	8.4	88.5
93037	2024-11-12T16:15:54	8.4	89
93038	2024-11-12T16:25:54	8.4	90.5
93039	2024-11-12T16:35:54	8.4	89.5
93040	2024-11-12T16:45:54	8.4	88
93041	2024-11-12T16:55:54	8.2	87.5
93042	2024-11-12T17:05:54	8.2	83
93043	2024-11-12T17:25:54	8.2	85.5
93044	2024-11-12T17:35:54	8	85.5
93045	2024-11-12T17:45:54	7.7	84
93046	2024-11-12T17:55:54	7.6	87
93047	2024-11-12T18:05:54	7.5	87.5
93048	2024-11-12T18:15:54	7.3	89.5
93049	2024-11-12T18:25:54	7.5	90
93050	2024-11-12T18:35:54	7.4	90
93051	2024-11-12T18:45:54	7.5	89
93052	2024-11-12T18:55:54	7.4	88
93053	2024-11-12T19:05:54	7.4	86.5
93054	2024-11-12T19:15:54	7.4	86.5
93055	2024-11-12T19:25:54	7.5	84.5
93056	2024-11-12T19:35:54	7.4	86
93057	2024-11-12T19:45:54	7.3	86
93058	2024-11-12T19:55:54	7.3	83.5
93059	2024-11-12T20:05:54	7.2	84
93060	2024-11-12T20:15:54	7.3	83
93061	2024-11-12T20:25:53	7.1	82
93062	2024-11-12T20:35:53	7.1	81.5
93063	2024-11-12T20:45:53	7.1	81.5
93064	2024-11-12T20:55:53	6.9	81.5
93065	2024-11-12T21:05:53	6.8	82.5
93066	2024-11-12T21:15:53	6.6	83
93067	2024-11-12T21:25:53	6.7	83.5
93068	2024-11-12T21:35:53	6.7	83
93069	2024-11-12T21:45:53	6.6	82.5
93070	2024-11-12T21:55:53	6.7	81.5
93071	2024-11-12T22:06:14	6.7	82
93072	2024-11-12T22:15:53	6.9	82.5
93073	2024-11-12T22:25:53	6.8	81.5
93074	2024-11-12T22:35:53	6.8	82
93075	2024-11-12T22:45:53	6.9	80
93076	2024-11-12T22:55:53	6.7	79.5
93077	2024-11-12T23:05:53	6.9	81
93078	2024-11-12T23:15:53	6.7	80
93079	2024-11-12T23:25:53	6.8	79.5
93080	2024-11-12T23:35:53	6.7	80
93081	2024-11-12T23:45:53	6.7	79.5
93082	2024-11-12T23:55:53	6.6	79
93083	2024-11-13T00:33:10	6.6	79.5
93084	2024-11-13T00:33:11	6.5	77.5
93085	2024-11-13T00:33:11	6.6	79.5
93086	2024-11-13T00:35:53	6.5	78.5
93087	2024-11-13T00:45:53	6.6	79
93088	2024-11-13T00:55:53	6.6	80
93089	2024-11-13T01:15:53	6.5	79
93090	2024-11-13T01:25:53	6.4	80
93091	2024-11-13T01:35:53	6.4	79.5
93092	2024-11-13T01:45:53	6.5	77.5
93093	2024-11-13T01:55:53	6.3	79
93094	2024-11-13T02:05:53	6.5	78
93095	2024-11-13T02:15:53	6.3	79
93096	2024-11-13T02:25:53	6.3	79.5
93097	2024-11-13T02:35:53	6.3	80.5
93098	2024-11-13T02:45:53	6.4	78.5
93099	2024-11-13T02:55:53	6.3	79
93100	2024-11-13T03:05:53	6.1	78.5
93101	2024-11-13T03:15:53	6.3	79
93102	2024-11-13T03:25:53	6.2	80.5
93103	2024-11-13T03:35:53	6.2	80
93104	2024-11-13T03:45:53	6.1	79.5
93105	2024-11-13T03:55:53	6.3	82
93106	2024-11-13T04:05:53	6.2	80.5
93107	2024-11-13T04:15:53	6.1	80.5
93108	2024-11-13T04:25:53	6.2	80.5
93109	2024-11-13T04:35:53	6.2	79
93110	2024-11-13T04:45:53	6.2	80
93111	2024-11-13T04:55:53	6.1	80
93112	2024-11-13T05:05:53	6.1	81.5
93113	2024-11-13T05:15:53	6.1	80
93114	2024-11-13T05:35:53	6.1	80.5
93115	2024-11-13T05:45:53	6.1	79
93116	2024-11-13T05:55:53	6	80
93117	2024-11-13T06:05:53	6	81
93118	2024-11-13T06:15:53	6	81
93119	2024-11-13T06:25:53	6	81
93120	2024-11-13T06:35:53	6.1	80.5
93121	2024-11-13T06:45:53	6	81.5
93122	2024-11-13T06:55:53	5.9	81
93123	2024-11-13T07:05:53	6	79.5
93124	2024-11-13T07:15:53	6	82
93125	2024-11-13T07:25:53	6	79.5
93126	2024-11-13T07:35:53	6	79
93127	2024-11-13T07:45:53	6.1	81.5
93128	2024-11-13T08:05:53	6.3	81
93129	2024-11-13T08:15:53	6.3	80
93130	2024-11-13T08:25:53	6.5	80.5
93131	2024-11-13T08:35:53	6.3	78.5
93132	2024-11-13T08:45:53	6.5	78.5
93133	2024-11-13T08:55:53	6.5	79.5
93134	2024-11-13T09:05:53	6.7	80
93135	2024-11-13T09:15:53	6.9	77.5
93136	2024-11-13T09:25:53	6.9	78.5
93137	2024-11-13T09:35:53	6.8	77.5
93138	2024-11-13T09:45:53	6.8	78
93139	2024-11-13T09:55:53	6.8	78
93140	2024-11-13T10:05:53	6.9	79
93141	2024-11-13T10:15:53	6.7	78
93142	2024-11-13T10:25:53	6.9	78.5
93143	2024-11-13T10:35:53	6.9	78
93144	2024-11-13T10:45:53	7	80
93145	2024-11-13T10:55:53	7	79
93146	2024-11-13T11:05:53	7	80
93147	2024-11-13T11:15:53	7.1	80.5
93148	2024-11-13T11:25:53	7.1	79.5
93149	2024-11-13T11:35:53	7.3	77.5
93150	2024-11-13T11:45:53	7.4	78
93151	2024-11-13T11:55:53	7.4	77.5
93152	2024-11-13T12:05:53	7.5	77.5
93153	2024-11-13T12:15:53	7.4	76
93154	2024-11-13T12:25:53	7.4	78
93155	2024-11-13T12:35:53	7.5	79
93156	2024-11-13T12:45:53	7.5	78
93157	2024-11-13T12:55:53	7.5	78.5
93158	2024-11-13T13:05:53	7.5	79
93159	2024-11-13T13:15:53	7.4	76.5
93160	2024-11-13T13:25:53	7.5	76.5
93161	2024-11-13T13:35:53	7.5	77.5
93162	2024-11-13T13:45:53	7.4	80.5
93163	2024-11-13T13:55:53	7.4	79.5
93164	2024-11-13T14:05:53	7.4	79.5
93165	2024-11-13T14:15:53	7.4	79.5
93166	2024-11-13T14:25:53	7.3	80
93167	2024-11-13T14:45:53	7.1	82
93168	2024-11-13T14:55:53	7.1	83
93169	2024-11-13T15:05:53	7.2	84.5
93170	2024-11-13T15:15:53	7.2	86
93171	2024-11-13T15:25:53	7.1	86.5
93172	2024-11-13T15:35:53	7.1	87
93173	2024-11-13T15:45:53	7.1	87.5
93174	2024-11-13T15:55:53	7	88.5
93175	2024-11-13T16:05:53	7	89
93176	2024-11-13T16:15:53	6.8	88.5
93177	2024-11-13T16:25:53	6.8	89
93178	2024-11-13T16:35:53	6.7	88.5
93179	2024-11-13T16:45:53	6.8	89
93180	2024-11-13T16:55:53	6.8	90
93181	2024-11-13T17:05:53	6.8	89
93182	2024-11-13T17:15:53	6.8	88
93183	2024-11-13T17:25:53	6.7	87.5
93184	2024-11-13T17:35:53	6.7	89
93185	2024-11-13T17:45:53	6.7	89
93186	2024-11-13T17:55:53	6.7	90
93187	2024-11-13T18:05:53	6.7	90.5
93188	2024-11-13T18:15:53	6.7	90
93189	2024-11-13T18:25:53	6.5	88.5
93190	2024-11-13T18:35:53	6.5	89.5
93191	2024-11-13T18:45:53	6.5	88.5
93192	2024-11-13T18:55:53	6.7	90
93193	2024-11-13T19:05:53	6.6	90.5
93194	2024-11-13T19:15:53	6.6	90
93195	2024-11-13T19:25:53	6.6	90.5
93196	2024-11-13T19:35:53	6.6	90
93197	2024-11-13T19:45:52	6.6	90
93198	2024-11-13T19:55:52	6.7	90
93199	2024-11-13T20:05:52	6.7	90
93200	2024-11-13T20:15:52	6.6	90.5
93201	2024-11-13T20:25:52	6.6	91
93202	2024-11-13T20:45:52	6.6	91
93203	2024-11-13T20:55:52	6.5	89
93204	2024-11-13T21:05:52	6.4	91
93205	2024-11-13T21:15:52	6.6	91
93206	2024-11-13T21:25:52	6.6	91
93207	2024-11-13T21:35:52	6.6	91.5
93208	2024-11-13T21:45:52	6.6	91.5
93209	2024-11-13T21:55:52	6.7	92.5
93210	2024-11-13T22:05:52	6.7	92
93211	2024-11-13T22:15:52	6.5	91.5
93212	2024-11-13T22:25:52	6.5	91.5
93213	2024-11-13T22:35:52	6.5	91
93214	2024-11-13T22:45:52	6.3	89.5
93215	2024-11-13T22:55:52	6.1	90
93216	2024-11-13T23:05:52	6	91.5
93217	2024-11-13T23:15:52	5.9	92.5
93218	2024-11-13T23:25:52	5.7	92.5
93219	2024-11-13T23:35:52	5.6	93.5
93220	2024-11-13T23:45:52	5.6	92
93221	2024-11-13T23:55:52	5.6	92
93222	2024-11-14T00:33:15	5.7	91.5
93223	2024-11-14T00:33:15	5.6	90.5
93224	2024-11-14T00:33:16	5.4	90
93225	2024-11-14T00:35:52	5.5	91
93226	2024-11-14T00:45:52	5.5	90.5
93227	2024-11-14T00:55:52	5.6	89
93228	2024-11-14T01:05:52	5.6	89
93229	2024-11-14T01:15:52	5.6	90
93230	2024-11-14T01:25:52	5.6	90.5
93231	2024-11-14T01:35:52	5.6	90
93232	2024-11-14T01:45:52	5.7	91
93233	2024-11-14T01:55:52	5.6	91.5
93234	2024-11-14T02:05:52	5.8	91.5
93235	2024-11-14T02:15:52	5.9	91.5
93236	2024-11-14T02:25:52	5.8	91.5
93237	2024-11-14T02:35:52	5.7	92
93238	2024-11-14T02:45:52	5.7	92
93239	2024-11-14T02:55:52	5.8	92
93240	2024-11-14T03:05:52	5.8	91.5
93241	2024-11-14T03:15:52	5.8	90
93242	2024-11-14T03:25:52	5.6	90.5
93243	2024-11-14T03:35:52	5.7	91.5
93244	2024-11-14T03:45:52	5.7	91.5
93245	2024-11-14T03:55:52	5.8	92
93246	2024-11-14T04:05:52	5.8	91.5
93247	2024-11-14T04:15:52	5.6	91
93248	2024-11-14T04:25:52	5.7	91
93249	2024-11-14T04:35:52	5.7	92
93250	2024-11-14T04:45:52	5.8	92
93251	2024-11-14T04:55:52	5.8	92.5
93252	2024-11-14T05:05:52	5.8	93
93253	2024-11-14T05:15:52	5.9	92
93254	2024-11-14T05:25:52	5.9	92.5
93255	2024-11-14T05:35:52	5.7	92.5
93256	2024-11-14T05:45:52	5.8	92.5
93257	2024-11-14T05:55:52	5.6	93
93258	2024-11-14T06:05:52	5.7	92.5
93259	2024-11-14T06:15:52	5.6	93
93260	2024-11-14T06:25:52	5.4	93.5
93261	2024-11-14T06:35:52	5.3	93.5
93262	2024-11-14T06:45:52	5.4	93.5
93263	2024-11-14T06:55:52	5.2	93
93264	2024-11-14T07:05:52	5.1	99.5
93265	2024-11-14T07:15:52	5	100
93266	2024-11-14T07:25:52	4.9	100
93267	2024-11-14T07:35:52	5.1	100
93268	2024-11-14T07:45:52	5	100
93269	2024-11-14T07:55:52	5.1	100
93270	2024-11-14T08:05:52	5	99.5
93271	2024-11-14T08:15:52	5	100
93272	2024-11-14T08:25:52	5	99.5
93273	2024-11-14T08:35:52	5.1	98.5
93274	2024-11-14T08:45:52	5	98
93275	2024-11-14T08:55:52	5.1	98.5
93276	2024-11-14T09:05:52	5.1	97.5
93277	2024-11-14T09:15:52	5.3	97.5
93278	2024-11-14T09:25:52	5.3	96.5
93279	2024-11-14T09:35:52	5.5	95.5
93280	2024-11-14T09:45:52	5.5	94
93281	2024-11-14T09:55:52	5.7	94
93282	2024-11-14T10:05:52	5.8	93
93283	2024-11-14T10:15:52	5.9	92
93284	2024-11-14T10:25:52	6	92.5
93285	2024-11-14T10:35:52	6.3	91
93286	2024-11-14T10:45:52	6.2	91.5
93287	2024-11-14T10:55:52	6.4	92.5
93288	2024-11-14T11:05:52	6.4	92
93289	2024-11-14T11:15:52	6.3	92.5
93290	2024-11-14T11:25:52	6.5	92
93291	2024-11-14T11:35:52	6.4	93
93292	2024-11-14T11:45:52	6.3	93
93293	2024-11-14T11:55:52	6.2	93.5
93294	2024-11-14T12:05:52	6.3	94
93295	2024-11-14T12:15:52	6.4	93
93296	2024-11-14T12:25:52	6.4	93.5
93297	2024-11-14T12:35:52	6.5	94.5
93298	2024-11-14T12:45:52	6.4	94
93299	2024-11-14T12:55:52	6.5	94.5
93300	2024-11-14T13:05:52	6.3	96
93301	2024-11-14T13:15:52	6.2	97
93302	2024-11-14T13:25:52	6.2	98
93303	2024-11-14T13:35:52	6.2	98.5
93304	2024-11-14T13:45:52	6.4	99.5
93305	2024-11-14T13:55:52	6.5	99.5
93306	2024-11-14T14:05:52	6.3	99
93307	2024-11-14T14:15:52	6.4	100
93308	2024-11-14T14:25:52	6.5	100
93309	2024-11-14T14:35:52	6.5	100
93310	2024-11-14T14:45:52	6.4	100
93311	2024-11-14T14:55:52	6.5	100
93312	2024-11-14T15:05:52	6.5	100
93313	2024-11-14T15:15:52	6.5	100
93314	2024-11-14T15:25:52	6.6	100
93315	2024-11-14T15:35:52	6.5	100
93316	2024-11-14T15:45:52	6.5	100
93317	2024-11-14T15:55:52	6.5	100
93318	2024-11-14T16:05:52	6.5	100
93319	2024-11-14T16:15:52	6.6	100
93320	2024-11-14T16:25:52	6.7	100
93321	2024-11-14T16:35:52	6.7	100
93322	2024-11-14T16:45:52	6.5	100
93323	2024-11-14T16:55:52	6.6	100
93324	2024-11-14T17:05:52	6.7	100
93325	2024-11-14T17:15:52	6.7	99.5
93326	2024-11-14T17:25:52	6.7	100
93327	2024-11-14T17:35:52	6.8	99.5
93328	2024-11-14T17:45:52	6.7	99.5
93329	2024-11-14T17:55:52	6.8	99
93330	2024-11-14T18:05:52	6.8	99
93331	2024-11-14T18:15:52	7	99.5
93332	2024-11-14T18:25:52	7	99.5
93333	2024-11-14T18:35:52	7	99.5
93334	2024-11-14T18:45:52	6.9	99
93335	2024-11-14T18:55:52	7	99.5
93336	2024-11-14T19:05:52	6.9	99.5
93337	2024-11-14T19:15:52	6.9	99
93338	2024-11-14T19:25:52	7.1	99.5
93339	2024-11-14T19:35:52	7.1	99
93340	2024-11-14T19:45:52	7.1	100
93341	2024-11-14T19:55:52	7.2	100
93342	2024-11-14T20:05:52	7.2	100
93343	2024-11-14T20:15:52	7.2	99
93344	2024-11-14T20:25:52	7.3	99.5
93345	2024-11-14T20:35:52	7.3	100
93346	2024-11-14T20:45:51	7.3	99.5
93347	2024-11-14T20:55:51	7.3	99.5
93348	2024-11-14T21:05:52	7.4	99.5
93349	2024-11-14T21:15:52	7.3	99.5
93350	2024-11-14T21:25:52	7.5	100
93351	2024-11-14T21:35:51	7.5	100
93352	2024-11-14T21:45:51	7.5	100
93353	2024-11-14T21:55:51	7.5	100
93354	2024-11-14T22:05:51	7.6	100
93355	2024-11-14T22:15:51	7.6	100
93356	2024-11-14T22:25:51	7.6	100
93357	2024-11-14T22:35:52	7.6	100
93358	2024-11-14T22:45:51	7.5	99.5
93359	2024-11-14T22:56:10	7.5	100
93360	2024-11-14T23:05:51	7.5	99.5
93361	2024-11-14T23:15:51	7.6	100
93362	2024-11-14T23:25:51	7.6	100
93363	2024-11-14T23:35:51	7.6	100
93364	2024-11-14T23:45:51	7.5	100
93365	2024-11-14T23:55:51	7.6	100
93366	2024-11-15T00:34:11	7.5	100
93367	2024-11-15T00:34:11	7.5	100
93368	2024-11-15T00:34:12	7.5	100
93369	2024-11-15T00:35:51	7.5	100
93370	2024-11-15T00:45:51	7.6	100
93371	2024-11-15T00:55:51	7.6	100
93372	2024-11-15T01:15:51	7.5	100
93373	2024-11-15T01:25:51	7.5	100
93374	2024-11-15T01:35:51	7.6	100
93375	2024-11-15T01:45:51	7.5	100
93376	2024-11-15T01:55:51	7.6	100
93377	2024-11-15T02:05:51	7.5	100
93378	2024-11-15T02:15:51	7.6	100
93379	2024-11-15T02:25:51	7.5	100
93380	2024-11-15T02:35:51	7.5	100
93381	2024-11-15T02:45:51	7.5	100
93382	2024-11-15T02:55:51	7.5	100
93383	2024-11-15T03:05:51	7.5	100
93384	2024-11-15T03:15:51	7.5	100
93385	2024-11-15T03:25:51	7.5	100
93386	2024-11-15T03:35:51	7.5	100
93387	2024-11-15T03:45:51	7.6	100
93388	2024-11-15T03:55:51	7.6	100
93389	2024-11-15T04:05:51	7.5	100
93390	2024-11-15T04:15:51	7.5	100
93391	2024-11-15T04:25:51	7.5	100
93392	2024-11-15T04:35:51	7.5	100
93393	2024-11-15T04:45:51	7.4	100
93394	2024-11-15T04:55:51	7.5	100
93395	2024-11-15T05:05:51	7.5	100
93396	2024-11-15T05:15:51	7.5	100
93397	2024-11-15T05:25:51	7.5	100
93398	2024-11-15T05:35:51	7.4	100
93399	2024-11-15T05:45:51	7.6	100
93400	2024-11-15T05:55:51	7.5	100
93401	2024-11-15T06:05:51	7.5	100
93402	2024-11-15T06:15:51	7.6	100
93403	2024-11-15T06:25:51	7.5	100
93404	2024-11-15T06:35:51	7.5	100
93405	2024-11-15T06:45:51	7.5	100
93406	2024-11-15T06:55:51	7.6	100
93407	2024-11-15T07:05:51	7.6	100
93408	2024-11-15T07:15:51	7.6	100
93409	2024-11-15T07:25:51	7.7	100
93410	2024-11-15T07:35:51	7.7	100
93411	2024-11-15T07:45:51	7.7	100
93412	2024-11-15T07:55:51	7.7	100
93413	2024-11-15T08:05:51	7.7	100
93414	2024-11-15T08:15:51	7.7	100
93415	2024-11-15T08:25:51	7.9	100
93416	2024-11-15T08:35:51	7.8	100
93417	2024-11-15T08:45:51	7.9	100
93418	2024-11-15T08:55:51	7.9	100
93419	2024-11-15T09:05:51	7.9	100
93420	2024-11-15T09:15:51	8.1	99
93421	2024-11-15T09:25:51	8.2	100
93422	2024-11-15T09:35:51	8.2	100
93423	2024-11-15T09:45:51	8.5	100
93424	2024-11-15T09:55:51	8.5	100
93425	2024-11-15T10:05:51	8.8	100
93426	2024-11-15T10:15:51	8.8	100
93427	2024-11-15T10:25:51	9.1	99.5
93428	2024-11-15T10:35:51	9.2	97.5
93429	2024-11-15T10:45:51	9.2	96.5
93430	2024-11-15T10:55:51	9.3	97
93431	2024-11-15T11:05:51	9.5	96
93432	2024-11-15T11:15:51	9.6	91.5
93433	2024-11-15T11:25:51	9.6	95
93434	2024-11-15T11:35:51	9.7	92
93435	2024-11-15T11:45:51	9.8	95
93436	2024-11-15T11:55:51	9.7	92.5
93437	2024-11-15T12:05:51	9.7	94.5
93438	2024-11-15T12:15:51	9.8	96
93439	2024-11-15T12:25:51	9.9	95.5
93440	2024-11-15T12:35:51	9.8	93
93441	2024-11-15T12:45:51	9.9	92
93442	2024-11-15T12:55:51	10	94
93443	2024-11-15T13:05:51	10	91
93444	2024-11-15T13:15:51	10	90
93445	2024-11-15T13:25:51	10	88.5
93446	2024-11-15T13:35:51	10	85
93447	2024-11-15T13:45:51	10.1	88.5
93448	2024-11-15T13:55:51	9.9	86
93449	2024-11-15T14:05:51	9.9	86
93450	2024-11-15T14:15:51	10	88
93451	2024-11-15T14:25:51	9.8	86
93452	2024-11-15T14:45:51	9.6	81
93453	2024-11-15T14:55:51	9.6	82
93454	2024-11-15T15:05:51	9.6	85.5
93455	2024-11-15T15:15:51	9.4	82.5
93456	2024-11-15T15:25:51	9.5	82.5
93457	2024-11-15T15:35:51	9.4	84
93458	2024-11-15T15:45:51	9.4	84.5
93459	2024-11-15T15:55:51	9.4	85
93460	2024-11-15T16:05:51	9.3	84
93461	2024-11-15T16:15:51	9.3	85
93462	2024-11-15T16:25:51	9.3	84
93463	2024-11-15T16:35:50	9.3	84.5
93464	2024-11-15T16:45:50	9.2	82.5
93465	2024-11-15T16:55:50	9.3	83.5
93466	2024-11-15T17:05:50	9.3	85
93467	2024-11-15T17:15:50	9.2	84.5
93468	2024-11-15T17:25:50	9.2	83
93469	2024-11-15T17:35:50	9.3	87.5
93470	2024-11-15T17:45:50	9.1	88
93471	2024-11-15T17:55:50	9.1	89
93472	2024-11-15T18:05:50	9.1	88
93473	2024-11-15T18:15:50	9.1	87.5
93474	2024-11-15T18:25:50	9.2	88.5
93475	2024-11-15T18:35:50	9	87.5
93476	2024-11-15T18:45:50	9.1	87.5
93477	2024-11-15T18:55:50	8.9	89
93478	2024-11-15T19:05:50	9	89.5
93479	2024-11-15T19:15:50	8.9	90.5
93480	2024-11-15T19:25:50	9	89.5
93481	2024-11-15T19:35:50	8.9	91
93482	2024-11-15T19:45:50	8.9	91
93483	2024-11-15T19:55:50	8.8	91.5
93484	2024-11-15T20:05:50	8.7	88.5
93485	2024-11-15T20:15:50	8.6	91
93486	2024-11-15T20:25:50	8.6	87.5
93487	2024-11-15T20:35:50	8.6	87
93488	2024-11-15T20:45:50	8.5	84
93489	2024-11-15T20:55:50	8.5	87
93490	2024-11-15T21:05:50	8.4	84.5
93491	2024-11-15T21:15:50	8.3	85
93492	2024-11-15T21:25:50	8.5	84
93493	2024-11-15T21:35:50	8.6	85
93494	2024-11-15T21:45:50	8.5	87.5
93495	2024-11-15T21:55:50	8.5	87
93496	2024-11-15T22:05:50	8.5	89
93497	2024-11-15T22:15:50	8.4	86
93498	2024-11-15T22:25:50	8.4	85.5
93499	2024-11-15T22:35:50	8.4	88.5
93500	2024-11-15T22:45:50	8.4	90
93501	2024-11-15T22:55:50	8.4	89
93502	2024-11-15T23:05:50	8.3	89.5
93503	2024-11-15T23:15:50	8.2	87.5
93504	2024-11-15T23:25:50	8	90
93505	2024-11-15T23:35:50	7.8	90.5
93506	2024-11-15T23:45:50	7.6	88.5
93507	2024-11-15T23:55:50	7.4	90
93508	2024-11-16T00:34:13	7.2	90.5
93509	2024-11-16T00:34:13	7	90
93510	2024-11-16T00:34:14	7.1	87
93511	2024-11-16T00:35:54	6.9	92
93512	2024-11-16T00:45:50	6.7	92
93513	2024-11-16T00:55:50	6.6	92
93514	2024-11-16T01:05:50	6.4	90.5
93515	2024-11-16T01:15:50	6.2	93
93516	2024-11-16T01:25:50	6.1	93
93517	2024-11-16T01:35:50	6	92.5
93518	2024-11-16T01:45:50	5.8	93.5
93519	2024-11-16T01:55:50	5.8	90.5
93520	2024-11-16T02:05:50	5.7	93
93521	2024-11-16T02:15:50	5.5	93
93522	2024-11-16T02:25:50	5.4	91.5
93523	2024-11-16T02:35:50	5.4	93
93524	2024-11-16T02:45:50	5.2	93
93525	2024-11-16T02:55:50	5.1	93.5
93526	2024-11-16T03:05:50	5.1	93
93527	2024-11-16T03:15:50	4.9	90
93528	2024-11-16T03:25:50	4.8	90
93529	2024-11-16T03:35:50	4.8	85
93530	2024-11-16T03:45:50	4.5	89
93531	2024-11-16T03:55:50	4.5	91
93532	2024-11-16T04:05:50	4.4	91.5
93533	2024-11-16T04:15:50	4.3	92
93534	2024-11-16T04:25:50	4.1	91
93535	2024-11-16T04:35:50	4	92.5
93536	2024-11-16T04:45:50	4	93
93537	2024-11-16T04:55:50	3.8	92
93538	2024-11-16T05:05:50	3.7	92.5
93539	2024-11-16T05:15:50	3.6	92
93540	2024-11-16T05:25:50	3.5	92
93541	2024-11-16T05:35:50	3.4	92
93542	2024-11-16T05:45:50	3.5	92.5
93543	2024-11-16T05:55:50	3.4	93
93544	2024-11-16T06:05:50	3.3	92.5
93545	2024-11-16T06:15:50	3.3	92.5
93546	2024-11-16T06:25:50	3.1	91.5
93547	2024-11-16T06:35:50	3	91
93548	2024-11-16T06:45:50	3	91.5
93549	2024-11-16T06:55:50	3	90.5
93550	2024-11-16T07:05:50	3.4	90.5
93551	2024-11-16T07:15:50	3.5	88
93552	2024-11-16T07:25:50	3.6	89
93553	2024-11-16T07:35:50	3.6	88.5
93554	2024-11-16T07:45:50	3.8	89.5
93555	2024-11-16T07:55:50	3.8	90.5
93556	2024-11-16T08:05:50	3.7	93.5
93557	2024-11-16T08:15:50	3.9	94.5
93558	2024-11-16T08:25:50	4	94.5
93559	2024-11-16T08:35:50	4.2	94.5
93560	2024-11-16T08:45:50	4.3	94
93561	2024-11-16T08:55:50	4.7	93.5
93562	2024-11-16T09:05:50	4.8	92.5
93563	2024-11-16T09:15:50	5.1	92.5
93564	2024-11-16T09:25:50	5.2	92.5
93565	2024-11-16T09:35:50	5.4	91
93566	2024-11-16T09:45:50	5.7	91
93567	2024-11-16T09:55:50	5.6	91
93568	2024-11-16T10:05:50	5.7	90.5
93569	2024-11-16T10:15:50	5.9	91
93570	2024-11-16T10:25:50	6	90.5
93571	2024-11-16T10:35:50	6	90
93572	2024-11-16T10:45:50	6	90
93573	2024-11-16T10:55:50	6.2	89
93574	2024-11-16T11:05:50	6.3	88.5
93575	2024-11-16T11:15:50	6.4	88.5
93576	2024-11-16T11:25:50	6.4	88
93577	2024-11-16T11:35:50	6.6	88
93578	2024-11-16T11:45:50	6.8	87.5
93579	2024-11-16T11:55:50	7	88
93580	2024-11-16T12:05:50	7.2	86.5
93581	2024-11-16T12:15:50	7.4	86
93582	2024-11-16T12:25:50	7.5	86
93583	2024-11-16T12:45:50	7.8	83
93584	2024-11-16T12:55:50	7.8	83.5
93585	2024-11-16T13:05:50	7.7	84
93586	2024-11-16T13:15:50	7.6	83
93587	2024-11-16T13:25:50	7.7	83.5
93588	2024-11-16T13:35:50	7.4	83.5
93589	2024-11-16T13:45:50	7.4	84
93590	2024-11-16T13:55:50	7.2	84.5
93591	2024-11-16T14:05:50	7.4	85.5
93592	2024-11-16T14:15:50	7.4	84.5
93593	2024-11-16T14:25:50	7.3	84.5
93594	2024-11-16T14:35:50	7.3	85
93595	2024-11-16T14:45:50	7.1	85
93596	2024-11-16T14:55:50	7.2	86
93597	2024-11-16T15:05:50	7.1	86
93598	2024-11-16T15:15:50	6.7	86
93599	2024-11-16T15:25:50	6.5	87.5
93600	2024-11-16T15:35:50	6.4	87.5
93601	2024-11-16T15:45:50	6.2	87.5
93602	2024-11-16T15:55:50	6.2	88
93603	2024-11-16T16:05:50	6.2	88
93604	2024-11-16T16:15:50	6.1	88.5
93605	2024-11-16T16:25:50	6	89
93606	2024-11-16T16:35:50	5.9	89
93607	2024-11-16T16:45:50	5.8	89
93608	2024-11-16T16:55:50	6	89
93609	2024-11-16T17:05:50	5.9	89
93610	2024-11-16T17:15:50	5.9	89
93611	2024-11-16T17:25:50	5.9	89
93612	2024-11-16T17:35:50	6	89
93613	2024-11-16T17:45:50	5.9	89
93614	2024-11-16T17:55:50	5.8	89.5
93615	2024-11-16T18:05:50	5.8	90
93616	2024-11-16T18:15:50	5.7	91
93617	2024-11-16T18:45:49	5.5	92.5
93618	2024-11-16T18:55:49	5.2	93
93619	2024-11-16T19:05:49	5.3	93
93620	2024-11-16T19:15:49	5.3	93
93621	2024-11-16T19:25:49	5.2	92.5
93622	2024-11-16T19:35:49	5.1	93.5
93623	2024-11-16T19:45:49	5	94
93624	2024-11-16T19:55:49	5	93.5
93625	2024-11-16T20:05:49	5.1	93
93626	2024-11-16T20:15:49	5	92.5
93627	2024-11-16T20:25:49	5	92.5
93628	2024-11-16T20:35:49	5.1	92.5
93629	2024-11-16T20:45:49	4.9	92
93630	2024-11-16T20:55:49	4.9	91.5
93631	2024-11-16T21:05:49	5.1	91
93632	2024-11-16T21:15:49	5	90.5
93633	2024-11-16T21:25:49	5	90
93634	2024-11-16T21:35:49	5.1	90
93635	2024-11-16T21:45:49	4.9	89
93636	2024-11-16T21:55:49	5.1	88.5
93637	2024-11-16T22:05:49	5.1	88
93638	2024-11-16T22:15:49	5	87.5
93639	2024-11-16T22:25:49	5	87
93640	2024-11-16T22:35:49	5.1	87
93641	2024-11-16T22:45:49	5	86.5
93642	2024-11-16T22:55:49	5	86.5
93643	2024-11-16T23:05:49	4.9	86.5
93644	2024-11-16T23:15:49	4.8	86.5
93645	2024-11-16T23:25:49	5	86.5
93646	2024-11-16T23:35:49	4.9	86
93647	2024-11-16T23:45:49	5	85.5
93648	2024-11-16T23:55:49	4.9	85
93649	2024-11-17T00:35:35	4.9	85
93650	2024-11-17T00:35:35	4.9	84.5
93651	2024-11-17T00:35:35	4.9	84.5
93652	2024-11-17T00:35:53	5	84.5
93653	2024-11-17T00:45:49	5	84.5
93654	2024-11-17T00:55:49	5.1	84
93655	2024-11-17T01:05:49	5	84
93656	2024-11-17T01:15:49	5	83.5
93657	2024-11-17T01:25:49	5.1	84
93658	2024-11-17T01:35:49	5	84
93659	2024-11-17T01:45:49	5	84
93660	2024-11-17T01:55:49	5	83
93661	2024-11-17T02:15:49	5.1	82.5
93662	2024-11-17T02:25:49	4.9	82.5
93663	2024-11-17T02:35:49	4.9	83
93664	2024-11-17T02:45:49	5	83.5
93665	2024-11-17T02:55:49	5	84
93666	2024-11-17T03:05:49	5	84.5
93667	2024-11-17T03:15:49	5.1	85
93668	2024-11-17T03:25:49	4.9	85.5
93669	2024-11-17T03:35:49	4.9	85.5
93670	2024-11-17T03:45:49	4.8	86
93671	2024-11-17T03:55:49	4.8	86
93672	2024-11-17T04:05:49	4.8	85.5
93673	2024-11-17T04:15:49	4.8	85.5
93674	2024-11-17T04:25:49	4.9	85.5
93675	2024-11-17T04:35:49	4.7	85.5
93676	2024-11-17T04:45:49	4.7	85.5
93677	2024-11-17T04:55:49	4.6	86
93678	2024-11-17T05:05:49	4.5	86
93679	2024-11-17T05:15:49	4.4	87
93680	2024-11-17T05:25:49	4.3	87.5
93681	2024-11-17T05:35:49	4.1	88.5
93682	2024-11-17T05:45:49	4	89
93683	2024-11-17T05:55:49	3.9	90
93684	2024-11-17T06:05:49	3.8	91.5
93685	2024-11-17T06:15:49	3.9	92
93686	2024-11-17T06:25:49	3.8	91
93687	2024-11-17T06:35:49	3.9	90.5
93688	2024-11-17T06:45:49	3.8	90
93689	2024-11-17T06:55:49	3.8	89.5
93690	2024-11-17T07:05:49	3.8	88.5
93691	2024-11-17T07:15:49	3.8	88.5
93692	2024-11-17T07:25:49	3.8	89.5
93693	2024-11-17T07:35:49	3.9	90
93694	2024-11-17T07:45:49	4.1	90.5
93695	2024-11-17T07:55:49	4.1	90.5
93696	2024-11-17T08:05:49	4.3	91
93697	2024-11-17T08:15:49	4.3	91.5
93698	2024-11-17T08:25:49	4.5	91
93699	2024-11-17T08:35:49	4.8	91.5
93700	2024-11-17T08:45:49	5	90.5
93701	2024-11-17T08:55:49	5.1	90
93702	2024-11-17T09:05:49	5.4	89.5
93703	2024-11-17T09:15:49	5.3	89.5
93704	2024-11-17T09:25:49	5.4	89.5
93705	2024-11-17T09:35:49	5.5	87.5
93706	2024-11-17T09:45:49	5.7	86
93707	2024-11-17T09:55:49	5.9	86
93708	2024-11-17T10:05:49	5.8	86
93709	2024-11-17T10:16:10	5.8	87
93710	2024-11-17T10:25:49	5.8	86.5
93711	2024-11-17T10:35:49	5.9	87
93712	2024-11-17T10:45:49	6.1	86.5
93713	2024-11-17T10:55:49	6.2	86.5
93714	2024-11-17T11:05:49	6.2	87.5
93715	2024-11-17T11:15:49	6.4	88
93716	2024-11-17T11:25:49	6.6	88.5
93717	2024-11-17T11:35:49	6.6	88.5
93718	2024-11-17T11:45:49	6.5	88
93719	2024-11-17T11:55:49	6.7	88.5
93720	2024-11-17T12:05:49	6.6	88.5
93721	2024-11-17T12:15:49	6.8	89
93722	2024-11-17T12:25:49	6.8	92
93723	2024-11-17T12:35:49	6.6	93.5
93724	2024-11-17T12:45:49	6.7	92.5
93725	2024-11-17T12:55:49	6.8	91.5
93726	2024-11-17T13:05:49	6.8	90.5
93727	2024-11-17T13:15:49	6.9	90
93728	2024-11-17T13:25:49	6.8	89
93729	2024-11-17T13:35:49	6.4	99
93730	2024-11-17T13:45:49	6.3	100
93731	2024-11-17T13:55:49	6.2	100
93732	2024-11-17T14:05:49	6.1	100
93733	2024-11-17T14:15:49	6.1	100
93734	2024-11-17T14:25:49	6.1	100
93735	2024-11-17T14:35:49	6.1	100
93736	2024-11-17T14:45:49	6.2	100
93737	2024-11-17T14:55:49	6.2	100
93738	2024-11-17T15:05:49	6.3	100
93739	2024-11-17T15:15:49	6.3	100
93740	2024-11-17T15:25:49	6.2	100
93741	2024-11-17T15:35:49	6.3	100
93742	2024-11-17T15:45:49	6.3	100
93743	2024-11-17T15:55:49	6.4	100
93744	2024-11-17T16:05:49	6.4	100
93745	2024-11-17T16:15:49	6.4	100
93746	2024-11-17T16:25:49	6.5	100
93747	2024-11-17T16:35:49	6.6	100
93748	2024-11-17T16:45:49	6.6	100
93749	2024-11-17T16:55:49	6.7	100
93750	2024-11-17T17:05:49	6.7	100
93751	2024-11-17T17:15:49	6.7	100
93752	2024-11-17T17:25:49	6.7	100
93753	2024-11-17T17:35:49	6.7	100
93754	2024-11-17T17:45:49	6.7	100
93755	2024-11-17T17:55:49	6.8	100
93756	2024-11-17T18:05:49	6.8	100
93757	2024-11-17T18:15:49	6.8	100
93758	2024-11-17T18:25:49	6.8	100
93759	2024-11-17T18:35:49	6.8	100
93760	2024-11-17T18:45:49	6.8	100
93761	2024-11-17T18:55:49	6.8	100
93762	2024-11-17T19:05:49	6.9	100
93763	2024-11-17T19:15:49	7	100
93764	2024-11-17T19:25:49	6.9	100
93765	2024-11-17T19:35:49	6.9	100
93766	2024-11-17T19:45:49	7.1	100
93767	2024-11-17T19:55:49	7	100
93768	2024-11-17T20:05:48	7.1	100
93769	2024-11-17T20:15:49	7.1	100
93770	2024-11-17T20:25:48	7.1	100
93771	2024-11-17T20:35:48	7.3	100
93772	2024-11-17T20:45:48	7.2	100
93773	2024-11-17T20:55:48	7.3	100
93774	2024-11-17T21:05:48	7.2	100
93775	2024-11-17T21:15:49	7.3	100
93776	2024-11-17T21:25:49	7.3	100
93777	2024-11-17T21:35:48	7.2	100
93778	2024-11-17T21:45:48	7	100
93779	2024-11-17T21:55:48	6.9	100
93780	2024-11-17T22:05:48	7	100
93781	2024-11-17T22:15:48	7.2	100
93782	2024-11-17T22:25:48	7.1	100
93783	2024-11-17T22:35:48	7.2	100
93784	2024-11-17T22:45:48	7.3	100
93785	2024-11-17T22:55:48	7.2	100
93786	2024-11-17T23:05:48	7.3	100
93787	2024-11-17T23:15:48	7.2	95
93788	2024-11-17T23:25:48	7.2	91
93789	2024-11-17T23:35:48	7.1	89.5
93790	2024-11-17T23:45:48	7.1	88
93791	2024-11-17T23:55:48	7.1	86.5
93792	2024-11-18T00:34:39	7.4	84.5
93793	2024-11-18T00:34:39	7.3	85.5
93794	2024-11-18T00:34:39	7.3	84.5
93795	2024-11-18T00:35:48	7.4	84.5
93796	2024-11-18T00:45:48	7.4	86
93797	2024-11-18T00:55:48	7.4	86.5
93798	2024-11-18T01:05:49	7.3	86.5
93799	2024-11-18T01:15:48	7.2	86.5
93800	2024-11-18T01:25:48	7.3	86.5
93801	2024-11-18T01:35:48	7.1	87
93802	2024-11-18T01:45:48	7.1	86.5
93803	2024-11-18T01:55:48	7.2	86.5
93804	2024-11-18T02:05:48	7.2	86
93805	2024-11-18T02:15:48	7.2	86.5
93806	2024-11-18T02:25:48	7.2	86
93807	2024-11-18T02:35:48	7.2	86.5
93808	2024-11-18T02:45:48	7.3	87
93809	2024-11-18T02:55:48	7.3	87
93810	2024-11-18T03:05:48	7.2	87
93811	2024-11-18T03:15:48	7.2	87
93812	2024-11-18T03:25:48	7.1	87
93813	2024-11-18T03:35:48	7.1	88
93814	2024-11-18T03:45:48	6.8	91.5
93815	2024-11-18T03:55:48	6.4	94.5
93816	2024-11-18T04:05:48	6.3	93
93817	2024-11-18T04:15:48	6.3	90.5
93818	2024-11-18T04:25:48	6.6	89
93819	2024-11-18T04:35:48	6.8	88
93820	2024-11-18T04:45:48	6.9	85.5
93821	2024-11-18T04:55:48	7.1	85
93822	2024-11-18T05:05:48	7.3	84.5
93823	2024-11-18T05:15:48	7.3	83
93824	2024-11-18T05:25:48	7.6	82.5
93825	2024-11-18T05:35:48	7.7	81.5
93826	2024-11-18T05:45:48	7.8	81.5
93827	2024-11-18T05:55:48	7.5	83
93828	2024-11-18T06:05:48	7.5	83
93829	2024-11-18T06:15:48	7.1	89.5
93830	2024-11-18T06:25:48	6.5	97.5
93831	2024-11-18T06:35:48	6.3	100
93832	2024-11-18T06:45:48	6.3	100
93833	2024-11-18T06:55:48	6.2	100
93834	2024-11-18T07:05:48	6.2	100
93835	2024-11-18T07:15:48	6.2	100
93836	2024-11-18T07:25:48	6.4	97.5
93837	2024-11-18T07:35:48	6.7	93.5
93838	2024-11-18T07:45:48	7	89.5
93839	2024-11-18T07:55:48	7.1	88.5
93840	2024-11-18T08:05:48	7.3	87.5
93841	2024-11-18T08:15:48	7.5	85.5
93842	2024-11-18T08:25:48	7	95
93843	2024-11-18T08:35:48	6.8	96.5
93844	2024-11-18T08:45:48	6.9	94
93845	2024-11-18T08:55:48	7	94
93846	2024-11-18T09:05:48	7	94.5
93847	2024-11-18T09:15:48	6.9	96
93848	2024-11-18T09:25:48	7	93
93849	2024-11-18T09:35:48	7.1	94
93850	2024-11-18T09:45:48	7.3	90
93851	2024-11-18T09:55:48	7.8	86.5
93852	2024-11-18T10:05:48	7.8	87
93853	2024-11-18T10:15:48	8	85.5
93854	2024-11-18T10:25:48	8.4	84
93855	2024-11-18T10:35:48	8.6	83.5
93856	2024-11-18T10:45:48	8.5	84.5
93857	2024-11-18T10:55:48	8	93.5
93858	2024-11-18T11:05:48	7.6	96.5
93859	2024-11-18T11:25:48	7.4	99
93860	2024-11-18T11:35:48	7.3	100
93861	2024-11-18T11:45:48	7.3	100
93862	2024-11-18T11:55:48	7.2	100
93863	2024-11-18T12:05:48	7.2	100
93864	2024-11-18T12:15:48	7.2	100
93865	2024-11-18T12:25:48	7.3	100
93866	2024-11-18T12:35:48	7.3	100
93867	2024-11-18T12:45:48	7.2	100
93868	2024-11-18T12:55:48	7.3	100
93869	2024-11-18T13:05:48	7.3	100
93870	2024-11-18T13:15:48	7.1	100
93871	2024-11-18T13:25:48	7.3	100
93872	2024-11-18T13:35:48	7.3	100
93873	2024-11-18T13:45:48	7.3	100
93874	2024-11-18T13:55:48	7.4	100
93875	2024-11-18T14:05:48	7.5	100
93876	2024-11-18T14:15:48	7.5	100
93877	2024-11-18T14:25:48	7.5	100
93878	2024-11-18T14:35:48	7.5	100
93879	2024-11-18T14:45:48	7.6	100
93880	2024-11-18T14:55:48	7.5	100
93881	2024-11-18T15:05:48	7.6	100
93882	2024-11-18T15:15:48	7.5	100
93883	2024-11-18T15:25:48	7.4	100
93884	2024-11-18T15:35:48	7.3	100
93885	2024-11-18T15:45:48	7.3	100
93886	2024-11-18T15:55:48	7.4	100
93887	2024-11-18T16:05:48	7.4	100
93888	2024-11-18T16:15:48	7.4	100
93889	2024-11-18T16:25:48	7.3	100
93890	2024-11-18T16:35:48	7.3	100
93891	2024-11-18T16:45:48	7.3	100
93892	2024-11-18T16:55:48	7.3	100
93893	2024-11-18T17:05:48	7.3	100
93894	2024-11-18T17:15:47	7.4	100
93895	2024-11-18T17:25:48	7.3	100
93896	2024-11-18T17:35:47	7.4	100
93897	2024-11-18T17:45:47	7.4	100
93898	2024-11-18T17:55:47	7.4	100
93899	2024-11-18T18:05:47	7.4	100
93900	2024-11-18T18:15:47	7.5	100
93901	2024-11-18T18:25:47	7.4	100
93902	2024-11-18T18:35:47	7.4	100
93903	2024-11-18T18:45:47	7.4	100
93904	2024-11-18T18:55:47	7.4	100
93905	2024-11-18T19:05:47	7.3	100
93906	2024-11-18T19:15:47	7.4	100
93907	2024-11-18T19:25:47	7.4	100
93908	2024-11-18T19:35:47	7.5	100
93909	2024-11-18T19:45:47	7.5	100
93910	2024-11-18T19:55:47	7.8	100
93911	2024-11-18T20:05:47	7.8	100
93912	2024-11-18T20:15:47	7.9	100
93913	2024-11-18T20:25:47	8	100
93914	2024-11-18T20:35:47	8	100
93915	2024-11-18T20:45:47	8	100
93916	2024-11-18T20:55:47	8.1	100
93917	2024-11-18T21:05:47	8.2	100
93918	2024-11-18T21:15:47	8.3	100
93919	2024-11-18T21:25:47	8.5	100
93920	2024-11-18T21:35:47	8.5	100
93921	2024-11-18T21:45:47	8.5	100
93922	2024-11-18T21:55:47	8.7	100
93923	2024-11-18T22:05:47	8.8	100
93924	2024-11-18T22:15:47	8.6	100
93925	2024-11-18T22:25:47	8.4	100
93926	2024-11-18T22:35:47	8.4	100
93927	2024-11-18T22:45:47	8.3	100
93928	2024-11-18T22:55:47	8.2	100
93929	2024-11-18T23:05:47	8.2	100
93930	2024-11-18T23:15:47	8.2	100
93931	2024-11-18T23:25:47	8.1	100
93932	2024-11-18T23:35:47	8.3	100
93933	2024-11-18T23:45:47	8.3	100
93934	2024-11-18T23:55:47	8.2	100
93935	2024-11-19T00:35:27	8.2	100
93936	2024-11-19T00:35:27	8.2	100
93937	2024-11-19T00:35:27	8.2	100
93938	2024-11-19T00:36:11	8.2	100
93939	2024-11-19T00:45:47	8.1	100
93940	2024-11-19T00:55:47	8.1	100
93941	2024-11-19T01:05:47	8.1	100
93942	2024-11-19T01:15:47	8.1	100
93943	2024-11-19T01:25:47	8	100
93944	2024-11-19T01:35:47	8.1	100
93945	2024-11-19T01:45:47	8.2	100
93946	2024-11-19T01:55:47	8.1	100
93947	2024-11-19T02:05:47	8.2	100
93948	2024-11-19T02:15:47	8.1	100
93949	2024-11-19T02:25:47	8.2	100
93950	2024-11-19T02:35:47	8.1	100
93951	2024-11-19T02:45:47	8.2	100
93952	2024-11-19T02:55:47	8.2	100
93953	2024-11-19T03:05:47	8.2	100
93954	2024-11-19T03:15:47	8.2	100
93955	2024-11-19T03:25:47	8.2	100
93956	2024-11-19T03:35:47	8.1	100
93957	2024-11-19T03:45:47	8.1	100
93958	2024-11-19T03:55:47	8	100
93959	2024-11-19T04:05:47	8.2	100
93960	2024-11-19T04:15:47	8.1	100
93961	2024-11-19T04:25:47	8.2	100
93962	2024-11-19T04:35:47	8.3	100
93963	2024-11-19T04:45:47	8.2	100
93964	2024-11-19T04:55:47	8.3	100
93965	2024-11-19T05:05:47	8.4	100
93966	2024-11-19T05:15:47	8.4	100
93967	2024-11-19T05:25:47	8.5	100
93968	2024-11-19T05:35:47	8.6	100
93969	2024-11-19T05:45:47	8.6	100
93970	2024-11-19T05:55:47	8.9	100
93971	2024-11-19T06:05:47	8.9	100
93972	2024-11-19T06:15:47	8.9	100
93973	2024-11-19T06:25:47	8.8	100
93974	2024-11-19T06:35:47	8.5	100
93975	2024-11-19T06:45:47	8.5	100
93976	2024-11-19T06:55:47	8.5	100
93977	2024-11-19T07:05:47	8.5	100
93978	2024-11-19T07:15:47	8.6	100
93979	2024-11-19T07:25:47	8.5	100
93980	2024-11-19T07:35:47	8.8	100
93981	2024-11-19T07:45:47	8.9	100
93982	2024-11-19T07:55:47	9.2	100
93983	2024-11-19T08:05:47	9.3	100
93984	2024-11-19T08:15:47	9.5	100
93985	2024-11-19T08:25:47	9.7	100
93986	2024-11-19T08:35:47	9.9	100
93987	2024-11-19T08:45:47	10	100
93988	2024-11-19T08:55:47	10.4	100
93989	2024-11-19T09:05:47	10.6	100
93990	2024-11-19T09:15:47	10.8	100
93991	2024-11-19T09:25:47	11	100
93992	2024-11-19T09:35:47	11	100
93993	2024-11-19T09:45:47	11	100
93994	2024-11-19T09:55:47	11.2	100
93995	2024-11-19T10:05:47	10.2	100
93996	2024-11-19T10:15:47	9.8	100
93997	2024-11-19T10:25:47	10.1	100
93998	2024-11-19T10:35:47	9.9	100
93999	2024-11-19T10:45:47	10	100
94000	2024-11-19T10:55:47	10.4	100
94001	2024-11-19T11:05:47	10.6	100
94002	2024-11-19T11:15:47	10.7	100
94003	2024-11-19T11:25:47	11	100
94004	2024-11-19T11:35:47	11.2	100
94005	2024-11-19T11:45:47	11.5	100
94006	2024-11-19T11:55:47	11.5	100
94007	2024-11-19T12:05:47	11.6	100
94008	2024-11-19T12:15:47	11.9	100
94009	2024-11-19T12:25:46	12.1	100
94010	2024-11-19T12:35:46	12.2	100
94011	2024-11-19T12:45:46	12.2	100
94012	2024-11-19T12:55:46	12.2	100
94013	2024-11-19T13:05:46	11.5	100
94014	2024-11-19T13:15:46	10.8	100
94015	2024-11-19T13:25:46	10.3	100
94016	2024-11-19T13:35:46	10.8	100
94017	2024-11-19T13:45:46	11.1	100
94018	2024-11-19T13:55:46	11.3	100
94019	2024-11-19T14:05:46	11.5	100
94020	2024-11-19T14:15:46	11.1	100
94021	2024-11-19T14:25:46	11.6	100
94022	2024-11-19T14:35:46	11.7	99
94023	2024-11-19T14:45:46	10.9	99
94024	2024-11-19T14:55:46	10.3	99
94025	2024-11-19T15:05:46	10.3	99
94026	2024-11-19T15:15:46	10.2	99
94027	2024-11-19T15:25:46	10	100
94028	2024-11-19T15:35:46	9.9	100
94029	2024-11-19T15:45:46	9.8	100
94030	2024-11-19T15:55:46	9.6	100
94031	2024-11-19T16:05:46	9.6	100
94032	2024-11-19T16:15:46	9.6	100
94033	2024-11-19T16:25:46	9.5	100
94034	2024-11-19T16:35:46	9.6	100
94035	2024-11-19T16:45:46	9.4	100
94036	2024-11-19T16:55:46	9.5	100
94037	2024-11-19T17:05:46	9.5	100
94038	2024-11-19T17:15:46	9.5	100
94039	2024-11-19T17:25:46	9.5	100
94040	2024-11-19T17:35:46	9.5	100
94041	2024-11-19T17:45:46	9.5	100
94042	2024-11-19T17:55:46	8.9	100
94043	2024-11-19T18:05:46	8.9	100
94044	2024-11-19T18:15:46	8.8	100
94045	2024-11-19T18:25:46	8.9	100
94046	2024-11-19T18:35:46	8.9	100
94047	2024-11-19T18:45:46	8.9	100
94048	2024-11-19T18:55:46	8.8	100
94049	2024-11-19T19:05:46	8.8	100
94050	2024-11-19T19:15:46	8.9	100
94051	2024-11-19T19:25:46	8.9	100
94052	2024-11-19T19:35:46	8.7	100
94053	2024-11-19T19:45:46	8.7	100
94054	2024-11-19T19:55:46	8.7	100
94055	2024-11-19T20:05:46	8.7	100
94056	2024-11-19T20:15:46	8.7	100
94057	2024-11-19T20:25:46	8.7	100
94058	2024-11-19T20:35:46	8.6	100
94059	2024-11-19T20:45:46	8.5	100
94060	2024-11-19T20:55:46	8.6	100
94061	2024-11-19T21:05:46	8.3	100
94062	2024-11-19T21:15:46	7.8	100
94063	2024-11-19T21:25:46	7.7	100
94064	2024-11-19T21:35:46	7.6	100
94065	2024-11-19T21:45:46	7.5	100
94066	2024-11-19T21:55:46	7.4	100
94067	2024-11-19T22:05:46	7.3	100
94068	2024-11-19T22:15:46	7.1	100
94069	2024-11-19T22:25:46	7	100
94070	2024-11-19T22:35:46	6.9	100
94071	2024-11-19T22:45:46	6.6	100
94072	2024-11-19T22:55:46	6.3	100
94073	2024-11-19T23:05:46	6.1	100
94074	2024-11-19T23:15:46	6.2	100
94075	2024-11-19T23:25:46	6.3	100
94076	2024-11-19T23:35:46	6	100
94077	2024-11-19T23:45:46	6.1	100
94078	2024-11-19T23:55:46	6.5	100
94079	2024-11-20T00:35:08	6.4	100
94080	2024-11-20T00:35:08	6.3	100
94081	2024-11-20T00:35:08	6.2	100
94082	2024-11-20T00:35:51	6.1	99.5
94083	2024-11-20T00:45:46	6.2	98.5
94084	2024-11-20T00:55:46	6.4	98
94085	2024-11-20T01:05:46	6.4	97.5
94086	2024-11-20T01:15:46	6.3	97.5
94087	2024-11-20T01:25:46	6.1	97.5
94088	2024-11-20T01:35:46	6.1	97.5
94089	2024-11-20T01:45:46	5.5	97.5
94090	2024-11-20T01:55:46	5.5	97.5
94091	2024-11-20T02:05:46	5.6	97.5
94092	2024-11-20T02:15:46	5.7	97.5
94093	2024-11-20T02:25:46	5.7	97
94094	2024-11-20T02:35:46	5.6	97.5
94095	2024-11-20T02:45:46	5.5	97.5
94096	2024-11-20T02:55:46	4.9	97.5
94097	2024-11-20T03:05:46	5	97.5
94098	2024-11-20T03:15:46	4.7	97.5
94099	2024-11-20T03:25:46	4.8	97
94100	2024-11-20T03:35:46	4.5	97
94101	2024-11-20T03:45:46	4.2	97.5
94102	2024-11-20T03:55:46	4.1	97.5
94103	2024-11-20T04:05:46	3.9	97.5
94104	2024-11-20T04:15:46	3.8	97
94105	2024-11-20T04:25:46	3.6	97
94106	2024-11-20T04:35:46	3.7	97
94107	2024-11-20T04:45:46	3.6	97.5
94108	2024-11-20T04:55:46	3.3	97
94109	2024-11-20T05:05:46	3.2	97
94110	2024-11-20T05:15:46	3.2	97
94111	2024-11-20T05:26:02	3.3	97
94112	2024-11-20T05:35:46	3.1	97
94113	2024-11-20T05:45:46	3.1	97
94114	2024-11-20T05:55:46	3.3	97
94115	2024-11-20T06:05:46	3.3	97
94116	2024-11-20T06:15:46	3.4	97.5
94117	2024-11-20T06:25:46	3.4	97
94118	2024-11-20T06:35:46	3.3	97
94119	2024-11-20T06:45:46	3.3	97
94120	2024-11-20T06:55:46	3.2	97
94121	2024-11-20T07:05:46	3.3	97.5
94122	2024-11-20T07:15:46	3.2	97
94123	2024-11-20T07:25:46	3.3	97
94124	2024-11-20T07:35:46	3.5	97
94125	2024-11-20T07:45:46	3.5	97
94126	2024-11-20T07:55:46	3.7	97
94127	2024-11-20T08:05:46	3.6	97
94128	2024-11-20T08:15:46	3.7	97
94129	2024-11-20T08:25:46	3.9	97
94130	2024-11-20T08:35:46	3.9	97
94131	2024-11-20T08:45:46	4	97.5
94132	2024-11-20T08:55:46	4	97
94133	2024-11-20T09:05:46	4.1	97
94134	2024-11-20T09:15:46	4.2	97.5
94135	2024-11-20T09:25:46	4.3	97
94136	2024-11-20T09:35:46	4.5	97
94137	2024-11-20T09:45:46	4.6	97.5
94138	2024-11-20T09:55:45	4.7	97
94139	2024-11-20T10:05:46	4.9	97
94140	2024-11-20T10:15:45	4.9	97
94141	2024-11-20T10:25:45	4.9	97
94142	2024-11-20T10:35:45	5	97
94143	2024-11-20T10:45:45	5.2	97
94144	2024-11-20T10:55:45	5.4	97
94145	2024-11-20T11:05:45	5.2	97
94146	2024-11-20T11:15:45	5.2	97.5
94147	2024-11-20T11:25:45	5.4	97
94148	2024-11-20T11:35:45	5.2	97
94149	2024-11-20T11:45:45	5.7	97
94150	2024-11-20T11:55:45	6.3	97.5
94151	2024-11-20T12:05:45	6.3	97.5
94152	2024-11-20T12:15:45	6.5	97
94153	2024-11-20T12:25:45	7.8	97
94154	2024-11-20T12:35:45	8.3	97
94155	2024-11-20T12:45:45	8.8	97
94156	2024-11-20T13:05:45	8.4	97.5
94157	2024-11-20T13:15:45	7.3	99.5
94158	2024-11-20T13:25:45	8.3	99.5
94159	2024-11-20T13:35:45	8.7	100
94160	2024-11-20T13:45:45	9.1	100
94161	2024-11-20T13:55:45	8.9	99.5
94162	2024-11-20T14:05:45	8.7	100
94163	2024-11-20T14:15:45	8.8	99
94164	2024-11-20T14:25:45	9.1	100
94165	2024-11-20T14:35:45	8.6	99
94166	2024-11-20T14:45:45	8.5	90
94167	2024-11-20T14:55:45	8.4	57
94168	2024-11-20T15:05:45	7.4	54
94169	2024-11-20T15:15:45	7	56
94170	2024-11-20T15:25:45	6.3	56.5
94171	2024-11-20T15:35:45	6.5	59
94172	2024-11-20T15:45:45	6.1	60
94173	2024-11-20T15:55:45	6	59
94174	2024-11-20T16:05:45	5.9	62
94175	2024-11-20T16:15:45	5.7	60
94176	2024-11-20T16:25:45	5.8	61
94177	2024-11-20T16:35:45	5.7	59
94178	2024-11-20T16:45:45	5.7	60.5
94179	2024-11-20T16:56:02	5.5	62.5
94180	2024-11-20T17:05:45	5.4	60.5
94181	2024-11-20T17:15:45	5.6	63.5
94182	2024-11-20T17:25:45	5.3	62
94183	2024-11-20T17:35:45	5.3	62
94184	2024-11-20T17:45:45	5.2	63
94185	2024-11-20T17:55:45	5.2	64.5
94186	2024-11-20T18:05:45	5	65.5
94187	2024-11-20T18:15:45	5	65
94188	2024-11-20T18:25:45	4.9	66
94189	2024-11-20T18:35:45	4.8	66.5
94190	2024-11-20T18:45:45	4.8	67
94191	2024-11-20T18:55:45	4.7	66.5
94192	2024-11-20T19:05:45	4.6	67.5
94193	2024-11-20T19:15:45	4.6	67
94194	2024-11-20T19:25:45	4.5	68
94195	2024-11-20T19:35:45	4.4	68
94196	2024-11-20T19:45:45	4.3	68.5
94197	2024-11-20T19:55:45	4.4	68.5
94198	2024-11-20T20:05:45	4.6	68.5
94199	2024-11-20T20:15:45	4.4	68.5
94200	2024-11-20T20:25:45	4.5	68
94201	2024-11-20T20:35:45	4.6	67
94202	2024-11-20T20:45:45	4.6	67.5
94203	2024-11-20T20:55:45	4.6	67.5
94204	2024-11-20T21:05:45	4.6	67.5
94205	2024-11-20T21:15:45	4.6	69.5
94206	2024-11-20T21:25:45	4.5	69
94207	2024-11-20T21:35:45	4.5	69.5
94208	2024-11-20T21:45:45	4.4	71
94209	2024-11-20T21:55:45	3.8	79
94210	2024-11-20T22:05:45	3.7	78.5
94211	2024-11-20T22:15:45	3.8	75.5
94212	2024-11-20T22:26:07	3.9	75.5
94213	2024-11-20T22:35:45	3.9	77.5
94214	2024-11-20T22:45:45	3.8	79.5
94215	2024-11-20T22:55:45	3.7	80.5
94216	2024-11-20T23:05:45	3.6	81.5
94217	2024-11-20T23:15:45	3.6	81.5
94218	2024-11-20T23:25:45	3.3	81
94219	2024-11-20T23:35:45	3.4	80
94220	2024-11-20T23:45:45	3.3	79.5
94221	2024-11-20T23:55:45	3.4	78.5
94222	2024-11-21T00:35:30	3.5	77
94223	2024-11-21T00:35:32	3.7	76
94224	2024-11-21T00:35:33	3.6	75
94225	2024-11-21T00:35:45	3.7	73
94226	2024-11-21T00:45:45	3.8	73
94227	2024-11-21T00:55:45	3.8	73
94228	2024-11-21T01:05:45	3.6	74
94229	2024-11-21T01:15:45	3	82
94230	2024-11-21T01:25:45	2.8	80
94231	2024-11-21T01:35:45	2.2	92
94232	2024-11-21T01:45:45	2.1	94.5
94233	2024-11-21T01:55:45	2.4	89.5
94234	2024-11-21T02:05:45	2.5	81
94235	2024-11-21T02:15:45	2.6	80
94236	2024-11-21T02:25:45	2.5	81.5
94237	2024-11-21T02:35:45	2.5	81
94238	2024-11-21T02:45:45	2.5	83
94239	2024-11-21T02:55:45	2.4	85
94240	2024-11-21T03:05:45	2.4	86
94241	2024-11-21T03:15:45	2.4	83
94242	2024-11-21T03:25:45	2.4	82.5
94243	2024-11-21T03:35:45	2.4	86
94244	2024-11-21T03:45:45	2.5	85.5
94245	2024-11-21T03:55:45	2.6	83.5
94246	2024-11-21T04:05:45	2.8	80.5
94247	2024-11-21T04:15:45	2.8	81
94248	2024-11-21T04:25:45	2.9	80.5
94249	2024-11-21T04:35:45	2.8	80
94250	2024-11-21T04:45:45	3	79.5
94251	2024-11-21T04:55:45	3	80
94252	2024-11-21T05:05:45	2.7	84.5
94253	2024-11-21T05:15:45	2.7	83.5
94254	2024-11-21T05:25:45	2.7	83.5
94255	2024-11-21T05:35:45	2.8	83.5
94256	2024-11-21T05:45:45	2.8	80.5
94257	2024-11-21T05:55:45	2.8	80
94258	2024-11-21T06:05:45	2.9	79
94259	2024-11-21T06:15:45	3	78
94260	2024-11-21T06:25:45	2.9	78
94261	2024-11-21T06:35:45	3	78.5
94262	2024-11-21T06:45:45	3	77
94263	2024-11-21T06:55:45	3.1	77.5
94264	2024-11-21T07:05:45	2.9	77.5
94265	2024-11-21T07:15:45	2.9	77
94266	2024-11-21T07:25:45	2.9	76.5
94267	2024-11-21T07:35:45	3	76.5
94268	2024-11-21T07:45:45	2.9	76.5
94269	2024-11-21T07:55:45	2.8	77
94270	2024-11-21T08:05:45	2.8	77.5
94271	2024-11-21T08:15:45	2.8	76.5
94272	2024-11-21T08:25:45	2.8	77
94273	2024-11-21T08:35:45	2.7	77.5
94274	2024-11-21T08:45:45	2.7	77.5
94275	2024-11-21T08:55:45	2.9	77
94276	2024-11-21T09:05:45	3	75
94277	2024-11-21T09:15:45	3.1	73.5
94278	2024-11-21T09:25:45	3.3	73
94279	2024-11-21T09:35:45	3.4	71
94280	2024-11-21T09:45:45	3.3	69
94281	2024-11-21T09:55:45	3.6	68.5
94282	2024-11-21T10:05:45	3.6	68
94283	2024-11-21T10:15:45	3.8	69
94284	2024-11-21T10:25:45	3.8	69
94285	2024-11-21T10:35:45	3.9	66.5
94286	2024-11-21T10:45:45	4	66.5
94287	2024-11-21T10:55:45	4.2	66.5
94288	2024-11-21T11:05:45	4.3	64.5
94289	2024-11-21T11:15:45	4.4	65
94290	2024-11-21T11:25:45	4.5	65.5
94291	2024-11-21T11:35:45	4.6	65
94292	2024-11-21T11:45:45	4.7	63
94293	2024-11-21T11:55:45	5	66.5
94294	2024-11-21T12:05:45	4.9	63
94295	2024-11-21T12:15:45	5	64.5
94296	2024-11-21T12:25:45	5.2	67
94297	2024-11-21T12:35:45	5.4	73
94298	2024-11-21T12:45:45	5.8	74.5
94299	2024-11-21T12:55:45	5.8	72.5
94300	2024-11-21T13:05:45	5.9	70
94301	2024-11-21T13:15:45	5.8	71
94302	2024-11-21T13:25:45	5.8	73.5
94303	2024-11-21T13:35:45	5.8	70
94304	2024-11-21T13:55:45	5.5	71
94305	2024-11-21T14:05:45	5.4	72.5
94306	2024-11-21T14:15:45	5.3	70
94307	2024-11-21T14:25:45	5.2	71
94308	2024-11-21T14:35:45	5.1	65.5
94309	2024-11-21T14:45:45	5.1	70
94310	2024-11-21T14:55:45	4.9	70.5
94311	2024-11-21T15:05:45	4.9	71
94312	2024-11-21T15:15:45	4.9	76
94313	2024-11-21T15:25:45	4.8	74
94314	2024-11-21T15:35:45	4.7	70
94315	2024-11-21T15:45:45	4.7	72
94316	2024-11-21T15:55:45	4.5	70.5
94317	2024-11-21T16:05:45	4.4	70
94318	2024-11-21T16:15:45	4.5	75.5
94319	2024-11-21T16:25:45	4.3	74.5
94320	2024-11-21T16:35:45	4.4	75
94321	2024-11-21T16:45:45	4.3	75.5
94322	2024-11-21T16:55:45	4.2	75
94323	2024-11-21T17:05:45	4.2	75
94324	2024-11-21T17:15:44	4.1	77.5
94325	2024-11-21T17:25:44	4.1	78.5
94326	2024-11-21T17:35:44	4	76.5
94327	2024-11-21T17:45:44	4	82.5
94328	2024-11-21T17:55:44	4	82.5
94329	2024-11-21T18:05:44	4	78
94330	2024-11-21T18:15:44	3.8	78.5
94331	2024-11-21T18:25:44	3.7	76.5
94332	2024-11-21T18:35:44	3.8	79
94333	2024-11-21T18:45:44	3.8	77.5
94334	2024-11-21T18:55:44	3.7	79.5
94335	2024-11-21T19:05:44	3.7	80.5
94336	2024-11-21T19:15:44	3.6	81
94337	2024-11-21T19:25:44	3.7	85.5
94338	2024-11-21T19:35:44	3.6	79.5
94339	2024-11-21T19:45:44	3.6	84.5
94340	2024-11-21T19:55:44	3.6	81.5
94341	2024-11-21T20:05:44	3.5	81.5
94342	2024-11-21T20:15:44	3.5	80
94343	2024-11-21T20:25:44	3.4	81
94344	2024-11-21T20:35:44	3.4	81.5
94345	2024-11-21T20:45:44	3.4	83.5
94346	2024-11-21T20:55:44	3.5	86
94347	2024-11-21T21:05:44	3.3	85.5
94348	2024-11-21T21:15:44	3.4	86
94349	2024-11-21T21:25:44	3.3	88.5
94350	2024-11-21T21:35:44	3.3	88.5
94351	2024-11-21T21:45:44	3.2	88
94352	2024-11-21T21:55:44	3.3	89.5
94353	2024-11-21T22:05:44	3.2	90
94354	2024-11-21T22:15:44	3.2	87.5
94355	2024-11-21T22:25:44	3.1	88
94356	2024-11-21T22:35:44	3	88
94357	2024-11-21T22:45:44	3.1	86.5
94358	2024-11-21T22:55:44	3.1	88.5
94359	2024-11-21T23:05:44	3	86.5
94360	2024-11-21T23:15:44	3	87
94361	2024-11-21T23:25:44	3	88.5
94362	2024-11-21T23:35:44	2.9	87.5
94363	2024-11-21T23:45:44	2.7	82
94364	2024-11-21T23:55:44	2.7	87.5
94365	2024-11-22T00:34:39	2.5	83
94366	2024-11-22T00:34:39	2.3	83
94367	2024-11-22T00:34:41	2.2	85
94368	2024-11-22T00:36:54	2.1	83
94369	2024-11-22T00:45:44	2	83
94370	2024-11-22T00:55:44	1.8	83.5
94371	2024-11-22T01:05:44	1.6	84
94372	2024-11-22T01:15:44	1.4	84
94373	2024-11-22T01:25:44	1.2	84.5
94374	2024-11-22T01:35:44	1.2	85
94375	2024-11-22T01:45:44	1.2	85
94376	2024-11-22T01:55:44	0.8	85
94377	2024-11-22T02:05:44	0.8	85
94378	2024-11-22T02:15:44	0.7	85
94379	2024-11-22T02:25:44	0.5	85
94380	2024-11-22T02:35:44	0.5	84.5
94381	2024-11-22T02:45:44	0.4	85
94382	2024-11-22T02:55:44	0.2	85
94383	2024-11-22T03:05:44	0.2	85
94384	2024-11-22T03:15:44	0.3	84.5
94385	2024-11-22T03:25:44	0.2	85.5
94386	2024-11-22T03:35:44	0.2	86
94387	2024-11-22T03:45:44	0	86.5
94388	2024-11-22T03:55:44	0	87
94389	2024-11-22T04:05:44	0	86.5
94390	2024-11-22T04:15:44	0.1	86
94391	2024-11-22T04:25:44	0	85
94392	2024-11-22T04:35:44	0	85
94393	2024-11-22T04:45:44	0	85
94394	2024-11-22T04:55:44	0	85.5
94395	2024-11-22T05:05:44	0	85
94396	2024-11-22T05:15:44	0	85
94397	2024-11-22T05:25:44	0	84.5
94398	2024-11-22T05:35:44	0.1	84
94399	2024-11-22T05:45:44	0.1	83.5
94400	2024-11-22T05:55:44	0.2	82.5
94401	2024-11-22T06:05:44	0.2	83
94402	2024-11-22T06:15:44	0.2	82
94403	2024-11-22T06:25:44	0.2	81.5
94404	2024-11-22T06:35:44	0.3	82
94405	2024-11-22T06:45:44	0.3	82
94406	2024-11-22T06:55:44	0.4	81
94407	2024-11-22T07:05:44	0.6	79.5
94408	2024-11-22T07:15:44	0.5	79.5
94409	2024-11-22T07:25:44	0.6	80
94410	2024-11-22T07:35:44	0.8	79
94411	2024-11-22T07:45:44	1	78.5
94412	2024-11-22T07:55:44	1.1	78.5
94413	2024-11-22T08:05:44	1.3	77
94414	2024-11-22T08:15:44	1.4	76
94415	2024-11-22T08:25:44	1.4	75.5
94416	2024-11-22T08:35:44	1.5	74
94417	2024-11-22T08:45:44	1.8	72
94418	2024-11-22T08:55:44	2.1	71.5
94419	2024-11-22T09:05:44	2.2	71
94420	2024-11-22T09:15:44	2.4	70.5
94421	2024-11-22T09:25:44	2.6	70.5
94422	2024-11-22T09:35:44	2.5	72
94423	2024-11-22T09:45:44	1.4	92.5
94424	2024-11-22T09:55:44	0.9	94
94425	2024-11-22T10:05:44	1	93.5
94426	2024-11-22T10:15:44	1.1	93.5
94427	2024-11-22T10:25:44	1.3	90.5
94428	2024-11-22T10:35:44	1.5	88.5
94429	2024-11-22T10:45:44	1.4	86.5
94430	2024-11-22T10:55:44	1.5	84.5
94431	2024-11-22T11:05:44	1.6	84.5
94432	2024-11-22T11:15:44	1.7	85.5
94433	2024-11-22T11:25:44	1.8	84
94434	2024-11-22T11:35:44	1.8	84.5
94435	2024-11-22T11:45:44	1.8	82.5
94436	2024-11-22T11:55:44	1.9	82.5
94437	2024-11-22T12:05:44	1.8	82.5
94438	2024-11-22T12:15:44	1.9	83
94439	2024-11-22T12:25:44	1.9	83
94440	2024-11-22T12:35:44	2	84.5
94441	2024-11-22T12:45:44	1.8	85
94442	2024-11-22T12:55:44	1.8	85.5
94443	2024-11-22T13:05:44	1.9	86
94444	2024-11-22T13:15:44	2	86
94445	2024-11-22T13:25:44	2	86
94446	2024-11-22T13:35:44	2.1	85
94447	2024-11-22T13:45:44	2.1	85
94448	2024-11-22T13:55:44	2.1	84
94449	2024-11-22T14:05:44	2.2	84
94450	2024-11-22T14:15:44	2.1	84.5
94451	2024-11-22T14:25:44	2.1	85
94452	2024-11-22T14:35:44	1.6	94
94453	2024-11-22T14:45:44	1.2	98.5
94454	2024-11-22T14:55:44	0.9	99.5
94455	2024-11-22T15:05:45	0.6	100
94456	2024-11-22T15:15:44	0.4	100
94457	2024-11-22T15:25:44	0.4	100
94458	2024-11-22T15:35:44	0.5	100
94459	2024-11-22T15:45:44	0.6	100
94460	2024-11-22T15:55:44	0.6	100
94461	2024-11-22T16:05:44	0.6	100
94462	2024-11-22T16:15:44	0.6	100
94463	2024-11-22T16:25:44	0.7	100
94464	2024-11-22T16:35:44	0.8	100
94465	2024-11-22T16:45:44	0.7	100
94466	2024-11-22T16:55:44	0.8	100
94467	2024-11-22T17:05:44	0.9	100
94468	2024-11-22T17:15:44	0.9	100
94469	2024-11-22T17:25:44	0.9	100
94470	2024-11-22T17:35:44	0.9	100
94471	2024-11-22T17:45:44	0.8	100
94472	2024-11-22T17:55:44	0.9	100
94473	2024-11-22T18:05:44	0.9	100
94474	2024-11-22T18:15:44	1.1	100
94475	2024-11-22T18:25:44	1	100
94476	2024-11-22T18:35:44	1.2	100
94477	2024-11-22T18:45:44	1.1	100
94478	2024-11-22T18:55:44	1.2	100
94479	2024-11-22T19:35:44	1.7	100
94480	2024-11-22T19:45:44	1.9	100
94481	2024-11-22T22:15:44	2.9	88.5
94482	2024-11-22T22:25:44	3	88.5
94483	2024-11-22T22:35:44	3	88
94484	2024-11-22T22:45:44	3.1	88
94485	2024-11-22T22:55:44	3.1	88
94486	2024-11-22T23:05:44	3.2	88
94487	2024-11-22T23:15:44	3.2	88
94488	2024-11-22T23:25:44	3.3	87.5
94489	2024-11-22T23:35:44	3.1	88
94490	2024-11-22T23:45:44	3.2	88
94491	2024-11-22T23:55:44	3.1	88
94492	2024-11-23T00:05:44	3.2	87.5
94493	2024-11-23T00:15:44	3.3	87.5
94494	2024-11-23T00:25:44	3.3	87.5
94495	2024-11-23T00:35:44	3.3	88
94496	2024-11-23T00:45:44	3.4	87
94497	2024-11-23T00:55:44	3.5	86
94498	2024-11-23T01:05:44	3.5	86.5
94499	2024-11-23T01:15:44	3.5	86.5
94500	2024-11-23T01:25:44	3.6	86
94501	2024-11-23T01:35:44	3.6	85.5
94502	2024-11-23T01:45:44	3.6	85.5
94503	2024-11-23T01:55:44	3.7	85
94504	2024-11-23T02:05:44	3.8	85
94505	2024-11-23T02:15:44	3.7	84
94506	2024-11-23T02:25:44	3.8	84
94507	2024-11-23T02:35:44	3.8	84.5
94508	2024-11-23T02:45:44	3.8	84
94509	2024-11-23T02:55:44	3.9	83
94510	2024-11-23T03:05:44	3.9	83
94511	2024-11-23T03:15:44	4.1	82.5
94512	2024-11-23T03:25:44	4	82.5
94513	2024-11-23T03:35:44	4.1	82.5
94514	2024-11-23T03:45:44	4.1	81.5
94515	2024-11-23T03:55:44	4.1	81.5
94516	2024-11-23T04:05:44	4.1	80.5
94517	2024-11-23T04:15:44	4.2	80.5
94518	2024-11-23T04:25:44	4.2	80
94519	2024-11-23T04:35:44	4.3	80.5
94520	2024-11-23T04:45:44	4.1	79.5
94521	2024-11-23T04:55:44	4.1	79.5
94522	2024-11-23T05:05:44	4.1	79.5
94523	2024-11-23T05:15:44	4	79.5
94524	2024-11-23T05:25:44	3.6	80
94525	2024-11-23T05:35:44	3.6	81
94526	2024-11-23T05:45:44	3.3	82
94527	2024-11-23T05:55:44	3.1	82.5
94528	2024-11-23T06:05:44	3.1	83
94529	2024-11-23T06:15:44	2.8	83.5
94530	2024-11-23T06:25:44	2.7	84
94531	2024-11-23T06:35:44	2.6	84
94532	2024-11-23T06:45:44	2.5	84.5
94533	2024-11-23T06:55:44	2.5	84.5
94534	2024-11-23T07:05:44	2.4	84.5
94535	2024-11-23T07:15:44	2.4	84
94536	2024-11-23T07:25:44	2.4	84
94537	2024-11-23T07:35:44	2.6	84
94538	2024-11-23T07:55:44	2.6	83
94539	2024-11-23T08:05:44	2.8	83
94540	2024-11-23T08:15:44	2.8	82.5
94541	2024-11-23T08:25:44	2.9	82.5
94542	2024-11-23T08:35:44	3	82.5
94543	2024-11-23T08:45:44	3.3	81
94544	2024-11-23T08:55:44	3.5	80
94545	2024-11-23T09:05:44	4	79
94546	2024-11-23T09:15:44	4.1	78.5
94547	2024-11-23T09:25:44	4.3	78
94548	2024-11-23T09:35:44	4.6	76
94549	2024-11-23T09:45:44	5	74
94550	2024-11-23T09:55:44	5.1	74.5
94551	2024-11-23T10:05:44	5.3	72.5
94552	2024-11-23T10:15:44	5.5	71
94553	2024-11-23T10:25:44	5.7	69.5
94554	2024-11-23T10:35:44	5.9	70.5
94555	2024-11-23T10:45:44	6.2	68.5
94556	2024-11-23T10:55:44	6.4	67.5
94557	2024-11-23T11:05:44	6.5	67.5
94558	2024-11-23T11:15:44	6.5	67
94559	2024-11-23T11:25:44	6.7	68.5
94560	2024-11-23T11:35:44	6.6	65
94561	2024-11-23T11:45:44	6.7	67
94562	2024-11-23T11:55:44	6.9	69.5
94563	2024-11-23T12:05:44	7	74
94564	2024-11-23T12:15:44	7.2	77
94565	2024-11-23T12:25:44	7.4	77
94566	2024-11-23T12:35:44	7.4	75.5
94567	2024-11-23T12:45:44	7.4	79.5
94568	2024-11-23T12:55:44	7.6	77.5
94569	2024-11-23T13:05:44	7.8	75
94570	2024-11-23T13:15:44	7.8	74.5
94571	2024-11-23T13:25:44	7.7	80
94572	2024-11-23T13:35:44	7.7	77
94573	2024-11-23T13:45:44	7.6	65.5
94574	2024-11-23T13:55:44	7.6	68.5
94575	2024-11-23T14:05:44	7.6	68.5
94576	2024-11-23T14:15:44	7.6	74.5
94577	2024-11-23T14:25:44	7.5	79.5
94578	2024-11-23T14:35:44	7.4	82.5
94579	2024-11-23T14:45:44	7.4	83
94580	2024-11-23T14:55:44	7.2	84
94581	2024-11-23T15:05:44	7.2	84.5
94582	2024-11-23T15:15:44	7.1	85.5
94583	2024-11-23T15:25:44	7.1	86
94584	2024-11-23T15:35:44	7	84.5
94585	2024-11-23T15:45:44	6.7	86
94586	2024-11-23T15:55:44	6.6	88.5
94587	2024-11-23T16:05:44	6.4	88
94588	2024-11-23T16:15:44	6.4	85.5
94589	2024-11-23T16:25:44	6.3	87.5
94590	2024-11-23T16:35:44	6.4	88.5
94591	2024-11-23T16:45:43	6.6	88
94592	2024-11-23T16:55:43	6.4	81
94593	2024-11-23T17:05:43	6.4	82
94594	2024-11-23T17:15:43	6.4	84.5
94595	2024-11-23T17:25:43	6.3	88
94596	2024-11-23T17:35:43	6.2	86.5
94597	2024-11-23T17:45:43	6	88
94598	2024-11-23T17:55:43	6.1	90
94599	2024-11-23T18:06:04	5.9	89
94600	2024-11-23T18:15:44	5.8	89.5
94601	2024-11-23T18:25:43	5.6	90
94602	2024-11-23T18:35:43	5.6	89.5
94603	2024-11-23T18:45:43	5.6	88.5
94604	2024-11-23T18:55:43	5.5	90
94605	2024-11-23T19:05:43	5.6	89.5
94606	2024-11-23T19:15:43	5.5	89.5
94607	2024-11-23T19:25:43	5.5	89.5
94608	2024-11-23T19:35:43	5.5	89.5
94609	2024-11-23T19:45:43	5.3	87.5
94610	2024-11-23T19:55:43	5.3	87
94611	2024-11-23T20:05:43	5.3	85
94612	2024-11-23T20:15:43	5.3	87.5
94613	2024-11-23T20:25:43	5.2	86
94614	2024-11-23T20:35:43	5.2	88
94615	2024-11-23T20:45:43	5.2	85.5
94616	2024-11-23T20:55:43	5.2	87.5
94617	2024-11-23T21:05:43	5.2	87.5
94618	2024-11-23T21:15:43	5.1	89
94619	2024-11-23T21:25:43	5.1	88.5
94620	2024-11-23T21:35:43	5.3	88
94621	2024-11-23T21:45:43	5.3	89.5
94622	2024-11-23T21:55:43	5.3	90
94623	2024-11-23T22:05:43	5.2	89.5
94624	2024-11-23T22:15:43	5.1	89
94625	2024-11-23T22:25:43	5.2	89.5
94626	2024-11-23T22:35:43	5.3	89.5
94627	2024-11-23T22:45:43	5.1	90.5
94628	2024-11-23T22:55:43	5.3	89.5
94629	2024-11-23T23:05:43	5.1	88.5
94630	2024-11-23T23:15:43	5	89
94631	2024-11-23T23:25:43	5.1	89
94632	2024-11-23T23:35:43	5	88
94633	2024-11-23T23:45:43	5.1	90.5
94634	2024-11-23T23:55:43	5.1	90
94635	2024-11-24T00:34:11	5.1	87
94636	2024-11-24T00:34:12	5.1	88.5
94637	2024-11-24T00:35:43	5.2	89.5
94638	2024-11-24T00:45:43	5.2	89.5
94639	2024-11-24T00:55:44	5.3	87.5
94640	2024-11-24T01:05:43	5.3	89
94641	2024-11-24T01:15:43	5.3	88.5
94642	2024-11-24T01:25:43	5.4	88
94643	2024-11-24T01:35:43	5.5	90
94644	2024-11-24T01:45:43	5.5	91
94645	2024-11-24T01:55:43	5.7	92
94646	2024-11-24T02:05:43	5.9	89
94647	2024-11-24T02:15:43	7.1	89
94648	2024-11-24T02:25:43	8.1	85
94649	2024-11-24T02:35:43	8.9	85
94650	2024-11-24T02:45:43	8.9	88
94651	2024-11-24T02:55:43	9.2	81.5
94652	2024-11-24T03:05:43	9.4	80
94653	2024-11-24T03:15:43	9.4	79.5
94654	2024-11-24T03:25:43	9.4	80
94655	2024-11-24T03:35:43	9.2	80.5
94656	2024-11-24T03:55:43	8.8	83
94657	2024-11-24T04:05:43	8.9	81.5
94658	2024-11-24T04:15:43	9.2	81.5
94659	2024-11-24T04:25:43	9.2	95.5
94660	2024-11-24T04:35:43	8.7	100
94661	2024-11-24T04:45:43	8.5	100
94662	2024-11-24T04:55:43	8.4	100
94663	2024-11-24T05:05:43	8.7	93
94664	2024-11-24T05:15:43	9.3	84.5
94665	2024-11-24T05:25:43	9.7	84.5
94666	2024-11-24T05:35:43	10	82.5
94667	2024-11-24T05:45:43	10.2	80.5
94668	2024-11-24T05:55:43	10.5	78.5
94669	2024-11-24T06:05:43	10.7	78
94670	2024-11-24T06:15:43	10.9	77
94671	2024-11-24T06:25:43	11	77.5
94672	2024-11-24T06:35:43	11.4	76
94673	2024-11-24T06:45:43	11.6	74
94674	2024-11-24T06:55:43	11.9	73
94675	2024-11-24T07:05:43	12.1	72.5
94676	2024-11-24T07:15:43	12.2	71.5
94677	2024-11-24T07:25:43	12.4	72
94678	2024-11-24T07:35:43	12.1	72.5
94679	2024-11-24T07:45:43	12.2	72
94680	2024-11-24T07:55:43	12.3	72
94681	2024-11-24T08:05:43	12.4	72
94682	2024-11-24T08:15:43	12.6	71.5
94683	2024-11-24T08:25:43	13.1	69
94684	2024-11-24T08:35:43	13.4	68.5
94685	2024-11-24T08:45:43	14	67
94686	2024-11-24T08:55:43	14.4	66.5
94687	2024-11-24T09:05:43	15	64.5
94688	2024-11-24T09:15:43	15.2	64.5
94689	2024-11-24T09:25:43	15.7	62
94690	2024-11-24T09:35:43	16	61
94691	2024-11-24T09:45:43	16.2	60
94692	2024-11-24T09:55:43	16.6	58.5
94693	2024-11-24T10:05:43	16.7	57.5
94694	2024-11-24T10:15:43	17	57
94695	2024-11-24T10:25:43	17.1	56.5
94696	2024-11-24T10:35:43	17.2	57
94697	2024-11-24T10:45:43	17.5	55.5
94698	2024-11-24T10:55:43	17.6	55.5
94699	2024-11-24T11:05:43	17.7	54
94700	2024-11-24T11:15:43	18.2	52.5
94701	2024-11-24T11:25:43	19	51
94702	2024-11-24T11:35:43	19.2	50
94703	2024-11-24T11:45:43	19.4	49.5
94704	2024-11-24T11:55:42	19.4	49
94705	2024-11-24T12:05:42	20	48
94706	2024-11-24T12:15:42	20.6	47
94707	2024-11-24T12:25:42	20.3	46.5
94708	2024-11-24T12:35:42	20.1	47
94709	2024-11-24T12:45:42	19.9	47.5
94710	2024-11-24T12:55:42	19.7	47
94711	2024-11-24T13:05:42	19.6	47.5
94712	2024-11-24T13:15:42	19.3	60
94713	2024-11-24T13:25:42	17.6	56
94714	2024-11-24T13:35:42	18.7	50
94715	2024-11-24T13:45:42	18.8	49.5
94716	2024-11-24T13:55:42	19.1	49
94717	2024-11-24T14:05:42	19.1	48.5
94718	2024-11-24T14:15:42	19.1	48
94719	2024-11-24T14:25:42	19.1	47.5
94720	2024-11-24T14:35:42	19	48
94721	2024-11-24T14:45:42	18.9	48
94722	2024-11-24T14:55:42	18.7	48
94723	2024-11-24T15:05:42	18.6	48.5
94724	2024-11-24T15:15:42	18.5	49
94725	2024-11-24T15:25:42	18.4	49
94726	2024-11-24T15:35:42	18.4	48.5
94727	2024-11-24T15:45:42	18.4	48
94728	2024-11-24T15:55:42	18.3	48
94729	2024-11-24T16:05:42	18.3	48.5
94730	2024-11-24T16:15:42	18.2	49
94731	2024-11-24T16:25:42	18	49.5
94732	2024-11-24T16:35:42	17.9	51.5
94733	2024-11-24T16:45:42	17.9	49.5
94734	2024-11-24T16:55:42	18.1	48.5
94735	2024-11-24T17:05:42	18.3	48
94736	2024-11-24T17:15:42	18.3	48
94737	2024-11-24T17:25:42	18.5	48
94738	2024-11-24T17:35:42	18.5	48
94739	2024-11-24T17:45:42	18.4	48.5
94740	2024-11-24T17:55:42	18.1	49.5
94741	2024-11-24T18:05:42	18.2	50
94742	2024-11-24T18:15:42	17.9	51
94743	2024-11-24T18:25:42	17.6	53
94744	2024-11-24T18:35:42	17.5	52
94745	2024-11-24T18:45:42	17.5	52.5
94746	2024-11-24T18:55:42	17.4	52
94747	2024-11-24T19:05:42	17.5	52
94748	2024-11-24T19:15:42	17.4	53
94749	2024-11-24T19:25:42	17.2	53
94750	2024-11-24T19:35:42	17.1	52.5
94751	2024-11-24T19:45:42	17.2	51.5
94752	2024-11-24T19:55:42	17.3	51
94753	2024-11-24T20:05:42	17.4	50.5
94754	2024-11-24T20:15:42	17.3	51.5
94755	2024-11-24T20:25:42	17.1	51.5
94756	2024-11-24T20:35:42	17.2	51.5
94757	2024-11-24T20:45:42	17.3	50.5
94758	2024-11-24T20:55:42	17.5	49.5
94759	2024-11-24T21:05:42	17.6	49
94760	2024-11-24T21:15:42	17.8	48.5
94761	2024-11-24T21:25:42	17.3	50
94762	2024-11-24T21:35:42	17	51
94763	2024-11-24T21:45:42	16.9	51.5
94764	2024-11-24T21:55:42	16.5	52.5
94765	2024-11-24T22:05:42	16.2	56
94766	2024-11-24T22:15:42	16	64.5
94767	2024-11-24T22:25:42	15.6	66.5
94768	2024-11-24T22:35:42	15.4	66.5
94769	2024-11-24T22:45:42	15	65.5
94770	2024-11-24T22:55:42	14.8	62.5
94771	2024-11-24T23:05:42	14.6	67
94772	2024-11-24T23:15:42	14.2	70
94773	2024-11-24T23:25:42	14.2	69.5
94774	2024-11-24T23:35:42	13.8	67.5
94775	2024-11-24T23:45:41	13.7	71
94776	2024-11-24T23:55:41	13.7	72
94777	2024-11-25T00:34:00	13.5	70
94778	2024-11-25T00:34:00	13.3	71
94779	2024-11-25T00:34:10	13.1	72.5
94780	2024-11-25T00:35:41	13	68
94781	2024-11-25T00:45:41	13	73.5
94782	2024-11-25T00:55:41	12.7	72
94783	2024-11-25T01:05:41	12.6	74.5
94784	2024-11-25T01:15:41	12.3	73.5
94785	2024-11-25T01:25:41	12.2	75.5
94786	2024-11-25T01:35:41	12.1	74
94787	2024-11-25T01:45:41	11.8	73
94788	2024-11-25T01:55:41	11.9	75
94789	2024-11-25T02:05:41	12	77
94790	2024-11-25T02:15:41	11.9	75.5
94791	2024-11-25T02:25:41	11.8	74.5
94792	2024-11-25T02:35:41	11.8	77
94793	2024-11-25T02:45:41	11.8	76
94794	2024-11-25T02:55:41	11.8	76.5
94795	2024-11-25T03:05:41	11.7	78
94796	2024-11-25T03:15:41	11.7	78.5
94797	2024-11-25T03:25:41	11.7	77
94798	2024-11-25T03:35:41	11.6	77
94799	2024-11-25T03:45:41	11.6	79
94800	2024-11-25T04:05:41	11.6	77.5
94801	2024-11-25T04:15:41	11.7	78
94802	2024-11-25T04:25:41	11.5	77
94803	2024-11-25T04:45:41	11.9	73
94804	2024-11-25T04:55:41	12.8	62
94805	2024-11-25T05:05:41	13.9	59
94806	2024-11-25T05:15:41	14.5	55.5
94807	2024-11-25T05:35:41	15.6	52.5
94808	2024-11-25T05:45:41	16.2	50.5
94809	2024-11-25T05:55:41	16.5	50
94810	2024-11-25T06:05:41	16.5	49
94811	2024-11-25T06:15:41	16.5	49.5
94812	2024-11-25T06:25:41	16.6	50
94813	2024-11-25T06:35:41	16.4	50
94814	2024-11-25T06:45:41	16.4	49.5
94815	2024-11-25T06:55:41	16.9	49
94816	2024-11-25T07:05:41	17.1	49
94817	2024-11-25T07:15:41	17.5	47.5
94818	2024-11-25T07:25:41	17.5	47.5
94819	2024-11-25T07:35:41	17.6	49.5
94820	2024-11-25T07:45:41	17.7	47
94821	2024-11-25T07:55:41	18.2	46
94822	2024-11-25T08:05:41	18.3	46.5
94823	2024-11-25T08:15:41	18.5	45.5
94824	2024-11-25T08:25:41	19	44
94825	2024-11-25T08:35:41	19.3	44
94826	2024-11-25T08:45:41	19.4	44
94827	2024-11-25T08:55:41	19.4	44
94828	2024-11-25T09:05:41	19.1	44.5
94829	2024-11-25T09:15:41	19.3	44
94830	2024-11-25T09:25:41	19.6	42.5
94831	2024-11-25T09:35:41	19.8	42.5
94832	2024-11-25T09:45:41	19.8	45
94833	2024-11-25T09:55:41	19.3	47
94834	2024-11-25T10:05:41	19.1	52.5
94835	2024-11-25T10:15:41	19.2	52.5
94836	2024-11-25T10:25:41	19.1	55
94837	2024-11-25T10:35:41	18.8	53
94838	2024-11-25T10:45:41	18.7	57
94839	2024-11-25T10:55:41	18.5	57.5
94840	2024-11-25T11:05:41	18.5	60.5
94841	2024-11-25T11:15:41	18.4	61.5
94842	2024-11-25T11:25:41	18.5	63
94843	2024-11-25T11:35:41	18.7	63.5
94844	2024-11-25T11:45:41	18.6	62
94845	2024-11-25T11:55:41	18.5	65.5
94846	2024-11-25T12:05:41	18.4	64
94847	2024-11-25T12:15:41	18.3	66
94848	2024-11-25T12:25:40	18.1	63
94849	2024-11-25T12:35:41	18	63.5
94850	2024-11-25T12:45:40	18	62
94851	2024-11-25T12:55:40	17.8	66.5
94852	2024-11-25T13:05:40	17.9	65
94853	2024-11-25T13:15:40	17.9	62
94854	2024-11-25T13:25:40	17.8	68
94855	2024-11-25T13:35:40	17.8	64
94856	2024-11-25T13:45:40	17.8	67.5
94857	2024-11-25T13:55:40	17.7	70.5
94858	2024-11-25T14:05:40	17.7	69.5
94859	2024-11-25T14:15:40	17.5	68
94860	2024-11-25T14:25:40	17.4	73.5
94861	2024-11-25T14:35:40	17.3	75
94862	2024-11-25T14:45:40	17.2	75
94863	2024-11-25T14:55:40	17	73
94864	2024-11-25T15:05:40	17	73.5
94865	2024-11-25T15:15:40	16.8	75
94866	2024-11-25T15:25:40	16.8	74
94867	2024-11-25T15:35:40	16.6	68.5
94868	2024-11-25T15:45:40	16.5	72.5
94869	2024-11-25T15:55:40	16.4	71.5
94870	2024-11-25T16:05:40	16	68.5
94871	2024-11-25T16:15:40	16	74
94872	2024-11-25T16:25:40	15.9	70
94873	2024-11-25T16:35:40	15.9	68
94874	2024-11-25T16:45:40	15.6	70.5
94875	2024-11-25T16:55:40	15.7	67.5
94876	2024-11-25T17:05:40	15.6	67.5
94877	2024-11-25T17:15:40	15.6	66
94878	2024-11-25T17:25:40	15.6	67
94879	2024-11-25T17:35:40	15.6	66.5
94880	2024-11-25T17:45:40	15.5	67.5
94881	2024-11-25T17:55:40	15.3	68
94882	2024-11-25T18:05:40	15.3	68.5
94883	2024-11-25T18:15:40	14.6	76
94884	2024-11-25T18:25:40	13.9	87.5
94885	2024-11-25T18:35:40	13	98.5
94886	2024-11-25T18:45:40	12.8	100
94887	2024-11-25T18:55:40	12.8	100
94888	2024-11-25T19:05:40	13.1	100
94889	2024-11-25T19:15:40	13	100
94890	2024-11-25T19:25:40	12.8	100
94891	2024-11-25T19:35:40	12.6	100
94892	2024-11-25T19:45:40	12.6	100
94893	2024-11-25T19:55:40	12.4	100
94894	2024-11-25T20:05:40	12.3	100
94895	2024-11-25T20:15:40	12.4	100
94896	2024-11-25T20:25:40	12.5	100
94897	2024-11-25T20:35:40	12.5	100
94898	2024-11-25T20:45:40	12.4	100
94899	2024-11-25T20:55:40	12.4	100
94900	2024-11-25T21:05:40	12.4	100
94901	2024-11-25T21:15:40	12.4	100
94902	2024-11-25T21:25:40	12.4	100
94903	2024-11-25T21:35:40	12.1	100
94904	2024-11-25T21:45:40	12.1	100
94905	2024-11-25T21:55:40	12.2	100
94906	2024-11-25T22:05:40	12.2	100
94907	2024-11-25T22:15:40	12.1	100
94908	2024-11-25T22:25:40	12	100
94909	2024-11-25T22:35:40	11.8	100
94910	2024-11-25T22:45:40	11.7	100
94911	2024-11-25T22:55:40	11.5	100
94912	2024-11-25T23:05:40	11.6	100
94913	2024-11-25T23:15:40	11.5	100
94914	2024-11-25T23:25:40	11.5	100
94915	2024-11-25T23:35:40	11.5	100
94916	2024-11-25T23:45:40	11.3	100
94917	2024-11-25T23:55:40	11.4	100
94918	2024-11-26T00:34:22	11.4	100
94919	2024-11-26T00:34:23	11.3	100
94920	2024-11-26T00:34:23	11.4	100
94921	2024-11-26T00:35:40	11.2	100
94922	2024-11-26T00:45:40	11.1	96
94923	2024-11-26T00:55:40	11	96
94924	2024-11-26T01:05:40	11	96
94925	2024-11-26T01:15:40	10.9	96
94926	2024-11-26T01:25:40	10.8	96
94927	2024-11-26T01:35:40	10.6	96
94928	2024-11-26T01:45:40	10.5	96
94929	2024-11-26T01:55:40	10.5	96
94930	2024-11-26T02:05:39	10.4	96
94931	2024-11-26T02:15:39	10.4	96
94932	2024-11-26T02:25:39	10.4	96
94933	2024-11-26T02:35:39	10.3	96
94934	2024-11-26T02:45:39	10.3	96
94935	2024-11-26T02:55:39	10.2	96
94936	2024-11-26T03:05:39	10.1	96
94937	2024-11-26T03:15:39	10.2	96
94938	2024-11-26T03:25:39	9.9	96
94939	2024-11-26T03:35:39	9.9	96
94940	2024-11-26T03:45:39	9.9	96
94941	2024-11-26T03:55:39	9.7	96
94942	2024-11-26T04:05:39	9.7	96
94943	2024-11-26T04:15:39	9.7	96
94944	2024-11-26T04:25:39	9.7	95.5
94945	2024-11-26T04:35:39	9.7	95.5
94946	2024-11-26T04:45:39	9.6	96
94947	2024-11-26T04:55:39	9.7	96
94948	2024-11-26T05:05:39	9.8	96
94949	2024-11-26T05:15:39	9.8	95.5
94950	2024-11-26T05:25:39	9.9	95.5
94951	2024-11-26T05:35:39	9.8	96
94952	2024-11-26T05:45:39	9.8	95.5
94953	2024-11-26T05:55:39	9.7	96
94954	2024-11-26T06:05:39	9.7	95.5
94955	2024-11-26T06:15:39	9.8	96
94956	2024-11-26T06:25:39	9.7	96
94957	2024-11-26T06:35:39	9.8	96
94958	2024-11-26T06:45:39	9.8	95.5
94959	2024-11-26T06:55:39	9.9	95.5
94960	2024-11-26T07:05:39	9.8	96
94961	2024-11-26T07:15:39	9.8	95.5
94962	2024-11-26T07:25:39	9.8	95.5
94963	2024-11-26T07:35:39	9.9	95.5
94964	2024-11-26T07:45:39	9.9	96
94965	2024-11-26T07:55:39	9.9	96
94966	2024-11-26T08:05:39	9.9	96
94967	2024-11-26T08:15:39	10.1	96
94968	2024-11-26T08:25:39	10.1	95.5
94969	2024-11-26T08:35:39	10.2	95.5
94970	2024-11-26T08:45:39	10.2	96
94971	2024-11-26T08:55:39	10.5	95.5
94972	2024-11-26T09:05:39	10.5	95.5
94973	2024-11-26T09:15:39	10.5	95.5
94974	2024-11-26T09:25:39	10.4	95.5
94975	2024-11-26T09:35:39	10.5	95.5
94976	2024-11-26T09:45:39	10.6	95.5
94977	2024-11-26T09:55:39	10.4	95.5
94978	2024-11-26T10:05:39	10.4	95.5
94979	2024-11-26T10:15:39	10.6	95.5
94980	2024-11-26T10:25:39	10.7	95.5
94981	2024-11-26T10:35:39	10.8	95.5
94982	2024-11-26T10:45:39	10.9	96
94983	2024-11-26T10:55:39	10.9	96
94984	2024-11-26T11:05:39	10.4	96
94985	2024-11-26T11:15:39	10.2	95.5
94986	2024-11-26T11:25:39	10.3	95.5
94987	2024-11-26T11:35:39	10.4	95.5
94988	2024-11-26T11:45:39	10.5	95.5
94989	2024-11-26T11:55:39	10.5	95.5
94990	2024-11-26T12:05:39	10.5	96
94991	2024-11-26T12:15:39	10.6	95.5
94992	2024-11-26T12:25:39	10.7	95.5
94993	2024-11-26T12:35:39	10.9	96
94994	2024-11-26T12:45:39	10.9	95.5
94995	2024-11-26T12:55:39	10.9	95.5
94996	2024-11-26T13:05:39	11	95.5
94997	2024-11-26T13:15:39	11	95.5
94998	2024-11-26T13:25:39	10.9	95.5
94999	2024-11-26T13:35:39	11	96
95000	2024-11-26T13:45:39	11	95.5
95001	2024-11-26T13:55:39	11.1	95.5
95002	2024-11-26T14:05:39	11	96
95003	2024-11-26T14:15:39	11	95.5
95004	2024-11-26T14:25:39	11	95.5
95005	2024-11-26T14:35:39	11.2	95.5
95006	2024-11-26T14:45:39	11.1	95.5
95007	2024-11-26T14:55:39	11.1	95.5
95008	2024-11-26T15:05:39	11	96
95009	2024-11-26T15:15:39	11	95.5
95010	2024-11-26T15:25:39	10.8	95.5
95011	2024-11-26T15:35:39	10.7	95.5
95012	2024-11-26T15:45:39	10.6	95.5
95013	2024-11-26T15:55:39	10.6	95.5
95014	2024-11-26T16:05:39	10.4	95.5
95015	2024-11-26T16:15:39	10.6	95.5
95016	2024-11-26T16:25:39	10.6	95.5
95017	2024-11-26T16:35:39	10.7	96
95018	2024-11-26T16:45:39	10.7	95.5
95019	2024-11-26T16:55:39	10.5	95.5
95020	2024-11-26T17:05:39	10.3	95.5
95021	2024-11-26T17:25:39	9.9	95.5
95022	2024-11-26T17:35:39	9.9	95.5
95023	2024-11-26T17:45:39	9.8	95.5
95024	2024-11-26T17:55:39	9.6	96
95025	2024-11-26T18:05:39	9.5	95.5
95026	2024-11-26T18:15:39	9.4	95.5
95027	2024-11-26T18:25:38	9.3	95.5
95028	2024-11-26T18:35:38	9.4	96
95029	2024-11-26T18:45:38	9.3	96
95030	2024-11-26T18:55:38	9.3	96
95031	2024-11-26T19:05:39	9.2	95.5
95032	2024-11-26T19:15:38	9.2	96
95033	2024-11-26T19:25:38	9.1	96
95034	2024-11-26T19:35:38	9.1	95.5
95035	2024-11-26T19:45:38	9.2	95.5
95036	2024-11-26T19:55:38	9.3	96
95037	2024-11-26T20:05:38	9.3	96
95038	2024-11-26T20:15:38	9.3	96
95039	2024-11-26T20:25:38	9.3	95.5
95040	2024-11-26T20:35:38	9.2	96
95041	2024-11-26T20:45:38	9.3	95.5
95042	2024-11-26T20:55:38	9.3	95.5
95043	2024-11-26T21:05:38	9.2	96
95044	2024-11-26T21:15:38	9	96
95045	2024-11-26T21:25:38	8.9	96
95046	2024-11-26T21:35:38	8.8	96
95047	2024-11-26T21:45:38	8.7	96
95048	2024-11-26T21:55:38	8.5	96
95049	2024-11-26T22:05:38	8.5	96
95050	2024-11-26T22:15:38	8.3	96
95051	2024-11-26T22:25:38	8.3	96
95052	2024-11-26T22:35:38	8.2	96
95053	2024-11-26T22:45:38	8.1	96
95054	2024-11-26T22:55:38	8	96
95055	2024-11-26T23:05:38	7.9	96
95056	2024-11-26T23:15:38	7.9	96
95057	2024-11-26T23:25:38	7.7	96
95058	2024-11-26T23:35:38	7.7	96
95059	2024-11-26T23:45:38	7.6	96
95060	2024-11-26T23:55:38	7.6	96
95061	2024-11-27T00:05:38	7.5	96
95062	2024-11-27T00:15:38	7.4	96
95063	2024-11-27T00:25:38	7.3	96
95064	2024-11-27T00:35:38	7.4	96
95065	2024-11-27T00:45:38	7.2	96
95066	2024-11-27T00:55:38	7.2	96
95067	2024-11-27T01:05:38	7.1	96
95068	2024-11-27T01:15:38	7	96
95069	2024-11-27T01:25:38	6.9	96
95070	2024-11-27T01:35:38	6.7	96
95071	2024-11-27T01:45:38	6.7	96
95072	2024-11-27T01:55:38	6.9	96
95073	2024-11-27T02:05:38	6.7	96
95074	2024-11-27T02:15:38	6.8	96
95075	2024-11-27T02:25:38	6.8	96
95076	2024-11-27T02:35:38	6.9	96
95077	2024-11-27T02:45:38	6.7	96
95078	2024-11-27T02:55:38	6.8	96
95079	2024-11-27T03:05:38	6.9	96
95080	2024-11-27T03:15:38	6.8	96
95081	2024-11-27T03:25:38	6.7	96
95082	2024-11-27T03:35:38	6.7	96
95083	2024-11-27T03:45:38	6.8	96
95084	2024-11-27T03:55:38	6.8	96
95085	2024-11-27T04:05:38	6.6	96
95086	2024-11-27T04:15:38	6.6	96
95087	2024-11-27T04:25:38	6.5	96
95088	2024-11-27T04:35:38	6.4	96
95089	2024-11-27T04:45:38	6.4	96
95090	2024-11-27T04:55:38	6.2	96
95091	2024-11-27T05:05:38	6.3	96
95092	2024-11-27T05:15:38	6.2	96
95093	2024-11-27T05:25:38	6.2	96
95094	2024-11-27T05:35:38	6.2	96
95095	2024-11-27T05:45:38	6.1	96
95096	2024-11-27T05:55:38	6.1	96
95097	2024-11-27T06:05:38	6.1	96
95098	2024-11-27T06:15:38	6.2	96
95099	2024-11-27T06:25:38	6	96
95100	2024-11-27T06:35:38	6.1	96
95101	2024-11-27T06:45:38	6.1	96
95102	2024-11-27T06:55:38	6	96
95103	2024-11-27T07:05:38	6	96
95104	2024-11-27T07:15:38	6.1	96
95105	2024-11-27T07:25:38	6.1	96
95106	2024-11-27T07:35:38	6	96.5
95107	2024-11-27T07:45:38	6.2	96.5
95108	2024-11-27T07:55:38	6.2	96.5
95109	2024-11-27T08:05:38	6.2	96.5
95110	2024-11-27T08:15:38	6.3	96.5
95111	2024-11-27T08:25:38	6.5	96.5
95112	2024-11-27T08:35:38	6.7	96.5
95113	2024-11-27T08:45:38	6.9	96.5
95114	2024-11-27T08:55:38	7.1	96.5
95115	2024-11-27T09:05:38	7.2	96.5
95116	2024-11-27T09:15:38	7.5	96.5
95117	2024-11-27T09:25:38	7.7	96.5
95118	2024-11-27T09:35:38	7.8	96.5
95119	2024-11-27T09:45:38	8.1	96.5
95120	2024-11-27T09:55:38	8.4	96.5
95121	2024-11-27T10:05:38	8.6	96.5
95122	2024-11-27T10:15:38	8.7	96.5
95123	2024-11-27T10:25:38	8.9	96.5
95124	2024-11-27T10:35:38	9.2	96.5
95125	2024-11-27T10:45:38	9.4	96.5
95126	2024-11-27T10:55:38	9.4	96.5
95127	2024-11-27T11:05:38	9.7	96.5
95128	2024-11-27T11:15:38	9.7	96.5
95129	2024-11-27T11:25:38	9.9	99.5
95130	2024-11-27T11:35:38	10.5	99.5
95131	2024-11-27T11:45:38	10.6	99.5
95132	2024-11-27T11:55:38	11.1	99.5
95133	2024-11-27T12:05:38	12	99.5
95134	2024-11-27T12:15:38	13.8	99.5
95135	2024-11-27T12:25:38	15	99.5
95136	2024-11-27T12:35:38	15.8	100
95137	2024-11-27T12:45:38	16.6	100
95138	2024-11-27T12:55:38	17.3	100
95139	2024-11-27T13:05:38	18.2	100
95140	2024-11-27T13:15:38	16.8	100
95141	2024-11-27T13:25:38	16.2	100
95142	2024-11-27T13:35:38	16.4	100
95143	2024-11-27T13:45:38	16.5	100
95144	2024-11-27T13:55:38	15.5	100
95145	2024-11-27T14:05:38	15.1	100
95146	2024-11-27T14:15:38	14.7	100
95147	2024-11-27T14:25:38	14.8	100
95148	2024-11-27T14:35:38	15.5	100
95149	2024-11-27T14:45:37	15	94.5
95150	2024-11-27T14:55:37	14.3	90.5
95151	2024-11-27T15:05:37	14	87.5
95152	2024-11-27T15:15:37	13.9	84
95153	2024-11-27T15:25:37	13.7	83
95154	2024-11-27T15:35:37	13.7	84.5
95155	2024-11-27T15:45:37	13.5	83
95156	2024-11-27T15:55:37	13.4	83
95157	2024-11-27T16:05:37	13.3	84
95158	2024-11-27T16:15:37	13.2	84
95159	2024-11-27T16:25:37	13.2	89.5
95160	2024-11-27T16:35:37	13.1	86
95161	2024-11-27T16:45:37	13.1	87.5
95162	2024-11-27T16:55:37	13	86
95163	2024-11-27T17:05:37	12.9	82.5
95164	2024-11-27T17:15:37	12.8	84.5
95165	2024-11-27T17:25:37	12.8	82
95166	2024-11-27T17:35:37	12.7	82
95167	2024-11-27T17:45:37	12	84.5
95168	2024-11-27T17:55:37	11.8	84
95169	2024-11-27T18:05:37	10.6	98.5
95170	2024-11-27T18:15:37	10.3	99
95171	2024-11-27T18:25:37	10.5	92.5
95172	2024-11-27T18:35:37	10.7	90.5
95173	2024-11-27T18:45:37	11	88.5
95174	2024-11-27T18:55:37	11.3	85.5
95175	2024-11-27T19:05:37	11.5	85.5
95176	2024-11-27T19:15:37	11.8	82
95177	2024-11-27T19:25:37	12.1	81
95178	2024-11-27T19:35:37	12.3	79
95179	2024-11-27T19:45:37	12.5	80
95180	2024-11-27T19:55:37	12.7	80
95181	2024-11-27T20:05:37	12.9	78.5
95182	2024-11-27T20:15:37	12.9	79.5
95183	2024-11-27T20:25:37	12.4	85
95184	2024-11-27T20:35:37	12.2	85.5
95185	2024-11-27T20:45:37	12.4	85
95186	2024-11-27T20:55:37	12.3	84
95187	2024-11-27T21:05:37	12.6	83
95188	2024-11-27T21:15:37	12.6	81.5
95189	2024-11-27T21:25:37	12.7	79.5
95190	2024-11-27T21:35:37	12.8	77.5
95191	2024-11-27T21:45:37	12.2	84
95192	2024-11-27T21:55:37	10.8	97.5
95193	2024-11-27T22:05:37	11	95
95194	2024-11-27T22:15:37	11.3	93
95195	2024-11-27T22:25:37	10.7	100
95196	2024-11-27T22:35:37	10.5	100
95197	2024-11-27T22:45:37	10.5	100
95198	2024-11-27T22:55:37	10.4	100
95199	2024-11-27T23:05:37	10.5	100
95200	2024-11-27T23:15:37	10.5	100
95201	2024-11-27T23:25:37	10.5	100
95202	2024-11-27T23:35:37	10.4	100
95203	2024-11-27T23:45:37	10.5	100
95204	2024-11-27T23:55:37	10.8	100
95205	2024-11-28T00:05:37	10.6	100
95206	2024-11-28T00:15:37	10.6	100
95207	2024-11-28T00:25:37	10.6	100
95208	2024-11-28T00:35:37	10.6	100
95209	2024-11-28T00:45:37	10.6	100
95210	2024-11-28T00:55:37	10.5	100
95211	2024-11-28T01:05:37	10.5	100
95212	2024-11-28T01:15:37	10.5	100
95213	2024-11-28T01:25:37	10.5	100
95214	2024-11-28T01:35:37	10.3	100
95215	2024-11-28T01:45:37	10.2	100
95216	2024-11-28T01:55:37	10.4	100
95217	2024-11-28T02:05:37	10.3	100
95218	2024-11-28T02:15:37	10.2	100
95219	2024-11-28T02:25:37	9.9	100
95220	2024-11-28T02:35:37	9.9	100
95221	2024-11-28T02:45:37	9.6	100
95222	2024-11-28T02:55:37	9.4	100
95223	2024-11-28T03:05:37	9.6	100
95224	2024-11-28T03:15:37	9.3	100
95225	2024-11-28T03:25:37	9	100
95226	2024-11-28T03:35:37	8.6	100
95227	2024-11-28T03:45:37	8.5	100
95228	2024-11-28T03:55:37	8.4	100
95229	2024-11-28T04:05:37	8.2	100
95230	2024-11-28T04:15:37	8.3	100
95231	2024-11-28T04:25:37	8	100
95232	2024-11-28T04:35:37	7.8	100
95233	2024-11-28T04:45:37	7.8	100
95234	2024-11-28T04:55:37	7.7	100
95235	2024-11-28T05:05:37	7.8	100
95236	2024-11-28T05:15:37	7.8	100
95237	2024-11-28T05:25:37	7.8	100
95238	2024-11-28T05:35:37	7.8	100
95239	2024-11-28T05:45:37	7.8	100
95240	2024-11-28T05:55:37	7.7	100
95241	2024-11-28T06:05:37	7.7	100
95242	2024-11-28T06:15:37	7.6	100
95243	2024-11-28T06:25:37	7.7	100
95244	2024-11-28T06:35:37	7.6	100
95245	2024-11-28T06:45:37	7.6	100
95246	2024-11-28T06:55:37	7.5	100
95247	2024-11-28T07:05:37	7.6	100
95248	2024-11-28T07:15:37	7.5	100
95249	2024-11-28T07:25:37	7.6	100
95250	2024-11-28T07:35:37	7.7	100
95251	2024-11-28T07:45:37	7.5	100
95252	2024-11-28T07:55:37	7.4	100
95253	2024-11-28T08:05:37	7.3	100
95254	2024-11-28T08:15:37	7	100
95255	2024-11-28T08:25:36	7.2	100
95256	2024-11-28T08:35:36	7.4	100
95257	2024-11-28T08:45:36	7.4	100
95258	2024-11-28T08:55:36	7.5	100
95259	2024-11-28T09:05:36	7.6	100
95260	2024-11-28T09:15:37	7.5	100
95261	2024-11-28T09:25:36	7.7	100
95262	2024-11-28T09:35:36	7.8	100
95263	2024-11-28T09:45:36	7.8	100
95264	2024-11-28T09:55:36	7.8	100
95265	2024-11-28T10:05:36	7.9	100
95266	2024-11-28T10:15:36	7.8	100
95267	2024-11-28T10:25:36	8	100
95268	2024-11-28T10:35:36	8.2	100
95269	2024-11-28T10:45:36	8.3	100
95270	2024-11-28T10:55:36	8.4	100
95271	2024-11-28T11:05:36	8.5	100
95272	2024-11-28T11:15:36	8.5	100
95273	2024-11-28T11:25:36	8.4	100
95274	2024-11-28T11:35:36	8.4	100
95275	2024-11-28T11:45:36	8.5	100
95276	2024-11-28T11:55:36	8.9	100
95277	2024-11-28T12:05:36	10.3	87
95278	2024-11-28T12:15:36	11.5	75
95279	2024-11-28T12:25:36	12.4	70.5
95280	2024-11-28T12:35:36	12.6	67
95281	2024-11-28T12:45:36	11.6	71.5
95282	2024-11-28T12:55:36	10.8	70
95283	2024-11-28T13:05:36	10.5	70.5
95284	2024-11-28T13:15:36	11.1	69.5
95285	2024-11-28T13:25:36	10.7	71.5
95286	2024-11-28T13:35:36	10.9	70
95287	2024-11-28T13:45:36	11.3	68
95288	2024-11-28T13:55:36	11.7	66
95289	2024-11-28T14:05:36	12.4	64.5
95290	2024-11-28T14:15:36	12.5	64
95291	2024-11-28T14:25:36	12.6	64.5
95292	2024-11-28T14:35:36	11.7	66.5
95293	2024-11-28T14:45:36	11.4	68
95294	2024-11-28T14:55:36	10.8	70
95295	2024-11-28T15:05:36	10.6	69.5
95296	2024-11-28T15:15:36	10.3	72
95297	2024-11-28T15:25:36	9.9	73
95298	2024-11-28T15:35:36	9.7	74
95299	2024-11-28T15:45:36	9.6	74.5
95300	2024-11-28T15:55:36	9.5	76
95301	2024-11-28T16:05:36	9.4	75.5
95302	2024-11-28T16:15:36	9.3	75
95303	2024-11-28T16:25:36	9.2	75.5
95304	2024-11-28T16:35:36	9.2	75.5
95305	2024-11-28T16:45:36	9	76
95306	2024-11-28T16:55:36	8.9	75.5
95307	2024-11-28T17:05:36	8.7	77
95308	2024-11-28T17:15:36	8.6	78
95309	2024-11-28T17:25:36	8.4	77.5
95310	2024-11-28T17:35:36	8.2	77.5
95311	2024-11-28T17:45:36	8.1	80.5
95312	2024-11-28T17:55:36	7.8	79
95313	2024-11-28T18:05:36	7.7	79
95314	2024-11-28T18:15:36	7.7	82.5
95315	2024-11-28T18:25:36	7.7	82.5
95316	2024-11-28T18:35:36	7.5	80.5
95317	2024-11-28T18:45:36	7.2	82.5
95318	2024-11-28T18:55:36	7.1	82
95319	2024-11-28T19:05:36	6.8	83
95320	2024-11-28T19:15:36	7	83.5
95321	2024-11-28T19:35:36	6.7	87
95322	2024-11-28T19:45:36	6.6	91
95323	2024-11-28T19:55:36	6.4	91
95324	2024-11-28T20:05:36	6.4	89.5
95325	2024-11-28T20:15:36	6.2	91
95326	2024-11-28T20:25:36	6.1	93.5
95327	2024-11-28T20:35:36	6.1	94.5
95328	2024-11-28T20:45:36	6.1	94.5
95329	2024-11-28T20:55:36	6.1	94.5
95330	2024-11-28T21:05:36	6.1	92
95331	2024-11-28T21:15:36	6	88.5
95332	2024-11-28T21:25:36	5.9	91
95333	2024-11-28T21:35:36	5.6	90.5
95334	2024-11-28T21:45:36	5.6	93
95335	2024-11-28T21:55:36	5.6	92.5
95336	2024-11-28T22:05:36	5.4	95
95337	2024-11-28T22:15:36	5.2	96
95338	2024-11-28T22:25:36	5.1	96
95339	2024-11-28T22:35:36	5.1	96.5
95340	2024-11-28T22:45:36	4.9	97
95341	2024-11-28T22:55:36	4.8	97
95342	2024-11-28T23:05:36	4.8	96.5
95343	2024-11-28T23:15:36	4.6	97
95344	2024-11-28T23:25:36	4.6	97
95345	2024-11-28T23:35:36	4.4	97
95346	2024-11-28T23:45:36	4.4	97
95347	2024-11-28T23:55:36	4.3	96
95348	2024-11-29T00:05:36	4.2	97
95349	2024-11-29T00:15:36	4.1	97
95350	2024-11-29T00:25:36	4.1	95.5
95351	2024-11-29T00:35:36	4	96
95352	2024-11-29T00:45:36	3.9	96.5
95353	2024-11-29T00:55:36	3.9	96.5
95354	2024-11-29T01:15:36	3.7	97
95355	2024-11-29T01:25:36	3.7	97
95356	2024-11-29T01:35:36	3.4	96.5
95357	2024-11-29T01:45:36	3.4	97
95358	2024-11-29T01:55:36	3.3	96.5
95359	2024-11-29T02:05:36	3.3	97
95360	2024-11-29T02:15:36	3.1	95.5
95361	2024-11-29T02:25:36	3	96.5
95362	2024-11-29T02:35:36	3	97
95363	2024-11-29T02:45:36	2.9	95.5
95364	2024-11-29T02:55:36	2.8	93
95365	2024-11-29T03:05:36	2.8	95.5
95366	2024-11-29T03:15:36	2.8	96
95367	2024-11-29T03:25:36	2.7	96.5
95368	2024-11-29T03:35:36	2.6	97
95369	2024-11-29T03:45:36	2.6	97
95370	2024-11-29T03:55:36	2.3	96
95371	2024-11-29T04:05:36	2.3	96.5
95372	2024-11-29T04:15:36	2.2	95.5
95373	2024-11-29T04:25:36	2.2	96
95374	2024-11-29T04:35:36	2.2	97
95375	2024-11-29T04:45:36	2.3	96
95376	2024-11-29T04:55:36	2.3	96.5
95377	2024-11-29T05:05:36	2.3	97.5
95378	2024-11-29T05:15:36	2.2	97
95379	2024-11-29T05:25:36	2.1	97
95380	2024-11-29T05:35:36	2	97
95381	2024-11-29T05:45:36	2	96
95382	2024-11-29T05:55:36	2	94.5
95383	2024-11-29T06:05:36	2	95.5
95384	2024-11-29T06:15:36	1.9	96
95385	2024-11-29T06:25:36	1.9	96
95386	2024-11-29T06:35:36	2	96
95387	2024-11-29T06:45:36	1.9	95
95388	2024-11-29T06:55:36	1.7	94.5
95389	2024-11-29T07:05:36	1.8	95.5
95390	2024-11-29T07:15:36	1.8	95
95391	2024-11-29T07:25:36	1.8	95.5
95392	2024-11-29T07:35:36	1.9	95.5
95393	2024-11-29T07:45:36	1.9	95.5
95394	2024-11-29T07:55:36	2.1	95.5
95395	2024-11-29T08:05:36	2	96
95396	2024-11-29T08:15:36	2	96
95397	2024-11-29T08:25:36	2.1	96
95398	2024-11-29T08:35:36	2.2	96
95399	2024-11-29T08:45:36	2.4	96.5
95400	2024-11-29T08:55:36	2.4	97
95401	2024-11-29T09:05:36	2.6	97
95402	2024-11-29T09:15:36	2.7	97.5
95403	2024-12-01T07:05:35	1.4	93
95404	2024-12-01T07:15:35	1.3	92
95405	2024-12-01T07:25:35	1.5	92
95406	2024-12-01T07:35:35	1.4	92
95407	2024-12-01T07:45:35	1.4	92
95408	2024-12-01T07:55:35	1.5	91.5
95409	2024-12-01T08:05:35	1.6	92
95410	2024-12-01T08:15:35	1.8	92
95411	2024-12-01T08:25:35	1.8	89
95412	2024-12-01T08:35:35	1.8	89
95413	2024-12-01T08:45:35	2	91
95414	2024-12-01T08:55:35	2.1	91.5
95415	2024-12-01T09:05:35	2.3	91.5
95416	2024-12-01T09:15:35	2.5	91
95417	2024-12-01T09:25:35	2.6	88.5
95418	2024-12-01T09:35:35	2.7	88.5
95419	2024-12-01T09:45:35	2.9	90
95420	2024-12-01T09:55:35	3	90
95421	2024-12-01T10:05:35	3.1	89.5
95422	2024-12-01T10:15:35	3.1	88
95423	2024-12-01T10:25:35	3.2	86.5
95424	2024-12-01T10:35:35	3.2	86
95425	2024-12-01T10:45:35	3	82
95426	2024-12-01T10:55:35	3.2	83.5
95427	2024-12-01T11:05:35	3.4	83.5
95428	2024-12-01T11:15:35	3.5	86.5
95429	2024-12-01T11:25:35	3.7	86.5
95430	2024-12-01T11:35:35	3.8	85
95431	2024-12-01T11:45:35	3.8	83.5
95432	2024-12-01T11:55:35	4	87
95433	2024-12-01T12:05:35	4	86
95434	2024-12-01T12:15:35	4.2	83
95435	2024-12-01T12:25:35	5.6	84
95436	2024-12-01T12:35:35	6.9	77.5
95437	2024-12-01T12:45:35	7.5	73.5
95438	2024-12-01T12:55:35	7.9	73.5
95439	2024-12-01T13:05:35	8.8	74.5
95440	2024-12-01T13:15:35	9.9	70.5
95441	2024-12-01T13:25:35	10.7	63
95442	2024-12-01T13:35:35	11	68.5
95443	2024-12-01T13:45:35	11.2	66
95444	2024-12-01T13:55:35	11.2	61.5
95445	2024-12-01T14:05:35	11.4	64
95446	2024-12-01T14:15:35	11.4	65
95447	2024-12-01T14:25:35	10.5	69.5
95448	2024-12-01T14:35:34	9.6	72.5
95449	2024-12-01T14:45:35	8.9	75
95450	2024-12-01T14:55:34	8.3	78
95451	2024-12-01T15:05:35	7.6	79.5
95452	2024-12-01T15:15:52	7	75
95453	2024-12-01T15:25:34	6.6	80
95454	2024-12-01T15:35:34	6.4	80
95455	2024-12-01T15:45:34	6	83
95456	2024-12-01T15:55:34	5.8	83.5
95457	2024-12-01T16:05:34	5.5	83
95458	2024-12-01T16:15:35	5.2	85
95459	2024-12-01T16:25:34	5.1	85
95460	2024-12-01T16:35:34	4.9	86
95461	2024-12-01T16:45:34	4.8	86
95462	2024-12-01T16:55:35	4.7	86
95463	2024-12-01T17:05:34	4.7	86
95464	2024-12-01T17:15:34	4.8	86
95465	2024-12-01T17:25:34	4.8	86.5
95466	2024-12-01T17:35:34	4.7	86
95467	2024-12-01T17:45:34	4.6	86
95468	2024-12-01T17:55:34	4.7	86.5
95469	2024-12-01T18:05:35	4.5	87.5
95470	2024-12-01T18:15:34	4.4	86
95471	2024-12-01T18:25:34	4.5	85.5
95472	2024-12-01T18:35:34	4.3	83.5
95473	2024-12-01T18:45:35	4.1	83.5
95474	2024-12-01T18:55:34	4.2	87
95475	2024-12-01T19:05:34	4.1	85
95476	2024-12-01T19:15:34	4.2	86.5
95477	2024-12-01T19:25:34	4.1	85
95478	2024-12-01T19:35:34	4	84.5
95479	2024-12-01T19:45:34	3.9	83.5
95480	2024-12-01T19:55:34	4	87.5
95481	2024-12-01T20:05:35	3.9	87
95482	2024-12-01T20:15:34	4	88
95483	2024-12-01T20:25:34	4	88.5
95484	2024-12-01T20:35:34	3.9	83.5
95485	2024-12-01T20:45:34	3.7	86
95486	2024-12-01T20:55:34	3.8	87.5
95487	2024-12-01T21:05:34	3.8	88
95488	2024-12-01T21:15:34	3.9	88.5
95489	2024-12-01T21:25:34	3.8	89
95490	2024-12-01T21:35:34	3.8	88.5
95491	2024-12-01T21:45:34	3.8	88.5
95492	2024-12-01T21:55:34	3.8	89
95493	2024-12-01T22:05:34	3.8	88.5
95494	2024-12-01T22:15:34	3.6	89
95495	2024-12-01T22:25:34	3.5	90.5
95496	2024-12-01T22:35:34	3.6	90
95497	2024-12-01T22:45:34	3.5	90.5
95498	2024-12-01T22:55:34	3.5	90
95499	2024-12-01T23:05:34	3.5	90.5
95500	2024-12-01T23:15:34	3.4	89.5
95501	2024-12-01T23:25:34	3.5	88.5
95502	2024-12-01T23:35:34	3.5	90
95503	2024-12-01T23:45:34	3.5	90.5
95504	2024-12-01T23:55:34	3.6	90.5
95505	2024-12-02T00:05:34	3.6	90
95506	2024-12-02T00:15:34	3.6	89.5
95507	2024-12-02T00:25:34	3.7	90
95508	2024-12-02T00:35:34	3.6	89.5
95509	2024-12-02T00:45:34	3.6	90.5
95510	2024-12-02T00:55:34	3.6	90.5
95511	2024-12-02T01:05:34	3.4	91
95512	2024-12-02T01:15:34	3.5	90.5
95513	2024-12-02T01:25:34	3.3	91.5
95514	2024-12-02T01:35:34	3.4	92
95515	2024-12-02T01:45:34	3.3	91
95516	2024-12-02T01:55:34	3.4	91.5
95517	2024-12-02T02:05:34	3.3	92
95518	2024-12-02T02:15:34	3.3	91
95519	2024-12-02T02:25:34	3.4	91
95520	2024-12-02T02:35:34	3.5	91.5
95521	2024-12-02T02:45:34	3.6	91
95522	2024-12-02T02:55:34	3.7	91.5
95523	2024-12-02T03:05:34	3.8	91.5
95524	2024-12-02T03:15:34	3.6	89
95525	2024-12-02T03:25:34	3.9	91
95526	2024-12-02T03:35:34	4	90.5
95527	2024-12-02T03:45:34	3.9	89.5
95528	2024-12-02T03:55:34	3.9	89
95529	2024-12-02T04:05:34	4	91.5
95530	2024-12-02T04:15:34	4.1	91.5
95531	2024-12-02T04:25:34	4.2	91.5
95532	2024-12-02T04:35:34	4.2	92
95533	2024-12-02T04:45:34	4.2	92
95534	2024-12-02T04:55:34	4.2	90
95535	2024-12-02T05:05:34	4.2	90
95536	2024-12-02T05:15:34	4.4	91.5
95537	2024-12-02T05:25:34	4.2	91.5
95538	2024-12-02T05:35:34	4.3	89.5
95539	2024-12-02T05:45:34	4.2	89.5
95540	2024-12-02T05:55:34	4.3	90
95541	2024-12-02T06:05:34	4.3	90.5
95542	2024-12-02T06:15:34	4.3	89.5
95543	2024-12-02T06:25:34	4.4	90.5
95544	2024-12-02T06:35:34	4.4	91.5
95545	2024-12-02T06:45:34	4.6	92
95546	2024-12-02T06:55:34	4.7	92
95547	2024-12-02T07:05:34	4.6	92
95548	2024-12-02T07:15:34	4.7	92.5
95549	2024-12-02T07:25:34	4.8	92
95550	2024-12-02T07:35:34	4.7	92.5
95551	2024-12-02T07:45:34	4.9	92.5
95552	2024-12-02T07:55:34	4.8	91.5
95553	2024-12-02T08:05:34	5	93
95554	2024-12-02T08:15:34	5	93.5
95555	2024-12-02T08:25:34	5.1	93.5
95556	2024-12-02T08:35:34	5.1	92.5
95557	2024-12-02T08:45:34	5.2	92.5
95558	2024-12-02T08:55:34	5.2	91.5
95559	2024-12-02T09:05:34	5.3	91
95560	2024-12-02T09:15:34	5.4	92
95561	2024-12-02T09:25:34	5.5	92.5
95562	2024-12-02T09:35:34	5.6	93.5
95563	2024-12-02T09:45:34	5.8	93
95564	2024-12-02T09:55:34	5.8	93.5
95565	2024-12-02T10:05:54	5.9	93.5
95566	2024-12-02T10:15:34	6	93.5
95567	2024-12-02T10:25:34	6	94
95568	2024-12-02T10:35:34	6.2	94
95569	2024-12-02T10:45:34	6.3	93.5
95570	2024-12-02T10:55:34	6.5	94
95571	2024-12-02T11:05:34	6.6	94
95572	2024-12-02T11:15:34	6.6	92
95573	2024-12-02T11:25:34	6.7	93
95574	2024-12-02T11:35:34	6.9	93.5
95575	2024-12-02T11:45:34	7.2	93
95576	2024-12-02T11:55:34	7.4	93.5
95577	2024-12-02T12:05:34	7.4	90.5
95578	2024-12-02T12:15:34	8	89.5
95579	2024-12-02T12:25:34	8.1	89
95580	2024-12-02T12:35:34	7.8	91
95581	2024-12-02T12:45:34	8	91.5
95582	2024-12-02T12:55:34	8.2	91.5
95583	2024-12-02T13:05:34	8.2	90.5
95584	2024-12-02T13:15:34	8.9	91
95585	2024-12-02T13:25:34	8.9	90.5
95586	2024-12-02T13:35:34	8.8	89.5
95587	2024-12-02T13:45:34	8.5	89.5
95588	2024-12-02T13:55:34	8.5	91.5
95589	2024-12-02T14:05:34	8.5	92
95590	2024-12-02T14:15:34	8.5	92
95591	2024-12-02T14:25:34	8.5	93
95592	2024-12-02T14:35:34	8.5	93
95593	2024-12-02T14:45:34	8.5	93.5
95594	2024-12-02T14:55:34	8.4	92.5
95595	2024-12-02T15:05:34	8.4	93
95596	2024-12-02T15:15:34	8.5	93.5
95597	2024-12-02T15:25:34	8.5	92
95598	2024-12-02T15:35:34	8.4	93
95599	2024-12-02T15:45:34	8.5	93.5
95600	2024-12-02T15:55:34	8.4	93
95601	2024-12-02T16:05:34	8.5	93
95602	2024-12-02T16:15:34	8.4	93
95603	2024-12-02T16:25:34	8.5	94
95604	2024-12-02T16:35:34	8.4	93
95605	2024-12-02T16:45:34	8.4	93
95606	2024-12-02T16:55:34	8.5	93.5
95607	2024-12-02T17:05:34	8.4	94.5
95608	2024-12-02T17:15:34	8.5	95
95609	2024-12-02T17:25:34	8.6	95.5
95610	2024-12-02T17:35:34	8.4	96.5
95611	2024-12-02T17:45:34	8.5	97
95612	2024-12-02T17:55:34	8.5	99.5
95613	2024-12-02T18:05:34	8.4	100
95614	2024-12-02T18:15:34	8.3	100
95615	2024-12-02T18:25:34	8.2	100
95616	2024-12-02T18:35:34	8.3	100
95617	2024-12-02T18:45:34	8.2	100
95618	2024-12-02T18:55:34	8.4	100
95619	2024-12-02T19:05:34	8.7	100
95620	2024-12-02T19:15:34	8.8	100
95621	2024-12-02T19:25:33	9	100
95622	2024-12-02T19:35:34	9	100
95623	2024-12-02T19:45:34	9.1	100
95624	2024-12-02T19:55:33	9.1	100
95625	2024-12-02T20:05:34	9.2	100
95626	2024-12-02T20:15:33	9.2	100
95627	2024-12-02T20:25:33	9.3	100
95628	2024-12-02T20:35:33	9.3	100
95629	2024-12-02T20:45:33	9.4	100
95630	2024-12-02T20:55:34	9.4	100
95631	2024-12-02T21:05:33	9.3	100
95632	2024-12-02T21:15:33	9.4	100
95633	2024-12-02T21:25:33	9.4	100
95634	2024-12-02T21:35:33	9.4	100
95635	2024-12-02T21:45:33	9.3	100
95636	2024-12-02T21:55:33	9.3	100
95637	2024-12-02T22:05:33	9.3	100
95638	2024-12-02T22:15:33	9.3	99
95639	2024-12-02T22:25:33	9.3	98
95640	2024-12-02T22:35:33	9.2	97.5
95641	2024-12-02T22:45:33	9	96.5
95642	2024-12-02T22:55:33	9.1	95.5
95643	2024-12-02T23:05:33	9	95
95644	2024-12-02T23:15:33	8.9	94.5
95645	2024-12-02T23:25:33	8.6	94.5
95646	2024-12-02T23:35:33	8.6	96.5
95647	2024-12-02T23:45:33	8.6	96.5
95648	2024-12-02T23:55:33	8.6	96.5
95649	2024-12-03T00:05:33	8.6	96.5
95650	2024-12-03T00:15:33	8.6	97
95651	2024-12-03T00:25:33	8.6	97
95652	2024-12-03T00:35:33	8.5	96.5
95653	2024-12-03T00:45:33	8.5	96
95654	2024-12-03T00:55:33	8.5	96
95655	2024-12-03T01:05:33	8.5	95.5
95656	2024-12-03T01:15:33	8.5	95
95657	2024-12-03T01:25:33	8.5	94.5
95658	2024-12-03T01:35:33	8.4	94.5
95659	2024-12-03T01:45:33	8.2	96.5
95660	2024-12-03T01:55:33	8.2	96.5
95661	2024-12-03T02:05:33	8.1	96
95662	2024-12-03T02:15:33	8	95.5
95663	2024-12-03T02:25:33	8	95
95664	2024-12-03T02:35:33	7.9	94.5
95665	2024-12-03T02:45:33	7.8	93.5
95666	2024-12-03T02:55:33	7.8	93
95667	2024-12-03T03:05:33	8	92
95668	2024-12-03T03:15:33	8	91.5
95669	2024-12-03T03:25:33	7.9	91.5
95670	2024-12-03T03:35:33	7.8	91
95671	2024-12-03T03:45:33	7.8	90.5
95672	2024-12-03T03:55:33	7.9	90.5
95673	2024-12-03T04:05:33	7.9	91
95674	2024-12-03T04:15:33	7.7	90.5
95675	2024-12-03T04:25:33	7.7	90.5
95676	2024-12-03T04:35:33	7.6	90.5
95677	2024-12-03T04:45:33	7.6	90.5
95678	2024-12-03T04:55:33	7.6	90
95679	2024-12-03T05:05:33	7.6	90
95680	2024-12-03T05:15:33	7.4	90
95681	2024-12-03T05:25:33	7.3	89.5
95682	2024-12-03T05:35:33	7.1	90
95683	2024-12-03T05:45:33	7.1	90
95684	2024-12-03T05:55:33	7.1	90.5
95685	2024-12-03T06:05:33	7.1	90.5
95686	2024-12-03T06:15:33	7.1	87.5
95687	2024-12-03T06:25:33	7.1	89.5
95688	2024-12-03T06:35:33	7	88.5
95689	2024-12-03T06:45:33	7	88
95690	2024-12-03T06:55:33	7.1	87.5
95691	2024-12-03T07:05:33	7.1	89
95692	2024-12-03T07:15:33	7.1	88.5
95693	2024-12-03T07:25:33	7.1	89
95694	2024-12-03T07:35:33	7	89
95695	2024-12-03T07:45:33	7	89
95696	2024-12-03T07:55:33	7.2	88
95697	2024-12-03T08:05:33	7.1	93
95698	2024-12-03T08:15:33	6.9	91
95699	2024-12-03T08:25:33	6.9	94.5
95700	2024-12-03T08:35:33	6.6	95
95701	2024-12-03T08:45:33	6.5	97.5
95702	2024-12-03T08:55:33	6.5	96.5
95703	2024-12-03T09:05:33	6.5	96
95704	2024-12-03T09:15:33	6.4	100
95705	2024-12-03T09:25:33	6.4	100
95706	2024-12-03T09:35:33	6.3	100
95707	2024-12-03T09:45:33	6.3	100
95708	2024-12-03T09:55:33	6.5	100
95709	2024-12-03T10:05:33	6.4	100
95710	2024-12-03T10:15:33	6.4	100
95711	2024-12-03T10:25:33	6.3	100
95712	2024-12-03T10:35:33	6.3	100
95713	2024-12-03T10:45:33	6.2	100
95714	2024-12-03T10:55:33	6.3	100
95715	2024-12-03T11:05:33	6.3	100
95716	2024-12-03T11:15:33	6.4	100
95717	2024-12-03T11:25:33	6.5	100
95718	2024-12-03T11:35:33	6.4	100
95719	2024-12-03T11:45:33	6.5	100
95720	2024-12-03T11:55:33	6.4	100
95721	2024-12-03T12:05:33	6.4	100
95722	2024-12-03T12:15:33	6.5	100
95723	2024-12-03T12:25:33	6.6	100
95724	2024-12-03T12:35:33	6.5	100
95725	2024-12-03T12:45:33	6.6	100
95726	2024-12-03T12:55:33	6.5	100
95727	2024-12-03T13:05:33	6.5	100
95728	2024-12-03T13:15:33	6.5	100
95729	2024-12-03T13:25:33	6.6	100
95730	2024-12-03T13:35:33	6.6	100
95731	2024-12-03T13:45:33	6.7	100
95732	2024-12-03T13:55:33	6.7	100
95733	2024-12-03T14:05:33	6.7	100
95734	2024-12-03T14:15:33	6.7	100
95735	2024-12-03T14:25:51	6.7	100
95736	2024-12-03T14:35:33	6.8	100
95737	2024-12-03T14:45:33	6.7	100
95738	2024-12-03T14:55:33	6.7	100
95739	2024-12-03T15:05:33	6.7	100
95740	2024-12-03T15:15:33	6.7	100
95741	2024-12-03T15:25:33	6.7	100
95742	2024-12-03T15:35:33	6.8	100
95743	2024-12-03T15:45:33	6.6	100
95744	2024-12-03T16:25:33	6.7	100
95745	2024-12-03T16:35:33	6.6	100
95746	2024-12-03T16:45:33	6.7	100
95747	2024-12-03T16:55:33	6.6	100
95748	2024-12-03T17:05:33	6.4	100
95749	2024-12-03T17:15:33	6.4	100
95750	2024-12-03T17:25:33	6.5	100
95751	2024-12-03T17:35:33	6.4	100
95752	2024-12-03T17:45:32	6.5	100
95753	2024-12-03T17:55:32	6.5	100
95754	2024-12-03T18:05:32	6.4	100
95755	2024-12-03T18:15:32	6.4	100
95756	2024-12-03T18:25:32	6.5	100
95757	2024-12-03T18:35:32	6.4	100
95758	2024-12-03T18:45:32	6.4	100
95759	2024-12-03T18:55:32	6.4	100
95760	2024-12-03T19:05:32	6.5	100
95761	2024-12-03T19:15:32	6.4	100
95762	2024-12-03T19:25:32	6.5	100
95763	2024-12-03T19:35:32	6.3	100
95764	2024-12-03T19:45:32	6.5	100
95765	2024-12-03T19:55:32	6.5	100
95766	2024-12-03T20:05:32	6.7	100
95767	2024-12-03T20:15:32	6.6	100
95768	2024-12-03T20:25:32	6.8	100
95769	2024-12-03T20:35:32	6.7	100
95770	2024-12-03T20:45:32	6.5	100
95771	2024-12-03T20:55:32	6.7	100
95772	2024-12-03T21:05:32	6.6	100
95773	2024-12-03T21:15:32	6.6	100
95774	2024-12-03T21:25:32	6.5	100
95775	2024-12-03T21:35:32	6.5	100
95776	2024-12-03T21:45:32	6.5	100
95777	2024-12-03T21:55:32	6.6	100
95778	2024-12-03T22:05:32	6.2	100
95779	2024-12-03T22:15:32	6.3	100
95780	2024-12-03T22:25:32	6.4	100
95781	2024-12-03T22:35:32	6.4	100
95782	2024-12-03T22:45:32	6.3	100
95783	2024-12-03T22:55:32	6.3	100
95784	2024-12-03T23:05:32	6.3	100
95785	2024-12-03T23:15:32	6.3	100
95786	2024-12-03T23:25:32	6.3	100
95787	2024-12-03T23:35:32	6.3	100
95788	2024-12-03T23:45:32	6.3	100
95789	2024-12-03T23:55:32	6.3	100
95790	2024-12-04T00:05:32	6.4	100
95791	2024-12-04T00:15:32	6.4	100
95792	2024-12-04T00:25:32	6.5	100
95793	2024-12-04T00:35:32	6.4	100
95794	2024-12-04T00:45:32	6.4	100
95795	2024-12-04T00:55:32	6.4	100
95796	2024-12-04T01:05:32	6.4	100
95797	2024-12-04T01:15:32	6.4	100
95798	2024-12-04T01:25:32	6.4	100
95799	2024-12-04T01:35:32	6.3	100
95800	2024-12-04T01:45:32	6.4	100
95801	2024-12-04T01:55:32	6.3	100
95802	2024-12-04T02:05:32	6.3	100
95803	2024-12-04T02:15:32	6.3	100
95804	2024-12-04T02:25:32	6.2	100
95805	2024-12-04T02:35:32	6.2	100
95806	2024-12-04T02:45:32	6.2	100
95807	2024-12-04T02:55:32	6	99.5
95808	2024-12-04T03:05:32	6	99
95809	2024-12-04T03:15:32	6	99
95810	2024-12-04T03:25:32	5.9	99
95811	2024-12-04T03:35:32	5.8	99
95812	2024-12-04T03:45:32	5.7	99
95813	2024-12-04T03:55:32	5.7	96
95814	2024-12-04T04:05:32	5.6	96
95815	2024-12-04T04:15:32	5.4	96
95816	2024-12-04T04:35:32	5.1	96
95817	2024-12-04T04:45:32	4.9	96
95818	2024-12-04T04:55:32	4.8	96
95819	2024-12-04T05:05:32	4.6	96
95820	2024-12-04T05:15:32	4.5	96
95821	2024-12-04T05:25:32	4.3	96
95822	2024-12-04T05:35:32	4.2	96
95823	2024-12-04T05:45:32	4.1	96
95824	2024-12-04T05:55:32	4	96
95825	2024-12-04T06:05:32	3.9	96
95826	2024-12-04T06:15:32	3.8	96
95827	2024-12-04T06:25:32	3.7	96
95828	2024-12-04T06:35:32	3.5	96
95829	2024-12-04T06:45:32	3.5	96
95830	2024-12-04T06:55:32	3.4	96
95831	2024-12-04T07:05:32	3.5	96
95832	2024-12-04T07:15:32	3.5	96
95833	2024-12-04T07:25:32	3.3	96
95834	2024-12-04T07:35:32	3.6	96
95835	2024-12-04T07:45:32	3.7	96
95836	2024-12-04T07:55:32	3.8	96
95837	2024-12-04T08:05:32	3.8	96
95838	2024-12-04T08:15:53	3.9	96
95839	2024-12-04T08:25:32	3.9	96
95840	2024-12-04T08:35:32	3.9	96
95841	2024-12-04T08:45:32	4.1	96
95842	2024-12-04T08:55:32	4.1	96
95843	2024-12-04T09:05:32	4.2	96
95844	2024-12-04T09:15:32	4.3	96
95845	2024-12-04T09:25:32	4.4	96
95846	2024-12-04T09:35:32	4.6	96
95847	2024-12-04T09:45:32	4.7	96
95848	2024-12-04T09:55:32	4.9	96
95849	2024-12-04T10:05:32	4.8	96
95850	2024-12-04T10:15:32	5.2	96
95851	2024-12-04T10:25:32	5.4	96
95852	2024-12-04T10:35:32	5.5	96
95853	2024-12-04T10:45:32	5.6	96
95854	2024-12-04T10:55:32	5.7	96
95855	2024-12-04T11:05:32	5.7	96
95856	2024-12-04T11:15:32	6	96
95857	2024-12-04T11:35:32	6.3	96
95858	2024-12-04T11:45:32	6.4	96
95859	2024-12-04T11:55:32	6.4	99
95860	2024-12-04T12:05:32	6.6	90.5
95861	2024-12-04T12:15:32	6.6	88.5
95862	2024-12-04T12:25:32	6.5	88
95863	2024-12-04T12:35:32	6.6	88
95864	2024-12-04T12:45:32	6.6	88.5
95865	2024-12-04T12:55:32	6.4	89
95866	2024-12-04T13:05:32	6.3	88
95867	2024-12-04T13:15:32	6.5	88.5
95868	2024-12-04T13:25:32	6.5	88
95869	2024-12-04T13:35:32	6.5	88.5
95870	2024-12-04T13:45:32	6.3	88.5
95871	2024-12-04T13:55:32	6.4	89
95872	2024-12-04T14:05:32	6.3	89
95873	2024-12-04T14:15:32	6.2	88.5
95874	2024-12-04T14:25:32	6.1	89
95875	2024-12-04T14:35:32	6.2	90
95876	2024-12-04T14:45:32	6.2	89.5
95877	2024-12-04T14:55:32	6.2	89
95878	2024-12-04T15:05:32	6	87.5
95879	2024-12-04T15:15:32	6.1	86
95880	2024-12-04T15:25:32	6	86.5
95881	2024-12-04T15:35:32	5.9	86.5
95882	2024-12-04T15:45:32	5.9	86
95883	2024-12-04T15:55:32	6	86
95884	2024-12-04T16:05:32	5.9	85.5
95885	2024-12-04T16:15:32	5.8	85
95886	2024-12-04T16:25:32	5.8	84
95887	2024-12-04T16:35:32	5.9	86
95888	2024-12-04T16:45:32	5.8	87.5
95889	2024-12-04T16:55:32	5.9	90
95890	2024-12-04T17:05:32	5.9	91.5
95891	2024-12-04T17:15:32	5.8	92.5
95892	2024-12-04T17:25:32	5.8	93.5
95893	2024-12-04T17:35:32	5.7	94.5
95894	2024-12-04T17:45:32	5.7	94.5
95895	2024-12-04T17:55:32	5.6	93.5
95896	2024-12-04T18:05:32	5.5	90.5
95897	2024-12-04T18:15:32	5.4	90
95898	2024-12-04T18:25:32	5.3	91
95899	2024-12-04T18:35:32	5.1	94
95900	2024-12-04T18:45:32	4.8	95
95901	2024-12-04T18:55:32	4.7	94
95902	2024-12-04T19:05:32	4.6	94
95903	2024-12-04T19:15:32	4.5	94.5
95904	2024-12-04T19:25:32	4.4	94.5
95905	2024-12-04T19:35:32	4.3	92.5
95906	2024-12-04T19:45:32	4.1	92
95907	2024-12-04T19:55:32	4	92
95908	2024-12-04T20:05:32	3.7	89
95909	2024-12-04T20:15:32	3.6	88.5
95910	2024-12-04T20:25:32	3.5	90.5
95911	2024-12-04T20:35:32	3.1	88.5
95912	2024-12-04T20:45:32	3.2	90
95913	2024-12-04T20:55:32	3.1	89
95914	2024-12-04T21:05:32	2.9	90
95915	2024-12-04T21:15:32	2.9	91.5
95916	2024-12-04T21:25:32	2.9	92
95917	2024-12-04T21:35:32	2.9	92.5
95918	2024-12-04T21:45:32	2.8	93
95919	2024-12-04T21:55:32	2.6	94.5
95920	2024-12-04T22:05:32	2.5	95.5
95921	2024-12-04T22:15:32	2.4	96.5
95922	2024-12-04T22:25:32	2.4	96.5
95923	2024-12-04T22:35:32	2.2	97
95924	2024-12-04T22:45:32	2.2	96.5
95925	2024-12-04T22:55:32	2	97
95926	2024-12-04T23:05:32	2.1	96.5
95927	2024-12-04T23:15:32	2	97
95928	2024-12-04T23:25:32	2	97
95929	2024-12-04T23:35:32	1.8	97.5
95930	2024-12-04T23:45:32	1.8	97
95931	2024-12-04T23:55:32	1.7	97.5
95932	2024-12-05T00:05:32	1.6	95.5
95933	2024-12-05T00:15:32	1.6	95.5
95934	2024-12-05T00:25:32	1.5	95.5
95935	2024-12-05T00:35:32	1.6	96
95936	2024-12-05T00:45:32	1.4	96.5
95937	2024-12-05T00:55:32	1.2	97
95938	2024-12-05T01:15:32	1.2	97
95939	2024-12-05T01:25:32	1	97
95940	2024-12-05T01:35:32	1	97.5
95941	2024-12-05T01:45:32	0.9	97.5
95942	2024-12-05T01:55:32	0.9	97
95943	2024-12-05T02:05:32	0.8	97
95944	2024-12-05T02:15:32	0.8	97
95945	2024-12-05T02:25:32	0.7	97
95946	2024-12-05T02:35:32	0.5	97
95947	2024-12-05T02:45:32	0.6	96
95948	2024-12-05T02:55:32	0.6	97
95949	2024-12-05T03:05:32	0.5	97
95950	2024-12-05T03:15:32	0.4	97
95951	2024-12-05T03:25:32	0.3	97.5
95952	2024-12-05T03:35:32	0.3	97.5
95953	2024-12-05T03:45:32	0.2	97
95954	2024-12-05T03:55:32	0.2	96.5
95955	2024-12-05T04:05:32	0.2	97
95956	2024-12-05T04:15:32	0.2	97
95957	2024-12-05T04:25:32	0.1	96.5
95958	2024-12-05T04:35:32	0.2	96.5
95959	2024-12-05T04:45:32	0.1	95
95960	2024-12-05T04:55:32	0.2	95.5
95961	2024-12-05T05:05:32	0	95.5
95962	2024-12-05T05:15:32	0	96
95963	2024-12-05T05:25:32	0	94.5
95964	2024-12-05T05:35:32	0	95.5
95965	2024-12-05T05:45:32	0	96
95966	2024-12-05T05:55:32	-0.1	95.5
95967	2024-12-05T06:05:32	-0.2	96
95968	2024-12-05T06:15:32	-0.1	96.5
95969	2024-12-05T06:25:32	0	96
95970	2024-12-05T06:35:32	-0.2	96.5
95971	2024-12-05T06:45:32	-0.3	96.5
95972	2024-12-05T07:05:32	-0.4	96
95973	2024-12-05T07:15:32	-0.5	93
95974	2024-12-05T07:25:32	-0.4	95
95975	2024-12-05T07:35:32	-0.3	95.5
95976	2024-12-05T07:45:32	-0.4	94
95977	2024-12-05T07:55:32	-0.3	94.5
95978	2024-12-05T08:05:32	-0.1	95
95979	2024-12-05T08:15:32	0	93.5
95980	2024-12-05T08:25:32	-0.1	91.5
95981	2024-12-05T08:35:32	0	94
95982	2024-12-05T08:45:32	0.1	95.5
95983	2024-12-05T08:55:32	0.7	97
95984	2024-12-05T09:05:32	0.8	95.5
95985	2024-12-05T09:15:32	0.8	94.5
95986	2024-12-05T09:25:32	0.8	95
95987	2024-12-05T09:35:32	1.1	96
95988	2024-12-05T09:45:32	1.1	95.5
95989	2024-12-05T09:55:32	1.2	96
95990	2024-12-05T10:05:32	1.4	95
95991	2024-12-05T10:15:32	1.6	95
95992	2024-12-05T10:25:32	1.8	95
95993	2024-12-05T10:35:32	2.2	95
95994	2024-12-05T10:45:32	2.4	91.5
95995	2024-12-05T10:55:32	2.5	91
95996	2024-12-05T11:05:32	2.4	91.5
95997	2024-12-05T11:15:32	2.4	91
95998	2024-12-05T11:25:32	2.2	91.5
95999	2024-12-05T11:35:32	2.4	91
96000	2024-12-05T11:45:32	2.6	90.5
96001	2024-12-05T11:55:32	2.8	90.5
96002	2024-12-05T12:05:32	2.8	89.5
96003	2024-12-05T12:15:32	2.8	90
96004	2024-12-05T12:25:32	2.8	90
96005	2024-12-05T12:35:32	3	91.5
96006	2024-12-05T12:45:32	3	93
96007	2024-12-05T12:55:32	3	93
96008	2024-12-05T13:05:31	3.1	92.5
96009	2024-12-05T13:15:32	3	93.5
96010	2024-12-05T13:25:31	3	92
96011	2024-12-05T13:35:32	3.2	92
96012	2024-12-05T13:45:32	3.3	93.5
96013	2024-12-05T13:55:31	3.4	94
96014	2024-12-05T14:15:31	3.5	93.5
96015	2024-12-05T14:25:31	3.6	92
96016	2024-12-05T14:35:32	3.7	93.5
96017	2024-12-05T14:45:32	3.6	94
96018	2024-12-05T14:55:32	3.7	92.5
96019	2024-12-05T15:05:31	3.7	94.5
96020	2024-12-05T15:15:31	3.8	94.5
96021	2024-12-05T15:25:32	3.7	95
96022	2024-12-05T15:35:31	3.7	95.5
96023	2024-12-05T15:45:31	3.9	95.5
96024	2024-12-05T15:55:31	3.9	95.5
96025	2024-12-05T16:15:31	3.9	98.5
96026	2024-12-05T16:35:31	3.9	97.5
96027	2024-12-05T16:45:31	3.9	97
96028	2024-12-05T16:55:31	3.9	97
96029	2024-12-05T17:05:31	4	97
96030	2024-12-05T17:15:31	4	97
96031	2024-12-05T17:25:31	3.9	97.5
96032	2024-12-05T17:35:31	4.1	97
96033	2024-12-05T17:45:31	4	97
96034	2024-12-05T17:55:31	4.1	97.5
96035	2024-12-05T18:05:31	4.2	97.5
96036	2024-12-05T18:15:31	4.2	97.5
96037	2024-12-05T18:25:31	4.2	97.5
96038	2024-12-05T18:35:31	4.2	97.5
96039	2024-12-05T18:45:31	4.3	97.5
96040	2024-12-05T18:55:31	4.4	97.5
96041	2024-12-05T19:05:31	4.5	97.5
96042	2024-12-05T19:15:31	4.4	97.5
96043	2024-12-05T19:25:31	4.6	97
96044	2024-12-05T19:35:31	4.5	95.5
96045	2024-12-05T19:45:31	5.2	93
96046	2024-12-05T19:55:31	5.9	90.5
96047	2024-12-05T20:05:31	6.2	90
96048	2024-12-05T20:15:31	6.3	89.5
96049	2024-12-05T20:25:31	6.4	89
96050	2024-12-05T20:35:31	6.7	88
96051	2024-12-05T20:45:31	6.8	87.5
96052	2024-12-05T20:55:31	6.8	87.5
96053	2024-12-05T21:05:31	7	87.5
96054	2024-12-05T21:15:31	7	86.5
96055	2024-12-05T21:25:31	7.1	86.5
96056	2024-12-05T21:35:31	7.2	86
96057	2024-12-05T21:45:31	7.4	85.5
96058	2024-12-05T21:55:31	7.5	85
96059	2024-12-05T22:05:31	7.7	85
96060	2024-12-05T22:15:31	7.8	84
96061	2024-12-05T22:25:31	8	84.5
96062	2024-12-05T22:35:31	8.2	86.5
96063	2024-12-05T22:45:31	8.4	88
96064	2024-12-05T22:55:31	8.6	88.5
96065	2024-12-05T23:05:31	8.7	88.5
96066	2024-12-05T23:15:31	8.7	88.5
96067	2024-12-05T23:25:31	8.5	89.5
96068	2024-12-05T23:35:31	8.8	88.5
96069	2024-12-05T23:45:31	8.5	92
96070	2024-12-05T23:55:31	8.6	91.5
96071	2024-12-06T00:05:31	8.9	92
96072	2024-12-06T00:15:31	8.4	100
96073	2024-12-06T00:25:31	8.1	100
96074	2024-12-06T00:35:31	8.2	100
96075	2024-12-06T00:45:31	8.2	100
96076	2024-12-06T00:55:31	8.2	100
96077	2024-12-06T01:05:31	8.4	100
96078	2024-12-06T01:15:31	8.5	100
96079	2024-12-06T01:25:31	8.6	100
96080	2024-12-06T01:35:31	8.9	100
96081	2024-12-06T01:45:31	9.1	100
96082	2024-12-06T01:55:31	9.1	100
96083	2024-12-06T02:05:31	9.2	100
96084	2024-12-06T02:15:31	9.3	100
96085	2024-12-06T02:25:31	9.3	100
96086	2024-12-06T02:35:31	9.3	100
96087	2024-12-06T02:45:31	9.3	100
96088	2024-12-06T02:55:31	9.3	100
96089	2024-12-06T03:05:31	9.3	100
96090	2024-12-06T03:15:31	9.2	100
96091	2024-12-06T03:25:31	9.3	100
96092	2024-12-06T03:35:31	9.3	100
96093	2024-12-06T03:45:31	9.2	100
96094	2024-12-06T03:55:31	9.2	100
96095	2024-12-06T04:05:31	9	100
96096	2024-12-06T04:15:31	9	100
96097	2024-12-06T04:25:31	9	100
96098	2024-12-06T04:35:31	9	100
96099	2024-12-06T04:45:31	8.9	100
96100	2024-12-06T04:55:31	9	100
96101	2024-12-06T05:05:31	8.8	100
96102	2024-12-06T05:15:31	8.9	100
96103	2024-12-06T05:25:31	8.8	100
96104	2024-12-06T05:35:31	8.6	100
96105	2024-12-06T05:45:31	8.5	100
96106	2024-12-06T05:55:31	8.2	100
96107	2024-12-06T06:05:31	8.2	100
96108	2024-12-06T06:15:31	7.9	100
96109	2024-12-06T06:25:31	7.9	100
96110	2024-12-06T06:35:31	8	100
96111	2024-12-06T06:45:31	7.9	100
96112	2024-12-06T06:55:31	8	100
96113	2024-12-06T07:05:31	7.9	100
96114	2024-12-06T07:15:31	7.9	100
96115	2024-12-06T07:25:31	7.9	100
96116	2024-12-06T07:35:31	7.9	100
96117	2024-12-06T07:45:31	7.8	100
96118	2024-12-06T07:55:31	7.8	100
96119	2024-12-06T08:05:31	7.7	100
96120	2024-12-06T08:15:31	7.7	100
96121	2024-12-06T08:25:31	7.8	100
96122	2024-12-06T08:35:31	7.8	100
96123	2024-12-06T08:45:31	7.6	100
96124	2024-12-06T08:55:31	7.7	100
96125	2024-12-06T09:05:31	7.9	100
96126	2024-12-06T09:15:31	8	100
96127	2024-12-06T09:25:31	8.2	100
96128	2024-12-06T09:35:31	8.3	100
96129	2024-12-06T09:45:31	8.3	100
96130	2024-12-06T09:55:31	8.4	100
96131	2024-12-06T10:05:31	8.5	100
96132	2024-12-06T10:15:31	8.6	100
96133	2024-12-06T10:25:31	8.6	100
96134	2024-12-06T10:35:31	8.6	100
96135	2024-12-06T10:45:31	8.6	100
96136	2024-12-06T10:55:31	8.7	100
96137	2024-12-06T11:05:31	8.7	100
96138	2024-12-06T11:15:31	8.7	100
96139	2024-12-06T11:25:31	8.7	100
96140	2024-12-06T11:35:31	8.6	100
96141	2024-12-06T11:45:31	8.6	100
96142	2024-12-06T11:55:31	8.8	100
96143	2024-12-06T12:05:31	8.7	100
96144	2024-12-06T12:15:30	8.8	100
96145	2024-12-06T12:25:31	8.9	100
96146	2024-12-06T12:35:31	8.7	100
96147	2024-12-06T12:45:30	8.7	100
96148	2024-12-06T12:55:31	8.7	100
96149	2024-12-06T13:05:30	8.6	100
96150	2024-12-06T13:15:30	8.6	100
96151	2024-12-06T13:25:30	8.7	98.5
96152	2024-12-06T13:35:30	8.7	89
96153	2024-12-06T13:45:30	8.8	76
96154	2024-12-06T13:55:30	8.9	72.5
96155	2024-12-06T14:05:30	8.9	72.5
96156	2024-12-06T14:15:30	8.8	73.5
96157	2024-12-06T14:25:30	8.8	70.5
96158	2024-12-06T14:35:30	8.9	71
96159	2024-12-06T14:45:30	8.9	73
96160	2024-12-06T14:55:30	9	74
96161	2024-12-06T15:05:30	8.8	72.5
96162	2024-12-06T15:15:30	8.7	72
96163	2024-12-06T15:25:30	8.7	72.5
96164	2024-12-06T15:35:30	8.7	71.5
96165	2024-12-06T15:45:30	8.7	71
96166	2024-12-06T15:55:30	8.6	71
96167	2024-12-06T16:05:30	8.6	71
96168	2024-12-06T16:15:30	8.5	72
96169	2024-12-06T16:25:30	8.4	74.5
96170	2024-12-06T16:35:30	8.3	76
96171	2024-12-06T16:55:30	8.1	76
96172	2024-12-06T17:05:30	8	76
96173	2024-12-06T17:15:30	8	76.5
96174	2024-12-06T17:25:30	8.1	76.5
96175	2024-12-06T17:35:30	8.2	77
96176	2024-12-06T17:45:30	8	76.5
96177	2024-12-06T17:55:30	8.1	76.5
96178	2024-12-06T18:05:30	8.1	77
96179	2024-12-06T18:15:30	8.1	77
96180	2024-12-06T18:25:30	8	77.5
96181	2024-12-06T18:35:30	8	78
96182	2024-12-06T18:45:30	8	78
96183	2024-12-06T18:55:30	8	78
96184	2024-12-06T19:05:30	8.1	77.5
96185	2024-12-06T19:15:30	7.9	78
96186	2024-12-06T19:25:30	7.9	78
96187	2024-12-06T19:35:30	7.7	78
96188	2024-12-06T19:45:30	7.5	78.5
96189	2024-12-06T19:55:30	7.4	78.5
96190	2024-12-06T20:05:30	7.4	79
96191	2024-12-06T20:15:30	7.5	78.5
96192	2024-12-06T20:25:30	7.5	78.5
96193	2024-12-06T20:35:30	7.5	78.5
96194	2024-12-06T20:45:30	7.4	78
96195	2024-12-06T20:55:30	7.4	78.5
96196	2024-12-06T21:05:30	7.4	78
96197	2024-12-06T21:15:30	7.4	77.5
96198	2024-12-06T21:25:30	7.4	76
96199	2024-12-06T21:35:30	7.4	75.5
96200	2024-12-06T21:45:30	7.6	75.5
96201	2024-12-06T21:55:30	7.6	75
96202	2024-12-06T22:05:30	7.7	74.5
96203	2024-12-06T22:15:30	7.5	74.5
96204	2024-12-06T22:25:30	7.6	74.5
96205	2024-12-06T22:35:30	7.5	75.5
96206	2024-12-06T22:45:30	7.3	75
96207	2024-12-06T22:55:30	7.2	75.5
96208	2024-12-06T23:05:30	7.1	76
96209	2024-12-06T23:15:30	7.1	76
96210	2024-12-06T23:25:30	6.9	76
96211	2024-12-06T23:35:30	6.8	76
96212	2024-12-06T23:45:30	6.9	75.5
96213	2024-12-06T23:55:30	7	75
96214	2024-12-07T00:05:30	7	75
96215	2024-12-07T00:15:30	7	74.5
96216	2024-12-07T00:25:30	7	74.5
96217	2024-12-07T00:35:30	6.9	75
96218	2024-12-07T00:45:30	6.9	75.5
96219	2024-12-07T00:55:30	6.7	76
96220	2024-12-07T01:15:30	6.7	77
96221	2024-12-07T01:25:30	6.6	77.5
96222	2024-12-07T01:35:30	6.7	79.5
96223	2024-12-07T01:45:30	6.7	80.5
96224	2024-12-07T01:55:30	6.8	81
96225	2024-12-07T02:05:30	6.7	82
96226	2024-12-07T02:15:30	6.7	82
96227	2024-12-07T02:25:30	6.7	82.5
96228	2024-12-07T02:35:30	6.6	83
96229	2024-12-07T02:45:30	6.8	85.5
96230	2024-12-07T02:55:30	6.9	86
96231	2024-12-07T03:05:30	6.9	87
96232	2024-12-07T03:15:30	6.9	88.5
96233	2024-12-07T03:25:30	6.9	89.5
96234	2024-12-07T03:35:30	6.9	89
96235	2024-12-07T03:45:30	6.9	90.5
96236	2024-12-07T03:55:30	7	90.5
96237	2024-12-07T04:05:30	6.9	90
96238	2024-12-07T04:15:30	6.9	89
96239	2024-12-07T04:25:30	6.9	90.5
96240	2024-12-07T04:35:30	6.8	91
96241	2024-12-07T04:45:30	6.8	91
96242	2024-12-07T04:55:30	6.8	91.5
96243	2024-12-07T05:05:30	6.8	91.5
96244	2024-12-07T05:15:30	6.7	89.5
96245	2024-12-07T05:25:30	6.7	88.5
96246	2024-12-07T05:35:30	6.9	91
96247	2024-12-07T05:45:30	6.8	88
96248	2024-12-07T05:55:30	6.7	87
96249	2024-12-07T06:05:30	6.7	88.5
96250	2024-12-07T06:15:30	6.8	90
96251	2024-12-07T06:25:30	6.9	88
96252	2024-12-07T06:35:30	6.9	87
96253	2024-12-07T06:45:30	7	88.5
96254	2024-12-07T06:55:30	6.9	89.5
96255	2024-12-07T07:05:30	6.9	88
96256	2024-12-07T07:15:30	7	88.5
96257	2024-12-07T07:25:30	7	89
96258	2024-12-07T07:35:30	7	92
96259	2024-12-07T07:45:30	6.9	92
96260	2024-12-07T07:55:30	7	92.5
96261	2024-12-07T08:05:30	6.9	92
96262	2024-12-07T08:15:30	7	93
96263	2024-12-07T08:25:30	7	93.5
96264	2024-12-07T08:35:30	7	91.5
96265	2024-12-07T08:45:30	7	91.5
96266	2024-12-07T08:55:30	7.1	91
96267	2024-12-07T09:05:30	7.1	90.5
96268	2024-12-07T09:15:30	7.1	90.5
96269	2024-12-07T09:25:30	7.1	91
96270	2024-12-07T09:35:30	7.4	91.5
96271	2024-12-07T09:45:30	7.4	91.5
96272	2024-12-07T09:55:30	7.6	92.5
96273	2024-12-07T10:05:29	7.6	93
96274	2024-12-07T10:15:29	7.7	93.5
96275	2024-12-07T10:25:29	7.8	94.5
96276	2024-12-07T10:35:29	7.8	97.5
96277	2024-12-07T10:45:29	7.6	98.5
96278	2024-12-07T10:55:29	7.7	100
96279	2024-12-07T11:05:29	7.8	100
96280	2024-12-07T11:15:29	8	100
96281	2024-12-07T11:25:29	8.3	100
96282	2024-12-07T11:35:30	8.5	100
96283	2024-12-07T11:45:29	8.8	100
96284	2024-12-07T11:55:29	8.8	100
96285	2024-12-07T12:05:29	8.8	100
96286	2024-12-07T12:15:29	9	100
96287	2024-12-07T12:25:29	9	100
96288	2024-12-07T12:35:29	9.2	100
96289	2024-12-07T12:45:29	9	100
96290	2024-12-07T12:55:29	9	100
96291	2024-12-07T13:05:29	8.9	100
96292	2024-12-07T13:15:29	8.7	100
96293	2024-12-07T13:25:29	8.7	100
96294	2024-12-07T13:35:29	8.6	100
96295	2024-12-07T13:45:29	8.6	100
96296	2024-12-07T13:55:48	8.5	100
96297	2024-12-07T14:05:29	8.4	100
96298	2024-12-07T14:15:29	8.4	100
96299	2024-12-07T14:25:29	8.3	100
96300	2024-12-07T14:35:29	8.2	100
96301	2024-12-07T14:45:29	8.1	100
96302	2024-12-07T14:55:29	8	100
96303	2024-12-07T15:05:29	8	100
96304	2024-12-07T15:15:29	8	100
96305	2024-12-07T15:25:29	8	100
96306	2024-12-07T15:35:29	8	100
96307	2024-12-07T15:45:29	8.1	100
96308	2024-12-07T15:55:29	8.1	100
96309	2024-12-07T16:05:29	8.1	100
96310	2024-12-07T16:15:29	8.2	100
96311	2024-12-07T16:25:29	8.2	100
96312	2024-12-07T16:35:29	8.2	100
96313	2024-12-07T16:45:29	8.1	99
96314	2024-12-07T16:55:29	7.9	99.5
96315	2024-12-07T17:05:29	7.7	98
96316	2024-12-07T17:15:29	7.7	91
96317	2024-12-07T17:25:29	7.6	89.5
96318	2024-12-07T17:35:29	7.6	88.5
96319	2024-12-07T17:45:29	7.6	86.5
96320	2024-12-07T17:55:29	7.6	87.5
96321	2024-12-07T18:05:29	7.7	86.5
96322	2024-12-07T18:15:29	7.9	85
96323	2024-12-07T18:25:29	8.1	85
96324	2024-12-07T18:35:29	8.2	84
96325	2024-12-07T18:45:29	8.2	83
96326	2024-12-07T18:55:29	8.3	83
96327	2024-12-07T19:05:29	8.2	82.5
96328	2024-12-07T19:15:29	8.3	83
96329	2024-12-07T19:25:29	8.3	81
96330	2024-12-07T19:35:29	8.2	80.5
96331	2024-12-07T19:45:29	8	80.5
96332	2024-12-07T19:55:29	8	80.5
96333	2024-12-07T20:05:29	8	80.5
96334	2024-12-07T20:15:29	7.9	79.5
96335	2024-12-07T20:25:29	7.9	77.5
96336	2024-12-07T20:35:29	8	76.5
96337	2024-12-07T20:45:29	8	75.5
96338	2024-12-07T20:55:29	8.1	75.5
96339	2024-12-07T21:05:29	8.1	75
96340	2024-12-07T21:15:29	8	74.5
96341	2024-12-07T21:25:29	8	75
96342	2024-12-07T21:35:29	8	75.5
96343	2024-12-07T21:45:29	8	75.5
96344	2024-12-07T21:55:29	7.8	75.5
96345	2024-12-07T22:05:29	7.9	76
96346	2024-12-07T22:15:29	8	76.5
96347	2024-12-07T22:25:29	7.9	76.5
96348	2024-12-07T22:35:29	7.8	77.5
96349	2024-12-07T22:45:29	7.8	79
96350	2024-12-07T22:55:29	7.7	80
96351	2024-12-07T23:05:29	7.5	79.5
96352	2024-12-07T23:15:29	7.4	79
96353	2024-12-07T23:25:29	7.2	78
96354	2024-12-07T23:35:29	7.1	78.5
96355	2024-12-07T23:45:29	7	79
96356	2024-12-07T23:55:49	7	79
96357	2024-12-08T00:05:29	7	78
96358	2024-12-08T00:15:29	6.9	77.5
96359	2024-12-08T00:25:29	6.9	77
96360	2024-12-08T00:35:29	6.9	76.5
96361	2024-12-08T00:45:29	6.8	76.5
96362	2024-12-08T00:55:29	6.7	76.5
96363	2024-12-08T01:15:29	6.5	84.5
96364	2024-12-08T01:25:29	6.4	88.5
96365	2024-12-08T01:35:29	6.2	89
96366	2024-12-08T01:45:29	6.1	86.5
96367	2024-12-08T01:55:29	5.9	79.5
96368	2024-12-08T02:05:29	5.8	79.5
96369	2024-12-08T02:15:29	5.7	80
96370	2024-12-08T02:25:29	5.8	80.5
96371	2024-12-08T02:35:29	5.8	80
96372	2024-12-08T02:45:29	5.9	80.5
96373	2024-12-08T02:55:29	5.8	84
96374	2024-12-08T03:05:29	5.7	86.5
96375	2024-12-08T03:15:29	5.6	90
96376	2024-12-08T03:25:29	5.5	91
96377	2024-12-08T03:35:29	5.4	91.5
96378	2024-12-08T03:45:29	5.5	91.5
96379	2024-12-08T03:55:29	5.4	92.5
96380	2024-12-08T04:05:29	5.5	92
96381	2024-12-08T04:15:29	5.5	92
96382	2024-12-08T04:25:29	5.7	92
96383	2024-12-08T04:35:29	5.7	92
96384	2024-12-08T04:45:29	5.6	93
96385	2024-12-08T04:55:29	5.7	91
96386	2024-12-08T05:05:29	5.6	92.5
96387	2024-12-08T05:15:29	5.6	93
96388	2024-12-08T05:25:29	5.7	93.5
96389	2024-12-08T05:35:29	5.7	91
96390	2024-12-08T05:45:29	5.6	90.5
96391	2024-12-08T05:55:29	5.7	92
96392	2024-12-08T06:05:29	5.7	93
96393	2024-12-08T06:15:29	5.6	91
96394	2024-12-08T06:25:29	5.7	91.5
96395	2024-12-08T06:35:29	5.7	91
96396	2024-12-08T06:45:29	5.7	92
96397	2024-12-08T06:55:29	5.5	92.5
96398	2024-12-08T07:05:29	5.6	92
96399	2024-12-08T07:15:29	5.6	93
96400	2024-12-08T07:25:29	5.6	93.5
96401	2024-12-08T07:35:29	5.4	93
96402	2024-12-08T07:45:29	5.4	94
96403	2024-12-08T07:55:29	5.3	94
96404	2024-12-08T08:05:29	5.3	94.5
96405	2024-12-08T08:15:29	5.3	94.5
96406	2024-12-08T08:25:28	5.4	92.5
96407	2024-12-08T08:35:28	5.5	93
96408	2024-12-08T08:45:28	5.7	94
96409	2024-12-08T08:55:28	5.7	93
96410	2024-12-08T09:05:28	5.9	93.5
96411	2024-12-08T09:15:28	6.2	93.5
96412	2024-12-08T09:25:28	6.2	93.5
96413	2024-12-08T09:35:28	6.4	91.5
96414	2024-12-08T09:45:28	6.5	92
96415	2024-12-08T09:55:29	6.7	92.5
96416	2024-12-08T10:05:29	6.9	92
96417	2024-12-08T10:15:28	7.1	90.5
96418	2024-12-08T10:25:28	7.2	88.5
96419	2024-12-08T10:35:28	7.5	86.5
96420	2024-12-08T10:45:28	7.6	88.5
96421	2024-12-08T10:55:28	7.5	89
96422	2024-12-08T11:05:28	7.8	86.5
96423	2024-12-08T11:15:28	8	87
96424	2024-12-08T11:25:28	8.2	86
96425	2024-12-08T11:35:28	8.2	83
96426	2024-12-08T11:45:28	8.3	84.5
96427	2024-12-08T11:55:28	8.4	82
96428	2024-12-08T12:05:28	8.5	82
96429	2024-12-08T12:15:28	8.7	79.5
96430	2024-12-08T12:25:28	8.8	82
96431	2024-12-08T12:35:28	8.9	79
96432	2024-12-08T12:45:28	8.8	79
96433	2024-12-08T12:55:28	8.7	78.5
96434	2024-12-08T13:05:28	8.8	77
96435	2024-12-08T13:15:28	8.6	79
96436	2024-12-08T13:25:28	8.7	80
96437	2024-12-08T13:35:28	8.6	81.5
96438	2024-12-08T13:45:28	8.7	80.5
96439	2024-12-08T13:55:28	8.8	80.5
96440	2024-12-08T14:05:28	8.8	80.5
96441	2024-12-08T14:15:28	8.8	81.5
96442	2024-12-08T14:25:28	8.8	80
96443	2024-12-08T14:35:28	8.7	81.5
96444	2024-12-08T14:45:28	8.6	79.5
96445	2024-12-08T14:55:28	8.4	83
96446	2024-12-08T15:05:28	8.1	82.5
96447	2024-12-08T15:15:28	8	84.5
96448	2024-12-08T15:25:28	7.8	82.5
96449	2024-12-08T15:35:28	7.6	84.5
96450	2024-12-08T15:45:28	7.6	87.5
96451	2024-12-08T15:55:28	7.3	87.5
96452	2024-12-08T16:05:28	7.2	87.5
96453	2024-12-08T16:15:28	7.2	88
96454	2024-12-08T16:25:28	7.1	86.5
96455	2024-12-08T16:35:28	7	88.5
96456	2024-12-08T16:45:28	7	90
96457	2024-12-08T16:55:28	7	90.5
96458	2024-12-08T17:05:28	7.1	89.5
96459	2024-12-08T17:15:28	6.9	86.5
96460	2024-12-08T17:25:28	6.9	87.5
96461	2024-12-08T17:35:28	6.9	89
96462	2024-12-08T17:45:28	6.6	88.5
96463	2024-12-08T17:55:28	6.4	89
96464	2024-12-08T18:05:28	6.5	89.5
96465	2024-12-08T18:15:28	6.3	89
96466	2024-12-08T18:25:28	6.3	87
96467	2024-12-08T18:35:28	6.2	87.5
96468	2024-12-08T18:45:28	6.2	88
96469	2024-12-08T18:55:28	6.3	88
96470	2024-12-08T19:05:28	6.3	89.5
96471	2024-12-08T19:15:28	6.2	88.5
96472	2024-12-08T19:25:28	6.2	89
96473	2024-12-08T19:35:28	6.3	91
96474	2024-12-08T19:45:28	6.5	91.5
96475	2024-12-08T19:55:28	6.5	91.5
96476	2024-12-08T20:05:28	6.5	91.5
96477	2024-12-08T20:15:28	6.5	92
96478	2024-12-08T20:25:28	6.5	92
96479	2024-12-08T20:35:28	6.5	92.5
96480	2024-12-08T20:45:28	6.5	93
96481	2024-12-08T20:55:28	6.5	92
96482	2024-12-08T21:05:28	6.4	93
96483	2024-12-08T21:15:28	6.5	92.5
96484	2024-12-08T21:25:28	6.4	91.5
96485	2024-12-08T21:35:28	6.4	92.5
96486	2024-12-08T21:45:28	6.5	92.5
96487	2024-12-08T21:55:28	6.4	93
96488	2024-12-08T22:05:28	6.4	93
96489	2024-12-08T22:15:28	6.4	92
96490	2024-12-08T22:25:28	6.4	92.5
96491	2024-12-08T22:35:28	6.4	92.5
96492	2024-12-08T22:45:28	6.3	92.5
96493	2024-12-08T22:55:28	6.4	91.5
96494	2024-12-08T23:05:28	6.4	91.5
96495	2024-12-08T23:15:28	6.4	91.5
96496	2024-12-08T23:25:28	6.6	91.5
96497	2024-12-08T23:35:28	6.5	91.5
96498	2024-12-08T23:45:28	6.5	90.5
96499	2024-12-08T23:55:28	6.5	92
96500	2024-12-09T00:05:28	6.4	91.5
96501	2024-12-09T00:15:28	6.4	92
96502	2024-12-09T00:25:28	6.4	93
96503	2024-12-09T00:35:28	6.6	94
96504	2024-12-09T00:45:28	6.5	93.5
96505	2024-12-09T00:55:28	6.6	93.5
96506	2024-12-09T01:05:28	6.5	92.5
96507	2024-12-09T01:15:28	6.5	91.5
96508	2024-12-09T01:25:28	6.6	92.5
96509	2024-12-09T01:35:28	6.5	92
96510	2024-12-09T01:45:28	6.5	89.5
96511	2024-12-09T01:55:28	6.4	90.5
96512	2024-12-09T02:05:28	6.6	90
96513	2024-12-09T02:15:28	6.6	90
96514	2024-12-09T02:25:28	6.5	89
96515	2024-12-09T02:35:45	6.5	88
96516	2024-12-09T02:45:28	6.6	90
96517	2024-12-09T02:55:28	6.6	89
96518	2024-12-09T03:05:28	6.5	89.5
96519	2024-12-09T03:15:28	6.5	88.5
96520	2024-12-09T03:25:28	6.6	89
96521	2024-12-09T03:35:28	6.5	89.5
96522	2024-12-09T03:45:28	6.5	89.5
96523	2024-12-09T03:55:28	6.4	88
96524	2024-12-09T04:05:28	6.5	89.5
96525	2024-12-09T04:15:28	6.5	89.5
96526	2024-12-09T04:25:28	6.5	89
96527	2024-12-09T04:35:28	6.4	88.5
96528	2024-12-09T04:45:28	6.4	88
96529	2024-12-09T04:55:28	6.5	88.5
96530	2024-12-09T05:05:28	6.4	89
96531	2024-12-09T05:15:28	6.4	88
96532	2024-12-09T05:25:28	6.2	88.5
96533	2024-12-09T05:35:28	6.3	88.5
96534	2024-12-09T05:45:28	6.3	88
96535	2024-12-09T05:55:28	6.3	86.5
96536	2024-12-09T06:05:28	6.3	84.5
96537	2024-12-09T06:10:22	6.4	84.5
96538	2024-12-09T06:20:22	6.5	84.5
96539	2024-12-09T06:30:22	6.3	81.5
96540	2024-12-09T06:40:22	6.2	81.5
96541	2024-12-09T06:50:22	6.2	82
96542	2024-12-09T07:00:22	6.2	82
96543	2024-12-09T07:20:22	6.2	81
96544	2024-12-09T07:30:22	6.3	81.5
96545	2024-12-09T07:40:22	6.2	81.5
96546	2024-12-09T07:50:22	6.2	80.5
96547	2024-12-09T08:00:22	6.2	81.5
96548	2024-12-09T08:10:22	6.3	80
96549	2024-12-09T08:20:21	6.4	80
96550	2024-12-09T08:30:22	6.3	80
96551	2024-12-09T08:40:21	6.5	80
96552	2024-12-09T08:50:21	6.4	79
96553	2024-12-09T09:00:21	6.6	79.5
96554	2024-12-09T09:10:21	6.4	80
96555	2024-12-09T09:20:21	6.5	80.5
96556	2024-12-09T09:30:21	6.4	81.5
96557	2024-12-09T09:40:21	6.5	80
96558	2024-12-09T09:50:21	6.5	80
96559	2024-12-09T10:00:21	6.5	81
96560	2024-12-09T10:10:21	6.6	81
96561	2024-12-09T10:20:21	6.6	80
96562	2024-12-09T10:30:21	6.7	80.5
96563	2024-12-09T10:40:21	6.6	79
96564	2024-12-09T10:50:21	6.6	80
96565	2024-12-09T11:00:21	6.6	79
96566	2024-12-09T11:10:21	6.6	79.5
96567	2024-12-09T11:20:21	6.7	79
96568	2024-12-09T11:30:21	6.6	78.5
96569	2024-12-09T11:40:21	6.6	79
96570	2024-12-09T11:50:21	6.7	79
96571	2024-12-09T12:00:21	6.6	79.5
96572	2024-12-09T12:10:21	6.6	80
96573	2024-12-09T12:20:21	6.7	79
96574	2024-12-09T12:30:21	6.6	78.5
96575	2024-12-09T12:40:21	6.6	80
96576	2024-12-09T12:50:21	6.7	79.5
96577	2024-12-09T13:00:21	6.7	78.5
96578	2024-12-09T13:10:21	6.6	80
96579	2024-12-09T13:20:21	6.5	78.5
96580	2024-12-09T13:30:21	6.6	80
96581	2024-12-09T13:40:21	6.7	80.5
96582	2024-12-09T13:50:21	6.5	79
96583	2024-12-09T14:00:21	6.6	79.5
96584	2024-12-09T14:10:21	6.5	79
96585	2024-12-09T14:20:21	6.5	79.5
96586	2024-12-09T14:30:21	6.4	79
96587	2024-12-09T14:40:21	6.5	79.5
96588	2024-12-09T14:50:21	6.4	81
96589	2024-12-09T15:00:21	6.3	78
96590	2024-12-09T15:10:21	6.3	81
96591	2024-12-09T15:20:21	6.3	80
96592	2024-12-09T15:30:21	6.3	78.5
96593	2024-12-09T15:40:21	6.2	79
96594	2024-12-09T15:50:21	6.3	81
96595	2024-12-09T16:00:21	6.2	81
96596	2024-12-09T16:10:21	6.1	79.5
96597	2024-12-09T16:20:21	6.2	79.5
96598	2024-12-09T16:30:21	6.1	81.5
96599	2024-12-09T16:40:21	6.1	82
96600	2024-12-09T16:50:21	6.2	78.5
96601	2024-12-09T17:00:21	6	79.5
96602	2024-12-09T17:10:21	6	79
96603	2024-12-09T17:20:21	6	79
96604	2024-12-09T17:40:21	6	78.5
96605	2024-12-09T17:50:21	5.8	80
96606	2024-12-09T18:00:21	5.7	79
96607	2024-12-09T18:10:21	5.7	79.5
96608	2024-12-09T18:20:21	5.7	80.5
96609	2024-12-09T18:30:21	5.7	80
96610	2024-12-09T18:40:21	5.7	79
96611	2024-12-09T18:50:21	5.6	79.5
96612	2024-12-09T19:00:21	5.7	78
96613	2024-12-09T19:10:21	5.5	79
96614	2024-12-09T19:20:21	5.5	79.5
96615	2024-12-09T19:30:21	5.5	79.5
96616	2024-12-09T19:40:21	5.4	79.5
96617	2024-12-09T19:50:21	5.4	79.5
96618	2024-12-09T20:00:21	5.4	80
96619	2024-12-09T20:10:21	5.4	79.5
96620	2024-12-09T20:20:21	5.3	80
96621	2024-12-09T20:30:21	5.5	81
96622	2024-12-09T20:40:21	5.4	80.5
96623	2024-12-09T20:50:21	5.3	78.5
96624	2024-12-09T21:00:21	5.3	79
96625	2024-12-09T21:10:21	5.3	79
96626	2024-12-09T21:20:21	5.3	79
96627	2024-12-09T21:30:21	5.3	79
96628	2024-12-09T21:40:21	5.2	79.5
96629	2024-12-09T21:50:21	5.3	79.5
96630	2024-12-09T22:00:21	5.3	80.5
96631	2024-12-09T22:10:21	5.3	82
96632	2024-12-09T22:20:21	5.3	82
96633	2024-12-09T22:30:21	5.3	82.5
96634	2024-12-09T22:40:21	5.3	82.5
96635	2024-12-09T22:50:21	5.4	84.5
96636	2024-12-09T23:00:21	5.3	83.5
96637	2024-12-09T23:10:21	5.3	83
96638	2024-12-09T23:20:21	5.3	83.5
96639	2024-12-09T23:30:21	5.2	82.5
96640	2024-12-09T23:40:21	5.3	83
96641	2024-12-09T23:50:21	5.3	84
96642	2024-12-10T00:00:21	5.2	82.5
96643	2024-12-10T00:10:21	5.3	81.5
96644	2024-12-10T00:20:21	5.2	82.5
96645	2024-12-10T00:30:21	5.3	83
96646	2024-12-10T00:40:21	5.3	84
96647	2024-12-10T00:50:21	5.2	82
96648	2024-12-10T01:00:21	5.2	82.5
96649	2024-12-10T01:10:21	5.2	83.5
96650	2024-12-10T01:20:21	5.3	83.5
96651	2024-12-10T01:30:21	5.3	84
96652	2024-12-10T01:40:21	5.3	83
96653	2024-12-10T01:50:21	5.3	83.5
96654	2024-12-10T02:00:21	5.3	82.5
96655	2024-12-10T02:10:21	5.2	84
96656	2024-12-10T02:20:21	5.4	84
96657	2024-12-10T02:30:21	5.3	83
96658	2024-12-10T02:40:21	5.3	83.5
96659	2024-12-10T02:50:21	5.3	83
96660	2024-12-10T03:00:21	5.4	83
96661	2024-12-10T03:10:21	5.4	83.5
96662	2024-12-10T03:20:21	5.3	84.5
96663	2024-12-10T03:30:21	5.3	83.5
96664	2024-12-10T03:40:21	5.3	83
96665	2024-12-10T03:50:21	5.3	84
96666	2024-12-10T04:00:21	5.3	85
96667	2024-12-10T04:10:21	5.4	85
96668	2024-12-10T04:20:21	5.3	85
96669	2024-12-10T04:30:21	5.2	84.5
96670	2024-12-10T04:40:21	5.3	85
96671	2024-12-10T04:50:21	5.4	85
96672	2024-12-10T05:00:21	5.3	86.5
96673	2024-12-10T05:10:21	5.4	85
96674	2024-12-10T05:20:21	5.4	85
96675	2024-12-10T05:30:21	5.4	85
96676	2024-12-10T05:40:21	5.4	85
96677	2024-12-10T05:50:21	5.4	85
96678	2024-12-10T06:00:21	5.3	87
96679	2024-12-10T06:10:21	5.3	87.5
96680	2024-12-10T06:20:21	5.3	87.5
96681	2024-12-10T06:30:21	5.3	87.5
96682	2024-12-10T06:40:21	5.2	87.5
96683	2024-12-10T06:50:21	5.2	88
96684	2024-12-10T07:00:21	5.2	87.5
96685	2024-12-10T07:10:21	5.2	87.5
96686	2024-12-10T07:20:21	5.3	87
96687	2024-12-10T07:30:21	5.3	86.5
96688	2024-12-10T07:40:21	5.3	86.5
96689	2024-12-10T08:00:21	5.4	85.5
96690	2024-12-10T08:10:21	5.4	86.5
96691	2024-12-10T08:20:21	5.6	85.5
96692	2024-12-10T08:30:21	5.6	85.5
96693	2024-12-10T08:40:21	5.7	84.5
96694	2024-12-10T08:50:21	5.7	84
96695	2024-12-10T09:00:21	5.9	83.5
96696	2024-12-10T09:10:21	6.1	83.5
96697	2024-12-10T09:20:21	6.2	82.5
96698	2024-12-10T09:30:21	6.2	82.5
96699	2024-12-10T09:40:21	6.4	82
96700	2024-12-10T09:50:21	6.4	83.5
96701	2024-12-10T10:00:21	6.4	83
96702	2024-12-10T10:10:21	6.3	81.5
96703	2024-12-10T10:20:21	6.4	82
96704	2024-12-10T10:30:21	6.4	82.5
96705	2024-12-10T10:40:21	6.4	81.5
96706	2024-12-10T10:50:21	6.4	81
96707	2024-12-10T11:00:21	6.5	81
96708	2024-12-10T11:10:20	6.5	80.5
96709	2024-12-10T11:20:21	6.4	80.5
96710	2024-12-10T11:30:21	6.5	80
96711	2024-12-10T11:40:21	6.6	82.5
96712	2024-12-10T11:50:20	6.6	81
96713	2024-12-10T12:00:20	6.5	81.5
96714	2024-12-10T12:10:21	6.5	80
96715	2024-12-10T12:20:20	6.6	80
96716	2024-12-10T12:30:20	6.6	81.5
96717	2024-12-10T12:40:20	6.7	84.5
96718	2024-12-10T12:50:20	6.6	85.5
96719	2024-12-10T13:00:20	6.6	84
96720	2024-12-10T13:10:20	6.7	83.5
96721	2024-12-10T13:20:21	6.6	84.5
96722	2024-12-10T13:30:20	6.5	85
96723	2024-12-10T13:40:20	6.6	86.5
96724	2024-12-10T13:50:20	6.4	85
96725	2024-12-10T14:00:20	6.7	86.5
96726	2024-12-10T14:10:20	6.6	86
96727	2024-12-10T14:20:20	6.7	86
96728	2024-12-10T14:30:20	6.7	86
96729	2024-12-10T14:40:20	6.4	84.5
96730	2024-12-10T14:50:20	6.5	84.5
96731	2024-12-10T15:00:20	6.4	85
96732	2024-12-10T15:10:20	6.3	85
96733	2024-12-10T15:20:20	6.2	84.5
96734	2024-12-10T15:30:20	6.2	84
96735	2024-12-10T15:40:20	6.1	85
96736	2024-12-10T15:50:20	6.1	85
96737	2024-12-10T16:00:20	6.1	84
96738	2024-12-10T16:10:20	6	84.5
96739	2024-12-10T16:20:20	6	85.5
96740	2024-12-10T16:30:20	6.1	84
96741	2024-12-10T16:40:20	5.9	84
96742	2024-12-10T16:50:20	5.9	84.5
96743	2024-12-10T17:00:20	5.9	85
96744	2024-12-10T17:10:20	5.9	84.5
96745	2024-12-10T17:20:20	5.8	85
96746	2024-12-10T17:30:20	5.8	85
96747	2024-12-10T17:40:20	5.9	84.5
96748	2024-12-10T17:50:20	5.8	85.5
96749	2024-12-10T18:00:20	5.8	85.5
96750	2024-12-10T18:10:20	5.8	86.5
96751	2024-12-10T18:20:20	5.8	85
96752	2024-12-10T18:30:20	5.8	85.5
96753	2024-12-10T18:40:20	5.8	86
96754	2024-12-10T18:50:20	5.8	86.5
96755	2024-12-10T19:00:20	5.7	86
96756	2024-12-10T19:10:20	5.8	86.5
96757	2024-12-10T19:20:20	5.7	87.5
96758	2024-12-10T19:30:20	5.7	86.5
96759	2024-12-10T19:40:20	5.8	86
96760	2024-12-10T19:50:20	5.7	86
96761	2024-12-10T20:00:20	5.8	86.5
96762	2024-12-10T20:10:20	5.7	86
96763	2024-12-10T20:20:20	5.6	87
96764	2024-12-10T20:30:20	5.6	86.5
96765	2024-12-10T20:40:20	5.7	86.5
96766	2024-12-10T20:50:20	5.6	86
96767	2024-12-10T21:00:20	5.5	86
96768	2024-12-10T21:10:20	5.6	87
96769	2024-12-10T21:20:20	5.6	86.5
96770	2024-12-10T21:30:20	5.4	86.5
96771	2024-12-10T21:40:20	5.6	88
96772	2024-12-10T21:50:20	5.6	87.5
96773	2024-12-10T22:00:20	5.5	87.5
96774	2024-12-10T22:10:20	5.4	86.5
96775	2024-12-10T22:20:20	5.5	86.5
96776	2024-12-10T22:30:20	5.5	86.5
96777	2024-12-10T22:40:20	5.4	87.5
96778	2024-12-10T22:50:20	5.5	87
96779	2024-12-10T23:00:20	5.3	86
96780	2024-12-10T23:10:20	5.5	87
96781	2024-12-10T23:20:20	5.3	86
96782	2024-12-10T23:30:20	5.4	86.5
96783	2024-12-10T23:40:20	5.3	86
96784	2024-12-10T23:50:20	5.4	86
96785	2024-12-11T00:00:20	5.4	86.5
96786	2024-12-11T00:10:20	5.3	85.5
96787	2024-12-11T00:20:20	5.4	86.5
96788	2024-12-11T00:30:20	5.4	86.5
96789	2024-12-11T00:40:20	5.4	87
96790	2024-12-11T00:50:20	5.4	86.5
96791	2024-12-11T01:00:20	5.5	87
96792	2024-12-11T01:10:20	5.4	86.5
96793	2024-12-11T01:20:20	5.4	86.5
96794	2024-12-11T01:30:20	5.4	86.5
96795	2024-12-11T01:40:20	5.4	86.5
96796	2024-12-11T01:50:20	5.3	87.5
96797	2024-12-11T02:00:20	5.4	86.5
96798	2024-12-11T02:10:20	5.4	87
96799	2024-12-11T02:20:20	5.4	86
96800	2024-12-11T02:30:20	5.3	85
96801	2024-12-11T02:40:20	5.2	85.5
96802	2024-12-11T02:50:20	5.3	86
96803	2024-12-11T03:00:20	5.3	84.5
96804	2024-12-11T03:10:20	5.2	84
96805	2024-12-11T03:20:20	5.2	85
96806	2024-12-11T03:30:20	5.2	85
96807	2024-12-11T03:40:20	5.2	86.5
96808	2024-12-11T03:50:20	5	85
96809	2024-12-11T04:00:20	5.2	85.5
96810	2024-12-11T04:10:20	5.1	85.5
96811	2024-12-11T04:20:20	5.2	85.5
96812	2024-12-11T04:30:20	5.1	86
96813	2024-12-11T04:40:20	5.2	85.5
96814	2024-12-11T04:50:20	5.1	86
96815	2024-12-11T05:00:20	5.1	86.5
96816	2024-12-11T05:10:20	5.1	86.5
96817	2024-12-11T05:20:20	5	86.5
96818	2024-12-11T05:30:20	5.1	86.5
96819	2024-12-11T05:40:20	5.1	87
96820	2024-12-11T05:50:20	5.1	86
96821	2024-12-11T06:00:20	5.1	87
96822	2024-12-11T06:10:20	5	86.5
96823	2024-12-11T06:20:20	5	86.5
96824	2024-12-11T06:30:20	5.1	87
96825	2024-12-11T06:40:20	5.1	88
96826	2024-12-11T06:50:20	5.1	87.5
96827	2024-12-11T07:00:20	5.2	86.5
96828	2024-12-11T07:10:20	5.1	87
96829	2024-12-11T07:20:20	5.2	87
96830	2024-12-11T07:30:20	5	86.5
96831	2024-12-11T07:40:20	5.1	86
96832	2024-12-11T07:50:20	5	86
96833	2024-12-11T08:00:20	5.1	86.5
96834	2024-12-11T08:10:20	5.2	86.5
96835	2024-12-11T08:20:20	5.1	86.5
96836	2024-12-11T08:30:20	5.2	86.5
96837	2024-12-11T08:40:20	5.2	85
96838	2024-12-11T08:50:20	5.2	86
96839	2024-12-11T09:00:20	5.3	85.5
96840	2024-12-11T09:10:20	5.3	85.5
96841	2024-12-11T09:20:20	5.2	84.5
96842	2024-12-11T09:30:20	5.3	85.5
96843	2024-12-11T09:40:20	5.4	84
96844	2024-12-11T09:50:20	5.4	85
96845	2024-12-11T10:00:20	5.5	84.5
96846	2024-12-11T10:10:20	5.5	84
96847	2024-12-11T10:20:20	5.5	84.5
96848	2024-12-11T10:30:20	5.7	84
96849	2024-12-11T10:40:20	5.6	84
96850	2024-12-11T10:50:20	5.7	83.5
96851	2024-12-11T11:00:20	5.7	82
96852	2024-12-11T11:10:20	5.7	83
96853	2024-12-11T11:20:20	5.7	82.5
96854	2024-12-11T11:30:20	5.7	83
96855	2024-12-11T11:40:20	5.7	82
96856	2024-12-11T11:50:20	5.7	83.5
96857	2024-12-11T12:00:20	5.7	82
96858	2024-12-11T12:10:20	5.7	81.5
96859	2024-12-11T12:20:20	5.8	82
96860	2024-12-11T12:30:20	5.8	82.5
96861	2024-12-11T12:40:20	5.8	81.5
96862	2024-12-11T12:50:20	5.8	81.5
96863	2024-12-11T13:00:20	5.9	81
96864	2024-12-11T13:10:20	5.8	82
96865	2024-12-11T13:20:20	5.9	81
96866	2024-12-11T13:30:20	5.9	81
96867	2024-12-11T13:40:20	6	80.5
96868	2024-12-11T13:50:20	5.8	81.5
96869	2024-12-11T14:00:20	5.8	81
96870	2024-12-11T14:10:20	5.8	80
96871	2024-12-11T14:20:20	5.6	80.5
96872	2024-12-11T14:30:20	5.6	80.5
96873	2024-12-11T14:40:20	5.6	82
96874	2024-12-11T14:50:20	5.6	81.5
96875	2024-12-11T15:00:19	5.4	81.5
96876	2024-12-11T15:10:19	5.5	82
96877	2024-12-11T15:20:19	5.5	81.5
96878	2024-12-11T15:30:19	5.4	82.5
96879	2024-12-11T15:40:20	5.3	82
96880	2024-12-11T15:50:19	5.3	83
96881	2024-12-11T16:00:19	5.2	82.5
96882	2024-12-11T16:10:19	5.1	81.5
96883	2024-12-11T16:20:19	5.2	82.5
96884	2024-12-11T16:30:20	5	82.5
96885	2024-12-11T16:40:19	5.1	81.5
96886	2024-12-11T16:50:19	4.9	81.5
96887	2024-12-11T17:00:19	4.9	82.5
96888	2024-12-11T17:10:19	4.9	84
96889	2024-12-11T17:20:19	5	82.5
96890	2024-12-11T17:30:19	5	83.5
96891	2024-12-11T17:40:19	4.9	83.5
96892	2024-12-11T17:50:19	4.9	85
96893	2024-12-11T18:00:20	4.9	82.5
96894	2024-12-11T18:10:19	4.9	83
96895	2024-12-11T18:20:19	4.9	83.5
96896	2024-12-11T18:30:19	5	84
96897	2024-12-11T18:40:19	4.9	83.5
96898	2024-12-11T18:50:19	4.9	84.5
96899	2024-12-11T19:00:19	5	85
96900	2024-12-11T19:10:19	5.1	86
96901	2024-12-11T19:20:19	4.9	85
96902	2024-12-11T19:30:19	4.9	84
96903	2024-12-11T19:40:19	4.9	83.5
96904	2024-12-11T19:50:19	5	84.5
96905	2024-12-11T20:00:19	4.9	85.5
96906	2024-12-11T20:10:19	5	84.5
96907	2024-12-11T20:20:19	5	84
96908	2024-12-11T20:30:19	5	85
96909	2024-12-11T20:40:19	4.9	85.5
96910	2024-12-11T20:50:19	4.9	84.5
96911	2024-12-11T21:00:19	4.9	85.5
96912	2024-12-11T21:10:19	5	85
96913	2024-12-11T21:20:19	4.9	84.5
96914	2024-12-11T21:30:19	4.9	86
96915	2024-12-11T21:40:19	4.9	85.5
96916	2024-12-11T21:50:19	4.8	85
96917	2024-12-11T22:00:19	4.8	85.5
96918	2024-12-11T22:10:19	4.9	85
96919	2024-12-11T22:20:19	4.7	84
96920	2024-12-11T22:30:19	4.7	84
96921	2024-12-11T22:40:19	4.8	83
96922	2024-12-11T22:50:19	4.7	82.5
96923	2024-12-11T23:00:19	4.7	83
96924	2024-12-11T23:10:19	4.7	83
96925	2024-12-11T23:20:19	4.6	82.5
96926	2024-12-11T23:30:19	4.5	82.5
96927	2024-12-11T23:40:19	4.6	83.5
96928	2024-12-11T23:50:19	4.5	84.5
96929	2024-12-12T00:00:19	4.6	82.5
96930	2024-12-12T00:10:19	4.5	84
96931	2024-12-12T00:20:19	4.5	82
96932	2024-12-12T00:30:19	4.4	83.5
96933	2024-12-12T00:40:19	4.3	84
96934	2024-12-12T00:50:19	4.5	85
96935	2024-12-12T01:00:19	4.4	85.5
96936	2024-12-12T01:10:19	4.3	85
96937	2024-12-12T01:20:19	4.2	84
96938	2024-12-12T01:30:19	4.4	86
96939	2024-12-12T01:40:19	4.3	85
96940	2024-12-12T01:50:19	4.1	85
96941	2024-12-12T02:00:19	4.3	85.5
96942	2024-12-12T02:10:19	4.2	86
96943	2024-12-12T02:20:19	4.2	86
96944	2024-12-12T02:30:19	4.3	88
96945	2024-12-12T02:40:19	4.3	86.5
96946	2024-12-12T02:50:19	4.3	86.5
96947	2024-12-12T03:00:19	4.4	87.5
96948	2024-12-12T03:10:19	4.4	88
96949	2024-12-12T03:20:19	4.5	88
96950	2024-12-12T03:30:19	4.4	88.5
96951	2024-12-12T03:40:19	4.4	88
96952	2024-12-12T03:50:19	4.4	88
96953	2024-12-12T04:00:19	4.3	87.5
96954	2024-12-12T04:10:19	4.3	88
96955	2024-12-12T04:20:19	4.3	87.5
96956	2024-12-12T04:30:19	4.3	88.5
96957	2024-12-12T04:40:19	4.5	89
96958	2024-12-12T04:50:19	4.4	88
96959	2024-12-12T05:00:19	4.3	89
96960	2024-12-12T05:10:19	4.4	87.5
96961	2024-12-12T05:20:19	4.4	88
96962	2024-12-12T05:30:19	4.4	87
96963	2024-12-12T05:40:19	4.5	87.5
96964	2024-12-12T05:50:19	4.4	88.5
96965	2024-12-12T06:00:19	4.4	89
96966	2024-12-12T06:10:19	4.5	89
96967	2024-12-12T06:20:19	4.5	89.5
96968	2024-12-12T06:30:19	4.5	89
96969	2024-12-12T06:40:19	4.5	88.5
96970	2024-12-12T06:50:19	4.5	88
96971	2024-12-12T07:00:19	4.4	87
96972	2024-12-12T07:10:19	4.3	87
96973	2024-12-12T07:20:19	4.4	88
96974	2024-12-12T07:30:19	4.5	87
96975	2024-12-12T07:40:19	4.5	88.5
96976	2024-12-12T07:50:19	4.4	87.5
96977	2024-12-12T08:00:19	4.6	87
96978	2024-12-12T08:10:19	4.5	86
96979	2024-12-12T08:20:19	4.6	87.5
96980	2024-12-12T08:30:19	4.4	86
96981	2024-12-12T08:40:19	4.6	85.5
96982	2024-12-12T08:50:19	4.7	86.5
96983	2024-12-12T09:00:19	4.8	85.5
96984	2024-12-12T09:10:19	4.7	86
96985	2024-12-12T09:20:19	4.7	85
96986	2024-12-12T09:30:19	4.7	85
96987	2024-12-12T09:50:19	4.8	85
96988	2024-12-12T10:00:19	4.9	84
96989	2024-12-12T10:10:19	4.9	84
96990	2024-12-12T10:20:19	4.9	84
96991	2024-12-12T10:30:19	4.9	84.5
96992	2024-12-12T10:40:19	5	83.5
96993	2024-12-12T10:50:19	5	84.5
96994	2024-12-12T11:00:19	4.9	84
96995	2024-12-12T11:10:19	5.1	85
96996	2024-12-12T11:20:19	5.1	84.5
96997	2024-12-12T11:30:19	5.2	84.5
96998	2024-12-12T11:40:19	5.2	82
96999	2024-12-12T11:50:19	5.2	83.5
97000	2024-12-12T12:00:19	5.3	84
97001	2024-12-12T12:10:19	5.4	83
97002	2024-12-12T12:20:19	5.4	83.5
97003	2024-12-12T12:30:19	5.4	82
97004	2024-12-12T12:40:19	5.5	83.5
97005	2024-12-12T12:50:19	5.5	84
97006	2024-12-12T13:00:19	5.6	81.5
97007	2024-12-12T13:10:19	5.6	82
97008	2024-12-12T13:20:19	5.6	83
97009	2024-12-12T13:30:19	5.7	83.5
97010	2024-12-12T13:40:19	5.5	84.5
97011	2024-12-12T13:50:19	5.6	84
97012	2024-12-12T14:00:19	5.6	83.5
97013	2024-12-12T14:10:19	5.8	82.5
97014	2024-12-12T14:20:19	5.6	81.5
97015	2024-12-12T14:30:19	5.6	83
97016	2024-12-12T14:40:19	5.6	82.5
97017	2024-12-12T14:50:19	5.5	81.5
97018	2024-12-12T15:00:19	5.4	83
97019	2024-12-12T15:10:19	5.4	83
97020	2024-12-12T15:20:19	5.4	83.5
97021	2024-12-12T15:30:19	5.3	84
97022	2024-12-12T15:40:19	5.3	83
97023	2024-12-12T15:50:19	5.3	83.5
97024	2024-12-12T16:00:19	5.3	84
97025	2024-12-12T16:10:19	5.3	83.5
97026	2024-12-12T16:20:19	5.2	83
97027	2024-12-12T16:30:19	5.1	82.5
97028	2024-12-12T16:40:19	5.2	84
97029	2024-12-12T16:50:19	5.2	82.5
97030	2024-12-12T17:00:19	5.1	83
97031	2024-12-12T17:10:19	5.1	83
97032	2024-12-12T17:20:19	5	83
97033	2024-12-12T17:30:19	5	83
97034	2024-12-12T17:40:19	5	82.5
97035	2024-12-12T17:50:19	4.9	82.5
97036	2024-12-12T18:00:19	5	83
97037	2024-12-12T18:10:19	5	83
97038	2024-12-12T18:20:19	4.9	81.5
97039	2024-12-12T18:30:19	5	82.5
97040	2024-12-12T18:40:19	5.1	84
97041	2024-12-12T18:50:19	5	83
97042	2024-12-12T19:00:19	4.9	82
97043	2024-12-12T19:10:19	4.9	83
97044	2024-12-12T19:20:19	4.9	81
97045	2024-12-12T19:30:19	4.9	82
97046	2024-12-12T19:40:19	4.9	82
97047	2024-12-12T19:50:19	4.9	83
97048	2024-12-12T20:00:19	4.9	83.5
97049	2024-12-12T20:10:19	4.9	82.5
97050	2024-12-12T20:20:19	4.8	82.5
97051	2024-12-12T20:30:19	4.8	81.5
97052	2024-12-12T20:40:19	4.7	82
97053	2024-12-12T20:50:19	4.7	83
97054	2024-12-12T21:00:19	4.7	82.5
97055	2024-12-12T21:10:19	4.6	82.5
97056	2024-12-12T21:20:19	4.6	81.5
97057	2024-12-12T21:30:19	4.7	81.5
97058	2024-12-12T21:40:19	4.6	81
97059	2024-12-12T21:50:19	4.6	83
97060	2024-12-12T22:00:19	4.6	82.5
97061	2024-12-12T22:10:19	4.6	81.5
97062	2024-12-12T22:20:19	4.6	82
97063	2024-12-12T22:30:19	4.6	81
97064	2024-12-12T22:40:19	4.6	82
97065	2024-12-12T22:50:19	4.4	81
97066	2024-12-12T23:00:19	4.4	83
97067	2024-12-12T23:10:18	4.3	82
97068	2024-12-12T23:20:19	4.2	82.5
97069	2024-12-12T23:30:19	4.1	83.5
97070	2024-12-12T23:40:19	4	85
97071	2024-12-12T23:50:18	3.9	84
97072	2024-12-13T00:00:19	3.7	83.5
97073	2024-12-13T00:10:18	3.6	85
97074	2024-12-13T00:20:18	3.5	82
97075	2024-12-13T00:30:18	3.5	85
97076	2024-12-13T00:40:18	3.4	84.5
97077	2024-12-13T00:50:18	3.4	84.5
97078	2024-12-13T01:00:18	3.2	86
97079	2024-12-13T01:20:18	3	84
97080	2024-12-13T01:30:18	3	85.5
97081	2024-12-13T01:40:18	2.9	86.5
97082	2024-12-13T01:50:18	2.8	86.5
97083	2024-12-13T02:00:18	2.7	86.5
97084	2024-12-13T02:10:18	2.7	87
97085	2024-12-13T02:20:18	2.6	86
97086	2024-12-13T02:30:18	2.6	84.5
97087	2024-12-13T02:40:18	2.5	85.5
97088	2024-12-13T02:50:18	2.5	85.5
97089	2024-12-13T03:00:18	2.5	87
97090	2024-12-13T03:10:18	2.5	87
97091	2024-12-13T03:20:18	2.3	86.5
97092	2024-12-13T03:30:18	2.5	87
97093	2024-12-13T03:40:18	2.6	87
97094	2024-12-13T03:50:18	2.8	87
97095	2024-12-13T04:00:18	2.8	87
97096	2024-12-13T04:10:18	2.8	86.5
97097	2024-12-13T04:20:18	2.9	87.5
97098	2024-12-13T04:30:18	2.8	87.5
97099	2024-12-13T04:40:18	2.9	87.5
97100	2024-12-13T04:50:18	2.8	87.5
97101	2024-12-13T05:00:18	2.9	88
97102	2024-12-13T05:10:18	3	88
97103	2024-12-13T05:20:18	2.9	87
97104	2024-12-13T05:30:18	2.9	88.5
97105	2024-12-13T05:40:18	2.9	88
97106	2024-12-13T05:50:18	2.8	88.5
97107	2024-12-13T06:00:18	2.8	88.5
97108	2024-12-13T06:10:18	2.6	87
97109	2024-12-13T06:20:18	2.8	87.5
97110	2024-12-13T06:30:18	2.7	87.5
97111	2024-12-13T06:40:18	2.6	86.5
97112	2024-12-13T06:50:18	2.4	85
97113	2024-12-13T07:00:18	2.2	84.5
97114	2024-12-13T07:10:18	2.1	87.5
97115	2024-12-13T07:20:18	2	88
97116	2024-12-13T07:30:18	2	88.5
97117	2024-12-13T07:40:18	1.8	87
97118	2024-12-13T07:50:18	1.9	87.5
97119	2024-12-13T08:00:18	1.9	89
97120	2024-12-13T08:10:18	1.8	89
97121	2024-12-13T08:20:18	1.8	88.5
97122	2024-12-13T08:30:18	1.9	88.5
97123	2024-12-13T08:40:18	1.9	87
97124	2024-12-13T08:50:18	2.1	87.5
97125	2024-12-13T09:00:18	2.2	86.5
97126	2024-12-13T09:10:18	2.2	86
97127	2024-12-13T09:20:18	2.4	86.5
97128	2024-12-13T09:30:18	2.3	84.5
97129	2024-12-13T09:40:18	2.7	86
97130	2024-12-13T09:50:18	2.7	86
97131	2024-12-13T10:00:18	2.9	85
97132	2024-12-13T10:10:18	2.9	83
97133	2024-12-13T10:20:18	3.1	82.5
97134	2024-12-13T10:30:18	3.3	84
97135	2024-12-13T10:40:18	3.4	84
97136	2024-12-13T10:50:18	3.5	83.5
97137	2024-12-13T11:00:19	3.8	84
97138	2024-12-13T11:10:18	4.1	82
97139	2024-12-13T11:20:18	4.3	81.5
97140	2024-12-13T11:30:18	5.1	77.5
97141	2024-12-13T11:40:18	6.5	76
97142	2024-12-13T11:50:18	6.3	75.5
97143	2024-12-13T12:00:18	6.5	74.5
97144	2024-12-13T12:10:18	7.6	74.5
97145	2024-12-13T12:20:18	9.5	71.5
97146	2024-12-13T12:30:18	10.7	67.5
97147	2024-12-13T12:40:18	11.9	63
97148	2024-12-13T12:50:18	12.5	60.5
97149	2024-12-13T13:00:18	13	58.5
97150	2024-12-13T13:10:18	13.2	50.5
97151	2024-12-13T13:20:18	13.8	58
97152	2024-12-13T13:30:18	13.5	54
97153	2024-12-13T13:40:18	13.7	53.5
97154	2024-12-13T13:50:18	13.9	52.5
97155	2024-12-13T14:00:18	14.1	56.5
97156	2024-12-13T14:10:18	14.3	51.5
97157	2024-12-13T14:20:18	13.5	52.5
97158	2024-12-13T14:30:18	12.9	55.5
97159	2024-12-13T14:40:18	12.6	55.5
97160	2024-12-13T14:50:18	11.6	56.5
97161	2024-12-13T15:00:18	10.9	64
97162	2024-12-13T15:10:18	10.2	62.5
97163	2024-12-13T15:20:18	9.8	68
97164	2024-12-13T15:30:18	9.3	68.5
97165	2024-12-13T15:40:18	8.8	70.5
97166	2024-12-13T15:50:18	8.4	71
97167	2024-12-13T16:00:18	8.2	72.5
97168	2024-12-13T16:10:18	8	73.5
97169	2024-12-13T16:20:18	7.5	70
97170	2024-12-13T16:30:18	7.4	74
97171	2024-12-13T16:40:18	7	71.5
97172	2024-12-13T16:50:18	6.8	73
97173	2024-12-13T17:00:18	6.5	75
97174	2024-12-13T17:10:18	6.4	76
97175	2024-12-13T17:20:18	6.1	76.5
97176	2024-12-13T17:30:18	5.9	75.5
97177	2024-12-13T17:40:18	5.7	77.5
97178	2024-12-13T17:50:18	5.4	78
97179	2024-12-13T18:00:18	5.2	78
97180	2024-12-13T18:10:18	5	77
97181	2024-12-13T18:20:18	4.8	74.5
97182	2024-12-13T18:30:18	4.7	78.5
97183	2024-12-13T18:40:18	4.6	79.5
97184	2024-12-13T18:50:18	4.3	80
97185	2024-12-13T19:00:18	4	80
97186	2024-12-13T19:10:18	4	80
97187	2024-12-13T19:20:18	3.8	81
97188	2024-12-13T19:30:18	3.7	81.5
97189	2024-12-13T19:40:18	3.5	81.5
97190	2024-12-13T19:50:18	3.4	81.5
97191	2024-12-13T20:00:18	3.2	82
97192	2024-12-13T20:10:18	3.1	82.5
97193	2024-12-13T20:20:18	2.9	82.5
97194	2024-12-13T20:30:18	2.8	82.5
97195	2024-12-13T20:40:18	2.7	82.5
97196	2024-12-13T20:50:18	2.6	82.5
97197	2024-12-13T21:00:18	2.5	83
97198	2024-12-13T21:10:18	2.4	82.5
97199	2024-12-13T21:20:18	2.3	83.5
97200	2024-12-13T21:30:18	2.1	83.5
97201	2024-12-13T21:40:18	2	83.5
97202	2024-12-13T21:50:18	2	84
97203	2024-12-13T22:00:18	1.9	84
97204	2024-12-13T22:10:18	1.8	84
97205	2024-12-13T22:20:18	1.8	84.5
97206	2024-12-13T22:30:18	1.8	83
97207	2024-12-13T22:40:18	1.6	84
97208	2024-12-13T22:50:18	1.6	84.5
97209	2024-12-13T23:00:18	1.5	84.5
97210	2024-12-13T23:10:18	1.5	84.5
97211	2024-12-13T23:20:18	1.6	85
97212	2024-12-13T23:30:18	1.6	83.5
97213	2024-12-13T23:40:18	1.6	85
97214	2024-12-13T23:50:18	1.5	85
97215	2024-12-14T00:00:18	1.5	85.5
97216	2024-12-14T00:10:18	1.4	85
97217	2024-12-14T00:20:18	1.2	85
97218	2024-12-14T00:30:18	1.2	86
97219	2024-12-14T00:40:18	1.1	86
97220	2024-12-14T00:50:18	1	86
97221	2024-12-14T01:00:18	1.1	86
97222	2024-12-14T01:10:18	1	86.5
97223	2024-12-14T01:20:18	1	86.5
97224	2024-12-14T01:30:18	1	86
97225	2024-12-14T01:40:18	0.8	86.5
97226	2024-12-14T01:50:18	0.7	87
97227	2024-12-14T02:00:18	0.6	87
97228	2024-12-14T02:10:18	0.5	87
97229	2024-12-14T02:20:18	0.5	87.5
97230	2024-12-14T02:30:18	0.4	87
97231	2024-12-14T02:40:18	0.6	87
97232	2024-12-14T02:50:18	0.7	87
97233	2024-12-14T03:00:18	0.7	86.5
97234	2024-12-14T03:10:18	0.8	86.5
97235	2024-12-14T03:20:18	1	86.5
97236	2024-12-14T03:30:18	0.9	86
97237	2024-12-14T03:40:18	1.1	86.5
97238	2024-12-14T03:50:18	1.1	86.5
97239	2024-12-14T04:00:18	1.1	87
97240	2024-12-14T04:10:18	1.2	87.5
97241	2024-12-14T04:20:18	1	87.5
97242	2024-12-14T04:30:18	1.1	88
97243	2024-12-14T04:40:18	0.9	88.5
97244	2024-12-14T04:50:18	0.8	88.5
97245	2024-12-14T05:00:18	0.7	88.5
97246	2024-12-14T05:10:18	0.6	88.5
97247	2024-12-14T05:20:18	0.6	88.5
97248	2024-12-14T05:30:18	0.5	89.5
97249	2024-12-14T05:40:18	0.4	89.5
97250	2024-12-14T05:50:18	0.3	89
97251	2024-12-14T06:00:18	0.4	88.5
97252	2024-12-14T06:10:18	0.2	88.5
97253	2024-12-14T06:20:18	0	90
97254	2024-12-14T06:30:18	0.1	90.5
97255	2024-12-14T06:40:35	0.1	90.5
97256	2024-12-14T06:50:18	0.2	90.5
97257	2024-12-14T07:00:18	0.1	91
97258	2024-12-14T07:10:18	0.1	91.5
97259	2024-12-14T07:20:18	0	90.5
97260	2024-12-14T07:30:18	0	90
97261	2024-12-14T07:40:18	0	90
97262	2024-12-14T07:50:18	0	90.5
97263	2024-12-14T08:00:18	-0.2	91.5
97264	2024-12-14T08:10:18	-0.1	92.5
97265	2024-12-14T08:20:18	0	92.5
97266	2024-12-14T08:30:18	0	93
97267	2024-12-14T08:40:18	0	93.5
97268	2024-12-14T08:50:18	0.1	93
97269	2024-12-14T09:00:18	0.2	93.5
97270	2024-12-14T09:10:18	0.4	93.5
97271	2024-12-14T09:20:18	0.5	93.5
97272	2024-12-14T09:30:18	0.7	93.5
97273	2024-12-14T09:40:18	1	93
97274	2024-12-14T09:50:18	1.3	91.5
97275	2024-12-14T10:00:18	1.7	90.5
97276	2024-12-14T10:10:18	2	89.5
97277	2024-12-14T10:20:18	2.3	89
97278	2024-12-14T10:30:18	2.5	88.5
97279	2024-12-14T10:40:18	2.7	88.5
97280	2024-12-14T10:50:18	2.7	88.5
97281	2024-12-14T11:00:18	2.7	89
97282	2024-12-14T11:10:18	2.7	89
97283	2024-12-14T11:20:18	2.9	89
97284	2024-12-14T11:30:18	2.9	89
97285	2024-12-14T11:40:18	3	89.5
97286	2024-12-14T11:50:18	3	89.5
97287	2024-12-14T12:00:18	3.1	90
97288	2024-12-14T12:10:18	3.1	90
97289	2024-12-14T12:20:18	3.2	89
97290	2024-12-14T12:30:18	3.3	88
97291	2024-12-14T12:40:18	3.2	88
97292	2024-12-14T12:50:18	3.3	87.5
97293	2024-12-14T13:00:18	3.3	87.5
97294	2024-12-14T13:10:18	3.3	87.5
97295	2024-12-14T13:20:18	3.4	87
97296	2024-12-14T13:30:18	3.4	87.5
97297	2024-12-14T13:40:18	3.4	87.5
97298	2024-12-14T13:50:18	3.2	88
97299	2024-12-14T14:00:18	3.3	88
97300	2024-12-14T14:10:18	3.2	88
97301	2024-12-14T14:20:18	3.2	86
97302	2024-12-14T14:30:18	3.1	85.5
97303	2024-12-14T14:40:18	3	85.5
97304	2024-12-14T14:50:18	2.9	85.5
97305	2024-12-14T15:00:18	3.1	85.5
97306	2024-12-14T15:10:18	3	84.5
97307	2024-12-14T15:20:18	3	83.5
97308	2024-12-14T15:30:18	2.8	84
97309	2024-12-14T15:40:18	2.8	82.5
97310	2024-12-14T15:50:18	2.7	82.5
97311	2024-12-14T16:00:18	2.6	83
97312	2024-12-14T16:10:18	2.7	83.5
97313	2024-12-14T16:20:18	2.7	83.5
97314	2024-12-14T16:30:18	2.7	83
97315	2024-12-14T16:40:18	2.6	83.5
97316	2024-12-14T16:50:18	2.4	83.5
97317	2024-12-14T17:00:18	2.6	85
97318	2024-12-14T17:10:18	2.6	85
97319	2024-12-14T17:20:18	2.6	85
97320	2024-12-14T17:30:18	2.6	85
97321	2024-12-14T17:40:18	2.5	85
97322	2024-12-14T17:50:18	2.7	85.5
97323	2024-12-14T18:00:18	2.7	85
97324	2024-12-14T18:10:18	2.8	86
97325	2024-12-14T18:20:18	2.7	86.5
97326	2024-12-14T18:30:18	2.8	87
97327	2024-12-14T18:40:18	2.9	87.5
97328	2024-12-14T18:50:18	2.9	87.5
97329	2024-12-14T19:10:18	2.9	88.5
97330	2024-12-14T19:20:18	3	89
97331	2024-12-14T19:30:18	2.9	88.5
97332	2024-12-14T19:40:18	2.9	89
97333	2024-12-14T19:50:18	2.9	91
97334	2024-12-14T20:00:18	2.6	95.5
97335	2024-12-14T20:10:18	2.5	96.5
97336	2024-12-14T20:20:18	2.5	96.5
97337	2024-12-14T20:30:18	2.5	96
97338	2024-12-14T20:40:18	2.6	95.5
97339	2024-12-14T20:50:18	2.5	94.5
97340	2024-12-14T21:00:18	2.5	94
97341	2024-12-14T21:10:18	2.7	93.5
97342	2024-12-14T21:20:18	2.7	93
97343	2024-12-14T21:30:18	2.7	93
97344	2024-12-14T21:40:18	2.8	93.5
97345	2024-12-14T21:50:18	2.9	93.5
97346	2024-12-14T22:00:18	2.9	93.5
97347	2024-12-14T22:10:18	3	93.5
97348	2024-12-14T22:20:18	3	93
97349	2024-12-14T22:30:18	3	92.5
97350	2024-12-14T22:40:18	3.1	92.5
97351	2024-12-14T22:50:18	3.2	92.5
97352	2024-12-14T23:00:18	3.1	92
97353	2024-12-14T23:10:18	3.2	91.5
97354	2024-12-14T23:20:18	3.3	91.5
97355	2024-12-14T23:30:18	3.3	91
97356	2024-12-14T23:40:18	3.4	90.5
97357	2024-12-14T23:50:18	3.4	90.5
97358	2024-12-15T00:00:18	3.4	90.5
97359	2024-12-15T00:10:18	3.4	90
97360	2024-12-15T00:20:18	3.3	90
97361	2024-12-15T00:30:18	3.4	90
97362	2024-12-15T00:40:18	3.4	90.5
97363	2024-12-15T00:50:18	3.5	90.5
97364	2024-12-15T01:00:18	3.4	90.5
97365	2024-12-15T01:10:18	3.5	91
97366	2024-12-15T01:20:18	3.1	95.5
97367	2024-12-15T01:40:18	3.1	95.5
97368	2024-12-15T01:50:18	3.1	95
97369	2024-12-15T02:00:18	3.1	94.5
97370	2024-12-15T02:10:17	3.3	94
97371	2024-12-15T02:20:18	3.3	94
97372	2024-12-15T02:30:18	3.3	93.5
97373	2024-12-15T02:40:17	3.4	93
97374	2024-12-15T02:50:18	3.4	92.5
97375	2024-12-15T03:00:18	3.3	91.5
97376	2024-12-15T03:10:18	3.4	91
97377	2024-12-15T03:20:17	3.5	90.5
97378	2024-12-15T03:30:17	3.6	89.5
97379	2024-12-15T03:40:17	3.6	88
97380	2024-12-15T03:50:17	3.6	87.5
97381	2024-12-15T04:00:17	3.6	86.5
97382	2024-12-15T04:10:17	3.6	86
97383	2024-12-15T04:20:17	3.5	86.5
97384	2024-12-15T04:30:17	3.6	87
97385	2024-12-15T04:40:17	3.4	87.5
97386	2024-12-15T04:50:17	3.3	88.5
97387	2024-12-15T05:00:17	3.1	89.5
97388	2024-12-15T05:10:17	3	90.5
97389	2024-12-15T05:20:17	3.1	90.5
97390	2024-12-15T05:30:17	3.3	90
97391	2024-12-15T05:40:17	3.3	90
97392	2024-12-15T05:50:17	3.3	90
97393	2024-12-15T06:00:17	3.3	90
97394	2024-12-15T06:10:17	3.3	90
97395	2024-12-15T06:20:17	3.3	90.5
97396	2024-12-15T06:30:17	3.4	90.5
97397	2024-12-15T06:40:17	3.4	90.5
97398	2024-12-15T06:50:17	3.4	91
97399	2024-12-15T07:00:17	3.5	90
97400	2024-12-15T07:10:17	3.4	89.5
97401	2024-12-15T07:20:17	3.4	89
97402	2024-12-15T07:30:17	3.5	89
97403	2024-12-15T07:40:17	3.4	89
97404	2024-12-15T07:50:17	3.5	89
97405	2024-12-15T08:00:17	3.5	88.5
97406	2024-12-15T08:10:17	3.5	88
97407	2024-12-15T08:20:17	3.6	88
97408	2024-12-15T08:30:17	3.7	87.5
97409	2024-12-15T08:40:17	3.8	86.5
97410	2024-12-15T08:50:17	4	86
97411	2024-12-15T09:00:17	4.1	84
97412	2024-12-15T09:10:17	4.5	82.5
97413	2024-12-15T09:20:17	4.7	82
97414	2024-12-15T09:30:17	4.6	82
97415	2024-12-15T09:40:17	4.8	81.5
97416	2024-12-15T09:50:17	4.9	81
97417	2024-12-15T10:00:17	5	80.5
97418	2024-12-15T10:10:17	5	80.5
97419	2024-12-15T10:20:17	5.1	80.5
97420	2024-12-15T10:30:17	5.1	80.5
97421	2024-12-15T10:40:17	5.1	81
97422	2024-12-15T10:50:17	5.1	81
97423	2024-12-15T11:00:17	5	85
97424	2024-12-15T11:10:17	5.1	84.5
97425	2024-12-15T11:20:17	5.3	82
97426	2024-12-15T11:30:17	5.3	82
97427	2024-12-15T11:40:17	5.3	82.5
97428	2024-12-15T11:50:17	5.4	82
97429	2024-12-15T12:00:17	5.6	81
97430	2024-12-15T12:10:17	5.7	80.5
97431	2024-12-15T12:20:17	5.9	81
97432	2024-12-15T12:30:17	5.8	81
97433	2024-12-15T12:40:17	5.7	81
97434	2024-12-15T12:50:17	5.7	81
97435	2024-12-15T13:00:17	5.7	81
97436	2024-12-15T13:10:17	5.8	80.5
97437	2024-12-15T13:20:17	5.7	80
97438	2024-12-15T13:40:17	5.8	79
97439	2024-12-15T13:50:17	5.8	79
97440	2024-12-15T14:00:17	5.8	79.5
97441	2024-12-15T14:10:17	5.8	79
97442	2024-12-15T14:20:17	5.9	79
97443	2024-12-15T14:30:17	5.9	79
97444	2024-12-15T14:40:17	6	78.5
97445	2024-12-15T14:50:17	6	78.5
97446	2024-12-15T15:00:17	6	78
97447	2024-12-15T15:10:17	6.1	78.5
97448	2024-12-15T15:20:17	6.1	78.5
97449	2024-12-15T15:30:17	6.2	78.5
97450	2024-12-15T15:40:17	6.2	79
97451	2024-12-15T15:50:17	6.2	79
97452	2024-12-15T16:00:17	6.2	79
97453	2024-12-15T16:10:17	6.4	79
97454	2024-12-15T16:20:17	6.4	78.5
97455	2024-12-15T16:30:17	6.4	78.5
97456	2024-12-15T16:40:17	6.4	78
97457	2024-12-15T16:50:17	6.5	78
97458	2024-12-15T17:23:17	6.5	78.5
97459	2024-12-15T17:23:18	6.5	77.5
97460	2024-12-15T17:23:19	6.5	78
97461	2024-12-15T17:30:17	6.5	78.5
97462	2024-12-15T17:40:17	6.5	78.5
97463	2024-12-15T17:50:17	6.5	78.5
97464	2024-12-15T21:11:43	6.4	78.5
97465	2024-12-15T21:11:44	6.4	78.5
97466	2024-12-15T21:11:44	6.3	78.5
97467	2024-12-15T21:11:45	6.4	77
97468	2024-12-15T21:11:46	6.7	76.5
97469	2024-12-15T21:11:46	6.5	76.5
97470	2024-12-15T21:11:47	6.7	76.5
97471	2024-12-15T21:11:48	6.7	76.5
97472	2024-12-15T21:11:51	6.5	78
97473	2024-12-15T21:11:52	6.5	78.5
97474	2024-12-15T21:11:54	6.4	78
97475	2024-12-15T21:11:55	6.3	78
97476	2024-12-15T21:11:55	6.4	77.5
97477	2024-12-15T21:11:56	6.4	77.5
97478	2024-12-15T21:11:57	6.5	77
97479	2024-12-15T21:11:57	6.7	76.5
97480	2024-12-15T21:11:58	6.6	77
97481	2024-12-15T21:11:58	6.5	76.5
97482	2024-12-15T21:11:59	6.7	76
97483	2024-12-15T21:11:59	6.6	76
97484	2024-12-15T21:20:17	6.6	77
97485	2024-12-15T21:30:17	6.8	77
97486	2024-12-15T21:40:17	6.8	77.5
97487	2024-12-15T21:50:17	6.8	77.5
97488	2024-12-15T22:00:17	6.9	78
97489	2024-12-15T22:10:17	6.8	78
97490	2024-12-15T22:20:17	6.8	79
97491	2024-12-15T22:30:17	6.9	79.5
97492	2024-12-15T22:40:17	7	80.5
97493	2024-12-15T22:50:17	7.1	80
97494	2024-12-15T23:00:17	7.2	79.5
97495	2024-12-15T23:10:17	7.2	79
97496	2024-12-15T23:20:17	7.2	78
97497	2024-12-15T23:30:17	7.2	78
97498	2024-12-15T23:40:17	7.2	78
97499	2024-12-15T23:50:17	7.2	78
97500	2024-12-16T00:00:17	7.3	78
97501	2024-12-16T00:10:17	7.2	78
97502	2024-12-16T00:20:17	7.2	78
97503	2024-12-16T00:30:17	7.3	77.5
97504	2024-12-16T00:40:17	7.3	78
97505	2024-12-16T00:50:17	7.3	77.5
97506	2024-12-16T01:00:17	7.3	78
97507	2024-12-16T01:10:17	7.4	77.5
97508	2024-12-16T01:20:17	7.3	77.5
97509	2024-12-16T01:30:17	7.4	77.5
97510	2024-12-16T01:40:17	7.4	77.5
97511	2024-12-16T01:50:17	7.4	77
97512	2024-12-16T02:00:17	7.4	77
97513	2024-12-16T02:10:17	7.5	77
97514	2024-12-16T02:20:17	7.4	77
97515	2024-12-16T02:30:17	7.4	77
97516	2024-12-16T02:40:17	7.5	77.5
97517	2024-12-16T02:50:17	7.5	78
97518	2024-12-16T03:00:17	7.4	78.5
97519	2024-12-16T03:10:17	7.4	80
97520	2024-12-16T03:20:17	7.4	81
97521	2024-12-16T03:30:17	7.3	82.5
97522	2024-12-16T03:40:17	7.1	82.5
97523	2024-12-16T03:50:17	7.2	82.5
97524	2024-12-16T04:00:17	7.3	82.5
97525	2024-12-16T04:10:17	7.2	83
97526	2024-12-16T04:20:17	7.3	83.5
97527	2024-12-16T04:30:17	7.2	84
97528	2024-12-16T04:40:17	7.2	84
97529	2024-12-16T04:50:16	7.2	85
97530	2024-12-16T05:00:17	7.2	86.5
97531	2024-12-16T05:10:16	7.2	86.5
97532	2024-12-16T05:20:16	7.3	87.5
97533	2024-12-16T05:30:16	7.2	89.5
97534	2024-12-16T05:40:16	7.2	90
97535	2024-12-16T05:50:16	7.1	90
97536	2024-12-16T06:00:16	7.2	90
97537	2024-12-16T06:10:16	7.2	89.5
97538	2024-12-16T06:20:16	7.2	89.5
97539	2024-12-16T06:30:16	7.1	89.5
97540	2024-12-16T06:40:17	7.2	89.5
97541	2024-12-16T06:50:16	7.3	90
97542	2024-12-16T07:00:16	7.3	90.5
97543	2024-12-16T07:10:16	7.3	90.5
97544	2024-12-16T07:20:16	7.3	90.5
97545	2024-12-16T07:30:16	7.3	90.5
97546	2024-12-16T07:40:16	7.3	90
97547	2024-12-16T07:50:16	7.4	90
97548	2024-12-16T08:00:16	7.4	89.5
97549	2024-12-16T08:10:16	7.3	89.5
97550	2024-12-16T08:20:16	7.5	89.5
97551	2024-12-16T08:30:16	7.5	89.5
97552	2024-12-16T08:40:16	7.5	88.5
97553	2024-12-16T08:50:16	7.6	87.5
97554	2024-12-16T09:00:16	7.7	87.5
97555	2024-12-16T09:10:16	7.7	87
97556	2024-12-16T09:20:16	7.7	88.5
97557	2024-12-16T09:30:16	7.6	89.5
97558	2024-12-16T09:40:16	7.7	89
97559	2024-12-16T09:50:16	7.8	88
97560	2024-12-16T10:00:16	7.8	89.5
97561	2024-12-16T10:10:16	7.6	93.5
97562	2024-12-16T10:20:16	7.4	94
97563	2024-12-16T10:30:16	7.5	93.5
97564	2024-12-16T10:40:16	7.6	93
97565	2024-12-16T10:50:16	7.7	91.5
97566	2024-12-16T11:00:16	7.7	91
97567	2024-12-16T11:10:16	7.9	90
97568	2024-12-16T11:20:16	8	89.5
97569	2024-12-16T11:30:16	8.2	89
97570	2024-12-16T11:40:16	8.4	89
97571	2024-12-16T11:50:16	8.4	90
97572	2024-12-16T12:00:16	8.4	89.5
97573	2024-12-16T12:10:16	8.4	90
97574	2024-12-16T12:20:16	8.4	90
97575	2024-12-16T12:30:16	8.6	90.5
97576	2024-12-16T12:40:16	8.7	90.5
97577	2024-12-16T12:50:16	8.8	90.5
97578	2024-12-16T13:10:16	8.9	90
97579	2024-12-16T13:20:16	8.8	91
97580	2024-12-16T13:30:16	9	91.5
97581	2024-12-16T13:40:16	8.9	91
97582	2024-12-16T13:50:16	8.9	92
97583	2024-12-16T14:00:16	8.9	92.5
97584	2024-12-16T14:10:16	8.6	95
97585	2024-12-16T14:20:16	8.4	95.5
97586	2024-12-16T14:30:16	8.3	95.5
97587	2024-12-16T14:40:16	8.3	95
97588	2024-12-16T14:50:16	8.3	94.5
97589	2024-12-16T15:00:16	8.5	93.5
97590	2024-12-16T15:10:16	8.4	93
97591	2024-12-16T15:20:16	8.4	92.5
97592	2024-12-16T15:30:16	8.5	91.5
97593	2024-12-16T15:40:16	8.6	91.5
97594	2024-12-16T15:50:16	8.5	91
97595	2024-12-16T16:00:16	8.6	91
97596	2024-12-16T16:10:16	8.5	90.5
97597	2024-12-16T16:20:16	8.4	91
97598	2024-12-16T16:30:16	8.4	91
97599	2024-12-16T16:40:16	8.4	91
97600	2024-12-16T16:50:16	8.3	91
97601	2024-12-16T17:00:16	8.3	91.5
97602	2024-12-16T17:10:16	8.3	91.5
97603	2024-12-16T17:20:16	8.3	91
97604	2024-12-16T17:30:16	8.2	91.5
97605	2024-12-16T17:40:16	8.2	91
97606	2024-12-16T17:50:16	8.2	91
97607	2024-12-16T18:00:16	8.3	91
97608	2024-12-16T18:10:16	8.2	91
97609	2024-12-16T18:20:16	8.3	91
97610	2024-12-16T18:30:16	8.3	91
97611	2024-12-16T18:40:16	8.2	90.5
97612	2024-12-16T18:50:16	8.4	90.5
97613	2024-12-16T19:00:16	8.3	90
97614	2024-12-16T19:10:16	8.2	89.5
97615	2024-12-16T19:20:16	8.3	89.5
97616	2024-12-16T19:30:16	8.3	89
97617	2024-12-16T19:40:16	8.3	88.5
97618	2024-12-16T19:50:16	8.3	87.5
97619	2024-12-16T20:00:16	8.3	86.5
97620	2024-12-16T20:10:16	8.3	87
97621	2024-12-16T20:20:16	8.3	87
97622	2024-12-16T20:30:16	8.3	87.5
97623	2024-12-16T20:40:16	8.2	88
97624	2024-12-16T20:50:16	8.1	88
97625	2024-12-16T21:00:16	8.1	87.5
97626	2024-12-16T21:10:16	8	88
97627	2024-12-16T21:20:16	8	88.5
97628	2024-12-16T21:30:16	8	89
97629	2024-12-16T21:40:16	7.8	89.5
97630	2024-12-16T21:50:16	7.8	89.5
97631	2024-12-16T22:00:16	7.8	90
97632	2024-12-16T22:10:16	7.8	90.5
97633	2024-12-16T22:20:16	7.7	90
97634	2024-12-16T22:30:16	7.7	90
97635	2024-12-16T22:40:16	7.6	90
97636	2024-12-16T22:50:16	7.7	89.5
97637	2024-12-16T23:00:16	7.7	89.5
97638	2024-12-16T23:10:16	7.7	89
97639	2024-12-16T23:20:16	7.6	89
97640	2024-12-16T23:30:16	7.6	89.5
97641	2024-12-16T23:40:16	7.5	90
97642	2024-12-16T23:50:16	7.5	90.5
97643	2024-12-17T00:00:16	7.4	90.5
97644	2024-12-17T00:10:16	7.4	90.5
97645	2024-12-17T00:20:15	7.3	90.5
97646	2024-12-17T00:30:15	7.4	90.5
97647	2024-12-17T00:40:16	7.3	90.5
97648	2024-12-17T00:50:15	7.3	90
97649	2024-12-17T01:00:15	7.3	90
97650	2024-12-17T01:10:15	7.4	90
97651	2024-12-17T01:20:15	7.3	89.5
97652	2024-12-17T01:30:15	7.3	89.5
97653	2024-12-17T01:40:15	7.2	89.5
97654	2024-12-17T01:50:15	7.3	89.5
97655	2024-12-17T02:00:15	7.3	89.5
97656	2024-12-17T02:10:15	7.4	89.5
97657	2024-12-17T02:20:15	7.4	89.5
97658	2024-12-17T02:30:15	7.3	89.5
97659	2024-12-17T02:40:15	7.3	89.5
97660	2024-12-17T02:50:15	7.3	90
97661	2024-12-17T03:00:15	7.2	90
97662	2024-12-17T03:10:15	7.2	91
97663	2024-12-17T03:20:15	7.3	90
97664	2024-12-17T03:30:15	7.2	89.5
97665	2024-12-17T03:40:15	7.4	89.5
97666	2024-12-17T03:50:15	7.3	89
97667	2024-12-17T04:00:15	7.4	89
97668	2024-12-17T04:10:15	7.3	89
97669	2024-12-17T04:20:15	7.4	89
97670	2024-12-17T04:30:15	7.4	89
97671	2024-12-17T04:40:15	7.3	89
97672	2024-12-17T04:50:15	7.4	89
97673	2024-12-17T05:00:15	7.3	89
97674	2024-12-17T05:10:15	7.4	89
97675	2024-12-17T05:20:15	7.3	89
97676	2024-12-17T05:30:15	7.4	89
97677	2024-12-17T05:40:15	7.3	89.5
97678	2024-12-17T05:50:15	7.3	89.5
97679	2024-12-17T06:00:15	7.4	89.5
97680	2024-12-17T06:10:15	7.3	89.5
97681	2024-12-17T06:20:15	7.3	89.5
97682	2024-12-17T06:30:15	7.2	90.5
97683	2024-12-17T06:40:15	7	91
97684	2024-12-17T06:50:15	7.1	91.5
97685	2024-12-17T07:00:15	7.2	92
97686	2024-12-17T07:10:15	7	92.5
97687	2024-12-17T07:20:15	6.9	93
97688	2024-12-17T07:30:15	7	93.5
97689	2024-12-17T07:40:15	6.8	94
97690	2024-12-17T07:50:15	6.6	95
97691	2024-12-17T08:00:15	6.5	94
97692	2024-12-17T08:10:15	6.6	94.5
97693	2024-12-17T08:20:15	6.3	94
97694	2024-12-17T08:30:15	6.3	94.5
97695	2024-12-17T08:40:15	6.2	94
97696	2024-12-17T08:50:15	6.1	94
97697	2024-12-17T09:00:15	6.3	93.5
97698	2024-12-17T09:10:15	6.2	94
97699	2024-12-17T09:20:15	6.3	94
97700	2024-12-17T09:30:15	6.3	93.5
97701	2024-12-17T09:40:15	6.3	94
97702	2024-12-17T09:50:15	6.4	93
97703	2024-12-17T10:00:15	6.5	92.5
97704	2024-12-17T10:10:15	6.6	92
97705	2024-12-17T10:20:15	6.9	91
97706	2024-12-17T10:30:15	7	90
97707	2024-12-17T10:40:15	7.1	90
97708	2024-12-17T10:50:15	7.2	89.5
97709	2024-12-17T11:00:15	7.3	89
97710	2024-12-17T11:10:15	7.4	88.5
97711	2024-12-17T11:20:15	7.5	88
97712	2024-12-17T11:30:15	7.3	89
97713	2024-12-17T11:40:15	7.5	88.5
97714	2024-12-17T11:50:15	7.7	88
97715	2024-12-17T12:00:15	7.7	87
97716	2024-12-17T12:10:15	7.6	87.5
97717	2024-12-17T12:20:15	7.8	86.5
97718	2024-12-17T12:30:15	7.7	85.5
97719	2024-12-17T12:40:15	7.8	85.5
97720	2024-12-17T12:50:36	8	86.5
97721	2024-12-17T13:00:15	8	85.5
97722	2024-12-17T13:10:15	8.1	84.5
97723	2024-12-17T13:20:15	7.9	85
97724	2024-12-17T13:30:15	8	86.5
97725	2024-12-17T13:40:15	8.3	86.5
97726	2024-12-17T13:50:33	8.3	87
97727	2024-12-17T14:00:15	8.4	86
97728	2024-12-17T14:10:15	8.4	86.5
97729	2024-12-17T14:20:15	8.4	87
97730	2024-12-17T14:30:15	8.4	87.5
97731	2024-12-17T14:40:15	8.4	87.5
97732	2024-12-17T14:50:15	8.3	88
97733	2024-12-17T15:00:15	8.3	88.5
97734	2024-12-17T15:10:15	8.3	89
97735	2024-12-17T15:20:15	8.2	89.5
97736	2024-12-17T15:30:15	8.2	89.5
97737	2024-12-17T15:40:15	8.2	89.5
97738	2024-12-17T15:50:15	8.2	89
97739	2024-12-17T16:00:15	8.2	89.5
97740	2024-12-17T16:10:15	8.2	90.5
97741	2024-12-17T16:20:15	8.2	90.5
97742	2024-12-17T16:30:15	8.2	90.5
97743	2024-12-17T16:40:15	8.1	91
97744	2024-12-17T16:50:15	8.2	91
97745	2024-12-17T17:00:15	8.1	91
97746	2024-12-17T17:10:15	8.2	90
97747	2024-12-17T17:20:15	8	89.5
97748	2024-12-17T17:30:15	7.9	89.5
97749	2024-12-17T17:40:15	8	90
97750	2024-12-17T17:50:15	8.1	90
97751	2024-12-17T18:00:15	8.1	90
97752	2024-12-17T18:20:15	8	89.5
97753	2024-12-17T18:30:15	7.9	89
97754	2024-12-17T19:00:15	7.9	90
97755	2024-12-17T19:10:15	7.9	90.5
97756	2024-12-17T19:20:15	7.9	90.5
97757	2024-12-17T19:30:15	7.8	91
97758	2024-12-17T19:40:15	7.9	91
97759	2024-12-17T19:50:15	7.8	91
97760	2024-12-17T20:00:15	7.9	91
97761	2024-12-17T20:10:15	7.8	91
97762	2024-12-17T20:20:15	7.9	91
97763	2024-12-17T20:30:15	7.8	89.5
97764	2024-12-17T20:40:15	7.7	89
97765	2024-12-17T20:50:15	7.6	89.5
97766	2024-12-17T21:00:15	7.5	89.5
97767	2024-12-17T21:10:15	7.4	89
97768	2024-12-17T21:20:15	7.4	89
97769	2024-12-17T21:30:15	7.4	89.5
97770	2024-12-17T21:40:15	7.4	89
97771	2024-12-17T21:50:15	7.3	89
97772	2024-12-17T22:00:14	7.2	89
97773	2024-12-17T22:10:14	7.1	89.5
97774	2024-12-17T22:20:14	6.8	89.5
97775	2024-12-17T22:30:15	6.7	90
97776	2024-12-17T22:40:14	6.6	90
97777	2024-12-17T22:50:14	6.6	90.5
97778	2024-12-17T23:00:14	6.5	90.5
97779	2024-12-17T23:10:14	6.4	91
97780	2024-12-17T23:20:14	6.4	91
97781	2024-12-17T23:30:14	6.1	91.5
97782	2024-12-17T23:40:14	6.1	92
97783	2024-12-17T23:50:14	5.9	90.5
97784	2024-12-18T00:00:14	5.7	91
97785	2024-12-18T00:10:14	5.6	90.5
97786	2024-12-18T00:20:14	5.6	90.5
97787	2024-12-18T00:30:14	5.6	90.5
97788	2024-12-18T00:40:14	5.7	90
97789	2024-12-18T00:50:14	5.5	90.5
97790	2024-12-18T01:00:14	5.4	91
97791	2024-12-18T01:10:14	5.3	91
97792	2024-12-18T01:20:14	5.3	91.5
97793	2024-12-18T01:30:14	5.2	91.5
97794	2024-12-18T01:40:14	5	91.5
97795	2024-12-18T01:50:14	4.9	92
97796	2024-12-18T02:00:14	4.9	92.5
97797	2024-12-18T02:10:14	4.8	93.5
97798	2024-12-18T02:20:14	5.1	93
97799	2024-12-18T02:30:14	4.8	93
97800	2024-12-18T02:40:14	4.7	93
97801	2024-12-18T02:50:14	4.8	93
97802	2024-12-18T03:00:14	4.9	92
97803	2024-12-18T03:10:14	4.8	92
97804	2024-12-18T03:20:14	4.7	92.5
97805	2024-12-18T03:30:14	4.7	92.5
97806	2024-12-18T03:40:14	4.9	92
97807	2024-12-18T03:50:14	4.8	92
97808	2024-12-18T04:00:14	4.8	92
97809	2024-12-18T04:10:14	4.7	92
97810	2024-12-18T04:20:14	4.4	92.5
97811	2024-12-18T04:30:14	4.4	92.5
97812	2024-12-18T04:40:14	4.3	93
97813	2024-12-18T04:50:14	4.3	93.5
97814	2024-12-18T05:00:14	4.1	93
97815	2024-12-18T05:10:14	4.2	93
97816	2024-12-18T05:20:14	4.3	93
97817	2024-12-18T05:30:14	4.3	92
97818	2024-12-18T05:40:14	4.4	91.5
97819	2024-12-18T05:50:14	4.6	91
97820	2024-12-18T06:00:14	4.7	91.5
97821	2024-12-18T06:10:14	4.6	90.5
97822	2024-12-18T06:20:14	4.8	90.5
97823	2024-12-18T06:30:14	4.9	91
97824	2024-12-18T06:40:14	4.8	90.5
97825	2024-12-18T06:50:14	4.8	91.5
97826	2024-12-18T07:00:14	4.9	91.5
97827	2024-12-18T07:10:14	5	92
97828	2024-12-18T07:20:14	5	92
97829	2024-12-18T07:30:14	5.1	92
97830	2024-12-18T07:40:14	5.1	91.5
97831	2024-12-18T07:50:14	5.4	92
97832	2024-12-18T08:00:14	5.3	91.5
97833	2024-12-18T08:10:14	5.4	92
97834	2024-12-18T08:20:14	5.6	92
97835	2024-12-18T08:30:14	5.6	90.5
97836	2024-12-18T08:40:14	5.8	91
97837	2024-12-18T08:50:14	6	89
97838	2024-12-18T09:00:14	6.2	88.5
97839	2024-12-18T09:10:14	6.6	87.5
97840	2024-12-18T09:20:14	6.9	88
97841	2024-12-18T09:30:14	7	87.5
97842	2024-12-18T09:40:14	7.5	84.5
97843	2024-12-18T09:50:14	8.4	80.5
97844	2024-12-18T10:00:14	9	78
97845	2024-12-18T10:10:14	9.3	76
97846	2024-12-18T10:20:14	9.5	75
97847	2024-12-18T10:30:14	9.8	75
97848	2024-12-18T10:40:14	9.8	77.5
97849	2024-12-18T10:50:14	10.1	74
97850	2024-12-18T11:00:14	10.9	69.5
97851	2024-12-18T11:10:14	11.5	65.5
97852	2024-12-18T11:20:14	12	63.5
97853	2024-12-18T11:30:14	12.2	61
97854	2024-12-18T11:40:14	12.4	59
97855	2024-12-18T11:50:14	12.6	57.5
97856	2024-12-18T12:00:14	12.8	57.5
97857	2024-12-18T12:10:14	12.9	56.5
97858	2024-12-18T12:20:14	13.3	54.5
97859	2024-12-18T12:30:14	14.2	51.5
97860	2024-12-18T12:40:14	13.9	51
97861	2024-12-18T12:50:14	14.5	48
97862	2024-12-18T13:00:14	14.6	49
97863	2024-12-18T13:10:14	15.5	47.5
97864	2024-12-18T13:20:14	16.3	46
97865	2024-12-18T13:30:14	16.6	44
97866	2024-12-18T13:40:14	16.7	43
97867	2024-12-18T13:50:14	16.7	43
97868	2024-12-18T14:00:14	16.6	43.5
97869	2024-12-18T14:10:14	16.3	44
97870	2024-12-18T14:20:14	15.9	45
97871	2024-12-18T14:30:14	15.6	45.5
97872	2024-12-18T14:40:14	15.1	47
97873	2024-12-18T14:50:14	14.8	48
97874	2024-12-18T15:00:14	14.4	49
97875	2024-12-18T15:20:14	14.1	50
97876	2024-12-18T15:30:14	14.1	49.5
97877	2024-12-18T15:40:14	14.1	49
97878	2024-12-18T15:50:14	14.1	49
97879	2024-12-18T16:00:14	14.1	49
97880	2024-12-18T16:10:14	14.1	49.5
97881	2024-12-18T16:20:14	14	50
97882	2024-12-18T16:30:14	14	50.5
97883	2024-12-18T16:40:14	14	50
97884	2024-12-18T16:50:14	13.9	50.5
97885	2024-12-18T17:00:14	13.7	51
97886	2024-12-18T17:10:14	13.7	51.5
97887	2024-12-18T17:20:14	13.7	53.5
97888	2024-12-18T17:30:14	13.7	54
97889	2024-12-18T17:40:13	13.8	53
97890	2024-12-18T17:50:13	13.7	54
97891	2024-12-18T18:00:13	13.8	54.5
97892	2024-12-18T18:10:13	13.8	53.5
97893	2024-12-18T18:20:13	13.7	55
97894	2024-12-18T18:30:13	13.7	59.5
97895	2024-12-18T18:40:13	13.8	60.5
97896	2024-12-18T18:50:13	13.8	62.5
97897	2024-12-18T19:00:13	13.9	63
97898	2024-12-18T19:10:13	14.1	63.5
97899	2024-12-18T19:20:13	14.2	64.5
97900	2024-12-18T19:30:13	14.3	64.5
97901	2024-12-18T19:40:13	14.4	64.5
97902	2024-12-18T19:50:13	14.4	64.5
97903	2024-12-18T20:00:13	14.4	65.5
97904	2024-12-18T20:10:13	14.2	66
97905	2024-12-18T20:20:13	14.1	67.5
97906	2024-12-18T20:30:13	14.3	68
97907	2024-12-18T20:40:13	14.1	69
97908	2024-12-18T20:50:13	14.1	69
97909	2024-12-18T21:00:13	14	69
97910	2024-12-18T21:10:13	14.2	69
97911	2024-12-18T21:20:13	14.2	69
97912	2024-12-18T21:30:13	14.3	69
97913	2024-12-18T21:40:13	14.3	69
97914	2024-12-18T21:50:13	14.5	69
97915	2024-12-18T22:00:13	14.5	69
97916	2024-12-18T22:10:13	14.5	69.5
97917	2024-12-18T22:20:13	14.4	70
97918	2024-12-18T22:40:13	14.5	70
97919	2024-12-18T22:50:13	14.5	70
97920	2024-12-18T23:00:13	14.5	70
97921	2024-12-18T23:10:13	14.7	70.5
97922	2024-12-18T23:20:13	14.7	70.5
97923	2024-12-18T23:30:13	14.6	71
97924	2024-12-18T23:40:13	14.5	71.5
97925	2024-12-18T23:50:13	14.5	71.5
97926	2024-12-19T00:00:13	14.5	71
97927	2024-12-19T00:10:13	14.6	71
97928	2024-12-19T00:20:13	14.5	71.5
97929	2024-12-19T00:30:13	14.4	71.5
97930	2024-12-19T00:40:13	14.4	72.5
97931	2024-12-19T00:50:13	14.3	73
97932	2024-12-19T01:00:13	14.2	73
97933	2024-12-19T01:10:13	14	73.5
97934	2024-12-19T01:20:13	14.1	74
97935	2024-12-19T01:30:13	14.1	75
97936	2024-12-19T01:40:13	14.1	76
97937	2024-12-19T01:50:13	14.2	76.5
97938	2024-12-19T02:00:13	14.2	77
97939	2024-12-19T02:10:13	14.2	77.5
97940	2024-12-19T02:20:13	14.3	77.5
97941	2024-12-19T02:30:13	14.5	76.5
97942	2024-12-19T02:40:13	14.6	76.5
97943	2024-12-19T02:50:13	14.6	76.5
97944	2024-12-19T03:00:13	14.6	76.5
97945	2024-12-19T03:10:13	14.6	76.5
97946	2024-12-19T03:20:13	14.4	77
97947	2024-12-19T03:30:13	14.5	76.5
97948	2024-12-19T03:40:13	14.6	77
97949	2024-12-19T03:50:13	14.5	78
97950	2024-12-19T04:00:13	14.2	78
97951	2024-12-19T04:10:13	14.1	79.5
97952	2024-12-19T04:20:13	14.1	80.5
97953	2024-12-19T04:30:13	14	80
97954	2024-12-19T04:40:13	14.1	78.5
97955	2024-12-19T04:50:13	14.1	78
97956	2024-12-19T05:00:13	13.6	81
97957	2024-12-19T05:10:13	12.9	90.5
97958	2024-12-19T05:20:13	12.3	100
97959	2024-12-19T05:30:13	11.8	100
97960	2024-12-19T05:40:13	11.6	100
97961	2024-12-19T05:50:13	11.5	100
97962	2024-12-19T06:00:13	11.4	100
97963	2024-12-19T06:10:13	11.3	100
97964	2024-12-19T06:20:13	11.2	100
97965	2024-12-19T06:30:13	11.2	100
97966	2024-12-19T06:40:13	11.2	100
97967	2024-12-19T06:50:13	11	100
97968	2024-12-19T07:00:12	11	100
97969	2024-12-19T07:10:12	10.9	100
97970	2024-12-19T07:20:12	10.9	100
97971	2024-12-19T07:30:13	11	100
97972	2024-12-19T07:40:12	11	100
97973	2024-12-19T07:50:12	11.1	100
97974	2024-12-19T08:00:12	11.1	100
97975	2024-12-19T08:10:12	11	100
97976	2024-12-19T08:20:12	11	100
97977	2024-12-19T08:30:12	11.1	100
97978	2024-12-19T08:40:12	11.4	100
97979	2024-12-19T08:50:12	11.6	100
97980	2024-12-19T09:00:12	11.8	100
97981	2024-12-19T09:10:12	12	100
97982	2024-12-19T09:20:12	12.1	100
97983	2024-12-19T09:30:12	12.3	100
97984	2024-12-19T09:40:12	11.2	100
97985	2024-12-19T09:50:12	11.2	100
97986	2024-12-19T10:00:12	11.6	100
97987	2024-12-19T10:10:12	11.8	100
97988	2024-12-19T10:20:12	11.9	100
97989	2024-12-19T10:30:12	11.1	100
97990	2024-12-19T10:40:12	10.9	100
97991	2024-12-19T10:50:12	11.1	100
97992	2024-12-19T11:00:12	11.2	100
97993	2024-12-19T11:10:12	11.5	100
97994	2024-12-19T11:20:12	11.4	100
97995	2024-12-19T11:30:12	11.2	100
97996	2024-12-19T11:40:12	11.1	100
97997	2024-12-19T11:50:12	11.4	100
97998	2024-12-19T12:00:12	11.7	100
97999	2024-12-19T12:10:12	12	100
98000	2024-12-19T12:20:12	12.7	100
98001	2024-12-19T12:30:12	13.5	100
98002	2024-12-19T12:40:12	14.6	99.5
98003	2024-12-19T12:50:12	14.9	99
98004	2024-12-19T13:00:12	14.5	80
98005	2024-12-19T13:10:12	14	79
98006	2024-12-19T13:20:12	14	77
98007	2024-12-19T13:30:12	13.7	78.5
98008	2024-12-19T13:40:12	13.8	78
98009	2024-12-19T13:50:12	13.8	77.5
98010	2024-12-19T14:00:12	12.9	82
98011	2024-12-19T14:10:12	12.7	82
98012	2024-12-19T14:20:12	12.5	90.5
98013	2024-12-19T14:30:12	10.5	100
98014	2024-12-19T14:40:12	10.2	100
98015	2024-12-19T14:50:12	9.8	100
98016	2024-12-19T15:00:12	9.5	100
98017	2024-12-19T15:10:12	9.4	100
98018	2024-12-19T15:20:12	9.4	100
98019	2024-12-19T15:30:12	9.1	100
98020	2024-12-19T15:40:12	8.8	100
98021	2024-12-19T15:50:12	8.7	100
98022	2024-12-19T16:00:12	8.6	100
98023	2024-12-19T16:10:12	8.2	100
98024	2024-12-19T16:20:12	8.2	100
98025	2024-12-19T16:30:12	8.2	100
98026	2024-12-19T16:40:12	7.6	100
98027	2024-12-19T16:50:12	7.5	100
98028	2024-12-19T17:00:12	7.3	100
98029	2024-12-19T17:10:12	7.2	100
98030	2024-12-19T17:20:12	7.1	100
98031	2024-12-19T17:30:12	7.1	100
98032	2024-12-19T17:40:12	6.9	100
98033	2024-12-19T17:50:12	6.8	100
98034	2024-12-19T18:00:12	6.7	100
98035	2024-12-19T18:10:12	6.6	100
98036	2024-12-19T18:20:12	6.6	100
98037	2024-12-19T18:30:12	6.5	100
98038	2024-12-19T18:40:12	6.5	100
98039	2024-12-19T18:50:12	6.5	100
98040	2024-12-19T19:00:12	6.3	100
98041	2024-12-19T19:10:12	6.3	98.5
98042	2024-12-19T19:20:12	6.1	98.5
98043	2024-12-19T19:30:12	6.2	97.5
98044	2024-12-19T19:50:12	6.2	96
98045	2024-12-19T20:00:12	6	96
98046	2024-12-19T20:10:12	6	96
98047	2024-12-19T20:20:12	5.9	96
98048	2024-12-19T20:30:12	6	96
98049	2024-12-19T20:40:12	6	96
98050	2024-12-19T20:50:12	5.9	96
98051	2024-12-19T21:00:12	5.8	96
98052	2024-12-19T21:10:12	5.9	96
98053	2024-12-19T21:20:12	5.7	96
98054	2024-12-19T21:30:12	5.7	96
98055	2024-12-19T21:40:12	5.6	96
98056	2024-12-19T21:50:12	5.8	96
98057	2024-12-19T22:00:12	5.7	96
98058	2024-12-19T22:10:12	5.7	96
98059	2024-12-19T22:20:12	5.6	96
98060	2024-12-19T22:30:12	5.7	96
98061	2024-12-19T22:40:12	5.6	96
98062	2024-12-19T22:50:12	5.5	96
98063	2024-12-19T23:00:12	5.4	96
98064	2024-12-19T23:10:12	5.4	96
98065	2024-12-19T23:20:12	5.4	96
98066	2024-12-19T23:30:12	5.3	96
98067	2024-12-19T23:40:12	5.1	96
98068	2024-12-19T23:50:12	4.8	96
98069	2024-12-20T00:00:12	4.6	96
98070	2024-12-20T00:10:12	4.4	96
98071	2024-12-20T00:20:12	4.5	96
98072	2024-12-20T00:30:12	4.5	96
98073	2024-12-20T00:40:12	4.4	96
98074	2024-12-20T00:50:12	4.3	96
98075	2024-12-20T01:00:12	4.2	96
98076	2024-12-20T01:10:12	4.2	96
98077	2024-12-20T01:20:12	3.9	96
98078	2024-12-20T01:30:12	3.8	96
98079	2024-12-20T01:40:12	3.8	96
98080	2024-12-20T01:50:12	3.8	96
98081	2024-12-20T02:00:12	3.7	96
98082	2024-12-20T02:10:12	3.7	96
98083	2024-12-20T02:20:12	3.8	96
98084	2024-12-20T02:30:12	3.9	96
98085	2024-12-20T02:40:12	3.9	96
98086	2024-12-20T02:50:12	3.7	96
98087	2024-12-20T03:00:11	3.6	96
98088	2024-12-20T03:10:12	3.4	96
98089	2024-12-20T03:20:11	3.3	96
98090	2024-12-20T03:30:11	3.5	96
98091	2024-12-20T03:40:11	3.6	96
98092	2024-12-20T03:50:11	3.5	96
98093	2024-12-20T04:00:11	3.6	96
98094	2024-12-20T04:10:11	3.6	96
98095	2024-12-20T04:20:11	3.7	96
98096	2024-12-20T04:30:11	3.8	96
98097	2024-12-20T04:40:11	3.9	96
98098	2024-12-20T04:50:11	3.9	96
98099	2024-12-20T05:00:11	3.9	96
98100	2024-12-20T05:10:11	3.9	96
98101	2024-12-20T05:20:11	3.9	96
98102	2024-12-20T05:30:11	3.9	96
98103	2024-12-20T05:40:11	3.9	96
98104	2024-12-20T05:50:11	4	96
98105	2024-12-20T06:00:11	4	96
98106	2024-12-20T06:10:11	4	96
98107	2024-12-20T06:20:11	4	96
98108	2024-12-20T06:30:11	4.1	96
98109	2024-12-20T06:40:11	4.1	99
98110	2024-12-20T06:50:11	4.1	99
98111	2024-12-20T07:00:11	4.1	100
98112	2024-12-20T07:10:11	4.2	98
98113	2024-12-20T07:20:11	4.1	97
98114	2024-12-20T07:30:11	4.2	96
98115	2024-12-20T07:40:11	4.2	93
98116	2024-12-20T07:50:11	4.1	92
98117	2024-12-20T08:00:11	4.2	92
98118	2024-12-20T08:10:11	4.3	92
98119	2024-12-20T08:20:11	4.3	91.5
98120	2024-12-20T08:30:11	4.4	91
98121	2024-12-20T08:40:11	4.3	91
98122	2024-12-20T08:50:11	4.3	91
98123	2024-12-20T09:00:11	4.4	89.5
98124	2024-12-20T09:10:11	4.4	90
98125	2024-12-20T09:20:11	4.6	89.5
98126	2024-12-20T09:30:11	4.5	89
98127	2024-12-20T09:40:11	4.3	89
98128	2024-12-20T09:50:11	4.5	89.5
98129	2024-12-20T10:00:11	4.7	89
98130	2024-12-20T10:20:11	4.6	89
98131	2024-12-20T10:30:11	4.7	89
98132	2024-12-20T10:40:11	4.9	88
98133	2024-12-20T10:50:11	5.2	86
98134	2024-12-20T11:00:11	5.1	86
98135	2024-12-20T11:10:11	5	85.5
98136	2024-12-20T11:20:11	5.2	85.5
98137	2024-12-20T11:30:11	5.2	85
98138	2024-12-20T11:40:11	5.4	84.5
98139	2024-12-20T11:50:11	5.4	84.5
98140	2024-12-20T12:00:11	5.4	84
98141	2024-12-20T12:10:11	5.4	84
98142	2024-12-20T12:20:11	5.5	83
98143	2024-12-20T12:30:11	5.5	83
98144	2024-12-20T12:40:11	5.7	83
98145	2024-12-20T12:50:11	5.7	81
98146	2024-12-20T13:00:11	6	76
98147	2024-12-20T13:10:11	6	77.5
98148	2024-12-20T13:20:11	5.8	78
98149	2024-12-20T13:30:11	5.7	79
98150	2024-12-20T13:40:11	5.7	80.5
98151	2024-12-20T13:50:11	5.5	79.5
98152	2024-12-20T14:00:11	5.5	79.5
98153	2024-12-20T14:10:11	5.5	79
98154	2024-12-20T14:20:11	5.5	79
98155	2024-12-20T14:30:11	5.4	79
98156	2024-12-20T14:40:11	5.4	78.5
98157	2024-12-20T14:50:11	5.2	78
98158	2024-12-20T15:00:11	5.3	78.5
98159	2024-12-20T15:10:11	5.2	79
98160	2024-12-20T15:20:11	5.3	79
98161	2024-12-20T15:30:11	5.2	79
98162	2024-12-20T15:40:11	5.1	80
98163	2024-12-20T15:50:11	5.1	81
98164	2024-12-20T16:00:11	5	81
98165	2024-12-20T16:10:11	4.9	81
98166	2024-12-20T16:20:11	4.8	81.5
98167	2024-12-20T16:30:11	4.7	81.5
98168	2024-12-20T16:40:11	4.6	82
98169	2024-12-20T16:50:11	4.6	82.5
98170	2024-12-20T17:00:11	4.7	83
98171	2024-12-20T17:10:11	4.6	80.5
98172	2024-12-20T17:20:11	4.6	80.5
98173	2024-12-20T17:30:11	4.5	80
98174	2024-12-20T17:40:11	4.3	79
98175	2024-12-20T17:50:11	4.4	79
98176	2024-12-20T18:00:11	4.4	78
98177	2024-12-20T18:10:11	4.4	78.5
98178	2024-12-20T18:20:11	4.4	80
98179	2024-12-20T18:30:11	4.4	79.5
98180	2024-12-20T18:40:11	4.4	80
98181	2024-12-20T18:50:11	4.5	80
98182	2024-12-20T19:00:11	4.5	79.5
98183	2024-12-20T19:10:11	4.5	79.5
98184	2024-12-20T19:20:11	4.5	78.5
98185	2024-12-20T19:30:11	4.6	78
98186	2024-12-20T19:40:11	4.6	77.5
98187	2024-12-20T19:50:11	4.7	78
98188	2024-12-20T20:00:11	4.5	77.5
98189	2024-12-20T20:10:11	4.6	77.5
98190	2024-12-20T20:20:11	4.6	77.5
98191	2024-12-20T20:30:11	4.4	77
98192	2024-12-20T20:40:11	4.4	77
98193	2024-12-20T20:50:11	4.6	76.5
98194	2024-12-20T21:00:11	4.6	77
98195	2024-12-20T21:10:11	4.5	77.5
98196	2024-12-20T21:20:11	4.4	77
98197	2024-12-20T21:30:11	4.6	75
98198	2024-12-20T21:40:11	4.7	74.5
98199	2024-12-20T21:50:11	4.8	74.5
98200	2024-12-20T22:00:11	4.8	74
98201	2024-12-20T22:10:11	4.9	74
98202	2024-12-20T22:20:11	4.9	73.5
98203	2024-12-20T22:30:11	5	72.5
98204	2024-12-20T22:40:11	4.8	72
98205	2024-12-20T22:50:11	4.8	72
98206	2024-12-20T23:00:11	4.9	72
98207	2024-12-20T23:10:11	5	72
98208	2024-12-20T23:20:11	5.1	71.5
98209	2024-12-20T23:30:11	5.1	71.5
98210	2024-12-20T23:40:11	5.1	71.5
98211	2024-12-20T23:50:11	5.1	71
98212	2024-12-21T00:00:11	5.2	71
98213	2024-12-21T00:10:11	5.2	71.5
98214	2024-12-21T00:20:11	5.3	71.5
98215	2024-12-21T00:30:11	5.2	71.5
98216	2024-12-21T00:40:11	5.1	71.5
98217	2024-12-21T00:50:11	5.1	71.5
98218	2024-12-21T01:00:11	4.9	72.5
98219	2024-12-21T01:10:11	4.9	73
98220	2024-12-21T01:20:11	4.8	73.5
98221	2024-12-21T01:30:11	4.9	74
98222	2024-12-21T01:40:11	4.9	74
98223	2024-12-21T01:50:11	4.9	74.5
98224	2024-12-21T02:00:11	5	74
98225	2024-12-21T02:10:11	5	74
98226	2024-12-21T02:20:11	5	74
98227	2024-12-21T02:30:11	5.1	74.5
98228	2024-12-21T02:40:11	5.1	74.5
98229	2024-12-21T02:50:11	5.1	74.5
98230	2024-12-21T03:00:11	5.1	74.5
98231	2024-12-21T03:10:11	5.1	74.5
98232	2024-12-21T03:20:11	5.1	74.5
98233	2024-12-21T03:30:11	5.3	74.5
98234	2024-12-21T03:40:11	5.3	74
98235	2024-12-21T03:50:11	5.5	74
98236	2024-12-21T04:00:11	5.5	74
98237	2024-12-21T04:10:11	5.6	74
98238	2024-12-21T04:20:11	5.6	74.5
98239	2024-12-21T04:30:11	5.5	75.5
98240	2024-12-21T04:40:11	5.5	76
98241	2024-12-21T04:50:11	5.5	76.5
98242	2024-12-21T05:00:11	5.5	76
98243	2024-12-21T05:10:11	5.5	76
98244	2024-12-21T05:20:11	5.6	76
98245	2024-12-21T05:30:11	5.7	74.5
98246	2024-12-21T05:40:11	5.6	74.5
98247	2024-12-21T05:50:11	5.5	75
98248	2024-12-21T06:00:11	5.4	75
98249	2024-12-21T06:10:11	5.4	74.5
98250	2024-12-21T06:20:11	5.4	74.5
98251	2024-12-21T06:30:11	5.4	74.5
98252	2024-12-21T06:40:11	5.4	74.5
98253	2024-12-21T06:50:11	5.5	75
98254	2024-12-21T07:00:11	5.5	75
98255	2024-12-21T07:10:11	5.4	75.5
98256	2024-12-21T07:20:11	5.3	76
98257	2024-12-21T07:30:11	5.5	76.5
98258	2024-12-21T07:40:11	5.3	77
98259	2024-12-21T07:50:11	5.4	76.5
98260	2024-12-21T08:00:11	5.5	77
98261	2024-12-21T08:10:11	5.7	76.5
98262	2024-12-21T08:20:11	5.9	76
98263	2024-12-21T08:30:11	5.9	76
98264	2024-12-21T08:40:11	6.2	75.5
98265	2024-12-21T08:50:11	6.3	75
98266	2024-12-21T09:00:11	6.5	75
98267	2024-12-21T09:10:11	6.5	74.5
98268	2024-12-21T09:20:11	6.7	75
98269	2024-12-21T09:30:11	6.9	74
98270	2024-12-21T09:40:10	7.1	73.5
98271	2024-12-21T09:50:10	7.2	73.5
98272	2024-12-21T10:00:10	7.3	73.5
98273	2024-12-21T10:10:10	7.5	73
98274	2024-12-21T10:20:10	7.6	73
98275	2024-12-21T10:30:10	7.5	73.5
98276	2024-12-21T10:40:10	7.5	73.5
98277	2024-12-21T10:50:10	7.5	74
98278	2024-12-21T11:00:10	7.5	74
98279	2024-12-21T11:10:10	7.7	74
98280	2024-12-21T11:20:10	7.8	73
98281	2024-12-21T11:30:10	7.8	73.5
98282	2024-12-21T11:40:10	7.9	73
98283	2024-12-21T11:50:10	7.8	73
98284	2024-12-21T12:00:10	7.6	74
98285	2024-12-21T12:10:10	7.7	73.5
98286	2024-12-21T12:20:10	7.8	73.5
98287	2024-12-21T12:30:10	7.7	75.5
98288	2024-12-21T12:40:10	7.7	77.5
98289	2024-12-21T12:50:10	7.3	84
98290	2024-12-21T13:00:10	7.2	83
98291	2024-12-21T13:10:10	7.3	81.5
98292	2024-12-21T13:20:10	7	88
98293	2024-12-21T13:30:10	6.8	90
98294	2024-12-21T13:40:10	6.5	91.5
98295	2024-12-21T13:50:10	6.7	87.5
98296	2024-12-21T14:00:10	6.8	88
98297	2024-12-21T14:10:10	6.6	95.5
98298	2024-12-21T14:20:10	6.3	97
98299	2024-12-21T14:30:10	6.2	97.5
98300	2024-12-21T14:40:10	6.4	95
98301	2024-12-21T14:50:10	6.5	93
98302	2024-12-21T15:00:10	6.7	90.5
98303	2024-12-21T15:10:10	6.7	91
98304	2024-12-21T15:20:10	6.7	90.5
98305	2024-12-21T15:30:10	6.8	90.5
98306	2024-12-21T15:40:10	6.5	93.5
98307	2024-12-21T15:50:10	6.3	93
98308	2024-12-21T16:00:10	6.5	89
98309	2024-12-21T16:10:10	6.9	87
98310	2024-12-21T16:20:10	7.2	85
98311	2024-12-21T16:30:10	7.2	85
98312	2024-12-21T16:40:10	7.3	84
98313	2024-12-21T16:50:10	7.1	90
98314	2024-12-21T17:00:10	6.9	93.5
98315	2024-12-21T17:10:10	6.8	93.5
98316	2024-12-21T17:20:10	6.8	89.5
98317	2024-12-21T17:30:10	6.9	89.5
98318	2024-12-21T17:40:10	6.8	94
98319	2024-12-21T17:50:10	6.7	94
98320	2024-12-21T18:00:10	6.6	95
98321	2024-12-21T18:10:10	6.5	96.5
98322	2024-12-21T18:20:10	6.3	99.5
98323	2024-12-21T18:30:10	6.3	100
98324	2024-12-21T18:40:10	6.3	100
98325	2024-12-21T18:50:10	6.3	100
98326	2024-12-21T19:00:10	6.1	100
98327	2024-12-21T19:10:10	6.1	100
98328	2024-12-21T19:20:10	6.2	100
98329	2024-12-21T19:30:10	6.3	100
98330	2024-12-21T19:40:10	6.2	100
98331	2024-12-21T19:50:10	6.1	100
98332	2024-12-21T20:00:10	5.9	100
98333	2024-12-21T20:10:10	5.9	100
98334	2024-12-21T20:20:10	6.1	100
98335	2024-12-21T20:30:10	6.2	100
98336	2024-12-21T20:40:10	6.1	100
98337	2024-12-21T20:50:10	6.2	100
98338	2024-12-21T21:00:10	6	100
98339	2024-12-21T21:10:10	6.1	100
98340	2024-12-21T21:20:10	6	100
98341	2024-12-21T21:30:10	6.3	100
98342	2024-12-21T21:40:10	6.4	100
98343	2024-12-21T21:50:10	6.4	100
98344	2024-12-21T22:00:10	6.6	100
98345	2024-12-21T22:10:10	6.4	100
98346	2024-12-21T22:20:10	6.2	100
98347	2024-12-21T22:30:10	6	100
98348	2024-12-21T22:40:10	6	100
98349	2024-12-21T22:50:10	6.1	100
98350	2024-12-21T23:00:10	6.2	100
98351	2024-12-21T23:10:10	6.5	100
98352	2024-12-21T23:20:10	6.7	100
98353	2024-12-21T23:30:10	6.8	100
98354	2024-12-21T23:40:10	6.9	100
98355	2024-12-21T23:50:10	7	100
98356	2024-12-22T00:00:10	7.1	100
98357	2024-12-22T00:10:10	6.6	100
98358	2024-12-22T00:20:10	6.5	100
98359	2024-12-22T00:30:10	6.4	100
98360	2024-12-22T00:40:10	6.6	100
98361	2024-12-22T00:50:10	6.5	100
98362	2024-12-22T01:00:10	6.5	100
98363	2024-12-22T01:10:10	6.4	100
98364	2024-12-22T01:20:10	6.7	100
98365	2024-12-22T01:30:10	6.9	100
98366	2024-12-22T01:40:10	7.2	100
98367	2024-12-22T01:50:10	7.4	100
98368	2024-12-22T02:00:10	7.6	100
98369	2024-12-22T02:10:10	7.6	100
98370	2024-12-22T02:20:10	7.3	100
98371	2024-12-22T02:30:10	7.3	100
98372	2024-12-22T02:40:10	7.6	100
98373	2024-12-22T02:50:10	7.4	100
98374	2024-12-22T03:00:10	7.3	100
98375	2024-12-22T03:10:10	7.4	100
98376	2024-12-22T03:20:10	7.5	100
98377	2024-12-22T03:30:10	7.6	100
98378	2024-12-22T03:50:10	7.4	100
98379	2024-12-22T04:00:10	7.4	100
98380	2024-12-22T04:10:10	7.5	100
98381	2024-12-22T04:20:10	7.7	100
98382	2024-12-22T04:30:10	7.6	100
98383	2024-12-22T04:40:10	7.4	100
98384	2024-12-22T04:50:10	7.5	100
98385	2024-12-22T05:00:10	7.4	100
98386	2024-12-22T05:10:10	7.5	100
98387	2024-12-22T05:20:10	7.5	100
98388	2024-12-22T05:30:10	7.3	100
98389	2024-12-22T05:40:10	7.2	100
98390	2024-12-22T05:50:10	7.3	100
98391	2024-12-22T06:00:10	7.1	100
98392	2024-12-22T06:10:10	7.1	100
98393	2024-12-22T06:20:10	7.1	100
98394	2024-12-22T06:30:10	7.2	100
98395	2024-12-22T06:40:10	7.1	100
98396	2024-12-22T06:50:10	7.2	100
98397	2024-12-22T07:00:10	7.2	100
98398	2024-12-22T07:10:10	7.2	100
98399	2024-12-22T07:20:10	7.2	100
98400	2024-12-22T07:30:10	7.2	100
98401	2024-12-22T07:40:10	7.3	100
98402	2024-12-22T07:50:09	7	100
98403	2024-12-22T08:00:09	6.9	100
98404	2024-12-22T08:10:09	6.8	100
98405	2024-12-22T08:20:09	6.8	100
98406	2024-12-22T08:30:09	6.8	100
98407	2024-12-22T08:40:09	6.9	100
98408	2024-12-22T08:50:09	6.8	100
98409	2024-12-22T09:00:09	6.9	100
98410	2024-12-22T09:10:09	6.9	100
98411	2024-12-22T09:20:09	7	100
98412	2024-12-22T09:30:09	7	100
98413	2024-12-22T09:40:09	6.3	100
98414	2024-12-22T09:50:09	6.1	100
98415	2024-12-22T10:00:09	5.9	100
98416	2024-12-22T10:10:09	5.9	100
98417	2024-12-22T10:20:09	5.6	100
98418	2024-12-22T10:30:09	5.9	100
98419	2024-12-22T10:40:09	5.7	100
98420	2024-12-22T10:50:09	5.7	100
98421	2024-12-22T11:00:09	5.6	100
98422	2024-12-22T11:10:09	5.6	100
98423	2024-12-22T11:20:09	5.5	100
98424	2024-12-22T11:30:09	5.6	100
98425	2024-12-22T11:40:09	5.5	100
98426	2024-12-22T11:50:09	5.5	100
98427	2024-12-22T12:00:09	5	100
98428	2024-12-22T12:10:09	4.9	100
98429	2024-12-22T12:20:09	4.7	100
98430	2024-12-22T12:30:09	4.8	100
98431	2024-12-22T12:40:09	4.8	100
98432	2024-12-22T12:50:09	4.7	100
98433	2024-12-22T13:00:09	4.8	100
98434	2024-12-22T13:10:09	4.6	100
98435	2024-12-22T13:20:09	4.6	100
98436	2024-12-22T13:30:09	4.5	100
98437	2024-12-22T13:40:09	4.5	100
98438	2024-12-22T13:50:09	4.5	100
98439	2024-12-22T14:00:09	4.5	100
98440	2024-12-22T14:10:09	4.5	100
98441	2024-12-22T14:20:09	4.5	99.5
98442	2024-12-22T14:30:09	5	99.5
98443	2024-12-22T14:40:09	5	98.5
98444	2024-12-22T14:50:09	4.8	98
98445	2024-12-22T15:00:09	4.9	97
98446	2024-12-22T15:10:09	4.6	96.5
98447	2024-12-22T15:20:09	4.5	96
98448	2024-12-22T15:30:09	4.7	95.5
98449	2024-12-22T15:40:09	4.6	96
98450	2024-12-22T15:50:09	4.4	96
98451	2024-12-22T16:00:09	4.4	95.5
98452	2024-12-22T16:10:09	4.4	95.5
98453	2024-12-22T16:20:27	4.3	96
98454	2024-12-22T16:30:09	4.4	95.5
98455	2024-12-22T16:40:09	4.4	96
98456	2024-12-22T16:50:09	4.2	95.5
98457	2024-12-22T17:00:09	4.2	96
98458	2024-12-22T17:10:09	4.2	95.5
98459	2024-12-22T17:20:09	4.1	95.5
98460	2024-12-22T17:30:09	4.1	95.5
98461	2024-12-22T17:50:09	3.9	95.5
98462	2024-12-22T18:00:09	3.9	95.5
98463	2024-12-22T18:10:09	3.8	95.5
98464	2024-12-22T18:20:09	3.7	95.5
98465	2024-12-22T18:30:09	3.9	95.5
98466	2024-12-22T18:40:09	3.7	95.5
98467	2024-12-22T18:50:09	3.8	95.5
98468	2024-12-22T19:00:09	3.7	95.5
98469	2024-12-22T19:10:09	3.7	96
98470	2024-12-22T19:20:09	3.7	95.5
98471	2024-12-22T19:30:09	3.7	95.5
98472	2024-12-22T19:40:09	3.6	95.5
98473	2024-12-22T19:50:09	3.5	95.5
98474	2024-12-22T20:00:09	3.5	95.5
98475	2024-12-22T20:10:09	3.6	95.5
98476	2024-12-22T20:20:09	3.5	95.5
98477	2024-12-22T20:30:09	3.5	95.5
98478	2024-12-22T20:40:09	3.5	95.5
98479	2024-12-22T20:50:09	3.6	96
98480	2024-12-22T21:00:09	3.5	95.5
98481	2024-12-22T21:10:09	3.5	95.5
98482	2024-12-22T21:20:09	3.6	95.5
98483	2024-12-22T21:30:09	3.6	95.5
98484	2024-12-22T21:40:09	3.6	95.5
98485	2024-12-22T21:50:09	3.4	95.5
98486	2024-12-22T22:00:09	3.3	95.5
98487	2024-12-22T22:10:09	3.2	95.5
98488	2024-12-22T22:20:09	3.1	95.5
98489	2024-12-22T22:30:09	3.1	96
98490	2024-12-22T22:40:09	2.9	95.5
98491	2024-12-22T22:50:09	2.9	95.5
98492	2024-12-22T23:00:09	2.6	95.5
98493	2024-12-22T23:10:09	2.8	96
98494	2024-12-22T23:20:09	2.7	95.5
98495	2024-12-22T23:30:09	2.7	95.5
98496	2024-12-22T23:40:09	2.7	95.5
98497	2024-12-22T23:50:09	2.7	95.5
98498	2024-12-23T00:00:09	2.8	96
98499	2024-12-23T00:10:09	2.8	95.5
98500	2024-12-23T00:20:09	2.8	95.5
98501	2024-12-23T00:30:09	2.9	96
98502	2024-12-23T00:40:09	2.9	95.5
98503	2024-12-23T00:50:09	3	96
98504	2024-12-23T01:00:09	3	96
98505	2024-12-23T01:10:09	3	96
98506	2024-12-23T01:20:09	3.1	96
98507	2024-12-23T01:30:09	3.1	96
98508	2024-12-23T01:40:09	3.3	96
98509	2024-12-23T01:50:09	3.2	96
98510	2024-12-23T02:00:09	3.2	96
98511	2024-12-23T02:10:09	3.3	96
98512	2024-12-23T02:20:09	3.5	96
98513	2024-12-23T02:30:09	3.4	96
98514	2024-12-23T02:40:09	3.6	96
98515	2024-12-23T02:50:09	3.4	96
98516	2024-12-23T03:00:09	3.5	96.5
98517	2024-12-23T03:10:09	3.5	96
98518	2024-12-23T03:20:09	3.4	96
98519	2024-12-23T03:30:09	3.4	96
98520	2024-12-23T03:40:09	3.4	96.5
98521	2024-12-23T03:50:09	3.1	96
98522	2024-12-23T04:00:09	2.9	96
98523	2024-12-23T04:10:09	3	96
98524	2024-12-23T04:20:09	2.9	96
98525	2024-12-23T04:30:09	2.8	96
98526	2024-12-23T04:40:09	2.7	96
98527	2024-12-23T04:50:09	2.8	96
98528	2024-12-23T05:00:09	2.7	96
98529	2024-12-23T05:10:09	2.6	96
98530	2024-12-23T05:20:09	2.4	96
98531	2024-12-23T05:30:09	2.3	96
98532	2024-12-23T05:40:09	2.4	96.5
98533	2024-12-23T05:50:09	2.4	96
98534	2024-12-23T06:00:09	2.7	96.5
98535	2024-12-23T06:10:09	2.7	96
98536	2024-12-23T06:20:09	2.8	96.5
98537	2024-12-23T06:30:09	2.9	96.5
98538	2024-12-23T06:40:09	2.8	96.5
98539	2024-12-23T06:50:09	2.9	96.5
98540	2024-12-23T07:00:09	2.9	96.5
98541	2024-12-23T07:10:09	2.9	96.5
98542	2024-12-23T07:20:09	2.9	96.5
98543	2024-12-23T07:30:09	2.9	96
98544	2024-12-23T07:40:09	3.1	96.5
98545	2024-12-23T07:50:09	3.1	96.5
98546	2024-12-23T08:00:09	3	96
98547	2024-12-23T08:20:09	3.1	96
98548	2024-12-23T08:30:09	3.1	96.5
98549	2024-12-23T08:40:09	3.1	96.5
98550	2024-12-23T08:50:09	3.1	96.5
98551	2024-12-23T09:00:09	3	96.5
98552	2024-12-23T09:10:09	3	96.5
98553	2024-12-23T09:20:09	2.9	96.5
98554	2024-12-23T09:30:09	3.2	96.5
98555	2024-12-23T09:40:09	3.2	96.5
98556	2024-12-23T09:50:09	3.1	96.5
98557	2024-12-23T10:10:09	3	96.5
98558	2024-12-23T10:20:09	3.1	96.5
98559	2024-12-23T10:30:09	3	96.5
98560	2024-12-23T10:40:09	3.1	96.5
98561	2024-12-23T10:50:09	3.1	96.5
98562	2024-12-23T11:00:09	3.2	96
98563	2024-12-23T11:10:09	3.3	96.5
98564	2024-12-23T11:20:09	3.5	96.5
98565	2024-12-23T11:30:09	3.6	96.5
98566	2024-12-23T11:40:09	3.8	96.5
98567	2024-12-23T11:50:09	3.9	96.5
98568	2024-12-23T12:00:09	4	96.5
98569	2024-12-23T12:10:09	4.2	96.5
98570	2024-12-23T12:20:09	4.3	96.5
98571	2024-12-23T12:30:09	4.6	96.5
98572	2024-12-23T12:40:09	4.8	96.5
98573	2024-12-23T12:50:09	5	96.5
98574	2024-12-23T13:00:09	5.2	96.5
98575	2024-12-23T13:10:09	5.3	96.5
98576	2024-12-23T13:20:09	5.4	96.5
98577	2024-12-23T13:30:09	5.5	96.5
98578	2024-12-23T13:40:09	5.5	96.5
98579	2024-12-23T13:50:09	5.6	96.5
98580	2024-12-23T14:00:09	5.8	99.5
98581	2024-12-23T14:10:27	5.7	99.5
98582	2024-12-23T14:20:09	5.7	99.5
98583	2024-12-23T14:30:09	5.6	99.5
98584	2024-12-23T14:40:09	5.7	99.5
98585	2024-12-23T14:50:09	5.5	99.5
98586	2024-12-23T15:00:09	4.9	99.5
98587	2024-12-23T15:10:09	4.9	99.5
98588	2024-12-23T15:20:09	4.8	99.5
98589	2024-12-23T15:30:09	4.8	99.5
98590	2024-12-23T15:40:09	4.7	99.5
98591	2024-12-23T15:50:09	4.9	99.5
98592	2024-12-23T16:00:09	4.8	99.5
98593	2024-12-23T16:10:09	4.7	99.5
98594	2024-12-23T16:30:09	4.8	99.5
98595	2024-12-23T16:40:09	4.7	99.5
98596	2024-12-23T16:50:09	4.7	99.5
98597	2024-12-23T17:00:09	4.7	99.5
98598	2024-12-23T17:10:09	4.5	99.5
98599	2024-12-23T17:20:09	4.5	99.5
98600	2024-12-23T17:30:09	4.6	99.5
98601	2024-12-23T17:40:09	4.6	99.5
98602	2024-12-23T17:50:09	4.6	99.5
98603	2024-12-23T18:00:09	4.6	99.5
98604	2024-12-23T18:10:09	4.6	99.5
98605	2024-12-23T18:20:09	4.6	99.5
98606	2024-12-23T18:30:09	4.5	99.5
98607	2024-12-23T18:40:08	4.5	99.5
98608	2024-12-23T18:50:08	4.5	99.5
98609	2024-12-23T19:00:08	4.6	99.5
98610	2024-12-23T19:10:08	4.5	99.5
98611	2024-12-23T19:20:08	4.5	99.5
98612	2024-12-23T19:30:08	4.5	99.5
98613	2024-12-23T19:40:08	4.4	99.5
98614	2024-12-23T19:50:08	4.4	99.5
98615	2024-12-23T20:00:08	4.3	99.5
98616	2024-12-23T20:10:08	4.2	99.5
98617	2024-12-23T20:20:08	4.1	99.5
98618	2024-12-23T20:30:08	4	99.5
98619	2024-12-23T20:40:08	4	99.5
98620	2024-12-23T20:50:08	4	99.5
98621	2024-12-23T21:00:09	4.1	99.5
98622	2024-12-23T21:10:08	4	99.5
98623	2024-12-23T21:20:08	4.1	99.5
98624	2024-12-23T21:30:08	4.1	99.5
98625	2024-12-23T21:40:08	4.2	99.5
98626	2024-12-23T21:50:08	4.1	99.5
98627	2024-12-23T22:00:08	4.1	99.5
98628	2024-12-23T22:10:08	4	99.5
98629	2024-12-23T22:20:08	3.9	99.5
98630	2024-12-23T22:30:08	3.8	99.5
98631	2024-12-23T22:40:08	3.8	99.5
98632	2024-12-23T22:50:08	4	99.5
98633	2024-12-23T23:00:08	4	99.5
98634	2024-12-23T23:10:08	3.9	99.5
98635	2024-12-23T23:20:08	3.8	99.5
98636	2024-12-23T23:30:08	3.7	99.5
98637	2024-12-23T23:40:08	3.6	99.5
98638	2024-12-23T23:50:08	3.5	99.5
98639	2024-12-24T00:00:08	3.4	99.5
98640	2024-12-24T00:10:08	3.3	99.5
98641	2024-12-24T00:20:08	3.3	99.5
98642	2024-12-24T00:30:08	3.4	99.5
98643	2024-12-24T00:40:08	3.3	99.5
98644	2024-12-24T00:50:08	3.2	99.5
98645	2024-12-24T01:00:08	3.2	99.5
98646	2024-12-24T01:10:08	3.1	99.5
98647	2024-12-24T01:20:08	3.1	99.5
98648	2024-12-24T01:30:08	2.9	99.5
98649	2024-12-24T01:40:08	3	99.5
98650	2024-12-24T01:50:08	2.9	99.5
98651	2024-12-24T02:00:08	2.9	99.5
98652	2024-12-24T02:10:08	2.8	99.5
98653	2024-12-24T02:20:08	2.7	99.5
98654	2024-12-24T02:30:08	2.8	100
98655	2024-12-24T02:40:08	2.8	100
98656	2024-12-24T02:50:08	2.9	100
98657	2024-12-24T03:00:08	2.8	100
98658	2024-12-24T03:10:08	3	100
98659	2024-12-24T03:20:08	3	100
98660	2024-12-24T03:30:08	3.1	100
98661	2024-12-24T03:40:08	3.1	100
98662	2024-12-24T03:50:08	3.3	100
98663	2024-12-24T04:00:08	3.4	100
98664	2024-12-24T04:10:08	3.4	99.5
98665	2024-12-24T04:20:08	3.5	98
98666	2024-12-24T04:30:08	3.6	96.5
98667	2024-12-24T04:40:08	3.6	96
98668	2024-12-24T04:50:08	3.6	96
98669	2024-12-24T05:00:08	3.6	96
98670	2024-12-24T05:10:08	3.8	96
98671	2024-12-24T05:20:08	3.7	96
98672	2024-12-24T05:30:08	3.7	96
98673	2024-12-24T05:40:08	3.8	96
98674	2024-12-24T05:50:08	3.9	96
98675	2024-12-24T06:00:08	3.9	96
98676	2024-12-24T06:10:08	3.9	96
98677	2024-12-24T06:20:08	3.8	95.5
98678	2024-12-24T06:30:08	3.9	95.5
98679	2024-12-24T06:40:08	3.9	95
98680	2024-12-24T06:50:08	3.9	94.5
98681	2024-12-24T07:00:08	3.9	94
98682	2024-12-24T07:10:08	4	94
98683	2024-12-24T07:20:08	4.1	93.5
98684	2024-12-24T07:30:08	4.1	93.5
98685	2024-12-24T07:40:08	4.1	93
98686	2024-12-24T07:50:08	4.2	93
98687	2024-12-24T08:00:08	4.3	93.5
98688	2024-12-24T08:10:08	4.2	93.5
98689	2024-12-24T08:20:08	4.3	93.5
98690	2024-12-24T08:30:08	4.3	93.5
98691	2024-12-24T08:40:08	4.4	94
98692	2024-12-24T08:50:08	4.5	93.5
98693	2024-12-24T09:00:08	4.7	94
98694	2024-12-24T09:10:08	4.7	93.5
98695	2024-12-24T09:20:08	4.8	93.5
98696	2024-12-24T09:30:08	4.8	93.5
98697	2024-12-24T09:40:08	4.9	93
98698	2024-12-24T09:50:08	4.9	92.5
98699	2024-12-24T10:00:08	4.9	92.5
98700	2024-12-24T10:10:08	5	92
98701	2024-12-24T10:20:08	5.1	91
98702	2024-12-24T10:30:08	5	91
98703	2024-12-24T10:40:08	5.1	91.5
98704	2024-12-24T10:50:08	5.1	91
98705	2024-12-24T11:00:08	5.2	90.5
98706	2024-12-24T11:10:08	5.5	91
98707	2024-12-24T11:20:08	5.5	89.5
98708	2024-12-24T11:30:08	5.8	89.5
98709	2024-12-24T11:40:08	6	88.5
98710	2024-12-24T11:50:08	6	89
98711	2024-12-24T12:00:08	6	88
98712	2024-12-24T12:10:08	6	88
98713	2024-12-24T12:20:08	6	86.5
98714	2024-12-24T12:30:08	6.1	86
98715	2024-12-24T12:40:08	6.3	84.5
98716	2024-12-24T12:50:08	6.3	85
98717	2024-12-24T13:00:08	6.3	85
98718	2024-12-24T13:10:08	6.3	86
98719	2024-12-24T13:20:08	6.3	84
98720	2024-12-24T13:30:08	6.2	84
98721	2024-12-24T13:40:08	6.4	84.5
98722	2024-12-24T13:50:08	6.5	85.5
98723	2024-12-24T14:00:08	6.5	84
98724	2024-12-24T14:10:08	6.5	84
98725	2024-12-24T14:20:08	6.5	85
98726	2024-12-24T14:30:08	6.4	84
98727	2024-12-24T14:40:08	6.4	85
98728	2024-12-24T14:50:08	6.4	85
98729	2024-12-24T15:00:08	6.3	84.5
98730	2024-12-24T15:10:08	6.2	84.5
98731	2024-12-24T15:20:08	6.1	84.5
98732	2024-12-24T15:30:08	6.2	86
98733	2024-12-24T15:40:08	6.1	84
98734	2024-12-24T15:50:08	6.1	87.5
98735	2024-12-24T16:00:08	6.1	89.5
98736	2024-12-24T16:10:08	6	87.5
98737	2024-12-24T16:20:08	6	90
98738	2024-12-24T16:30:08	6	91
98739	2024-12-24T16:40:08	6.1	93.5
98740	2024-12-24T16:50:08	6	94.5
98741	2024-12-24T17:00:08	6.1	95.5
98742	2024-12-24T17:10:08	6.1	94.5
98743	2024-12-24T17:20:08	6	95.5
98744	2024-12-24T17:30:08	6	96
98745	2024-12-24T17:40:08	5.9	96.5
98746	2024-12-24T17:50:08	6	96
98747	2024-12-24T18:00:08	6	96.5
98748	2024-12-24T18:10:08	6	97
98749	2024-12-24T18:20:08	5.9	91
98750	2024-12-24T18:30:08	5.8	93.5
98751	2024-12-24T18:40:08	5.9	94.5
98752	2024-12-24T18:50:08	5.8	93.5
98753	2024-12-24T19:00:08	5.8	96
98754	2024-12-24T19:10:08	5.9	93.5
98755	2024-12-24T19:20:08	5.9	94.5
98756	2024-12-24T19:30:08	5.8	92
98757	2024-12-24T19:40:08	5.8	92.5
98758	2024-12-24T19:50:08	5.8	91.5
98759	2024-12-24T20:00:08	5.7	91
98760	2024-12-24T20:10:08	5.8	93.5
98761	2024-12-24T20:20:08	5.8	96
98762	2024-12-24T20:30:08	5.9	96.5
98763	2024-12-24T20:40:08	5.8	97
98764	2024-12-24T20:50:08	5.9	96.5
98765	2024-12-24T21:00:08	5.8	96
98766	2024-12-24T21:10:08	5.8	94.5
98767	2024-12-24T21:20:08	5.8	96.5
98768	2024-12-24T21:30:08	5.9	97
98769	2024-12-24T21:40:08	5.8	97
98770	2024-12-24T21:50:08	5.9	97.5
98771	2024-12-24T22:00:08	5.9	97.5
98772	2024-12-24T22:10:08	5.9	97.5
98773	2024-12-24T22:20:08	5.8	98
98774	2024-12-24T22:30:08	5.8	98
98775	2024-12-24T22:40:08	5.8	96.5
98776	2024-12-24T22:50:08	5.9	97.5
98777	2024-12-24T23:00:08	5.8	95
98778	2024-12-24T23:10:08	5.8	95
98779	2024-12-24T23:20:08	5.7	96.5
98780	2024-12-24T23:30:08	5.7	97
98781	2024-12-24T23:40:08	5.7	97.5
98782	2024-12-24T23:50:08	5.7	97.5
98783	2024-12-25T00:00:08	5.8	98
98784	2024-12-25T00:10:08	5.8	98
98785	2024-12-25T00:20:08	5.7	98
98786	2024-12-25T00:30:08	5.8	98
98787	2024-12-25T00:40:08	5.8	98.5
98788	2024-12-25T00:50:08	5.7	98.5
98789	2024-12-25T01:00:08	5.8	98
98790	2024-12-25T01:10:08	5.7	98.5
98791	2024-12-25T01:20:08	5.7	98.5
98792	2024-12-25T01:30:08	5.7	98.5
98793	2024-12-25T01:40:08	5.6	97.5
98794	2024-12-25T01:50:08	5.7	98
98795	2024-12-25T02:00:08	5.7	98.5
98796	2024-12-25T02:10:08	5.7	98
98797	2024-12-25T02:20:08	5.6	98.5
98798	2024-12-25T02:30:08	5.5	98.5
98799	2024-12-25T02:40:08	5.3	98.5
98800	2024-12-25T02:50:08	5.2	99
98801	2024-12-25T03:00:08	5.1	98.5
98802	2024-12-25T03:10:08	5	99
98803	2024-12-25T03:20:08	4.9	97
98804	2024-12-25T03:30:08	4.8	97.5
98805	2024-12-25T03:40:07	5	98
98806	2024-12-25T03:50:08	5	97.5
98807	2024-12-25T04:00:08	5.1	97
98808	2024-12-25T04:10:07	5	98
98809	2024-12-25T04:20:07	5	98
98810	2024-12-25T04:30:07	5.1	98.5
98811	2024-12-25T04:40:07	5.1	98.5
98812	2024-12-25T04:50:07	5.1	98.5
98813	2024-12-25T05:00:07	5.1	98
98814	2024-12-25T05:10:07	5.1	98
98815	2024-12-25T05:20:07	5	98
98816	2024-12-25T05:30:07	5.1	98
98817	2024-12-25T05:40:07	5.1	98.5
98818	2024-12-25T05:50:07	5.1	98.5
98819	2024-12-25T06:00:07	5.2	98.5
98820	2024-12-25T06:10:07	5.1	98.5
98821	2024-12-25T06:20:07	5.2	98
98822	2024-12-25T06:30:07	5.2	98.5
98823	2024-12-25T06:40:07	5.1	97.5
98824	2024-12-25T07:00:07	5	98.5
98825	2024-12-25T07:10:07	4.9	98.5
98826	2024-12-25T07:20:07	4.7	99
98827	2024-12-25T07:30:07	4.6	99.5
98828	2024-12-25T07:40:07	4.6	97.5
98829	2024-12-25T07:50:07	4.7	95.5
98830	2024-12-25T08:00:07	4.8	97
98831	2024-12-25T08:10:07	4.9	98
98832	2024-12-25T08:20:07	4.9	98.5
98833	2024-12-25T08:30:07	5.1	98.5
98834	2024-12-25T08:40:07	5.2	98.5
98835	2024-12-25T08:50:07	5.3	98
98836	2024-12-25T09:00:07	5.5	98
98837	2024-12-25T09:10:07	5.4	97
98838	2024-12-25T09:30:07	5.8	97
98839	2024-12-25T09:40:07	5.9	96.5
98840	2024-12-25T09:50:07	5.9	97
98841	2024-12-25T10:00:07	5.9	96.5
98842	2024-12-25T10:10:07	5.8	96.5
98843	2024-12-25T10:20:07	5.9	96
98844	2024-12-25T10:30:07	6	93.5
98845	2024-12-25T10:40:07	6.1	92
98846	2024-12-25T10:50:07	6.4	90
98847	2024-12-25T11:00:07	7	93
98848	2024-12-25T11:10:07	7.4	91.5
98849	2024-12-25T11:20:07	7.9	92.5
98850	2024-12-25T11:30:07	8.4	90
98851	2024-12-25T11:40:07	9.7	90
98852	2024-12-25T11:50:07	10.1	89.5
98853	2024-12-25T12:00:07	9.7	89
98854	2024-12-25T12:10:07	9.7	89
98855	2024-12-25T12:20:07	9.6	91
98856	2024-12-25T12:30:07	9.8	90.5
98857	2024-12-25T12:40:07	9.8	92
98858	2024-12-25T12:50:07	9.8	90
98859	2024-12-25T13:00:07	9.8	90.5
98860	2024-12-25T13:10:07	9.9	92
98861	2024-12-25T13:20:07	10	91.5
98862	2024-12-25T13:30:07	10.2	91.5
98863	2024-12-25T13:40:07	10.5	92
98864	2024-12-25T13:50:07	10.6	94
98865	2024-12-25T14:00:07	11.3	93.5
98866	2024-12-25T14:10:07	12.3	94.5
98867	2024-12-25T14:20:07	12.9	93
98868	2024-12-25T14:30:07	12.9	94.5
98869	2024-12-25T14:40:07	12.3	95.5
98870	2024-12-25T14:50:07	11.8	96
98871	2024-12-25T15:00:07	11.2	97
98872	2024-12-25T15:10:07	10.6	97
98873	2024-12-25T15:20:07	10.2	97
98874	2024-12-25T15:30:07	9.9	99
98875	2024-12-25T15:40:07	9.6	98.5
98876	2024-12-25T15:50:07	9.4	99.5
98877	2024-12-25T16:00:07	9.1	99.5
98878	2024-12-25T16:10:07	8.8	100
98879	2024-12-25T16:20:07	8.7	100
98880	2024-12-25T16:30:07	8.3	100
98881	2024-12-25T16:40:07	8.1	100
98882	2024-12-25T16:50:07	7.9	100
98883	2024-12-25T17:00:07	7.8	100
98884	2024-12-25T17:10:24	7.7	100
98885	2024-12-25T17:20:07	7.5	100
98886	2024-12-25T17:30:07	7.3	100
98887	2024-12-25T17:40:07	7.1	100
98888	2024-12-25T17:50:07	7	100
98889	2024-12-25T18:00:07	6.8	100
98890	2024-12-25T18:10:07	6.7	100
98891	2024-12-25T18:20:07	6.6	100
98892	2024-12-25T18:30:07	6.5	100
98893	2024-12-25T18:40:07	6.4	100
98894	2024-12-25T18:50:07	6.2	100
98895	2024-12-25T19:00:07	6.1	100
98896	2024-12-25T19:10:07	6	100
98897	2024-12-25T19:20:07	5.9	100
98898	2024-12-25T19:30:07	5.7	99.5
98899	2024-12-25T19:40:07	5.6	98.5
98900	2024-12-25T19:50:07	5.6	99
98901	2024-12-25T20:00:07	5.4	99.5
98902	2024-12-25T20:10:07	5.2	99.5
98903	2024-12-25T20:20:07	5.2	100
98904	2024-12-25T20:30:07	5	100
98905	2024-12-25T20:40:07	4.9	100
98906	2024-12-25T20:50:07	4.8	99
98907	2024-12-25T21:00:07	4.5	98.5
98908	2024-12-25T21:10:07	4.6	99
98909	2024-12-25T21:20:07	4.4	98.5
98910	2024-12-25T21:40:07	4.3	99.5
98911	2024-12-25T21:50:07	4.3	99
98912	2024-12-25T22:00:07	4.3	100
98913	2024-12-25T22:10:07	4.2	100
98914	2024-12-25T22:20:07	4.1	100
98915	2024-12-25T22:30:07	4.1	100
98916	2024-12-25T22:40:07	3.9	99.5
98917	2024-12-25T22:50:07	3.8	99
98918	2024-12-25T23:00:07	3.8	99.5
98919	2024-12-25T23:10:07	3.8	99
98920	2024-12-25T23:20:07	3.7	98.5
98921	2024-12-25T23:30:07	3.5	98.5
98922	2024-12-25T23:40:07	3.4	98.5
98923	2024-12-25T23:50:07	3.4	98.5
98924	2024-12-26T00:00:07	3.2	98.5
98925	2024-12-26T00:10:07	3.1	99
98926	2024-12-26T00:20:07	3.1	99
98927	2024-12-26T00:30:07	3.1	98
98928	2024-12-26T00:40:07	3	98.5
98929	2024-12-26T00:50:07	3	99
98930	2024-12-26T01:00:07	2.9	99.5
98931	2024-12-26T01:10:07	3	100
98932	2024-12-26T01:20:07	2.8	98.5
98933	2024-12-26T01:30:07	2.7	99.5
98934	2024-12-26T01:40:07	2.8	99.5
98935	2024-12-26T01:50:07	2.6	99
98936	2024-12-26T02:00:07	2.6	98.5
98937	2024-12-26T02:10:07	2.5	98
98938	2024-12-26T02:20:07	2.4	97.5
98939	2024-12-26T02:30:07	2.5	98
98940	2024-12-26T02:40:07	2.4	96.5
98941	2024-12-26T02:50:07	2.3	96.5
98942	2024-12-26T03:00:07	2.4	96.5
98943	2024-12-26T03:10:07	2.4	96
98944	2024-12-26T03:20:07	2.3	95
98945	2024-12-26T03:30:07	2.4	94
98946	2024-12-26T03:40:07	2.3	92.5
98947	2024-12-26T03:50:07	2.1	91
98948	2024-12-26T04:00:07	2.1	91.5
98949	2024-12-26T04:10:07	2	92
98950	2024-12-26T04:20:07	2	91.5
98951	2024-12-26T04:30:07	1.9	92
98952	2024-12-26T04:40:07	1.9	91
98953	2024-12-26T04:50:07	1.9	90
98954	2024-12-26T05:00:07	1.8	91
98955	2024-12-26T05:10:07	1.8	91.5
98956	2024-12-26T05:20:07	1.8	89.5
98957	2024-12-26T05:30:07	1.8	89.5
98958	2024-12-26T05:40:07	1.7	87.5
98959	2024-12-26T05:50:07	1.7	88
98960	2024-12-26T06:00:07	1.6	88
98961	2024-12-26T06:10:07	1.7	87.5
98962	2024-12-26T06:20:07	1.6	87
98963	2024-12-26T06:30:07	1.6	88
98964	2024-12-26T06:40:07	1.7	89
98965	2024-12-26T06:50:07	1.6	89
98966	2024-12-26T07:00:07	1.4	88
98967	2024-12-26T07:10:07	1.4	87.5
98968	2024-12-26T07:20:07	1.4	87.5
98969	2024-12-26T07:30:07	1.3	88
98970	2024-12-26T07:40:07	1.4	87.5
98971	2024-12-26T07:50:07	1.3	87.5
98972	2024-12-26T08:00:07	1.3	89
98973	2024-12-26T08:10:07	1.3	89
98974	2024-12-26T08:20:07	1.3	91
98975	2024-12-26T08:30:07	1.4	91
98976	2024-12-26T08:40:07	1.4	91.5
98977	2024-12-26T08:50:07	1.4	91.5
98978	2024-12-26T09:00:07	1.5	91.5
98979	2024-12-26T09:10:07	1.7	91
98980	2024-12-26T09:20:07	1.7	89.5
98981	2024-12-26T09:30:07	1.8	87.5
98982	2024-12-26T09:40:07	2.1	86
98983	2024-12-26T09:50:07	2.3	86
98984	2024-12-26T10:00:07	2.5	86.5
98985	2024-12-26T10:10:07	2.6	86
98986	2024-12-26T10:20:07	2.9	85.5
98987	2024-12-26T10:30:07	3	84.5
98988	2024-12-26T10:40:07	3.2	84
98989	2024-12-26T10:50:07	3.4	83
98990	2024-12-26T11:00:07	3.7	82.5
98991	2024-12-26T11:10:07	3.9	82.5
98992	2024-12-26T11:20:07	4.1	82
98993	2024-12-26T11:30:07	4.6	81
98994	2024-12-26T11:40:07	5.9	76
98995	2024-12-26T11:50:07	6.5	73
98996	2024-12-26T12:00:07	6.3	71.5
98997	2024-12-26T12:10:07	6.8	73
98998	2024-12-26T12:20:07	8.5	66.5
98999	2024-12-26T12:30:07	10.2	63.5
99000	2024-12-26T12:40:07	11.3	60.5
99001	2024-12-26T12:50:07	12.2	57
99002	2024-12-26T13:00:07	12.7	54.5
99003	2024-12-26T13:10:07	13.3	56.5
99004	2024-12-26T13:20:06	13.8	54.5
99005	2024-12-26T13:40:06	14.6	49.5
99006	2024-12-26T13:50:06	14.9	49.5
99007	2024-12-26T14:00:06	15.1	50
99008	2024-12-26T14:10:06	15.4	51
99009	2024-12-26T14:20:06	15.4	50.5
99010	2024-12-26T14:30:06	15.2	48.5
99011	2024-12-26T14:40:06	14.9	50
99012	2024-12-26T14:50:06	14.1	51
99013	2024-12-26T15:00:06	12.7	57
99014	2024-12-26T15:10:06	11.7	55
99015	2024-12-26T15:20:06	10.9	60.5
99016	2024-12-26T15:30:06	10.4	59.5
99017	2024-12-26T15:40:06	9.8	62
99018	2024-12-26T15:50:06	9.4	62
99019	2024-12-26T16:00:06	8.9	65.5
99020	2024-12-26T16:10:06	8.6	65.5
99021	2024-12-26T16:20:06	8.4	68.5
99022	2024-12-26T16:30:06	8.2	70.5
99023	2024-12-26T16:40:06	7.8	70
99024	2024-12-26T16:50:06	7.7	71
99025	2024-12-26T17:00:06	7.4	72.5
99026	2024-12-26T17:10:06	7.1	68.5
99027	2024-12-26T17:20:06	7	72
99028	2024-12-26T17:30:06	6.8	74.5
99029	2024-12-26T17:40:06	6.7	73.5
99030	2024-12-26T17:50:06	6.4	73.5
99031	2024-12-26T18:00:06	6.1	73.5
99032	2024-12-26T18:10:06	5.9	72.5
99033	2024-12-26T18:30:06	5.5	74
99034	2024-12-26T18:40:06	5.2	77
99035	2024-12-26T18:50:06	5.1	75
99036	2024-12-26T19:00:06	5	74.5
99037	2024-12-26T19:10:06	4.7	73.5
99038	2024-12-26T19:20:06	4.7	75.5
99039	2024-12-26T19:30:06	4.6	75
99040	2024-12-26T19:40:06	4.3	74
99041	2024-12-26T19:50:06	4.3	75
99042	2024-12-26T20:00:06	4.1	74.5
99043	2024-12-26T20:10:06	4	74.5
99044	2024-12-26T20:20:06	4	77
99045	2024-12-26T20:30:06	3.8	76
99046	2024-12-26T20:40:06	3.7	77.5
99047	2024-12-26T20:50:06	3.6	75
99048	2024-12-26T21:00:06	3.5	76
99049	2024-12-26T21:10:06	3.4	76.5
99050	2024-12-26T21:20:06	3.4	76.5
99051	2024-12-26T21:30:06	3.2	76.5
99052	2024-12-26T21:40:06	3.1	78
99053	2024-12-26T21:50:06	3	77.5
99054	2024-12-26T22:00:06	3	79.5
99055	2024-12-26T22:10:06	2.9	79.5
99056	2024-12-26T22:20:06	2.8	81
99057	2024-12-26T22:30:06	2.6	79
99058	2024-12-26T22:40:06	2.7	79
99059	2024-12-26T22:50:06	2.5	79
99060	2024-12-26T23:00:06	2.5	78
99061	2024-12-26T23:10:06	2.4	79.5
99062	2024-12-26T23:20:06	2.4	79
99063	2024-12-26T23:30:06	2.4	80.5
99064	2024-12-26T23:40:06	2.3	81.5
99065	2024-12-26T23:50:06	2.3	79.5
99066	2024-12-27T00:00:06	2.3	80.5
99067	2024-12-27T00:10:06	2.2	81
99068	2024-12-27T00:20:06	2.2	80
99069	2024-12-27T00:30:06	2.2	81
99070	2024-12-27T00:40:06	2.1	82.5
99071	2024-12-27T00:50:06	2	81.5
99072	2024-12-27T01:00:06	1.9	82
99073	2024-12-27T01:10:06	1.9	81.5
99074	2024-12-27T01:20:06	1.8	82.5
99075	2024-12-27T01:30:06	1.7	81
99076	2024-12-27T01:40:06	1.6	82
99077	2024-12-27T01:50:06	1.6	81
99078	2024-12-27T02:00:06	1.4	82
99079	2024-12-27T02:10:06	1.5	82
99080	2024-12-27T02:20:06	1.4	82.5
99081	2024-12-27T02:30:06	1.3	86
99082	2024-12-27T02:40:06	1.2	86
99083	2024-12-27T02:50:06	1.2	87
99084	2024-12-27T03:00:06	1.2	87
99085	2024-12-27T03:10:06	1.1	87
99086	2024-12-27T03:20:06	1.1	86.5
99087	2024-12-27T03:30:06	1	86
99088	2024-12-27T03:40:06	1.1	85.5
99089	2024-12-27T03:50:06	0.8	85
99090	2024-12-27T04:00:06	0.8	87
99091	2024-12-27T04:10:06	0.7	87
99092	2024-12-27T04:20:06	0.4	86.5
99093	2024-12-27T04:30:06	0.5	89
99094	2024-12-27T04:40:06	0.4	86.5
99095	2024-12-27T04:50:06	0.4	87
99096	2024-12-27T05:00:06	0.3	88
99097	2024-12-27T05:10:06	0.2	88.5
99098	2024-12-27T05:20:06	0.2	85.5
99099	2024-12-27T05:30:06	0	85
99100	2024-12-27T05:40:06	0	88
99101	2024-12-27T05:50:06	0	89
99102	2024-12-27T06:00:06	-0.1	87.5
99103	2024-12-27T06:10:06	-0.3	85.5
99104	2024-12-27T06:20:06	-0.3	86
99105	2024-12-27T06:30:06	-0.3	88
99106	2024-12-27T06:40:06	-0.4	86.5
99107	2024-12-27T06:50:06	-0.4	85.5
99108	2024-12-27T07:00:06	-0.7	85.5
99109	2024-12-27T07:10:06	-0.8	84
99110	2024-12-27T07:20:06	-0.9	86
99111	2024-12-27T07:30:06	-0.8	86.5
99112	2024-12-27T07:40:06	-0.6	87
99113	2024-12-27T07:50:06	-0.3	87.5
99114	2024-12-27T08:00:06	-0.4	87
99115	2024-12-27T08:10:06	-0.3	87.5
99116	2024-12-27T08:20:06	-0.5	86.5
99117	2024-12-27T08:30:06	-0.7	87
99118	2024-12-27T08:40:06	-0.4	90
99119	2024-12-27T08:50:06	-0.4	87.5
99120	2024-12-27T09:00:06	-0.4	88
99121	2024-12-27T09:10:06	-0.2	89.5
99122	2024-12-27T09:20:06	0	89
99123	2024-12-27T09:30:06	-0.1	89
99124	2024-12-27T09:40:06	0	89
99125	2024-12-27T09:50:06	0	90
99126	2024-12-27T10:00:06	0	90.5
99127	2024-12-27T10:10:06	0.2	90.5
99128	2024-12-27T10:20:06	0.3	90
99129	2024-12-27T10:30:06	0.5	90
99130	2024-12-27T10:40:06	0.3	90.5
99131	2024-12-27T10:50:06	0.3	91
99132	2024-12-27T11:00:06	0.5	91
99133	2024-12-27T11:10:06	0.4	91
99134	2024-12-27T11:20:06	0.5	90.5
99135	2024-12-27T11:30:06	0.7	90.5
99136	2024-12-27T11:40:06	0.4	90.5
99137	2024-12-27T11:50:06	0.7	91
99138	2024-12-27T12:00:06	0.6	91
99139	2024-12-27T12:10:06	0.5	91.5
99140	2024-12-27T12:20:06	0.5	92
99141	2024-12-27T12:30:06	0.7	92
99142	2024-12-27T12:40:06	0.8	91.5
99143	2024-12-27T12:50:06	0.8	91.5
99144	2024-12-27T13:00:06	1	91
99145	2024-12-27T13:10:06	0.7	91
99146	2024-12-27T13:20:06	0.8	91.5
99147	2024-12-27T13:30:06	0.9	91.5
99148	2024-12-27T13:40:06	0.9	91
99149	2024-12-27T13:50:06	0.9	90.5
99150	2024-12-27T14:00:06	0.8	91
99151	2024-12-27T14:10:06	0.8	91
99152	2024-12-27T14:20:06	0.9	90.5
99153	2024-12-27T14:30:06	0.9	90
99154	2024-12-27T14:40:06	0.9	90
99155	2024-12-27T14:50:06	0.8	90
99156	2024-12-27T15:00:06	0.8	90.5
99157	2024-12-27T15:10:06	0.7	90.5
99158	2024-12-27T15:20:06	0.5	91
99159	2024-12-27T15:30:06	0.6	91.5
99160	2024-12-27T15:40:06	0.6	91
99161	2024-12-27T15:50:06	0.6	91.5
99162	2024-12-27T16:00:06	0.8	91
99163	2024-12-27T16:10:27	0.5	91.5
99164	2024-12-27T16:20:06	0.6	92
99165	2024-12-27T16:30:06	0.7	92.5
99166	2024-12-27T16:40:06	0.7	92
99167	2024-12-27T16:50:06	0.7	91.5
99168	2024-12-27T17:00:06	0.7	92
99169	2024-12-27T17:10:06	0.8	92
99170	2024-12-27T17:20:06	0.7	91
99171	2024-12-27T17:30:06	0.6	92
99172	2024-12-27T17:40:06	0.5	92.5
99173	2024-12-27T17:50:06	0.6	92.5
99174	2024-12-27T18:00:06	0.8	93.5
99175	2024-12-27T18:10:06	0.9	93
99176	2024-12-27T18:20:06	0.9	93.5
99177	2024-12-27T18:30:06	1	92.5
99178	2024-12-27T18:40:06	1	93.5
99179	2024-12-27T18:50:06	1.1	92
99180	2024-12-27T19:00:06	0.8	92.5
99181	2024-12-27T19:10:06	0.9	93.5
99182	2024-12-27T19:20:06	1	94
99183	2024-12-27T19:30:06	1	94.5
99184	2024-12-27T19:40:06	1	95
99185	2024-12-27T19:50:06	0.8	94
99186	2024-12-27T20:00:06	0.8	94.5
99187	2024-12-27T20:10:06	0.6	91
99188	2024-12-27T20:20:06	0.7	93
99189	2024-12-27T20:30:06	0.8	94.5
99190	2024-12-27T20:40:06	0.8	95
99191	2024-12-27T20:50:06	0.9	95
99192	2024-12-27T21:00:06	0.9	93
99193	2024-12-27T21:10:06	0.9	95
99194	2024-12-27T21:20:06	0.9	96
99195	2024-12-27T21:30:06	0.9	96
99196	2024-12-27T21:40:06	0.9	96
99197	2024-12-27T21:50:06	0.9	96.5
99198	2024-12-27T22:00:06	0.9	96.5
99199	2024-12-27T22:10:06	0.9	96
99200	2024-12-27T22:20:06	0.9	96.5
99201	2024-12-27T22:30:06	0.9	95.5
99202	2024-12-27T22:40:06	0.8	95
99203	2024-12-27T22:50:06	0.8	95.5
99204	2024-12-27T23:00:06	0.8	96
99205	2024-12-27T23:10:06	0.8	94.5
99206	2024-12-27T23:20:06	0.8	95.5
99207	2024-12-27T23:30:06	0.9	95.5
99208	2024-12-27T23:40:06	0.7	93
99209	2024-12-27T23:50:06	0.6	90
99210	2024-12-28T00:00:06	0.6	91
99211	2024-12-28T00:10:06	0.3	91
99212	2024-12-28T00:20:06	0.2	90.5
99213	2024-12-28T00:30:06	0.1	91
99214	2024-12-28T00:40:06	0.4	92.5
99215	2024-12-28T00:50:06	0.4	92
99216	2024-12-28T01:00:06	0.2	91.5
99217	2024-12-28T01:10:06	0.2	92.5
99218	2024-12-28T01:20:06	0.2	91.5
99219	2024-12-28T01:30:06	0.2	91
99220	2024-12-28T01:40:06	0.1	92
99221	2024-12-28T01:50:06	0.2	92
99222	2024-12-28T02:00:06	0.4	92
99223	2024-12-28T02:10:06	0.4	93
99224	2024-12-28T02:20:06	0.3	93.5
99225	2024-12-28T02:30:06	0.3	92.5
99226	2024-12-28T02:40:06	0.4	93
99227	2024-12-28T02:50:06	0.3	93.5
99228	2024-12-28T03:00:06	0.3	93.5
99229	2024-12-28T03:10:06	0.4	93.5
99230	2024-12-28T03:20:06	0	92
99231	2024-12-28T03:30:06	0.3	93
99232	2024-12-28T03:40:06	0.2	91
99233	2024-12-28T03:50:06	0.1	92.5
99234	2024-12-28T04:00:06	0.1	92
99235	2024-12-28T04:10:06	0.2	92.5
99236	2024-12-28T04:20:06	0	92.5
99237	2024-12-28T04:30:06	0.1	93
99238	2024-12-28T04:40:06	0.1	93.5
99239	2024-12-28T04:50:06	0.1	94.5
99240	2024-12-28T05:00:06	0.2	92.5
99241	2024-12-28T05:10:06	0.2	93.5
99242	2024-12-28T05:20:06	0.3	94
99243	2024-12-28T05:30:06	0.2	93.5
99244	2024-12-28T05:40:06	0.1	92.5
99245	2024-12-28T05:50:06	0.1	93.5
99246	2024-12-28T06:00:06	0	93
99247	2024-12-28T06:10:06	0.1	94
99248	2024-12-28T06:20:06	0.1	94
99249	2024-12-28T06:30:06	0.1	91.5
99250	2024-12-28T06:40:06	0.1	92.5
99251	2024-12-28T06:50:06	0.2	93.5
99252	2024-12-28T07:00:06	-0.1	90
99253	2024-12-28T07:10:06	0	93
99254	2024-12-28T07:20:06	0	92
99255	2024-12-28T07:30:06	-0.2	92
99256	2024-12-28T07:40:06	-0.1	92.5
99257	2024-12-28T07:50:06	-0.1	92.5
99258	2024-12-28T08:00:06	0	91.5
99259	2024-12-28T08:10:06	0	93.5
99260	2024-12-28T08:20:06	0	93.5
99261	2024-12-28T08:30:06	0	91
99262	2024-12-28T08:40:06	-0.4	90
99263	2024-12-28T08:50:06	-0.1	91.5
99264	2024-12-28T09:00:06	0	93.5
99265	2024-12-28T09:10:06	0	91.5
99266	2024-12-28T09:20:06	0	89.5
99267	2024-12-28T09:30:06	0.2	91.5
99268	2024-12-28T09:40:06	0.1	88.5
99269	2024-12-28T09:50:06	0	90.5
99270	2024-12-28T10:00:06	0	90
99271	2024-12-28T10:10:06	0.2	89
99272	2024-12-28T10:20:06	0	89
99273	2024-12-28T10:30:06	0.3	90.5
99274	2024-12-28T10:40:06	0.5	90
99275	2024-12-28T10:50:06	0.6	90
99276	2024-12-28T11:00:06	0.5	88
99277	2024-12-28T11:10:06	0.6	89.5
99278	2024-12-28T11:20:06	0.8	90
99279	2024-12-28T11:30:06	0.6	88
99280	2024-12-28T11:40:06	0.6	88.5
99281	2024-12-28T11:50:06	0.6	88.5
99282	2024-12-28T12:00:06	0.4	89.5
99283	2024-12-28T12:10:06	0.8	90.5
99284	2024-12-28T12:20:06	0.9	91
99285	2024-12-28T12:30:06	1.1	91
99286	2024-12-28T12:40:06	1.2	91.5
99287	2024-12-28T12:50:06	1.2	91.5
99288	2024-12-28T13:00:06	1.4	91
99289	2024-12-28T16:00:37	1.3	89
99290	2024-12-28T16:00:38	1	90
99291	2024-12-28T16:00:39	1.2	92
99292	2024-12-28T16:00:40	1.3	92
99293	2024-12-28T16:00:41	1.3	91.5
99294	2024-12-28T16:00:45	0.9	89
99295	2024-12-28T16:00:47	1.3	92
99296	2024-12-28T16:00:47	1.4	90
99297	2024-12-28T16:00:47	1.2	92
99298	2024-12-28T16:00:48	1.2	92.5
99299	2024-12-28T16:00:48	1.4	91.5
99300	2024-12-28T16:00:48	1.1	92.5
99301	2024-12-28T16:00:48	1.1	92
99302	2024-12-28T16:00:48	1.1	89.5
99303	2024-12-28T16:00:48	1.1	88.5
99304	2024-12-28T16:00:49	1	89.5
99305	2024-12-28T16:00:49	1	90.5
99306	2024-12-28T16:00:49	1.2	91.5
99307	2024-12-28T16:10:06	1	92
99308	2024-12-28T16:20:06	1	92.5
99309	2024-12-28T16:30:06	1.1	91.5
99310	2024-12-28T16:40:06	0.7	89.5
99311	2024-12-28T16:50:06	1	91
99312	2024-12-28T17:00:06	1	91.5
99313	2024-12-28T17:10:06	1	90
99314	2024-12-28T17:20:06	0.8	90
99315	2024-12-28T17:30:06	0.8	91.5
99316	2024-12-28T17:40:06	0.9	92
99317	2024-12-28T17:50:06	0.9	92.5
99318	2024-12-28T18:00:06	0.9	92
99319	2024-12-28T18:10:06	1	90.5
99320	2024-12-28T18:20:06	0.6	90
99321	2024-12-28T18:30:06	0.7	91.5
99322	2024-12-28T18:40:06	0.6	91
99323	2024-12-28T18:50:06	0.8	92
99324	2024-12-28T19:00:06	0.6	91.5
99325	2024-12-28T19:10:06	0.6	91
99326	2024-12-28T19:20:06	0.4	90.5
99327	2024-12-28T19:30:06	0.4	91.5
99328	2024-12-28T19:40:06	0.5	93.5
99329	2024-12-28T19:50:06	0.5	93.5
99330	2024-12-28T20:00:06	0.5	93.5
99331	2024-12-28T20:10:06	0.6	93.5
99332	2024-12-28T20:20:06	0.6	93.5
99333	2024-12-28T20:30:06	0.5	93.5
99334	2024-12-28T20:40:06	0.5	93
99335	2024-12-28T20:50:06	0.6	92.5
99336	2024-12-28T21:00:06	0.6	93
99337	2024-12-28T21:10:06	0.6	92
99338	2024-12-28T21:20:06	0.5	94
99339	2024-12-28T21:30:06	0.5	93.5
99340	2024-12-28T21:40:06	0.5	95.5
99341	2024-12-28T21:50:06	0.5	96
99342	2024-12-28T22:00:06	0.2	93
99343	2024-12-28T22:10:06	0.2	92
99344	2024-12-28T22:20:06	0.3	94
99345	2024-12-28T22:30:06	0.4	95.5
99346	2024-12-28T22:40:06	0.5	95.5
99347	2024-12-28T22:50:06	0.6	95
99348	2024-12-28T23:00:06	0.3	90.5
99349	2024-12-28T23:10:06	0.3	92
99350	2024-12-28T23:20:06	0.1	91.5
99351	2024-12-28T23:30:06	0.3	93
99352	2024-12-28T23:40:06	0.4	92.5
99353	2024-12-28T23:50:06	0.3	91
99354	2024-12-29T00:00:06	0.4	92
99355	2024-12-29T00:10:06	0.4	91
99356	2024-12-29T00:20:06	0.4	90.5
99357	2024-12-29T00:30:06	0.4	90
99358	2024-12-29T00:40:06	0.3	89.5
99359	2024-12-29T00:50:06	0.2	89.5
99360	2024-12-29T01:00:06	0.4	91
99361	2024-12-29T01:10:06	0.5	91.5
99362	2024-12-29T01:20:06	0.5	91
99363	2024-12-29T01:30:06	0.4	91.5
99364	2024-12-29T01:40:06	0.3	91
99365	2024-12-29T01:50:06	0.3	91
99366	2024-12-29T02:00:06	0.3	92
99367	2024-12-29T02:10:06	0.5	92
99368	2024-12-29T02:30:06	0.3	90.5
99369	2024-12-29T02:40:06	0.1	89.5
99370	2024-12-29T02:50:06	0.1	89.5
99371	2024-12-29T03:00:06	0	91.5
99372	2024-12-29T03:10:06	0.1	91.5
99373	2024-12-29T03:20:06	0	91
99374	2024-12-29T03:30:06	0.1	92
99375	2024-12-29T03:40:06	0	92.5
99376	2024-12-29T03:50:06	0.1	93.5
99377	2024-12-29T04:00:06	0	92
99378	2024-12-29T04:10:06	0	92
99379	2024-12-29T04:20:06	0	92
99380	2024-12-29T04:30:06	0	92
99381	2024-12-29T04:40:06	0	91.5
99382	2024-12-29T04:50:06	0	91.5
99383	2024-12-29T05:00:06	-0.1	92
99384	2024-12-29T05:10:06	-0.1	92.5
99385	2024-12-29T05:20:06	-0.2	92.5
99386	2024-12-29T05:30:06	-0.3	93
99387	2024-12-29T05:40:06	-0.3	93.5
99388	2024-12-29T05:50:06	-0.1	93
99389	2024-12-29T06:00:06	-0.2	92.5
99390	2024-12-29T06:10:06	-0.1	92.5
99391	2024-12-29T06:20:06	-0.1	93
99392	2024-12-29T06:30:06	-0.3	92.5
99393	2024-12-29T06:40:06	-0.4	93
99394	2024-12-29T06:50:06	-0.2	93.5
99395	2024-12-29T07:00:06	-0.5	93.5
99396	2024-12-29T07:10:06	-0.5	93.5
99397	2024-12-29T07:20:06	-0.7	94.5
99398	2024-12-29T07:30:06	-0.6	96
99399	2024-12-29T07:40:06	-0.5	96.5
99400	2024-12-29T07:50:06	-0.5	96.5
99401	2024-12-29T08:00:06	-0.3	96
99402	2024-12-29T08:10:06	-0.2	96.5
99403	2024-12-29T08:20:06	-0.1	96
99404	2024-12-29T08:30:06	0	95.5
99405	2024-12-29T08:40:06	0.1	96
99406	2024-12-29T08:50:06	0.2	95.5
99407	2024-12-29T09:00:06	0.2	95.5
99408	2024-12-29T09:10:06	0.3	95.5
99409	2024-12-29T09:20:06	0.3	96
99410	2024-12-29T09:30:06	0.4	95.5
99411	2024-12-29T09:40:06	0.4	95.5
99412	2024-12-29T09:50:06	0.4	96
99413	2024-12-29T10:00:06	0.4	95.5
99414	2024-12-29T10:10:06	0.6	95.5
99415	2024-12-29T10:20:06	0.5	95
99416	2024-12-29T10:30:06	0.6	95.5
99417	2024-12-29T10:40:06	0.5	95.5
99418	2024-12-29T10:50:06	0.5	95.5
99419	2024-12-29T11:00:06	0.6	95.5
99420	2024-12-29T11:10:06	0.6	95.5
99421	2024-12-29T11:20:06	0.5	95.5
99422	2024-12-29T11:30:06	0.6	95.5
99423	2024-12-29T11:40:06	0.7	95.5
99424	2024-12-29T11:50:06	0.6	95.5
99425	2024-12-29T12:00:06	0.6	95.5
99426	2024-12-29T12:10:06	0.7	95.5
99427	2024-12-29T12:20:06	0.7	95.5
99428	2024-12-29T12:30:06	0.7	95.5
99429	2024-12-29T12:40:06	0.7	95
99430	2024-12-29T12:50:06	0.7	95
99431	2024-12-29T13:00:06	0.8	95.5
99432	2024-12-29T13:10:06	0.9	95
99433	2024-12-29T13:20:06	0.9	95
99434	2024-12-29T13:30:06	0.9	95
99435	2024-12-29T13:40:06	0.9	95
99436	2024-12-29T13:50:06	1	95.5
99437	2024-12-29T14:00:06	0.9	95.5
99438	2024-12-29T14:10:06	0.9	97
99439	2024-12-29T14:20:06	0.9	97
99440	2024-12-29T14:30:06	1	95.5
99441	2024-12-29T14:40:06	1.1	94.5
99442	2024-12-29T14:50:06	1.1	93.5
99443	2024-12-29T15:00:06	1	93.5
99444	2024-12-29T15:10:06	1	93.5
99445	2024-12-29T15:20:06	1	93
99446	2024-12-29T15:30:06	0.9	93
99447	2024-12-29T15:40:06	1.1	93
99448	2024-12-29T15:50:06	1	93.5
99449	2024-12-29T16:00:06	1.2	93.5
99450	2024-12-29T16:10:06	1.1	93
99451	2024-12-29T16:20:06	1.2	92.5
99452	2024-12-29T16:30:06	1.1	92.5
99453	2024-12-29T16:40:06	0.9	91.5
99454	2024-12-29T16:50:06	0.9	91.5
99455	2024-12-29T17:00:06	1	91.5
99456	2024-12-29T17:10:06	1	92
99457	2024-12-29T17:20:06	1	91
99458	2024-12-29T17:30:06	1	91
99459	2024-12-29T17:40:06	1	90.5
99460	2024-12-29T17:50:06	1	90
99461	2024-12-29T18:00:06	1.2	91
99462	2024-12-29T18:10:06	0.9	91
99463	2024-12-29T18:20:06	1.1	90.5
99464	2024-12-29T18:30:06	1.1	89.5
99465	2024-12-29T18:40:06	1.1	89.5
99466	2024-12-29T18:50:06	1.1	89
99467	2024-12-29T19:00:06	0.9	89.5
99468	2024-12-29T19:10:06	0.8	88.5
99469	2024-12-29T19:20:06	1	89
99470	2024-12-29T19:30:06	1.1	88.5
99471	2024-12-29T19:40:06	1.1	89.5
99472	2024-12-29T19:50:06	1.2	89
99473	2024-12-29T20:00:06	1.1	88.5
99474	2024-12-29T20:10:06	1.1	88.5
99475	2024-12-29T20:20:06	1.2	89
99476	2024-12-29T20:30:06	1.2	89
99477	2024-12-29T20:40:06	1.2	88.5
99478	2024-12-29T20:50:06	1.2	88.5
99479	2024-12-29T21:00:06	1.2	88.5
99480	2024-12-29T21:10:06	1.2	88.5
99481	2024-12-29T21:20:06	1.2	88
99482	2024-12-29T21:30:06	1.3	89
99483	2024-12-29T21:40:06	1.4	89
99484	2024-12-29T21:50:06	1.3	89.5
99485	2024-12-29T22:00:06	1.4	89.5
99486	2024-12-29T22:10:06	1.2	89
99487	2024-12-29T22:20:06	1.3	89.5
99488	2024-12-29T22:30:06	1.3	89
99489	2024-12-29T22:40:06	1.3	89.5
99490	2024-12-29T22:50:06	1.4	89.5
99491	2024-12-29T23:00:06	1.3	89
99492	2024-12-29T23:10:06	1.4	89.5
99493	2024-12-29T23:20:06	1.3	89.5
99494	2024-12-29T23:30:06	1.4	89.5
99495	2024-12-29T23:40:06	1.3	89
99496	2024-12-29T23:50:06	1.3	90
99497	2024-12-30T00:00:06	1.3	89.5
99498	2024-12-30T00:10:06	1.5	89.5
99499	2024-12-30T00:20:06	1.3	90
99500	2024-12-30T00:30:06	1.3	90
99501	2024-12-30T00:40:06	1.3	90
99502	2024-12-30T00:50:06	1.1	90
99503	2024-12-30T01:00:06	1.2	90
99504	2024-12-30T01:10:06	1.2	90
99505	2024-12-30T01:20:06	1.3	90.5
99506	2024-12-30T01:30:06	1.1	90.5
99507	2024-12-30T01:40:06	1.2	90
99508	2024-12-30T01:50:06	1.3	90
99509	2024-12-30T02:00:06	1.3	89.5
99510	2024-12-30T02:10:06	1.3	89.5
99511	2024-12-30T02:20:06	1.3	89
99512	2024-12-30T02:30:06	1.2	89.5
99513	2024-12-30T02:40:06	1.2	89.5
99514	2024-12-30T02:50:06	1.3	89.5
99515	2024-12-30T03:00:06	1.2	89.5
99516	2024-12-30T03:10:06	1.3	89.5
99517	2024-12-30T03:20:06	1.1	88.5
99518	2024-12-30T03:30:06	1.1	89
99519	2024-12-30T03:40:06	1.1	89
99520	2024-12-30T03:50:06	1.1	89
99521	2024-12-30T04:00:06	1.2	89
99522	2024-12-30T04:10:06	1.1	89
99523	2024-12-30T04:20:06	1.1	89
99524	2024-12-30T04:30:06	1.2	89
99525	2024-12-30T04:40:06	1	89
99526	2024-12-30T04:50:06	1	88.5
99527	2024-12-30T05:00:06	1	88.5
99528	2024-12-30T05:10:06	0.8	89
99529	2024-12-30T05:20:06	0.9	89
99530	2024-12-30T05:30:06	0.9	89.5
99531	2024-12-30T05:40:06	0.8	88.5
99532	2024-12-30T05:50:06	0.9	89
99533	2024-12-30T06:00:06	0.9	88.5
99534	2024-12-30T06:20:06	0.7	89
99535	2024-12-30T06:30:06	0.9	89
99536	2024-12-30T06:40:06	0.7	89
99537	2024-12-30T06:50:06	0.8	89
99538	2024-12-30T07:00:06	0.9	88.5
99539	2024-12-30T07:10:06	0.8	88.5
99540	2024-12-30T07:20:06	0.9	88.5
99541	2024-12-30T07:30:06	0.9	88.5
99542	2024-12-30T07:40:06	0.8	88.5
99543	2024-12-30T07:50:06	0.9	88.5
99544	2024-12-30T08:00:06	1	88.5
99545	2024-12-30T08:10:06	1	88.5
99546	2024-12-30T08:20:06	1.2	88.5
99547	2024-12-30T08:30:06	1.1	88.5
99548	2024-12-30T08:40:06	0.9	88
99549	2024-12-30T08:50:06	1.1	88.5
99550	2024-12-30T09:00:06	1.2	88.5
99551	2024-12-30T09:10:06	1	87.5
99552	2024-12-30T09:20:06	1.3	88
99553	2024-12-30T09:30:06	1.1	87.5
99554	2024-12-30T09:40:06	1	87.5
99555	2024-12-30T09:50:06	1.4	88.5
99556	2024-12-30T10:00:06	1.5	87.5
99557	2024-12-30T10:10:06	1.5	87
99558	2024-12-30T10:20:06	1.4	86.5
99559	2024-12-30T10:40:06	1.7	88.5
99560	2024-12-30T10:50:06	1.8	87.5
99561	2024-12-30T11:00:06	1.9	87.5
99562	2024-12-30T11:10:06	1.8	86
99563	2024-12-30T11:20:06	1.7	86.5
99564	2024-12-30T11:30:06	1.8	86.5
99565	2024-12-30T11:40:06	1.7	85.5
99566	2024-12-30T11:50:06	1.8	88
99567	2024-12-30T12:00:06	1.9	86
99568	2024-12-30T12:10:06	1.7	85
99569	2024-12-30T12:20:06	1.9	86.5
99570	2024-12-30T12:30:06	1.9	86
99571	2024-12-30T12:40:06	1.9	85.5
99572	2024-12-30T12:50:06	1.7	86.5
99573	2024-12-30T13:00:06	1.6	86.5
99574	2024-12-30T13:10:06	1.7	87
99575	2024-12-30T13:20:06	2	87
99576	2024-12-30T13:30:06	1.8	87
99577	2024-12-30T13:40:06	1.6	86
99578	2024-12-30T13:50:06	1.5	87
99579	2024-12-30T14:00:06	1.7	87
99580	2024-12-30T14:10:06	1.9	86.5
99581	2024-12-30T14:20:06	1.9	87.5
99582	2024-12-30T14:30:06	1.9	87
99583	2024-12-30T14:40:06	2	87.5
99584	2024-12-30T14:50:06	2	88
99585	2024-12-30T15:00:06	2.1	87.5
99586	2024-12-30T15:10:06	2.1	87.5
99587	2024-12-30T15:20:06	2.1	87
99588	2024-12-30T15:30:06	2.1	88
99589	2024-12-30T15:40:06	1.8	86.5
99590	2024-12-30T15:50:06	1.7	86.5
99591	2024-12-30T16:00:06	1.9	88.5
99592	2024-12-30T16:10:06	1.8	87.5
99593	2024-12-30T16:20:06	1.3	87
99594	2024-12-30T16:30:06	1.7	87
99595	2024-12-30T16:40:06	1.8	89
99596	2024-12-30T16:50:06	1.8	87
99597	2024-12-30T17:00:06	1.5	87
99598	2024-12-30T17:10:06	1.4	88
99599	2024-12-30T17:20:06	1.6	88
99600	2024-12-30T17:30:06	1.4	88.5
99601	2024-12-30T17:40:06	1.5	88
99602	2024-12-30T18:00:06	1.2	89
99603	2024-12-30T18:10:06	1.4	89
99604	2024-12-30T18:20:06	1.4	88.5
99605	2024-12-30T18:30:06	1.4	88.5
99606	2024-12-30T18:40:06	1.3	88
99607	2024-12-30T18:50:06	1.1	89
99608	2024-12-30T19:00:06	1.2	89
99609	2024-12-30T19:10:06	1.5	89
99610	2024-12-30T19:20:06	1.3	89
99611	2024-12-30T19:30:06	1	89
99612	2024-12-30T19:40:06	1.2	89
99613	2024-12-30T19:50:06	1.2	89
99614	2024-12-30T20:00:06	1.3	89.5
99615	2024-12-30T20:10:06	1.2	89
99616	2024-12-30T20:20:06	1.1	89.5
99617	2024-12-30T20:30:06	1.1	89.5
99618	2024-12-30T20:40:06	1.2	89.5
99619	2024-12-30T20:50:06	1.1	89.5
99620	2024-12-30T21:00:06	1	89.5
99621	2024-12-30T21:10:06	0.9	90.5
99622	2024-12-30T21:20:06	1.1	90
99623	2024-12-30T21:30:06	1.3	90
99624	2024-12-30T21:40:06	1.3	89.5
99625	2024-12-30T21:50:06	1.3	89.5
99626	2024-12-30T22:00:06	1.2	90
99627	2024-12-30T22:10:06	1.2	90
99628	2024-12-30T22:20:06	0.9	91
99629	2024-12-30T22:30:06	0.8	91.5
99630	2024-12-30T22:40:06	0.8	91.5
99631	2024-12-30T22:50:06	0.8	91.5
99632	2024-12-30T23:00:06	0.5	92.5
99633	2024-12-30T23:10:06	0.8	92.5
99634	2024-12-30T23:20:06	0.7	91.5
99635	2024-12-30T23:30:06	0.7	92.5
99636	2024-12-30T23:40:06	0.6	92.5
99637	2024-12-30T23:50:06	0.7	92
99638	2024-12-31T00:00:06	0.6	92
99639	2024-12-31T00:10:06	0.5	92
99640	2024-12-31T00:20:06	0.5	92.5
99641	2024-12-31T00:30:06	0.7	92
99642	2024-12-31T00:40:06	0.5	92
99643	2024-12-31T00:50:06	0.6	92
99644	2024-12-31T01:00:06	0.4	92.5
99645	2024-12-31T01:10:06	0.5	92.5
99646	2024-12-31T01:20:06	0.7	92.5
99647	2024-12-31T01:30:06	0.7	92
99648	2024-12-31T01:40:06	0.6	92
99649	2024-12-31T01:50:06	0.6	91.5
99650	2024-12-31T02:00:06	0.6	92
99651	2024-12-31T02:10:06	0.4	91.5
99652	2024-12-31T02:20:06	0.4	91.5
99653	2024-12-31T02:30:06	0.3	92
99654	2024-12-31T02:40:06	0.2	92.5
99655	2024-12-31T02:50:06	0.4	93
99656	2024-12-31T03:00:06	0.5	92
99657	2024-12-31T03:10:06	0.5	92
99658	2024-12-31T03:20:06	0.4	92
99659	2024-12-31T03:30:06	0.3	91.5
99660	2024-12-31T03:40:06	0.2	92
99661	2024-12-31T03:50:06	0.1	92.5
99662	2024-12-31T04:00:06	0.1	92.5
99663	2024-12-31T04:10:06	0.1	93
99664	2024-12-31T04:20:06	0	94
99665	2024-12-31T04:30:06	0	94
99666	2024-12-31T04:40:06	0	94
99667	2024-12-31T04:50:06	0	94
99668	2024-12-31T05:00:06	0	94
99669	2024-12-31T05:10:06	-0.1	94
99670	2024-12-31T05:20:06	0	93.5
99671	2024-12-31T05:30:06	0	93.5
99672	2024-12-31T05:40:06	0	93
99673	2024-12-31T05:50:06	0	93.5
99674	2024-12-31T06:00:06	0	93
99675	2024-12-31T06:10:06	-0.2	93.5
99676	2024-12-31T06:20:06	0	93.5
99677	2024-12-31T06:30:06	0	93
99678	2024-12-31T06:50:06	-0.3	93
99679	2024-12-31T07:00:06	-0.2	93
99680	2024-12-31T07:10:06	0	93
99681	2024-12-31T07:20:06	0	92.5
99682	2024-12-31T07:30:06	0	93
99683	2024-12-31T07:40:06	0	93
99684	2024-12-31T07:50:06	0	93
99685	2024-12-31T08:00:06	-0.2	93
99686	2024-12-31T08:10:06	0	93
99687	2024-12-31T08:20:06	0	93
99688	2024-12-31T08:30:23	-0.1	92
99689	2024-12-31T08:40:06	0	92
99690	2024-12-31T08:50:06	-0.2	92.5
99691	2024-12-31T09:00:06	0	92
99692	2024-12-31T09:10:06	0	92
99693	2024-12-31T09:20:06	0	92
99694	2024-12-31T09:30:06	0.1	92
99695	2024-12-31T09:40:06	0.1	91.5
99696	2024-12-31T09:50:06	-0.1	92
99697	2024-12-31T10:00:06	0.1	92
99698	2024-12-31T10:20:06	0.3	90.5
99699	2024-12-31T10:30:06	0.5	90.5
99700	2024-12-31T10:40:06	0.6	89.5
99701	2024-12-31T10:50:06	0.3	90.5
99702	2024-12-31T11:00:06	0.4	90
99703	2024-12-31T11:10:06	0.3	90
99704	2024-12-31T11:20:06	0.4	90
99705	2024-12-31T11:30:06	0.6	89
99706	2024-12-31T11:40:06	0.6	88.5
99707	2024-12-31T11:50:06	0.7	88
99708	2024-12-31T12:00:06	0.8	88
99709	2024-12-31T12:10:06	0.6	88
99710	2024-12-31T12:20:06	0.6	88
99711	2024-12-31T12:30:06	0.6	88.5
99712	2024-12-31T12:40:06	0.3	89
99713	2024-12-31T12:50:06	0.5	88.5
99714	2024-12-31T13:00:06	0.6	89
99715	2024-12-31T13:10:06	0.6	89
99716	2024-12-31T13:20:06	0.6	89.5
99717	2024-12-31T13:30:06	0.6	89.5
99718	2024-12-31T13:40:06	0.7	89.5
99719	2024-12-31T13:50:06	0.7	90
99720	2024-12-31T14:00:06	0.7	90
99721	2024-12-31T14:10:06	0.7	90
99722	2024-12-31T14:20:06	0.7	90.5
99723	2024-12-31T14:30:06	0.7	90.5
99724	2024-12-31T14:40:06	0.6	90.5
99725	2024-12-31T14:50:06	0.7	91
99726	2024-12-31T15:00:06	0.6	91
99727	2024-12-31T15:10:06	0.6	91
99728	2024-12-31T15:20:06	0.6	91
99729	2024-12-31T15:30:06	0.5	91.5
99730	2024-12-31T15:40:06	0.6	91.5
99731	2024-12-31T15:50:06	0.6	91.5
99732	2024-12-31T16:00:06	0.6	91.5
99733	2024-12-31T16:10:06	0.7	91.5
99734	2024-12-31T16:20:06	0.6	91
99735	2024-12-31T16:30:06	0.6	91
99736	2024-12-31T16:40:06	0.5	91
99737	2024-12-31T16:50:06	0.4	91.5
99738	2024-12-31T17:00:06	0.4	91.5
99739	2024-12-31T17:10:06	0.4	91.5
99740	2024-12-31T17:20:06	0.5	91.5
99741	2024-12-31T17:30:06	0.5	91.5
99742	2024-12-31T17:40:06	0.5	91.5
99743	2024-12-31T17:50:06	0.5	91.5
99744	2024-12-31T18:00:06	0.5	92
99745	2024-12-31T18:10:06	0.4	92
99746	2024-12-31T18:20:06	0.6	92
99747	2024-12-31T18:30:06	0.5	92
99748	2024-12-31T18:40:06	0.5	92
99749	2024-12-31T18:50:06	0.6	91
99750	2024-12-31T19:00:06	0.5	91
99751	2024-12-31T19:10:06	0.6	91
99752	2024-12-31T19:20:06	0.7	90.5
99753	2024-12-31T19:30:06	0.6	90
99754	2024-12-31T19:40:06	0.7	90
99755	2024-12-31T19:50:06	0.7	90
99756	2024-12-31T20:00:06	0.7	90
99757	2024-12-31T20:10:06	0.7	90
99758	2024-12-31T20:20:06	0.7	90
99759	2024-12-31T20:30:06	0.7	90
99760	2024-12-31T20:40:06	0.7	90
99761	2024-12-31T20:50:06	0.6	90
99762	2024-12-31T21:00:06	0.6	90.5
99763	2024-12-31T21:10:06	0.6	90.5
99764	2024-12-31T21:20:06	0.5	90.5
99765	2024-12-31T21:30:06	0.5	90.5
99766	2024-12-31T21:40:06	0.6	90.5
99767	2024-12-31T21:50:06	0.5	90.5
99768	2024-12-31T22:00:06	0.6	90.5
99769	2024-12-31T22:10:06	0.5	90.5
99770	2024-12-31T22:20:06	0.4	91
99771	2024-12-31T22:30:06	0.4	91
99772	2024-12-31T22:40:06	0.1	91.5
99773	2024-12-31T22:50:06	0	91.5
99774	2024-12-31T23:00:06	0.2	91.5
99775	2024-12-31T23:10:06	0.2	92
99776	2024-12-31T23:20:06	0.1	93
99777	2024-12-31T23:30:06	0	93.5
99778	2024-12-31T23:40:06	0	94
99779	2024-12-31T23:50:06	-0.1	94
99780	2025-01-01T00:00:06	0	92.5
99781	2025-01-01T00:10:06	-0.2	93
99782	2025-01-01T00:20:06	-0.2	92
99783	2025-01-01T00:30:24	-0.3	92
99784	2025-01-01T00:40:06	-0.5	92.5
99785	2025-01-01T00:50:06	-0.1	91.5
99786	2025-01-01T01:00:06	-0.3	91.5
99787	2025-01-01T01:10:06	-0.3	92.5
99788	2025-01-01T01:20:06	-0.4	93.5
99789	2025-01-01T01:30:06	-0.3	93.5
99790	2025-01-01T01:40:06	-0.3	92
99791	2025-01-01T01:50:06	-0.5	92
99792	2025-01-01T02:00:06	-0.5	92
99793	2025-01-01T02:10:06	-0.5	92
99794	2025-01-01T02:20:06	-0.6	91
99795	2025-01-01T02:30:06	-0.6	91.5
99796	2025-01-01T02:40:06	-0.6	92
99797	2025-01-01T02:50:06	-0.5	92.5
99798	2025-01-01T03:00:06	-0.5	91.5
99799	2025-01-01T03:10:06	-0.5	91
99800	2025-01-01T03:20:06	-0.6	92.5
99801	2025-01-01T03:30:06	-0.6	91
99802	2025-01-01T03:40:06	-0.7	91.5
99803	2025-01-01T03:50:06	-0.7	92.5
99804	2025-01-01T04:00:06	-0.7	93
99805	2025-01-01T04:10:06	-0.7	93
99806	2025-01-01T04:20:06	-0.8	92.5
99807	2025-01-01T04:30:06	-0.7	92
99808	2025-01-01T04:40:06	-0.8	92
99809	2025-01-01T04:50:06	-0.9	93
99810	2025-01-01T05:00:06	-0.9	93.5
99811	2025-01-01T05:10:06	-0.8	93.5
99812	2025-01-01T05:20:06	-0.9	92.5
99813	2025-01-01T05:30:06	-1	91.5
99814	2025-01-01T05:40:06	-1.1	92.5
99815	2025-01-01T05:50:06	-1.3	91
99816	2025-01-01T06:00:06	-1.3	91
99817	2025-01-01T06:10:06	-1.2	93
99818	2025-01-01T06:20:06	-1.3	92.5
99819	2025-01-01T06:30:06	-1.5	92.5
99820	2025-01-01T06:40:06	-1.3	95
99821	2025-01-01T06:50:06	-1	94.5
99822	2025-01-01T07:00:06	-0.7	94.5
99823	2025-01-01T07:10:06	-0.7	94.5
99824	2025-01-01T07:20:06	-0.6	94
99825	2025-01-01T07:30:06	-0.6	94
99826	2025-01-01T07:40:06	-0.6	94
99827	2025-01-01T07:50:06	-0.6	93.5
99828	2025-01-01T08:00:06	-0.6	93.5
99829	2025-01-01T08:10:06	-0.6	93.5
99830	2025-01-01T08:20:06	-0.4	93
99831	2025-01-01T08:30:06	-0.1	92.5
99832	2025-01-01T08:40:06	0	92
99833	2025-01-01T08:50:06	0.1	91.5
99834	2025-01-01T09:00:06	0.1	91.5
99835	2025-01-01T09:10:06	0.3	91.5
99836	2025-01-01T09:20:06	0.4	90.5
99837	2025-01-01T09:30:28	0.7	90.5
99838	2025-01-01T09:40:06	0.9	90.5
99839	2025-01-01T09:50:06	1.1	90.5
99840	2025-01-01T10:00:06	1.5	89.5
99841	2025-01-01T10:10:06	2.1	86
99842	2025-01-01T10:20:06	3	80.5
99843	2025-01-01T10:30:06	3.9	74.5
99844	2025-01-01T10:40:06	4.6	72
99845	2025-01-01T10:50:06	5	70.5
99846	2025-01-01T11:00:06	5.8	65.5
99847	2025-01-01T11:10:06	6.4	63.5
99848	2025-01-01T11:20:06	7	61.5
99849	2025-01-01T11:30:06	7.5	59
99850	2025-01-01T11:40:06	8.2	57.5
99851	2025-01-01T11:50:06	9.1	53.5
99852	2025-01-01T12:00:06	9.2	52
99853	2025-01-01T12:10:06	9.6	51
99854	2025-01-01T12:20:06	10.2	50
99855	2025-01-01T12:30:06	11.2	47.5
99856	2025-01-01T12:40:06	11.9	45
99857	2025-01-01T12:50:06	12.2	44.5
99858	2025-01-01T13:00:06	12.3	45
99859	2025-01-01T13:10:06	12.4	45.5
99860	2025-01-01T13:20:06	12.5	45.5
99861	2025-01-01T13:30:06	12.7	45
99862	2025-01-01T13:40:06	12.9	44.5
99863	2025-01-01T13:50:06	12.7	45.5
99864	2025-01-01T14:00:06	13.1	45.5
99865	2025-01-01T14:10:06	12.8	45.5
99866	2025-01-01T14:20:06	12.5	45.5
99867	2025-01-01T14:30:06	12	46
99868	2025-01-01T14:40:06	12	46.5
99869	2025-01-01T14:50:06	11.8	46.5
99870	2025-01-01T15:00:06	11.4	47.5
99871	2025-01-01T15:10:06	11.1	48.5
99872	2025-01-01T15:20:06	10.7	49
99873	2025-01-01T15:30:06	10.4	49
99874	2025-01-01T15:40:06	10.1	49.5
99875	2025-01-01T15:50:06	9.9	48
99876	2025-01-01T16:00:05	9.9	47.5
99877	2025-01-01T16:10:05	9.8	46
99878	2025-01-01T16:20:05	10	44
99879	2025-01-01T16:30:06	10.1	43.5
99880	2025-01-01T16:40:05	10.2	42.5
99881	2025-01-01T16:50:05	10.4	40.5
99882	2025-01-01T17:00:05	10.6	38.5
99883	2025-01-01T17:10:05	11	37.5
99884	2025-01-01T17:20:05	11.3	35.5
99885	2025-01-01T17:30:05	11.2	36
99886	2025-01-01T17:40:05	11.2	37.5
99887	2025-01-01T17:50:05	10.7	38.5
99888	2025-01-01T18:00:05	10.7	38
99889	2025-01-01T18:10:05	10.8	37
99890	2025-01-01T18:20:05	11.1	35.5
99891	2025-01-01T18:30:05	11.1	36.5
99892	2025-01-01T18:40:05	11.2	36
99893	2025-01-01T18:50:05	11.3	36
99894	2025-01-01T19:00:05	11.4	36
99895	2025-01-01T19:10:05	11.6	36.5
99896	2025-01-01T19:20:05	11.4	37.5
99897	2025-01-01T19:30:05	11.1	38.5
99898	2025-01-01T19:40:05	11	39.5
99899	2025-01-01T19:50:05	10.7	41.5
99900	2025-01-01T20:00:05	10.4	42.5
99901	2025-01-01T20:10:05	10.3	43.5
99902	2025-01-01T20:20:05	10.1	44
99903	2025-01-01T20:30:05	10.2	43.5
99904	2025-01-01T20:40:05	10.3	43.5
99905	2025-01-01T20:50:05	10.3	44
99906	2025-01-01T21:00:05	10.1	44.5
99907	2025-01-01T21:10:05	10.4	43.5
99908	2025-01-01T21:20:05	10.5	44
99909	2025-01-01T21:30:05	10.6	43.5
99910	2025-01-01T21:40:05	10.8	43.5
99911	2025-01-01T21:50:05	10.7	44
99912	2025-01-01T22:00:05	10.7	44.5
99913	2025-01-01T22:10:05	10.7	44.5
99914	2025-01-01T22:20:05	10.5	46
99915	2025-01-01T22:30:05	10.3	47
99916	2025-01-01T22:40:05	10	48
99917	2025-01-01T22:50:05	10	48
99918	2025-01-01T23:00:05	10.1	48
99919	2025-01-01T23:10:05	10.2	48.5
99920	2025-01-01T23:20:05	10	49.5
99921	2025-01-01T23:30:05	10	49.5
99922	2025-01-01T23:40:05	10	50
99923	2025-01-01T23:50:05	9.8	50.5
99924	2025-01-02T00:00:05	9.9	50
99925	2025-01-02T00:10:05	9.9	50
99926	2025-01-02T00:20:05	9.9	50
99927	2025-01-02T00:30:05	10	50
99928	2025-01-02T00:40:05	9.9	50
99929	2025-01-02T00:50:05	10	50
99930	2025-01-02T01:00:05	9.9	50
99931	2025-01-02T01:10:05	10	50
99932	2025-01-02T01:20:05	10.1	50
99933	2025-01-02T01:30:05	10.1	50
99934	2025-01-02T01:40:05	9.9	51
99935	2025-01-02T01:50:05	10	50.5
99936	2025-01-02T02:00:05	9.9	50
99937	2025-01-02T02:10:05	10	49
99938	2025-01-02T02:20:05	10	48.5
99939	2025-01-02T02:30:05	10	49
99940	2025-01-02T02:40:05	10	48.5
99941	2025-01-02T02:50:05	10	48
99942	2025-01-02T03:00:05	10.1	48
99943	2025-01-02T03:10:05	10.3	47.5
99944	2025-01-02T03:20:05	10.2	47
99945	2025-01-02T03:30:05	10.3	46.5
99946	2025-01-02T03:40:05	10.5	46.5
99947	2025-01-02T03:50:05	10.4	46
99948	2025-01-02T04:00:05	10.4	46.5
99949	2025-01-02T04:10:05	10.4	46.5
99950	2025-01-02T04:20:05	10.5	46
99951	2025-01-02T04:30:05	10.6	46
99952	2025-01-02T04:40:05	10.5	46.5
99953	2025-01-02T04:50:05	10.4	47.5
99954	2025-01-02T05:00:05	10.5	48
99955	2025-01-02T05:10:05	10.4	47.5
99956	2025-01-02T05:20:05	10.5	46.5
99957	2025-01-02T05:30:05	10.7	47
99958	2025-01-02T05:40:05	10.7	46
99959	2025-01-02T05:50:05	10.8	46.5
99960	2025-01-02T06:00:05	10.8	46
99961	2025-01-02T06:10:05	11	46.5
99962	2025-01-02T06:20:05	8.3	84
99963	2025-01-02T06:30:05	7.3	83
99964	2025-01-02T06:40:05	8.1	70.5
99965	2025-01-02T06:50:05	8.6	62.5
99966	2025-01-02T07:00:05	8.4	66
99967	2025-01-02T07:10:05	7.9	79
99968	2025-01-02T07:20:05	7	91
99969	2025-01-02T07:30:05	6.6	93
99970	2025-01-02T07:40:05	6.3	97.5
99971	2025-01-02T07:50:05	6.1	100
99972	2025-01-02T08:00:05	6.1	100
99973	2025-01-02T08:10:05	5.8	100
99974	2025-01-02T08:20:05	5.8	100
99975	2025-01-02T08:30:05	5.7	100
99976	2025-01-02T08:40:05	5.8	100
99977	2025-01-02T08:50:05	5.6	100
99978	2025-01-02T09:00:05	5.6	100
99979	2025-01-02T09:10:05	5.7	100
99980	2025-01-02T09:20:05	5.6	100
99981	2025-01-02T09:30:05	5.8	100
99982	2025-01-02T09:40:05	5.9	100
99983	2025-01-02T09:50:05	5.9	100
99984	2025-01-02T10:00:05	6	100
99985	2025-01-02T10:10:05	6.1	100
99986	2025-01-02T10:20:05	6.2	100
99987	2025-01-02T10:30:05	6.2	100
99988	2025-01-02T10:40:05	6.1	100
99989	2025-01-02T10:50:05	6.2	100
99990	2025-01-02T11:00:04	6.2	100
99991	2025-01-02T11:10:04	6.2	100
99992	2025-01-02T11:20:04	6.2	100
99993	2025-01-02T11:30:04	6.4	100
99994	2025-01-02T11:40:04	6.3	100
99995	2025-01-02T11:50:04	6.2	100
99996	2025-01-02T12:00:04	6.2	100
99997	2025-01-02T12:10:04	6.3	100
99998	2025-01-02T12:20:04	6	100
99999	2025-01-02T12:30:04	5.7	100
100000	2025-01-02T12:40:04	5.5	100
100001	2025-01-02T12:50:04	5.3	100
100002	2025-01-02T13:00:04	5	100
100003	2025-01-02T13:10:04	4.9	100
100004	2025-01-02T13:20:04	4.8	100
100005	2025-01-02T13:30:05	4.7	100
100006	2025-01-02T13:40:04	4.8	100
100007	2025-01-02T13:50:04	4.7	100
100008	2025-01-02T14:00:04	4.7	100
100009	2025-01-02T14:10:04	4.7	100
100010	2025-01-02T14:20:04	4.6	100
100011	2025-01-02T14:30:04	4.9	100
100012	2025-01-02T14:40:04	4.5	100
100013	2025-01-02T14:50:04	4.8	100
100014	2025-01-02T15:00:04	4.5	100
100015	2025-01-02T15:10:04	4.8	99
100016	2025-01-02T15:20:04	4.8	98
100017	2025-01-02T15:30:04	4.8	97.5
100018	2025-01-02T15:40:04	4.9	96.5
100019	2025-01-02T15:50:04	4.8	96
100020	2025-01-02T16:00:04	4.9	95.5
100021	2025-01-02T16:10:04	4.8	95.5
100022	2025-01-02T16:20:04	4.6	95.5
100023	2025-01-02T16:30:04	4.8	95.5
100024	2025-01-02T16:40:04	4.5	95.5
100025	2025-01-02T16:50:04	4.4	95.5
100026	2025-01-02T17:00:04	4.4	95.5
100027	2025-01-02T17:10:24	4.4	95.5
100028	2025-01-02T17:20:04	4.2	95.5
100029	2025-01-02T17:30:04	4.2	96
100030	2025-01-02T17:40:04	3.6	95.5
100031	2025-01-02T17:50:04	3	95.5
100032	2025-01-02T18:00:04	3	95.5
100033	2025-01-02T18:10:04	3.2	96
100034	2025-01-02T18:20:04	3.3	96
100035	2025-01-02T18:30:04	3.1	96
100036	2025-01-02T18:40:04	3.1	96
100037	2025-01-02T18:50:04	3	96
100038	2025-01-02T19:00:04	2.9	96
100039	2025-01-02T19:10:04	2.7	95.5
100040	2025-01-02T19:20:04	2.7	96
100041	2025-01-02T19:30:04	2.5	96
100042	2025-01-02T19:40:04	2.6	96
100043	2025-01-02T19:50:04	2.6	96
100044	2025-01-02T20:00:04	2.4	96
100045	2025-01-02T20:10:04	2.2	96
100046	2025-01-02T20:20:04	2.3	96
100047	2025-01-02T20:30:04	2.5	96
100048	2025-01-02T20:40:04	2.4	96
100049	2025-01-02T20:50:04	2.1	96
100050	2025-01-02T21:00:04	2.1	96
100051	2025-01-02T21:10:04	2.1	96
100052	2025-01-02T21:20:04	1.9	96
100053	2025-01-02T21:30:04	1.8	96
100054	2025-01-02T21:40:04	1.8	96
100055	2025-01-02T21:50:04	1.8	96
100056	2025-01-02T22:00:04	2	96
100057	2025-01-02T22:10:04	2.1	96
100058	2025-01-02T22:20:04	2.2	96
100059	2025-01-02T22:30:04	2.2	96
100060	2025-01-02T22:40:04	2.1	96
100061	2025-01-02T22:50:04	2	96
100062	2025-01-02T23:00:04	2	96
100063	2025-01-02T23:10:04	1.9	96
100064	2025-01-02T23:20:04	2	96
100065	2025-01-02T23:30:04	2	96
100066	2025-01-02T23:40:04	1.9	96
100067	2025-01-02T23:50:04	1.9	96
100068	2025-01-03T00:00:04	2	96
100069	2025-01-03T00:10:04	2.1	96
100070	2025-01-03T00:20:04	2.1	96
100071	2025-01-03T00:30:04	2	96
100072	2025-01-03T00:40:04	2.1	96
100073	2025-01-03T00:50:04	2.1	96
100074	2025-01-03T01:00:04	2.2	96
100075	2025-01-03T01:10:04	2.1	96
100076	2025-01-03T01:20:04	2.2	96
100077	2025-01-03T01:30:04	2.3	96
100078	2025-01-03T01:40:04	2.2	96
100079	2025-01-03T01:50:04	2.1	96
100080	2025-01-03T02:00:04	2.2	96
100081	2025-01-03T02:10:04	2.3	96
100082	2025-01-03T02:20:04	2.3	96
100083	2025-01-03T02:30:04	2.3	96
100084	2025-01-03T02:40:04	2.3	96
100085	2025-01-03T02:50:04	2.3	96
100086	2025-01-03T03:00:04	2.3	96
100087	2025-01-03T03:10:04	2.3	96
100088	2025-01-03T03:20:04	2.4	96
100089	2025-01-03T03:30:04	2.3	96
100090	2025-01-03T03:40:04	2.3	96
100091	2025-01-03T03:50:04	2.3	96
100092	2025-01-03T04:00:04	2.2	96
100093	2025-01-03T04:10:04	2.3	96.5
100094	2025-01-03T04:20:04	2.2	96.5
100095	2025-01-03T04:30:04	2.2	96.5
100096	2025-01-03T04:40:04	2.1	96.5
100097	2025-01-03T04:50:04	2.3	96.5
100098	2025-01-03T05:00:04	2.3	96.5
100099	2025-01-03T05:10:04	2.1	96.5
100100	2025-01-03T05:20:04	2.2	96.5
100101	2025-01-03T05:30:04	2.2	96.5
100102	2025-01-03T05:40:04	2.1	96.5
100103	2025-01-03T05:50:04	2.2	96.5
100104	2025-01-03T06:00:04	2.2	96.5
100105	2025-01-03T06:10:04	2.2	96.5
100106	2025-01-03T06:20:04	2.3	96.5
100107	2025-01-03T06:30:04	2.3	96.5
100108	2025-01-03T06:40:04	2.2	96.5
100109	2025-01-03T06:50:04	2.2	96.5
100110	2025-01-03T07:00:04	2.2	96.5
100111	2025-01-03T07:10:04	2.3	96.5
100112	2025-01-03T07:20:04	2.3	96.5
100113	2025-01-03T07:30:04	2.2	96.5
100114	2025-01-03T07:40:04	2.2	96.5
100115	2025-01-03T07:50:04	2.2	96.5
100116	2025-01-03T08:00:04	2.2	96.5
100117	2025-01-03T08:10:04	2.1	96.5
100118	2025-01-03T08:20:04	2.3	96.5
100119	2025-01-03T08:30:04	2.2	96.5
100120	2025-01-03T08:40:04	2.3	96.5
100121	2025-01-03T08:50:04	2.4	96.5
100122	2025-01-03T09:00:04	2.4	96.5
100123	2025-01-03T09:10:04	2.4	97
100124	2025-01-03T09:20:04	2.5	97
100125	2025-01-03T09:30:04	2.6	97.5
100126	2025-01-03T09:40:04	2.4	99.5
100127	2025-01-03T09:50:04	2.3	99.5
100128	2025-01-03T10:00:04	2.3	99.5
100129	2025-01-03T10:10:04	2.2	99.5
100130	2025-01-03T10:20:04	2.1	99.5
100131	2025-01-03T10:30:04	2	99.5
100132	2025-01-03T10:40:04	2.2	99.5
100133	2025-01-03T10:50:04	2	99.5
100134	2025-01-03T11:00:04	2	99.5
100135	2025-01-03T11:10:04	2.1	99.5
100136	2025-01-03T11:20:04	2.2	99.5
100137	2025-01-03T11:30:04	2.4	99.5
100138	2025-01-03T11:40:04	2.8	99.5
100139	2025-01-03T11:50:04	3.6	99.5
100140	2025-01-03T12:00:04	3.1	99.5
100141	2025-01-03T12:10:04	3.1	99.5
100142	2025-01-03T12:20:04	3.5	99.5
100143	2025-01-03T12:30:04	3.3	100
100144	2025-01-03T12:40:04	3.3	95
100145	2025-01-03T12:50:04	3.3	92.5
100146	2025-01-03T13:00:04	3.8	88.5
100147	2025-01-03T13:10:04	5	86.5
100148	2025-01-03T13:20:04	5.3	82
100149	2025-01-03T13:30:04	6	83.5
100150	2025-01-03T13:40:04	6	79.5
100151	2025-01-03T13:50:04	6	78.5
100152	2025-01-03T14:00:04	6	77.5
100153	2025-01-03T14:10:04	5.9	75.5
100154	2025-01-03T14:20:04	5.7	76.5
100155	2025-01-03T14:30:04	4.5	74.5
100156	2025-01-03T14:40:04	4.1	75
100157	2025-01-03T14:50:04	4.4	76.5
100158	2025-01-03T15:00:04	4.5	74.5
100159	2025-01-03T15:10:04	3.8	73
100160	2025-01-03T15:20:04	3.4	76
100161	2025-01-03T15:30:04	3.4	78.5
100162	2025-01-03T15:40:04	3.3	78
100163	2025-01-03T15:50:04	2.9	79
100164	2025-01-03T16:00:04	2.5	79
100165	2025-01-03T16:10:04	2.6	77
100166	2025-01-03T16:20:04	2.5	77
100167	2025-01-03T16:30:04	2.3	78
100168	2025-01-03T16:40:04	2.2	78.5
100169	2025-01-03T16:50:04	2.1	78.5
100170	2025-01-03T17:00:04	2	79.5
100171	2025-01-03T17:10:04	1.9	80
100172	2025-01-03T17:20:04	1.9	81
100173	2025-01-03T17:30:04	1.8	80.5
100174	2025-01-03T17:40:04	1.6	80.5
100175	2025-01-03T17:50:04	1.3	80.5
100176	2025-01-03T18:00:04	1.4	81
100177	2025-01-03T18:10:04	1.3	80.5
100178	2025-01-03T18:20:04	1.3	81
100179	2025-01-03T18:30:04	1.2	81.5
100180	2025-01-03T18:40:04	1.2	81.5
100181	2025-01-03T18:50:04	1	82.5
100182	2025-01-03T19:10:04	1	82.5
100183	2025-01-03T19:20:04	1.2	82.5
100184	2025-01-03T19:30:04	1.2	82.5
100185	2025-01-03T19:40:04	1.3	83.5
100186	2025-01-03T19:50:04	1.2	82.5
100187	2025-01-03T20:00:04	1.3	83
100188	2025-01-03T20:10:04	1.2	81.5
100189	2025-01-03T20:20:04	1	81.5
100190	2025-01-03T20:30:04	1	80
100191	2025-01-03T20:40:04	1.1	80
100192	2025-01-03T20:50:04	1.1	79
100193	2025-01-03T21:00:04	1.1	79
100194	2025-01-03T21:10:04	1.3	78
100195	2025-01-03T21:20:04	1.3	78.5
100196	2025-01-03T21:30:04	1.2	78
100197	2025-01-03T21:40:04	1.2	78.5
100198	2025-01-03T21:50:04	1.3	78.5
100199	2025-01-03T22:00:04	1.3	77.5
100200	2025-01-03T22:10:04	1.4	77.5
100201	2025-01-03T22:20:04	1.5	78
100202	2025-01-03T22:30:04	1.5	77.5
100203	2025-01-03T22:40:04	1.6	77.5
100204	2025-01-03T22:50:04	1.5	77.5
100205	2025-01-03T23:00:04	1.5	77
100206	2025-01-03T23:10:04	1.5	77
100207	2025-01-03T23:20:04	1.5	76.5
100208	2025-01-03T23:30:04	1.4	77
100209	2025-01-03T23:40:04	1.4	77
100210	2025-01-03T23:50:04	1.5	78
100211	2025-01-04T00:00:04	1.3	79
100212	2025-01-04T00:10:04	1.3	79
100213	2025-01-04T00:20:04	1.3	78.5
100214	2025-01-04T00:30:04	1.3	79
100215	2025-01-04T00:40:04	1.3	79.5
100216	2025-01-04T00:50:04	1.2	79
100217	2025-01-04T01:00:04	1.2	79
100218	2025-01-04T01:10:04	1	79.5
100219	2025-01-04T01:20:04	0.8	79.5
100220	2025-01-04T01:30:04	0.7	80
100221	2025-01-04T01:40:04	0.6	80.5
100222	2025-01-04T01:50:04	0.6	80
100223	2025-01-04T02:00:04	0.5	80.5
100224	2025-01-04T02:10:04	0.4	81.5
100225	2025-01-04T02:20:04	0.4	81
100226	2025-01-04T02:30:04	0.4	81.5
100227	2025-01-04T02:40:04	0.4	81.5
100228	2025-01-04T02:50:04	0.3	82
100229	2025-01-04T03:00:04	0.2	82.5
100230	2025-01-04T03:10:04	0.2	82.5
100231	2025-01-04T03:20:04	0.2	83
100232	2025-01-04T03:30:04	0.2	83.5
100233	2025-01-04T03:40:04	0.2	83
100234	2025-01-04T03:50:04	0.2	83
100235	2025-01-04T04:00:04	0.2	83.5
100236	2025-01-04T04:10:04	0.2	83.5
100237	2025-01-04T04:20:04	0.1	83.5
100238	2025-01-04T04:30:04	0.2	83.5
100239	2025-01-04T04:40:04	0.2	83
100240	2025-01-04T04:50:04	0.1	83
100241	2025-01-04T05:00:04	0.2	83
100242	2025-01-04T05:10:04	0.3	86
100243	2025-01-04T05:20:04	0.3	85.5
100244	2025-01-04T05:30:04	0.1	88.5
100245	2025-01-04T05:40:04	0	90.5
100246	2025-01-04T05:50:04	-0.1	90.5
100247	2025-01-04T06:00:04	-0.2	91
100248	2025-01-04T06:10:04	-0.2	92
100249	2025-01-04T06:20:04	-0.4	92.5
100250	2025-01-04T06:30:04	-0.4	93.5
100251	2025-01-04T06:40:04	-0.4	94
100252	2025-01-04T06:50:04	-0.5	94.5
100253	2025-01-04T07:00:04	-0.5	94.5
100254	2025-01-04T07:10:04	-0.7	92.5
100255	2025-01-04T07:20:04	-0.7	93.5
100256	2025-01-04T07:30:04	-0.7	94.5
100257	2025-01-04T07:40:04	-0.7	93.5
100258	2025-01-04T07:50:04	-0.6	91
100259	2025-01-04T08:00:04	-0.6	92
100260	2025-01-04T08:10:04	-0.6	93.5
100261	2025-01-04T08:20:04	-0.5	94.5
100262	2025-01-04T08:30:04	-0.4	94.5
100263	2025-01-04T08:40:04	-0.4	90.5
100264	2025-01-04T08:50:04	-0.3	91
100265	2025-01-04T09:00:04	-0.3	92.5
100266	2025-01-04T09:10:04	0	90
100267	2025-01-04T09:20:04	-0.1	90
100268	2025-01-04T09:30:04	0.1	89.5
100269	2025-01-04T09:40:04	0.1	91
100270	2025-01-04T09:50:04	0.4	92
100271	2025-01-04T10:00:04	0.7	90
100272	2025-01-04T10:10:04	0.7	87.5
100273	2025-01-04T10:20:04	0.8	89
100274	2025-01-04T10:30:04	1	89
100275	2025-01-04T10:40:04	1.2	85
100276	2025-01-04T10:50:04	1.2	84.5
100277	2025-01-04T11:00:04	1.4	85.5
100278	2025-01-04T11:10:04	1.7	83.5
100279	2025-01-04T11:20:04	1.8	84
100280	2025-01-04T11:30:04	2.2	83.5
100281	2025-01-04T11:40:04	2.6	82
100282	2025-01-04T11:50:04	3.2	81
100283	2025-01-04T12:00:04	3.5	81
100284	2025-01-04T12:10:04	4	78.5
100285	2025-01-04T12:20:04	4.7	77
100286	2025-01-04T12:30:04	6.2	72.5
100287	2025-01-04T12:40:04	6.6	71.5
100288	2025-01-04T12:50:04	6.3	69
100289	2025-01-04T13:00:04	6.7	71.5
100290	2025-01-04T13:10:04	7.4	72
100291	2025-01-04T13:20:04	8.2	66.5
100292	2025-01-04T13:30:04	7.7	66
100293	2025-01-04T13:40:04	7.1	74
100294	2025-01-04T13:50:04	6.6	76.5
100295	2025-01-04T14:00:04	6.1	75
100296	2025-01-04T14:10:04	5.9	77
100297	2025-01-04T14:20:04	5.6	77
100298	2025-01-04T14:30:04	5.4	80.5
100299	2025-01-04T14:40:04	5.3	83
100300	2025-01-04T14:50:04	5.2	84
100301	2025-01-04T15:00:04	5.1	84.5
100302	2025-01-04T15:10:04	4.9	84
100303	2025-01-04T15:20:04	4.8	84.5
100304	2025-01-04T15:30:04	4.7	86
100305	2025-01-04T15:40:04	4.6	87
100306	2025-01-04T15:50:04	4.5	84.5
100307	2025-01-04T16:00:04	4	75.5
100308	2025-01-04T16:10:04	3.9	76.5
100309	2025-01-04T16:20:04	3.4	76
100310	2025-01-04T16:30:04	3.1	78
100311	2025-01-04T16:40:04	2.9	77.5
100312	2025-01-04T16:50:04	2.9	78.5
100313	2025-01-04T17:00:04	2.9	79.5
100314	2025-01-04T17:10:04	2.9	79.5
100315	2025-01-04T17:20:04	2.9	81.5
100316	2025-01-04T17:30:04	2.8	82
100317	2025-01-04T17:40:04	2.7	80
100318	2025-01-04T17:50:04	2.7	83
100319	2025-01-04T18:00:04	2.5	80
100320	2025-01-04T18:10:04	2.5	81
100321	2025-01-04T18:20:04	2.5	81.5
100322	2025-01-04T18:30:04	2.5	85
100323	2025-01-04T18:40:04	2.6	87.5
100324	2025-01-04T18:50:04	2.6	89
100325	2025-01-04T19:00:04	2.5	88
100326	2025-01-04T19:10:04	2.4	85.5
100327	2025-01-04T19:20:04	2.3	82.5
100328	2025-01-04T19:30:04	2.3	83
100329	2025-01-04T19:40:04	2.4	85
100330	2025-01-04T19:50:04	2.4	88
100331	2025-01-04T20:00:04	2.5	89
100332	2025-01-04T20:10:04	2.5	89.5
100333	2025-01-04T20:20:04	2.4	90
100334	2025-01-04T20:30:04	2.4	90.5
100335	2025-01-04T20:40:04	2.5	90.5
100336	2025-01-04T20:50:04	2.5	89.5
100337	2025-01-04T21:00:04	2.6	90
100338	2025-01-04T21:10:04	2.5	88.5
100339	2025-01-04T21:20:04	2.6	90
100340	2025-01-04T21:30:04	2.5	90.5
100341	2025-01-04T21:40:04	2.5	90.5
100342	2025-01-04T21:50:04	2.6	90
100343	2025-01-04T22:00:04	2.6	91
100344	2025-01-04T22:10:04	2.7	91
100345	2025-01-04T22:20:04	2.6	91
100346	2025-01-04T22:30:04	2.7	91
100347	2025-01-04T22:40:04	2.7	91
100348	2025-01-04T22:50:04	2.7	90.5
100349	2025-01-04T23:00:04	2.7	87.5
100350	2025-01-04T23:10:04	2.7	89
100351	2025-01-04T23:20:04	2.8	89
100352	2025-01-04T23:30:04	2.8	90
100353	2025-01-04T23:40:04	2.7	90.5
100354	2025-01-04T23:50:04	2.7	91.5
100355	2025-01-05T00:00:04	2.7	95.5
100356	2025-01-05T00:10:04	2.4	93.5
100357	2025-01-05T00:20:04	2.6	96.5
100358	2025-01-05T00:30:04	2.6	97.5
100359	2025-01-05T00:40:04	2.6	96
100360	2025-01-05T00:50:04	2.8	97.5
100361	2025-01-05T01:00:04	2.6	96
100362	2025-01-05T01:10:04	2.7	98.5
100363	2025-01-05T01:20:04	2.8	99
100364	2025-01-05T01:30:04	2.7	97
100365	2025-01-05T01:40:04	2.6	95
100366	2025-01-05T01:50:04	2.6	95
100367	2025-01-05T02:00:04	2.7	98.5
100368	2025-01-05T02:10:04	2.6	99.5
100369	2025-01-05T02:20:04	2.7	99
100370	2025-01-05T02:30:04	2.4	95.5
100371	2025-01-05T02:40:04	2.2	94.5
100372	2025-01-05T02:50:04	1.8	100
100373	2025-01-05T03:00:04	1.7	100
100374	2025-01-05T03:10:04	1.5	100
100375	2025-01-05T03:20:04	1.6	100
100376	2025-01-05T03:30:04	1.4	100
100377	2025-01-05T03:40:04	1.4	100
100378	2025-01-05T03:50:04	1.5	100
100379	2025-01-05T04:00:04	1.5	100
100380	2025-01-05T04:10:04	1.3	100
100381	2025-01-05T04:20:04	1.5	100
100382	2025-01-05T04:30:04	1.4	100
100383	2025-01-05T04:40:04	1.6	100
100384	2025-01-05T04:50:04	1.4	100
100385	2025-01-05T05:00:04	1.5	100
100386	2025-01-05T05:10:04	1.5	100
100387	2025-01-05T05:20:04	1.4	100
100388	2025-01-05T05:30:04	1.5	100
100389	2025-01-05T05:40:04	1.5	100
100390	2025-01-05T05:50:04	1.8	100
100391	2025-01-05T06:00:04	1.9	100
100392	2025-01-05T06:10:04	2	100
100393	2025-01-05T06:20:04	1.9	100
100394	2025-01-05T06:30:04	1.9	100
100395	2025-01-05T06:40:04	2.1	100
100396	2025-01-05T06:50:04	2.1	100
100397	2025-01-05T07:00:04	2.2	100
100398	2025-01-05T07:10:04	2.2	100
100399	2025-01-05T07:20:04	2.3	100
100400	2025-01-05T07:30:04	2.3	100
100401	2025-01-05T07:40:04	2.3	100
100402	2025-01-05T07:50:04	2.4	100
100403	2025-01-05T08:00:04	2.4	100
100404	2025-01-05T08:10:04	2.5	100
100405	2025-01-05T08:20:04	2.5	100
100406	2025-01-05T08:30:04	2.5	100
100407	2025-01-05T08:40:04	2.6	100
100408	2025-01-05T08:50:04	2.7	100
100409	2025-01-05T09:00:04	2.6	100
100410	2025-01-05T09:10:04	2.8	100
100411	2025-01-05T09:20:04	2.9	100
100412	2025-01-05T09:30:03	3.3	100
100413	2025-01-05T09:40:03	6.2	100
100414	2025-01-05T09:50:04	7.7	100
100415	2025-01-05T10:00:03	8	100
100416	2025-01-05T10:10:04	8.4	100
100417	2025-01-05T10:30:03	9.1	100
100418	2025-01-05T10:40:03	9.5	100
100419	2025-01-05T10:50:03	9.9	100
100420	2025-01-05T11:00:03	10	100
100421	2025-01-05T11:10:03	10.2	100
100422	2025-01-05T11:20:03	10.4	100
100423	2025-01-05T11:30:03	10.5	100
100424	2025-01-05T11:40:03	10.6	100
100425	2025-01-05T11:50:03	10.9	99.5
100426	2025-01-05T12:00:03	11	98
100427	2025-01-05T12:10:03	10.9	98
100428	2025-01-05T12:20:03	11.1	96
100429	2025-01-05T12:30:03	11.2	95.5
100430	2025-01-05T12:40:03	11.3	94
100431	2025-01-05T12:50:03	11.4	94
100432	2025-01-05T13:00:03	11.6	93
100433	2025-01-05T13:10:03	11.7	91
100434	2025-01-05T13:20:03	12	90
100435	2025-01-05T13:30:03	12.4	87
100436	2025-01-05T13:40:03	12.7	86
100437	2025-01-05T13:50:03	12.9	84.5
100438	2025-01-05T14:00:03	13	83.5
100439	2025-01-05T14:20:03	13.1	82.5
100440	2025-01-05T14:30:03	13	83
100441	2025-01-05T14:40:03	13	83
100442	2025-01-05T14:50:03	12.9	82
100443	2025-01-05T15:00:03	13	82.5
100444	2025-01-05T15:10:03	13	82
100445	2025-01-05T15:20:03	13.1	81.5
100446	2025-01-05T15:30:03	12.9	81.5
100447	2025-01-05T15:40:03	13	81
100448	2025-01-05T15:50:03	13.1	80.5
100449	2025-01-05T16:00:03	13	81
100450	2025-01-05T16:10:03	13	80.5
100451	2025-01-05T16:20:03	13	80.5
100452	2025-01-05T16:30:03	13	80
100453	2025-01-05T16:40:03	13.1	79.5
100454	2025-01-05T16:50:03	13.1	79
100455	2025-01-05T17:00:03	13	79
100456	2025-01-05T17:10:03	12.8	78.5
100457	2025-01-05T17:20:03	12.8	80
100458	2025-01-05T17:30:03	12.7	79.5
100459	2025-01-05T17:40:03	12.8	79
100460	2025-01-05T18:00:03	12.7	79
100461	2025-01-05T18:10:03	12.7	79
100462	2025-01-05T18:20:03	12.6	80.5
100463	2025-01-05T18:30:03	12.4	80
100464	2025-01-05T18:40:03	12.4	78.5
100465	2025-01-05T18:50:03	12.3	81.5
100466	2025-01-05T19:00:03	12.2	79.5
100467	2025-01-05T19:10:03	12.2	79
100468	2025-01-05T19:20:03	12.2	78.5
100469	2025-01-05T19:30:03	12.3	78.5
100470	2025-01-05T19:40:03	12.2	78.5
100471	2025-01-05T19:50:03	12.2	77.5
100472	2025-01-05T20:00:03	12.1	81
100473	2025-01-05T20:10:03	11.8	84
100474	2025-01-05T20:20:03	11.6	86
100475	2025-01-05T20:30:03	11.3	89.5
100476	2025-01-05T20:40:03	11.2	87.5
100477	2025-01-05T20:50:03	11.3	91
100478	2025-01-05T21:00:03	11	92
100479	2025-01-05T21:10:03	10.7	91
100480	2025-01-05T21:20:03	10.6	92
100481	2025-01-05T21:30:03	10.4	93
100482	2025-01-05T21:40:03	10.3	92
100483	2025-01-05T21:50:03	10.1	89.5
100484	2025-01-05T22:00:03	10	88.5
100485	2025-01-05T22:10:03	9.8	84
100486	2025-01-05T22:20:03	9.6	86
100487	2025-01-05T22:30:03	9.7	86
100488	2025-01-05T22:40:03	9.6	89
100489	2025-01-05T22:50:03	9.4	91
100490	2025-01-05T23:00:03	9.3	90.5
100491	2025-01-05T23:10:03	9.2	92.5
100492	2025-01-05T23:20:03	9.1	92.5
100493	2025-01-05T23:30:03	8.9	92.5
100494	2025-01-05T23:40:03	8.7	93
100495	2025-01-05T23:50:03	8.8	93
100496	2025-01-06T00:00:03	8.6	93.5
100497	2025-01-06T00:10:03	8.5	93.5
100498	2025-01-06T00:20:03	8.4	93
100499	2025-01-06T00:30:03	8.3	93
100500	2025-01-06T00:40:03	8.2	93.5
100501	2025-01-06T00:50:03	8	93
100502	2025-01-06T01:00:03	7.9	93
100503	2025-01-06T01:10:03	7.8	94
100504	2025-01-06T01:20:03	7.7	92.5
100505	2025-01-06T01:30:03	7.7	94
100506	2025-01-06T01:40:03	7.6	94
100507	2025-01-06T01:50:03	7.6	93.5
100508	2025-01-06T02:00:03	7.6	94
100509	2025-01-06T02:10:03	7.5	94.5
100510	2025-01-06T02:20:03	7.4	94.5
100511	2025-01-06T02:30:03	7.4	89.5
100512	2025-01-06T02:40:03	7.5	84.5
100513	2025-01-06T02:50:03	7.6	81
100514	2025-01-06T03:00:03	7.7	82.5
100515	2025-01-06T03:10:03	7.7	81
100516	2025-01-06T03:20:03	7.7	82
100517	2025-01-06T03:30:03	7.8	80.5
100518	2025-01-06T03:40:03	7.9	79.5
100519	2025-01-06T03:50:03	8	79.5
100520	2025-01-06T04:00:02	8	84
100521	2025-01-06T04:10:02	7.9	84.5
100522	2025-01-06T04:20:02	7.9	87
100523	2025-01-06T04:30:02	7.8	88.5
100524	2025-01-06T04:40:02	7.8	89.5
100525	2025-01-06T04:50:02	7.7	86.5
100526	2025-01-06T05:00:02	7.8	83
100527	2025-01-06T05:10:02	7.9	86.5
100528	2025-01-06T05:20:02	7.8	85.5
100529	2025-01-06T05:30:02	7.9	84
100530	2025-01-06T05:40:02	8	88
100531	2025-01-06T05:50:02	7.9	88.5
100532	2025-01-06T06:00:02	8	81.5
100533	2025-01-06T06:10:02	8.7	77
100534	2025-01-06T06:20:02	10	70.5
100535	2025-01-06T06:30:02	10.2	69.5
100536	2025-01-06T06:40:02	10.6	67
100537	2025-01-06T06:50:02	11.3	65.5
100538	2025-01-06T07:00:02	11.3	65.5
100539	2025-01-06T07:10:02	11.4	66
100540	2025-01-06T07:20:02	11.8	63
100541	2025-01-06T07:30:02	12	62.5
100542	2025-01-06T07:40:02	12.2	62
100543	2025-01-06T07:50:02	12.6	60.5
100544	2025-01-06T08:00:02	12.7	60.5
100545	2025-01-06T08:10:02	12.8	59.5
100546	2025-01-06T08:20:03	13	59
100547	2025-01-06T08:30:02	13.2	58
100548	2025-01-06T08:50:02	13.6	56.5
100549	2025-01-06T09:00:02	13.7	56
100550	2025-01-06T09:10:02	13.9	55
100551	2025-01-06T09:20:02	14	63
100552	2025-01-06T09:40:02	13.4	61
100553	2025-01-06T09:50:02	12.5	68.5
100554	2025-01-06T10:00:02	13.4	62.5
100555	2025-01-06T10:10:02	13.9	59
100556	2025-01-06T10:20:02	14.5	56
100557	2025-01-06T10:30:02	14.7	55.5
100558	2025-01-06T10:40:02	14.9	55
100559	2025-01-06T10:50:02	15.2	54.5
100560	2025-01-06T11:00:02	15.4	52.5
100561	2025-01-06T11:10:02	15.5	51.5
100562	2025-01-06T11:20:02	15.8	51
100563	2025-01-06T11:30:02	16.1	51
100564	2025-01-06T11:40:02	16.7	49.5
100565	2025-01-06T11:50:02	17.5	47.5
100566	2025-01-06T12:00:02	17.2	48.5
100567	2025-01-06T12:10:02	17.6	47
100568	2025-01-06T12:20:02	18	46
100569	2025-01-06T12:30:02	17.9	45.5
100570	2025-01-06T12:40:02	17.7	46
100571	2025-01-06T12:50:02	18.5	45
100572	2025-01-06T13:00:02	17.7	46.5
100573	2025-01-06T13:10:02	17.6	47.5
100574	2025-01-06T13:20:02	17.4	48
100575	2025-01-06T13:30:02	17.2	49
100576	2025-01-06T13:40:02	16.9	51
100577	2025-01-06T13:50:02	15.8	56.5
100578	2025-01-06T14:10:02	15.3	59.5
100579	2025-01-06T14:20:02	14	68.5
100580	2025-01-06T14:30:02	14.3	65.5
100581	2025-01-06T14:40:02	14.5	63
100582	2025-01-06T14:50:02	15	62
100583	2025-01-06T15:00:02	15.5	59
100584	2025-01-06T15:10:02	15.7	58
100585	2025-01-06T15:20:02	15.7	57.5
100586	2025-01-06T15:30:02	15.6	58
100587	2025-01-06T15:40:02	15.6	60
100588	2025-01-06T15:50:02	12.7	98.5
100589	2025-01-06T16:00:02	11	99.5
100590	2025-01-06T16:10:02	10.4	100
100591	2025-01-06T16:20:02	10.2	100
100592	2025-01-06T16:30:02	10.2	100
100593	2025-01-06T16:40:02	10.1	100
100594	2025-01-06T16:50:02	10.2	100
100595	2025-01-06T17:00:02	10.2	100
100596	2025-01-06T17:10:02	10.1	100
100597	2025-01-06T17:20:02	10	100
100598	2025-01-06T17:30:02	9.9	100
100599	2025-01-06T17:40:02	9.8	100
100600	2025-01-06T17:50:02	9.9	100
100601	2025-01-06T18:00:02	9.9	100
100602	2025-01-06T18:10:02	9.4	100
100603	2025-01-06T18:20:02	9.4	100
100604	2025-01-06T18:30:02	9.6	100
100605	2025-01-06T18:40:02	8.7	100
100606	2025-01-06T18:50:02	8.4	100
100607	2025-01-06T19:00:02	8.1	100
100608	2025-01-06T19:10:02	8.2	100
100609	2025-01-06T19:20:02	8	100
100610	2025-01-06T19:30:02	8	100
100611	2025-01-06T19:40:02	8	100
100612	2025-01-06T19:50:02	8	100
100613	2025-01-06T20:00:02	8	100
100614	2025-01-06T20:10:02	7.9	100
100615	2025-01-06T20:20:01	7.9	100
100616	2025-01-06T20:30:01	7.9	100
100617	2025-01-06T20:40:01	7.9	100
100618	2025-01-06T20:50:01	7.8	100
100619	2025-01-06T21:00:02	7.6	100
100620	2025-01-06T21:10:01	7.7	100
100621	2025-01-06T21:20:01	7.6	100
100622	2025-01-06T21:30:01	7.8	99.5
100623	2025-01-06T21:40:02	7.7	99
100624	2025-01-06T21:50:01	7.7	97.5
100625	2025-01-06T22:00:01	7.8	97
100626	2025-01-06T22:10:01	7.8	96
100627	2025-01-06T22:20:01	7.8	95.5
100628	2025-01-06T22:30:01	7.8	95.5
100629	2025-01-06T22:40:01	7.8	95.5
100630	2025-01-06T22:50:01	7.7	95.5
100631	2025-01-06T23:00:01	7.8	96
100632	2025-01-06T23:10:01	7.8	95.5
100633	2025-01-06T23:20:01	7.6	95.5
100634	2025-01-06T23:30:01	7.5	95.5
100635	2025-01-06T23:40:01	7.5	96
100636	2025-01-06T23:50:01	7.5	95.5
100637	2025-01-07T00:00:01	7.4	96
100638	2025-01-07T00:10:01	7.4	95.5
100639	2025-01-07T00:20:01	7.5	96
100640	2025-01-07T00:30:01	7.5	95.5
100641	2025-01-07T00:40:01	7.4	96
100642	2025-01-07T00:50:01	7.4	95.5
100643	2025-01-07T01:00:01	7.5	96
100644	2025-01-07T01:10:01	7.6	96
100645	2025-01-07T01:20:01	7.7	96
100646	2025-01-07T01:30:01	7.7	96
100647	2025-01-07T01:40:01	7.8	96
100648	2025-01-07T01:50:01	7.9	96
100649	2025-01-07T02:00:01	7.6	96
100650	2025-01-07T02:10:01	7.8	96
100651	2025-01-07T02:20:01	7.6	96.5
100652	2025-01-07T02:30:01	7.1	96
100653	2025-01-07T02:40:01	7	96.5
100654	2025-01-07T02:50:01	7.3	96.5
100655	2025-01-07T03:00:01	7.3	96.5
100656	2025-01-07T03:10:01	7.4	96.5
100657	2025-01-07T03:20:01	7.4	96.5
100658	2025-01-07T03:30:01	7.3	96.5
100659	2025-01-07T03:40:01	7.2	96.5
100660	2025-01-07T03:50:01	7.2	96.5
100661	2025-01-07T04:00:01	7.4	96.5
100662	2025-01-07T04:10:01	7.3	96.5
100663	2025-01-07T04:20:01	7.3	96.5
100664	2025-01-07T04:30:01	7.2	96.5
100665	2025-01-07T04:40:01	7.3	96.5
100666	2025-01-07T04:50:01	7.3	96.5
100667	2025-01-07T05:00:01	6.7	99.5
100668	2025-01-07T05:10:01	6	99
100669	2025-01-07T05:20:01	6.1	99.5
100670	2025-01-07T05:30:01	5.8	99
100671	2025-01-07T05:40:01	5.7	99.5
100672	2025-01-07T05:50:01	6	99
100673	2025-01-07T06:00:01	5.9	99
100674	2025-01-07T06:10:01	6	99
100675	2025-01-07T06:20:01	5.6	99
100676	2025-01-07T06:30:01	5.6	99.5
100677	2025-01-07T06:40:01	5.2	99
100678	2025-01-07T06:50:01	4.7	99
100679	2025-01-07T07:00:01	4.4	99.5
100680	2025-01-07T07:10:01	4.5	99.5
100681	2025-01-07T07:20:01	4.6	99.5
100682	2025-01-07T07:40:01	4.7	99.5
100683	2025-01-07T07:50:01	4.5	99.5
100684	2025-01-07T08:00:01	4.5	99.5
100685	2025-01-07T08:10:01	4.5	99.5
100686	2025-01-07T08:20:01	4.5	99.5
100687	2025-01-07T08:30:01	4.6	99.5
100688	2025-01-07T08:40:01	4.7	99.5
100689	2025-01-07T08:50:01	4.8	99.5
100690	2025-01-07T09:00:01	4.9	99.5
100691	2025-01-07T09:10:01	5.2	99.5
100692	2025-01-07T09:20:01	5.3	99.5
100693	2025-01-07T09:30:01	5.4	99.5
100694	2025-01-07T09:40:01	5.3	99.5
100695	2025-01-07T09:50:01	5.3	99.5
100696	2025-01-07T10:00:01	5.4	99.5
100697	2025-01-07T10:10:01	5.4	99.5
100698	2025-01-07T10:20:01	5.7	99.5
100699	2025-01-07T10:30:01	6.2	99.5
100700	2025-01-07T10:40:01	6.3	99.5
100701	2025-01-07T10:50:01	6.3	99.5
100702	2025-01-07T11:00:01	6.5	99.5
100703	2025-01-07T11:10:01	6.4	99.5
100704	2025-01-07T11:20:01	6.8	99.5
100705	2025-01-07T11:30:01	6.9	99.5
100706	2025-01-07T11:40:01	7.1	99.5
100707	2025-01-07T11:50:01	7.1	100
100708	2025-01-07T12:00:01	7.3	100
100709	2025-01-07T12:10:01	7.4	100
100710	2025-01-07T12:20:01	8	100
100711	2025-01-07T12:30:01	9.2	100
100712	2025-01-07T12:40:01	8.9	100
100713	2025-01-07T12:50:01	8.8	100
100714	2025-01-07T13:00:01	9.7	100
100715	2025-01-07T13:10:01	10	100
100716	2025-01-07T13:20:01	10.2	100
100717	2025-01-07T13:30:01	10.2	99
100718	2025-01-07T13:40:01	9.7	100
100719	2025-01-07T13:50:01	9.8	100
100720	2025-01-07T14:00:01	10.4	99.5
100721	2025-01-07T14:10:01	10.8	100
100722	2025-01-07T14:20:01	10.5	97
100723	2025-01-07T14:30:01	10.8	79
100724	2025-01-07T14:40:01	10.1	74.5
100725	2025-01-07T14:50:01	9.8	75
100726	2025-01-07T15:00:01	9.5	73
100727	2025-01-07T15:10:01	8.9	71.5
100728	2025-01-07T15:20:01	8.8	71
100729	2025-01-07T15:30:01	8.6	74
100730	2025-01-07T15:40:01	8.2	73.5
100731	2025-01-07T15:50:01	8	70
100732	2025-01-07T16:00:01	7.7	67
100733	2025-01-07T16:10:01	7.6	68
100734	2025-01-07T16:20:01	7.5	68
100735	2025-01-07T16:30:01	7.5	68.5
100736	2025-01-07T16:40:01	7.5	68.5
100737	2025-01-07T16:50:01	7.5	69.5
100738	2025-01-07T17:00:01	7.4	69
100739	2025-01-07T17:10:01	7.4	68.5
100740	2025-01-07T17:20:01	7.4	68.5
100741	2025-01-07T17:30:01	7.4	67
100742	2025-01-07T17:40:01	7.3	67
100743	2025-01-07T17:50:01	7.3	68
100744	2025-01-07T18:00:01	7.2	69
100745	2025-01-07T18:10:01	7.1	69.5
100746	2025-01-07T18:20:01	7.1	68.5
100747	2025-01-07T18:30:01	7.1	68.5
100748	2025-01-07T18:40:01	7	68.5
100749	2025-01-07T18:50:01	6.9	68.5
100750	2025-01-07T19:00:01	6.9	68.5
100751	2025-01-07T19:10:01	6.9	68.5
100752	2025-01-07T19:20:01	6.9	68
100753	2025-01-07T19:30:01	7	68
100754	2025-01-07T19:40:01	7.2	68
100755	2025-01-07T19:50:01	6.1	76
100756	2025-01-07T20:00:01	5.9	78
100757	2025-01-07T20:10:01	5.9	76.5
100758	2025-01-07T20:20:01	6	77
100759	2025-01-07T20:30:01	6.1	77
100760	2025-01-07T20:40:01	6.1	76
100761	2025-01-07T20:50:01	6.2	76.5
100762	2025-01-07T21:00:01	6.2	77
100763	2025-01-07T21:10:01	6.3	77
100764	2025-01-07T21:20:00	6.4	77
100765	2025-01-07T21:30:00	6.3	77
100766	2025-01-07T21:40:00	6.4	76
100767	2025-01-07T21:50:00	6.4	76.5
100768	2025-01-07T22:00:00	6.6	75
100769	2025-01-07T22:10:00	6.8	73.5
100770	2025-01-07T22:20:00	6.8	73
100771	2025-01-07T22:30:00	6.8	73.5
100772	2025-01-07T22:40:00	6.1	83
100773	2025-01-07T22:50:00	5.5	96
100774	2025-01-07T23:00:00	5.1	99
100775	2025-01-07T23:10:00	5.1	100
100776	2025-01-07T23:20:00	5.1	100
100777	2025-01-07T23:30:00	5	100
100778	2025-01-07T23:40:00	4.9	100
100779	2025-01-07T23:50:00	4.9	100
100780	2025-01-08T00:00:00	4.8	100
100781	2025-01-08T00:10:00	4.9	100
100782	2025-01-08T00:20:00	4.8	100
100783	2025-01-08T00:30:00	5	100
100784	2025-01-08T00:40:00	5	100
100785	2025-01-08T00:50:00	4.8	100
100786	2025-01-08T01:00:00	4.9	100
100787	2025-01-08T01:10:00	4.7	100
100788	2025-01-08T01:20:00	4.5	100
100789	2025-01-08T01:30:00	4.5	100
100790	2025-01-08T01:40:00	4.4	100
100791	2025-01-08T01:50:00	4.3	100
100792	2025-01-08T02:00:00	4.5	100
100793	2025-01-08T02:10:00	4.6	100
100794	2025-01-08T02:20:00	4.5	100
100795	2025-01-08T02:30:00	4.6	100
100796	2025-01-08T02:40:00	4.4	100
100797	2025-01-08T02:50:00	4.4	100
100798	2025-01-08T03:00:00	4.4	100
100799	2025-01-08T03:10:00	4.4	100
100800	2025-01-08T03:20:00	4.4	100
100801	2025-01-08T03:30:00	4.5	100
100802	2025-01-08T03:40:00	4.5	100
100803	2025-01-08T03:50:00	4.5	100
100804	2025-01-08T04:00:00	4.4	100
100805	2025-01-08T04:10:00	4.5	100
100806	2025-01-08T04:20:00	4.4	100
100807	2025-01-08T04:30:00	4.5	100
100808	2025-01-08T04:40:00	4.5	100
100809	2025-01-08T04:50:00	4.3	100
100810	2025-01-08T05:00:00	4.3	100
100811	2025-01-08T05:10:00	4.2	100
100812	2025-01-08T05:20:00	4.2	100
100813	2025-01-08T05:30:00	4.1	100
100814	2025-01-08T05:40:00	4.1	100
100815	2025-01-08T05:50:00	4.1	100
100816	2025-01-08T06:00:00	4	100
100817	2025-01-08T06:10:00	4	100
100818	2025-01-08T06:20:00	4.2	100
100819	2025-01-08T06:30:00	4	100
100820	2025-01-08T06:40:00	3.9	100
100821	2025-01-08T06:50:00	3.9	100
100822	2025-01-08T07:10:00	3.8	100
100823	2025-01-08T07:20:00	3.8	100
100824	2025-01-08T07:30:00	3.8	100
100825	2025-01-08T07:40:00	3.8	100
100826	2025-01-08T07:50:00	3.7	100
100827	2025-01-08T08:00:00	3.8	100
100828	2025-01-08T08:10:00	3.8	100
100829	2025-01-08T08:20:00	3.8	100
100830	2025-01-08T08:30:00	3.9	100
100831	2025-01-08T08:40:00	4.3	100
100832	2025-01-08T08:50:00	4.4	100
100833	2025-01-08T09:00:00	4.5	100
100834	2025-01-08T09:10:00	4.6	100
100835	2025-01-08T09:20:01	4.7	100
100836	2025-01-08T09:30:00	4.6	100
100837	2025-01-08T09:40:00	4.4	100
100838	2025-01-08T09:50:00	4.4	100
100839	2025-01-08T10:00:00	4.5	100
100840	2025-01-08T10:10:00	4.6	100
100841	2025-01-08T10:20:00	4.6	100
100842	2025-01-08T10:30:00	4.7	100
100843	2025-01-08T10:40:00	4.9	100
100844	2025-01-08T10:50:00	5.2	100
100845	2025-01-08T11:00:00	5.2	100
100846	2025-01-08T11:10:00	5.3	100
100847	2025-01-08T11:20:00	5.3	100
100848	2025-01-08T11:30:00	5.3	100
100849	2025-01-08T11:40:00	5.3	100
100850	2025-01-08T11:50:00	5.3	100
100851	2025-01-08T12:00:00	5.4	100
100852	2025-01-08T12:10:00	5.4	100
100853	2025-01-08T12:20:00	5.4	100
100854	2025-01-08T12:30:00	5.4	100
100855	2025-01-08T12:40:00	5.3	100
100856	2025-01-08T12:50:00	5.2	100
100857	2025-01-08T13:00:00	5.3	100
100858	2025-01-08T13:10:00	5.3	100
100859	2025-01-08T13:20:00	5.3	100
100860	2025-01-08T13:30:00	5.2	100
100861	2025-01-08T13:40:00	5.1	100
100862	2025-01-08T13:50:00	4.9	100
100863	2025-01-08T14:10:00	4.4	100
100864	2025-01-08T14:20:00	4.2	100
100865	2025-01-08T14:30:00	4.3	100
100866	2025-01-08T14:40:00	4.3	100
100867	2025-01-08T14:50:00	4.4	98.5
100868	2025-01-08T15:00:00	4.4	98.5
100869	2025-01-08T15:10:00	4.4	98
100870	2025-01-08T15:20:00	4.3	98
100871	2025-01-08T15:30:00	4.4	97
100872	2025-01-08T15:40:00	4.5	97
100873	2025-01-08T15:50:00	4.5	97
100874	2025-01-08T16:00:00	4.4	97
100875	2025-01-08T16:10:00	4.4	97
100876	2025-01-08T16:20:00	4.5	97
100877	2025-01-08T16:30:00	4.6	97
100878	2025-01-08T16:40:00	4.5	97
100879	2025-01-08T16:50:00	4.5	97
100880	2025-01-08T17:00:00	4.5	97
100881	2025-01-08T17:10:00	4.5	97
100882	2025-01-08T17:20:00	4.6	97
100883	2025-01-08T17:30:00	4.6	97
100884	2025-01-08T17:40:00	4.5	97
100885	2025-01-08T17:50:00	4.4	97
100886	2025-01-08T18:00:00	4.6	97
100887	2025-01-08T18:10:00	4.7	96.5
100888	2025-01-08T18:20:00	4.6	96.5
100889	2025-01-08T18:30:00	4.7	96.5
100890	2025-01-08T18:40:00	4.8	96.5
100891	2025-01-08T18:50:00	4.7	96.5
100892	2025-01-08T19:00:00	4.5	96.5
100893	2025-01-08T19:10:00	4.6	96.5
100894	2025-01-08T19:20:00	4.5	96.5
100895	2025-01-08T19:30:00	4.5	96.5
100896	2025-01-08T19:40:00	4.6	96.5
100897	2025-01-08T19:50:00	4.5	96.5
100898	2025-01-08T20:00:00	4.5	96.5
100899	2025-01-08T20:10:00	4.4	96.5
100900	2025-01-08T20:20:00	4.5	96.5
100901	2025-01-08T20:30:00	4.5	96.5
100902	2025-01-08T20:40:00	4.5	96.5
100903	2025-01-08T20:50:00	4.5	96.5
100904	2025-01-08T21:00:00	4.5	96.5
100905	2025-01-08T21:10:00	4.5	96.5
100906	2025-01-08T21:20:00	4.6	96.5
100907	2025-01-08T21:30:00	4.2	96.5
100908	2025-01-08T21:40:00	4.2	96.5
100909	2025-01-08T21:50:00	4.3	96.5
100910	2025-01-08T22:00:00	4.4	96.5
100911	2025-01-08T22:10:00	4.4	96.5
100912	2025-01-08T22:20:00	4.4	96.5
100913	2025-01-08T22:30:00	4.4	96.5
100914	2025-01-08T22:40:00	4.4	97
100915	2025-01-08T22:50:00	4.8	96.5
100916	2025-01-08T23:00:00	5.2	96.5
100917	2025-01-08T23:10:00	5.6	96.5
100918	2025-01-08T23:20:00	6.8	97
100919	2025-01-08T23:30:00	7.9	97
100920	2025-01-08T23:40:00	8.7	96.5
100921	2025-01-08T23:50:00	9.2	96.5
100922	2025-01-09T00:00:00	9.5	97
100923	2025-01-09T00:10:00	9.8	96.5
100924	2025-01-09T00:20:00	10	96.5
100925	2025-01-09T00:30:00	10.5	96.5
100926	2025-01-09T00:40:00	10.7	96.5
100927	2025-01-09T00:50:00	10.9	96.5
100928	2025-01-09T01:00:00	11	96.5
100929	2025-01-09T01:10:00	11	96.5
100930	2025-01-09T01:20:00	11	96.5
100931	2025-01-09T01:30:00	11.2	96.5
100932	2025-01-09T01:40:00	11	96.5
100933	2025-01-09T01:50:00	11	99.5
100934	2025-01-09T02:00:00	11	83.5
100935	2025-01-09T02:10:00	11.2	83.5
100936	2025-01-09T02:20:00	11.1	83.5
100937	2025-01-09T02:30:00	11.4	81.5
100938	2025-01-09T02:40:00	11.5	80.5
100939	2025-01-09T02:50:00	10.6	94
100940	2025-01-09T03:00:00	10.1	96
100941	2025-01-09T03:10:00	10.6	88
100942	2025-01-09T03:20:00	11	84.5
100943	2025-01-09T03:30:00	11.4	81
100944	2025-01-09T03:40:00	10.7	87.5
100945	2025-01-09T03:50:00	10.2	94
100946	2025-01-09T04:00:00	9.9	99.5
100947	2025-01-09T04:10:00	9.7	100
100948	2025-01-09T04:20:00	9.6	100
100949	2025-01-09T04:30:00	9.6	100
100950	2025-01-09T04:40:00	9.5	100
100951	2025-01-09T04:50:00	9.4	100
100952	2025-01-09T05:00:00	9.4	100
100953	2025-01-09T05:10:00	9.5	100
100954	2025-01-09T05:20:00	9.7	100
100955	2025-01-09T05:30:00	9.9	99.5
100956	2025-01-09T05:40:00	9.9	99.5
100957	2025-01-09T05:50:00	9.9	98.5
100958	2025-01-09T06:00:00	10.2	95.5
100959	2025-01-09T06:10:00	10.3	86.5
100960	2025-01-09T06:19:59	10.4	86.5
100961	2025-01-09T06:29:59	10.5	86
100962	2025-01-09T06:39:59	10.6	85.5
100963	2025-01-09T06:49:59	11	83
100964	2025-01-09T06:59:59	11.1	82
100965	2025-01-09T07:09:59	11.4	79.5
100966	2025-01-09T07:19:59	11.5	78
100967	2025-01-09T07:29:59	11.9	77.5
100968	2025-01-09T07:39:59	11.9	76.5
100969	2025-01-09T07:49:59	12	76.5
100970	2025-01-09T07:59:59	12.1	77
100971	2025-01-09T08:09:59	12.1	76.5
100972	2025-01-09T08:19:59	12.2	77
100973	2025-01-09T08:29:59	12.2	76.5
100974	2025-01-09T08:39:59	12.3	76.5
100975	2025-01-09T08:49:59	11.7	85
100976	2025-01-09T08:59:59	10.5	97
100977	2025-01-09T09:09:59	10.3	98
100978	2025-01-09T09:19:59	10.1	99
100979	2025-01-09T09:29:59	10.1	100
100980	2025-01-09T09:39:59	10.1	100
100981	2025-01-09T09:49:59	10.3	100
100982	2025-01-09T09:59:59	10.7	97
100983	2025-01-09T10:09:59	11.1	94.5
100984	2025-01-09T10:19:59	11.4	87.5
100985	2025-01-09T10:29:59	11.6	86.5
100986	2025-01-09T10:39:59	11	90
100987	2025-01-09T10:49:59	11.1	84.5
100988	2025-01-09T10:59:59	11.8	80.5
100989	2025-01-09T11:09:59	12.2	79.5
100990	2025-01-09T11:19:59	12.3	78.5
100991	2025-01-09T11:29:59	12.3	78.5
100992	2025-01-09T11:39:59	12.7	76.5
100993	2025-01-09T11:49:59	12.2	80.5
100994	2025-01-09T11:59:59	12.8	76
100995	2025-01-09T12:09:59	13.1	76
100996	2025-01-09T12:19:59	13.2	75
100997	2025-01-09T12:29:59	13.3	75.5
100998	2025-01-09T12:39:59	12.9	77
100999	2025-01-09T12:49:59	13.1	76.5
101000	2025-01-09T12:59:59	11.6	92
101001	2025-01-09T13:09:59	11.2	91.5
101002	2025-01-09T13:19:59	11.2	90.5
101003	2025-01-09T13:29:59	11.5	88
101004	2025-01-09T13:39:59	11.7	86.5
101005	2025-01-09T13:49:59	11.5	89
101006	2025-01-09T13:59:59	11.4	88.5
101007	2025-01-09T14:09:59	11.1	98.5
101008	2025-01-09T14:19:59	9.9	100
101009	2025-01-09T14:29:59	9.3	100
101010	2025-01-09T14:39:59	9.2	100
101011	2025-01-09T14:49:59	9	100
101012	2025-01-09T14:59:59	8.7	100
101013	2025-01-09T15:09:59	8.6	100
101014	2025-01-09T15:19:59	7.8	100
101015	2025-01-09T15:29:59	6.5	100
101016	2025-01-09T15:39:59	6	100
101017	2025-01-09T15:49:59	5.9	100
101018	2025-01-09T15:59:59	5.9	100
101019	2025-01-09T16:09:59	5.6	100
101020	2025-01-09T16:19:59	5.4	100
101021	2025-01-09T16:29:59	5.6	100
101022	2025-01-09T16:39:59	5.5	100
101023	2025-01-09T16:49:59	5.2	100
101024	2025-01-09T16:59:59	5.2	100
101025	2025-01-09T17:09:59	4.7	100
101026	2025-01-09T17:19:59	4.6	100
101027	2025-01-09T17:29:59	4.6	100
101028	2025-01-09T17:39:59	4.5	100
101029	2025-01-09T17:49:59	4.5	100
101030	2025-01-09T17:59:59	4.2	100
101031	2025-01-09T18:09:59	4.2	100
101032	2025-01-09T18:20:18	4.2	100
101033	2025-01-09T18:29:59	4.2	100
101034	2025-01-09T18:39:59	4.2	100
101035	2025-01-09T18:49:59	3.9	100
101036	2025-01-09T18:59:59	3.9	100
101037	2025-01-09T19:09:59	3.9	100
101038	2025-01-09T19:19:59	4	100
101039	2025-01-09T19:29:59	4	100
101040	2025-01-09T19:39:59	4.1	100
101041	2025-01-09T19:50:18	4	100
101042	2025-01-09T19:59:59	4.1	100
101043	2025-01-09T20:09:59	4	100
101044	2025-01-09T20:19:59	3.9	100
101045	2025-01-09T20:29:59	3.9	95
101046	2025-01-09T20:39:59	3.9	87
101047	2025-01-09T20:49:59	3.9	84.5
101048	2025-01-09T20:59:59	3.9	82.5
101049	2025-01-09T21:09:59	3.9	82
101050	2025-01-09T21:19:59	3.9	82
101051	2025-01-09T21:29:59	3.9	82
101052	2025-01-09T21:39:59	3.8	82
101053	2025-01-09T21:49:59	3.7	82
101054	2025-01-09T21:59:59	3.7	82.5
101055	2025-01-09T22:09:59	3.7	83
101056	2025-01-09T22:19:59	3.8	83.5
101057	2025-01-09T22:29:59	3.7	82.5
101058	2025-01-09T22:39:59	3.8	81.5
101059	2025-01-09T22:49:59	3.7	81.5
101060	2025-01-09T22:59:59	3.7	82
101061	2025-01-09T23:09:59	3.7	82.5
101062	2025-01-09T23:19:59	3.7	82.5
101063	2025-01-09T23:29:59	3.6	82.5
101064	2025-01-09T23:39:59	3.5	83
101065	2025-01-09T23:49:59	3.5	83
101066	2025-01-09T23:59:59	3.5	83
101067	2025-01-10T00:09:59	3.5	83
101068	2025-01-10T00:19:59	3.4	83
101069	2025-01-10T00:29:59	3.4	82
101070	2025-01-10T00:39:59	3.4	81.5
101071	2025-01-10T00:49:59	3.4	80.5
101072	2025-01-10T00:59:59	3.5	79.5
101073	2025-01-10T01:09:59	3.5	78.5
101074	2025-01-10T01:20:16	3.6	77.5
101075	2025-01-10T01:29:59	3.6	76
101076	2025-01-10T01:39:59	3.7	77.5
101077	2025-01-10T01:49:59	3.5	77
101078	2025-01-10T01:59:59	2.5	91
101079	2025-01-10T02:09:59	2.5	94
101080	2025-01-10T02:19:59	2.7	92.5
101081	2025-01-10T02:29:59	2.5	91
101082	2025-01-10T02:39:59	2.4	95
101083	2025-01-10T02:49:59	2.5	92
101084	2025-01-10T02:59:59	2.5	93
101085	2025-01-10T03:09:59	2.4	92.5
101086	2025-01-10T03:19:59	2.5	93.5
101087	2025-01-10T03:29:59	2.5	94
101088	2025-01-10T03:39:59	2.6	91.5
101089	2025-01-10T03:49:59	2.6	92.5
101090	2025-01-10T03:59:59	2.5	92.5
101091	2025-01-10T04:09:59	2.7	87
101092	2025-01-10T04:19:59	2.6	86.5
101093	2025-01-10T04:29:59	2.7	86.5
101094	2025-01-10T04:39:59	2.7	86
101095	2025-01-10T04:49:59	2.7	86
101096	2025-01-10T04:59:59	2.6	86
101097	2025-01-10T05:09:59	2.8	86
101098	2025-01-10T05:19:59	2.8	86.5
101099	2025-01-10T05:29:59	2.7	86.5
101100	2025-01-10T05:39:59	2.8	85.5
101101	2025-01-10T05:49:59	2.8	86
101102	2025-01-10T05:59:59	2.8	86.5
101103	2025-01-10T06:09:59	2.9	86.5
101104	2025-01-10T06:19:59	2.8	86
101105	2025-01-10T06:29:59	2.9	86
101106	2025-01-10T06:39:59	2.9	86
101107	2025-01-10T06:49:59	2.9	86
101108	2025-01-10T06:59:59	2.9	86
101109	2025-01-10T07:09:59	3	86
101110	2025-01-10T07:19:59	3	86
101111	2025-01-10T07:29:59	3.1	85
101112	2025-01-10T07:39:59	2.9	85.5
101113	2025-01-10T07:49:59	3.1	85
101114	2025-01-10T07:59:59	2.9	85
101115	2025-01-10T08:09:59	3.1	85
101116	2025-01-10T08:19:59	3.1	84.5
101117	2025-01-10T08:29:59	3	85.5
101118	2025-01-10T08:39:59	2.9	89
101119	2025-01-10T08:49:59	2.7	89.5
101120	2025-01-10T08:59:59	2.7	89
101121	2025-01-10T09:09:59	2.7	88
101122	2025-01-10T09:19:59	3	88
101123	2025-01-10T09:29:59	2.9	87
101124	2025-01-10T09:39:59	3.2	85
101125	2025-01-10T09:49:59	3.4	84.5
101126	2025-01-10T09:59:59	3.8	83
101127	2025-01-10T10:09:59	3.8	82.5
101128	2025-01-10T10:19:59	3.9	81
101129	2025-01-10T10:29:59	4	82
101130	2025-01-10T10:39:59	4.1	81
101131	2025-01-10T10:49:59	4.2	79
101132	2025-01-10T10:59:59	4.4	78.5
101133	2025-01-10T11:09:59	4.7	77.5
101134	2025-01-10T11:19:59	4.9	78
101135	2025-01-10T11:29:59	4.9	77.5
101136	2025-01-10T11:39:59	4.9	77
101137	2025-01-10T11:49:59	4.9	75.5
101138	2025-01-10T11:59:59	5.1	75
101139	2025-01-10T12:09:59	5.7	74
101140	2025-01-10T12:19:59	6.4	68
101141	2025-01-10T12:29:59	7.5	67
101142	2025-01-10T12:39:59	6.9	66.5
101143	2025-01-10T12:49:59	6.6	69
101144	2025-01-10T12:59:59	6.3	70
101145	2025-01-10T13:09:59	6.4	69
101146	2025-01-10T13:19:59	6.6	71
101147	2025-01-10T13:29:59	6.2	71.5
101148	2025-01-10T13:39:59	6.1	74
101149	2025-01-10T13:49:59	6.3	72.5
101150	2025-01-10T13:59:59	6.2	75.5
101151	2025-01-10T14:09:59	6.4	73.5
101152	2025-01-10T14:19:59	6.4	71.5
101153	2025-01-10T14:29:59	6.9	73.5
101154	2025-01-10T14:39:59	7.4	76.5
101155	2025-01-10T14:49:59	8.3	67
101156	2025-01-10T14:59:59	8.5	72.5
101157	2025-01-10T15:09:59	8	76
101158	2025-01-10T15:19:58	7.9	74
101159	2025-01-10T15:29:58	7.4	70
101160	2025-01-10T15:39:58	7.1	78.5
101161	2025-01-10T15:49:58	6.7	81.5
101162	2025-01-10T15:59:58	6.6	84.5
101163	2025-01-10T16:09:58	6.4	87
101164	2025-01-10T16:19:58	6.1	88
101165	2025-01-10T16:29:59	5.8	89.5
101166	2025-01-10T16:39:58	5.4	89
101167	2025-01-10T16:49:58	5.3	90.5
101168	2025-01-10T16:59:58	5.1	81.5
101169	2025-01-10T17:09:58	5.1	89
101170	2025-01-10T17:19:58	4.9	88.5
101171	2025-01-10T17:29:58	4.8	90
101172	2025-01-10T17:39:58	4.8	90.5
101173	2025-01-10T17:49:58	4.6	91.5
101174	2025-01-10T17:59:58	4.7	91
101175	2025-01-10T18:09:58	4.7	88
101176	2025-01-10T18:19:58	4.8	89.5
101177	2025-01-10T18:29:58	4.7	85
101178	2025-01-10T18:39:58	4.5	86.5
101179	2025-01-10T18:49:58	4.3	90.5
101180	2025-01-10T18:59:58	4.1	92
101181	2025-01-10T19:09:58	3.9	92.5
101182	2025-01-10T19:19:58	3.7	93.5
101183	2025-01-10T19:29:58	3.6	94
101184	2025-01-10T19:40:17	3.3	94
101185	2025-01-10T19:49:58	3.4	94
101186	2025-01-10T19:59:58	3.4	90.5
101187	2025-01-10T20:09:58	3.3	91.5
101188	2025-01-10T20:19:58	3.3	93
101189	2025-01-10T20:29:58	3.2	94
101190	2025-01-10T20:39:58	3.3	93.5
101191	2025-01-10T20:49:58	3.3	93
101192	2025-01-10T20:59:58	3.2	92.5
101193	2025-01-10T21:09:58	3.2	91.5
101194	2025-01-10T21:19:58	3.1	93
101195	2025-01-10T21:29:58	3.1	94
101196	2025-01-10T21:39:58	3	94
101197	2025-01-10T21:49:58	2.8	95
101198	2025-01-10T21:59:58	2.7	95.5
101199	2025-01-10T22:09:58	2.5	92
101200	2025-01-10T22:19:58	2.5	93
101201	2025-01-10T22:29:58	2.2	93
101202	2025-01-10T22:39:58	2.2	90
101203	2025-01-10T22:49:58	2	91
101204	2025-01-10T22:59:58	2	93.5
101205	2025-01-10T23:09:58	1.9	94.5
101206	2025-01-10T23:19:58	1.9	95
101207	2025-01-10T23:29:58	2	93.5
101208	2025-01-10T23:39:58	2.1	93.5
101209	2025-01-10T23:49:58	2.2	94.5
101210	2025-01-10T23:59:58	2.2	94.5
101211	2025-01-11T00:09:58	2.2	93.5
101212	2025-01-11T00:19:58	2.2	93.5
101213	2025-01-11T00:29:58	2.3	93
101214	2025-01-11T00:39:58	2.3	93
101215	2025-01-11T00:49:58	2.2	94.5
101216	2025-01-11T00:59:58	2.1	95
101217	2025-01-11T01:09:58	2.1	95
101218	2025-01-11T01:19:58	2	94.5
101219	2025-01-11T01:29:58	1.8	95
101220	2025-01-11T01:39:58	1.6	96
101221	2025-01-11T01:49:58	1.4	97
101222	2025-01-11T01:59:58	1.3	97
101223	2025-01-11T02:09:58	1.2	93.5
101224	2025-01-11T02:19:58	1.2	94.5
101225	2025-01-11T02:29:58	1.2	90
101226	2025-01-11T02:39:58	1.2	92.5
101227	2025-01-11T02:49:58	1.1	95
101228	2025-01-11T02:59:58	0.9	95.5
101229	2025-01-11T03:09:58	0.7	96.5
101230	2025-01-11T03:19:58	0.6	94.5
101231	2025-01-11T03:29:58	0.6	95
101232	2025-01-11T03:40:20	0.3	94.5
101233	2025-01-11T03:49:58	0.4	96.5
101234	2025-01-11T03:59:58	0.6	96.5
101235	2025-01-11T04:09:58	0.7	96.5
101236	2025-01-11T04:19:58	0.8	95.5
101237	2025-01-11T04:29:58	0.8	92.5
101238	2025-01-11T04:39:58	0.6	90.5
101239	2025-01-11T04:49:58	0.7	93.5
101240	2025-01-11T04:59:58	0.6	91
101241	2025-01-11T05:09:58	0.6	92
101242	2025-01-11T05:19:58	0.4	91
101243	2025-01-11T05:29:58	0.4	91.5
101244	2025-01-11T05:39:58	0.3	91.5
101245	2025-01-11T05:49:58	0.6	93.5
101246	2025-01-11T05:59:58	0.6	92.5
101247	2025-01-11T06:09:58	0.7	95
101248	2025-01-11T06:19:58	0.7	95.5
101249	2025-01-11T06:29:58	0.9	95.5
101250	2025-01-11T06:39:58	0.9	96
101251	2025-01-11T06:49:58	0.8	95
101252	2025-01-11T06:59:58	0.8	91.5
101253	2025-01-11T07:09:58	0.9	92
101254	2025-01-11T07:19:58	1	95
101255	2025-01-11T07:29:58	0.9	95.5
101256	2025-01-11T07:39:58	0.9	96
101257	2025-01-11T07:49:58	1	96.5
101258	2025-01-11T07:59:58	1.1	95
101259	2025-01-11T08:09:58	1.2	94.5
101260	2025-01-11T08:19:58	1.2	93
101261	2025-01-11T08:29:58	1.4	95
101262	2025-01-11T08:39:58	1.4	92.5
101263	2025-01-11T08:49:58	1.6	94
101264	2025-01-11T08:59:58	1.5	89.5
101265	2025-01-11T09:09:58	1	89.5
101266	2025-01-11T09:19:58	1	90.5
101267	2025-01-11T09:29:58	0.8	90.5
101268	2025-01-11T09:39:58	0.9	90.5
101269	2025-01-11T09:49:58	0.9	89.5
101270	2025-01-11T09:59:58	1	89
101271	2025-01-11T10:09:58	1.3	89.5
101272	2025-01-11T10:19:58	1.7	88
101273	2025-01-11T10:29:58	2.1	89
101274	2025-01-11T10:39:58	2.5	89
101275	2025-01-11T10:49:58	2.6	88
101276	2025-01-11T10:59:58	2.7	89
101277	2025-01-11T11:09:58	2.8	86
101278	2025-01-11T11:19:58	2.8	87.5
101279	2025-01-11T11:29:58	3	88.5
101280	2025-01-11T11:39:58	3.1	88
101281	2025-01-11T11:49:58	3.1	88.5
101282	2025-01-11T11:59:58	3.2	88
101283	2025-01-11T12:09:58	3.2	88.5
101284	2025-01-11T12:19:58	3.4	86
101285	2025-01-11T12:29:58	3.5	84.5
101286	2025-01-11T12:39:58	3.4	81
101287	2025-01-11T12:49:58	3.6	83.5
101288	2025-01-11T12:59:58	3.8	85
101289	2025-01-11T13:09:58	3.9	86.5
101290	2025-01-11T13:19:58	3.9	85.5
101291	2025-01-11T13:29:58	3.8	86.5
101292	2025-01-11T13:39:58	3.8	88.5
101293	2025-01-11T13:49:58	3.8	87.5
101294	2025-01-11T14:09:58	3.8	86
101295	2025-01-11T14:19:58	3.9	86
101296	2025-01-11T14:29:58	3.9	87
101297	2025-01-11T14:39:58	3.8	88.5
101298	2025-01-11T14:49:58	3.9	83.5
101299	2025-01-11T14:59:58	3.8	84
101300	2025-01-11T15:09:58	3.9	87.5
101301	2025-01-11T15:19:58	3.7	89
101302	2025-01-11T15:29:58	3.4	87.5
101303	2025-01-11T15:39:58	3.2	89
101304	2025-01-11T15:49:58	2.8	90.5
101305	2025-01-11T15:59:58	2.7	92
101306	2025-01-11T16:09:58	2.6	89.5
101307	2025-01-11T16:19:58	2.3	89
101308	2025-01-11T16:29:58	2.2	89.5
101309	2025-01-11T16:39:58	1.9	92
101310	2025-01-11T16:49:58	1.8	93.5
101311	2025-01-11T16:59:58	1.8	94
101312	2025-01-11T17:09:58	1.6	94.5
101313	2025-01-11T17:19:58	1.5	94.5
101314	2025-01-11T17:29:58	1.6	93.5
101315	2025-01-11T17:39:58	1.6	91
101316	2025-01-11T17:49:58	1.7	89
101317	2025-01-11T17:59:58	1.7	91
101318	2025-01-11T18:09:58	1.6	86
101319	2025-01-11T18:19:58	1.8	90
101320	2025-01-11T18:29:58	1.8	91
101321	2025-01-11T18:39:58	1.8	91.5
101322	2025-01-11T18:49:58	1.9	86.5
101323	2025-01-11T18:59:58	2	89
101324	2025-01-11T19:09:58	1.8	84.5
101325	2025-01-11T19:19:58	1.6	87
101326	2025-01-11T19:29:58	1.6	87.5
101327	2025-01-11T19:39:58	1.4	91
101328	2025-01-11T19:49:58	1.3	90
101329	2025-01-11T19:59:58	1.2	87.5
101330	2025-01-11T20:09:58	0.9	88.5
101331	2025-01-11T20:19:58	0.6	87.5
101332	2025-01-11T20:29:58	0.4	86.5
101333	2025-01-11T20:39:58	0.1	87
101334	2025-01-11T20:49:58	0	89
101335	2025-01-11T20:59:58	0	89.5
101336	2025-01-11T21:09:58	0	87.5
101337	2025-01-11T21:19:58	0.1	89.5
101338	2025-01-11T21:29:58	0.1	89.5
101339	2025-01-11T21:39:58	0	90.5
101340	2025-01-11T21:49:58	-0.2	88.5
101341	2025-01-11T21:59:58	0	90
101342	2025-01-11T22:09:58	-0.1	89.5
101343	2025-01-11T22:19:58	-0.3	88
101344	2025-01-11T22:29:58	-0.3	87
101345	2025-01-11T22:39:58	-0.4	90
101346	2025-01-11T22:49:58	-0.1	92
101347	2025-01-11T22:59:58	0	92
101348	2025-01-11T23:09:58	0.2	91.5
101349	2025-01-11T23:19:58	0.3	88
101350	2025-01-11T23:29:58	0.2	88.5
101351	2025-01-11T23:39:58	0.4	88.5
101352	2025-01-11T23:49:58	0.4	88.5
101353	2025-01-11T23:59:58	0.3	87.5
101354	2025-01-12T00:09:58	0.1	89.5
101355	2025-01-12T00:19:58	0.3	89.5
101356	2025-01-12T00:29:58	0.3	89.5
101357	2025-01-12T00:39:58	0.5	90
101358	2025-01-12T00:49:58	0.5	90
101359	2025-01-12T00:59:58	0.6	90
101360	2025-01-12T01:09:58	0.7	89.5
101361	2025-01-12T01:19:58	0.6	88.5
101362	2025-01-12T01:29:58	0.7	88
101363	2025-01-12T01:39:58	0.6	87.5
101364	2025-01-12T01:49:58	0.5	87.5
101365	2025-01-12T01:59:58	0.3	87.5
101366	2025-01-12T02:09:58	0.3	87.5
101367	2025-01-12T02:19:58	0.3	87.5
101368	2025-01-12T02:29:58	0.5	88.5
101369	2025-01-12T02:39:58	0.6	88
101370	2025-01-12T02:49:58	0.8	90
101371	2025-01-12T02:59:58	0.8	88
101372	2025-01-12T03:09:58	0.9	88
101373	2025-01-12T03:19:58	0.8	88.5
101374	2025-01-12T03:29:58	1	89.5
101375	2025-01-12T03:39:58	0.9	86.5
101376	2025-01-12T03:49:58	0.8	87.5
101377	2025-01-12T03:59:58	0.7	87
101378	2025-01-12T04:09:58	0.8	87.5
101379	2025-01-12T04:19:58	0.9	87
101380	2025-01-12T04:29:58	0.9	87.5
101381	2025-01-12T04:39:58	0.9	87.5
101382	2025-01-12T04:49:58	1	87.5
101383	2025-01-12T04:59:58	1	87
101384	2025-01-12T05:09:58	1.1	87
101385	2025-01-12T05:19:58	1	87.5
101386	2025-01-12T05:29:58	1.1	87.5
101387	2025-01-12T05:39:58	1.1	88
101388	2025-01-12T05:49:58	1	88
101389	2025-01-12T05:59:58	1.1	90
101390	2025-01-12T06:09:58	1.2	90.5
101391	2025-01-12T06:19:58	1.2	88.5
101392	2025-01-12T06:29:58	1.1	91
101393	2025-01-12T06:39:58	0.8	88
101394	2025-01-12T06:49:58	0.9	88.5
101395	2025-01-12T06:59:58	1.2	90
101396	2025-01-12T07:09:58	1.2	92
101397	2025-01-12T07:19:58	1.2	88.5
101398	2025-01-12T07:29:58	1.2	89
101399	2025-01-12T07:39:58	1.3	92
101400	2025-01-12T07:49:58	1.3	91
101401	2025-01-12T07:59:58	1.3	88.5
101402	2025-01-12T08:09:58	1.3	88
101403	2025-01-12T08:19:58	1.4	88
101404	2025-01-12T08:29:58	1.6	88.5
101405	2025-01-12T08:39:58	1.5	87.5
101406	2025-01-12T08:49:58	1.6	88
101407	2025-01-12T08:59:58	1.5	88
101408	2025-01-12T09:09:58	1.7	90
101409	2025-01-12T09:19:58	1.8	90.5
101410	2025-01-12T09:29:58	2	90.5
101411	2025-01-12T09:39:58	2.1	89.5
101412	2025-01-12T09:49:58	2	87.5
101413	2025-01-12T09:59:58	2.1	88
101414	2025-01-12T10:09:58	2.2	87.5
101415	2025-01-12T10:19:58	2.5	87
101416	2025-01-12T10:29:58	2.6	84.5
101417	2025-01-12T10:39:58	2.9	85.5
101418	2025-01-12T10:49:58	3.3	84
101419	2025-01-12T10:59:58	3.1	85.5
101420	2025-01-12T11:09:58	3	84
101421	2025-01-12T11:19:58	3.2	84.5
101422	2025-01-12T11:29:58	3.5	81
101423	2025-01-12T11:39:58	4.4	82
101424	2025-01-12T11:49:58	4.5	78.5
101425	2025-01-12T11:59:58	4.6	75.5
101426	2025-01-12T12:09:58	4.9	72
101427	2025-01-12T12:19:58	5.2	71
101428	2025-01-12T12:29:58	7	65
101429	2025-01-12T12:39:58	8.5	61
101430	2025-01-12T12:49:58	9.6	60.5
101431	2025-01-12T12:59:58	11	56
101432	2025-01-12T13:09:58	9.6	56.5
101433	2025-01-12T13:19:58	8.6	56.5
101434	2025-01-12T13:29:58	9.1	53.5
101435	2025-01-12T13:39:58	8.2	56
101436	2025-01-12T13:49:58	7.7	62.5
101437	2025-01-12T13:59:58	8.7	62
101438	2025-01-12T14:09:58	10.2	54
101439	2025-01-12T14:19:58	10.8	52
101440	2025-01-12T14:29:58	9.8	52
101441	2025-01-12T14:39:58	8.5	54
101442	2025-01-12T14:49:58	8.2	59
101443	2025-01-12T14:59:58	7.9	64.5
101444	2025-01-12T15:09:58	7.9	67
101445	2025-01-12T15:19:58	7.5	71.5
101446	2025-01-12T15:29:58	7.3	71.5
101447	2025-01-12T15:39:58	7	60
101448	2025-01-12T15:49:58	6.8	69.5
101449	2025-01-12T15:59:58	6.7	74
101450	2025-01-12T16:09:58	6.6	76
101451	2025-01-12T16:19:58	6.5	77
101452	2025-01-12T16:29:58	6.3	75.5
101453	2025-01-12T16:39:58	6.2	77.5
101454	2025-01-12T16:49:58	6	75.5
101455	2025-01-12T16:59:58	6	78
101456	2025-01-12T17:09:58	5.8	78
101457	2025-01-12T17:19:58	5.8	80.5
101458	2025-01-12T17:29:58	5.8	78.5
101459	2025-01-12T17:39:58	5.6	79
101460	2025-01-12T17:49:58	5.6	81
101461	2025-01-12T17:59:58	5.5	81.5
101462	2025-01-12T18:09:58	5.5	82
101463	2025-01-12T18:19:58	5.4	82.5
101464	2025-01-12T18:29:58	5.3	82
101465	2025-01-12T18:39:58	5.2	83
101466	2025-01-12T18:49:58	5.1	82
101467	2025-01-12T18:59:58	5.1	83
101468	2025-01-12T19:09:58	4.9	81.5
101469	2025-01-12T19:19:58	5	82
101470	2025-01-12T19:29:58	4.9	83
101471	2025-01-12T19:39:58	4.8	83.5
101472	2025-01-12T19:49:58	4.8	82
101473	2025-01-12T19:59:58	4.7	81.5
101474	2025-01-12T20:09:58	4.5	77
101475	2025-01-12T20:19:58	4.3	78.5
101476	2025-01-12T20:29:58	4.4	81
101477	2025-01-12T20:39:58	4.3	79
101478	2025-01-12T20:49:58	4.2	82
101479	2025-01-12T20:59:58	4.2	83.5
101480	2025-01-12T21:09:58	4.2	83.5
101481	2025-01-12T21:19:58	4.1	82.5
101482	2025-01-12T21:29:58	4.1	82.5
101483	2025-01-12T21:39:58	4	81.5
101484	2025-01-12T21:49:58	3.9	82.5
101485	2025-01-12T21:59:58	3.8	81
101486	2025-01-12T22:09:58	3.8	82
101487	2025-01-12T22:19:58	3.7	80.5
101488	2025-01-12T22:29:58	3.6	80.5
101489	2025-01-12T22:39:58	3.4	81.5
101490	2025-01-12T22:49:58	3.2	81.5
101491	2025-01-12T22:59:58	2.9	85
101492	2025-01-12T23:09:58	2.8	86
101493	2025-01-12T23:19:58	2.6	87
101494	2025-01-12T23:29:58	2.3	88
101495	2025-01-12T23:39:58	2.2	88
101496	2025-01-12T23:49:58	2.1	88
101497	2025-01-12T23:59:58	1.9	88.5
101498	2025-01-13T00:09:58	1.8	89
101499	2025-01-13T00:19:58	1.6	89
101500	2025-01-13T00:29:58	1.5	89
101501	2025-01-13T00:39:58	1.3	86.5
101502	2025-01-13T00:49:58	1.3	86
101503	2025-01-13T00:59:58	1.1	86.5
101504	2025-01-13T01:09:58	1	88.5
101505	2025-01-13T01:19:58	1	88
101506	2025-01-13T01:29:58	0.8	88
101507	2025-01-13T01:39:58	0.7	88
101508	2025-01-13T01:49:58	0.4	85
101509	2025-01-13T01:59:58	0.5	85.5
101510	2025-01-13T02:09:58	0.5	87
101511	2025-01-13T02:19:58	0.4	86.5
101512	2025-01-13T02:29:58	0.3	85.5
101513	2025-01-13T02:39:58	0.1	82
101514	2025-01-13T02:49:58	0.1	82.5
101515	2025-01-13T02:59:58	0	86.5
101516	2025-01-13T03:09:58	0	86.5
101517	2025-01-13T03:19:58	-0.1	86.5
101518	2025-01-13T03:29:58	-0.2	86.5
101519	2025-01-13T03:39:58	-0.2	87.5
101520	2025-01-13T03:49:58	-0.3	86.5
101521	2025-01-13T03:59:58	-0.3	84
101522	2025-01-13T04:09:58	-0.5	84
101523	2025-01-13T04:19:58	-0.5	86
101524	2025-01-13T04:29:58	-0.6	84.5
101525	2025-01-13T04:39:58	-0.8	84
101526	2025-01-13T04:49:58	-0.9	83.5
101527	2025-01-13T04:59:58	-0.8	84.5
101528	2025-01-13T05:09:58	-0.8	85
101529	2025-01-13T05:19:58	-0.9	86.5
101530	2025-01-13T05:29:58	-0.9	85.5
101531	2025-01-13T05:39:58	-1	85
101532	2025-01-13T05:49:58	-1.1	84.5
101533	2025-01-13T05:59:58	-1.1	85
101534	2025-01-13T06:09:58	-1.1	86
101535	2025-01-13T06:19:58	-1.1	87
101536	2025-01-13T06:29:58	-1.3	85.5
101537	2025-01-13T06:39:58	-1.1	86.5
101538	2025-01-13T06:49:58	-1.2	88.5
101539	2025-01-13T06:59:58	-1.2	87.5
101540	2025-01-13T07:09:58	-1.3	87.5
101541	2025-01-13T07:19:58	-1.4	88
101542	2025-01-13T07:29:58	-1.5	88
101543	2025-01-13T07:39:58	-1.4	86.5
101544	2025-01-13T07:49:58	-1.4	86.5
101545	2025-01-13T07:59:58	-1.3	87
101546	2025-01-13T08:09:58	-1.3	88.5
101547	2025-01-13T08:19:58	-1.3	88
101548	2025-01-13T08:29:58	-1.4	85.5
101549	2025-01-13T08:39:58	-1.3	85.5
101550	2025-01-13T08:49:58	-1.4	85.5
101551	2025-01-13T08:59:58	-1.2	85.5
101552	2025-01-13T09:09:58	-1.2	84.5
101553	2025-01-13T09:19:58	-1.2	85
101554	2025-01-13T09:29:58	-1.1	86
101555	2025-01-13T09:39:58	-1	83.5
101556	2025-01-13T09:49:58	-0.8	82.5
101557	2025-01-13T09:59:58	-0.7	83
101558	2025-01-13T10:09:58	-0.6	82
101559	2025-01-13T10:19:58	-0.5	81.5
101560	2025-01-13T10:29:58	-0.4	81
101561	2025-01-13T10:39:58	-0.2	80.5
101562	2025-01-13T10:49:58	-0.1	80
101563	2025-01-13T10:59:58	0	80
101564	2025-01-13T11:09:58	0.1	80.5
101565	2025-01-13T11:19:58	0.3	78.5
101566	2025-01-13T11:29:58	0.5	75.5
101567	2025-01-13T11:39:58	0.6	75.5
101568	2025-01-13T11:49:58	1.5	74.5
101569	2025-01-13T11:59:58	2.1	72
101570	2025-01-13T12:09:58	2.1	71.5
101571	2025-01-13T12:19:58	2.7	69
101572	2025-01-13T12:29:58	4.3	64.5
101573	2025-01-13T12:39:58	5.5	61
101574	2025-01-13T12:49:58	6.2	58.5
101575	2025-01-13T12:59:58	7	54.5
101576	2025-01-13T13:09:58	7.6	55
101577	2025-01-13T13:19:58	6.7	55
101578	2025-01-13T13:29:58	5.9	59
101579	2025-01-13T13:39:58	5.3	58
101580	2025-01-13T13:49:58	6.1	57
101581	2025-01-13T13:59:58	7.1	55.5
101582	2025-01-13T14:09:58	7.7	54
101583	2025-01-13T14:19:58	8.2	52.5
101584	2025-01-13T14:29:58	8.4	55.5
101585	2025-01-13T14:39:58	8.7	52
101586	2025-01-13T14:49:58	9	50.5
101587	2025-01-13T14:59:58	9	49.5
101588	2025-01-13T15:09:58	8.8	55
101589	2025-01-13T15:19:58	8.3	58
101590	2025-01-13T15:29:58	7.5	58.5
101591	2025-01-13T15:39:58	6.6	57
101592	2025-01-13T15:49:58	5.7	63
101593	2025-01-13T15:59:58	5	64
101594	2025-01-13T16:09:58	4.4	60
101595	2025-01-13T16:19:58	4	67.5
101596	2025-01-13T16:29:58	3.9	71.5
101597	2025-01-13T16:39:58	3.6	67
101598	2025-01-13T16:49:58	3.4	70.5
101599	2025-01-13T16:59:58	3.1	69.5
101600	2025-01-13T17:09:58	2.8	75.5
101601	2025-01-13T17:19:58	2.7	70.5
101602	2025-01-13T17:29:58	2.4	72.5
101603	2025-01-13T17:39:58	2	67.5
101604	2025-01-13T17:49:58	1.7	69.5
101605	2025-01-13T17:59:58	1.5	69.5
101606	2025-01-13T18:09:58	1.4	70.5
101607	2025-01-13T18:19:58	1.1	69
101608	2025-01-13T18:29:58	0.9	70
101609	2025-01-13T18:39:58	0.8	70.5
101610	2025-01-13T18:49:58	0.7	71
101611	2025-01-13T18:59:58	0.5	71
101612	2025-01-13T19:09:58	0.5	71
101613	2025-01-13T19:19:58	0.4	72
101614	2025-01-13T19:29:58	0.6	76.5
101615	2025-01-13T19:39:58	0.6	77
101616	2025-01-13T19:49:58	0.6	80.5
101617	2025-01-13T19:59:58	0.7	81
101618	2025-01-13T20:09:58	0.6	75.5
101619	2025-01-13T20:19:58	0.6	77
101620	2025-01-13T20:29:58	0.6	81
101621	2025-01-13T20:39:58	0.5	81.5
101622	2025-01-13T20:49:58	0.7	80
101623	2025-01-13T20:59:58	0.6	80
101624	2025-01-13T21:09:58	0.5	78.5
101625	2025-01-13T21:19:58	0.5	79.5
101626	2025-01-13T21:29:58	0.4	75.5
101627	2025-01-13T21:39:58	0.4	79
101628	2025-01-13T21:49:58	0.5	80.5
101629	2025-01-13T21:59:58	0.5	76.5
101630	2025-01-13T22:09:58	0.5	78
101631	2025-01-13T22:19:58	0.5	78
101632	2025-01-13T22:29:58	0.5	75.5
101633	2025-01-13T22:39:58	0.4	78
101634	2025-01-13T22:49:58	0.3	77
101635	2025-01-13T22:59:58	0.2	77
101636	2025-01-13T23:09:58	0.2	75.5
101637	2025-01-13T23:19:58	0.2	74.5
101638	2025-01-13T23:29:58	0.2	74.5
101639	2025-01-13T23:39:58	0.4	76
101640	2025-01-13T23:49:58	0.2	78
101641	2025-01-13T23:59:58	0.1	76
101642	2025-01-14T00:09:58	0	74.5
101643	2025-01-14T00:19:58	-0.1	74.5
101644	2025-01-14T00:29:58	0	73
101645	2025-01-14T00:39:58	-0.1	74.5
101646	2025-01-14T00:49:58	-0.1	74
101647	2025-01-14T00:59:58	0	74
101648	2025-01-14T01:09:58	0	74
101649	2025-01-14T01:19:58	0	75.5
101650	2025-01-14T01:29:58	0.1	74
101651	2025-01-14T01:39:58	0	75.5
101652	2025-01-14T01:49:58	0	75
101653	2025-01-14T01:59:58	0	79.5
101654	2025-01-14T02:09:58	0	77.5
101655	2025-01-14T02:19:58	0	75.5
101656	2025-01-14T02:29:58	0	76.5
101657	2025-01-14T02:39:58	-0.1	78
101658	2025-01-14T02:49:58	0	77
101659	2025-01-14T02:59:58	-0.1	77.5
101660	2025-01-14T03:09:58	-0.2	81
101661	2025-01-14T03:19:58	-0.4	79.5
101662	2025-01-14T03:29:58	-0.5	80
101663	2025-01-14T03:39:58	-0.7	78.5
101664	2025-01-14T03:49:58	-0.7	81
101665	2025-01-14T03:59:58	-0.9	79.5
101666	2025-01-14T04:09:58	-0.9	80
101667	2025-01-14T04:19:58	-0.9	82.5
101668	2025-01-14T04:29:58	-1.1	81
101669	2025-01-14T04:39:58	-1	80
101670	2025-01-14T04:49:58	-1.1	82
101671	2025-01-14T04:59:58	-1.2	83.5
101672	2025-01-14T05:09:58	-1.3	84
101673	2025-01-14T05:29:58	-1.5	86
101674	2025-01-14T05:39:58	-1.5	87
101675	2025-01-14T05:49:58	-1.7	85.5
101676	2025-01-14T05:59:58	-1.7	87.5
101677	2025-01-14T06:09:58	-1.9	87.5
101678	2025-01-14T06:19:58	-1.9	86
101679	2025-01-14T06:29:58	-1.9	86
101680	2025-01-14T06:39:58	-2.2	84
101681	2025-01-14T06:49:58	-2.2	84.5
101682	2025-01-14T06:59:58	-2.2	87.5
101683	2025-01-14T07:09:58	-2.2	86.5
101684	2025-01-14T07:19:58	-2.3	88
101685	2025-01-14T07:29:58	-2.4	86.5
101686	2025-01-14T07:39:58	-2.7	84
101687	2025-01-14T07:49:58	-2.4	87.5
101688	2025-01-14T07:59:58	-2.5	88.5
101689	2025-01-14T08:09:58	-2.5	89
101690	2025-01-14T08:19:58	-2.6	88.5
101691	2025-01-14T08:29:58	-2.5	89.5
101692	2025-01-14T08:39:58	-2.4	86
101693	2025-01-14T08:49:58	-2.3	87.5
101694	2025-01-14T08:59:58	-2.3	87
101695	2025-01-14T09:09:58	-2.2	87.5
101696	2025-01-14T09:19:58	-2.2	88.5
101697	2025-01-14T09:29:58	-2	86
101698	2025-01-14T09:39:58	-1.9	83
101699	2025-01-14T09:49:58	-1.7	83
101700	2025-01-14T09:59:58	-1.6	84
101701	2025-01-14T10:09:58	-1.4	85.5
101702	2025-01-14T10:19:58	-1.4	85
101703	2025-01-14T10:29:58	-1.1	85.5
101704	2025-01-14T10:39:58	-0.9	84.5
101705	2025-01-14T10:49:58	-0.7	81
101706	2025-01-14T10:59:58	-0.5	83
101707	2025-01-14T11:09:58	-0.4	83.5
101708	2025-01-14T11:19:58	-0.1	82
101709	2025-01-14T11:29:58	0	81.5
101710	2025-01-14T11:39:58	0.4	78
101711	2025-01-14T11:49:58	1.3	78
101712	2025-01-14T11:59:58	1.8	71.5
101713	2025-01-14T12:09:58	1.9	72.5
101714	2025-01-14T12:19:58	2.5	70.5
101715	2025-01-14T12:29:58	4.7	64.5
101716	2025-01-14T12:39:58	6.5	63
101717	2025-01-14T12:49:58	7.8	62
101718	2025-01-14T12:59:58	8.7	60
101719	2025-01-14T13:09:58	9.5	49.5
101720	2025-01-14T13:19:58	10	52
101721	2025-01-14T13:29:58	10.6	49.5
101722	2025-01-14T13:39:58	11	46
101723	2025-01-14T13:49:58	11	53
101724	2025-01-14T13:59:58	11.6	50.5
101725	2025-01-14T14:09:58	12.1	51
101726	2025-01-14T14:19:58	12.1	47
101727	2025-01-14T14:29:58	12.4	53.5
101728	2025-01-14T14:39:58	12.5	46.5
101729	2025-01-14T14:49:58	12.5	48.5
101730	2025-01-14T14:59:58	12.2	46.5
101731	2025-01-14T15:09:58	12.3	55
101732	2025-01-14T15:19:58	11.4	51
101733	2025-01-14T15:29:58	10.6	57.5
101734	2025-01-14T15:39:58	9.7	62.5
101735	2025-01-14T15:49:58	9	64
101736	2025-01-14T15:59:58	8.2	62.5
101737	2025-01-14T16:09:58	7.7	63
101738	2025-01-14T16:19:58	7.2	68.5
101739	2025-01-14T16:29:58	6.7	70
101740	2025-01-14T16:39:58	6.3	68
101741	2025-01-14T16:49:58	6	71.5
101742	2025-01-14T16:59:58	5.8	73
101743	2025-01-14T17:09:58	5.4	71.5
101744	2025-01-14T17:19:58	5.2	74.5
101745	2025-01-14T17:29:58	4.9	72.5
101746	2025-01-14T17:39:58	4.5	67
101747	2025-01-14T17:49:58	4.3	74.5
101748	2025-01-14T17:59:58	4.1	76
101749	2025-01-14T18:09:58	3.9	75.5
101750	2025-01-14T18:19:58	3.7	73
101751	2025-01-14T18:29:58	3.6	77.5
101752	2025-01-14T18:39:58	3.3	74.5
101753	2025-01-14T18:49:58	3.2	78.5
101754	2025-01-14T18:59:58	3	76
101755	2025-01-14T19:09:58	2.7	73.5
101756	2025-01-14T19:19:58	2.7	76
101757	2025-01-14T19:29:58	2.4	78
101758	2025-01-14T19:39:58	2.3	79
101759	2025-01-14T19:49:58	2.1	79
101760	2025-01-14T19:59:58	2.1	76.5
101761	2025-01-14T20:09:58	1.8	75
101762	2025-01-14T20:19:58	1.6	77.5
101763	2025-01-14T20:29:58	1.3	75.5
101764	2025-01-14T20:39:58	1.5	78.5
101765	2025-01-14T20:49:58	1.4	79.5
101766	2025-01-14T20:59:58	1.3	80.5
101767	2025-01-14T21:09:58	1.1	81
101768	2025-01-14T21:19:58	1.2	80
101769	2025-01-14T21:29:58	1	79
101770	2025-01-14T21:39:58	0.8	76
101771	2025-01-14T21:49:58	0	78
101772	2025-01-14T21:59:58	0.6	80.5
101773	2025-01-14T22:09:58	0.9	82
101774	2025-01-14T22:19:58	1.2	82.5
101775	2025-01-14T22:29:58	1.4	80.5
101776	2025-01-14T22:39:58	1.4	78.5
101777	2025-01-14T22:49:58	1	77
101778	2025-01-14T22:59:58	1	77
101779	2025-01-14T23:09:58	0.9	77
101780	2025-01-14T23:19:58	1	78.5
101781	2025-01-14T23:29:58	1.2	77
101782	2025-01-14T23:39:58	1	76.5
101783	2025-01-14T23:49:58	1	79
101784	2025-01-14T23:59:58	0.8	79.5
101785	2025-01-15T00:09:58	1.1	79
101786	2025-01-15T00:19:58	0.6	81.5
101787	2025-01-15T00:29:58	0.6	81
101788	2025-01-15T00:39:58	1	82.5
101789	2025-01-15T00:49:58	0.9	80
101790	2025-01-15T00:59:58	0.9	80.5
101791	2025-01-15T01:09:58	1	79.5
101792	2025-01-15T01:19:58	1.1	79.5
101793	2025-01-15T01:29:58	1.3	80
101794	2025-01-15T01:39:58	1.3	80
101795	2025-01-15T01:49:58	1.3	80.5
101796	2025-01-15T01:59:58	1	80
101797	2025-01-15T02:09:58	0.9	80
101798	2025-01-15T02:19:58	0.8	80
101799	2025-01-15T02:29:58	0.9	79.5
101800	2025-01-15T02:39:58	1.1	79
101801	2025-01-15T02:49:58	1.1	79
101802	2025-01-15T02:59:58	1.1	79.5
101803	2025-01-15T03:09:58	1.3	80
101804	2025-01-15T03:19:58	1.4	80
101805	2025-01-15T03:29:58	1.6	83
101806	2025-01-15T03:39:58	1.7	81
101807	2025-01-15T03:50:15	1.6	80
101808	2025-01-15T03:59:58	1.6	80.5
101809	2025-01-15T04:09:58	1.5	81
101810	2025-01-15T04:19:58	1	86
101811	2025-01-15T04:29:58	1	87.5
101812	2025-01-15T04:39:58	1.3	89.5
101813	2025-01-15T04:49:58	1.2	87.5
101814	2025-01-15T04:59:58	1.2	88
101815	2025-01-15T05:09:58	1.3	88
101816	2025-01-15T05:19:58	1.4	87.5
101817	2025-01-15T05:29:58	1.4	87
101818	2025-01-15T05:39:58	1.3	88.5
101819	2025-01-15T05:49:58	1.5	89.5
101820	2025-01-15T05:59:58	1.7	91
101821	2025-01-15T06:09:58	1.7	90.5
101822	2025-01-15T06:19:58	1.7	92.5
101823	2025-01-15T06:29:58	1.6	90.5
101824	2025-01-15T06:39:58	1.4	92
101825	2025-01-15T06:49:58	1.2	93
101826	2025-01-15T06:59:58	1.1	93.5
101827	2025-01-15T07:09:58	1.1	92
101828	2025-01-15T07:19:58	1	93
101829	2025-01-15T07:29:58	0.9	92
101830	2025-01-15T07:39:58	0.8	92
101831	2025-01-15T07:49:58	0.9	92
101832	2025-01-15T07:59:58	1.1	92
101833	2025-01-15T08:09:58	1.2	91.5
101834	2025-01-15T08:19:58	1.1	91.5
101835	2025-01-15T08:29:58	1	92
101836	2025-01-15T08:39:58	1.2	91.5
101837	2025-01-15T08:49:58	1.2	92
101838	2025-01-15T08:59:58	1.3	91.5
101839	2025-01-15T09:09:58	1.5	91
101840	2025-01-15T09:19:58	1.5	90.5
101841	2025-01-15T09:29:58	1.6	90.5
101842	2025-01-15T09:39:58	1.6	91
101843	2025-01-15T09:49:58	1.9	90.5
101844	2025-01-15T09:59:58	2	90
101845	2025-01-15T10:09:58	2.1	90
101846	2025-01-15T10:19:58	2.2	90.5
101847	2025-01-15T10:29:58	2.4	91
101848	2025-01-15T10:39:58	2.6	91
101849	2025-01-15T10:49:58	2.8	90
101850	2025-01-15T10:59:58	2.7	88
101851	2025-01-15T11:09:58	2.8	87
101852	2025-01-15T11:19:57	3	88.5
101853	2025-01-15T11:29:57	3.2	89
101854	2025-01-15T11:39:57	3.5	90
101855	2025-01-15T11:49:57	3.9	90
101856	2025-01-15T11:59:57	4.1	90
101857	2025-01-15T12:09:57	4.3	89.5
101858	2025-01-15T12:19:57	4.5	89.5
101859	2025-01-15T12:29:57	4.4	89.5
101860	2025-01-15T12:39:57	4.3	89.5
101861	2025-01-15T12:49:57	4.3	90
101862	2025-01-15T12:59:57	4.2	89.5
101863	2025-01-15T13:09:57	4.3	89.5
101864	2025-01-15T13:19:57	4.5	90
101865	2025-01-15T13:29:57	4.5	90.5
101866	2025-01-15T13:39:57	4.7	90
101867	2025-01-15T13:49:57	4.7	90.5
101868	2025-01-15T13:59:57	5.3	91
101869	2025-01-15T14:09:57	6.8	86.5
101870	2025-01-15T14:19:57	7.8	81.5
101871	2025-01-15T14:29:57	8.3	82.5
101872	2025-01-15T14:39:57	8.7	80
101873	2025-01-15T14:49:57	7.7	80
101874	2025-01-15T14:59:57	7.1	83.5
101875	2025-01-15T15:09:57	6.7	82.5
101876	2025-01-15T15:19:57	6.5	85
101877	2025-01-15T15:29:57	6.2	84
101878	2025-01-15T15:39:57	5.9	85.5
101879	2025-01-15T15:49:57	5.8	86.5
101880	2025-01-15T15:59:57	5.6	87
101881	2025-01-15T16:09:57	5.5	88
101882	2025-01-15T16:19:57	5.5	87.5
101883	2025-01-15T16:30:14	5.3	88.5
101884	2025-01-15T16:39:57	5.3	87.5
101885	2025-01-15T16:49:57	5.2	88.5
101886	2025-01-15T16:59:57	5.2	88.5
101887	2025-01-15T17:09:57	5.1	89
101888	2025-01-15T17:19:57	5	89.5
101889	2025-01-15T17:29:57	5	88.5
101890	2025-01-15T17:39:57	5	89
101891	2025-01-15T17:49:57	4.8	88
101892	2025-01-15T17:59:57	4.6	88
101893	2025-01-15T18:09:57	4.5	88.5
101894	2025-01-15T18:19:57	4.6	88.5
101895	2025-01-15T18:29:57	4.7	89
101896	2025-01-15T18:39:57	4.7	89.5
101897	2025-01-15T18:49:57	4.7	89
101898	2025-01-15T18:59:57	4.6	89.5
101899	2025-01-15T19:09:57	4.6	89
101900	2025-01-15T19:19:57	4.6	89.5
101901	2025-01-15T19:29:57	4.6	90
101902	2025-01-15T19:39:57	4.5	90
101903	2025-01-15T19:49:57	4.6	89
101904	2025-01-15T19:59:57	4.4	90
101905	2025-01-15T20:09:57	4.4	90
101906	2025-01-15T20:19:57	4.5	89.5
101907	2025-01-15T20:29:57	4.5	90.5
101908	2025-01-15T20:39:57	4.6	91.5
101909	2025-01-15T20:49:57	4.6	91
101910	2025-01-15T20:59:57	4.4	89
101911	2025-01-15T21:09:57	4.4	89.5
101912	2025-01-15T21:19:57	4.4	89.5
101913	2025-01-15T21:29:57	4.5	89.5
101914	2025-01-15T21:39:57	4.4	89.5
101915	2025-01-15T21:49:57	4.5	90.5
101916	2025-01-15T21:59:57	4.4	90
101917	2025-01-15T22:09:57	4.4	89.5
101918	2025-01-15T22:19:57	4.5	90
101919	2025-01-15T22:29:57	4.5	89.5
101920	2025-01-15T22:39:57	4.5	90
101921	2025-01-15T22:49:57	4.6	90
101922	2025-01-15T22:59:57	4.5	89
101923	2025-01-15T23:09:57	4.6	90
101924	2025-01-15T23:19:57	4.6	89.5
101925	2025-01-15T23:29:57	4.6	90
101926	2025-01-15T23:39:57	4.6	90
101927	2025-01-15T23:49:57	4.4	89
101928	2025-01-15T23:59:57	4.4	90
101929	2025-01-16T00:09:57	4.5	90
101930	2025-01-16T00:19:57	4.6	90
101931	2025-01-16T00:29:57	4.6	89.5
101932	2025-01-16T00:39:57	4.5	90
101933	2025-01-16T00:49:57	4.5	88.5
101934	2025-01-16T00:59:57	4.5	89
101935	2025-01-16T01:09:57	4.6	89.5
101936	2025-01-16T01:19:57	4.5	89
101937	2025-01-16T01:29:57	4.2	88.5
101938	2025-01-16T01:39:57	4.2	89.5
101939	2025-01-16T01:49:57	3.9	88.5
101940	2025-01-16T01:59:57	3.8	90.5
101941	2025-01-16T02:09:57	3.6	90.5
101942	2025-01-16T02:19:57	3.4	90
101943	2025-01-16T02:29:57	3.4	90.5
101944	2025-01-16T02:39:57	3.6	90.5
101945	2025-01-16T02:49:57	3.7	90
101946	2025-01-16T02:59:57	3.5	89.5
101947	2025-01-16T03:09:57	3.4	91.5
101948	2025-01-16T03:19:57	3.4	91.5
101949	2025-01-16T03:29:57	3.3	90.5
101950	2025-01-16T03:39:57	3.4	92
101951	2025-01-16T03:49:57	3.3	91.5
101952	2025-01-16T03:59:57	3.1	91
101953	2025-01-16T04:09:57	2.9	91
101954	2025-01-16T04:19:57	2.9	91.5
101955	2025-01-16T04:29:57	2.7	91.5
101956	2025-01-16T04:39:57	2.6	92
101957	2025-01-16T04:49:57	2.5	92
101958	2025-01-16T04:59:57	2.5	92.5
101959	2025-01-16T05:09:57	2.5	92.5
101960	2025-01-16T05:19:57	2.6	92.5
101961	2025-01-16T05:29:57	2.7	92
101962	2025-01-16T05:39:57	2.7	92
101963	2025-01-16T05:49:57	2.7	92.5
101964	2025-01-16T05:59:57	2.8	92
101965	2025-01-16T06:09:57	2.9	92
101966	2025-01-16T06:19:57	2.8	92.5
101967	2025-01-16T06:29:57	2.9	92.5
101968	2025-01-16T06:39:57	2.9	92.5
101969	2025-01-16T06:49:57	2.9	92.5
101970	2025-01-16T06:59:57	2.8	92.5
101971	2025-01-16T07:09:57	3	92.5
101972	2025-01-16T07:19:57	3	92
101973	2025-01-16T07:29:57	2.9	92.5
101974	2025-01-16T07:39:57	3	92.5
101975	2025-01-16T07:49:57	3.1	92.5
101976	2025-01-16T07:59:57	3.1	92
101977	2025-01-16T08:09:57	3.2	91.5
101978	2025-01-16T08:19:57	3.1	92
101979	2025-01-16T08:29:57	3.3	91.5
101980	2025-01-16T08:39:57	3.5	91.5
101981	2025-01-16T08:49:57	3.5	91.5
101982	2025-01-16T08:59:57	3.4	91.5
101983	2025-01-16T09:09:57	3.4	91.5
101984	2025-01-16T09:19:57	3.3	92
101985	2025-01-16T09:29:57	3.2	91.5
101986	2025-01-16T09:39:57	3.4	92
101987	2025-01-16T09:49:57	3.4	92
101988	2025-01-16T09:59:57	3.4	92
101989	2025-01-16T10:09:57	3.7	90.5
101990	2025-01-16T10:19:57	3.9	90
101991	2025-01-16T10:29:57	4.3	89.5
101992	2025-01-16T10:39:57	4.9	87
101993	2025-01-16T10:49:57	5.4	85
101994	2025-01-16T10:59:57	5.8	83
101995	2025-01-16T11:09:57	6.3	82.5
101996	2025-01-16T11:19:57	6.5	80
101997	2025-01-16T11:29:57	6.8	80
101998	2025-01-16T11:39:57	7	78.5
101999	2025-01-16T11:49:57	7.5	76.5
102000	2025-01-16T11:59:57	7.6	77
102001	2025-01-16T12:09:57	7.5	76
102002	2025-01-16T12:19:57	7.5	75
102003	2025-01-16T12:29:57	7.3	78
102004	2025-01-16T12:39:57	7.4	76.5
102005	2025-01-16T12:49:57	7.5	76
102006	2025-01-16T12:59:57	7.7	75
102007	2025-01-16T13:09:57	7.9	75.5
102008	2025-01-16T13:19:57	8	75.5
102009	2025-01-16T13:29:57	7.8	73.5
102010	2025-01-16T13:39:57	7.7	72.5
102011	2025-01-16T13:49:57	7.7	73
102012	2025-01-16T13:59:57	7.6	73.5
102013	2025-01-16T14:09:57	7.6	75
102014	2025-01-16T14:19:57	7.6	73.5
102015	2025-01-16T14:29:57	7.5	73.5
102016	2025-01-16T14:39:57	7.4	72.5
102017	2025-01-16T14:49:57	8	70
102018	2025-01-16T14:59:57	8.6	69
102019	2025-01-16T15:09:57	9	69.5
102020	2025-01-16T15:19:57	9.1	69
102021	2025-01-16T15:29:57	8.9	66.5
102022	2025-01-16T15:39:57	8	70.5
102023	2025-01-16T15:49:57	7.5	72
102024	2025-01-16T15:59:57	7.1	74
102025	2025-01-16T16:09:57	6.6	74
102026	2025-01-16T16:19:57	6.4	75
102027	2025-01-16T16:29:57	6	75.5
102028	2025-01-16T16:39:57	5.9	76.5
102029	2025-01-16T16:49:57	5.8	77
102030	2025-01-16T16:59:57	5.6	77.5
102031	2025-01-16T17:09:57	5.4	76.5
102032	2025-01-16T17:19:57	5.3	77.5
102033	2025-01-16T17:29:57	5.3	78.5
102034	2025-01-16T17:39:57	5	81.5
102035	2025-01-16T17:49:57	4.9	82
102036	2025-01-16T17:59:57	4.8	81.5
102037	2025-01-16T18:09:57	4.7	82
102038	2025-01-16T18:19:57	4.5	83.5
102039	2025-01-16T18:29:57	4.4	83
102040	2025-01-16T18:39:57	4.4	84.5
102041	2025-01-16T18:49:57	4.3	83.5
102042	2025-01-16T18:59:57	4.2	83
102043	2025-01-16T19:09:57	4.1	83.5
102044	2025-01-16T19:19:57	3.9	83.5
102045	2025-01-16T19:29:57	4	83.5
102046	2025-01-16T19:39:57	3.9	84.5
102047	2025-01-16T19:49:57	3.8	83.5
102048	2025-01-16T19:59:57	3.7	83
102049	2025-01-16T20:09:57	3.5	82.5
102050	2025-01-16T20:19:57	3.5	84.5
102051	2025-01-16T20:29:57	3.3	83.5
102052	2025-01-16T20:39:57	3.1	84
102053	2025-01-16T20:49:57	3.2	85.5
102054	2025-01-16T20:59:57	3.2	86.5
102055	2025-01-16T21:09:57	3.1	87
102056	2025-01-16T21:19:57	3.1	86
102057	2025-01-16T21:29:57	3	86.5
102058	2025-01-16T21:39:57	3	87
102059	2025-01-16T21:49:57	2.9	87
102060	2025-01-16T21:59:57	2.8	87
102061	2025-01-16T22:09:57	2.7	87.5
102062	2025-01-16T22:19:57	2.7	88.5
102063	2025-01-16T22:29:57	2.6	89
102064	2025-01-16T22:39:57	2.5	89
102065	2025-01-16T22:49:57	2.5	88.5
102066	2025-01-16T22:59:57	2.4	88.5
102067	2025-01-16T23:09:57	2.4	88
102068	2025-01-16T23:19:57	2.3	89
102069	2025-01-16T23:29:57	2.3	89.5
102070	2025-01-16T23:39:57	2.2	89
102071	2025-01-16T23:49:57	2.2	89
102072	2025-01-16T23:59:57	2.1	90
102073	2025-01-17T00:09:57	2	90
102074	2025-01-17T00:19:57	1.9	89.5
102075	2025-01-17T00:29:57	1.8	89.5
102076	2025-01-17T00:39:57	1.7	89
102077	2025-01-17T00:49:57	1.7	90.5
102078	2025-01-17T00:59:57	1.6	91
102079	2025-01-17T01:09:57	1.6	91
102080	2025-01-17T01:19:57	1.5	90
102081	2025-01-17T01:29:57	1.5	91
102082	2025-01-17T01:39:57	1.4	90
102083	2025-01-17T01:49:57	1.4	90
102084	2025-01-17T01:59:57	1.2	90
102085	2025-01-17T02:09:57	1.2	90.5
102086	2025-01-17T02:19:57	1.2	91
102087	2025-01-17T02:30:15	1.1	91
102088	2025-01-17T02:39:57	1	91
102089	2025-01-17T02:49:57	0.9	91.5
102090	2025-01-17T02:59:57	0.9	92
102091	2025-01-17T03:09:57	0.9	92.5
102092	2025-01-17T03:19:57	0.9	92.5
102093	2025-01-17T03:29:57	0.9	92.5
102094	2025-01-17T03:39:57	0.8	92
102095	2025-01-17T03:49:57	0.9	91
102096	2025-01-17T03:59:57	0.8	91
102097	2025-01-17T04:09:57	0.8	91
102098	2025-01-17T04:19:57	0.8	90.5
102099	2025-01-17T04:29:57	0.7	90.5
102100	2025-01-17T04:39:57	0.6	91
102101	2025-01-17T04:49:57	0.6	90.5
102102	2025-01-17T04:59:57	0.6	91.5
102103	2025-01-17T05:09:57	0.5	92
102104	2025-01-17T05:19:57	0.4	92.5
102105	2025-01-17T05:29:57	0.3	90
102106	2025-01-17T05:39:57	0.4	90
102107	2025-01-17T05:49:57	0.5	91
102108	2025-01-17T05:59:57	0.4	92
102109	2025-01-17T06:09:57	0.3	92.5
102110	2025-01-17T06:19:57	0.1	92
102111	2025-01-17T06:29:57	0.1	92
102112	2025-01-17T06:39:57	0.1	92.5
102113	2025-01-17T06:49:57	0	92.5
102114	2025-01-17T06:59:57	0	93
102115	2025-01-17T07:09:57	0	92
102116	2025-01-17T07:19:57	0	91.5
102117	2025-01-17T07:29:57	0	92
102118	2025-01-17T07:39:57	-0.1	92.5
102119	2025-01-17T07:49:57	0	92
102120	2025-01-17T07:59:57	-0.1	90.5
102121	2025-01-17T08:09:57	0	90
102122	2025-01-17T08:19:57	0	91.5
102123	2025-01-17T08:29:57	0	91
102124	2025-01-17T08:39:57	0.2	91.5
102125	2025-01-17T08:49:57	0.3	92
102126	2025-01-17T08:59:57	0.4	91
102127	2025-01-17T09:09:57	0.6	90.5
102128	2025-01-17T09:19:57	0.7	91
102129	2025-01-17T09:29:57	0.9	91
102130	2025-01-17T09:39:57	1.1	90.5
102131	2025-01-17T09:49:57	1.5	91
102132	2025-01-17T09:59:57	1.7	90.5
102133	2025-01-17T10:09:57	1.9	90
102134	2025-01-17T10:19:57	2.1	90.5
102135	2025-01-17T10:29:57	2.3	90
102136	2025-01-17T10:39:57	2.5	89
102137	2025-01-17T10:49:57	2.6	88.5
102138	2025-01-17T10:59:57	2.9	89
102139	2025-01-17T11:09:57	3	87.5
102140	2025-01-17T11:19:57	3.3	86.5
102141	2025-01-17T11:29:57	3.3	86
102142	2025-01-17T11:39:57	3.5	85
102143	2025-01-17T11:49:57	3.8	84.5
102144	2025-01-17T11:59:57	3.8	83.5
102145	2025-01-17T12:09:56	4	83
102146	2025-01-17T12:19:57	4.1	83
102147	2025-01-17T12:29:56	4.2	81
102148	2025-01-17T12:39:56	4.4	81
102149	2025-01-17T12:49:56	4.5	81
102150	2025-01-17T12:59:56	4.7	81
102151	2025-01-17T13:09:56	4.6	80.5
102152	2025-01-17T13:19:56	4.6	81
102153	2025-01-17T13:29:56	4.6	80.5
102154	2025-01-17T13:39:56	4.5	80
102155	2025-01-17T13:49:56	4.6	80.5
102156	2025-01-17T13:59:56	4.6	80.5
102157	2025-01-17T14:09:56	4.6	81.5
102158	2025-01-17T14:19:56	4.5	80.5
102159	2025-01-17T14:29:56	4.5	81
102160	2025-01-17T14:39:56	4.4	80.5
102161	2025-01-17T14:49:56	4.3	80.5
102162	2025-01-17T14:59:56	4.2	80.5
102163	2025-01-17T15:09:56	4.1	80.5
102164	2025-01-17T15:29:56	4.2	81.5
102165	2025-01-17T15:39:56	4.1	82.5
102166	2025-01-17T15:49:56	4.1	82.5
102167	2025-01-17T15:59:56	4.1	82
102168	2025-01-17T16:09:56	4	83.5
102169	2025-01-17T16:19:56	3.9	81.5
102170	2025-01-17T16:29:56	4	82.5
102171	2025-01-17T16:39:56	4	83
102172	2025-01-17T16:49:56	3.9	83.5
102173	2025-01-17T16:59:56	3.9	82.5
102174	2025-01-17T17:09:56	3.9	82.5
102175	2025-01-17T17:19:56	3.9	83
102176	2025-01-17T17:29:56	3.9	82.5
102177	2025-01-17T17:39:56	3.8	83
102178	2025-01-17T17:49:56	3.8	83
102179	2025-01-17T17:59:56	3.7	83
102180	2025-01-17T18:09:56	3.8	84
102181	2025-01-17T18:19:56	3.8	84
102182	2025-01-17T18:29:56	3.7	84
102183	2025-01-17T18:39:56	3.8	84.5
102184	2025-01-17T18:49:56	3.6	84
102185	2025-01-17T18:59:56	3.6	84.5
102186	2025-01-17T19:09:56	3.6	84
102187	2025-01-17T19:19:56	3.7	84
102188	2025-01-17T19:29:56	3.6	84.5
102189	2025-01-17T19:39:56	3.6	85
102190	2025-01-17T19:49:56	3.6	84.5
102191	2025-01-17T19:59:56	3.6	85.5
102192	2025-01-17T20:09:56	3.6	85
102193	2025-01-17T20:19:56	3.7	85
102194	2025-01-17T20:29:56	3.7	84.5
102195	2025-01-17T20:39:56	3.5	84
102196	2025-01-17T20:49:56	3.6	84.5
102197	2025-01-17T20:59:56	3.7	85.5
102198	2025-01-17T21:09:56	3.7	83.5
102199	2025-01-17T21:19:56	3.7	85
102200	2025-01-17T21:29:56	3.7	85
102201	2025-01-17T21:39:56	3.7	85
102202	2025-01-17T21:49:56	3.7	83.5
102203	2025-01-17T21:59:56	3.7	82
102204	2025-01-17T22:09:56	3.8	82.5
102205	2025-01-17T22:19:56	3.8	83.5
102206	2025-01-17T22:29:56	3.8	84.5
102207	2025-01-17T22:39:56	3.8	82.5
102208	2025-01-17T22:49:56	3.8	83.5
102209	2025-01-17T22:59:56	3.8	81.5
102210	2025-01-17T23:09:56	3.7	81.5
102211	2025-01-17T23:19:56	3.8	83
102212	2025-01-17T23:29:56	3.8	82
102213	2025-01-17T23:39:56	3.8	82.5
102214	2025-01-17T23:49:56	3.8	81
102215	2025-01-17T23:59:56	3.7	82.5
102216	2025-01-18T00:09:56	3.8	82
102217	2025-01-18T00:19:56	3.8	81
102218	2025-01-18T00:29:56	3.6	81.5
102219	2025-01-18T00:39:56	3.7	81
102220	2025-01-18T00:49:56	3.7	80
102221	2025-01-18T00:59:56	3.6	80.5
102222	2025-01-18T01:09:56	3.6	80
102223	2025-01-18T01:19:56	3.6	81.5
102224	2025-01-18T01:29:56	3.6	81.5
102225	2025-01-18T01:39:56	3.6	82.5
102226	2025-01-18T01:49:56	3.6	81.5
102227	2025-01-18T01:59:56	3.5	81
102228	2025-01-18T02:09:56	3.5	81
102229	2025-01-18T02:19:56	3.5	81
102230	2025-01-18T02:29:56	3.6	80.5
102231	2025-01-18T02:39:56	3.5	81
102232	2025-01-18T02:49:56	3.6	81
102233	2025-01-18T02:59:56	3.5	81.5
102234	2025-01-18T03:09:56	3.6	82
102235	2025-01-18T03:19:56	3.5	81
102236	2025-01-18T03:29:56	3.5	82
102237	2025-01-18T03:39:56	3.5	82
102238	2025-01-18T03:49:56	3.6	82
102239	2025-01-18T03:59:56	3.6	81.5
102240	2025-01-18T04:09:56	3.6	80
102241	2025-01-18T04:19:56	3.5	81
102242	2025-01-18T04:29:56	3.5	81
102243	2025-01-18T04:39:56	3.4	80.5
102244	2025-01-18T04:49:56	3.4	80.5
102245	2025-01-18T04:59:56	3.3	81
102246	2025-01-18T05:09:56	3.5	83
102247	2025-01-18T05:19:56	3.4	82.5
102248	2025-01-18T05:29:56	3.3	82.5
102249	2025-01-18T05:39:56	3.3	82.5
102250	2025-01-18T05:49:56	3.4	82.5
102251	2025-01-18T05:59:56	3.5	82.5
102252	2025-01-18T06:09:56	3.4	80.5
102253	2025-01-18T06:19:56	3.4	81
102254	2025-01-18T06:29:56	3.4	81.5
102255	2025-01-18T06:39:56	3.4	81.5
102256	2025-01-18T06:49:56	3.4	81
102257	2025-01-18T06:59:56	3.3	80.5
102258	2025-01-18T07:09:56	3.3	81.5
102259	2025-01-18T07:19:56	3.4	82.5
102260	2025-01-18T07:29:56	3.2	81.5
102261	2025-01-18T07:39:56	3.1	83
102262	2025-01-18T07:49:56	2.9	84
102263	2025-01-18T07:59:56	2.8	83.5
102264	2025-01-18T08:09:56	2.8	84
102265	2025-01-18T08:19:56	2.7	85
102266	2025-01-18T08:29:56	2.7	85
102267	2025-01-18T08:39:56	2.6	84.5
102268	2025-01-18T08:49:56	2.7	85
102269	2025-01-18T08:59:56	2.8	85
102270	2025-01-18T09:09:56	2.8	85
102271	2025-01-18T09:19:56	2.8	84
102272	2025-01-18T09:29:56	3.1	83
102273	2025-01-18T09:39:56	3.1	82
102274	2025-01-18T09:49:56	3.2	83.5
102275	2025-01-18T09:59:56	3.3	82
102276	2025-01-18T10:09:56	3.3	81
102277	2025-01-18T10:19:56	3.4	82.5
102278	2025-01-18T10:29:56	3.8	81
102279	2025-01-18T10:39:56	3.9	81
102280	2025-01-18T10:49:56	4	80
102281	2025-01-18T10:59:56	4.3	79.5
102282	2025-01-18T11:09:56	4.4	77.5
102283	2025-01-18T11:19:56	4.6	77
102284	2025-01-18T11:29:56	4.9	76
102285	2025-01-18T11:39:56	5.2	76.5
102286	2025-01-18T11:49:56	6.3	73.5
102287	2025-01-18T11:59:56	6.6	73
102288	2025-01-18T12:09:56	6.8	72
102289	2025-01-18T12:19:56	7.4	70
102290	2025-01-18T12:29:56	9.2	66
102291	2025-01-18T12:39:56	10.6	62.5
102292	2025-01-18T12:49:56	11.6	61
102293	2025-01-18T12:59:56	12.3	55
102294	2025-01-18T13:09:56	12.8	57
102295	2025-01-18T13:19:56	13.3	53
102296	2025-01-18T13:29:56	13.9	54.5
102297	2025-01-18T13:39:56	14.3	53.5
102298	2025-01-18T13:59:56	14.8	51
102299	2025-01-18T14:09:56	15	50.5
102300	2025-01-18T14:19:56	15	52
102301	2025-01-18T14:29:56	15	50.5
102302	2025-01-18T14:39:56	15	51.5
102303	2025-01-18T14:49:56	14.5	48.5
102304	2025-01-18T14:59:56	14.3	51.5
102305	2025-01-18T15:09:56	14.1	51
102306	2025-01-18T15:19:56	13.6	51.5
102307	2025-01-18T15:29:56	12.9	50.5
102308	2025-01-18T15:39:56	11.9	57
102309	2025-01-18T15:49:56	10.8	57
102310	2025-01-18T15:59:56	9.9	61.5
102311	2025-01-18T16:09:56	9.5	60.5
102312	2025-01-18T16:19:56	8.8	63.5
102313	2025-01-18T16:29:56	8.4	64.5
102314	2025-01-18T16:39:56	7.9	63.5
102315	2025-01-18T16:49:56	7.8	70
102316	2025-01-18T16:59:56	7.5	68
102317	2025-01-18T17:09:56	6.9	66.5
102318	2025-01-18T17:19:56	6.5	67
102319	2025-01-18T17:29:56	6.2	68.5
102320	2025-01-18T17:39:56	5.8	69.5
102321	2025-01-18T17:49:56	5.7	71.5
102322	2025-01-18T17:59:56	5.6	74
102323	2025-01-18T18:09:56	5.4	75
102324	2025-01-18T18:19:56	5.1	71.5
102325	2025-01-18T18:29:56	4.9	72
102326	2025-01-18T18:39:56	4.7	72.5
102327	2025-01-18T18:49:56	4.6	74
102328	2025-01-18T18:59:56	4.4	76
102329	2025-01-18T19:09:56	4.2	75.5
102330	2025-01-18T19:19:56	4.1	79
102331	2025-01-18T19:29:56	4.1	79.5
102332	2025-01-18T19:39:56	3.9	79
102333	2025-01-18T19:49:56	3.7	80.5
102334	2025-01-18T19:59:56	3.6	80.5
102335	2025-01-18T20:09:56	3.5	81
102336	2025-01-18T20:19:56	3.3	79
102337	2025-01-18T20:29:56	3.3	80.5
102338	2025-01-18T20:39:56	3.2	82
102339	2025-01-18T20:49:56	3	81
102340	2025-01-18T20:59:56	2.9	82.5
102341	2025-01-18T21:09:56	2.8	80.5
102342	2025-01-18T21:19:56	2.7	82
102343	2025-01-18T21:29:56	2.6	83.5
102344	2025-01-18T21:49:56	2.5	83
102345	2025-01-18T21:59:56	2.4	82.5
102346	2025-01-18T22:09:56	2.2	82
102347	2025-01-18T22:19:56	2.1	83.5
102348	2025-01-18T22:29:56	2	83
102349	2025-01-18T22:39:56	1.9	83.5
102350	2025-01-18T22:49:56	1.8	82.5
102351	2025-01-18T22:59:56	1.8	84.5
102352	2025-01-18T23:09:56	1.6	84
102353	2025-01-18T23:19:56	1.6	83
102354	2025-01-18T23:29:56	1.5	85
102355	2025-01-18T23:39:56	1.4	84.5
102356	2025-01-18T23:49:56	1.2	85.5
102357	2025-01-18T23:59:56	1	85
102358	2025-01-19T00:09:56	1.1	82.5
102359	2025-01-19T00:19:56	1	82.5
102360	2025-01-19T00:29:56	0.9	84.5
102361	2025-01-19T00:39:56	0.9	84.5
102362	2025-01-19T00:49:56	0.2	80.5
102363	2025-01-19T00:59:56	0.5	84.5
102364	2025-01-19T01:09:56	0.4	85
102365	2025-01-19T01:19:56	0.4	86.5
102366	2025-01-19T01:29:56	0.3	86.5
102367	2025-01-19T01:39:56	0.2	85.5
102368	2025-01-19T01:49:56	0.3	85
102369	2025-01-19T01:59:56	0.2	85
102370	2025-01-19T02:09:56	0.1	85
102371	2025-01-19T02:19:56	0	86.5
102372	2025-01-19T02:29:56	0	86.5
102373	2025-01-19T02:39:56	0	87
102374	2025-01-19T02:49:56	-0.2	87
102375	2025-01-19T02:59:56	-0.3	86.5
102376	2025-01-19T03:09:56	-0.2	85.5
102377	2025-01-19T03:19:56	-0.4	85
102378	2025-01-19T03:29:56	-0.4	84.5
102379	2025-01-19T03:39:56	-0.4	84
102380	2025-01-19T03:49:56	-0.3	85
102381	2025-01-19T03:59:56	-0.5	86.5
102382	2025-01-19T04:09:56	-0.6	86.5
102383	2025-01-19T04:19:56	-0.6	87
102384	2025-01-19T04:29:56	-0.6	87
102385	2025-01-19T04:39:56	-0.7	86.5
102386	2025-01-19T04:49:56	-0.6	85.5
102387	2025-01-19T04:59:56	-0.3	86
102388	2025-01-19T05:09:56	-0.3	86
102389	2025-01-19T05:19:56	-0.5	86
102390	2025-01-19T05:29:56	-0.4	86.5
102391	2025-01-19T05:39:56	-0.4	87
102392	2025-01-19T05:49:56	-0.6	87.5
102393	2025-01-19T05:59:56	-0.7	87
102394	2025-01-19T06:09:56	-0.8	87.5
102395	2025-01-19T06:19:56	-0.7	88.5
102396	2025-01-19T06:29:56	-0.6	88.5
102397	2025-01-19T06:39:56	-0.5	88.5
102398	2025-01-19T06:49:56	-0.5	87.5
102399	2025-01-19T06:59:56	-0.4	87.5
102400	2025-01-19T07:09:56	-0.2	87.5
102401	2025-01-19T07:19:56	-0.3	87.5
102402	2025-01-19T07:29:56	-0.1	86.5
102403	2025-01-19T07:39:56	-0.1	87.5
102404	2025-01-19T07:49:56	-0.1	87.5
102405	2025-01-19T07:59:56	-0.2	88.5
102406	2025-01-19T08:09:56	-0.4	89
102407	2025-01-19T08:19:56	-0.4	89.5
102408	2025-01-19T08:29:56	-0.1	90
102409	2025-01-19T08:39:56	0	90.5
102410	2025-01-19T08:49:56	0	90
102411	2025-01-19T08:59:56	0.1	89
102412	2025-01-19T09:09:56	0.2	89.5
102413	2025-01-19T09:19:56	0.3	89
102414	2025-01-19T09:29:56	0.4	89
102415	2025-01-19T09:39:56	0	88.5
102416	2025-01-19T09:49:56	0	89.5
102417	2025-01-19T09:59:56	-0.1	90.5
102418	2025-01-19T10:09:56	0	90.5
102419	2025-01-19T10:19:56	0.3	89.5
102420	2025-01-19T10:29:56	0.1	88.5
102421	2025-01-19T10:39:56	-0.1	89.5
102422	2025-01-19T10:49:56	0	89.5
102423	2025-01-19T10:59:56	0.1	90
102424	2025-01-19T11:09:56	-0.1	90
102425	2025-01-19T11:19:56	0.1	89.5
102426	2025-01-19T11:29:56	0	90.5
102427	2025-01-19T11:39:56	0	90
102428	2025-01-19T11:49:56	0	89.5
102429	2025-01-19T11:59:56	0	90
102430	2025-01-19T12:09:56	0.2	89
102431	2025-01-19T12:19:56	0.1	89
102432	2025-01-19T12:29:56	0	89.5
102433	2025-01-19T12:39:56	0	90.5
102434	2025-01-19T12:49:56	0	90.5
102435	2025-01-19T12:59:56	0	90
102436	2025-01-19T13:09:56	0	91
102437	2025-01-19T13:19:56	0	91
102438	2025-01-19T13:29:56	0	91
102439	2025-01-19T13:39:56	0.2	91
102440	2025-01-19T13:49:56	0	91.5
102441	2025-01-19T13:59:56	0.1	90.5
102442	2025-01-19T14:09:56	-0.1	91
102443	2025-01-19T14:19:56	0	91.5
102444	2025-01-19T14:29:56	-0.1	91.5
102445	2025-01-19T14:39:56	-0.1	91.5
102446	2025-01-19T14:49:56	-0.2	91.5
102447	2025-01-19T14:59:56	-0.1	92
102448	2025-01-19T15:09:56	-0.1	92.5
102449	2025-01-19T15:19:56	-0.1	92.5
102450	2025-01-19T15:29:56	-0.1	93
102451	2025-01-19T15:39:56	0	92
102452	2025-01-19T15:49:56	-0.2	92
102453	2025-01-19T15:59:56	-0.2	93
102454	2025-01-19T16:09:56	-0.2	92.5
102455	2025-01-19T16:19:56	-0.3	94
102456	2025-01-19T16:29:56	-0.2	93
102457	2025-01-19T16:39:56	0	93.5
102458	2025-01-19T16:49:56	-0.1	93
102459	2025-01-19T16:59:56	-0.1	92.5
102460	2025-01-19T17:09:56	0	92.5
102461	2025-01-19T17:19:56	0	92
102462	2025-01-19T17:29:56	-0.1	92.5
102463	2025-01-19T17:39:56	0	92
102464	2025-01-19T17:50:14	-0.1	92
102465	2025-01-19T17:59:56	-0.1	92.5
102466	2025-01-19T18:09:56	-0.1	92.5
102467	2025-01-19T18:19:56	-0.1	92.5
102468	2025-01-19T18:29:56	-0.1	92.5
102469	2025-01-19T18:39:56	-0.1	92
102470	2025-01-19T18:49:56	0	92
102471	2025-01-19T18:59:56	0	92.5
102472	2025-01-19T19:09:56	-0.1	93
102473	2025-01-19T19:19:56	0	93
102474	2025-01-19T19:29:56	0	92.5
102475	2025-01-19T19:39:56	0	92
102476	2025-01-19T19:49:56	0	91.5
102477	2025-01-19T19:59:56	0	91.5
102478	2025-01-19T20:09:56	0	91.5
102479	2025-01-19T20:19:56	0	91.5
102480	2025-01-19T20:29:56	0	91
102481	2025-01-19T20:39:56	0.1	91
102482	2025-01-19T20:49:56	0.2	91.5
102483	2025-01-19T20:59:56	0	92
102484	2025-01-19T21:09:56	0.2	91.5
102485	2025-01-19T21:19:56	0.3	90.5
102486	2025-01-19T21:29:56	0.5	90.5
102487	2025-01-19T21:39:56	0.5	89.5
102488	2025-01-19T21:49:56	0.6	89.5
102489	2025-01-19T21:59:56	0.6	90
102490	2025-01-19T22:09:56	0.6	90
102491	2025-01-19T22:19:56	0.5	89.5
102492	2025-01-19T22:29:56	0.6	89.5
102493	2025-01-19T22:39:56	0.4	90
102494	2025-01-19T22:49:56	0.6	90.5
102495	2025-01-19T22:59:56	0.6	90.5
102496	2025-01-19T23:09:56	0.5	90.5
102497	2025-01-19T23:19:56	0.4	90.5
102498	2025-01-19T23:29:56	0.7	91
102499	2025-01-19T23:39:56	0.9	90
102500	2025-01-19T23:49:56	0.7	90.5
102501	2025-01-19T23:59:56	0.9	90.5
102502	2025-01-20T00:09:56	0.7	89.5
102503	2025-01-20T00:19:56	0.6	90
102504	2025-01-20T00:29:56	0.8	90.5
102505	2025-01-20T00:39:56	0.7	91
102506	2025-01-20T00:49:56	0.7	91
102507	2025-01-20T00:59:56	0.5	92
102508	2025-01-20T01:09:56	0.5	92
102509	2025-01-20T01:19:56	0.6	92.5
102510	2025-01-20T01:29:56	0.6	92.5
102511	2025-01-20T01:39:56	0.6	91.5
102512	2025-01-20T01:49:56	0.5	91.5
102513	2025-01-20T01:59:56	0.7	91.5
102514	2025-01-20T02:09:56	0.6	91.5
102515	2025-01-20T02:19:56	0.5	92
102516	2025-01-20T02:29:56	0.5	92
102517	2025-01-20T02:39:56	0.5	92
102518	2025-01-20T02:49:56	0.4	92
102519	2025-01-20T02:59:56	0.4	92
102520	2025-01-20T03:09:56	0.5	91.5
102521	2025-01-20T03:19:56	0.7	91
102522	2025-01-20T03:29:56	0.7	91
102523	2025-01-20T03:39:56	0.9	91.5
102524	2025-01-20T03:49:56	0.9	90.5
102525	2025-01-20T03:59:56	0.8	91
102526	2025-01-20T04:09:56	0.8	91.5
102527	2025-01-20T04:19:56	0.7	91
102528	2025-01-20T04:29:56	0.9	91.5
102529	2025-01-20T04:39:56	0.8	92
102530	2025-01-20T04:49:56	0.8	92
102531	2025-01-20T04:59:56	0.9	92
102532	2025-01-20T05:09:56	1	91
102533	2025-01-20T05:19:56	1	91.5
102534	2025-01-20T05:29:56	1	89.5
102535	2025-01-20T05:39:56	0.9	90
102536	2025-01-20T05:49:56	1.1	90
102537	2025-01-20T05:59:56	1	88
102538	2025-01-20T06:09:56	0.8	88
102539	2025-01-20T06:19:56	0.9	89
102540	2025-01-20T06:29:56	1	88.5
102541	2025-01-20T06:39:56	0.8	88.5
102542	2025-01-20T06:49:56	0.8	88.5
102543	2025-01-20T06:59:56	0.8	89
102544	2025-01-20T07:09:56	0.8	89.5
102545	2025-01-20T07:19:56	0.8	89.5
102546	2025-01-20T07:29:56	0.9	89.5
102547	2025-01-20T07:39:56	0.9	89
102548	2025-01-20T07:49:56	1.1	89
102549	2025-01-20T07:59:56	1.1	88.5
102550	2025-01-20T08:09:56	1.1	88
102551	2025-01-20T08:19:56	1.2	88.5
102552	2025-01-20T08:29:56	1.2	88
102553	2025-01-20T08:39:56	1.2	89
102554	2025-01-20T08:49:56	1.2	88
102555	2025-01-20T08:59:56	1.3	88.5
102556	2025-01-20T09:09:56	1.3	88.5
102557	2025-01-20T09:19:56	1.4	88.5
102558	2025-01-20T09:29:56	1.5	88.5
102559	2025-01-20T09:39:56	1.4	88
102560	2025-01-20T09:49:56	1.4	87
102561	2025-01-20T09:59:56	1.6	88.5
102562	2025-01-20T10:09:56	1.7	87
102563	2025-01-20T10:19:56	1.8	87
102564	2025-01-20T10:29:56	1.7	85
102565	2025-01-20T10:39:56	1.8	85
102566	2025-01-20T10:49:56	1.8	85
102567	2025-01-20T10:59:56	1.8	85
102568	2025-01-20T11:09:56	2.3	84
102569	2025-01-20T11:19:56	2.5	86
102570	2025-01-20T11:29:56	2.9	86
102571	2025-01-20T11:39:56	2.9	82
102572	2025-01-20T11:49:56	2.8	83.5
102573	2025-01-20T11:59:56	3	84
102574	2025-01-20T12:09:56	2.8	82.5
102575	2025-01-20T12:19:56	2.9	83.5
102576	2025-01-20T12:29:56	2.8	82.5
102577	2025-01-20T12:39:56	2.8	84
102578	2025-01-20T12:49:56	2.7	84.5
102579	2025-01-20T12:59:56	2.9	82
102580	2025-01-20T13:09:56	3.1	82
102581	2025-01-20T13:19:56	3.2	82
102582	2025-01-20T13:29:56	3.4	81.5
102583	2025-01-20T13:39:56	3.5	83
102584	2025-01-20T13:49:56	3.7	82
102585	2025-01-20T13:59:56	3.9	83.5
102586	2025-01-20T14:09:56	3.9	83.5
102587	2025-01-20T14:19:56	3.7	82
102588	2025-01-20T14:29:56	3.6	83.5
102589	2025-01-20T14:39:56	3.5	84
102590	2025-01-20T14:49:56	3.5	85
102591	2025-01-20T14:59:56	3.4	84.5
102592	2025-01-20T15:09:55	3.4	83.5
102593	2025-01-20T15:19:56	3.3	84
102594	2025-01-20T15:29:55	3.4	85
102595	2025-01-20T15:39:55	3.2	84.5
102596	2025-01-20T15:50:16	3	84.5
102597	2025-01-20T15:59:55	2.7	85.5
102598	2025-01-20T16:09:55	2.4	84.5
102599	2025-01-20T16:19:55	2.1	86
102600	2025-01-20T16:29:55	1.8	86.5
102601	2025-01-20T16:39:55	1.8	87.5
102602	2025-01-20T16:49:55	1.6	88
102603	2025-01-20T16:59:55	1.5	87
102604	2025-01-20T17:09:55	1.6	88.5
102605	2025-01-20T17:19:55	1.7	88.5
102606	2025-01-20T17:29:55	1.8	88
102607	2025-01-20T17:39:55	1.9	88.5
102608	2025-01-20T17:49:56	1.9	88.5
102609	2025-01-20T17:59:55	1.9	87.5
102610	2025-01-20T18:09:55	1.9	88
102611	2025-01-20T18:19:55	1.8	87.5
102612	2025-01-20T18:29:55	1.9	88.5
102613	2025-01-20T18:39:55	1.8	87.5
102614	2025-01-20T18:49:55	1.9	87.5
102615	2025-01-20T18:59:55	1.8	88
102616	2025-01-20T19:09:55	1.8	88.5
102617	2025-01-20T19:19:55	1.9	88.5
102618	2025-01-20T19:29:55	1.9	88
102619	2025-01-20T19:39:55	1.9	87.5
102620	2025-01-20T19:49:55	1.8	88.5
102621	2025-01-20T19:59:55	2	89
102622	2025-01-20T20:09:55	1.8	87
102623	2025-01-20T20:19:55	1.8	88
102624	2025-01-20T20:29:55	1.8	86.5
102625	2025-01-20T20:39:55	1.8	88
102626	2025-01-20T20:49:56	1.8	88.5
102627	2025-01-20T20:59:55	1.7	89
102628	2025-01-20T21:09:56	1.7	88.5
102629	2025-01-20T21:19:55	1.8	89
102630	2025-01-20T21:29:55	1.8	89
102631	2025-01-20T21:39:55	1.8	89.5
102632	2025-01-20T21:49:55	1.8	89.5
102633	2025-01-20T21:59:55	1.9	89.5
102634	2025-01-20T22:09:55	1.9	89
102635	2025-01-20T22:19:55	1.9	89
102636	2025-01-20T22:29:55	1.8	88.5
102637	2025-01-20T22:39:55	1.7	89
102638	2025-01-20T22:49:55	1.7	87.5
102639	2025-01-20T22:59:55	1.5	86
102640	2025-01-20T23:09:55	1.7	87
102641	2025-01-20T23:19:55	1.6	87
102642	2025-01-20T23:29:55	1.7	87
102643	2025-01-20T23:39:55	1.4	87
102644	2025-01-20T23:49:55	1.5	88
102645	2025-01-20T23:59:55	1.3	86.5
102646	2025-01-21T00:09:55	1.2	88
102647	2025-01-21T00:19:55	1.1	88
102648	2025-01-21T00:29:55	1.2	87.5
102649	2025-01-21T00:39:55	1.3	88
102650	2025-01-21T00:49:55	1.4	87.5
102651	2025-01-21T00:59:55	1.3	86
102652	2025-01-21T01:09:55	1	87
102653	2025-01-21T01:19:55	1.1	89
102654	2025-01-21T01:29:55	0.9	87.5
102655	2025-01-21T01:39:55	1.1	89.5
102656	2025-01-21T01:49:55	0.9	88
102657	2025-01-21T01:59:55	1	89.5
102658	2025-01-21T02:09:55	1	91
102659	2025-01-21T02:19:55	1.1	92
102660	2025-01-21T02:29:55	1.1	92.5
102661	2025-01-21T02:39:55	1.2	92
102662	2025-01-21T02:49:55	1.2	91.5
102663	2025-01-21T02:59:55	1	90.5
102664	2025-01-21T03:09:55	1.1	90.5
102665	2025-01-21T03:19:55	1	89.5
102666	2025-01-21T03:29:55	1.1	91
102667	2025-01-21T03:39:55	1.1	91.5
102668	2025-01-21T03:49:55	1	91
102669	2025-01-21T03:59:55	1.1	89
102670	2025-01-21T04:09:55	1.1	90.5
102671	2025-01-21T04:19:55	1.1	91.5
102672	2025-01-21T04:29:55	1	89.5
102673	2025-01-21T04:39:55	0.9	89.5
102674	2025-01-21T04:49:55	0.4	90
102675	2025-01-21T04:59:55	0.4	89.5
102676	2025-01-21T05:09:55	0.7	89.5
102677	2025-01-21T05:19:55	0.7	89.5
102678	2025-01-21T05:29:55	0.4	88
102679	2025-01-21T05:39:55	0.4	90
102680	2025-01-21T05:49:55	0.2	89.5
102681	2025-01-21T05:59:55	0.4	89.5
102682	2025-01-21T06:09:55	0.4	89
102683	2025-01-21T06:19:55	0.5	90.5
102684	2025-01-21T06:29:55	0.7	90.5
102685	2025-01-21T06:39:55	0.7	90.5
102686	2025-01-21T06:49:55	0.8	90.5
102687	2025-01-21T06:59:55	0.9	91
102688	2025-01-21T07:09:55	0.8	89
102689	2025-01-21T07:19:55	0.6	87
102690	2025-01-21T07:29:55	0.6	88
102691	2025-01-21T07:39:55	0.7	88.5
102692	2025-01-21T07:49:55	0.8	89
102693	2025-01-21T07:59:55	0.9	88
102694	2025-01-21T08:09:55	0.9	89
102695	2025-01-21T08:19:55	1	88
102696	2025-01-21T08:29:55	1	88
102697	2025-01-21T08:39:55	1.1	88
102698	2025-01-21T08:49:55	1.2	89
102699	2025-01-21T08:59:55	1.2	88
102700	2025-01-21T09:09:55	1.2	86.5
102701	2025-01-21T09:19:55	1.2	87.5
102702	2025-01-21T09:29:55	1.5	87.5
102703	2025-01-21T09:39:55	0.9	84.5
102704	2025-01-21T09:49:55	0.7	85
102705	2025-01-21T09:59:55	1.1	85.5
102706	2025-01-21T10:09:55	1.2	86
102707	2025-01-21T10:19:55	1.3	85
102708	2025-01-21T10:29:55	1.5	85.5
102709	2025-01-21T10:39:55	1.7	85.5
102710	2025-01-21T10:49:55	1.9	86.5
102711	2025-01-21T10:59:55	2.1	84
102712	2025-01-21T11:09:55	2	83
102713	2025-01-21T11:19:55	2	83
102714	2025-01-21T11:29:55	2.1	84.5
102715	2025-01-21T11:39:55	2.4	85
102716	2025-01-21T11:49:55	2.3	84
102717	2025-01-21T11:59:55	2.4	84.5
102718	2025-01-21T12:09:55	2.4	84.5
102719	2025-01-21T12:19:55	2.6	84.5
102720	2025-01-21T12:29:55	2.8	84.5
102721	2025-01-21T12:39:55	2.8	84
102722	2025-01-21T12:49:55	2.8	83
102723	2025-01-21T12:59:55	2.9	83.5
102724	2025-01-21T13:09:55	2.9	82.5
102725	2025-01-21T13:19:55	2.9	83
102726	2025-01-21T13:29:55	2.9	81.5
102727	2025-01-21T13:39:55	3.1	83
102728	2025-01-21T13:49:55	2.9	83.5
102729	2025-01-21T13:59:55	3	83
102730	2025-01-21T14:09:55	2.9	82
102731	2025-01-21T14:19:55	2.7	82.5
102732	2025-01-21T14:29:55	2.6	83.5
102733	2025-01-21T14:39:55	2.7	83.5
102734	2025-01-21T14:49:55	2.7	83.5
102735	2025-01-21T14:59:55	2.6	84
102736	2025-01-21T15:09:55	2.4	84
102737	2025-01-21T15:20:16	2.4	84.5
102738	2025-01-21T15:29:55	2.4	85.5
102739	2025-01-21T15:49:55	2.2	84.5
102740	2025-01-21T15:59:55	2.3	86
102741	2025-01-21T16:09:55	2.1	85
102742	2025-01-21T16:19:55	2.1	85.5
102743	2025-01-21T16:29:55	2.1	87
102744	2025-01-21T16:39:55	2	86
102745	2025-01-21T16:49:55	2	85.5
102746	2025-01-21T16:59:55	1.8	86
102747	2025-01-21T17:09:55	1.8	86.5
102748	2025-01-21T17:19:55	1.7	87
102749	2025-01-21T17:29:55	1.9	87.5
102750	2025-01-21T17:39:55	1.8	87
102751	2025-01-21T17:49:55	1.6	86
102752	2025-01-21T17:59:55	1.4	85.5
102753	2025-01-21T18:09:55	1.5	86.5
102754	2025-01-21T18:19:55	1.4	86
102755	2025-01-21T18:29:55	1.5	87
102756	2025-01-21T18:39:55	1.5	86
102757	2025-01-21T18:49:55	1.6	87.5
102758	2025-01-21T18:59:55	1.5	87
102759	2025-01-21T19:09:55	1.4	87
102760	2025-01-21T19:19:55	1.5	86
102761	2025-01-21T19:29:55	1.3	86.5
102762	2025-01-21T19:39:55	1.4	87
102763	2025-01-21T19:49:55	1.3	87
102764	2025-01-21T19:59:55	1	87
102765	2025-01-21T20:09:55	1.2	87.5
102766	2025-01-21T20:19:55	1.4	87.5
102767	2025-01-21T20:29:55	1.5	88
102768	2025-01-21T20:39:55	1.4	87.5
102769	2025-01-21T20:49:55	1.3	87.5
102770	2025-01-21T20:59:55	1.3	87
102771	2025-01-21T21:09:55	1.3	87.5
102772	2025-01-21T21:19:55	1.3	87
102773	2025-01-21T21:29:55	1.3	88
102774	2025-01-21T21:39:55	1.3	87.5
102775	2025-01-21T21:49:55	1.4	87.5
102776	2025-01-21T21:59:55	1.3	88.5
102777	2025-01-21T22:09:55	1.3	86.5
102778	2025-01-21T22:19:55	1.2	87
102779	2025-01-21T22:29:55	1.3	87.5
102780	2025-01-21T22:39:55	1.1	86
102781	2025-01-21T22:49:55	1.2	87.5
102782	2025-01-21T22:59:55	1.2	86.5
102783	2025-01-21T23:09:55	1.2	85.5
102784	2025-01-21T23:19:55	1.3	87.5
102785	2025-01-21T23:29:55	1.3	86
102786	2025-01-21T23:39:55	1.2	86.5
102787	2025-01-21T23:49:55	1.2	86.5
102788	2025-01-21T23:59:55	1.1	87
102789	2025-01-22T00:09:55	1.2	87
102790	2025-01-22T00:19:55	1.2	86.5
102791	2025-01-22T00:29:55	1.1	86.5
102792	2025-01-22T00:39:55	1.1	86.5
102793	2025-01-22T00:49:55	1.2	86.5
102794	2025-01-22T00:59:55	1.1	87
102795	2025-01-22T01:09:55	1.2	86.5
102796	2025-01-22T01:19:55	1.2	85
102797	2025-01-22T01:29:55	1	85.5
102798	2025-01-22T01:39:55	1.1	87
102799	2025-01-22T01:49:55	1	85.5
102800	2025-01-22T01:59:55	1	86
102801	2025-01-22T02:09:55	1	86.5
102802	2025-01-22T02:19:55	0.9	86
102803	2025-01-22T02:29:55	0.9	87
102804	2025-01-22T02:39:55	0.6	87
102805	2025-01-22T02:49:55	0.8	89
102806	2025-01-22T02:59:55	0.8	88.5
102807	2025-01-22T03:09:55	0.8	86.5
102808	2025-01-22T03:19:55	0.4	85.5
102809	2025-01-22T03:29:55	0.7	86.5
102810	2025-01-22T03:39:55	0.7	87.5
102811	2025-01-22T03:49:55	0.7	87.5
102812	2025-01-22T03:59:55	0.7	87
102813	2025-01-22T04:09:55	0.8	87.5
102814	2025-01-22T04:19:55	0.8	88.5
102815	2025-01-22T04:29:55	0.8	88.5
102816	2025-01-22T04:39:55	0.8	87
102817	2025-01-22T04:49:55	0.7	86.5
102818	2025-01-22T04:59:55	0.6	86.5
102819	2025-01-22T05:09:55	0.6	86
102820	2025-01-22T05:19:55	0.6	87
102821	2025-01-22T05:29:55	0.7	87
102822	2025-01-22T05:39:55	0.4	85.5
102823	2025-01-22T05:49:55	0.3	86.5
102824	2025-01-22T05:59:55	0.1	86
102825	2025-01-22T06:09:55	0.3	88
102826	2025-01-22T06:19:55	0.1	86.5
102827	2025-01-22T06:29:55	0	86.5
102828	2025-01-22T06:39:55	0.1	88
102829	2025-01-22T06:49:55	0.1	87.5
102830	2025-01-22T06:59:55	0	86.5
102831	2025-01-22T07:09:55	0	87
102832	2025-01-22T07:19:55	0.1	87
102833	2025-01-22T07:29:55	0.3	87
102834	2025-01-22T07:39:55	0	85.5
102835	2025-01-22T07:49:55	0	85.5
102836	2025-01-22T07:59:55	-0.2	86.5
102837	2025-01-22T08:09:55	0	86.5
102838	2025-01-22T08:19:55	0.1	87
102839	2025-01-22T08:29:55	0	87
102840	2025-01-22T08:39:55	0.2	87.5
102841	2025-01-22T08:49:55	0.1	86
102842	2025-01-22T08:59:55	-0.2	87.5
102843	2025-01-22T09:09:55	-0.1	87.5
102844	2025-01-22T09:19:55	0.1	88
102845	2025-01-22T09:29:55	0.6	88
102846	2025-01-22T09:39:55	1	86.5
102847	2025-01-22T09:49:55	1	87
102848	2025-01-22T09:59:55	1.3	87
102849	2025-01-22T10:09:55	1.2	86.5
102850	2025-01-22T10:19:55	1.5	86.5
102851	2025-01-22T10:29:55	1.8	84
102852	2025-01-22T10:39:55	1.7	84
102853	2025-01-22T10:49:55	1.7	85.5
102854	2025-01-22T10:59:55	1.7	85.5
102855	2025-01-22T11:09:55	2	85
102856	2025-01-22T11:19:55	2.2	84
102857	2025-01-22T11:29:55	2.3	84
102858	2025-01-22T11:39:55	2.5	82
102859	2025-01-22T11:49:55	2.5	83
102860	2025-01-22T11:59:55	2.7	81.5
102861	2025-01-22T12:09:55	2.7	81.5
102862	2025-01-22T12:19:55	2.7	82.5
102863	2025-01-22T12:29:56	2.7	82.5
102864	2025-01-22T12:39:55	2.9	83
102865	2025-01-22T12:49:55	3.2	83
102866	2025-01-22T12:59:55	3.2	82
102867	2025-01-22T13:09:55	3.2	82
102868	2025-01-22T13:19:55	3.2	84
102869	2025-01-22T13:29:55	3.1	84
102870	2025-01-22T13:39:55	3.1	83
102871	2025-01-22T13:49:55	3.4	83.5
102872	2025-01-22T13:59:55	3.3	83.5
102873	2025-01-22T14:09:55	3.4	83
102874	2025-01-22T14:19:55	3.4	84
102875	2025-01-22T14:29:55	3.4	84
102876	2025-01-22T14:39:55	3.3	84
102877	2025-01-22T14:49:55	3.5	85
102878	2025-01-22T14:59:55	3.6	86
102879	2025-01-22T15:09:55	3.6	86
102880	2025-01-22T15:19:55	3.6	86
102881	2025-01-22T15:29:55	3.5	83.5
102882	2025-01-22T15:39:55	3.5	84.5
102883	2025-01-22T15:49:55	3.4	84
102884	2025-01-22T15:59:55	3.3	84
102885	2025-01-22T16:09:55	3.2	84
102886	2025-01-22T16:19:55	3.2	84
102887	2025-01-22T16:29:55	3.2	84.5
102888	2025-01-22T16:39:55	3.3	85.5
102889	2025-01-22T16:49:55	3.3	87
102890	2025-01-22T16:59:55	3.2	86
102891	2025-01-22T17:09:55	3.3	87
102892	2025-01-22T17:19:55	3.3	87
102893	2025-01-22T17:29:55	3.2	87.5
102894	2025-01-22T17:39:55	3.1	86
102895	2025-01-22T17:49:55	2.9	87.5
102896	2025-01-22T17:59:55	2.9	87.5
102897	2025-01-22T18:09:55	2.9	87.5
102898	2025-01-22T18:19:55	2.8	86.5
102899	2025-01-22T18:29:55	2.7	86
102900	2025-01-22T18:39:55	2.6	88
102901	2025-01-22T18:49:55	2.6	88.5
102902	2025-01-22T18:59:55	2.6	88.5
102903	2025-01-22T19:09:55	2.4	88.5
102904	2025-01-22T19:19:55	2.4	89
102905	2025-01-22T19:29:55	2.3	89
102906	2025-01-22T19:39:55	2.1	86.5
102907	2025-01-22T19:49:55	2	88
102908	2025-01-22T19:59:55	1.9	88
102909	2025-01-22T20:09:55	1.9	89
102910	2025-01-22T20:19:55	1.9	88.5
102911	2025-01-22T20:29:55	1.9	89.5
102912	2025-01-22T20:39:55	1.9	90
102913	2025-01-22T20:49:55	1.7	90
102914	2025-01-22T20:59:55	1.7	90
102915	2025-01-22T21:09:55	1.7	90
102916	2025-01-22T21:19:55	1.7	90
102917	2025-01-22T21:29:55	1.7	88
102918	2025-01-22T21:39:55	1.6	87.5
102919	2025-01-22T21:49:55	1.5	87.5
102920	2025-01-22T21:59:55	1.6	89
102921	2025-01-22T22:09:55	1.6	89.5
102922	2025-01-22T22:19:55	1.6	90
102923	2025-01-22T22:29:55	1.6	89.5
102924	2025-01-22T22:39:55	1.7	89
102925	2025-01-22T22:49:55	1.9	89
102926	2025-01-22T22:59:55	1.9	88
102927	2025-01-22T23:09:55	2	89
102928	2025-01-22T23:19:55	2	89.5
102929	2025-01-22T23:29:55	2.2	89.5
102930	2025-01-22T23:39:55	2.2	89
102931	2025-01-22T23:49:55	2.2	89.5
102932	2025-01-22T23:59:55	2.3	90.5
102933	2025-01-23T00:09:55	2.3	91
102934	2025-01-23T00:19:55	2.4	92
102935	2025-01-23T00:29:55	2.5	93
102936	2025-01-23T00:39:55	2.4	95
102937	2025-01-23T00:49:55	2.5	96.5
102938	2025-01-23T00:59:55	2.5	95.5
102939	2025-01-23T01:09:55	2.6	94.5
102940	2025-01-23T01:19:55	2.6	94
102941	2025-01-23T01:29:55	2.7	94
102942	2025-01-23T01:39:55	2.7	94
102943	2025-01-23T01:49:55	2.9	95
102944	2025-01-23T01:59:55	2.9	95
102945	2025-01-23T02:09:55	2.9	94.5
102946	2025-01-23T02:19:55	2.9	94.5
102947	2025-01-23T02:29:55	3	94.5
102948	2025-01-23T02:39:55	3	94.5
102949	2025-01-23T02:49:55	3.2	94.5
102950	2025-01-23T02:59:55	3.2	94.5
102951	2025-01-23T03:09:55	3.4	94
102952	2025-01-23T03:19:55	3.3	94.5
102953	2025-01-23T03:29:55	3.4	94.5
102954	2025-01-23T03:39:55	3.4	94.5
102955	2025-01-23T03:49:55	3.6	95
102956	2025-01-23T03:59:55	3.6	95
102957	2025-01-23T04:09:55	3.7	95.5
102958	2025-01-23T04:19:55	3.8	96.5
102959	2025-01-23T04:29:55	3.7	96.5
102960	2025-01-23T04:39:55	3.7	98
102961	2025-01-23T04:49:55	3.8	98
102962	2025-01-23T04:59:55	3.9	97.5
102963	2025-01-23T05:09:55	4.1	98
102964	2025-01-23T05:19:55	4	99.5
102965	2025-01-23T05:29:55	4.3	100
102966	2025-01-23T05:39:55	5.4	100
102967	2025-01-23T05:49:55	5.9	100
102968	2025-01-23T05:59:55	6.2	100
102969	2025-01-23T06:09:55	6.2	100
102970	2025-01-23T06:19:55	6.1	100
102971	2025-01-23T06:29:55	6	100
102972	2025-01-23T06:39:55	6	100
102973	2025-01-23T06:49:55	6	100
102974	2025-01-23T06:59:55	6	100
102975	2025-01-23T07:09:55	5.9	100
102976	2025-01-23T07:19:55	5.8	100
102977	2025-01-23T07:29:55	5.8	100
102978	2025-01-23T07:39:55	5.7	100
102979	2025-01-23T07:49:55	5.6	100
102980	2025-01-23T07:59:55	5.6	100
102981	2025-01-23T08:09:55	5.5	100
102982	2025-01-23T08:19:55	5.4	100
102983	2025-01-23T08:29:55	5.4	100
102984	2025-01-23T08:39:55	5.3	100
102985	2025-01-23T08:49:55	5.2	100
102986	2025-01-23T08:59:55	5.2	100
102987	2025-01-23T09:09:55	5.2	100
102988	2025-01-23T09:19:55	5.3	100
102989	2025-01-23T09:29:55	5.2	100
102990	2025-01-23T09:39:55	5.3	100
102991	2025-01-23T09:49:55	5.3	100
102992	2025-01-23T09:59:55	5.4	100
102993	2025-01-23T10:09:55	5.5	100
102994	2025-01-23T10:19:55	5.6	100
102995	2025-01-23T10:29:55	5.7	100
102996	2025-01-23T10:39:55	5.6	100
102997	2025-01-23T10:49:55	5.9	100
102998	2025-01-23T10:59:55	6	100
102999	2025-01-23T11:09:55	6.1	100
103000	2025-01-23T11:19:55	6.2	100
103001	2025-01-23T11:29:55	6.2	100
103002	2025-01-23T11:39:55	6.2	100
103003	2025-01-23T11:49:55	6.4	100
103004	2025-01-23T11:59:55	6.4	100
103005	2025-01-23T12:09:55	6.6	100
103006	2025-01-23T12:19:55	6.7	95
103007	2025-01-23T12:29:55	6.6	87
103008	2025-01-23T12:39:55	6.5	83.5
103009	2025-01-23T12:49:55	6.5	83
103010	2025-01-23T12:59:55	6.4	83
103011	2025-01-23T13:09:55	6.5	83
103012	2025-01-23T13:19:55	6.7	82
103013	2025-01-23T13:29:55	7	81
103014	2025-01-23T13:39:55	6.9	81.5
103015	2025-01-23T13:49:55	7.1	79.5
103016	2025-01-23T13:59:55	7.2	80.5
103017	2025-01-23T14:09:55	7.1	80
103018	2025-01-23T14:19:55	7	79.5
103019	2025-01-23T14:29:55	7.1	81.5
103020	2025-01-23T14:39:55	6.9	81.5
103021	2025-01-23T14:49:55	6.9	81.5
103022	2025-01-23T14:59:55	6.9	81.5
103023	2025-01-23T15:09:55	6.8	82
103024	2025-01-23T15:19:55	7	82
103025	2025-01-23T15:29:55	6.9	83
103026	2025-01-23T15:39:55	7	84.5
103027	2025-01-23T15:49:55	6.8	82
103028	2025-01-23T15:59:55	6.8	81
103029	2025-01-23T16:09:55	6.7	81.5
103030	2025-01-23T16:19:55	6.6	80
103031	2025-01-23T16:29:55	6.6	80
103032	2025-01-23T16:39:55	6.7	80.5
103033	2025-01-23T16:49:55	6.6	81
103034	2025-01-23T16:59:55	6.4	82
103035	2025-01-23T17:09:55	6.2	81
103036	2025-01-23T17:19:55	6.1	81
103037	2025-01-23T17:29:55	6.1	81
103038	2025-01-23T17:39:55	6	80
103039	2025-01-23T17:49:55	5.9	77.5
103040	2025-01-23T17:59:54	5.9	76.5
103041	2025-01-23T18:09:54	6	74
103042	2025-01-23T18:19:54	6.1	73
103043	2025-01-23T18:29:55	6.2	72.5
103044	2025-01-23T18:39:54	6.2	72
103045	2025-01-23T18:49:54	6.2	71.5
103046	2025-01-23T18:59:54	6.5	70.5
103047	2025-01-23T19:09:54	6.6	69.5
103048	2025-01-23T19:19:54	6.7	69.5
103049	2025-01-23T19:29:54	6.8	69
103050	2025-01-23T19:39:54	6.7	69
103051	2025-01-23T19:49:54	6.6	68.5
103052	2025-01-23T19:59:54	6.8	69
103053	2025-01-23T20:09:54	6.8	69
103054	2025-01-23T20:19:54	7	69.5
103055	2025-01-23T20:29:54	6.9	69.5
103056	2025-01-23T20:39:54	7.1	69
103057	2025-01-23T20:49:54	7	69
103058	2025-01-23T20:59:54	7.3	69
103059	2025-01-23T21:09:55	7.2	71
103060	2025-01-23T21:19:54	7.1	72
103061	2025-01-23T21:29:54	7.2	72.5
103062	2025-01-23T21:39:54	7.1	72.5
103063	2025-01-23T21:49:54	7.1	72.5
103064	2025-01-23T21:59:54	7	72.5
103065	2025-01-23T22:09:54	7.1	72
103066	2025-01-23T22:19:54	7.2	70.5
103067	2025-01-23T22:29:54	7.2	70
103068	2025-01-23T22:39:54	7.3	69.5
103069	2025-01-23T22:49:54	7.4	69.5
103070	2025-01-23T22:59:54	7.4	70.5
103071	2025-01-23T23:09:54	7.4	69.5
103072	2025-01-23T23:19:54	7.6	69.5
103073	2025-01-23T23:29:54	7.6	69.5
103074	2025-01-23T23:39:54	7.5	69.5
103075	2025-01-23T23:49:54	7.7	68.5
103076	2025-01-23T23:59:54	7.7	68
103077	2025-01-24T00:09:54	7.8	67.5
103078	2025-01-24T00:19:54	7.8	68.5
103079	2025-01-24T00:29:54	7.8	69
103080	2025-01-24T00:39:54	7.7	70.5
103081	2025-01-24T00:49:54	7.6	71
103082	2025-01-24T00:59:54	7.6	71
103083	2025-01-24T01:09:54	7.5	71
103084	2025-01-24T01:19:54	7.6	71
103085	2025-01-24T01:29:54	7.6	71
103086	2025-01-24T01:39:54	7.7	71.5
103087	2025-01-24T01:49:54	7.6	72
103088	2025-01-24T01:59:54	7.7	73
103089	2025-01-24T02:10:14	7.8	72.5
103090	2025-01-24T02:19:54	7.8	73
103091	2025-01-24T02:29:54	8	73
103092	2025-01-24T02:39:54	8	73.5
103093	2025-01-24T02:49:54	8.1	73.5
103094	2025-01-24T02:59:54	8.1	73.5
103095	2025-01-24T03:09:54	8.1	72.5
103096	2025-01-24T03:19:54	8.1	72
103097	2025-01-24T03:29:54	8.2	72
103098	2025-01-24T03:39:54	8.2	71.5
103099	2025-01-24T03:49:54	8.3	72
103100	2025-01-24T03:59:54	8.3	71.5
103101	2025-01-24T04:09:54	8.4	72
103102	2025-01-24T04:19:54	8.4	71.5
103103	2025-01-24T04:29:54	8.5	71.5
103104	2025-01-24T04:39:54	8.3	72
103105	2025-01-24T04:49:54	8.3	72
103106	2025-01-24T04:59:54	8.3	72.5
103107	2025-01-24T05:09:54	8.4	72
103108	2025-01-24T05:19:54	8.4	72
103109	2025-01-24T05:29:54	8.5	71.5
103110	2025-01-24T05:39:54	8.5	71.5
103111	2025-01-24T05:49:54	8.5	71.5
103112	2025-01-24T05:59:54	8.5	71
103113	2025-01-24T06:09:54	8.6	70.5
103114	2025-01-24T06:19:54	8.5	71
103115	2025-01-24T06:29:54	8.5	71
103116	2025-01-24T06:39:54	8.5	71
103117	2025-01-24T06:49:54	8.5	71.5
103118	2025-01-24T06:59:54	8.5	72
103119	2025-01-24T07:09:54	8.4	75.5
103120	2025-01-24T07:19:54	8.3	73
103121	2025-01-24T07:29:54	8.3	74.5
103122	2025-01-24T07:39:54	8.3	78.5
103123	2025-01-24T07:49:54	8.2	80
103124	2025-01-24T07:59:54	8.1	80.5
103125	2025-01-24T08:09:54	8.2	81.5
103126	2025-01-24T08:19:54	8.1	82
103127	2025-01-24T08:29:54	8.2	82.5
103128	2025-01-24T08:39:54	8.4	82.5
103129	2025-01-24T08:49:54	8.6	80
103130	2025-01-24T08:59:54	8.6	78
103131	2025-01-24T09:09:54	8.6	79
103132	2025-01-24T09:19:54	8.7	80.5
103133	2025-01-24T09:29:54	8.7	81
103134	2025-01-24T09:39:54	8.8	81
103135	2025-01-24T09:49:54	9.1	78
103136	2025-01-24T09:59:54	9.2	77
103137	2025-01-24T10:10:13	9.3	75
103138	2025-01-24T10:19:54	9.6	78
103139	2025-01-24T10:29:54	9.7	75.5
103140	2025-01-24T10:39:54	9.8	70.5
103141	2025-01-24T10:49:54	10	65.5
103142	2025-01-24T10:59:54	10.2	66.5
103143	2025-01-24T11:09:54	10.5	64
103144	2025-01-24T11:19:54	10.6	61.5
103145	2025-01-24T11:29:54	10.9	60
103146	2025-01-24T11:39:54	11.1	58
103147	2025-01-24T11:49:54	11.3	52.5
103148	2025-01-24T11:59:54	11.5	52.5
103149	2025-01-24T12:09:54	11.5	52
103150	2025-01-24T12:19:54	11.6	52.5
103151	2025-01-24T12:29:54	11.6	55
103152	2025-01-24T12:39:54	11.6	53
103153	2025-01-24T12:49:54	11.6	53.5
103154	2025-01-24T12:59:54	11.7	52
103155	2025-01-24T13:09:54	11.9	59.5
103156	2025-01-24T13:19:54	12	62.5
103157	2025-01-24T13:29:54	12	62
103158	2025-01-24T13:39:54	12	64.5
103159	2025-01-24T13:49:54	12	65
103160	2025-01-24T13:59:54	12	64.5
103161	2025-01-24T14:09:54	12.1	66.5
103162	2025-01-24T14:19:54	12.2	64
103163	2025-01-24T14:29:54	12.1	65
103164	2025-01-24T14:39:54	12.1	62
103165	2025-01-24T14:49:54	12.1	62.5
103166	2025-01-24T14:59:53	12	62.5
103167	2025-01-24T15:09:53	12	63.5
103168	2025-01-24T15:19:53	11.9	62.5
103169	2025-01-24T15:29:53	11.8	64.5
103170	2025-01-24T15:39:53	11.6	64
103171	2025-01-24T15:49:53	11.5	66.5
103172	2025-01-24T15:59:53	11.4	63.5
103173	2025-01-24T16:09:53	11.3	66.5
103174	2025-01-24T16:19:53	11.1	68.5
103175	2025-01-24T16:29:53	11	70.5
103176	2025-01-24T16:39:53	10.9	72.5
103177	2025-01-24T16:49:53	10.9	74
103178	2025-01-24T16:59:53	10.8	73
103179	2025-01-24T17:09:53	10.8	74.5
103180	2025-01-24T17:19:53	10.7	74.5
103181	2025-01-24T17:29:53	10.6	73.5
103182	2025-01-24T17:39:53	10.6	72
103183	2025-01-24T17:49:53	10.5	71
103184	2025-01-24T17:59:53	10.4	66
103185	2025-01-24T18:09:53	10.5	57
103186	2025-01-24T18:19:53	11.2	53.5
103187	2025-01-24T18:29:53	11.9	51
103188	2025-01-24T18:39:53	12.2	49.5
103189	2025-01-24T18:49:53	12.3	49
103190	2025-01-24T18:59:53	12.4	50
103191	2025-01-24T19:09:53	12.6	49.5
103192	2025-01-24T19:19:53	12.8	50.5
103193	2025-01-24T19:29:53	13.1	52
103194	2025-01-24T19:39:53	13.2	53
103195	2025-01-24T19:49:53	13.3	55
103196	2025-01-24T19:59:53	13.3	56
103197	2025-01-24T20:09:53	13.6	56.5
103198	2025-01-24T20:19:53	13.9	55.5
103199	2025-01-24T20:29:53	14.1	56.5
103200	2025-01-24T20:39:53	14.3	56.5
103201	2025-01-24T20:49:53	14.6	55
103202	2025-01-24T20:59:53	14.5	54
103203	2025-01-24T21:09:53	14.4	53
103204	2025-01-24T21:19:53	14.4	52.5
103205	2025-01-24T21:29:53	14.3	53
103206	2025-01-24T21:39:53	14	54
103207	2025-01-24T21:49:53	13.8	53.5
103208	2025-01-24T21:59:53	13.7	60
103209	2025-01-24T22:09:53	13.4	56
103210	2025-01-24T22:19:53	13.1	63
103211	2025-01-24T22:29:53	12.7	66
103212	2025-01-24T22:39:53	12.5	68
103213	2025-01-24T22:49:53	12.3	68
103214	2025-01-24T22:59:53	12	69
103215	2025-01-24T23:09:53	11.8	70.5
103216	2025-01-24T23:19:53	11.7	72
103217	2025-01-24T23:29:53	11.6	71.5
103218	2025-01-24T23:39:53	11.5	72
103219	2025-01-24T23:49:53	11.6	71.5
103220	2025-01-24T23:59:53	11.6	73
103221	2025-01-25T00:09:53	11.4	70.5
103222	2025-01-25T00:19:53	11.3	73.5
103223	2025-01-25T00:29:53	11.2	73
103224	2025-01-25T00:39:53	11	73
103225	2025-01-25T00:49:53	10.9	74.5
103226	2025-01-25T00:59:53	10.8	74.5
103227	2025-01-25T01:09:53	10.9	75
103228	2025-01-25T01:19:53	10.7	76
103229	2025-01-25T01:29:53	10.6	74
103230	2025-01-25T01:39:53	10.5	72
103231	2025-01-25T01:49:53	10.5	75.5
103232	2025-01-25T01:59:53	10.5	73
103233	2025-01-25T02:09:53	10.5	76.5
103234	2025-01-25T02:19:53	10.5	75.5
103235	2025-01-25T02:29:53	10.4	76.5
103236	2025-01-25T02:39:53	10.5	77
103237	2025-01-25T02:49:53	10.3	77.5
103238	2025-01-25T02:59:53	10.2	77.5
103239	2025-01-25T03:09:53	10	75
103240	2025-01-25T03:19:53	9.9	75.5
103241	2025-01-25T03:29:53	10	76.5
103242	2025-01-25T03:39:53	9.7	77
103243	2025-01-25T03:49:53	9.9	78
103244	2025-01-25T03:59:53	9.8	78
103245	2025-01-25T04:09:53	9.9	79
103246	2025-01-25T04:19:53	9.6	77
103247	2025-01-25T04:29:53	9.5	77
103248	2025-01-25T04:39:53	9.4	79.5
103249	2025-01-25T04:49:53	9.3	76.5
103250	2025-01-25T04:59:53	9.4	79.5
103251	2025-01-25T05:09:53	9.3	79
103252	2025-01-25T05:19:53	9.2	80
103253	2025-01-25T05:29:53	9.2	80
103254	2025-01-25T05:39:53	9.2	81
103255	2025-01-25T05:49:53	9.2	78.5
103256	2025-01-25T05:59:53	9.3	80
103257	2025-01-25T06:09:53	9.2	80
103258	2025-01-25T06:19:53	9.2	81.5
103259	2025-01-25T06:29:53	9.2	81
103260	2025-01-25T06:39:53	9.1	80.5
103261	2025-01-25T06:49:53	9.1	78.5
103262	2025-01-25T06:59:53	9.2	80.5
103263	2025-01-25T07:09:53	9.1	81
103264	2025-01-25T07:19:53	9.2	80.5
103265	2025-01-25T07:29:53	9.1	78
103266	2025-01-25T07:39:53	9	78
103267	2025-01-25T07:49:53	9.1	80.5
103268	2025-01-25T07:59:53	9.2	81
103269	2025-01-25T08:09:53	9.2	80.5
103270	2025-01-25T08:19:53	9.3	79.5
103271	2025-01-25T08:29:52	9.5	79.5
103272	2025-01-25T08:39:52	9.6	79.5
103273	2025-01-25T08:49:52	9.7	80.5
103274	2025-01-25T08:59:52	9.8	79.5
103275	2025-01-25T09:09:52	10.1	79.5
103276	2025-01-25T09:19:52	10.2	79.5
103277	2025-01-25T09:29:52	10.3	75
103278	2025-01-25T09:39:52	10.6	70.5
103279	2025-01-25T09:49:52	11	69
103280	2025-01-25T09:59:52	11.4	70
103281	2025-01-25T10:09:52	11.7	70
103282	2025-01-25T10:19:52	12	71
103283	2025-01-25T10:29:52	13.2	63.5
103284	2025-01-25T10:39:52	14	61
103285	2025-01-25T10:49:52	14.2	60.5
103286	2025-01-25T10:59:52	14.6	59.5
103287	2025-01-25T11:09:52	15	57.5
103288	2025-01-25T11:19:52	15.2	57
103289	2025-01-25T11:29:52	15.9	55
103290	2025-01-25T11:39:52	16.3	54
103291	2025-01-25T11:49:52	16.8	53
103292	2025-01-25T11:59:52	17.2	52.5
103293	2025-01-25T12:09:52	17.3	53
103294	2025-01-25T12:19:52	17.6	52
103295	2025-01-25T12:29:52	18.4	50.5
103296	2025-01-25T12:39:52	19	49.5
103297	2025-01-25T12:49:52	18.6	50.5
103298	2025-01-25T12:59:52	19.7	48.5
103299	2025-01-25T13:09:52	20.4	48
103300	2025-01-25T13:19:52	20.8	47
103301	2025-01-25T13:29:52	20.6	47
103302	2025-01-25T13:39:52	19.8	48.5
103303	2025-01-25T13:49:52	19.1	50.5
103304	2025-01-25T13:59:52	18.6	52.5
103305	2025-01-25T14:09:52	18.3	53.5
103306	2025-01-25T14:19:52	18.2	53.5
103307	2025-01-25T14:29:52	17.9	54
103308	2025-01-25T14:39:52	17.8	55
103309	2025-01-25T14:49:52	17.6	55.5
103310	2025-01-25T14:59:52	17.6	55.5
103311	2025-01-25T15:09:52	17.5	63
103312	2025-01-25T15:19:52	17.5	66
103313	2025-01-25T15:29:52	17.4	68
103314	2025-01-25T15:39:52	17.2	69
103315	2025-01-25T15:49:52	17.1	69
103316	2025-01-25T15:59:52	16.9	67
103317	2025-01-25T16:09:52	16.7	68
103318	2025-01-25T16:19:52	16.5	71
103319	2025-01-25T16:29:52	16.4	71.5
103320	2025-01-25T16:39:52	16.2	71.5
103321	2025-01-25T16:49:52	16.2	73.5
103322	2025-01-25T16:59:52	16.1	74.5
103323	2025-01-25T17:09:52	15.9	72
103324	2025-01-25T17:19:52	15.8	74
103325	2025-01-25T17:29:52	15.6	73.5
103326	2025-01-25T17:39:52	15.4	75
103327	2025-01-25T17:49:52	15.3	74
103328	2025-01-25T17:59:52	15.2	72.5
103329	2025-01-25T18:09:52	15.1	76.5
103330	2025-01-25T18:19:52	15.2	77
103331	2025-01-25T18:29:52	15	78
103332	2025-01-25T18:39:52	14.9	75
103333	2025-01-25T18:49:52	14.5	85
103334	2025-01-25T18:59:52	13.9	100
103335	2025-01-25T19:09:52	14	100
103336	2025-01-25T19:19:52	13.6	100
103337	2025-01-25T19:29:52	13.1	100
103338	2025-01-25T19:39:52	13	100
103339	2025-01-25T19:49:52	12.6	100
103340	2025-01-25T19:59:52	13.1	100
103341	2025-01-25T20:09:52	12.6	100
103342	2025-01-25T20:19:52	12.9	100
103343	2025-01-25T20:29:52	13	100
103344	2025-01-25T20:39:52	13	100
103345	2025-01-25T20:49:52	13	100
103346	2025-01-25T20:59:52	12.9	100
103347	2025-01-25T21:09:52	12.9	100
103348	2025-01-25T21:19:52	12.8	100
103349	2025-01-25T21:29:52	12.7	100
103350	2025-01-25T21:39:52	12.6	100
103351	2025-01-25T21:49:52	12.6	100
103352	2025-01-25T21:59:52	12.6	100
103353	2025-01-25T22:09:51	12.5	100
103354	2025-01-25T22:19:51	12.3	100
103355	2025-01-25T22:29:51	12.4	100
103356	2025-01-25T22:39:51	12.3	100
103357	2025-01-25T22:49:51	11.7	100
103358	2025-01-25T22:59:51	11.4	100
103359	2025-01-25T23:09:51	11.5	100
103360	2025-01-25T23:19:51	11.4	98.5
103361	2025-01-25T23:29:51	11.1	100
103362	2025-01-25T23:39:51	11.1	100
103363	2025-01-25T23:49:51	11	100
103364	2025-01-25T23:59:51	10.2	100
103365	2025-01-26T00:19:51	9.6	100
103366	2025-01-26T00:29:51	9.5	100
103367	2025-01-26T00:39:51	9	100
103368	2025-01-26T00:49:51	9	100
103369	2025-01-26T00:59:51	9.1	100
103370	2025-01-26T01:09:51	9.1	100
103371	2025-01-26T01:19:51	8.9	100
103372	2025-01-26T01:29:51	8.8	100
103373	2025-01-26T01:39:51	8.6	100
103374	2025-01-26T01:49:51	8.6	100
103375	2025-01-26T01:59:51	8.5	100
103376	2025-01-26T02:09:51	8.5	100
103377	2025-01-26T02:19:51	8.3	100
103378	2025-01-26T02:29:51	8.4	100
103379	2025-01-26T02:39:51	8.4	99.5
103380	2025-01-26T02:49:51	8.3	98.5
103381	2025-01-26T02:59:51	8.4	98
103382	2025-01-26T03:09:51	8.4	97
103383	2025-01-26T03:19:51	8.3	96.5
103384	2025-01-26T03:29:51	8.3	95.5
103385	2025-01-26T03:39:51	8.2	95.5
103386	2025-01-26T03:49:51	8.3	95.5
103387	2025-01-26T03:59:51	8.3	95.5
103388	2025-01-26T04:09:51	8.3	95.5
103389	2025-01-26T04:19:51	8.5	95.5
103390	2025-01-26T04:29:51	8.7	95.5
103391	2025-01-26T04:39:51	8.8	96
103392	2025-01-26T04:49:51	9.1	95.5
103393	2025-01-26T04:59:51	9.2	95.5
103394	2025-01-26T05:09:51	9.2	95.5
103395	2025-01-26T05:19:51	9.2	95.5
103396	2025-01-26T05:29:51	9.3	95.5
103397	2025-01-26T05:39:51	9.2	95.5
103398	2025-01-26T05:49:51	9.3	95.5
103399	2025-01-26T05:59:51	9.3	95.5
103400	2025-01-26T06:09:51	9.3	95.5
103401	2025-01-26T06:19:51	9.2	95.5
103402	2025-01-26T06:29:51	8.9	95.5
103403	2025-01-26T06:39:51	8.8	95.5
103404	2025-01-26T06:49:51	8.7	95.5
103405	2025-01-26T06:59:51	8.5	95.5
103406	2025-01-26T07:09:51	8.1	95.5
103407	2025-01-26T07:19:51	8.1	95.5
103408	2025-01-26T07:29:51	8	95.5
103409	2025-01-26T07:39:51	8	95.5
103410	2025-01-26T07:49:51	8	96
103411	2025-01-26T07:59:51	8	96
103412	2025-01-26T08:09:51	7.8	96
103413	2025-01-26T08:19:51	7.7	96
103414	2025-01-26T08:29:51	7.8	96
103415	2025-01-26T08:39:51	7.9	96
103416	2025-01-26T08:49:51	7.8	96
103417	2025-01-26T08:59:51	7.8	96
103418	2025-01-26T09:09:51	7.8	96
103419	2025-01-26T09:19:51	6.8	96
103420	2025-01-26T09:29:51	6.1	96
103421	2025-01-26T09:39:51	6.3	96
103422	2025-01-26T09:49:51	6.7	96
103423	2025-01-26T09:59:51	7.1	96
103424	2025-01-26T10:09:51	7.2	96
103425	2025-01-26T10:19:51	7.2	96
103426	2025-01-26T10:29:51	7.3	96.5
103427	2025-01-26T10:39:51	7.3	96
103428	2025-01-26T10:49:51	7.2	96
103429	2025-01-26T10:59:51	7.1	96
103430	2025-01-26T11:09:51	7	96
103431	2025-01-26T11:19:51	7.1	96
103432	2025-01-26T11:29:51	7.4	96
103433	2025-01-26T11:39:51	7.4	99
103434	2025-01-26T11:49:51	7.5	99
103435	2025-01-26T11:59:51	7.8	99
103436	2025-01-26T12:09:51	8.1	99.5
103437	2025-01-26T12:19:51	8.3	100
103438	2025-01-26T12:29:51	9.7	100
103439	2025-01-26T12:39:51	9.9	100
103440	2025-01-26T12:49:51	11	100
103441	2025-01-26T12:59:51	10.3	98
103442	2025-01-26T13:09:51	11.2	99.5
103443	2025-01-26T13:19:51	11.7	94
103444	2025-01-26T13:29:51	11.8	67.5
103445	2025-01-26T13:39:51	12	60
103446	2025-01-26T13:49:51	12.5	56
103447	2025-01-26T13:59:51	13.4	56
103448	2025-01-26T14:09:51	13.5	52.5
103449	2025-01-26T14:19:51	13.2	57.5
103450	2025-01-26T14:29:51	13.4	64.5
103451	2025-01-26T14:39:51	14	68
103452	2025-01-26T14:49:51	13.6	68.5
103453	2025-01-26T14:59:51	13.1	71
103454	2025-01-26T15:09:51	12.7	71.5
103455	2025-01-26T15:19:51	12.3	73.5
103456	2025-01-26T15:29:51	12.1	74
103457	2025-01-26T15:39:51	11.7	73.5
103458	2025-01-26T15:49:51	11.2	73.5
103459	2025-01-26T15:59:51	10.9	72.5
103460	2025-01-26T16:09:51	10.7	72
103461	2025-01-26T16:19:51	10.5	76.5
103462	2025-01-26T16:29:51	10.3	75
103463	2025-01-26T16:39:51	10.3	74
103464	2025-01-26T16:49:51	10.2	76
103465	2025-01-26T16:59:51	10	68.5
103466	2025-01-26T17:09:51	9.8	69.5
103467	2025-01-26T17:19:50	9.7	67
103468	2025-01-26T17:29:50	9.6	70
103469	2025-01-26T17:39:50	9.6	74.5
103470	2025-01-26T17:49:50	9.6	72.5
103471	2025-01-26T17:59:50	9.5	73
103472	2025-01-26T18:09:50	9.6	74
103473	2025-01-26T18:19:50	9.4	71
103474	2025-01-26T18:29:50	9	73
103475	2025-01-26T18:39:50	9	74
103476	2025-01-26T18:49:50	9.1	74.5
103477	2025-01-26T18:59:50	9.1	76
103478	2025-01-26T19:09:50	9	77.5
103479	2025-01-26T19:14:57	9	79
103480	2025-01-26T19:24:57	8.9	80
103481	2025-01-26T19:34:57	8.8	75.5
103482	2025-01-26T19:44:57	8.7	71
103483	2025-01-26T19:54:57	8.7	66
103484	2025-01-26T20:04:57	8.9	66
103485	2025-01-26T20:14:57	9.1	73.5
103486	2025-01-26T20:24:57	9	71.5
103487	2025-01-26T20:34:57	9.2	72
103488	2025-01-26T20:44:57	9.5	68.5
103489	2025-01-26T20:54:57	9.9	68
103490	2025-01-26T21:04:57	10	67.5
103491	2025-01-26T21:14:57	10.3	68
103492	2025-01-26T21:24:57	10.2	68.5
103493	2025-01-26T21:34:57	10.3	69.5
103494	2025-01-26T21:44:57	10.4	69
103495	2025-01-26T21:54:57	10.3	69
103496	2025-01-26T22:04:57	10.7	68.5
103497	2025-01-26T22:14:57	10.7	68.5
103498	2025-01-26T22:24:57	10.8	68.5
103499	2025-01-26T22:34:57	11.1	67.5
103500	2025-01-26T22:44:57	11.4	67
103501	2025-01-26T22:54:57	11.6	66.5
103502	2025-01-26T23:04:57	11.6	66.5
103503	2025-01-26T23:14:57	11.8	66
103504	2025-01-26T23:24:57	11.9	65.5
103505	2025-01-26T23:34:57	12	65.5
103506	2025-01-26T23:44:57	12	65.5
103507	2025-01-26T23:54:57	11.8	67.5
103508	2025-01-27T00:04:57	12	67
103509	2025-01-27T00:34:57	10.7	88
103510	2025-01-27T00:44:57	10.1	88.5
103511	2025-01-27T00:54:57	10.1	88.5
103512	2025-01-27T01:04:57	10.1	90.5
103513	2025-01-27T01:14:57	10	93
103514	2025-01-27T01:24:57	10	93.5
103515	2025-01-27T01:34:57	10.2	96
103516	2025-01-27T01:44:57	10.5	99
103517	2025-01-27T01:54:57	10.7	100
103518	2025-01-27T02:04:57	10.6	100
103519	2025-01-27T02:14:57	10.7	100
103520	2025-01-27T02:24:57	10.7	100
103521	2025-01-27T02:34:57	10.9	100
103522	2025-01-27T02:44:57	10.6	98.5
103523	2025-01-27T02:54:57	10.7	100
103524	2025-01-27T03:04:57	10.8	100
103525	2025-01-27T03:14:57	10.6	100
103526	2025-01-27T03:24:57	10.2	100
103527	2025-01-27T03:34:57	10.1	100
103528	2025-01-27T03:44:57	10.1	100
103529	2025-01-27T03:54:57	10.2	100
103530	2025-01-27T04:04:57	10.3	100
103531	2025-01-27T04:14:57	10.6	97
103532	2025-01-27T04:24:57	11	92.5
103533	2025-01-27T04:34:57	11.3	90
103534	2025-01-27T04:44:57	11.7	87
103535	2025-01-27T04:54:57	12.1	83
103536	2025-01-27T05:04:57	12.5	78
103537	2025-01-27T05:14:57	12.1	88
103538	2025-01-27T05:24:57	11.7	86
103539	2025-01-27T05:34:57	11.8	82
103540	2025-01-27T05:44:57	12.5	80
103541	2025-01-27T05:54:57	13	76.5
103542	2025-01-27T06:04:57	12.9	82.5
103543	2025-01-27T06:14:57	12.8	78.5
103544	2025-01-27T06:24:57	13.3	74
103545	2025-01-27T06:34:57	13.9	73
103546	2025-01-27T06:44:57	14.2	71.5
103547	2025-01-27T06:54:57	14.2	69.5
103548	2025-01-27T07:04:57	12.8	88
103549	2025-01-27T07:14:57	11.6	95
103550	2025-01-27T07:24:57	11.5	96
103551	2025-01-27T07:34:57	11.4	93.5
103552	2025-01-27T07:44:57	11.4	98.5
103553	2025-01-27T07:54:57	11	100
103554	2025-01-27T08:04:57	11	100
103555	2025-01-27T08:14:57	10.9	100
103556	2025-01-27T08:24:57	11	100
103557	2025-01-27T08:34:57	10.9	100
103558	2025-01-27T08:44:57	10.9	100
103559	2025-01-27T08:54:57	10.9	100
103560	2025-01-27T09:04:57	11	100
103561	2025-01-27T09:14:57	11	100
103562	2025-01-27T09:24:57	11	100
103563	2025-01-27T09:34:57	11	100
103564	2025-01-27T09:44:57	11	100
103565	2025-01-27T09:54:57	11	100
103566	2025-01-27T10:04:57	11.1	100
103567	2025-01-27T10:14:57	10.7	100
103568	2025-01-27T10:24:57	10.8	100
103569	2025-01-27T10:34:57	10.7	100
103570	2025-01-27T10:44:57	11	100
103571	2025-01-27T10:54:57	11.4	100
103572	2025-01-27T11:04:57	11.6	100
103573	2025-01-27T11:14:57	11.6	100
103574	2025-01-27T11:24:57	11.9	100
103575	2025-01-27T11:34:56	12.4	100
103576	2025-01-27T11:44:56	12.6	100
103577	2025-01-27T11:54:56	12.8	100
103578	2025-01-27T12:04:56	13.1	91
103579	2025-01-27T12:14:56	13	72
103580	2025-01-27T12:24:56	13.7	65.5
103581	2025-01-27T12:34:56	14.1	64
103582	2025-01-27T12:44:56	14	64
103583	2025-01-27T12:54:56	14.1	64.5
103584	2025-01-27T13:04:56	14.1	65.5
103585	2025-01-27T13:14:56	14.1	66
103586	2025-01-27T13:24:56	14.1	66.5
103587	2025-01-27T13:34:56	13.9	69
103588	2025-01-27T13:44:56	13.8	71.5
103589	2025-01-27T13:54:56	13.7	71.5
103590	2025-01-27T14:04:56	13.5	70.5
103591	2025-01-27T14:14:56	13.6	69.5
103592	2025-01-27T14:24:56	13.5	68.5
103593	2025-01-27T14:34:56	13.4	68
103594	2025-01-27T14:44:56	13.3	67.5
103595	2025-01-27T14:54:56	13.2	68.5
103596	2025-01-27T15:04:56	13	69
103597	2025-01-27T15:14:56	13	71
103598	2025-01-27T15:24:56	12.9	67.5
103599	2025-01-27T15:34:56	13.1	68
103600	2025-01-27T15:44:56	12.8	70.5
103601	2025-01-27T15:54:56	12.6	73
103602	2025-01-27T16:04:56	11.3	85.5
103603	2025-01-27T16:14:56	11.4	78.5
103604	2025-01-27T16:24:56	11.7	71.5
103605	2025-01-27T16:34:56	12.1	80
103606	2025-01-27T16:44:56	12.1	76.5
103607	2025-01-27T16:54:56	12.1	69
103608	2025-01-27T17:04:56	11.9	68.5
103609	2025-01-27T17:14:56	11.7	69.5
103610	2025-01-27T17:24:56	11.6	69.5
103611	2025-01-27T17:34:56	11.5	69.5
103612	2025-01-27T17:44:56	11.5	69.5
103613	2025-01-27T17:54:56	11.4	70
103614	2025-01-27T18:04:56	11.4	69.5
103615	2025-01-27T18:14:56	11.4	70
103616	2025-01-27T18:24:56	11.3	70.5
103617	2025-01-27T18:34:56	11.3	71.5
103618	2025-01-27T18:44:56	11.1	71
103619	2025-01-27T18:54:56	11	71
103620	2025-01-27T19:04:56	10.9	71.5
103621	2025-01-27T19:14:56	10.7	72
103622	2025-01-27T19:24:56	10.7	72.5
103623	2025-01-27T19:34:56	10.6	72
103624	2025-01-27T19:44:56	10.5	71
103625	2025-01-27T19:54:56	10.5	70
103626	2025-01-27T20:04:56	10.5	69.5
103627	2025-01-27T20:14:56	10.6	68.5
103628	2025-01-27T20:24:56	10.7	68
103629	2025-01-27T20:34:56	10.7	68.5
103630	2025-01-27T20:44:56	10.7	68.5
103631	2025-01-27T20:54:56	10.7	68.5
103632	2025-01-27T21:04:56	10.7	68.5
103633	2025-01-27T21:14:56	10.8	68
103634	2025-01-27T21:24:56	10.9	67
103635	2025-01-27T21:34:56	11	67
103636	2025-01-27T21:44:56	11	67
103637	2025-01-27T21:54:56	11.1	67
103638	2025-01-27T22:04:56	10.8	68
103639	2025-01-27T22:14:56	10.7	69
103640	2025-01-27T22:24:56	10.6	69.5
103641	2025-01-27T22:34:56	10.4	70
103642	2025-01-27T22:44:56	10.5	73
103643	2025-01-27T22:54:56	10.2	78.5
103644	2025-01-27T23:04:56	10.1	81
103645	2025-01-27T23:14:56	9.9	82.5
103646	2025-01-27T23:24:56	9.8	80.5
103647	2025-01-27T23:34:56	9.6	83
103648	2025-01-27T23:44:56	9.5	82.5
103649	2025-01-27T23:54:56	9.6	82
103650	2025-01-28T00:04:56	9.5	83.5
103651	2025-01-28T00:14:56	9.5	82.5
103652	2025-01-28T00:24:56	9.3	81.5
103653	2025-01-28T00:34:56	9.2	81.5
103654	2025-01-28T00:44:56	8.9	81
103655	2025-01-28T00:54:56	8.9	82.5
103656	2025-01-28T01:04:56	8.8	84.5
103657	2025-01-28T01:14:56	8.7	86
103658	2025-01-28T01:24:56	8.8	84
103659	2025-01-28T01:34:56	8.8	85
103660	2025-01-28T01:44:56	9	85.5
103661	2025-01-28T01:54:56	9	83
103662	2025-01-28T02:04:56	9.2	85
103663	2025-01-28T02:14:56	9.1	84.5
103664	2025-01-28T02:24:56	9	82
103665	2025-01-28T02:34:56	9.1	86
103666	2025-01-28T02:44:56	9.1	86
103667	2025-01-28T02:54:56	9	86
103668	2025-01-28T03:04:56	9	87.5
103669	2025-01-28T03:14:56	8.9	88
103670	2025-01-28T03:24:56	8.9	88
103671	2025-01-28T03:34:56	8.8	88.5
103672	2025-01-28T03:44:56	8.7	87
103673	2025-01-28T03:54:56	8.6	89
103674	2025-01-28T04:04:56	8.7	88.5
103675	2025-01-28T04:14:56	8.2	85
103676	2025-01-28T04:24:56	8.2	86
103677	2025-01-28T04:34:56	8.2	86
103678	2025-01-28T04:44:55	8.1	89
103679	2025-01-28T04:54:55	8.1	91.5
103680	2025-01-28T05:04:55	8.1	92
103681	2025-01-28T05:14:55	7.6	98
103682	2025-01-28T05:24:55	7.5	99
103683	2025-01-28T05:34:55	7.5	98.5
103684	2025-01-28T05:44:55	7.4	100
103685	2025-01-28T05:54:55	7.3	100
103686	2025-01-28T06:04:55	7.2	98
103687	2025-01-28T06:14:55	7.3	98.5
103688	2025-01-28T06:24:55	7.4	98
103689	2025-01-28T06:34:55	7.4	95
103690	2025-01-28T06:44:55	7.6	96
103691	2025-01-28T06:54:55	7.5	92
103692	2025-01-28T07:04:55	7.6	89.5
103693	2025-01-28T07:14:55	7.7	89.5
103694	2025-01-28T07:24:55	7.8	90
103695	2025-01-28T07:34:55	7.8	89.5
103696	2025-01-28T07:44:55	7.8	90.5
103697	2025-01-28T07:54:55	7.9	90
103698	2025-01-28T08:04:55	7.8	90.5
103699	2025-01-28T08:14:55	7.9	90.5
103700	2025-01-28T08:24:55	8	90
103701	2025-01-28T08:34:55	7.9	89.5
103702	2025-01-28T08:44:55	7.9	89
103703	2025-01-28T08:54:55	8	87
103704	2025-01-28T09:04:55	8.2	85
103705	2025-01-28T09:14:55	8.3	84.5
103706	2025-01-28T09:24:55	8.4	84
103707	2025-01-28T09:34:55	8.4	83
103708	2025-01-28T09:44:55	8.6	82.5
103709	2025-01-28T09:54:55	8.7	82
103710	2025-01-28T10:04:55	8.8	79
103711	2025-01-28T10:14:55	8.9	78.5
103712	2025-01-28T10:24:55	8.9	80
103713	2025-01-28T10:34:55	8.9	81
103714	2025-01-28T10:44:55	9	80.5
103715	2025-01-28T10:54:55	9.1	79.5
103716	2025-01-28T11:04:55	9.2	79.5
103717	2025-01-28T11:14:55	9.2	79.5
103718	2025-01-28T11:24:55	9.3	79.5
103719	2025-01-28T11:34:55	9.3	78
103720	2025-01-28T11:44:55	9.5	76.5
103721	2025-01-28T11:54:55	9.7	75.5
103722	2025-01-28T12:04:55	9.8	74.5
103723	2025-01-28T12:14:55	9.9	73
103724	2025-01-28T12:24:55	10.1	72.5
103725	2025-01-28T12:34:55	10.2	71.5
103726	2025-01-28T12:44:55	10.5	70.5
103727	2025-01-28T12:54:55	10.8	67.5
103728	2025-01-28T13:04:55	11	66.5
103729	2025-01-28T13:14:55	11.3	65
103730	2025-01-28T13:24:55	11.7	63
103731	2025-01-28T13:34:55	11.7	62.5
103732	2025-01-28T13:44:55	12	61
103733	2025-01-28T13:54:55	12.6	59.5
103734	2025-01-28T14:04:55	13.3	56.5
103735	2025-01-28T14:14:55	13.6	55
103736	2025-01-28T14:24:55	13.8	55
103737	2025-01-28T14:34:55	13.5	55.5
103738	2025-01-28T14:44:55	13.1	57
103739	2025-01-28T14:54:55	13.2	57
103740	2025-01-28T15:04:55	13	59
103741	2025-01-28T15:14:55	12.5	59
103742	2025-01-28T15:24:55	12.2	59.5
103743	2025-01-28T15:34:55	12	59.5
103744	2025-01-28T15:44:55	11.7	59
103745	2025-01-28T15:54:55	11.4	60
103746	2025-01-28T16:04:55	11.3	60.5
103747	2025-01-28T16:14:55	11.2	60
103748	2025-01-28T16:24:55	11.1	59.5
103749	2025-01-28T16:34:55	11.1	59.5
103750	2025-01-28T16:44:55	11	58.5
103751	2025-01-28T16:54:55	11	59
103752	2025-01-28T17:04:55	10.9	59.5
103753	2025-01-28T17:14:55	11	60
103754	2025-01-28T17:24:55	11	60.5
103755	2025-01-28T17:34:55	10.8	64
103756	2025-01-28T17:44:55	10	69
103757	2025-01-28T17:54:55	10.2	64.5
103758	2025-01-28T18:04:55	10	72
103759	2025-01-28T18:14:55	9.4	71
103760	2025-01-28T18:24:55	9.7	68
103761	2025-01-28T18:34:55	10.1	66
103762	2025-01-28T18:44:55	9.4	82
103763	2025-01-28T18:54:55	8.9	80
103764	2025-01-28T19:04:55	8.9	77
103765	2025-01-28T19:14:55	9.2	75
103766	2025-01-28T19:24:55	9.5	73
103767	2025-01-28T19:34:55	9.9	68.5
103768	2025-01-28T19:44:55	10	69.5
103769	2025-01-28T19:54:55	10	70
103770	2025-01-28T20:04:55	10.1	70.5
103771	2025-01-28T20:14:55	9.9	71
103772	2025-01-28T20:24:55	9.8	71.5
103773	2025-01-28T20:34:55	9.7	72
103774	2025-01-28T20:44:55	9.6	72.5
103775	2025-01-28T20:54:55	9.6	71.5
103776	2025-01-28T21:04:55	9.7	71
103777	2025-01-28T21:14:55	9.7	71
103778	2025-01-28T21:24:55	9.7	71
103779	2025-01-28T21:34:55	9.6	70
103780	2025-01-28T21:44:55	9.6	70
103781	2025-01-28T21:54:55	9.5	70.5
103782	2025-01-28T22:04:55	9.5	70.5
103783	2025-01-28T22:14:55	8.8	90.5
103784	2025-01-28T22:24:55	7.5	97
103785	2025-01-28T22:34:55	7.5	99
103786	2025-01-28T22:44:55	7.6	96
103787	2025-01-28T22:54:55	7.5	95
103788	2025-01-28T23:04:55	7.6	94
103789	2025-01-28T23:14:55	7.8	84.5
103790	2025-01-28T23:24:55	8.1	82
103791	2025-01-28T23:34:54	8.2	81.5
103792	2025-01-28T23:44:54	8.4	82.5
103793	2025-01-28T23:54:54	8	85.5
103794	2025-01-29T00:04:55	8.1	85.5
103795	2025-01-29T00:14:54	7.7	93.5
103796	2025-01-29T00:24:54	7.5	93.5
103797	2025-01-29T00:34:54	7.4	91
103798	2025-01-29T00:44:54	7.8	89
103799	2025-01-29T00:54:54	7.9	87.5
103800	2025-01-29T01:04:54	8.1	85.5
103801	2025-01-29T01:14:54	8.4	83.5
103802	2025-01-29T01:24:54	8.4	82
103803	2025-01-29T01:34:54	8.7	81
103804	2025-01-29T01:44:54	8.9	80
103805	2025-01-29T01:54:54	8.5	88
103806	2025-01-29T02:04:54	8.1	88
103807	2025-01-29T02:14:54	7.5	99.5
103808	2025-01-29T02:24:54	7.3	100
103809	2025-01-29T02:34:54	7.3	100
103810	2025-01-29T02:44:54	7.1	100
103811	2025-01-29T02:54:54	7	100
103812	2025-01-29T03:04:54	7	100
103813	2025-01-29T03:14:54	6.9	100
103814	2025-01-29T03:24:54	6.9	100
103815	2025-01-29T03:34:54	7.1	100
103816	2025-01-29T03:44:54	7.1	100
103817	2025-01-29T03:54:54	7.1	100
103818	2025-01-29T04:04:54	7.2	100
103819	2025-01-29T04:14:54	7.1	100
103820	2025-01-29T04:24:54	7.1	100
103821	2025-01-29T04:34:54	7.1	100
103822	2025-01-29T04:44:54	7.1	100
103823	2025-01-29T04:54:54	7.1	100
103824	2025-01-29T05:04:54	7	100
103825	2025-01-29T05:14:54	7	100
103826	2025-01-29T05:24:54	6.9	100
103827	2025-01-29T05:34:54	6.9	100
103828	2025-01-29T05:44:54	6.9	100
103829	2025-01-29T05:54:54	6.9	100
103830	2025-01-29T06:04:54	6.8	100
103831	2025-01-29T06:14:54	6.6	100
103832	2025-01-29T06:24:54	6.7	100
103833	2025-01-29T06:34:54	6.7	100
103834	2025-01-29T06:44:54	6.8	100
103835	2025-01-29T06:54:54	6.7	100
103836	2025-01-29T07:04:54	6.7	100
103837	2025-01-29T07:14:54	6.7	100
103838	2025-01-29T07:24:54	6.7	100
103839	2025-01-29T07:34:54	6.6	100
103840	2025-01-29T07:44:54	6.7	100
103841	2025-01-29T07:54:54	6.7	100
103842	2025-01-29T08:04:54	6.8	100
103843	2025-01-29T08:14:54	6.8	100
103844	2025-01-29T08:24:54	7	100
103845	2025-01-29T08:34:54	6.9	100
103846	2025-01-29T08:44:54	6.8	100
103847	2025-01-29T08:54:54	7	100
103848	2025-01-29T09:04:54	7.4	99.5
103849	2025-01-29T09:14:54	7.5	99
103850	2025-01-29T09:24:54	7.5	98.5
103851	2025-01-29T09:34:54	7.3	97.5
103852	2025-01-29T09:44:54	7.4	97
103853	2025-01-29T09:54:54	7.4	96
103854	2025-01-29T10:04:54	7.6	96
103855	2025-01-29T10:14:54	7.8	96
103856	2025-01-29T10:24:54	8	96
103857	2025-01-29T10:34:54	8.1	96
103858	2025-01-29T10:44:54	8.2	96
103859	2025-01-29T10:54:54	8.1	96
103860	2025-01-29T11:04:54	8.2	96
103861	2025-01-29T11:14:54	8.3	96
103862	2025-01-29T11:24:54	8.4	96
103863	2025-01-29T11:34:54	8.5	96
103864	2025-01-29T11:44:54	9.1	96
103865	2025-01-29T11:54:54	9.8	96
103866	2025-01-29T12:04:54	9.3	96
103867	2025-01-29T12:14:54	8.9	96
103868	2025-01-29T12:24:54	9.1	96
103869	2025-01-29T12:34:54	9.3	96
103870	2025-01-29T12:44:54	9.4	96
103871	2025-01-29T12:54:54	9.9	96
103872	2025-01-29T13:04:54	9.7	96
103873	2025-01-29T13:14:54	9.7	96
103874	2025-01-29T13:24:54	9.6	96
103875	2025-01-29T13:34:54	9.6	96
103876	2025-01-29T13:44:54	9.8	96
103877	2025-01-29T13:54:54	10.2	96
103878	2025-01-29T14:04:54	10.3	96
103879	2025-01-29T14:14:54	10.3	96
103880	2025-01-29T14:24:54	10.2	96
103881	2025-01-29T14:34:54	10.2	96
103882	2025-01-29T14:44:54	10.2	96
103883	2025-01-29T14:54:54	10.4	96
103884	2025-01-29T15:04:54	10.2	96
103885	2025-01-29T15:14:54	10.2	96
103886	2025-01-29T15:24:54	10.2	96
103887	2025-01-29T15:34:54	10	96
103888	2025-01-29T15:44:54	9.9	96
103889	2025-01-29T15:54:54	9.9	96
103890	2025-01-29T16:04:54	9.9	96
103891	2025-01-29T16:14:54	9.9	96
103892	2025-01-29T16:24:54	9.8	96
103893	2025-01-29T16:34:54	9.5	96
103894	2025-01-29T16:44:54	9.5	96
103895	2025-01-29T16:54:54	9.3	96.5
103896	2025-01-29T17:04:54	9.1	96
103897	2025-01-29T17:14:54	9.1	96.5
103898	2025-01-29T17:24:54	8.9	96
103899	2025-01-29T17:34:54	8.8	96.5
103900	2025-01-29T17:44:54	8.7	96.5
103901	2025-01-29T17:54:54	8.6	96
103902	2025-01-29T18:04:54	8.5	96
103903	2025-01-29T18:14:54	8.3	96.5
103904	2025-01-29T18:24:54	8.2	96.5
103905	2025-01-29T18:34:54	8	96.5
103906	2025-01-29T18:44:54	7.9	96.5
103907	2025-01-29T18:54:54	7.9	96.5
103908	2025-01-29T19:04:54	7.8	96.5
103909	2025-01-29T19:14:54	7.8	96.5
103910	2025-01-29T19:24:54	7.9	96.5
103911	2025-01-29T19:34:54	7.7	96.5
103912	2025-01-29T19:44:54	7.6	96.5
103913	2025-01-29T19:54:54	7.3	96
103914	2025-01-29T20:04:54	7.3	96.5
103915	2025-01-29T20:14:54	7.2	96.5
103916	2025-01-29T20:24:54	7.1	96.5
103917	2025-01-29T20:34:54	7.1	96.5
103918	2025-01-29T20:44:54	6.9	96.5
103919	2025-01-29T20:54:54	6.8	96.5
103920	2025-01-29T21:04:53	6.7	96.5
103921	2025-01-29T21:14:53	6.6	96.5
103922	2025-01-29T21:24:53	6.5	96.5
103923	2025-01-29T21:34:53	6.2	96.5
103924	2025-01-29T21:44:53	6.2	96.5
103925	2025-01-29T21:54:53	6.2	96.5
103926	2025-01-29T22:04:53	6.1	96.5
103927	2025-01-29T22:14:53	6	96.5
103928	2025-01-29T22:24:53	5.7	96.5
103929	2025-01-29T22:34:53	5.8	96.5
103930	2025-01-29T22:44:53	5.7	96.5
103931	2025-01-29T22:54:53	5.5	96.5
103932	2025-01-29T23:04:53	5.4	96.5
103933	2025-01-29T23:14:53	5.5	96.5
103934	2025-01-29T23:24:53	5.6	96.5
103935	2025-01-29T23:34:53	5.6	96.5
103936	2025-01-29T23:44:53	5.5	96.5
103937	2025-01-29T23:54:53	5.5	97
103938	2025-01-30T00:04:53	5.5	97
103939	2025-01-30T00:14:53	5.6	97
103940	2025-01-30T00:24:53	5.6	97
103941	2025-01-30T00:34:54	5.5	97
103942	2025-01-30T00:44:53	5.5	97
103943	2025-01-30T00:54:53	5.4	97.5
103944	2025-01-30T01:04:53	5.3	97.5
103945	2025-01-30T01:14:53	5.3	97
103946	2025-01-30T01:24:53	5.3	96.5
103947	2025-01-30T01:34:53	5.2	97
103948	2025-01-30T01:44:53	5.1	97
103949	2025-01-30T01:54:53	5	97
103950	2025-01-30T02:04:53	5	97
103951	2025-01-30T02:14:53	5.1	97
103952	2025-01-30T02:24:53	5.1	97
103953	2025-01-30T02:34:53	5	97
103954	2025-01-30T02:44:53	4.9	97
103955	2025-01-30T02:54:53	4.9	97
103956	2025-01-30T03:04:53	5	97
103957	2025-01-30T03:14:53	5	97
103958	2025-01-30T03:24:53	5	97
103959	2025-01-30T03:34:53	5	97
103960	2025-01-30T03:44:53	5	97
103961	2025-01-30T03:54:53	4.9	97
103962	2025-01-30T04:04:53	4.9	97
103963	2025-01-30T04:14:53	4.9	97
103964	2025-01-30T04:24:53	5	97
103965	2025-01-30T04:34:53	4.8	97
103966	2025-01-30T04:44:53	4.6	97
103967	2025-01-30T04:54:53	4.7	97
103968	2025-01-30T05:04:53	4.7	96.5
103969	2025-01-30T05:14:53	4.8	97
103970	2025-01-30T05:24:53	4.8	97
103971	2025-01-30T05:34:53	4.7	97
103972	2025-01-30T05:44:53	4.6	97
103973	2025-01-30T05:54:53	4.7	97
103974	2025-01-30T06:04:53	4.7	97
103975	2025-01-30T06:14:53	4.7	97
103976	2025-01-30T06:24:53	4.6	97
103977	2025-01-30T06:34:53	4.8	97
103978	2025-01-30T06:44:53	4.7	97
103979	2025-01-30T06:54:53	4.9	97
103980	2025-01-30T07:04:53	4.8	97
103981	2025-01-30T07:14:53	5	97
103982	2025-01-30T07:24:53	5	97
103983	2025-01-30T07:34:53	4.9	97
103984	2025-01-30T07:44:53	5.1	97
103985	2025-01-30T07:54:53	5.1	97
103986	2025-01-30T08:04:53	5.2	97
103987	2025-01-30T08:14:53	5.5	97
103988	2025-01-30T08:24:53	5.6	97
103989	2025-01-30T08:34:53	5.7	97
103990	2025-01-30T08:44:53	5.6	97
103991	2025-01-30T08:54:53	5.7	97
103992	2025-01-30T09:04:53	5.8	97
103993	2025-01-30T09:14:53	6.1	97
103994	2025-01-30T09:24:53	6.9	97
103995	2025-01-30T09:34:53	7.1	97
103996	2025-01-30T09:44:53	7.5	97
103997	2025-01-30T09:54:53	7.6	97
103998	2025-01-30T10:04:53	7.9	97
103999	2025-01-30T10:14:53	8	97
104000	2025-01-30T10:24:53	8.3	97
104001	2025-01-30T10:34:53	8.8	97
104002	2025-01-30T10:44:53	9.1	97
104003	2025-01-30T10:54:53	9.4	96.5
104004	2025-01-30T11:04:53	9.7	96.5
104005	2025-01-30T11:14:53	10	96.5
104006	2025-01-30T11:24:53	10	96.5
104007	2025-01-30T11:34:53	10.1	96.5
104008	2025-01-30T11:44:53	10.5	96.5
104009	2025-01-30T11:54:53	11.3	90.5
104010	2025-01-30T12:04:53	11.2	86
104011	2025-01-30T12:14:53	11.5	80
104012	2025-01-30T12:24:53	11.8	74
104013	2025-01-30T12:34:53	13.9	61
104014	2025-01-30T12:44:53	14.6	57.5
104015	2025-01-30T12:54:53	14.9	56.5
104016	2025-01-30T13:24:53	13	62
104017	2025-01-30T13:44:53	12.6	63.5
104018	2025-01-30T13:55:08	12.2	65.5
104019	2025-01-30T14:04:53	12.2	65
104020	2025-01-30T14:14:53	12.1	65.5
104021	2025-01-30T14:24:53	11.7	68
104022	2025-01-30T14:34:53	11.5	69.5
104023	2025-01-30T14:44:53	11.4	71
104024	2025-01-30T14:54:53	11.3	71
104025	2025-01-30T15:04:53	11.1	71.5
104026	2025-01-30T15:14:53	11	72
104027	2025-01-30T15:24:53	10.9	73
104028	2025-01-30T15:34:53	10.6	74
104029	2025-01-30T15:44:53	10.5	76.5
104030	2025-01-30T15:54:53	10.4	77
104031	2025-01-30T16:04:53	10.1	80
104032	2025-01-30T16:14:53	9.9	81.5
104033	2025-01-30T16:24:53	9.8	82
104034	2025-01-30T16:34:53	9.8	84
104035	2025-01-30T16:44:53	9.3	92.5
104036	2025-01-30T16:54:53	9.1	91
104037	2025-01-30T17:04:53	9.1	92.5
104038	2025-01-30T17:14:53	9	92.5
104039	2025-01-30T17:24:53	9	92
104040	2025-01-30T17:34:53	9	93.5
104041	2025-01-30T17:44:53	8.8	95
104042	2025-01-30T17:54:53	8.6	94.5
104043	2025-01-30T18:04:53	8.6	95
104044	2025-01-30T18:14:53	8.6	94.5
104045	2025-01-30T18:24:53	8.6	94.5
104046	2025-01-30T18:34:53	8.5	93
104047	2025-01-30T18:44:53	8.4	93
104048	2025-01-30T18:54:53	8.2	92.5
104049	2025-01-30T19:04:53	8.3	93
104050	2025-01-30T19:14:53	8.3	92.5
104051	2025-01-30T19:24:53	8.2	91.5
104052	2025-01-30T19:34:53	8.2	92
104053	2025-01-30T19:44:53	8.1	91.5
104054	2025-01-30T19:54:53	8	91.5
104055	2025-01-30T20:04:53	8.1	91
104056	2025-01-30T20:14:53	8.1	91.5
104057	2025-01-30T20:24:53	8.2	92
104058	2025-01-30T20:34:53	8.1	91.5
104059	2025-01-30T20:44:53	8.1	91.5
104060	2025-01-30T20:54:53	8.1	90.5
104061	2025-01-30T21:04:53	8.1	89.5
104062	2025-01-30T21:14:52	8.2	89.5
104063	2025-01-30T21:24:53	8.2	90.5
104064	2025-01-30T21:34:52	8	95
104065	2025-01-30T21:44:52	7.6	100
104066	2025-01-30T21:54:52	7.7	100
104067	2025-01-30T22:04:52	7.5	100
104068	2025-01-30T22:14:52	7.6	100
104069	2025-01-30T22:24:52	7.6	100
104070	2025-01-30T22:34:52	7.5	100
104071	2025-01-30T22:44:52	7.6	100
104072	2025-01-30T22:54:52	7.8	100
104073	2025-01-30T23:04:52	7.5	100
104074	2025-01-30T23:14:52	7.4	100
104075	2025-01-30T23:24:52	7	100
104076	2025-01-30T23:34:52	7.2	100
104077	2025-01-30T23:44:52	7.3	100
104078	2025-01-30T23:54:52	7	100
104079	2025-01-31T00:04:52	6.9	100
104080	2025-01-31T00:14:52	7	100
104081	2025-01-31T00:24:52	7.2	100
104082	2025-01-31T00:34:52	7.2	100
104083	2025-01-31T00:44:52	7.2	100
104084	2025-01-31T00:54:52	7.1	100
104085	2025-01-31T01:04:52	7	100
104086	2025-01-31T01:14:52	7	100
104087	2025-01-31T01:24:52	7	100
104088	2025-01-31T01:34:52	6.9	100
104089	2025-01-31T01:44:52	7	100
104090	2025-01-31T01:54:52	7	100
104091	2025-01-31T02:04:52	6.7	100
104092	2025-01-31T02:14:52	6.6	100
104093	2025-01-31T02:24:52	6.3	100
104094	2025-01-31T02:34:52	6.3	100
104095	2025-01-31T02:44:52	6.2	100
104096	2025-01-31T02:54:52	6	100
104097	2025-01-31T03:04:52	5.8	100
104098	2025-01-31T03:14:52	6.1	100
104099	2025-01-31T03:24:52	6	100
104100	2025-01-31T03:34:52	6	100
104101	2025-01-31T03:44:52	5.9	100
104102	2025-01-31T03:54:52	5.8	100
104103	2025-01-31T04:04:52	5.6	100
104104	2025-01-31T04:14:52	5.4	100
104105	2025-01-31T04:24:52	5.3	100
104106	2025-01-31T04:34:52	5.2	100
104107	2025-01-31T04:44:52	4.9	100
104108	2025-01-31T04:54:52	4.8	100
104109	2025-01-31T05:04:52	4.7	100
104110	2025-01-31T05:14:52	4.5	100
104111	2025-01-31T05:24:52	4.5	100
104112	2025-01-31T05:34:52	4.4	100
104113	2025-01-31T05:44:52	4.5	96.5
104114	2025-01-31T05:54:52	4.6	96.5
104115	2025-01-31T06:04:52	4.7	96.5
104116	2025-01-31T06:14:52	4.6	96.5
104117	2025-01-31T06:24:52	4.6	96.5
104118	2025-01-31T06:34:52	4.8	96.5
104119	2025-01-31T06:44:52	4.7	96.5
104120	2025-01-31T06:54:52	4.6	96.5
104121	2025-01-31T07:04:52	4.5	96.5
104122	2025-01-31T07:14:52	4.4	96.5
104123	2025-01-31T07:24:52	4.4	96.5
104124	2025-01-31T07:34:52	4.4	96.5
104125	2025-01-31T07:44:52	4.6	96.5
104126	2025-01-31T07:54:52	4.6	96.5
104127	2025-01-31T08:04:52	4.7	96.5
104128	2025-01-31T08:14:52	4.6	96.5
104129	2025-01-31T08:24:52	4.6	96.5
104130	2025-01-31T08:34:52	4.5	96.5
104131	2025-01-31T08:44:52	4.4	96.5
104132	2025-01-31T08:54:52	4.6	96.5
104133	2025-01-31T09:04:52	4.7	96.5
104134	2025-01-31T09:14:52	4.9	96.5
104135	2025-01-31T09:24:52	5.1	96.5
104136	2025-01-31T09:34:52	5.2	96.5
104137	2025-01-31T09:44:52	5.5	96.5
104138	2025-01-31T09:55:10	5.7	96.5
104139	2025-01-31T10:04:52	5.9	96.5
104140	2025-01-31T10:14:52	6	96.5
104141	2025-01-31T10:24:52	6.3	96.5
104142	2025-01-31T10:34:52	6.2	96.5
104143	2025-01-31T10:44:52	6.7	96.5
104144	2025-01-31T10:54:52	6.9	96.5
104145	2025-01-31T11:04:52	6.9	96.5
104146	2025-01-31T11:14:52	7	96.5
104147	2025-01-31T11:24:52	7	96.5
104148	2025-01-31T11:34:52	7.1	96.5
104149	2025-01-31T11:44:52	7.1	96.5
104150	2025-01-31T11:54:52	7.9	96.5
104151	2025-01-31T12:04:52	7.6	96.5
104152	2025-01-31T12:14:52	8	96.5
104153	2025-01-31T12:24:52	9	96.5
104154	2025-01-31T12:34:52	11.5	96.5
104155	2025-01-31T12:44:52	13	96.5
104156	2025-01-31T12:54:52	14.1	96.5
104157	2025-01-31T13:04:52	15.1	96.5
104158	2025-01-31T13:14:52	16.1	96.5
104159	2025-01-31T13:24:52	17.2	96.5
104160	2025-01-31T13:34:52	16.7	96.5
104161	2025-01-31T13:44:52	16.2	96
104162	2025-01-31T13:54:52	16.1	96.5
104163	2025-01-31T14:04:52	15.7	99
104164	2025-01-31T14:14:52	14.9	100
104165	2025-01-31T14:24:52	14.4	100
104166	2025-01-31T14:34:52	13.5	100
104167	2025-01-31T14:44:52	12.8	100
104168	2025-01-31T14:54:52	12.4	100
104169	2025-01-31T15:04:52	12.1	100
104170	2025-01-31T15:14:52	11.8	100
104171	2025-01-31T15:24:52	11.4	100
104172	2025-01-31T15:34:52	11.2	100
104173	2025-01-31T15:44:52	11	100
104174	2025-01-31T15:54:52	10.7	100
104175	2025-01-31T16:04:52	10.4	100
104176	2025-01-31T16:14:52	10.1	100
104177	2025-01-31T16:24:52	9.8	100
104178	2025-01-31T16:34:52	9.6	100
104179	2025-01-31T16:44:52	9.3	100
104180	2025-01-31T16:54:52	9	100
104181	2025-01-31T17:04:52	8.7	100
104182	2025-01-31T17:14:52	8.5	100
104183	2025-01-31T17:24:52	8.3	100
104184	2025-01-31T17:34:52	8	100
104185	2025-01-31T17:44:52	7.8	100
104186	2025-01-31T17:54:52	7.6	100
104187	2025-01-31T18:04:52	7.4	100
104188	2025-01-31T18:14:52	7.1	100
104189	2025-01-31T18:24:52	6.9	100
104190	2025-01-31T18:34:52	6.6	100
104191	2025-01-31T18:44:52	6.5	100
104192	2025-01-31T18:54:52	6.5	100
104193	2025-01-31T19:04:52	6.2	100
104194	2025-01-31T19:14:52	5.9	100
104195	2025-01-31T19:24:52	5.9	100
104196	2025-01-31T19:34:52	5.7	100
104197	2025-01-31T19:44:52	5.5	100
104198	2025-01-31T19:54:52	5.4	100
104199	2025-01-31T20:04:52	5.3	100
104200	2025-01-31T20:14:52	5.2	100
104201	2025-01-31T20:24:52	4.8	100
104202	2025-01-31T20:34:52	4.6	100
104203	2025-01-31T20:44:52	4.5	100
104204	2025-01-31T20:54:52	4.3	100
104205	2025-01-31T21:04:52	4.2	100
104206	2025-01-31T21:14:52	4.1	100
104207	2025-01-31T21:24:52	4	100
104208	2025-01-31T21:34:52	3.9	100
104209	2025-01-31T21:44:52	3.7	100
104210	2025-01-31T21:54:52	3.6	100
104211	2025-01-31T22:04:52	3.6	100
104212	2025-01-31T22:14:52	3.5	100
104213	2025-01-31T22:24:52	3.4	100
104214	2025-01-31T22:34:52	3.2	100
104215	2025-01-31T22:44:52	3.2	100
104216	2025-01-31T22:54:52	3	100
104217	2025-01-31T23:04:52	2.9	100
104218	2025-01-31T23:14:52	2.9	100
104219	2025-01-31T23:24:52	2.8	100
104220	2025-01-31T23:34:52	2.6	100
104221	2025-01-31T23:44:52	2.8	100
104222	2025-01-31T23:54:52	2.6	100
104223	2025-02-01T00:04:52	2.5	100
104224	2025-02-01T00:14:52	2.5	100
104225	2025-02-01T00:24:52	2.4	100
104226	2025-02-01T00:34:52	2.3	100
104227	2025-02-01T00:44:52	2.2	100
104228	2025-02-01T00:54:51	2.2	100
104229	2025-02-01T01:04:52	1.9	100
104230	2025-02-01T01:14:51	1.8	100
104231	2025-02-01T01:24:51	1.7	100
104232	2025-02-01T01:34:51	1.6	100
104233	2025-02-01T01:44:51	1.5	100
104234	2025-02-01T01:54:51	1.5	100
104235	2025-02-01T02:04:51	1.5	100
104236	2025-02-01T02:14:51	1.4	98
104237	2025-02-01T02:24:51	1.3	96
104238	2025-02-01T02:34:51	1.2	93
104239	2025-02-01T02:44:51	1.1	91.5
104240	2025-02-01T02:54:51	1.2	90.5
104241	2025-02-01T03:04:51	1	90
104242	2025-02-01T03:14:51	1	90
104243	2025-02-01T03:34:51	0.9	90.5
104244	2025-02-01T03:44:51	0.8	90
104245	2025-02-01T03:54:51	0.7	90.5
104246	2025-02-01T04:04:51	0.6	92
104247	2025-02-01T04:14:51	0.6	91
104248	2025-02-01T04:24:51	0.6	91.5
104249	2025-02-01T04:34:51	0.4	91.5
104250	2025-02-01T04:44:51	0.5	91.5
104251	2025-02-01T04:54:51	0.6	91
104252	2025-02-01T05:04:51	0.4	90.5
104253	2025-02-01T05:14:51	0.4	93
104254	2025-02-01T05:24:51	0.3	93
104255	2025-02-01T05:34:51	0.2	90
104256	2025-02-01T05:44:51	0.2	91
104257	2025-02-01T05:54:51	0.3	90.5
104258	2025-02-01T06:04:51	0.2	91
104259	2025-02-01T06:14:52	0.2	91
104260	2025-02-01T06:24:51	0.1	91
104261	2025-02-01T06:34:51	0.1	91.5
104262	2025-02-01T06:44:51	0.1	91.5
104263	2025-02-01T06:54:51	0	91.5
104264	2025-02-01T07:04:51	0.1	92.5
104265	2025-02-01T07:14:51	0	93
104266	2025-02-01T07:24:51	0	92.5
104267	2025-02-01T07:34:51	0	93
104268	2025-02-01T07:44:52	0	93.5
104269	2025-02-01T07:54:52	0	93
104270	2025-02-01T08:04:51	0.1	93.5
104271	2025-02-01T08:14:51	0	93
104272	2025-02-01T08:24:51	0.2	93.5
104273	2025-02-01T08:34:51	0.3	93.5
104274	2025-02-01T08:44:52	0.3	92.5
104275	2025-02-01T08:54:51	0.5	93.5
104276	2025-02-01T09:04:51	0.6	93
104277	2025-02-01T09:14:51	0.7	91.5
104278	2025-02-01T09:24:51	0.8	91.5
104279	2025-02-01T09:34:52	1	89.5
104280	2025-02-01T09:44:51	1.1	89.5
104281	2025-02-01T09:54:51	1.3	89.5
104282	2025-02-01T10:04:51	1.4	89
104283	2025-02-01T10:14:51	1.6	89
104284	2025-02-01T10:24:51	2	88
104285	2025-02-01T10:34:51	2.1	86.5
104286	2025-02-01T10:44:52	2.2	85.5
104287	2025-02-01T10:54:51	2.4	86.5
104288	2025-02-01T11:04:51	2.6	85.5
104289	2025-02-01T11:14:51	2.7	85.5
104290	2025-02-01T11:24:51	3.1	86
104291	2025-02-01T11:34:51	3.4	82.5
104292	2025-02-01T11:44:51	3.9	83
104293	2025-02-01T11:54:51	4.8	79.5
104294	2025-02-01T12:04:51	4.9	77.5
104295	2025-02-01T12:14:51	5.2	76
104296	2025-02-01T12:24:51	6.5	77
104297	2025-02-01T12:34:51	9.3	66.5
104298	2025-02-01T12:44:51	10.6	60.5
104299	2025-02-01T12:54:51	11.6	57.5
104300	2025-02-01T13:04:51	12.3	56.5
104301	2025-02-01T13:14:51	13	52
104302	2025-02-01T13:24:51	13.7	54.5
104303	2025-02-01T13:34:51	14.3	48.5
104304	2025-02-01T13:44:51	14.7	49
104305	2025-02-01T13:54:51	15.1	49
104306	2025-02-01T14:04:51	15.7	45.5
104307	2025-02-01T14:14:51	15.9	48
104308	2025-02-01T14:24:51	16.2	48.5
104309	2025-02-01T14:34:51	16.2	46.5
104310	2025-02-01T14:44:51	16.8	46
104311	2025-02-01T14:54:51	16.6	44.5
104312	2025-02-01T15:04:51	16.6	45.5
104313	2025-02-01T15:14:51	16.8	50
104314	2025-02-01T15:24:51	16.6	47
104315	2025-02-01T15:34:51	15.9	45.5
104316	2025-02-01T15:44:51	15.1	52.5
104317	2025-02-01T15:54:51	14.5	48
104318	2025-02-01T16:04:51	13.8	49.5
104319	2025-02-01T16:14:51	12.5	55.5
104320	2025-02-01T16:24:51	11.7	60.5
104321	2025-02-01T16:34:51	11.2	65
104322	2025-02-01T16:44:51	10.8	68
104323	2025-02-01T16:54:51	10.4	70.5
104324	2025-02-01T17:04:51	10.1	72.5
104325	2025-02-01T17:14:51	9.8	67.5
104326	2025-02-01T17:24:51	9.4	73.5
104327	2025-02-01T17:34:51	9.1	74
104328	2025-02-01T17:44:51	8.8	70.5
104329	2025-02-01T17:54:51	8.5	69.5
104330	2025-02-01T18:04:51	8.3	72
104331	2025-02-01T18:14:51	8.1	70.5
104332	2025-02-01T18:24:51	7.8	71
104333	2025-02-01T18:34:51	7.6	75.5
104334	2025-02-01T18:44:51	7.4	73.5
104335	2025-02-01T18:54:51	7.2	77
104336	2025-02-01T19:04:51	7	76
104337	2025-02-01T19:14:51	6.7	77
104338	2025-02-01T19:24:51	6.4	77
104339	2025-02-01T19:34:51	6.3	80
104340	2025-02-01T19:44:51	6	77.5
104341	2025-02-01T19:54:51	5.8	77.5
104342	2025-02-01T20:04:51	5.6	78.5
104343	2025-02-01T20:14:51	5.5	82
104344	2025-02-01T20:24:51	5.3	80
104345	2025-02-01T20:34:51	5.1	82.5
104346	2025-02-01T20:44:51	4.9	82.5
104347	2025-02-01T20:54:51	4.6	80
104348	2025-02-01T21:04:51	4.5	81
104349	2025-02-01T21:14:51	4.4	82.5
104350	2025-02-01T21:24:51	4.3	83.5
104351	2025-02-01T21:34:51	4.1	83.5
104352	2025-02-01T21:44:51	3.9	82.5
104353	2025-02-01T21:54:51	3.9	82.5
104354	2025-02-01T22:04:51	3.7	80
104355	2025-02-01T22:14:51	3.6	80.5
104356	2025-02-01T22:24:51	3.4	82
104357	2025-02-01T22:34:51	3.4	83
104358	2025-02-01T22:44:51	3.2	79.5
104359	2025-02-01T22:54:51	3.2	79.5
104360	2025-02-01T23:04:51	3.2	82.5
104361	2025-02-01T23:14:51	3.1	80
104362	2025-02-01T23:24:51	3	82.5
104363	2025-02-01T23:34:51	2.9	83
104364	2025-02-01T23:44:51	2.8	84
104365	2025-02-01T23:54:51	2.7	86
104366	2025-02-02T00:04:51	2.6	86
104367	2025-02-02T00:14:51	2.6	86
104368	2025-02-02T00:24:51	2.4	83.5
104369	2025-02-02T00:34:51	2.3	84
104370	2025-02-02T00:44:51	2.2	85.5
104371	2025-02-02T00:54:51	2.1	85
104372	2025-02-02T01:04:51	2.1	86
104373	2025-02-02T01:14:51	1.9	87
104374	2025-02-02T01:24:51	2	86.5
104375	2025-02-02T01:34:51	1.9	87
104376	2025-02-02T01:44:51	1.8	85.5
104377	2025-02-02T01:54:51	1.7	85.5
104378	2025-02-02T02:04:51	1.6	84
104379	2025-02-02T02:14:51	1.5	86.5
104380	2025-02-02T02:24:51	1.5	85
104381	2025-02-02T02:34:51	1.3	84.5
104382	2025-02-02T02:44:51	1.3	85.5
104383	2025-02-02T02:54:51	1.3	86.5
104384	2025-02-02T03:04:51	1.3	89
104385	2025-02-02T03:14:51	1.3	88
104386	2025-02-02T03:24:51	1.1	87.5
104387	2025-02-02T03:34:51	1.3	88.5
104388	2025-02-02T03:44:51	1.1	86.5
104389	2025-02-02T03:54:51	1.2	87.5
104390	2025-02-02T04:04:51	1.1	88
104391	2025-02-02T04:14:51	1.1	87
104392	2025-02-02T04:24:51	0.9	84.5
104393	2025-02-02T04:34:51	0.8	83
104394	2025-02-02T04:44:51	0.7	84
104395	2025-02-02T04:54:51	0.7	87.5
104396	2025-02-02T05:04:51	0.6	88
104397	2025-02-02T05:14:51	0.4	85.5
104398	2025-02-02T05:24:51	0.4	88
104399	2025-02-02T05:34:51	0.3	89
104400	2025-02-02T05:44:51	0.2	89
104401	2025-02-02T05:55:07	0.2	90
104402	2025-02-02T06:04:51	0.1	89.5
104403	2025-02-02T06:14:51	0.2	88
104404	2025-02-02T06:24:51	0.1	89.5
104405	2025-02-02T06:34:51	0.1	89
104406	2025-02-02T06:44:51	0	89
104407	2025-02-02T06:54:51	0	88
104408	2025-02-02T07:04:51	-0.1	86
104409	2025-02-02T07:14:51	-0.1	84.5
104410	2025-02-02T07:24:51	-0.1	87.5
104411	2025-02-02T07:34:51	-0.1	89.5
104412	2025-02-02T07:44:51	-0.1	88
104413	2025-02-02T07:54:51	0	89
104414	2025-02-02T08:04:51	0	89
104415	2025-02-02T08:14:51	0	89
104416	2025-02-02T08:24:51	0	90
104417	2025-02-02T08:34:51	0.1	90.5
104418	2025-02-02T08:44:51	0.2	91
104419	2025-02-02T08:54:51	0.2	90.5
104420	2025-02-02T09:04:51	0.4	90.5
104421	2025-02-02T09:14:51	0.6	90.5
104422	2025-02-02T09:24:51	0.7	90.5
104423	2025-02-02T09:34:51	0.8	89
104424	2025-02-02T09:44:51	0.9	89.5
104425	2025-02-02T09:54:51	1.1	88.5
104426	2025-02-02T10:04:51	1.1	88
104427	2025-02-02T10:14:51	1.3	88
104428	2025-02-02T10:24:51	1.5	88.5
104429	2025-02-02T10:34:51	1.7	88.5
104430	2025-02-02T10:44:51	2	88
104431	2025-02-02T10:54:51	2.2	86.5
104432	2025-02-02T11:04:51	2.4	86
104433	2025-02-02T11:14:51	2.7	84.5
104434	2025-02-02T11:24:51	2.9	82.5
104435	2025-02-02T11:34:51	3.3	83.5
104436	2025-02-02T11:44:51	3.7	82.5
104437	2025-02-02T11:54:51	4.4	78
104438	2025-02-02T12:04:51	4.3	78
104439	2025-02-02T12:14:51	4.7	77.5
104440	2025-02-02T12:24:51	5.8	74.5
104441	2025-02-02T12:34:51	8.1	68
104442	2025-02-02T12:44:51	9.6	64
104443	2025-02-02T12:54:51	10.7	64
104444	2025-02-02T13:04:51	11.8	62
104445	2025-02-02T13:14:51	12.7	55.5
104446	2025-02-02T13:24:51	13.2	54
104447	2025-02-02T13:34:51	13.9	53
104448	2025-02-02T13:44:51	14.5	53.5
104449	2025-02-02T13:54:51	14.9	51.5
104450	2025-02-02T14:04:51	15.6	49
104451	2025-02-02T14:14:51	15.7	48.5
104452	2025-02-02T14:24:51	16.2	50.5
104453	2025-02-02T14:34:51	16.2	48
104454	2025-02-02T14:44:51	16.7	52
104455	2025-02-02T14:54:51	16.8	50.5
104456	2025-02-02T15:04:51	16.9	50
104457	2025-02-02T15:14:51	16.7	46.5
104458	2025-02-02T15:24:51	16.3	50.5
104459	2025-02-02T15:34:51	15.8	54.5
104460	2025-02-02T15:44:51	15.2	49
104461	2025-02-02T15:54:51	14.4	53
104462	2025-02-02T16:04:51	13.9	58.5
104463	2025-02-02T16:14:51	13.1	58.5
104464	2025-02-02T16:24:51	12.2	59.5
104465	2025-02-02T16:34:51	11.5	63.5
104466	2025-02-02T16:44:51	11	65.5
104467	2025-02-02T16:54:51	10.4	63.5
104468	2025-02-02T17:04:51	10	67
104469	2025-02-02T17:14:51	9.6	65
104470	2025-02-02T17:24:51	9.1	65.5
104471	2025-02-02T17:34:50	8.9	67
104472	2025-02-02T17:44:50	8.5	65
104473	2025-02-02T17:54:50	8.4	65.5
104474	2025-02-02T18:04:50	7.7	65.5
104475	2025-02-02T18:14:50	7.4	66
104476	2025-02-02T18:24:50	7.2	68.5
104477	2025-02-02T18:34:50	6.7	66
104478	2025-02-02T18:44:50	6.5	67.5
104479	2025-02-02T18:54:50	6.4	72.5
104480	2025-02-02T19:04:50	6.3	73.5
104481	2025-02-02T19:14:50	6.2	77
104482	2025-02-02T19:24:50	6	76.5
104483	2025-02-02T19:34:50	5.8	78
104484	2025-02-02T19:44:50	5.5	78.5
104485	2025-02-02T19:54:50	5.5	79
104486	2025-02-02T20:04:50	5.2	79.5
104487	2025-02-02T20:14:50	5	79.5
104488	2025-02-02T20:24:50	4.9	80
104489	2025-02-02T20:34:50	4.7	80
104490	2025-02-02T20:44:50	4.6	80.5
104491	2025-02-02T20:54:50	4.3	81
104492	2025-02-02T21:04:50	4.2	81.5
104493	2025-02-02T21:14:50	4.1	81.5
104494	2025-02-02T21:24:50	4	82
104495	2025-02-02T21:34:50	3.7	81
104496	2025-02-02T21:44:50	3.7	82
104497	2025-02-02T21:54:50	3.6	82.5
104498	2025-02-02T22:04:50	3.4	82
104499	2025-02-02T22:14:50	3.3	82.5
104500	2025-02-02T22:24:50	3.1	82.5
104501	2025-02-02T22:34:50	3	83
104502	2025-02-02T22:44:50	2.9	82.5
104503	2025-02-02T22:54:50	2.8	81
104504	2025-02-02T23:04:50	2.6	83.5
104505	2025-02-02T23:14:50	2.5	83.5
104506	2025-02-02T23:24:50	2.5	83
104507	2025-02-02T23:34:50	2.3	84
104508	2025-02-02T23:54:50	2.2	85
104509	2025-02-03T00:04:50	2	85
104510	2025-02-03T00:14:50	1.9	85
104511	2025-02-03T00:44:50	1.6	85
104512	2025-02-03T00:54:50	1.5	85.5
104513	2025-02-03T01:04:50	1.5	85.5
104514	2025-02-03T01:14:50	1.4	86
104515	2025-02-03T01:24:50	1.3	86
104516	2025-02-03T01:34:50	1.2	85.5
104517	2025-02-03T01:44:50	1.1	85.5
104518	2025-02-03T01:54:50	0.9	85.5
104519	2025-02-03T02:04:50	0.9	85.5
104520	2025-02-03T02:14:50	0.8	84.5
104521	2025-02-03T02:24:50	0.7	86
104522	2025-02-03T02:34:50	0.7	85.5
104523	2025-02-03T02:44:50	0.6	82.5
104524	2025-02-03T02:54:50	0.5	81
104525	2025-02-03T03:04:50	0.4	84
104526	2025-02-03T03:14:50	0.4	86
104527	2025-02-03T03:24:50	0.3	86.5
104528	2025-02-03T03:34:50	0.2	85.5
104529	2025-02-03T03:44:50	0	82.5
104530	2025-02-03T03:54:50	0	86.5
104531	2025-02-03T04:04:50	-0.1	86.5
104532	2025-02-03T04:14:50	-0.1	87
104533	2025-02-03T04:24:50	-0.3	87
104534	2025-02-03T04:34:50	-0.3	87
104535	2025-02-03T04:44:50	-0.3	85.5
104536	2025-02-03T04:54:50	-0.4	84.5
104537	2025-02-03T05:04:50	-0.4	86.5
104538	2025-02-03T05:14:50	-0.5	86.5
104539	2025-02-03T05:24:50	-0.6	87.5
104540	2025-02-03T05:34:50	-0.6	87
104541	2025-02-03T05:44:50	-0.6	83
104542	2025-02-03T05:54:50	-0.5	85
104543	2025-02-03T06:04:50	-0.4	87
104544	2025-02-03T06:14:50	-0.3	88.5
104545	2025-02-03T06:24:50	-0.2	88
104546	2025-02-03T06:34:50	-0.1	88.5
104547	2025-02-03T06:44:50	0	88.5
104548	2025-02-03T06:54:50	0.1	88.5
104549	2025-02-03T07:04:50	0.2	88.5
104550	2025-02-03T07:14:50	0.4	88.5
104551	2025-02-03T07:24:50	0.3	88.5
104552	2025-02-03T07:34:50	0.4	88
104553	2025-02-03T07:44:50	0.5	88
104554	2025-02-03T07:54:50	0.6	88
104555	2025-02-03T08:04:50	0.7	88
104556	2025-02-03T08:14:50	0.7	87.5
104557	2025-02-03T08:24:50	0.9	88
104558	2025-02-03T08:34:50	1	87.5
104559	2025-02-03T08:44:50	1.1	86.5
104560	2025-02-03T08:54:50	1.3	87
104561	2025-02-03T09:04:50	1.3	87
104562	2025-02-03T09:14:50	1.4	87.5
104563	2025-02-03T09:24:50	1.5	87.5
104564	2025-02-03T09:34:50	1.5	85.5
104565	2025-02-03T09:44:50	1.7	86
104566	2025-02-03T09:54:50	1.7	85
104567	2025-02-03T10:04:50	1.8	86
104568	2025-02-03T10:14:50	1.8	86
104569	2025-02-03T10:24:50	2	86.5
104570	2025-02-03T10:34:50	2.1	87
104571	2025-02-03T10:44:50	2.2	87
104572	2025-02-03T10:54:50	2.2	87.5
104573	2025-02-03T11:04:50	2.3	86
104574	2025-02-03T11:14:50	2.4	84
104575	2025-02-03T11:24:50	2.4	85.5
104576	2025-02-03T11:34:50	2.6	86.5
104577	2025-02-03T11:44:50	2.7	86
104578	2025-02-03T11:54:50	2.6	85
104579	2025-02-03T12:04:50	2.7	85
104580	2025-02-03T12:14:50	2.7	84.5
104581	2025-02-03T12:24:50	2.9	85
104582	2025-02-03T12:34:50	2.9	85
104583	2025-02-03T12:44:50	3	84
104584	2025-02-03T12:54:50	3.1	84
104585	2025-02-03T13:04:50	3.1	83
104586	2025-02-03T13:14:50	3.2	83.5
104587	2025-02-03T13:24:50	3.2	83
104588	2025-02-03T13:34:50	3.5	83
104589	2025-02-03T13:44:50	3.7	81
104590	2025-02-03T13:54:50	3.7	81.5
104591	2025-02-03T14:04:50	3.5	81
104592	2025-02-03T14:14:50	3.5	81.5
104593	2025-02-03T14:24:50	3.6	80
104594	2025-02-03T14:34:50	3.6	80.5
104595	2025-02-03T14:44:50	3.5	80
104596	2025-02-03T14:54:50	3.6	80.5
104597	2025-02-03T15:04:50	3.6	82.5
104598	2025-02-03T15:14:50	3.6	81
104599	2025-02-03T15:24:50	3.6	82
104600	2025-02-03T15:34:50	3.4	83
104601	2025-02-03T15:44:50	3.5	83.5
104602	2025-02-03T15:54:50	3.4	82
104603	2025-02-03T16:04:50	3.3	82
104604	2025-02-03T16:14:50	3.2	83
104605	2025-02-03T16:24:50	3.1	84
104606	2025-02-03T16:34:50	3.1	81.5
104607	2025-02-03T16:44:50	3	82
104608	2025-02-03T16:54:50	2.9	81
104609	2025-02-03T17:04:50	2.9	81.5
104610	2025-02-03T17:14:50	2.8	82.5
104611	2025-02-03T17:24:50	2.8	83
104612	2025-02-03T17:34:50	2.9	82.5
104613	2025-02-03T17:44:50	2.9	84
104614	2025-02-03T17:54:50	2.9	82.5
104615	2025-02-03T18:04:50	2.8	84
104616	2025-02-03T18:14:50	2.7	79.5
104617	2025-02-03T18:24:50	2.8	83.5
104618	2025-02-03T18:34:50	2.8	84.5
104619	2025-02-03T18:44:50	2.8	84
104620	2025-02-03T18:54:50	2.9	84.5
104621	2025-02-03T19:04:50	2.9	84
104622	2025-02-03T19:14:50	2.8	84
104623	2025-02-03T19:24:50	2.8	84.5
104624	2025-02-03T19:34:50	2.7	84
104625	2025-02-03T19:44:50	2.8	84.5
104626	2025-02-03T19:54:50	2.7	85
104627	2025-02-03T20:04:50	2.8	84.5
104628	2025-02-03T20:14:50	2.7	83.5
104629	2025-02-03T20:24:50	2.7	84
104630	2025-02-03T20:34:50	2.5	80.5
104631	2025-02-03T20:44:50	2.4	81.5
104632	2025-02-03T20:54:50	2.4	81.5
104633	2025-02-03T21:04:50	2.3	81.5
104634	2025-02-03T21:14:50	2.1	82.5
104635	2025-02-03T21:24:50	2.2	82.5
104636	2025-02-03T21:34:50	2	82
104637	2025-02-03T21:44:50	1.6	83
104638	2025-02-03T21:54:50	1.8	83.5
104639	2025-02-03T22:04:50	1.8	84
104640	2025-02-03T22:14:50	1.8	85
104641	2025-02-03T22:24:50	1.7	84.5
104642	2025-02-03T22:34:50	1.8	85.5
104643	2025-02-03T22:44:50	1.6	85.5
104644	2025-02-03T22:54:50	1.5	86.5
104645	2025-02-03T23:04:50	1.5	86.5
104646	2025-02-03T23:14:50	1.7	86.5
104647	2025-02-03T23:24:50	1.5	86.5
104648	2025-02-03T23:34:50	1.7	86.5
104649	2025-02-03T23:44:50	1.8	87
104650	2025-02-03T23:54:50	1.8	86.5
104651	2025-02-04T00:04:50	1.7	86
104652	2025-02-04T00:14:50	1.5	87
104653	2025-02-04T00:24:50	1.7	88
104654	2025-02-04T00:34:50	1.7	86.5
104655	2025-02-04T00:44:50	1.8	86
104656	2025-02-04T00:54:50	1.8	87
104657	2025-02-04T01:04:50	1.8	87.5
104658	2025-02-04T01:14:50	1.7	86.5
104659	2025-02-04T01:24:50	1.8	88
104660	2025-02-04T01:34:50	1.8	87.5
104661	2025-02-04T01:44:50	1.8	87
104662	2025-02-04T01:54:50	1.9	86
104663	2025-02-04T02:04:50	1.8	88
104664	2025-02-04T02:14:50	1.9	86.5
104665	2025-02-04T02:24:50	1.8	87
104666	2025-02-04T02:34:50	1.9	88
104667	2025-02-04T02:44:50	1.9	88.5
104668	2025-02-04T02:54:50	2	88.5
104669	2025-02-04T03:04:50	1.9	85
104670	2025-02-04T03:14:50	2	84.5
104671	2025-02-04T03:24:50	1.9	86.5
104672	2025-02-04T03:34:50	1.9	87.5
104673	2025-02-04T03:44:50	1.9	87
104674	2025-02-04T03:54:50	2	86.5
104675	2025-02-04T04:04:50	1.6	83.5
104676	2025-02-04T04:14:50	1.6	85.5
104677	2025-02-04T04:24:50	1.8	86
104678	2025-02-04T04:34:50	1.9	87
104679	2025-02-04T04:44:50	1.9	86
104680	2025-02-04T04:54:50	1.8	85
104681	2025-02-04T05:04:50	1.9	86.5
104682	2025-02-04T05:14:50	1.9	86
104683	2025-02-04T05:24:50	1.9	86
104684	2025-02-04T05:34:50	1.8	87
104685	2025-02-04T05:44:50	1.9	86
104686	2025-02-04T05:54:50	1.9	86.5
104687	2025-02-04T06:04:50	1.9	86.5
104688	2025-02-04T06:14:50	1.8	84.5
104689	2025-02-04T06:24:50	1.8	86.5
104690	2025-02-04T06:34:50	1.9	85.5
104691	2025-02-04T06:44:50	1.8	83
104692	2025-02-04T06:54:50	1.8	85.5
104693	2025-02-04T07:04:50	1.9	86.5
104694	2025-02-04T07:14:50	2	87
104695	2025-02-04T07:24:50	1.9	87
104696	2025-02-04T07:34:50	2	85.5
104697	2025-02-04T07:44:50	2	87
104698	2025-02-04T07:54:50	2	87
104699	2025-02-04T08:04:50	2	87.5
104700	2025-02-04T08:14:50	2.1	87.5
104701	2025-02-04T08:24:50	2.2	85.5
104702	2025-02-04T08:34:50	2.1	82
104703	2025-02-04T08:44:50	2.2	83.5
104704	2025-02-04T08:54:50	2.3	83
104705	2025-02-04T09:04:50	2.2	84.5
104706	2025-02-04T09:14:50	2.4	83.5
104707	2025-02-04T09:24:50	2.4	84.5
104708	2025-02-04T09:34:50	2.5	83
104709	2025-02-04T09:44:50	2.5	84
104710	2025-02-04T09:54:50	2.7	84
104711	2025-02-04T10:14:50	2.7	83.5
104712	2025-02-04T10:24:50	2.9	84.5
104713	2025-02-04T10:34:50	2.9	84
104714	2025-02-04T10:44:50	3.1	83
104715	2025-02-04T10:54:50	3	81
104716	2025-02-04T11:04:50	3.2	83
104717	2025-02-04T11:14:50	3.3	82.5
104718	2025-02-04T11:24:50	3.3	77
104719	2025-02-04T11:34:50	3.2	76.5
104720	2025-02-04T11:44:50	3.3	76.5
104721	2025-02-04T11:54:50	3.6	78.5
104722	2025-02-04T12:04:50	3.5	78
104723	2025-02-04T12:14:50	3.7	74.5
104724	2025-02-04T12:24:50	3.8	76.5
104725	2025-02-04T12:34:50	4.4	76
104726	2025-02-04T12:44:50	4.5	73
104727	2025-02-04T12:54:50	5.1	72
104728	2025-02-04T13:04:50	5.9	73.5
104729	2025-02-04T13:14:50	7.9	67.5
104730	2025-02-04T13:24:50	9.1	61.5
104731	2025-02-04T13:34:50	10.2	60
104732	2025-02-04T13:44:50	11	56
104733	2025-02-04T13:54:50	11.9	57.5
104734	2025-02-04T14:04:50	12.4	53.5
104735	2025-02-04T14:14:50	12.6	48
104736	2025-02-04T14:24:50	12.4	47.5
104737	2025-02-04T14:34:50	12.8	52.5
104738	2025-02-04T14:44:50	12.9	45
104739	2025-02-04T14:54:50	12.8	49
104740	2025-02-04T15:04:50	12.6	51.5
104741	2025-02-04T15:14:50	11.9	47.5
104742	2025-02-04T15:24:50	12.3	51
104743	2025-02-04T15:34:50	12.4	51.5
104744	2025-02-04T15:44:50	11.7	52
104745	2025-02-04T15:54:50	11.4	53.5
104746	2025-02-04T16:04:50	10.7	54.5
104747	2025-02-04T16:14:50	9.9	60
104748	2025-02-04T16:24:50	8.9	61
104749	2025-02-04T16:34:50	8.3	61.5
104750	2025-02-04T16:44:50	7.7	67.5
104751	2025-02-04T16:54:50	7.3	70
104752	2025-02-04T17:04:50	6.9	71
104753	2025-02-04T17:14:50	6.6	72
104754	2025-02-04T17:24:50	6.4	74
104755	2025-02-04T17:34:50	5.9	66.5
104756	2025-02-04T17:44:50	5.5	68.5
104757	2025-02-04T17:54:50	5.1	69.5
104758	2025-02-04T18:04:50	4.9	74
104759	2025-02-04T18:14:50	4.7	76
104760	2025-02-04T18:24:50	4.4	76.5
104761	2025-02-04T18:34:50	4.3	75
104762	2025-02-04T18:44:50	4.1	74
104763	2025-02-04T18:54:50	3.8	75.5
104764	2025-02-04T19:04:50	3.7	76
104765	2025-02-04T19:14:50	3.4	77.5
104766	2025-02-04T19:24:50	3.4	76.5
104767	2025-02-04T19:34:50	3.2	79
104768	2025-02-04T19:44:50	3	80.5
104769	2025-02-04T19:54:50	2.9	80.5
104770	2025-02-04T20:04:50	2.8	78.5
104771	2025-02-04T20:14:50	2.5	78
104772	2025-02-04T20:24:50	2.4	80
104773	2025-02-04T20:34:50	2.3	81.5
104774	2025-02-04T20:44:50	2.1	82
104775	2025-02-04T20:54:50	1.9	82.5
104776	2025-02-04T21:04:50	1.8	83
104777	2025-02-04T21:14:50	1.7	83.5
104778	2025-02-04T21:24:50	1.7	83
104779	2025-02-04T21:34:50	1.5	83
104780	2025-02-04T21:44:50	1.4	83
104781	2025-02-04T21:54:50	1.2	83.5
104782	2025-02-04T22:04:50	1.1	83.5
104783	2025-02-04T22:14:50	1	83
104784	2025-02-04T22:24:50	1	84
104785	2025-02-04T22:34:50	0.8	82.5
104786	2025-02-04T22:44:50	0.8	82.5
104787	2025-02-04T22:54:50	0.7	84
104788	2025-02-04T23:04:50	0.6	84.5
104789	2025-02-04T23:14:50	0.4	85
104790	2025-02-04T23:24:50	0.3	85
104791	2025-02-04T23:34:50	0.2	85
104792	2025-02-04T23:44:50	0.1	85
104793	2025-02-04T23:54:50	0.1	85.5
104794	2025-02-05T00:04:50	0	85
104795	2025-02-05T00:14:50	0	84
104796	2025-02-05T00:24:50	0	84.5
104797	2025-02-05T00:34:50	-0.1	85.5
104798	2025-02-05T00:44:50	-0.3	85.5
104799	2025-02-05T00:54:50	-0.3	85.5
104800	2025-02-05T01:04:50	-0.4	86
104801	2025-02-05T01:14:50	-0.4	85.5
104802	2025-02-05T01:24:50	-0.4	86
104803	2025-02-05T01:34:50	-0.4	86
104804	2025-02-05T01:44:50	-0.6	85
104805	2025-02-05T01:54:50	-0.6	86
104806	2025-02-05T02:04:50	-0.7	85.5
104807	2025-02-05T02:14:50	-0.7	85.5
104808	2025-02-05T02:24:50	-0.7	86
104809	2025-02-05T02:34:50	-0.8	86.5
104810	2025-02-05T02:44:50	-0.9	86.5
104811	2025-02-05T02:54:50	-1	86.5
104812	2025-02-05T03:04:50	-1	84
104813	2025-02-05T03:14:50	-1.1	84
104814	2025-02-05T03:24:50	-1	86
104815	2025-02-05T03:34:50	-1.1	86
104816	2025-02-05T03:44:50	-1.2	85
104817	2025-02-05T03:54:50	-1.2	85.5
104818	2025-02-05T04:04:50	-1.3	86.5
104819	2025-02-05T04:14:50	-1.4	85.5
104820	2025-02-05T04:24:50	-1.3	86.5
104821	2025-02-05T04:34:50	-1.3	87
104822	2025-02-05T04:44:50	-1.3	87
104823	2025-02-05T04:54:50	-1.4	87.5
104824	2025-02-05T05:04:50	-1.5	87
104825	2025-02-05T05:14:50	-1.4	86
104826	2025-02-05T05:24:50	-1.6	86
104827	2025-02-05T05:34:50	-1.6	86
104828	2025-02-05T05:44:50	-1.4	86.5
104829	2025-02-05T05:54:50	-1.6	83.5
104830	2025-02-05T06:04:50	-1.9	87.5
104831	2025-02-05T06:14:50	-2	90
104832	2025-02-05T06:24:50	-2.1	92
104833	2025-02-05T06:34:50	-1.9	90.5
104834	2025-02-05T06:44:50	-2.2	94
104835	2025-02-05T06:54:50	-1.9	94
104836	2025-02-05T07:04:50	-1.9	93.5
104837	2025-02-05T07:15:08	-1.7	93
104838	2025-02-05T07:24:50	-1.9	92
104839	2025-02-05T07:34:50	-1.9	92.5
104840	2025-02-05T07:44:50	-1.7	92
104841	2025-02-05T07:54:50	-1.4	92.5
104842	2025-02-05T08:04:50	-1.6	91
104843	2025-02-05T08:14:50	-1.6	91.5
104844	2025-02-05T08:24:50	-1.5	91.5
104845	2025-02-05T08:34:50	-1.1	91.5
104846	2025-02-05T08:44:50	-0.7	91.5
104847	2025-02-05T08:54:50	-0.3	90.5
104848	2025-02-05T09:04:50	-0.3	88.5
104849	2025-02-05T09:14:50	-0.1	90
104850	2025-02-05T09:24:50	0.1	90
104851	2025-02-05T09:34:50	0.2	89.5
104852	2025-02-05T09:44:50	0.4	88.5
104853	2025-02-05T09:54:50	0.6	88
104854	2025-02-05T10:04:50	0.7	87
104855	2025-02-05T10:14:50	0.8	87.5
104856	2025-02-05T10:24:50	0.9	87.5
104857	2025-02-05T10:34:50	1	88
104858	2025-02-05T10:44:50	1.4	88
104859	2025-02-05T10:54:50	1.6	86
104860	2025-02-05T11:04:50	1.8	85.5
104861	2025-02-05T11:14:50	1.9	86
104862	2025-02-05T11:24:50	2.1	85.5
104863	2025-02-05T11:34:50	2.2	86
104864	2025-02-05T11:44:50	2.7	85
104865	2025-02-05T11:54:50	3	83.5
104866	2025-02-05T12:14:50	3.8	82
104867	2025-02-05T12:24:50	5	81
104868	2025-02-05T12:34:50	6.1	77.5
104869	2025-02-05T12:44:50	6.7	76
104870	2025-02-05T12:54:50	7.4	73
104871	2025-02-05T13:04:50	7.5	73
104872	2025-02-05T13:14:50	7.5	74
104873	2025-02-05T13:24:50	7.5	75
104874	2025-02-05T13:34:50	7.9	75.5
104875	2025-02-05T13:44:50	8.6	74
104876	2025-02-05T13:54:50	8.9	72.5
104877	2025-02-05T14:04:50	9.3	71.5
104878	2025-02-05T14:14:50	9.7	71
104879	2025-02-05T14:24:50	10.7	68.5
104880	2025-02-05T14:34:50	9.9	68
104881	2025-02-05T14:44:50	9.3	67
104882	2025-02-05T14:54:50	9	70
104883	2025-02-05T15:04:50	8.1	71.5
104884	2025-02-05T15:14:50	7.9	72.5
104885	2025-02-05T15:24:50	8.6	71.5
104886	2025-02-05T15:34:50	9	72.5
104887	2025-02-05T15:44:50	9.2	72
104888	2025-02-05T15:54:50	9.2	71
104889	2025-02-05T16:04:50	9.2	70
104890	2025-02-05T16:14:50	8.2	69
104891	2025-02-05T16:24:50	7.6	73
104892	2025-02-05T16:34:50	7.2	74.5
104893	2025-02-05T16:44:50	6.9	76.5
104894	2025-02-05T16:54:50	6.6	76
104895	2025-02-05T17:04:50	6.5	77.5
104896	2025-02-05T17:14:50	6.4	76.5
104897	2025-02-05T17:24:50	6.3	77
104898	2025-02-05T17:34:50	5.9	76
104899	2025-02-05T17:44:50	5.8	77
104900	2025-02-05T17:54:50	5.6	77.5
104901	2025-02-05T18:04:50	5.5	78.5
104902	2025-02-05T18:14:49	5.4	79
104903	2025-02-05T18:24:50	5.3	79.5
104904	2025-02-05T18:34:49	5.1	79.5
104905	2025-02-05T18:44:50	4.8	80
104906	2025-02-05T18:54:49	4.9	79.5
104907	2025-02-05T19:04:49	4.8	80
104908	2025-02-05T19:14:49	4.7	80
104909	2025-02-05T19:24:49	4.6	80.5
104910	2025-02-05T19:34:49	4.6	80
104911	2025-02-05T19:44:49	4.6	81
104912	2025-02-05T19:54:49	4.6	81
104913	2025-02-05T20:04:49	4.4	82
104914	2025-02-05T20:14:49	4.3	82
104915	2025-02-05T20:24:49	4.4	82.5
104916	2025-02-05T20:34:49	4.3	82.5
104917	2025-02-05T20:44:49	4.3	83.5
104918	2025-02-05T20:54:49	4.2	83.5
104919	2025-02-05T21:04:49	4.2	86
104920	2025-02-05T21:14:49	4.1	88
104921	2025-02-05T21:24:49	3.9	89.5
104922	2025-02-05T21:34:49	3.9	91.5
104923	2025-02-05T21:44:49	3.8	93
104924	2025-02-05T21:54:49	3.8	90.5
104925	2025-02-05T22:04:49	3.7	89.5
104926	2025-02-05T22:14:49	3.8	89.5
104927	2025-02-05T22:24:49	3.7	90
104928	2025-02-05T22:34:50	3.7	93
104929	2025-02-05T22:44:49	3.6	93
104930	2025-02-05T22:54:49	3.5	94.5
104931	2025-02-05T23:04:49	3.5	96
104932	2025-02-05T23:14:49	3.5	96.5
104933	2025-02-05T23:24:49	3.4	98
104934	2025-02-05T23:34:49	3.3	97
104935	2025-02-05T23:44:49	3.3	97
104936	2025-02-05T23:54:49	3.3	97.5
104937	2025-02-06T00:04:49	3.1	96.5
104938	2025-02-06T00:14:49	3.2	98.5
104939	2025-02-06T00:24:49	3.2	98.5
104940	2025-02-06T00:34:49	3.1	98
104941	2025-02-06T00:44:49	3.1	99
104942	2025-02-06T00:54:49	3.1	99.5
104943	2025-02-06T01:04:49	3.1	100
104944	2025-02-06T01:14:49	3	100
104945	2025-02-06T01:24:49	2.9	99
104946	2025-02-06T01:34:49	2.9	99.5
104947	2025-02-06T01:44:49	2.9	99
104948	2025-02-06T01:54:49	2.9	100
104949	2025-02-06T02:04:49	2.9	99.5
104950	2025-02-06T02:14:49	2.9	99.5
104951	2025-02-06T02:24:49	2.8	99.5
104952	2025-02-06T02:34:49	2.9	100
104953	2025-02-06T02:44:49	2.9	100
104954	2025-02-06T02:54:49	2.9	100
104955	2025-02-06T03:04:49	2.9	100
104956	2025-02-06T03:14:49	2.9	100
104957	2025-02-06T03:24:49	2.7	100
104958	2025-02-06T03:34:49	2.8	100
104959	2025-02-06T03:44:49	2.8	100
104960	2025-02-06T03:54:49	2.8	100
104961	2025-02-06T04:04:49	2.8	100
104962	2025-02-06T04:14:49	2.8	100
104963	2025-02-06T04:24:49	2.8	100
104964	2025-02-06T04:34:49	2.8	100
104965	2025-02-06T04:44:49	2.8	100
104966	2025-02-06T04:54:49	3	100
104967	2025-02-06T05:04:49	2.9	100
104968	2025-02-06T05:14:49	3	100
104969	2025-02-06T05:24:49	2.9	100
104970	2025-02-06T05:34:49	3.1	100
104971	2025-02-06T05:44:49	2.9	100
104972	2025-02-06T05:54:49	3	99.5
104973	2025-02-06T06:04:49	3	98.5
104974	2025-02-06T06:14:49	3	98.5
104975	2025-02-06T06:24:49	3.1	98
104976	2025-02-06T06:34:49	3	97.5
104977	2025-02-06T06:44:49	3	97.5
104978	2025-02-06T06:54:49	3	97.5
104979	2025-02-06T07:04:49	3	97.5
104980	2025-02-06T07:14:49	2.9	99
104981	2025-02-06T07:24:49	2.9	99.5
104982	2025-02-06T07:34:49	2.8	98
104983	2025-02-06T07:44:49	2.9	99
104984	2025-02-06T07:54:49	2.9	98.5
104985	2025-02-06T08:04:49	3	100
104986	2025-02-06T08:14:49	3	100
104987	2025-02-06T08:24:49	3	99
104988	2025-02-06T08:34:49	2.9	98
104989	2025-02-06T08:44:49	3	96.5
104990	2025-02-06T08:54:49	3.1	97
104991	2025-02-06T09:04:49	3.1	97.5
104992	2025-02-06T09:14:49	3.2	96
104993	2025-02-06T09:24:49	3.3	96.5
104994	2025-02-06T09:34:49	3.3	97
104995	2025-02-06T09:44:49	3.4	97
104996	2025-02-06T09:54:49	3.5	96.5
104997	2025-02-06T10:04:49	3.4	95
104998	2025-02-06T10:14:49	3.5	96
104999	2025-02-06T10:24:49	3.6	95
105000	2025-02-06T10:34:49	3.7	96
105001	2025-02-06T10:44:49	3.8	96
105002	2025-02-06T10:54:49	3.7	93.5
105003	2025-02-06T11:04:49	3.8	96
105004	2025-02-06T11:14:49	3.9	95
105005	2025-02-06T11:24:49	4	96
105006	2025-02-06T11:34:49	4.1	94
105007	2025-02-06T11:44:49	4.2	93
105008	2025-02-06T11:54:49	4.1	93.5
105009	2025-02-06T12:04:49	4.2	92.5
105010	2025-02-06T12:14:49	4.2	93
105011	2025-02-06T12:24:49	4.1	91.5
105012	2025-02-06T12:34:49	4.2	91.5
105013	2025-02-06T12:44:49	4.3	92.5
105014	2025-02-06T12:54:49	4.1	92
105015	2025-02-06T13:04:49	4.3	93.5
105016	2025-02-06T13:14:49	4.3	92
105017	2025-02-06T13:24:49	4.4	91
105018	2025-02-06T13:34:49	4.4	90.5
105019	2025-02-06T13:44:49	4.4	87.5
105020	2025-02-06T13:54:49	4.5	90
105021	2025-02-06T14:04:49	4.5	89
105022	2025-02-06T14:14:49	4.4	87.5
105023	2025-02-06T14:24:49	4.5	87
105024	2025-02-06T14:34:49	4.5	90
105025	2025-02-06T14:44:49	4.4	86
105026	2025-02-06T14:54:49	4.5	88.5
105027	2025-02-06T15:04:49	4.5	89.5
105028	2025-02-06T15:14:49	4.4	92.5
105029	2025-02-06T15:24:49	4.4	89
105030	2025-02-06T15:34:49	4.4	90.5
105031	2025-02-06T15:44:49	4.3	87
105032	2025-02-06T15:54:49	4.4	90.5
105033	2025-02-06T16:04:49	4.4	91.5
105034	2025-02-06T16:14:49	4.4	90
105035	2025-02-06T16:24:49	4.3	89
105036	2025-02-06T16:34:49	4.2	91
105037	2025-02-06T16:44:49	4.3	90
105038	2025-02-06T16:54:49	4.3	92
105039	2025-02-06T17:04:49	4.3	92
105040	2025-02-06T17:14:49	4.3	92.5
105041	2025-02-06T17:24:49	4.2	90.5
105042	2025-02-06T17:34:49	4.2	89.5
105043	2025-02-06T17:44:49	4.3	87
105044	2025-02-06T17:54:49	4.1	90
105045	2025-02-06T18:04:49	4.1	89.5
105046	2025-02-06T18:14:49	4	88
105047	2025-02-06T18:24:49	4.1	89.5
105048	2025-02-06T18:34:49	4.1	86.5
105049	2025-02-06T18:44:49	4.2	85
105050	2025-02-06T18:54:49	4.1	86.5
105051	2025-02-06T19:04:49	4.1	84.5
105052	2025-02-06T19:14:49	4.1	84.5
105053	2025-02-06T19:24:49	4.2	88
105054	2025-02-06T19:34:49	4.1	87.5
105055	2025-02-06T19:44:49	4.1	85.5
105056	2025-02-06T19:54:49	4	85
105057	2025-02-06T20:04:49	4.1	84.5
105058	2025-02-06T20:14:49	4.1	84.5
105059	2025-02-06T20:24:49	4.1	85.5
105060	2025-02-06T20:34:49	4.2	85
105061	2025-02-06T20:44:49	4.1	85.5
105062	2025-02-06T20:54:49	4.1	84
105063	2025-02-06T21:04:49	4.1	85
105064	2025-02-06T21:14:49	4.1	82
105065	2025-02-06T21:24:49	4.1	82
105066	2025-02-06T21:34:49	4.1	84
105067	2025-02-06T21:44:49	4.1	82
105068	2025-02-06T21:54:49	4	81.5
105069	2025-02-06T22:04:49	4.1	81.5
105070	2025-02-06T22:14:49	4	82.5
105071	2025-02-06T22:24:49	4.1	81.5
105072	2025-02-06T22:34:49	4	83
105073	2025-02-06T22:44:49	4.1	84
105074	2025-02-06T22:54:49	4.2	82
105075	2025-02-06T23:04:49	4	81.5
105076	2025-02-06T23:14:49	4.1	82
105077	2025-02-06T23:24:49	4	81
105078	2025-02-06T23:34:49	4	81
105079	2025-02-06T23:44:49	4	77.5
105080	2025-02-06T23:54:49	4	77.5
105081	2025-02-07T00:04:49	4.1	80
105082	2025-02-07T00:14:49	4.2	81.5
105083	2025-02-07T00:24:49	4.1	77.5
105084	2025-02-07T00:34:49	4.2	81.5
105085	2025-02-07T00:44:49	4.2	81.5
105086	2025-02-07T00:54:49	4.2	83
105087	2025-02-07T01:04:49	4.2	80.5
105088	2025-02-07T01:14:49	4.1	81.5
105089	2025-02-07T01:24:49	4.2	84
105090	2025-02-07T01:34:49	4.2	83.5
105091	2025-02-07T01:44:49	4.2	82.5
105092	2025-02-07T01:54:49	4.1	82.5
105093	2025-02-07T02:04:49	4.1	81.5
105094	2025-02-07T02:14:49	4.1	82
105095	2025-02-07T02:24:49	4.1	81.5
105096	2025-02-07T02:34:49	4.1	81.5
105097	2025-02-07T02:44:49	4.2	81
105098	2025-02-07T02:54:49	4.2	82.5
105099	2025-02-07T03:04:49	4.1	81
105100	2025-02-07T03:14:49	4.1	80
105101	2025-02-07T03:24:49	4.1	79.5
105102	2025-02-07T03:34:49	4.2	77
105103	2025-02-07T03:44:49	4.2	80
105104	2025-02-07T03:54:49	4.1	78.5
105105	2025-02-07T04:04:49	4.2	78
105106	2025-02-07T04:14:49	4.2	79
105107	2025-02-07T04:24:49	4.1	79.5
105108	2025-02-07T04:34:49	4.1	78
105109	2025-02-07T04:44:49	4.3	77
105110	2025-02-07T04:54:49	4.2	79
105111	2025-02-07T05:04:49	4.2	77
105112	2025-02-07T05:14:49	4.3	79.5
105113	2025-02-07T05:24:49	4.2	79
105114	2025-02-07T05:34:49	4.3	78.5
105115	2025-02-07T05:44:49	4.3	79
105116	2025-02-07T05:54:49	4.4	79.5
105117	2025-02-07T06:04:49	4.4	80
105118	2025-02-07T06:14:49	4.4	80.5
105119	2025-02-07T06:24:49	4.3	78.5
105120	2025-02-07T06:34:49	4.3	80
105121	2025-02-07T06:44:49	4.2	80
105122	2025-02-07T06:54:49	4.2	78.5
105123	2025-02-07T07:04:49	4.2	79.5
105124	2025-02-07T07:14:49	4.2	80
105125	2025-02-07T07:24:49	4.1	78
105126	2025-02-07T07:34:49	4.3	78
105127	2025-02-07T07:44:49	4.4	78.5
105128	2025-02-07T07:54:49	4.4	77.5
105129	2025-02-07T08:04:49	4.4	76.5
105130	2025-02-07T08:14:49	4.4	77
105131	2025-02-07T08:24:49	4.5	75.5
105132	2025-02-07T08:34:49	4.7	75.5
105133	2025-02-07T08:44:49	4.7	76
105134	2025-02-07T08:54:49	4.9	76
105135	2025-02-07T09:04:49	4.9	75
105136	2025-02-07T09:14:49	5	74.5
105137	2025-02-07T09:24:49	5.1	73.5
105138	2025-02-07T09:34:49	5.2	73
105139	2025-02-07T09:44:49	5.3	72
105140	2025-02-07T09:54:49	5.4	72.5
105141	2025-02-07T10:04:49	5.6	72
105142	2025-02-07T10:14:49	5.8	71
105143	2025-02-07T10:24:49	5.9	71.5
105144	2025-02-07T10:34:49	6	71
105145	2025-02-07T10:44:49	6.1	70
105146	2025-02-07T10:54:49	6.4	71.5
105147	2025-02-07T11:04:49	6.7	70.5
105148	2025-02-07T11:14:49	7	71
105149	2025-02-07T11:24:49	7	69.5
105150	2025-02-07T11:34:49	7.1	72
105151	2025-02-07T11:44:49	7.3	69.5
105152	2025-02-07T11:54:49	7.6	69
105153	2025-02-07T12:04:49	8	69
105154	2025-02-07T12:14:48	8.2	67
105155	2025-02-07T12:24:49	8.5	67
105156	2025-02-07T12:34:48	9.1	67.5
105157	2025-02-07T12:44:48	9.2	66
105158	2025-02-07T12:54:48	9.2	65
105159	2025-02-07T13:04:48	9.3	66.5
105160	2025-02-07T13:14:48	9.1	63.5
105161	2025-02-07T13:24:48	9.4	66
105162	2025-02-07T13:34:48	9.8	64
105163	2025-02-07T13:44:48	10	61
105164	2025-02-07T13:54:48	10.5	61.5
105165	2025-02-07T14:04:48	11.4	61
105166	2025-02-07T14:14:48	11.8	56.5
105167	2025-02-07T14:24:48	12.3	58.5
105168	2025-02-07T14:34:48	12.7	56
105169	2025-02-07T14:44:48	12.7	54
105170	2025-02-07T14:54:48	12.4	56
105171	2025-02-07T15:04:48	12.9	54.5
105172	2025-02-07T15:14:48	13	54.5
105173	2025-02-07T15:24:48	12.5	52
105174	2025-02-07T15:34:48	12.1	54.5
105175	2025-02-07T15:44:48	11.1	57.5
105176	2025-02-07T15:54:48	10.3	60
105177	2025-02-07T16:04:48	9.7	58.5
105178	2025-02-07T16:14:48	9.1	60
105179	2025-02-07T16:24:48	8.7	61.5
105180	2025-02-07T16:34:48	8.3	64
105181	2025-02-07T16:44:48	7.9	64.5
105182	2025-02-07T16:54:48	7.5	64.5
105183	2025-02-07T17:04:48	7.3	65.5
105184	2025-02-07T17:14:48	7.1	65
105185	2025-02-07T17:24:48	6.8	68
105186	2025-02-07T17:34:48	6.8	69
105187	2025-02-07T17:44:48	6.5	69.5
105188	2025-02-07T17:54:48	6.4	69
105189	2025-02-07T18:04:48	6.2	69.5
105190	2025-02-07T18:14:48	6	71
105191	2025-02-07T18:24:48	5.8	70
105192	2025-02-07T18:34:48	5.7	70.5
105193	2025-02-07T18:44:48	5.6	71.5
105194	2025-02-07T18:54:48	5.6	74
105195	2025-02-07T19:04:48	5.4	72
105196	2025-02-07T19:14:48	5.3	74
105197	2025-02-07T19:24:48	5.3	76.5
105198	2025-02-07T19:34:48	5.4	76.5
105199	2025-02-07T19:44:48	5.3	78.5
105200	2025-02-07T19:54:48	5.3	77
105201	2025-02-07T20:04:48	5.1	74.5
105202	2025-02-07T20:14:48	4.9	73.5
105203	2025-02-07T20:24:48	4.7	75
105204	2025-02-07T20:34:48	4.7	75
105205	2025-02-07T20:44:48	4.6	75
105206	2025-02-07T20:54:48	4.7	76
105207	2025-02-07T21:04:48	4.6	76.5
105208	2025-02-07T21:14:48	4.5	77.5
105209	2025-02-07T21:24:48	4.3	76
105210	2025-02-07T21:34:48	4.2	77
105211	2025-02-07T21:54:48	3.9	76.5
105212	2025-02-07T22:04:48	3.8	78
105213	2025-02-07T22:14:48	3.9	79.5
105214	2025-02-07T22:24:48	3.8	79
105215	2025-02-07T22:34:48	3.8	79
105216	2025-02-07T22:44:48	3.7	80
105217	2025-02-07T22:54:48	3.6	79
105218	2025-02-07T23:04:48	3.6	81.5
105219	2025-02-07T23:14:48	3.6	80.5
105220	2025-02-07T23:24:48	3.7	81.5
105221	2025-02-07T23:34:48	3.5	81
105222	2025-02-07T23:44:48	3.2	81
105223	2025-02-07T23:54:48	3.1	80.5
105224	2025-02-08T00:04:48	3.1	81.5
105225	2025-02-08T00:14:48	3	82.5
105226	2025-02-08T00:24:48	2.9	83.5
105227	2025-02-08T00:34:48	2.9	83.5
105228	2025-02-08T00:44:48	2.9	83
105229	2025-02-08T00:54:48	2.7	80.5
105230	2025-02-08T01:04:48	2.8	81
105231	2025-02-08T01:14:48	2.8	82
105232	2025-02-08T01:24:48	2.8	82
105233	2025-02-08T01:34:48	2.6	84
105234	2025-02-08T01:44:48	2.7	84
105235	2025-02-08T01:54:48	2.6	84
105236	2025-02-08T02:04:48	2.6	84
105237	2025-02-08T02:14:48	2.5	85
105238	2025-02-08T02:24:48	2.4	84.5
105239	2025-02-08T02:34:48	2.4	84.5
105240	2025-02-08T02:44:48	2.4	83
105241	2025-02-08T02:54:48	2.3	83.5
105242	2025-02-08T03:04:48	2.3	83.5
105243	2025-02-08T03:14:48	2.2	83
105244	2025-02-08T03:24:48	2.2	82.5
105245	2025-02-08T03:34:48	2.1	84
105246	2025-02-08T03:44:48	2	83.5
105247	2025-02-08T03:54:48	2.1	83.5
105248	2025-02-08T04:04:48	2	83
105249	2025-02-08T04:14:48	2.1	83.5
105250	2025-02-08T04:24:48	2.1	85
105251	2025-02-08T04:34:48	2.1	84
105252	2025-02-08T04:44:48	2	82.5
105253	2025-02-08T04:54:48	1.7	82.5
105254	2025-02-08T05:04:48	1.6	84
105255	2025-02-08T05:14:48	1.6	84.5
105256	2025-02-08T05:24:48	1.6	85.5
105257	2025-02-08T05:34:48	1.4	86.5
105258	2025-02-08T05:44:48	1.4	87
105259	2025-02-08T05:54:48	1.3	87
105260	2025-02-08T06:04:48	1.3	87
105261	2025-02-08T06:14:48	1.4	87.5
105262	2025-02-08T06:24:48	1.2	87.5
105263	2025-02-08T06:34:48	1.2	88
105264	2025-02-08T06:44:48	1	88
105265	2025-02-08T06:54:48	0.9	88
105266	2025-02-08T07:04:48	0.9	88
105267	2025-02-08T07:14:48	0.8	87.5
105268	2025-02-08T07:24:48	0.9	88
105269	2025-02-08T07:34:48	0.8	88
105270	2025-02-08T07:44:48	0.9	87.5
105271	2025-02-08T07:54:48	1.1	87.5
105272	2025-02-08T08:04:48	1.1	87
105273	2025-02-08T08:14:48	1.3	88
105274	2025-02-08T08:24:48	1.4	88
105275	2025-02-08T08:34:48	1.4	88
105276	2025-02-08T08:44:48	1.5	87.5
105277	2025-02-08T08:54:48	1.7	87
105278	2025-02-08T09:04:48	2	86
105279	2025-02-08T09:14:48	1.9	85.5
105280	2025-02-08T09:24:48	2.1	84.5
105281	2025-02-08T09:34:48	2.1	85
105282	2025-02-08T09:44:48	2.1	85.5
105283	2025-02-08T09:54:48	2.3	86
105284	2025-02-08T10:04:48	2.5	86.5
105285	2025-02-08T10:14:48	2.6	86
105286	2025-02-08T10:24:48	2.8	86
105287	2025-02-08T10:34:48	3.1	85
105288	2025-02-08T10:44:48	3.5	81.5
105289	2025-02-08T10:54:48	3.7	82
105290	2025-02-08T11:04:48	4.1	82
105291	2025-02-08T11:14:48	4.4	80.5
105292	2025-02-08T11:24:48	4.8	80.5
105293	2025-02-08T11:34:48	5.4	79
105294	2025-02-08T11:44:48	5.9	76
105295	2025-02-08T11:54:48	6.4	75
105296	2025-02-08T12:04:48	6.7	72.5
105297	2025-02-08T12:14:48	7.1	70.5
105298	2025-02-08T12:24:48	8.2	68
105299	2025-02-08T12:34:48	10.2	62.5
105300	2025-02-08T12:44:48	11.4	60.5
105301	2025-02-08T12:54:48	12.6	55.5
105302	2025-02-08T13:04:48	13.2	54
105303	2025-02-08T13:14:48	13.9	53.5
105304	2025-02-08T13:24:48	14.4	51
105305	2025-02-08T13:34:48	14.9	48.5
105306	2025-02-08T13:44:48	15.5	49.5
105307	2025-02-08T13:54:48	16	46.5
105308	2025-02-08T14:04:48	16.2	47.5
105309	2025-02-08T14:14:48	16.7	44
105310	2025-02-08T14:24:48	17.1	46
105311	2025-02-08T14:34:48	17.5	46
105312	2025-02-08T14:44:48	17.5	43
105313	2025-02-08T14:54:48	17.4	43.5
105314	2025-02-08T15:04:48	17.3	46
105315	2025-02-08T15:14:48	16.4	47
105316	2025-02-08T15:24:48	15.9	49.5
105317	2025-02-08T15:34:48	15	54
105318	2025-02-08T15:44:48	14.7	56
105319	2025-02-08T15:54:48	14.4	51
105320	2025-02-08T16:04:48	14.2	54
105321	2025-02-08T16:14:48	13.5	52
105322	2025-02-08T16:24:48	12.4	56.5
105323	2025-02-08T16:34:48	12	58.5
105324	2025-02-08T16:44:48	11.6	62.5
105325	2025-02-08T16:54:48	11.2	62.5
105326	2025-02-08T17:04:48	10.6	60.5
105327	2025-02-08T17:14:48	10.1	61.5
105328	2025-02-08T17:24:48	9.8	61.5
105329	2025-02-08T17:34:48	9.5	65.5
105330	2025-02-08T17:44:48	9.4	69
105331	2025-02-08T17:54:47	9.2	67
105332	2025-02-08T18:04:48	8.7	66.5
105333	2025-02-08T18:14:47	8.5	68
105334	2025-02-08T18:24:47	8.2	66.5
105335	2025-02-08T18:34:47	8	67
105336	2025-02-08T18:44:47	7.9	69
105337	2025-02-08T18:54:47	7.9	70
105338	2025-02-08T19:04:47	7.6	71
105339	2025-02-08T19:14:47	7.4	72.5
105340	2025-02-08T19:24:47	7.1	69.5
105341	2025-02-08T19:34:47	6.4	71
105342	2025-02-08T19:44:47	6.4	73
105343	2025-02-08T19:54:47	6.3	73
105344	2025-02-08T20:04:47	6.2	74.5
105345	2025-02-08T20:14:47	6.2	75
105346	2025-02-08T20:24:47	5.9	74.5
105347	2025-02-08T20:34:47	5.8	77
105348	2025-02-08T20:44:47	5.7	77.5
105349	2025-02-08T20:54:48	5.6	77
105350	2025-02-08T21:04:47	5.5	78
105351	2025-02-08T21:14:47	5.3	77.5
105352	2025-02-08T21:24:47	5.2	76
105353	2025-02-08T21:34:47	5	78
105354	2025-02-08T21:44:47	4.8	78
105355	2025-02-08T21:54:47	4.7	79
105356	2025-02-08T22:04:47	4.7	79
105357	2025-02-08T22:14:47	4.6	79.5
105358	2025-02-08T22:24:47	4.5	78.5
105359	2025-02-08T22:34:47	4.5	80
105360	2025-02-08T22:44:47	4.4	80
105361	2025-02-08T22:54:47	4.4	80
105362	2025-02-08T23:04:47	4.4	80.5
105363	2025-02-08T23:14:47	4.3	79
105364	2025-02-08T23:24:47	4.2	78
105365	2025-02-08T23:34:47	4.2	77.5
105366	2025-02-08T23:44:47	4.1	80.5
105367	2025-02-08T23:54:47	3.9	80.5
105368	2025-02-09T00:14:47	3.8	81.5
105369	2025-02-09T00:24:47	3.5	82
105370	2025-02-09T00:34:47	3.4	83
105371	2025-02-09T00:44:47	3.2	83
105372	2025-02-09T01:04:47	3.1	81.5
105373	2025-02-09T01:14:47	3	82.5
105374	2025-02-09T01:24:47	2.9	83
105375	2025-02-09T01:34:47	2.8	83
105376	2025-02-09T01:44:47	2.7	83.5
105377	2025-02-09T01:54:47	2.5	84
105378	2025-02-09T02:04:47	2.5	84
105379	2025-02-09T02:14:47	2.4	84.5
105380	2025-02-09T02:24:47	2.2	83.5
105381	2025-02-09T02:34:47	2.2	81
105382	2025-02-09T02:44:47	2.1	83.5
105383	2025-02-09T02:54:47	2.1	84
105384	2025-02-09T03:04:47	2.1	85
105385	2025-02-09T03:14:47	1.9	83.5
105386	2025-02-09T03:24:47	1.9	84.5
105387	2025-02-09T03:34:47	2	84.5
105388	2025-02-09T03:44:47	1.8	85.5
105389	2025-02-09T03:54:47	1.8	85.5
105390	2025-02-09T04:04:47	1.7	85.5
105391	2025-02-09T04:14:47	1.6	86.5
105392	2025-02-09T04:24:47	1.7	86.5
105393	2025-02-09T04:34:47	1.6	86.5
105394	2025-02-09T04:44:47	1.7	86.5
105395	2025-02-09T04:54:47	1.6	87.5
105396	2025-02-09T05:04:47	1.4	87.5
105397	2025-02-09T05:14:47	1.4	87.5
105398	2025-02-09T05:24:47	1.4	87.5
105399	2025-02-09T05:34:47	1.3	87.5
105400	2025-02-09T05:44:47	1.3	88
105401	2025-02-09T05:54:47	1.3	88
105402	2025-02-09T06:04:47	1.3	87.5
105403	2025-02-09T06:14:47	1.4	87.5
105404	2025-02-09T06:24:47	1.5	88
105405	2025-02-09T06:34:47	1.3	88
105406	2025-02-09T06:44:47	1.2	88.5
105407	2025-02-09T06:54:47	1.1	88.5
105408	2025-02-09T07:04:47	1.2	88
105409	2025-02-09T07:14:47	1.1	88.5
105410	2025-02-09T07:24:47	1.1	88.5
105411	2025-02-09T07:34:47	1.1	88.5
105412	2025-02-09T07:44:47	1.1	89
105413	2025-02-09T07:54:47	1.1	89
105414	2025-02-09T08:04:47	1.1	89
105415	2025-02-09T08:14:47	1.1	89
105416	2025-02-09T08:24:47	1.2	89
105417	2025-02-09T08:34:47	1.5	89
105418	2025-02-09T08:44:47	1.9	88.5
105419	2025-02-09T08:54:47	2.3	88.5
105420	2025-02-09T09:04:47	2.6	88
105421	2025-02-09T09:14:47	2.7	88
105422	2025-02-09T09:24:47	3	87.5
105423	2025-02-09T09:34:47	3.2	87.5
105424	2025-02-09T09:44:47	3.3	84.5
105425	2025-02-09T09:54:47	3.3	84.5
105426	2025-02-09T10:04:47	3.4	85.5
105427	2025-02-09T10:14:47	3.5	86.5
105428	2025-02-09T10:24:47	3.9	85.5
105429	2025-02-09T10:34:47	4.1	84.5
105430	2025-02-09T10:44:47	4.2	83.5
105431	2025-02-09T10:54:47	4.4	84
105432	2025-02-09T11:04:47	4.6	84
105433	2025-02-09T11:14:47	4.8	84.5
105434	2025-02-09T11:24:47	5.1	84.5
105435	2025-02-09T11:34:47	5.7	83
105436	2025-02-09T11:44:47	6	82
105437	2025-02-09T11:54:47	6.4	82
105438	2025-02-09T12:04:47	6.8	80
105439	2025-02-09T12:14:47	7.1	78
105440	2025-02-09T12:24:47	8	76
105441	2025-02-09T12:34:47	9.5	69
105442	2025-02-09T12:44:47	10.1	68
105443	2025-02-09T12:54:47	11.1	64.5
105444	2025-02-09T13:04:47	11.5	61
105445	2025-02-09T13:14:47	11.2	62
105446	2025-02-09T13:24:47	11.3	62
105447	2025-02-09T13:34:47	11.2	62.5
105448	2025-02-09T13:44:47	12.3	60.5
105449	2025-02-09T13:54:47	12.2	60.5
105450	2025-02-09T14:04:47	11.4	64
105451	2025-02-09T14:14:47	10.5	66.5
105452	2025-02-09T14:24:47	10.4	66.5
105453	2025-02-09T14:34:47	10.4	67.5
105454	2025-02-09T14:44:47	10.1	67
105455	2025-02-09T14:54:47	10.1	66
105456	2025-02-09T15:04:47	9.8	69
105457	2025-02-09T15:14:47	9.8	70.5
105458	2025-02-09T15:24:47	9.6	72
105459	2025-02-09T15:34:47	9.6	73.5
105460	2025-02-09T15:44:47	9.4	74.5
105461	2025-02-09T15:54:47	9.4	75
105462	2025-02-09T16:04:47	9.3	75.5
105463	2025-02-09T16:14:47	9	76
105464	2025-02-09T16:24:47	9	76
105465	2025-02-09T16:34:47	8.8	75.5
105466	2025-02-09T16:44:47	8.6	75
105467	2025-02-09T16:54:47	8.4	76
105468	2025-02-09T17:04:47	8.3	75.5
105469	2025-02-09T17:14:47	8.2	76.5
105470	2025-02-09T17:24:47	8.1	77.5
105471	2025-02-09T17:34:47	8	77.5
105472	2025-02-09T17:44:47	7.7	77
105473	2025-02-09T17:54:47	7.7	78.5
105474	2025-02-09T18:04:47	7.6	78.5
105475	2025-02-09T18:14:47	7.5	79
105476	2025-02-09T18:24:47	7.3	80
105477	2025-02-09T18:34:47	7.1	77.5
105478	2025-02-09T18:44:47	7.1	78.5
105479	2025-02-09T18:54:47	7.1	78
105480	2025-02-09T19:04:47	6.9	77.5
105481	2025-02-09T19:14:47	6.8	79
105482	2025-02-09T19:24:47	6.7	78.5
105483	2025-02-09T19:34:47	6.6	78
105484	2025-02-09T19:45:04	6.5	76.5
105485	2025-02-09T19:54:47	6.5	77
105486	2025-02-09T20:04:47	6.5	77.5
105487	2025-02-09T20:14:47	6.4	77.5
105488	2025-02-09T20:24:47	6.3	77.5
105489	2025-02-09T20:34:47	6.1	76.5
105490	2025-02-09T20:44:47	6.2	77.5
105491	2025-02-09T20:54:47	6	78
105492	2025-02-09T21:04:47	6	78.5
105493	2025-02-09T21:14:47	5.9	78.5
105494	2025-02-09T21:24:47	5.9	79
105495	2025-02-09T21:34:47	5.7	79
105496	2025-02-09T21:44:47	5.8	78
105497	2025-02-09T21:54:47	5.7	79
105498	2025-02-09T22:04:47	5.4	80
105499	2025-02-09T22:14:47	5.4	80
105500	2025-02-09T22:24:47	5.2	80
105501	2025-02-09T22:34:47	5.1	80.5
105502	2025-02-09T22:44:47	5.1	81.5
105503	2025-02-09T22:54:47	4.9	81
105504	2025-02-09T23:04:47	4.9	80
105505	2025-02-09T23:14:47	4.8	81
105506	2025-02-09T23:24:47	4.7	81
105507	2025-02-09T23:34:47	4.7	82.5
105508	2025-02-09T23:44:47	4.7	82.5
105509	2025-02-09T23:54:47	4.6	83.5
105510	2025-02-10T00:04:47	4.6	84
105511	2025-02-10T00:14:47	4.6	83.5
105512	2025-02-10T00:24:47	4.6	83
105513	2025-02-10T00:34:47	4.2	82.5
105514	2025-02-10T00:44:47	4.2	82.5
105515	2025-02-10T00:54:47	4.2	85
105516	2025-02-10T01:04:47	4.2	83.5
105517	2025-02-10T01:14:47	4.1	84
105518	2025-02-10T01:24:47	4.1	84
105519	2025-02-10T01:34:47	3.9	84.5
105520	2025-02-10T01:44:47	3.8	85
105521	2025-02-10T01:54:47	3.7	83.5
105522	2025-02-10T02:04:47	3.7	85
105523	2025-02-10T02:14:47	3.6	84
105524	2025-02-10T02:24:47	3.7	85.5
105525	2025-02-10T02:34:47	3.7	85
105526	2025-02-10T02:44:47	3.8	84
105527	2025-02-10T02:54:47	3.7	84
105528	2025-02-10T03:04:47	3.7	83.5
105529	2025-02-10T03:14:47	3.7	83
105530	2025-02-10T03:24:47	3.7	84.5
105531	2025-02-10T03:34:47	3.7	85
105532	2025-02-10T03:44:47	3.5	85
105533	2025-02-10T03:54:47	3.6	85.5
105534	2025-02-10T04:04:47	3.5	85.5
105535	2025-02-10T04:14:47	3.4	85
105536	2025-02-10T04:24:47	3.4	85.5
105537	2025-02-10T04:34:47	3.5	86
105538	2025-02-10T04:44:47	3.5	85.5
105539	2025-02-10T04:54:47	3.5	85
105540	2025-02-10T05:04:47	3.4	83.5
105541	2025-02-10T05:14:47	3.4	85
105542	2025-02-10T05:24:47	3.4	86
105543	2025-02-10T05:34:47	3.5	86
105544	2025-02-10T05:44:47	3.6	85.5
105545	2025-02-10T05:54:47	3.4	85
105546	2025-02-10T06:04:47	3.4	85
105547	2025-02-10T06:14:47	3.5	86
105548	2025-02-10T06:24:47	3.4	85.5
105549	2025-02-10T06:34:47	3.4	86
105550	2025-02-10T06:44:47	3.5	86.5
105551	2025-02-10T06:54:47	3.5	85
105552	2025-02-10T07:04:47	3.4	85
105553	2025-02-10T07:14:47	3.2	86.5
105554	2025-02-10T07:24:47	3.3	85.5
105555	2025-02-10T07:34:47	3.2	86
105556	2025-02-10T07:44:47	3.4	87
105557	2025-02-10T07:54:46	3.5	87.5
105558	2025-02-10T08:04:46	3.7	87
105559	2025-02-10T08:14:46	3.7	87
105560	2025-02-10T08:24:46	3.8	86.5
105561	2025-02-10T08:34:46	3.9	85.5
105562	2025-02-10T08:44:46	4	86.5
105563	2025-02-10T08:54:46	4.3	87
105564	2025-02-10T09:04:46	4.2	85.5
105565	2025-02-10T09:14:46	4.3	86
105566	2025-02-10T09:24:46	4.4	85.5
105567	2025-02-10T09:34:46	4.5	85
105568	2025-02-10T09:44:46	4.7	85.5
105569	2025-02-10T09:54:46	4.9	85
105570	2025-02-10T10:04:46	5.1	85
105571	2025-02-10T10:14:46	5.3	82.5
105572	2025-02-10T10:24:46	5.3	82
105573	2025-02-10T10:34:46	5.4	83
105574	2025-02-10T10:44:46	5.5	82
105575	2025-02-10T10:54:46	5.8	83
105576	2025-02-10T11:04:46	6	82
105577	2025-02-10T11:14:46	6.2	80.5
105578	2025-02-10T11:24:46	6.5	81
105579	2025-02-10T11:34:46	7	79
105580	2025-02-10T11:44:46	7	79
105581	2025-02-10T11:54:46	6.9	79.5
105582	2025-02-10T12:04:46	7.1	80
105583	2025-02-10T12:14:47	7.5	79
105584	2025-02-10T12:24:46	8.4	76.5
105585	2025-02-10T12:34:46	9.5	74
105586	2025-02-10T12:44:46	9.8	72
105587	2025-02-10T12:54:46	9.3	74
105588	2025-02-10T13:04:46	9.3	74
105589	2025-02-10T13:14:46	9.6	73
105590	2025-02-10T13:24:46	9.6	74.5
105591	2025-02-10T13:34:46	9.5	74.5
105592	2025-02-10T13:44:46	9.7	75
105593	2025-02-10T13:54:46	9.5	74.5
105594	2025-02-10T14:04:46	9.2	75.5
105595	2025-02-10T14:14:46	9	76.5
105596	2025-02-10T14:24:46	9	76
105597	2025-02-10T14:34:46	8.8	77
105598	2025-02-10T14:44:46	8.7	83
105599	2025-02-10T14:54:46	8.5	85.5
105600	2025-02-10T15:04:46	8.2	86
105601	2025-02-10T15:14:46	7.8	86.5
105602	2025-02-10T15:24:46	7.4	90
105603	2025-02-10T15:34:46	7.1	94.5
105604	2025-02-10T15:44:46	7.3	97.5
105605	2025-02-10T15:54:46	7.2	97.5
105606	2025-02-10T16:04:46	7	97.5
105607	2025-02-10T16:14:46	7.1	98
105608	2025-02-10T16:24:46	7.2	100
105609	2025-02-10T16:34:46	7.1	100
105610	2025-02-10T16:44:46	7.1	100
105611	2025-02-10T16:54:46	7.1	100
105612	2025-02-10T17:04:46	7.1	100
105613	2025-02-10T17:14:46	7.1	100
105614	2025-02-10T17:24:46	7.1	100
105615	2025-02-10T17:34:46	6.9	100
105616	2025-02-10T17:44:46	6.9	98
105617	2025-02-10T17:54:46	6.9	98
105618	2025-02-10T18:04:46	7	97.5
105619	2025-02-10T18:14:46	7.1	98.5
105620	2025-02-10T18:24:46	7.1	97.5
105621	2025-02-10T18:34:46	7.2	98
105622	2025-02-10T18:44:46	7.1	100
105623	2025-02-10T18:54:46	7.2	100
105624	2025-02-10T19:04:46	7.2	100
105625	2025-02-10T19:14:46	7.1	100
105626	2025-02-10T19:34:46	7	100
105627	2025-02-10T19:44:46	7.1	100
105628	2025-02-10T19:54:46	7.1	100
105629	2025-02-10T20:04:46	7.2	100
105630	2025-02-10T20:14:46	7.3	100
105631	2025-02-10T20:24:46	7.3	100
105632	2025-02-10T20:34:46	7.2	100
105633	2025-02-10T20:44:46	7.3	100
105634	2025-02-10T20:54:46	7.3	100
105635	2025-02-10T21:04:46	7.3	100
105636	2025-02-10T21:14:46	7.4	100
105637	2025-02-10T21:24:46	7.4	100
105638	2025-02-10T21:34:46	7.5	100
105639	2025-02-10T21:44:46	7.4	99.5
105640	2025-02-10T21:54:46	7.5	99.5
105641	2025-02-10T22:04:46	7.4	99
105642	2025-02-10T22:14:46	7.5	94.5
105643	2025-02-10T22:24:46	7.7	93
105644	2025-02-10T22:34:46	7.1	94
105645	2025-02-10T22:44:46	7.2	99.5
105646	2025-02-10T22:54:46	7.3	100
105647	2025-02-10T23:04:46	7.1	99.5
105648	2025-02-10T23:14:46	6.9	97.5
105649	2025-02-10T23:24:46	7	96.5
105650	2025-02-10T23:34:46	6.9	96.5
105651	2025-02-10T23:44:46	6.8	95.5
105652	2025-02-10T23:54:46	6.6	96.5
105653	2025-02-11T00:04:46	6.7	98
105654	2025-02-11T00:14:46	6.8	100
105655	2025-02-11T00:24:46	6.9	100
105656	2025-02-11T00:34:46	6.9	100
105657	2025-02-11T00:44:46	7	100
105658	2025-02-11T00:54:46	7	100
105659	2025-02-11T01:04:46	7	100
105660	2025-02-11T01:14:46	7	100
105661	2025-02-11T01:24:46	7	100
105662	2025-02-11T01:34:46	7	100
105663	2025-02-11T01:44:46	7.1	100
105664	2025-02-11T01:54:46	7	100
105665	2025-02-11T02:04:46	7.1	100
105666	2025-02-11T02:14:46	7	100
105667	2025-02-11T02:24:46	7.1	100
105668	2025-02-11T02:34:46	7.1	100
105669	2025-02-11T02:44:46	7.1	100
105670	2025-02-11T02:54:46	7.1	100
105671	2025-02-11T03:04:46	7.1	100
105672	2025-02-11T03:14:46	7.1	100
105673	2025-02-11T03:24:46	7.1	100
105674	2025-02-11T03:34:46	7.1	100
105675	2025-02-11T03:44:46	7.2	100
105676	2025-02-11T03:54:46	7.1	100
105677	2025-02-11T04:04:46	7.1	100
105678	2025-02-11T04:14:46	7.1	99
105679	2025-02-11T04:24:46	7	98.5
105680	2025-02-11T04:34:46	6.9	98
105681	2025-02-11T04:44:46	6.8	98
105682	2025-02-11T04:54:46	6.8	98
105683	2025-02-11T05:04:46	6.9	99
105684	2025-02-11T05:14:46	7	100
105685	2025-02-11T05:24:46	6.9	99
105686	2025-02-11T05:34:46	7	100
105687	2025-02-11T05:44:46	7.1	100
105688	2025-02-11T05:54:46	7	100
105689	2025-02-11T06:04:46	7.1	100
105690	2025-02-11T06:14:46	7.2	100
105691	2025-02-11T06:24:46	7.2	100
105692	2025-02-11T06:34:46	7.1	100
105693	2025-02-11T06:44:46	7.2	100
105694	2025-02-11T06:54:46	7.1	100
105695	2025-02-11T07:04:46	7.1	100
105696	2025-02-11T07:14:46	7	100
105697	2025-02-11T07:24:46	7.1	100
105698	2025-02-11T07:34:46	7	100
105699	2025-02-11T07:44:46	7.1	100
105700	2025-02-11T07:54:46	7.1	100
105701	2025-02-11T08:04:46	7.1	100
105702	2025-02-11T08:14:46	7.2	100
105703	2025-02-11T08:24:45	7.2	100
105704	2025-02-11T08:34:45	7.3	100
105705	2025-02-11T08:44:45	7.3	100
105706	2025-02-11T08:54:45	7.5	100
105707	2025-02-11T09:04:45	7.6	100
105708	2025-02-11T09:14:45	7.6	100
105709	2025-02-11T09:24:46	7.5	100
105710	2025-02-11T09:34:45	7.6	100
105711	2025-02-11T09:44:45	7.6	100
105712	2025-02-11T09:54:45	7.6	100
105713	2025-02-11T10:04:45	7.6	99.5
105714	2025-02-11T10:14:45	7.8	97.5
105715	2025-02-11T10:24:45	7.9	98
105716	2025-02-11T10:34:45	8.2	97.5
105717	2025-02-11T10:44:45	8.2	97.5
105718	2025-02-11T10:54:45	8.3	96.5
105719	2025-02-11T11:04:45	8.5	95.5
105720	2025-02-11T11:14:45	8.8	96
105721	2025-02-11T11:24:45	9	97
105722	2025-02-11T11:34:45	9.1	94.5
105723	2025-02-11T11:44:45	9.1	93.5
105724	2025-02-11T11:54:45	9.2	94
105725	2025-02-11T12:04:45	9.2	90.5
105726	2025-02-11T12:14:45	9	94.5
105727	2025-02-11T12:24:45	9	92.5
105728	2025-02-11T12:34:45	9.1	93.5
105729	2025-02-11T12:44:45	9.2	94
105730	2025-02-11T12:54:45	9.4	93.5
105731	2025-02-11T13:04:45	9.3	93.5
105732	2025-02-11T13:14:45	9.2	93
105733	2025-02-11T13:24:45	9.2	91
105734	2025-02-11T13:34:45	9.2	90.5
105735	2025-02-11T13:44:45	9.2	91.5
105736	2025-02-11T14:04:45	9.2	92
105737	2025-02-11T14:14:45	9.2	92
105738	2025-02-11T14:24:45	9.3	93
105739	2025-02-11T14:34:45	9.3	92.5
105740	2025-02-11T14:44:45	9.3	92.5
105741	2025-02-11T14:54:45	9.1	92
105742	2025-02-11T15:04:45	9.1	92.5
105743	2025-02-11T15:14:45	9	93
105744	2025-02-11T15:24:45	8.9	93.5
105745	2025-02-11T15:34:45	8.9	94.5
105746	2025-02-11T15:44:45	8.8	94
105747	2025-02-11T15:54:45	8.7	96.5
105748	2025-02-11T16:04:45	8.8	97.5
105749	2025-02-11T16:14:45	8.8	98.5
105750	2025-02-11T16:24:45	8.7	98.5
105751	2025-02-11T16:34:45	8.7	98
105752	2025-02-11T16:44:45	8.6	98
105753	2025-02-11T16:54:45	8.6	97.5
105754	2025-02-11T17:04:45	8.6	94.5
105755	2025-02-11T17:14:45	8.5	96
105756	2025-02-11T17:24:45	8.6	96.5
105757	2025-02-11T17:34:45	8.5	97
105758	2025-02-11T17:44:45	8.4	99.5
105759	2025-02-11T17:54:45	8.4	100
105760	2025-02-11T18:04:45	8.2	99.5
105761	2025-02-11T18:14:45	8.1	100
105762	2025-02-11T18:24:45	8.2	100
105763	2025-02-11T18:34:45	8.3	100
105764	2025-02-11T18:44:45	8.3	100
105765	2025-02-11T18:54:45	8.3	100
105766	2025-02-11T19:04:45	8.3	100
105767	2025-02-11T19:14:45	8.2	100
105768	2025-02-11T19:24:45	8.2	100
105769	2025-02-11T19:34:45	8.3	100
105770	2025-02-11T19:44:45	8.2	100
105771	2025-02-11T19:54:45	8.2	100
105772	2025-02-11T20:04:45	8.1	100
105773	2025-02-11T20:14:45	8.2	100
105774	2025-02-11T20:24:45	7.9	100
105775	2025-02-11T20:34:45	8.1	100
105776	2025-02-11T20:44:45	8.1	100
105777	2025-02-11T20:54:45	8.2	100
105778	2025-02-11T21:04:45	8.1	100
105779	2025-02-11T21:14:45	8	100
105780	2025-02-11T21:24:45	7.9	100
105781	2025-02-11T21:34:45	7.5	100
105782	2025-02-11T21:44:45	7.7	100
105783	2025-02-11T21:54:45	7.8	100
105784	2025-02-11T22:04:45	7.7	100
105785	2025-02-11T22:14:45	7.6	100
105786	2025-02-11T22:24:45	7.7	100
105787	2025-02-11T22:34:45	7.8	100
105788	2025-02-11T22:44:45	7.7	100
105789	2025-02-11T22:54:45	7.8	100
105790	2025-02-11T23:04:45	7.6	100
105791	2025-02-11T23:14:45	7.7	100
105792	2025-02-11T23:24:45	7.8	100
105793	2025-02-11T23:34:45	7.9	100
105794	2025-02-11T23:44:45	8	100
105795	2025-02-11T23:54:45	8	100
105796	2025-02-12T00:04:45	8	100
105797	2025-02-12T00:14:45	8	100
105798	2025-02-12T00:24:45	8.1	100
105799	2025-02-12T00:34:45	8.1	100
105800	2025-02-12T00:44:45	8.1	100
105801	2025-02-12T00:54:45	8.1	100
105802	2025-02-12T01:04:45	8.2	100
105803	2025-02-12T01:14:45	8.2	100
105804	2025-02-12T01:24:45	8.2	100
105805	2025-02-12T01:34:45	8.1	100
105806	2025-02-12T01:44:45	8.1	100
105807	2025-02-12T01:54:45	8.1	100
105808	2025-02-12T02:04:45	8.1	100
105809	2025-02-12T02:14:45	8.2	100
105810	2025-02-12T02:24:45	8	100
105811	2025-02-12T02:34:45	8.2	100
105812	2025-02-12T02:44:45	8.2	100
105813	2025-02-12T02:54:45	8.2	96
105814	2025-02-12T03:04:45	8.2	96
105815	2025-02-12T03:14:45	8.1	96
105816	2025-02-12T03:24:45	8.2	96
105817	2025-02-12T03:34:45	8.2	96
105818	2025-02-12T03:44:45	8.2	96
105819	2025-02-12T03:54:45	8.1	96
105820	2025-02-12T04:04:45	8.1	96
105821	2025-02-12T04:14:45	8.2	96
105822	2025-02-12T04:24:45	8.2	96
105823	2025-02-12T04:34:45	8.3	96
105824	2025-02-12T04:44:45	8.3	96
105825	2025-02-12T04:54:45	8.3	96
105826	2025-02-12T05:04:45	8.4	96
105827	2025-02-12T05:14:44	8.2	96
105828	2025-02-12T05:24:44	8.2	96
105829	2025-02-12T05:34:44	8.3	96
105830	2025-02-12T05:44:44	8.3	96
105831	2025-02-12T05:54:45	8.3	96
105832	2025-02-12T06:04:44	8.3	96
105833	2025-02-12T06:14:44	8.2	96
105834	2025-02-12T06:24:44	8.3	96
105835	2025-02-12T06:34:44	8.3	96
105836	2025-02-12T06:44:44	8.3	96
105837	2025-02-12T06:54:44	8.3	96
105838	2025-02-12T07:04:44	8.3	96
105839	2025-02-12T07:14:44	8.4	96.5
105840	2025-02-12T07:24:44	8.4	96
105841	2025-02-12T07:34:44	8.4	96
105842	2025-02-12T07:44:44	8.5	96
105843	2025-02-12T07:54:44	8.5	96
105844	2025-02-12T08:04:44	8.5	96
105845	2025-02-12T08:14:44	8.6	96
105846	2025-02-12T08:24:44	8.6	96
105847	2025-02-12T08:34:44	8.7	96.5
105848	2025-02-12T08:44:44	8.9	96.5
105849	2025-02-12T08:54:44	8.8	96
105850	2025-02-12T09:04:44	9.1	96
105851	2025-02-12T09:14:44	9.2	96.5
105852	2025-02-12T09:24:44	9.3	96.5
105853	2025-02-12T09:34:44	9.5	96
105854	2025-02-12T09:44:44	9.5	96
105855	2025-02-12T09:54:44	9.7	96.5
105856	2025-02-12T10:04:44	9.8	96
105857	2025-02-12T10:14:44	9.7	96.5
105858	2025-02-12T10:24:44	9.6	96.5
105859	2025-02-12T10:34:44	9.7	96.5
105860	2025-02-12T10:44:44	9.7	96
105861	2025-02-12T10:54:44	10	96.5
105862	2025-02-12T11:04:44	9.9	96
105863	2025-02-12T11:14:44	9.9	96.5
105864	2025-02-12T11:24:44	9.9	96.5
105865	2025-02-12T11:34:44	9.9	96.5
105866	2025-02-12T11:44:44	9.8	96.5
105867	2025-02-12T11:54:44	10.1	96.5
105868	2025-02-12T12:04:44	10.3	96
105869	2025-02-12T12:14:44	10.2	96
105870	2025-02-12T12:24:44	10.2	96.5
105871	2025-02-12T12:34:44	10.3	96.5
105872	2025-02-12T12:44:44	10.4	96.5
105873	2025-02-12T12:54:44	10.4	96.5
105874	2025-02-12T13:04:44	10.5	96.5
105875	2025-02-12T13:14:44	10.4	96.5
105876	2025-02-12T13:24:44	10.4	96.5
105877	2025-02-12T13:34:44	10.5	96.5
105878	2025-02-12T13:44:44	10.5	96.5
105879	2025-02-12T13:54:44	10.5	96.5
105880	2025-02-12T14:04:44	10.6	96.5
105881	2025-02-12T14:14:44	10.4	96.5
105882	2025-02-12T14:24:44	10.3	96.5
105883	2025-02-12T14:34:44	10.3	96.5
105884	2025-02-12T14:44:44	10.2	96.5
105885	2025-02-12T14:54:44	10.4	96.5
105886	2025-02-12T15:04:44	10.2	96.5
105887	2025-02-12T15:14:44	10.3	96.5
105888	2025-02-12T15:24:44	10.3	96.5
105889	2025-02-12T15:34:44	10.2	96.5
105890	2025-02-12T15:44:44	10.3	96.5
105891	2025-02-12T15:54:44	10.3	96.5
105892	2025-02-12T16:04:44	10.2	96.5
105893	2025-02-12T16:14:44	10.3	96.5
105894	2025-02-12T16:24:44	10.2	96.5
105895	2025-02-12T16:34:44	10	96.5
105896	2025-02-12T16:44:44	10	96
105897	2025-02-12T16:54:44	9.9	95.5
105898	2025-02-12T17:04:44	9.9	95.5
105899	2025-02-12T17:14:44	9.9	96
105900	2025-02-12T17:24:44	9.9	95.5
105901	2025-02-12T17:34:44	9.9	96
105902	2025-02-12T17:44:44	9.9	95.5
105903	2025-02-12T17:54:44	9.7	95.5
105904	2025-02-12T18:04:44	9.7	96
105905	2025-02-12T18:14:44	9.8	95.5
105906	2025-02-12T18:24:44	9.6	95.5
105907	2025-02-12T18:34:44	9.6	96
105908	2025-02-12T18:44:44	9.6	95.5
105909	2025-02-12T18:54:44	9.5	96
105910	2025-02-12T19:04:44	9.4	95.5
105911	2025-02-12T19:14:44	9.3	95.5
105912	2025-02-12T19:24:44	9.2	95.5
105913	2025-02-12T19:34:44	9.3	95.5
105914	2025-02-12T19:44:44	9.3	95.5
105915	2025-02-12T19:54:44	9.3	96
105916	2025-02-12T20:04:44	9.2	95.5
105917	2025-02-12T20:14:44	9.1	96
105918	2025-02-12T20:24:44	9.2	96
105919	2025-02-12T20:34:44	9.2	96
105920	2025-02-12T20:44:44	9.1	95.5
105921	2025-02-12T20:54:44	9	95.5
105922	2025-02-12T21:04:44	9	95.5
105923	2025-02-12T21:14:44	9	95.5
105924	2025-02-12T21:24:44	8.9	96
105925	2025-02-12T21:34:44	9	96
105926	2025-02-12T21:44:44	9	96
105927	2025-02-12T21:54:44	8.9	96
105928	2025-02-12T22:04:44	8.8	96
105929	2025-02-12T22:14:44	8.7	95.5
105930	2025-02-12T22:24:44	8.6	95.5
105931	2025-02-12T22:34:44	8.7	95.5
105932	2025-02-12T22:44:44	8.7	95.5
105933	2025-02-12T22:54:44	8.7	96
105934	2025-02-12T23:04:44	8.6	95.5
105935	2025-02-12T23:14:44	8.5	96
105936	2025-02-12T23:24:44	8.5	96
105937	2025-02-12T23:34:44	8.4	96
105938	2025-02-12T23:44:44	8.5	96
105939	2025-02-12T23:54:44	8.4	96
105940	2025-02-13T00:04:44	8.4	96
105941	2025-02-13T00:14:44	8.3	96
105942	2025-02-13T00:24:44	8.2	95.5
105943	2025-02-13T00:34:44	8	96
105944	2025-02-13T00:44:44	8	96
105945	2025-02-13T00:54:43	8	96
105946	2025-02-13T01:04:43	8	96
105947	2025-02-13T01:14:43	7.8	96
105948	2025-02-13T01:24:43	7.7	96
105949	2025-02-13T01:34:43	7.7	95.5
105950	2025-02-13T01:44:43	7.9	96
105951	2025-02-13T01:54:43	7.7	96
105952	2025-02-13T02:04:43	7.5	96
105953	2025-02-13T02:14:43	7.4	96
105954	2025-02-13T02:24:43	7.1	96
105955	2025-02-13T02:34:43	7	96
105956	2025-02-13T02:44:43	6.9	96
105957	2025-02-13T02:54:43	6.6	96
105958	2025-02-13T03:04:43	6.7	96
105959	2025-02-13T03:14:43	6.7	96
105960	2025-02-13T03:24:43	6.7	96
105961	2025-02-13T03:34:43	6.6	96
105962	2025-02-13T03:44:43	6.5	96
105963	2025-02-13T03:54:43	6.5	96
105964	2025-02-13T04:04:43	6.2	96
105965	2025-02-13T04:14:43	6.4	96
105966	2025-02-13T04:24:43	6.1	96
105967	2025-02-13T04:34:43	6.1	96
105968	2025-02-13T04:44:43	6.1	96
105969	2025-02-13T04:54:43	6.2	96
105970	2025-02-13T05:04:43	6.1	96
105971	2025-02-13T05:14:43	6.1	96
105972	2025-02-13T05:24:43	6	96
105973	2025-02-13T05:34:43	5.9	96
105974	2025-02-13T05:44:43	5.9	96
105975	2025-02-13T05:54:43	5.9	96
105976	2025-02-13T06:04:43	5.8	96
105977	2025-02-13T06:14:43	5.7	96
105978	2025-02-13T06:24:43	5.7	96
105979	2025-02-13T06:34:43	5.6	96
105980	2025-02-13T06:44:44	5.6	96
105981	2025-02-13T06:54:43	5.4	96
105982	2025-02-13T07:04:43	5.5	96
105983	2025-02-13T07:14:43	5.3	96
105984	2025-02-13T07:24:43	5.2	96
105985	2025-02-13T07:34:43	5.1	96
105986	2025-02-13T07:44:43	5.1	96
105987	2025-02-13T07:54:43	4.9	96
105988	2025-02-13T08:04:43	4.8	96
105989	2025-02-13T08:14:43	4.9	96
105990	2025-02-13T08:24:43	4.9	96
105991	2025-02-13T08:34:43	4.4	96
105992	2025-02-13T08:44:43	4.3	96
105993	2025-02-13T08:54:43	4.2	96
105994	2025-02-13T09:04:43	4.3	96
105995	2025-02-13T09:14:43	3.9	96
105996	2025-02-13T09:24:43	3.7	96
105997	2025-02-13T09:35:05	3.7	96
105998	2025-02-13T09:44:43	3.5	96
105999	2025-02-13T09:54:43	3.7	96
106000	2025-02-13T10:04:43	3.7	96
106001	2025-02-13T10:14:43	4	96
106002	2025-02-13T10:24:43	4.1	96
106003	2025-02-13T10:34:43	4.1	96
106004	2025-02-13T10:44:43	3.9	96
106005	2025-02-13T10:54:43	3.9	96
106006	2025-02-13T11:04:43	4.2	96
106007	2025-02-13T11:14:43	4.4	96
106008	2025-02-13T11:24:43	4.5	96
106009	2025-02-13T11:34:43	4.6	96
106010	2025-02-13T11:44:43	4.7	96
106011	2025-02-13T11:54:43	4.9	96.5
106012	2025-02-13T12:04:43	5.1	96.5
106013	2025-02-13T12:14:43	5.3	96.5
106014	2025-02-13T12:24:43	6.8	96.5
106015	2025-02-13T12:34:43	6.8	96.5
106016	2025-02-13T12:44:43	7.2	96.5
106017	2025-02-13T12:54:43	6.9	96.5
106018	2025-02-13T13:04:43	6.9	96.5
106019	2025-02-13T13:14:43	7.4	96.5
106020	2025-02-13T13:24:43	7.1	96.5
106021	2025-02-13T13:34:43	7	96.5
106022	2025-02-13T13:44:43	8	96.5
106023	2025-02-13T13:54:43	7.4	96.5
106024	2025-02-13T14:04:43	7	96.5
106025	2025-02-13T14:14:43	6.9	96.5
106026	2025-02-13T14:24:43	6.3	99.5
106027	2025-02-13T14:34:43	6.1	99.5
106028	2025-02-13T14:44:43	6	99.5
106029	2025-02-13T14:54:43	5.9	99.5
106030	2025-02-13T15:04:43	5.9	99.5
106031	2025-02-13T15:14:43	5.7	99.5
106032	2025-02-13T15:24:43	5.6	99.5
106033	2025-02-13T15:34:43	5.6	99.5
106034	2025-02-13T15:44:43	5.4	99.5
106035	2025-02-13T15:54:43	5.3	99.5
106036	2025-02-13T16:04:43	5.2	99.5
106037	2025-02-13T16:14:43	5.2	99.5
106038	2025-02-13T16:24:43	5.2	99.5
106039	2025-02-13T16:34:43	5.1	99.5
106040	2025-02-13T16:44:43	5.1	99.5
106041	2025-02-13T16:54:43	5	99.5
106042	2025-02-13T17:04:43	4.8	99.5
106043	2025-02-13T17:14:43	4.9	99.5
106044	2025-02-13T17:24:43	4.8	99.5
106045	2025-02-13T17:34:43	4.9	99.5
106046	2025-02-13T17:44:43	4.9	99.5
106047	2025-02-13T17:54:43	4.9	99.5
106048	2025-02-13T18:05:03	4.9	99.5
106049	2025-02-13T18:14:43	4.9	99.5
106050	2025-02-13T18:24:43	4.9	99.5
106051	2025-02-13T18:34:43	5.1	99.5
106052	2025-02-13T18:44:43	5.1	99.5
106053	2025-02-13T18:54:43	5	99.5
106054	2025-02-13T19:04:43	4.7	99.5
106055	2025-02-13T19:14:43	4.5	99.5
106056	2025-02-13T19:24:43	4.5	99.5
106057	2025-02-13T19:34:43	4.5	99.5
106058	2025-02-13T19:44:43	4.5	99.5
106059	2025-02-13T19:54:43	4.6	99.5
106060	2025-02-13T20:04:43	4.3	99.5
106061	2025-02-13T20:14:43	4.4	99.5
106062	2025-02-13T20:24:43	4.2	99.5
106063	2025-02-13T20:34:43	4.2	98
106064	2025-02-13T20:44:43	4.2	96.5
106065	2025-02-13T20:54:43	4.3	96.5
106066	2025-02-13T21:04:43	4.2	96.5
106067	2025-02-13T21:14:43	4.2	96.5
106068	2025-02-13T21:24:43	4.1	96.5
106069	2025-02-13T21:34:43	4.2	96.5
106070	2025-02-13T21:44:43	4	96.5
106071	2025-02-13T21:54:43	3.8	96.5
106072	2025-02-13T22:04:43	3.6	96.5
106073	2025-02-13T22:14:43	3.3	96.5
106074	2025-02-13T22:24:43	3.3	96.5
106075	2025-02-13T22:34:43	3.4	96.5
106076	2025-02-13T22:44:43	3.1	96.5
106077	2025-02-13T22:54:43	3.1	96.5
106078	2025-02-13T23:04:43	3.1	96.5
106079	2025-02-13T23:14:43	2.9	96.5
106080	2025-02-13T23:24:43	3.1	96.5
106081	2025-02-13T23:34:43	3.1	96.5
106082	2025-02-13T23:44:43	2.9	96.5
106083	2025-02-13T23:54:43	2.9	96.5
106084	2025-02-14T00:04:43	3	96.5
106085	2025-02-14T00:14:43	2.9	96.5
106086	2025-02-14T00:24:43	2.9	96.5
106087	2025-02-14T00:34:43	2.9	96.5
106088	2025-02-14T00:44:43	2.7	96.5
106089	2025-02-14T00:54:43	2.7	96.5
106090	2025-02-14T01:04:43	2.8	96.5
106091	2025-02-14T01:14:43	2.8	96.5
106092	2025-02-14T01:24:43	2.8	96.5
106093	2025-02-14T01:34:43	2.9	96.5
106094	2025-02-14T01:44:43	2.9	96.5
106095	2025-02-14T01:54:43	2.9	96.5
106096	2025-02-14T02:04:43	2.8	96.5
106097	2025-02-14T02:14:43	2.7	96.5
106098	2025-02-14T02:24:43	2.6	96.5
106099	2025-02-14T02:34:43	2.5	96.5
106100	2025-02-14T02:44:43	2.5	96.5
106101	2025-02-14T02:54:43	2.4	96.5
106102	2025-02-14T03:04:43	2.4	96.5
106103	2025-02-14T03:14:43	2.4	96.5
106104	2025-02-14T03:24:43	2.4	96.5
106105	2025-02-14T03:34:43	2.4	96.5
106106	2025-02-14T03:44:43	2.3	96.5
106107	2025-02-14T03:54:43	2.2	96.5
106108	2025-02-14T04:04:43	2.2	96.5
106109	2025-02-14T04:14:43	2.3	96.5
106110	2025-02-14T04:24:43	2	96.5
106111	2025-02-14T04:34:43	2	96.5
106112	2025-02-14T04:44:43	2.1	96.5
106113	2025-02-14T04:54:43	2	96.5
106114	2025-02-14T05:04:43	2	96.5
106115	2025-02-14T05:14:43	2	96.5
106116	2025-02-14T05:24:43	2	96.5
106117	2025-02-14T05:34:43	2.1	96.5
106118	2025-02-14T05:44:43	2	96.5
106119	2025-02-14T05:54:43	2	96.5
106120	2025-02-14T06:04:43	2	96.5
106121	2025-02-14T06:14:43	2	96.5
106122	2025-02-14T06:24:43	2.1	96.5
106123	2025-02-14T06:34:43	2	96.5
106124	2025-02-14T06:44:43	2	96.5
106125	2025-02-14T06:54:43	1.9	96.5
106126	2025-02-14T07:04:43	1.9	96.5
106127	2025-02-14T07:14:43	1.9	96.5
106128	2025-02-14T07:24:43	2	96.5
106129	2025-02-14T07:34:43	2.1	96.5
106130	2025-02-14T07:44:43	2.1	96.5
106131	2025-02-14T07:54:43	2.2	96.5
106132	2025-02-14T08:04:43	2.4	96.5
106133	2025-02-14T08:14:43	2.4	96.5
106134	2025-02-14T08:24:43	2.3	96.5
106135	2025-02-14T08:34:43	2.5	96.5
106136	2025-02-14T08:44:43	2.5	96.5
106137	2025-02-14T08:54:43	2.6	96.5
106138	2025-02-14T09:04:43	2.8	96.5
106139	2025-02-14T09:14:43	2.8	96.5
106140	2025-02-14T09:24:43	2.8	96.5
106141	2025-02-14T09:34:43	2.9	96.5
106142	2025-02-14T09:44:43	2.9	96.5
106143	2025-02-14T09:54:43	3	96.5
106144	2025-02-14T10:04:43	3.1	96.5
106145	2025-02-14T10:14:43	3.2	96.5
106146	2025-02-14T10:24:43	3.3	96.5
106147	2025-02-14T10:44:43	3.5	96.5
106148	2025-02-14T10:54:43	3.7	96.5
106149	2025-02-14T11:04:43	3.8	96.5
106150	2025-02-14T11:14:43	3.9	96.5
106151	2025-02-14T11:24:43	3.9	96.5
106152	2025-02-14T11:34:43	4.2	96.5
106153	2025-02-14T11:44:43	4.1	96.5
106154	2025-02-14T11:54:43	4.1	96.5
106155	2025-02-14T12:04:43	4.1	96.5
106156	2025-02-14T12:14:43	3.9	96.5
106157	2025-02-14T12:24:43	3.9	96.5
106158	2025-02-14T12:34:43	4	96.5
106159	2025-02-14T12:44:43	4.2	96.5
106160	2025-02-14T12:54:43	4.2	96.5
106161	2025-02-14T13:04:43	4.2	96.5
106162	2025-02-14T13:14:43	4.1	96.5
106163	2025-02-14T13:24:43	4.3	96.5
106164	2025-02-14T13:34:43	4.1	96.5
106165	2025-02-14T13:44:43	4.2	96.5
106166	2025-02-14T13:54:43	4.2	96.5
106167	2025-02-14T14:04:43	4.2	96.5
106168	2025-02-14T14:14:43	4.2	96.5
106169	2025-02-14T14:24:43	4.2	96.5
106170	2025-02-14T14:34:43	4.1	96.5
106171	2025-02-14T14:44:43	4.2	96.5
106172	2025-02-14T14:54:43	4.1	96.5
106173	2025-02-14T15:04:43	4	96.5
106174	2025-02-14T15:14:43	4.1	96.5
106175	2025-02-14T15:24:43	4	96.5
106176	2025-02-14T15:34:43	3.8	96.5
106177	2025-02-14T15:44:43	3.7	96.5
106178	2025-02-14T15:54:43	3.7	96.5
106179	2025-02-14T16:04:43	3.7	96.5
106180	2025-02-14T16:14:43	3.6	96.5
106181	2025-02-14T16:24:43	3.5	96.5
106182	2025-02-14T16:34:43	3.5	96.5
106183	2025-02-14T16:44:43	3.3	96.5
106184	2025-02-14T16:54:43	3.3	96.5
106185	2025-02-14T17:04:43	3.2	96.5
106186	2025-02-14T17:14:43	3.1	96.5
106187	2025-02-14T17:24:43	3.1	96.5
106188	2025-02-14T17:34:43	3	100
106189	2025-02-14T17:44:43	3.1	99.5
106190	2025-02-14T17:54:43	3	100
106191	2025-02-14T18:04:43	2.9	100
106192	2025-02-14T18:14:43	3	100
106193	2025-02-14T18:24:42	3	100
106194	2025-02-14T18:34:43	2.9	100
106195	2025-02-14T18:44:43	3	100
106196	2025-02-14T18:54:42	2.9	100
106197	2025-02-14T19:04:42	2.9	100
106198	2025-02-14T19:14:42	2.8	100
106199	2025-02-14T19:24:42	2.8	100
106200	2025-02-14T19:34:42	2.8	100
106201	2025-02-14T19:44:42	2.7	100
106202	2025-02-14T19:54:42	2.8	100
106203	2025-02-14T20:04:42	2.8	100
106204	2025-02-14T20:14:42	2.8	100
106205	2025-02-14T20:24:42	2.8	100
106206	2025-02-14T20:34:42	2.8	100
106207	2025-02-14T20:44:42	2.8	100
106208	2025-02-14T20:54:42	2.8	100
106209	2025-02-14T21:04:42	2.8	100
106210	2025-02-14T21:14:42	2.9	100
106211	2025-02-14T21:24:42	2.8	100
106212	2025-02-14T21:34:42	2.8	100
106213	2025-02-14T21:44:42	2.9	100
106214	2025-02-14T21:54:42	2.8	100
106215	2025-02-14T22:04:42	2.7	100
106216	2025-02-14T22:14:42	2.8	100
106217	2025-02-14T22:24:42	2.8	100
106218	2025-02-14T22:34:42	2.8	99.5
106219	2025-02-14T22:44:42	2.8	98
106220	2025-02-14T22:54:42	2.8	97.5
106221	2025-02-14T23:04:42	2.7	97.5
106222	2025-02-14T23:14:42	2.9	97
106223	2025-02-14T23:24:42	2.8	94.5
106224	2025-02-14T23:34:42	2.7	96
106225	2025-02-14T23:44:42	2.8	96.5
106226	2025-02-14T23:54:42	2.8	96
106227	2025-02-15T00:04:42	2.8	94.5
106228	2025-02-15T00:14:42	2.8	94
106229	2025-02-15T00:24:42	2.9	94
106230	2025-02-15T00:34:42	2.8	93
106231	2025-02-15T00:44:42	2.7	94.5
106232	2025-02-15T00:54:42	2.8	94
106233	2025-02-15T01:04:42	2.8	93.5
106234	2025-02-15T01:14:42	2.7	93.5
106235	2025-02-15T01:24:42	2.7	94
106236	2025-02-15T01:34:42	2.9	93
106237	2025-02-15T01:44:42	2.8	93
106238	2025-02-15T01:54:42	2.8	94
106239	2025-02-15T02:04:42	2.7	94
106240	2025-02-15T02:14:42	2.8	93.5
106241	2025-02-15T02:24:42	2.8	93.5
106242	2025-02-15T02:34:42	2.8	93
106243	2025-02-15T02:44:42	2.8	92
106244	2025-02-15T02:54:42	2.8	91.5
106245	2025-02-15T03:04:42	2.7	93
106246	2025-02-15T03:14:42	2.8	93.5
106247	2025-02-15T03:24:42	2.8	93
106248	2025-02-15T03:34:42	2.7	93.5
106249	2025-02-15T03:44:42	2.7	93
106250	2025-02-15T03:54:42	2.8	91.5
106251	2025-02-15T04:04:42	2.4	89
106252	2025-02-15T04:14:42	2.4	88.5
106253	2025-02-15T04:34:42	2.5	91.5
106254	2025-02-15T04:44:42	2.5	91
106255	2025-02-15T04:54:42	2.5	90.5
106256	2025-02-15T05:04:42	2.5	90.5
106257	2025-02-15T05:14:42	2.5	89.5
106258	2025-02-15T05:24:42	2.5	89
106259	2025-02-15T05:34:42	2.5	90.5
106260	2025-02-15T05:44:42	2.5	91
106261	2025-02-15T05:54:42	2.4	87
106262	2025-02-15T06:04:42	2.4	88
106263	2025-02-15T06:14:42	2.5	89.5
106264	2025-02-15T06:24:42	2.4	86
106265	2025-02-15T06:34:42	2.4	89.5
106266	2025-02-15T06:44:42	2.4	87.5
106267	2025-02-15T06:54:42	2.3	87.5
106268	2025-02-15T07:04:42	2.2	88
106269	2025-02-15T07:14:42	1.9	90.5
106270	2025-02-15T07:24:42	1.9	90
106271	2025-02-15T07:34:42	1.8	91.5
106272	2025-02-15T07:54:42	1.5	89
106273	2025-02-15T08:04:42	1.6	90
106274	2025-02-15T08:14:42	1.6	88.5
106275	2025-02-15T08:24:42	1.7	90
106276	2025-02-15T08:34:42	1.6	89
106277	2025-02-15T08:44:42	1.8	88.5
106278	2025-02-15T08:54:42	1.8	87.5
106279	2025-02-15T09:04:42	1.9	87
106280	2025-02-15T09:14:42	2	84.5
106281	2025-02-15T09:24:42	2.2	84.5
106282	2025-02-15T09:34:42	2.3	87
106283	2025-02-15T09:44:42	2.4	84.5
106284	2025-02-15T09:54:42	2.4	85
106285	2025-02-15T10:04:42	2.7	83.5
106286	2025-02-15T10:14:42	2.8	84.5
106287	2025-02-15T10:24:42	2.9	84.5
106288	2025-02-15T10:34:42	3.1	85.5
106289	2025-02-15T10:44:42	3.1	82.5
106290	2025-02-15T10:54:42	3.3	83
106291	2025-02-15T11:04:42	3.4	82.5
106292	2025-02-15T11:14:42	3.5	83
106293	2025-02-15T11:24:42	3.8	82.5
106294	2025-02-15T11:34:42	4	82.5
106295	2025-02-15T11:44:42	4.1	80.5
106296	2025-02-15T11:54:42	4.5	80.5
106297	2025-02-15T12:04:42	4.9	78.5
106298	2025-02-15T12:14:42	5.4	77
106299	2025-02-15T12:24:42	7.4	70
106300	2025-02-15T12:34:42	9.3	62.5
106301	2025-02-15T12:44:42	10.6	60
106302	2025-02-15T12:54:42	11.7	59.5
106303	2025-02-15T13:04:42	12.5	55.5
106304	2025-02-15T13:14:42	12.8	54
106305	2025-02-15T13:24:42	13.4	51
106306	2025-02-15T13:34:42	13.4	50.5
106307	2025-02-15T13:44:42	13.9	49.5
106308	2025-02-15T13:54:42	14.4	44.5
106309	2025-02-15T14:04:42	14.8	48
106310	2025-02-15T14:14:42	14.9	50
106311	2025-02-15T14:24:42	14.7	44.5
106312	2025-02-15T14:35:02	14.6	43.5
106313	2025-02-15T14:44:42	14.5	49.5
106314	2025-02-15T14:54:42	13.3	50.5
106315	2025-02-15T15:04:42	12.4	54
106316	2025-02-15T15:14:42	11.7	49.5
106317	2025-02-15T15:24:42	11	50
106318	2025-02-15T15:34:42	10.4	54
106319	2025-02-15T15:44:42	9.7	56
106320	2025-02-15T15:54:42	9.2	59
106321	2025-02-15T16:04:42	8.8	60.5
106322	2025-02-15T16:14:42	8.3	61.5
106323	2025-02-15T16:24:42	7.7	63
106324	2025-02-15T16:34:42	7.1	62.5
106325	2025-02-15T16:44:42	6.7	66.5
106326	2025-02-15T16:54:42	6.5	66.5
106327	2025-02-15T17:04:42	6	69.5
106328	2025-02-15T17:14:42	5.8	71.5
106329	2025-02-15T17:24:42	5.5	71
106330	2025-02-15T17:34:42	5.4	71.5
106331	2025-02-15T17:44:42	5.2	70.5
106332	2025-02-15T17:54:42	4.8	72
106333	2025-02-15T18:04:42	4.7	72
106334	2025-02-15T18:14:42	4.6	72.5
106335	2025-02-15T18:24:42	4.4	71
106336	2025-02-15T18:34:42	4.3	75
106337	2025-02-15T18:44:42	4.2	74
106338	2025-02-15T18:54:42	4	73.5
106339	2025-02-15T19:04:42	3.8	74.5
106340	2025-02-15T19:14:42	3.8	74.5
106341	2025-02-15T19:24:42	3.8	75
106342	2025-02-15T19:34:42	3.8	73.5
106343	2025-02-15T19:44:42	3.6	76
106344	2025-02-15T19:54:42	3.6	76.5
106345	2025-02-15T20:04:42	3.5	76.5
106346	2025-02-15T20:14:42	3.3	75
106347	2025-02-15T20:24:42	3.1	74.5
106348	2025-02-15T20:34:42	3.1	76
106349	2025-02-15T20:44:42	3.1	75
106350	2025-02-15T20:54:42	3	75
106351	2025-02-15T21:04:59	3.1	76
106352	2025-02-15T21:14:42	3	76
106353	2025-02-15T21:24:42	3	75.5
106354	2025-02-15T21:34:42	2.9	76.5
106355	2025-02-15T21:44:42	2.9	76
106356	2025-02-15T21:54:42	2.9	75.5
106357	2025-02-15T22:04:42	2.9	76.5
106358	2025-02-15T22:14:42	2.9	76
106359	2025-02-15T22:24:42	2.8	77.5
106360	2025-02-15T22:34:42	2.6	77.5
106361	2025-02-15T22:44:42	2.7	78.5
106362	2025-02-15T22:54:42	2.5	78.5
106363	2025-02-15T23:04:42	2.5	78.5
106364	2025-02-15T23:14:42	2.4	79.5
106365	2025-02-15T23:24:42	2.4	79.5
106366	2025-02-15T23:34:42	2.4	80.5
106367	2025-02-15T23:44:42	2.5	79
106368	2025-02-15T23:54:42	2.4	78.5
106369	2025-02-16T00:04:42	2.4	78.5
106370	2025-02-16T00:14:42	2.4	80
106371	2025-02-16T00:24:42	2.2	79
106372	2025-02-16T00:34:42	2.3	80
106373	2025-02-16T00:44:42	2.4	80.5
106374	2025-02-16T00:54:42	2.4	80.5
106375	2025-02-16T01:04:42	2.5	79.5
106376	2025-02-16T01:14:42	2.6	79.5
106377	2025-02-16T01:24:42	2.4	79.5
106378	2025-02-16T01:34:42	2.6	80.5
106379	2025-02-16T01:44:42	2.4	79.5
106380	2025-02-16T01:54:42	2.5	80
106381	2025-02-16T02:04:42	2.4	79.5
106382	2025-02-16T02:24:42	2.2	79.5
106383	2025-02-16T02:34:42	2.2	79.5
106384	2025-02-16T02:44:42	2.2	80.5
106385	2025-02-16T02:54:42	2.3	81.5
106386	2025-02-16T03:04:42	2.3	80
106387	2025-02-16T03:14:42	2.3	80
106388	2025-02-16T03:24:42	2.2	80.5
106389	2025-02-16T03:34:42	2.2	81.5
106390	2025-02-16T03:44:42	2.4	81.5
106391	2025-02-16T03:54:42	2.2	81
106392	2025-02-16T04:04:42	2.2	80.5
106393	2025-02-16T04:14:42	2.3	81
106394	2025-02-16T04:24:42	2.3	79.5
106395	2025-02-16T04:34:42	2.2	80
106396	2025-02-16T04:44:42	2.2	80
106397	2025-02-16T04:54:42	2.3	79.5
106398	2025-02-16T05:04:42	2.2	79.5
106399	2025-02-16T05:14:42	2	79.5
106400	2025-02-16T05:24:42	2	81
106401	2025-02-16T05:34:42	2.1	80.5
106402	2025-02-16T05:44:42	2.1	82
106403	2025-02-16T05:54:42	2.2	83.5
106404	2025-02-16T06:04:42	2.1	83.5
106405	2025-02-16T06:14:42	2.1	82.5
106406	2025-02-16T06:24:42	2.1	83.5
106407	2025-02-16T06:34:42	2.2	84.5
106408	2025-02-16T06:44:42	2.1	84
106409	2025-02-16T06:54:42	2.2	82.5
106410	2025-02-16T07:04:42	2.1	85
106411	2025-02-16T07:14:42	2.2	82.5
106412	2025-02-16T07:24:42	2.2	82
106413	2025-02-16T07:34:42	2.1	82.5
106414	2025-02-16T07:44:42	2.2	81.5
106415	2025-02-16T07:54:42	2.2	83
106416	2025-02-16T08:04:42	2.3	83.5
106417	2025-02-16T08:14:42	2.3	83.5
106418	2025-02-16T08:24:42	2.4	83
106419	2025-02-16T08:34:42	2.8	84.5
106420	2025-02-16T08:44:42	2.7	81.5
106421	2025-02-16T08:55:02	2.8	82.5
106422	2025-02-16T09:04:42	3	83.5
106423	2025-02-16T09:14:42	3.1	81
106424	2025-02-16T09:24:42	3.2	80
106425	2025-02-16T09:34:42	3.2	80.5
106426	2025-02-16T09:44:42	3.5	79
106427	2025-02-16T09:54:42	3.6	79.5
106428	2025-02-16T10:04:42	3.9	79
106429	2025-02-16T10:14:42	4	79.5
106430	2025-02-16T10:24:42	4.3	76.5
106431	2025-02-16T10:34:42	4.5	78
106432	2025-02-16T10:44:42	4.8	77
106433	2025-02-16T10:54:42	4.8	77
106434	2025-02-16T11:04:42	4.6	76
106435	2025-02-16T11:14:42	4.7	75.5
106436	2025-02-16T11:24:42	4.9	76
106437	2025-02-16T11:34:42	4.9	74
106438	2025-02-16T11:44:42	5	74.5
106439	2025-02-16T11:54:42	5.1	74
106440	2025-02-16T12:04:42	5.1	73
106441	2025-02-16T12:14:42	5.5	75
106442	2025-02-16T12:24:42	5.6	74
106443	2025-02-16T12:34:42	5.7	72
106444	2025-02-16T12:44:42	5.7	74
106445	2025-02-16T12:54:42	5.6	74.5
106446	2025-02-16T13:04:42	5.4	74.5
106447	2025-02-16T13:14:42	5.3	74.5
106448	2025-02-16T13:24:42	5.1	75
106449	2025-02-16T13:34:42	5	77
106450	2025-02-16T13:44:42	4.9	75.5
106451	2025-02-16T13:54:42	4.8	76
106452	2025-02-16T14:04:42	4.6	76
106453	2025-02-16T14:14:42	4.5	76
106454	2025-02-16T14:24:42	4.5	77
106455	2025-02-16T14:34:42	4.6	78.5
106456	2025-02-16T14:44:42	4.5	75.5
106457	2025-02-16T14:54:42	4.4	75
106458	2025-02-16T15:04:42	4.3	77
106459	2025-02-16T15:14:41	4.4	78.5
106460	2025-02-16T15:24:41	4.2	76
106461	2025-02-16T15:34:41	4.2	77
106462	2025-02-16T15:44:41	4.1	75.5
106463	2025-02-16T15:54:41	4	76
106464	2025-02-16T16:04:41	4	76
106465	2025-02-16T16:14:41	4	77.5
106466	2025-02-16T16:24:41	3.9	77
106467	2025-02-16T16:34:41	3.9	76.5
106468	2025-02-16T16:44:41	3.9	78
106469	2025-02-16T16:54:41	3.8	76.5
106470	2025-02-16T17:04:41	3.7	75.5
106471	2025-02-16T17:14:41	3.7	78
106472	2025-02-16T17:24:41	3.6	77
106473	2025-02-16T17:34:41	3.6	75.5
106474	2025-02-16T17:44:41	3.6	77
106475	2025-02-16T17:54:41	3.5	75.5
106476	2025-02-16T18:04:41	3.5	78
106477	2025-02-16T18:14:41	3.5	76.5
106478	2025-02-16T18:24:41	3.5	76
106479	2025-02-16T18:34:41	3.6	79
106480	2025-02-16T18:44:41	3.5	78.5
106481	2025-02-16T18:54:41	3.5	80.5
106482	2025-02-16T19:04:41	3.6	79
106483	2025-02-16T19:14:41	3.5	80
106484	2025-02-16T19:24:41	3.6	78.5
106485	2025-02-16T19:34:41	3.5	79
106486	2025-02-16T19:44:41	3.4	78.5
106487	2025-02-16T19:54:41	3.4	78.5
106488	2025-02-16T20:04:41	3.4	79.5
106489	2025-02-16T20:14:41	3.3	76.5
106490	2025-02-16T20:24:41	3.2	74
106491	2025-02-16T20:34:41	3.2	75
106492	2025-02-16T20:44:41	3.3	76
106493	2025-02-16T20:54:41	3.3	75
106494	2025-02-16T21:04:42	3.2	75.5
106495	2025-02-16T21:14:41	3.2	76
106496	2025-02-16T21:24:41	3.2	76
106497	2025-02-16T21:34:41	3.2	76
106498	2025-02-16T21:44:41	3.2	76.5
106499	2025-02-16T21:54:41	3.1	74.5
106500	2025-02-16T22:04:41	3.1	75
106501	2025-02-16T22:14:41	3.1	75.5
106502	2025-02-16T22:24:41	3	76
106503	2025-02-16T22:34:41	3	76.5
106504	2025-02-16T22:44:41	2.9	75.5
106505	2025-02-16T22:54:41	2.8	76
106506	2025-02-16T23:04:41	2.8	75.5
106507	2025-02-16T23:14:41	2.7	75
106508	2025-02-16T23:24:41	2.5	78
106509	2025-02-16T23:34:41	2.5	75.5
106510	2025-02-16T23:44:41	2.4	78
106511	2025-02-16T23:54:41	2.2	76.5
106512	2025-02-17T00:04:41	2.2	77.5
106513	2025-02-17T00:14:41	1.9	76.5
106514	2025-02-17T00:24:41	1.9	77
106515	2025-02-17T00:34:41	1.8	77
106516	2025-02-17T00:44:41	1.6	76
106517	2025-02-17T00:54:41	1.6	77
106518	2025-02-17T01:04:41	1.4	77.5
106519	2025-02-17T01:14:41	1.2	78.5
106520	2025-02-17T01:24:41	1.3	77.5
106521	2025-02-17T01:34:41	1.1	78
106522	2025-02-17T01:44:41	1.1	79
106523	2025-02-17T01:54:41	0.8	77.5
106524	2025-02-17T02:04:41	0.8	79
106525	2025-02-17T02:14:41	0.7	78.5
106526	2025-02-17T02:24:41	0.7	79
106527	2025-02-17T02:34:41	0.6	79.5
106528	2025-02-17T02:44:41	0.6	80.5
106529	2025-02-17T02:54:41	0.4	78.5
106530	2025-02-17T03:04:41	0.4	80
106531	2025-02-17T03:14:41	0.2	79.5
106532	2025-02-17T03:24:41	0.1	80.5
106533	2025-02-17T03:34:41	0.2	80.5
106534	2025-02-17T03:44:41	0.1	80
106535	2025-02-17T03:54:41	0	80.5
106536	2025-02-17T04:04:41	0	80.5
106537	2025-02-17T04:14:41	-0.1	80.5
106538	2025-02-17T04:24:41	0	81
106539	2025-02-17T04:34:41	0	82
106540	2025-02-17T04:44:41	-0.1	81
106541	2025-02-17T04:54:41	-0.2	80.5
106542	2025-02-17T05:04:41	-0.1	82.5
106543	2025-02-17T05:14:41	-0.3	80.5
106544	2025-02-17T05:24:41	-0.5	81
106545	2025-02-17T05:34:41	-0.5	80.5
106546	2025-02-17T05:44:41	-0.6	80
106547	2025-02-17T05:54:41	-0.7	80.5
106548	2025-02-17T06:04:41	-0.6	81.5
106549	2025-02-17T06:14:41	-0.7	80.5
106550	2025-02-17T06:24:41	-0.7	82
106551	2025-02-17T06:34:41	-0.8	80.5
106552	2025-02-17T06:44:41	-0.8	82
106553	2025-02-17T06:54:41	-0.8	81
106554	2025-02-17T07:04:41	-0.7	81.5
106555	2025-02-17T07:14:41	-0.8	81.5
106556	2025-02-17T07:24:41	-0.8	82
106557	2025-02-17T07:34:41	-0.7	81.5
106558	2025-02-17T07:44:41	-0.6	82
106559	2025-02-17T07:54:41	-0.5	81.5
106560	2025-02-17T08:04:41	-0.5	81
106561	2025-02-17T08:14:41	-0.2	82
106562	2025-02-17T08:24:41	-0.1	81
106563	2025-02-17T08:34:41	-0.1	81
106564	2025-02-17T08:44:41	0	81.5
106565	2025-02-17T08:54:41	0.2	80.5
106566	2025-02-17T09:04:41	0.3	80.5
106567	2025-02-17T09:14:41	0.5	80
106568	2025-02-17T09:24:41	0.6	79.5
106569	2025-02-17T09:34:41	0.7	79
106570	2025-02-17T09:44:41	0.9	78.5
106571	2025-02-17T09:54:41	1	79
106572	2025-02-17T10:04:41	1.3	77
106573	2025-02-17T10:14:41	1.4	77
106574	2025-02-17T10:24:41	1.5	77.5
106575	2025-02-17T10:34:41	1.7	76
106576	2025-02-17T10:44:41	1.9	75.5
106577	2025-02-17T10:54:41	2	75
106578	2025-02-17T11:04:41	2.2	75
106579	2025-02-17T11:14:41	2.5	76
106580	2025-02-17T11:24:41	2.8	76
106581	2025-02-17T11:34:41	2.9	74.5
106582	2025-02-17T11:44:41	3.2	75
106583	2025-02-17T11:54:41	3.5	71
106584	2025-02-17T12:04:41	3.8	72
106585	2025-02-17T12:14:41	4.4	69.5
106586	2025-02-17T12:24:41	6	66.5
106587	2025-02-17T12:34:41	8	61.5
106588	2025-02-17T12:44:41	10.2	53
106589	2025-02-17T12:54:41	11.7	51
106590	2025-02-17T13:04:41	12.6	49
106591	2025-02-17T13:14:41	13.4	46
106592	2025-02-17T13:24:41	13	44
106593	2025-02-17T13:34:41	11.9	48
106594	2025-02-17T13:44:41	12.6	49.5
106595	2025-02-17T13:54:41	12.5	46.5
106596	2025-02-17T14:04:41	12.4	48
106597	2025-02-17T14:14:41	11.5	49
106598	2025-02-17T14:24:41	10.7	49
106599	2025-02-17T14:34:41	10.2	50
106600	2025-02-17T14:44:41	9.8	54.5
106601	2025-02-17T14:54:41	9.5	55
106602	2025-02-17T15:04:41	9.2	53
106603	2025-02-17T15:14:41	8.9	55
106604	2025-02-17T15:34:41	8.3	57
106605	2025-02-17T15:54:41	8	60
106606	2025-02-17T16:04:41	7.7	62
106607	2025-02-17T16:14:41	7.3	65
106608	2025-02-17T16:24:41	6.9	65
106609	2025-02-17T16:34:41	6.6	65
106610	2025-02-17T16:44:41	6.1	65.5
106611	2025-02-17T16:54:41	6	64
106612	2025-02-17T17:04:41	5.7	67
106613	2025-02-17T17:14:41	5.5	64.5
106614	2025-02-17T17:24:41	5.3	66.5
106615	2025-02-17T17:34:41	5.1	65.5
106616	2025-02-17T17:44:41	4.7	64.5
106617	2025-02-17T17:54:41	4.4	66
106618	2025-02-17T18:04:41	4.3	68.5
106619	2025-02-17T18:14:41	4.2	69.5
106620	2025-02-17T18:24:41	3.9	68
106621	2025-02-17T18:34:41	3.6	70.5
106622	2025-02-17T18:44:41	3.5	69
106623	2025-02-17T18:54:41	3.4	68.5
106624	2025-02-17T19:04:41	3.2	66.5
106625	2025-02-17T19:14:41	3.1	66
106626	2025-02-17T19:24:41	3	71
106627	2025-02-17T19:34:41	2.9	69.5
106628	2025-02-17T19:44:41	2.6	70
106629	2025-02-17T19:54:41	2.4	71.5
106630	2025-02-17T20:04:41	2.3	70
106631	2025-02-17T20:14:41	2.3	71.5
106632	2025-02-17T20:24:41	2	71
106633	2025-02-17T20:34:41	1.9	71.5
106634	2025-02-17T20:44:41	1.9	74.5
106635	2025-02-17T20:54:41	1.8	71
106636	2025-02-17T21:04:41	1.8	73.5
106637	2025-02-17T21:14:41	1.5	72.5
106638	2025-02-17T21:24:41	1.3	74.5
106639	2025-02-17T21:35:02	1.2	74.5
106640	2025-02-17T21:44:41	1.3	76
106641	2025-02-17T21:54:41	1.2	76
106642	2025-02-17T22:04:41	1.1	76
106643	2025-02-17T22:14:41	1	76
106644	2025-02-17T22:24:41	0.9	76
106645	2025-02-17T22:34:41	0.8	76
106646	2025-02-17T22:44:41	0.7	77.5
106647	2025-02-17T22:54:41	0.7	76
106648	2025-02-17T23:04:41	0.6	77
106649	2025-02-17T23:14:41	0.4	76.5
106650	2025-02-17T23:24:41	0.2	76.5
106651	2025-02-17T23:34:41	0.4	77
106652	2025-02-17T23:44:41	0.3	78
106653	2025-02-17T23:54:41	0.2	78.5
106654	2025-02-18T00:04:41	0.1	79
106655	2025-02-18T00:14:41	0.1	80.5
106656	2025-02-18T00:24:41	-0.1	80.5
106657	2025-02-18T00:34:41	-0.1	80.5
106658	2025-02-18T00:44:41	0	80.5
106659	2025-02-18T00:54:41	0	80.5
106660	2025-02-18T01:04:41	-0.2	81
106661	2025-02-18T01:14:41	-0.2	79
106662	2025-02-18T01:24:41	-0.3	80.5
106663	2025-02-18T01:34:41	-0.3	81.5
106664	2025-02-18T01:44:41	-0.4	80
106665	2025-02-18T01:54:41	-0.6	79.5
106666	2025-02-18T02:04:41	-0.6	80.5
106667	2025-02-18T02:14:41	-0.7	81
106668	2025-02-18T02:24:41	-0.8	80.5
106669	2025-02-18T02:34:41	-0.9	81.5
106670	2025-02-18T02:44:41	-0.9	80.5
106671	2025-02-18T02:54:41	-0.9	82
106672	2025-02-18T03:04:41	-1	81.5
106673	2025-02-18T03:14:41	-1	81
106674	2025-02-18T03:24:41	-1.1	82
106675	2025-02-18T03:34:41	-1.1	81.5
106676	2025-02-18T03:44:41	-1.2	81.5
106677	2025-02-18T03:54:41	-1.2	83
106678	2025-02-18T04:04:41	-1.1	81.5
106679	2025-02-18T04:14:41	-1.3	80.5
106680	2025-02-18T04:24:41	-1.2	81.5
106681	2025-02-18T04:34:41	-1.3	80.5
106682	2025-02-18T04:44:41	-1.3	81
106683	2025-02-18T04:54:41	-1.4	81.5
106684	2025-02-18T05:04:41	-1.5	81
106685	2025-02-18T05:14:41	-1.5	80
106686	2025-02-18T05:24:41	-1.6	80
106687	2025-02-18T05:34:41	-1.6	81
106688	2025-02-18T05:44:41	-1.6	81
106689	2025-02-18T05:54:41	-1.7	82
106690	2025-02-18T06:04:41	-1.7	81.5
106691	2025-02-18T06:14:41	-1.9	82.5
106692	2025-02-18T06:24:41	-1.8	81.5
106693	2025-02-18T06:34:41	-1.9	81.5
106694	2025-02-18T06:44:41	-2	80.5
106695	2025-02-18T06:54:41	-2.1	80
106696	2025-02-18T07:04:41	-2.1	80.5
106697	2025-02-18T07:15:00	-2.1	81
106698	2025-02-18T07:24:41	-2	80.5
106699	2025-02-18T07:34:41	-2	81
106700	2025-02-18T07:44:41	-1.8	80
106701	2025-02-18T07:54:41	-1.8	81
106702	2025-02-18T08:04:41	-1.7	81
106703	2025-02-18T08:14:41	-1.6	80
106704	2025-02-18T08:24:41	-1.6	81.5
106705	2025-02-18T08:34:41	-1.4	81.5
106706	2025-02-18T08:44:41	-1.3	81.5
106707	2025-02-18T08:54:41	-1.2	81.5
106708	2025-02-18T09:04:41	-1.1	81
106709	2025-02-18T09:14:41	-0.9	80.5
106710	2025-02-18T09:24:41	-0.6	79.5
106711	2025-02-18T09:34:41	-0.5	78.5
106712	2025-02-18T09:44:41	-0.4	79.5
106713	2025-02-18T09:54:41	-0.1	78.5
106714	2025-02-18T10:04:41	0	78
106715	2025-02-18T10:14:41	0.1	79
106716	2025-02-18T10:24:41	0.4	78.5
106717	2025-02-18T10:34:41	0.7	76.5
106718	2025-02-18T10:44:41	1	76.5
106719	2025-02-18T10:54:41	1.1	76
106720	2025-02-18T11:04:41	1.2	76.5
106721	2025-02-18T11:14:41	1.5	75
106722	2025-02-18T11:24:41	1.8	74.5
106723	2025-02-18T11:34:41	2	75
106724	2025-02-18T11:44:41	2.2	75
106725	2025-02-18T11:54:41	2.7	73
106726	2025-02-18T12:04:41	3	73.5
106727	2025-02-18T12:14:41	3.5	71
106728	2025-02-18T12:24:41	4.5	68
106729	2025-02-18T12:34:41	6.6	61
106730	2025-02-18T12:44:41	8.9	54
106731	2025-02-18T12:54:41	10.4	51
106732	2025-02-18T13:04:41	11.5	48.5
106733	2025-02-18T13:14:41	12.2	44.5
106734	2025-02-18T13:24:41	13	44.5
106735	2025-02-18T13:34:41	13.5	42
106736	2025-02-18T13:44:41	13.9	43.5
106737	2025-02-18T13:54:41	14.3	43.5
106738	2025-02-18T14:04:41	14.8	38.5
106739	2025-02-18T14:14:41	14.9	38
106740	2025-02-18T14:24:41	14.9	36
106741	2025-02-18T14:34:41	15.1	39.5
106742	2025-02-18T14:44:41	14.9	35
106743	2025-02-18T14:54:41	15.2	38
106744	2025-02-18T15:04:41	15.1	38
106745	2025-02-18T15:14:41	15	37.5
106746	2025-02-18T15:24:41	14.9	37.5
106747	2025-02-18T15:34:41	14.7	40.5
106748	2025-02-18T15:44:41	14.3	38
106749	2025-02-18T15:54:41	13.7	40
106750	2025-02-18T16:04:41	13.6	43.5
106751	2025-02-18T16:14:41	13	42.5
106752	2025-02-18T16:24:41	12.3	44.5
106753	2025-02-18T16:34:41	11.4	49
106754	2025-02-18T16:44:41	10.3	49
106755	2025-02-18T16:54:41	9.3	48
106756	2025-02-18T17:04:41	8.8	56
106757	2025-02-18T17:14:41	8.2	53
106758	2025-02-18T17:24:41	7.8	54
106759	2025-02-18T17:34:41	7.3	56.5
106760	2025-02-18T17:44:41	6.9	59.5
106761	2025-02-18T17:54:41	6.6	58
106762	2025-02-18T18:04:41	6.1	57.5
106763	2025-02-18T18:14:41	5.9	60.5
106764	2025-02-18T18:24:41	5.4	57.5
106765	2025-02-18T18:34:41	5.1	60.5
106766	2025-02-18T18:44:41	5	58.5
106767	2025-02-18T18:54:41	4.6	59.5
106768	2025-02-18T19:04:41	4.2	59.5
106769	2025-02-18T19:14:41	4.1	60
106770	2025-02-18T19:24:41	4	62
106771	2025-02-18T19:34:41	3.8	62.5
106772	2025-02-18T19:44:41	3.7	61.5
106773	2025-02-18T19:54:41	3.6	63
106774	2025-02-18T20:04:41	3.4	63
106775	2025-02-18T20:14:41	3.1	62.5
106776	2025-02-18T20:24:41	3	63
106777	2025-02-18T20:34:41	2.9	62.5
106778	2025-02-18T20:44:41	2.8	63
106779	2025-02-18T20:54:41	2.5	62.5
106780	2025-02-18T21:04:41	2.5	63.5
106781	2025-02-18T21:14:41	2.4	63.5
106782	2025-02-18T21:24:41	2.2	65
106783	2025-02-18T21:34:41	2.1	66
106784	2025-02-18T21:44:41	2	66
106785	2025-02-18T21:54:41	2	65.5
106786	2025-02-18T22:04:41	1.9	64.5
106787	2025-02-18T22:14:41	1.8	67
106788	2025-02-18T22:24:41	1.7	65
106789	2025-02-18T22:34:41	1.4	65.5
106790	2025-02-18T22:44:41	1.3	67
106791	2025-02-18T22:54:41	1.3	66.5
106792	2025-02-18T23:04:41	1.2	66
106793	2025-02-18T23:14:41	1.2	68
106794	2025-02-18T23:24:41	1.1	68
106795	2025-02-18T23:34:41	1.1	70
106796	2025-02-18T23:44:41	1.1	71
106797	2025-02-18T23:54:41	0.9	69
106798	2025-02-19T00:04:41	0.9	70
106799	2025-02-19T00:14:41	0.7	67
106800	2025-02-19T00:24:41	0.6	67.5
106801	2025-02-19T00:34:41	0.5	67
106802	2025-02-19T00:44:41	0.5	67.5
106803	2025-02-19T00:54:41	0.5	67.5
106804	2025-02-19T01:04:41	0.3	68
106805	2025-02-19T01:14:41	0.3	68
106806	2025-02-19T01:24:41	0.2	68.5
106807	2025-02-19T01:34:41	0.1	67.5
106808	2025-02-19T01:44:41	0.1	70.5
106809	2025-02-19T01:54:41	0.1	68.5
106810	2025-02-19T02:04:41	0.1	70.5
106811	2025-02-19T02:14:41	0.1	70
106812	2025-02-19T02:24:41	0	71
106813	2025-02-19T02:34:41	0	71.5
106814	2025-02-19T02:44:41	0	69
106815	2025-02-19T02:54:41	0	69
106816	2025-02-19T03:04:41	0	69
106817	2025-02-19T03:14:41	-0.1	68.5
106818	2025-02-19T03:24:41	-0.2	67
106819	2025-02-19T03:34:41	-0.2	68
106820	2025-02-19T03:44:41	-0.3	67.5
106821	2025-02-19T03:54:41	-0.4	67
106822	2025-02-19T04:04:41	-0.3	67.5
106823	2025-02-19T04:14:41	-0.5	67
106824	2025-02-19T04:24:41	-0.5	67
106825	2025-02-19T04:34:41	-0.6	66.5
106826	2025-02-19T04:44:41	-0.6	67.5
106827	2025-02-19T04:54:41	-0.6	69
106828	2025-02-19T05:04:41	-0.7	68
106829	2025-02-19T05:14:41	-0.7	68
106830	2025-02-19T05:24:41	-0.8	68.5
106831	2025-02-19T05:34:41	-0.9	68.5
106832	2025-02-19T05:44:41	-1	67.5
106833	2025-02-19T05:54:41	-1	68.5
106834	2025-02-19T06:04:41	-0.9	71
106835	2025-02-19T06:14:41	-1	68
106836	2025-02-19T06:24:41	-1.1	68.5
106837	2025-02-19T06:34:41	-1.1	70.5
106838	2025-02-19T06:44:41	-1.1	70
106839	2025-02-19T06:54:41	-1.1	68
106840	2025-02-19T07:04:41	-1.1	71.5
106841	2025-02-19T07:14:41	-1.1	69.5
106842	2025-02-19T07:24:41	-0.8	70.5
106843	2025-02-19T07:34:41	-0.9	72.5
106844	2025-02-19T07:44:41	-0.8	71.5
106845	2025-02-19T07:54:41	-0.6	73
106846	2025-02-19T08:04:41	-0.5	73
106847	2025-02-19T08:14:41	-0.4	72
106848	2025-02-19T08:24:41	-0.2	72.5
106849	2025-02-19T08:34:41	-0.1	72
106850	2025-02-19T08:44:41	0	72
106851	2025-02-19T08:54:41	0.1	72.5
106852	2025-02-19T09:04:41	0.2	70
106853	2025-02-19T09:14:41	0.5	71.5
106854	2025-02-19T09:24:41	0.7	68.5
106855	2025-02-19T09:34:41	0.9	67.5
106856	2025-02-19T09:44:41	1.1	69.5
106857	2025-02-19T09:54:41	1.5	68.5
106858	2025-02-19T10:04:41	1.7	69
106859	2025-02-19T10:14:41	1.8	68
106860	2025-02-19T10:24:41	1.9	69.5
106861	2025-02-19T10:34:41	2.2	68.5
106862	2025-02-19T10:44:41	2.3	67
106863	2025-02-19T10:54:41	2.5	64.5
106864	2025-02-19T11:04:41	2.7	64.5
106865	2025-02-19T11:14:41	2.8	64
106866	2025-02-19T11:24:41	3.2	63
106867	2025-02-19T11:34:41	3.4	64.5
106868	2025-02-19T11:44:41	3.8	62.5
106869	2025-02-19T11:54:41	4.1	62.5
106870	2025-02-19T12:04:41	4.8	60
106871	2025-02-19T12:14:41	5.4	59.5
106872	2025-02-19T12:24:41	5.9	58
106873	2025-02-19T12:34:41	6.2	58
106874	2025-02-19T12:44:41	6.5	57
106875	2025-02-19T12:54:41	6.6	59
106876	2025-02-19T13:04:41	6.6	59
106877	2025-02-19T13:14:41	6.7	59
106878	2025-02-19T13:24:41	6.7	58.5
106879	2025-02-19T13:34:41	6.7	59.5
106880	2025-02-19T13:44:41	6.7	59
106881	2025-02-19T13:54:41	6.8	62
106882	2025-02-19T14:04:41	6.9	59.5
106883	2025-02-19T14:14:41	6.9	60.5
106884	2025-02-19T14:24:41	7.2	60
106885	2025-02-19T14:34:41	7.2	59
106886	2025-02-19T14:44:41	7.2	60.5
106887	2025-02-19T14:54:41	7.2	60
106888	2025-02-19T15:04:41	7.4	57.5
106889	2025-02-19T15:14:40	7.3	58
106890	2025-02-19T15:24:40	7.2	58.5
106891	2025-02-19T15:34:40	7.4	58
106892	2025-02-19T15:44:40	7.6	57.5
106893	2025-02-19T15:54:40	7.6	59
106894	2025-02-19T16:04:40	7.5	57.5
106895	2025-02-19T16:14:40	7.1	60.5
106896	2025-02-19T16:24:40	6.9	61.5
106897	2025-02-19T16:34:40	6.6	60.5
106898	2025-02-19T16:44:40	6.2	61.5
106899	2025-02-19T16:54:40	6	63.5
106900	2025-02-19T17:04:40	5.8	65.5
106901	2025-02-19T17:14:40	5.7	68
106902	2025-02-19T17:24:40	5.7	68
106903	2025-02-19T17:34:40	5.5	65.5
106904	2025-02-19T17:44:40	5.3	67
106905	2025-02-19T17:54:40	5.4	70.5
106906	2025-02-19T18:04:40	5.2	68.5
106907	2025-02-19T18:14:40	5.1	69
106908	2025-02-19T18:24:40	5.1	70.5
106909	2025-02-19T18:34:40	4.9	71.5
106910	2025-02-19T18:44:40	4.6	71.5
106911	2025-02-19T18:54:40	4.6	74.5
106912	2025-02-19T19:04:40	4.7	73
106913	2025-02-19T19:14:40	4.6	72.5
106914	2025-02-19T19:24:40	4.6	75.5
106915	2025-02-19T19:34:40	4.6	76
106916	2025-02-19T19:44:40	4.5	76
106917	2025-02-19T19:54:40	4.5	77
106918	2025-02-19T20:04:40	4.3	78
106919	2025-02-19T20:14:40	4.3	78.5
106920	2025-02-19T20:24:40	4.2	79
106921	2025-02-19T20:34:40	4	76.5
106922	2025-02-19T20:44:40	4	78
106923	2025-02-19T20:54:40	4	78.5
106924	2025-02-19T21:04:40	3.9	79.5
106925	2025-02-19T21:14:40	3.9	78.5
106926	2025-02-19T21:24:40	3.8	80
106927	2025-02-19T21:34:40	3.8	80
106928	2025-02-19T21:44:40	3.6	80
106929	2025-02-19T21:54:40	3.7	80.5
106930	2025-02-19T22:04:40	3.7	80.5
106931	2025-02-19T22:14:40	3.6	80.5
106932	2025-02-19T22:24:40	3.5	80.5
106933	2025-02-19T22:34:40	3.5	81
106934	2025-02-19T22:44:40	3.3	81
106935	2025-02-19T22:54:40	3.2	81
106936	2025-02-19T23:04:40	3.2	81.5
106937	2025-02-19T23:15:02	3.1	81.5
106938	2025-02-19T23:24:40	3	81.5
106939	2025-02-19T23:34:40	3	79.5
106940	2025-02-19T23:44:40	2.9	81
106941	2025-02-19T23:54:40	2.8	81.5
106942	2025-02-20T00:04:40	2.9	82
106943	2025-02-20T00:14:40	2.8	82
106944	2025-02-20T00:24:40	2.7	82.5
106945	2025-02-20T00:34:40	2.5	82
106946	2025-02-20T00:44:40	2.6	82.5
106947	2025-02-20T00:54:40	2.6	82.5
106948	2025-02-20T01:04:40	2.6	81
106949	2025-02-20T01:24:40	2.6	82.5
106950	2025-02-20T01:34:40	2.8	83
106951	2025-02-20T01:44:40	2.8	82.5
106952	2025-02-20T01:54:40	2.8	83
106953	2025-02-20T02:04:40	2.8	83
106954	2025-02-20T02:14:40	2.7	83
106955	2025-02-20T02:24:40	2.6	83.5
106956	2025-02-20T02:34:40	2.6	83
106957	2025-02-20T02:44:40	2.6	83.5
106958	2025-02-20T02:54:40	2.5	82.5
106959	2025-02-20T03:04:40	2.7	82.5
106960	2025-02-20T03:14:40	2.6	81.5
106961	2025-02-20T03:24:40	2.6	82.5
106962	2025-02-20T03:34:40	2.5	82.5
106963	2025-02-20T03:44:40	2.2	83
106964	2025-02-20T03:54:40	2.3	84.5
106965	2025-02-20T04:04:40	2.4	84
106966	2025-02-20T04:14:40	2.3	84
106967	2025-02-20T04:24:40	2.5	84.5
106968	2025-02-20T04:34:40	2.4	84.5
106969	2025-02-20T04:44:40	2.3	84.5
106970	2025-02-20T04:54:40	2.3	84.5
106971	2025-02-20T05:04:40	2.3	85
106972	2025-02-20T05:14:40	2.3	85
106973	2025-02-20T05:24:40	2.3	84.5
106974	2025-02-20T05:34:40	2.4	84.5
106975	2025-02-20T05:44:40	2.3	84.5
106976	2025-02-20T05:54:40	2.5	83
106977	2025-02-20T06:04:40	2.6	83
106978	2025-02-20T06:14:40	2.5	84
106979	2025-02-20T06:24:40	2.6	84
106980	2025-02-20T06:34:40	2.8	83
106981	2025-02-20T06:44:40	2.6	83
106982	2025-02-20T06:54:40	2.8	84.5
106983	2025-02-20T07:04:40	2.9	84.5
106984	2025-02-20T07:14:40	3	84
106985	2025-02-20T07:24:40	3.1	84.5
106986	2025-02-20T07:34:40	3.1	85
106987	2025-02-20T07:44:40	3.3	84.5
106988	2025-02-20T07:54:40	3.4	84
106989	2025-02-20T08:04:40	3.4	84.5
106990	2025-02-20T08:14:40	3.5	84.5
106991	2025-02-20T08:24:40	3.6	84
106992	2025-02-20T08:34:40	3.8	84
106993	2025-02-20T08:44:40	3.9	83.5
106994	2025-02-20T08:54:40	4.1	82.5
106995	2025-02-20T09:04:40	4.3	81.5
106996	2025-02-20T09:14:40	4.4	83
106997	2025-02-20T09:24:40	4.6	82
106998	2025-02-20T09:34:40	4.7	82
106999	2025-02-20T09:44:40	5	81.5
107000	2025-02-20T09:54:40	5.1	81.5
107001	2025-02-20T10:04:40	5.4	80.5
107002	2025-02-20T10:14:40	5.7	80
107003	2025-02-20T10:24:40	6	78.5
107004	2025-02-20T10:34:40	6.1	78.5
107005	2025-02-20T10:44:40	6.3	78.5
107006	2025-02-20T10:54:58	6.5	78
107007	2025-02-20T11:04:40	6.5	77.5
107008	2025-02-20T11:14:40	6.7	77.5
107009	2025-02-20T11:24:40	6.8	78
107010	2025-02-20T11:34:40	7	77
107011	2025-02-20T11:44:40	7.2	76.5
107012	2025-02-20T11:54:40	7.3	76.5
107013	2025-02-20T12:04:40	7.7	76.5
107014	2025-02-20T12:14:40	8.2	74.5
107015	2025-02-20T12:24:40	8.6	72
107016	2025-02-20T12:34:40	9.2	71
107017	2025-02-20T12:44:40	10.1	70
107018	2025-02-20T12:54:40	10.3	70
107019	2025-02-20T13:04:40	10.6	69.5
107020	2025-02-20T13:14:40	12.5	66.5
107021	2025-02-20T13:24:40	14.3	62.5
107022	2025-02-20T13:34:40	15.5	56.5
107023	2025-02-20T13:44:40	16.1	57
107024	2025-02-20T14:04:40	17.9	54.5
107025	2025-02-20T14:14:40	18.7	54
107026	2025-02-20T14:24:40	19.4	50.5
107027	2025-02-20T14:34:40	19.6	52
107028	2025-02-20T14:44:40	19.3	53.5
107029	2025-02-20T14:54:40	19.4	53.5
107030	2025-02-20T15:04:40	19.2	53.5
107031	2025-02-20T15:14:40	19	55
107032	2025-02-20T15:24:40	18.9	55.5
107033	2025-02-20T15:34:40	18.2	58
107034	2025-02-20T15:44:40	17.5	58.5
107035	2025-02-20T15:54:40	17.2	60.5
107036	2025-02-20T16:04:40	16.8	61
107037	2025-02-20T16:24:40	15.5	65.5
107038	2025-02-20T16:34:40	15	68
107039	2025-02-20T16:44:40	14.6	68
107040	2025-02-20T16:54:40	14	65.5
107041	2025-02-20T17:04:40	13.5	69.5
107042	2025-02-20T17:14:40	13.3	71.5
107043	2025-02-20T17:24:40	13.2	72
107044	2025-02-20T17:34:40	13.1	72.5
107045	2025-02-20T17:44:40	12.7	73
107046	2025-02-20T17:54:40	12.5	71
107047	2025-02-20T18:04:40	12.2	72.5
107048	2025-02-20T18:14:40	12.2	74
107049	2025-02-20T18:24:40	12.1	74.5
107050	2025-02-20T18:34:40	11.9	74.5
107051	2025-02-20T18:44:40	11.8	75.5
107052	2025-02-20T18:54:39	11.6	74.5
107053	2025-02-20T19:04:39	11.6	74
107054	2025-02-20T19:14:39	11.6	75.5
107055	2025-02-20T19:24:39	11.4	76.5
107056	2025-02-20T19:34:39	11.4	77
107057	2025-02-20T19:44:39	11.2	77
107058	2025-02-20T19:54:39	11.3	77.5
107059	2025-02-20T20:04:39	11.2	77
107060	2025-02-20T20:14:39	11.2	77.5
107061	2025-02-20T20:24:39	11.1	77.5
107062	2025-02-20T20:34:39	11	78
107063	2025-02-20T20:44:40	10.8	78
107064	2025-02-20T20:54:39	10.8	78
107065	2025-02-20T21:04:39	10.6	77
107066	2025-02-20T21:14:39	10.4	78
107067	2025-02-20T21:24:39	10.3	79
107068	2025-02-20T21:34:39	10.3	79
107069	2025-02-20T21:44:39	10.2	79
107070	2025-02-20T21:54:39	10.1	79
107071	2025-02-20T22:04:39	10	80.5
107072	2025-02-20T22:14:39	10	81
107073	2025-02-20T22:24:39	9.9	81.5
107074	2025-02-20T22:34:39	9.9	80.5
107075	2025-02-20T22:44:39	9.8	81.5
107076	2025-02-20T22:54:39	9.9	81.5
107077	2025-02-20T23:04:39	9.8	81.5
107078	2025-02-20T23:14:39	9.7	81.5
107079	2025-02-20T23:24:39	9.8	82.5
107080	2025-02-20T23:34:39	9.7	82
107081	2025-02-20T23:44:39	9.6	82.5
107082	2025-02-20T23:54:39	9.6	82.5
107083	2025-02-21T00:04:39	9.6	83.5
107084	2025-02-21T00:14:39	9.6	83
107085	2025-02-21T00:24:39	9.5	82.5
107086	2025-02-21T00:34:39	9.5	83
107087	2025-02-21T00:44:39	9.5	83.5
107088	2025-02-21T00:54:39	9.5	83.5
107089	2025-02-21T01:04:39	9.5	84
107090	2025-02-21T01:14:39	9.5	83.5
107091	2025-02-21T01:24:39	9.4	83.5
107092	2025-02-21T01:34:39	9.4	84.5
107093	2025-02-21T01:44:39	9.3	84.5
107094	2025-02-21T01:54:39	9.3	84
107095	2025-02-21T02:04:39	9.2	84
107096	2025-02-21T02:14:39	9.3	85
107097	2025-02-21T02:24:39	9.4	85
107098	2025-02-21T02:34:39	9.3	85.5
107099	2025-02-21T02:44:39	9.3	85
107100	2025-02-21T02:54:39	9.2	85.5
107101	2025-02-21T03:04:39	9.2	85.5
107102	2025-02-21T03:14:39	9.2	86
107103	2025-02-21T03:24:39	9.2	86
107104	2025-02-21T03:34:39	9.3	86
107105	2025-02-21T03:44:39	9.2	86
107106	2025-02-21T03:54:39	9.2	85.5
107107	2025-02-21T04:04:39	9.2	86
107108	2025-02-21T04:14:39	9.1	86
107109	2025-02-21T04:24:39	9.2	86
107110	2025-02-21T04:34:39	9.2	86.5
107111	2025-02-21T04:44:39	9.2	86
107112	2025-02-21T04:54:39	9.1	85.5
107113	2025-02-21T05:04:39	9	85.5
107114	2025-02-21T05:14:39	9	86.5
107115	2025-02-21T05:24:39	9	87
107116	2025-02-21T05:34:39	8.9	86.5
107117	2025-02-21T05:44:39	8.9	87
107118	2025-02-21T05:54:39	8.8	86
107119	2025-02-21T06:04:39	8.6	87.5
107120	2025-02-21T06:14:39	8.5	87.5
107121	2025-02-21T06:24:39	8.4	88
107122	2025-02-21T06:34:39	8.4	88
107123	2025-02-21T06:44:39	8.3	88
107124	2025-02-21T06:54:39	8.2	88
107125	2025-02-21T07:04:39	8.2	88
107126	2025-02-21T07:14:39	8.2	87.5
107127	2025-02-21T07:24:39	8.3	86.5
107128	2025-02-21T07:34:39	8.4	87.5
107129	2025-02-21T07:44:39	8.4	87.5
107130	2025-02-21T07:54:39	8.6	87.5
107131	2025-02-21T08:04:39	8.7	87.5
107132	2025-02-21T08:14:39	8.9	87.5
107133	2025-02-21T08:24:39	8.9	87
107134	2025-02-21T08:34:39	9.1	87
107135	2025-02-21T08:44:39	9.2	86.5
107136	2025-02-21T08:54:39	9.3	86
107137	2025-02-21T09:04:39	9.4	86
107138	2025-02-21T09:14:39	9.6	86.5
107139	2025-02-21T09:24:39	9.7	86.5
107140	2025-02-21T09:34:39	10	85.5
107141	2025-02-21T09:44:39	10.2	85.5
107142	2025-02-21T09:54:39	10.4	85.5
107143	2025-02-21T10:04:39	10.7	85.5
107144	2025-02-21T10:14:39	11	85
107145	2025-02-21T10:24:39	11.1	85
107146	2025-02-21T10:34:39	11.4	84.5
107147	2025-02-21T10:44:39	11.7	83
107148	2025-02-21T10:54:39	11.8	83
107149	2025-02-21T11:04:39	12	83
107150	2025-02-21T11:14:39	12	82.5
107151	2025-02-21T11:24:39	12.3	82.5
107152	2025-02-21T11:34:39	12.6	82
107153	2025-02-21T11:44:39	12.9	82.5
107154	2025-02-21T11:54:39	13.2	81.5
107155	2025-02-21T12:04:39	13.6	80.5
107156	2025-02-21T12:14:39	14.2	78
107157	2025-02-21T12:24:39	14.9	76.5
107158	2025-02-21T12:34:39	16.2	73.5
107159	2025-02-21T12:44:38	18.7	66
107160	2025-02-21T12:54:38	18.5	62
107161	2025-02-21T13:04:38	19.6	59.5
107162	2025-02-21T13:14:38	20.5	55.5
107163	2025-02-21T13:24:38	21.4	53.5
107164	2025-02-21T13:34:38	22.2	52
107165	2025-02-21T13:44:38	23.2	52
107166	2025-02-21T13:54:38	23.9	52
107167	2025-02-21T14:04:38	24.3	54
107168	2025-02-21T14:14:38	25.5	50
107169	2025-02-21T14:24:38	26	50.5
107170	2025-02-21T14:34:38	27.1	49.5
107171	2025-02-21T14:44:38	27.1	47
107172	2025-02-21T14:54:38	27.2	48
107173	2025-02-21T15:04:38	27	44.5
107174	2025-02-21T15:14:38	25.9	49
107175	2025-02-21T15:24:38	26	51.5
107176	2025-02-21T15:34:38	25.4	53
107177	2025-02-21T15:44:38	24.6	55
107178	2025-02-21T15:54:38	23.9	56
107179	2025-02-21T16:04:38	23.4	58
107180	2025-02-21T16:14:38	22.9	59.5
107181	2025-02-21T16:24:38	22.2	60.5
107182	2025-02-21T16:34:38	21.7	57.5
107183	2025-02-21T16:44:38	20.8	59
107184	2025-02-21T16:54:38	19.9	60
107185	2025-02-21T17:04:38	19.5	64.5
107186	2025-02-21T17:14:38	19.1	66.5
107187	2025-02-21T17:24:38	18.7	67.5
107188	2025-02-21T17:34:38	18.2	67
107189	2025-02-21T17:44:38	17.8	67
107190	2025-02-21T17:54:38	17.3	68.5
107191	2025-02-21T18:04:38	17.1	69.5
107192	2025-02-21T18:14:38	16.8	70.5
107193	2025-02-21T18:24:38	16.6	68.5
107194	2025-02-21T18:34:38	16.3	70
107195	2025-02-21T19:44:38	14.6	71.5
107196	2025-02-21T19:54:38	14.4	72.5
107197	2025-02-21T20:04:38	14.3	73.5
107198	2025-02-21T20:14:38	14	72
107199	2025-02-21T20:24:38	13.8	72
107200	2025-02-21T20:34:38	13.6	74
107201	2025-02-21T20:44:38	13.4	72.5
107202	2025-02-21T20:54:38	13.1	72.5
107203	2025-02-21T21:04:38	13	76
107204	2025-02-21T21:14:38	13	76.5
107205	2025-02-21T21:24:38	12.9	76.5
107206	2025-02-21T21:34:38	12.8	76
107207	2025-02-21T21:44:38	12.8	77.5
107208	2025-02-21T21:54:38	12.7	78
107209	2025-02-21T22:04:38	12.6	78
107210	2025-02-21T22:14:38	12.5	78.5
107211	2025-02-21T22:24:38	12.4	79
107212	2025-02-21T22:34:38	12.1	78.5
107213	2025-02-21T22:44:38	12.1	79
107214	2025-02-21T22:54:38	12	78.5
107215	2025-02-21T23:04:38	11.8	79
107216	2025-02-21T23:14:38	11.8	77
107217	2025-02-21T23:24:38	11.6	77.5
107218	2025-02-21T23:34:38	11.3	79
107219	2025-02-21T23:44:38	11.3	80
107220	2025-02-21T23:54:38	11.1	81
107221	2025-02-22T00:04:38	11.1	81
107222	2025-02-22T00:14:38	10.9	81.5
107223	2025-02-22T00:24:38	10.6	77
107224	2025-02-22T00:34:38	10.5	80.5
107225	2025-02-22T00:44:38	10.5	81.5
107226	2025-02-22T00:54:38	10.5	81
107227	2025-02-22T01:04:38	10.4	81.5
107228	2025-02-22T01:14:38	10.2	82
107229	2025-02-22T01:24:57	10.1	82
107230	2025-02-22T01:34:38	9.9	82
107231	2025-02-22T01:44:38	9.8	82
107232	2025-02-22T01:54:37	9.7	81.5
107233	2025-02-22T02:04:37	9.8	82
107234	2025-02-22T02:14:37	9.6	79
107235	2025-02-22T02:24:37	9.5	82
107236	2025-02-22T02:34:37	9.6	81.5
107237	2025-02-22T02:44:37	9.5	82.5
107238	2025-02-22T02:54:37	9.3	82.5
107239	2025-02-22T03:04:37	9.2	82.5
107240	2025-02-22T03:14:37	9	83
107241	2025-02-22T03:24:37	8.8	83
107242	2025-02-22T03:34:37	8.7	83.5
107243	2025-02-22T03:44:37	8.6	83
107244	2025-02-22T03:54:37	8.6	83
107245	2025-02-22T04:04:37	8.5	82
107246	2025-02-22T04:14:37	8.5	83.5
107247	2025-02-22T04:24:37	8.5	83.5
107248	2025-02-22T04:34:37	8.5	83.5
107249	2025-02-22T04:44:37	8.5	83.5
107250	2025-02-22T04:54:37	8.3	83.5
107251	2025-02-22T05:04:37	8.2	83.5
107252	2025-02-22T05:14:37	8.1	83.5
107253	2025-02-22T05:24:37	8.1	84
107254	2025-02-22T05:34:37	7.9	84
107255	2025-02-22T05:44:37	7.8	84
107256	2025-02-22T05:54:37	7.7	84
107257	2025-02-22T06:04:37	7.7	84
107258	2025-02-22T06:14:37	7.7	84
107259	2025-02-22T06:24:37	7.6	84.5
107260	2025-02-22T06:34:37	7.6	84
107261	2025-02-22T06:44:37	7.5	84.5
107262	2025-02-22T06:54:37	7.4	83
107263	2025-02-22T07:04:37	7.5	84.5
107264	2025-02-22T07:14:37	7.6	84.5
107265	2025-02-22T07:24:37	7.6	85
107266	2025-02-22T07:34:37	7.8	85.5
107267	2025-02-22T07:44:37	7.8	84
107268	2025-02-22T07:54:37	7.6	85.5
107269	2025-02-22T08:04:37	7.6	86.5
107270	2025-02-22T08:14:37	7.9	86
107271	2025-02-22T08:24:37	7.8	86.5
107272	2025-02-22T08:34:37	8	87
107273	2025-02-22T08:44:37	8.3	86
107274	2025-02-22T08:54:37	8.5	85.5
107275	2025-02-22T09:04:37	8.6	85.5
107276	2025-02-22T09:14:37	8.8	84.5
107277	2025-02-22T09:24:37	9.1	83.5
107278	2025-02-22T09:34:37	9.3	82.5
107279	2025-02-22T09:44:37	9.5	82
107280	2025-02-22T09:54:37	9.8	83
107281	2025-02-22T10:04:37	9.9	81.5
107282	2025-02-22T10:14:37	10.1	79.5
107283	2025-02-22T10:24:37	10.3	80
107284	2025-02-22T10:34:37	10.7	78.5
107285	2025-02-22T10:44:37	11	78
107286	2025-02-22T10:54:37	11.4	77
107287	2025-02-22T11:04:37	11.8	76.5
107288	2025-02-22T11:14:37	12.1	75
107289	2025-02-22T11:24:37	12.4	73
107290	2025-02-22T11:34:37	12.7	70
107291	2025-02-22T11:44:37	12.8	70
107292	2025-02-22T11:54:37	12.9	70.5
107293	2025-02-22T12:04:37	13.1	70
107294	2025-02-22T12:14:37	13.2	68.5
107295	2025-02-22T12:24:37	13.4	68.5
107296	2025-02-22T12:34:37	13.6	69
107297	2025-02-22T12:44:37	13.7	67.5
107298	2025-02-22T12:54:37	13.7	67
107299	2025-02-22T13:04:37	13.7	68.5
107300	2025-02-22T13:14:37	13.6	68.5
107301	2025-02-22T13:24:37	13.7	68.5
107302	2025-02-22T13:34:37	13.7	69
107303	2025-02-22T13:44:37	13.9	70.5
107304	2025-02-22T13:54:37	13.9	68.5
107305	2025-02-22T14:04:37	14	68.5
107306	2025-02-22T14:14:37	14	68.5
107307	2025-02-22T14:24:37	13.8	70
107308	2025-02-22T14:34:37	13.8	72.5
107309	2025-02-22T14:44:37	13.8	72.5
107310	2025-02-22T14:54:37	13.8	73.5
107311	2025-02-22T15:04:37	13.7	73
107312	2025-02-22T15:14:37	13.7	74
107313	2025-02-22T15:24:37	13.7	73.5
107314	2025-02-22T15:34:37	13.5	74.5
107315	2025-02-22T15:44:37	13.4	76.5
107316	2025-02-22T15:54:37	13.5	77.5
107317	2025-02-22T16:04:37	13.4	71
107318	2025-02-22T16:14:37	13.6	70
107319	2025-02-22T16:24:37	13.6	71
107320	2025-02-22T16:34:37	13.5	73.5
107321	2025-02-22T16:44:37	13.5	71.5
107322	2025-02-22T16:54:37	13.5	73.5
107323	2025-02-22T17:04:37	13.5	76
107324	2025-02-22T17:14:37	13.5	76
107325	2025-02-22T17:24:37	13.5	71
107326	2025-02-22T17:34:37	13.6	69.5
107327	2025-02-22T17:44:37	13.7	70
107328	2025-02-22T17:54:37	13.8	69
107329	2025-02-22T18:04:37	13.9	69.5
107330	2025-02-22T18:14:37	13.8	69.5
107331	2025-02-22T18:24:37	13.7	70.5
107332	2025-02-22T18:34:37	13.5	71
107333	2025-02-22T18:44:37	13.4	72
107334	2025-02-22T18:54:37	13.4	72.5
107335	2025-02-22T19:04:36	13.3	74.5
107336	2025-02-22T19:14:36	13.3	72.5
107337	2025-02-22T19:24:36	13.4	72.5
107338	2025-02-22T19:34:36	13.5	72.5
107339	2025-02-22T19:44:36	13.4	72.5
107340	2025-02-22T19:54:36	13.5	72.5
107341	2025-02-22T20:04:36	13.5	72.5
107342	2025-02-22T20:14:36	13.6	72.5
107343	2025-02-22T20:24:36	13.5	73.5
107344	2025-02-22T20:34:36	13.3	74
107345	2025-02-22T20:44:36	13.4	74
107346	2025-02-22T20:54:36	13.3	74.5
107347	2025-02-22T21:04:36	13.1	75.5
107348	2025-02-22T21:14:36	13.1	76
107349	2025-02-22T21:24:36	13.2	76.5
107350	2025-02-22T21:34:36	13	77
107351	2025-02-22T21:44:56	13.1	77
107352	2025-02-22T21:54:36	12.9	78
107353	2025-02-22T22:04:36	12.7	78.5
107354	2025-02-22T22:14:36	12.6	78.5
107355	2025-02-22T22:24:36	12.2	77.5
107356	2025-02-22T22:34:36	12.1	75.5
107357	2025-02-22T22:44:36	12	75.5
107358	2025-02-22T22:54:36	11.9	76.5
107359	2025-02-22T23:04:36	11.8	77
107360	2025-02-22T23:14:36	11.7	77.5
107361	2025-02-22T23:24:36	11.6	77
107362	2025-02-22T23:34:36	11.4	77
107363	2025-02-22T23:44:36	11.2	77
107364	2025-02-22T23:54:36	11.1	77.5
107365	2025-02-23T00:04:36	11	78
107366	2025-02-23T00:14:36	10.8	78
107367	2025-02-23T00:24:36	10.8	78.5
107368	2025-02-23T00:34:36	10.7	79
107369	2025-02-23T00:44:36	10.6	78.5
107370	2025-02-23T00:54:36	10.5	79
107371	2025-02-23T01:04:36	10.6	78.5
107372	2025-02-23T01:14:36	10.6	79
107373	2025-02-23T01:24:36	10.6	79
107374	2025-02-23T01:34:36	10.6	79
107375	2025-02-23T01:44:36	10.5	79.5
107376	2025-02-23T01:54:36	10.5	80
107377	2025-02-23T02:04:36	10.5	80.5
107378	2025-02-23T02:14:36	10.5	80.5
107379	2025-02-23T02:24:36	10.3	81
107380	2025-02-23T02:34:36	10.5	81
107381	2025-02-23T02:44:36	10.5	81.5
107382	2025-02-23T02:54:36	10.4	81.5
107383	2025-02-23T03:04:36	10.1	81.5
107384	2025-02-23T03:14:36	9.8	82.5
107385	2025-02-23T03:24:36	9.7	83
107386	2025-02-23T03:34:36	9.6	83.5
107387	2025-02-23T03:44:36	9.6	84.5
107388	2025-02-23T03:54:36	9.6	84.5
107389	2025-02-23T04:04:36	9.7	84.5
107390	2025-02-23T04:14:36	9.8	84
107391	2025-02-23T04:24:36	9.7	84.5
107392	2025-02-23T04:34:36	9.8	84.5
107393	2025-02-23T04:44:36	9.7	84.5
107394	2025-02-23T04:54:36	9.6	84.5
107395	2025-02-23T05:04:36	9.6	85
107396	2025-02-23T05:14:36	9.5	85
107397	2025-02-23T05:24:36	9.5	85
107398	2025-02-23T05:34:36	9.5	85
107399	2025-02-23T05:44:36	9.6	85
107400	2025-02-23T05:54:36	9.5	85.5
107401	2025-02-23T06:04:36	9.6	85
107402	2025-02-23T06:14:36	9.3	85
107403	2025-02-23T06:24:36	9.4	85
107404	2025-02-23T06:34:36	9.3	84.5
107405	2025-02-23T06:44:36	9.3	85.5
107406	2025-02-23T06:54:36	9.2	85.5
107407	2025-02-23T07:04:36	9.2	86.5
107408	2025-02-23T07:14:36	9.1	86.5
107409	2025-02-23T07:24:36	9.1	86.5
107410	2025-02-23T07:34:36	9.3	87
107411	2025-02-23T07:44:36	9.4	86.5
107412	2025-02-23T07:54:36	9.6	86.5
107413	2025-02-23T08:04:36	9.5	86.5
107414	2025-02-23T08:14:36	9.7	85.5
107415	2025-02-23T08:24:36	9.9	85
107416	2025-02-23T08:34:36	10.1	84
107417	2025-02-23T08:44:36	10.2	83.5
107418	2025-02-23T08:54:36	10.4	83
107419	2025-02-23T09:04:36	10.5	82.5
107420	2025-02-23T09:14:36	10.6	82.5
107421	2025-02-23T09:24:36	10.6	82
107422	2025-02-23T09:34:36	11	81.5
107423	2025-02-23T09:44:36	11.2	81
107424	2025-02-23T09:54:36	11.4	80
107425	2025-02-23T10:04:36	11.4	80
107426	2025-02-23T10:14:36	11.4	79.5
107427	2025-02-23T10:24:36	11.6	79
107428	2025-02-23T10:34:36	11.9	79
107429	2025-02-23T10:44:36	11.8	77.5
107430	2025-02-23T10:54:36	11.7	77.5
107431	2025-02-23T11:04:36	11.9	77.5
107432	2025-02-23T11:14:36	12.2	76
107433	2025-02-23T11:24:35	12.6	75
107434	2025-02-23T11:34:35	12.9	73.5
107435	2025-02-23T11:44:35	13.2	73
107436	2025-02-23T11:54:35	13.4	72
107437	2025-02-23T12:04:35	13.4	71.5
107438	2025-02-23T12:14:35	13.6	72.5
107439	2025-02-23T12:24:35	14	71
107440	2025-02-23T12:34:35	14.5	68
107441	2025-02-23T12:44:35	15.8	64.5
107442	2025-02-23T12:54:35	17.4	58
107443	2025-02-23T13:04:35	19.1	53.5
107444	2025-02-23T13:14:35	20.1	49.5
107445	2025-02-23T13:24:35	20.3	49
107446	2025-02-23T13:34:35	21.2	47.5
107447	2025-02-23T13:44:35	21.4	47
107448	2025-02-23T13:54:35	22.1	46.5
107449	2025-02-23T14:04:35	22.4	45.5
107450	2025-02-23T14:14:35	22.5	45.5
107451	2025-02-23T14:24:35	22.4	43
107452	2025-02-23T14:34:35	22.2	42
107453	2025-02-23T14:44:35	23.1	46
107454	2025-02-23T14:54:35	23.7	43
107455	2025-02-23T15:04:35	23.7	39.5
107456	2025-02-23T15:14:35	24	39.5
107457	2025-02-23T15:24:35	24	38.5
107458	2025-02-23T15:34:35	24.1	39
107459	2025-02-23T15:44:35	24.5	37.5
107460	2025-02-23T15:54:35	24.1	37.5
107461	2025-02-23T16:04:35	24.1	36
107462	2025-02-23T16:14:35	23.4	39.5
107463	2025-02-23T16:24:35	23	38.5
107464	2025-02-23T16:34:35	22.3	43
107465	2025-02-23T16:44:35	22	43
107466	2025-02-23T16:54:35	21.1	53
107467	2025-02-23T17:04:35	20.2	51.5
107468	2025-02-23T17:14:35	19.6	57.5
107469	2025-02-23T17:24:35	19	58
107470	2025-02-23T17:34:35	18.4	59.5
107471	2025-02-23T17:44:35	17.9	60
107472	2025-02-23T17:54:35	17.5	61.5
107473	2025-02-23T18:04:35	17.1	62.5
107474	2025-02-23T18:14:35	16.8	63
107475	2025-02-23T18:24:35	16.4	63.5
107476	2025-02-23T18:34:35	16	64
107477	2025-02-23T18:44:35	15.7	64.5
107478	2025-02-23T18:54:35	15.4	65.5
107479	2025-02-23T19:04:35	15.1	66
107480	2025-02-23T19:14:35	14.8	66.5
107481	2025-02-23T19:24:35	14.5	67
107482	2025-02-23T19:34:35	14.3	67.5
107483	2025-02-23T19:44:35	14	68
107484	2025-02-23T19:54:35	13.6	68
107485	2025-02-23T20:04:35	13.5	69.5
107486	2025-02-23T20:14:35	13.2	67
107487	2025-02-23T20:24:35	12.9	68
107488	2025-02-23T20:34:35	12.6	67.5
107489	2025-02-23T20:44:35	12.4	70
107490	2025-02-23T20:54:35	12.2	70.5
107491	2025-02-23T21:04:35	12	70
107492	2025-02-23T21:14:35	11.8	71.5
107493	2025-02-23T21:24:35	11.6	72
107494	2025-02-23T21:34:35	11.3	72
107495	2025-02-23T21:44:35	11.2	72.5
107496	2025-02-23T21:54:35	11	71
107497	2025-02-23T22:04:35	10.8	73
107498	2025-02-23T22:14:35	10.5	73
107499	2025-02-23T22:24:35	10.4	73
107500	2025-02-23T22:34:35	10.2	73.5
107501	2025-02-23T22:44:35	10.1	73.5
107502	2025-02-23T22:54:35	9.9	74.5
107503	2025-02-23T23:04:35	9.9	75
107504	2025-02-23T23:14:35	9.7	74.5
107505	2025-02-23T23:24:35	9.5	75
107506	2025-02-23T23:34:35	9.4	75
107507	2025-02-23T23:44:35	9.4	75
107508	2025-02-23T23:54:35	9.2	76
107509	2025-02-24T00:04:35	9.1	75.5
107510	2025-02-24T00:14:35	9	75
107511	2025-02-24T00:24:35	8.9	76
107512	2025-02-24T00:34:35	8.7	76.5
107513	2025-02-24T00:44:35	8.6	76
107514	2025-02-24T00:54:34	8.6	77
107515	2025-02-24T01:04:34	8.6	77
107516	2025-02-24T01:14:34	8.4	76.5
107517	2025-02-24T01:24:34	8.3	77
107518	2025-02-24T01:34:34	8.3	77.5
107519	2025-02-24T01:44:34	8.3	77.5
107520	2025-02-24T01:54:34	8.2	77.5
107521	2025-02-24T02:04:34	8.1	78
107522	2025-02-24T02:14:34	8	78
107523	2025-02-24T02:24:34	8	78.5
107524	2025-02-24T02:34:34	7.8	78.5
107525	2025-02-24T02:44:34	7.8	79
107526	2025-02-24T02:54:34	7.7	79.5
107527	2025-02-24T03:04:34	7.4	79
107528	2025-02-24T03:14:34	7.3	80
107529	2025-02-24T03:24:34	7.2	80
107530	2025-02-24T03:34:34	7.2	80
107531	2025-02-24T03:44:34	7.2	80.5
107532	2025-02-24T03:54:34	7.1	79.5
107533	2025-02-24T04:04:34	7.2	80.5
107534	2025-02-24T04:14:34	7.1	78.5
107535	2025-02-24T04:24:34	7.2	79.5
107536	2025-02-24T04:34:34	7.1	81
107537	2025-02-24T04:44:34	7.1	80.5
107538	2025-02-24T04:54:34	7.1	81.5
107539	2025-02-24T05:04:34	6.9	81.5
107540	2025-02-24T05:14:34	6.9	82
107541	2025-02-24T05:24:34	6.9	82
107542	2025-02-24T05:34:34	6.9	82.5
107543	2025-02-24T05:44:34	6.9	82
107544	2025-02-24T05:54:34	6.9	81.5
107545	2025-02-24T06:04:34	6.8	83.5
107546	2025-02-24T06:14:34	6.8	83.5
107547	2025-02-24T06:24:34	6.9	83.5
107548	2025-02-24T06:34:34	6.8	83.5
107549	2025-02-24T06:44:34	7	84
107550	2025-02-24T06:54:34	7	84.5
107551	2025-02-24T07:04:34	7	84
107552	2025-02-24T07:14:34	7.1	84.5
107553	2025-02-24T07:24:34	7.2	84
107554	2025-02-24T07:34:34	7.3	84
107555	2025-02-24T07:44:34	7.4	84
107556	2025-02-24T07:54:34	7.6	84
107557	2025-02-24T08:04:34	7.6	84.5
107558	2025-02-24T08:14:34	7.8	83.5
107559	2025-02-24T08:24:34	8	83.5
107560	2025-02-24T08:34:34	8.2	83.5
107561	2025-02-24T08:44:34	8.3	84
107562	2025-02-24T08:54:34	8.4	82.5
107563	2025-02-24T09:04:34	8.4	82.5
107564	2025-02-24T09:14:34	8.7	81.5
107565	2025-02-24T09:24:34	8.8	82.5
107566	2025-02-24T09:34:34	9.1	82
107567	2025-02-24T09:44:34	9.1	80.5
107568	2025-02-24T09:54:34	9.3	79.5
107569	2025-02-24T10:04:34	9.4	79.5
107570	2025-02-24T10:14:34	9.6	79
107571	2025-02-24T10:24:34	9.8	79.5
107572	2025-02-24T10:34:34	9.9	78.5
107573	2025-02-24T10:44:34	10.1	78
107574	2025-02-24T10:54:34	10.2	76
107575	2025-02-24T11:04:34	10.4	77.5
107576	2025-02-24T11:14:34	10.4	77
107577	2025-02-24T11:24:34	10.7	77
107578	2025-02-24T11:34:34	10.8	75.5
107579	2025-02-24T11:44:34	11.1	75.5
107580	2025-02-24T11:54:34	11.2	75
107581	2025-02-24T12:04:34	11.3	76
107582	2025-02-24T12:14:34	11.5	76
107583	2025-02-24T12:24:34	11.6	76.5
107584	2025-02-24T12:34:34	11.7	74
107585	2025-02-24T12:44:34	11.6	76
107586	2025-02-24T12:54:34	11.7	75.5
107587	2025-02-24T13:04:34	11.9	74.5
107588	2025-02-24T13:14:34	12.2	75
107589	2025-02-24T13:24:34	12.5	74
107590	2025-02-24T13:34:34	12.6	74.5
107591	2025-02-24T13:44:34	12.6	74
107592	2025-02-24T13:54:34	12.4	74.5
107593	2025-02-24T14:04:34	12.4	75.5
107594	2025-02-24T14:14:34	12.5	75.5
107595	2025-02-24T14:24:34	12.6	75.5
107596	2025-02-24T14:34:34	12.5	75
107597	2025-02-24T14:44:34	12.6	75.5
107598	2025-02-24T14:54:34	12.3	76.5
107599	2025-02-24T15:04:34	12.4	76.5
107600	2025-02-24T15:14:34	12.2	77
107601	2025-02-24T15:24:34	12.3	77
107602	2025-02-24T15:34:34	12.3	78
107603	2025-02-24T15:44:34	12.2	79
107604	2025-02-24T15:54:34	12.1	79
107605	2025-02-24T16:04:34	12.1	80
107606	2025-02-24T16:14:34	11.9	80
107607	2025-02-24T16:24:34	12	80
107608	2025-02-24T16:34:34	11.8	80.5
107609	2025-02-24T16:44:34	11.8	80.5
107610	2025-02-24T16:54:34	11.7	81.5
107611	2025-02-24T17:04:34	11.6	82.5
107612	2025-02-24T21:04:33	10.4	91.5
107613	2025-02-24T21:14:33	10.1	92.5
107614	2025-02-24T21:24:33	9.9	97
107615	2025-02-24T21:34:33	9.9	98.5
107616	2025-02-24T21:44:33	9.9	97.5
107617	2025-02-24T21:54:33	10.1	97
107618	2025-02-24T22:04:33	10.1	97.5
107619	2025-02-24T22:14:33	10.2	99
107620	2025-02-24T22:24:33	10.2	95.5
107621	2025-02-24T22:34:33	10.1	94
107622	2025-02-24T22:44:33	10.1	94.5
107623	2025-02-24T22:54:33	10	94.5
107624	2025-02-24T23:04:33	10	94.5
107625	2025-02-24T23:14:33	9.9	95
107626	2025-02-24T23:24:33	10.1	95
107627	2025-02-24T23:34:33	10.2	98
107628	2025-02-24T23:44:33	10.2	96
107629	2025-02-24T23:54:33	10.1	92.5
107630	2025-02-25T00:04:33	10	93.5
107631	2025-02-25T00:14:33	10.1	93.5
107632	2025-02-25T00:24:33	10	93.5
107633	2025-02-25T00:34:33	10	93.5
107634	2025-02-25T00:44:33	9.9	94
107635	2025-02-25T00:54:33	9.9	94
107636	2025-02-25T01:04:33	9.9	94
107637	2025-02-25T01:14:33	9.9	95
107638	2025-02-25T01:24:33	9.8	95
107639	2025-02-25T01:34:33	9.8	94
107640	2025-02-25T01:44:33	9.8	95
107641	2025-02-25T01:54:33	9.8	95.5
107642	2025-02-25T02:04:33	9.9	95.5
107643	2025-02-25T02:14:33	9.9	93
107644	2025-02-25T02:24:33	10.1	94.5
107645	2025-02-25T02:34:33	10.1	91.5
107646	2025-02-25T02:44:33	10	91
107647	2025-02-25T02:54:33	10.1	92.5
107648	2025-02-25T03:04:33	10.2	97.5
107649	2025-02-25T03:14:33	10.3	99.5
107650	2025-02-25T03:24:33	10.2	100
107651	2025-02-25T03:34:33	10.2	100
107652	2025-02-25T03:44:33	10.3	100
107653	2025-02-25T03:54:33	10.3	100
107654	2025-02-25T04:04:33	10.1	100
107655	2025-02-25T04:14:33	10.2	100
107656	2025-02-25T04:24:33	10.1	100
107657	2025-02-25T04:34:33	10.2	100
107658	2025-02-25T04:44:33	10.2	100
107659	2025-02-25T04:54:33	10.1	100
107660	2025-02-25T05:04:33	10.1	100
107661	2025-02-25T05:14:33	10.1	100
107662	2025-02-25T05:24:33	10	100
107663	2025-02-25T05:34:33	10	100
107664	2025-02-25T05:44:33	10	100
107665	2025-02-25T05:54:33	9.8	100
107666	2025-02-25T06:04:33	9.8	100
107667	2025-02-25T06:14:33	9.7	100
107668	2025-02-25T06:24:33	9.6	100
107669	2025-02-25T06:34:33	9.4	100
107670	2025-02-25T06:44:33	9.3	100
107671	2025-02-25T06:54:33	9.4	100
107672	2025-02-25T07:04:33	9.3	100
107673	2025-02-25T07:14:33	9.3	100
107674	2025-02-25T07:24:33	9.4	100
107675	2025-02-25T07:34:33	9.5	100
107676	2025-02-25T07:44:33	9.7	100
107677	2025-02-25T07:54:33	9.8	100
107678	2025-02-25T08:04:33	10	100
107679	2025-02-25T08:14:33	10.1	100
107680	2025-02-25T08:24:33	10.2	99
107681	2025-02-25T08:34:33	10.4	100
107682	2025-02-25T08:44:33	10.4	99
107683	2025-02-25T08:54:33	10.6	99
107684	2025-02-25T09:04:33	10.7	97
107685	2025-02-25T09:14:33	10.9	98
107686	2025-02-25T09:24:33	11	97.5
107687	2025-02-25T09:34:33	11.4	96
107688	2025-02-25T09:44:33	11.5	96.5
107689	2025-02-25T09:54:33	11.7	96.5
107690	2025-02-25T10:04:33	11.5	97.5
107691	2025-02-25T10:14:33	11.6	97.5
107692	2025-02-25T10:24:33	11.7	96.5
107693	2025-02-25T10:34:33	11.6	96
107694	2025-02-25T10:44:33	11.8	97.5
107695	2025-02-25T10:54:33	11.8	95.5
107696	2025-02-25T11:07:57	11.8	91.5
107697	2025-02-25T11:14:33	11.3	97
107698	2025-02-25T11:24:33	11.5	100
107699	2025-02-25T11:34:33	11.6	100
107700	2025-02-25T11:44:33	11.6	99.5
107701	2025-02-25T11:54:33	11.1	96
107702	2025-02-25T12:04:33	10.6	100
107703	2025-02-25T12:14:33	10.5	100
107704	2025-02-25T12:24:33	10.2	100
107705	2025-02-25T12:34:33	10.7	100
107706	2025-02-25T12:44:32	10.8	100
107707	2025-02-25T12:54:32	10.9	100
107708	2025-02-25T13:04:32	10.9	100
107709	2025-02-25T13:14:32	11.1	100
107710	2025-02-25T13:24:32	11.5	100
107711	2025-02-25T13:34:32	11.8	100
107712	2025-02-25T13:44:32	11.8	100
107713	2025-02-25T13:54:32	11.8	100
107714	2025-02-25T14:04:32	11.7	100
107715	2025-02-25T14:14:32	11.7	100
107716	2025-02-25T14:24:32	11.6	100
107717	2025-02-25T14:34:32	11.3	100
107718	2025-02-25T14:44:32	11.4	100
107719	2025-02-25T14:54:32	11.3	99.5
107720	2025-02-25T15:04:32	11.3	98
107721	2025-02-25T15:14:32	11.3	97.5
107722	2025-02-25T15:24:32	11.6	97
107723	2025-02-25T15:34:32	11.6	96
107724	2025-02-25T15:44:32	12.6	95.5
107725	2025-02-25T15:54:32	14.2	95.5
107726	2025-02-25T16:04:32	15.1	95.5
107727	2025-02-25T16:14:32	15.2	95
107728	2025-02-25T16:24:32	15.4	95
107729	2025-02-25T16:34:32	14.9	95
107730	2025-02-25T16:44:32	14.2	95.5
107731	2025-02-25T16:54:32	13.5	95
107732	2025-02-25T17:04:32	13	95
107733	2025-02-25T17:14:32	12.6	95.5
107734	2025-02-25T17:24:32	12.3	95.5
107735	2025-02-25T17:34:32	11.9	95
107736	2025-02-25T17:44:32	11.7	95.5
107737	2025-02-25T17:54:32	11.5	95.5
107738	2025-02-25T18:04:32	11.3	95.5
107739	2025-02-25T18:14:32	11.3	95.5
107740	2025-02-25T18:24:32	10.5	95.5
107741	2025-02-25T18:34:32	10.5	95.5
107742	2025-02-25T18:44:32	9.5	95.5
107743	2025-02-25T18:54:32	9.5	95.5
107744	2025-02-25T19:04:32	9.6	95.5
107745	2025-02-25T19:14:32	9.3	95.5
107746	2025-02-25T19:24:32	9.1	95.5
107747	2025-02-25T19:34:32	9.1	95.5
107748	2025-02-25T19:44:32	9.3	95.5
107749	2025-02-25T19:54:32	9.6	95.5
107750	2025-02-25T20:04:32	9.7	95.5
107751	2025-02-25T20:14:32	9.6	95.5
107752	2025-02-25T20:24:32	9.6	95.5
107753	2025-02-25T20:34:32	9.6	95.5
107754	2025-02-25T20:44:32	9.5	95.5
107755	2025-02-25T20:54:32	9.4	95.5
107756	2025-02-25T21:04:32	9.3	95.5
107757	2025-02-25T21:14:32	9.2	95.5
107758	2025-02-25T21:24:32	8.8	95.5
107759	2025-02-25T21:34:32	8.5	95.5
107760	2025-02-25T21:44:32	8.5	95.5
107761	2025-02-25T21:54:32	8.6	95.5
107762	2025-02-25T22:04:32	8.5	95.5
107763	2025-02-25T22:14:32	8.5	95.5
107764	2025-02-25T22:24:32	8.5	95.5
107765	2025-02-25T22:34:32	8.5	95.5
107766	2025-02-25T22:44:32	8.5	95.5
107767	2025-02-25T22:54:32	8.3	95.5
107768	2025-02-25T23:44:32	8.2	95.5
107769	2025-02-26T00:24:38	7.1	95.5
107770	2025-02-26T00:44:32	6.4	95.5
107771	2025-02-26T00:54:32	6.4	95.5
107772	2025-02-26T02:04:32	5.9	95.5
107773	2025-02-26T02:54:32	5.7	95.5
107774	2025-02-26T03:24:32	5.5	95.5
107775	2025-02-26T03:34:32	5.4	95.5
107776	2025-02-26T04:24:32	5.4	95.5
107777	2025-02-26T05:04:32	5.5	95.5
107778	2025-02-26T05:14:32	5.5	95.5
107779	2025-02-26T05:44:32	5.5	95.5
107780	2025-02-26T07:04:32	5.3	96
107781	2025-02-26T07:34:32	5.1	96
107782	2025-02-26T08:34:32	5.5	96
107783	2025-02-26T08:44:32	5.6	96
107784	2025-02-26T09:04:32	5.8	96
107785	2025-02-26T09:24:32	6	96
107786	2025-02-26T09:34:32	6.1	96
107787	2025-02-26T09:44:32	6.1	96
107788	2025-02-26T09:54:32	6.2	96
107789	2025-02-26T10:04:31	6.1	96
107790	2025-02-26T10:14:31	6	96
107791	2025-02-26T10:44:31	5.9	96
107792	2025-02-26T10:54:31	5.9	96
107793	2025-02-26T11:04:31	5.8	96
107794	2025-02-26T11:14:32	5.9	96
107795	2025-02-26T11:24:31	5.9	96
107796	2025-02-26T11:34:31	5.9	96
107797	2025-02-26T11:44:31	6.1	96
107798	2025-02-26T11:54:31	6.2	96
107799	2025-02-26T12:04:31	6.2	96
107800	2025-02-26T12:24:31	6.5	96
107801	2025-02-26T12:34:31	6.4	96
107802	2025-02-26T12:54:31	6.7	96
107803	2025-02-26T13:04:31	6.7	96
107804	2025-02-26T13:14:31	6.7	96
107805	2025-02-26T13:24:31	6.7	96
107806	2025-02-26T13:44:31	6.5	96
107807	2025-02-26T13:54:31	6.3	96
107808	2025-02-26T14:04:31	6.3	96
107809	2025-02-26T14:14:31	6.6	96
107810	2025-02-26T14:34:31	7.1	96
107811	2025-02-26T14:44:31	7.1	96
107812	2025-02-26T14:54:31	8.1	96
107813	2025-02-26T15:04:31	9.2	96
107814	2025-02-26T15:24:52	10.1	96
107815	2025-02-26T15:34:31	9.3	96
107816	2025-02-26T15:44:31	8.8	96
107817	2025-02-26T15:54:31	9.1	96
107818	2025-02-26T16:04:31	8.4	96
107819	2025-02-26T16:34:31	8.2	96
107820	2025-02-26T16:44:31	8.2	96
107821	2025-02-26T16:54:31	7.9	96
107822	2025-02-26T17:04:31	7.7	96
107823	2025-02-26T17:24:31	7.4	96
107824	2025-02-26T17:34:31	7.2	96
107825	2025-02-26T17:44:31	6.9	96
107826	2025-02-26T17:54:31	6.8	96
107827	2025-02-26T18:04:31	6.7	96
107828	2025-02-26T18:14:31	6.6	96
107829	2025-02-26T18:24:31	6.5	96
107830	2025-02-26T18:34:31	6.2	96
107831	2025-02-26T18:44:31	6.3	96
107832	2025-02-26T18:54:31	6.2	96
107833	2025-02-26T19:24:31	5.9	96
107834	2025-02-26T19:44:31	5.6	96
107835	2025-02-26T19:54:31	5.5	96
107836	2025-02-26T20:04:31	5.5	96
107837	2025-02-26T20:14:31	5.3	96
107838	2025-02-26T20:24:31	5.2	96
107839	2025-02-26T20:34:31	5.1	96
107840	2025-02-26T20:44:31	5	96
107841	2025-02-26T21:14:31	4.7	96
107842	2025-02-26T21:24:31	4.6	96
107843	2025-02-26T21:34:31	4.6	96
107844	2025-02-26T21:44:31	4.5	96
107845	2025-02-26T22:04:31	4.3	96
107846	2025-02-26T22:14:31	4.4	96
107847	2025-02-26T22:24:31	4.3	96
107848	2025-02-26T22:34:31	4.4	96
107849	2025-02-26T22:44:31	4.5	96
107850	2025-02-26T22:54:31	4.4	96
107851	2025-02-26T23:04:31	4.4	96
107852	2025-02-26T23:14:31	4.3	96
107853	2025-02-26T23:24:31	4.3	96
107854	2025-02-26T23:34:31	4.4	96
107855	2025-02-26T23:44:31	4.5	96
107856	2025-02-26T23:54:31	4.6	96
107857	2025-02-27T00:04:31	4.6	96
107858	2025-02-27T00:14:31	4.5	96
107859	2025-02-27T00:24:31	4.4	96
107860	2025-02-27T00:34:31	4.4	96
107861	2025-02-27T00:44:31	4.4	96
107862	2025-02-27T00:54:31	4.4	96
107863	2025-02-27T01:04:31	4.4	96
107864	2025-02-27T01:14:31	4.6	96
107865	2025-02-27T01:24:31	4.5	96
107866	2025-02-27T01:34:31	4.5	96
107867	2025-02-27T01:44:31	4.7	96
107868	2025-02-27T01:54:31	4.7	96
107869	2025-02-27T02:04:31	4.7	96
107870	2025-02-27T02:14:31	4.7	96
107871	2025-02-27T02:24:31	4.9	96
107872	2025-02-27T02:34:31	4.8	96
107873	2025-02-27T02:44:31	4.7	96
107874	2025-02-27T02:54:31	4.6	96
107875	2025-02-27T03:04:31	4.6	96
107876	2025-02-27T03:14:31	4.6	96
107877	2025-02-27T03:24:31	4.7	96
107878	2025-02-27T03:34:31	4.6	96
107879	2025-02-27T03:44:31	4.6	96
107880	2025-02-27T03:54:31	4.6	96.5
107881	2025-02-27T04:04:31	4.6	96.5
107882	2025-02-27T04:14:31	4.5	96
107883	2025-02-27T04:24:31	4.5	96.5
107884	2025-02-27T04:34:31	4.6	96
107885	2025-02-27T04:44:31	4.7	96.5
107886	2025-02-27T04:54:31	4.7	96
107887	2025-02-27T05:04:31	4.7	96
107888	2025-02-27T05:14:31	4.9	96.5
107889	2025-02-27T05:24:31	4.8	96.5
107890	2025-02-27T05:34:31	5	96.5
107891	2025-02-27T05:44:31	5	96.5
107892	2025-02-27T05:54:31	5.1	96.5
107893	2025-02-27T06:04:31	5.1	96.5
107894	2025-02-27T06:14:31	5	96
107895	2025-02-27T06:24:31	4.9	96.5
107896	2025-02-27T06:34:31	4.8	96.5
107897	2025-02-27T06:44:31	4.9	96
107898	2025-02-27T06:54:31	5	96.5
107899	2025-02-27T07:04:31	4.9	96.5
107900	2025-02-27T07:14:31	5	96.5
107901	2025-02-27T07:24:31	5.1	96.5
107902	2025-02-27T07:34:31	5.2	96.5
107903	2025-02-27T07:44:50	5.1	96.5
107904	2025-02-27T07:54:31	5.2	96.5
107905	2025-02-27T08:04:31	5.2	96.5
107906	2025-02-27T08:14:31	5.4	96.5
107907	2025-02-27T08:24:31	5.5	96.5
107908	2025-02-27T08:34:31	5.7	96.5
107909	2025-02-27T08:44:31	5.8	96.5
107910	2025-02-27T08:54:31	5.9	96.5
107911	2025-02-27T09:04:31	6	96
107912	2025-02-27T09:14:31	6.1	96
107913	2025-02-27T09:24:31	6.2	96.5
107914	2025-02-27T09:34:31	6.2	96.5
107915	2025-02-27T09:44:31	6.4	96.5
107916	2025-02-27T09:54:31	6.6	96.5
107917	2025-02-27T10:04:31	6.7	96.5
107918	2025-02-27T10:14:31	6.9	96.5
107919	2025-02-27T10:24:31	7	96.5
107920	2025-02-27T10:34:31	7.2	96.5
107921	2025-02-27T10:44:31	7.1	96.5
107922	2025-02-27T10:54:31	7.1	96.5
107923	2025-02-27T11:04:31	6.9	96.5
107924	2025-02-27T11:14:31	6.1	96.5
107925	2025-02-27T11:24:31	6.6	96.5
107926	2025-02-27T11:34:31	6.6	96.5
107927	2025-02-27T11:44:31	6.8	96.5
107928	2025-02-27T11:54:31	6.7	96.5
107929	2025-02-27T12:04:31	7	96.5
107930	2025-02-27T12:14:31	7.7	96.5
107931	2025-02-27T12:24:30	7.9	96.5
107932	2025-02-27T12:34:30	7.6	96.5
107933	2025-02-27T12:44:30	7.4	96.5
107934	2025-02-27T12:54:30	8.2	96.5
107935	2025-02-27T13:04:30	8.9	96.5
107936	2025-02-27T13:14:30	9.2	96.5
107937	2025-02-27T13:24:30	8.7	96.5
107938	2025-02-27T13:34:30	8.3	96.5
107939	2025-02-27T13:44:30	7.7	96.5
107940	2025-02-27T13:54:30	7.1	96.5
107941	2025-02-27T14:04:30	7.8	96.5
107942	2025-02-27T14:14:30	7.9	96.5
107943	2025-02-27T14:24:30	8.8	96.5
107944	2025-02-27T14:34:30	8.3	96.5
107945	2025-02-27T14:44:30	8.2	96.5
107946	2025-02-27T14:54:30	7.9	96.5
107947	2025-02-27T15:04:30	9.2	96.5
107948	2025-02-27T15:14:30	9.6	96.5
107949	2025-02-27T15:24:30	9.8	96.5
107950	2025-02-27T15:34:30	9.8	96
107951	2025-02-27T15:44:30	9.4	96.5
107952	2025-02-27T15:54:30	8.8	96.5
107953	2025-02-27T16:04:30	8.6	96.5
107954	2025-02-27T16:14:30	9.5	96.5
107955	2025-02-27T16:24:30	9.9	96.5
107956	2025-02-27T16:34:30	9.6	96.5
107957	2025-02-27T16:44:30	9.1	96.5
107958	2025-02-27T16:54:30	8.3	96.5
107959	2025-02-27T17:04:30	8	96.5
107960	2025-02-27T17:14:30	7.7	96.5
107961	2025-02-27T17:24:30	7.5	96.5
107962	2025-02-27T17:34:30	7.3	96.5
107963	2025-02-27T17:44:30	7.1	96.5
107964	2025-02-27T17:54:30	6.8	96.5
107965	2025-02-27T18:04:30	6.8	96.5
107966	2025-02-27T18:14:30	6.9	96.5
107967	2025-02-27T18:24:30	6.9	96.5
107968	2025-02-27T18:34:30	6.5	96.5
107969	2025-02-27T18:44:30	6.3	96.5
107970	2025-02-27T18:54:30	6.2	96.5
107971	2025-02-27T19:04:30	6.1	96.5
107972	2025-02-27T19:14:30	6.2	96.5
107973	2025-02-27T19:24:30	6.3	96.5
107974	2025-02-27T19:34:30	6.4	96.5
107975	2025-02-27T19:44:30	6.2	96.5
107976	2025-02-27T19:54:30	6.1	96.5
107977	2025-02-27T20:04:30	5.8	96.5
107978	2025-02-27T20:14:30	5.9	96.5
107979	2025-02-27T20:24:30	5.7	96.5
107980	2025-02-27T20:34:30	5.8	96.5
107981	2025-02-27T20:44:30	5.5	96.5
107982	2025-02-27T20:54:30	5.5	96.5
107983	2025-02-27T21:04:30	5.3	96.5
107984	2025-02-27T21:14:30	5.3	96.5
107985	2025-02-27T21:24:30	5.4	96.5
107986	2025-02-27T21:54:30	5.6	96.5
107987	2025-02-27T22:04:30	5.6	96.5
107988	2025-02-27T22:14:30	5.5	96.5
107989	2025-02-27T22:24:30	5.3	96.5
107990	2025-02-27T22:34:30	5.3	96.5
107991	2025-02-27T22:44:30	5.4	96.5
107992	2025-02-27T22:54:30	5.3	96.5
107993	2025-02-27T23:04:30	5.1	96.5
107994	2025-02-27T23:14:30	5.1	96.5
107995	2025-02-27T23:24:30	5.1	96.5
107996	2025-02-27T23:34:30	5.1	96.5
107997	2025-02-27T23:44:30	5	96.5
107998	2025-02-27T23:54:30	5	96.5
107999	2025-02-28T00:04:30	5.1	96.5
108000	2025-02-28T00:14:30	5	96.5
108001	2025-02-28T00:24:30	5.1	96.5
108002	2025-02-28T00:34:30	5.1	97
108003	2025-02-28T00:44:30	5	96.5
108004	2025-02-28T00:54:30	4.9	97
108005	2025-02-28T01:04:30	5.1	97
108006	2025-02-28T01:14:30	5.2	97
108007	2025-02-28T01:24:30	5.1	97
108008	2025-02-28T01:34:30	5.1	97
108009	2025-02-28T01:44:30	5.4	97
108010	2025-02-28T01:54:30	5.2	97
108011	2025-02-28T02:04:30	5.3	97
108012	2025-02-28T02:14:30	5.3	97
108013	2025-02-28T02:24:30	5.3	97
108014	2025-02-28T02:34:30	5.2	97
108015	2025-02-28T02:44:30	5.2	97
108016	2025-02-28T02:54:30	5.2	97
108017	2025-02-28T03:04:30	5.3	97
108018	2025-02-28T03:14:30	5.4	97
108019	2025-02-28T03:24:30	5.3	97
108020	2025-02-28T03:34:30	5.3	97
108021	2025-02-28T03:44:30	5.3	97
108022	2025-02-28T03:54:30	5.4	97
108023	2025-02-28T04:04:30	5.4	97
108024	2025-02-28T04:14:30	5.3	97
108025	2025-02-28T04:24:30	5.4	97
108026	2025-02-28T04:34:30	5.3	97
108027	2025-02-28T04:44:30	5.4	97
108028	2025-02-28T04:54:30	5.4	97
108029	2025-02-28T05:04:30	5.3	97
108030	2025-02-28T05:14:30	5.4	97
108031	2025-02-28T05:24:30	5.3	97
108032	2025-02-28T05:34:30	5.2	97
108033	2025-02-28T05:44:30	5.3	97
108034	2025-02-28T05:54:30	5.2	97
108035	2025-02-28T06:04:30	5.2	97
108036	2025-02-28T06:14:30	5.1	97
108037	2025-02-28T06:24:30	5.1	97
108038	2025-02-28T06:34:30	5.2	97
108039	2025-02-28T06:44:30	5.2	97
108040	2025-02-28T06:54:30	5.2	97
108041	2025-02-28T07:04:30	5.2	97
108042	2025-02-28T07:14:30	5.2	97
108043	2025-02-28T07:24:30	5.3	97
108044	2025-02-28T07:34:30	5.3	97
108045	2025-02-28T07:44:30	5.4	97
108046	2025-02-28T07:54:30	5.4	97
108047	2025-02-28T08:04:30	5.4	97
108048	2025-02-28T08:14:30	5.5	97
108049	2025-02-28T08:24:30	5.3	97
108050	2025-02-28T08:34:30	5.3	100
108051	2025-02-28T08:44:30	5.5	100
108052	2025-02-28T08:54:30	5.4	100
108053	2025-02-28T09:04:30	5.5	100
108054	2025-02-28T09:14:30	5.6	100
108055	2025-02-28T09:24:30	5.8	100
108056	2025-02-28T09:34:30	6.1	100
108057	2025-02-28T09:44:30	6.2	100
108058	2025-02-28T09:54:30	6.4	100
108059	2025-02-28T10:04:30	6.6	100
108060	2025-02-28T10:14:30	6.8	100
108061	2025-02-28T10:24:30	7	100
108062	2025-02-28T10:34:30	6.9	100
108063	2025-02-28T10:44:30	7.3	100
108064	2025-02-28T10:54:30	7.3	100
108065	2025-02-28T11:04:30	7.2	100
108066	2025-02-28T11:14:30	6.5	100
108067	2025-02-28T11:24:30	7.2	100
108068	2025-02-28T11:34:30	7.8	100
108069	2025-02-28T11:44:30	8.2	100
108070	2025-02-28T11:54:30	8.4	100
108071	2025-02-28T12:04:30	8.3	100
108072	2025-02-28T12:14:30	7.9	100
108073	2025-02-28T12:24:30	7.5	100
108074	2025-02-28T12:34:30	7.1	100
108075	2025-02-28T12:44:52	7.3	100
108076	2025-02-28T12:54:30	7.4	100
108077	2025-02-28T13:04:30	7.5	100
108078	2025-02-28T13:14:30	7.1	100
108079	2025-02-28T13:24:29	7.2	100
108080	2025-02-28T13:34:29	7.5	100
108081	2025-02-28T13:44:29	7.7	100
108082	2025-02-28T13:54:29	8.8	100
108083	2025-02-28T14:04:29	10.1	100
108084	2025-02-28T14:14:29	9.3	100
108085	2025-02-28T14:24:29	9.3	100
108086	2025-02-28T14:34:29	9.1	100
108087	2025-02-28T14:44:29	8.5	100
108088	2025-02-28T14:54:29	8.2	100
108089	2025-02-28T15:04:29	8.2	100
108090	2025-02-28T15:14:29	8.1	100
108091	2025-02-28T15:24:29	7.6	100
108092	2025-02-28T15:34:29	7.7	100
108093	2025-02-28T15:44:29	7.7	100
108094	2025-02-28T15:54:29	7.7	100
108095	2025-02-28T16:04:29	7.9	100
108096	2025-02-28T16:14:29	8	100
108097	2025-02-28T16:24:29	8.4	100
108098	2025-02-28T16:34:29	9.1	100
108099	2025-02-28T16:44:29	8.8	100
108100	2025-02-28T16:54:29	8.5	100
108101	2025-02-28T17:04:29	7.8	100
108102	2025-02-28T17:14:29	7.5	100
108103	2025-02-28T17:24:29	7.5	100
108104	2025-02-28T17:34:29	7.3	100
108105	2025-02-28T17:44:29	7.3	100
108106	2025-02-28T17:54:29	7.4	100
108107	2025-02-28T18:04:29	7.3	100
108108	2025-02-28T18:14:29	7.2	100
108109	2025-02-28T18:24:29	7.2	100
108110	2025-02-28T18:34:29	7.2	100
108111	2025-02-28T18:44:29	7.1	100
108112	2025-02-28T18:54:29	7.1	100
108113	2025-02-28T19:04:29	7.1	100
108114	2025-02-28T19:14:29	7.1	100
108115	2025-02-28T19:24:29	6.9	100
108116	2025-02-28T19:34:29	6.7	100
108117	2025-02-28T19:44:29	6.5	100
108118	2025-02-28T19:54:29	6.5	100
108119	2025-02-28T20:04:29	6.5	100
108120	2025-02-28T20:14:29	6.6	100
108121	2025-02-28T20:24:29	6.6	100
108122	2025-02-28T20:34:29	6.6	100
108123	2025-02-28T20:44:29	6.5	100
108124	2025-02-28T20:54:29	6.3	100
108125	2025-02-28T21:04:29	6	100
108126	2025-02-28T21:14:29	5.9	100
108127	2025-02-28T21:24:29	5.8	100
108128	2025-02-28T21:34:29	5.7	100
108129	2025-02-28T21:44:29	5.6	100
108130	2025-02-28T21:54:29	5.7	100
108131	2025-02-28T22:04:29	5.5	100
108132	2025-02-28T22:14:29	5.4	100
108133	2025-02-28T22:24:29	5.4	100
108134	2025-02-28T22:34:29	5.4	100
108135	2025-02-28T22:44:29	5.3	100
108136	2025-02-28T22:54:29	5.4	100
108137	2025-02-28T23:04:29	5.3	100
108138	2025-02-28T23:14:29	5.1	100
108139	2025-02-28T23:24:29	5	100
108140	2025-02-28T23:34:29	5.1	100
108141	2025-02-28T23:44:29	5.2	100
108142	2025-02-28T23:54:29	5.1	100
108143	2025-03-01T00:11:14	5.1	100
108144	2025-03-01T00:14:29	4.9	100
108145	2025-03-01T00:24:29	4.6	100
108146	2025-03-01T00:34:29	4.4	97.5
108147	2025-03-01T00:44:29	4.2	97
108148	2025-03-01T00:54:29	4.1	97
108149	2025-03-01T01:04:29	4	97
108150	2025-03-01T01:14:29	3.9	97
108151	2025-03-01T01:24:29	3.8	97
108152	2025-03-01T01:34:29	3.8	97
108153	2025-03-01T01:44:29	3.6	97
108154	2025-03-01T01:54:29	3.4	97
108155	2025-03-01T02:04:29	3.4	97
108156	2025-03-01T02:14:29	3.2	97
108157	2025-03-01T02:24:29	3.2	97
108158	2025-03-01T02:34:29	3.1	97
108159	2025-03-01T02:44:29	3	97
108160	2025-03-01T02:54:29	2.9	97
108161	2025-03-01T03:04:29	2.9	97
108162	2025-03-01T03:14:29	2.7	97
108163	2025-03-01T03:24:29	2.6	97
108164	2025-03-01T03:34:29	2.5	97
108165	2025-03-01T03:44:29	2.4	97
108166	2025-03-01T03:54:29	2.3	97
108167	2025-03-01T04:04:29	2.3	97
108168	2025-03-01T04:14:29	2.2	97
108169	2025-03-01T04:24:29	2.1	97
108170	2025-03-01T04:34:29	2.1	97
108171	2025-03-01T04:44:29	1.9	97
108172	2025-03-01T04:54:29	2	97
108173	2025-03-01T05:04:29	1.8	97
108174	2025-03-01T05:14:29	1.8	97
108175	2025-03-01T05:24:29	1.9	97
108176	2025-03-01T05:34:29	1.9	97
108177	2025-03-01T05:44:29	2.1	97
108178	2025-03-01T05:54:29	2.3	97
108179	2025-03-01T06:04:29	2.3	97
108180	2025-03-01T06:14:29	2.4	97
108181	2025-03-01T06:24:29	2.5	97
108182	2025-03-01T06:34:29	2.4	97
108183	2025-03-01T06:44:29	2.5	97
108184	2025-03-01T06:54:29	2.5	97
108185	2025-03-01T07:04:29	2.6	97
108186	2025-03-01T07:14:29	2.7	97
108187	2025-03-01T07:24:29	2.5	97
108188	2025-03-01T07:34:29	2.6	97
108189	2025-03-01T07:44:29	2.7	97
108190	2025-03-01T07:54:29	3	97
108191	2025-03-01T08:04:29	3.1	97
108192	2025-03-01T08:14:29	3.2	97
108193	2025-03-01T08:24:29	3.5	97
108194	2025-03-01T08:34:29	3.8	97
108195	2025-03-01T08:44:29	4	97
108196	2025-03-01T08:54:29	4.4	97
108197	2025-03-01T09:04:29	4.8	97
108198	2025-03-01T09:14:29	5.1	97
108199	2025-03-01T09:24:29	5.2	97
108200	2025-03-01T09:34:29	5.4	97
108201	2025-03-01T09:44:29	5.7	97
108202	2025-03-01T09:54:29	6	100
108203	2025-03-01T10:04:29	6.2	99
108204	2025-03-01T10:14:29	6.6	98.5
108205	2025-03-01T10:24:29	6.5	93
108206	2025-03-01T10:34:29	6	89.5
108207	2025-03-01T10:44:29	6.5	85
108208	2025-03-01T10:54:29	6.9	82.5
108209	2025-03-01T11:04:29	7.1	83
108210	2025-03-01T11:14:29	7.4	81.5
108211	2025-03-01T11:24:29	7.8	78.5
108212	2025-03-01T11:34:29	8.1	78.5
108213	2025-03-01T11:44:29	8.4	78
108214	2025-03-01T11:54:29	8.7	75
108215	2025-03-01T12:04:29	8.9	75.5
108216	2025-03-01T12:14:29	8.6	76
108217	2025-03-01T12:24:29	8.6	75
108218	2025-03-01T12:34:29	9	73.5
108219	2025-03-01T12:44:29	10.6	68.5
108220	2025-03-01T12:54:29	11.7	66.5
108221	2025-03-01T13:04:29	11.3	64
108222	2025-03-01T13:14:29	10.8	67
108223	2025-03-01T13:24:29	10.5	67.5
108224	2025-03-01T13:34:29	10.3	68.5
108225	2025-03-01T13:44:29	11.9	63
108226	2025-03-01T13:54:29	11.6	61.5
108227	2025-03-01T14:04:29	11.9	63.5
108228	2025-03-01T14:14:29	11.7	63.5
108229	2025-03-01T14:24:29	12.4	62
108230	2025-03-01T14:34:29	14.1	53
108231	2025-03-01T14:44:29	15.7	50
108232	2025-03-01T14:54:29	14.8	52.5
108233	2025-03-01T15:04:29	13.8	53.5
108234	2025-03-01T15:14:29	13.1	56
108235	2025-03-01T15:24:29	12.5	58
108236	2025-03-01T15:34:29	12.4	60
108237	2025-03-01T15:44:29	13.2	58.5
108238	2025-03-01T15:54:29	12.7	56.5
108239	2025-03-01T16:04:29	12.3	59.5
108240	2025-03-01T16:14:29	11.7	59
108241	2025-03-01T16:24:28	11.4	63.5
108242	2025-03-01T16:34:28	11.2	63
108243	2025-03-01T16:44:28	10.5	63.5
108244	2025-03-01T16:54:28	10.2	66
108245	2025-03-01T17:04:28	9.7	68.5
108246	2025-03-01T17:14:28	9.4	71
108247	2025-03-01T17:24:28	9.1	70.5
108248	2025-03-01T17:34:28	8.8	70.5
108249	2025-03-01T17:44:28	8.4	71.5
108250	2025-03-01T17:54:28	8.4	69
108251	2025-03-01T18:04:28	8.4	72
108252	2025-03-01T18:14:28	8.3	72
108253	2025-03-01T18:24:28	8.2	70
108254	2025-03-01T18:34:28	8.1	72
108255	2025-03-01T18:44:28	8	70
108256	2025-03-01T18:54:28	7.9	71
108257	2025-03-01T19:04:28	7.6	71.5
108258	2025-03-01T19:14:28	7.4	72.5
108259	2025-03-01T19:24:28	7.4	71.5
108260	2025-03-01T19:34:28	7.4	74
108261	2025-03-01T19:44:28	7.3	73
108262	2025-03-01T19:54:28	7.3	74
108263	2025-03-01T20:04:28	7.3	74.5
108264	2025-03-01T20:14:28	7.3	74.5
108265	2025-03-01T20:24:28	7.3	73.5
108266	2025-03-01T20:34:28	7.3	74
108267	2025-03-01T20:44:28	7.2	77
108268	2025-03-01T20:54:28	7.2	75.5
108269	2025-03-01T21:04:28	7.1	76
108270	2025-03-01T21:14:28	7	77
108271	2025-03-01T21:24:28	6.8	77.5
108272	2025-03-01T21:34:28	6.8	79
108273	2025-03-01T21:44:28	6.6	79
108274	2025-03-01T21:54:28	6.5	81
108275	2025-03-01T22:04:28	6.2	82
108276	2025-03-01T22:14:28	6.2	84
108277	2025-03-01T22:24:28	6	86
108278	2025-03-01T22:34:28	5.9	86.5
108279	2025-03-01T22:44:28	5.7	87
108280	2025-03-01T22:54:28	5.6	87.5
108281	2025-03-01T23:04:28	5.5	87.5
108282	2025-03-01T23:14:28	5.3	87.5
108283	2025-03-01T23:24:28	5.3	86
108284	2025-03-01T23:34:28	5.3	86
108285	2025-03-01T23:44:28	5.2	84.5
108286	2025-03-01T23:54:28	5.5	84.5
108287	2025-03-02T00:18:54	5.3	84.5
108288	2025-03-02T00:18:55	5.1	86
108289	2025-03-02T00:24:28	4.9	84.5
108290	2025-03-02T00:34:28	4.8	86.5
108291	2025-03-02T00:44:28	4.7	85.5
108292	2025-03-02T00:54:28	4.6	84.5
108293	2025-03-02T01:04:28	4.5	84
108294	2025-03-02T01:14:28	4.3	83.5
108295	2025-03-02T01:24:28	4.2	84
108296	2025-03-02T01:34:28	4.1	83.5
108297	2025-03-02T01:44:28	3.9	86.5
108298	2025-03-02T01:54:28	3.8	86
108299	2025-03-02T02:04:28	3.7	86
108300	2025-03-02T02:14:28	3.7	88
108301	2025-03-02T02:24:28	3.6	88.5
108302	2025-03-02T02:34:28	3.5	86.5
108303	2025-03-02T02:44:28	3.4	88.5
108304	2025-03-02T02:54:28	3.3	86.5
108305	2025-03-02T03:04:28	3.2	85
108306	2025-03-02T03:14:28	2.8	84.5
108307	2025-03-02T03:24:28	2.8	85
108308	2025-03-02T03:34:28	2.8	87
108309	2025-03-02T03:44:28	2.5	85
108310	2025-03-02T03:54:28	2.5	86
108311	2025-03-02T04:04:28	2.4	87
108312	2025-03-02T04:14:28	2.3	87
108313	2025-03-02T04:24:28	2.3	87
108314	2025-03-02T04:34:28	2.3	87
108315	2025-03-02T04:44:28	2	87
108316	2025-03-02T04:54:28	2	88
108317	2025-03-02T05:04:28	1.9	87
108318	2025-03-02T05:14:28	1.9	89.5
108319	2025-03-02T05:24:28	1.8	89
108320	2025-03-02T05:34:28	1.6	88.5
108321	2025-03-02T05:44:28	1.6	88.5
108322	2025-03-02T05:54:28	1.6	90
108323	2025-03-02T06:04:28	1.6	90
108324	2025-03-02T06:14:28	1.5	88.5
108325	2025-03-02T06:24:28	1.5	90
108326	2025-03-02T06:34:28	1.4	89.5
108327	2025-03-02T06:44:28	1.4	89.5
108328	2025-03-02T06:54:28	1.4	91
108329	2025-03-02T07:04:28	1.4	90.5
108330	2025-03-02T07:14:28	1.4	89.5
108331	2025-03-02T07:24:28	1.5	89.5
108332	2025-03-02T07:34:28	1.7	90
108333	2025-03-02T07:44:28	1.8	89.5
108334	2025-03-02T07:54:28	1.9	89.5
108335	2025-03-02T08:04:28	2	88
108336	2025-03-02T08:14:28	2.2	88.5
108337	2025-03-02T08:24:28	2.3	88.5
108338	2025-03-02T08:34:28	2.6	88
108339	2025-03-02T08:44:28	2.9	86
108340	2025-03-02T08:54:28	3.1	86
108341	2025-03-02T09:04:28	3.3	85.5
108342	2025-03-02T09:14:28	3.6	83.5
108343	2025-03-02T09:24:28	3.6	84.5
108344	2025-03-02T09:34:28	3.9	81.5
108345	2025-03-02T09:44:28	4.1	81.5
108346	2025-03-02T09:54:28	4.4	80
108347	2025-03-02T10:04:28	4.7	79
108348	2025-03-02T10:14:28	5	80
108349	2025-03-02T10:24:28	5.2	78.5
108350	2025-03-02T10:34:28	5.5	76.5
108351	2025-03-02T10:44:28	5.9	77
108352	2025-03-02T10:54:28	6.2	76
108353	2025-03-02T11:04:28	6.6	75
108354	2025-03-02T11:14:28	6.8	75
108355	2025-03-02T11:24:28	7	75
108356	2025-03-02T11:34:28	7.1	73
108357	2025-03-02T11:44:28	7.3	74.5
108358	2025-03-02T11:54:28	7.6	71
108359	2025-03-02T12:04:28	7.9	70.5
108360	2025-03-02T12:14:28	8.4	68
108361	2025-03-02T12:24:28	8.9	67.5
108362	2025-03-02T12:34:28	11.7	61
108363	2025-03-02T12:44:28	14	51
108364	2025-03-02T12:54:28	15.2	48
108365	2025-03-02T13:04:28	16.6	46.5
108366	2025-03-02T13:14:28	17.4	42.5
108367	2025-03-02T13:24:28	18.5	39
108368	2025-03-02T13:34:28	19	40
108369	2025-03-02T13:44:28	19.6	39
108370	2025-03-02T13:54:28	20.2	41.5
108371	2025-03-02T14:04:28	20.2	38.5
108372	2025-03-02T14:14:28	20.5	38.5
108373	2025-03-02T14:24:28	20.4	37.5
108374	2025-03-02T14:34:28	20.4	34.5
108375	2025-03-02T14:44:28	20.6	35.5
108376	2025-03-02T14:54:28	20.7	35.5
108377	2025-03-02T15:04:28	20.7	35.5
108378	2025-03-02T15:14:28	20.9	39
108379	2025-03-02T15:24:28	21.1	37
108380	2025-03-02T15:34:28	21.1	35
108381	2025-03-02T15:44:28	20.7	35.5
108382	2025-03-02T15:54:28	20.2	35.5
108383	2025-03-02T16:04:28	20.2	40
108384	2025-03-02T16:14:28	19.6	35
108385	2025-03-02T16:24:28	18.9	38
108386	2025-03-02T16:34:28	18.2	42
108387	2025-03-02T16:44:28	17.3	42
108388	2025-03-02T16:54:28	16.4	44.5
108389	2025-03-02T17:04:27	15.2	47
108390	2025-03-02T17:14:27	14.4	49
108391	2025-03-02T17:24:27	13.8	51.5
108392	2025-03-02T17:34:27	13.2	56.5
108393	2025-03-02T17:44:27	13	55
108394	2025-03-02T17:54:27	12.4	58
108395	2025-03-02T18:04:27	12.2	64
108396	2025-03-02T18:14:27	11.8	62
108397	2025-03-02T18:24:27	11.5	67.5
108398	2025-03-02T18:34:27	11.2	63
108399	2025-03-02T18:44:27	10.9	69
108400	2025-03-02T18:54:27	10.6	66.5
108401	2025-03-02T19:04:27	10.2	63.5
108402	2025-03-02T19:14:27	9.9	67.5
108403	2025-03-02T19:24:27	9.8	70
108404	2025-03-02T19:34:27	9.5	67.5
108405	2025-03-02T19:44:27	9.2	66.5
108406	2025-03-02T19:54:27	8.9	64.5
108407	2025-03-02T20:04:27	8.5	69
108408	2025-03-02T20:14:27	8.5	72.5
108409	2025-03-02T20:24:27	8.3	67.5
108410	2025-03-02T20:34:27	8.1	74
108411	2025-03-02T20:44:27	7.9	72
108412	2025-03-02T20:54:27	7.7	75
108413	2025-03-02T21:04:27	7.4	75.5
108414	2025-03-02T21:14:27	7.3	75
108415	2025-03-02T21:24:27	7.1	71
108416	2025-03-02T21:34:27	6.8	69.5
108417	2025-03-02T21:44:27	6.6	74
108418	2025-03-02T21:54:27	6.5	77.5
108419	2025-03-02T22:04:27	6.4	78.5
108420	2025-03-02T22:14:27	6.2	78
108421	2025-03-02T22:24:27	6.1	79.5
108422	2025-03-02T22:34:27	5.9	77.5
108423	2025-03-02T22:44:27	5.7	77.5
108424	2025-03-02T22:54:27	5.6	79.5
108425	2025-03-02T23:04:27	5.4	79.5
108426	2025-03-02T23:14:27	5.3	80.5
108427	2025-03-02T23:24:27	5.1	77.5
108428	2025-03-02T23:34:27	4.9	79.5
108429	2025-03-02T23:44:27	4.8	79
108430	2025-03-02T23:54:27	4.7	78
108431	2025-03-03T00:14:05	4.6	80
108432	2025-03-03T00:15:12	4.3	81
108433	2025-03-03T00:24:27	4.3	82
108434	2025-03-03T00:34:27	4.3	83.5
108435	2025-03-03T00:44:27	4.1	83
108436	2025-03-03T00:54:27	4	84
108437	2025-03-03T01:04:27	3.9	82.5
108438	2025-03-03T01:14:27	3.9	83.5
108439	2025-03-03T01:24:27	3.8	83.5
108440	2025-03-03T01:34:27	3.7	81
108441	2025-03-03T01:44:27	3.5	81.5
108442	2025-03-03T01:54:27	3.5	83.5
108443	2025-03-03T02:04:27	3.5	82.5
108444	2025-03-03T02:14:27	3.2	83
108445	2025-03-03T02:24:27	3.2	82
108446	2025-03-03T02:34:27	3.1	82
108447	2025-03-03T02:44:27	2.9	81
108448	2025-03-03T02:54:27	2.9	84.5
108449	2025-03-03T03:04:27	2.6	80.5
108450	2025-03-03T03:14:27	2.6	84
108451	2025-03-03T03:34:27	2.4	82.5
108452	2025-03-03T03:44:27	2.2	83
108453	2025-03-03T03:54:27	2.1	81
108454	2025-03-03T04:04:27	2.1	84
108455	2025-03-03T04:14:27	2	83
108456	2025-03-03T04:24:27	1.5	82
108457	2025-03-03T04:34:27	1.7	83
108458	2025-03-03T04:44:27	1.8	83
108459	2025-03-03T04:54:27	1.7	83.5
108460	2025-03-03T05:04:27	1.6	82
108461	2025-03-03T05:14:27	1.6	84.5
108462	2025-03-03T05:24:27	1.4	82
108463	2025-03-03T05:34:27	1.4	81.5
108464	2025-03-03T05:44:27	1.1	81.5
108465	2025-03-03T05:54:27	1.2	85.5
108466	2025-03-03T06:04:27	1.1	86.5
108467	2025-03-03T06:14:27	0.9	87.5
108468	2025-03-03T06:24:27	0.9	88.5
108469	2025-03-03T06:34:27	0.9	88.5
108470	2025-03-03T06:44:27	0.9	87
108471	2025-03-03T06:54:27	0.9	88.5
108472	2025-03-03T07:04:27	1	87
108473	2025-03-03T07:14:27	1.1	88
108474	2025-03-03T07:24:27	1.1	88
108475	2025-03-03T07:34:27	1.1	86
108476	2025-03-03T07:44:27	1.4	86.5
108477	2025-03-03T07:54:27	1.4	86.5
108478	2025-03-03T08:04:27	1.5	87.5
108479	2025-03-03T08:14:27	1.7	86.5
108480	2025-03-03T08:24:27	1.8	86.5
108481	2025-03-03T08:34:27	1.9	85.5
108482	2025-03-03T08:44:27	2	86
108483	2025-03-03T08:54:27	2.1	86
108484	2025-03-03T09:04:27	2.3	85.5
108485	2025-03-03T09:14:27	2.5	84.5
108486	2025-03-03T09:24:27	2.7	83
108487	2025-03-03T09:34:27	2.9	81.5
108488	2025-03-03T10:04:27	3.6	80.5
108489	2025-03-03T10:34:27	4.2	81.5
108490	2025-03-03T10:44:27	4.4	82
108491	2025-03-03T10:54:27	4.7	80
108492	2025-03-03T11:04:27	5.1	78.5
108493	2025-03-03T11:14:27	5.4	77
108494	2025-03-03T11:24:27	5.6	76.5
108495	2025-03-03T11:34:27	5.9	75.5
108496	2025-03-03T11:44:27	6.1	75
108497	2025-03-03T11:54:27	6.4	75.5
108498	2025-03-03T12:04:27	6.8	73
108499	2025-03-03T12:14:27	7.4	72.5
108500	2025-03-03T12:24:27	8.3	69
108501	2025-03-03T12:34:27	11.6	60
108502	2025-03-03T12:44:27	14	54
108503	2025-03-03T12:54:27	15.6	48.5
108504	2025-03-03T13:04:27	16.8	46.5
108505	2025-03-03T13:14:27	17.9	44
108506	2025-03-03T13:24:27	18.9	41
108507	2025-03-03T13:34:27	19.7	41.5
108508	2025-03-03T13:44:27	20.5	41.5
108509	2025-03-03T13:54:27	21.2	36
108510	2025-03-03T14:04:27	21.5	35.5
108511	2025-03-03T14:14:27	22	35.5
108512	2025-03-03T14:24:27	22.3	34.5
108513	2025-03-03T14:34:27	22.6	34.5
108514	2025-03-03T14:44:27	22.9	38
108515	2025-03-03T14:54:27	23.7	36
108516	2025-03-03T15:04:27	24.2	32
108517	2025-03-03T15:14:27	24.5	33.5
108518	2025-03-03T15:24:27	24.5	35
108519	2025-03-03T15:34:27	24.5	32
108520	2025-03-03T15:44:27	24.5	34
108521	2025-03-03T15:54:27	24.2	31.5
108522	2025-03-03T16:04:27	24.3	33
108523	2025-03-03T16:14:27	23.8	33.5
108524	2025-03-03T16:24:27	23.5	34
108525	2025-03-03T16:34:27	22.8	38.5
108526	2025-03-03T16:44:27	21.6	35
108527	2025-03-03T16:54:27	20.7	37.5
108528	2025-03-03T17:04:27	19.7	42.5
108529	2025-03-03T17:14:27	18.7	46
108530	2025-03-03T17:24:27	17.9	47.5
108531	2025-03-03T17:34:27	17.2	49
108532	2025-03-03T17:44:27	16.6	54.5
108533	2025-03-03T17:54:27	16.1	53.5
108534	2025-03-03T18:04:27	15.7	55.5
108535	2025-03-03T18:14:26	15.2	54.5
108536	2025-03-03T18:24:26	14.7	56
108537	2025-03-03T18:34:26	14.3	54.5
108538	2025-03-03T18:44:26	14.1	59
108539	2025-03-03T18:54:26	13.7	61
108540	2025-03-03T19:04:26	13.3	54.5
108541	2025-03-03T19:14:26	12.9	57
108542	2025-03-03T19:24:26	12.5	55.5
108543	2025-03-03T19:34:26	12.2	62
108544	2025-03-03T19:44:26	12	64.5
108545	2025-03-03T19:54:26	11.6	59
108546	2025-03-03T20:04:26	11.3	65
108547	2025-03-03T20:14:26	11	63
108548	2025-03-03T20:24:26	10.8	65.5
108549	2025-03-03T20:34:26	10.5	68
108550	2025-03-03T20:44:26	10.4	68.5
108551	2025-03-03T20:54:26	10	67.5
108552	2025-03-03T21:04:26	9.8	68.5
108553	2025-03-03T21:14:26	9.5	69
108554	2025-03-03T21:24:26	9.4	71
108555	2025-03-03T21:34:26	9.2	70.5
108556	2025-03-03T21:44:26	9	71
108557	2025-03-03T21:54:26	8.9	71.5
108558	2025-03-03T22:04:26	8.5	70.5
108559	2025-03-03T22:14:26	8.2	70
108560	2025-03-03T22:24:26	8.1	65
108561	2025-03-03T22:34:26	7.8	63.5
108562	2025-03-03T22:44:26	7.4	66
108563	2025-03-03T22:54:26	7.4	70
108564	2025-03-03T23:04:26	7.3	67
108565	2025-03-03T23:14:26	7	67.5
108566	2025-03-03T23:24:26	6.9	69.5
108567	2025-03-03T23:34:26	6.7	69.5
108568	2025-03-03T23:44:26	6.5	73.5
108569	2025-03-03T23:54:26	6.4	71
108570	2025-03-04T00:12:20	6.2	73.5
108571	2025-03-04T00:14:26	6.1	74.5
108572	2025-03-04T00:24:26	5.8	75
108573	2025-03-04T00:34:26	5.7	74.5
108574	2025-03-04T00:44:26	5.6	73
108575	2025-03-04T00:54:26	5.4	75
108576	2025-03-04T01:04:26	5.3	76.5
108577	2025-03-04T01:14:26	5.1	76.5
108578	2025-03-04T01:24:26	5	77.5
108579	2025-03-04T01:34:26	4.8	77
108580	2025-03-04T01:44:26	4.6	77.5
108581	2025-03-04T01:54:26	4.5	78
108582	2025-03-04T02:04:26	4.3	79
108583	2025-03-04T02:14:26	4.2	79
108584	2025-03-04T02:24:26	4	77
108585	2025-03-04T02:34:26	3.9	78
108586	2025-03-04T02:44:26	3.8	77
108587	2025-03-04T02:54:26	3.7	79.5
108588	2025-03-04T03:04:26	3.6	80
108589	2025-03-04T03:14:26	3.5	80.5
108590	2025-03-04T03:24:26	3.3	80.5
108591	2025-03-04T03:34:26	3.2	80.5
108592	2025-03-04T03:44:26	3.1	81
108593	2025-03-04T03:54:26	3	81
108594	2025-03-04T04:04:26	2.9	82
108595	2025-03-04T04:14:26	2.8	81.5
108596	2025-03-04T04:24:26	2.6	80
108597	2025-03-04T04:34:26	2.6	78
108598	2025-03-04T04:44:26	2.6	81
108599	2025-03-04T04:54:26	2.4	81.5
108600	2025-03-04T05:04:26	2.2	82
108601	2025-03-04T05:14:26	2.2	81
108602	2025-03-04T05:24:26	2	83
108603	2025-03-04T05:34:26	2	83.5
108604	2025-03-04T05:44:26	1.9	82.5
108605	2025-03-04T05:54:26	1.7	83
108606	2025-03-04T06:04:26	1.7	83.5
108607	2025-03-04T06:14:26	1.7	84
108608	2025-03-04T06:24:26	1.6	83
108609	2025-03-04T06:34:26	1.6	84
108610	2025-03-04T06:44:26	1.6	85
108611	2025-03-04T06:54:26	1.6	84
108612	2025-03-04T07:04:26	1.7	84
108613	2025-03-04T07:14:26	1.8	84.5
108614	2025-03-04T07:24:26	1.8	84
108615	2025-03-04T07:34:26	1.9	85.5
108616	2025-03-04T07:44:26	1.9	84
108617	2025-03-04T07:54:26	2.1	84.5
108618	2025-03-04T08:04:26	2.2	84
108619	2025-03-04T08:14:26	2.5	85.5
108620	2025-03-04T08:24:26	2.7	84
108621	2025-03-04T08:34:26	2.8	84.5
108622	2025-03-04T08:44:26	3.1	84
108623	2025-03-04T08:54:26	3.2	84.5
108624	2025-03-04T09:04:26	3.5	83.5
108625	2025-03-04T09:14:26	3.7	83
108626	2025-03-04T09:24:26	4	82.5
108627	2025-03-04T09:34:26	4.1	82.5
108628	2025-03-04T09:44:26	4.4	82
108629	2025-03-04T09:54:26	4.9	81
108630	2025-03-04T10:04:26	5.2	78.5
108631	2025-03-04T10:14:26	5.4	76.5
108632	2025-03-04T10:24:26	5.7	77
108633	2025-03-04T10:34:26	6.1	74
108634	2025-03-04T10:44:26	6.5	72
108635	2025-03-04T10:54:26	6.7	72.5
108636	2025-03-04T11:04:26	7.2	71
108637	2025-03-04T11:14:26	7.4	71.5
108638	2025-03-04T11:24:26	7.6	68.5
108639	2025-03-04T11:34:26	8.1	65.5
108640	2025-03-04T11:44:26	8.5	62.5
108641	2025-03-04T11:54:26	8.9	62
108642	2025-03-04T12:04:26	9.3	59.5
108643	2025-03-04T12:14:26	9.9	57.5
108644	2025-03-04T12:24:26	10.6	54.5
108645	2025-03-04T12:34:26	14.1	49.5
108646	2025-03-04T12:44:26	16.3	44
108647	2025-03-04T12:54:26	17.7	39.5
108648	2025-03-04T13:04:26	19	38
108649	2025-03-04T13:14:26	20.1	35.5
108650	2025-03-04T13:24:26	21.2	36
108651	2025-03-04T13:34:26	21.8	31.5
108652	2025-03-04T13:44:26	22.5	30
108653	2025-03-04T13:54:26	22.8	30
108654	2025-03-04T14:04:26	23.4	28.5
108655	2025-03-04T14:14:26	24	28
108656	2025-03-04T14:24:26	24.4	28.5
108657	2025-03-04T14:34:26	24.5	28.5
108658	2025-03-04T14:44:26	25.1	31.5
108659	2025-03-04T14:54:26	25.4	31
108660	2025-03-04T15:04:26	25.6	27
108661	2025-03-04T15:14:26	25.7	29
108662	2025-03-04T15:24:26	25.7	27
108663	2025-03-04T15:34:26	25.8	29
108664	2025-03-04T15:44:26	25.6	30.5
108665	2025-03-04T15:54:26	25.8	28.5
108666	2025-03-04T16:04:26	25.7	30.5
108667	2025-03-04T16:14:26	25.4	35
108668	2025-03-04T16:24:26	25.1	30.5
108669	2025-03-04T16:34:26	24.5	31
108670	2025-03-04T16:44:26	23.2	36
108671	2025-03-04T16:54:26	22.4	38.5
108672	2025-03-04T17:04:25	21.2	43.5
108673	2025-03-04T17:14:25	20.1	43.5
108674	2025-03-04T17:24:25	19.5	45
108675	2025-03-04T17:34:25	18.8	49.5
108676	2025-03-04T17:44:25	18.1	50.5
108677	2025-03-04T17:54:25	17.6	53
108678	2025-03-04T18:04:25	17.1	54
108679	2025-03-04T18:14:25	16.5	54.5
108680	2025-03-04T18:24:25	16.2	56
108681	2025-03-04T18:34:25	15.5	56.5
108682	2025-03-04T18:44:25	15.1	58
108683	2025-03-04T18:54:25	14.6	51.5
108684	2025-03-04T19:04:25	14	53.5
108685	2025-03-04T19:14:25	13.8	52
108686	2025-03-04T19:24:25	13.4	57
108687	2025-03-04T19:34:25	13.2	56.5
108688	2025-03-04T19:44:25	12.9	59.5
108689	2025-03-04T19:54:25	12.7	60.5
108690	2025-03-04T20:04:25	12.3	60
108691	2025-03-04T20:14:25	11.9	59
108692	2025-03-04T20:24:25	11.6	62.5
108693	2025-03-04T20:34:25	11.4	64
108694	2025-03-04T20:44:25	11.2	63
108695	2025-03-04T20:54:25	11	65
108696	2025-03-04T21:04:25	10.8	64
108697	2025-03-04T21:14:25	10.5	65
108698	2025-03-04T21:24:25	10.3	65
108699	2025-03-04T21:34:25	10	65.5
108700	2025-03-04T21:44:25	9.6	60.5
108701	2025-03-04T21:54:25	9.5	62.5
108702	2025-03-04T22:04:25	9.3	65.5
108703	2025-03-04T22:14:25	9	69
108704	2025-03-04T22:24:25	8.8	68.5
108705	2025-03-04T22:34:25	8.7	68.5
108706	2025-03-04T22:44:25	8.3	64.5
108707	2025-03-04T22:54:25	8.1	68
108708	2025-03-04T23:04:25	7.9	69.5
108709	2025-03-04T23:14:25	7.7	70.5
108710	2025-03-04T23:24:25	7.6	71.5
108711	2025-03-04T23:34:25	7.4	72
108712	2025-03-04T23:44:25	7.1	72
108713	2025-03-04T23:54:25	6.8	72
108714	2025-03-05T00:12:08	6.7	70
108715	2025-03-05T00:14:25	6.6	69
108716	2025-03-05T00:24:25	6.3	72
108717	2025-03-05T00:34:25	6.2	73.5
108718	2025-03-05T00:44:25	6	74.5
108719	2025-03-05T00:54:25	5.9	74
108720	2025-03-05T01:04:25	5.7	70.5
108721	2025-03-05T01:14:25	4.9	69
108722	2025-03-05T01:24:25	5.2	75
108723	2025-03-05T01:34:25	5.1	75.5
108724	2025-03-05T01:44:25	4.9	74
108725	2025-03-05T01:54:25	4.7	76.5
108726	2025-03-05T02:04:25	4.7	75.5
108727	2025-03-05T02:14:25	4.6	75
108728	2025-03-05T02:24:25	4.4	76.5
108729	2025-03-05T02:34:25	4.3	77
108730	2025-03-05T02:44:44	4.1	78
108731	2025-03-05T02:54:25	4	76
108732	2025-03-05T03:04:25	3.8	77.5
108733	2025-03-05T03:14:25	3.8	78
108734	2025-03-05T03:24:25	3.6	78.5
108735	2025-03-05T03:34:25	3.7	78.5
108736	2025-03-05T03:44:25	3.6	79.5
108737	2025-03-05T03:54:25	3.4	78.5
108738	2025-03-05T04:04:25	3.4	79
108739	2025-03-05T04:14:25	3.3	78
108740	2025-03-05T04:24:25	3.2	80
108741	2025-03-05T04:34:25	3.1	78.5
108742	2025-03-05T04:44:25	3	80
108743	2025-03-05T04:54:25	2.9	79.5
108744	2025-03-05T05:04:25	2.8	80
108745	2025-03-05T05:14:25	2.7	80.5
108746	2025-03-05T05:24:25	2.6	81
108747	2025-03-05T05:34:25	2.4	81.5
108748	2025-03-05T05:44:25	2.3	81.5
108749	2025-03-05T05:54:25	2.3	81.5
108750	2025-03-05T06:04:25	2.3	82
108751	2025-03-05T06:14:25	2.3	81.5
108752	2025-03-05T06:24:25	2.2	80.5
108753	2025-03-05T06:34:25	2.1	81.5
108754	2025-03-05T06:44:25	2.1	82
108755	2025-03-05T06:54:25	2.1	82.5
108756	2025-03-05T07:04:25	2.2	82.5
108757	2025-03-05T07:14:25	2.1	83
108758	2025-03-05T07:24:25	2.2	83.5
108759	2025-03-05T07:34:25	2.3	84
108760	2025-03-05T07:44:25	2.4	84
108761	2025-03-05T07:54:25	2.5	84
108762	2025-03-05T08:04:25	2.7	84
108763	2025-03-05T08:14:25	2.8	84.5
108764	2025-03-05T08:24:25	2.9	85
108765	2025-03-05T08:34:25	3.1	84.5
108766	2025-03-05T08:44:25	3.3	84.5
108767	2025-03-05T08:54:25	3.6	83.5
108768	2025-03-05T09:04:25	3.8	83.5
108769	2025-03-05T09:14:25	4	82
108770	2025-03-05T09:24:25	4.4	80
108771	2025-03-05T09:34:25	4.6	81
108772	2025-03-05T09:44:25	4.7	81.5
108773	2025-03-05T09:54:25	5	80.5
108774	2025-03-05T10:04:25	5.2	81.5
108775	2025-03-05T10:14:25	5.4	81.5
108776	2025-03-05T10:24:25	5.6	81
108777	2025-03-05T10:34:25	5.8	80.5
108778	2025-03-05T10:44:25	6	80
108779	2025-03-05T10:54:25	6.2	79
108780	2025-03-05T11:04:25	6.5	79
108781	2025-03-05T11:14:25	7	78.5
108782	2025-03-05T11:24:25	7.2	77.5
108783	2025-03-05T11:34:25	7.5	77.5
108784	2025-03-05T11:44:25	7.9	76.5
108785	2025-03-05T11:54:25	8.3	75
108786	2025-03-05T12:04:25	8.7	72.5
108787	2025-03-05T12:14:25	9.3	70
108788	2025-03-05T12:24:25	10.1	68
108789	2025-03-05T12:34:25	13.6	60.5
108790	2025-03-05T12:44:25	16.1	50
108791	2025-03-05T12:54:25	17.7	47
108792	2025-03-05T13:04:25	19	45
108793	2025-03-05T13:14:25	19.7	39
108794	2025-03-05T13:24:25	20.5	40.5
108795	2025-03-05T13:34:25	21.5	38.5
108796	2025-03-05T13:44:25	22.3	40
108797	2025-03-05T13:54:25	23.2	39
108798	2025-03-05T14:04:25	24.1	35.5
108799	2025-03-05T14:14:25	24.6	37
108800	2025-03-05T14:24:25	25.2	37
108801	2025-03-05T14:34:25	25.8	36.5
108802	2025-03-05T14:44:25	26.1	33.5
108803	2025-03-05T14:54:25	26.3	32
108804	2025-03-05T15:04:25	26.4	33
108805	2025-03-05T15:14:25	26.6	34
108806	2025-03-05T15:24:24	26.7	30
108807	2025-03-05T15:34:24	26.8	35
108808	2025-03-05T15:44:24	26.9	36
108809	2025-03-05T15:54:24	26.8	32
108810	2025-03-05T16:04:24	26.6	35.5
108811	2025-03-05T16:14:24	26.2	37
108812	2025-03-05T16:24:24	25.7	38
108813	2025-03-05T16:34:24	25.1	39.5
108814	2025-03-05T16:44:24	24.1	40
108815	2025-03-05T16:54:24	23.2	44
108816	2025-03-05T17:04:24	22.1	46
108817	2025-03-05T17:14:24	21.1	48
108818	2025-03-05T17:24:24	20.3	51.5
108819	2025-03-05T17:34:24	19.5	53
108820	2025-03-05T17:44:24	18.9	54
108821	2025-03-05T17:54:24	18.3	55
108822	2025-03-05T18:04:24	17.8	56.5
108823	2025-03-05T18:14:24	17.2	57
108824	2025-03-05T18:24:24	16.7	56.5
108825	2025-03-05T18:34:24	16.3	56
108826	2025-03-05T18:44:24	15.9	58
108827	2025-03-05T18:54:24	15.5	58.5
108828	2025-03-05T19:04:24	15	58
108829	2025-03-05T19:14:24	14.7	60.5
108830	2025-03-05T19:24:24	14.5	62
108831	2025-03-05T19:34:24	14.1	63
108832	2025-03-05T19:44:24	13.8	62
108833	2025-03-05T19:54:24	13.6	57
108834	2025-03-05T20:04:24	12.9	59
108835	2025-03-05T20:14:24	12.6	62
108836	2025-03-05T20:24:24	12.4	65.5
108837	2025-03-05T20:34:24	12.2	66
108838	2025-03-05T20:44:24	11.9	67
108839	2025-03-05T20:54:24	11.7	67
108840	2025-03-05T21:04:24	11.4	68
108841	2025-03-05T21:14:24	11.2	68
108842	2025-03-05T21:24:24	10.9	68
108843	2025-03-05T21:34:24	10.7	69
108844	2025-03-05T21:44:24	10.5	70
108845	2025-03-05T21:54:24	10.3	70.5
108846	2025-03-05T22:04:24	10.1	70
108847	2025-03-05T22:14:24	10	71
108848	2025-03-05T22:24:24	9.7	71
108849	2025-03-05T22:34:24	9.5	68
108850	2025-03-05T22:44:24	9.3	71.5
108851	2025-03-05T22:54:24	9.1	72.5
108852	2025-03-05T23:04:24	8.9	73
108853	2025-03-05T23:14:24	8.7	73
108854	2025-03-05T23:24:24	8.6	74
108855	2025-03-05T23:34:24	8.3	70
108856	2025-03-05T23:44:24	8.1	73.5
108857	2025-03-05T23:54:24	8	74
108858	2025-03-06T00:13:38	7.8	74
108859	2025-03-06T00:14:24	7.6	74.5
108860	2025-03-06T00:24:24	7.4	75
108861	2025-03-06T00:34:24	7.3	75
108862	2025-03-06T00:44:24	7.1	74
108863	2025-03-06T00:54:24	7	75.5
108864	2025-03-06T01:04:24	6.8	76
108865	2025-03-06T01:14:24	6.6	71.5
108866	2025-03-06T01:24:24	6.6	76
108867	2025-03-06T01:34:24	6.4	76.5
108868	2025-03-06T01:44:24	6.2	76
108869	2025-03-06T01:54:24	6	77
108870	2025-03-06T02:04:24	5.9	77
108871	2025-03-06T02:14:24	5.8	75.5
108872	2025-03-06T02:24:24	5.7	77
108873	2025-03-06T02:34:24	5.4	77
108874	2025-03-06T02:44:24	5.3	76.5
108875	2025-03-06T02:54:24	5.2	75
108876	2025-03-06T03:04:24	5.1	74.5
108877	2025-03-06T03:14:24	5.1	78
108878	2025-03-06T03:24:24	4.9	78
108879	2025-03-06T03:34:24	4.8	79
108880	2025-03-06T03:44:24	4.7	78.5
108881	2025-03-06T03:54:24	4.6	79
108882	2025-03-06T04:04:24	4.4	79
108883	2025-03-06T04:14:24	4.2	79
108884	2025-03-06T04:24:24	4.1	79
108885	2025-03-06T04:34:24	4.1	78.5
108886	2025-03-06T04:44:24	4	78.5
108887	2025-03-06T04:54:24	3.9	79.5
108888	2025-03-06T05:04:24	3.8	80
108889	2025-03-06T05:14:24	3.6	80.5
108890	2025-03-06T05:24:24	3.6	80.5
108891	2025-03-06T05:34:24	3.4	80
108892	2025-03-06T05:44:24	3.3	80.5
108893	2025-03-06T05:54:24	3.2	76
108894	2025-03-06T06:04:24	3.1	79
108895	2025-03-06T06:14:24	3.2	81
108896	2025-03-06T06:24:24	3.1	81.5
108897	2025-03-06T06:34:24	3.1	81.5
108898	2025-03-06T06:44:24	3	81
108899	2025-03-06T06:54:24	3	82
108900	2025-03-06T07:04:24	3	83
108901	2025-03-06T07:14:24	3.2	83.5
108902	2025-03-06T07:24:24	3.2	83.5
108903	2025-03-06T07:34:24	3.4	84
108904	2025-03-06T07:44:24	3.6	84.5
108905	2025-03-06T07:54:24	3.7	84.5
108906	2025-03-06T08:04:24	3.9	84.5
108907	2025-03-06T08:14:24	4.1	84
108908	2025-03-06T08:24:24	4.3	83
108909	2025-03-06T08:34:24	4.4	83.5
108910	2025-03-06T08:44:24	4.6	83.5
108911	2025-03-06T08:54:24	5	83
108912	2025-03-06T09:04:24	5.1	83
108913	2025-03-06T09:14:24	5.2	83.5
108914	2025-03-06T09:24:24	5.4	83.5
108915	2025-03-06T09:34:24	5.7	83
108916	2025-03-06T09:44:24	6.1	82.5
108917	2025-03-06T09:54:24	6.7	80.5
108918	2025-03-06T10:04:24	7	77.5
108919	2025-03-06T10:14:24	7.5	76
108920	2025-03-06T10:24:24	8.1	73.5
108921	2025-03-06T10:34:24	8.1	75
108922	2025-03-06T10:44:24	8.5	74
108923	2025-03-06T10:54:24	8.9	72
108924	2025-03-06T11:04:24	9.2	69.5
108925	2025-03-06T11:14:24	9.8	66.5
108926	2025-03-06T11:24:24	10	67
108927	2025-03-06T11:34:24	10.4	65
108928	2025-03-06T11:44:24	10.6	64.5
108929	2025-03-06T11:54:24	10.9	60
108930	2025-03-06T12:04:24	11.4	55
108931	2025-03-06T12:14:24	12.2	55
108932	2025-03-06T12:24:24	13	53
108933	2025-03-06T12:34:24	16.3	46
108934	2025-03-06T12:44:24	18.6	39.5
108935	2025-03-06T12:54:23	20	39.5
108936	2025-03-06T13:04:24	21.4	36.5
108937	2025-03-06T13:14:23	21.8	35
108938	2025-03-06T13:24:23	23.2	39.5
108939	2025-03-06T13:34:23	24.3	36
108940	2025-03-06T13:44:23	25	32.5
108941	2025-03-06T13:54:23	25.7	34
108942	2025-03-06T14:04:23	26.5	34.5
108943	2025-03-06T14:14:23	27.2	31
108944	2025-03-06T14:24:23	27	28.5
108945	2025-03-06T14:34:23	27.1	31.5
108946	2025-03-06T14:44:23	27.4	29.5
108947	2025-03-06T14:54:23	27.4	30.5
108948	2025-03-06T15:04:23	27.9	30.5
108949	2025-03-06T15:14:23	28.2	28
108950	2025-03-06T15:24:23	28.3	32.5
108951	2025-03-06T15:44:23	28.5	32
108952	2025-03-06T15:54:23	28.5	34
108953	2025-03-06T16:04:23	28.3	32
108954	2025-03-06T16:14:23	27.8	31
108955	2025-03-06T16:24:23	27.2	35.5
108956	2025-03-06T16:34:23	26.6	36
108957	2025-03-06T16:44:23	25.6	38
108958	2025-03-06T16:54:23	24.6	40.5
108959	2025-03-06T17:04:23	23.7	42.5
108960	2025-03-06T17:14:23	22.8	44
108961	2025-03-06T17:24:23	22	47
108962	2025-03-06T17:34:23	21.4	49
108963	2025-03-06T17:44:23	20.7	50.5
108964	2025-03-06T17:54:23	20.1	51.5
108965	2025-03-06T18:04:23	19.6	52.5
108966	2025-03-06T18:14:23	19.1	53
108967	2025-03-06T18:24:23	18.5	53.5
108968	2025-03-06T18:34:23	18.2	54
108969	2025-03-06T18:44:23	17.8	54
108970	2025-03-06T18:54:23	17.3	47.5
108971	2025-03-06T19:04:23	16.8	44
108972	2025-03-06T19:14:23	16.6	47.5
108973	2025-03-06T19:24:23	16.3	46
108974	2025-03-06T19:34:23	15.9	52
108975	2025-03-06T19:44:23	15.6	55
108976	2025-03-06T19:54:23	15	54.5
108977	2025-03-06T20:04:23	14.9	59
108978	2025-03-06T20:14:23	14.4	55.5
108979	2025-03-06T20:24:23	14.1	59.5
108980	2025-03-06T20:34:23	13.9	58.5
108981	2025-03-06T20:44:23	13.7	61
108982	2025-03-06T20:54:23	13.5	60.5
108983	2025-03-06T21:04:23	13.3	60
108984	2025-03-06T21:14:23	13	61.5
108985	2025-03-06T21:24:23	12.7	62
108986	2025-03-06T21:34:23	12.5	62.5
108987	2025-03-06T21:44:23	12.3	60.5
108988	2025-03-06T21:54:23	12.1	60.5
108989	2025-03-06T22:04:23	11.9	64.5
108990	2025-03-06T22:14:23	11.7	66
108991	2025-03-06T22:24:23	11.6	66.5
108992	2025-03-06T22:34:23	10.2	63
108993	2025-03-06T22:44:23	10.6	63
108994	2025-03-06T22:54:23	10.7	68
108995	2025-03-06T23:04:23	10.5	67
108996	2025-03-06T23:14:23	10.4	68.5
108997	2025-03-06T23:24:23	10.3	68.5
108998	2025-03-06T23:34:23	10	67
108999	2025-03-06T23:44:23	9.9	66
109000	2025-03-06T23:54:23	9.8	69
109001	2025-03-07T00:11:38	9.6	70
109002	2025-03-07T00:14:23	9.4	67
109003	2025-03-07T00:24:23	9.2	69
109004	2025-03-07T00:34:23	9.1	70
109005	2025-03-07T00:44:23	9.1	70.5
109006	2025-03-07T00:54:23	8.8	69.5
109007	2025-03-07T01:04:23	8.6	71
109008	2025-03-07T01:14:23	8.5	68.5
109009	2025-03-07T01:24:23	8.4	71.5
109010	2025-03-07T01:34:23	8.3	72
109011	2025-03-07T01:44:23	8.2	71
109012	2025-03-07T01:54:23	8	72.5
109013	2025-03-07T02:04:23	7.9	73
109014	2025-03-07T02:14:23	7.7	72
109015	2025-03-07T02:24:23	7.6	73.5
109016	2025-03-07T02:34:23	7.5	73.5
109017	2025-03-07T02:44:22	7.3	74
109018	2025-03-07T02:54:22	7.2	71
109019	2025-03-07T03:04:22	7.1	73
109020	2025-03-07T03:14:22	7.1	74
109021	2025-03-07T03:24:22	7	74.5
109022	2025-03-07T03:34:22	7	74.5
109023	2025-03-07T03:44:22	6.6	75
109024	2025-03-07T03:54:22	6.6	75
109025	2025-03-07T04:04:22	6.5	75
109026	2025-03-07T04:14:22	6.3	74.5
109027	2025-03-07T04:24:22	6.4	75.5
109028	2025-03-07T04:34:22	6.1	76.5
109029	2025-03-07T04:44:22	6	76
109030	2025-03-07T04:54:22	5.8	76.5
109031	2025-03-07T05:04:22	5.7	77
109032	2025-03-07T05:14:22	5.6	77
109033	2025-03-07T05:24:22	5.5	77
109034	2025-03-07T05:34:22	5.5	77.5
109035	2025-03-07T05:44:22	5.4	77
109036	2025-03-07T05:54:22	5.3	77.5
109037	2025-03-07T06:04:22	5.3	77.5
109038	2025-03-07T06:14:22	5.4	77.5
109039	2025-03-07T06:24:22	5.2	78
109040	2025-03-07T06:34:22	5.3	75.5
109041	2025-03-07T06:44:22	5.3	78
109042	2025-03-07T06:54:22	5.4	78.5
109043	2025-03-07T07:04:22	5.5	78.5
109044	2025-03-07T07:14:22	5.5	78.5
109045	2025-03-07T07:24:22	5.6	79
109046	2025-03-07T07:34:22	5.8	80
109047	2025-03-07T07:44:22	5.9	80
109048	2025-03-07T07:54:22	6.1	80.5
109049	2025-03-07T08:04:22	6.2	79.5
109050	2025-03-07T08:14:22	6.5	77.5
109051	2025-03-07T08:24:22	6.8	75
109052	2025-03-07T08:34:22	7.3	73.5
109053	2025-03-07T08:44:22	7.4	74.5
109054	2025-03-07T08:54:22	7.7	74.5
109055	2025-03-07T09:04:22	7.9	74.5
109056	2025-03-07T09:14:22	8.2	72
109057	2025-03-07T09:24:22	8.7	70.5
109058	2025-03-07T09:34:22	8.8	70.5
109059	2025-03-07T09:44:22	9.4	68
109060	2025-03-07T09:54:22	9.6	68
109061	2025-03-07T10:04:22	10	65.5
109062	2025-03-07T10:14:22	10.3	66.5
109063	2025-03-07T10:24:22	10.4	65.5
109064	2025-03-07T10:34:22	10.7	65.5
109065	2025-03-07T10:44:22	10.9	63.5
109066	2025-03-07T10:54:22	11.2	63.5
109067	2025-03-07T11:04:22	11.2	62.5
109068	2025-03-07T11:14:22	11.7	61.5
109069	2025-03-07T11:24:22	11.8	61
109070	2025-03-07T11:34:22	12	61.5
109071	2025-03-07T11:44:22	12.5	58
109072	2025-03-07T11:54:22	12.6	59
109073	2025-03-07T12:04:22	13.1	59.5
109074	2025-03-07T12:14:22	13.5	55.5
109075	2025-03-07T12:24:22	14.3	57.5
109076	2025-03-07T12:34:22	17.5	48
109077	2025-03-07T12:44:22	19.8	42
109078	2025-03-07T12:54:22	21.2	42
109079	2025-03-07T13:04:22	22.7	39
109080	2025-03-07T13:14:22	23.6	37.5
109081	2025-03-07T13:24:22	24.3	36
109082	2025-03-07T13:34:22	25.1	33.5
109083	2025-03-07T13:44:22	25.7	33.5
109084	2025-03-07T13:54:22	26.3	31.5
109085	2025-03-07T14:04:22	26.7	31
109086	2025-03-07T14:14:22	27.1	30
109087	2025-03-07T14:24:22	27.4	32.5
109088	2025-03-07T14:34:22	27.8	29
109089	2025-03-07T14:44:22	28.2	29.5
109090	2025-03-07T14:54:22	28.2	31
109091	2025-03-07T15:04:22	28.6	31
109092	2025-03-07T15:14:22	28.4	28
109093	2025-03-07T15:24:22	28.1	30
109094	2025-03-07T15:34:22	28.3	30.5
109095	2025-03-07T15:44:22	28.3	28
109096	2025-03-07T15:54:22	28	33
109097	2025-03-07T16:04:22	27.8	27.5
109098	2025-03-07T16:14:22	27.4	31
109099	2025-03-07T16:24:22	27	32.5
109100	2025-03-07T16:34:22	26.5	32.5
109101	2025-03-07T16:54:22	24.5	36.5
109102	2025-03-07T17:04:22	23.8	37.5
109103	2025-03-07T17:24:22	22.1	46.5
109104	2025-03-07T17:34:22	21.4	48
109105	2025-03-07T17:44:22	20.9	50
109106	2025-03-07T17:54:22	20.4	51
109107	2025-03-07T18:04:22	19.8	52
109108	2025-03-07T18:14:21	19.5	53
109109	2025-03-07T18:24:21	18.9	53.5
109110	2025-03-07T18:34:21	18.5	54.5
109111	2025-03-07T18:44:22	18.1	55.5
109112	2025-03-07T18:54:21	17.7	56
109113	2025-03-07T19:04:21	17.4	56.5
109114	2025-03-07T19:14:21	17.1	56.5
109115	2025-03-07T19:24:21	16.6	56
109116	2025-03-07T19:34:21	16.3	57
109117	2025-03-07T19:44:21	16	57.5
109118	2025-03-07T19:54:21	15.8	59
109119	2025-03-07T20:04:21	15.4	55.5
109120	2025-03-07T20:14:21	15.2	60
109121	2025-03-07T20:24:21	14.9	59.5
109122	2025-03-07T20:34:21	14.7	60.5
109123	2025-03-07T20:44:21	14.4	61.5
109124	2025-03-07T20:54:21	14.1	60
109125	2025-03-07T21:04:21	14	61
109126	2025-03-07T21:14:21	13.5	62
109127	2025-03-07T21:24:21	13.4	61
109128	2025-03-07T21:34:21	13.1	62
109129	2025-03-07T21:44:21	12.9	62.5
109130	2025-03-07T21:54:21	12.7	62
109131	2025-03-07T22:04:21	12.5	63.5
109132	2025-03-07T22:14:21	12.2	64
109133	2025-03-07T22:24:21	12	65.5
109134	2025-03-07T22:34:21	11.8	65
109135	2025-03-07T22:44:21	11.6	65.5
109136	2025-03-07T22:54:21	11.2	65.5
109137	2025-03-07T23:04:21	11.1	67
109138	2025-03-07T23:14:21	11	66
109139	2025-03-07T23:24:21	10.7	66.5
109140	2025-03-07T23:34:21	10.5	68
109141	2025-03-07T23:44:21	10.4	68.5
109142	2025-03-07T23:54:21	10.2	66.5
109143	2025-03-08T00:12:01	10	68.5
109144	2025-03-08T00:14:21	9.8	70
109145	2025-03-08T00:24:21	9.6	71
109146	2025-03-08T00:34:21	9.4	71
109147	2025-03-08T00:44:21	9.3	71
109148	2025-03-08T00:54:21	9	71.5
109149	2025-03-08T01:04:21	8.8	72
109150	2025-03-08T01:14:21	8.7	72
109151	2025-03-08T01:24:21	8.5	72.5
109152	2025-03-08T01:34:21	8.4	73
109153	2025-03-08T01:44:21	8.2	72
109154	2025-03-08T01:54:21	8.1	72.5
109155	2025-03-08T02:04:21	7.9	73
109156	2025-03-08T02:14:21	7.8	70
109157	2025-03-08T02:24:21	7.5	73.5
109158	2025-03-08T02:34:21	7.5	74
109159	2025-03-08T02:44:21	7.3	74
109160	2025-03-08T02:54:21	7.2	74
109161	2025-03-08T03:04:21	7.1	74
109162	2025-03-08T03:14:21	7	73
109163	2025-03-08T03:24:21	6.9	74
109164	2025-03-08T03:34:21	6.7	74.5
109165	2025-03-08T03:44:21	6.5	75.5
109166	2025-03-08T03:54:21	6.4	75.5
109167	2025-03-08T04:04:21	6.3	76
109168	2025-03-08T04:14:21	6.1	76
109169	2025-03-08T04:24:21	6	76.5
109170	2025-03-08T04:34:21	5.9	76.5
109171	2025-03-08T04:44:21	5.8	76.5
109172	2025-03-08T04:54:21	5.7	77
109173	2025-03-08T05:04:21	5.6	76.5
109174	2025-03-08T05:14:21	5.6	77
109175	2025-03-08T05:24:21	5.4	77
109176	2025-03-08T05:34:21	5.3	77.5
109177	2025-03-08T05:44:21	5.1	77.5
109178	2025-03-08T05:54:21	5.1	76.5
109179	2025-03-08T06:04:21	5.2	77
109180	2025-03-08T06:14:21	5	77
109181	2025-03-08T06:24:21	5	77.5
109182	2025-03-08T06:34:21	5	76.5
109183	2025-03-08T06:44:21	4.9	77
109184	2025-03-08T06:54:21	5.1	78
109185	2025-03-08T07:04:21	5.1	78.5
109186	2025-03-08T07:14:21	5.2	78.5
109187	2025-03-08T07:24:21	5.2	79.5
109188	2025-03-08T07:34:21	5.2	80
109189	2025-03-08T07:44:21	5.4	80
109190	2025-03-08T07:54:21	5.5	80
109191	2025-03-08T08:04:21	5.7	80.5
109192	2025-03-08T08:14:21	5.8	80.5
109193	2025-03-08T08:24:21	5.9	80
109194	2025-03-08T08:34:21	6.1	80.5
109195	2025-03-08T08:44:21	6.3	80
109196	2025-03-08T08:54:21	6.6	77.5
109197	2025-03-08T09:04:21	6.9	78.5
109198	2025-03-08T09:14:21	7	78
109199	2025-03-08T09:24:21	7.3	76
109200	2025-03-08T09:34:21	7.6	75
109201	2025-03-08T09:44:21	7.9	76.5
109202	2025-03-08T09:54:21	8	75.5
109203	2025-03-08T10:04:21	8.2	76
109204	2025-03-08T10:14:21	8.4	75.5
109205	2025-03-08T10:24:21	8.6	74.5
109206	2025-03-08T10:34:21	8.8	75.5
109207	2025-03-08T10:44:21	9	74
109208	2025-03-08T10:54:21	9.3	73.5
109209	2025-03-08T11:04:21	9.6	73
109210	2025-03-08T11:14:21	9.9	72
109211	2025-03-08T11:24:21	10.4	69.5
109212	2025-03-08T11:34:21	10.6	67.5
109213	2025-03-08T11:44:21	11	68.5
109214	2025-03-08T11:54:21	11.3	65.5
109215	2025-03-08T12:04:21	11.7	65.5
109216	2025-03-08T12:14:21	12.3	64
109217	2025-03-08T12:24:21	13	62.5
109218	2025-03-08T12:34:21	16.3	56
109219	2025-03-08T12:44:21	18.6	49.5
109220	2025-03-08T12:54:21	20.2	44.5
109221	2025-03-08T13:04:21	21.4	42.5
109222	2025-03-08T13:14:21	22.4	40
109223	2025-03-08T13:24:21	23.1	40.5
109224	2025-03-08T13:34:21	23.7	39
109225	2025-03-08T13:44:21	24.1	37.5
109226	2025-03-08T13:54:20	24.8	36.5
109227	2025-03-08T14:04:20	25.5	34
109228	2025-03-08T14:14:20	26.1	34.5
109229	2025-03-08T14:24:20	26.5	31
109230	2025-03-08T14:34:20	26.8	33.5
109231	2025-03-08T14:44:20	26.9	31
109232	2025-03-08T14:54:20	27.2	31
109233	2025-03-08T15:04:20	27.4	30.5
109234	2025-03-08T15:14:20	27.3	30
109235	2025-03-08T15:24:20	27.4	27.5
109236	2025-03-08T15:34:20	27.4	30.5
109237	2025-03-08T15:44:20	27.5	30
109238	2025-03-08T15:54:20	27.2	29
109239	2025-03-08T16:04:20	26.8	30.5
109240	2025-03-08T16:14:20	26.4	34
109241	2025-03-08T16:24:20	26.1	31.5
109242	2025-03-08T16:34:20	25.7	34.5
109243	2025-03-08T16:44:20	25.1	36
109244	2025-03-08T16:54:20	24.1	35.5
109245	2025-03-08T17:04:20	23.2	37.5
109246	2025-03-08T17:14:20	22.2	36.5
109247	2025-03-08T17:24:20	21.4	41.5
109248	2025-03-08T17:34:20	20.7	39
109249	2025-03-08T17:44:20	20.2	45
109250	2025-03-08T17:54:20	19.6	48
109251	2025-03-08T18:04:20	19.2	49.5
109252	2025-03-08T18:14:20	18.7	50.5
109253	2025-03-08T19:24:20	15.9	51
109254	2025-03-08T19:34:20	15.7	51.5
109255	2025-03-08T19:44:20	15.4	53
109256	2025-03-08T19:54:20	14.9	51.5
109257	2025-03-08T20:04:20	14.5	53
109258	2025-03-08T20:14:20	14.2	53
109259	2025-03-08T20:24:20	14	53
109260	2025-03-08T20:34:20	13.7	52
109261	2025-03-08T20:44:20	13.4	53
109262	2025-03-08T20:54:20	13.2	55.5
109263	2025-03-08T21:04:20	13	55
109264	2025-03-08T21:14:20	12.8	56.5
109265	2025-03-08T21:24:20	12.6	57.5
109266	2025-03-08T21:34:20	12.3	56
109267	2025-03-08T21:44:20	12.1	59
109268	2025-03-08T21:54:20	12	62.5
109269	2025-03-08T22:04:20	11.7	60.5
109270	2025-03-08T22:14:20	11.6	61.5
109271	2025-03-08T22:24:20	11.3	60.5
109272	2025-03-08T22:34:20	11.3	61.5
109273	2025-03-08T22:44:20	11	59
109274	2025-03-08T22:54:20	11	61.5
109275	2025-03-08T23:04:20	10.7	59
109276	2025-03-08T23:14:20	10.4	61.5
109277	2025-03-08T23:24:20	10.2	66.5
109278	2025-03-08T23:34:20	10.1	66
109279	2025-03-08T23:44:20	9.9	67
109280	2025-03-08T23:54:20	9.7	66.5
109281	2025-03-09T00:04:20	9.6	66.5
109282	2025-03-09T00:14:20	9.6	67.5
109283	2025-03-09T00:24:20	9.3	68
109284	2025-03-09T00:34:20	9.2	68
109285	2025-03-09T00:44:20	9	66.5
109286	2025-03-09T00:54:20	8.8	69.5
109287	2025-03-09T01:04:20	8.8	70.5
109288	2025-03-09T01:14:20	8.6	69.5
109289	2025-03-09T01:24:20	8.5	70.5
109290	2025-03-09T01:34:20	8.4	71
109291	2025-03-09T01:44:20	8.2	71
109292	2025-03-09T01:54:20	8.1	70
109293	2025-03-09T02:04:20	7.9	71.5
109294	2025-03-09T02:14:20	7.8	72
109295	2025-03-09T02:24:20	7.8	72.5
109296	2025-03-09T02:34:20	7.7	73
109297	2025-03-09T02:44:20	7.4	71
109298	2025-03-09T02:54:20	7.4	72
109299	2025-03-09T03:04:20	7.2	73.5
109300	2025-03-09T03:14:20	7.1	73.5
109301	2025-03-09T03:24:20	7.1	73
109302	2025-03-09T03:34:20	7	74
109303	2025-03-09T03:44:20	6.9	74
109304	2025-03-09T03:54:20	6.8	74
109305	2025-03-09T04:04:20	6.8	74.5
109306	2025-03-09T04:14:19	6.7	74
109307	2025-03-09T04:24:19	6.5	75
109308	2025-03-09T04:34:19	6.4	75
109309	2025-03-09T04:44:19	6.2	72.5
109310	2025-03-09T04:54:20	6.1	73.5
109311	2025-03-09T05:04:19	6	76
109312	2025-03-09T05:14:19	5.9	76
109313	2025-03-09T05:24:19	5.8	76
109314	2025-03-09T05:34:19	5.7	77
109315	2025-03-09T05:44:19	5.6	76.5
109316	2025-03-09T05:54:19	5.5	77
109317	2025-03-09T06:04:19	5.5	76
109318	2025-03-09T06:14:19	5.7	77
109319	2025-03-09T06:24:19	5.8	75
109320	2025-03-09T06:34:19	5.7	75.5
109321	2025-03-09T06:44:19	5.6	77
109322	2025-03-09T06:54:19	5.6	77
109323	2025-03-09T07:04:19	5.7	77.5
109324	2025-03-09T07:14:19	5.5	77
109325	2025-03-09T07:24:19	5.8	78
109326	2025-03-09T07:34:19	5.8	78
109327	2025-03-09T07:44:19	5.9	78
109328	2025-03-09T07:54:19	6	77
109329	2025-03-09T08:04:19	6.3	76.5
109330	2025-03-09T08:14:19	6.5	75.5
109331	2025-03-09T08:34:19	6.8	75
109332	2025-03-09T08:44:19	6.9	75.5
109333	2025-03-09T08:54:19	7.1	75
109334	2025-03-09T09:04:19	7.3	75
109335	2025-03-09T09:14:19	7.5	72
109336	2025-03-09T09:24:19	7.8	71
109337	2025-03-09T09:34:19	7.9	70.5
109338	2025-03-09T09:44:19	8.2	70.5
109339	2025-03-09T09:54:19	8.5	71
109340	2025-03-09T10:04:19	8.7	70.5
109341	2025-03-09T10:14:19	9.1	69.5
109342	2025-03-09T10:54:19	10.3	66.5
109343	2025-03-09T11:04:19	10.5	67
109344	2025-03-09T11:14:19	11.1	63.5
109345	2025-03-09T11:24:19	11.6	62
109346	2025-03-09T11:34:19	11.9	61
109347	2025-03-09T11:44:19	12.2	60
109348	2025-03-09T11:54:19	12.7	60.5
109349	2025-03-09T12:04:19	13.1	59
109350	2025-03-09T12:14:19	13.7	56.5
109351	2025-03-09T12:24:19	14.5	55
109352	2025-03-09T12:34:19	17.9	47
109353	2025-03-09T12:44:19	20	42
109354	2025-03-09T12:54:19	21.8	39
109355	2025-03-09T13:04:19	22.8	34.5
109356	2025-03-09T13:14:19	23.5	33
109357	2025-03-09T13:24:19	24.3	34
109358	2025-03-09T13:34:19	24.2	31
109359	2025-03-09T13:44:19	24.9	32.5
109360	2025-03-09T13:54:19	25.5	32
109361	2025-03-09T14:04:19	25.9	31
109362	2025-03-09T14:14:19	25.6	32
109363	2025-03-09T14:24:19	26	31
109364	2025-03-09T14:34:19	27.1	31
109365	2025-03-09T14:44:19	27	29.5
109366	2025-03-09T14:54:19	27.4	28.5
109367	2025-03-09T15:04:19	27.6	28.5
109368	2025-03-09T15:14:19	27.4	31
109369	2025-03-09T15:24:19	27.4	30
109370	2025-03-09T15:34:19	26.7	28
109371	2025-03-09T15:44:19	26.8	30.5
109372	2025-03-09T15:54:19	26.1	29.5
109373	2025-03-09T16:04:19	24.9	33
109374	2025-03-09T16:14:19	24	34.5
109375	2025-03-09T16:24:19	23.3	37
109376	2025-03-09T16:34:19	22.8	37.5
109377	2025-03-09T16:44:19	22.2	37.5
109378	2025-03-09T16:54:19	21.7	39.5
109379	2025-03-09T17:04:19	21.1	43.5
109380	2025-03-09T17:14:19	20.5	38
109381	2025-03-09T17:24:19	20	44
109382	2025-03-09T17:44:19	19.3	46.5
109383	2025-03-09T17:54:19	18.9	49
109384	2025-03-09T18:04:19	18.4	49.5
109385	2025-03-09T18:14:19	18.1	51
109386	2025-03-09T18:24:19	17.9	52
109387	2025-03-09T18:34:19	17.4	53
109388	2025-03-09T18:44:19	17.2	52.5
109389	2025-03-09T18:54:19	16.9	54.5
109390	2025-03-09T19:04:19	16.5	53.5
109391	2025-03-09T19:14:18	16.4	56
109392	2025-03-09T19:24:18	16.3	57
109393	2025-03-09T19:34:18	15.9	55
109394	2025-03-09T19:44:18	15.8	57
109395	2025-03-09T19:54:18	15.8	57.5
109396	2025-03-09T20:04:18	15.6	57.5
109397	2025-03-09T20:14:18	15.5	58.5
109398	2025-03-09T20:24:18	15.3	58
109399	2025-03-09T20:34:18	14.9	57.5
109400	2025-03-09T20:44:18	14.6	57
109401	2025-03-09T20:54:18	14.5	58
109402	2025-03-09T21:04:18	14.4	55
109403	2025-03-09T21:14:18	14.1	59.5
109404	2025-03-09T21:24:18	13.9	58.5
109405	2025-03-09T21:34:18	13.7	61
109406	2025-03-09T21:44:18	13.5	62
109407	2025-03-09T21:54:18	13.1	57
109408	2025-03-09T22:04:18	13	59.5
109409	2025-03-09T22:14:18	12.8	61.5
109410	2025-03-09T22:24:18	12.7	60.5
109411	2025-03-09T22:34:18	12.4	58.5
109412	2025-03-09T22:44:18	12.2	58.5
109413	2025-03-09T22:54:18	12	59
109414	2025-03-09T23:04:18	11.7	59.5
109415	2025-03-09T23:14:18	11.6	60.5
109416	2025-03-09T23:24:18	11.5	61.5
109417	2025-03-09T23:34:18	11.4	62
109418	2025-03-09T23:44:18	11.3	63.5
109419	2025-03-09T23:54:18	11.1	65.5
109420	2025-03-10T00:04:18	10.8	65.5
109421	2025-03-10T00:14:18	10.6	64.5
109422	2025-03-10T00:24:18	10.6	65
109423	2025-03-10T00:34:18	10.5	65.5
109424	2025-03-10T00:44:18	10.5	65.5
109425	2025-03-10T00:54:18	10.5	66.5
109426	2025-03-10T01:04:18	10.4	68.5
109427	2025-03-10T01:14:18	10.2	69
109428	2025-03-10T01:24:18	10.2	69.5
109429	2025-03-10T01:34:18	9.9	70
109430	2025-03-10T01:44:18	9.8	70
109431	2025-03-10T01:54:18	9.7	70
109432	2025-03-10T02:04:18	9.7	70
109433	2025-03-10T02:14:18	9.5	69.5
109434	2025-03-10T02:24:18	9.4	71.5
109435	2025-03-10T02:34:18	9.4	70
109436	2025-03-10T02:44:18	9.3	68.5
109437	2025-03-10T02:54:18	9.1	70
109438	2025-03-10T03:04:18	9.1	71.5
109439	2025-03-10T03:14:18	8.9	72.5
109440	2025-03-10T03:24:18	8.9	72
109441	2025-03-10T03:34:18	8.7	72.5
109442	2025-03-10T03:44:18	8.7	71
109443	2025-03-10T03:54:18	8.5	72.5
109444	2025-03-10T04:04:18	8.5	72
109445	2025-03-10T04:14:18	8.3	73.5
109446	2025-03-10T04:24:18	8.2	73.5
109447	2025-03-10T04:34:18	8.1	73
109448	2025-03-10T04:44:18	8	73.5
109449	2025-03-10T04:54:18	7.9	74.5
109450	2025-03-10T05:04:18	7.7	74.5
109451	2025-03-10T05:14:18	7.6	74.5
109452	2025-03-10T05:24:18	7.5	75
109453	2025-03-10T05:34:18	7.5	75.5
109454	2025-03-10T05:44:18	7.4	75.5
109455	2025-03-10T05:54:18	7.3	75.5
109456	2025-03-10T06:04:18	7.3	76
109457	2025-03-10T06:14:18	7.4	75.5
109458	2025-03-10T06:24:18	7.2	76
109459	2025-03-10T06:34:18	7.3	76.5
109460	2025-03-10T06:44:18	7.1	74.5
109461	2025-03-10T06:54:18	7	75.5
109462	2025-03-10T07:04:18	6.9	75.5
109463	2025-03-10T07:14:18	7.1	76.5
109464	2025-03-10T07:24:18	7	77
109465	2025-03-10T07:34:18	6.9	77.5
109466	2025-03-10T07:44:18	7.1	76.5
109467	2025-03-10T07:54:18	7.4	74.5
109468	2025-03-10T08:04:18	7.7	73
109469	2025-03-10T08:14:18	8	71.5
109470	2025-03-10T08:24:18	8.5	69.5
109471	2025-03-10T08:34:18	9	69
109472	2025-03-10T08:44:18	9.4	67
109473	2025-03-10T08:54:18	9.9	66.5
109474	2025-03-10T09:04:18	10.2	65
109475	2025-03-10T09:14:18	10.5	64.5
109476	2025-03-10T09:24:18	10.8	64
109477	2025-03-10T09:34:18	11	64
109478	2025-03-10T09:44:18	11.1	62.5
109479	2025-03-10T09:54:18	11.1	63
109480	2025-03-10T10:04:18	11.2	63.5
109481	2025-03-10T10:14:18	11.4	64.5
109482	2025-03-10T10:24:18	11.5	65
109483	2025-03-10T10:34:18	11.6	65.5
109484	2025-03-10T10:44:18	11.9	65.5
109485	2025-03-10T10:54:18	12.2	65
109486	2025-03-10T11:04:18	12.4	65.5
109487	2025-03-10T11:14:18	12.6	66.5
109488	2025-03-10T11:24:18	12.7	68
109489	2025-03-10T11:34:18	12.9	69
109490	2025-03-10T11:44:18	13	69.5
109491	2025-03-10T11:54:18	13.1	70
109492	2025-03-10T12:04:18	12.9	70.5
109493	2025-03-10T12:14:18	12.9	71.5
109494	2025-03-10T12:24:18	12.7	72.5
109495	2025-03-10T12:34:17	12.2	79.5
109496	2025-03-10T12:44:17	11.9	78.5
109497	2025-03-10T12:54:17	11.9	78
109498	2025-03-10T13:04:17	11.9	79
109499	2025-03-10T13:14:17	11.9	79.5
109500	2025-03-10T13:24:17	11.4	85.5
109501	2025-03-10T13:34:17	11	90.5
109502	2025-03-10T13:44:17	10.6	95
109503	2025-03-10T13:54:17	10.4	95.5
109504	2025-03-10T14:04:17	10.4	96
109505	2025-03-10T14:14:17	10.2	96.5
109506	2025-03-10T14:44:17	10.2	99
109507	2025-03-10T14:54:17	10.1	99
109508	2025-03-10T15:04:17	10.1	99.5
109509	2025-03-10T15:14:17	10.2	100
109510	2025-03-10T15:24:17	10	99
109511	2025-03-10T15:34:17	10.1	98
109512	2025-03-10T15:44:17	10.1	96.5
109513	2025-03-10T15:54:17	10.1	97
109514	2025-03-10T16:04:17	10.2	96
109515	2025-03-10T16:14:17	10.1	96
109516	2025-03-10T16:24:17	10.1	96
109517	2025-03-10T16:34:17	10.1	95.5
109518	2025-03-10T16:44:17	10.2	97.5
109519	2025-03-10T16:54:17	10	97.5
109520	2025-03-10T17:04:17	10	96.5
109521	2025-03-10T17:14:17	10	96
109522	2025-03-10T17:24:17	10	95.5
109523	2025-03-10T17:34:17	10	93.5
109524	2025-03-10T17:44:17	10	94
109525	2025-03-10T17:54:17	9.9	93
109526	2025-03-10T18:04:17	10.1	95
109527	2025-03-10T18:14:17	10.2	94
109528	2025-03-10T18:24:17	10.1	93
109529	2025-03-10T19:24:17	10	93.5
109530	2025-03-10T19:34:17	10	92.5
109531	2025-03-10T19:44:17	10	94.5
109532	2025-03-10T19:54:17	10	93
109533	2025-03-10T20:04:17	10.1	93.5
109534	2025-03-10T20:14:17	10	92.5
109535	2025-03-10T20:24:17	9.9	90.5
109536	2025-03-10T20:34:17	9.9	92
109537	2025-03-10T20:44:17	9.9	95.5
109538	2025-03-10T20:54:17	9.8	99
109539	2025-03-10T21:04:17	9.7	99.5
109540	2025-03-10T21:14:17	9.8	100
109541	2025-03-10T21:24:17	9.7	93.5
109542	2025-03-10T21:34:17	9.6	93
109543	2025-03-10T21:44:17	9.5	93.5
109544	2025-03-10T21:54:17	9.5	93.5
109545	2025-03-10T22:04:17	9.5	95.5
109546	2025-03-10T22:14:17	9.5	93.5
109547	2025-03-10T22:24:17	9.5	92
109548	2025-03-10T22:34:17	9.6	93.5
109549	2025-03-10T22:44:17	9.5	92.5
109550	2025-03-10T22:54:17	9.5	92.5
109551	2025-03-10T23:04:17	9.6	97
109552	2025-03-10T23:14:17	9.6	99.5
109553	2025-03-10T23:24:17	9.6	100
109554	2025-03-10T23:34:17	9.4	100
109555	2025-03-10T23:44:17	9.3	100
109556	2025-03-10T23:54:17	9.1	100
109557	2025-03-11T00:04:17	8.9	100
109558	2025-03-11T00:14:17	8.8	100
109559	2025-03-11T00:24:17	8.8	100
109560	2025-03-11T03:48:17	8.1	97
109561	2025-03-11T03:48:22	7.9	99.5
109562	2025-03-11T03:48:22	7.6	100
109563	2025-03-11T03:48:30	7.7	100
109564	2025-03-11T03:48:33	7.7	100
109565	2025-03-11T03:48:36	7.8	100
109566	2025-03-11T03:48:38	8	100
109567	2025-03-11T03:48:40	7	100
109568	2025-03-11T03:48:49	8.6	100
109569	2025-03-11T03:48:49	8.4	96.5
109570	2025-03-11T03:49:11	7.6	100
109571	2025-03-11T03:49:29	7.1	100
109572	2025-03-11T03:49:30	6.7	100
109573	2025-03-11T03:49:30	8.2	98.5
109574	2025-03-11T03:49:39	7.6	100
109575	2025-03-11T03:49:56	7.4	100
109576	2025-03-11T03:49:58	7.3	100
109577	2025-03-11T03:50:00	6.9	100
109578	2025-03-11T03:50:13	7.2	100
109579	2025-03-11T03:50:13	6.8	100
109580	2025-03-11T03:54:17	6.6	100
109581	2025-03-11T04:04:17	6.4	100
109582	2025-03-11T04:14:17	6.4	100
109583	2025-03-11T04:24:17	6.2	100
109584	2025-03-11T04:34:17	6.2	100
109585	2025-03-11T04:44:17	6.1	99.5
109586	2025-03-11T05:54:17	5.9	100
109587	2025-03-11T06:04:17	5.9	100
109588	2025-03-11T06:14:17	6	100
109589	2025-03-11T06:24:17	6	100
109590	2025-03-11T06:34:17	6.3	100
109591	2025-03-11T06:44:17	6.2	100
109592	2025-03-11T06:54:17	6.4	100
109593	2025-03-11T07:04:17	6.4	100
109594	2025-03-11T07:14:17	6.4	100
109595	2025-03-11T07:24:17	6.3	100
109596	2025-03-11T07:34:17	6.4	99.5
109597	2025-03-11T07:44:38	6.7	98
109598	2025-03-11T07:54:16	6.8	97.5
109599	2025-03-11T08:04:16	6.9	97.5
109600	2025-03-11T08:14:16	7	97
109601	2025-03-11T08:24:16	7.2	95
109602	2025-03-11T08:34:16	7.7	94.5
109603	2025-03-11T08:44:16	7.9	93.5
109604	2025-03-11T08:54:16	8	92.5
109605	2025-03-11T09:04:16	8.2	92.5
109606	2025-03-11T09:14:16	8.4	92
109607	2025-03-11T09:24:16	8.5	92
109608	2025-03-11T09:34:16	8.8	91.5
109609	2025-03-11T09:54:16	9.4	89.5
109610	2025-03-11T10:14:16	10	88
109611	2025-03-11T10:24:16	10.2	86
109612	2025-03-11T10:34:16	10.5	84.5
109613	2025-03-11T10:44:16	10.6	85.5
109614	2025-03-11T11:04:16	11.6	80.5
109615	2025-03-11T11:34:16	12.5	77.5
109616	2025-03-11T11:44:16	12.7	76.5
109617	2025-03-11T11:54:16	13	76.5
109618	2025-03-11T12:04:16	13.2	76
109619	2025-03-11T12:14:16	13.5	73.5
109620	2025-03-11T12:24:16	14.2	72.5
109621	2025-03-11T12:34:16	16.9	63
109622	2025-03-11T12:44:16	18.1	58.5
109623	2025-03-11T12:54:16	19.2	55.5
109624	2025-03-11T13:04:16	19.9	52
109625	2025-03-11T13:14:16	19.9	50
109626	2025-03-11T13:24:16	20.3	51
109627	2025-03-11T13:34:16	20.6	48
109628	2025-03-11T13:44:16	21.2	47.5
109629	2025-03-11T13:54:16	20.8	46
109630	2025-03-11T14:24:16	19.7	49.5
109631	2025-03-11T14:34:16	21.1	46.5
109632	2025-03-11T14:44:16	21.2	45.5
109633	2025-03-11T14:54:16	19.8	49
109634	2025-03-11T15:04:16	19.5	50.5
109635	2025-03-11T15:14:16	18.6	53.5
109636	2025-03-11T15:24:16	18	53.5
109637	2025-03-11T15:34:16	17.3	55.5
109638	2025-03-11T15:44:16	17.1	56
109639	2025-03-11T15:54:16	16.9	55.5
109640	2025-03-11T16:14:16	16.3	57
109641	2025-03-11T16:24:16	16.2	58
109642	2025-03-11T16:34:16	16.1	59.5
109643	2025-03-11T16:44:16	16.1	60
109644	2025-03-11T16:54:16	15.8	60.5
109645	2025-03-11T17:04:16	15.7	60.5
109646	2025-03-11T17:14:16	15.3	60
109647	2025-03-11T17:24:16	15	59
109648	2025-03-11T17:34:16	14.9	60
109649	2025-03-11T17:44:16	14.9	61
109650	2025-03-11T17:54:16	14.7	62.5
109651	2025-03-11T18:04:16	14.4	63.5
109652	2025-03-11T18:14:16	14.3	65
109653	2025-03-11T18:24:16	14.3	69
109654	2025-03-11T18:34:16	14.3	70.5
109655	2025-03-11T18:44:16	14.2	71
109656	2025-03-11T18:54:16	14.1	66
109657	2025-03-11T19:04:16	13.4	72
109658	2025-03-11T19:14:16	13.1	75
109659	2025-03-11T19:24:16	13.1	77
109660	2025-03-11T19:34:16	13.3	76
109661	2025-03-11T19:44:16	13.1	74.5
109662	2025-03-11T19:54:16	13	74.5
109663	2025-03-11T20:04:16	13.1	78
109664	2025-03-11T20:14:16	13.1	78
109665	2025-03-11T20:24:16	13	76
109666	2025-03-11T20:34:16	13	78.5
109667	2025-03-11T20:44:16	13	80
109668	2025-03-11T20:54:16	12.9	80
109669	2025-03-11T21:04:16	12.9	78.5
109670	2025-03-11T21:14:15	12.9	80
109671	2025-03-11T21:24:15	12.9	79
109672	2025-03-11T21:34:15	12.9	80
109673	2025-03-11T21:44:15	12.8	78.5
109674	2025-03-11T21:54:15	12.7	77
109675	2025-03-11T22:04:15	12.6	75
109676	2025-03-11T22:14:15	12.6	76
109677	2025-03-11T22:24:15	12.5	75.5
109678	2025-03-11T22:34:15	12.3	76
109679	2025-03-11T22:44:15	12.4	76
109680	2025-03-11T22:54:15	12.3	76
109681	2025-03-11T23:04:15	12.2	77.5
109682	2025-03-11T23:14:15	12.1	78.5
109683	2025-03-11T23:24:15	12.1	78
109684	2025-03-11T23:34:15	12	78.5
109685	2025-03-11T23:44:15	12	78.5
109686	2025-03-11T23:54:15	11.9	77.5
109687	2025-03-12T00:04:15	11.8	77.5
109688	2025-03-12T00:14:15	11.8	76
109689	2025-03-12T00:24:15	11.6	76
109690	2025-03-12T00:34:15	11.5	75.5
109691	2025-03-12T00:44:15	11.4	76.5
109692	2025-03-12T00:54:15	11.4	77
109693	2025-03-12T01:04:15	11.2	76
109694	2025-03-12T01:14:15	10.9	75.5
109695	2025-03-12T01:24:15	10.8	75.5
109696	2025-03-12T01:34:15	10.8	77.5
109697	2025-03-12T01:44:15	10.6	75.5
109698	2025-03-12T01:54:15	10.4	75
109699	2025-03-12T02:04:15	10.3	77
109700	2025-03-12T02:14:15	10.4	76.5
109701	2025-03-12T02:24:15	10.4	77.5
109702	2025-03-12T02:34:15	10.4	77.5
109703	2025-03-12T02:44:15	10.3	77.5
109704	2025-03-12T02:54:15	10.1	77
109705	2025-03-12T03:04:15	10.1	77
109706	2025-03-12T03:14:15	10.1	78
109707	2025-03-12T03:24:15	10.1	78.5
109708	2025-03-12T03:34:15	10	77
109709	2025-03-12T03:44:15	9.9	77.5
109710	2025-03-12T03:54:15	9.9	77
109711	2025-03-12T04:04:15	9.7	77
109712	2025-03-12T04:14:15	9.8	79
109713	2025-03-12T04:24:15	9.6	79
109714	2025-03-12T04:44:15	9.5	77
109715	2025-03-12T05:14:15	9.4	80
109716	2025-03-12T05:24:15	9.3	79
109717	2025-03-12T05:34:15	9.4	79
109718	2025-03-12T05:44:15	9.2	79
109719	2025-03-12T05:54:15	9.2	80.5
109720	2025-03-12T06:04:15	9	81
109721	2025-03-12T06:14:15	9.1	81.5
109722	2025-03-12T06:24:15	8.9	82
109723	2025-03-12T06:34:15	9	81.5
109724	2025-03-12T06:44:15	8.9	81
109725	2025-03-12T06:54:15	8.8	81
109726	2025-03-12T07:04:15	8.8	83
109727	2025-03-12T07:14:15	8.9	83
109728	2025-03-12T07:24:15	8.9	85
109729	2025-03-12T07:34:15	8.8	85
109730	2025-03-12T07:44:15	8.8	86.5
109731	2025-03-12T07:54:15	8.7	85.5
109732	2025-03-12T08:04:15	8.7	86.5
109733	2025-03-12T08:14:15	8.6	86
109734	2025-03-12T08:24:15	8.6	86.5
109735	2025-03-12T08:34:15	8.7	86.5
109736	2025-03-12T08:44:15	8.7	86
109737	2025-03-12T08:54:15	8.6	85.5
109738	2025-03-12T09:04:15	8.7	86.5
109739	2025-03-12T09:14:15	8.7	91
109740	2025-03-12T09:24:15	8.7	88
109741	2025-03-12T09:34:15	8.7	86
109742	2025-03-12T09:44:15	8.6	86.5
109743	2025-03-12T09:54:15	8.7	85.5
109744	2025-03-12T10:04:15	8.8	86
109745	2025-03-12T10:14:15	8.6	87
109746	2025-03-12T10:24:15	8.8	86
109747	2025-03-12T10:34:15	8.7	86
109748	2025-03-12T10:44:15	8.9	86
109749	2025-03-12T10:54:15	8.8	85.5
109750	2025-03-12T11:04:15	8.8	87.5
109751	2025-03-12T11:14:15	9	87.5
109752	2025-03-12T11:24:15	9	87.5
109753	2025-03-12T11:34:15	9.1	88
109754	2025-03-12T11:44:15	9.3	87
109755	2025-03-12T11:54:15	9.4	85
109756	2025-03-12T12:04:15	9.7	86
109757	2025-03-12T12:14:15	10.1	84.5
109758	2025-03-12T12:24:15	10.2	83
109759	2025-03-12T12:34:15	9.8	84.5
109760	2025-03-12T12:44:15	9.8	84.5
109761	2025-03-12T12:54:15	9.8	85.5
109762	2025-03-12T13:04:15	9.6	84
109763	2025-03-12T13:14:15	9.6	82.5
109764	2025-03-12T13:24:15	9.3	85
109765	2025-03-12T13:34:15	8.8	84
109766	2025-03-12T13:44:15	8.9	84.5
109767	2025-03-12T13:54:15	9	87
109768	2025-03-12T14:04:15	8.9	86
109769	2025-03-12T14:14:15	8.9	86.5
109770	2025-03-12T14:24:15	8.9	86.5
109771	2025-03-12T14:34:15	8.9	87
109772	2025-03-12T14:44:14	9	86.5
109773	2025-03-12T14:54:15	9.1	87
109774	2025-03-12T15:04:14	9.1	86.5
109775	2025-03-12T15:14:14	9.2	87
109776	2025-03-12T15:24:14	9	87
109777	2025-03-12T15:34:14	9.1	86.5
109778	2025-03-12T15:44:14	9.2	87
109779	2025-03-12T15:54:14	9.1	87
109780	2025-03-12T16:04:14	9.3	87
109781	2025-03-12T16:14:14	9.2	87
109782	2025-03-12T16:24:14	9.1	88
109783	2025-03-12T16:34:14	9.1	88.5
109784	2025-03-12T16:44:14	9.1	88.5
109785	2025-03-12T16:54:14	9	88.5
109786	2025-03-12T17:04:14	8.9	89
109787	2025-03-12T17:14:14	8.8	89
109788	2025-03-12T17:24:14	8.8	89
109789	2025-03-12T17:34:14	8.7	89.5
109790	2025-03-12T17:44:14	8.8	89.5
109791	2025-03-12T17:54:14	8.6	89.5
109792	2025-03-12T18:04:14	8.5	89.5
109793	2025-03-12T18:14:14	8.5	89.5
109794	2025-03-12T18:24:14	8.4	88.5
109795	2025-03-12T18:34:14	8.3	89.5
109796	2025-03-12T18:44:14	8.2	90
109797	2025-03-12T18:54:14	8	90
109798	2025-03-12T19:04:14	7.9	90.5
109799	2025-03-12T19:14:14	7.9	90.5
109800	2025-03-12T19:24:14	7.6	90.5
109801	2025-03-12T19:34:14	7.6	91
109802	2025-03-12T19:44:14	7.3	90
109803	2025-03-12T19:54:14	7.2	90.5
109804	2025-03-12T20:04:14	7.1	90
109805	2025-03-12T20:14:14	7	90.5
109806	2025-03-12T20:24:14	7	90.5
109807	2025-03-12T20:34:14	7	90
109808	2025-03-12T20:44:14	7.1	90
109809	2025-03-12T20:54:14	7	88.5
109810	2025-03-12T21:04:14	7	89.5
109811	2025-03-12T21:14:14	7	89.5
109812	2025-03-12T21:24:14	6.9	89.5
109813	2025-03-12T21:34:14	6.7	90
109814	2025-03-12T21:44:14	6.6	90
109815	2025-03-12T21:54:14	6.5	90.5
109816	2025-03-12T22:04:14	6.4	89.5
109817	2025-03-12T22:14:14	6.5	88.5
109818	2025-03-12T22:24:14	6.6	88.5
109819	2025-03-12T22:34:14	6.5	89
109820	2025-03-12T22:44:14	6.5	89
109821	2025-03-12T22:54:14	6.5	89
109822	2025-03-12T23:04:14	6.5	88.5
109823	2025-03-12T23:14:14	6.5	89.5
109824	2025-03-12T23:24:14	6.4	89.5
109825	2025-03-12T23:34:14	6.4	89.5
109826	2025-03-12T23:44:14	6.5	89.5
109827	2025-03-12T23:54:14	6.5	88.5
109828	2025-03-13T00:04:14	6.5	88.5
109829	2025-03-13T00:14:14	6.4	87.5
109830	2025-03-13T00:24:14	6.5	87.5
109831	2025-03-13T00:34:14	6.4	85.5
109832	2025-03-13T00:44:14	6.5	87
109833	2025-03-13T00:54:14	6.4	86.5
109834	2025-03-13T01:04:14	6.1	85.5
109835	2025-03-13T01:14:14	6.1	87.5
109836	2025-03-13T01:24:14	6	88
109837	2025-03-13T01:34:14	6	88.5
109838	2025-03-13T01:44:14	5.9	87.5
109839	2025-03-13T01:54:14	6	88
109840	2025-03-13T02:04:14	6	87.5
109841	2025-03-13T02:14:14	6	87.5
109842	2025-03-13T02:24:14	5.9	88
109843	2025-03-13T02:34:14	5.8	87.5
109844	2025-03-13T02:44:14	5.8	85.5
109845	2025-03-13T02:54:14	5.8	86
109846	2025-03-13T03:04:14	5.9	86
109847	2025-03-13T03:14:14	5.8	87
109848	2025-03-13T03:34:14	5.8	86.5
109849	2025-03-13T03:44:14	5.9	87.5
109850	2025-03-13T03:54:14	5.9	87.5
109851	2025-03-13T04:04:14	5.9	87.5
109852	2025-03-13T04:14:14	5.8	88
109853	2025-03-13T04:24:14	5.5	88
109854	2025-03-13T04:34:14	5.6	88
109855	2025-03-13T04:44:14	5.6	88
109856	2025-03-13T04:54:14	5.6	88.5
109857	2025-03-13T05:04:14	5.5	88
109858	2025-03-13T05:14:14	5.5	88.5
109859	2025-03-13T05:24:14	5.4	89
109860	2025-03-13T05:34:14	5.4	89
109861	2025-03-13T05:44:14	5.5	88.5
109862	2025-03-13T05:54:14	5.5	89
109863	2025-03-13T06:04:14	5.6	89.5
109864	2025-03-13T06:14:14	5.6	89
109865	2025-03-13T06:24:14	5.5	89
109866	2025-03-13T06:34:14	5.6	89
109867	2025-03-13T06:44:14	5.6	89
109868	2025-03-13T06:54:14	5.7	89
109869	2025-03-13T07:04:14	5.7	89.5
109870	2025-03-13T07:14:14	5.9	90
109871	2025-03-13T07:24:14	5.9	90.5
109872	2025-03-13T07:34:14	5.9	90.5
109873	2025-03-13T07:44:14	6	90.5
109874	2025-03-13T07:54:35	6.3	90.5
109875	2025-03-13T08:04:14	6.4	89.5
109876	2025-03-13T08:14:14	6.5	89.5
109877	2025-03-13T08:24:14	6.5	89.5
109878	2025-03-13T08:34:14	6.5	89.5
109879	2025-03-13T08:44:14	6.7	90
109880	2025-03-13T08:54:14	6.7	90
109881	2025-03-13T09:14:14	6.8	90
109882	2025-03-13T09:24:14	6.7	90.5
109883	2025-03-13T09:34:14	6.7	91
109884	2025-03-13T09:44:14	6.7	90.5
109885	2025-03-13T09:54:14	6.6	90.5
109886	2025-03-13T10:04:14	6.8	90.5
109887	2025-03-13T10:14:14	6.9	91.5
109888	2025-03-13T10:24:14	6.7	89.5
109889	2025-03-13T10:34:14	6.7	87
109890	2025-03-13T10:44:14	6.7	87.5
109891	2025-03-13T10:54:14	6.8	87
109892	2025-03-13T11:04:14	6.9	87
109893	2025-03-13T11:14:14	7.1	86.5
109894	2025-03-13T11:24:14	7.3	86.5
109895	2025-03-13T11:34:14	7.2	86.5
109896	2025-03-13T11:44:14	7.2	85
109897	2025-03-13T11:54:14	7.1	85
109898	2025-03-13T12:04:14	7.2	85.5
109899	2025-03-13T12:14:14	7.3	86
109900	2025-03-13T12:24:14	7.5	87
109901	2025-03-13T12:34:14	7.9	86.5
109902	2025-03-13T12:44:14	8.5	85.5
109903	2025-03-13T12:54:14	9.1	81.5
109904	2025-03-13T13:04:14	9.4	80
109905	2025-03-13T13:14:14	9.2	80.5
109906	2025-03-13T13:24:14	8.9	80.5
109907	2025-03-13T13:34:14	9.4	80
109908	2025-03-13T13:44:14	9	80
109909	2025-03-13T13:54:14	8.6	81.5
109910	2025-03-13T14:04:14	8.6	81
109911	2025-03-13T14:14:13	8.6	81.5
109912	2025-03-13T14:24:14	8.6	81.5
109913	2025-03-13T14:34:13	8.6	82.5
109914	2025-03-13T14:44:13	8.7	81
109915	2025-03-13T14:54:13	8.7	80.5
109916	2025-03-13T15:04:13	8.7	81
109917	2025-03-13T15:14:13	8.6	81.5
109918	2025-03-13T15:24:13	8.5	81.5
109919	2025-03-13T15:34:13	8.2	83
109920	2025-03-13T15:44:13	8.2	82.5
109921	2025-03-13T15:54:13	7.8	84
109922	2025-03-13T16:04:13	7.7	83.5
109923	2025-03-13T16:14:13	7.6	86
109924	2025-03-13T16:24:13	7.5	85
109925	2025-03-13T16:34:13	7.6	85.5
109926	2025-03-13T16:44:13	7.6	84.5
109927	2025-03-13T16:54:13	7.5	84.5
109928	2025-03-13T17:04:13	7.2	84
109929	2025-03-13T17:14:13	7	93
109930	2025-03-13T17:24:13	7	89
109931	2025-03-13T17:34:13	7	88.5
109932	2025-03-13T17:44:13	7.2	87
109933	2025-03-13T17:54:13	7	86.5
109934	2025-03-13T18:04:13	7.1	86.5
109935	2025-03-13T18:14:13	6.5	89
109936	2025-03-13T18:24:13	6.3	88.5
109937	2025-03-13T18:34:13	6.4	87
109938	2025-03-13T18:44:13	6.1	87
109939	2025-03-13T18:54:13	5.9	88
109940	2025-03-13T19:04:13	5.6	89
109941	2025-03-13T19:14:13	5.4	92
109942	2025-03-13T19:24:13	5.4	90.5
109943	2025-03-13T19:34:13	5.3	90.5
109944	2025-03-13T19:44:13	5.3	88.5
109945	2025-03-13T19:54:13	5.1	85.5
109946	2025-03-13T20:04:13	5.2	84
109947	2025-03-13T20:14:13	5.2	84
109948	2025-03-13T20:24:13	5.2	84
109949	2025-03-13T20:34:13	5.2	84
109950	2025-03-13T20:44:13	5	82.5
109951	2025-03-13T20:54:13	4.9	82.5
109952	2025-03-13T21:04:13	5	83
109953	2025-03-13T21:14:13	5.1	84.5
109954	2025-03-13T21:24:13	5.1	85
109955	2025-03-13T21:34:13	5.2	84.5
109956	2025-03-13T21:44:13	5.2	84.5
109957	2025-03-13T21:54:13	5.1	84.5
109958	2025-03-13T22:04:13	5	83.5
109959	2025-03-13T22:14:13	5.1	84.5
109960	2025-03-13T22:24:13	5	84
109961	2025-03-13T22:34:13	4.9	83
109962	2025-03-13T22:44:13	4.8	83.5
109963	2025-03-13T22:54:13	4.8	84.5
109964	2025-03-13T23:04:13	4.9	83.5
109965	2025-03-13T23:14:13	4.7	83.5
109966	2025-03-13T23:24:13	4.6	83
109967	2025-03-13T23:34:13	4.5	83.5
109968	2025-03-13T23:44:13	4.5	83.5
109969	2025-03-13T23:54:13	4.5	83.5
109970	2025-03-14T00:04:13	4.4	84.5
109971	2025-03-14T00:14:13	4.3	85
109972	2025-03-14T00:24:13	4.3	85.5
109973	2025-03-14T00:34:13	4.2	86
109974	2025-03-14T00:44:13	4.3	87
109975	2025-03-14T00:54:13	4.1	87.5
109976	2025-03-14T01:04:13	4.1	88
109977	2025-03-14T01:14:13	4	88.5
109978	2025-03-14T01:24:13	4	88.5
109979	2025-03-14T01:34:13	3.9	88.5
109980	2025-03-14T01:44:13	3.9	88.5
109981	2025-03-14T01:54:13	4	88.5
109982	2025-03-14T02:04:13	4	89
109983	2025-03-14T02:14:13	3.9	89
109984	2025-03-14T02:24:13	3.9	89
109985	2025-03-14T02:34:13	3.9	89
109986	2025-03-14T02:44:13	3.9	89
109987	2025-03-14T02:54:13	3.9	89.5
109988	2025-03-14T03:04:13	3.8	88.5
109989	2025-03-14T03:14:13	3.8	88.5
109990	2025-03-14T03:24:13	3.9	88.5
109991	2025-03-14T03:34:13	3.9	88.5
109992	2025-03-14T03:44:13	3.9	88.5
109993	2025-03-14T03:54:13	3.8	89
109994	2025-03-14T04:04:13	3.9	88.5
109995	2025-03-14T04:14:13	3.9	88.5
109996	2025-03-14T04:24:13	3.9	89
109997	2025-03-14T04:34:13	4	89
109998	2025-03-14T04:44:13	3.9	89
109999	2025-03-14T04:54:13	3.8	89
110000	2025-03-14T05:04:13	3.9	89
110001	2025-03-14T05:14:13	4	89
110002	2025-03-14T05:24:13	3.9	88.5
110003	2025-03-14T05:34:13	4	89
110004	2025-03-14T05:44:13	3.9	89
110005	2025-03-14T05:54:13	4.1	88.5
110006	2025-03-14T06:04:13	4	88.5
110007	2025-03-14T06:14:13	4	88.5
110008	2025-03-14T06:24:13	4.1	88
110009	2025-03-14T06:34:13	4.2	88
110010	2025-03-14T06:44:13	4.1	88
110011	2025-03-14T06:54:13	4.2	88.5
110012	2025-03-14T07:04:13	4.3	88
110013	2025-03-14T07:14:13	4.4	87.5
110014	2025-03-14T07:24:13	4.4	87
110015	2025-03-14T07:34:13	4.6	86.5
110016	2025-03-14T07:44:13	4.7	85.5
110017	2025-03-14T07:54:13	4.9	87
110018	2025-03-14T08:04:13	5	87
110019	2025-03-14T08:14:13	5	86.5
110020	2025-03-14T08:24:31	5.1	87
110021	2025-03-14T08:34:13	5.1	86
110022	2025-03-14T08:44:13	5.3	86
110023	2025-03-14T08:54:13	5.5	86
110024	2025-03-14T09:04:13	5.5	84
110025	2025-03-14T09:14:13	5.7	83.5
110026	2025-03-14T09:24:13	5.8	85
110027	2025-03-14T09:34:13	5.9	85
110028	2025-03-14T09:44:13	5.9	85.5
110029	2025-03-14T09:54:13	6.1	85.5
110030	2025-03-14T10:04:13	6.2	84
110031	2025-03-14T10:14:13	6.3	84
110032	2025-03-14T10:24:13	6.3	83.5
110033	2025-03-14T10:34:13	6.5	82
110034	2025-03-14T10:44:13	6.8	82
110035	2025-03-14T10:54:13	6.9	82.5
110036	2025-03-14T11:04:13	6.8	83
110037	2025-03-14T11:14:13	7.1	81
110038	2025-03-14T11:24:13	7.2	81
110039	2025-03-14T11:34:13	7	81.5
110040	2025-03-14T11:44:13	7.1	81.5
110041	2025-03-14T11:54:13	7	81.5
110042	2025-03-14T12:04:13	6.9	80
110043	2025-03-14T12:14:13	7.1	80.5
110044	2025-03-14T12:24:13	7.3	79.5
110045	2025-03-14T12:34:13	7.6	79
110046	2025-03-14T12:44:13	7.6	79
110047	2025-03-14T12:54:13	7.9	78.5
110048	2025-03-14T13:04:13	8	78.5
110049	2025-03-14T13:14:13	9	74.5
110050	2025-03-14T13:24:13	10	73.5
110051	2025-03-14T13:34:13	10.7	68
110052	2025-03-14T13:44:13	10.1	71.5
110053	2025-03-14T13:54:13	9.5	70
110054	2025-03-14T14:04:13	8.9	71.5
110055	2025-03-14T14:14:13	8.4	72
110056	2025-03-14T14:24:13	8.3	74
110057	2025-03-14T14:34:13	8.2	73.5
110058	2025-03-14T14:44:13	8.2	75.5
110059	2025-03-14T14:54:13	8.2	75
110060	2025-03-14T15:04:13	8.2	74.5
110061	2025-03-14T15:14:13	8.2	74.5
110062	2025-03-14T15:24:13	8.2	74.5
110063	2025-03-14T15:34:13	8.2	75.5
110064	2025-03-14T15:44:13	8.2	75
110065	2025-03-14T15:54:13	8.2	76.5
110066	2025-03-14T16:04:13	8.1	77
110067	2025-03-14T16:14:12	8	78
110068	2025-03-14T16:24:12	8	78
110069	2025-03-14T16:34:12	8	79.5
110070	2025-03-14T16:44:12	7.9	80
110071	2025-03-14T16:54:12	7.8	78.5
110072	2025-03-14T17:04:12	7.8	79.5
110073	2025-03-14T17:14:12	7.8	79.5
110074	2025-03-14T17:24:12	7.6	79.5
110075	2025-03-14T17:34:12	7.5	78.5
110076	2025-03-14T17:44:12	7.5	81
110077	2025-03-14T17:54:12	7.6	81
110078	2025-03-14T18:04:12	7.5	82
110079	2025-03-14T18:14:12	7.4	82
110080	2025-03-14T18:24:12	7.4	82.5
110081	2025-03-14T18:34:12	7.4	80
110082	2025-03-14T18:44:12	7.4	81.5
110083	2025-03-14T18:54:12	7.3	81.5
110084	2025-03-14T19:04:12	7.2	81
110085	2025-03-14T19:14:12	7.1	82
110086	2025-03-14T19:24:12	7	82
110087	2025-03-14T19:34:12	7	83
110088	2025-03-14T19:44:12	7	83.5
110089	2025-03-14T19:54:12	6.9	83.5
110090	2025-03-14T20:04:12	6.9	83
110091	2025-03-14T20:14:12	6.8	83
110092	2025-03-14T20:24:12	6.9	83.5
110093	2025-03-14T20:34:12	6.9	84
110094	2025-03-14T20:44:13	6.8	84
110095	2025-03-14T20:54:12	6.8	84
110096	2025-03-14T21:04:12	6.7	84
110097	2025-03-14T21:14:12	6.6	84
110098	2025-03-14T21:24:12	6.2	84
110099	2025-03-14T21:34:12	6.1	85
110100	2025-03-14T21:44:12	5.9	85
110101	2025-03-14T21:54:12	5.8	85
110102	2025-03-14T22:04:12	5.6	85.5
110103	2025-03-14T22:14:12	5.6	86.5
110104	2025-03-14T22:24:12	5.7	86.5
110105	2025-03-14T22:34:12	5.7	86
110106	2025-03-14T22:44:12	5.8	86
110107	2025-03-14T22:54:12	5.8	85.5
110108	2025-03-14T23:04:12	5.5	85.5
110109	2025-03-14T23:14:12	5.3	86.5
110110	2025-03-14T23:24:12	5.4	86
110111	2025-03-14T23:34:12	5.2	86.5
110112	2025-03-14T23:44:12	5.1	86.5
110113	2025-03-14T23:54:12	4.9	86.5
110114	2025-03-15T00:04:12	5	87
110115	2025-03-15T00:14:12	5	85.5
110116	2025-03-15T00:24:12	4.7	87
110117	2025-03-15T00:34:12	4.6	86.5
110118	2025-03-15T00:44:12	4.6	86
110119	2025-03-15T00:54:12	4.6	86.5
110120	2025-03-15T01:04:12	4.6	87
110121	2025-03-15T01:14:12	4.7	86
110122	2025-03-15T01:24:12	4.6	86
110123	2025-03-15T01:34:12	4.7	87
110124	2025-03-15T01:44:12	4.8	87
110125	2025-03-15T01:54:12	4.8	86.5
110126	2025-03-15T02:04:12	4.7	85.5
110127	2025-03-15T02:14:12	4.7	84.5
110128	2025-03-15T02:24:12	4.8	84
110129	2025-03-15T02:34:12	4.9	83
110130	2025-03-15T02:44:12	4.8	82.5
110131	2025-03-15T02:54:12	4.9	83.5
110132	2025-03-15T03:04:12	4.8	83
110133	2025-03-15T03:14:12	4.9	82
110134	2025-03-15T03:24:12	4.9	82
110135	2025-03-15T03:34:12	4.9	82.5
110136	2025-03-15T03:44:12	5	82.5
110137	2025-03-15T03:54:12	4.9	82
110138	2025-03-15T04:04:12	5	82.5
110139	2025-03-15T04:14:12	4.9	82.5
110140	2025-03-15T04:24:12	4.9	81.5
110141	2025-03-15T04:34:12	4.8	81.5
110142	2025-03-15T04:44:12	4.9	81
110143	2025-03-15T04:54:12	4.9	82
110144	2025-03-15T05:04:12	4.8	81
110145	2025-03-15T05:14:12	4.9	81.5
110146	2025-03-15T05:24:12	4.9	82
110147	2025-03-15T05:34:12	4.9	81
110148	2025-03-15T05:44:12	4.9	81.5
110149	2025-03-15T05:54:12	4.9	81.5
110150	2025-03-15T06:04:12	5	81.5
110151	2025-03-15T06:14:12	4.9	81.5
110152	2025-03-15T06:24:12	4.9	81
110153	2025-03-15T06:34:12	5	81.5
110154	2025-03-15T06:44:12	5	81.5
110155	2025-03-15T07:04:12	5.1	81.5
110156	2025-03-15T07:14:12	5.1	81.5
110157	2025-03-15T07:24:12	5.2	81
110158	2025-03-15T07:34:12	5.1	80.5
110159	2025-03-15T07:44:12	5.2	80.5
110160	2025-03-15T07:54:12	5.2	80.5
110161	2025-03-15T08:04:12	5.5	80
110162	2025-03-15T08:14:12	5.7	80.5
110163	2025-03-15T08:24:12	5.7	81
110164	2025-03-15T08:34:12	5.8	81
110165	2025-03-15T08:44:12	5.9	81
110166	2025-03-15T08:54:12	6	79.5
110167	2025-03-15T09:04:12	6.1	80
110168	2025-03-15T09:14:12	6.3	79.5
110169	2025-03-15T09:34:12	6.9	79
110170	2025-03-15T09:44:12	7	77.5
110171	2025-03-15T09:54:12	7.3	78
110172	2025-03-15T10:04:12	7.3	77
110173	2025-03-15T10:14:12	7.5	76
110174	2025-03-15T10:24:12	7.5	76
110175	2025-03-15T10:34:12	7.7	76
110176	2025-03-15T10:44:12	7.6	76
110177	2025-03-15T10:54:12	7.7	76.5
110178	2025-03-15T11:04:12	7.9	75
110179	2025-03-15T11:14:12	7.9	74.5
110180	2025-03-15T11:24:12	8	75
110181	2025-03-15T11:34:12	8.1	75
110182	2025-03-15T11:44:12	8.2	75
110183	2025-03-15T11:54:12	8.3	73.5
110184	2025-03-15T12:04:12	8.3	73.5
110185	2025-03-15T12:14:12	8.5	72.5
110186	2025-03-15T12:24:12	8.8	71.5
110187	2025-03-15T12:34:12	9.2	70
110188	2025-03-15T12:44:12	9.1	70
110189	2025-03-15T12:54:12	9.3	69.5
110190	2025-03-15T13:04:12	9.6	69
110191	2025-03-15T13:14:12	9.7	67.5
110192	2025-03-15T13:24:12	9.9	66
110193	2025-03-15T13:34:12	9.9	67
110194	2025-03-15T13:44:12	9.7	66.5
110195	2025-03-15T13:54:12	9.8	65.5
110196	2025-03-15T14:04:12	9.8	65
110197	2025-03-15T14:14:12	9.9	64.5
110198	2025-03-15T14:24:12	10.1	64
110199	2025-03-15T14:34:12	10.3	65
110200	2025-03-15T14:44:12	10.4	64
110201	2025-03-15T14:54:12	10.6	62.5
110202	2025-03-15T15:04:12	10.8	62.5
110203	2025-03-15T15:14:12	10.6	62
110204	2025-03-15T15:24:12	10.5	63.5
110205	2025-03-15T15:34:12	10.5	63
110206	2025-03-15T15:44:12	10.4	63
110207	2025-03-15T15:54:12	10.2	63.5
110208	2025-03-15T16:04:12	10	64
110209	2025-03-15T16:14:11	9.9	64.5
110210	2025-03-15T16:24:11	9.8	63.5
110211	2025-03-15T16:34:11	9.6	64.5
110212	2025-03-15T16:44:11	9.5	65
110213	2025-03-15T16:54:11	9.4	63.5
110214	2025-03-15T17:04:11	9.2	65
110215	2025-03-15T17:14:11	9.2	65
110216	2025-03-15T17:24:11	9.1	66
110217	2025-03-15T17:34:11	9	65.5
110218	2025-03-15T17:44:11	9	66.5
110219	2025-03-15T17:54:11	9	66.5
110220	2025-03-15T18:04:11	8.9	68.5
110221	2025-03-15T18:14:11	8.9	67
110222	2025-03-15T18:24:11	8.8	67
110223	2025-03-15T18:34:11	8.8	68
110224	2025-03-15T18:44:11	8.7	66.5
110225	2025-03-15T18:54:11	8.7	67
110226	2025-03-15T19:04:11	8.6	69
110227	2025-03-15T19:14:11	8.7	67.5
110228	2025-03-15T19:24:11	8.6	68
110229	2025-03-15T19:44:11	8.5	68.5
110230	2025-03-15T19:54:11	8.6	69.5
110231	2025-03-15T20:04:11	8.5	68.5
110232	2025-03-15T20:14:11	8.4	69.5
110233	2025-03-15T20:24:11	8.5	69
110234	2025-03-15T20:34:11	8.4	69.5
110235	2025-03-15T20:44:11	8.3	70
110236	2025-03-15T20:54:11	8.2	70
110237	2025-03-15T21:04:11	8.3	70.5
110238	2025-03-15T21:14:11	8.2	71
110239	2025-03-15T21:24:11	8.2	72.5
110240	2025-03-15T21:51:29	8.2	71
110241	2025-03-15T21:51:29	8.2	72
110242	2025-03-15T21:54:11	8.2	73
110243	2025-03-15T22:04:11	8.2	72.5
110244	2025-03-15T22:14:11	8.2	73.5
110245	2025-03-15T22:24:11	8.1	73
110246	2025-03-15T23:36:45	8.1	73
110247	2025-03-15T23:36:45	8.1	72.5
110248	2025-03-15T23:36:45	8.1	72
110249	2025-03-15T23:36:47	8	70.5
110250	2025-03-15T23:36:47	8	72.5
110251	2025-03-15T23:36:48	8.1	72.5
110252	2025-03-15T23:36:50	7.9	70
110253	2025-03-15T23:44:11	8	71
110254	2025-03-15T23:54:11	7.9	70
110255	2025-03-16T00:04:11	7.8	71.5
110256	2025-03-16T00:14:11	7.9	70
110257	2025-03-16T00:24:11	7.9	70
110258	2025-03-16T00:34:11	7.8	70
110259	2025-03-16T00:44:11	7.8	70.5
110260	2025-03-16T00:54:11	7.7	70
110261	2025-03-16T01:04:11	7.8	70
110262	2025-03-16T01:14:11	7.7	67.5
110263	2025-03-16T01:24:11	7.7	69.5
110264	2025-03-16T01:34:11	7.7	69.5
110265	2025-03-16T01:44:11	7.6	69
110266	2025-03-16T01:54:11	7.6	69
110267	2025-03-16T02:04:11	7.5	69.5
110268	2025-03-16T02:14:11	7.6	70
110269	2025-03-16T02:24:11	7.5	69.5
110270	2025-03-16T02:34:11	7.5	71.5
110271	2025-03-16T02:44:11	7.4	67.5
110272	2025-03-16T02:54:11	7.3	68
110273	2025-03-16T03:04:11	7.2	69
110274	2025-03-16T03:14:11	7.2	69.5
110275	2025-03-16T03:24:11	7.2	69
110276	2025-03-16T03:34:11	7.1	69
110277	2025-03-16T03:44:11	7.1	68
110278	2025-03-16T03:54:11	7	68.5
110279	2025-03-16T04:04:11	7	68
110280	2025-03-16T04:14:11	6.8	68
110281	2025-03-16T04:24:11	6.8	69
110282	2025-03-16T04:34:11	6.7	70.5
110283	2025-03-16T04:44:11	6.6	69
110284	2025-03-16T04:54:11	6.6	68.5
110285	2025-03-16T05:04:11	6.5	69
110286	2025-03-16T05:14:11	6.5	70
110287	2025-03-16T05:24:11	6.4	68.5
110288	2025-03-16T05:34:11	6.2	69.5
110289	2025-03-16T05:44:11	6.2	70
110290	2025-03-16T05:54:11	6.1	69.5
110291	2025-03-16T06:14:11	6.1	71
110292	2025-03-16T06:24:11	6	70.5
110293	2025-03-16T06:34:11	6	70.5
110294	2025-03-16T06:44:11	6.1	70
110295	2025-03-16T06:54:11	6	70
110296	2025-03-16T07:04:11	6	70
110297	2025-03-16T07:14:11	6	70
110298	2025-03-16T07:24:11	6.1	71.5
110299	2025-03-16T07:34:11	6.1	68.5
110300	2025-03-16T07:44:11	6.2	70
110301	2025-03-16T07:54:11	6.3	69.5
110302	2025-03-16T08:04:11	6.4	69
110303	2025-03-16T08:14:11	6.6	69
110304	2025-03-16T08:19:18	6.9	68.5
110305	2025-03-16T08:29:18	7	68.5
110306	2025-03-16T08:59:18	7.2	68
110307	2025-03-16T09:09:18	7.3	68.5
110308	2025-03-16T09:19:18	7.3	68
110309	2025-03-16T09:29:18	7.4	66.5
110310	2025-03-16T09:39:18	7.5	67.5
110311	2025-03-16T09:49:18	7.8	68
110312	2025-03-16T09:59:18	7.9	67
110313	2025-03-16T10:09:18	8.2	66.5
110314	2025-03-16T10:19:18	8.4	67.5
110315	2025-03-16T10:29:18	8.6	65.5
110316	2025-03-16T10:39:18	8.9	64.5
110317	2025-03-16T10:49:18	8.8	65.5
110318	2025-03-16T10:59:18	9.2	65
110319	2025-03-16T11:09:18	9.6	64
110320	2025-03-16T11:19:18	9.8	63
110321	2025-03-16T11:29:18	9.9	63
110322	2025-03-16T11:39:18	10.1	62.5
110323	2025-03-16T11:49:18	10.2	62
110324	2025-03-16T11:59:18	10.3	62.5
110325	2025-03-16T12:09:18	10.3	62
110326	2025-03-16T12:19:18	10.4	61.5
110327	2025-03-16T12:29:18	10.7	62
110328	2025-03-16T12:39:17	11	60.5
110329	2025-03-16T12:49:17	11.3	60
110330	2025-03-16T12:59:17	11.7	61
110331	2025-03-16T13:09:17	12.1	56.5
110332	2025-03-16T13:19:17	12.6	55
110333	2025-03-16T13:29:17	12.8	54.5
110334	2025-03-16T13:39:17	12.9	54
110335	2025-03-16T13:49:17	13.3	55.5
110336	2025-03-16T13:59:17	14.1	53.5
110337	2025-03-16T14:09:17	13.9	50.5
110338	2025-03-16T14:19:17	13.7	50.5
110339	2025-03-16T14:29:17	13.1	51
110340	2025-03-16T14:39:17	12.7	53
110341	2025-03-16T14:49:17	12.4	52.5
110342	2025-03-16T14:59:17	12.3	52.5
110343	2025-03-16T15:09:17	12.4	52
110344	2025-03-16T15:19:17	12.7	53
110345	2025-03-16T15:29:17	12.7	52.5
110346	2025-03-16T15:39:17	12.4	53.5
110347	2025-03-16T15:49:17	13.4	51
110348	2025-03-16T15:59:17	14.6	48.5
110349	2025-03-16T16:09:17	16.2	43
110350	2025-03-16T16:19:17	13.9	48
110351	2025-03-16T16:29:17	12.6	51.5
110352	2025-03-16T16:39:17	12.5	52.5
110353	2025-03-16T16:49:17	12.9	49.5
110354	2025-03-16T16:59:17	12.3	52.5
110355	2025-03-16T17:09:17	11.7	56
110356	2025-03-16T17:19:17	11.3	57.5
110357	2025-03-16T17:29:17	10.8	60.5
110358	2025-03-16T17:39:17	10.1	62
110359	2025-03-16T17:49:17	10	64.5
110360	2025-03-16T17:59:17	9.5	65
110361	2025-03-16T18:09:17	9.2	66.5
110362	2025-03-16T18:19:17	8.9	66.5
110363	2025-03-16T18:29:17	8.5	67.5
110364	2025-03-16T18:39:17	8	68
110365	2025-03-16T18:49:17	7.6	68.5
110366	2025-03-16T18:59:17	7.4	70
110367	2025-03-16T19:09:17	7.1	70.5
110368	2025-03-16T19:19:17	7.1	71.5
110369	2025-03-16T19:29:17	6.9	71.5
110370	2025-03-16T19:39:17	6.8	72.5
110371	2025-03-16T19:49:17	6.5	72.5
110372	2025-03-16T19:59:17	6.2	72.5
110373	2025-03-16T20:09:17	6	73.5
110374	2025-03-16T20:19:17	5.7	74
110375	2025-03-16T20:29:17	5.3	76
110376	2025-03-16T20:39:17	5.4	76
110377	2025-03-16T20:49:17	5.2	75.5
110378	2025-03-16T20:59:17	5.2	76
110379	2025-03-16T21:09:17	4.9	76
110380	2025-03-16T21:19:17	4.7	77
110381	2025-03-16T21:29:17	4.7	77
110382	2025-03-16T21:39:17	4.6	77.5
110383	2025-03-16T21:49:17	4.4	77
110384	2025-03-16T21:59:17	4.2	77.5
110385	2025-03-16T22:09:17	4.2	77.5
110386	2025-03-16T22:19:17	3.9	78
110387	2025-03-16T22:29:17	3.8	78.5
110388	2025-03-16T22:39:17	3.8	79
110389	2025-03-16T22:49:17	3.5	79.5
110390	2025-03-16T22:59:17	3.4	79
110391	2025-03-16T23:09:17	3.3	79.5
110392	2025-03-16T23:19:17	3.3	79.5
110393	2025-03-16T23:29:17	3	80.5
110394	2025-03-16T23:39:17	3.1	80.5
110395	2025-03-16T23:49:17	3.2	81
110396	2025-03-16T23:59:17	3	81.5
110397	2025-03-17T00:09:17	2.9	81.5
110398	2025-03-17T00:19:17	2.6	82.5
110399	2025-03-17T00:29:17	2.5	82.5
110400	2025-03-17T00:39:17	2.6	82.5
110401	2025-03-17T00:49:17	2.5	82.5
110402	2025-03-17T00:59:17	2.3	83.5
110403	2025-03-17T01:09:17	2.3	83.5
110404	2025-03-17T01:19:17	2.1	83.5
110405	2025-03-17T01:29:17	2	84
110406	2025-03-17T01:39:17	2.1	83.5
110407	2025-03-17T01:49:17	2	84
110408	2025-03-17T01:59:17	1.9	84
110409	2025-03-17T02:09:17	1.8	84
110410	2025-03-17T02:19:17	1.5	84.5
110411	2025-03-17T02:29:17	1.5	85
110412	2025-03-17T02:39:17	1.2	85.5
110413	2025-03-17T02:49:17	1.3	85
110414	2025-03-17T02:59:17	1.3	85
110415	2025-03-17T03:09:17	1.2	85
110416	2025-03-17T03:19:17	1.1	85
110417	2025-03-17T03:29:17	0.9	85.5
110418	2025-03-17T03:39:17	1	85.5
110419	2025-03-17T03:49:17	0.8	86
110420	2025-03-17T03:59:17	0.8	86
110421	2025-03-17T04:09:17	0.7	87
110422	2025-03-17T04:19:17	0.7	87
110423	2025-03-17T04:29:17	0.6	86.5
110424	2025-03-17T04:39:17	0.5	86
110425	2025-03-17T04:49:17	0.4	86.5
110426	2025-03-17T04:59:17	0.4	87.5
110427	2025-03-17T05:09:17	0.3	87
110428	2025-03-17T05:19:17	0.2	87
110429	2025-03-17T05:29:17	0	87
110430	2025-03-17T05:39:17	0.1	88
110431	2025-03-17T05:49:17	0	88
110432	2025-03-17T05:59:17	0.1	88.5
110433	2025-03-17T06:09:17	0.1	88.5
110434	2025-03-17T06:19:17	0.2	88
110435	2025-03-17T06:29:17	0.3	88
110436	2025-03-17T06:39:17	0.5	88
110437	2025-03-17T06:49:17	0.6	88
110438	2025-03-17T06:59:17	0.8	88
110439	2025-03-17T07:09:17	1	88.5
110440	2025-03-17T07:19:17	1.1	88
110441	2025-03-17T07:29:17	1.2	87
110442	2025-03-17T07:39:17	1.4	86.5
110443	2025-03-17T07:49:17	1.8	86
110444	2025-03-17T07:59:17	1.9	85
110445	2025-03-17T08:09:17	2.3	84.5
110446	2025-03-17T08:19:17	2.5	83
110447	2025-03-17T08:29:17	2.7	82.5
110448	2025-03-17T08:39:17	3	81
110449	2025-03-17T08:49:17	3.3	80.5
110450	2025-03-17T08:59:17	3.8	79.5
110451	2025-03-17T09:09:17	3.8	79
110452	2025-03-17T09:19:17	4.2	77.5
110453	2025-03-17T09:29:17	4.4	78
110454	2025-03-17T09:39:17	4.9	77
110455	2025-03-17T09:49:17	5.1	75.5
110456	2025-03-17T09:59:17	5.6	73
110457	2025-03-17T10:09:17	6.3	72.5
110458	2025-03-17T10:19:17	7.1	68.5
110459	2025-03-17T10:29:17	7.9	65
110460	2025-03-17T10:39:17	8.4	62.5
110461	2025-03-17T10:49:17	9.1	60.5
110462	2025-03-17T10:59:17	9.5	60.5
110463	2025-03-17T11:09:17	10	58.5
110464	2025-03-17T11:19:17	10	58.5
110465	2025-03-17T11:29:17	9.8	58
110466	2025-03-17T11:39:17	10	58.5
110467	2025-03-17T11:49:17	9.6	60.5
110468	2025-03-17T11:59:17	10.1	61.5
110469	2025-03-17T12:09:17	10.5	58
110470	2025-03-17T12:19:17	10.2	59.5
110471	2025-03-17T12:29:17	10.5	57
110472	2025-03-17T12:39:17	14.8	46
110473	2025-03-17T12:49:17	13.4	47
110474	2025-03-17T12:59:17	16.1	40
110475	2025-03-17T13:09:17	13.3	40
110476	2025-03-17T13:19:17	12.1	44.5
110477	2025-03-17T13:29:17	13	44.5
110478	2025-03-17T13:39:17	13.4	43
110479	2025-03-17T13:49:17	12.3	45.5
110480	2025-03-17T13:59:17	11.8	49
110481	2025-03-17T14:09:17	12.7	47
110482	2025-03-17T14:19:17	12.1	49
110483	2025-03-17T14:29:17	11.8	48.5
110484	2025-03-17T14:39:17	11.9	47.5
110485	2025-03-17T14:49:16	12.7	45
110486	2025-03-17T14:59:16	16.5	39
110487	2025-03-17T15:09:16	19.2	34.5
110488	2025-03-17T15:19:16	20.3	31
110489	2025-03-17T15:29:16	15.9	37
110490	2025-03-17T15:39:16	14.6	39.5
110491	2025-03-17T15:49:16	13.2	42.5
110492	2025-03-17T15:59:16	16.5	37
110493	2025-03-17T16:09:16	18.2	33.5
110494	2025-03-17T16:19:16	15.7	35
110495	2025-03-17T16:29:16	13.5	40.5
110496	2025-03-17T16:39:16	14.5	38.5
110497	2025-03-17T16:49:16	15.1	38
110498	2025-03-17T16:59:16	13.8	38.5
110499	2025-03-17T17:09:16	12.9	40.5
110500	2025-03-17T17:19:16	12	41.5
110501	2025-03-17T17:29:16	11	44
110502	2025-03-17T17:39:16	10.3	43.5
110503	2025-03-17T17:49:16	9.6	44.5
110504	2025-03-17T17:59:16	9.2	44
110505	2025-03-17T18:09:16	8.9	43.5
110506	2025-03-17T18:19:16	8.6	44.5
110507	2025-03-17T18:29:16	8.3	45.5
110508	2025-03-17T18:39:16	8	46
110509	2025-03-17T18:49:16	7.9	45
110510	2025-03-17T18:59:16	7.6	45.5
110511	2025-03-17T19:09:16	7.4	45.5
110512	2025-03-17T19:19:16	7.1	46
110513	2025-03-17T19:29:16	7	46
110514	2025-03-17T19:39:16	6.7	48
110515	2025-03-17T19:49:16	6.3	48.5
110516	2025-03-17T19:59:16	6.3	47.5
110517	2025-03-17T20:09:16	5.9	48.5
110518	2025-03-17T20:19:16	5.8	48.5
110519	2025-03-17T20:29:16	5.7	48
110520	2025-03-17T20:39:16	5.4	49.5
110521	2025-03-17T20:49:16	5.3	49.5
110522	2025-03-17T20:59:16	5.2	51.5
110523	2025-03-17T21:09:16	5.1	51
110524	2025-03-17T21:19:16	4.9	51.5
110525	2025-03-17T21:29:16	4.8	52
110526	2025-03-17T21:39:16	4.7	52.5
110527	2025-03-17T21:49:16	4.6	53
110528	2025-03-17T21:59:16	4.4	54
110529	2025-03-17T22:09:16	4.3	53
110530	2025-03-17T22:19:16	4	54
110531	2025-03-17T22:29:16	4	55
110532	2025-03-17T22:39:16	3.8	56
110533	2025-03-17T22:49:16	3.6	55.5
110534	2025-03-17T22:59:16	3.5	56.5
110535	2025-03-17T23:09:16	3.4	56.5
110536	2025-03-17T23:19:16	3.4	57.5
110537	2025-03-17T23:29:16	3.2	57
110538	2025-03-17T23:39:16	3.1	55.5
110539	2025-03-17T23:49:16	2.9	56
110540	2025-03-17T23:59:16	2.9	56
110541	2025-03-18T00:09:16	2.8	55.5
110542	2025-03-18T00:19:16	2.7	56
110543	2025-03-18T00:29:16	2.4	56
110544	2025-03-18T00:39:16	2.4	56
110545	2025-03-18T00:49:16	2.3	57
110546	2025-03-18T00:59:16	2.3	58.5
110547	2025-03-18T01:09:16	2.1	58.5
110548	2025-03-18T01:19:16	2.1	57.5
110549	2025-03-18T01:29:16	2.1	58
110550	2025-03-18T01:39:16	2	58.5
110551	2025-03-18T01:49:16	1.9	59
110552	2025-03-18T01:59:16	1.9	58
110553	2025-03-18T02:09:16	1.8	59
110554	2025-03-18T02:19:16	1.8	58.5
110555	2025-03-18T02:29:16	1.7	57.5
110556	2025-03-18T02:39:16	1.5	59
110557	2025-03-18T02:49:16	1.4	59
110558	2025-03-18T02:59:16	1.3	59
110559	2025-03-18T03:09:16	1.2	59
110560	2025-03-18T03:19:16	1.1	59.5
110561	2025-03-18T03:29:16	1	60
110562	2025-03-18T03:39:16	1	60.5
110563	2025-03-18T03:49:16	0.9	60
110564	2025-03-18T03:59:16	0.6	62
110565	2025-03-18T04:09:16	0.6	62
110566	2025-03-18T04:19:16	0.6	62
110567	2025-03-18T04:29:16	0.4	62
110568	2025-03-18T04:39:16	0.3	62.5
110569	2025-03-18T04:49:16	0.3	62.5
110570	2025-03-18T04:59:16	0.2	62.5
110571	2025-03-18T05:09:16	0.1	62.5
110572	2025-03-18T05:19:16	0.1	62
110573	2025-03-18T05:29:16	0.1	62
110574	2025-03-18T05:39:16	0.1	62
110575	2025-03-18T05:49:16	0.1	62
110576	2025-03-18T05:59:16	0.1	61.5
110577	2025-03-18T06:09:16	0.1	61.5
110578	2025-03-18T06:19:16	0.2	61.5
110579	2025-03-18T06:29:16	0.3	61
110580	2025-03-18T06:39:16	0.5	60
110581	2025-03-18T06:49:16	0.7	60
110582	2025-03-18T06:59:16	0.7	59
110583	2025-03-18T07:09:16	1	59
110584	2025-03-18T07:19:16	1.2	59
110585	2025-03-18T07:29:16	1.5	56
110586	2025-03-18T07:39:16	1.6	55.5
110587	2025-03-18T07:49:16	2	52.5
110588	2025-03-18T07:59:16	2.2	52.5
110589	2025-03-18T08:09:16	2.3	52
110590	2025-03-18T08:19:16	2.6	49.5
110591	2025-03-18T08:29:16	2.9	50.5
110592	2025-03-18T08:39:16	3	49.5
110593	2025-03-18T08:49:16	3.4	49.5
110594	2025-03-18T08:59:16	3.6	48
110595	2025-03-18T09:09:16	3.7	47.5
110596	2025-03-18T09:19:16	4	46.5
110597	2025-03-18T09:29:16	4.2	48.5
110598	2025-03-18T09:39:16	4.5	45.5
110599	2025-03-18T09:49:16	4.8	44.5
110600	2025-03-18T09:59:16	5	42.5
110601	2025-03-18T10:09:16	5.4	42.5
110602	2025-03-18T10:19:16	5.5	46
110603	2025-03-18T10:29:16	5.6	45
110604	2025-03-18T10:39:16	6.1	44.5
110605	2025-03-18T10:49:16	6.1	43.5
110606	2025-03-18T10:59:16	6.4	42.5
110607	2025-03-18T11:09:16	6.7	41.5
110608	2025-03-18T11:19:16	7	41.5
110609	2025-03-18T11:29:16	7.3	41.5
110610	2025-03-18T11:39:16	7.7	40
110611	2025-03-18T11:49:16	7.8	40
110612	2025-03-18T11:59:16	8.3	40.5
110613	2025-03-18T12:09:16	8.7	39
110614	2025-03-18T12:19:16	9.5	39
110615	2025-03-18T12:29:16	16.9	29
110616	2025-03-18T12:39:16	19.9	24.5
110617	2025-03-18T12:49:16	21.7	22.5
110618	2025-03-18T12:59:16	22.9	20.5
110619	2025-03-18T13:09:16	24.3	20
110620	2025-03-18T13:19:16	24.8	18.5
110621	2025-03-18T13:29:16	24.9	18.5
110622	2025-03-18T13:39:16	25.6	17.5
110623	2025-03-18T13:49:16	25.6	18
110624	2025-03-18T13:59:16	25.8	17
110625	2025-03-18T14:09:16	26.6	17.5
110626	2025-03-18T14:19:16	27	18
110627	2025-03-18T14:29:16	27	16
110628	2025-03-18T14:39:16	27.2	16.5
110629	2025-03-18T14:49:16	27.9	17
110630	2025-03-18T14:59:16	28.2	17
110631	2025-03-18T15:09:16	27.6	16.5
110632	2025-03-18T15:19:16	27.9	16
110633	2025-03-18T15:29:16	27.7	16.5
110634	2025-03-18T15:39:16	28	16
110635	2025-03-18T15:49:15	28	17
110636	2025-03-18T15:59:15	27.6	16.5
110637	2025-03-18T16:09:15	26.8	17
110638	2025-03-18T16:19:15	26.4	18
110639	2025-03-18T16:29:15	26.1	18
110640	2025-03-18T16:39:15	25.1	18.5
110641	2025-03-18T16:49:15	22.4	18.5
110642	2025-03-18T16:59:15	21.2	20
110643	2025-03-18T17:09:15	19.9	21.5
110644	2025-03-18T17:19:15	18.9	23
110645	2025-03-18T17:29:15	17.6	24
110646	2025-03-18T17:39:15	16.5	24.5
110647	2025-03-18T17:49:15	15.4	25
110648	2025-03-18T17:59:15	14.8	26
110649	2025-03-18T18:09:15	14.1	29.5
110650	2025-03-18T18:19:15	13.7	28.5
110651	2025-03-18T18:29:15	13.4	29.5
110652	2025-03-18T18:39:15	13	30.5
110653	2025-03-18T18:49:15	12.5	32
110654	2025-03-18T18:59:15	12	32.5
110655	2025-03-18T19:09:15	11.8	32.5
110656	2025-03-18T19:19:15	11.5	33
110657	2025-03-18T19:29:15	11	33
110658	2025-03-18T19:39:15	10.7	34.5
110659	2025-03-18T19:49:15	10.5	35
110660	2025-03-18T19:59:15	10	35.5
110661	2025-03-18T20:09:15	9.9	35
110662	2025-03-18T20:19:15	9.7	36.5
110663	2025-03-18T20:29:15	9.4	37
110664	2025-03-18T20:39:15	9.1	38
110665	2025-03-18T20:49:15	8.9	38.5
110666	2025-03-18T20:59:15	8.7	39
110667	2025-03-18T21:09:15	8.5	39.5
110668	2025-03-18T21:19:15	8.3	40
110669	2025-03-18T21:29:15	7.6	42
110670	2025-03-18T21:39:15	7.5	44
110671	2025-03-18T21:49:15	7.4	43.5
110672	2025-03-18T21:59:15	7.2	45
110673	2025-03-18T22:09:15	7.1	45.5
110674	2025-03-18T22:19:15	7	45.5
110675	2025-03-18T22:29:15	6.9	46.5
110676	2025-03-18T22:39:15	6.7	47
110677	2025-03-18T22:49:15	6.4	47.5
110678	2025-03-18T22:59:15	6.2	48
110679	2025-03-18T23:09:15	6.2	46.5
110680	2025-03-18T23:19:15	6.1	47.5
110681	2025-03-18T23:29:15	5.9	47
110682	2025-03-18T23:39:15	5.8	47
110683	2025-03-18T23:49:15	5.7	47.5
110684	2025-03-18T23:59:15	5.6	49.5
110685	2025-03-19T00:09:15	5.2	51.5
110686	2025-03-19T00:19:15	5.2	52.5
110687	2025-03-19T00:29:15	4.9	53
110688	2025-03-19T00:39:15	4.6	54
110689	2025-03-19T00:49:15	4.6	54.5
110690	2025-03-19T00:59:15	4.4	55.5
110691	2025-03-19T01:09:15	4	57
110692	2025-03-19T01:19:15	3.9	58
110693	2025-03-19T01:29:15	3.7	58.5
110694	2025-03-19T01:39:15	3.6	60
110695	2025-03-19T01:49:15	3.5	60.5
110696	2025-03-19T01:59:15	3.2	61
110697	2025-03-19T02:09:15	2.9	61.5
110698	2025-03-19T02:19:15	2.9	62
110699	2025-03-19T02:29:15	2.7	62.5
110700	2025-03-19T02:39:15	2.5	63
110701	2025-03-19T02:49:15	2.5	64
110702	2025-03-19T02:59:15	2.4	64.5
110703	2025-03-19T03:09:15	2.1	64.5
110704	2025-03-19T03:19:15	2	65
110705	2025-03-19T03:29:15	1.9	66
110706	2025-03-19T03:39:15	1.9	65
110707	2025-03-19T03:49:15	0.9	69
110708	2025-03-19T03:59:15	0.7	70.5
110709	2025-03-19T04:09:15	0.8	70.5
110710	2025-03-19T04:19:15	0.8	70.5
110711	2025-03-19T04:29:15	1	71
110712	2025-03-19T04:39:15	1	70.5
110713	2025-03-19T04:49:15	0.8	71.5
110714	2025-03-19T04:59:15	0.7	71
110715	2025-03-19T05:09:15	0.7	71
110716	2025-03-19T05:19:15	0.5	71.5
110717	2025-03-19T05:29:15	0.3	72.5
110718	2025-03-19T05:39:15	0.2	73
110719	2025-03-19T05:49:15	0.2	73
110720	2025-03-19T05:59:15	0.2	73.5
110721	2025-03-19T06:09:15	0.1	73
110722	2025-03-19T06:19:15	0.1	73.5
110723	2025-03-19T06:29:15	0.3	73.5
110724	2025-03-19T06:39:15	0.4	73.5
110725	2025-03-19T06:49:15	0.6	74
110726	2025-03-19T06:59:15	0.8	74
110727	2025-03-19T07:09:15	1	73.5
110728	2025-03-19T07:19:15	1.2	73
110729	2025-03-19T07:29:15	1.5	72
110730	2025-03-19T07:39:15	1.7	69
110731	2025-03-19T07:49:15	1.9	68.5
110732	2025-03-19T07:59:15	2.1	68.5
110733	2025-03-19T08:09:15	2.3	69
110734	2025-03-19T08:19:15	2.5	69
110735	2025-03-19T08:29:15	2.8	68
110736	2025-03-19T08:39:15	3	67.5
110737	2025-03-19T08:49:15	3.2	65.5
110738	2025-03-19T08:59:15	3.5	64.5
110739	2025-03-19T09:09:15	3.8	64.5
110740	2025-03-19T09:19:15	4	63.5
110741	2025-03-19T09:29:15	4.6	62
110742	2025-03-19T09:39:15	4.8	59.5
110743	2025-03-19T09:49:15	5.2	58
110744	2025-03-19T09:59:15	5.3	58.5
110745	2025-03-19T10:09:15	5.6	58.5
110746	2025-03-19T10:19:15	5.7	60.5
110747	2025-03-19T10:29:15	6.1	57.5
110748	2025-03-19T10:39:15	6.6	57.5
110749	2025-03-19T10:49:15	6.8	57
110750	2025-03-19T10:59:15	7.1	56.5
110751	2025-03-19T11:09:15	7.5	55.5
110752	2025-03-19T11:19:15	7.8	56.5
110753	2025-03-19T11:29:15	8.2	56
110754	2025-03-19T11:39:15	8.7	54.5
110755	2025-03-19T11:49:15	9.1	53
110756	2025-03-19T11:59:15	9.7	50
110757	2025-03-19T12:09:15	10.3	48.5
110758	2025-03-19T12:19:15	11	47.5
110759	2025-03-19T12:29:15	19.1	35.5
110760	2025-03-19T12:39:15	23.3	29
110761	2025-03-19T12:49:15	24.9	25.5
110762	2025-03-19T12:59:15	26.5	23.5
110763	2025-03-19T13:09:15	26.3	23
110764	2025-03-19T13:19:15	28.2	22
110765	2025-03-19T13:29:15	29.4	19.5
110766	2025-03-19T13:39:15	29.9	20
110767	2025-03-19T13:49:15	30.4	18.5
110768	2025-03-19T13:59:15	31.4	17.5
110769	2025-03-19T14:09:15	31.9	16.5
110770	2025-03-19T14:19:15	31.7	17
110771	2025-03-19T14:29:14	31.4	18.5
110772	2025-03-19T14:39:14	30.8	17.5
110773	2025-03-19T14:49:14	31	18
110774	2025-03-19T14:59:14	32.1	17.5
110775	2025-03-19T15:09:14	32.6	17
110776	2025-03-19T15:19:14	32.1	16.5
110777	2025-03-19T15:29:14	32.6	17
110778	2025-03-19T15:39:14	32.9	17.5
110779	2025-03-19T15:49:14	32.4	16.5
110780	2025-03-19T15:59:14	32	18
110781	2025-03-19T16:09:14	31.5	17.5
110782	2025-03-19T16:19:14	30.5	18.5
110783	2025-03-19T16:29:14	29.7	19
110784	2025-03-19T16:39:14	28.5	20
110785	2025-03-19T16:49:14	27.2	21
110786	2025-03-19T16:59:14	26.3	22
110787	2025-03-19T17:09:14	25	23.5
110788	2025-03-19T17:19:14	23.8	25
110789	2025-03-19T17:29:14	22.5	26
110790	2025-03-19T17:39:14	21.2	32
110791	2025-03-19T17:49:14	20.2	35
110792	2025-03-19T17:59:14	19.3	36.5
110793	2025-03-19T18:09:14	18.3	36
110794	2025-03-19T18:19:14	17.8	37.5
110795	2025-03-19T18:29:14	17	38
110796	2025-03-19T18:39:14	16.5	39.5
110797	2025-03-19T18:49:14	16	38.5
110798	2025-03-19T18:59:14	15.7	38.5
110799	2025-03-19T19:09:14	15.3	39
110800	2025-03-19T19:19:14	14.3	40
110801	2025-03-19T19:29:14	13.7	41.5
110802	2025-03-19T19:39:14	13.7	42.5
110803	2025-03-19T19:49:14	13.4	43.5
110804	2025-03-19T19:59:14	13	44
110805	2025-03-19T20:09:14	12.7	45
110806	2025-03-19T20:19:14	12.3	46
110807	2025-03-19T20:29:14	11.9	47
110808	2025-03-19T20:39:14	11.6	48
110809	2025-03-19T20:49:14	11.5	49
110810	2025-03-19T20:59:14	11.2	50
110811	2025-03-19T21:09:14	10.8	50.5
110812	2025-03-19T21:19:14	10.6	51
110813	2025-03-19T21:29:14	10.4	51.5
110814	2025-03-19T21:39:14	10.1	52.5
110815	2025-03-19T21:49:14	9.8	53
110816	2025-03-19T21:59:14	9.6	54.5
110817	2025-03-19T22:09:14	9.3	54.5
110818	2025-03-19T22:19:14	9.1	56
110819	2025-03-19T22:29:14	8.9	56
110820	2025-03-19T22:39:14	8.7	57
110821	2025-03-19T22:49:14	8.4	58
110822	2025-03-19T22:59:14	8.2	58.5
110823	2025-03-19T23:09:14	8.1	59
110824	2025-03-19T23:19:14	7.7	59.5
110825	2025-03-19T23:29:14	7.5	60
110826	2025-03-19T23:39:14	7.5	60
110827	2025-03-19T23:49:14	7.3	61
110828	2025-03-19T23:59:14	7.2	62
110829	2025-03-20T00:09:14	6.7	62.5
110830	2025-03-20T00:19:14	6.7	63
110831	2025-03-20T00:29:14	6.5	63
110832	2025-03-20T00:39:14	6.5	64
110833	2025-03-20T00:49:14	6.4	63.5
110834	2025-03-20T00:59:14	6.3	64.5
110835	2025-03-20T01:09:14	5.6	66
110836	2025-03-20T01:19:14	5.6	67
110837	2025-03-20T01:29:14	5.5	67
110838	2025-03-20T01:39:14	5.4	67.5
110839	2025-03-20T01:49:14	5.3	67.5
110840	2025-03-20T01:59:14	5	68.5
110841	2025-03-20T02:09:14	4.8	69
110842	2025-03-20T02:19:14	4.7	69
110843	2025-03-20T02:29:14	4.8	68.5
110844	2025-03-20T02:39:14	4.6	69
110845	2025-03-20T02:49:14	4.6	69
110846	2025-03-20T02:59:14	4.4	70
110847	2025-03-20T03:09:14	4.4	70
110848	2025-03-20T03:19:14	4.4	71
110849	2025-03-20T03:29:14	4.3	71
110850	2025-03-20T03:39:14	4	71
110851	2025-03-20T03:49:14	4.2	71.5
110852	2025-03-20T03:59:14	4.2	70.5
110853	2025-03-20T04:09:14	4.4	71.5
110854	2025-03-20T04:19:14	4.4	71.5
110855	2025-03-20T04:29:14	4.5	72.5
110856	2025-03-20T04:39:14	4.6	72.5
110857	2025-03-20T04:49:14	4.5	73
110858	2025-03-20T04:59:14	4.6	73.5
110859	2025-03-20T05:09:14	4.6	73.5
110860	2025-03-20T05:19:14	4.7	73
110861	2025-03-20T05:29:14	4.7	73.5
110862	2025-03-20T05:39:14	4.6	74
110863	2025-03-20T05:49:14	4.8	75
110864	2025-03-20T05:59:14	4.9	75.5
110865	2025-03-20T06:09:14	4.8	76
110866	2025-03-20T06:19:14	4.9	76
110867	2025-03-20T06:29:14	5.2	75.5
110868	2025-03-20T06:39:14	5.4	76
110869	2025-03-20T06:49:14	5.3	75.5
110870	2025-03-20T06:59:14	5.3	76.5
110871	2025-03-20T07:09:14	5.1	78.5
110872	2025-03-20T07:19:14	5.1	78.5
110873	2025-03-20T07:29:14	5.3	77
110874	2025-03-20T07:39:14	5.6	76.5
110875	2025-03-20T07:49:14	5.9	76.5
110876	2025-03-20T07:59:14	6.3	74
110877	2025-03-20T08:09:14	7	73.5
110878	2025-03-20T08:19:13	7.4	72
110879	2025-03-20T08:29:14	7.8	70
110880	2025-03-20T08:39:13	8.2	68.5
110881	2025-03-20T08:49:13	8.5	68
110882	2025-03-20T08:59:13	8.7	68
110883	2025-03-20T09:09:13	8.9	66.5
110884	2025-03-20T09:19:13	9.3	65
110885	2025-03-20T09:29:13	9.5	66.5
110886	2025-03-20T09:39:13	9.8	62
110887	2025-03-20T09:49:13	10	64
110888	2025-03-20T09:59:13	10.2	62.5
110889	2025-03-20T10:09:13	10.6	63
110890	2025-03-20T10:19:13	10.7	63
110891	2025-03-20T10:29:13	10.7	63.5
110892	2025-03-20T10:39:13	10.9	63
110893	2025-03-20T10:49:13	11.2	61.5
110894	2025-03-20T10:59:13	11.6	58.5
110895	2025-03-20T11:09:13	12.1	57
110896	2025-03-20T11:19:13	12.6	53
110897	2025-03-20T11:29:13	12.9	56
110898	2025-03-20T11:39:13	13.4	54.5
110899	2025-03-20T11:49:13	14	52.5
110900	2025-03-20T11:59:13	14.5	51.5
110901	2025-03-20T12:09:13	15.5	49
110902	2025-03-20T12:19:13	16.5	46.5
110903	2025-03-20T12:29:13	21.7	38.5
110904	2025-03-20T12:39:13	21.5	38
110905	2025-03-20T12:49:13	22.2	33.5
110906	2025-03-20T12:59:13	23.1	33
110907	2025-03-20T13:09:13	24.2	31.5
110908	2025-03-20T13:19:13	25.6	30.5
110909	2025-03-20T13:29:13	28.2	27.5
110910	2025-03-20T13:39:13	30.8	26
110911	2025-03-20T13:49:13	31.5	24
110912	2025-03-20T13:59:13	32.7	23.5
110913	2025-03-20T14:09:13	33.4	22
110914	2025-03-20T14:19:13	33	21.5
110915	2025-03-20T14:29:13	32	21
110916	2025-03-20T14:39:13	31.4	22.5
110917	2025-03-20T14:49:13	31.2	20.5
110918	2025-03-20T14:59:13	31.8	21.5
110919	2025-03-20T15:09:13	31.3	20.5
110920	2025-03-20T15:19:13	31.6	20.5
110921	2025-03-20T15:29:13	32.6	20
110922	2025-03-20T15:39:13	31.7	19.5
110923	2025-03-20T15:49:13	32.8	20
110924	2025-03-20T15:59:13	32.7	19.5
110925	2025-03-20T16:09:13	32	20.5
110926	2025-03-20T16:19:13	31.4	20.5
110927	2025-03-20T16:29:13	31.5	21.5
110928	2025-03-20T16:39:13	30.1	22
110929	2025-03-20T16:49:13	28.9	24
110930	2025-03-20T16:59:13	27.6	26
110931	2025-03-20T17:09:13	26.2	27
110932	2025-03-20T17:19:13	25.1	29.5
110933	2025-03-20T17:29:13	23.9	35.5
110934	2025-03-20T17:39:13	23	38
110935	2025-03-20T17:49:13	22.1	38
110936	2025-03-20T17:59:13	21.3	39
110937	2025-03-20T18:09:13	20.7	40.5
110938	2025-03-20T18:19:13	20.1	42.5
110939	2025-03-20T18:29:13	19.7	43.5
110940	2025-03-20T18:39:13	19.2	44
110941	2025-03-20T18:49:13	18.9	44
110942	2025-03-20T18:59:13	18.2	45.5
110943	2025-03-20T19:09:13	17.9	47
110944	2025-03-20T19:19:13	17.6	47
110945	2025-03-20T19:29:13	17.1	47.5
110946	2025-03-20T19:39:13	16.8	48.5
110947	2025-03-20T19:49:13	16.1	48.5
110948	2025-03-20T19:59:13	15.8	49.5
110949	2025-03-20T20:09:13	15.8	48.5
110950	2025-03-20T20:19:12	15.6	50
110951	2025-03-20T20:29:12	15.4	51
110952	2025-03-20T20:39:12	14.9	52
110953	2025-03-20T20:49:12	14.5	54
110954	2025-03-20T20:59:13	14.3	54.5
110955	2025-03-20T21:09:12	14.1	55
110956	2025-03-20T21:19:12	14	55
110957	2025-03-20T21:29:12	13.7	55.5
110958	2025-03-20T21:39:12	13.4	56.5
110959	2025-03-20T21:49:12	13.3	57.5
110960	2025-03-20T21:59:12	13	58
110961	2025-03-20T22:09:12	12.9	58
110962	2025-03-20T22:19:12	12.6	58.5
110963	2025-03-20T22:29:12	12.7	59
110964	2025-03-20T22:39:12	12.4	59
110965	2025-03-20T22:49:12	12	60
110966	2025-03-20T22:59:12	11.8	60.5
110967	2025-03-20T23:19:12	11.4	61.5
110968	2025-03-20T23:29:12	11.2	62.5
110969	2025-03-20T23:39:12	10.8	63.5
110970	2025-03-20T23:49:12	10.8	63.5
110971	2025-03-20T23:59:12	10.7	64
110972	2025-03-21T00:09:12	10.5	64.5
110973	2025-03-21T00:19:12	10.2	65
110974	2025-03-21T00:29:12	10.1	65
110975	2025-03-21T00:39:12	9.8	65.5
110976	2025-03-21T00:49:12	9.6	66
110977	2025-03-21T00:59:12	9.5	67
110978	2025-03-21T01:09:12	9.4	67
110979	2025-03-21T01:19:12	9.3	68
110980	2025-03-21T01:29:12	9.1	68.5
110981	2025-03-21T01:39:12	9	68.5
110982	2025-03-21T01:49:12	8.9	68.5
110983	2025-03-21T01:59:12	8.7	68.5
110984	2025-03-21T02:09:12	8.5	69.5
110985	2025-03-21T02:19:12	8.4	69.5
110986	2025-03-21T02:29:12	8.1	70.5
110987	2025-03-21T02:39:12	8.1	72
110988	2025-03-21T02:49:12	8	71
110989	2025-03-21T02:59:12	7.9	71.5
110990	2025-03-21T03:09:12	7.7	72
110991	2025-03-21T03:19:12	7.6	72.5
110992	2025-03-21T03:29:12	7.5	73
110993	2025-03-21T03:39:12	7.4	73
110994	2025-03-21T03:49:12	7.2	73
110995	2025-03-21T03:59:12	7.3	73.5
110996	2025-03-21T04:09:12	7.4	73
110997	2025-03-21T04:19:12	7.4	73.5
110998	2025-03-21T04:29:12	7.2	74
110999	2025-03-21T04:39:12	7	74.5
111000	2025-03-21T04:49:12	7	75.5
111001	2025-03-21T04:59:12	6.5	76.5
111002	2025-03-21T05:09:12	6.5	76
111003	2025-03-21T05:19:12	6.4	76
111004	2025-03-21T05:29:12	6.4	76
111005	2025-03-21T05:39:12	6.2	76.5
111006	2025-03-21T05:49:12	6.1	76.5
111007	2025-03-21T05:59:12	6.2	76.5
111008	2025-03-21T06:09:12	6.1	76.5
111009	2025-03-21T06:19:12	6.4	76.5
111010	2025-03-21T06:29:12	6.4	77.5
111011	2025-03-21T06:39:12	6.6	77.5
111012	2025-03-21T06:49:12	6.9	77.5
111013	2025-03-21T06:59:12	7.1	78.5
111014	2025-03-21T07:09:12	7.4	77.5
111015	2025-03-21T07:19:12	7.7	78
111016	2025-03-21T07:29:12	7.9	78
111017	2025-03-21T07:39:12	8.2	78.5
111018	2025-03-21T07:49:12	8.4	77
111019	2025-03-21T07:59:12	8.7	77.5
111020	2025-03-21T08:09:12	9.1	76.5
111021	2025-03-21T08:19:12	9.3	76
111022	2025-03-21T08:29:12	9.6	75.5
111023	2025-03-21T08:39:12	10	74.5
111024	2025-03-21T08:49:12	10.3	73
111025	2025-03-21T08:59:12	10.6	72
111026	2025-03-21T09:09:12	11.1	70.5
111027	2025-03-21T09:19:12	11.4	68.5
111028	2025-03-21T09:29:12	11.9	64.5
111029	2025-03-21T09:39:12	12.4	63.5
111030	2025-03-21T09:49:12	12.8	66
111031	2025-03-21T09:59:12	13.2	65
111032	2025-03-21T10:09:12	13.6	63.5
111033	2025-03-21T10:19:12	14.2	62
111034	2025-03-21T10:29:12	14.5	60.5
111035	2025-03-21T10:39:12	15.1	60.5
111036	2025-03-21T10:49:12	15.4	59.5
111037	2025-03-21T10:59:12	15.8	60.5
111038	2025-03-21T11:09:12	16.4	55
111039	2025-03-21T11:19:12	17	52.5
111040	2025-03-21T11:29:12	18	49.5
111041	2025-03-21T11:39:12	18.7	47.5
111042	2025-03-21T11:49:12	19.3	46
111043	2025-03-21T11:59:12	20	42.5
111044	2025-03-21T12:09:12	20.7	43
111045	2025-03-21T12:19:12	21.7	38
111046	2025-03-21T12:29:12	26	29.5
111047	2025-03-21T12:39:11	28.1	28
111048	2025-03-21T12:49:11	29.6	25.5
111049	2025-03-21T12:59:12	30.5	23.5
111050	2025-03-21T13:09:11	32.3	23.5
111051	2025-03-21T13:19:11	32	23.5
111052	2025-03-21T13:29:11	32.1	23
111053	2025-03-21T13:39:11	31.1	23
111054	2025-03-21T13:49:11	31.3	23
111055	2025-03-21T13:59:11	31.4	23
111056	2025-03-21T14:09:11	30.1	23.5
111057	2025-03-21T14:19:11	29.8	25.5
111058	2025-03-21T14:29:11	28.9	26
111059	2025-03-21T14:39:11	27.9	25
111060	2025-03-21T14:49:11	27.7	27
111061	2025-03-21T14:59:11	27	26.5
111062	2025-03-21T15:09:11	26.6	27
111063	2025-03-21T15:19:11	26.7	28.5
111064	2025-03-21T15:29:11	26.4	26.5
111065	2025-03-21T15:39:11	25.8	27
111066	2025-03-21T15:49:11	25.1	28
111067	2025-03-21T15:59:11	24.7	29.5
111068	2025-03-21T16:09:11	24.1	29.5
111069	2025-03-21T16:19:11	23.6	31.5
111070	2025-03-21T16:29:11	23.1	31.5
111071	2025-03-21T16:39:11	22.6	31.5
111072	2025-03-21T16:49:11	22.4	32
111073	2025-03-21T16:59:11	21.9	33
111074	2025-03-21T17:09:11	21.7	33.5
111075	2025-03-21T17:19:11	21.4	34
111076	2025-03-21T17:29:11	21.1	34.5
111077	2025-03-21T17:39:11	20.6	35.5
111078	2025-03-21T17:49:11	20.4	36
111079	2025-03-21T17:59:11	20.2	36.5
111080	2025-03-21T18:09:11	20	37
111081	2025-03-21T18:19:11	19.8	37
111082	2025-03-21T18:29:11	19.7	37.5
111083	2025-03-21T18:39:11	19.5	37.5
111084	2025-03-21T18:49:11	19.4	38
111085	2025-03-21T18:59:11	19.4	38
111086	2025-03-21T19:09:11	19.3	38
111087	2025-03-21T19:19:11	19.1	38
111088	2025-03-21T19:29:11	18.9	38
111089	2025-03-21T19:39:11	18.8	38.5
111090	2025-03-21T19:49:11	18.7	39
111091	2025-03-21T19:59:11	18.5	39
111092	2025-03-21T20:09:11	18.4	39.5
111093	2025-03-21T20:19:11	18.2	39.5
111094	2025-03-21T20:29:11	18.1	40
111095	2025-03-21T20:39:11	17.9	40.5
111096	2025-03-21T20:49:11	17.8	40.5
111097	2025-03-21T20:59:11	17.6	41.5
111098	2025-03-21T21:09:11	17.4	42
111099	2025-03-21T21:19:11	17.2	43
111100	2025-03-21T21:29:11	17.1	43.5
111101	2025-03-21T21:39:11	17	43.5
111102	2025-03-21T21:49:11	16.7	45
111103	2025-03-21T21:59:11	16.5	45.5
111104	2025-03-21T22:09:11	16.2	46
111105	2025-03-21T22:19:11	16.1	47
111106	2025-03-21T22:29:11	16	47
111107	2025-03-21T22:39:11	15.8	47.5
111108	2025-03-21T22:49:11	15.9	48
111109	2025-03-21T22:59:11	15.7	48
111110	2025-03-21T23:09:11	15.7	48
111111	2025-03-21T23:19:11	15.5	49
111112	2025-03-21T23:29:10	15.5	49.5
111113	2025-03-21T23:39:10	15.3	50
111114	2025-03-21T23:49:10	15.3	50.5
111115	2025-03-21T23:59:10	15.1	50.5
111116	2025-03-22T00:09:10	15.1	50
111117	2025-03-22T00:19:10	15.1	50
111118	2025-03-22T00:29:10	15	50.5
111119	2025-03-22T00:39:10	14.9	50.5
111120	2025-03-22T00:49:10	14.8	50.5
111121	2025-03-22T00:59:10	14.9	51.5
111122	2025-03-22T01:09:10	14.7	51
111123	2025-03-22T01:19:10	14.5	51.5
111124	2025-03-22T01:29:10	14.7	53
111125	2025-03-22T01:39:10	14.7	51.5
111126	2025-03-22T01:49:10	14.4	52
111127	2025-03-22T01:59:10	14.5	52.5
111128	2025-03-22T02:09:10	14.5	53.5
111129	2025-03-22T02:19:11	14.3	53.5
111130	2025-03-22T02:29:10	14.3	54
111131	2025-03-22T02:39:10	14.2	54
111132	2025-03-22T02:49:10	13.6	58
111133	2025-03-22T02:59:10	13.5	57.5
111134	2025-03-22T03:09:10	13.5	57.5
111135	2025-03-22T03:19:10	13.4	58
111136	2025-03-22T03:29:10	13.1	59.5
111137	2025-03-22T03:39:10	12.8	60
111138	2025-03-22T03:49:10	12.8	60
111139	2025-03-22T03:59:10	12.9	60.5
111140	2025-03-22T04:09:10	12.8	61
111141	2025-03-22T04:19:10	12.6	60.5
111142	2025-03-22T04:29:10	12.4	61
111143	2025-03-22T04:39:10	12.3	61
111144	2025-03-22T04:49:10	12.4	61
111145	2025-03-22T04:59:10	12.5	63
111146	2025-03-22T05:09:10	12.2	62
111147	2025-03-22T05:19:10	12.3	63
111148	2025-03-22T05:29:10	12	63.5
111149	2025-03-22T05:39:10	12.3	66
111150	2025-03-22T05:49:10	11.7	66.5
111151	2025-03-22T05:59:10	11.7	68.5
111152	2025-03-22T06:09:10	11.8	66.5
111153	2025-03-22T06:19:10	11.9	66
111154	2025-03-22T06:29:10	11.9	65.5
111155	2025-03-22T06:39:10	12	65.5
111156	2025-03-22T06:49:10	12.1	65
111157	2025-03-22T06:59:10	12.2	65
111158	2025-03-22T07:09:10	12.4	65.5
111159	2025-03-22T07:19:10	12.4	64
111160	2025-03-22T07:29:10	12.8	64.5
111161	2025-03-22T07:39:10	13.3	64.5
111162	2025-03-22T07:49:10	13.9	64.5
111163	2025-03-22T07:59:10	14.4	61.5
111164	2025-03-22T08:09:10	14.2	60.5
111165	2025-03-22T08:19:10	14.4	62.5
111166	2025-03-22T08:29:10	14.5	62
111167	2025-03-22T08:39:10	14.2	61.5
111168	2025-03-22T08:49:10	14.2	62.5
111169	2025-03-22T08:59:10	14.2	61.5
111170	2025-03-22T09:09:10	14.2	61.5
111171	2025-03-22T09:19:10	14.1	62
111172	2025-03-22T09:29:10	14.4	60.5
111173	2025-03-22T09:39:10	14.6	61
111174	2025-03-22T09:49:10	14.9	61
111175	2025-03-22T09:59:10	15	60.5
111176	2025-03-22T10:09:10	15.3	61
111177	2025-03-22T10:19:10	15.5	61
111178	2025-03-22T10:29:10	15.8	59
111179	2025-03-22T10:39:10	16	61.5
111180	2025-03-22T10:49:10	16.1	60.5
111181	2025-03-22T10:59:10	16.4	59.5
111182	2025-03-22T11:09:10	16.8	58
111183	2025-03-22T11:19:10	16.9	57
111184	2025-03-22T11:29:10	17.3	55
111185	2025-03-22T11:39:10	17.6	53.5
111186	2025-03-22T11:49:10	18.1	50
111187	2025-03-22T11:59:10	18.7	46
111188	2025-03-22T12:09:10	19.4	47
111189	2025-03-22T12:19:10	20	43
111190	2025-03-22T12:29:10	20.3	43
111191	2025-03-22T12:39:09	26.1	33.5
111192	2025-03-22T12:49:09	29.9	30
111193	2025-03-22T13:09:09	28	35
111194	2025-03-22T13:19:09	29.3	32.5
111195	2025-03-22T13:29:09	28.1	34
111196	2025-03-22T13:39:09	25.5	38
111197	2025-03-22T13:49:09	24.5	39
111198	2025-03-22T13:59:09	23.7	42
111199	2025-03-22T14:09:09	23.4	42
111200	2025-03-22T14:19:09	22.7	44
111201	2025-03-22T14:31:00	22.2	45.5
111202	2025-03-22T14:39:09	21.5	53
111203	2025-03-22T14:49:09	21.2	53.5
111204	2025-03-22T15:09:09	23.9	53
111205	2025-03-22T15:19:09	27.1	44.5
111206	2025-03-22T15:29:09	27	40.5
111207	2025-03-22T15:39:09	25.8	41.5
111208	2025-03-22T15:49:09	25.7	42.5
111209	2025-03-22T15:59:09	24.2	47
111210	2025-03-22T16:09:09	22.9	51
111211	2025-03-22T16:19:09	22.4	53
111212	2025-03-22T16:29:09	21.8	53.5
111213	2025-03-22T16:39:09	21.4	54.5
111214	2025-03-22T16:49:09	20.9	54
111215	2025-03-22T16:59:09	20.6	54.5
111216	2025-03-22T17:09:09	20.4	55
111217	2025-03-22T17:19:09	20.1	56
111218	2025-03-22T18:24:32	19.5	58
111219	2025-03-22T18:24:33	19.3	59
111220	2025-03-22T18:24:33	19.1	59.5
111221	2025-03-22T18:24:33	19.7	57.5
111222	2025-03-22T18:24:33	19	60
111223	2025-03-22T18:24:34	18.7	59
111224	2025-03-22T18:29:09	18.4	60
111225	2025-03-22T18:39:09	18.2	53
111226	2025-03-22T18:49:09	18.1	52.5
111227	2025-03-22T18:59:09	17.8	52
111228	2025-03-22T19:09:09	17.6	54
111229	2025-03-22T19:19:09	17.5	54.5
111230	2025-03-22T19:29:09	17.2	55
111231	2025-03-22T19:39:09	17	55
111232	2025-03-22T19:49:09	16.9	55
111233	2025-03-22T19:59:09	16.8	55.5
111234	2025-03-22T20:09:09	16.7	56
111235	2025-03-22T20:19:09	16.6	55.5
111236	2025-03-22T20:29:09	16.5	56
111237	2025-03-22T20:39:09	16.4	55.5
111238	2025-03-22T20:49:09	16.4	56.5
111239	2025-03-22T20:59:09	16.1	57
111240	2025-03-22T21:09:09	16	57.5
111241	2025-03-22T21:19:09	16	57.5
111242	2025-03-22T21:29:09	15.9	57.5
111243	2025-03-22T21:39:09	15.8	58
111244	2025-03-22T21:49:09	15.8	58
111245	2025-03-22T21:59:09	15.4	60
111246	2025-03-22T22:09:09	15.2	61
111247	2025-03-22T22:19:09	15.2	60.5
111248	2025-03-22T22:29:09	15.1	61.5
111249	2025-03-22T22:39:09	15	60
111250	2025-03-22T22:49:09	15	60.5
111251	2025-03-22T22:59:09	14.9	60.5
111252	2025-03-22T23:09:09	14.8	62.5
111253	2025-03-22T23:19:09	14.7	62.5
111254	2025-03-22T23:29:09	14.6	63
111255	2025-03-22T23:39:09	14.4	63.5
111256	2025-03-22T23:49:08	14.4	63.5
111257	2025-03-22T23:59:08	14.3	64.5
111258	2025-03-23T00:09:08	14.1	65.5
111259	2025-03-23T00:19:08	14.1	66.5
111260	2025-03-23T00:29:08	14.1	66
111261	2025-03-23T00:39:08	13.9	65
111262	2025-03-23T00:49:09	14	64.5
111263	2025-03-23T00:59:09	14.1	64.5
111264	2025-03-23T01:09:09	14.1	64.5
111265	2025-03-23T01:19:08	14	64
111266	2025-03-23T01:29:08	14.1	64
111267	2025-03-23T01:39:08	14	65
111268	2025-03-23T01:49:08	13.7	66.5
111269	2025-03-23T01:59:08	12.9	69
111270	2025-03-23T02:09:08	12.4	70
111271	2025-03-23T02:19:08	12.3	70.5
111272	2025-03-23T02:29:08	12.2	70.5
111273	2025-03-23T02:39:08	12.3	70.5
111274	2025-03-23T02:49:08	12.3	70
111275	2025-03-23T02:59:08	12.3	70
111276	2025-03-23T03:09:08	12.2	70.5
111277	2025-03-23T03:19:08	12.1	71.5
111278	2025-03-23T03:29:08	12.1	72
111279	2025-03-23T03:39:08	12	74
111280	2025-03-23T03:49:08	12.1	75.5
111281	2025-03-23T03:59:08	12.2	76.5
111282	2025-03-23T04:09:08	12	77
111283	2025-03-23T04:19:08	12.1	77.5
111284	2025-03-23T04:29:08	12.1	78
111285	2025-03-23T04:39:08	12.1	78.5
111286	2025-03-23T04:49:08	12.1	78.5
111287	2025-03-23T04:59:08	12	79
111288	2025-03-23T05:09:08	11.9	79.5
111289	2025-03-23T05:19:08	11.7	80
111290	2025-03-23T05:29:08	11.7	81
111291	2025-03-23T05:39:08	11.7	81
111292	2025-03-23T05:49:08	11.7	81
111293	2025-03-23T05:59:08	11.7	81
111294	2025-03-23T06:09:08	11.7	81
111295	2025-03-23T06:19:08	11.7	81
111296	2025-03-23T06:29:08	11.8	81
111297	2025-03-23T06:39:08	11.9	81
111298	2025-03-23T06:49:08	12	80.5
111299	2025-03-23T06:59:08	12.2	79.5
111300	2025-03-23T07:09:08	12.4	78.5
111301	2025-03-23T07:19:08	12.8	77
111302	2025-03-23T07:29:08	13.1	74.5
111303	2025-03-23T07:39:08	13.3	73
111304	2025-03-23T07:49:08	13.6	72.5
111305	2025-03-23T07:59:08	13.5	70
111306	2025-03-23T08:09:08	13.4	69
111307	2025-03-23T08:29:08	13.9	66
111308	2025-03-23T08:39:08	14	65.5
111309	2025-03-23T08:49:08	14	65
111310	2025-03-23T08:59:08	14.1	64.5
111311	2025-03-23T09:09:08	13.8	65.5
111312	2025-03-23T09:19:08	14	65.5
111313	2025-03-23T09:29:08	14.1	65
111314	2025-03-23T09:39:08	14.1	65
111315	2025-03-23T09:49:08	14.1	65
111316	2025-03-23T09:59:08	14	65
111317	2025-03-23T10:09:08	14.1	64.5
111318	2025-03-23T10:19:08	14.1	68.5
111319	2025-03-23T10:29:08	14.5	63.5
111320	2025-03-23T10:39:08	15	63
111321	2025-03-23T10:49:08	15.1	62
111322	2025-03-23T10:59:08	15.5	61.5
111323	2025-03-23T11:09:08	15.7	61
111324	2025-03-23T11:19:08	15.9	60
111325	2025-03-23T11:29:08	15.5	61
111326	2025-03-23T11:39:08	15.3	62
111327	2025-03-23T11:49:08	15.4	62
111328	2025-03-23T11:59:08	15.4	62
111329	2025-03-23T12:09:08	15.8	63.5
111330	2025-03-23T12:19:08	16.2	63.5
111331	2025-03-23T12:29:08	19.7	52
111332	2025-03-23T12:39:08	19.7	53.5
111333	2025-03-23T12:49:08	20.3	50
111334	2025-03-23T12:59:08	18.4	56.5
111335	2025-03-23T13:09:07	18	56.5
111336	2025-03-23T13:19:07	17.6	55
111337	2025-03-23T13:29:07	17.4	57
111338	2025-03-23T13:39:07	17.7	55
111339	2025-03-23T13:49:07	18.3	54
111340	2025-03-23T13:59:07	21.4	48
111341	2025-03-23T14:09:07	20.5	48.5
111342	2025-03-23T14:19:07	22.4	44
111343	2025-03-23T14:29:07	23.3	42.5
111344	2025-03-23T14:39:07	23.4	43
111345	2025-03-23T14:49:07	23	43
111346	2025-03-23T14:59:07	23.4	41
111347	2025-03-23T15:09:07	22.5	42.5
111348	2025-03-23T15:19:07	24	40
111349	2025-03-23T15:29:07	24.1	40
111350	2025-03-23T15:39:07	25.1	38
111351	2025-03-23T15:49:07	24.5	39
111352	2025-03-23T15:59:07	24.9	38.5
111353	2025-03-23T16:09:07	24.3	39
111354	2025-03-23T16:19:07	23.1	40.5
111355	2025-03-23T16:29:07	23	40.5
111356	2025-03-23T16:39:07	23.1	40.5
111357	2025-03-23T16:49:07	21.6	43.5
111358	2025-03-23T17:09:07	19.8	47.5
111359	2025-03-23T17:19:07	19.7	48
111360	2025-03-23T17:29:07	19	51
111361	2025-03-23T17:39:07	18	52
111362	2025-03-23T17:49:07	17.9	53.5
111363	2025-03-23T18:09:07	17.5	54.5
111364	2025-03-23T18:19:07	17	56.5
111365	2025-03-23T18:29:07	16.6	57.5
111366	2025-03-23T18:39:07	16.2	58
111367	2025-03-23T18:49:07	15.7	59
111368	2025-03-23T18:59:07	15.2	60.5
111369	2025-03-23T19:09:07	15.1	61
111370	2025-03-23T19:19:07	14.8	61.5
111371	2025-03-23T19:29:07	14.6	62.5
111372	2025-03-23T19:39:07	14.4	63
111373	2025-03-23T19:49:07	14.2	63.5
111374	2025-03-23T19:59:07	14.1	64
111375	2025-03-23T20:09:07	13.9	65
111376	2025-03-23T20:19:07	13.8	64.5
111377	2025-03-23T20:29:07	13.7	65
111378	2025-03-23T20:39:07	13.5	66
111379	2025-03-23T20:49:07	13.6	66
111380	2025-03-23T20:59:07	13.6	66
111381	2025-03-23T21:09:07	13.4	66.5
111382	2025-03-23T21:19:07	13.4	67
111383	2025-03-23T21:29:07	13.2	67.5
111384	2025-03-23T21:39:07	13.2	68
111385	2025-03-23T21:49:07	13	68.5
111386	2025-03-23T21:59:07	12.9	69
111387	2025-03-23T22:09:07	12.7	70
111388	2025-03-23T22:19:07	12.6	70
111389	2025-03-23T22:29:07	12.4	70
111390	2025-03-23T22:39:07	12.4	70.5
111391	2025-03-23T22:49:07	12.2	71.5
111392	2025-03-23T22:59:07	12	71.5
111393	2025-03-23T23:09:07	11.8	72.5
111394	2025-03-23T23:19:07	11.6	72.5
111395	2025-03-23T23:29:07	11.4	72
111396	2025-03-23T23:39:07	11.3	72
111397	2025-03-23T23:49:07	11.2	72
111398	2025-03-23T23:59:07	10.8	73
111399	2025-03-24T00:09:07	10.7	73
111400	2025-03-24T00:19:07	10.6	74
111401	2025-03-24T00:29:07	10.7	74
111402	2025-03-24T00:39:07	10.6	73.5
111403	2025-03-24T00:49:07	10.8	73.5
111404	2025-03-24T00:59:07	10.7	73.5
111405	2025-03-24T01:09:07	10.8	73.5
111406	2025-03-24T01:19:07	11	74
111407	2025-03-24T01:29:06	10.6	74
111408	2025-03-24T01:39:06	10.6	74.5
111409	2025-03-24T01:49:06	10.8	75
111410	2025-03-24T01:59:06	10.7	75
111411	2025-03-24T02:09:06	10.6	76
111412	2025-03-24T02:19:06	10.5	76
111413	2025-03-24T02:29:06	10.5	76.5
111414	2025-03-24T02:39:06	10.5	76
111415	2025-03-24T02:49:06	10.4	76.5
111416	2025-03-24T02:59:06	10.3	77.5
111417	2025-03-24T03:09:06	10.2	77.5
111418	2025-03-24T03:19:06	10	78
111419	2025-03-24T03:29:06	10	78
111420	2025-03-24T03:39:06	10	78
111421	2025-03-24T03:49:06	10	78.5
111422	2025-03-24T03:59:06	10	79
111423	2025-03-24T04:09:06	9.9	79
111424	2025-03-24T04:19:06	9.8	78.5
111425	2025-03-24T04:29:06	9.7	79
111426	2025-03-24T04:39:06	9.6	79
111427	2025-03-24T04:49:06	9.4	79.5
111428	2025-03-24T04:59:06	9.2	80
111429	2025-03-24T05:29:06	8.8	80
111430	2025-03-24T05:39:06	8.7	80
111431	2025-03-24T05:49:06	8.7	80
111432	2025-03-24T05:59:06	8.6	80.5
111433	2025-03-24T06:09:06	8.7	80.5
111434	2025-03-24T06:19:06	8.7	80.5
111435	2025-03-24T06:29:06	8.9	81
111436	2025-03-24T06:39:06	9	81.5
111437	2025-03-24T06:49:06	9.2	81.5
111438	2025-03-24T06:59:06	9.2	81.5
111439	2025-03-24T07:09:06	9.3	82
111440	2025-03-24T07:19:06	9.5	82.5
111441	2025-03-24T07:29:06	9.6	83
111442	2025-03-24T07:39:06	9.9	83
111443	2025-03-24T07:49:06	9.9	83
111444	2025-03-24T07:59:06	10.3	82.5
111445	2025-03-24T08:09:06	10.7	83
111446	2025-03-24T08:19:06	10.9	82.5
111447	2025-03-24T08:29:06	11.2	81.5
111448	2025-03-24T08:39:06	11.6	78
111449	2025-03-24T08:49:06	11.8	77.5
111450	2025-03-24T08:59:06	12	77
111451	2025-03-24T09:09:06	12.4	76.5
111452	2025-03-24T09:19:06	12.8	74
111453	2025-03-24T09:29:06	13.2	73
111454	2025-03-24T09:39:06	13.6	72.5
111455	2025-03-24T09:49:06	14	72
111456	2025-03-24T09:59:06	14.3	70
111457	2025-03-24T10:09:06	14.3	69.5
111458	2025-03-24T10:19:06	14.3	69.5
111459	2025-03-24T10:29:06	14.4	69
111460	2025-03-24T10:39:06	14.4	69
111461	2025-03-24T10:49:06	14.7	70
111462	2025-03-24T10:59:06	15.1	68
111463	2025-03-24T11:09:06	15.9	65.5
111464	2025-03-24T11:19:06	16.2	61.5
111465	2025-03-24T11:29:06	16.1	61
111466	2025-03-24T11:39:06	16.1	60.5
111467	2025-03-24T11:49:06	16.5	60
111468	2025-03-24T11:59:06	17.3	56.5
111469	2025-03-24T12:09:06	18.1	55
111470	2025-03-24T12:19:06	18.4	49
111471	2025-03-24T12:29:06	21.8	44
111472	2025-03-24T12:39:06	25.8	35
111473	2025-03-24T12:49:06	28.3	32.5
111474	2025-03-24T12:59:06	23.8	35
111475	2025-03-24T13:09:06	21.9	40
111476	2025-03-24T13:19:06	21.1	43.5
111477	2025-03-24T13:29:06	20.5	44
111478	2025-03-24T13:39:06	20.6	45.5
111479	2025-03-24T13:49:06	20.7	44.5
111480	2025-03-24T13:59:06	20.9	44
111481	2025-03-24T14:09:06	22.4	42.5
111482	2025-03-24T14:19:06	21	43
111483	2025-03-24T14:29:06	19.7	45.5
111484	2025-03-24T14:39:06	19.3	45.5
111485	2025-03-24T14:49:06	18.9	46.5
111486	2025-03-24T14:59:06	18.7	47
111487	2025-03-24T15:09:06	18.5	46.5
111488	2025-03-24T15:19:06	18.4	48.5
111489	2025-03-24T15:29:05	18.6	48.5
111490	2025-03-24T15:39:05	18.7	49.5
111491	2025-03-24T15:49:05	19	48.5
111492	2025-03-24T15:59:05	19.2	46
111493	2025-03-24T16:09:05	19	46
111494	2025-03-24T16:19:05	18.7	45
111495	2025-03-24T16:29:05	18.5	45.5
111496	2025-03-24T16:39:05	18.4	44
111497	2025-03-24T16:49:05	18.5	45.5
111498	2025-03-24T16:59:05	18.3	45.5
111499	2025-03-24T17:09:05	18.1	46.5
111500	2025-03-24T17:19:05	17.7	48.5
111501	2025-03-24T17:29:05	17.5	50.5
111502	2025-03-24T17:39:05	17.3	53
111503	2025-03-24T17:49:05	17	56.5
111504	2025-03-24T17:59:05	16.8	57
111505	2025-03-24T18:09:05	16.6	59
111506	2025-03-24T18:19:05	16.3	57
111507	2025-03-24T18:29:05	16	57
111508	2025-03-24T18:39:05	15.9	58.5
111509	2025-03-24T18:49:05	15.9	57.5
111510	2025-03-24T18:59:05	15.8	59.5
111511	2025-03-24T19:09:05	15.8	60
111512	2025-03-24T19:19:05	15.6	61.5
111513	2025-03-24T19:29:05	15.5	62
111514	2025-03-24T19:39:05	15.4	62.5
111515	2025-03-24T19:49:05	15	63.5
111516	2025-03-24T19:59:05	15	64
111517	2025-03-24T20:09:05	14.9	63.5
111518	2025-03-24T20:19:05	14.9	63.5
111519	2025-03-24T20:29:05	14.7	65
111520	2025-03-24T20:39:05	14.5	65.5
111521	2025-03-24T20:49:05	14.1	65.5
111522	2025-03-24T20:59:05	13.7	66
111523	2025-03-24T21:09:05	13.6	67
111524	2025-03-24T21:19:05	13.3	67
111525	2025-03-24T21:29:05	13.2	67
111526	2025-03-24T21:39:05	12.8	68
111527	2025-03-24T21:49:05	12.8	68.5
111528	2025-03-24T21:59:05	12.8	70.5
111529	2025-03-24T22:09:05	12.8	71.5
111530	2025-03-24T22:19:05	12.5	71.5
111531	2025-03-24T22:29:05	12.3	73.5
111532	2025-03-24T22:39:05	12.3	73
111533	2025-03-24T22:49:05	12.2	74
111534	2025-03-24T22:59:05	12.2	74
111535	2025-03-24T23:09:05	12	74.5
111536	2025-03-24T23:19:05	11.9	73.5
111537	2025-03-24T23:29:05	11.7	74
111538	2025-03-24T23:39:05	11.5	74.5
111539	2025-03-24T23:49:05	11.3	75
111540	2025-03-24T23:59:05	11.2	75.5
111541	2025-03-25T00:09:05	10.7	76
111542	2025-03-25T00:19:05	10.5	76.5
111543	2025-03-25T00:39:05	10.6	75
111544	2025-03-25T00:49:05	10.4	75
111545	2025-03-25T00:59:05	10.1	77
111546	2025-03-25T01:09:05	10.1	76.5
111547	2025-03-25T01:19:05	10	75.5
111548	2025-03-25T01:29:05	9.7	78
111549	2025-03-25T01:39:05	9.7	77.5
111550	2025-03-25T01:49:05	9.4	78
111551	2025-03-25T01:59:05	9.5	78
111552	2025-03-25T02:09:05	9.3	78.5
111553	2025-03-25T02:19:05	9.1	79
111554	2025-03-25T02:29:05	9	78.5
111555	2025-03-25T02:39:05	9	79
111556	2025-03-25T02:49:05	8.9	79.5
111557	2025-03-25T02:59:05	8.8	79
111558	2025-03-25T03:09:05	8.6	79
111559	2025-03-25T03:19:05	8.5	79.5
111560	2025-03-25T03:29:05	8.4	80
111561	2025-03-25T03:39:05	8.4	80
111562	2025-03-25T03:49:05	8.1	80.5
111563	2025-03-25T03:59:05	8	80.5
111564	2025-03-25T04:09:05	8	80.5
111565	2025-03-25T04:19:05	7.8	80.5
111566	2025-03-25T04:29:05	7.8	80
111567	2025-03-25T04:39:05	7.7	80.5
111568	2025-03-25T04:49:05	7.6	81
111569	2025-03-25T04:59:05	7.5	81.5
111570	2025-03-25T05:09:05	7.5	82.5
111571	2025-03-25T05:19:05	7.3	81.5
111572	2025-03-25T05:29:05	7.3	81.5
111573	2025-03-25T05:39:05	7.2	81.5
111574	2025-03-25T05:49:05	7.2	81.5
111575	2025-03-25T05:59:05	7.2	82
111576	2025-03-25T06:09:05	7.2	81.5
111577	2025-03-25T06:19:05	7.2	82
111578	2025-03-25T06:29:05	7.3	82.5
111579	2025-03-25T06:39:04	7.5	83
111580	2025-03-25T06:49:04	7.7	84
111581	2025-03-25T06:59:05	7.7	85
111582	2025-03-25T07:09:04	8.1	87
111583	2025-03-25T07:19:04	8.3	89
111584	2025-03-25T07:29:04	8.6	89
111585	2025-03-25T07:39:04	8.9	88.5
111586	2025-03-25T07:49:04	9.3	88.5
111587	2025-03-25T07:59:04	9.5	89.5
111588	2025-03-25T08:09:04	9.8	88
111589	2025-03-25T08:19:04	10.1	86.5
111590	2025-03-25T08:29:04	10.5	86
111591	2025-03-25T08:39:04	10.9	84
111592	2025-03-25T08:49:04	11.1	84
111593	2025-03-25T08:59:04	11.1	84
111594	2025-03-25T09:09:04	11.3	84
111595	2025-03-25T09:19:04	11.5	83.5
111596	2025-03-25T09:29:04	12	82.5
111597	2025-03-25T09:39:04	12.4	81
111598	2025-03-25T09:49:04	12.7	79.5
111599	2025-03-25T09:59:04	13	78.5
111600	2025-03-25T10:09:04	13.2	78.5
111601	2025-03-25T10:19:04	13.1	78
111602	2025-03-25T10:29:04	13.5	78
111603	2025-03-25T10:39:04	13.9	76.5
111604	2025-03-25T10:49:04	14.3	74
111605	2025-03-25T10:59:04	14.8	72.5
111606	2025-03-25T11:09:04	15.4	72
111607	2025-03-25T11:19:04	16.4	67
111608	2025-03-25T11:29:04	17	65.5
111609	2025-03-25T11:39:04	16.7	64
111610	2025-03-25T11:49:04	17.4	61
111611	2025-03-25T11:59:04	18	60.5
111612	2025-03-25T12:09:04	18.6	57.5
111613	2025-03-25T12:19:04	18.4	57
111614	2025-03-25T12:29:04	19.3	54.5
111615	2025-03-25T12:39:04	18.7	54
111616	2025-03-25T12:49:04	19.5	52
111617	2025-03-25T12:59:04	20.1	52.5
111618	2025-03-25T13:09:04	24.5	44
111619	2025-03-25T13:19:04	26.7	40
111620	2025-03-25T13:29:04	26.9	37
111621	2025-03-25T13:39:04	25.9	37.5
111622	2025-03-25T13:49:04	25	38.5
111623	2025-03-25T13:59:04	24	39.5
111624	2025-03-25T14:09:04	23.5	41.5
111625	2025-03-25T14:19:04	22.3	43
111626	2025-03-25T14:29:04	22.1	43.5
111627	2025-03-25T14:39:04	21.9	45.5
111628	2025-03-25T14:49:04	21.6	45.5
111629	2025-03-25T14:59:04	21.1	47.5
111630	2025-03-25T15:09:04	21	46
111631	2025-03-25T15:19:04	20.4	49
111632	2025-03-25T15:29:04	20.2	48.5
111633	2025-03-25T15:39:04	20	49.5
111634	2025-03-25T15:49:04	19.6	49.5
111635	2025-03-25T15:59:04	19.5	50.5
111636	2025-03-25T16:09:04	19.2	50.5
111637	2025-03-25T16:19:04	18.9	50
111638	2025-03-25T16:29:04	18.8	52.5
111639	2025-03-25T16:39:04	18.5	53
111640	2025-03-25T16:49:04	18.3	54
111641	2025-03-25T16:59:04	18	55
111642	2025-03-25T17:09:04	17.7	56
111643	2025-03-25T17:19:04	17.4	56
111644	2025-03-25T17:29:04	17.3	57
111645	2025-03-25T17:39:04	17.3	59.5
111646	2025-03-25T17:49:04	17.2	61.5
111647	2025-03-25T17:59:04	17.1	61.5
111648	2025-03-25T18:09:04	16.9	62.5
111649	2025-03-25T18:19:04	16.9	63
111650	2025-03-25T18:29:04	16.6	60
111651	2025-03-25T18:39:04	16.5	57
111652	2025-03-25T18:49:04	16.3	57.5
111653	2025-03-25T18:59:04	16.2	59
111654	2025-03-25T19:09:03	16	59.5
111655	2025-03-25T19:19:03	16.1	59.5
111656	2025-03-25T19:29:03	15.9	60.5
111657	2025-03-25T19:39:03	15.9	60
111658	2025-03-25T19:49:03	15.8	59.5
111659	2025-03-25T19:59:03	15.7	59.5
111660	2025-03-25T20:09:03	15.7	61
111661	2025-03-25T20:19:03	15.6	60
111662	2025-03-25T20:29:03	15.5	59.5
111663	2025-03-25T20:39:03	15.4	60
111664	2025-03-25T20:49:04	15.3	60
111665	2025-03-25T20:59:03	15.1	60.5
111666	2025-03-25T21:09:03	14.8	63
111667	2025-03-25T21:19:03	14.6	62.5
111668	2025-03-25T21:29:03	14.3	63.5
111669	2025-03-25T21:39:03	14.3	65.5
111670	2025-03-25T21:49:03	14.2	67
111671	2025-03-25T21:59:03	14.1	67.5
111672	2025-03-25T22:09:03	14	66.5
111673	2025-03-25T22:19:03	13.8	61.5
111674	2025-03-25T22:29:03	13.8	59
111675	2025-03-25T22:39:03	13.7	59
111676	2025-03-25T22:49:03	13.7	59.5
111677	2025-03-25T22:59:03	13.5	59
111678	2025-03-25T23:09:03	13.3	59.5
111679	2025-03-25T23:19:03	13.1	60
111680	2025-03-25T23:29:03	13	60.5
111681	2025-03-25T23:39:03	12.9	62.5
111682	2025-03-25T23:49:03	12.8	62.5
111683	2025-03-25T23:59:03	12.4	63.5
111684	2025-03-26T00:09:03	12.5	65
111685	2025-03-26T00:19:03	12.3	64
111686	2025-03-26T00:29:03	12.1	66
111687	2025-03-26T00:39:03	12	67
111688	2025-03-26T00:49:03	11.7	67
111689	2025-03-26T00:59:03	11.5	67.5
111690	2025-03-26T01:09:03	11.3	68
111691	2025-03-26T01:19:03	11.3	68.5
111692	2025-03-26T01:29:03	11.2	68.5
111693	2025-03-26T01:39:03	11.1	70
111694	2025-03-26T01:49:03	11.1	69.5
111695	2025-03-26T01:59:03	11.2	69.5
111696	2025-03-26T02:09:03	11.2	70
111697	2025-03-26T02:19:03	11.1	70
111698	2025-03-26T02:29:03	11	70
111699	2025-03-26T02:39:03	10.8	70
111700	2025-03-26T02:49:03	10.8	70
111701	2025-03-26T02:59:03	10.8	71
111702	2025-03-26T03:09:03	10.8	71.5
111703	2025-03-26T03:19:03	10.6	72
111704	2025-03-26T03:29:03	10.5	72.5
111705	2025-03-26T03:39:03	10.5	73
111706	2025-03-26T03:49:03	10.3	73
111707	2025-03-26T03:59:03	10.3	73.5
111708	2025-03-26T04:09:03	10.2	74.5
111709	2025-03-26T04:19:03	10.2	73.5
111710	2025-03-26T04:29:03	10.1	74
111711	2025-03-26T04:39:03	10	74.5
111712	2025-03-26T04:49:03	9.9	74.5
111713	2025-03-26T04:59:03	9.9	75
111714	2025-03-26T05:09:03	9.8	74.5
111715	2025-03-26T05:19:03	9.7	75.5
111716	2025-03-26T05:29:03	9.8	75
111717	2025-03-26T05:39:03	9.9	75.5
111718	2025-03-26T05:49:03	9.8	76
111719	2025-03-26T05:59:03	10	76
111720	2025-03-26T06:09:03	9.9	76
111721	2025-03-26T06:19:03	10.1	78
111722	2025-03-26T06:29:03	10	81.5
111723	2025-03-26T06:39:03	10	84
111724	2025-03-26T06:49:03	10.1	82
111725	2025-03-26T06:59:03	10	84
111726	2025-03-26T07:09:03	10.3	84.5
111727	2025-03-26T07:29:03	10.6	85.5
111728	2025-03-26T07:39:03	10.7	85.5
111729	2025-03-26T07:49:03	10.8	83.5
111730	2025-03-26T07:59:03	11	83.5
111731	2025-03-26T08:09:03	11.1	84.5
111732	2025-03-26T08:19:03	11.2	84.5
111733	2025-03-26T08:29:03	11.5	84
111734	2025-03-26T08:39:03	11.4	84.5
111735	2025-03-26T08:49:03	11.8	83
111736	2025-03-26T08:59:03	11.7	84.5
111737	2025-03-26T09:09:03	11.5	83.5
111738	2025-03-26T09:19:03	11.4	85
111739	2025-03-26T09:29:03	11.6	86.5
111740	2025-03-26T09:39:03	11.6	86.5
111741	2025-03-26T09:49:02	11.6	86.5
111742	2025-03-26T09:59:02	11.7	87.5
111743	2025-03-26T10:09:02	11.8	88
111744	2025-03-26T10:19:02	11.5	88
111745	2025-03-26T10:29:03	11.5	87.5
111746	2025-03-26T10:39:02	11.3	89.5
111747	2025-03-26T10:49:02	11.1	90
111748	2025-03-26T10:59:02	10.8	91.5
111749	2025-03-26T11:09:02	10.8	91.5
111750	2025-03-26T11:19:02	11	92
111751	2025-03-26T11:29:02	10.9	92
111752	2025-03-26T11:39:02	11	93.5
111753	2025-03-26T11:49:02	11.2	92.5
111754	2025-03-26T11:59:02	11.4	94.5
111755	2025-03-26T12:09:02	11.2	94
111756	2025-03-26T12:19:02	11.5	92.5
111757	2025-03-26T12:29:02	11.4	91.5
111758	2025-03-26T12:39:02	11.5	91.5
111759	2025-03-26T12:49:02	11.3	94.5
111760	2025-03-26T12:59:02	11.5	94
111761	2025-03-26T13:09:02	11.4	92.5
111762	2025-03-26T13:19:02	11.4	89
111763	2025-03-26T13:29:02	11.5	89
111764	2025-03-26T13:39:02	11.7	88
111765	2025-03-26T13:49:02	11.7	88
111766	2025-03-26T13:59:02	11.6	88
111767	2025-03-26T14:09:02	11.6	88
111768	2025-03-26T14:19:02	11.4	87.5
111769	2025-03-26T14:29:02	11.3	87
111770	2025-03-26T14:39:02	11	86
111771	2025-03-26T14:49:02	11	87
111772	2025-03-26T14:59:02	11.1	86
111773	2025-03-26T15:09:02	10.9	84.5
111774	2025-03-26T15:19:02	11	85
111775	2025-03-26T15:29:02	11	85
111776	2025-03-26T15:39:02	10.9	84
111777	2025-03-26T15:49:02	10.7	82.5
111778	2025-03-26T15:59:02	10.9	82.5
111779	2025-03-26T16:09:02	10.9	82
111780	2025-03-26T16:19:02	11	82
111781	2025-03-26T16:29:02	11	82
111782	2025-03-26T16:39:02	11	82
111783	2025-03-26T16:49:02	11	82
111784	2025-03-26T16:59:02	10.8	83
111785	2025-03-26T17:09:02	10.9	83
111786	2025-03-26T17:19:02	10.8	83.5
111787	2025-03-26T17:29:02	10.7	83.5
111788	2025-03-26T17:39:02	10.7	84
111789	2025-03-26T17:49:02	10.7	84.5
111790	2025-03-26T17:59:02	10.6	85
111791	2025-03-26T18:09:02	10.5	85.5
111792	2025-03-26T18:19:02	10.5	86
111793	2025-03-26T18:29:02	10.4	85.5
111794	2025-03-26T18:39:02	10.3	87
111795	2025-03-26T18:49:02	10.4	87.5
111796	2025-03-26T18:59:02	10.2	86.5
111797	2025-03-26T19:09:02	10.3	86.5
111798	2025-03-26T19:19:02	10.2	85
111799	2025-03-26T19:29:02	10.3	83
111800	2025-03-26T19:39:02	10.2	80
111801	2025-03-26T19:49:02	10	80
111802	2025-03-26T19:59:02	10.1	79.5
111803	2025-03-26T20:09:02	10	79
111804	2025-03-26T20:19:02	10	78
111805	2025-03-26T20:29:02	9.9	78.5
111806	2025-03-26T20:39:02	9.7	78
111807	2025-03-26T20:49:02	9.7	76
111808	2025-03-26T20:59:02	9.8	78.5
111809	2025-03-26T21:09:02	9.8	78.5
111810	2025-03-26T21:19:02	9.8	78
111811	2025-03-26T21:29:02	9.9	78.5
111812	2025-03-26T21:39:02	9.7	78.5
111813	2025-03-26T21:49:02	9.7	79
111814	2025-03-26T21:59:02	9.7	79.5
111815	2025-03-26T22:09:02	9.6	79
111816	2025-03-26T22:19:02	9.6	77.5
111817	2025-03-26T22:39:02	9.5	79.5
111818	2025-03-26T22:49:02	9.5	76
111819	2025-03-26T22:59:02	9.4	80.5
111820	2025-03-26T23:09:02	9.5	81.5
111821	2025-03-26T23:19:02	9.4	81.5
111822	2025-03-26T23:29:02	9.4	82
111823	2025-03-26T23:39:02	9.3	82
111824	2025-03-26T23:49:02	9.3	82.5
111825	2025-03-26T23:59:02	9.3	82.5
111826	2025-03-27T00:09:02	9.2	83
111827	2025-03-27T00:19:02	9.3	83
111828	2025-03-27T00:29:02	9.2	83
111829	2025-03-27T00:39:02	9.2	83.5
111830	2025-03-27T00:49:02	9.1	84.5
111831	2025-03-27T00:59:02	9	84
111832	2025-03-27T01:09:02	9	84.5
111833	2025-03-27T01:19:02	8.9	84.5
111834	2025-03-27T01:29:02	8.9	84.5
111835	2025-03-27T01:39:02	8.9	85
111836	2025-03-27T01:49:02	9	84.5
111837	2025-03-27T01:59:01	9	85
111838	2025-03-27T02:09:02	9	83.5
111839	2025-03-27T02:19:01	8.9	85
111840	2025-03-27T02:29:01	8.8	85
111841	2025-03-27T02:39:01	8.9	85
111842	2025-03-27T02:49:01	8.9	84
111843	2025-03-27T02:59:01	8.9	85
111844	2025-03-27T03:09:01	8.8	85.5
111845	2025-03-27T03:19:01	8.5	85
111846	2025-03-27T03:29:01	8.2	86
111847	2025-03-27T03:39:01	8.2	85
111848	2025-03-27T03:49:01	8.2	84.5
111849	2025-03-27T03:59:01	8.2	85
111850	2025-03-27T04:09:01	8.1	86
111851	2025-03-27T04:19:01	8.1	85.5
111852	2025-03-27T04:29:01	8	85.5
111853	2025-03-27T04:39:01	8.1	86
111854	2025-03-27T04:49:01	8.1	85
111855	2025-03-27T04:59:01	8.2	83.5
111856	2025-03-27T05:09:01	8.2	83.5
111857	2025-03-27T05:19:01	8.2	82.5
111858	2025-03-27T05:29:01	8.3	83.5
111859	2025-03-27T05:39:01	8.2	83
111860	2025-03-27T05:49:01	8.1	83.5
111861	2025-03-27T05:59:01	8.3	84.5
111862	2025-03-27T06:09:01	8.3	85
111863	2025-03-27T06:19:01	8.4	84.5
111864	2025-03-27T06:29:01	8.6	84
111865	2025-03-27T06:39:01	8.7	83.5
111866	2025-03-27T06:49:01	8.5	83.5
111867	2025-03-27T06:59:01	8.6	84.5
111868	2025-03-27T07:09:01	8.6	83.5
111869	2025-03-27T07:19:01	8.7	84
111870	2025-03-27T07:29:01	8.9	84
111871	2025-03-27T07:39:01	8.9	82.5
111872	2025-03-27T07:49:01	9	81.5
111873	2025-03-27T07:59:01	9.2	81
111874	2025-03-27T08:09:01	9.6	80.5
111875	2025-03-27T08:19:01	9.8	80.5
111876	2025-03-27T08:29:01	10	78
111877	2025-03-27T08:39:01	10.3	77.5
111878	2025-03-27T08:49:01	10.5	75.5
111879	2025-03-27T08:59:01	11.1	73
111880	2025-03-27T09:09:01	11.2	72
111881	2025-03-27T09:19:01	11.6	71.5
111882	2025-03-27T09:29:01	12	70.5
111883	2025-03-27T09:39:01	12.2	69.5
111884	2025-03-27T09:49:01	12	71
111885	2025-03-27T09:59:01	12.8	68
111886	2025-03-27T10:09:01	13	61.5
111887	2025-03-27T10:19:01	12.7	60
111888	2025-03-27T10:29:01	12.5	59
111889	2025-03-27T10:39:01	12.7	59
111890	2025-03-27T10:49:01	12.8	58
111891	2025-03-27T10:59:01	13	58
111892	2025-03-27T11:09:01	13.3	57.5
111893	2025-03-27T11:19:01	13.6	56.5
111894	2025-03-27T11:29:01	13.9	56
111895	2025-03-27T11:39:01	14	55.5
111896	2025-03-27T11:49:01	14.1	56
111897	2025-03-27T11:59:01	14.5	54.5
111898	2025-03-27T12:09:01	15	53.5
111899	2025-03-27T12:19:01	15.5	53
111900	2025-03-27T12:29:01	20	43.5
111901	2025-03-27T12:39:01	21.6	39.5
111902	2025-03-27T12:49:01	25.1	34
111903	2025-03-27T12:59:01	25.3	33
111904	2025-03-27T13:09:01	25.9	32.5
111905	2025-03-27T13:19:01	27.6	29
111906	2025-03-27T13:29:01	28.7	28
111907	2025-03-27T13:39:01	28.8	27.5
111908	2025-03-27T13:49:01	29.7	27
111909	2025-03-27T13:59:01	29.6	26.5
111910	2025-03-27T14:09:01	30.4	25.5
111911	2025-03-27T14:19:01	31.5	24
111912	2025-03-27T14:29:01	31.4	24.5
111913	2025-03-27T14:39:01	32.3	23.5
111914	2025-03-27T14:49:01	32.1	24
111915	2025-03-27T14:59:01	32.1	23.5
111916	2025-03-27T15:09:01	32.5	23.5
111917	2025-03-27T15:19:01	32	24
111918	2025-03-27T15:29:01	32.2	23.5
111919	2025-03-27T15:39:01	32.2	23.5
111920	2025-03-27T15:49:01	31.8	23.5
111921	2025-03-27T15:59:00	31.4	23.5
111922	2025-03-27T16:09:00	30.6	25
111923	2025-03-27T16:19:00	30.4	25
111924	2025-03-27T16:29:00	29.1	25.5
111925	2025-03-27T16:39:00	28	27
111926	2025-03-27T16:49:00	27.2	28
111927	2025-03-27T16:59:00	25.9	29
111928	2025-03-27T17:09:00	24.8	31
111929	2025-03-27T17:19:00	23.8	32.5
111930	2025-03-27T17:29:00	22.3	34.5
111931	2025-03-27T17:39:00	21.2	36
111932	2025-03-27T17:49:00	20.1	38.5
111933	2025-03-27T17:59:00	19.6	39
111934	2025-03-27T18:09:00	18.8	40.5
111935	2025-03-27T18:19:00	18.2	41.5
111936	2025-03-27T18:29:00	17.7	43
111937	2025-03-27T18:39:00	17.4	43.5
111938	2025-03-27T18:49:00	15.9	46.5
111939	2025-03-27T18:59:00	15.4	47.5
111940	2025-03-27T19:09:00	14.8	48.5
111941	2025-03-27T19:19:00	14.7	49.5
111942	2025-03-27T19:29:00	14.3	51
111943	2025-03-27T19:39:00	14	52.5
111944	2025-03-27T19:49:00	13.6	52.5
111945	2025-03-27T19:59:00	13.4	53
111946	2025-03-27T20:09:00	13.2	54
111947	2025-03-27T20:19:00	12.9	55.5
111948	2025-03-27T20:29:00	12.4	57
111949	2025-03-27T20:39:00	12	58
111950	2025-03-27T20:49:00	11.8	59.5
111951	2025-03-27T20:59:00	11.5	60.5
111952	2025-03-27T21:09:00	11.1	61
111953	2025-03-27T21:19:00	10.8	62
111954	2025-03-27T21:29:00	10.6	62.5
111955	2025-03-27T21:39:00	10.4	63
111956	2025-03-27T21:49:00	10.2	64
111957	2025-03-27T22:09:00	9.6	65.5
111958	2025-03-27T22:19:00	9.4	66
111959	2025-03-27T22:29:00	9.2	67
111960	2025-03-27T22:39:00	9.1	67
111961	2025-03-27T22:49:00	8.8	67.5
111962	2025-03-27T22:59:00	8.6	68.5
111963	2025-03-27T23:09:00	8.5	68.5
111964	2025-03-27T23:19:00	8.3	69
111965	2025-03-27T23:29:00	8	70
111966	2025-03-27T23:39:00	8	70.5
111967	2025-03-27T23:49:00	7.8	70
111968	2025-03-27T23:59:00	7.7	70.5
111969	2025-03-28T00:09:00	7.4	71
111970	2025-03-28T00:19:00	7.3	72
111971	2025-03-28T00:29:00	7	73
111972	2025-03-28T00:39:00	6.8	73
111973	2025-03-28T00:49:00	6.6	74
111974	2025-03-28T00:59:00	6.5	74.5
111975	2025-03-28T01:09:00	6.3	75
111976	2025-03-28T01:29:00	6.1	76
111977	2025-03-28T01:39:00	5.8	76
111978	2025-03-28T01:49:00	5.8	76.5
111979	2025-03-28T01:59:00	5.4	77.5
111980	2025-03-28T02:09:00	5.3	78
111981	2025-03-28T02:19:00	5.2	78.5
111982	2025-03-28T02:29:00	5	79
111983	2025-03-28T02:39:00	4.9	80
111984	2025-03-28T02:49:00	4.9	79.5
111985	2025-03-28T02:59:00	4.9	79.5
111986	2025-03-28T03:09:00	4.8	79.5
111987	2025-03-28T03:19:00	4.5	80
111988	2025-03-28T03:29:00	4.4	80.5
111989	2025-03-28T03:39:00	4.3	80.5
111990	2025-03-28T03:49:00	4.2	81
111991	2025-03-28T03:59:00	4.3	81
111992	2025-03-28T04:09:00	4.2	81.5
111993	2025-03-28T04:19:00	4	81
111994	2025-03-28T04:29:00	3.9	81.5
111995	2025-03-28T04:39:00	3.9	82
111996	2025-03-28T04:49:00	3.8	82
111997	2025-03-28T04:59:00	3.7	82.5
111998	2025-03-28T05:09:00	3.5	83
111999	2025-03-28T05:19:00	3.6	83.5
112000	2025-03-28T05:29:00	3.6	83.5
112001	2025-03-28T05:39:00	3.6	83.5
112002	2025-03-28T05:49:00	3.6	84
112003	2025-03-28T05:59:00	3.6	84
112004	2025-03-28T06:09:00	3.9	84
112005	2025-03-28T06:19:00	3.9	84
112006	2025-03-28T06:29:00	4.1	84
112007	2025-03-28T06:39:00	4.3	84
112008	2025-03-28T06:49:00	4.5	84.5
112009	2025-03-28T06:59:00	4.7	84
112010	2025-03-28T07:09:00	4.9	84
112011	2025-03-28T07:19:00	5.3	84
112012	2025-03-28T07:29:00	5.5	83.5
112013	2025-03-28T07:39:00	5.9	81.5
112014	2025-03-28T07:49:00	6.3	81.5
112015	2025-03-28T07:59:00	6.6	80.5
112016	2025-03-28T08:09:00	6.9	81
112017	2025-03-28T08:19:00	7.4	79.5
112018	2025-03-28T08:29:00	7.6	79.5
112019	2025-03-28T08:39:00	7.9	78
112020	2025-03-28T08:49:00	8.5	78
112021	2025-03-28T08:59:00	8.6	77
112022	2025-03-28T09:09:00	8.9	75.5
112023	2025-03-28T09:19:00	9.1	75
112024	2025-03-28T09:29:00	9.6	74
112025	2025-03-28T09:39:00	10	72
112026	2025-03-28T09:49:00	10.3	69
112027	2025-03-28T09:59:00	10.4	70
112028	2025-03-28T10:09:00	10.9	68
112029	2025-03-28T10:19:00	11.2	66
112030	2025-03-28T10:29:00	11.6	64.5
112031	2025-03-28T10:38:59	11.9	63
112032	2025-03-28T10:48:59	12.3	62
112033	2025-03-28T10:58:59	12.4	62.5
112034	2025-03-28T11:08:59	12.6	60.5
112035	2025-03-28T11:18:59	13	59
112036	2025-03-28T11:28:59	13.3	59.5
112037	2025-03-28T11:38:59	13.7	56
112038	2025-03-28T11:48:59	14.3	56.5
112039	2025-03-28T11:58:59	14.7	55.5
112040	2025-03-28T12:08:59	15.4	50.5
112041	2025-03-28T12:18:59	23.2	37.5
112042	2025-03-28T12:28:59	26.5	30
112043	2025-03-28T12:38:59	28.7	26.5
112044	2025-03-28T12:48:59	29	26
112045	2025-03-28T12:58:59	31.7	24
112046	2025-03-28T13:08:59	31.8	23.5
112047	2025-03-28T13:18:59	32.9	22.5
112048	2025-03-28T13:28:59	32.3	22.5
112049	2025-03-28T13:38:59	32.1	22.5
112050	2025-03-28T13:48:59	33	22.5
112051	2025-03-28T13:58:59	32.9	22.5
112052	2025-03-28T14:08:59	31.9	22
112053	2025-03-28T14:18:59	32.6	22
112054	2025-03-28T14:28:59	31.6	22
112055	2025-03-28T14:38:59	30.8	23.5
112056	2025-03-28T14:48:59	30.9	23.5
112057	2025-03-28T14:58:59	32.8	22
112058	2025-03-28T15:08:59	32.6	22
112059	2025-03-28T15:18:59	33.6	21
112060	2025-03-28T15:28:59	33.1	21
112061	2025-03-28T15:38:59	31.2	23
112062	2025-03-28T15:48:59	31.1	23
112063	2025-03-28T15:58:59	30.4	23.5
112064	2025-03-28T16:08:59	30.4	23.5
112065	2025-03-28T16:18:59	28.7	25
112066	2025-03-28T16:28:59	26.3	27.5
112067	2025-03-28T16:38:59	26.9	27
112068	2025-03-28T16:48:59	24.9	29.5
112069	2025-03-28T16:58:59	23.8	31
112070	2025-03-28T17:08:59	24	31
112071	2025-03-28T17:18:59	23.6	32
112072	2025-03-28T17:28:59	22.6	33
112073	2025-03-28T17:38:59	22	34.5
112074	2025-03-28T17:48:59	21.5	37
112075	2025-03-28T17:58:59	20.8	40.5
112076	2025-03-28T18:08:59	20.2	42.5
112077	2025-03-28T18:18:59	19.6	44.5
112078	2025-03-28T18:28:59	19	46
112079	2025-03-28T18:38:59	18.8	47
112080	2025-03-28T18:58:59	17.8	49
112081	2025-03-28T19:08:59	17.5	52
112082	2025-03-28T19:18:59	17.2	51.5
112083	2025-03-28T19:28:59	17	52.5
112084	2025-03-28T19:38:59	16.7	52
112085	2025-03-28T19:48:59	16.4	53
112086	2025-03-28T19:58:59	16.2	54
112087	2025-03-28T20:08:59	16	53.5
112088	2025-03-28T20:18:59	15.9	54
112089	2025-03-28T20:28:59	15.5	56
112090	2025-03-28T20:38:59	15.4	57
112091	2025-03-28T20:48:59	14.9	58
112092	2025-03-28T20:58:59	14.8	59.5
112093	2025-03-28T21:08:59	14.6	60.5
112094	2025-03-28T21:18:59	14.4	60
112095	2025-03-28T21:28:59	14.2	60
112096	2025-03-28T21:38:58	14.2	61
112097	2025-03-28T21:48:59	14	61.5
112098	2025-03-28T21:58:58	13.6	62
112099	2025-03-28T22:08:58	13.5	63
112100	2025-03-28T22:18:58	13.5	64
112101	2025-03-28T22:28:58	12.9	63
112102	2025-03-28T22:38:58	12.5	62.5
112103	2025-03-28T22:48:58	12.6	62
112104	2025-03-28T22:58:58	12.8	60
112105	2025-03-28T23:08:58	12.7	60
112106	2025-03-28T23:18:58	12.7	59.5
112107	2025-03-28T23:28:58	12.7	60
112108	2025-03-28T23:38:58	12.6	60.5
112109	2025-03-28T23:48:58	12.6	60.5
112110	2025-03-28T23:58:58	12.6	61
112111	2025-03-29T00:08:58	12.3	62.5
112112	2025-03-29T00:18:58	11.9	63.5
112113	2025-03-29T00:28:58	11.8	65
112114	2025-03-29T00:38:58	11.6	67
112115	2025-03-29T00:48:58	11.5	68
112116	2025-03-29T00:58:58	11.3	69
112117	2025-03-29T01:08:58	11.2	70
112118	2025-03-29T01:18:58	11.1	71
112119	2025-03-29T01:28:58	10.9	72
112120	2025-03-29T01:38:58	10.7	73
112121	2025-03-29T01:48:58	10.5	74
112122	2025-03-29T01:58:58	10.3	75
112123	2025-03-29T02:08:58	10.2	75.5
112124	2025-03-29T02:18:58	10	76
112125	2025-03-29T02:28:58	10	76.5
112126	2025-03-29T02:38:58	10	77
112127	2025-03-29T02:48:58	10	77
112128	2025-03-29T02:58:58	10	77.5
112129	2025-03-29T03:08:58	9.7	78
112130	2025-03-29T03:18:58	9.7	78.5
112131	2025-03-29T03:28:58	9.6	78.5
112132	2025-03-29T03:38:58	9.6	78.5
112133	2025-03-29T03:48:58	9.5	79
112134	2025-03-29T03:58:58	9.6	79
112135	2025-03-29T04:08:58	9.6	79.5
112136	2025-03-29T04:18:58	9.4	79.5
112137	2025-03-29T04:28:58	9.3	79.5
112138	2025-03-29T04:38:58	9.4	79.5
112139	2025-03-29T04:48:58	9.3	80
112140	2025-03-29T04:58:58	9.4	79.5
112141	2025-03-29T05:08:58	9.3	78.5
112142	2025-03-29T05:18:58	9.5	78.5
112143	2025-03-29T05:28:58	9.6	79
112144	2025-03-29T05:38:58	9.6	78
112145	2025-03-29T05:48:58	9.7	77.5
112146	2025-03-29T05:58:58	9.9	76.5
112147	2025-03-29T06:08:58	9.9	76
112148	2025-03-29T06:18:58	10.1	75.5
112149	2025-03-29T06:28:58	10.2	75.5
112150	2025-03-29T06:38:58	10.3	74.5
112151	2025-03-29T06:48:58	10.3	74.5
112152	2025-03-29T06:58:58	10.3	74
112153	2025-03-29T07:08:58	10.2	74
112154	2025-03-29T07:18:58	10.3	74.5
112155	2025-03-29T07:28:58	10.7	73.5
112156	2025-03-29T07:38:58	10.9	72
112157	2025-03-29T07:48:58	10.9	71.5
112158	2025-03-29T07:58:58	10.9	71
112159	2025-03-29T08:08:58	11	73
112160	2025-03-29T08:18:58	11.1	71.5
112161	2025-03-29T08:28:58	11.3	71
112162	2025-03-29T08:38:58	11.6	70
112163	2025-03-29T08:48:58	11.7	68.5
112164	2025-03-29T08:58:58	11.9	67.5
112165	2025-03-29T09:08:58	12.2	69
112166	2025-03-29T09:18:58	12.3	69
112167	2025-03-29T09:28:58	12.6	67.5
112168	2025-03-29T09:38:58	12.6	65.5
112169	2025-03-29T09:48:58	12.6	65
112170	2025-03-29T09:58:58	12.8	65
112171	2025-03-29T10:08:58	13	64
112172	2025-03-29T10:18:58	13.2	64.5
112173	2025-03-29T10:28:58	13.7	63
112174	2025-03-29T10:38:58	13.5	62
112175	2025-03-29T10:48:58	13.6	63
112176	2025-03-29T10:58:58	13.8	62
112177	2025-03-29T11:08:58	13.5	62.5
112178	2025-03-29T11:18:58	13.3	63.5
112179	2025-03-29T11:28:58	13.2	64
112180	2025-03-29T11:38:58	13	64.5
112181	2025-03-29T11:48:58	13	65
112182	2025-03-29T11:58:58	13.1	65
112183	2025-03-29T12:08:58	13	65
112184	2025-03-29T12:18:58	13	64.5
112185	2025-03-29T12:28:57	12.8	65.5
112186	2025-03-29T12:38:57	12.8	65.5
112187	2025-03-29T12:48:57	12.9	64.5
112188	2025-03-29T12:58:57	13	65
112189	2025-03-29T13:08:57	13	64
112190	2025-03-29T13:18:57	13.2	63.5
112191	2025-03-29T13:28:57	13.2	63.5
112192	2025-03-29T13:38:57	13.2	63
112193	2025-03-29T13:48:57	13.3	62.5
112194	2025-03-29T13:58:57	13.5	61.5
112195	2025-03-29T14:08:57	14	60.5
112196	2025-03-29T14:18:57	14.5	59
112197	2025-03-29T14:28:57	14.2	59
112198	2025-03-29T14:38:57	13.8	58
112199	2025-03-29T14:48:57	14.1	59
112200	2025-03-29T14:58:57	14	58.5
112201	2025-03-29T15:08:57	13.9	57
112202	2025-03-29T15:18:57	13.7	59
112203	2025-03-29T15:28:57	13.5	59
112204	2025-03-29T15:38:57	13.5	58.5
112205	2025-03-29T15:48:57	13.5	58
112206	2025-03-29T15:58:57	13.5	57.5
112207	2025-03-29T16:08:57	13.9	56.5
112208	2025-03-29T16:28:57	15.9	50
112209	2025-03-29T16:38:57	16.2	49
112210	2025-03-29T16:48:57	15.9	49.5
112211	2025-03-29T16:58:57	16	50.5
112212	2025-03-29T17:08:57	15.8	50
112213	2025-03-29T17:18:57	15.2	52
112214	2025-03-29T17:28:57	14.8	53.5
112215	2025-03-29T17:38:57	14.1	54.5
112216	2025-03-29T17:48:57	13.4	59
112217	2025-03-29T17:58:57	12.9	60.5
112218	2025-03-29T18:08:57	12.6	64
112219	2025-03-29T18:18:57	12.2	65
112220	2025-03-29T18:28:57	12.1	65.5
112221	2025-03-29T18:38:57	11.8	66
112222	2025-03-29T18:48:57	11.3	67.5
112223	2025-03-29T18:58:57	10.9	68.5
112224	2025-03-29T19:08:57	10.6	69.5
112225	2025-03-29T19:18:57	10.3	69.5
112226	2025-03-29T19:28:57	10	71.5
112227	2025-03-29T19:38:57	9.8	72.5
112228	2025-03-29T19:48:57	9.5	73.5
112229	2025-03-29T19:58:57	9.3	73
112230	2025-03-29T20:08:57	9.1	73.5
112231	2025-03-29T20:18:57	8.6	75
112232	2025-03-29T20:28:57	8.5	74.5
112233	2025-03-29T20:38:57	8.3	75.5
112234	2025-03-29T20:48:57	8.1	75.5
112235	2025-03-29T20:58:57	8	74.5
112236	2025-03-29T21:08:57	7.7	75.5
112237	2025-03-29T21:18:57	7.5	76
112238	2025-03-29T21:28:57	7.3	76.5
112239	2025-03-29T21:38:57	7.1	77
112240	2025-03-29T21:48:57	7	77.5
112241	2025-03-29T21:58:57	6.8	78
112242	2025-03-29T22:08:57	6.4	78.5
112243	2025-03-29T22:18:57	6.5	78.5
112244	2025-03-29T22:28:57	6.3	79
112245	2025-03-29T22:38:57	6.1	80
112246	2025-03-29T22:48:57	5.9	79.5
112247	2025-03-29T22:58:57	5.7	80
112248	2025-03-29T23:08:57	5.6	80.5
112249	2025-03-29T23:18:57	5.6	80.5
112250	2025-03-29T23:28:57	5.3	80.5
112251	2025-03-29T23:38:57	5.2	80.5
112252	2025-03-29T23:48:57	5.1	81
112253	2025-03-30T00:08:57	4.9	81
112254	2025-03-30T00:18:57	4.7	81.5
112255	2025-03-30T00:28:57	4.7	82
112256	2025-03-30T00:38:57	4.6	82
112257	2025-03-30T00:48:57	4.4	81.5
112258	2025-03-30T00:58:57	4.4	81.5
112259	2025-03-30T01:08:57	4.1	83
112260	2025-03-30T01:18:57	4.1	83
112261	2025-03-30T01:28:57	4	82
112262	2025-03-30T01:38:57	3.9	82.5
112263	2025-03-30T01:48:57	3.6	83
112264	2025-03-30T01:58:57	3.6	83
112265	2025-03-30T02:08:57	3.4	83.5
112266	2025-03-30T02:18:57	3.4	83.5
112267	2025-03-30T02:28:57	3.2	83.5
112268	2025-03-30T02:38:57	3	84.5
112269	2025-03-30T02:48:57	3	83.5
112270	2025-03-30T02:58:57	2.9	83
112271	2025-03-30T03:08:57	2.9	83.5
112272	2025-03-30T03:18:57	2.8	84
112273	2025-03-30T03:28:57	2.8	85
112274	2025-03-30T03:38:57	2.7	84
112275	2025-03-30T03:48:57	2.5	84
112276	2025-03-30T03:58:57	2.4	84.5
112277	2025-03-30T04:08:57	2.3	85.5
112278	2025-03-30T04:18:57	2.2	86
112279	2025-03-30T04:28:57	2.1	85
112280	2025-03-30T04:38:57	2.1	86
112281	2025-03-30T04:48:57	2	86.5
112282	2025-03-30T04:58:57	2	85.5
112283	2025-03-30T05:08:57	2	90
112284	2025-03-30T05:18:57	2.3	89
112285	2025-03-30T05:28:57	2.5	88
112286	2025-03-30T05:38:57	2.7	88.5
112287	2025-03-30T05:48:57	3.4	87
112288	2025-03-30T05:58:57	3.9	85
112289	2025-03-30T06:08:57	4.3	84
112290	2025-03-30T06:18:57	5	82
112291	2025-03-30T06:38:57	5.9	79.5
112292	2025-03-30T06:48:57	6.2	76.5
112293	2025-03-30T06:58:57	6.6	76
112294	2025-03-30T07:08:57	6.8	73.5
112295	2025-03-30T07:18:57	7.2	72
112296	2025-03-30T07:28:57	7.4	72.5
112297	2025-03-30T07:38:57	7.7	72
112298	2025-03-30T07:48:57	8.2	71
112299	2025-03-30T07:58:57	8.5	69.5
112300	2025-03-30T08:08:57	9	68
112301	2025-03-30T08:18:57	9.3	67.5
112302	2025-03-30T08:28:56	9.6	67
112303	2025-03-30T08:38:56	10.2	65.5
112304	2025-03-30T08:48:56	10.4	63.5
112305	2025-03-30T08:58:56	10.7	62.5
112306	2025-03-30T09:08:56	10.9	61
112307	2025-03-30T09:18:56	11.1	60
112308	2025-03-30T09:28:56	11.5	59
112309	2025-03-30T09:38:56	11.9	56.5
112310	2025-03-30T09:48:56	11.7	56
112311	2025-03-30T09:58:56	12.1	57
112312	2025-03-30T10:08:56	12.6	54
112313	2025-03-30T10:18:56	12.8	52.5
112314	2025-03-30T10:28:56	13.3	52
112315	2025-03-30T10:38:56	13.6	50.5
112316	2025-03-30T10:48:56	13.7	50.5
112317	2025-03-30T10:58:56	13.9	49.5
112318	2025-03-30T11:08:56	13.7	49.5
112319	2025-03-30T11:18:56	13.4	51.5
112320	2025-03-30T11:28:56	13.3	51.5
112321	2025-03-30T11:38:56	13.3	51
112322	2025-03-30T11:48:56	13.3	49.5
112323	2025-03-30T11:58:56	13.5	47
112324	2025-03-30T12:08:56	13.5	48.5
112325	2025-03-30T12:18:56	13.5	50.5
112326	2025-03-30T12:28:56	13.2	54
112327	2025-03-30T12:38:56	13.2	55
112328	2025-03-30T12:48:56	13.2	55
112329	2025-03-30T12:58:56	13.4	56
112330	2025-03-30T13:08:56	13.1	57.5
112331	2025-03-30T13:18:56	12.9	58.5
112332	2025-03-30T13:28:56	12.7	61.5
112333	2025-03-30T13:38:56	12.5	63
112334	2025-03-30T13:48:56	12.4	63.5
112335	2025-03-30T13:58:56	12.4	64
112336	2025-03-30T14:08:56	12.4	64.5
112337	2025-03-30T14:18:56	12.5	65
112338	2025-03-30T14:28:56	12.6	65.5
112339	2025-03-30T14:38:56	12.3	66.5
112340	2025-03-30T14:48:56	12.1	69
112341	2025-03-30T14:58:56	11.9	72.5
112342	2025-03-30T15:08:56	11.8	74
112343	2025-03-30T15:18:56	11.4	76
112344	2025-03-30T15:28:56	11.5	76.5
112345	2025-03-30T15:38:56	11.7	77.5
112346	2025-03-30T15:48:56	13.9	70.5
112347	2025-03-30T15:58:56	15.5	64.5
112348	2025-03-30T16:08:56	15.2	64.5
112349	2025-03-30T16:18:56	15.4	63
112350	2025-03-30T16:28:56	15	64.5
112351	2025-03-30T16:38:56	14.9	64
112352	2025-03-30T16:48:56	14	65.5
112353	2025-03-30T16:58:56	13.5	65
112354	2025-03-30T17:08:56	12.2	69
112355	2025-03-30T17:18:56	12	69.5
112356	2025-03-30T17:28:56	11.6	69.5
112357	2025-03-30T17:38:56	11.4	71.5
112358	2025-03-30T17:48:56	11.1	73
112359	2025-03-30T17:58:56	10.9	75
112360	2025-03-30T18:08:56	10.5	75.5
112361	2025-03-30T18:18:56	10.4	75.5
112362	2025-03-30T18:28:56	10.4	75.5
112363	2025-03-30T18:38:56	10.4	75
112364	2025-03-30T18:48:56	10.4	75.5
112365	2025-03-30T18:58:56	10.3	75.5
112366	2025-03-30T19:08:56	10.3	75
112367	2025-03-30T19:18:56	10.1	75
112368	2025-03-30T19:28:56	10.2	75.5
112369	2025-03-30T19:38:56	10	76
112370	2025-03-30T19:48:56	10	76
112371	2025-03-30T19:58:56	10	76.5
112372	2025-03-30T20:08:56	9.8	77.5
112373	2025-03-30T20:18:56	9.5	78.5
112374	2025-03-30T20:28:56	9.3	79.5
112375	2025-03-30T20:38:56	9.3	79.5
112376	2025-03-30T20:48:56	9.1	80
112377	2025-03-30T20:58:56	8.9	80.5
112378	2025-03-30T21:08:56	8.8	81
112379	2025-03-30T21:18:56	8.9	81
112380	2025-03-30T21:28:56	8.8	81.5
112381	2025-03-30T21:38:56	8.7	82
112382	2025-03-30T21:48:56	8.5	82.5
112383	2025-03-30T21:58:56	8.2	83.5
112384	2025-03-30T22:08:56	8.2	84.5
112385	2025-03-30T22:18:56	8	84.5
112386	2025-03-30T22:28:56	8.2	85
112387	2025-03-30T22:38:56	8.1	85.5
112388	2025-03-30T22:48:56	8.1	86
112389	2025-03-30T22:58:56	8	86
112390	2025-03-30T23:08:56	8.2	85.5
112391	2025-03-30T23:18:55	8.3	84.5
112392	2025-03-30T23:28:55	8.3	83.5
112393	2025-03-30T23:38:56	8.4	83.5
112394	2025-03-30T23:48:55	8.1	83.5
112395	2025-03-30T23:58:55	8	83
112396	2025-03-31T00:08:55	8.1	81.5
112397	2025-03-31T00:18:55	8.2	80.5
112398	2025-03-31T00:28:55	8.4	78.5
112399	2025-03-31T00:38:55	8.3	78
112400	2025-03-31T00:48:55	8.4	78
112401	2025-03-31T00:58:55	8.3	76.5
112402	2025-03-31T01:08:55	8.4	75.5
112403	2025-03-31T01:18:55	8.3	76
112404	2025-03-31T01:28:55	8.2	75.5
112405	2025-03-31T01:38:55	8.4	75.5
112406	2025-03-31T01:48:55	8.2	75.5
112407	2025-03-31T01:58:55	8	76.5
112408	2025-03-31T02:08:55	7.7	77
112409	2025-03-31T02:18:55	7.4	78
112410	2025-03-31T02:28:55	7.1	77.5
112411	2025-03-31T02:38:55	7.3	76.5
112412	2025-03-31T02:48:55	7.6	76.5
112413	2025-03-31T02:58:55	7.6	75.5
112414	2025-03-31T03:08:55	7.5	75.5
112415	2025-03-31T03:18:55	7.6	75
112416	2025-03-31T03:28:55	7.6	74.5
112417	2025-03-31T03:38:55	7.7	74
112418	2025-03-31T03:48:55	7.7	74
112419	2025-03-31T03:58:55	7.6	74
112420	2025-03-31T04:08:55	7.4	75
112421	2025-03-31T04:18:55	7.5	75.5
112422	2025-03-31T04:28:55	7.4	75.5
112423	2025-03-31T04:38:55	7.4	75
112424	2025-03-31T04:48:55	7.5	73.5
112425	2025-03-31T04:58:55	7.5	73.5
112426	2025-03-31T05:08:55	7.7	72
112427	2025-03-31T05:18:55	7.5	73
112428	2025-03-31T05:28:55	7.4	73.5
112429	2025-03-31T05:38:55	7.5	73
112430	2025-03-31T05:48:55	7.5	73
112431	2025-03-31T05:58:55	7.7	73
112432	2025-03-31T06:08:55	7.7	73.5
112433	2025-03-31T06:18:55	7.7	72
112434	2025-03-31T06:28:55	8	70.5
112435	2025-03-31T06:38:55	8.1	69.5
112436	2025-03-31T06:48:55	8.4	68
112437	2025-03-31T06:58:55	8.7	68
112438	2025-03-31T07:08:55	8.7	64.5
112439	2025-03-31T07:18:55	8.6	65
112440	2025-03-31T07:28:55	8.7	65.5
112441	2025-03-31T07:38:55	8.8	67
112442	2025-03-31T07:48:55	8.8	68
112443	2025-03-31T07:58:55	8.8	66.5
112444	2025-03-31T08:08:55	8.9	65.5
112445	2025-03-31T08:18:55	9	65
112446	2025-03-31T08:28:55	9.3	63.5
112447	2025-03-31T08:38:55	9.4	61
112448	2025-03-31T08:48:55	9.5	61
112449	2025-03-31T08:58:55	9.5	60
112450	2025-03-31T09:08:55	9.9	59
112451	2025-03-31T09:18:55	10.5	58.5
112452	2025-03-31T09:28:55	10.8	58.5
112453	2025-03-31T09:38:55	10.8	56.5
112454	2025-03-31T09:48:55	10.7	57
112455	2025-03-31T09:58:55	11.1	55
112456	2025-03-31T10:08:55	11.2	55
112457	2025-03-31T10:18:55	11.7	54
112458	2025-03-31T10:28:55	12	53
112459	2025-03-31T10:38:55	12.5	52.5
112460	2025-03-31T10:48:55	12.9	51
112461	2025-03-31T10:58:55	13.1	50
112462	2025-03-31T11:08:55	13.7	48
112463	2025-03-31T11:18:55	13.8	47.5
112464	2025-03-31T11:28:55	14	48
112465	2025-03-31T11:38:55	13.7	49
112466	2025-03-31T11:48:55	13.8	48
112467	2025-03-31T11:58:55	14	47
112468	2025-03-31T12:08:55	13.7	48.5
112469	2025-03-31T12:18:55	14	46.5
112470	2025-03-31T12:28:55	14.8	46.5
112471	2025-03-31T12:38:55	15.4	43
112472	2025-03-31T12:48:55	16.5	43
112473	2025-03-31T12:58:55	18.8	36.5
112474	2025-03-31T13:08:55	16.9	39
112475	2025-03-31T13:18:55	16	41.5
112476	2025-03-31T13:28:55	15.7	42
112477	2025-03-31T13:38:55	15.3	43
112478	2025-03-31T13:48:55	16.4	41
112479	2025-03-31T13:58:55	15.9	41.5
112480	2025-03-31T14:08:55	21.8	33.5
112481	2025-03-31T14:18:55	21.4	31.5
112482	2025-03-31T14:28:55	22.2	30.5
112483	2025-03-31T14:38:55	24	30
112484	2025-03-31T14:48:55	22	30
112485	2025-03-31T14:58:55	18.8	34.5
112486	2025-03-31T15:08:55	22	31
112487	2025-03-31T15:18:54	18.5	35.5
112488	2025-03-31T15:28:54	17.5	36.5
112489	2025-03-31T15:38:54	16.4	39
112490	2025-03-31T15:48:54	16	40.5
112491	2025-03-31T15:58:54	16.3	41
112492	2025-03-31T16:08:54	16.4	41
112493	2025-03-31T16:18:54	15.5	42.5
112494	2025-03-31T16:28:54	15.2	43
112495	2025-03-31T16:38:54	15	44.5
112496	2025-03-31T16:48:54	14.7	43.5
112497	2025-03-31T16:58:54	14.3	43
112498	2025-03-31T17:08:54	14	44
112499	2025-03-31T17:18:54	13.7	44.5
112500	2025-03-31T17:28:54	13.5	45
112501	2025-03-31T17:38:54	13.2	46.5
112502	2025-03-31T17:48:54	12.9	48
112503	2025-03-31T17:58:54	12.8	49
112504	2025-03-31T18:08:54	12.7	50.5
112505	2025-03-31T18:18:54	12.5	51
112506	2025-03-31T18:28:54	12.3	52
112507	2025-03-31T18:38:54	12.1	52
112508	2025-03-31T18:48:54	12	52
112509	2025-03-31T18:58:54	11.9	52.5
112510	2025-03-31T19:08:54	11.8	52
112511	2025-03-31T19:18:54	11.6	52.5
112512	2025-03-31T19:28:54	11.5	51.5
112513	2025-03-31T19:38:54	11.4	52.5
112514	2025-03-31T19:48:54	11.3	52
112515	2025-03-31T19:58:54	11.1	53
112516	2025-03-31T20:08:54	11.1	54.5
112517	2025-03-31T20:18:54	10.9	54
112518	2025-03-31T20:28:54	10.8	56
112519	2025-03-31T20:38:54	10.8	57
112520	2025-03-31T20:48:54	10.7	57
112521	2025-03-31T20:58:54	10.7	58
112522	2025-03-31T21:08:54	10.4	58.5
112523	2025-03-31T21:18:54	10.4	59.5
112524	2025-03-31T21:28:54	10.3	59.5
112525	2025-03-31T21:38:54	10.2	60
112526	2025-03-31T21:48:54	10.1	60.5
112527	2025-03-31T21:58:54	10	60.5
112528	2025-03-31T22:08:54	9.8	61.5
112529	2025-03-31T22:18:54	9.8	61.5
112530	2025-03-31T22:28:54	9.8	62
112531	2025-03-31T22:38:54	9.8	63.5
112532	2025-03-31T22:48:54	9.6	63.5
112533	2025-03-31T22:58:54	9.5	63.5
112534	2025-03-31T23:08:54	9.5	64.5
112535	2025-03-31T23:19:11	9.4	65
112536	2025-03-31T23:28:54	9.4	64
112537	2025-03-31T23:38:54	9.3	64.5
112538	2025-03-31T23:48:54	9.2	64.5
112539	2025-03-31T23:58:54	9.2	65.5
112540	2025-04-01T00:18:54	8.9	66.5
112541	2025-04-01T00:28:54	8.8	67
112542	2025-04-01T00:38:54	8.7	67.5
112543	2025-04-01T00:48:54	8.6	67.5
112544	2025-04-01T00:58:54	8.5	68
112545	2025-04-01T01:08:54	8.5	68.5
112546	2025-04-01T01:19:11	8.4	68.5
112547	2025-04-01T01:28:54	8.5	68.5
112548	2025-04-01T01:38:54	8.4	68.5
112549	2025-04-01T01:48:54	8.3	69
112550	2025-04-01T01:58:54	8.4	69.5
112551	2025-04-01T02:08:54	8.2	69
112552	2025-04-01T02:18:54	8.2	69.5
112553	2025-04-01T02:28:54	8.1	70.5
112554	2025-04-01T02:38:54	8	70
112555	2025-04-01T02:48:54	7.9	70
112556	2025-04-01T02:58:54	7.9	70.5
112557	2025-04-01T03:08:54	8	70
112558	2025-04-01T03:18:54	8	69
112559	2025-04-01T03:28:54	7.8	70.5
112560	2025-04-01T03:38:54	7.8	71
112561	2025-04-01T03:48:54	7.2	71.5
112562	2025-04-01T03:58:54	7	72
112563	2025-04-01T04:08:54	6.7	73.5
112564	2025-04-01T04:18:54	6.4	75
112565	2025-04-01T04:28:54	6.1	76
112566	2025-04-01T04:38:54	5.9	76
112567	2025-04-01T04:48:54	5.8	75.5
112568	2025-04-01T04:58:54	5.7	75
112569	2025-04-01T05:08:54	5.7	74.5
112570	2025-04-01T05:18:54	5.7	74.5
112571	2025-04-01T05:28:54	6.1	74
112572	2025-04-01T05:38:54	6.2	73.5
112573	2025-04-01T05:48:54	6.5	73.5
112574	2025-04-01T05:58:54	6.7	72.5
112575	2025-04-01T06:08:54	7	71
112576	2025-04-01T06:18:54	7	70.5
112577	2025-04-01T06:28:54	7	71
112578	2025-04-01T06:38:54	7.5	70.5
112579	2025-04-01T06:48:54	7.7	69
112580	2025-04-01T06:58:54	7.8	68
112581	2025-04-01T07:08:54	7.7	68
112582	2025-04-01T07:18:54	7.9	68
112583	2025-04-01T07:28:54	8	68
112584	2025-04-01T07:38:54	8.2	67
112585	2025-04-01T07:48:54	8.3	66.5
112586	2025-04-01T07:58:54	8.7	66.5
112587	2025-04-01T08:08:54	9	66
112588	2025-04-01T08:18:53	9.1	65
112589	2025-04-01T08:28:53	9.4	65
112590	2025-04-01T08:38:53	9.4	64
112591	2025-04-01T08:48:53	9.4	64.5
112592	2025-04-01T08:58:53	9.6	64.5
112593	2025-04-01T09:08:53	9.8	62.5
112594	2025-04-01T09:18:53	10	61
112595	2025-04-01T09:28:53	9.9	60.5
112596	2025-04-01T09:38:53	10.3	61.5
112597	2025-04-01T09:48:53	10.5	61
112598	2025-04-01T09:58:53	11.2	58
112599	2025-04-01T10:08:53	11.3	56.5
112600	2025-04-01T10:18:53	11.8	52.5
112601	2025-04-01T10:28:53	12.1	56
112602	2025-04-01T10:38:53	12	57
112603	2025-04-01T10:48:53	11.9	55.5
112604	2025-04-01T10:58:53	11.6	55.5
112605	2025-04-01T11:08:53	11.5	56
112606	2025-04-01T11:18:53	12.4	54
112607	2025-04-01T11:28:53	12.7	53
112608	2025-04-01T11:38:53	13.2	51
112609	2025-04-01T11:48:53	13.5	50
112610	2025-04-01T11:58:53	13.3	49.5
112611	2025-04-01T12:08:53	13.7	47
112612	2025-04-01T12:18:53	17.1	41.5
112613	2025-04-01T12:28:53	17.6	40
112614	2025-04-01T12:38:53	15.3	43.5
112615	2025-04-01T12:48:53	14.5	45
112616	2025-04-01T12:58:53	18.9	36.5
112617	2025-04-01T13:08:53	16.3	41.5
112618	2025-04-01T13:18:53	15.4	43
112619	2025-04-01T13:28:53	21.8	33
112620	2025-04-01T13:38:53	21.3	33.5
112621	2025-04-01T13:48:53	18.9	36.5
112622	2025-04-01T13:58:53	17	39.5
112623	2025-04-01T14:08:53	18.9	37.5
112624	2025-04-01T14:18:53	17	38
112625	2025-04-01T14:28:53	16.1	41.5
112626	2025-04-01T14:38:53	17.1	41.5
112627	2025-04-01T14:48:53	16.8	40.5
112628	2025-04-01T14:58:53	16	41.5
112629	2025-04-01T15:08:53	17.9	40
112630	2025-04-01T15:18:53	15.7	43
112631	2025-04-01T15:28:53	18.4	39
112632	2025-04-01T15:38:53	21.7	33.5
112633	2025-04-01T15:58:53	16.1	41.5
112634	2025-04-01T16:08:53	17.4	41.5
112635	2025-04-01T16:18:53	18.2	39
112636	2025-04-01T16:28:53	16.4	43
112637	2025-04-01T16:48:53	18	39
112638	2025-04-01T16:58:53	17.5	39
112639	2025-04-01T17:08:53	17.4	39.5
112640	2025-04-01T17:18:53	15.7	42.5
112641	2025-04-01T17:28:53	14.7	46
112642	2025-04-01T17:38:53	13.9	46
112643	2025-04-01T17:48:53	13.4	48.5
112644	2025-04-01T17:58:53	13	50.5
112645	2025-04-01T18:08:53	12.5	51.5
112646	2025-04-01T18:18:53	12.2	53
112647	2025-04-01T18:28:53	11.8	53.5
112648	2025-04-01T18:38:53	11.7	54.5
112649	2025-04-01T18:48:53	11.4	53
112650	2025-04-01T18:58:53	11.3	53
112651	2025-04-01T19:08:53	11	53
112652	2025-04-01T19:18:53	10.8	52.5
112653	2025-04-01T19:28:53	10.7	53
112654	2025-04-01T19:38:53	10.5	53.5
112655	2025-04-01T19:48:53	10.3	53
112656	2025-04-01T19:58:53	10.2	53.5
112657	2025-04-01T20:08:53	10.2	54.5
112658	2025-04-01T20:18:53	10	56.5
112659	2025-04-01T20:28:53	9.6	57
112660	2025-04-01T20:38:53	9.6	58.5
112661	2025-04-01T20:48:53	9.3	60
112662	2025-04-01T20:58:53	9.3	61
112663	2025-04-01T21:08:53	9.1	61.5
112664	2025-04-01T21:18:52	9	62
112665	2025-04-01T21:28:53	9	62.5
112666	2025-04-01T21:38:52	8.7	62.5
112667	2025-04-01T21:48:52	8.8	62.5
112668	2025-04-01T21:58:52	8.6	62.5
112669	2025-04-01T22:08:52	8.4	63
112670	2025-04-01T22:18:53	8.4	63.5
112671	2025-04-01T22:28:52	8.3	64
112672	2025-04-01T22:38:52	8.1	64
112673	2025-04-01T22:48:52	8	64.5
112674	2025-04-01T22:58:52	7.9	65.5
112675	2025-04-01T23:08:52	7.8	65.5
112676	2025-04-01T23:18:52	7.6	66.5
112677	2025-04-01T23:28:52	7.5	67
112678	2025-04-01T23:38:52	7.4	67
112679	2025-04-01T23:48:52	7.3	68
112680	2025-04-01T23:58:52	7	68.5
112681	2025-04-02T00:08:52	7.1	68.5
112682	2025-04-02T00:18:52	7	68.5
112683	2025-04-02T00:28:52	6.9	69.5
112684	2025-04-02T00:38:52	6.9	70
112685	2025-04-02T00:48:52	6.7	70
112686	2025-04-02T00:58:52	6.7	70.5
112687	2025-04-02T01:08:52	6.7	70.5
112688	2025-04-02T01:18:52	6.7	70.5
112689	2025-04-02T01:28:52	6.6	70.5
112690	2025-04-02T01:38:52	6.5	71
112691	2025-04-02T01:48:52	6.5	71
112692	2025-04-02T01:58:52	6.6	71
112693	2025-04-02T02:08:52	6.5	71
112694	2025-04-02T02:18:52	6.5	71
112695	2025-04-02T02:28:52	6.4	71
112696	2025-04-02T02:38:52	6.4	72
112697	2025-04-02T02:48:52	6.3	72.5
112698	2025-04-02T02:58:52	6.3	73
112699	2025-04-02T03:08:52	6.2	73.5
112700	2025-04-02T03:18:52	6.2	73.5
112701	2025-04-02T03:28:52	6.1	74
112702	2025-04-02T03:38:52	6.2	74
112703	2025-04-02T03:48:52	5.9	75
112704	2025-04-02T03:58:52	6.2	74.5
112705	2025-04-02T04:08:52	6	75.5
112706	2025-04-02T04:18:52	5.8	76.5
112707	2025-04-02T04:28:52	5.8	76.5
112708	2025-04-02T04:38:52	5.5	78
112709	2025-04-02T04:48:52	5.6	78
112710	2025-04-02T04:58:52	5.6	78
112711	2025-04-02T05:08:52	5.6	78.5
112712	2025-04-02T05:18:52	5.6	79.5
112713	2025-04-02T05:28:52	5.7	80
112714	2025-04-02T05:38:52	5.9	79.5
112715	2025-04-02T05:48:52	6.1	79.5
112716	2025-04-02T05:58:52	6.3	78.5
112717	2025-04-02T06:08:52	6.5	78
112718	2025-04-02T06:18:52	6.8	77.5
112719	2025-04-02T06:28:52	7.1	77
112720	2025-04-02T06:38:52	7.2	76.5
112721	2025-04-02T06:48:52	7.5	76
112722	2025-04-02T06:58:52	7.7	75.5
112723	2025-04-02T07:08:52	8	74
112724	2025-04-02T07:18:52	8.2	73.5
112725	2025-04-02T07:28:52	8.3	73
112726	2025-04-02T07:38:52	8.8	73
112727	2025-04-02T07:48:52	9	72.5
112728	2025-04-02T07:58:52	9.3	71.5
112729	2025-04-02T08:08:52	9.7	70.5
112730	2025-04-02T08:18:52	9.9	70
112731	2025-04-02T08:28:52	10.2	68.5
112732	2025-04-02T08:38:52	10.5	68
112733	2025-04-02T08:48:52	10.9	67.5
112734	2025-04-02T08:58:52	11	67
112735	2025-04-02T09:08:52	11.3	66.5
112736	2025-04-02T09:18:52	11.7	65.5
112737	2025-04-02T09:28:52	11.9	64.5
112738	2025-04-02T09:38:52	12.1	63.5
112739	2025-04-02T09:48:52	12.5	63
112740	2025-04-02T09:58:52	12.9	61.5
112741	2025-04-02T10:08:52	13.2	61
112742	2025-04-02T10:18:52	13.4	59.5
112743	2025-04-02T10:28:52	13.7	59
112744	2025-04-02T10:38:52	14	56.5
112745	2025-04-02T10:48:52	14.5	55.5
112746	2025-04-02T10:58:52	14.8	54
112747	2025-04-02T11:08:52	15.1	53
112748	2025-04-02T11:18:52	15.3	52.5
112749	2025-04-02T11:28:52	15.8	50
112750	2025-04-02T11:38:52	16	49.5
112751	2025-04-02T11:48:52	16.4	47
112752	2025-04-02T11:58:52	16.8	45
112753	2025-04-02T12:08:52	17.4	44
112754	2025-04-02T12:18:52	24.7	33
112755	2025-04-02T12:28:52	27	28.5
112756	2025-04-02T12:38:52	28	26.5
112757	2025-04-02T12:48:52	30.1	25.5
112758	2025-04-02T12:58:52	30.3	23.5
112759	2025-04-02T13:08:52	31.3	23
112760	2025-04-02T13:18:52	31.4	23
112761	2025-04-02T13:28:52	31.4	23
112762	2025-04-02T13:38:52	31.8	22.5
112763	2025-04-02T13:48:52	31.2	23.5
112764	2025-04-02T13:58:52	32.4	23
112765	2025-04-02T14:08:52	32.9	22
112766	2025-04-02T14:18:51	32.5	22.5
112767	2025-04-02T14:28:51	31.1	23
112768	2025-04-02T14:38:51	30.7	23.5
112769	2025-04-02T14:48:51	30.3	24
112770	2025-04-02T14:58:51	31.7	23.5
112771	2025-04-02T15:08:51	31.1	24
112772	2025-04-02T15:18:51	30.4	24
112773	2025-04-02T15:28:51	30.4	23.5
112774	2025-04-02T15:38:51	30	24.5
112775	2025-04-02T15:48:51	29.4	24
112776	2025-04-02T15:58:51	28.9	25
112777	2025-04-02T16:08:51	27.9	26
112778	2025-04-02T16:18:51	27.5	26.5
112779	2025-04-02T16:28:51	27.4	27
112780	2025-04-02T16:38:51	26.4	28.5
112781	2025-04-02T16:48:51	24.9	30
112782	2025-04-02T16:58:51	24.3	32
112783	2025-04-02T17:08:51	23.1	33.5
112784	2025-04-02T17:18:51	21.8	36
112785	2025-04-02T17:28:51	20.8	37
112786	2025-04-02T17:38:51	19.7	39
112787	2025-04-02T17:48:51	19.1	40.5
112788	2025-04-02T17:58:51	18.6	41
112789	2025-04-02T18:08:51	18.1	43
112790	2025-04-02T18:18:51	17.5	44
112791	2025-04-02T18:28:51	17.1	44.5
112792	2025-04-02T18:38:51	16.9	44
112793	2025-04-02T18:48:51	16.6	45.5
112794	2025-04-02T18:58:51	16.4	45.5
112795	2025-04-02T19:08:51	16.1	46
112796	2025-04-02T19:18:51	15.8	47.5
112797	2025-04-02T19:28:51	15.6	47.5
112798	2025-04-02T19:38:51	15.3	49
112799	2025-04-02T19:48:51	15	49.5
112800	2025-04-02T19:58:51	14.9	51
112801	2025-04-02T20:08:51	14.6	52
112802	2025-04-02T20:18:51	14.4	53
112803	2025-04-02T20:28:51	14.2	54
112804	2025-04-02T20:38:51	13.9	55
112805	2025-04-02T20:48:51	13.8	56
112806	2025-04-02T20:58:51	13.5	57
112807	2025-04-02T21:08:51	13.4	58
112808	2025-04-02T21:18:51	13.2	58.5
112809	2025-04-02T21:28:51	13	59.5
112810	2025-04-02T21:38:51	12.8	60.5
112811	2025-04-02T21:48:51	12.7	61
112812	2025-04-02T21:58:51	12.5	61.5
112813	2025-04-02T22:08:51	12.3	61.5
112814	2025-04-02T22:18:51	12.2	62.5
112815	2025-04-02T22:28:51	12.2	62.5
112816	2025-04-02T22:38:51	12.1	63
112817	2025-04-02T22:48:51	11.9	64
112818	2025-04-02T22:58:51	11.8	64.5
112819	2025-04-02T23:08:51	11.7	64.5
112820	2025-04-02T23:18:51	11.7	64.5
112821	2025-04-02T23:28:51	11.6	65
112822	2025-04-02T23:38:51	11.5	65.5
112823	2025-04-02T23:48:51	11.2	66.5
112824	2025-04-02T23:58:51	11.1	67
112825	2025-04-03T00:08:51	10.9	68
112826	2025-04-03T00:18:51	10.8	68
112827	2025-04-03T00:28:51	10.6	68.5
112828	2025-04-03T00:38:51	10.5	69
112829	2025-04-03T00:48:51	10.5	69
112830	2025-04-03T00:58:51	10.4	69
112831	2025-04-03T01:08:51	10.4	69.5
112832	2025-04-03T01:18:51	10.2	70
112833	2025-04-03T01:28:51	10.1	70
112834	2025-04-03T01:38:51	10	70.5
112835	2025-04-03T01:48:51	9.8	71
112836	2025-04-03T01:58:51	9.8	71
112837	2025-04-03T02:08:51	9.6	71.5
112838	2025-04-03T02:18:51	9.6	72
112839	2025-04-03T02:28:51	9.4	72
112840	2025-04-03T02:38:51	9.4	72
112841	2025-04-03T02:48:50	9.2	72.5
112842	2025-04-03T02:58:51	9.2	73
112843	2025-04-03T03:08:50	9	73.5
112844	2025-04-03T03:18:50	8.9	74
112845	2025-04-03T03:28:50	8.8	74
112846	2025-04-03T03:38:50	8.8	74
112847	2025-04-03T03:48:50	8.6	74.5
112848	2025-04-03T03:58:50	8.6	74.5
112849	2025-04-03T04:08:50	8.5	74.5
112850	2025-04-03T04:18:50	8.5	74.5
112851	2025-04-03T04:28:50	8.4	75
112852	2025-04-03T04:38:50	8.3	74.5
112853	2025-04-03T04:48:50	8.2	75
112854	2025-04-03T04:58:50	8.3	74.5
112855	2025-04-03T05:08:50	8.3	75
112856	2025-04-03T05:18:50	8.2	74.5
112857	2025-04-03T05:28:50	8.4	74
112858	2025-04-03T05:38:50	8.5	73.5
112859	2025-04-03T05:48:50	8.5	73
112860	2025-04-03T05:58:50	8.6	72
112861	2025-04-03T06:08:50	8.8	71
112862	2025-04-03T06:18:50	8.9	71.5
112863	2025-04-03T06:28:50	9.1	71
112864	2025-04-03T06:38:50	9.4	70
112865	2025-04-03T06:48:50	9.7	69
112866	2025-04-03T06:58:50	10	68.5
112867	2025-04-03T07:08:50	10.2	67
112868	2025-04-03T07:18:50	10.3	67
112869	2025-04-03T07:28:50	10.6	67
112870	2025-04-03T07:38:50	10.9	67
112871	2025-04-03T07:48:50	11	66.5
112872	2025-04-03T07:58:50	11.2	66
112873	2025-04-03T08:08:50	11.3	66
112874	2025-04-03T08:18:50	11.5	66.5
112875	2025-04-03T08:28:50	11.9	64.5
112876	2025-04-03T08:38:50	12.1	64
112877	2025-04-03T08:48:50	12.3	63
112878	2025-04-03T08:58:50	12.6	62.5
112879	2025-04-03T09:08:50	13.1	61.5
112880	2025-04-03T09:18:50	13.3	60.5
112881	2025-04-03T09:28:50	13.6	61
112882	2025-04-03T09:38:50	13.8	60.5
112883	2025-04-03T09:48:50	14	59.5
112884	2025-04-03T09:58:50	14.3	59.5
112885	2025-04-03T10:08:50	14.6	57.5
112886	2025-04-03T10:18:50	14.9	57
112887	2025-04-03T10:28:50	15.1	57.5
112888	2025-04-03T10:38:50	15.4	54.5
112889	2025-04-03T10:48:50	15.8	56
112890	2025-04-03T10:58:50	16.1	57
112891	2025-04-03T11:08:50	16.4	54.5
112892	2025-04-03T11:18:50	16.9	52.5
112893	2025-04-03T11:28:50	17.2	52
112894	2025-04-03T11:38:50	17.6	49.5
112895	2025-04-03T11:48:50	18	49.5
112896	2025-04-03T11:58:50	18.5	49
112897	2025-04-03T12:08:50	19.3	45.5
112898	2025-04-03T12:18:50	27.3	34
112899	2025-04-03T12:28:50	30.7	27.5
112900	2025-04-03T12:38:50	32.8	26
112901	2025-04-03T12:48:50	33.9	24.5
112902	2025-04-03T12:58:50	35.2	23.5
112903	2025-04-03T13:08:50	36.1	22
112904	2025-04-03T13:18:50	36.9	21
112905	2025-04-03T13:28:50	36.9	20.5
112906	2025-04-03T13:38:50	37.8	19.5
112907	2025-04-03T13:48:50	38.2	18.5
112908	2025-04-03T13:58:50	38.6	18.5
112909	2025-04-03T14:08:50	39.1	18.5
112910	2025-04-03T14:18:50	39.2	18
112911	2025-04-03T14:28:50	38.3	17.5
112912	2025-04-03T14:38:50	38.8	16
112913	2025-04-03T14:48:50	39.2	17
112914	2025-04-03T14:58:50	38.8	17.5
112915	2025-04-03T15:08:50	38.1	17
112916	2025-04-03T15:18:50	37.9	17
112917	2025-04-03T15:28:50	37.1	18.5
112918	2025-04-03T15:38:50	36.7	18
112919	2025-04-03T15:48:50	36	19.5
112920	2025-04-03T15:58:50	35.8	19
112921	2025-04-03T16:08:50	35	19.5
112922	2025-04-03T16:18:50	33.9	20
112923	2025-04-03T16:28:49	33.4	21
112924	2025-04-03T16:38:49	31.4	22
112925	2025-04-03T16:48:49	30.8	23
112926	2025-04-03T16:58:49	28.8	25
112927	2025-04-03T17:08:49	29.1	25
112928	2025-04-03T17:18:49	27.6	26.5
112929	2025-04-03T17:28:49	26.6	28
112930	2025-04-03T17:38:49	25.1	29.5
112931	2025-04-03T17:48:49	24.1	31.5
112932	2025-04-03T17:58:49	23.1	33
112933	2025-04-03T18:08:49	22.4	34.5
112934	2025-04-03T18:18:49	22.1	35
112935	2025-04-03T18:28:49	21.6	36
112936	2025-04-03T18:38:49	21.3	36.5
112937	2025-04-03T18:48:49	20.9	37.5
112938	2025-04-03T18:58:49	20.3	39
112939	2025-04-03T19:08:49	19.8	41
112940	2025-04-03T19:18:49	19.4	43
112941	2025-04-03T19:28:49	19	44.5
112942	2025-04-03T19:38:49	18.6	45.5
112943	2025-04-03T19:48:49	18.1	47
112944	2025-04-03T19:58:49	17.7	47
112945	2025-04-03T20:08:49	17.1	47.5
112946	2025-04-03T20:19:09	16.9	48.5
112947	2025-04-03T20:28:49	16.7	48.5
112948	2025-04-03T20:38:49	16.4	49
112949	2025-04-03T20:48:49	16.2	50
112950	2025-04-03T20:58:49	15.8	51
112951	2025-04-03T21:08:49	15.5	52
112952	2025-04-03T21:18:49	15.2	52.5
112953	2025-04-03T21:28:49	14.6	54
112954	2025-04-03T21:38:49	14.3	55
112955	2025-04-03T21:48:49	14.1	56
112956	2025-04-03T21:58:49	14	56
112957	2025-04-03T22:08:49	14	55.5
112958	2025-04-03T22:18:49	14.1	54.5
112959	2025-04-03T22:28:49	13.9	55
112960	2025-04-03T22:38:49	13.8	55
112961	2025-04-03T22:48:49	13.7	55
112962	2025-04-03T22:58:49	13.6	55.5
112963	2025-04-03T23:08:49	13.2	57
112964	2025-04-03T23:18:49	12.8	59
112965	2025-04-03T23:28:49	12.6	59.5
112966	2025-04-03T23:38:49	12.1	60.5
112967	2025-04-03T23:48:49	12	61
112968	2025-04-03T23:58:49	11.9	61.5
112969	2025-04-04T00:08:49	11.5	61
112970	2025-04-04T00:18:49	11.6	62.5
112971	2025-04-04T00:28:49	11.4	62
112972	2025-04-04T00:39:06	11.3	62.5
112973	2025-04-04T00:48:49	11.1	62.5
112974	2025-04-04T00:58:49	10.9	63.5
112975	2025-04-04T01:08:49	10.6	63.5
112976	2025-04-04T01:18:49	10.5	64
112977	2025-04-04T01:28:49	10.3	64.5
112978	2025-04-04T01:38:49	10	65.5
112979	2025-04-04T01:48:49	9.9	66
112980	2025-04-04T01:58:49	9.7	66.5
112981	2025-04-04T02:08:49	9.5	67
112982	2025-04-04T02:18:49	9.4	67
112983	2025-04-04T02:28:49	9.4	67.5
112984	2025-04-04T02:38:49	9.2	67
112985	2025-04-04T02:48:49	9.2	67.5
112986	2025-04-04T02:58:49	9.1	67
112987	2025-04-04T03:08:49	8.9	67.5
112988	2025-04-04T03:18:49	8.8	68.5
112989	2025-04-04T03:28:49	8.6	69
112990	2025-04-04T03:38:49	8.4	69.5
112991	2025-04-04T03:48:49	8.4	69.5
112992	2025-04-04T03:58:49	8.2	70
112993	2025-04-04T04:08:49	8	70
112994	2025-04-04T04:18:49	8.1	70.5
112995	2025-04-04T04:28:49	8.2	70.5
112996	2025-04-04T04:38:49	8.2	69.5
112997	2025-04-04T04:48:49	8.1	69.5
112998	2025-04-04T04:59:06	8.1	70
112999	2025-04-04T05:08:49	8.1	70
113000	2025-04-04T05:18:49	8.1	69.5
113001	2025-04-04T05:28:49	8.1	70
113002	2025-04-04T05:38:49	8.3	68.5
113003	2025-04-04T05:48:49	8.4	69
113004	2025-04-04T05:58:48	8.5	68.5
113005	2025-04-04T06:08:48	8.8	68
113006	2025-04-04T06:18:48	9.1	67.5
113007	2025-04-04T06:28:48	9.6	66.5
113008	2025-04-04T06:38:48	9.8	66
113009	2025-04-04T06:48:48	10.2	65.5
113010	2025-04-04T06:58:48	10.5	64.5
113011	2025-04-04T07:08:48	10.9	65
113012	2025-04-04T07:18:48	11.4	62
113013	2025-04-04T07:28:48	11.6	63
113014	2025-04-04T07:38:48	12.1	64.5
113015	2025-04-04T07:48:48	12.4	62
113016	2025-04-04T07:58:48	12.7	62.5
113017	2025-04-04T08:08:48	12.9	61.5
113018	2025-04-04T08:18:48	13.2	60.5
113019	2025-04-04T08:28:48	13.6	59
113020	2025-04-04T08:38:48	13.9	59
113021	2025-04-04T08:48:48	14.3	57.5
113022	2025-04-04T08:58:48	14.4	57
113023	2025-04-04T09:08:48	14.9	58
113024	2025-04-04T09:18:48	15.1	57.5
113025	2025-04-04T09:28:48	15.2	56
113026	2025-04-04T09:38:48	15.5	55.5
113027	2025-04-04T09:48:48	15.9	53.5
113028	2025-04-04T09:58:48	16.2	52
113029	2025-04-04T10:08:48	16.6	50.5
113030	2025-04-04T10:18:48	16.8	49
113031	2025-04-04T10:28:48	17.1	49
113032	2025-04-04T10:38:48	17.3	56.5
113033	2025-04-04T10:48:48	17.4	55.5
113034	2025-04-04T10:58:48	17.3	49
113035	2025-04-04T11:08:48	17.5	58.5
113036	2025-04-04T11:18:48	17.9	52
113037	2025-04-04T11:28:48	18.4	50.5
113038	2025-04-04T11:38:48	18.6	49.5
113039	2025-04-04T11:48:48	19.1	48
113040	2025-04-04T11:58:48	19.4	53
113041	2025-04-04T12:08:48	20.1	47
113042	2025-04-04T12:18:48	28.5	35.5
113043	2025-04-04T12:28:48	31.4	26.5
113044	2025-04-04T12:38:48	33.1	24.5
113045	2025-04-04T12:48:48	34.5	22.5
113046	2025-04-04T12:58:48	34.8	22
113047	2025-04-04T13:08:48	35.8	21.5
113048	2025-04-04T13:18:48	36.6	20
113049	2025-04-04T13:28:48	35.9	20
113050	2025-04-04T13:38:48	37.1	20
113051	2025-04-04T13:48:48	36.7	19
113052	2025-04-04T13:58:48	36.7	19.5
113053	2025-04-04T14:08:48	37.7	18
113054	2025-04-04T14:18:48	38.3	18.5
113055	2025-04-04T14:28:48	39	18
113056	2025-04-04T14:38:48	38.9	17
113057	2025-04-04T14:48:48	38.8	17
113058	2025-04-04T14:58:48	37.6	18
113059	2025-04-04T15:08:48	38.3	17.5
113060	2025-04-04T15:18:48	38.2	17
113061	2025-04-04T15:28:48	37.9	17
113062	2025-04-04T15:38:48	37.9	17
113063	2025-04-04T15:48:48	37.7	19.5
113064	2025-04-04T15:58:48	37.3	18.5
113065	2025-04-04T16:08:48	35.8	20.5
113066	2025-04-04T16:18:48	34.9	21
113067	2025-04-04T16:28:48	34.4	21.5
113068	2025-04-04T16:38:48	33.5	22
113069	2025-04-04T16:48:48	32.2	23
113070	2025-04-04T16:58:48	31.1	24.5
113071	2025-04-04T17:08:48	30.4	25
113072	2025-04-04T17:18:48	29.4	26
113073	2025-04-04T17:28:48	28.3	27
113074	2025-04-04T17:38:48	26.6	29.5
113075	2025-04-04T17:48:47	25.7	30.5
113076	2025-04-04T17:58:47	24.8	32.5
113077	2025-04-04T18:08:47	24.3	34
113078	2025-04-04T18:18:47	23.7	36
113079	2025-04-04T18:28:47	23.2	38.5
113080	2025-04-04T18:38:47	22.6	39.5
113081	2025-04-04T18:48:47	22.1	41
113082	2025-04-04T18:58:47	21.7	41.5
113083	2025-04-04T19:08:47	21.3	41.5
113084	2025-04-04T19:18:47	20.7	42.5
113085	2025-04-04T19:28:47	20.3	43
113086	2025-04-04T19:38:47	20	43
113087	2025-04-04T19:48:47	19.5	46
113088	2025-04-04T19:58:47	19	46.5
113089	2025-04-04T20:08:47	18.7	46
113090	2025-04-04T20:18:47	18.3	45
113091	2025-04-04T20:28:47	18	47.5
113092	2025-04-04T20:38:47	17.8	48
113093	2025-04-04T20:48:47	17.3	49
113094	2025-04-04T20:58:47	17.1	49.5
113095	2025-04-04T21:08:47	16.8	50.5
113096	2025-04-04T21:18:47	16.3	51.5
113097	2025-04-04T21:28:47	16.2	52
113098	2025-04-04T21:38:47	15.9	52
113099	2025-04-04T21:48:47	15.6	53.5
113100	2025-04-04T21:58:47	15.2	53.5
113101	2025-04-04T22:08:47	15	54
113102	2025-04-04T22:18:47	14.7	54.5
113103	2025-04-04T22:28:47	14.5	55
113104	2025-04-04T22:38:47	14.2	55.5
113105	2025-04-04T22:48:47	14	56.5
113106	2025-04-04T22:58:47	13.8	57
113107	2025-04-04T23:08:47	13.4	57
113108	2025-04-04T23:18:47	13.2	58
113109	2025-04-04T23:28:47	12.9	58.5
113110	2025-04-04T23:38:47	12.8	59
113111	2025-04-04T23:48:47	12.5	59.5
113112	2025-04-04T23:58:47	12.3	59
113113	2025-04-05T00:08:47	12.3	59
113114	2025-04-05T00:18:47	12.1	59.5
113115	2025-04-05T00:28:47	12	60
113116	2025-04-05T00:38:47	11.5	60.5
113117	2025-04-05T00:48:47	11.4	61
113118	2025-04-05T00:58:47	11.2	61.5
113119	2025-04-05T01:08:47	11.2	62
113120	2025-04-05T01:18:47	11.1	63.5
113121	2025-04-05T01:28:47	10.1	67
113122	2025-04-05T01:38:47	10.3	67
113123	2025-04-05T01:48:47	10.2	67
113124	2025-04-05T01:58:47	9.9	67
113125	2025-04-05T02:08:47	9.7	67.5
113126	2025-04-05T02:18:47	9.7	66.5
113127	2025-04-05T02:28:47	9.5	67
113128	2025-04-05T02:38:47	9.3	67.5
113129	2025-04-05T02:48:47	9.2	67.5
113130	2025-04-05T02:58:47	9.1	67.5
113131	2025-04-05T03:08:47	8.7	68.5
113132	2025-04-05T03:18:47	8.5	69
113133	2025-04-05T03:28:47	8.4	70.5
113134	2025-04-05T03:38:47	8.3	71
113135	2025-04-05T03:48:47	8	71.5
113136	2025-04-05T03:58:47	8	71
113137	2025-04-05T04:08:47	7.9	72
113138	2025-04-05T04:18:47	7.7	72.5
113139	2025-04-05T04:28:47	7.7	72
113140	2025-04-05T04:38:47	7.6	72
113141	2025-04-05T04:48:47	7.6	71.5
113142	2025-04-05T04:58:47	7.5	71.5
113143	2025-04-05T05:08:47	7.6	71.5
113144	2025-04-05T05:19:03	7.6	72
113145	2025-04-05T05:28:47	7.6	73
113146	2025-04-05T05:38:47	7.6	72.5
113147	2025-04-05T05:48:47	7.6	72.5
113148	2025-04-05T05:58:47	7.5	73.5
113149	2025-04-05T06:08:47	7.7	74
113150	2025-04-05T06:18:47	7.9	73.5
113151	2025-04-05T06:28:47	8.1	72.5
113152	2025-04-05T06:38:47	8.3	72
113153	2025-04-05T06:48:47	8.7	71
113154	2025-04-05T06:58:47	9	71
113155	2025-04-05T07:08:47	9.1	70
113156	2025-04-05T07:18:47	9.4	69
113157	2025-04-05T07:28:47	9.9	69
113158	2025-04-05T07:38:47	10.1	67
113159	2025-04-05T07:48:47	10.3	67
113160	2025-04-05T07:58:47	10.6	65
113161	2025-04-05T08:08:47	10.9	66.5
113162	2025-04-05T08:18:47	11.3	65.5
113163	2025-04-05T08:28:46	11.7	64.5
113164	2025-04-05T08:38:46	12	66
113165	2025-04-05T08:48:46	12.4	63.5
113166	2025-04-05T08:58:46	12.8	62
113167	2025-04-05T09:08:46	13.3	60.5
113168	2025-04-05T09:18:46	13.9	57.5
113169	2025-04-05T09:28:46	14.3	57
113170	2025-04-05T09:38:46	14.5	58
113171	2025-04-05T09:48:46	14.8	58
113172	2025-04-05T09:58:46	15.1	58
113173	2025-04-05T10:08:46	15.7	58
113174	2025-04-05T10:18:46	16.1	56
113175	2025-04-05T10:28:46	16.5	54.5
113176	2025-04-05T10:38:46	16.5	55
113177	2025-04-05T10:48:46	16.8	53.5
113178	2025-04-05T10:58:46	17.4	53
113179	2025-04-05T11:08:46	17.6	51.5
113180	2025-04-05T11:18:46	17.9	53
113181	2025-04-05T11:28:46	18.5	49.5
113182	2025-04-05T11:39:06	18.8	47.5
113183	2025-04-05T11:48:46	19.2	47.5
113184	2025-04-05T11:58:46	19.7	46.5
113185	2025-04-05T12:08:46	20.5	45
113186	2025-04-05T12:18:46	28.8	31
113187	2025-04-05T12:28:46	33	26
113188	2025-04-05T12:38:46	34.6	23
113189	2025-04-05T12:48:46	35.5	22
113190	2025-04-05T12:58:46	35.8	20.5
113191	2025-04-05T13:08:46	34.7	20.5
113192	2025-04-05T13:18:46	37.3	19.5
113193	2025-04-05T13:28:46	37.8	19.5
113194	2025-04-05T13:38:46	37.2	18.5
113195	2025-04-05T13:48:46	34	18.5
113196	2025-04-05T13:58:46	33.3	21
113197	2025-04-05T14:08:46	35.8	18
113198	2025-04-05T14:18:46	33.4	20.5
113199	2025-04-05T14:28:46	32.7	22
113200	2025-04-05T14:38:46	32.9	20.5
113201	2025-04-05T14:48:46	33.3	22
113202	2025-04-05T14:58:46	32.9	22
113203	2025-04-05T15:08:46	34	19.5
113204	2025-04-05T15:18:46	32.5	22
113205	2025-04-05T15:28:46	32.3	23
113206	2025-04-05T15:38:46	31.7	25
113207	2025-04-05T15:48:46	28.8	27
113208	2025-04-05T15:58:46	31.8	25.5
113209	2025-04-05T16:08:46	30	25
113210	2025-04-05T16:18:46	27.3	28
113211	2025-04-05T16:28:46	26.9	30
113212	2025-04-05T16:38:46	26.5	30.5
113213	2025-04-05T16:48:46	27.4	29
113214	2025-04-05T16:58:46	27.2	29
113215	2025-04-05T17:08:46	27.4	28
113216	2025-04-05T17:18:46	25.3	28.5
113217	2025-04-05T17:28:46	24.5	29.5
113218	2025-04-05T17:38:46	23.6	29.5
113219	2025-04-05T17:48:46	23	28.5
113220	2025-04-05T17:58:46	22.5	29
113221	2025-04-05T18:08:46	22	30
113222	2025-04-05T18:18:46	21.5	31.5
113223	2025-04-05T18:28:46	21.1	32
113224	2025-04-05T18:38:46	20.7	32.5
113225	2025-04-05T18:48:46	20.2	38
113226	2025-04-05T18:58:46	19.3	37
113227	2025-04-05T19:08:46	18.9	37.5
113228	2025-04-05T19:18:45	18.4	37
113229	2025-04-05T19:28:45	17.7	38
113230	2025-04-05T19:38:45	17	36.5
113231	2025-04-05T19:48:45	16.6	38
113232	2025-04-05T19:58:45	16.3	36.5
113233	2025-04-05T20:08:46	16.1	38
113234	2025-04-05T20:18:45	15.8	38.5
113235	2025-04-05T20:28:45	15.2	39
113236	2025-04-05T20:38:45	15	39.5
113237	2025-04-05T20:48:45	14.7	40.5
113238	2025-04-05T20:58:45	14.4	41.5
113239	2025-04-05T21:08:45	14.1	41.5
113240	2025-04-05T21:18:45	14	42
113241	2025-04-05T21:28:45	13.8	43
113242	2025-04-05T21:38:45	13.5	43
113243	2025-04-05T21:48:45	13.4	44
113244	2025-04-05T21:58:45	13.1	45
113245	2025-04-05T22:08:45	12.9	45
113246	2025-04-05T22:18:45	12.7	45.5
113247	2025-04-05T22:28:45	12.5	45.5
113248	2025-04-05T22:38:45	12.1	46.5
113249	2025-04-05T22:48:45	11.9	46.5
113250	2025-04-05T22:58:45	11.8	47
113251	2025-04-05T23:08:45	11.7	47.5
113252	2025-04-05T23:18:45	11.4	47.5
113253	2025-04-05T23:28:45	11.2	47.5
113254	2025-04-05T23:38:45	10.9	48
113255	2025-04-05T23:48:45	10.9	48
113256	2025-04-05T23:58:45	10.7	48.5
113257	2025-04-06T00:08:45	10.4	48
113258	2025-04-06T00:18:45	10.2	48.5
113259	2025-04-06T00:28:45	10.1	48.5
113260	2025-04-06T00:38:45	9.9	48.5
113261	2025-04-06T00:48:45	9.7	49.5
113262	2025-04-06T00:58:45	9.6	49.5
113263	2025-04-06T01:08:45	9.4	51
113264	2025-04-06T01:18:45	9.2	51
113265	2025-04-06T01:28:45	9	51.5
113266	2025-04-06T01:38:45	8.8	51.5
113267	2025-04-06T01:48:45	8.8	53
113268	2025-04-06T01:58:45	8.6	53
113269	2025-04-06T02:08:45	8.4	53.5
113270	2025-04-06T02:18:45	8.2	54
113271	2025-04-06T02:28:45	8	55
113272	2025-04-06T02:38:45	7.9	55
113273	2025-04-06T02:48:45	7.7	55.5
113274	2025-04-06T02:58:45	7.4	56
113275	2025-04-06T03:08:45	7.4	57
113276	2025-04-06T03:18:45	7.3	56.5
113277	2025-04-06T03:28:45	7.1	57
113278	2025-04-06T03:38:45	7	56.5
113279	2025-04-06T03:48:45	6.9	57
113280	2025-04-06T03:58:45	6.7	56
113281	2025-04-06T04:08:45	6.5	56
113282	2025-04-06T04:18:45	6.4	55.5
113283	2025-04-06T04:28:45	6.2	55
113284	2025-04-06T04:38:45	6	54.5
113285	2025-04-06T04:48:45	6	56
113286	2025-04-06T04:58:45	5.8	56.5
113287	2025-04-06T05:08:45	5.7	57
113288	2025-04-06T05:18:45	5.6	57.5
113289	2025-04-06T05:28:45	5.5	57.5
113290	2025-04-06T05:38:45	5.5	55.5
113291	2025-04-06T05:48:45	5.5	56
113292	2025-04-06T05:59:01	5.4	55
113293	2025-04-06T06:08:45	5.4	54
113294	2025-04-06T06:18:45	5.5	55
113295	2025-04-06T06:28:45	5.5	54
113296	2025-04-06T06:38:45	5.6	53
113297	2025-04-06T06:48:45	5.7	52
113298	2025-04-06T06:58:45	5.7	52.5
113299	2025-04-06T07:08:45	5.9	52
113300	2025-04-06T07:18:45	6	53
113301	2025-04-06T07:28:45	6	51.5
113302	2025-04-06T08:28:45	6.8	45
113303	2025-04-06T08:38:45	7.1	42.5
113304	2025-04-06T08:48:45	7.3	42
113305	2025-04-06T08:59:05	7.5	39
113306	2025-04-06T09:08:45	7.6	38
113307	2025-04-06T09:18:45	7.7	37
113308	2025-04-06T09:28:45	8	37.5
113309	2025-04-06T09:38:45	8.3	35.5
113310	2025-04-06T09:48:45	8.3	36
113311	2025-04-06T09:58:45	8.4	34.5
113312	2025-04-06T10:08:45	8.7	34.5
113313	2025-04-06T10:18:45	8.9	32
113314	2025-04-06T10:28:45	9.1	33
113315	2025-04-06T10:38:45	9.3	32.5
113316	2025-04-06T10:48:45	9.3	35
113317	2025-04-06T10:58:45	9.6	35
113318	2025-04-06T11:08:45	9.8	33.5
113319	2025-04-06T11:18:45	9.9	33.5
113320	2025-04-06T11:28:45	10.1	32.5
113321	2025-04-06T11:38:45	10.3	32.5
113322	2025-04-06T11:48:45	10.7	32.5
113323	2025-04-06T11:58:45	11.1	32
113324	2025-04-06T12:08:45	11.7	30.5
113325	2025-04-06T12:18:45	20.4	22
113326	2025-04-06T12:28:45	23.5	19
113327	2025-04-06T12:38:44	24.8	17.5
113328	2025-04-06T12:48:44	25.2	17
113329	2025-04-06T12:58:44	26	16
113330	2025-04-06T13:08:44	26.4	16.5
113331	2025-04-06T13:18:44	27.5	15
113332	2025-04-06T13:28:44	27.9	15.5
113333	2025-04-06T13:38:44	26.5	15.5
113334	2025-04-06T13:48:44	28.3	15.5
113335	2025-04-06T13:58:44	28.6	14.5
113336	2025-04-06T14:08:44	28.8	15
113337	2025-04-06T14:18:44	28.5	15.5
113338	2025-04-06T14:28:44	29.4	14
113339	2025-04-06T14:38:44	27.7	15
113340	2025-04-06T14:48:44	29.1	14
113341	2025-04-06T14:58:44	29.2	14.5
113342	2025-04-06T15:08:44	28.7	13
113343	2025-04-06T15:18:44	28.3	14
113344	2025-04-06T15:28:44	27.6	14
113345	2025-04-06T15:38:44	26.8	14
113346	2025-04-06T15:48:44	26.9	14.5
113347	2025-04-06T15:58:44	26.5	15
113348	2025-04-06T16:08:44	26.1	15
113349	2025-04-06T16:18:44	25.7	15.5
113350	2025-04-06T16:28:44	24.8	15
113351	2025-04-06T16:38:44	24.9	16
113352	2025-04-06T16:48:44	24.3	16
113353	2025-04-06T16:58:44	22.5	18
113354	2025-04-06T17:08:44	21.4	19
113355	2025-04-06T17:18:44	20.5	20
113356	2025-04-06T17:28:44	19.2	20.5
113357	2025-04-06T17:38:44	17.1	22.5
113358	2025-04-06T17:48:44	15.5	24.5
113359	2025-04-06T17:58:44	14.8	25.5
113360	2025-04-06T18:08:44	14.2	26
113361	2025-04-06T18:18:44	13.7	27
113362	2025-04-06T18:28:44	13	28.5
113363	2025-04-06T18:38:44	12.5	28
113364	2025-04-06T18:48:44	12.2	29
113365	2025-04-06T18:58:44	11.6	29.5
113366	2025-04-06T19:08:44	11.3	30
113367	2025-04-06T19:18:44	10.9	31
113368	2025-04-06T19:28:44	10.6	32
113369	2025-04-06T19:38:44	10.2	32.5
113370	2025-04-06T19:48:44	9.9	33.5
113371	2025-04-06T19:58:44	9.7	34.5
113372	2025-04-06T20:08:44	9.3	35.5
113373	2025-04-06T20:18:44	9.3	36.5
113374	2025-04-06T20:28:44	9	37
113375	2025-04-06T20:38:44	8.7	35.5
113376	2025-04-06T20:48:44	8.3	37
113377	2025-04-06T20:58:44	8.1	37
113378	2025-04-06T21:08:44	7.9	37
113379	2025-04-06T21:18:44	7.5	38
113380	2025-04-06T21:28:44	7.2	38.5
113381	2025-04-06T21:38:44	7	38.5
113382	2025-04-06T21:48:44	7	38.5
113383	2025-04-06T21:58:44	6.6	40
113384	2025-04-06T22:08:44	6.5	41.5
113385	2025-04-06T22:18:44	6.2	41.5
113386	2025-04-06T22:28:44	6.1	42
113387	2025-04-06T22:38:44	5.9	42
113388	2025-04-06T22:48:44	5.7	42.5
113389	2025-04-06T22:58:44	5.6	43.5
113390	2025-04-06T23:08:44	5.5	44
113391	2025-04-06T23:18:44	5.5	44
113392	2025-04-06T23:28:44	5.3	44.5
113393	2025-04-06T23:38:44	5.2	44.5
113394	2025-04-06T23:48:44	5.1	45.5
113395	2025-04-06T23:58:44	5	46
113396	2025-04-07T00:08:44	4.9	46.5
113397	2025-04-07T00:18:44	4.8	47.5
113398	2025-04-07T00:28:44	4.7	47.5
113399	2025-04-07T00:38:44	4.5	48
113400	2025-04-07T00:48:44	4.3	49
113401	2025-04-07T00:58:44	4.2	50
113402	2025-04-07T01:18:44	3.8	51
113403	2025-04-07T01:28:44	3.5	51.5
113404	2025-04-07T01:38:44	3.5	52.5
113405	2025-04-07T01:48:44	3.3	52.5
113406	2025-04-07T01:58:44	3.2	53
113407	2025-04-07T02:08:44	3	53.5
113408	2025-04-07T02:18:44	3.2	53.5
113409	2025-04-07T02:28:44	3.1	52
113410	2025-04-07T02:38:44	3.2	52.5
113411	2025-04-07T02:48:44	3	52.5
113412	2025-04-07T02:58:44	3.2	52.5
113413	2025-04-07T03:08:44	3	52.5
113414	2025-04-07T03:18:44	2.9	53.5
113415	2025-04-07T03:28:44	2.9	53
113416	2025-04-07T03:38:44	2.8	54
113417	2025-04-07T03:48:44	2.6	54.5
113418	2025-04-07T03:58:44	2.6	54.5
113419	2025-04-07T04:09:04	2.4	55.5
113420	2025-04-07T04:18:44	2.2	56
113421	2025-04-07T04:28:44	2.1	57
113422	2025-04-07T04:38:44	2.2	57.5
113423	2025-04-07T04:48:44	2	58
113424	2025-04-07T04:58:44	2	58
113425	2025-04-07T05:08:44	1.9	58.5
113426	2025-04-07T05:18:43	1.9	59.5
113427	2025-04-07T05:28:44	1.8	59.5
113428	2025-04-07T05:38:44	1.9	60
113429	2025-04-07T05:48:43	1.9	59.5
113430	2025-04-07T05:58:43	2.2	59
113431	2025-04-07T06:08:43	2.2	59.5
113432	2025-04-07T06:18:43	2.4	60
113433	2025-04-07T06:28:43	2.7	58
113434	2025-04-07T06:38:43	2.9	56.5
113435	2025-04-07T06:48:43	3.2	57
113436	2025-04-07T06:58:43	3.6	54.5
113437	2025-04-07T07:08:43	3.9	53.5
113438	2025-04-07T07:18:43	4.2	52.5
113439	2025-04-07T07:28:43	4.4	52.5
113440	2025-04-07T07:38:43	4.6	51.5
113441	2025-04-07T07:48:43	4.9	52.5
113442	2025-04-07T07:58:43	5.3	50.5
113443	2025-04-07T08:08:43	5.4	51.5
113444	2025-04-07T08:18:43	5.5	52
113445	2025-04-07T08:28:43	5.8	50
113446	2025-04-07T08:38:43	6	49.5
113447	2025-04-07T08:48:43	6.4	49
113448	2025-04-07T08:58:43	6.8	49
113449	2025-04-07T09:08:43	7	47
113450	2025-04-07T09:18:43	7.2	47.5
113451	2025-04-07T09:28:43	7.4	47.5
113452	2025-04-07T09:38:43	7.6	46
113453	2025-04-07T09:48:43	8	46
113454	2025-04-07T09:58:43	8.2	44.5
113455	2025-04-07T10:08:43	8.5	45
113456	2025-04-07T10:18:43	8.9	41.5
113457	2025-04-07T10:28:43	9.1	41.5
113458	2025-04-07T10:38:43	9.4	41.5
113459	2025-04-07T10:48:43	9.7	41
113460	2025-04-07T10:58:43	10	39.5
113461	2025-04-07T11:18:43	10.4	39
113462	2025-04-07T11:48:43	11.4	37.5
113463	2025-04-07T11:58:43	11.9	35.5
113464	2025-04-07T12:08:43	12.8	35.5
113465	2025-04-07T12:18:43	21.7	24.5
113466	2025-04-07T12:28:43	24.3	21
113467	2025-04-07T12:38:43	26	19.5
113468	2025-04-07T12:48:43	26.5	18
113469	2025-04-07T12:58:43	27.8	17.5
113470	2025-04-07T13:08:43	28.9	15.5
113471	2025-04-07T13:18:43	30	16
113472	2025-04-07T13:28:43	31.2	15
113473	2025-04-07T13:38:43	30.4	16
113474	2025-04-07T13:48:43	30.5	16
113475	2025-04-07T13:58:43	31.3	15.5
113476	2025-04-07T14:08:43	30.9	15.5
113477	2025-04-07T14:18:43	31.1	14.5
113478	2025-04-07T14:28:43	31.7	14.5
113479	2025-04-07T14:38:43	31.3	14.5
113480	2025-04-07T14:48:43	31.3	15
113481	2025-04-07T14:58:43	30.8	14.5
113482	2025-04-07T15:08:43	30.4	16
113483	2025-04-07T15:18:43	30.7	16
113484	2025-04-07T15:28:43	30.6	15
113485	2025-04-07T15:38:43	29.8	15.5
113486	2025-04-07T15:48:43	30.2	15.5
113487	2025-04-07T15:58:43	29.8	15.5
113488	2025-04-07T16:08:43	28.6	17.5
113489	2025-04-07T16:18:43	28.1	17.5
113490	2025-04-07T16:28:43	27.5	17.5
113491	2025-04-07T16:38:43	27.1	18
113492	2025-04-07T16:48:43	25.8	18.5
113493	2025-04-07T16:58:43	23.7	20
113494	2025-04-07T17:08:43	23.1	20.5
113495	2025-04-07T17:18:43	22.4	22.5
113496	2025-04-07T17:28:43	21.4	22.5
113497	2025-04-07T17:38:43	19.2	24.5
113498	2025-04-07T17:48:43	18.1	26
113499	2025-04-07T17:58:43	17.3	29
113500	2025-04-07T18:08:43	16.4	30.5
113501	2025-04-07T18:18:43	15.9	31
113502	2025-04-07T18:28:43	15.5	32
113503	2025-04-07T18:38:43	15.1	32.5
113504	2025-04-07T18:48:43	14.7	33.5
113505	2025-04-07T18:58:43	14.3	35
113506	2025-04-07T19:08:43	13.8	36
113507	2025-04-07T19:18:43	13.4	36
113508	2025-04-07T19:28:43	13	37
113509	2025-04-07T19:38:43	12.7	37.5
113510	2025-04-07T19:48:43	12.2	39.5
113511	2025-04-07T19:58:43	11.9	41
113512	2025-04-07T20:08:42	11.4	42.5
113513	2025-04-07T20:18:42	10.9	43
113514	2025-04-07T20:28:42	10.6	43.5
113515	2025-04-07T20:38:42	10.3	44.5
113516	2025-04-07T20:48:42	10	45.5
113517	2025-04-07T20:58:42	9.9	46.5
113518	2025-04-07T21:08:42	9.7	47
113519	2025-04-07T21:18:42	9.4	47
113520	2025-04-07T21:28:42	9.5	43.5
113521	2025-04-07T21:38:42	9.6	42.5
113522	2025-04-07T21:48:42	9.4	44
113523	2025-04-07T21:58:42	9.1	46
113524	2025-04-07T22:08:42	8.7	47.5
113525	2025-04-07T22:18:42	8.3	48
113526	2025-04-07T22:28:42	8.2	49.5
113527	2025-04-07T22:38:42	7.9	49.5
113528	2025-04-07T22:48:42	7.8	50
113529	2025-04-07T22:58:42	7.7	51.5
113530	2025-04-07T23:08:42	7.5	51.5
113531	2025-04-07T23:18:42	7.2	52
113532	2025-04-07T23:28:42	7.1	52.5
113533	2025-04-07T23:38:42	7	52
113534	2025-04-07T23:48:42	6.8	53
113535	2025-04-07T23:58:42	6.6	53.5
113536	2025-04-08T00:08:42	6.4	54
113537	2025-04-08T00:18:42	6.5	54.5
113538	2025-04-08T00:28:42	6.3	53.5
113539	2025-04-08T00:38:42	6.2	54.5
113540	2025-04-08T00:48:42	6.1	55
113541	2025-04-08T00:58:42	6	55
113542	2025-04-08T01:08:42	5.8	56.5
113543	2025-04-08T01:18:42	5.5	57.5
113544	2025-04-08T01:28:42	5.3	57.5
113545	2025-04-08T01:38:42	5.1	58
113546	2025-04-08T01:48:42	5.1	58.5
113547	2025-04-08T01:58:42	5.1	59.5
113548	2025-04-08T02:08:42	4.8	59.5
113549	2025-04-08T02:18:42	4.7	60
113550	2025-04-08T02:28:42	4.5	61
113551	2025-04-08T02:38:42	4.4	60.5
113552	2025-04-08T02:48:42	4.3	61.5
113553	2025-04-08T02:58:42	4.2	62
113554	2025-04-08T03:08:42	4	62.5
113555	2025-04-08T03:18:42	4	63
113556	2025-04-08T03:28:42	4	63
113557	2025-04-08T03:38:42	3.9	63.5
113558	2025-04-08T03:48:42	3.9	64
113559	2025-04-08T03:58:42	3.5	65
113560	2025-04-08T04:08:42	3.3	65
113561	2025-04-08T04:18:42	3	66
113562	2025-04-08T04:28:42	2.9	66.5
113563	2025-04-08T04:38:42	3	67.5
113564	2025-04-08T04:48:42	2.9	67
113565	2025-04-08T04:58:42	2.9	67.5
113566	2025-04-08T05:08:42	2.9	67.5
113567	2025-04-08T05:18:42	3	67.5
113568	2025-04-08T05:28:42	3.1	66.5
113569	2025-04-08T05:38:42	3.2	66
113570	2025-04-08T05:48:42	3.4	66
113571	2025-04-08T05:58:42	3.6	65.5
113572	2025-04-08T06:08:42	3.8	65
113573	2025-04-08T06:18:42	4.1	65
113574	2025-04-08T06:28:42	4.2	64
113575	2025-04-08T06:38:42	4.6	64
113576	2025-04-08T06:48:42	4.9	63.5
113577	2025-04-08T06:58:42	5.2	62.5
113578	2025-04-08T07:08:42	5.7	62
113579	2025-04-08T07:18:42	6	61.5
113580	2025-04-08T07:28:42	6.2	61
113581	2025-04-08T07:38:42	6.7	59
113582	2025-04-08T07:48:42	7.1	57
113583	2025-04-08T07:58:42	7.6	57
113584	2025-04-08T08:08:42	8	55.5
113585	2025-04-08T08:18:42	8.4	55
113586	2025-04-08T08:28:42	8.6	53
113587	2025-04-08T08:38:42	9.2	50
113588	2025-04-08T08:48:42	9.5	48
113589	2025-04-08T08:58:42	9.8	48.5
113590	2025-04-08T09:08:42	10.1	45.5
113591	2025-04-08T09:18:42	10.3	44
113592	2025-04-08T09:28:42	10.7	45
113593	2025-04-08T09:38:42	11	43.5
113594	2025-04-08T09:48:42	11.2	43.5
113595	2025-04-08T09:58:42	11.4	44.5
113596	2025-04-08T10:08:42	11.6	43.5
113597	2025-04-08T10:18:42	11.8	43.5
113598	2025-04-08T10:28:42	12.2	44
113599	2025-04-08T10:38:42	12.4	43.5
113600	2025-04-08T10:48:42	12.6	43
113601	2025-04-08T10:58:42	12.8	43
113602	2025-04-08T11:08:42	13	42
113603	2025-04-08T11:18:42	13.3	43
113604	2025-04-08T11:28:42	13.6	42
113605	2025-04-08T11:38:42	14	39.5
113606	2025-04-08T11:48:42	14.6	41
113607	2025-04-08T11:58:42	14.9	38
113608	2025-04-08T12:08:42	16.1	37
113609	2025-04-08T12:18:42	24.1	26.5
113610	2025-04-08T12:28:42	26.5	22
113611	2025-04-08T12:38:42	27.3	22.5
113612	2025-04-08T12:48:42	27.5	22.5
113613	2025-04-08T12:58:42	29.3	20.5
113614	2025-04-08T13:08:42	29.6	20
113615	2025-04-08T13:18:42	29.7	20
113616	2025-04-08T13:28:42	29.8	19.5
113617	2025-04-08T13:38:42	31.2	19
113618	2025-04-08T13:48:42	31.5	18.5
113619	2025-04-08T13:58:42	30.8	19
113620	2025-04-08T14:08:42	31.5	18
113621	2025-04-08T14:18:42	31.1	19
113622	2025-04-08T14:28:41	32.1	18
113623	2025-04-08T14:38:41	32.3	17.5
113624	2025-04-08T14:48:41	32	18
113625	2025-04-08T14:58:41	32.7	17.5
113626	2025-04-08T15:08:41	32.9	17
113627	2025-04-08T15:18:41	32	17.5
113628	2025-04-08T15:28:41	31.7	18
113629	2025-04-08T15:38:41	30	19.5
113630	2025-04-08T15:48:41	29.3	20
113631	2025-04-08T15:58:41	28	21
113632	2025-04-08T16:08:41	28.3	20.5
113633	2025-04-08T16:18:41	27.5	21
113634	2025-04-08T16:28:41	26.6	21.5
113635	2025-04-08T16:38:41	27.1	22
113636	2025-04-08T16:48:41	25.5	23
113637	2025-04-08T16:58:41	24.9	23.5
113638	2025-04-08T17:08:41	24.4	24
113639	2025-04-08T17:18:41	23.2	25.5
113640	2025-04-08T17:28:41	22.6	26
113641	2025-04-08T17:38:41	21.3	28.5
113642	2025-04-08T17:48:41	20.2	30.5
113643	2025-04-08T17:58:41	19.3	31.5
113644	2025-04-08T18:08:41	18.6	33.5
113645	2025-04-08T18:18:41	18.1	34.5
113646	2025-04-08T18:28:41	17.5	35
113647	2025-04-08T18:38:41	17	36.5
113648	2025-04-08T18:48:41	16.6	36
113649	2025-04-08T18:58:41	16.3	37.5
113650	2025-04-08T19:08:41	15.9	38
113651	2025-04-08T19:18:41	15.6	38
113652	2025-04-08T19:28:41	15.2	39
113653	2025-04-08T19:38:41	14.9	39.5
113654	2025-04-08T19:48:41	14.6	40
113655	2025-04-08T19:58:41	14.5	41
113656	2025-04-08T20:08:41	14.2	41.5
113657	2025-04-08T20:18:41	13.8	42
113658	2025-04-08T20:28:41	13.6	44.5
113659	2025-04-08T20:38:41	13.1	45.5
113660	2025-04-08T20:48:41	13	46.5
113661	2025-04-08T20:58:41	12.6	47.5
113662	2025-04-08T21:08:41	12.3	48
113663	2025-04-08T21:18:41	12.1	49
113664	2025-04-08T21:28:41	11.8	49.5
113665	2025-04-08T21:38:41	11.6	50.5
113666	2025-04-08T21:48:41	11.3	51
113667	2025-04-08T21:58:41	11	52
113668	2025-04-08T22:08:41	10.7	52
113669	2025-04-08T22:18:41	10.4	52.5
113670	2025-04-08T22:28:41	10.2	53.5
113671	2025-04-08T22:38:41	9.9	54.5
113672	2025-04-08T22:48:41	9.7	55
113673	2025-04-08T22:58:41	9.5	55.5
113674	2025-04-08T23:08:41	9.4	55.5
113675	2025-04-08T23:18:41	9.4	56
113676	2025-04-08T23:28:41	9.2	56.5
113677	2025-04-08T23:38:41	9.1	56.5
113678	2025-04-08T23:48:41	8.9	57
113679	2025-04-08T23:58:41	8.7	57.5
113680	2025-04-09T00:08:41	8.5	58.5
113681	2025-04-09T00:18:41	8.3	59
113682	2025-04-09T00:38:41	8	60
113683	2025-04-09T00:48:41	7.8	60.5
113684	2025-04-09T00:58:41	7.8	60.5
113685	2025-04-09T01:08:41	7.7	61
113686	2025-04-09T01:18:41	7.5	61.5
113687	2025-04-09T01:28:41	7.2	62.5
113688	2025-04-09T01:38:41	7.1	63.5
113689	2025-04-09T01:48:41	7	63.5
113690	2025-04-09T01:58:41	6.9	63.5
113691	2025-04-09T02:08:41	6.6	64.5
113692	2025-04-09T02:18:41	6.5	65
113693	2025-04-09T02:28:41	6.3	65.5
113694	2025-04-09T02:38:41	6.3	66
113695	2025-04-09T02:48:41	6	66.5
113696	2025-04-09T02:58:41	5.8	67
113697	2025-04-09T03:08:41	5.9	67
113698	2025-04-09T03:18:41	5.8	67.5
113699	2025-04-09T03:28:41	5.7	68
113700	2025-04-09T03:38:41	5.4	70
113701	2025-04-09T03:48:41	5.4	70
113702	2025-04-09T03:58:41	5.2	71
113703	2025-04-09T04:08:41	5.1	70.5
113704	2025-04-09T04:18:41	4.9	71
113705	2025-04-09T04:28:41	4.9	71
113706	2025-04-09T04:38:41	4.8	71.5
113707	2025-04-09T04:48:40	4.7	72
113708	2025-04-09T04:58:40	4.5	73
113709	2025-04-09T05:08:40	4.6	73
113710	2025-04-09T05:18:40	4.7	72
113711	2025-04-09T05:28:40	4.8	72
113712	2025-04-09T05:38:40	4.8	72
113713	2025-04-09T05:48:40	4.8	72.5
113714	2025-04-09T05:58:40	5	72.5
113715	2025-04-09T06:08:40	5.1	72
113716	2025-04-09T06:18:40	5.6	71.5
113717	2025-04-09T06:28:40	5.8	71
113718	2025-04-09T06:38:40	6	70.5
113719	2025-04-09T06:48:40	6.3	69.5
113720	2025-04-09T06:58:40	6.5	69
113721	2025-04-09T07:08:40	6.5	69.5
113722	2025-04-09T07:18:40	6.7	70
113723	2025-04-09T07:28:40	6.6	70
113724	2025-04-09T07:38:40	6.9	70
113725	2025-04-09T07:48:40	7.4	68
113726	2025-04-09T07:58:40	7.8	66.5
113727	2025-04-09T08:08:40	8.1	66.5
113728	2025-04-09T08:18:40	8.4	65
113729	2025-04-09T08:28:40	8.8	65
113730	2025-04-09T08:38:40	9.3	64.5
113731	2025-04-09T08:48:40	9.4	64.5
113732	2025-04-09T08:58:40	10	63
113733	2025-04-09T09:08:40	10.2	63.5
113734	2025-04-09T09:18:40	10.7	61.5
113735	2025-04-09T09:28:40	11.3	60.5
113736	2025-04-09T09:38:40	11.6	57.5
113737	2025-04-09T09:48:40	12	56
113738	2025-04-09T09:58:40	12.3	53
113739	2025-04-09T10:08:40	12.7	51.5
113740	2025-04-09T10:18:40	13.2	49.5
113741	2025-04-09T10:28:40	13.5	50.5
113742	2025-04-09T10:38:40	13.8	46.5
113743	2025-04-09T10:48:40	14	46
113744	2025-04-09T10:58:40	14.3	46
113745	2025-04-09T11:08:40	14.6	44.5
113746	2025-04-09T11:18:40	15	42
113747	2025-04-09T11:28:40	15.1	44
113748	2025-04-09T11:38:40	15.3	41.5
113749	2025-04-09T11:48:40	15.8	39
113750	2025-04-09T11:58:40	16.2	39.5
113751	2025-04-09T12:08:40	17.3	38
113752	2025-04-09T12:18:40	26	26
113753	2025-04-09T12:28:40	28.1	22.5
113754	2025-04-09T12:38:40	29.1	21.5
113755	2025-04-09T12:48:40	31.1	20
113756	2025-04-09T12:58:40	30.8	19
113757	2025-04-09T13:08:40	31.4	18.5
113758	2025-04-09T13:18:40	31.9	18.5
113759	2025-04-09T13:28:40	33.5	18
113760	2025-04-09T13:38:40	34.4	17
113761	2025-04-09T13:48:40	35	17
113762	2025-04-09T13:58:40	35.6	17
113763	2025-04-09T14:08:40	34.2	17
113764	2025-04-09T14:18:40	34.4	16.5
113765	2025-04-09T14:28:40	35.1	16
113766	2025-04-09T14:38:40	36.1	16
113767	2025-04-09T14:48:40	32.1	18.5
113768	2025-04-09T14:58:40	34.6	17
113769	2025-04-09T15:08:40	34.4	17.5
113770	2025-04-09T15:18:40	34.5	17
113771	2025-04-09T15:38:40	34.8	17.5
113772	2025-04-09T15:48:40	33.3	18
113773	2025-04-09T15:58:40	31.3	19.5
113774	2025-04-09T16:08:40	32.1	18.5
113775	2025-04-09T16:18:40	32.3	18.5
113776	2025-04-09T16:28:40	32.1	18.5
113777	2025-04-09T16:38:40	31.3	18.5
113778	2025-04-09T16:48:40	29.3	21
113779	2025-04-09T16:58:40	28.4	22.5
113780	2025-04-09T17:08:40	27.5	23.5
113781	2025-04-09T17:18:40	27	24
113782	2025-04-09T17:28:40	26.2	24
113783	2025-04-09T17:38:40	24	26.5
113784	2025-04-09T17:48:40	22.8	29
113785	2025-04-09T17:58:40	21.6	29.5
113786	2025-04-09T18:08:39	21	31
113787	2025-04-09T18:18:39	20.4	32
113788	2025-04-09T18:28:39	19.7	36.5
113789	2025-04-09T18:38:39	19.2	38.5
113790	2025-04-09T18:48:39	18.4	39.5
113791	2025-04-09T18:58:39	18	41
113792	2025-04-09T19:08:39	17.3	41
113793	2025-04-09T19:18:39	16.9	43.5
113794	2025-04-09T19:28:39	16.4	43.5
113795	2025-04-09T19:38:39	15.8	44.5
113796	2025-04-09T19:48:39	15.4	46.5
113797	2025-04-09T19:58:39	14.9	48.5
113798	2025-04-09T20:08:39	14.6	49
113799	2025-04-09T20:18:39	14.4	49
113800	2025-04-09T20:28:39	14.1	49
113801	2025-04-09T20:38:39	13.7	51.5
113802	2025-04-09T20:48:39	13.5	50.5
113803	2025-04-09T20:58:39	13.2	53
113804	2025-04-09T21:08:39	12.8	53
113805	2025-04-09T21:18:39	12.5	54
113806	2025-04-09T21:28:39	12.2	55.5
113807	2025-04-09T21:38:39	11.8	55
113808	2025-04-09T21:48:39	11.5	57
113809	2025-04-09T21:58:39	11.5	57.5
113810	2025-04-09T22:08:39	10.7	58
113811	2025-04-09T22:18:39	10.9	57
113812	2025-04-09T22:28:39	10.8	57.5
113813	2025-04-09T22:38:39	10.7	58.5
113814	2025-04-09T22:48:39	10.5	58.5
113815	2025-04-09T22:58:39	10.4	59
113816	2025-04-09T23:08:39	10.1	60
113817	2025-04-09T23:18:39	9.9	61.5
113818	2025-04-09T23:28:39	9.4	62
113819	2025-04-09T23:38:39	9.4	63
113820	2025-04-09T23:48:39	9.2	63.5
113821	2025-04-09T23:58:39	9	64
113822	2025-04-10T00:08:39	8.8	64
113823	2025-04-10T00:18:39	8.7	65
113824	2025-04-10T00:28:39	8.5	65.5
113825	2025-04-10T00:38:39	8.2	66
113826	2025-04-10T00:48:39	8.1	67
113827	2025-04-10T00:58:39	7.9	68
113828	2025-04-10T01:08:39	7.9	68
113829	2025-04-10T01:18:39	7.8	68
113830	2025-04-10T01:28:39	7.9	69
113831	2025-04-10T01:38:39	7.8	70
113832	2025-04-10T01:48:39	7.7	70
113833	2025-04-10T01:58:39	7.5	70
113834	2025-04-10T02:08:39	7.3	71
113835	2025-04-10T02:18:39	7.3	71
113836	2025-04-10T02:28:39	7	71
113837	2025-04-10T02:38:39	7	72.5
113838	2025-04-10T02:48:39	6.8	72.5
113839	2025-04-10T02:58:39	6.7	73
113840	2025-04-10T03:08:39	6.6	73.5
113841	2025-04-10T03:18:39	6.5	74.5
113842	2025-04-10T03:28:39	6.3	74.5
113843	2025-04-10T03:38:39	6.3	75
113844	2025-04-10T03:48:39	6.1	75.5
113845	2025-04-10T03:58:39	5.9	75.5
113846	2025-04-10T04:08:39	5.9	76
113847	2025-04-10T04:18:39	5.6	76
113848	2025-04-10T04:28:39	5.6	77.5
113849	2025-04-10T04:38:39	5.6	77
113850	2025-04-10T04:48:39	5.3	77.5
113851	2025-04-10T04:58:39	5.3	77.5
113852	2025-04-10T05:08:39	5.3	77.5
113853	2025-04-10T05:18:39	5.3	77.5
113854	2025-04-10T05:28:39	5.3	78
113855	2025-04-10T05:38:39	5.4	78
113856	2025-04-10T05:48:39	5.5	78.5
113857	2025-04-10T05:58:39	5.7	78.5
113858	2025-04-10T06:08:39	5.9	79.5
113859	2025-04-10T06:18:39	6.3	80.5
113860	2025-04-10T06:28:39	6.6	79.5
113861	2025-04-10T06:38:39	6.9	79
113862	2025-04-10T06:48:39	7.1	78
113863	2025-04-10T06:58:39	7.6	78
113864	2025-04-10T07:08:39	7.8	77.5
113865	2025-04-10T07:18:39	8.1	76.5
113866	2025-04-10T07:28:39	8.5	74.5
113867	2025-04-10T07:38:39	8.6	73.5
113868	2025-04-10T07:48:39	8.9	73.5
113869	2025-04-10T07:58:39	9	73.5
113870	2025-04-10T08:08:39	9.2	73.5
113871	2025-04-10T08:18:39	9.5	72.5
113872	2025-04-10T08:28:39	9.6	72.5
113873	2025-04-10T08:38:39	10.4	71
113874	2025-04-10T08:48:39	11.1	68
113875	2025-04-10T09:28:39	11.2	66
113876	2025-04-10T09:38:39	11.3	64.5
113877	2025-04-10T09:48:39	11.4	64.5
113878	2025-04-10T09:58:39	11.6	62
113879	2025-04-10T10:08:39	11.6	63
113880	2025-04-10T10:18:39	11.8	61.5
113881	2025-04-10T10:28:39	11.9	61.5
113882	2025-04-10T10:38:39	12.1	61.5
113883	2025-04-10T10:48:39	12.3	60.5
113884	2025-04-10T10:58:39	12.6	60
113885	2025-04-10T11:08:39	12.8	59.5
113886	2025-04-10T11:18:38	13	57
113887	2025-04-10T11:28:38	13.3	58
113888	2025-04-10T11:38:38	13.7	56.5
113889	2025-04-10T11:48:38	14.1	55
113890	2025-04-10T11:58:38	14.4	53
113891	2025-04-10T12:08:38	15.6	50.5
113892	2025-04-10T12:18:38	23	35
113893	2025-04-10T12:28:38	26.1	30.5
113894	2025-04-10T12:38:38	27.4	29
113895	2025-04-10T12:48:38	28.2	27.5
113896	2025-04-10T12:58:38	29.5	26.5
113897	2025-04-10T13:08:38	30.1	24
113898	2025-04-10T13:18:38	30.7	23
113899	2025-04-10T13:28:38	29.6	24
113900	2025-04-10T13:38:38	30.9	23
113901	2025-04-10T13:48:38	31.8	23.5
113902	2025-04-10T13:58:38	31.5	22.5
113903	2025-04-10T14:08:38	32.3	21.5
113904	2025-04-10T14:18:38	31.7	22.5
113905	2025-04-10T14:38:38	32.5	21.5
113906	2025-04-10T14:48:38	32.6	22.5
113907	2025-04-10T14:58:38	31.6	23
113908	2025-04-10T15:08:38	32.1	23
113909	2025-04-10T15:18:38	31.4	24
113910	2025-04-10T15:28:38	31.1	23.5
113911	2025-04-10T15:38:38	31.2	23.5
113912	2025-04-10T15:48:38	30.4	24
113913	2025-04-10T15:58:38	30.3	24
113914	2025-04-10T16:08:38	29.6	24.5
113915	2025-04-10T16:18:38	29.5	25
113916	2025-04-10T16:28:38	28.6	25.5
113917	2025-04-10T16:38:38	27.9	26.5
113918	2025-04-10T16:48:38	26.1	28
113919	2025-04-10T16:58:38	25.3	29
113920	2025-04-10T17:08:38	24.6	30.5
113921	2025-04-10T17:18:38	23.6	31.5
113922	2025-04-10T17:28:38	22.7	33
113923	2025-04-10T17:38:38	20.5	36
113924	2025-04-10T17:48:38	19.2	38.5
113925	2025-04-10T17:58:38	18.5	40
113926	2025-04-10T18:08:38	17.7	41.5
113927	2025-04-10T18:18:38	17	43
113928	2025-04-10T18:28:38	16.6	45.5
113929	2025-04-10T18:38:38	16	47.5
113930	2025-04-10T18:48:38	15.5	49
113931	2025-04-10T18:58:38	15	49.5
113932	2025-04-10T19:08:38	14.6	50.5
113933	2025-04-10T19:18:38	14.2	51.5
113934	2025-04-10T19:28:38	13.8	52.5
113935	2025-04-10T19:38:38	13.5	54
113936	2025-04-10T19:48:38	13	55
113937	2025-04-10T19:58:38	12.7	55.5
113938	2025-04-10T20:08:38	12.3	56.5
113939	2025-04-10T20:18:38	12.1	57.5
113940	2025-04-10T20:28:38	12	57.5
113941	2025-04-10T20:38:38	11.5	58
113942	2025-04-10T20:48:38	11.1	59.5
113943	2025-04-10T20:58:38	11	60.5
113944	2025-04-10T21:08:38	10.6	61
113945	2025-04-10T21:18:38	10.4	61.5
113946	2025-04-10T21:28:38	10.1	62.5
113947	2025-04-10T21:38:38	9.9	63
113948	2025-04-10T21:48:38	9.6	64.5
113949	2025-04-10T21:58:38	9.3	65
113950	2025-04-10T22:08:38	9.2	65
113951	2025-04-10T22:18:38	8.8	67
113952	2025-04-10T22:28:38	8.6	66.5
113953	2025-04-10T22:38:38	8.5	67
113954	2025-04-10T22:48:38	8.3	68
113955	2025-04-10T22:58:37	8.1	68.5
113956	2025-04-10T23:08:37	7.9	68.5
113957	2025-04-10T23:18:37	7.8	68.5
113958	2025-04-10T23:28:37	7.7	69
113959	2025-04-10T23:38:37	7.4	69.5
113960	2025-04-10T23:48:37	7.2	71
113961	2025-04-10T23:58:37	7	71
113962	2025-04-11T00:08:37	6.7	71.5
113963	2025-04-11T00:18:37	6.8	72
113964	2025-04-11T00:28:37	6.5	72
113965	2025-04-11T00:38:37	6.4	72.5
113966	2025-04-11T00:48:37	6.2	73.5
113967	2025-04-11T00:58:37	6	73.5
113968	2025-04-11T01:08:37	5.9	73.5
113969	2025-04-11T01:18:37	5.6	74
113970	2025-04-11T01:28:37	5.6	74.5
113971	2025-04-11T01:38:37	5.4	75
113972	2025-04-11T01:48:37	5.3	75
113973	2025-04-11T01:58:37	5.1	75
113974	2025-04-11T02:08:37	4.9	75.5
113975	2025-04-11T02:18:37	4.8	76
113976	2025-04-11T02:28:37	4.7	76.5
113977	2025-04-11T02:38:37	4.6	77
113978	2025-04-11T02:48:37	4.5	78
113979	2025-04-11T02:58:37	4.3	77.5
113980	2025-04-11T03:08:37	4.2	78
113981	2025-04-11T03:18:37	4	78
113982	2025-04-11T03:28:37	3.9	78.5
113983	2025-04-11T03:38:37	3.8	79
113984	2025-04-11T03:48:37	3.7	79
113985	2025-04-11T03:58:37	3.7	78
113986	2025-04-11T04:08:37	3.6	79
113987	2025-04-11T04:18:37	3.7	79
113988	2025-04-11T04:28:37	3.4	79
113989	2025-04-11T04:38:37	3.3	80
113990	2025-04-11T04:48:37	3.2	81
113991	2025-04-11T04:58:37	3	82
113992	2025-04-11T05:08:37	3.1	81.5
113993	2025-04-11T05:18:37	3.1	82.5
113994	2025-04-11T05:28:37	3.1	82
113995	2025-04-11T05:38:37	3.2	83
113996	2025-04-11T05:48:37	3.5	82.5
113997	2025-04-11T05:58:37	3.6	82.5
113998	2025-04-11T06:08:37	3.8	82.5
113999	2025-04-11T06:18:37	4	83.5
114000	2025-04-11T06:28:37	4.1	84
114001	2025-04-11T06:38:37	4.4	85
114002	2025-04-11T06:48:37	4.8	84
114003	2025-04-11T06:58:37	5	84.5
114004	2025-04-11T07:08:37	5.4	84
114005	2025-04-11T07:18:55	5.7	84
114006	2025-04-11T07:28:37	5.9	83
114007	2025-04-11T07:38:37	6.2	83
114008	2025-04-11T07:48:37	6.8	83
114009	2025-04-11T07:58:37	7.1	82
114010	2025-04-11T08:08:37	7.6	81
114011	2025-04-11T08:18:37	8	78.5
114012	2025-04-11T08:28:37	8	79
114013	2025-04-11T08:38:37	8.4	78.5
114014	2025-04-11T08:48:37	8.8	77
114015	2025-04-11T08:58:37	9.4	73.5
114016	2025-04-11T09:08:37	9.4	73
114017	2025-04-11T09:18:37	9.9	69.5
114018	2025-04-11T09:28:37	10.4	67
114019	2025-04-11T09:38:37	10.7	66.5
114020	2025-04-11T09:48:37	11	64
114021	2025-04-11T09:58:37	11.1	65
114022	2025-04-11T10:08:37	11.9	63.5
114023	2025-04-11T10:18:37	12.3	62
114024	2025-04-11T10:28:37	12.5	60.5
114025	2025-04-11T10:38:37	12.8	58.5
114026	2025-04-11T10:48:37	13.2	56.5
114027	2025-04-11T10:58:37	13.5	58
114028	2025-04-11T11:08:37	13.7	55
114029	2025-04-11T11:18:37	13.9	55.5
114030	2025-04-11T11:28:37	14.5	55.5
114031	2025-04-11T11:38:37	14.9	53
114032	2025-04-11T11:48:37	15.2	51.5
114033	2025-04-11T11:58:37	16	48.5
114034	2025-04-11T12:08:37	17.3	47.5
114035	2025-04-11T12:18:37	25.8	32
114036	2025-04-11T12:28:37	29.1	27
114037	2025-04-11T12:38:37	31.3	23
114038	2025-04-11T12:48:37	31.9	22
114039	2025-04-11T12:58:37	33.2	21.5
114040	2025-04-11T13:08:37	34.4	19.5
114041	2025-04-11T13:18:37	34.2	18.5
114042	2025-04-11T13:28:37	35.6	18
114043	2025-04-11T13:38:37	36.8	16.5
114044	2025-04-11T13:48:37	36.1	16
114045	2025-04-11T13:58:37	36.3	15.5
114046	2025-04-11T14:08:37	36	16.5
114047	2025-04-11T14:18:37	36.5	17.5
114048	2025-04-11T14:28:37	37.5	17
114049	2025-04-11T14:38:37	38.1	17
114050	2025-04-11T14:48:37	38.5	16.5
114051	2025-04-11T14:58:37	39.1	16
114052	2025-04-11T15:08:37	38.8	17
114053	2025-04-11T15:18:37	37.3	17.5
114054	2025-04-11T15:28:37	37.1	17
114055	2025-04-11T15:38:37	37.4	17.5
114056	2025-04-11T15:48:37	37.2	17.5
114057	2025-04-11T15:58:37	36.4	17.5
114058	2025-04-11T16:08:37	36.1	18.5
114059	2025-04-11T16:18:36	35.6	19.5
114060	2025-04-11T16:28:36	34.4	20.5
114061	2025-04-11T16:38:36	34.5	21
114062	2025-04-11T16:48:36	33.5	21.5
114063	2025-04-11T16:58:36	32.4	22.5
114064	2025-04-11T17:08:36	31.8	23.5
114065	2025-04-11T17:18:36	30.5	24.5
114066	2025-04-11T17:28:36	29.5	25.5
114067	2025-04-11T17:38:36	27.7	28
114068	2025-04-11T17:48:36	25.7	30
114069	2025-04-11T17:58:36	24.6	32
114070	2025-04-11T18:08:36	23.8	34
114071	2025-04-11T18:18:36	22.8	35.5
114072	2025-04-11T18:28:36	22.4	37
114073	2025-04-11T18:38:36	21.8	38.5
114074	2025-04-11T18:48:36	21.2	40
114075	2025-04-11T18:58:36	20.6	42
114076	2025-04-11T19:08:36	20.1	43
114077	2025-04-11T19:18:36	19.5	43.5
114078	2025-04-11T19:28:36	19	44
114079	2025-04-11T19:38:36	18.6	45
114080	2025-04-11T19:48:36	18.1	46.5
114081	2025-04-11T19:58:36	17.7	47
114082	2025-04-11T20:08:36	17.5	47.5
114083	2025-04-11T20:18:36	17.1	47.5
114084	2025-04-11T20:28:36	16.5	49
114085	2025-04-11T20:38:36	16	49.5
114086	2025-04-11T20:48:36	15.7	50
114087	2025-04-11T20:58:36	15.6	50.5
114088	2025-04-11T21:08:36	15.3	50
114089	2025-04-11T21:18:36	15.1	50
114090	2025-04-11T21:28:36	14.7	51.5
114091	2025-04-11T21:38:36	14.3	52
114092	2025-04-11T21:48:36	14.1	52.5
114093	2025-04-11T21:58:36	13.8	53.5
114094	2025-04-11T22:08:36	13.5	54.5
114095	2025-04-11T22:18:36	13.4	55
114096	2025-04-11T22:28:36	13.3	55.5
114097	2025-04-11T22:38:36	12.9	55
114098	2025-04-11T22:48:36	12.6	55.5
114099	2025-04-11T22:58:36	12.3	56.5
114100	2025-04-11T23:08:36	12.3	57
114101	2025-04-11T23:18:36	12	57.5
114102	2025-04-11T23:28:36	11.9	58
114103	2025-04-11T23:38:36	11.7	58.5
114104	2025-04-11T23:48:36	11.4	58.5
114105	2025-04-11T23:58:36	11.2	59
114106	2025-04-12T00:08:36	11	59.5
114107	2025-04-12T00:18:36	10.7	60
114108	2025-04-12T00:28:36	10.5	61
114109	2025-04-12T00:38:36	10.4	62
114110	2025-04-12T00:48:36	10.3	62
114111	2025-04-12T00:58:36	10.1	62.5
114112	2025-04-12T01:08:36	9.9	62.5
114113	2025-04-12T01:18:36	9.8	63.5
114114	2025-04-12T01:28:36	9.6	63.5
114115	2025-04-12T01:38:36	9.3	64.5
114116	2025-04-12T01:48:36	9.2	65
114117	2025-04-12T01:58:36	9	65
114118	2025-04-12T02:08:36	8.9	65.5
114119	2025-04-12T02:18:36	8.8	65.5
114120	2025-04-12T02:28:36	8.8	65.5
114121	2025-04-12T02:38:36	8.8	66.5
114122	2025-04-12T02:48:36	8.6	66.5
114123	2025-04-12T02:58:36	8.3	67.5
114124	2025-04-12T03:08:36	8.1	67.5
114125	2025-04-12T03:18:36	8.2	67.5
114126	2025-04-12T03:28:36	8.1	67.5
114127	2025-04-12T03:38:36	8	67.5
114128	2025-04-12T03:48:36	8.1	68
114129	2025-04-12T03:58:36	7.9	68
114130	2025-04-12T04:08:36	7.8	68
114131	2025-04-12T04:18:36	7.7	68.5
114132	2025-04-12T04:28:36	7.5	69.5
114133	2025-04-12T04:38:36	7.5	70
114134	2025-04-12T04:48:36	7.4	70
114135	2025-04-12T04:58:36	7.3	70
114136	2025-04-12T05:08:36	7.4	70.5
114137	2025-04-12T05:18:36	7.4	70.5
114138	2025-04-12T05:28:36	7.4	70.5
114139	2025-04-12T05:38:36	7.4	71.5
114140	2025-04-12T05:48:36	7.5	71.5
114141	2025-04-12T05:58:36	7.9	70.5
114142	2025-04-12T06:08:36	8.3	69.5
114143	2025-04-12T06:18:35	8.8	68
114144	2025-04-12T06:28:35	8.9	68
114145	2025-04-12T06:38:35	9.3	67.5
114146	2025-04-12T06:48:35	9.6	66
114147	2025-04-12T06:58:35	10.1	65
114148	2025-04-12T07:08:35	10.6	63.5
114149	2025-04-12T07:18:35	11	62.5
114150	2025-04-12T07:28:35	11.5	60.5
114151	2025-04-12T07:38:35	11.9	60.5
114152	2025-04-12T07:48:35	12.3	60
114153	2025-04-12T07:58:35	12.9	58.5
114154	2025-04-12T08:08:35	13	58.5
114155	2025-04-12T08:18:35	13.7	57
114156	2025-04-12T08:28:35	14.3	55.5
114157	2025-04-12T08:38:35	14.7	54.5
114158	2025-04-12T08:48:35	14.9	53
114159	2025-04-12T08:58:35	15.3	51.5
114160	2025-04-12T09:08:35	15.6	51
114161	2025-04-12T09:18:35	16	48.5
114162	2025-04-12T09:28:35	16.4	47
114163	2025-04-12T09:38:35	16.8	47.5
114164	2025-04-12T09:48:35	17.2	45.5
114165	2025-04-12T09:58:35	17.5	43
114166	2025-04-12T10:08:35	17.8	43
114167	2025-04-12T10:18:35	18.2	40.5
114168	2025-04-12T10:28:35	18.7	40.5
114169	2025-04-12T10:38:35	18.5	44.5
114170	2025-04-12T10:48:35	18.9	40.5
114171	2025-04-12T10:58:35	19.6	39.5
114172	2025-04-12T11:08:35	19.8	37.5
114173	2025-04-12T11:18:35	20	38.5
114174	2025-04-12T11:28:35	20.3	36.5
114175	2025-04-12T11:38:35	20.7	38
114176	2025-04-12T11:48:35	21.3	37
114177	2025-04-12T11:58:55	21.8	35
114178	2025-04-12T12:08:35	23.4	33
114179	2025-04-12T12:18:35	31.5	25.5
114180	2025-04-12T12:38:35	36.9	19
114181	2025-04-12T12:48:35	38	20
114182	2025-04-12T12:58:35	38.2	17.5
114183	2025-04-12T13:08:35	39.1	18
114184	2025-04-12T13:18:35	39.4	17
114185	2025-04-12T13:28:35	40	16
114186	2025-04-12T13:38:35	40.8	16
114187	2025-04-12T13:48:35	40.9	16.5
114188	2025-04-12T13:58:35	41.1	15
114189	2025-04-12T14:08:35	40.8	15.5
114190	2025-04-12T14:18:35	40.9	15.5
114191	2025-04-12T14:28:35	42.7	15
114192	2025-04-12T14:38:35	41.7	15
114193	2025-04-12T14:48:35	41.7	15
114194	2025-04-12T14:58:35	41.2	15
114195	2025-04-12T15:08:35	42.9	15
114196	2025-04-12T15:18:35	42	15
114197	2025-04-12T15:28:35	42.5	15
114198	2025-04-12T15:38:35	41.4	16
114199	2025-04-12T15:48:35	38.3	17
114200	2025-04-12T15:58:35	35.7	19
114201	2025-04-12T16:08:35	34.3	20
114202	2025-04-12T16:18:35	34.2	20.5
114203	2025-04-12T16:28:35	32.9	21.5
114204	2025-04-12T16:38:35	31.9	24
114205	2025-04-12T16:48:35	30.8	25
114206	2025-04-12T16:58:35	29.8	27
114207	2025-04-12T17:08:35	28.9	26.5
114208	2025-04-12T17:18:35	27.9	30.5
114209	2025-04-12T17:28:35	27.1	32.5
114210	2025-04-12T17:38:35	26.2	34.5
114211	2025-04-12T17:48:35	25.9	36.5
114212	2025-04-12T17:58:35	25.4	37
114213	2025-04-12T18:08:34	24.7	38
114214	2025-04-12T18:18:34	24.2	38.5
114215	2025-04-12T18:28:34	23.2	39.5
114216	2025-04-12T18:38:34	23	41
114217	2025-04-12T18:48:34	22.7	41
114218	2025-04-12T18:58:34	22.3	42.5
114219	2025-04-12T19:08:34	21.7	43.5
114220	2025-04-12T19:18:34	21.2	45.5
114221	2025-04-12T19:28:34	20.8	45.5
114222	2025-04-12T19:38:34	20.5	46.5
114223	2025-04-12T19:48:34	20	48
114224	2025-04-12T19:58:34	19.6	49.5
114225	2025-04-12T20:08:34	19.4	50
114226	2025-04-12T20:18:34	19	51
114227	2025-04-12T20:28:34	18.9	50.5
114228	2025-04-12T20:38:34	18.8	50
114229	2025-04-12T20:48:34	18.6	50
114230	2025-04-12T20:58:34	18.5	51
114231	2025-04-12T21:08:34	18.3	51.5
114232	2025-04-12T21:18:34	18.1	52.5
114233	2025-04-12T21:28:34	18	53
114234	2025-04-12T21:38:34	17.8	53.5
114235	2025-04-12T21:48:34	17.4	55
114236	2025-04-12T21:58:34	16.6	55.5
114237	2025-04-12T22:08:34	16.9	50.5
114238	2025-04-12T22:18:34	17.5	48
114239	2025-04-12T22:28:34	17.7	47.5
114240	2025-04-12T22:38:34	17.9	47.5
114241	2025-04-12T22:48:34	17.9	48
114242	2025-04-12T22:58:34	18	48.5
114243	2025-04-12T23:08:34	17.7	51
114244	2025-04-12T23:18:34	17.5	50
114245	2025-04-12T23:28:34	17.5	53
114246	2025-04-12T23:38:34	17.3	55.5
114247	2025-04-12T23:48:34	17	55
114248	2025-04-12T23:58:34	17	53.5
114249	2025-04-13T00:08:34	17	52
114250	2025-04-13T00:18:34	16.8	54
114251	2025-04-13T00:28:34	16.4	57
114252	2025-04-13T00:38:34	16.2	57
114253	2025-04-13T00:48:34	16.1	58
114254	2025-04-13T00:58:34	15.9	59
114255	2025-04-13T01:08:34	15.9	59.5
114256	2025-04-13T01:18:34	15.7	60.5
114257	2025-04-13T01:28:34	15.8	61.5
114258	2025-04-13T01:38:34	15.5	63
114259	2025-04-13T01:48:34	15.5	63.5
114260	2025-04-13T01:58:34	15.3	64
114261	2025-04-13T02:08:34	15.3	65
114262	2025-04-13T02:18:34	15.3	66
114263	2025-04-13T02:28:34	15.1	67
114264	2025-04-13T02:38:34	15	67.5
114265	2025-04-13T02:48:34	15	69
114266	2025-04-13T02:58:34	14.8	68.5
114267	2025-04-13T03:08:34	14.8	69
114268	2025-04-13T03:18:34	14.8	68.5
114269	2025-04-13T03:28:34	14.7	70
114270	2025-04-13T03:38:34	14.6	70
114271	2025-04-13T03:48:34	14.3	70.5
114272	2025-04-13T03:58:34	14.2	71
114273	2025-04-13T04:08:34	14	72.5
114274	2025-04-13T04:18:34	13.8	72.5
114275	2025-04-13T04:28:34	13.7	72
114276	2025-04-13T04:38:34	13.4	70
114277	2025-04-13T04:48:34	13.7	68.5
114278	2025-04-13T04:58:34	13.8	68.5
114279	2025-04-13T05:08:34	13.9	68.5
114280	2025-04-13T05:18:34	13.9	67.5
114281	2025-04-13T05:28:34	14	68.5
114282	2025-04-13T05:38:34	14	69
114283	2025-04-13T05:48:33	14	71
114284	2025-04-13T05:58:33	14.3	73
114285	2025-04-13T06:08:33	14.3	75.5
114286	2025-04-13T06:18:33	14.3	74.5
114287	2025-04-13T06:28:33	14.6	73.5
114288	2025-04-13T06:38:33	15	73
114289	2025-04-13T06:48:33	15	73
114290	2025-04-13T06:58:33	15.2	71.5
114291	2025-04-13T07:08:33	15.4	69
114292	2025-04-13T07:18:33	15.7	67.5
114293	2025-04-13T07:28:33	16.1	65.5
114294	2025-04-13T07:38:33	16.1	66
114295	2025-04-13T07:48:33	16.3	65.5
114296	2025-04-13T07:58:33	16.4	65
114297	2025-04-13T08:08:33	16.6	65
114298	2025-04-13T08:18:33	16.9	65
114299	2025-04-13T08:28:33	16.9	65.5
114300	2025-04-13T08:38:33	17.3	63.5
114301	2025-04-13T08:48:33	17.5	62.5
114302	2025-04-13T08:58:33	17.7	60.5
114303	2025-04-13T09:08:33	18	60.5
114304	2025-04-13T09:18:33	18.1	60
114305	2025-04-13T09:28:33	17.8	60
114306	2025-04-13T09:38:33	17.5	61.5
114307	2025-04-13T09:48:33	17.8	60
114308	2025-04-13T09:58:33	18	60
114309	2025-04-13T10:08:33	18.2	59
114310	2025-04-13T10:18:33	18.2	59
114311	2025-04-13T10:28:33	18.8	57.5
114312	2025-04-13T10:38:33	19.3	55.5
114313	2025-04-13T10:48:33	19	57
114314	2025-04-13T10:58:33	19.1	56.5
114315	2025-04-13T11:08:33	19.2	55.5
114316	2025-04-13T11:18:33	19.6	54.5
114317	2025-04-13T11:28:33	19.7	54.5
114318	2025-04-13T11:38:33	20.1	53.5
114319	2025-04-13T11:48:33	20.4	53
114320	2025-04-13T11:58:33	20.6	53
114321	2025-04-13T12:08:33	21.3	51.5
114322	2025-04-13T12:18:33	20.3	53
114323	2025-04-13T12:28:33	20.1	54
114324	2025-04-13T12:38:33	19.9	54
114325	2025-04-13T12:48:33	20.1	53.5
114326	2025-04-13T12:58:33	20.1	54
114327	2025-04-13T13:08:33	20.1	54
114328	2025-04-13T13:18:33	20	54.5
114329	2025-04-13T13:28:33	21.1	52
114330	2025-04-13T13:38:33	24.6	45
114331	2025-04-13T13:48:33	25.6	42
114332	2025-04-13T13:58:33	26.3	40.5
114333	2025-04-13T14:08:33	26.7	38.5
114334	2025-04-13T14:18:33	27.2	38
114335	2025-04-13T14:28:33	27.7	37
114336	2025-04-13T14:38:33	26.5	38.5
114337	2025-04-13T14:48:33	24.8	40.5
114338	2025-04-13T14:58:33	25.2	39.5
114339	2025-04-13T15:08:33	26	38
114340	2025-04-13T15:18:33	25.2	39.5
114341	2025-04-13T15:28:33	25.7	39.5
114342	2025-04-13T15:38:33	24	42
114343	2025-04-13T15:48:33	21.9	45
114344	2025-04-13T15:58:33	21.6	47.5
114345	2025-04-13T16:08:33	21	49
114346	2025-04-13T16:18:33	20.9	49
114347	2025-04-13T16:28:33	20.7	49
114348	2025-04-13T16:38:32	21.3	47.5
114349	2025-04-13T16:48:32	21	48
114350	2025-04-13T16:58:32	21.3	47.5
114351	2025-04-13T17:08:32	20.7	49
114352	2025-04-13T17:18:32	20.1	51
114353	2025-04-13T17:28:32	19.6	52
114354	2025-04-13T17:38:32	19.3	53
114355	2025-04-13T17:48:32	18.8	54
114356	2025-04-13T17:58:32	18.3	55.5
114357	2025-04-13T18:08:32	18	57
114358	2025-04-13T18:18:32	17.3	59
114359	2025-04-13T18:28:32	17.1	60
114360	2025-04-13T18:38:32	17	60
114361	2025-04-13T18:48:32	16.6	62
114362	2025-04-13T18:58:32	16.8	62
114363	2025-04-13T19:08:32	16.5	62.5
114364	2025-04-13T19:18:32	16.5	62.5
114365	2025-04-13T19:28:32	16.6	63
114366	2025-04-13T19:38:32	16.4	63.5
114367	2025-04-13T19:48:32	16.3	62.5
114368	2025-04-13T19:58:32	16.3	64.5
114369	2025-04-13T20:08:32	16.4	65
114370	2025-04-13T20:18:32	16.3	64.5
114371	2025-04-13T20:28:32	16.2	65.5
114372	2025-04-13T20:38:32	16	66
114373	2025-04-13T20:48:32	15.9	66
114374	2025-04-13T20:58:32	15.9	67
114375	2025-04-13T21:08:32	15.7	67
114376	2025-04-13T21:18:32	15.8	67
114377	2025-04-13T21:28:32	15.8	66
114378	2025-04-13T21:38:32	15.7	67.5
114379	2025-04-13T21:58:32	15.5	67.5
114380	2025-04-13T22:08:32	15.4	68.5
114381	2025-04-13T22:18:32	15.2	70
114382	2025-04-13T22:28:32	15.1	70
114383	2025-04-13T22:38:32	14.8	71.5
114384	2025-04-13T22:48:32	14.5	72
114385	2025-04-13T22:58:32	14.1	73
114386	2025-04-13T23:08:32	13.9	71
114387	2025-04-13T23:18:32	14.1	69.5
114388	2025-04-13T23:28:32	14.2	68
114389	2025-04-13T23:38:32	14.1	68.5
114390	2025-04-13T23:48:32	14.1	69.5
114391	2025-04-13T23:58:32	14	70.5
114392	2025-04-14T00:08:32	14	71
114393	2025-04-14T00:18:32	14	71.5
114394	2025-04-14T00:28:32	13.9	70.5
114395	2025-04-14T00:38:32	13.7	72
114396	2025-04-14T00:48:32	13.8	72
114397	2025-04-14T00:58:32	13.8	71
114398	2025-04-14T01:08:32	13.8	72
114399	2025-04-14T01:18:32	13.7	72.5
114400	2025-04-14T01:28:32	13.7	73
114401	2025-04-14T01:38:32	13.7	73.5
114402	2025-04-14T01:48:32	13.8	74
114403	2025-04-14T01:58:32	13.6	75
114404	2025-04-14T02:08:32	13.6	77
114405	2025-04-14T02:18:32	13.5	76
114406	2025-04-14T02:28:32	13.6	77
114407	2025-04-14T02:38:32	13.6	76.5
114408	2025-04-14T02:48:32	13.4	77
114409	2025-04-14T02:58:32	13.4	76.5
114410	2025-04-14T03:08:32	13.3	80.5
114411	2025-04-14T03:18:32	13.3	81.5
114412	2025-04-14T03:28:32	13.3	82
114413	2025-04-14T03:38:32	13.2	83
114414	2025-04-14T03:48:32	13.1	83.5
114415	2025-04-14T03:58:32	13.1	84
114416	2025-04-14T04:08:32	13	84
114417	2025-04-14T04:18:32	12.9	85
114418	2025-04-14T04:28:32	12.9	85
114419	2025-04-14T04:38:32	12.7	85.5
114420	2025-04-14T04:48:32	12.5	86
114421	2025-04-14T04:58:31	12.6	86.5
114422	2025-04-14T05:08:31	12.6	86.5
114423	2025-04-14T05:18:31	12.7	86.5
114424	2025-04-14T05:28:31	12.7	86.5
114425	2025-04-14T05:38:31	12.7	86.5
114426	2025-04-14T05:48:31	12.9	86.5
114427	2025-04-14T05:58:31	12.9	86
114428	2025-04-14T06:08:31	12.8	87
114429	2025-04-14T06:18:31	12.8	86.5
114430	2025-04-14T06:28:31	12.8	87
114431	2025-04-14T06:38:31	12.8	87
114432	2025-04-14T06:48:31	13.1	86
114433	2025-04-14T06:58:31	13.3	85.5
114434	2025-04-14T07:08:31	13.4	85
114435	2025-04-14T07:18:31	13.8	83.5
114436	2025-04-14T07:28:31	14.3	81.5
114437	2025-04-14T07:48:31	14.4	78.5
114438	2025-04-14T07:58:31	14.7	76
114439	2025-04-14T08:08:31	14.9	73
114440	2025-04-14T08:18:31	15	72.5
114441	2025-04-14T08:28:31	15.2	73.5
114442	2025-04-14T08:38:31	15.5	73
114443	2025-04-14T08:48:31	15.8	72.5
114444	2025-04-14T08:58:31	16.1	71.5
114445	2025-04-14T09:08:31	16.1	69.5
114446	2025-04-14T09:18:31	16.5	67.5
114447	2025-04-14T09:28:31	16.6	67
114448	2025-04-14T09:38:31	16.6	66
114449	2025-04-14T09:48:31	17	64
114450	2025-04-14T09:58:31	17.4	63.5
114451	2025-04-14T10:08:31	17.8	61
114452	2025-04-14T10:18:31	17.9	59
114453	2025-04-14T10:28:31	18.2	59
114454	2025-04-14T10:38:31	18.6	59.5
114455	2025-04-14T10:48:31	18.8	58
114456	2025-04-14T10:58:31	19.1	57.5
114457	2025-04-14T11:08:31	19.6	55.5
114458	2025-04-14T11:18:31	20	53
114459	2025-04-14T11:28:31	20.1	54
114460	2025-04-14T11:38:31	20.4	53.5
114461	2025-04-14T11:48:31	20.4	54.5
114462	2025-04-14T11:58:31	21.5	52
114463	2025-04-14T12:08:31	23.6	47.5
114464	2025-04-14T12:18:31	23.3	47.5
114465	2025-04-14T12:28:31	24.6	43.5
114466	2025-04-14T12:38:31	23.4	46
114467	2025-04-14T12:48:31	22.7	46.5
114468	2025-04-14T12:58:31	25	41.5
114469	2025-04-14T13:08:31	23.6	45
114470	2025-04-14T13:18:31	23.2	45.5
114471	2025-04-14T13:28:31	23.2	44.5
114472	2025-04-14T13:38:31	24.3	42.5
114473	2025-04-14T13:48:31	29.7	35
114474	2025-04-14T13:58:31	28.4	34.5
114475	2025-04-14T14:08:31	26.1	38
114476	2025-04-14T14:18:31	25.2	41
114477	2025-04-14T14:28:31	26	39
114478	2025-04-14T14:38:31	29.3	35.5
114479	2025-04-14T14:48:31	31.7	31
114480	2025-04-14T14:58:31	33	30
114481	2025-04-14T15:08:31	34.1	28.5
114482	2025-04-14T15:18:31	34.3	28
114483	2025-04-14T15:28:31	35.2	26.5
114484	2025-04-14T15:38:31	35.3	26
114485	2025-04-14T15:48:31	32.3	28.5
114486	2025-04-14T15:58:31	32.4	29
114487	2025-04-14T16:08:30	29.6	32
114488	2025-04-14T16:18:30	31.4	30.5
114489	2025-04-14T16:28:30	32.9	28.5
114490	2025-04-14T16:38:30	32.3	29.5
114491	2025-04-14T16:48:30	32.4	30
114492	2025-04-14T16:58:30	30.3	32
114493	2025-04-14T17:08:30	28.9	35
114494	2025-04-14T17:18:30	28.5	36
114495	2025-04-14T17:28:30	27.3	37
114496	2025-04-14T17:38:30	25.7	40.5
114497	2025-04-14T17:48:30	24.6	42.5
114498	2025-04-14T17:58:30	23.9	45
114499	2025-04-14T18:08:30	23.1	46.5
114500	2025-04-14T18:18:30	22.4	48
114501	2025-04-14T18:28:30	22	49
114502	2025-04-14T18:38:30	21.4	51
114503	2025-04-14T18:48:30	21	52
114504	2025-04-14T18:58:30	20.7	53
114505	2025-04-14T19:08:30	20.4	54
114506	2025-04-14T19:18:30	20.1	55
114507	2025-04-14T19:28:30	19.8	56
114508	2025-04-14T19:38:30	19.7	56.5
114509	2025-04-14T19:48:30	19.5	57.5
114510	2025-04-14T19:58:30	19.2	58.5
114511	2025-04-14T20:08:30	18.9	59
114512	2025-04-14T20:18:30	18.7	59.5
114513	2025-04-14T20:28:30	18.6	60.5
114514	2025-04-14T20:38:30	18.4	61
114515	2025-04-14T20:48:30	18.2	61.5
114516	2025-04-14T20:58:30	17.9	62.5
114517	2025-04-14T21:08:30	17.6	63.5
114518	2025-04-14T21:18:30	17.1	65
114519	2025-04-14T21:28:30	16.9	65.5
114520	2025-04-14T21:38:30	16.8	66
114521	2025-04-14T21:48:30	16.9	65.5
114522	2025-04-14T21:58:30	16.8	66
114523	2025-04-14T22:08:30	16.6	66.5
114524	2025-04-14T22:18:30	16.1	68
114525	2025-04-14T22:28:30	15.7	69
114526	2025-04-14T22:38:30	15.7	70
114527	2025-04-14T22:48:30	15.5	70.5
114528	2025-04-14T22:58:30	15.4	71
114529	2025-04-14T23:08:30	15.2	71.5
114530	2025-04-14T23:18:30	15	72
114531	2025-04-14T23:28:30	14.9	72.5
114532	2025-04-14T23:38:30	14.8	73
114533	2025-04-14T23:48:30	14.8	73.5
114534	2025-04-14T23:58:30	14.6	73.5
114535	2025-04-15T00:08:30	14.6	74
114536	2025-04-15T00:18:30	14.5	74
114537	2025-04-15T00:28:30	14.2	74.5
114538	2025-04-15T00:38:30	14.2	75
114539	2025-04-15T00:48:30	14	74.5
114540	2025-04-15T00:58:30	13.9	75
114541	2025-04-15T01:08:30	13.9	75.5
114542	2025-04-15T01:18:30	13.7	75.5
114543	2025-04-15T01:28:30	13.7	76
114544	2025-04-15T01:38:30	13.5	76.5
114545	2025-04-15T01:48:30	13.1	78
114546	2025-04-15T01:58:30	12.8	79.5
114547	2025-04-15T02:08:30	13.1	79.5
114548	2025-04-15T02:18:30	12.9	79.5
114549	2025-04-15T02:28:30	12.8	79.5
114550	2025-04-15T02:38:30	12.8	79.5
114551	2025-04-15T02:48:30	12.5	80
114552	2025-04-15T02:58:30	12.4	81
114553	2025-04-15T03:08:30	12.4	81
114554	2025-04-15T03:18:30	12.3	81
114555	2025-04-15T03:28:30	12.1	81
114556	2025-04-15T03:38:29	12.1	81
114557	2025-04-15T03:48:29	12.2	81
114558	2025-04-15T03:58:29	11.8	81.5
114559	2025-04-15T04:08:29	11.7	81.5
114560	2025-04-15T04:18:29	11.6	82
114561	2025-04-15T04:28:29	11.6	82.5
114562	2025-04-15T04:38:29	11.4	82.5
114563	2025-04-15T04:48:29	11.5	82.5
114564	2025-04-15T04:58:29	11.6	82
114565	2025-04-15T05:08:29	11.7	82.5
114566	2025-04-15T05:18:29	11.5	82.5
114567	2025-04-15T05:28:29	11.4	84.5
114568	2025-04-15T05:38:29	11.4	84
114569	2025-04-15T05:48:29	11.6	84
114570	2025-04-15T05:58:29	11.7	85
114571	2025-04-15T06:08:29	12	85
114572	2025-04-15T06:18:29	12.1	85
114573	2025-04-15T06:28:29	12.2	85
114574	2025-04-15T06:38:29	12.5	84.5
114575	2025-04-15T06:48:29	12.8	84
114576	2025-04-15T06:58:29	13	84.5
114577	2025-04-15T07:08:29	13.1	85
114578	2025-04-15T07:18:29	13.4	82
114579	2025-04-15T07:28:29	14	80
114580	2025-04-15T07:38:29	14.3	79
114581	2025-04-15T07:48:29	14.6	77.5
114582	2025-04-15T07:58:29	15	77
114583	2025-04-15T08:08:29	15.1	76.5
114584	2025-04-15T08:18:29	15.5	76
114585	2025-04-15T08:28:29	15.8	75
114586	2025-04-15T08:38:29	16.2	73
114587	2025-04-15T08:48:29	16.5	72.5
114588	2025-04-15T08:58:29	16.8	72
114589	2025-04-15T09:08:29	17.1	70.5
114590	2025-04-15T09:18:29	17.6	69
114591	2025-04-15T09:28:29	18.2	66.5
114592	2025-04-15T09:38:29	18.4	65
114593	2025-04-15T09:48:29	18.5	65
114594	2025-04-15T09:58:29	18.6	65
114595	2025-04-15T10:08:29	18.5	65.5
114596	2025-04-15T10:18:29	18.5	65.5
114597	2025-04-15T10:28:29	18	67
114598	2025-04-15T10:38:29	17.9	67.5
114599	2025-04-15T10:48:29	17.6	67.5
114600	2025-04-15T10:58:29	17.3	69.5
114601	2025-04-15T11:08:29	17	71
114602	2025-04-15T11:18:29	16.8	72.5
114603	2025-04-15T11:28:29	14.9	89.5
114604	2025-04-15T11:38:29	14.3	98
114605	2025-04-15T11:48:29	14.1	99.5
114606	2025-04-15T11:58:29	13.8	100
114607	2025-04-15T12:08:29	13.8	100
114608	2025-04-15T12:18:29	14	100
114609	2025-04-15T12:28:29	14.2	100
114610	2025-04-15T12:38:29	14.3	100
114611	2025-04-15T12:48:29	14.7	100
114612	2025-04-15T12:58:29	15.4	100
114613	2025-04-15T13:08:29	15.9	100
114614	2025-04-15T13:18:29	15.9	100
114615	2025-04-15T13:28:29	15.8	100
114616	2025-04-15T13:38:29	16.8	100
114617	2025-04-15T13:48:29	17.5	100
114618	2025-04-15T13:58:29	17.3	100
114619	2025-04-15T14:08:29	18.7	100
114620	2025-04-15T14:18:29	18.4	100
114621	2025-04-15T14:28:29	20.3	100
114622	2025-04-15T14:38:29	20.5	100
114623	2025-04-15T14:48:29	22.9	100
114624	2025-04-15T14:58:29	24.7	100
114625	2025-04-15T15:08:29	26.6	100
114626	2025-04-15T15:18:29	27.4	98.5
114627	2025-04-15T15:28:29	29.3	97
114628	2025-04-15T15:38:29	28.1	48.5
114629	2025-04-15T15:48:28	27.2	47
114630	2025-04-15T15:58:29	28.5	44
114631	2025-04-15T16:08:28	27.1	48.5
114632	2025-04-15T16:18:28	28.1	47.5
114633	2025-04-15T16:28:28	29.4	43
114634	2025-04-15T16:38:28	27.8	43
114635	2025-04-15T16:48:28	27.3	43.5
114636	2025-04-15T16:58:28	26.3	47.5
114637	2025-04-15T17:08:28	24.3	51
114638	2025-04-15T17:18:28	23	53.5
114639	2025-04-15T17:28:28	23.2	60.5
114640	2025-04-15T17:38:28	22.4	65.5
114641	2025-04-15T17:48:28	21.8	68.5
114642	2025-04-15T17:58:28	21.1	70
114643	2025-04-15T18:08:28	20.4	73.5
114644	2025-04-15T18:18:28	19.7	75
114645	2025-04-15T18:28:28	19.2	76
114646	2025-04-15T18:38:28	18.8	77.5
114647	2025-04-15T18:48:28	18.3	76.5
114648	2025-04-15T18:58:28	17.8	77.5
114649	2025-04-15T19:08:28	17.5	80.5
114650	2025-04-15T19:18:28	17.2	80
114651	2025-04-15T19:28:28	17.1	80.5
114652	2025-04-15T19:38:28	16.8	80.5
114653	2025-04-15T19:48:28	16.6	81
114654	2025-04-15T19:58:28	16.4	81
114655	2025-04-15T20:08:28	16.3	82
114656	2025-04-15T20:18:28	16.1	82
114657	2025-04-15T20:28:28	16	82.5
114658	2025-04-15T20:38:28	15.9	81.5
114659	2025-04-15T20:48:28	15.8	81.5
114660	2025-04-15T20:58:28	15.6	83
114661	2025-04-15T21:08:28	15.7	83.5
114662	2025-04-15T21:18:28	15.6	83
114663	2025-04-15T21:28:28	15.4	83.5
114664	2025-04-15T21:38:28	15.4	83.5
114665	2025-04-15T21:48:28	15.1	85
114666	2025-04-15T21:58:28	14.7	84.5
114667	2025-04-15T22:08:28	14.8	84.5
114668	2025-04-15T22:18:28	14.8	84.5
114669	2025-04-15T22:28:28	14.7	84
114670	2025-04-15T22:38:28	14.8	86
114671	2025-04-15T22:48:28	14.9	86
114672	2025-04-15T22:58:28	14.7	87
114673	2025-04-15T23:08:28	14.7	87.5
114674	2025-04-15T23:18:28	14.6	87.5
114675	2025-04-15T23:28:28	14.5	87
114676	2025-04-15T23:38:28	14.5	86
114677	2025-04-15T23:48:28	14.6	87
114678	2025-04-15T23:58:28	14.5	87.5
114679	2025-04-16T00:08:28	14.4	88
114680	2025-04-16T00:18:28	14	88.5
114681	2025-04-16T00:28:28	13.9	89.5
114682	2025-04-16T00:38:28	14.1	88.5
114683	2025-04-16T00:48:28	14	88.5
114684	2025-04-16T00:58:28	13.8	88.5
114685	2025-04-16T01:08:28	13.7	89
114686	2025-04-16T01:18:28	13.7	89
114687	2025-04-16T01:28:28	13.4	88.5
114688	2025-04-16T01:38:28	13.2	89
114689	2025-04-16T01:48:28	13	89
114690	2025-04-16T01:58:28	13.2	89
114691	2025-04-16T02:08:28	12.9	88.5
114692	2025-04-16T02:18:28	12.8	89.5
114693	2025-04-16T02:28:28	12.5	89
114694	2025-04-16T02:38:28	12.4	89
114695	2025-04-16T02:48:28	12.4	89
114696	2025-04-16T02:58:28	12.5	88
114697	2025-04-16T03:08:28	12.6	89
114698	2025-04-16T03:18:28	12.6	89
114699	2025-04-16T03:28:28	12.3	89.5
114700	2025-04-16T03:38:27	12.2	90
114701	2025-04-16T03:48:27	12.1	90
114702	2025-04-16T03:58:27	11.8	90
114703	2025-04-16T04:08:27	11.5	90
114704	2025-04-16T04:18:27	11.7	90.5
114705	2025-04-16T04:28:27	11.5	90.5
114706	2025-04-16T04:38:27	11.8	89.5
114707	2025-04-16T04:48:27	11.9	89.5
114708	2025-04-16T04:58:27	12	89
114709	2025-04-16T05:08:27	12.1	88
114710	2025-04-16T05:18:27	12.2	89
114711	2025-04-16T05:28:27	12.3	89
114712	2025-04-16T05:38:27	12.2	89.5
114713	2025-04-16T05:48:27	12.3	90
114714	2025-04-16T05:58:27	12.5	89
114715	2025-04-16T06:08:27	12.3	89.5
114716	2025-04-16T06:18:27	12.5	90
114717	2025-04-16T06:28:27	12.6	89
114718	2025-04-16T06:38:27	12.4	89.5
114719	2025-04-16T06:48:27	12.5	91
114720	2025-04-16T06:58:27	12.6	90
114721	2025-04-16T07:08:27	12.9	89.5
114722	2025-04-16T07:18:27	13	89.5
114723	2025-04-16T07:28:27	13.4	87.5
114724	2025-04-16T07:38:27	13.7	87.5
114725	2025-04-16T07:48:27	14	87
114726	2025-04-16T07:58:27	14.4	86
114727	2025-04-16T08:08:27	15.1	81.5
114728	2025-04-16T08:18:27	15.3	81.5
114729	2025-04-16T08:28:27	15.5	79
114730	2025-04-16T08:38:27	15.6	79.5
114731	2025-04-16T08:48:27	15.8	79
114732	2025-04-16T08:58:27	16.2	76
114733	2025-04-16T09:08:27	17	74.5
114734	2025-04-16T09:18:27	17.3	73.5
114735	2025-04-16T09:28:27	17.5	73
114736	2025-04-16T09:38:27	17.9	71
114737	2025-04-16T09:48:27	18.2	70
114738	2025-04-16T09:58:27	18.6	68
114739	2025-04-16T10:08:27	19.6	63
114740	2025-04-16T10:18:27	19.2	64.5
114741	2025-04-16T10:28:27	19.2	66.5
114742	2025-04-16T10:38:27	19.4	65
114743	2025-04-16T10:48:27	19.2	65.5
114744	2025-04-16T10:58:27	18.7	68
114745	2025-04-16T11:08:27	18.4	69
114746	2025-04-16T11:18:27	18.2	72
114747	2025-04-16T11:28:27	17.7	72.5
114748	2025-04-16T11:38:27	17.2	73.5
114749	2025-04-16T11:48:27	16.7	75
114750	2025-04-16T11:58:27	16.1	75
114751	2025-04-16T12:08:27	15.6	78
114752	2025-04-16T12:18:27	15.2	79.5
114753	2025-04-16T12:28:27	14.9	79.5
114754	2025-04-16T12:38:27	14.3	80
114755	2025-04-16T12:48:27	14	81
114756	2025-04-16T12:58:27	13.7	81
114757	2025-04-16T13:08:27	13.7	81
114758	2025-04-16T13:18:27	13.6	80.5
114759	2025-04-16T13:28:27	13.3	81
114760	2025-04-16T13:38:27	13.3	81
114761	2025-04-16T13:48:27	13.2	80.5
114762	2025-04-16T13:58:27	12.9	80.5
114763	2025-04-16T14:08:27	12.8	80
114764	2025-04-16T14:18:27	12.8	79.5
114765	2025-04-16T14:28:27	12.7	80
114766	2025-04-16T14:38:27	12.5	79.5
114767	2025-04-16T14:48:27	12.5	79
114768	2025-04-16T14:58:27	12.4	79
114769	2025-04-16T15:08:27	12.3	79.5
114770	2025-04-16T15:18:27	12.2	80
114771	2025-04-16T15:28:27	12	84.5
114772	2025-04-16T15:38:27	11.3	98.5
114773	2025-04-16T15:48:27	10.7	100
114774	2025-04-16T15:58:27	10.7	96
114775	2025-04-16T16:08:27	10.5	95
114776	2025-04-16T16:18:27	10.5	96.5
114777	2025-04-16T16:28:27	10.4	94
114778	2025-04-16T16:38:26	10.2	96.5
114779	2025-04-16T16:48:26	10.1	98
114780	2025-04-16T16:58:26	10	98.5
114781	2025-04-16T17:08:26	10	98
114782	2025-04-16T17:18:26	9.8	100
114783	2025-04-16T17:28:26	9.8	100
114784	2025-04-16T17:38:26	9.8	100
114785	2025-04-16T17:48:26	9.5	100
114786	2025-04-16T17:58:26	9.5	100
114787	2025-04-16T18:08:26	9.5	100
114788	2025-04-16T18:18:26	9.4	100
114789	2025-04-16T18:28:26	9.4	100
114790	2025-04-16T18:38:26	9.3	100
114791	2025-04-16T18:48:26	9.3	100
114792	2025-04-16T18:58:26	9.4	100
114793	2025-04-16T19:08:26	9.3	100
114794	2025-04-16T19:18:26	9.3	100
114795	2025-04-16T19:28:26	9.2	100
114796	2025-04-16T19:38:26	9.1	100
114797	2025-04-16T19:48:26	9.1	100
114798	2025-04-16T19:58:26	9.2	100
114799	2025-04-16T20:08:26	9.1	100
114800	2025-04-16T20:18:26	9.2	100
114801	2025-04-16T20:28:26	9.2	100
114802	2025-04-16T20:38:26	9.2	100
114803	2025-04-16T20:48:26	9.2	100
114804	2025-04-16T20:58:26	9.3	100
114805	2025-04-16T21:08:26	9	100
114806	2025-04-16T21:18:26	9	100
114807	2025-04-16T21:28:26	9.2	100
114808	2025-04-16T21:38:26	9.1	100
114809	2025-04-16T21:48:26	9	100
114810	2025-04-16T21:58:26	9	100
114811	2025-04-16T22:08:26	9.1	100
114812	2025-04-16T22:18:26	9	100
114813	2025-04-16T22:28:26	9	100
114814	2025-04-16T22:38:26	9.1	100
114815	2025-04-16T22:48:26	9	100
114816	2025-04-16T22:58:26	9	100
114817	2025-04-16T23:08:26	9	100
114818	2025-04-16T23:18:26	9	100
114819	2025-04-16T23:28:26	9	100
114820	2025-04-16T23:38:26	8.9	100
114821	2025-04-16T23:48:26	8.8	100
114822	2025-04-16T23:58:26	8.8	100
114823	2025-04-17T00:08:26	8.7	100
114824	2025-04-17T00:18:26	8.7	100
114825	2025-04-17T00:28:26	8.8	100
114826	2025-04-17T00:38:26	8.7	100
114827	2025-04-17T00:48:26	8.6	100
114828	2025-04-17T00:58:26	8.7	100
114829	2025-04-17T01:08:26	8.8	100
114830	2025-04-17T01:18:26	8.7	100
114831	2025-04-17T01:28:26	8.7	100
114832	2025-04-17T01:38:26	8.7	100
114833	2025-04-17T01:48:26	8.7	100
114834	2025-04-17T01:58:26	8.7	100
114835	2025-04-17T02:08:26	8.6	100
114836	2025-04-17T02:18:26	8.6	100
114837	2025-04-17T02:28:26	8.7	100
114838	2025-04-17T02:38:26	8.7	100
114839	2025-04-17T02:48:26	8.7	100
114840	2025-04-17T02:58:26	8.8	100
114841	2025-04-17T03:08:26	8.6	100
114842	2025-04-17T03:18:26	8.6	100
114843	2025-04-17T03:28:26	8.8	100
114844	2025-04-17T03:38:26	8.8	100
114845	2025-04-17T03:48:26	8.6	100
114846	2025-04-17T03:58:26	8.6	100
114847	2025-04-17T04:08:26	8.5	100
114848	2025-04-17T04:18:26	8.7	100
114849	2025-04-17T04:28:26	8.6	100
114850	2025-04-17T04:38:26	8.6	100
114851	2025-04-17T04:48:26	8.5	100
114852	2025-04-17T04:58:26	8.5	100
114853	2025-04-17T05:08:26	8.5	100
114854	2025-04-17T05:18:26	8.5	100
114855	2025-04-17T05:28:26	8.6	100
114856	2025-04-17T05:38:26	8.7	100
114857	2025-04-17T05:48:26	8.7	100
114858	2025-04-17T05:58:26	8.7	100
114859	2025-04-17T06:08:26	8.8	100
114860	2025-04-17T06:18:26	8.8	100
114861	2025-04-17T06:28:26	8.7	100
114862	2025-04-17T06:38:26	8.5	100
114863	2025-04-17T06:48:26	8.6	100
114864	2025-04-17T06:58:26	8.6	100
114865	2025-04-17T07:08:26	8.9	100
114866	2025-04-17T07:18:26	8.8	100
114867	2025-04-17T07:28:26	8.9	100
114868	2025-04-17T07:38:26	9.1	100
114869	2025-04-17T07:48:26	9.1	100
114870	2025-04-17T07:58:26	9.1	100
114871	2025-04-17T08:08:26	9.2	100
114872	2025-04-17T08:18:26	9.2	100
114873	2025-04-17T08:28:26	9.1	100
114874	2025-04-17T08:38:26	9.3	100
114875	2025-04-17T08:48:26	9.3	100
114876	2025-04-17T08:58:26	9.4	100
114877	2025-04-17T09:08:26	9.4	100
114878	2025-04-17T09:18:26	9.6	100
114879	2025-04-17T09:28:25	9.8	100
114880	2025-04-17T09:38:25	9.8	100
114881	2025-04-17T09:48:25	10	100
114882	2025-04-17T09:58:25	9.9	100
114883	2025-04-17T10:08:25	9.9	100
114884	2025-04-17T10:18:25	9.7	100
114885	2025-04-17T10:28:25	9.8	100
114886	2025-04-17T10:38:25	9.9	100
114887	2025-04-17T10:48:25	9.8	100
114888	2025-04-17T10:58:25	9.9	100
114889	2025-04-17T11:08:25	9.9	100
114890	2025-04-17T11:18:25	10.1	100
114891	2025-04-17T11:28:25	10.1	100
114892	2025-04-17T11:38:25	10.2	100
114893	2025-04-17T11:48:25	10.2	100
114894	2025-04-17T11:58:25	10.2	100
114895	2025-04-17T12:08:25	10.3	100
114896	2025-04-17T12:18:25	10.4	100
114897	2025-04-17T12:28:25	10.1	100
114898	2025-04-17T12:38:25	10	100
114899	2025-04-17T12:48:25	10.1	100
114900	2025-04-17T12:58:25	10	100
114901	2025-04-17T13:08:25	10.1	100
114902	2025-04-17T13:18:25	9.9	100
114903	2025-04-17T13:28:25	9.9	100
114904	2025-04-17T13:38:25	9.9	100
114905	2025-04-17T13:48:25	10.2	100
114906	2025-04-17T13:58:25	10	100
114907	2025-04-17T14:08:25	10	100
114908	2025-04-17T14:18:25	9.9	100
114909	2025-04-17T14:28:25	9.8	100
114910	2025-04-17T14:38:25	9.8	100
114911	2025-04-17T14:48:25	9.9	100
114912	2025-04-17T14:58:25	9.8	100
114913	2025-04-17T15:08:25	9.7	100
114914	2025-04-17T15:18:25	9.8	100
114915	2025-04-17T15:28:25	9.6	100
114916	2025-04-17T15:38:25	9.5	100
114917	2025-04-17T15:48:25	9.6	100
114918	2025-04-17T15:58:25	9.4	100
114919	2025-04-17T16:08:25	9.6	100
114920	2025-04-17T16:18:25	9.5	100
114921	2025-04-17T16:28:25	9.5	100
114922	2025-04-17T16:38:25	9.4	100
114923	2025-04-17T16:48:25	9.2	100
114924	2025-04-17T16:58:25	9.1	100
114925	2025-04-17T17:08:25	9	100
114926	2025-04-17T17:18:25	9.1	100
114927	2025-04-17T17:28:25	9	100
114928	2025-04-17T17:38:25	9	100
114929	2025-04-17T17:48:25	9	100
114930	2025-04-17T17:58:25	9	100
114931	2025-04-17T18:08:25	8.7	100
114932	2025-04-17T18:18:25	8.7	100
114933	2025-04-17T18:28:25	8.6	100
114934	2025-04-17T18:38:25	8.6	100
114935	2025-04-17T18:48:25	8.7	100
114936	2025-04-17T18:58:25	8.4	100
114937	2025-04-17T19:08:25	8.4	100
114938	2025-04-17T19:18:25	8.3	100
114939	2025-04-17T19:28:25	8.3	100
114940	2025-04-17T19:38:25	8.3	99.5
114941	2025-04-17T19:48:25	8.3	98.5
114942	2025-04-17T19:58:25	8.2	97.5
114943	2025-04-17T20:08:25	8.1	96.5
114944	2025-04-17T20:18:25	8.1	95.5
114945	2025-04-17T20:28:25	8.1	95.5
114946	2025-04-17T20:38:25	8.1	95.5
114947	2025-04-17T20:48:25	8	95.5
114948	2025-04-17T20:58:25	8.1	96
114949	2025-04-17T21:08:25	8.1	95.5
114950	2025-04-17T21:18:25	8.1	95.5
114951	2025-04-17T21:28:25	8.1	95.5
114952	2025-04-17T21:38:25	8	95.5
114953	2025-04-17T21:48:25	8	96
114954	2025-04-17T21:58:25	7.9	96
114955	2025-04-17T22:08:25	8	96
114956	2025-04-17T22:18:25	7.9	96
114957	2025-04-17T22:28:25	7.9	95.5
114958	2025-04-17T22:38:25	7.9	95.5
114959	2025-04-17T22:48:25	7.9	96
114960	2025-04-17T22:58:25	7.9	96
114961	2025-04-17T23:08:25	7.9	96
114962	2025-04-17T23:18:25	8	95.5
114963	2025-04-17T23:28:25	7.9	96
114964	2025-04-17T23:38:25	7.8	96
114965	2025-04-17T23:48:25	7.9	96
114966	2025-04-17T23:58:25	7.9	96
114967	2025-04-18T00:08:25	7.9	96
114968	2025-04-18T00:18:25	8	96
114969	2025-04-18T00:28:25	7.8	96
114970	2025-04-18T00:38:25	7.6	96
114971	2025-04-18T00:48:25	7.6	96
114972	2025-04-18T00:58:25	7.6	96
114973	2025-04-18T01:08:25	7.5	96
114974	2025-04-18T01:18:25	7.6	96
114975	2025-04-18T01:28:25	7.5	96
114976	2025-04-18T01:38:25	7.5	96
114977	2025-04-18T01:48:25	7.4	96
114978	2025-04-18T01:58:25	7.3	96
114979	2025-04-18T02:08:25	7.5	96
114980	2025-04-18T02:18:25	7.5	96.5
114981	2025-04-18T02:28:25	7.4	96.5
114982	2025-04-18T02:38:25	7.4	96.5
114983	2025-04-18T02:48:24	7.4	96.5
114984	2025-04-18T02:58:25	7.3	96.5
114985	2025-04-18T03:08:24	7.4	96.5
114986	2025-04-18T03:18:24	7.4	96.5
114987	2025-04-18T03:28:24	7.3	96.5
114988	2025-04-18T03:38:24	7.3	96.5
114989	2025-04-18T03:48:24	7.3	96.5
114990	2025-04-18T03:58:24	7.3	96.5
114991	2025-04-18T04:08:24	7.2	96.5
114992	2025-04-18T04:18:24	7.2	96.5
114993	2025-04-18T04:28:24	7.2	96.5
114994	2025-04-18T04:38:24	7.2	96.5
114995	2025-04-18T04:48:24	7	96.5
114996	2025-04-18T04:58:24	7	96.5
114997	2025-04-18T05:08:24	7	96.5
114998	2025-04-18T05:18:24	7	96.5
114999	2025-04-18T05:28:24	6.9	96.5
115000	2025-04-18T05:38:24	7	96.5
115001	2025-04-18T05:48:24	7	96.5
115002	2025-04-18T05:58:24	7	96.5
115003	2025-04-18T06:08:24	7.1	96.5
115004	2025-04-18T06:18:24	7.2	96.5
115005	2025-04-18T06:28:24	7.3	96.5
115006	2025-04-18T06:38:24	7.3	96.5
115007	2025-04-18T06:48:24	7.2	96.5
115008	2025-04-18T06:58:24	7.3	96.5
115009	2025-04-18T07:08:24	7.3	96.5
115010	2025-04-18T07:18:24	7.3	96.5
115011	2025-04-18T07:28:24	7.3	96.5
115012	2025-04-18T07:38:24	7.4	96.5
115013	2025-04-18T07:48:24	7.4	96.5
115014	2025-04-18T07:58:24	7.4	96.5
115015	2025-04-18T08:08:24	7.4	96.5
115016	2025-04-18T08:18:24	7.5	96.5
115017	2025-04-18T08:28:24	7.5	96.5
115018	2025-04-18T08:38:24	7.7	96.5
115019	2025-04-18T08:48:24	7.7	96.5
115020	2025-04-18T08:58:24	7.9	96.5
115021	2025-04-18T09:08:24	7.8	96.5
115022	2025-04-18T09:18:24	7.7	96.5
115023	2025-04-18T09:28:24	7.6	96.5
115024	2025-04-18T09:38:24	7.6	96.5
115025	2025-04-18T09:48:24	7.5	96.5
115026	2025-04-18T09:58:24	7.5	96.5
115027	2025-04-18T10:08:24	7.4	96.5
115028	2025-04-18T10:18:24	7.5	96.5
115029	2025-04-18T10:28:24	7.8	96.5
115030	2025-04-18T10:38:24	7.8	96.5
115031	2025-04-18T10:48:24	7.6	96.5
115032	2025-04-18T10:58:24	7.9	96.5
115033	2025-04-18T11:08:24	8.2	96.5
115034	2025-04-18T11:18:24	8.5	96.5
115035	2025-04-18T11:28:24	8.9	96.5
115036	2025-04-18T11:38:24	9.1	96.5
115037	2025-04-18T11:48:24	9.1	96.5
115038	2025-04-18T11:58:24	9.2	96.5
115039	2025-04-18T12:08:24	9.4	96.5
115040	2025-04-18T12:18:24	9.9	96.5
115041	2025-04-18T12:28:24	10.1	96.5
115042	2025-04-18T12:38:24	10.4	96.5
115043	2025-04-18T12:48:24	10.4	96.5
115044	2025-04-18T12:58:24	10	96.5
115045	2025-04-18T13:08:24	9.8	96.5
115046	2025-04-18T13:18:24	9.5	96.5
115047	2025-04-18T13:28:24	9.5	99.5
115048	2025-04-18T13:38:24	9.5	99.5
115049	2025-04-18T13:48:24	9.4	99.5
115050	2025-04-18T13:58:24	9.5	99.5
115051	2025-04-18T14:08:24	9.6	99.5
115052	2025-04-18T14:18:24	9.7	99.5
115053	2025-04-18T14:28:24	10	100
115054	2025-04-18T14:38:24	10.1	99.5
115055	2025-04-18T14:48:24	10.1	97
115056	2025-04-18T14:58:24	9.9	95.5
115057	2025-04-18T15:08:24	9.9	91
115058	2025-04-18T15:18:24	10	88.5
115059	2025-04-18T15:28:24	10	87
115060	2025-04-18T15:38:24	10	89
115061	2025-04-18T15:48:24	10	87
115062	2025-04-18T15:58:24	10	87.5
115063	2025-04-18T16:08:24	9.9	87.5
115064	2025-04-18T16:18:24	10	88
115065	2025-04-18T16:28:24	10	90
115066	2025-04-18T16:38:24	9.9	88
115067	2025-04-18T16:48:24	9.6	88
115068	2025-04-18T16:58:24	9.7	89.5
115069	2025-04-18T17:08:24	9.7	89
115070	2025-04-18T17:18:24	9.6	89.5
115071	2025-04-18T17:28:24	9.6	89.5
115072	2025-04-18T17:38:24	9.4	89.5
115073	2025-04-18T17:48:24	9.4	91
115074	2025-04-18T17:58:24	9.3	95
115075	2025-04-18T18:08:24	9.2	96
115076	2025-04-18T18:18:24	9.2	99
115077	2025-04-18T18:28:24	9.1	99.5
115078	2025-04-18T18:38:24	9	100
115079	2025-04-18T18:48:24	9	100
115080	2025-04-18T18:58:24	8.9	100
115081	2025-04-18T19:08:24	8.9	100
115082	2025-04-18T19:18:24	8.8	100
115083	2025-04-18T19:28:24	8.8	100
115084	2025-04-18T19:38:24	8.8	100
115085	2025-04-18T19:48:24	8.7	100
115086	2025-04-18T19:58:24	8.7	100
115087	2025-04-18T20:08:24	8.7	100
115088	2025-04-18T20:18:24	8.6	100
115089	2025-04-18T20:28:24	8.6	100
115090	2025-04-18T20:38:24	8.6	100
115091	2025-04-18T20:48:24	8.6	100
115092	2025-04-18T20:58:24	8.6	100
115093	2025-04-18T21:08:24	8.6	100
115094	2025-04-18T21:18:23	8.4	100
115095	2025-04-18T21:28:23	8.1	100
115096	2025-04-18T21:38:23	8	100
115097	2025-04-18T21:48:23	7.7	100
115098	2025-04-18T21:58:23	7.3	100
115099	2025-04-18T22:08:23	7.2	100
115100	2025-04-18T22:18:23	7	100
115101	2025-04-18T22:28:23	6.8	100
115102	2025-04-18T22:38:23	6.8	100
115103	2025-04-18T22:48:23	6.6	100
115104	2025-04-18T22:58:23	6.4	100
115105	2025-04-18T23:08:23	6.1	100
115106	2025-04-18T23:18:23	6.1	100
115107	2025-04-18T23:28:23	6	100
115108	2025-04-18T23:38:23	5.9	100
115109	2025-04-18T23:48:23	5.8	100
115110	2025-04-18T23:58:23	5.7	100
115111	2025-04-19T00:08:23	5.5	100
115112	2025-04-19T00:18:23	5.5	100
115113	2025-04-19T00:28:23	5.3	100
115114	2025-04-19T00:38:23	5.2	100
115115	2025-04-19T00:48:23	5.2	100
115116	2025-04-19T00:58:23	5	100
115117	2025-04-19T01:08:23	5.1	100
115118	2025-04-19T01:18:23	5.1	100
115119	2025-04-19T01:28:23	5	100
115120	2025-04-19T01:38:23	4.8	100
115121	2025-04-19T01:48:23	4.7	100
115122	2025-04-19T01:58:23	4.6	100
115123	2025-04-19T02:08:23	4.5	100
115124	2025-04-19T02:18:23	4.4	100
115125	2025-04-19T02:28:23	4.3	100
115126	2025-04-19T02:38:23	4.1	100
115127	2025-04-19T02:48:23	4	100
115128	2025-04-19T02:58:23	3.9	100
115129	2025-04-19T03:08:23	3.9	100
115130	2025-04-19T03:18:23	3.7	100
115131	2025-04-19T03:28:23	3.7	100
115132	2025-04-19T03:38:23	3.7	100
115133	2025-04-19T03:48:23	3.7	100
115134	2025-04-19T03:58:23	3.5	100
115135	2025-04-19T04:08:23	3.6	100
115136	2025-04-19T04:18:23	3.6	100
115137	2025-04-19T04:28:23	3.5	100
115138	2025-04-19T04:38:23	3.5	100
115139	2025-04-19T04:48:23	3.6	100
115140	2025-04-19T04:58:23	3.7	100
115141	2025-04-19T05:08:23	3.8	100
115142	2025-04-19T05:18:23	3.8	100
115143	2025-04-19T05:28:23	3.9	100
115144	2025-04-19T05:38:23	4.1	100
115145	2025-04-19T05:48:23	4.3	100
115146	2025-04-19T05:58:23	4.5	100
115147	2025-04-19T06:08:23	4.7	100
115148	2025-04-19T06:18:23	4.9	100
115149	2025-04-19T06:28:23	5.3	100
115150	2025-04-19T06:38:23	5.3	100
115151	2025-04-19T06:48:23	5.8	100
115152	2025-04-19T06:58:23	6.1	100
115153	2025-04-19T07:08:23	6.4	98.5
115154	2025-04-19T07:18:23	6.6	98.5
115155	2025-04-19T07:28:23	6.9	97.5
115156	2025-04-19T07:38:23	7.1	97.5
115157	2025-04-19T07:48:23	7.4	98.5
115158	2025-04-19T07:58:23	7.9	97
115159	2025-04-19T08:08:23	8.5	92
115160	2025-04-19T08:18:23	8.6	92
115161	2025-04-19T08:28:23	8.6	94
115162	2025-04-19T08:38:23	9.2	90.5
115163	2025-04-19T08:48:23	9.5	89.5
115164	2025-04-19T08:58:23	9.7	88
115165	2025-04-19T09:08:23	10	89
115166	2025-04-19T09:18:23	10.3	87.5
115167	2025-04-19T09:28:23	10.7	88
115168	2025-04-19T09:38:23	11.1	87.5
115169	2025-04-19T09:48:23	11.3	86.5
115170	2025-04-19T09:58:23	11.7	85.5
115171	2025-04-19T10:08:23	11.8	83.5
115172	2025-04-19T10:18:23	12.1	83
115173	2025-04-19T10:28:23	12.7	85
115174	2025-04-19T10:38:23	13.3	78.5
115175	2025-04-19T10:48:23	13.6	77
115176	2025-04-19T10:58:23	13.9	73
115177	2025-04-19T11:08:23	14.5	71
115178	2025-04-19T11:18:23	15.2	71.5
115179	2025-04-19T11:28:23	15.8	70
115180	2025-04-19T11:38:23	16.7	70.5
115181	2025-04-19T11:48:23	17.3	64.5
115182	2025-04-19T11:58:23	18.1	62.5
115183	2025-04-19T12:08:23	19.8	62.5
115184	2025-04-19T12:18:23	20.6	53.5
115185	2025-04-19T12:28:23	21.7	56.5
115186	2025-04-19T12:38:23	23.3	47.5
115187	2025-04-19T12:48:23	25.4	43.5
115188	2025-04-19T12:58:23	25.9	43
115189	2025-04-19T13:08:23	27.7	40
115190	2025-04-19T13:18:23	28.1	41.5
115191	2025-04-19T13:28:23	28.5	36.5
115192	2025-04-19T13:38:23	30.1	35
115193	2025-04-19T13:48:23	31.1	36
115194	2025-04-19T13:58:23	31.1	34.5
115195	2025-04-19T14:08:23	30.5	32.5
115196	2025-04-19T14:18:23	28.2	35
115197	2025-04-19T14:28:23	29.8	36
115198	2025-04-19T14:38:23	30	35
115199	2025-04-19T14:48:23	28.4	36.5
115200	2025-04-19T14:58:23	27.9	37.5
115201	2025-04-19T15:08:23	32.6	33.5
115202	2025-04-19T15:18:23	32.9	32.5
115203	2025-04-19T15:28:22	34.6	32
115204	2025-04-19T15:38:22	30.8	34
115205	2025-04-19T15:48:22	28.3	38
115206	2025-04-19T15:58:22	29	36
115207	2025-04-19T16:08:22	31.4	33.5
115208	2025-04-19T16:18:22	32.2	33
115209	2025-04-19T16:28:22	32	32
115210	2025-04-19T16:38:22	30.7	33
115211	2025-04-19T16:48:22	28.2	37
115212	2025-04-19T16:58:22	25.9	42
115213	2025-04-19T17:08:22	24.7	46.5
115214	2025-04-19T17:18:22	24.2	48.5
115215	2025-04-19T17:28:22	23.7	49
115216	2025-04-19T17:38:22	23.4	49.5
115217	2025-04-19T17:48:22	22.8	52
115218	2025-04-19T17:58:22	22	54
115219	2025-04-19T18:08:22	21.6	54.5
115220	2025-04-19T18:18:22	21.1	56.5
115221	2025-04-19T18:28:22	20.5	56.5
115222	2025-04-19T18:38:22	19.6	58.5
115223	2025-04-19T18:48:22	19.4	59.5
115224	2025-04-19T18:58:22	18.9	58
115225	2025-04-19T19:08:22	18.7	59
115226	2025-04-19T19:18:22	18.3	60.5
115227	2025-04-19T19:28:22	17.9	63
115228	2025-04-19T19:38:22	17.6	64
115229	2025-04-19T19:48:22	17.2	67
115230	2025-04-19T19:58:22	16.8	66.5
115231	2025-04-19T20:08:22	16.5	67.5
115232	2025-04-19T20:18:22	16.4	68
115233	2025-04-19T20:28:22	16.2	69.5
115234	2025-04-19T20:38:22	16	72
115235	2025-04-19T20:48:22	15.7	73.5
115236	2025-04-19T20:58:22	15.6	74.5
115237	2025-04-19T21:08:22	15.2	75
115238	2025-04-19T21:18:22	14.9	76
115239	2025-04-19T21:28:22	14.8	76.5
115240	2025-04-19T21:38:22	14.5	77
115241	2025-04-19T21:48:22	14.2	77.5
115242	2025-04-19T21:58:22	13.9	79
115243	2025-04-19T22:08:22	13.8	79
115244	2025-04-19T22:18:22	13.6	80
115245	2025-04-19T22:28:22	13.4	80
115246	2025-04-19T22:38:22	13.2	79
115247	2025-04-19T22:48:22	13.2	78.5
115248	2025-04-19T22:58:22	13.1	79
115249	2025-04-19T23:08:22	12.9	78.5
115250	2025-04-19T23:18:22	12.8	79
115251	2025-04-19T23:28:22	12.5	80
115252	2025-04-19T23:38:22	12.3	81
115253	2025-04-19T23:48:22	12	82
115254	2025-04-19T23:58:22	11.8	82
115255	2025-04-20T00:08:22	11.6	83
115256	2025-04-20T00:18:22	11.5	84
115257	2025-04-20T00:28:22	11.1	84.5
115258	2025-04-20T00:38:22	11.2	85
115259	2025-04-20T00:48:22	11	85.5
115260	2025-04-20T00:58:22	10.8	85.5
115261	2025-04-20T01:08:22	10.6	86
115262	2025-04-20T01:18:22	10.6	86
115263	2025-04-20T01:28:22	10.5	86
115264	2025-04-20T01:38:22	10.4	87
115265	2025-04-20T01:48:22	10.2	87
115266	2025-04-20T01:58:22	10	88
115267	2025-04-20T02:08:22	9.9	89
115268	2025-04-20T02:18:22	9.7	89
115269	2025-04-20T02:28:22	9.7	89
115270	2025-04-20T02:38:22	9.6	89
115271	2025-04-20T02:48:22	9.5	89
115272	2025-04-20T02:58:22	9.4	89.5
115273	2025-04-20T03:08:22	9.3	89.5
115274	2025-04-20T03:18:22	9.1	90.5
115275	2025-04-20T03:28:22	9	91
115276	2025-04-20T03:38:22	9	91
115277	2025-04-20T03:48:22	8.9	91
115278	2025-04-20T03:58:22	8.7	90
115279	2025-04-20T04:08:22	8.6	90.5
115280	2025-04-20T04:18:22	8.5	91
115281	2025-04-20T04:28:21	8.5	91
115282	2025-04-20T04:38:22	8.3	90.5
115283	2025-04-20T04:48:21	8.4	91.5
115284	2025-04-20T04:58:21	8.5	92
115285	2025-04-20T05:08:21	8.3	90
115286	2025-04-20T05:18:21	8.3	91.5
115287	2025-04-20T05:28:21	8.3	91.5
115288	2025-04-20T05:38:21	8.5	91.5
115289	2025-04-20T05:48:21	8.5	91.5
115290	2025-04-20T05:58:21	8.5	92
115291	2025-04-20T06:08:21	8.6	92
115292	2025-04-20T06:18:21	8.9	92
115293	2025-04-20T06:28:21	9	91.5
115294	2025-04-20T06:38:21	9.3	91
115295	2025-04-20T06:48:21	9.3	90.5
115296	2025-04-20T06:58:21	9.5	90.5
115297	2025-04-20T07:08:21	9.8	90.5
115298	2025-04-20T07:18:21	10.2	88.5
115299	2025-04-20T07:28:21	10.5	88.5
115300	2025-04-20T07:38:21	11.1	87
115301	2025-04-20T07:48:21	11.6	86
115302	2025-04-20T07:58:21	12	85
115303	2025-04-20T08:08:21	12.3	83
115304	2025-04-20T08:18:21	12.9	82
115305	2025-04-20T08:28:21	13.6	79
115306	2025-04-20T08:38:21	14.1	76.5
115307	2025-04-20T08:48:21	14.5	74.5
115308	2025-04-20T08:58:21	15	73.5
115309	2025-04-20T09:08:21	15.2	72.5
115310	2025-04-20T09:18:43	15.5	73
115311	2025-04-20T09:28:21	15.7	69
115312	2025-04-20T09:38:21	16.1	67
115313	2025-04-20T09:48:21	16.3	65
115314	2025-04-20T09:58:21	16.5	65
115315	2025-04-20T10:08:21	16.9	64.5
115316	2025-04-20T10:18:21	17	56.5
115317	2025-04-20T10:28:21	17	56
115318	2025-04-20T10:38:21	17	55.5
115319	2025-04-20T10:48:21	17	55.5
115320	2025-04-20T10:58:21	17.4	54
115321	2025-04-20T11:08:21	18.3	53
115322	2025-04-20T11:18:21	18.3	51
115323	2025-04-20T11:28:21	18.6	51.5
115324	2025-04-20T11:38:21	18.3	52
115325	2025-04-20T11:48:21	18.5	50.5
115326	2025-04-20T11:58:21	18.8	49.5
115327	2025-04-20T12:08:21	19.2	48
115328	2025-04-20T12:18:21	19.4	48
115329	2025-04-20T12:28:21	18.7	50.5
115330	2025-04-20T12:38:21	18.6	50.5
115331	2025-04-20T12:48:21	18.1	52.5
115332	2025-04-20T12:58:21	17.2	54.5
115333	2025-04-20T13:08:21	15.9	60.5
115334	2025-04-20T13:18:21	14.7	66.5
115335	2025-04-20T13:28:21	13.6	76
115336	2025-04-20T13:38:21	14.2	69.5
115337	2025-04-20T13:48:21	13.3	74
115338	2025-04-20T13:58:21	13.6	69
115339	2025-04-20T14:08:21	13.3	69
115340	2025-04-20T14:18:21	13	71.5
115341	2025-04-20T14:28:21	10.8	94.5
115342	2025-04-20T14:38:21	10.5	96
115343	2025-04-20T14:48:21	9.9	99.5
115344	2025-04-20T14:58:21	9.9	100
115345	2025-04-20T15:08:21	10.1	100
115346	2025-04-20T15:18:21	10.7	100
115347	2025-04-20T15:28:21	11.4	100
115348	2025-04-20T15:38:21	11.7	100
115349	2025-04-20T15:48:21	12.4	100
115350	2025-04-20T15:58:21	13.5	100
115351	2025-04-20T16:08:21	13.9	100
115352	2025-04-20T16:18:21	13.2	100
115353	2025-04-20T16:28:21	14.7	100
115354	2025-04-20T16:38:21	15.2	100
115355	2025-04-20T16:48:21	16.7	100
115356	2025-04-20T16:58:21	16.3	98.5
115357	2025-04-20T17:08:21	15.7	97.5
115358	2025-04-20T17:18:21	16.1	100
115359	2025-04-20T17:28:21	16	98
115360	2025-04-20T17:38:21	14.7	99.5
115361	2025-04-20T17:48:21	13.7	99.5
115362	2025-04-20T17:58:21	13.3	100
115363	2025-04-20T18:08:21	12.8	100
115364	2025-04-20T18:18:20	12.6	100
115365	2025-04-20T18:28:20	12	100
115366	2025-04-20T18:38:21	11.7	100
115367	2025-04-20T18:48:20	11.5	100
115368	2025-04-20T18:58:20	11	100
115369	2025-04-20T19:08:20	10.7	100
115370	2025-04-20T19:18:20	10.5	100
115371	2025-04-20T19:28:20	10.2	100
115372	2025-04-20T19:38:20	10	100
115373	2025-04-20T19:48:20	9.8	100
115374	2025-04-20T19:58:20	9.6	100
115375	2025-04-20T20:08:20	9.4	100
115376	2025-04-20T20:18:20	9.3	100
115377	2025-04-20T20:28:20	9.1	100
115378	2025-04-20T20:38:20	8.8	100
115379	2025-04-20T20:48:20	8.7	100
115380	2025-04-20T20:58:20	8.5	100
115381	2025-04-20T21:08:20	8.3	100
115382	2025-04-20T21:18:20	8.3	100
115383	2025-04-20T21:28:20	8.1	100
115384	2025-04-20T21:38:20	7.9	100
115385	2025-04-20T21:48:20	7.9	100
115386	2025-04-20T21:58:20	7.7	100
115387	2025-04-20T22:08:20	7.7	100
115388	2025-04-20T22:18:20	7.4	100
115389	2025-04-20T22:28:20	7.2	100
115390	2025-04-20T22:38:20	7.1	100
115391	2025-04-20T22:48:20	7	100
115392	2025-04-20T22:58:20	7	100
115393	2025-04-20T23:08:20	6.9	100
115394	2025-04-20T23:18:20	6.7	100
115395	2025-04-20T23:28:20	6.6	100
115396	2025-04-20T23:38:20	6.5	100
115397	2025-04-20T23:48:20	6.5	100
115398	2025-04-20T23:58:20	6.4	100
115399	2025-04-21T00:08:20	6.3	100
115400	2025-04-21T00:18:20	6.3	100
115401	2025-04-21T00:28:20	6.3	100
115402	2025-04-21T00:38:20	6.4	100
115403	2025-04-21T00:48:20	6.4	100
115404	2025-04-21T00:58:20	6.7	100
115405	2025-04-21T01:08:20	6.7	100
115406	2025-04-21T01:18:20	6.7	100
115407	2025-04-21T01:28:20	6.6	100
115408	2025-04-21T01:38:20	6.6	100
115409	2025-04-21T01:48:20	6.6	100
115410	2025-04-21T01:58:20	6.8	100
115411	2025-04-21T02:08:20	6.8	100
115412	2025-04-21T02:18:20	6.8	100
115413	2025-04-21T02:28:20	6.9	100
115414	2025-04-21T02:38:20	6.5	100
115415	2025-04-21T02:48:20	6.3	100
115416	2025-04-21T02:58:20	6.2	100
115417	2025-04-21T03:08:20	6.5	100
115418	2025-04-21T03:18:20	6.7	100
115419	2025-04-21T03:28:20	6.5	99.5
115420	2025-04-21T03:38:20	6.6	99
115421	2025-04-21T03:48:20	6.7	99.5
115422	2025-04-21T03:58:20	6.7	99.5
115423	2025-04-21T04:08:20	6.8	100
115424	2025-04-21T04:18:20	6.9	98.5
115425	2025-04-21T04:28:20	6.9	98.5
115426	2025-04-21T04:38:20	7	98
115427	2025-04-21T04:48:20	7	98
115428	2025-04-21T04:58:40	7.1	98.5
115429	2025-04-21T05:08:20	7.1	98.5
115430	2025-04-21T05:18:20	7.4	98
115431	2025-04-21T05:28:20	7.4	97.5
115432	2025-04-21T05:38:20	7.7	98
115433	2025-04-21T05:48:20	7.8	97.5
115434	2025-04-21T05:58:20	8	97.5
115435	2025-04-21T06:08:20	8.2	98
115436	2025-04-21T06:18:20	8.5	96.5
115437	2025-04-21T06:28:20	8.8	96
115438	2025-04-21T06:38:20	8.8	95
115439	2025-04-21T06:48:20	9	95
115440	2025-04-21T06:58:20	9.1	95.5
115441	2025-04-21T07:08:20	9.3	94.5
115442	2025-04-21T07:18:20	9.7	93.5
115443	2025-04-21T07:28:20	9.8	91.5
115444	2025-04-21T07:38:20	10.2	92
115445	2025-04-21T07:48:20	10.6	88
115446	2025-04-21T07:58:20	10.8	84.5
115447	2025-04-21T08:08:20	11.1	86
115448	2025-04-21T08:18:20	11.1	86
115449	2025-04-21T08:28:20	11.9	83
115450	2025-04-21T08:38:20	12.5	79
115451	2025-04-21T08:48:20	13	76.5
115452	2025-04-21T08:58:20	13.3	76
115453	2025-04-21T09:08:20	13.4	76
115454	2025-04-21T09:18:20	13.6	75
115455	2025-04-21T09:28:20	13.8	75.5
115456	2025-04-21T09:38:38	14.3	74
115457	2025-04-21T09:48:20	14.8	70.5
115458	2025-04-21T09:58:20	14.7	71
115459	2025-04-21T10:08:20	14.2	80.5
115460	2025-04-21T10:18:20	13.8	73.5
115461	2025-04-21T10:28:20	13.6	74.5
115462	2025-04-21T10:38:20	13.4	76.5
115463	2025-04-21T10:48:20	13.4	76
115464	2025-04-21T10:58:20	13.3	81
115465	2025-04-21T11:08:20	13	85
115466	2025-04-21T11:18:20	12.7	78
115467	2025-04-21T11:28:20	12.6	79
115468	2025-04-21T11:38:20	12.5	82
115469	2025-04-21T11:48:20	12.7	84
115470	2025-04-21T11:58:20	11.8	95
115471	2025-04-21T12:08:19	12.2	96.5
115472	2025-04-21T12:18:19	12.9	98
115473	2025-04-21T12:28:19	15.8	88.5
115474	2025-04-21T12:38:19	16.6	83.5
115475	2025-04-21T12:48:19	17.4	76.5
115476	2025-04-21T12:58:19	20.1	72.5
115477	2025-04-21T13:08:19	25.8	51.5
115478	2025-04-21T13:18:19	25.2	53
115479	2025-04-21T13:28:19	16.4	98.5
115480	2025-04-21T13:38:19	11.5	100
115481	2025-04-21T13:48:19	10.5	99.5
115482	2025-04-21T13:58:19	10.8	99
115483	2025-04-21T14:08:19	11.2	98.5
115484	2025-04-21T14:18:19	11.9	97.5
115485	2025-04-21T14:28:19	12.6	96.5
115486	2025-04-21T14:38:19	13.5	95.5
115487	2025-04-21T14:48:19	17.2	95.5
115488	2025-04-21T14:58:19	19.9	95.5
115489	2025-04-21T15:08:19	16.9	95.5
115490	2025-04-21T15:18:19	15.5	95.5
115491	2025-04-21T15:28:19	16.8	95.5
115492	2025-04-21T15:38:19	16.1	95.5
115493	2025-04-21T15:48:19	19.3	95.5
115494	2025-04-21T15:58:19	20.8	96
115495	2025-04-21T16:08:19	20.7	99
115496	2025-04-21T16:18:19	21.7	100
115497	2025-04-21T16:28:19	19.7	98.5
115498	2025-04-21T17:02:44	16.7	100
115499	2025-04-21T17:02:45	15.7	100
115500	2025-04-21T17:02:46	16.3	100
115501	2025-04-21T17:08:19	16.7	97.5
115502	2025-04-21T17:18:19	16.2	83.5
115503	2025-04-21T17:28:19	15.8	80
115504	2025-04-21T17:38:19	15.5	82
115505	2025-04-21T17:48:19	14.7	83.5
115506	2025-04-21T17:58:19	13.3	98.5
115507	2025-04-21T18:08:19	12.4	100
115508	2025-04-21T18:18:19	11.9	100
115509	2025-04-21T18:28:19	11.7	100
115510	2025-04-21T18:38:19	11.7	100
115511	2025-04-21T18:48:19	11.6	100
115512	2025-04-21T18:58:19	11.5	100
115513	2025-04-21T19:08:19	11.3	100
115514	2025-04-21T19:18:19	11.3	100
115515	2025-04-21T19:28:19	11.1	100
115516	2025-04-21T19:38:19	11.1	100
115517	2025-04-21T19:48:19	10.9	100
115518	2025-04-21T19:58:19	10.9	100
115519	2025-04-21T20:08:19	10.7	99.5
115520	2025-04-21T20:18:19	10.3	97.5
115521	2025-04-21T20:28:19	10.2	98
115522	2025-04-21T20:38:19	10.1	97.5
115523	2025-04-21T20:48:19	9.8	98.5
115524	2025-04-21T20:58:19	9.7	99
115525	2025-04-21T21:08:19	10	100
115526	2025-04-21T21:18:19	10.1	100
115527	2025-04-21T21:28:19	10.1	98.5
115528	2025-04-21T21:38:19	10.1	97
115529	2025-04-21T21:48:19	10.2	97
115530	2025-04-21T21:58:19	10.3	99.5
115531	2025-04-21T22:08:19	10.4	100
115532	2025-04-21T22:18:19	10.4	96.5
115533	2025-04-21T22:28:19	10.7	95
115534	2025-04-21T22:38:19	11	94
115535	2025-04-21T22:48:19	10.9	93.5
115536	2025-04-21T22:58:19	11	94
115537	2025-04-21T23:08:19	10.9	94.5
115538	2025-04-21T23:18:19	11	95
115539	2025-04-21T23:28:19	10.9	95
115540	2025-04-21T23:38:19	10.9	94.5
115541	2025-04-21T23:48:19	10.9	94.5
115542	2025-04-21T23:58:19	10.7	95
115543	2025-04-22T00:08:19	10.7	95
115544	2025-04-22T00:18:19	10.6	95
115545	2025-04-22T00:28:19	10.6	96
115546	2025-04-22T00:38:19	10.6	95.5
115547	2025-04-22T00:48:19	10.7	94.5
115548	2025-04-22T00:58:19	10.8	93.5
115549	2025-04-22T01:08:19	10.7	94
115550	2025-04-22T01:18:19	10.7	93.5
115551	2025-04-22T01:28:19	10.8	92
115552	2025-04-22T01:38:19	10.8	92
115553	2025-04-22T01:48:19	10.9	91.5
115554	2025-04-22T01:58:19	10.9	91.5
115555	2025-04-22T02:08:18	10.7	92
115556	2025-04-22T02:18:18	10.8	93
115557	2025-04-22T02:28:18	10.6	93.5
115558	2025-04-22T02:38:18	10.4	94
115559	2025-04-22T02:48:18	10.3	94.5
115560	2025-04-22T02:58:18	10.1	95
115561	2025-04-22T03:08:18	9.9	95.5
115562	2025-04-22T03:18:18	9.7	97
115563	2025-04-22T03:28:18	9.5	98
115564	2025-04-22T03:38:18	9.5	98.5
115565	2025-04-22T03:48:18	9.4	99
115566	2025-04-22T03:58:18	9.3	99
115567	2025-04-22T04:08:18	9.2	99.5
115568	2025-04-22T04:18:18	9.3	99.5
115569	2025-04-22T04:28:18	9.6	98.5
115570	2025-04-22T04:38:18	9.6	98.5
115571	2025-04-22T04:48:18	9.7	98
115572	2025-04-22T04:58:18	9.8	97.5
115573	2025-04-22T05:08:18	10	97.5
115574	2025-04-22T05:18:18	10.2	98.5
115575	2025-04-22T05:28:18	10.4	98.5
115576	2025-04-22T05:38:18	10.5	98
115577	2025-04-22T05:48:18	10.9	97.5
115578	2025-04-22T05:58:18	11.1	96
115579	2025-04-22T06:08:18	11.4	96
115580	2025-04-22T06:18:18	11.6	94.5
115581	2025-04-22T06:28:18	11.8	93.5
115582	2025-04-22T06:38:18	12	92
115583	2025-04-22T06:48:18	12.2	91.5
115584	2025-04-22T06:58:18	12	91.5
115585	2025-04-22T07:08:18	12.2	91.5
115586	2025-04-22T07:18:18	12.5	90
115587	2025-04-22T07:28:18	12.7	89.5
115588	2025-04-22T07:38:18	13.2	88
115589	2025-04-22T07:48:18	13.7	85.5
115590	2025-04-22T07:58:18	14.2	85.5
115591	2025-04-22T08:08:18	14	87
115592	2025-04-22T08:18:18	14.5	85.5
115593	2025-04-22T08:28:18	14.4	85
115594	2025-04-22T08:38:18	13.9	83
115595	2025-04-22T08:48:18	14.3	82
115596	2025-04-22T08:58:18	14.9	81
115597	2025-04-22T09:08:18	15.1	77.5
115598	2025-04-22T09:18:18	15.5	75
115599	2025-04-22T09:28:18	16	73
115600	2025-04-22T09:38:18	16.3	74
115601	2025-04-22T09:48:18	16.5	73
115602	2025-04-22T09:58:18	16.6	68.5
115603	2025-04-22T10:08:18	16.4	67.5
115604	2025-04-22T10:18:18	16.5	67
115605	2025-04-22T10:28:18	17	65.5
115606	2025-04-22T10:38:18	17.2	65.5
115607	2025-04-22T10:48:18	17.4	66
115608	2025-04-22T10:58:18	17.8	62.5
115609	2025-04-22T11:08:18	18.6	58
115610	2025-04-22T11:18:18	19.3	56
115611	2025-04-22T11:28:18	19.1	55
115612	2025-04-22T11:38:18	19.9	57.5
115613	2025-04-22T11:48:18	19.6	57.5
115614	2025-04-22T11:58:18	19.6	59
115615	2025-04-22T12:08:18	22.7	52
115616	2025-04-22T12:18:18	22.3	50.5
115617	2025-04-22T12:28:18	29.2	37
115618	2025-04-22T12:38:18	29.9	35
115619	2025-04-22T12:48:18	33.6	30
115620	2025-04-22T12:58:18	34.2	29.5
115621	2025-04-22T13:08:18	34.6	25
115622	2025-04-22T13:18:18	29.2	33
115623	2025-04-22T13:28:18	28.2	34.5
115624	2025-04-22T13:38:18	28.6	33
115625	2025-04-22T13:48:18	27	37.5
115626	2025-04-22T13:58:18	25.7	37.5
115627	2025-04-22T14:08:39	24.7	40
115628	2025-04-22T14:18:18	24.2	41.5
115629	2025-04-22T14:28:18	23.1	43.5
115630	2025-04-22T14:38:18	22.3	45.5
115631	2025-04-22T14:48:18	22	46.5
115632	2025-04-22T14:58:18	21.8	47
115633	2025-04-22T15:08:18	22.7	42
115634	2025-04-22T15:18:17	28.5	36.5
115635	2025-04-22T15:28:17	30.6	30.5
115636	2025-04-22T15:38:17	30.8	29.5
115637	2025-04-22T15:48:17	29.1	31.5
115638	2025-04-22T15:58:17	27.3	35
115639	2025-04-22T16:08:17	26.6	37
115640	2025-04-22T16:18:17	27.2	36
115641	2025-04-22T16:28:17	27.7	36.5
115642	2025-04-22T17:11:31	25.8	39
115643	2025-04-22T17:11:31	24.3	43
115644	2025-04-22T17:11:32	23.6	43
115645	2025-04-22T17:11:32	25	42.5
115646	2025-04-22T17:18:17	21.9	43.5
115647	2025-04-22T17:28:17	21.4	46.5
115648	2025-04-22T17:38:17	21.5	48
115649	2025-04-22T17:48:17	21.3	55.5
115650	2025-04-22T17:58:17	21	57.5
115651	2025-04-22T18:08:17	20.6	60.5
115652	2025-04-22T18:18:17	20.1	61.5
115653	2025-04-22T18:28:17	19.7	62
115654	2025-04-22T18:38:17	19.1	64.5
115655	2025-04-22T18:48:17	18	63.5
115656	2025-04-22T18:58:17	17.8	66
115657	2025-04-22T19:08:17	17.3	69.5
115658	2025-04-22T19:18:17	16.9	70.5
115659	2025-04-22T19:28:17	16.6	69.5
115660	2025-04-22T19:38:17	16.4	70
115661	2025-04-22T19:48:17	16	70
115662	2025-04-22T19:58:17	15.7	71.5
115663	2025-04-22T20:08:17	15.4	72
115664	2025-04-22T20:18:17	15.1	72.5
115665	2025-04-22T20:28:17	14.9	73
115666	2025-04-22T20:38:17	14.4	73.5
115667	2025-04-22T20:48:17	14.2	74.5
115668	2025-04-22T21:08:17	13.9	75.5
115669	2025-04-22T21:18:17	13.3	75.5
115670	2025-04-22T21:28:17	13.2	76
115671	2025-04-22T21:38:17	13	77.5
115672	2025-04-22T21:48:17	12.8	78
115673	2025-04-22T21:58:17	12.6	78
115674	2025-04-22T22:08:17	12.5	79
115675	2025-04-22T22:18:17	12.2	79.5
115676	2025-04-22T22:28:17	12.2	79.5
115677	2025-04-22T22:38:17	11.9	80.5
115678	2025-04-22T22:48:17	11.7	80.5
115679	2025-04-22T22:58:17	11.7	80.5
115680	2025-04-22T23:08:17	11.5	81.5
115681	2025-04-22T23:18:17	11.4	81.5
115682	2025-04-22T23:28:17	11.3	82
115683	2025-04-22T23:38:17	11.1	81.5
115684	2025-04-22T23:48:17	11	82.5
115685	2025-04-22T23:58:17	10.9	81.5
115686	2025-04-23T00:08:17	10.3	84.5
115687	2025-04-23T00:18:17	10.1	85.5
115688	2025-04-23T00:28:17	10.2	86
115689	2025-04-23T00:38:17	10.1	85
115690	2025-04-23T00:48:17	10	86
115691	2025-04-23T00:58:17	10	86.5
115692	2025-04-23T01:08:17	10	85.5
115693	2025-04-23T01:18:17	10	86
115694	2025-04-23T01:28:17	9.8	86
115695	2025-04-23T01:38:17	9.7	87
115696	2025-04-23T01:48:17	9.7	86.5
115697	2025-04-23T01:58:17	9.6	86.5
115698	2025-04-23T02:08:17	9.4	88
115699	2025-04-23T02:18:17	9.6	87.5
115700	2025-04-23T02:28:17	9.7	87
115701	2025-04-23T02:38:17	9.5	88
115702	2025-04-23T02:48:17	9.4	88.5
115703	2025-04-23T02:58:17	9.3	89
115704	2025-04-23T03:08:17	9.3	89
115705	2025-04-23T03:18:17	9.3	89.5
115706	2025-04-23T03:28:17	9.2	89
115707	2025-04-23T03:38:17	9.1	89
115708	2025-04-23T03:48:17	9	90
115709	2025-04-23T03:58:17	8.9	90.5
115710	2025-04-23T04:08:17	8.7	90.5
115711	2025-04-23T04:18:17	8.6	91
115712	2025-04-23T04:28:17	8.6	91
115713	2025-04-23T04:38:17	8.6	90.5
115714	2025-04-23T04:48:17	8.7	89
115715	2025-04-23T04:58:17	8.5	91
115716	2025-04-23T05:08:16	8.4	91
115717	2025-04-23T05:18:16	8.5	92.5
115718	2025-04-23T05:28:16	8.6	92.5
115719	2025-04-23T05:38:35	8.5	93
115720	2025-04-23T05:48:16	8.7	93.5
115721	2025-04-23T05:58:16	9	93
115722	2025-04-23T06:08:16	9	93.5
115723	2025-04-23T06:18:16	9.1	94
115724	2025-04-23T06:28:16	9.5	94
115725	2025-04-23T06:38:16	9.7	92.5
115726	2025-04-23T06:48:16	10.1	92
115727	2025-04-23T06:58:16	10.6	89.5
115728	2025-04-23T07:08:16	11	88
115729	2025-04-23T07:18:16	11.5	86.5
115730	2025-04-23T07:28:16	12	84
115731	2025-04-23T07:38:16	12.4	83
115732	2025-04-23T07:48:16	12.8	81
115733	2025-04-23T07:58:16	13	79.5
115734	2025-04-23T08:08:16	13.5	78.5
115735	2025-04-23T08:18:16	13.8	79
115736	2025-04-23T08:28:16	14	75.5
115737	2025-04-23T08:38:16	14.7	74
115738	2025-04-23T08:48:16	15	72.5
115739	2025-04-23T08:58:16	15.7	71.5
115740	2025-04-23T09:08:16	16.1	69
115741	2025-04-23T09:18:16	16.4	68
115742	2025-04-23T09:28:16	16.6	67
115743	2025-04-23T09:38:16	16.9	65
115744	2025-04-23T09:48:16	17	64.5
115745	2025-04-23T09:58:16	16.7	64
115746	2025-04-23T10:08:16	16.9	63
115747	2025-04-23T10:18:16	17.4	64.5
115748	2025-04-23T10:28:16	17.7	62.5
115749	2025-04-23T10:38:16	17.9	63
115750	2025-04-23T10:48:16	18.2	62
115751	2025-04-23T10:58:16	18.5	63
115752	2025-04-23T11:08:16	18.6	61.5
115753	2025-04-23T11:18:16	18.8	62
115754	2025-04-23T11:28:16	19.2	60.5
115755	2025-04-23T11:38:16	19.7	57.5
115756	2025-04-23T11:48:16	21	56
115757	2025-04-23T11:58:16	21	56.5
115758	2025-04-23T12:08:16	20.8	56.5
115759	2025-04-23T12:18:16	20.9	58
115760	2025-04-23T12:28:16	23.7	52
115761	2025-04-23T12:38:16	22.5	53
115762	2025-04-23T12:48:16	21.8	53.5
115763	2025-04-23T12:58:16	20.7	57
115764	2025-04-23T13:08:16	20.9	57
115765	2025-04-23T13:18:16	20.4	59
115766	2025-04-23T13:28:16	19.4	68
115767	2025-04-23T13:38:16	18.8	67
115768	2025-04-23T13:48:16	18.5	70
115769	2025-04-23T13:58:16	16.8	99.5
115770	2025-04-23T14:08:16	15.8	100
115771	2025-04-23T14:18:16	14.9	100
115772	2025-04-23T14:28:16	14.5	100
115773	2025-04-23T14:38:16	14.5	100
115774	2025-04-23T14:48:16	14.7	100
115775	2025-04-23T14:58:16	14.5	100
115776	2025-04-23T15:08:16	13.8	100
115777	2025-04-23T15:18:16	13.5	100
115778	2025-04-23T15:28:16	13.1	100
115779	2025-04-23T15:38:16	12.6	100
115780	2025-04-23T15:48:16	11.8	100
115781	2025-04-23T15:58:16	12	100
115782	2025-04-23T16:08:16	11.9	100
115783	2025-04-23T16:18:16	11.5	100
115784	2025-04-23T16:28:16	11.2	100
115785	2025-04-23T17:18:10	11.4	100
115786	2025-04-23T17:18:11	11.2	100
115787	2025-04-23T17:18:11	11.4	100
115788	2025-04-23T17:18:11	11.2	100
115789	2025-04-23T17:18:16	11.3	100
115790	2025-04-23T17:28:16	11.1	100
115791	2025-04-23T17:38:16	11.3	100
115792	2025-04-23T17:48:16	11.1	100
115793	2025-04-23T17:58:16	11.1	100
115794	2025-04-23T18:08:16	11.1	100
115795	2025-04-23T18:18:16	10.9	100
115796	2025-04-23T18:28:16	10.8	100
115797	2025-04-23T18:38:16	10.9	100
115798	2025-04-23T18:48:15	10.8	100
115799	2025-04-23T18:58:15	10.9	100
115800	2025-04-23T19:08:15	10.8	100
115801	2025-04-23T19:18:15	10.9	100
115802	2025-04-23T19:28:15	10.9	100
115803	2025-04-23T19:38:15	10.8	100
115804	2025-04-23T19:48:15	10.9	100
115805	2025-04-23T19:58:15	10.8	100
115806	2025-04-23T20:08:15	10.8	100
115807	2025-04-23T20:18:15	10.5	100
115808	2025-04-23T20:28:15	10.7	99
115809	2025-04-23T20:38:15	10.6	98
115810	2025-04-23T20:48:15	10.7	97.5
115811	2025-04-23T20:58:15	10.5	96.5
115812	2025-04-23T21:08:15	10.5	96
115813	2025-04-23T21:18:15	10.4	96
115814	2025-04-23T21:28:15	10.3	96
115815	2025-04-23T21:38:15	10.3	96
115816	2025-04-23T21:48:15	10.3	96
115817	2025-04-23T21:58:15	10.4	95.5
115818	2025-04-23T22:08:15	10.3	96
115819	2025-04-23T22:18:15	10.2	96
115820	2025-04-23T22:28:15	10.3	96
115821	2025-04-23T22:38:15	10.3	96
115822	2025-04-23T22:48:15	10.2	96
115823	2025-04-23T22:58:15	10.4	96
115824	2025-04-23T23:08:15	10.3	96
115825	2025-04-23T23:18:15	10	96
115826	2025-04-23T23:28:15	9.7	96
115827	2025-04-23T23:38:15	9.6	96
115828	2025-04-23T23:48:15	9.6	96
115829	2025-04-23T23:58:15	9.6	96
115830	2025-04-24T00:08:15	9.6	96
115831	2025-04-24T00:18:15	9.7	96
115832	2025-04-24T00:28:15	9.6	96
115833	2025-04-24T00:38:15	9.5	96
115834	2025-04-24T00:48:15	9.5	96
115835	2025-04-24T00:58:15	9.6	96
115836	2025-04-24T01:08:15	9.5	96.5
115837	2025-04-24T01:18:15	9.5	96
115838	2025-04-24T01:28:15	9.6	96.5
115839	2025-04-24T01:38:15	9.7	96.5
115840	2025-04-24T01:48:15	9.5	96
115841	2025-04-24T01:58:15	9.7	96.5
115842	2025-04-24T02:08:15	9.6	96.5
115843	2025-04-24T02:18:15	9.6	96.5
115844	2025-04-24T02:28:15	9.5	96.5
115845	2025-04-24T02:38:15	9.5	96.5
115846	2025-04-24T02:48:15	9.5	96.5
115847	2025-04-24T02:58:15	9.6	96.5
115848	2025-04-24T03:08:15	9.5	96.5
115849	2025-04-24T03:18:15	9.6	96.5
115850	2025-04-24T03:28:15	9.7	96.5
115851	2025-04-24T03:38:15	9.7	96.5
115852	2025-04-24T03:48:15	9.6	96.5
115853	2025-04-24T03:58:15	9.7	96.5
115854	2025-04-24T04:08:15	9.7	96.5
115855	2025-04-24T04:18:15	9.6	96.5
115856	2025-04-24T04:28:15	9.6	96.5
115857	2025-04-24T04:38:15	9.5	96.5
115858	2025-04-24T04:48:15	9.5	96.5
115859	2025-04-24T04:58:15	9.7	96.5
115860	2025-04-24T05:08:15	9.7	97
115861	2025-04-24T05:18:15	9.8	96.5
115862	2025-04-24T05:28:15	9.9	96.5
115863	2025-04-24T05:38:15	10.1	97
115864	2025-04-24T05:48:15	10.1	97
115865	2025-04-24T05:58:15	10.3	96.5
115866	2025-04-24T06:08:15	10.3	97
115867	2025-04-24T06:18:15	10.3	97
115868	2025-04-24T06:28:15	10.4	97
115869	2025-04-24T06:38:15	10.5	96.5
115870	2025-04-24T06:48:15	10.7	97
115871	2025-04-24T06:58:15	11.1	97
115872	2025-04-24T07:08:15	11.1	97
115873	2025-04-24T07:18:15	11.2	97
115874	2025-04-24T07:28:15	11	97
115875	2025-04-24T07:38:15	10.9	97
115876	2025-04-24T07:48:15	11	97
115877	2025-04-24T07:58:15	11.2	97
115878	2025-04-24T08:08:15	10.9	97
115879	2025-04-24T08:18:15	11.2	97
115880	2025-04-24T08:28:15	11.4	97
115881	2025-04-24T08:38:15	11.6	97
115882	2025-04-24T08:48:15	12	97
115883	2025-04-24T08:58:15	12.5	97
115884	2025-04-24T09:08:15	12.6	97
115885	2025-04-24T09:18:15	12.5	97
115886	2025-04-24T09:28:15	12.9	97
115887	2025-04-24T09:38:15	13.1	97
115888	2025-04-24T09:48:15	12.9	97
115889	2025-04-24T09:58:15	12.8	97
115890	2025-04-24T10:08:15	13.4	97
115891	2025-04-24T10:18:15	12.8	100
115892	2025-04-24T10:28:15	12.8	100
115893	2025-04-24T10:38:15	13.5	100
115894	2025-04-24T10:48:14	14	100
115895	2025-04-24T10:58:14	14.4	100
115896	2025-04-24T11:08:14	14.3	100
115897	2025-04-24T11:18:14	14.9	100
115898	2025-04-24T11:28:14	14.8	100
115899	2025-04-24T11:38:14	15.2	100
115900	2025-04-24T11:48:14	15.1	92.5
115901	2025-04-24T11:58:14	15.9	73.5
115902	2025-04-24T12:08:14	16.4	72
115903	2025-04-24T12:18:14	20.6	59
115904	2025-04-24T12:28:14	19.8	58.5
115905	2025-04-24T12:38:14	22.2	53.5
115906	2025-04-24T12:48:14	22.7	49
115907	2025-04-24T12:58:14	18.5	56.5
115908	2025-04-24T13:08:14	19.7	52.5
115909	2025-04-24T13:18:14	22.2	48
115910	2025-04-24T13:28:14	21.1	46.5
115911	2025-04-24T13:38:14	21.7	46.5
115912	2025-04-24T13:48:14	22.4	47.5
115913	2025-04-24T13:58:14	20.4	50
115914	2025-04-24T14:08:14	21.8	47.5
115915	2025-04-24T14:18:14	21.5	47
115916	2025-04-24T14:28:14	21.6	47.5
115917	2025-04-24T14:38:14	21.3	48
115918	2025-04-24T14:48:14	22.1	48
115919	2025-04-24T14:58:14	19.5	53.5
115920	2025-04-24T15:08:14	17.8	59.5
115921	2025-04-24T15:18:14	16.7	63.5
115922	2025-04-24T15:28:14	13.8	89.5
115923	2025-04-24T15:38:14	12.6	95.5
115924	2025-04-24T15:48:14	12.4	99.5
115925	2025-04-24T15:58:14	13.6	98
115926	2025-04-24T16:08:14	13.3	96
115927	2025-04-24T16:18:14	12.7	90.5
115928	2025-04-24T17:24:25	12.7	90.5
115929	2025-04-24T17:24:25	12.6	87.5
115930	2025-04-24T17:24:26	12.6	89
115931	2025-04-24T17:24:26	12.5	89.5
115932	2025-04-24T17:24:27	12.6	85.5
115933	2025-04-24T17:24:27	12.5	89
115934	2025-04-24T17:28:14	12.4	86
115935	2025-04-24T17:38:14	12.5	86.5
115936	2025-04-24T17:48:14	12.1	88
115937	2025-04-24T17:58:14	11.6	92
115938	2025-04-24T18:08:14	11.6	91
115939	2025-04-24T18:18:14	11.5	90
115940	2025-04-24T18:28:14	11.4	90
115941	2025-04-24T18:38:14	11.2	90
115942	2025-04-24T18:48:14	11.2	92
115943	2025-04-24T18:58:14	11	94
115944	2025-04-24T19:08:14	11	92.5
115945	2025-04-24T19:18:14	11	91.5
115946	2025-04-24T19:28:14	10.9	91
115947	2025-04-24T19:38:14	11	91.5
115948	2025-04-24T19:48:14	10.9	91
115949	2025-04-24T19:58:14	10.9	91
115950	2025-04-24T20:08:14	10.9	91
115951	2025-04-24T20:18:14	11	91
115952	2025-04-24T20:28:14	10.7	93
115953	2025-04-24T20:38:14	10.8	91.5
115954	2025-04-24T20:48:14	10.9	91.5
115955	2025-04-24T20:58:14	10.8	91.5
115956	2025-04-24T21:08:14	10.9	91.5
115957	2025-04-24T21:18:14	10.9	92
115958	2025-04-24T21:28:14	10.8	92
115959	2025-04-24T21:38:14	10.8	92
115960	2025-04-24T21:48:14	10.7	92
115961	2025-04-24T21:58:14	10.4	92.5
115962	2025-04-24T22:08:14	10.4	93
115963	2025-04-24T22:18:14	10.2	94
115964	2025-04-24T22:28:14	10	94.5
115965	2025-04-24T22:38:14	9.9	95
115966	2025-04-24T22:48:14	9.8	97
115967	2025-04-24T22:58:14	10	97
115968	2025-04-24T23:08:14	9.9	96.5
115969	2025-04-24T23:18:14	9.6	95.5
115970	2025-04-24T23:28:14	9.6	97.5
115971	2025-04-24T23:38:14	9.5	98
115972	2025-04-24T23:48:14	9.5	98.5
115973	2025-04-24T23:58:14	9.5	98.5
115974	2025-04-25T00:08:14	9.5	98.5
115975	2025-04-25T00:18:14	9.2	98.5
115976	2025-04-25T00:28:14	9.4	98.5
115977	2025-04-25T00:38:14	9.5	98.5
115978	2025-04-25T00:48:13	9.4	98.5
115979	2025-04-25T00:58:13	9.6	98
115980	2025-04-25T01:08:14	9.7	97.5
115981	2025-04-25T01:18:13	9.7	98
115982	2025-04-25T01:28:13	9.7	97.5
115983	2025-04-25T01:38:13	9.6	98
115984	2025-04-25T01:48:13	9.5	98
115985	2025-04-25T01:58:13	9.2	98.5
115986	2025-04-25T02:08:13	9.1	99
115987	2025-04-25T02:18:13	8.9	99.5
115988	2025-04-25T02:28:13	9.1	99
115989	2025-04-25T02:38:13	9.3	99
115990	2025-04-25T02:48:13	9.5	98.5
115991	2025-04-25T02:58:13	9.5	98.5
115992	2025-04-25T03:08:13	9.4	97.5
115993	2025-04-25T03:18:13	9.3	98
115994	2025-04-25T03:28:13	9.4	98
115995	2025-04-25T03:38:13	9.4	98
115996	2025-04-25T03:48:13	9.4	98.5
115997	2025-04-25T03:58:13	9.4	98.5
115998	2025-04-25T04:08:13	9.3	98.5
115999	2025-04-25T04:18:13	9.1	98.5
116000	2025-04-25T04:28:13	9.3	98.5
116001	2025-04-25T04:38:13	9.2	98
116002	2025-04-25T04:48:13	9.4	98.5
116003	2025-04-25T04:58:13	9.3	98.5
116004	2025-04-25T05:08:13	9.5	97.5
116005	2025-04-25T05:18:13	9.5	98.5
116006	2025-04-25T05:28:13	9.4	98.5
116007	2025-04-25T05:38:13	9.6	98
116008	2025-04-25T05:48:13	9.9	97.5
116009	2025-04-25T05:58:13	10.2	97.5
116010	2025-04-25T06:08:13	10.4	96.5
116011	2025-04-25T06:18:13	10.5	96
116012	2025-04-25T06:28:13	10.6	95.5
116013	2025-04-25T06:38:13	10.9	95
116014	2025-04-25T06:48:13	11.2	95
116015	2025-04-25T06:58:13	11.4	93
116016	2025-04-25T07:08:13	11.7	93
116017	2025-04-25T07:18:13	12.4	90
116018	2025-04-25T07:38:13	12.5	88
116019	2025-04-25T07:48:13	12.3	90.5
116020	2025-04-25T07:58:13	12.4	90.5
116021	2025-04-25T08:08:13	12.5	89.5
116022	2025-04-25T08:18:13	12.3	90.5
116023	2025-04-25T08:28:13	12.7	88.5
116024	2025-04-25T08:38:13	13.2	87
116025	2025-04-25T08:48:13	13.9	85
116026	2025-04-25T08:58:13	14.8	83
116027	2025-04-25T09:08:13	15.1	81.5
116028	2025-04-25T09:18:13	15.2	79.5
116029	2025-04-25T09:28:13	15.3	79.5
116030	2025-04-25T09:38:13	14.9	80
116031	2025-04-25T09:48:13	15.3	79.5
116032	2025-04-25T09:58:13	15.5	79
116033	2025-04-25T10:08:13	16.2	78
116034	2025-04-25T10:18:13	16	78.5
116035	2025-04-25T10:28:13	15.4	88
116036	2025-04-25T10:38:13	14.8	89.5
116037	2025-04-25T10:48:13	15.4	88.5
116038	2025-04-25T10:58:13	15.3	86.5
116039	2025-04-25T11:08:13	16.1	83
116040	2025-04-25T11:18:13	16.7	79
116041	2025-04-25T11:28:13	17	81
116042	2025-04-25T11:38:13	18.1	76
116043	2025-04-25T11:48:13	18.2	75
116044	2025-04-25T11:58:13	19.6	71.5
116045	2025-04-25T12:08:13	20.3	66.5
116046	2025-04-25T12:18:13	22.3	63
116047	2025-04-25T12:28:13	19.2	65.5
116048	2025-04-25T12:38:13	17.6	73.5
116049	2025-04-25T12:48:13	17	78.5
116050	2025-04-25T12:58:13	16.9	73
116051	2025-04-25T13:08:13	16.3	80
116052	2025-04-25T13:18:13	16.2	80.5
116053	2025-04-25T13:28:13	16	81
116054	2025-04-25T13:38:13	16.3	82.5
116055	2025-04-25T13:48:13	16.7	81.5
116056	2025-04-25T13:58:13	17.5	77
116057	2025-04-25T14:08:13	17.3	76
116058	2025-04-25T14:18:13	16.9	77
116059	2025-04-25T14:28:13	17.1	78.5
116060	2025-04-25T14:38:13	17.4	76.5
116061	2025-04-25T14:48:13	16.4	83.5
116062	2025-04-25T14:58:12	15.8	84
116063	2025-04-25T15:08:13	15.3	86.5
116064	2025-04-25T15:18:12	15.3	87
116065	2025-04-25T16:22:03	15.2	89
116066	2025-04-25T16:22:03	14.5	88.5
116067	2025-04-25T16:22:04	14.4	90.5
116068	2025-04-25T16:22:04	14.8	85.5
116069	2025-04-25T16:22:05	14.4	88
116070	2025-04-25T16:22:05	14.4	88
116071	2025-04-25T16:28:12	14.6	89.5
116072	2025-04-25T16:38:12	14.6	87.5
116073	2025-04-25T16:48:12	14.9	87.5
116074	2025-04-25T16:58:12	15	86.5
116075	2025-04-25T17:08:12	14.9	86.5
116076	2025-04-25T17:18:12	14.9	87.5
116077	2025-04-25T17:28:12	14.6	86.5
116078	2025-04-25T17:38:12	14.3	88
116079	2025-04-25T17:48:12	14	88.5
116080	2025-04-25T17:58:12	14	91
116081	2025-04-25T18:08:12	13.8	92.5
116082	2025-04-25T18:18:12	13.8	92.5
116083	2025-04-25T18:28:12	13.7	92.5
116084	2025-04-25T18:38:12	13.6	93.5
116085	2025-04-25T18:48:12	13.5	94
116086	2025-04-25T18:58:12	13.4	94
116087	2025-04-25T19:08:12	13.3	93
116088	2025-04-25T19:18:12	13.2	93
116089	2025-04-25T19:28:12	13.1	93
116090	2025-04-25T19:38:12	13.1	94
116091	2025-04-25T19:48:12	12.9	93.5
116092	2025-04-25T19:58:12	12.8	94.5
116093	2025-04-25T20:08:12	12.8	93.5
116094	2025-04-25T20:18:12	12.8	93.5
116095	2025-04-25T20:28:12	12.8	93.5
116096	2025-04-25T20:38:12	12.6	93
116097	2025-04-25T20:48:12	12.6	92.5
116098	2025-04-25T20:58:12	12.5	91.5
116099	2025-04-25T21:08:12	12.4	92
116100	2025-04-25T21:18:12	12.3	91.5
116101	2025-04-25T21:28:12	12	92
116102	2025-04-25T21:38:12	12	92.5
116103	2025-04-25T21:48:12	11.9	92.5
116104	2025-04-25T21:58:12	11.6	93.5
116105	2025-04-25T22:08:12	11.6	93
116106	2025-04-25T22:18:12	11.6	93
116107	2025-04-25T22:28:12	11.4	93.5
116108	2025-04-25T22:38:12	11.4	93
116109	2025-04-25T22:48:12	11.3	93.5
116110	2025-04-25T22:58:12	11.2	94
116111	2025-04-25T23:08:12	11.3	94
116112	2025-04-25T23:18:12	11.2	94
116113	2025-04-25T23:28:12	11.2	94
116114	2025-04-25T23:38:12	11	94.5
116115	2025-04-25T23:48:12	10.8	95
116116	2025-04-25T23:58:12	10.5	95.5
116117	2025-04-26T00:08:12	10.3	95.5
116118	2025-04-26T00:18:12	10.1	96
116119	2025-04-26T00:28:12	10	96
116120	2025-04-26T00:38:12	9.9	96
116121	2025-04-26T00:48:12	9.7	96.5
116122	2025-04-26T00:58:12	9.6	97
116123	2025-04-26T01:08:12	9.5	97.5
116124	2025-04-26T01:18:12	9.3	97.5
116125	2025-04-26T01:28:12	9.2	97.5
116126	2025-04-26T01:38:12	9.2	97.5
116127	2025-04-26T01:48:12	9.1	98
116128	2025-04-26T01:58:12	8.9	97.5
116129	2025-04-26T02:08:12	8.9	98
116130	2025-04-26T02:18:12	8.9	98
116131	2025-04-26T02:28:12	8.8	98
116132	2025-04-26T02:38:12	8.7	97.5
116133	2025-04-26T02:48:12	8.6	97.5
116134	2025-04-26T02:58:12	8.6	97
116135	2025-04-26T03:08:12	8.6	97
116136	2025-04-26T03:18:12	8.6	97
116137	2025-04-26T03:28:12	8.5	97
116138	2025-04-26T03:38:12	8.2	97
116139	2025-04-26T03:48:12	8.1	97
116140	2025-04-26T03:58:12	8	97.5
116141	2025-04-26T04:08:12	7.9	98
116142	2025-04-26T04:18:12	7.8	97.5
116143	2025-04-26T04:28:12	7.7	98
116144	2025-04-26T04:38:12	7.8	98
116145	2025-04-26T04:48:12	7.8	98
116146	2025-04-26T04:58:12	7.8	97.5
116147	2025-04-26T05:08:12	7.9	97.5
116148	2025-04-26T05:18:12	8	97
116149	2025-04-26T05:28:12	8.4	96.5
116150	2025-04-26T05:38:12	8.6	95.5
116151	2025-04-26T05:48:12	8.8	95
116152	2025-04-26T05:58:12	8.8	94.5
116153	2025-04-26T06:08:12	8.9	95
116154	2025-04-26T06:18:12	8.9	95.5
116155	2025-04-26T06:28:12	9.1	95
116156	2025-04-26T06:38:12	9.3	94.5
116157	2025-04-26T06:48:12	9.6	94
116158	2025-04-26T06:58:11	9.8	93
116159	2025-04-26T07:08:11	10.1	92.5
116160	2025-04-26T07:18:11	10.3	90.5
116161	2025-04-26T07:28:11	10.5	90.5
116162	2025-04-26T07:38:11	10.6	90.5
116163	2025-04-26T07:48:11	10.7	89.5
116164	2025-04-26T07:58:11	10.8	89.5
116165	2025-04-26T08:08:11	11	88.5
116166	2025-04-26T08:18:11	11.1	88.5
116167	2025-04-26T08:28:11	11.2	88
116168	2025-04-26T08:38:11	11.5	86.5
116169	2025-04-26T08:48:11	12.2	84.5
116170	2025-04-26T08:58:11	12.6	82.5
116171	2025-04-26T09:08:11	13	81
116172	2025-04-26T09:18:11	13.2	79.5
116173	2025-04-26T09:28:11	13.8	79
116174	2025-04-26T09:38:11	14.9	74
116175	2025-04-26T09:48:11	15.5	72.5
116176	2025-04-26T09:58:11	15.8	71.5
116177	2025-04-26T10:08:11	15.8	73.5
116178	2025-04-26T10:18:11	15.8	72.5
116179	2025-04-26T10:28:11	15.6	72.5
116180	2025-04-26T10:38:11	15.1	74.5
116181	2025-04-26T10:48:11	15	74.5
116182	2025-04-26T10:58:11	16	74
116183	2025-04-26T11:08:11	17	68.5
116184	2025-04-26T11:18:11	16	70
116185	2025-04-26T11:28:11	15.7	71.5
116186	2025-04-26T11:38:11	15.7	72.5
116187	2025-04-26T11:48:11	15.8	74
116188	2025-04-26T11:58:11	15.7	72.5
116189	2025-04-26T12:08:11	15.7	73.5
116190	2025-04-26T12:18:11	15.6	74
116191	2025-04-26T12:28:11	15.6	73.5
116192	2025-04-26T12:38:11	15.9	73.5
116193	2025-04-26T12:48:11	15.8	74.5
116194	2025-04-26T12:58:11	16	72.5
116195	2025-04-26T13:08:11	16.1	72.5
116196	2025-04-26T13:18:11	15.9	75
116197	2025-04-26T13:28:11	15.4	80
116198	2025-04-26T13:38:11	15.4	83
116199	2025-04-26T13:48:11	15.3	83
116200	2025-04-26T13:58:11	15.5	82
116201	2025-04-26T14:08:11	15.5	81.5
116202	2025-04-26T14:18:11	15.2	83
116203	2025-04-26T14:28:11	15.2	85
116204	2025-04-26T14:38:11	15.4	84.5
116205	2025-04-26T14:48:11	15.2	86
116206	2025-04-26T14:58:11	15.4	85.5
116207	2025-04-26T15:08:11	15.5	86.5
116208	2025-04-26T15:18:11	15.6	84.5
116209	2025-04-26T15:28:11	15.6	85
116210	2025-04-26T15:38:11	15.9	86
116211	2025-04-26T15:48:11	16.1	85.5
116212	2025-04-26T15:58:11	15.9	85.5
116213	2025-04-26T16:08:11	15.8	84
116214	2025-04-26T16:18:11	15.7	87
116215	2025-04-26T16:28:11	15.7	87
116216	2025-04-26T16:38:11	15.7	86.5
116217	2025-04-26T16:48:11	15.7	87
116218	2025-04-26T16:58:11	15.6	87.5
116219	2025-04-26T17:08:11	15.5	87.5
116220	2025-04-26T17:18:11	15.6	88
116221	2025-04-26T17:28:11	15.6	88
116222	2025-04-26T17:38:11	15.5	88.5
116223	2025-04-26T17:48:11	15.3	89.5
116224	2025-04-26T17:58:11	15	90.5
116225	2025-04-26T18:08:11	14.8	91
116226	2025-04-26T18:18:11	14.6	91.5
116227	2025-04-26T18:28:11	14.3	92
116228	2025-04-26T18:38:11	14.1	93
116229	2025-04-26T18:48:11	14	93
116230	2025-04-26T18:58:11	13.8	91
116231	2025-04-26T19:08:11	13.6	91
116232	2025-04-26T19:18:11	13.4	91.5
116233	2025-04-26T19:28:11	13.3	92.5
116234	2025-04-26T19:38:11	13.3	93
116235	2025-04-26T19:48:11	13.1	92
116236	2025-04-26T21:10:44	13	91.5
116237	2025-04-26T21:10:44	12.8	91.5
116238	2025-04-26T21:10:45	13	91.5
116239	2025-04-26T21:10:45	12.6	91.5
116240	2025-04-26T21:10:45	11.9	93.5
116241	2025-04-26T21:10:45	12.4	92
116242	2025-04-26T21:10:46	12.2	93
116243	2025-04-26T21:18:10	11.7	94.5
116244	2025-04-26T21:28:10	11.5	94.5
116245	2025-04-26T21:38:10	11.4	95
116246	2025-04-26T21:48:10	11.4	94.5
116247	2025-04-26T21:58:10	11.1	94
116248	2025-04-26T22:08:10	11	94
116249	2025-04-26T22:18:10	11	94.5
116250	2025-04-26T22:28:10	10.9	92.5
116251	2025-04-26T22:38:10	10.7	93
116252	2025-04-26T22:48:10	10.6	93.5
116253	2025-04-26T22:58:10	10.5	92
116254	2025-04-26T23:08:10	10.4	92
116255	2025-04-26T23:18:10	10.4	91
116256	2025-04-26T23:28:10	10.3	91.5
116257	2025-04-26T23:38:10	10.3	91.5
116258	2025-04-26T23:48:10	10.3	91.5
116259	2025-04-26T23:58:10	10.2	91
116260	2025-04-27T00:08:10	10.1	91.5
116261	2025-04-27T00:18:10	10	92
116262	2025-04-27T00:28:10	10.1	92
116263	2025-04-27T00:38:10	9.8	90.5
116264	2025-04-27T00:48:10	9.8	90.5
116265	2025-04-27T00:58:10	9.7	90.5
116266	2025-04-27T01:08:10	9.7	90
116267	2025-04-27T01:18:10	9.8	89.5
116268	2025-04-27T01:28:10	9.7	89.5
116269	2025-04-27T01:38:10	9.7	88.5
116270	2025-04-27T01:48:10	9.6	88
116271	2025-04-27T01:58:10	9.6	88
116272	2025-04-27T02:08:10	9.5	88
116273	2025-04-27T02:18:10	9.5	88
116274	2025-04-27T02:28:10	9.3	88.5
116275	2025-04-27T02:38:10	9.2	88
116276	2025-04-27T02:48:10	9.1	88.5
116277	2025-04-27T02:58:10	9	88
116278	2025-04-27T03:08:10	9	88.5
116279	2025-04-27T03:18:10	8.8	89
116280	2025-04-27T03:28:10	8.8	88.5
116281	2025-04-27T03:38:10	8.7	88.5
116282	2025-04-27T03:48:10	8.7	89
116283	2025-04-27T03:58:10	8.6	89
116284	2025-04-27T04:08:10	8.4	89
116285	2025-04-27T04:18:10	8.5	89
116286	2025-04-27T04:28:10	8.5	89
116287	2025-04-27T04:38:10	8.5	89.5
116288	2025-04-27T04:48:10	8.6	89
116289	2025-04-27T04:58:10	8.5	89
116290	2025-04-27T05:08:10	8.5	88.5
116291	2025-04-27T05:18:10	8.7	88
116292	2025-04-27T05:28:10	8.9	88.5
116293	2025-04-27T05:38:10	9.2	87.5
116294	2025-04-27T05:48:10	9.3	87
116295	2025-04-27T05:58:10	9.5	85.5
116296	2025-04-27T06:08:10	9.8	86
116297	2025-04-27T06:18:10	10.1	85
116298	2025-04-27T06:28:10	10.5	83.5
116299	2025-04-27T06:38:10	10.7	83
116300	2025-04-27T06:48:10	10.9	81
116301	2025-04-27T06:58:10	11.4	79
116302	2025-04-27T07:08:10	11.5	78.5
116303	2025-04-27T07:18:10	11.7	78
116304	2025-04-27T07:28:10	12.1	76.5
116305	2025-04-27T07:38:10	12.4	75.5
116306	2025-04-27T07:48:10	12.7	73.5
116307	2025-04-27T07:58:10	13	73
116308	2025-04-27T08:08:10	13.3	72
116309	2025-04-27T08:18:10	13.5	70
116310	2025-04-27T08:28:10	13.8	70.5
116311	2025-04-27T08:38:10	14	69
116312	2025-04-27T08:48:10	14.3	68.5
116313	2025-04-27T08:58:10	14.5	68.5
116314	2025-04-27T09:08:10	14.6	68.5
116315	2025-04-27T09:18:10	14.9	67.5
116316	2025-04-27T09:28:10	15	68
116317	2025-04-27T09:38:10	15.3	67.5
116318	2025-04-27T09:48:10	15.5	65
116319	2025-04-27T09:58:10	15.7	65.5
116320	2025-04-27T10:08:10	16.2	63
116321	2025-04-27T10:18:10	16.4	61.5
116322	2025-04-27T10:28:10	16.6	62.5
116323	2025-04-27T10:38:10	17.1	62.5
116324	2025-04-27T10:48:10	17.2	61
116325	2025-04-27T10:58:10	17.4	62.5
116326	2025-04-27T11:08:10	17.6	63
116327	2025-04-27T11:18:10	17.9	60.5
116328	2025-04-27T11:28:09	18.1	59.5
116329	2025-04-27T11:38:09	18.3	58
116330	2025-04-27T11:48:09	18.6	58
116331	2025-04-27T11:58:09	19.2	53.5
116332	2025-04-27T12:08:09	23.4	46.5
116333	2025-04-27T12:18:09	28.3	36.5
116334	2025-04-27T12:28:09	30.5	31.5
116335	2025-04-27T12:38:09	31.8	30
116336	2025-04-27T12:48:09	31.7	28.5
116337	2025-04-27T12:58:09	33.3	27
116338	2025-04-27T13:08:09	34.1	26.5
116339	2025-04-27T13:18:09	34	24.5
116340	2025-04-27T13:28:09	33.9	24.5
116341	2025-04-27T13:38:09	34.4	23.5
116342	2025-04-27T13:48:09	35.6	23
116343	2025-04-27T13:58:09	36	23
116344	2025-04-27T14:08:09	35.5	21.5
116345	2025-04-27T14:18:09	35.8	21.5
116346	2025-04-27T14:28:09	35.8	20.5
116347	2025-04-27T14:38:09	35.9	20
116348	2025-04-27T14:48:09	35.9	20
116349	2025-04-27T14:58:09	36.6	19
116350	2025-04-27T15:08:09	36.2	19
116351	2025-04-27T15:18:09	35.8	19.5
116352	2025-04-27T15:28:09	36.7	19
116353	2025-04-27T15:38:09	36.9	19
116354	2025-04-27T15:48:09	35	21
116355	2025-04-27T15:58:09	34.6	20
116356	2025-04-27T16:08:09	35.1	21
116357	2025-04-27T16:18:09	34.8	20
116358	2025-04-27T16:28:09	34.4	21
116359	2025-04-27T16:38:09	33.7	20.5
116360	2025-04-27T16:48:09	31.9	22
116361	2025-04-27T16:58:09	30.1	24
116362	2025-04-27T17:08:09	29.1	25
116363	2025-04-27T17:18:09	29.3	25.5
116364	2025-04-27T17:28:09	28.8	26
116365	2025-04-27T17:38:09	28.2	26
116366	2025-04-27T17:48:09	25.7	30
116367	2025-04-27T17:58:09	24.8	32
116368	2025-04-27T18:08:09	23.8	33.5
116369	2025-04-27T18:18:09	23.1	36.5
116370	2025-04-27T18:28:09	22.5	38
116371	2025-04-27T18:38:09	21.9	40.5
116372	2025-04-27T18:48:09	21.2	41.5
116373	2025-04-27T18:58:09	20.8	42
116374	2025-04-27T19:08:09	20.1	43
116375	2025-04-27T19:18:09	19.5	48
116376	2025-04-27T19:28:09	19	49.5
116377	2025-04-27T19:38:09	18.4	51.5
116378	2025-04-27T19:48:09	18.2	52.5
116379	2025-04-27T19:58:09	18	53
116380	2025-04-27T20:08:09	17.5	53
116381	2025-04-27T20:18:09	17.3	54.5
116382	2025-04-27T20:28:09	16.9	55.5
116383	2025-04-27T20:38:09	16.6	56
116384	2025-04-27T20:48:09	16.3	57.5
116385	2025-04-27T20:58:09	16	57
116386	2025-04-27T21:08:09	15.7	58
116387	2025-04-27T21:18:09	15.4	59.5
116388	2025-04-27T21:28:09	15	59.5
116389	2025-04-27T21:38:09	14.7	61
116390	2025-04-27T21:48:09	14.6	61.5
116391	2025-04-27T21:58:09	14.6	62.5
116392	2025-04-27T22:08:09	14.3	63
116393	2025-04-27T22:18:09	13.9	63
116394	2025-04-27T22:28:08	13.7	64
116395	2025-04-27T22:38:08	13.7	63
116396	2025-04-27T22:48:08	13.4	64.5
116397	2025-04-27T22:58:08	13.1	65
116398	2025-04-27T23:08:08	13	66.5
116399	2025-04-27T23:18:08	12.8	67
116400	2025-04-27T23:28:08	12.7	67.5
116401	2025-04-27T23:38:08	12.4	68.5
116402	2025-04-27T23:48:08	12.2	69.5
116403	2025-04-27T23:58:08	12.2	70.5
116404	2025-04-28T00:08:08	12	69.5
116405	2025-04-28T00:18:08	11.6	71
116406	2025-04-28T00:28:08	11.6	72
116407	2025-04-28T00:38:08	11.4	72
116408	2025-04-28T00:48:08	11.2	72.5
116409	2025-04-28T00:58:08	11.1	72.5
116410	2025-04-28T01:08:08	10.9	73.5
116411	2025-04-28T01:18:08	10.9	74.5
116412	2025-04-28T01:28:08	10.7	74.5
116413	2025-04-28T01:38:08	10.4	74.5
116414	2025-04-28T01:48:08	10.3	75.5
116415	2025-04-28T01:58:08	10.1	76
116416	2025-04-28T02:08:08	10	76.5
116417	2025-04-28T02:18:08	9.8	77
116418	2025-04-28T02:28:08	10	77
116419	2025-04-28T02:38:08	9.8	77
116420	2025-04-28T02:48:08	9.6	77
116421	2025-04-28T02:58:08	9.3	78
116422	2025-04-28T03:08:08	9.4	78
116423	2025-04-28T03:18:08	9.1	78.5
116424	2025-04-28T03:28:08	9	79.5
116425	2025-04-28T03:38:08	8.8	80
116426	2025-04-28T03:48:08	8.8	80
116427	2025-04-28T03:58:08	8.5	80
116428	2025-04-28T04:08:08	8.4	80.5
116429	2025-04-28T04:18:08	8.3	81
116430	2025-04-28T04:28:08	8.2	81.5
116431	2025-04-28T04:38:08	8.2	81.5
116432	2025-04-28T04:48:08	8.3	81.5
116433	2025-04-28T04:58:08	8.2	81.5
116434	2025-04-28T05:08:08	8.2	82
116435	2025-04-28T05:18:08	8.3	81.5
116436	2025-04-28T05:28:08	8.5	82.5
116437	2025-04-28T05:38:08	8.7	82
116438	2025-04-28T05:48:08	8.8	82
116439	2025-04-28T05:58:08	9.1	81.5
116440	2025-04-28T06:08:08	9.3	80.5
116441	2025-04-28T06:18:08	9.5	80.5
116442	2025-04-28T06:28:08	9.7	81
116443	2025-04-28T06:38:08	9.8	80.5
116444	2025-04-28T06:48:08	10.1	80
116445	2025-04-28T06:58:08	10.3	81
116446	2025-04-28T07:08:08	10.6	81
116447	2025-04-28T07:18:08	10.9	81.5
116448	2025-04-28T07:28:08	11.1	80
116449	2025-04-28T07:38:08	11.3	80
116450	2025-04-28T07:48:08	11.8	78
116451	2025-04-28T07:58:08	12.3	75.5
116452	2025-04-28T08:08:08	12.7	73
116453	2025-04-28T08:18:08	13	74.5
116454	2025-04-28T08:28:08	13.2	72.5
116455	2025-04-28T08:38:08	13.5	71.5
116456	2025-04-28T08:48:08	13.8	70
116457	2025-04-28T08:58:08	14.1	72.5
116458	2025-04-28T09:08:08	14.5	69.5
116459	2025-04-28T09:18:08	14.8	68.5
116460	2025-04-28T09:28:08	15.2	67.5
116461	2025-04-28T09:38:08	15.4	67
116462	2025-04-28T09:48:08	15.9	62
116463	2025-04-28T09:58:08	16.2	60.5
116464	2025-04-28T10:08:08	16.5	58.5
116465	2025-04-28T10:18:08	16.8	57.5
116466	2025-04-28T10:28:08	17.3	56.5
116467	2025-04-28T10:38:08	17.3	56
116468	2025-04-28T10:48:08	17.7	56
116469	2025-04-28T10:58:08	18	53.5
116470	2025-04-28T11:08:08	18.5	53
116471	2025-04-28T11:18:08	18.6	50
116472	2025-04-28T11:28:08	18.9	47.5
116473	2025-04-28T11:38:08	19.3	48
116474	2025-04-28T11:48:08	19.8	46.5
116475	2025-04-28T11:58:08	20.3	45.5
116476	2025-04-28T12:08:08	24.8	37
116477	2025-04-28T12:18:08	30.7	29.5
116478	2025-04-28T12:28:08	33.4	27
116479	2025-04-28T12:38:08	34.7	24
116480	2025-04-28T12:48:08	35.8	23.5
116481	2025-04-28T12:58:08	36.2	21
116482	2025-04-28T13:08:08	37.3	22.5
116483	2025-04-28T13:18:07	38.5	22
116484	2025-04-28T13:28:07	39.1	20
116485	2025-04-28T13:38:07	40.2	17.5
116486	2025-04-28T13:48:07	40.2	17.5
116487	2025-04-28T13:58:07	40.4	19.5
116488	2025-04-28T14:08:07	40.6	18.5
116489	2025-04-28T14:18:07	40.3	16
116490	2025-04-28T14:28:07	40.5	17.5
116491	2025-04-28T14:38:07	40.8	16
116492	2025-04-28T14:48:28	41.6	15.5
116493	2025-04-28T14:58:07	41.3	16
116494	2025-04-28T15:08:07	41.1	17
116495	2025-04-28T15:18:07	41.4	16.5
116496	2025-04-28T15:28:07	40.5	16.5
116497	2025-04-28T15:38:07	40.5	16.5
116498	2025-04-28T15:48:07	40.2	16
116499	2025-04-28T15:58:07	39.7	16
116500	2025-04-28T16:08:07	39.2	17
116501	2025-04-28T16:18:07	39.1	17.5
116502	2025-04-28T16:28:07	38.7	18
116503	2025-04-28T16:38:07	37.9	18.5
116504	2025-04-28T16:48:07	37.6	18.5
116505	2025-04-28T16:58:07	36.9	20
116506	2025-04-28T17:08:07	36.2	20
116507	2025-04-28T17:18:07	35.3	22
116508	2025-04-28T17:28:07	34.2	23
116509	2025-04-28T17:38:07	32	25.5
116510	2025-04-28T17:48:07	30	29
116511	2025-04-28T17:58:07	28.5	31
116512	2025-04-28T18:08:07	27.4	34
116513	2025-04-28T18:18:07	26.9	35
116514	2025-04-28T18:28:07	26.1	40
116515	2025-04-28T18:38:07	25.2	44
116516	2025-04-28T18:48:07	24.6	45.5
116517	2025-04-28T18:58:07	23.8	47
116518	2025-04-28T19:08:07	23.2	49
116519	2025-04-28T19:18:07	22.6	49
116520	2025-04-28T19:28:07	22	49.5
116521	2025-04-28T19:38:07	21.6	50
116522	2025-04-28T19:48:07	21.2	50
116523	2025-04-28T19:58:07	20.5	50
116524	2025-04-28T20:08:07	20.1	51.5
116525	2025-04-28T20:18:07	19.8	51
116526	2025-04-28T20:28:07	19.5	51.5
116527	2025-04-28T20:38:07	19	52.5
116528	2025-04-28T20:48:07	18.7	53.5
116529	2025-04-28T20:58:07	18.4	54.5
116530	2025-04-28T21:08:07	17.8	55.5
116531	2025-04-28T21:18:07	17.3	55.5
116532	2025-04-28T21:28:07	16.9	56
116533	2025-04-28T21:38:07	16.7	57
116534	2025-04-28T21:48:07	16.3	58
116535	2025-04-28T21:58:07	15.9	59
116536	2025-04-28T22:08:07	15.6	60.5
116537	2025-04-28T22:18:07	15.6	61
116538	2025-04-28T22:28:07	15.4	61.5
116539	2025-04-28T22:38:07	15.2	61.5
116540	2025-04-28T22:48:07	15	61.5
116541	2025-04-28T22:58:07	14.9	63
116542	2025-04-28T23:08:07	14.6	63.5
116543	2025-04-28T23:18:07	14.4	63
116544	2025-04-28T23:28:07	14	64.5
116545	2025-04-28T23:38:07	13.8	65
116546	2025-04-28T23:48:07	13.5	65
116547	2025-04-28T23:58:07	13.2	66.5
116548	2025-04-29T00:08:07	13.1	67
116549	2025-04-29T00:18:07	13.1	67.5
116550	2025-04-29T00:28:07	12.8	68
116551	2025-04-29T00:38:07	12.7	68.5
116552	2025-04-29T00:48:07	12.6	68
116553	2025-04-29T00:58:07	12.5	68.5
116554	2025-04-29T01:08:06	12.4	69
116555	2025-04-29T01:18:07	12.2	68.5
116556	2025-04-29T01:28:06	12.1	68.5
116557	2025-04-29T01:38:06	12	69
116558	2025-04-29T01:48:06	11.7	70.5
116559	2025-04-29T01:58:06	11.8	71
116560	2025-04-29T02:08:06	11.6	71.5
116561	2025-04-29T02:18:06	11.4	71.5
116562	2025-04-29T02:28:06	11.2	72.5
116563	2025-04-29T02:38:06	11.2	71.5
116564	2025-04-29T02:48:06	11	73
116565	2025-04-29T02:58:06	10.7	73
116566	2025-04-29T03:08:06	10.7	73.5
116567	2025-04-29T03:18:06	10.7	74.5
116568	2025-04-29T03:28:06	10.6	74.5
116569	2025-04-29T03:38:06	10.4	75.5
116570	2025-04-29T03:48:06	10.3	76
116571	2025-04-29T03:58:06	10.2	75.5
116572	2025-04-29T04:08:06	10	76
116573	2025-04-29T04:18:06	9.8	77
116574	2025-04-29T04:28:06	9.6	77.5
116575	2025-04-29T04:38:06	9.7	78
116576	2025-04-29T04:48:06	9.7	78
116577	2025-04-29T04:58:06	9.8	78
116578	2025-04-29T05:08:06	9.9	78
116579	2025-04-29T05:18:06	10.2	77
116580	2025-04-29T05:28:06	10.4	77.5
116581	2025-04-29T05:38:06	10.5	77.5
116582	2025-04-29T05:48:06	10.6	78
116583	2025-04-29T05:58:06	10.8	77
116584	2025-04-29T06:08:06	11.1	77
116585	2025-04-29T06:18:06	11.2	77.5
116586	2025-04-29T06:28:06	11.6	77
116587	2025-04-29T06:38:06	11.9	76.5
116588	2025-04-29T06:48:06	12.2	76.5
116589	2025-04-29T06:58:06	12.5	75
116590	2025-04-29T07:08:06	12.7	73.5
116591	2025-04-29T07:18:06	13.1	72
116592	2025-04-29T07:28:06	13.3	71
116593	2025-04-29T07:38:06	13.5	72
116594	2025-04-29T07:48:06	13.9	70.5
116595	2025-04-29T07:58:06	14.1	70.5
116596	2025-04-29T08:08:06	14.5	69.5
116597	2025-04-29T08:18:06	14.9	70.5
116598	2025-04-29T08:28:06	15.2	69.5
116599	2025-04-29T08:38:06	15.5	68.5
116600	2025-04-29T08:48:06	15.9	68
116601	2025-04-29T08:58:06	16.1	66.5
116602	2025-04-29T09:08:06	16.5	65
116603	2025-04-29T09:18:06	16.6	66
116604	2025-04-29T09:28:06	16.9	65.5
116605	2025-04-29T09:38:06	17.3	65.5
116606	2025-04-29T09:48:06	17.7	63
116607	2025-04-29T09:58:06	18	63
116608	2025-04-29T10:08:06	18.2	61.5
116609	2025-04-29T10:18:06	18.5	61
116610	2025-04-29T10:28:06	18.8	59
116611	2025-04-29T10:38:06	19.2	58.5
116612	2025-04-29T10:48:06	19.5	56.5
116613	2025-04-29T10:58:06	19.7	57
116614	2025-04-29T11:08:06	20	55
116615	2025-04-29T11:18:06	20.4	53.5
116616	2025-04-29T11:28:06	20.8	52.5
116617	2025-04-29T11:38:06	21.2	51
116618	2025-04-29T11:48:06	21.6	51.5
116619	2025-04-29T11:58:06	22.2	48.5
116620	2025-04-29T12:08:06	26.9	41.5
116621	2025-04-29T12:18:06	32.5	31
116622	2025-04-29T12:28:06	34.8	28
116623	2025-04-29T12:38:06	36.3	25.5
116624	2025-04-29T12:48:06	37.6	25.5
116625	2025-04-29T12:58:06	38.8	23.5
116626	2025-04-29T13:08:06	38.6	22
116627	2025-04-29T13:18:06	39.7	22
116628	2025-04-29T13:28:06	39.9	21.5
116629	2025-04-29T13:38:06	41	20.5
116630	2025-04-29T13:48:06	40.9	19.5
116631	2025-04-29T13:58:06	39.8	20
116632	2025-04-29T14:08:06	40.8	19
116633	2025-04-29T14:18:06	41.6	19
116634	2025-04-29T14:28:06	41.6	19
116635	2025-04-29T14:38:05	42.2	18.5
116636	2025-04-29T14:48:05	42.2	19
116637	2025-04-29T14:58:05	42.4	18
116638	2025-04-29T15:08:05	41.7	18
116639	2025-04-29T15:18:05	41.2	18.5
116640	2025-04-29T15:28:05	41.4	19.5
116641	2025-04-29T15:38:05	41.3	19
116642	2025-04-29T15:48:05	41.3	19.5
116643	2025-04-29T15:58:05	40.9	18.5
116644	2025-04-29T16:08:05	40.8	19.5
116645	2025-04-29T16:18:05	40.7	18.5
116646	2025-04-29T16:28:05	39.6	20
116647	2025-04-29T16:38:05	39.1	20.5
116648	2025-04-29T16:48:05	39.2	20.5
116649	2025-04-29T16:58:05	38.4	21
116650	2025-04-29T17:08:05	37.8	22
116651	2025-04-29T17:18:05	37	22.5
116652	2025-04-29T17:28:05	36	23
116653	2025-04-29T17:38:05	33.8	25.5
116654	2025-04-29T17:48:05	31.4	29
116655	2025-04-29T17:58:05	30.2	31
116656	2025-04-29T18:08:05	29	32.5
116657	2025-04-29T18:18:05	28.4	34
116658	2025-04-29T18:28:05	27.5	36
116659	2025-04-29T18:38:05	26.6	37.5
116660	2025-04-29T18:48:05	26	39.5
116661	2025-04-29T18:58:05	25.5	41
116662	2025-04-29T19:08:05	24.8	43
116663	2025-04-29T19:18:05	24.5	45
116664	2025-04-29T19:28:05	23.9	46.5
116665	2025-04-29T19:38:05	23.4	47
116666	2025-04-29T19:48:05	22.9	47
116667	2025-04-29T19:58:05	22.6	48.5
116668	2025-04-29T20:08:05	22.2	48
116669	2025-04-29T20:18:05	21.8	48.5
116670	2025-04-29T20:28:05	21.4	49
116671	2025-04-29T20:38:05	21.1	51.5
116672	2025-04-29T20:48:05	20.7	52
116673	2025-04-29T20:58:05	20.3	53
116674	2025-04-29T21:08:05	19.9	55
116675	2025-04-29T21:18:05	19.5	55.5
116676	2025-04-29T21:28:05	19.1	56
116677	2025-04-29T21:38:05	18.7	58
116678	2025-04-29T21:48:05	18.4	58
116679	2025-04-29T21:58:05	18.3	59
116680	2025-04-29T22:08:05	18	60
116681	2025-04-29T22:18:05	17.7	60.5
116682	2025-04-29T22:28:05	17.5	61
116683	2025-04-29T22:38:05	17.3	61
116684	2025-04-29T22:48:05	17	61.5
116685	2025-04-29T22:58:05	16.9	62.5
116686	2025-04-29T23:08:05	16.5	63
116687	2025-04-29T23:18:05	16.3	63.5
116688	2025-04-29T23:28:05	16.1	64
116689	2025-04-29T23:38:05	15.9	65
116690	2025-04-29T23:48:05	15.7	64.5
116691	2025-04-29T23:58:05	15.6	66
116692	2025-04-30T00:08:05	15.4	66.5
116693	2025-04-30T00:18:05	15.3	67
116694	2025-04-30T00:28:05	15.1	67
116695	2025-04-30T00:38:05	14.8	68
116696	2025-04-30T00:48:05	14.7	69
116697	2025-04-30T00:58:05	14.4	70
116698	2025-04-30T01:08:05	14.2	70.5
116699	2025-04-30T01:18:05	14.2	70
116700	2025-04-30T01:28:05	13.9	71
116701	2025-04-30T01:38:05	13.8	71
116702	2025-04-30T01:48:05	13.7	71
116703	2025-04-30T01:58:05	13.7	72
116704	2025-04-30T02:08:05	13.5	72.5
116705	2025-04-30T02:18:05	13.2	73
116706	2025-04-30T02:28:05	12.9	73.5
116707	2025-04-30T02:38:04	12.7	74.5
116708	2025-04-30T02:48:04	12.9	74
116709	2025-04-30T02:58:04	12.7	74.5
116710	2025-04-30T03:08:04	12.4	75.5
116711	2025-04-30T03:18:04	12.4	76
116712	2025-04-30T03:28:04	11.9	76.5
116713	2025-04-30T03:38:04	12	78.5
116714	2025-04-30T03:48:04	11.7	79
116715	2025-04-30T03:58:04	11.8	78
116716	2025-04-30T04:08:04	11.6	78.5
116717	2025-04-30T04:18:04	11.5	78.5
116718	2025-04-30T04:28:04	11.6	78
116719	2025-04-30T04:38:04	11.4	78.5
116720	2025-04-30T04:48:04	11.6	78.5
116721	2025-04-30T04:58:04	11.6	78
116722	2025-04-30T05:08:04	11.6	78
116723	2025-04-30T05:18:04	11.6	78.5
116724	2025-04-30T05:28:04	11.7	78.5
116725	2025-04-30T05:38:04	11.8	79
116726	2025-04-30T05:48:04	12	77.5
116727	2025-04-30T05:58:04	12.2	78.5
116728	2025-04-30T06:08:04	12.4	78.5
116729	2025-04-30T06:18:04	12.6	77.5
116730	2025-04-30T06:28:04	12.9	78.5
116731	2025-04-30T06:38:04	13.1	77.5
116732	2025-04-30T06:48:04	13.5	76.5
116733	2025-04-30T06:58:04	13.7	76
116734	2025-04-30T07:08:04	13.9	75
116735	2025-04-30T07:18:04	14.1	75
116736	2025-04-30T07:28:04	14.6	73.5
116737	2025-04-30T07:38:04	14.8	71.5
116738	2025-04-30T07:48:04	15	71.5
116739	2025-04-30T07:58:04	15.2	72.5
116740	2025-04-30T08:08:04	15.6	70.5
116741	2025-04-30T08:18:04	16	69
116742	2025-04-30T08:28:04	16.1	69.5
116743	2025-04-30T08:38:04	16.4	68
116744	2025-04-30T08:48:04	16.7	67.5
116745	2025-04-30T08:58:04	16.8	66
116746	2025-04-30T09:08:04	17.2	66
116747	2025-04-30T09:18:04	17.5	66
116748	2025-04-30T09:28:04	17.7	64.5
116749	2025-04-30T09:38:04	18.2	63
116750	2025-04-30T09:48:24	18.4	61
116751	2025-04-30T09:58:04	18.8	61.5
116752	2025-04-30T10:08:04	19.1	57.5
116753	2025-04-30T10:18:04	19.4	58.5
116754	2025-04-30T10:28:04	19.6	55.5
116755	2025-04-30T10:38:04	20.1	56.5
116756	2025-04-30T10:48:04	20.5	54.5
116757	2025-04-30T10:58:04	21	52
116758	2025-04-30T11:08:04	21.1	52
116759	2025-04-30T11:18:04	21.4	53.5
116760	2025-04-30T11:28:04	21.8	53
116761	2025-04-30T11:38:04	22.3	51
116762	2025-04-30T11:48:04	22.7	50
116763	2025-04-30T11:58:04	23.4	48
116764	2025-04-30T12:08:04	28.3	40
116765	2025-04-30T12:18:04	33.7	29.5
116766	2025-04-30T12:28:04	35.6	26.5
116767	2025-04-30T12:38:04	37.8	23.5
116768	2025-04-30T12:48:04	38.3	23
116769	2025-04-30T12:58:04	39.1	23.5
116770	2025-04-30T13:08:04	40.3	20.5
116771	2025-04-30T13:18:04	40.8	20.5
116772	2025-04-30T13:28:04	42.2	19.5
116773	2025-04-30T13:38:04	42.8	20
116774	2025-04-30T13:48:04	43.2	19
116775	2025-04-30T13:58:04	42.9	19
116776	2025-04-30T14:08:04	43.8	17.5
116777	2025-04-30T14:18:04	42.6	18
116778	2025-04-30T14:28:04	43.2	17.5
116779	2025-04-30T14:38:04	43	18
116780	2025-04-30T14:48:04	43.2	18
116781	2025-04-30T14:58:04	43.9	18.5
116782	2025-04-30T15:08:04	43.4	17
116783	2025-04-30T15:18:04	43.3	17.5
116784	2025-04-30T15:28:03	43.1	17
116785	2025-04-30T15:38:03	42.7	18
116786	2025-04-30T15:48:03	42.7	17.5
116787	2025-04-30T15:58:03	41.5	17.5
116788	2025-04-30T16:08:03	41.3	18
116789	2025-04-30T16:18:03	40.8	19
116790	2025-04-30T16:28:03	41.3	18.5
116791	2025-04-30T16:38:03	41.1	18.5
116792	2025-04-30T16:48:03	40.1	19
116793	2025-04-30T16:58:03	39.2	19.5
116794	2025-04-30T17:08:03	38.9	20
116795	2025-04-30T17:18:03	38.5	20
116796	2025-04-30T17:28:03	37.4	21.5
116797	2025-04-30T17:38:03	35.2	24.5
116798	2025-04-30T17:48:03	32.9	25.5
116799	2025-04-30T17:58:03	31.5	27
116800	2025-04-30T18:08:03	30.7	28
116801	2025-04-30T18:18:03	29.5	30.5
116802	2025-04-30T18:28:03	29	32
116803	2025-04-30T18:38:03	28.1	35.5
116804	2025-04-30T18:48:03	27.4	37
116805	2025-04-30T18:58:03	26.5	37.5
116806	2025-04-30T19:08:03	25.9	38.5
116807	2025-04-30T19:18:03	25.4	40
116808	2025-04-30T19:28:03	24.8	43.5
116809	2025-04-30T19:38:03	24.2	41.5
116810	2025-04-30T19:48:03	23.6	43.5
116811	2025-04-30T19:58:03	23.2	45.5
116812	2025-04-30T20:08:03	22.8	46
116813	2025-04-30T20:18:03	22.2	44
116814	2025-04-30T20:28:03	21.8	45
116815	2025-04-30T20:38:03	21.6	46
116816	2025-04-30T20:48:03	21.4	47
116817	2025-04-30T20:58:03	21.1	47.5
116818	2025-04-30T21:08:03	20.8	47.5
116819	2025-04-30T21:18:03	20.4	48.5
116820	2025-04-30T21:28:03	19.9	49
116821	2025-04-30T21:38:03	19.6	50
116822	2025-04-30T21:48:03	19.3	51.5
116823	2025-04-30T21:58:03	19	51.5
116824	2025-04-30T22:08:03	18.6	51.5
116825	2025-04-30T22:18:03	18.4	52.5
116826	2025-04-30T22:28:03	18.2	53.5
116827	2025-04-30T22:38:03	17.9	54.5
116828	2025-04-30T22:48:03	17.7	55
116829	2025-04-30T22:58:03	17.6	55
116830	2025-04-30T23:08:03	17.5	56
116831	2025-04-30T23:18:03	17.4	56
116832	2025-04-30T23:28:03	17.2	57.5
116833	2025-04-30T23:38:03	16.9	61
116834	2025-04-30T23:48:03	16.4	62.5
116835	2025-04-30T23:58:03	16	64
116836	2025-05-01T00:08:03	15.8	64.5
116837	2025-05-01T00:18:03	15.6	65.5
116838	2025-05-01T00:28:03	15.5	66.5
116839	2025-05-01T00:38:03	15.2	67
116840	2025-05-01T00:48:03	14.9	67.5
116841	2025-05-01T00:58:03	14.9	67
116842	2025-05-01T01:08:03	14.7	66.5
116843	2025-05-01T01:18:03	14.7	67
116844	2025-05-01T01:28:03	14.3	68
116845	2025-05-01T01:38:03	14.2	69
116846	2025-05-01T01:48:03	14	69.5
116847	2025-05-01T01:58:03	13.8	70.5
116848	2025-05-01T02:08:03	13.7	70.5
116849	2025-05-01T02:18:03	13.5	71.5
116850	2025-05-01T02:28:03	13.3	72.5
116851	2025-05-01T02:38:03	13.2	73
116852	2025-05-01T02:48:03	13	73
116853	2025-05-01T02:58:03	12.8	74
116854	2025-05-01T03:08:03	12.7	74
116855	2025-05-01T03:18:02	12.7	75
116856	2025-05-01T03:28:02	12.5	75
116857	2025-05-01T03:38:02	12.4	75.5
116858	2025-05-01T03:48:02	12.1	76
116859	2025-05-01T03:58:02	12	77.5
116860	2025-05-01T04:08:02	11.9	78.5
116861	2025-05-01T04:18:02	11.8	78.5
116862	2025-05-01T04:28:02	11.7	78
116863	2025-05-01T04:38:02	11.6	78.5
116864	2025-05-01T04:48:02	11.6	79
116865	2025-05-01T04:58:02	11.7	78
116866	2025-05-01T05:08:02	11.6	79
116867	2025-05-01T05:18:02	11.8	80.5
116868	2025-05-01T05:28:02	11.9	80.5
116869	2025-05-01T05:38:02	12	81
116870	2025-05-01T05:48:02	12.3	79.5
116871	2025-05-01T05:58:02	12.5	79.5
116872	2025-05-01T06:08:02	12.8	79.5
116873	2025-05-01T06:18:02	13	78
116874	2025-05-01T06:28:02	13.2	78
116875	2025-05-01T06:38:02	13.5	77.5
116876	2025-05-01T06:48:02	13.7	77.5
116877	2025-05-01T06:58:02	14	75
116878	2025-05-01T07:08:02	14.3	74
116879	2025-05-01T07:18:02	14.6	73
116880	2025-05-01T07:28:02	14.7	73.5
116881	2025-05-01T07:38:02	15.1	70.5
116882	2025-05-01T07:48:02	15.4	71.5
116883	2025-05-01T07:58:02	15.7	69.5
116884	2025-05-01T08:08:02	15.9	69
116885	2025-05-01T08:18:02	16.3	66.5
116886	2025-05-01T08:28:02	16.6	65.5
116887	2025-05-01T08:38:02	16.8	66.5
116888	2025-05-01T08:48:02	17.1	68
116889	2025-05-01T09:08:02	18.1	65
116890	2025-05-01T09:18:02	18.3	64
116891	2025-05-01T09:28:24	18.6	63
116892	2025-05-01T09:38:02	19	64.5
116893	2025-05-01T09:48:02	19	64.5
116894	2025-05-01T09:58:02	19.7	62.5
116895	2025-05-01T10:08:02	20	62.5
116896	2025-05-01T10:18:02	20.3	61.5
116897	2025-05-01T10:28:02	20.7	59
116898	2025-05-01T10:38:02	21.1	59.5
116899	2025-05-01T10:48:02	21.4	53.5
116900	2025-05-01T10:58:02	21.9	54
116901	2025-05-01T11:08:02	22	55
116902	2025-05-01T11:18:02	22.8	54
116903	2025-05-01T11:28:02	23	51.5
116904	2025-05-01T11:38:02	23.4	50
116905	2025-05-01T11:48:02	24.1	41
116906	2025-05-01T11:58:02	24.8	41.5
116907	2025-05-01T12:08:02	29.6	33.5
116908	2025-05-01T12:18:02	34.7	24
116909	2025-05-01T12:28:02	36.4	24.5
116910	2025-05-01T12:38:02	38.1	22.5
116911	2025-05-01T12:48:02	40	21.5
116912	2025-05-01T12:58:02	41.1	20
116913	2025-05-01T13:08:02	40.4	20
116914	2025-05-01T13:18:02	41.6	20
116915	2025-05-01T13:28:02	42.5	20
116916	2025-05-01T13:38:02	42.2	20
116917	2025-05-01T13:48:02	43.7	19.5
116918	2025-05-01T13:58:02	44.1	18
116919	2025-05-01T14:08:02	45.1	18
116920	2025-05-01T14:18:02	45.6	16.5
116921	2025-05-01T14:28:02	45.1	18
116922	2025-05-01T14:58:02	44.6	17.5
116923	2025-05-01T15:08:02	44	17
116924	2025-05-01T15:18:02	43.7	17.5
116925	2025-05-01T15:28:02	44.4	18
116926	2025-05-01T15:38:02	43.9	18
116927	2025-05-01T15:48:02	43.1	17.5
116928	2025-05-01T15:58:02	44.2	17.5
116929	2025-05-01T16:08:01	44.2	18
116930	2025-05-01T16:18:01	44.3	17
116931	2025-05-01T16:28:01	44.2	18
116932	2025-05-01T16:38:01	43.4	19
116933	2025-05-01T16:48:01	42.9	19
116934	2025-05-01T16:58:01	42.5	19
116935	2025-05-01T17:08:01	41.8	19.5
116936	2025-05-01T17:18:01	41	19.5
116937	2025-05-01T17:28:01	40.2	20
116938	2025-05-01T17:38:01	37.5	22.5
116939	2025-05-01T17:48:01	35.5	26.5
116940	2025-05-01T17:58:01	34.1	34
116941	2025-05-01T18:08:01	33	36
116942	2025-05-01T18:18:01	32.1	36.5
116943	2025-05-01T18:28:01	31.1	36
116944	2025-05-01T18:38:01	30.3	38
116945	2025-05-01T18:48:01	29.5	38
116946	2025-05-01T18:58:01	28.6	39.5
116947	2025-05-01T19:08:01	27.9	43
116948	2025-05-01T19:18:01	27.3	43.5
116949	2025-05-01T19:28:01	26.8	45
116950	2025-05-01T19:38:01	26.4	42
116951	2025-05-01T19:48:01	25.8	45.5
116952	2025-05-01T19:58:01	25.4	48.5
116953	2025-05-01T20:08:01	24.9	48
116954	2025-05-01T20:18:01	24.4	47.5
116955	2025-05-01T20:28:01	24	49
116956	2025-05-01T20:38:01	23.5	50.5
116957	2025-05-01T20:48:01	23	51
116958	2025-05-01T20:58:01	22.8	51.5
116959	2025-05-01T21:08:01	22.4	51
116960	2025-05-01T21:18:01	22.1	52
116961	2025-05-01T21:28:01	21.7	54
116962	2025-05-01T21:38:01	21.5	54
116963	2025-05-01T21:48:01	21	53.5
116964	2025-05-01T21:58:01	20.5	55.5
116965	2025-05-01T22:08:01	20.3	56.5
116966	2025-05-01T22:18:01	20	57.5
116967	2025-05-01T22:28:01	19.7	58.5
116968	2025-05-01T22:38:01	19.4	58.5
116969	2025-05-01T22:48:01	18.9	59.5
116970	2025-05-01T22:58:01	18.8	61
116971	2025-05-01T23:08:01	18.7	62
116972	2025-05-01T23:18:01	18.2	62.5
116973	2025-05-01T23:28:01	18.1	63
116974	2025-05-01T23:38:01	17.9	64
116975	2025-05-01T23:48:01	17.8	63.5
116976	2025-05-01T23:58:01	17.5	63.5
116977	2025-05-02T00:08:01	17.2	63.5
116978	2025-05-02T00:18:01	17.1	64.5
116979	2025-05-02T00:28:01	16.6	65
116980	2025-05-02T00:38:01	16.3	67
116981	2025-05-02T00:48:01	16.4	67
116982	2025-05-02T00:58:01	16.2	67
116983	2025-05-02T01:08:01	16.1	67
116984	2025-05-02T01:18:01	16	67.5
116985	2025-05-02T01:28:01	15.8	68
116986	2025-05-02T01:38:01	15.6	68.5
116987	2025-05-02T01:48:01	15.4	69.5
116988	2025-05-02T01:58:01	15.2	70
116989	2025-05-02T02:08:01	15	70.5
116990	2025-05-02T02:18:01	15	70.5
116991	2025-05-02T02:28:01	14.8	71
116992	2025-05-02T02:38:01	14.5	71.5
116993	2025-05-02T02:48:01	14.4	72
116994	2025-05-02T02:58:01	14.1	72
116995	2025-05-02T03:08:01	14.1	72
116996	2025-05-02T03:18:01	13.8	73
116997	2025-05-02T03:28:01	13.7	74
116998	2025-05-02T03:38:00	13.7	74.5
116999	2025-05-02T03:48:00	13.4	76.5
117000	2025-05-02T03:58:00	13.2	76.5
117001	2025-05-02T04:08:00	13.2	76
117002	2025-05-02T04:18:00	13	77.5
117003	2025-05-02T04:28:00	13	77.5
117004	2025-05-02T04:38:00	13.1	77.5
117005	2025-05-02T04:48:00	13.1	77.5
117006	2025-05-02T04:58:00	13.2	77
117007	2025-05-02T05:08:00	13.3	77
117008	2025-05-02T05:18:00	13.3	78
117009	2025-05-02T05:28:00	13.6	77.5
117010	2025-05-02T05:38:00	13.8	77.5
117011	2025-05-02T05:48:00	14	78
117012	2025-05-02T05:58:00	14.3	78.5
117013	2025-05-02T06:08:00	14.6	78
117014	2025-05-02T06:18:00	15	75.5
117015	2025-05-02T06:28:00	15.3	74.5
117016	2025-05-02T06:38:00	15.6	75
117017	2025-05-02T06:48:00	16	76.5
117018	2025-05-02T06:58:00	16.3	75
117019	2025-05-02T07:08:00	16.4	75
117020	2025-05-02T07:18:00	16.9	72
117021	2025-05-02T07:28:00	17.1	73.5
117022	2025-05-02T07:38:00	17.2	73
117023	2025-05-02T07:48:00	17.5	72
117024	2025-05-02T07:58:00	17.9	72
117025	2025-05-02T08:08:00	18.1	71
117026	2025-05-02T08:18:00	18.4	70.5
117027	2025-05-02T08:28:00	18.9	68.5
117028	2025-05-02T08:38:00	19.2	68.5
117029	2025-05-02T08:48:00	19.8	67.5
117030	2025-05-02T08:58:00	20.4	61.5
117031	2025-05-02T09:08:00	21.2	56
117032	2025-05-02T09:18:00	21.7	55.5
117033	2025-05-02T09:28:00	22.1	53.5
117034	2025-05-02T09:38:00	22.6	49.5
117035	2025-05-02T09:48:00	23	48.5
117036	2025-05-02T09:58:00	23.3	47.5
117037	2025-05-02T10:08:00	23.9	48.5
117038	2025-05-02T10:18:00	23.8	48
117039	2025-05-02T10:28:00	23.9	47
117040	2025-05-02T10:38:00	24.5	46.5
117041	2025-05-02T10:48:00	24.7	46
117042	2025-05-02T10:58:00	24.9	47.5
117043	2025-05-02T11:08:00	25.2	45.5
117044	2025-05-02T11:18:00	25.4	46
117045	2025-05-02T11:28:00	25.6	44.5
117046	2025-05-02T11:38:00	26.1	42
117047	2025-05-02T11:48:00	26.4	42
117048	2025-05-02T11:58:00	27	41.5
117049	2025-05-02T12:08:00	31	36
117050	2025-05-02T12:18:00	34	29.5
117051	2025-05-02T12:28:00	36.1	27
117052	2025-05-02T12:38:00	36.6	27
117053	2025-05-02T12:48:00	38.7	23.5
117054	2025-05-02T12:58:00	38.3	24
117055	2025-05-02T13:08:00	39	23.5
117056	2025-05-02T13:18:00	39.6	23.5
117057	2025-05-02T13:28:00	39.2	23.5
117058	2025-05-02T13:38:00	39.9	22.5
117059	2025-05-02T13:48:00	41.1	23.5
117060	2025-05-02T13:58:00	40.1	22
117061	2025-05-02T14:08:00	39.4	22
117062	2025-05-02T14:18:00	37.8	23.5
117063	2025-05-02T14:28:00	39.5	22.5
117064	2025-05-02T14:38:00	38.3	22.5
117065	2025-05-02T14:48:00	38.7	23
117066	2025-05-02T14:58:00	37.9	24
117067	2025-05-02T15:08:00	37.6	23.5
117068	2025-05-02T15:17:59	37.3	23.5
117069	2025-05-02T15:27:59	37.7	23.5
117070	2025-05-02T15:37:59	36.8	23.5
117071	2025-05-02T15:47:59	36.3	25.5
117072	2025-05-02T15:57:59	34.5	27.5
117073	2025-05-02T16:07:59	33.6	29
117074	2025-05-02T16:17:59	32.4	31
117075	2025-05-02T16:27:59	31.7	32
117076	2025-05-02T16:37:59	32.6	32
117077	2025-05-02T16:47:59	32.1	32
117078	2025-05-02T16:57:59	31.4	34.5
117079	2025-05-02T17:07:59	32.5	33.5
117080	2025-05-02T17:17:59	31.7	35
117081	2025-05-02T17:27:59	31.9	35.5
117082	2025-05-02T17:37:59	31.9	41.5
117083	2025-05-02T17:47:59	31.5	41.5
117084	2025-05-02T17:57:59	30.3	45
117085	2025-05-02T18:07:59	30	45.5
117086	2025-05-02T18:17:59	29.2	48
117087	2025-05-02T18:27:59	28.5	48.5
117088	2025-05-02T18:37:59	28	49
117089	2025-05-02T18:47:59	26.9	50
117090	2025-05-02T18:57:59	26.5	50.5
117091	2025-05-02T19:07:59	26.3	51.5
117092	2025-05-02T19:17:59	25.2	53
117093	2025-05-02T19:27:59	25.2	54
117094	2025-05-02T19:37:59	24.2	55
117095	2025-05-02T19:47:59	24.2	55.5
117096	2025-05-02T19:57:59	24.3	56
117097	2025-05-02T20:07:59	24.2	56.5
117098	2025-05-02T20:17:59	24.1	55.5
117099	2025-05-02T20:27:59	23.8	57
117100	2025-05-02T20:37:59	23.7	56.5
117101	2025-05-02T20:47:59	23.7	55
117102	2025-05-02T20:57:59	23.4	55
117103	2025-05-02T21:07:59	23.1	56.5
117104	2025-05-02T21:17:59	22.9	56.5
117105	2025-05-02T21:27:59	22.5	55.5
117106	2025-05-02T21:37:59	22.2	57.5
117107	2025-05-02T21:47:59	22.1	59
117108	2025-05-02T21:57:59	21.9	59.5
117109	2025-05-02T22:07:59	21.7	59.5
117110	2025-05-02T22:17:59	21.4	61
117111	2025-05-02T22:27:59	21.2	61.5
117112	2025-05-02T22:37:59	21.3	60.5
117113	2025-05-02T22:47:59	21.1	60.5
117114	2025-05-02T22:57:59	20.9	60.5
117115	2025-05-02T23:07:59	20.7	61.5
117116	2025-05-02T23:17:59	20.6	58
117117	2025-05-02T23:27:59	20.4	61.5
117118	2025-05-02T23:37:59	20.5	62
117119	2025-05-02T23:47:59	20.1	63
117120	2025-05-02T23:57:59	19.9	62.5
117121	2025-05-03T00:07:59	19.8	62
117122	2025-05-03T00:17:59	19.5	60
117123	2025-05-03T00:27:59	19.5	60.5
117124	2025-05-03T00:37:59	19.3	60
117125	2025-05-03T00:57:59	19	58.5
117126	2025-05-03T01:07:59	18.9	60.5
117127	2025-05-03T01:17:59	18.7	61
117128	2025-05-03T01:27:59	18.7	60.5
117129	2025-05-03T01:37:59	18.3	61.5
117130	2025-05-03T01:47:58	18.2	63
117131	2025-05-03T01:57:58	18.2	63.5
117132	2025-05-03T02:07:58	18.1	64
117133	2025-05-03T02:17:58	18	63.5
117134	2025-05-03T02:27:58	17.7	64
117135	2025-05-03T02:37:58	17.3	63.5
117136	2025-05-03T02:47:58	17.4	64
117137	2025-05-03T02:57:58	17.2	64.5
117138	2025-05-03T03:07:58	17	65
117139	2025-05-03T03:17:58	17.1	65
117140	2025-05-03T03:27:58	16.9	66
117141	2025-05-03T03:37:58	16.8	66
117142	2025-05-03T03:47:58	16.9	67.5
117143	2025-05-03T03:57:58	16.9	68.5
117144	2025-05-03T04:07:58	16.9	68
117145	2025-05-03T04:17:58	16.9	65.5
117146	2025-05-03T04:27:58	17.1	64
117147	2025-05-03T04:37:58	17.8	61
117148	2025-05-03T04:47:58	18.1	60
117149	2025-05-03T04:57:58	18.5	59.5
117150	2025-05-03T05:07:58	18.6	59
117151	2025-05-03T05:17:58	18.6	58.5
117152	2025-05-03T05:27:58	18.9	59
117153	2025-05-03T05:37:58	18.9	61
117154	2025-05-03T05:47:58	17.2	85.5
117155	2025-05-03T05:57:58	16.5	94
117156	2025-05-03T06:07:58	15.7	93.5
117157	2025-05-03T06:17:58	15.5	94.5
117158	2025-05-03T06:27:58	15.4	94.5
117159	2025-05-03T06:37:58	15.5	94.5
117160	2025-05-03T06:47:58	16.1	95
117161	2025-05-03T06:57:58	16	95
117162	2025-05-03T07:07:58	16.1	95
117163	2025-05-03T07:17:58	16.4	95.5
117164	2025-05-03T07:27:58	16.7	95.5
117165	2025-05-03T07:37:58	16.6	95.5
117166	2025-05-03T07:47:58	17.2	95.5
117167	2025-05-03T07:57:58	17.3	95.5
117168	2025-05-03T08:07:58	17.1	95.5
117169	2025-05-03T08:17:58	17.3	95.5
117170	2025-05-03T08:27:58	17.4	95.5
117171	2025-05-03T08:37:58	17.5	95.5
117172	2025-05-03T08:57:58	18.2	96
117173	2025-05-03T09:07:58	18.3	96
117174	2025-05-03T09:17:58	18.8	96
117175	2025-05-03T09:27:58	19.5	98.5
117176	2025-05-03T09:37:58	19.8	98.5
117177	2025-05-03T09:47:58	20.2	100
117178	2025-05-03T09:57:58	20.6	100
117179	2025-05-03T10:07:58	20.1	98.5
117180	2025-05-03T10:17:58	20.3	99
117181	2025-05-03T10:27:58	20	100
117182	2025-05-03T10:37:58	20.4	79.5
117183	2025-05-03T10:47:58	21.4	62
117184	2025-05-03T10:57:58	21.8	59.5
117185	2025-05-03T11:07:58	21.9	58.5
117186	2025-05-03T11:17:58	22.1	57.5
117187	2025-05-03T11:27:58	23.1	55.5
117188	2025-05-03T11:37:58	23.3	56.5
117189	2025-05-03T11:47:58	23.2	54.5
117190	2025-05-03T11:57:58	23.6	53
117191	2025-05-03T12:07:58	25.7	47.5
117192	2025-05-03T12:17:58	28.1	42
117193	2025-05-03T12:27:58	28.9	40.5
117194	2025-05-03T12:37:57	29.3	39.5
117195	2025-05-03T12:47:57	29.1	40
117196	2025-05-03T12:57:57	28.9	40.5
117197	2025-05-03T13:07:57	27.3	44.5
117198	2025-05-03T13:17:57	28.9	41
117199	2025-05-03T13:27:57	29	40.5
117200	2025-05-03T13:37:57	29.7	40
117201	2025-05-03T13:47:57	28.7	42
117202	2025-05-03T13:57:57	30.4	36
117203	2025-05-03T14:07:57	29.9	38.5
117204	2025-05-03T14:17:57	30.7	36.5
117205	2025-05-03T14:27:57	30.8	36.5
117206	2025-05-03T14:37:57	31.9	34.5
117207	2025-05-03T14:47:57	31.8	35
117208	2025-05-03T14:57:57	31.5	35
117209	2025-05-03T15:07:57	32.2	34.5
117210	2025-05-03T15:17:57	32.3	34
117211	2025-05-03T15:27:57	31.1	35.5
117212	2025-05-03T15:37:57	31.7	33.5
117213	2025-05-03T15:47:57	31.5	34.5
117214	2025-05-03T15:57:57	29.9	36.5
117215	2025-05-03T16:07:57	30	38.5
117216	2025-05-03T16:17:57	29.3	38.5
117217	2025-05-03T16:27:57	29	39.5
117218	2025-05-03T16:37:57	29.4	39.5
117219	2025-05-03T16:47:57	28.8	41
117220	2025-05-03T16:57:57	27.4	43
117221	2025-05-03T17:07:57	26.4	46
117222	2025-05-03T17:17:57	25.8	47.5
117223	2025-05-03T17:27:57	25.6	48.5
117224	2025-05-03T17:37:57	25.3	50.5
117225	2025-05-03T17:47:57	24.6	53.5
117226	2025-05-03T17:57:57	22.5	62
117227	2025-05-03T18:07:57	20.5	84
117228	2025-05-03T18:17:57	19.5	99
117229	2025-05-03T18:27:57	17.8	98.5
117230	2025-05-03T18:38:16	18.4	99
117231	2025-05-03T18:47:57	17.9	99
117232	2025-05-03T18:57:57	18.4	99
117233	2025-05-03T20:08:52	17.7	95
117234	2025-05-03T20:08:52	17.7	95
117235	2025-05-03T20:08:53	17.4	95
117236	2025-05-03T20:17:57	17.6	95
117237	2025-05-03T20:27:57	17	95
117238	2025-05-03T20:37:57	17.3	95
117239	2025-05-03T20:47:57	17.2	95
117240	2025-05-03T20:57:57	16.7	95.5
117241	2025-05-03T21:07:57	17	95.5
117242	2025-05-03T21:17:57	16.8	95.5
117243	2025-05-03T21:23:04	16.7	95.5
117244	2025-05-03T21:33:04	16.4	95.5
117245	2025-05-03T21:43:04	16.5	95.5
117246	2025-05-03T21:53:04	16.4	95.5
117247	2025-05-03T22:03:04	16.3	95.5
117248	2025-05-03T22:13:04	16.1	95.5
117249	2025-05-03T22:33:04	16.2	95.5
117250	2025-05-03T22:43:04	16.2	95.5
117251	2025-05-03T22:53:04	16.4	95.5
117252	2025-05-03T23:03:04	16.3	95.5
117253	2025-05-03T23:13:04	16.3	95.5
117254	2025-05-03T23:23:03	16.2	95.5
117255	2025-05-03T23:33:03	16.2	95.5
117256	2025-05-03T23:43:03	15.7	95.5
117257	2025-05-03T23:53:03	15.6	95.5
117258	2025-05-04T00:03:03	15.6	96
117259	2025-05-04T00:13:03	15.7	96
117260	2025-05-04T00:23:03	15	96
117261	2025-05-04T00:33:03	14.9	96
117262	2025-05-04T00:43:03	14.8	96
117263	2025-05-04T00:53:03	14.8	96
117264	2025-05-04T01:03:03	14.8	96
117265	2025-05-04T01:13:03	14.6	96
117266	2025-05-04T01:23:03	14.7	96
117267	2025-05-04T01:33:03	14.6	96
117268	2025-05-04T01:43:03	14.3	96
117269	2025-05-04T01:53:03	14.1	96
117270	2025-05-04T02:03:03	13.9	96
117271	2025-05-04T02:13:03	13.7	96
117272	2025-05-04T02:23:03	13.7	96
117273	2025-05-04T02:33:03	13.5	96
117274	2025-05-04T02:43:03	13.4	96
117275	2025-05-04T02:53:03	13.4	96
117276	2025-05-04T03:03:03	13.4	96
117277	2025-05-04T03:13:03	13.3	96
117278	2025-05-04T03:23:03	13.4	96
117279	2025-05-04T03:33:03	13.2	96
117280	2025-05-04T03:43:03	13.1	96
117281	2025-05-04T03:53:03	13.2	96
117282	2025-05-04T04:03:03	13.1	96
117283	2025-05-04T04:13:03	12.9	96
117284	2025-05-04T04:23:03	12.9	96
117285	2025-05-04T04:33:03	12.8	96.5
117286	2025-05-04T04:43:03	12.7	96.5
117287	2025-05-04T04:53:03	12.5	96
117288	2025-05-04T05:03:03	12.4	96.5
117289	2025-05-04T05:13:03	12.3	96.5
117290	2025-05-04T05:23:03	12.4	96
117291	2025-05-04T05:33:03	12.5	96.5
117292	2025-05-04T05:43:03	12.4	96.5
117293	2025-05-04T06:03:03	12.6	96.5
117294	2025-05-04T06:13:03	12.6	96.5
117295	2025-05-04T06:23:03	12.4	96.5
117296	2025-05-04T06:33:03	12.5	96.5
117297	2025-05-04T06:43:03	12.6	96.5
117298	2025-05-04T06:53:03	12.7	96.5
117299	2025-05-04T07:03:03	12.3	96.5
117300	2025-05-04T07:13:03	12.4	96.5
117301	2025-05-04T07:23:58	12.3	96.5
117302	2025-05-04T07:33:03	12.1	96.5
117303	2025-05-04T07:43:03	12.2	96.5
117304	2025-05-04T07:53:03	12.1	96.5
117305	2025-05-04T08:03:03	12.1	96.5
117306	2025-05-04T08:13:03	12.2	96.5
117307	2025-05-04T08:23:03	12.2	96.5
117308	2025-05-04T08:33:03	12.3	96.5
117309	2025-05-04T08:43:03	12.4	96.5
117310	2025-05-04T08:53:03	12.3	96.5
117311	2025-05-04T09:03:03	12.6	96.5
117312	2025-05-04T09:13:03	12.9	96.5
117313	2025-05-04T09:23:03	13.1	96.5
117314	2025-05-04T09:33:03	13.1	97
117315	2025-05-04T09:43:03	13.2	96.5
117316	2025-05-04T09:53:03	13.2	97
117317	2025-05-04T10:03:03	13.2	97
117318	2025-05-04T10:13:03	13.2	97
117319	2025-05-04T10:23:03	13.2	97
117320	2025-05-04T10:33:03	13.3	97
117321	2025-05-04T10:43:03	13.7	97
117322	2025-05-04T10:53:03	14	97
117323	2025-05-04T11:03:03	14.5	97
117324	2025-05-04T11:13:03	15.3	97
117325	2025-05-04T11:23:03	15.1	97
117326	2025-05-04T11:33:03	15.1	96.5
117327	2025-05-04T11:43:03	15.5	97
117328	2025-05-04T11:53:03	15.9	96.5
117329	2025-05-04T12:03:03	17.2	96.5
117330	2025-05-04T12:13:03	18.1	97
117331	2025-05-04T12:23:03	19	96.5
117332	2025-05-04T12:33:03	18.3	97
117333	2025-05-04T12:43:02	17.4	97
117334	2025-05-04T12:53:02	17	97
117335	2025-05-04T13:03:02	17.1	96.5
117336	2025-05-04T13:13:02	17	96.5
117337	2025-05-04T13:23:02	17.3	99.5
117338	2025-05-04T13:33:02	17.4	99.5
117339	2025-05-04T13:43:02	17.8	100
117340	2025-05-04T13:53:02	18.4	100
117341	2025-05-04T14:03:02	18.5	100
117342	2025-05-04T14:13:02	17.9	100
117343	2025-05-04T14:23:02	17.3	100
117344	2025-05-04T14:33:02	17.3	100
117345	2025-05-04T14:43:02	17.2	100
117346	2025-05-04T14:53:02	17.4	98.5
117347	2025-05-04T15:03:02	17.2	89.5
117348	2025-05-04T15:13:02	16.9	68.5
117349	2025-05-04T15:23:02	16.9	67
117350	2025-05-04T15:33:02	16.7	66.5
117351	2025-05-04T15:43:02	16.3	67.5
117352	2025-05-04T15:53:02	16.3	68.5
117353	2025-05-04T16:03:02	16.1	67
117354	2025-05-04T16:13:02	16	69.5
117355	2025-05-04T16:23:02	15.9	68.5
117356	2025-05-04T16:33:02	16.7	68.5
117357	2025-05-04T16:43:02	16.7	65.5
117358	2025-05-04T16:53:02	16.7	68
117359	2025-05-04T17:03:02	16.3	69
117360	2025-05-04T17:13:02	16	69.5
117361	2025-05-04T17:23:02	16	71
117362	2025-05-04T17:33:02	15.6	72
117363	2025-05-04T17:43:02	15.4	73.5
117364	2025-05-04T17:53:02	15.3	73.5
117365	2025-05-04T18:03:02	15.4	72
117366	2025-05-04T18:13:02	15.1	75
117367	2025-05-04T18:23:02	14.6	75.5
117368	2025-05-04T18:33:02	14.1	79
117369	2025-05-04T18:43:02	13.9	81.5
117370	2025-05-04T18:53:02	13.3	83
117371	2025-05-04T19:03:02	13	84.5
117372	2025-05-04T19:13:02	12.8	85.5
117373	2025-05-04T19:23:02	12.7	84.5
117374	2025-05-04T19:33:02	12.4	83
117375	2025-05-04T19:43:02	12.3	84.5
117376	2025-05-04T19:53:02	12.1	81
117377	2025-05-04T20:03:02	11.9	82
117378	2025-05-04T20:13:02	11.9	81.5
117379	2025-05-04T20:23:02	11.8	79.5
117380	2025-05-04T20:33:02	11.7	79.5
117381	2025-05-04T20:43:02	11.8	79.5
117382	2025-05-04T20:53:02	11.6	77
117383	2025-05-04T21:03:02	11.5	76
117384	2025-05-04T21:13:02	11.3	76
117385	2025-05-04T21:23:02	11.1	76
117386	2025-05-04T21:33:02	11	77
117387	2025-05-04T21:43:02	10.8	80
117388	2025-05-04T21:53:02	10.8	78
117389	2025-05-04T22:03:02	10.8	77.5
117390	2025-05-04T22:13:02	11	79
117391	2025-05-04T22:23:02	10.9	78.5
117392	2025-05-04T22:33:02	10.7	79
117393	2025-05-04T22:43:02	10.5	80.5
117394	2025-05-04T22:53:02	10.3	82
117395	2025-05-04T23:03:02	10.2	83.5
117396	2025-05-04T23:13:02	10.1	83.5
117397	2025-05-04T23:23:02	9.9	83.5
117398	2025-05-04T23:33:02	9.8	82
117399	2025-05-04T23:43:02	9.7	83
117400	2025-05-04T23:53:02	9.6	82
117401	2025-05-05T00:03:02	9.5	84.5
117402	2025-05-05T00:13:02	9.4	83.5
117403	2025-05-05T00:23:02	9.3	83.5
117404	2025-05-05T00:33:02	9.2	85.5
117405	2025-05-05T00:43:02	9	86.5
117406	2025-05-05T00:53:02	8.8	86.5
117407	2025-05-05T01:03:02	8.8	86.5
117408	2025-05-05T01:13:02	8.9	87.5
117409	2025-05-05T01:23:02	9.1	84.5
117410	2025-05-05T01:33:02	8.9	83.5
117411	2025-05-05T01:43:02	8.5	85
117412	2025-05-05T01:53:02	8.6	87
117413	2025-05-05T02:03:02	8.4	86.5
117414	2025-05-05T02:13:02	8.2	86.5
117415	2025-05-05T02:23:02	8.2	87
117416	2025-05-05T02:33:01	8	87.5
117417	2025-05-05T02:43:01	8	87
117418	2025-05-05T02:53:01	8	88
117419	2025-05-05T03:03:01	7.9	88
117420	2025-05-05T03:13:01	7.8	87.5
117421	2025-05-05T03:23:01	8	87
117422	2025-05-05T03:33:01	7.7	87.5
117423	2025-05-05T03:43:01	7.6	88.5
117424	2025-05-05T03:53:01	7.5	89
117425	2025-05-05T04:03:01	7.5	88.5
117426	2025-05-05T04:13:01	7.5	89
117427	2025-05-05T04:23:01	7.5	90
117428	2025-05-05T04:33:01	7.6	90
117429	2025-05-05T04:43:01	7.9	89.5
117430	2025-05-05T04:53:01	8.2	88
117431	2025-05-05T05:03:01	8.4	87
117432	2025-05-05T05:13:01	8.6	86
117433	2025-05-05T05:23:01	8.8	83
117434	2025-05-05T05:33:01	8.8	82
117435	2025-05-05T05:43:01	8.9	82
117436	2025-05-05T05:53:01	9	81
117437	2025-05-05T06:03:01	9.3	80
117438	2025-05-05T06:13:01	9.6	79
117439	2025-05-05T06:23:01	9.8	78.5
117440	2025-05-05T06:33:01	10	77.5
117441	2025-05-05T06:43:01	10.2	76
117442	2025-05-05T06:53:01	10.2	76
117443	2025-05-05T07:03:01	10.3	75.5
117444	2025-05-05T07:13:01	10.3	74.5
117445	2025-05-05T07:23:01	10.5	74.5
117446	2025-05-05T07:33:01	10.5	75
117447	2025-05-05T07:43:01	10.7	73.5
117448	2025-05-05T07:53:01	11.1	73
117449	2025-05-05T08:03:01	11.4	71
117450	2025-05-05T08:13:01	11.6	68.5
117451	2025-05-05T08:23:01	12.2	68.5
117452	2025-05-05T08:33:01	12.7	68.5
117453	2025-05-05T08:43:01	13	65.5
117454	2025-05-05T08:53:01	13	65
117455	2025-05-05T09:03:01	13.1	63
117456	2025-05-05T09:13:01	12.8	63.5
117457	2025-05-05T09:23:01	12.8	62
117458	2025-05-05T09:33:01	12.8	61.5
117459	2025-05-05T09:43:01	13.1	59.5
117460	2025-05-05T09:53:01	13.7	59.5
117461	2025-05-05T10:03:01	14.3	58.5
117462	2025-05-05T10:13:01	15	55
117463	2025-05-05T10:23:01	15	54
117464	2025-05-05T10:33:01	15.4	54.5
117465	2025-05-05T10:43:01	15.7	54
117466	2025-05-05T10:53:01	15.7	54.5
117467	2025-05-05T11:03:01	15.8	55
117468	2025-05-05T11:13:01	16.1	53.5
117469	2025-05-05T11:23:01	16.4	54
117470	2025-05-05T11:33:01	16.7	53
117471	2025-05-05T11:43:01	17.1	53.5
117472	2025-05-05T11:53:01	17.9	51
117473	2025-05-05T12:03:01	19.4	46.5
117474	2025-05-05T12:13:01	20.2	43.5
117475	2025-05-05T12:23:01	19.5	44
117476	2025-05-05T12:33:01	19.9	42.5
117477	2025-05-05T12:43:01	22.1	41.5
117478	2025-05-05T12:53:01	22.5	39
117479	2025-05-05T13:03:01	20.2	42
117480	2025-05-05T13:13:01	20.4	42.5
117481	2025-05-05T13:23:01	19.9	41
117482	2025-05-05T13:33:01	19.7	43.5
117483	2025-05-05T13:43:01	19.9	43
117484	2025-05-05T13:53:01	21.3	39
117485	2025-05-05T14:03:01	19.8	43
117486	2025-05-05T14:13:01	21.8	40.5
117487	2025-05-05T14:23:01	20.8	39.5
117488	2025-05-05T14:33:01	20.3	41.5
117489	2025-05-05T14:43:01	20	42
117490	2025-05-05T14:53:01	19.8	42.5
117491	2025-05-05T15:03:01	19.4	43.5
117492	2025-05-05T15:13:01	20	42.5
117493	2025-05-05T15:23:01	20.2	41
117494	2025-05-05T15:33:01	20.4	43
117495	2025-05-05T15:43:01	20.9	41
117496	2025-05-05T15:53:01	20.8	39.5
117497	2025-05-05T16:03:01	19.5	42.5
117498	2025-05-05T16:13:00	18.8	44.5
117499	2025-05-05T16:23:00	18.9	44.5
117500	2025-05-05T16:33:00	19	45.5
117501	2025-05-05T16:43:00	18.9	45.5
117502	2025-05-05T16:53:00	18.4	46
117503	2025-05-05T17:03:00	17.8	49
117504	2025-05-05T17:13:00	17.4	49.5
117505	2025-05-05T17:23:00	17.1	51
117506	2025-05-05T17:33:00	17	52
117507	2025-05-05T17:43:01	16.6	54
117508	2025-05-05T17:53:00	16.4	54
117509	2025-05-05T18:03:00	16.2	56.5
117510	2025-05-05T18:13:00	15.9	58.5
117511	2025-05-05T18:23:00	15.7	62
117512	2025-05-05T18:33:00	15.5	59.5
117513	2025-05-05T18:43:00	15.4	59
117514	2025-05-05T18:53:00	15.1	57
117515	2025-05-05T19:03:00	14.9	58.5
117516	2025-05-05T19:13:00	14.9	60.5
117517	2025-05-05T19:23:00	14.6	62
117518	2025-05-05T19:33:00	14.6	62.5
117519	2025-05-05T19:43:00	14.3	63.5
117520	2025-05-05T19:53:00	14.3	66
117521	2025-05-05T20:03:00	13.9	65
117522	2025-05-05T20:13:00	13.7	67.5
117523	2025-05-05T20:23:00	13.7	66.5
117524	2025-05-05T20:33:00	13.8	66
117525	2025-05-05T20:43:00	13.7	67.5
117526	2025-05-05T20:53:00	13.7	68
117527	2025-05-05T21:03:00	13.5	68
117528	2025-05-05T21:13:00	13.3	70
117529	2025-05-05T21:23:00	13.2	72.5
117530	2025-05-05T21:33:00	13.1	71
117531	2025-05-05T21:43:00	13	72
117532	2025-05-05T21:53:00	12.9	71.5
117533	2025-05-05T22:03:00	12.8	70.5
117534	2025-05-05T22:13:00	12.8	71.5
117535	2025-05-05T22:23:00	12.6	72
117536	2025-05-05T22:33:00	12.6	73.5
117537	2025-05-05T22:43:00	12.6	70
117538	2025-05-05T22:53:00	12.3	71.5
117539	2025-05-05T23:03:00	12.3	73
117540	2025-05-05T23:13:00	12	72
117541	2025-05-05T23:23:00	11.9	73
117542	2025-05-05T23:33:00	11.8	70
117543	2025-05-05T23:43:00	11.8	69
117544	2025-05-05T23:53:00	11.7	71
117545	2025-05-06T00:03:00	11.6	71
117546	2025-05-06T00:13:00	11.6	71
117547	2025-05-06T00:23:00	11.5	72
117548	2025-05-06T00:33:00	11.5	73
117549	2025-05-06T00:43:00	11.4	74
117550	2025-05-06T00:53:00	11.4	75.5
117551	2025-05-06T01:03:00	11.4	75.5
117552	2025-05-06T01:13:00	11.3	76
117553	2025-05-06T01:23:00	11.1	77.5
117554	2025-05-06T01:33:00	10.9	80.5
117555	2025-05-06T01:43:00	10.9	81.5
117556	2025-05-06T01:53:00	10.7	81.5
117557	2025-05-06T02:03:00	10.5	82.5
117558	2025-05-06T02:13:00	10.2	83
117559	2025-05-06T02:23:00	10	84.5
117560	2025-05-06T02:33:00	9.9	84.5
117561	2025-05-06T02:43:00	9.6	85.5
117562	2025-05-06T02:53:00	9.6	86
117563	2025-05-06T03:03:00	9.6	86
117564	2025-05-06T03:13:00	9.5	86
117565	2025-05-06T03:23:00	9.5	86.5
117566	2025-05-06T03:33:00	9.4	86
117567	2025-05-06T03:43:00	9.3	86
117568	2025-05-06T03:53:00	9	85.5
117569	2025-05-06T04:03:00	9	86.5
117570	2025-05-06T04:13:00	8.9	85
117571	2025-05-06T04:23:00	8.8	85
117572	2025-05-06T04:33:00	8.8	84.5
117573	2025-05-06T04:43:00	8.7	84
117574	2025-05-06T04:53:00	8.8	83
117575	2025-05-06T05:03:00	8.9	82.5
117576	2025-05-06T05:13:00	8.8	82.5
117577	2025-05-06T05:23:00	8.9	82
117578	2025-05-06T05:33:00	9	81
117579	2025-05-06T05:43:00	9.1	79.5
117580	2025-05-06T05:53:00	9.5	77.5
117581	2025-05-06T06:02:59	9.6	76.5
117582	2025-05-06T06:12:59	9.7	75.5
117583	2025-05-06T06:22:59	9.9	75
117584	2025-05-06T06:33:00	10.2	74.5
117585	2025-05-06T06:43:00	10.4	73.5
117586	2025-05-06T06:53:00	10.6	73
117587	2025-05-06T07:03:00	10.9	72
117588	2025-05-06T07:12:59	11.2	69.5
117589	2025-05-06T07:22:59	11.5	69
117590	2025-05-06T07:32:59	12	68
117591	2025-05-06T07:42:59	12.1	66
117592	2025-05-06T07:52:59	12.3	66
117593	2025-05-06T08:02:59	12.2	66
117594	2025-05-06T08:12:59	11.9	66
117595	2025-05-06T08:22:59	12	67
117596	2025-05-06T08:32:59	12.3	64.5
117597	2025-05-06T08:42:59	12.8	64
117598	2025-05-06T08:52:59	13	61
117599	2025-05-06T09:02:59	13	62
117600	2025-05-06T09:12:59	13.2	59.5
117601	2025-05-06T09:22:59	13.4	56
117602	2025-05-06T09:32:59	13.6	53.5
117603	2025-05-06T09:42:59	13.8	51
117604	2025-05-06T09:52:59	14.2	50.5
117605	2025-05-06T10:02:59	14.5	50
117606	2025-05-06T10:12:59	15	51
117607	2025-05-06T10:22:59	15.7	50
117608	2025-05-06T10:32:59	16.6	47.5
117609	2025-05-06T10:42:59	16.1	45
117610	2025-05-06T10:52:59	16	44
117611	2025-05-06T11:02:59	16.2	44.5
117612	2025-05-06T11:12:59	16.2	43.5
117613	2025-05-06T11:22:59	17	42.5
117614	2025-05-06T11:32:59	17.3	42.5
117615	2025-05-06T11:42:59	18.1	43.5
117616	2025-05-06T11:52:59	19.1	41
117617	2025-05-06T12:02:59	18.6	37
117618	2025-05-06T12:12:59	24.5	33.5
117619	2025-05-06T12:22:59	27.1	27.5
117620	2025-05-06T12:32:59	26.3	28
117621	2025-05-06T12:42:59	24.4	31.5
117622	2025-05-06T12:52:59	24.9	30.5
117623	2025-05-06T13:02:59	24.3	29
117624	2025-05-06T13:32:59	30.2	23
117625	2025-05-06T13:42:59	28	24.5
117626	2025-05-06T13:52:59	26.9	25.5
117627	2025-05-06T14:02:59	24.9	28
117628	2025-05-06T14:12:59	27.6	26.5
117629	2025-05-06T14:22:59	27.7	25
117630	2025-05-06T14:32:59	29.6	24.5
117631	2025-05-06T14:42:59	31.1	22
117632	2025-05-06T14:52:59	31.8	22
117633	2025-05-06T15:02:59	31.8	21.5
117634	2025-05-06T15:12:59	32.3	21
117635	2025-05-06T15:22:59	31.6	21.5
117636	2025-05-06T15:32:59	30.7	23
117637	2025-05-06T15:42:59	31.2	22
117638	2025-05-06T15:52:59	30.5	22
117639	2025-05-06T16:02:59	27.4	25
117640	2025-05-06T16:12:59	26.1	26.5
117641	2025-05-06T16:22:59	24.7	28
117642	2025-05-06T16:32:59	24.2	29.5
117643	2025-05-06T16:42:59	27.1	26.5
117644	2025-05-06T16:52:59	26.1	27
117645	2025-05-06T17:02:59	23.5	30
117646	2025-05-06T17:12:59	22.4	32
117647	2025-05-06T17:22:59	22.8	32
117648	2025-05-06T17:32:59	21.6	34.5
117649	2025-05-06T17:42:59	20.9	35
117650	2025-05-06T17:52:59	20.2	37.5
117651	2025-05-06T18:02:59	19.6	39.5
117652	2025-05-06T18:12:58	19	41
117653	2025-05-06T18:22:59	18.4	42
117654	2025-05-06T18:32:58	17.9	45.5
117655	2025-05-06T18:42:58	17.4	47
117656	2025-05-06T18:52:58	16.7	49
117657	2025-05-06T19:02:58	16.2	51
117658	2025-05-06T19:12:58	15.8	53
117659	2025-05-06T19:22:58	15.2	54.5
117660	2025-05-06T19:32:58	15	57.5
117661	2025-05-06T19:42:59	14.6	56.5
117662	2025-05-06T19:52:58	14.3	56.5
117663	2025-05-06T20:02:58	13.9	59
117664	2025-05-06T20:12:58	13.6	59.5
117665	2025-05-06T20:23:20	13.3	60.5
117666	2025-05-06T20:32:58	12.9	62.5
117667	2025-05-06T20:42:58	12.8	64
117668	2025-05-06T20:52:58	12.4	64.5
117669	2025-05-06T21:02:58	12	65.5
117670	2025-05-06T21:12:58	11.8	66
117671	2025-05-06T21:22:58	11.6	67
117672	2025-05-06T21:32:58	11.4	67.5
117673	2025-05-06T21:42:58	11.2	68.5
117674	2025-05-06T21:52:58	10.8	69.5
117675	2025-05-06T22:02:58	10.6	69.5
117676	2025-05-06T22:12:58	10.4	70
117677	2025-05-06T22:22:58	10.2	72
117678	2025-05-06T22:32:58	10	72
117679	2025-05-06T22:42:58	9.7	73
117680	2025-05-06T22:52:58	9.5	74
117681	2025-05-06T23:02:58	9.2	73.5
117682	2025-05-06T23:12:58	9.1	72.5
117683	2025-05-06T23:22:58	8.9	71.5
117684	2025-05-06T23:32:58	8.7	72.5
117685	2025-05-06T23:42:58	8.5	73.5
117686	2025-05-06T23:52:58	8.2	74
117687	2025-05-07T00:02:58	8.2	75
117688	2025-05-07T00:12:58	7.9	74.5
117689	2025-05-07T00:22:58	7.7	75
117690	2025-05-07T00:32:58	7.5	76
117691	2025-05-07T00:42:58	7.3	76.5
117692	2025-05-07T00:52:58	7.2	76.5
117693	2025-05-07T01:02:58	7.1	76
117694	2025-05-07T01:12:58	7.2	76.5
117695	2025-05-07T01:22:58	7.2	76
117696	2025-05-07T01:32:58	7.1	76.5
117697	2025-05-07T01:42:58	6.8	77
117698	2025-05-07T01:52:58	6.8	77
117699	2025-05-07T02:02:58	6.6	77.5
117700	2025-05-07T02:12:58	6.6	78.5
117701	2025-05-07T02:22:58	6.3	79
117702	2025-05-07T02:32:58	6.4	78.5
117703	2025-05-07T02:42:58	6.4	78.5
117704	2025-05-07T02:52:58	6.1	78.5
117705	2025-05-07T03:02:58	6	80
117706	2025-05-07T03:12:58	5.8	80.5
117707	2025-05-07T03:22:58	5.6	80.5
117708	2025-05-07T03:32:58	5.5	81
117709	2025-05-07T03:42:58	5.2	82
117710	2025-05-07T03:52:58	5.1	82
117711	2025-05-07T04:02:58	5	82.5
117712	2025-05-07T04:12:58	5	83
117713	2025-05-07T04:22:58	4.9	83
117714	2025-05-07T04:32:58	4.9	83.5
117715	2025-05-07T04:42:58	4.9	83.5
117716	2025-05-07T04:52:58	5	83.5
117717	2025-05-07T05:02:58	5.2	84
117718	2025-05-07T05:12:58	5.3	84
117719	2025-05-07T05:22:58	5.4	84
117720	2025-05-07T05:32:58	5.6	84
117721	2025-05-07T05:42:58	5.9	83.5
117722	2025-05-07T05:52:58	6.2	84.5
117723	2025-05-07T06:02:58	6.3	84.5
117724	2025-05-07T06:12:58	6.7	84.5
117725	2025-05-07T06:22:58	7.2	83
117726	2025-05-07T06:32:58	7.5	81
117727	2025-05-07T06:42:58	7.7	81.5
117728	2025-05-07T06:52:58	8	79
117729	2025-05-07T07:02:58	8.2	79.5
117730	2025-05-07T07:12:58	8.6	78.5
117731	2025-05-07T07:22:58	9	76
117732	2025-05-07T07:32:58	9.4	75.5
117733	2025-05-07T07:42:58	9.7	74
117734	2025-05-07T07:52:58	9.9	72.5
117735	2025-05-07T08:02:58	10.3	73.5
117736	2025-05-07T08:12:58	10.5	72
117737	2025-05-07T08:22:58	11	69
117738	2025-05-07T08:32:58	11.2	67.5
117739	2025-05-07T08:42:58	11.4	66.5
117740	2025-05-07T08:52:58	11.8	65
117741	2025-05-07T09:02:58	12.1	62
117742	2025-05-07T09:12:58	12.5	62.5
117743	2025-05-07T09:22:58	12.8	59
117744	2025-05-07T09:32:58	13.2	57
117745	2025-05-07T09:42:58	13.5	55
117746	2025-05-07T09:52:58	13.8	58.5
117747	2025-05-07T10:02:58	14.1	52
117748	2025-05-07T10:12:58	14.5	51.5
117749	2025-05-07T10:22:58	14.9	50
117750	2025-05-07T10:32:58	15.1	50.5
117751	2025-05-07T10:42:58	15.6	50
117752	2025-05-07T10:52:58	15.8	49.5
117753	2025-05-07T11:02:58	15.9	50.5
117754	2025-05-07T11:12:58	16.9	49.5
117755	2025-05-07T11:22:57	17.4	49.5
117756	2025-05-07T11:32:57	17.5	46
117757	2025-05-07T11:42:57	18.1	43.5
117758	2025-05-07T11:52:57	18.5	44.5
117759	2025-05-07T12:02:57	19.7	43.5
117760	2025-05-07T12:12:57	25.3	34.5
117761	2025-05-07T12:22:57	25.8	33.5
117762	2025-05-07T12:32:57	27	31.5
117763	2025-05-07T12:42:57	25	34.5
117764	2025-05-07T12:52:57	26.1	32.5
117765	2025-05-07T13:02:57	29.8	28.5
117766	2025-05-07T13:12:57	25.2	33
117767	2025-05-07T13:22:57	24.5	34.5
117768	2025-05-07T13:32:57	29	29.5
117769	2025-05-07T13:42:57	26	30.5
117770	2025-05-07T13:52:57	23.6	34.5
117771	2025-05-07T14:02:57	23.1	37
117772	2025-05-07T14:12:57	28.5	30
117773	2025-05-07T14:22:57	28.2	29
117774	2025-05-07T14:32:57	24	35
117775	2025-05-07T14:42:57	22.7	36.5
117776	2025-05-07T14:52:57	23.7	36
117777	2025-05-07T15:02:57	22	38
117778	2025-05-07T15:12:57	21.7	38
117779	2025-05-07T15:22:57	22.6	37.5
117780	2025-05-07T15:32:57	23.5	35.5
117781	2025-05-07T15:42:57	21.8	37
117782	2025-05-07T15:52:57	21.3	37.5
117783	2025-05-07T16:02:57	24.3	35
117784	2025-05-07T16:12:57	22.4	37
117785	2025-05-07T16:22:57	24.7	35
117786	2025-05-07T16:32:57	25.4	32
117787	2025-05-07T16:42:57	23.4	34.5
117788	2025-05-07T16:52:57	23.4	34
117789	2025-05-07T17:02:57	24.8	33.5
117790	2025-05-07T17:12:57	25.2	31.5
117791	2025-05-07T17:22:57	25.1	32.5
117792	2025-05-07T17:32:57	24.2	32.5
117793	2025-05-07T17:42:57	22.9	34.5
117794	2025-05-07T17:52:57	20.9	38
117795	2025-05-07T18:02:57	20	39.5
117796	2025-05-07T18:12:57	18.9	41.5
117797	2025-05-07T18:22:57	18.2	43.5
117798	2025-05-07T18:32:57	17.6	46
117799	2025-05-07T18:42:57	17	48.5
117800	2025-05-07T18:52:57	16.4	49.5
117801	2025-05-07T19:02:57	16.1	51.5
117802	2025-05-07T19:12:57	15.7	53
117803	2025-05-07T19:22:57	15.3	54.5
117804	2025-05-07T19:32:57	15	56
117805	2025-05-07T19:42:57	14.7	58
117806	2025-05-07T19:52:57	14.3	60
117807	2025-05-07T20:02:57	13.9	61.5
117808	2025-05-07T20:12:57	13.7	61.5
117809	2025-05-07T20:22:57	13.5	62
117810	2025-05-07T20:32:57	13.3	63
117811	2025-05-07T20:42:57	13.1	64
117812	2025-05-07T20:52:57	12.9	65
117813	2025-05-07T21:02:57	12.7	66
117814	2025-05-07T21:12:57	12.5	67.5
117815	2025-05-07T21:22:57	12.1	68
117816	2025-05-07T21:32:57	11.8	69.5
117817	2025-05-07T21:42:57	11.7	69.5
117818	2025-05-07T21:52:57	11.6	70
117819	2025-05-07T22:02:57	11.2	70.5
117820	2025-05-07T22:12:57	11.2	71
117821	2025-05-07T22:22:57	11.2	71.5
117822	2025-05-07T22:32:57	11.4	71
117823	2025-05-07T22:42:56	11.5	71.5
117824	2025-05-07T22:52:56	11.4	71.5
117825	2025-05-07T23:02:56	11.5	72
117826	2025-05-07T23:12:56	11.4	72
117827	2025-05-07T23:22:56	11.3	73
117828	2025-05-07T23:32:56	11.3	73.5
117829	2025-05-07T23:42:56	11.2	73
117830	2025-05-07T23:52:56	11.3	73.5
117831	2025-05-08T00:02:56	11.1	73.5
117832	2025-05-08T00:12:56	11.1	74
117833	2025-05-08T00:22:56	10.9	74.5
117834	2025-05-08T00:32:56	10.9	75
117835	2025-05-08T00:42:56	10.8	75
117836	2025-05-08T00:52:56	10.7	75.5
117837	2025-05-08T01:02:56	10.7	75.5
117838	2025-05-08T01:12:56	10.6	76
117839	2025-05-08T01:22:56	10.5	76.5
117840	2025-05-08T01:32:56	10.4	77
117841	2025-05-08T01:42:56	10.3	77
117842	2025-05-08T01:52:56	10.3	77.5
117843	2025-05-08T02:02:56	10.2	78
117844	2025-05-08T02:12:56	10.1	78.5
117845	2025-05-08T02:22:56	10.1	79
117846	2025-05-08T02:32:56	9.9	79.5
117847	2025-05-08T02:42:56	9.9	80
117848	2025-05-08T02:52:56	9.8	80.5
117849	2025-05-08T03:02:56	9.8	80.5
117850	2025-05-08T03:12:56	9.7	81
117851	2025-05-08T03:22:56	9.6	81
117852	2025-05-08T03:32:56	9.7	81
117853	2025-05-08T03:42:56	9.6	81.5
117854	2025-05-08T03:52:56	9.7	81.5
117855	2025-05-08T04:02:56	9.6	81.5
117856	2025-05-08T04:12:56	9.7	81.5
117857	2025-05-08T04:22:56	9.7	81.5
117858	2025-05-08T04:32:56	9.6	81.5
117859	2025-05-08T04:42:56	9.7	81.5
117860	2025-05-08T04:53:16	9.7	81
117861	2025-05-08T05:02:56	9.8	81.5
117862	2025-05-08T05:12:56	9.9	81
117863	2025-05-08T05:22:56	9.9	81
117864	2025-05-08T05:32:56	10.1	80
117865	2025-05-08T05:42:56	10.3	79.5
117866	2025-05-08T05:52:56	10.5	78.5
117867	2025-05-08T06:02:56	10.8	77
117868	2025-05-08T06:12:56	11.1	75.5
117869	2025-05-08T06:22:56	11.4	74
117870	2025-05-08T06:32:56	11.8	73.5
117871	2025-05-08T06:42:56	12.1	72
117872	2025-05-08T06:52:56	12.3	69.5
117873	2025-05-08T07:02:56	12.7	68.5
117874	2025-05-08T07:12:56	12.7	68.5
117875	2025-05-08T07:22:56	13	67.5
117876	2025-05-08T07:32:56	13.2	66
117877	2025-05-08T07:42:56	13.3	66
117878	2025-05-08T07:52:56	13.5	65
117879	2025-05-08T08:02:56	13.8	65
117880	2025-05-08T08:12:56	13.9	63.5
117881	2025-05-08T08:22:56	13.8	64.5
117882	2025-05-08T08:32:56	14.1	64
117883	2025-05-08T08:42:56	14.4	63.5
117884	2025-05-08T08:52:56	14.6	61
117885	2025-05-08T09:02:56	14.8	64
117886	2025-05-08T09:12:56	14.8	61.5
117887	2025-05-08T09:22:56	14.9	60.5
117888	2025-05-08T09:32:56	15.1	62
117889	2025-05-08T09:42:56	15.4	60.5
117890	2025-05-08T09:52:56	15.8	59.5
117891	2025-05-08T10:02:56	16.1	56.5
117892	2025-05-08T10:12:56	16.4	54.5
117893	2025-05-08T10:22:56	16.7	56
117894	2025-05-08T10:32:56	17.5	52.5
117895	2025-05-08T10:42:56	18.1	53
117896	2025-05-08T10:52:56	18.1	52
117897	2025-05-08T11:02:56	18.2	50.5
117898	2025-05-08T11:12:56	18.6	49.5
117899	2025-05-08T11:22:56	18.8	48
117900	2025-05-08T11:32:56	18.9	47.5
117901	2025-05-08T11:42:56	19.4	47
117902	2025-05-08T11:52:56	20.8	45
117903	2025-05-08T12:02:56	21.6	42.5
117904	2025-05-08T12:12:56	24.5	37.5
117905	2025-05-08T12:22:56	24.6	37.5
117906	2025-05-08T12:32:56	27.8	32.5
117907	2025-05-08T12:42:55	28.2	32
117908	2025-05-08T12:52:55	30.6	28.5
117909	2025-05-08T13:02:56	30.3	28
117910	2025-05-08T13:12:55	30.9	27.5
117911	2025-05-08T13:22:55	30.8	26.5
117912	2025-05-08T13:32:55	28	29.5
117913	2025-05-08T13:42:55	25.4	32.5
117914	2025-05-08T13:52:55	26.1	32.5
117915	2025-05-08T14:02:55	26.4	31
117916	2025-05-08T14:12:55	24.8	32.5
117917	2025-05-08T14:22:55	23.2	34.5
117918	2025-05-08T14:32:55	22.4	35.5
117919	2025-05-08T14:42:55	21.5	37.5
117920	2025-05-08T14:52:55	20.2	38.5
117921	2025-05-08T15:02:55	19.1	45.5
117922	2025-05-08T15:12:55	18.6	47.5
117923	2025-05-08T15:22:55	18.2	51.5
117924	2025-05-08T15:32:55	17.8	50.5
117925	2025-05-08T15:42:55	17.6	50.5
117926	2025-05-08T15:52:55	17.3	54.5
117927	2025-05-08T16:02:55	17.1	51.5
117928	2025-05-08T16:12:55	16.9	49
117929	2025-05-08T16:22:55	16.8	49
117930	2025-05-08T16:32:55	16.7	49.5
117931	2025-05-08T16:42:55	16.6	55
117932	2025-05-08T16:52:55	16.5	50
117933	2025-05-08T17:02:55	16.3	51
117934	2025-05-08T17:12:55	16.3	55.5
117935	2025-05-08T17:22:55	16.1	53
117936	2025-05-08T17:32:55	16	53
117937	2025-05-08T17:42:55	16	54.5
117938	2025-05-08T17:52:55	15.8	53
117939	2025-05-08T18:02:55	15.8	53.5
117940	2025-05-08T18:12:55	15.8	55
117941	2025-05-08T18:22:55	15.7	56.5
117942	2025-05-08T18:32:55	15.5	58.5
117943	2025-05-08T18:42:55	15.4	58.5
117944	2025-05-08T18:52:55	15.2	59.5
117945	2025-05-08T19:02:55	15	60.5
117946	2025-05-08T19:12:55	14.8	62
117947	2025-05-08T19:22:55	14.5	63
117948	2025-05-08T20:02:04	14.1	63.5
117949	2025-05-08T20:02:05	14.4	63.5
117950	2025-05-08T20:02:05	14	63.5
117951	2025-05-08T20:02:55	13.7	64.5
117952	2025-05-08T20:12:55	13.6	63
117953	2025-05-08T20:22:55	13.3	63
117954	2025-05-08T20:32:55	13.1	64
117955	2025-05-08T20:43:11	13	65
117956	2025-05-08T20:52:55	12.8	66
117957	2025-05-08T21:02:55	12.6	69
117958	2025-05-08T21:12:55	12.4	70
117959	2025-05-08T21:22:55	12.2	68.5
117960	2025-05-08T21:32:55	12.1	68.5
117961	2025-05-08T21:42:55	11.9	69
117962	2025-05-08T21:52:55	11.8	69.5
117963	2025-05-08T22:02:55	11.6	69.5
117964	2025-05-08T22:12:55	11.6	70.5
117965	2025-05-08T22:22:55	11.4	70.5
117966	2025-05-08T22:32:55	11.3	71
117967	2025-05-08T22:42:55	11.1	71.5
117968	2025-05-08T22:52:55	11	73
117969	2025-05-08T23:02:55	10.7	74
117970	2025-05-08T23:12:55	10.5	74.5
117971	2025-05-08T23:22:55	10.3	75
117972	2025-05-08T23:32:55	10.1	76
117973	2025-05-08T23:42:55	10	76.5
117974	2025-05-08T23:52:55	9.9	77
117975	2025-05-09T00:02:55	9.7	78
117976	2025-05-09T00:12:55	9.5	78.5
117977	2025-05-09T00:22:55	9.5	78.5
117978	2025-05-09T00:32:55	9.3	78.5
117979	2025-05-09T00:42:55	9.2	78
117980	2025-05-09T00:52:55	9.2	78
117981	2025-05-09T01:02:55	9.1	76.5
117982	2025-05-09T01:12:55	9	76.5
117983	2025-05-09T01:22:55	8.8	77
117984	2025-05-09T01:32:54	8.7	77.5
117985	2025-05-09T01:43:11	8.5	78
117986	2025-05-09T01:52:54	8.3	78
117987	2025-05-09T02:02:54	8.2	78
117988	2025-05-09T02:12:54	8.1	79
117989	2025-05-09T02:22:54	7.9	80
117990	2025-05-09T02:32:54	7.8	80.5
117991	2025-05-09T02:42:54	7.7	81.5
117992	2025-05-09T02:52:54	7.7	82
117993	2025-05-09T03:02:54	7.5	82
117994	2025-05-09T03:12:54	7.4	81.5
117995	2025-05-09T03:22:54	7.4	82
117996	2025-05-09T03:32:54	7.4	82
117997	2025-05-09T03:42:54	7.3	81
117998	2025-05-09T03:52:54	7.3	81
117999	2025-05-09T04:02:54	7.4	80
118000	2025-05-09T04:12:54	7.3	80
118001	2025-05-09T04:22:54	7.2	80
118002	2025-05-09T04:32:54	7.3	80.5
118003	2025-05-09T04:42:54	7.3	79.5
118004	2025-05-09T04:52:54	7.4	79
118005	2025-05-09T05:02:54	7.5	78.5
118006	2025-05-09T05:12:54	7.6	79.5
118007	2025-05-09T05:22:54	7.7	80
118008	2025-05-09T05:32:54	7.9	79.5
118009	2025-05-09T05:42:54	8.1	79
118010	2025-05-09T05:52:54	8.4	77
118011	2025-05-09T06:02:54	8.6	74.5
118012	2025-05-09T06:12:54	8.9	74.5
118013	2025-05-09T06:22:54	9.1	74
118014	2025-05-09T06:32:54	9.3	73.5
118015	2025-05-09T06:43:15	9.5	71
118016	2025-05-09T06:52:54	9.8	70
118017	2025-05-09T07:02:54	10	69
118018	2025-05-09T07:12:54	10.2	68.5
118019	2025-05-09T07:22:54	10.5	67
118020	2025-05-09T07:32:54	10.8	66.5
118021	2025-05-09T07:42:54	11.1	65
118022	2025-05-09T07:52:54	11.3	66
118023	2025-05-09T08:02:54	11.4	64
118024	2025-05-09T08:12:54	11.7	60.5
118025	2025-05-09T08:22:54	12.1	59.5
118026	2025-05-09T08:32:54	12.4	57.5
118027	2025-05-09T08:42:54	12.5	58
118028	2025-05-09T08:52:54	12.8	56.5
118029	2025-05-09T09:02:54	13	56
118030	2025-05-09T09:12:54	13.2	53.5
118031	2025-05-09T09:22:54	13.3	54.5
118032	2025-05-09T09:32:54	13.8	52.5
118033	2025-05-09T09:42:54	13.9	53.5
118034	2025-05-09T09:52:54	14.4	49.5
118035	2025-05-09T10:02:54	14.6	48
118036	2025-05-09T10:12:54	14.8	48
118037	2025-05-09T10:22:54	15	47
118038	2025-05-09T10:32:54	15.3	47
118039	2025-05-09T10:42:54	15.7	47
118040	2025-05-09T10:52:54	15.8	45.5
118041	2025-05-09T11:02:54	16.1	45.5
118042	2025-05-09T11:12:54	16.3	43.5
118043	2025-05-09T11:22:54	16.5	42.5
118044	2025-05-09T11:32:54	16.9	42.5
118045	2025-05-09T11:42:54	17.2	43
118046	2025-05-09T11:52:54	17.6	42
118047	2025-05-09T12:02:54	18.2	41
118048	2025-05-09T12:12:54	25.9	29
118049	2025-05-09T12:22:54	29.2	24.5
118050	2025-05-09T12:32:54	30.8	23
118051	2025-05-09T12:42:54	32.8	20.5
118052	2025-05-09T12:52:54	33.3	19
118053	2025-05-09T13:02:54	34.5	19.5
118054	2025-05-09T13:12:54	35.3	18
118055	2025-05-09T13:22:54	35.7	17.5
118056	2025-05-09T13:32:54	36.3	18
118057	2025-05-09T13:42:54	36.7	17
118058	2025-05-09T13:52:54	35.5	17.5
118059	2025-05-09T14:02:54	36.7	17
118060	2025-05-09T14:12:54	37.3	16.5
118061	2025-05-09T14:22:54	36.5	17.5
118062	2025-05-09T14:32:54	37.2	16.5
118063	2025-05-09T14:42:54	37.1	16.5
118064	2025-05-09T14:52:54	36.8	16.5
118065	2025-05-09T15:02:54	36.8	16.5
118066	2025-05-09T15:12:54	36.6	16.5
118067	2025-05-09T15:22:54	36.3	17
118068	2025-05-09T15:32:54	36.6	17
118069	2025-05-09T15:42:54	36.3	17
118070	2025-05-09T15:52:54	35.5	16.5
118071	2025-05-09T16:02:54	35.2	17.5
118072	2025-05-09T16:12:53	35	18
118073	2025-05-09T16:22:53	34.6	17
118074	2025-05-09T16:32:53	33.8	17.5
118075	2025-05-09T16:42:53	33.5	17.5
118076	2025-05-09T16:52:53	33.7	18
118077	2025-05-09T17:02:53	33	18.5
118078	2025-05-09T17:12:53	32.7	18.5
118079	2025-05-09T17:22:53	31.9	18
118080	2025-05-09T17:32:53	31.4	19
118081	2025-05-09T17:42:53	29.9	21
118082	2025-05-09T17:52:53	27.3	22.5
118083	2025-05-09T18:02:53	25.8	25.5
118084	2025-05-09T18:12:53	24.8	27
118085	2025-05-09T18:22:53	23.9	28
118086	2025-05-09T18:32:53	23	30
118087	2025-05-09T18:42:53	22.3	32
118088	2025-05-09T18:52:53	21.6	32.5
118089	2025-05-09T19:02:53	20.8	34.5
118090	2025-05-09T19:12:53	20.2	36
118091	2025-05-09T19:22:53	19.6	36.5
118092	2025-05-09T19:32:53	19.3	38
118093	2025-05-09T19:42:53	18.7	38.5
118094	2025-05-09T19:52:53	18.2	40
118095	2025-05-09T20:02:53	17.8	42
118096	2025-05-09T20:12:53	17.4	43.5
118097	2025-05-09T20:22:53	16.8	45.5
118098	2025-05-09T20:32:53	16.4	47
118099	2025-05-09T20:42:53	15.7	48.5
118100	2025-05-09T20:52:53	15.7	49
118101	2025-05-09T21:02:53	15.3	49
118102	2025-05-09T21:12:53	15	49.5
118103	2025-05-09T21:22:53	14.6	49.5
118104	2025-05-09T21:32:53	14.5	50
118105	2025-05-09T21:42:53	14.2	50.5
118106	2025-05-09T21:52:53	13.7	51
118107	2025-05-09T22:02:53	13.5	52
118108	2025-05-09T22:12:53	13.3	52.5
118109	2025-05-09T22:22:53	12.9	53.5
118110	2025-05-09T22:32:53	12.5	54
118111	2025-05-09T22:42:53	12.2	55
118112	2025-05-09T22:52:53	12.1	54.5
118113	2025-05-09T23:02:53	12.1	53
118114	2025-05-09T23:12:53	12	52.5
118115	2025-05-09T23:22:53	12	53
118116	2025-05-09T23:32:53	11.8	52
118117	2025-05-09T23:42:53	11.6	52
118118	2025-05-09T23:52:53	11.5	53
118119	2025-05-10T00:02:53	11.3	53
118120	2025-05-10T00:12:53	11.3	53
118121	2025-05-10T00:22:53	11.1	54.5
118122	2025-05-10T00:32:53	10.9	57
118123	2025-05-10T00:42:53	10.3	60.5
118124	2025-05-10T00:52:53	10	61.5
118125	2025-05-10T01:02:53	9.8	62.5
118126	2025-05-10T01:12:53	9.5	63.5
118127	2025-05-10T01:22:53	9.3	63
118128	2025-05-10T01:32:53	9.2	63.5
118129	2025-05-10T01:42:53	9.1	64
118130	2025-05-10T01:52:53	8.9	64
118131	2025-05-10T02:02:53	8.8	65
118132	2025-05-10T02:12:53	8.7	66
118133	2025-05-10T02:22:53	8.4	66.5
118134	2025-05-10T02:32:53	8.2	67.5
118135	2025-05-10T02:42:53	8.1	68.5
118136	2025-05-10T02:52:53	7.9	69
118137	2025-05-10T03:02:53	7.7	69
118138	2025-05-10T03:12:53	7.7	69.5
118139	2025-05-10T03:22:53	7.6	70
118140	2025-05-10T03:32:53	7.4	71
118141	2025-05-10T03:42:53	7.3	72
118142	2025-05-10T03:52:53	7.2	72
118143	2025-05-10T04:02:53	7.1	72.5
118144	2025-05-10T04:12:53	7	73
118145	2025-05-10T04:22:53	7.1	73.5
118146	2025-05-10T04:32:53	7	74
118147	2025-05-10T04:42:53	7.1	74
118148	2025-05-10T04:52:53	7.2	74
118149	2025-05-10T05:02:53	7.3	74.5
118150	2025-05-10T05:12:53	7.5	74.5
118151	2025-05-10T05:22:53	7.6	74
118152	2025-05-10T05:32:53	7.8	74.5
118153	2025-05-10T05:42:53	8	73.5
118154	2025-05-10T05:52:53	8.2	73.5
118155	2025-05-10T06:02:53	8.6	74.5
118156	2025-05-10T06:12:52	9	72.5
118157	2025-05-10T06:22:52	9.3	69
118158	2025-05-10T06:32:52	9.6	71.5
118159	2025-05-10T06:42:52	9.9	69
118160	2025-05-10T06:52:52	10.1	69.5
118161	2025-05-10T07:02:52	10.4	68.5
118162	2025-05-10T07:12:52	10.7	69
118163	2025-05-10T07:22:52	11	67
118164	2025-05-10T07:32:52	11.3	66
118165	2025-05-10T07:42:52	11.5	67
118166	2025-05-10T07:52:52	11.9	62
118167	2025-05-10T08:02:52	12.1	61.5
118168	2025-05-10T08:12:52	12.5	61.5
118169	2025-05-10T08:22:52	12.9	58
118170	2025-05-10T08:32:52	13.2	59.5
118171	2025-05-10T08:42:52	13.6	58
118172	2025-05-10T08:52:52	13.7	55
118173	2025-05-10T09:02:52	14	55.5
118174	2025-05-10T09:12:52	14.3	51.5
118175	2025-05-10T09:22:52	14.5	51.5
118176	2025-05-10T09:32:52	14.8	50
118177	2025-05-10T09:42:52	15	49
118178	2025-05-10T09:52:52	15.2	49.5
118179	2025-05-10T10:02:52	15.4	48
118180	2025-05-10T10:12:52	15.7	49.5
118181	2025-05-10T10:22:52	16	49.5
118182	2025-05-10T10:32:52	16.1	45.5
118183	2025-05-10T10:42:52	16.4	45.5
118184	2025-05-10T10:52:52	16.6	45
118185	2025-05-10T11:02:52	17	45
118186	2025-05-10T11:12:52	17.2	44.5
118187	2025-05-10T11:22:52	17.4	43
118188	2025-05-10T11:32:52	17.7	42.5
118189	2025-05-10T11:42:52	18	41
118190	2025-05-10T11:52:52	18.4	41.5
118191	2025-05-10T12:02:52	19.1	40
118192	2025-05-10T12:12:52	26.8	29
118193	2025-05-10T12:22:52	30.5	25
118194	2025-05-10T12:32:52	32.7	22.5
118195	2025-05-10T12:42:52	34	20.5
118196	2025-05-10T12:52:52	34.7	20
118197	2025-05-10T13:02:52	35.4	19
118198	2025-05-10T13:12:52	35.4	18.5
118199	2025-05-10T13:22:52	36.4	18.5
118200	2025-05-10T13:32:52	37.2	18
118201	2025-05-10T13:42:52	38	17
118202	2025-05-10T13:52:52	38.5	17
118203	2025-05-10T14:02:52	38.4	17
118204	2025-05-10T14:12:52	38.5	16
118205	2025-05-10T14:22:52	38.5	16
118206	2025-05-10T14:32:52	38.4	16.5
118207	2025-05-10T14:42:52	39.4	16
118208	2025-05-10T14:52:52	39.6	16
118209	2025-05-10T15:02:52	38.6	16.5
118210	2025-05-10T15:12:52	39	16
118211	2025-05-10T15:22:52	39	15.5
118212	2025-05-10T15:32:52	38.1	15.5
118213	2025-05-10T15:42:52	37.4	16.5
118214	2025-05-10T15:52:52	38.1	16.5
118215	2025-05-10T16:02:52	37.6	16
118216	2025-05-10T16:12:52	37.5	16.5
118217	2025-05-10T16:22:52	37.7	16.5
118218	2025-05-10T16:32:52	37.3	17
118219	2025-05-10T16:42:52	37	17
118220	2025-05-10T16:52:52	36.4	17.5
118221	2025-05-10T17:02:52	36.1	18.5
118222	2025-05-10T17:12:52	35.2	18
118223	2025-05-10T17:22:52	34.1	18.5
118224	2025-05-10T17:32:52	33.6	19
118225	2025-05-10T17:42:52	33	22
118226	2025-05-10T17:52:52	30	24
118227	2025-05-10T18:02:52	28.3	26.5
118228	2025-05-10T18:12:52	27.3	28
118229	2025-05-10T18:22:52	26.3	28.5
118230	2025-05-10T18:32:51	25.3	30.5
118231	2025-05-10T18:42:51	23.9	31.5
118232	2025-05-10T18:52:51	23.5	32.5
118233	2025-05-10T19:02:51	22.9	32.5
118234	2025-05-10T19:12:51	22.4	33.5
118235	2025-05-10T19:22:51	21.7	34
118236	2025-05-10T19:32:51	21.2	35
118237	2025-05-10T19:42:51	20.7	35.5
118238	2025-05-10T19:52:52	20.3	36
118239	2025-05-10T20:02:51	19.9	37
118240	2025-05-10T20:12:51	19.6	38
118241	2025-05-10T20:22:51	19.2	42
118242	2025-05-10T20:32:51	18.6	43.5
118243	2025-05-10T20:42:51	18.1	45
118244	2025-05-10T20:52:51	17.6	46
118245	2025-05-10T21:02:51	17	47.5
118246	2025-05-10T21:12:51	16.6	49
118247	2025-05-10T21:22:51	16.3	49.5
118248	2025-05-10T21:32:51	15.9	50.5
118249	2025-05-10T21:52:51	15.5	48
118250	2025-05-10T22:12:51	15.5	45
118251	2025-05-10T22:22:51	15.2	46
118252	2025-05-10T22:32:51	15	47.5
118253	2025-05-10T22:42:51	14.8	46.5
118254	2025-05-10T22:52:51	14.7	45.5
118255	2025-05-10T23:02:51	14.7	44.5
118256	2025-05-10T23:12:51	14.5	44.5
118257	2025-05-10T23:22:51	14.4	44
118258	2025-05-10T23:32:51	14.3	43.5
118259	2025-05-10T23:42:51	14.2	44
118260	2025-05-10T23:52:51	13.8	50.5
118261	2025-05-11T00:02:51	13	53.5
118262	2025-05-11T00:12:51	12.6	55
118263	2025-05-11T00:22:51	12.4	55.5
118264	2025-05-11T00:32:51	12.1	56
118265	2025-05-11T00:42:51	11.9	56.5
118266	2025-05-11T00:52:51	11.8	57
118267	2025-05-11T01:02:51	11.6	57.5
118268	2025-05-11T01:12:51	11.5	58
118269	2025-05-11T01:22:51	11.3	58.5
118270	2025-05-11T01:32:51	11	60
118271	2025-05-11T01:42:51	10.9	60
118272	2025-05-11T01:52:51	10.7	61
118273	2025-05-11T02:02:51	10.5	63.5
118274	2025-05-11T02:12:51	10.2	65.5
118275	2025-05-11T02:22:51	9.9	66.5
118276	2025-05-11T02:32:51	9.8	67
118277	2025-05-11T02:42:51	9.7	65
118278	2025-05-11T02:52:51	9.6	65.5
118279	2025-05-11T03:02:51	9.4	66
118280	2025-05-11T03:12:51	9.5	66.5
118281	2025-05-11T03:22:51	9.1	69.5
118282	2025-05-11T03:32:51	8.6	71
118283	2025-05-11T03:42:51	8.6	71.5
118284	2025-05-11T03:52:51	8.5	72
118285	2025-05-11T04:02:51	8.4	71.5
118286	2025-05-11T04:12:51	8.4	72.5
118287	2025-05-11T04:32:51	8.2	73
118288	2025-05-11T04:42:51	8.4	73
118289	2025-05-11T04:52:51	8.5	73
118290	2025-05-11T05:02:51	8.6	73
118291	2025-05-11T05:12:51	8.8	73
118292	2025-05-11T05:22:51	9	73
118293	2025-05-11T05:32:51	9.3	71
118294	2025-05-11T05:42:51	9.6	70
118295	2025-05-11T05:52:51	9.9	69.5
118296	2025-05-11T06:02:51	10.3	68.5
118297	2025-05-11T06:12:51	10.5	69
118298	2025-05-11T06:22:51	10.9	68
118299	2025-05-11T06:32:51	11.1	67
118300	2025-05-11T06:42:51	11.5	67.5
118301	2025-05-11T06:52:51	11.8	68
118302	2025-05-11T07:02:51	12.2	67
118303	2025-05-11T07:12:51	12.6	64.5
118304	2025-05-11T07:22:51	13.1	63.5
118305	2025-05-11T07:32:51	13.4	60.5
118306	2025-05-11T07:42:51	13.8	57.5
118307	2025-05-11T07:52:51	14.4	55.5
118308	2025-05-11T08:02:51	14.5	54
118309	2025-05-11T08:12:51	14.9	53
118310	2025-05-11T08:22:50	15.3	50
118311	2025-05-11T08:32:50	15.5	47.5
118312	2025-05-11T08:42:50	16.1	46
118313	2025-05-11T08:52:50	16.3	44
118314	2025-05-11T09:02:50	16.6	43.5
118315	2025-05-11T09:12:50	16.9	44
118316	2025-05-11T09:22:50	17	42.5
118317	2025-05-11T09:32:50	17.7	43
118318	2025-05-11T09:42:50	17.7	42.5
118319	2025-05-11T09:52:50	18.1	42
118320	2025-05-11T10:02:50	18.5	39.5
118321	2025-05-11T10:12:50	18.6	37.5
118322	2025-05-11T10:22:50	18.9	36
118323	2025-05-11T10:32:50	19.3	36.5
118324	2025-05-11T10:42:50	19.5	36
118325	2025-05-11T10:52:50	20	36.5
118326	2025-05-11T11:02:50	20.1	35.5
118327	2025-05-11T11:12:50	20.3	34.5
118328	2025-05-11T11:22:52	20.8	35
118329	2025-05-11T11:32:50	20.9	33.5
118330	2025-05-11T11:42:50	21.2	34.5
118331	2025-05-11T11:52:50	21.6	35.5
118332	2025-05-11T12:02:50	22.3	36
118333	2025-05-11T12:12:50	30.5	27
118334	2025-05-11T12:22:50	33.5	24
118335	2025-05-11T12:32:50	35.5	21
118336	2025-05-11T12:42:50	36.1	20
118337	2025-05-11T12:52:50	37.5	19
118338	2025-05-11T13:02:50	38.9	18.5
118339	2025-05-11T13:12:50	39	18
118340	2025-05-11T13:22:50	39.5	18.5
118341	2025-05-11T13:32:50	40.6	16.5
118342	2025-05-11T13:42:50	41.2	16.5
118343	2025-05-11T13:52:50	41.2	16
118344	2025-05-11T14:02:50	42.3	16
118345	2025-05-11T14:12:50	42.3	16.5
118346	2025-05-11T14:22:50	42.9	15.5
118347	2025-05-11T14:32:50	43	15.5
118348	2025-05-11T14:42:50	43.2	15.5
118349	2025-05-11T14:53:08	42.6	15.5
118350	2025-05-11T15:02:50	42.4	15.5
118351	2025-05-11T15:12:50	42.1	16
118352	2025-05-11T15:22:50	41.5	16
118353	2025-05-11T15:32:50	41.3	16.5
118354	2025-05-11T15:42:50	41.5	16.5
118355	2025-05-11T15:52:50	41.7	16.5
118356	2025-05-11T16:02:50	41.4	16.5
118357	2025-05-11T16:12:50	40.9	16.5
118358	2025-05-11T16:22:50	40.4	17
118359	2025-05-11T16:32:50	39.6	17
118360	2025-05-11T16:42:50	39.4	17
118361	2025-05-11T16:52:50	39.1	18
118362	2025-05-11T17:02:50	38.6	17.5
118363	2025-05-11T17:12:50	38	18
118364	2025-05-11T17:22:50	37.3	18.5
118365	2025-05-11T17:32:50	36.8	19
118366	2025-05-11T17:42:50	36.1	20
118367	2025-05-11T17:52:50	33.3	24
118368	2025-05-11T18:02:50	31.6	25.5
118369	2025-05-11T18:12:50	30.1	27
118370	2025-05-11T18:22:50	29.8	28.5
118371	2025-05-11T18:32:50	28.9	29.5
118372	2025-05-11T18:42:50	27.8	31
118373	2025-05-11T18:52:50	26.9	32.5
118374	2025-05-11T19:02:50	26.2	33.5
118375	2025-05-11T19:12:50	25.5	34.5
118376	2025-05-11T19:22:50	25	35
118377	2025-05-11T19:32:50	24.4	35.5
118378	2025-05-11T19:42:50	24	36
118379	2025-05-11T19:52:50	23.6	37
118380	2025-05-11T20:02:50	23.1	38
118381	2025-05-11T20:12:49	22.5	39
118382	2025-05-11T20:22:49	22.3	39.5
118383	2025-05-11T20:32:49	21.6	42.5
118384	2025-05-11T20:42:49	21.1	43
118385	2025-05-11T20:52:49	21	41
118386	2025-05-11T21:02:49	20.8	40
118387	2025-05-11T21:12:49	20.5	40.5
118388	2025-05-11T21:22:49	20.4	40.5
118389	2025-05-11T21:32:49	20.1	40.5
118390	2025-05-11T21:42:49	19.9	40.5
118391	2025-05-11T21:52:49	19.7	41
118392	2025-05-11T22:02:49	19.4	41.5
118393	2025-05-11T22:12:49	19.1	41.5
118394	2025-05-11T22:22:49	18.9	41.5
118395	2025-05-11T22:32:49	18.7	41.5
118396	2025-05-11T22:42:49	18.6	41.5
118397	2025-05-11T22:52:49	18.4	41.5
118398	2025-05-11T23:02:49	18.2	42
118399	2025-05-11T23:12:49	18.1	42.5
118400	2025-05-11T23:22:49	17.8	42.5
118401	2025-05-11T23:32:49	17.6	43.5
118402	2025-05-11T23:42:49	17.3	44
118403	2025-05-11T23:52:49	17.1	44
118404	2025-05-12T00:02:49	17.1	44.5
118405	2025-05-12T00:12:49	16.9	44.5
118406	2025-05-12T00:22:49	16.7	45
118407	2025-05-12T00:32:49	16.6	46
118408	2025-05-12T00:42:49	16.3	46
118409	2025-05-12T00:52:49	16.2	46
118410	2025-05-12T01:02:49	16	46.5
118411	2025-05-12T01:12:49	15.9	46.5
118412	2025-05-12T01:22:49	15.7	47
118413	2025-05-12T01:32:49	15.3	52
118414	2025-05-12T01:42:49	14.9	53
118415	2025-05-12T01:52:49	14.5	54
118416	2025-05-12T02:02:49	14.1	55.5
118417	2025-05-12T02:12:49	13.7	57.5
118418	2025-05-12T02:22:49	13.5	59.5
118419	2025-05-12T02:32:49	13.4	59.5
118420	2025-05-12T02:42:49	13.1	61
118421	2025-05-12T02:52:49	12.9	62.5
118422	2025-05-12T03:02:49	12.7	63
118423	2025-05-12T03:12:49	12.5	63
118424	2025-05-12T03:22:49	12.3	63.5
118425	2025-05-12T03:32:49	11.8	65.5
118426	2025-05-12T03:42:49	11.1	68.5
118427	2025-05-12T03:52:49	11.5	68
118428	2025-05-12T04:02:49	11.4	68
118429	2025-05-12T04:12:49	11.4	69
118430	2025-05-12T04:22:49	11.4	68.5
118431	2025-05-12T04:32:49	11.5	69
118432	2025-05-12T04:42:49	11.4	69
118433	2025-05-12T04:52:49	11.4	72
118434	2025-05-12T05:02:49	11.5	72
118435	2025-05-12T05:12:49	11.5	71
118436	2025-05-12T05:22:49	11.7	70.5
118437	2025-05-12T05:32:49	11.9	69.5
118438	2025-05-12T05:42:49	12	70
118439	2025-05-12T05:52:49	12.3	69
118440	2025-05-12T06:02:49	12.5	70
118441	2025-05-12T06:12:49	12.7	66.5
118442	2025-05-12T06:22:49	12.8	68.5
118443	2025-05-12T06:32:49	13	67.5
118444	2025-05-12T06:42:49	13.2	67.5
118445	2025-05-12T06:52:49	13.4	65
118446	2025-05-12T07:02:49	13.5	65
118447	2025-05-12T07:12:49	13.9	64
118448	2025-05-12T07:22:49	14.4	64.5
118449	2025-05-12T07:32:49	14.5	63.5
118450	2025-05-12T07:42:49	14.6	63
118451	2025-05-12T07:52:49	14.9	61
118452	2025-05-12T08:02:48	15.2	59.5
118453	2025-05-12T08:12:48	15.5	58
118454	2025-05-12T08:22:48	15.7	59
118455	2025-05-12T08:32:48	16.1	57.5
118456	2025-05-12T08:42:48	16.3	56.5
118457	2025-05-12T08:52:48	16.7	56
118458	2025-05-12T09:02:48	16.8	55.5
118459	2025-05-12T09:12:48	17.2	56
118460	2025-05-12T09:22:48	17.7	55.5
118461	2025-05-12T09:32:48	17.9	55.5
118462	2025-05-12T09:42:48	18.3	54.5
118463	2025-05-12T09:52:48	18.4	53.5
118464	2025-05-12T10:02:48	18.7	52.5
118465	2025-05-12T10:12:48	19.1	52
118466	2025-05-12T10:22:48	19.3	50
118467	2025-05-12T10:32:48	19.7	49
118468	2025-05-12T10:42:48	19.7	48.5
118469	2025-05-12T10:52:48	20	48.5
118470	2025-05-12T11:02:48	20.6	45
118471	2025-05-12T11:12:48	20.6	44.5
118472	2025-05-12T11:22:48	21.1	44.5
118473	2025-05-12T11:32:48	21.4	44
118474	2025-05-12T11:42:48	21.8	41
118475	2025-05-12T11:52:48	22.2	40.5
118476	2025-05-12T12:02:48	22.8	40.5
118477	2025-05-12T12:12:48	30.6	29
118478	2025-05-12T12:22:48	33.8	24.5
118479	2025-05-12T12:32:48	36.1	22.5
118480	2025-05-12T12:42:48	37.6	21.5
118481	2025-05-12T12:52:48	38.5	20.5
118482	2025-05-12T13:02:48	38.6	20
118483	2025-05-12T13:12:48	39.7	19.5
118484	2025-05-12T13:22:48	40.9	18.5
118485	2025-05-12T13:32:48	40.9	19
118486	2025-05-12T13:42:48	41.6	18
118487	2025-05-12T13:52:48	40.9	18.5
118488	2025-05-12T14:02:48	41.7	18.5
118489	2025-05-12T14:12:48	41.7	17.5
118490	2025-05-12T14:22:48	40.6	18.5
118491	2025-05-12T14:32:48	40.4	18
118492	2025-05-12T14:42:48	41.5	18
118493	2025-05-12T14:52:48	40.5	18
118494	2025-05-12T15:02:48	41.2	17.5
118495	2025-05-12T15:12:48	40.5	19
118496	2025-05-12T15:22:48	40.4	18
118497	2025-05-12T15:32:48	39.9	17.5
118498	2025-05-12T15:42:48	40.3	18
118499	2025-05-12T15:52:48	40.3	18.5
118500	2025-05-12T16:02:48	40	17.5
118501	2025-05-12T16:12:48	39.7	18
118502	2025-05-12T16:22:48	39.1	19
118503	2025-05-12T16:32:48	38.7	19
118504	2025-05-12T16:42:48	38.1	19
118505	2025-05-12T16:52:48	36.4	19.5
118506	2025-05-12T17:02:48	35.7	21
118507	2025-05-12T17:12:48	34.9	21
118508	2025-05-12T17:22:48	34.9	21
118509	2025-05-12T17:32:48	34.7	21.5
118510	2025-05-12T17:42:48	33.3	22.5
118511	2025-05-12T17:52:48	30.6	25.5
118512	2025-05-12T18:02:48	28.9	27.5
118513	2025-05-12T18:12:48	28.1	29
118514	2025-05-12T18:22:48	28.2	29.5
118515	2025-05-12T18:32:48	27.4	30.5
118516	2025-05-12T18:42:48	26.1	33
118517	2025-05-12T18:52:48	25.2	34
118518	2025-05-12T19:02:48	24.5	35
118519	2025-05-12T19:12:48	23.9	36.5
118520	2025-05-12T19:22:47	23.3	38.5
118521	2025-05-12T19:32:47	22.7	40
118522	2025-05-12T19:42:47	22.3	41
118523	2025-05-12T19:52:47	21.7	41.5
118524	2025-05-12T20:02:47	21.3	43
118525	2025-05-12T20:12:47	20.8	44.5
118526	2025-05-12T20:22:47	20.3	45.5
118527	2025-05-12T20:32:47	19.8	46.5
118528	2025-05-12T20:42:47	19.3	47.5
118529	2025-05-12T20:52:47	18.9	48.5
118530	2025-05-12T21:02:47	18.6	48.5
118531	2025-05-12T21:12:47	18.4	49
118532	2025-05-12T21:22:47	18.2	50.5
118533	2025-05-12T21:32:47	17.9	51.5
118534	2025-05-12T21:42:47	17.8	52.5
118535	2025-05-12T21:52:47	17.7	53
118536	2025-05-12T22:02:47	17.3	54
118537	2025-05-12T22:12:47	16.9	56
118538	2025-05-12T22:22:47	16.5	57
118539	2025-05-12T22:32:47	16.2	57.5
118540	2025-05-12T22:42:47	15.3	60
118541	2025-05-12T22:52:47	15.7	58
118542	2025-05-12T23:02:47	15.8	59
118543	2025-05-12T23:12:47	15.5	60.5
118544	2025-05-12T23:22:47	15.4	61
118545	2025-05-12T23:32:47	15.1	62
118546	2025-05-12T23:42:47	14.8	62.5
118547	2025-05-12T23:52:47	14.5	63.5
118548	2025-05-13T00:02:47	14.3	64
118549	2025-05-13T00:12:47	13.9	65.5
118550	2025-05-13T00:22:47	13.8	66
118551	2025-05-13T00:32:47	13.6	68
118552	2025-05-13T00:42:47	13.2	70.5
118553	2025-05-13T00:52:47	12.7	79
118554	2025-05-13T01:02:47	13	79.5
118555	2025-05-13T01:12:47	12.7	83
118556	2025-05-13T01:22:47	12.8	80.5
118557	2025-05-13T01:32:47	12.7	79.5
118558	2025-05-13T01:42:47	12.5	80
118559	2025-05-13T01:52:47	12.4	81
118560	2025-05-13T02:02:47	12.2	81.5
118561	2025-05-13T02:12:47	12.2	81.5
118562	2025-05-13T02:22:47	11.9	82
118563	2025-05-13T02:32:47	11.8	82.5
118564	2025-05-13T02:42:47	11.5	82.5
118565	2025-05-13T02:52:47	11.5	82.5
118566	2025-05-13T03:02:47	11.4	83
118567	2025-05-13T03:12:47	11.2	83.5
118568	2025-05-13T03:22:47	11.1	83.5
118569	2025-05-13T03:33:07	10.9	84.5
118570	2025-05-13T03:42:47	10.8	84
118571	2025-05-13T03:52:47	10.7	83.5
118572	2025-05-13T04:02:47	10.8	84
118573	2025-05-13T04:12:47	11.2	83.5
118574	2025-05-13T04:22:47	11.5	82.5
118575	2025-05-13T04:32:47	11.8	82
118576	2025-05-13T04:42:47	12.1	82
118577	2025-05-13T04:52:47	12.4	82
118578	2025-05-13T05:02:47	12.6	81
118579	2025-05-13T05:12:47	12.9	80
118580	2025-05-13T05:22:47	13.2	79
118581	2025-05-13T05:32:47	13.5	78.5
118582	2025-05-13T05:42:47	13.8	77
118583	2025-05-13T05:52:47	14	76.5
118584	2025-05-13T06:02:47	14.1	76
118585	2025-05-13T06:12:47	14.4	75
118586	2025-05-13T06:22:47	14.7	73.5
118587	2025-05-13T06:32:47	15	74
118588	2025-05-13T06:42:47	15.4	75
118589	2025-05-13T06:52:47	15.1	75.5
118590	2025-05-13T07:02:47	15.1	77.5
118591	2025-05-13T07:12:47	15.1	77.5
118592	2025-05-13T07:22:47	15.1	77
118593	2025-05-13T07:32:47	15.3	78.5
118594	2025-05-13T07:42:47	15.2	78
118595	2025-05-13T07:52:47	15.4	78
118596	2025-05-13T08:02:47	15.4	78
118597	2025-05-13T08:12:47	15.5	78
118598	2025-05-13T08:22:46	15.8	77.5
118599	2025-05-13T08:32:46	16	76
118600	2025-05-13T08:42:46	16.2	75.5
118601	2025-05-13T08:52:46	16.3	74.5
118602	2025-05-13T09:02:46	16.6	74
118603	2025-05-13T09:12:46	16.8	73.5
118604	2025-05-13T09:22:46	17.1	72.5
118605	2025-05-13T09:32:46	17.2	73.5
118606	2025-05-13T09:42:46	17.6	71
118607	2025-05-13T09:52:46	17.9	70.5
118608	2025-05-13T10:02:46	18.1	70.5
118609	2025-05-13T10:12:46	18.4	68.5
118610	2025-05-13T10:22:46	18.7	69
118611	2025-05-13T10:32:46	19.1	66.5
118612	2025-05-13T10:42:46	19.3	63
118613	2025-05-13T10:52:46	19.6	59.5
118614	2025-05-13T11:02:46	19.9	57
118615	2025-05-13T11:12:46	20.3	54.5
118616	2025-05-13T11:22:46	20.8	53
118617	2025-05-13T11:32:46	21.2	46.5
118618	2025-05-13T11:42:46	21.6	47.5
118619	2025-05-13T11:52:46	21.9	44.5
118620	2025-05-13T12:02:46	22.4	42
118621	2025-05-13T12:12:46	28.8	34
118622	2025-05-13T12:22:46	32.2	27.5
118623	2025-05-13T12:32:46	35.1	23.5
118624	2025-05-13T12:42:46	36.9	22
118625	2025-05-13T12:52:46	33.4	24
118626	2025-05-13T13:02:46	36.1	22.5
118627	2025-05-13T13:12:46	37.2	21
118628	2025-05-13T13:22:46	37.7	21
118629	2025-05-13T13:32:46	39.3	19
118630	2025-05-13T13:42:46	39.9	18.5
118631	2025-05-13T13:52:46	40.9	17.5
118632	2025-05-13T14:02:46	40.7	18
118633	2025-05-13T14:12:46	39.3	17.5
118634	2025-05-13T14:22:46	40.1	17.5
118635	2025-05-13T14:32:46	40.6	18
118636	2025-05-13T14:42:46	41.4	17.5
118637	2025-05-13T14:52:46	41.5	17
118638	2025-05-13T15:02:46	41.8	17
118639	2025-05-13T15:12:46	41.4	16
118640	2025-05-13T15:22:46	40.3	17
118641	2025-05-13T15:32:46	40.3	18
118642	2025-05-13T15:42:46	41	17
118643	2025-05-13T15:52:46	40.7	17.5
118644	2025-05-13T16:02:46	40.8	17.5
118645	2025-05-13T16:12:46	39.7	17
118646	2025-05-13T16:22:46	39.6	17.5
118647	2025-05-13T16:32:46	39.5	17.5
118648	2025-05-13T16:42:46	38.1	18
118649	2025-05-13T16:52:46	38.1	18
118650	2025-05-13T17:02:46	37.1	18.5
118651	2025-05-13T17:12:46	36.5	18.5
118652	2025-05-13T17:22:46	35.8	18.5
118653	2025-05-13T17:32:46	34.9	19.5
118654	2025-05-13T17:42:46	34.1	20.5
118655	2025-05-13T17:52:46	31.3	22
118656	2025-05-13T18:02:46	29.7	24
118657	2025-05-13T18:12:46	29.2	25.5
118658	2025-05-13T18:22:46	29.3	26.5
118659	2025-05-13T18:32:46	28.3	28
118660	2025-05-13T18:42:46	26.9	30
118661	2025-05-13T18:52:46	25.9	31.5
118662	2025-05-13T19:02:46	25	32
118663	2025-05-13T19:12:46	24.2	34
118664	2025-05-13T19:22:45	23.6	34
118665	2025-05-13T19:32:45	23	34.5
118666	2025-05-13T19:42:45	22.6	35.5
118667	2025-05-13T19:52:45	22.1	36
118668	2025-05-13T20:02:45	21.8	36
118669	2025-05-13T20:12:45	21.2	37
118670	2025-05-13T20:22:45	21	37.5
118671	2025-05-13T20:32:45	20.6	38.5
118672	2025-05-13T20:42:45	20.1	39.5
118673	2025-05-13T20:52:45	19.9	40
118674	2025-05-13T21:02:45	19.6	41
118675	2025-05-13T21:12:45	19.1	41.5
118676	2025-05-13T21:22:45	18.9	41
118677	2025-05-13T21:32:45	18.8	42
118678	2025-05-13T21:42:45	18.4	42
118679	2025-05-13T21:52:45	18.2	42.5
118680	2025-05-13T22:02:45	18	42.5
118681	2025-05-13T22:12:45	17.8	43
118682	2025-05-13T22:22:45	17.5	43.5
118683	2025-05-13T22:32:45	17.3	43.5
118684	2025-05-13T22:42:45	17.2	45
118685	2025-05-13T22:52:45	16.7	49
118686	2025-05-13T23:02:45	16.3	51
118687	2025-05-13T23:12:45	15.9	52
118688	2025-05-13T23:22:45	15.6	52.5
118689	2025-05-13T23:32:45	15.4	53.5
118690	2025-05-13T23:42:45	15.1	54
118691	2025-05-13T23:52:45	14.7	54.5
118692	2025-05-14T00:02:45	14.5	55.5
118693	2025-05-14T00:12:45	14.3	55.5
118694	2025-05-14T00:22:45	14.2	56
118695	2025-05-14T00:32:45	14	57.5
118696	2025-05-14T00:42:45	13.6	58
118697	2025-05-14T00:52:45	13.4	59.5
118698	2025-05-14T01:02:45	13.3	58.5
118699	2025-05-14T01:12:45	13	59.5
118700	2025-05-14T01:22:45	12.8	61
118701	2025-05-14T01:32:45	12.6	61.5
118702	2025-05-14T01:42:45	12.4	62.5
118703	2025-05-14T01:52:45	12.2	63.5
118704	2025-05-14T02:02:45	12	65
118705	2025-05-14T02:12:45	11.7	65.5
118706	2025-05-14T02:22:45	11.5	66
118707	2025-05-14T02:32:45	11.2	68
118708	2025-05-14T02:42:45	11	68.5
118709	2025-05-14T02:52:45	10.8	69.5
118710	2025-05-14T03:02:45	10.8	70.5
118711	2025-05-14T03:12:45	10.5	70.5
118712	2025-05-14T03:22:45	10.3	71.5
118713	2025-05-14T03:32:45	10.1	72
118714	2025-05-14T03:42:45	10	72.5
118715	2025-05-14T04:02:45	9.9	72.5
118716	2025-05-14T04:12:45	9.7	72.5
118717	2025-05-14T04:22:45	9.7	74
118718	2025-05-14T04:32:45	9.7	74
118719	2025-05-14T04:42:45	9.8	73.5
118720	2025-05-14T04:52:45	9.9	74.5
118721	2025-05-14T05:02:45	9.9	74
118722	2025-05-14T05:12:45	10.2	73.5
118723	2025-05-14T05:22:45	10.3	74
118724	2025-05-14T05:42:45	10.7	74
118725	2025-05-14T05:52:45	10.9	72
118726	2025-05-14T06:02:45	11.2	72
118727	2025-05-14T06:12:45	11.3	72
118728	2025-05-14T06:22:45	11.4	70
118729	2025-05-14T06:32:45	11.7	69
118730	2025-05-14T06:42:45	12.1	69
118731	2025-05-14T06:52:45	12.4	69
118732	2025-05-14T07:02:45	12.5	69.5
118733	2025-05-14T07:12:45	13	67.5
118734	2025-05-14T07:22:45	13.1	66.5
118735	2025-05-14T07:32:45	13.4	68
118736	2025-05-14T07:42:45	13.6	66.5
118737	2025-05-14T07:52:45	13.9	67
118738	2025-05-14T08:02:45	14.1	66.5
118739	2025-05-14T08:12:45	14.6	64.5
118740	2025-05-14T08:22:45	14.9	63.5
118741	2025-05-14T08:32:45	15.3	62
118742	2025-05-14T08:42:44	15.4	62
118743	2025-05-14T08:52:44	15.8	60
118744	2025-05-14T09:02:44	16.1	58
118745	2025-05-14T09:12:44	16.6	57
118746	2025-05-14T09:22:44	16.8	55.5
118747	2025-05-14T09:32:44	17.2	56.5
118748	2025-05-14T09:42:44	17.5	54
118749	2025-05-14T09:52:44	17.9	51.5
118750	2025-05-14T10:02:44	18.1	51
118751	2025-05-14T10:12:44	18.5	50.5
118752	2025-05-14T10:22:44	18.9	44
118753	2025-05-14T10:32:44	19.4	45
118754	2025-05-14T10:42:44	19.6	40.5
118755	2025-05-14T10:52:44	19.8	40.5
118756	2025-05-14T11:02:44	20.2	41
118757	2025-05-14T11:12:44	20.6	39
118758	2025-05-14T11:22:44	20.9	38.5
118759	2025-05-14T11:32:44	21	37
118760	2025-05-14T11:42:44	21.5	36.5
118761	2025-05-14T12:02:44	22.5	35
118762	2025-05-14T12:12:44	30.8	27
118763	2025-05-14T12:22:44	33.4	21.5
118764	2025-05-14T12:42:44	34.9	20.5
118765	2025-05-14T12:52:44	36.8	19.5
118766	2025-05-14T13:02:44	38.4	18.5
118767	2025-05-14T13:12:44	39.2	18.5
118768	2025-05-14T13:22:44	39	18.5
118769	2025-05-14T13:32:44	36.3	19.5
118770	2025-05-14T13:42:44	38.7	18.5
118771	2025-05-14T13:52:44	40.4	17.5
118772	2025-05-14T14:02:44	38.3	18
118773	2025-05-14T14:12:44	38.8	18.5
118774	2025-05-14T14:22:44	38.8	17
118775	2025-05-14T14:32:44	38	18.5
118776	2025-05-14T14:42:44	37	17.5
118777	2025-05-14T14:52:44	39	18
118778	2025-05-14T15:02:44	39	19
118779	2025-05-14T15:12:44	37.8	17.5
118780	2025-05-14T15:22:44	38.8	18.5
118781	2025-05-14T15:32:44	38.9	16.5
118782	2025-05-14T15:42:44	37.6	17
118783	2025-05-14T15:52:44	34.9	18
118784	2025-05-14T16:02:44	38.5	17.5
118785	2025-05-14T16:12:44	39.5	17
118786	2025-05-14T16:22:44	39.5	16.5
118787	2025-05-14T16:32:44	39.6	16.5
118788	2025-05-14T16:42:44	39.7	16.5
118789	2025-05-14T16:52:44	37.2	18
118790	2025-05-14T17:02:44	36	18.5
118791	2025-05-14T17:12:44	35.7	18.5
118792	2025-05-14T17:22:44	35.5	22.5
118793	2025-05-14T17:32:44	35.6	22
118794	2025-05-14T17:42:44	34.6	21
118795	2025-05-14T17:52:44	31.7	22.5
118796	2025-05-14T18:02:44	29.1	25
118797	2025-05-14T18:12:44	30.4	28.5
118798	2025-05-14T18:22:44	30.7	31.5
118799	2025-05-14T18:32:44	29.3	32.5
118800	2025-05-14T18:42:44	28.1	35
118801	2025-05-14T18:52:44	27.1	37
118802	2025-05-14T19:02:44	26.3	39
118803	2025-05-14T19:12:44	25.3	37.5
118804	2025-05-14T19:22:44	24.7	37.5
118805	2025-05-14T19:32:44	24	42
118806	2025-05-14T19:42:44	23.4	44
118807	2025-05-14T19:52:44	22.8	45
118808	2025-05-14T20:02:44	22.2	45.5
118809	2025-05-14T20:13:17	21.8	45
118810	2025-05-14T20:44:25	20.7	46
118811	2025-05-14T20:44:26	20.3	47.5
118812	2025-05-14T20:44:26	21.3	45.5
118813	2025-05-14T20:52:43	20	48
118814	2025-05-14T21:02:43	19.7	48
118815	2025-05-14T21:12:43	19.3	50.5
118816	2025-05-14T21:22:43	18.9	50
118817	2025-05-14T21:32:43	18.6	51.5
118818	2025-05-14T21:42:43	18.1	52
118819	2025-05-14T21:52:43	17.8	53
118820	2025-05-14T22:02:43	17.6	53
118821	2025-05-14T22:12:43	17.5	54.5
118822	2025-05-14T22:22:43	17	56.5
118823	2025-05-14T22:32:43	16.6	56
118824	2025-05-14T22:42:43	16.1	59
118825	2025-05-14T22:52:43	16	59
118826	2025-05-14T23:02:43	15.8	60.5
118827	2025-05-14T23:12:43	15.6	61
118828	2025-05-14T23:22:43	15.4	62
118829	2025-05-14T23:32:43	15.1	62.5
118830	2025-05-14T23:42:43	14.9	63
118831	2025-05-15T00:02:43	14.3	64
118832	2025-05-15T00:12:43	14.2	64.5
118833	2025-05-15T00:22:43	14	65.5
118834	2025-05-15T00:32:43	13.7	65.5
118835	2025-05-15T00:42:43	13.7	67
118836	2025-05-15T00:52:43	13.5	67.5
118837	2025-05-15T01:02:43	13.2	68.5
118838	2025-05-15T01:22:43	12.9	70.5
118839	2025-05-15T01:32:43	12.6	70.5
118840	2025-05-15T01:42:43	12.4	71
118841	2025-05-15T01:52:43	12.2	71.5
118842	2025-05-15T02:02:43	12	71.5
118843	2025-05-15T02:12:43	11.9	72
118844	2025-05-15T02:22:43	11.8	72.5
118845	2025-05-15T02:32:43	11.8	73
118846	2025-05-15T02:42:43	11.7	73
118847	2025-05-15T02:52:43	11.5	74
118848	2025-05-15T03:02:43	11.5	74
118849	2025-05-15T03:12:43	11.5	75
118850	2025-05-15T03:22:43	11.3	74.5
118851	2025-05-15T03:32:43	11.1	75
118852	2025-05-15T03:42:43	10.9	75.5
118853	2025-05-15T03:52:43	10.9	76.5
118854	2025-05-15T04:02:43	10.7	77
118855	2025-05-15T04:12:43	10.7	77.5
118856	2025-05-15T04:22:43	10.8	77.5
118857	2025-05-15T04:32:43	10.8	77.5
118858	2025-05-15T04:42:43	11.1	77
118859	2025-05-15T04:52:43	11.3	76.5
118860	2025-05-15T05:02:43	11.4	76
118861	2025-05-15T05:12:43	11.6	76
118862	2025-05-15T05:22:43	11.8	75.5
118863	2025-05-15T05:32:43	12	74.5
118864	2025-05-15T05:42:43	12.6	73
118865	2025-05-15T05:52:43	13	72
118866	2025-05-15T06:02:43	13.3	70.5
118867	2025-05-15T06:12:43	13.7	66
118868	2025-05-15T06:22:43	13.9	63.5
118869	2025-05-15T06:32:43	14	58.5
118870	2025-05-15T06:42:43	14.2	58
118871	2025-05-15T06:52:43	14.4	59
118872	2025-05-15T07:02:43	14.5	58
118873	2025-05-15T07:12:43	14.4	59
118874	2025-05-15T07:22:43	14.4	60
118875	2025-05-15T07:32:43	14.5	60
118876	2025-05-15T07:42:43	14.4	61
118877	2025-05-15T07:52:43	14.5	61.5
118878	2025-05-15T08:02:43	14.5	61.5
118879	2025-05-15T08:12:43	14.6	62
118880	2025-05-15T08:22:43	14.7	62.5
118881	2025-05-15T08:32:43	14.7	62.5
118882	2025-05-15T08:42:42	14.8	62
118883	2025-05-15T08:52:42	15.2	62
118884	2025-05-15T09:02:42	15.1	62
118885	2025-05-15T09:12:42	15.3	60
118886	2025-05-15T09:22:42	15.5	60
118887	2025-05-15T09:32:42	15.8	58.5
118888	2025-05-15T09:42:42	15.9	56.5
118889	2025-05-15T09:52:42	16.2	55.5
118890	2025-05-15T10:02:42	16.5	57
118891	2025-05-15T10:12:42	16.8	58.5
118892	2025-05-15T10:22:42	17	56.5
118893	2025-05-15T10:32:42	17.4	56
118894	2025-05-15T10:42:42	17.8	57
118895	2025-05-15T10:52:42	18	51.5
118896	2025-05-15T11:02:42	18.6	52
118897	2025-05-15T11:12:42	18.6	51.5
118898	2025-05-15T11:22:42	18.6	49
118899	2025-05-15T11:32:42	18.8	50
118900	2025-05-15T11:42:42	19.1	47.5
118901	2025-05-15T11:52:42	19.4	46
118902	2025-05-15T12:02:42	19.9	44.5
118903	2025-05-15T12:12:42	27.5	33.5
118904	2025-05-15T12:22:42	30.6	28.5
118905	2025-05-15T12:32:42	31.9	25.5
118906	2025-05-15T12:42:42	32.9	24
118907	2025-05-15T12:52:42	31.5	24.5
118908	2025-05-15T13:02:42	32.7	23
118909	2025-05-15T13:12:42	33.2	21.5
118910	2025-05-15T13:22:42	34	21
118911	2025-05-15T13:32:42	33.6	19.5
118912	2025-05-15T13:42:42	33.7	17.5
118913	2025-05-15T13:52:42	33.8	17
118914	2025-05-15T14:02:42	35.2	17.5
118915	2025-05-15T14:12:42	35.6	17.5
118916	2025-05-15T14:22:42	35.5	17.5
118917	2025-05-15T14:32:42	35.7	17.5
118918	2025-05-15T14:42:42	36.2	17
118919	2025-05-15T14:52:42	35.8	16.5
118920	2025-05-15T15:02:42	35.3	16
118921	2025-05-15T15:12:42	34.5	16
118922	2025-05-15T15:22:42	34.7	16
118923	2025-05-15T15:32:42	35.4	16.5
118924	2025-05-15T15:42:42	34.8	16
118925	2025-05-15T15:52:42	34.4	15.5
118926	2025-05-15T16:02:42	34	16.5
118927	2025-05-15T16:12:42	33.4	16
118928	2025-05-15T16:22:42	33.2	15
118929	2025-05-15T16:32:42	32.9	16
118930	2025-05-15T16:42:42	32.7	16
118931	2025-05-15T16:52:42	31.7	15.5
118932	2025-05-15T17:02:42	30.9	16.5
118933	2025-05-15T17:12:42	31.5	16.5
118934	2025-05-15T17:22:42	29.6	16.5
118935	2025-05-15T17:32:42	29.4	17
118936	2025-05-15T17:42:42	28.3	19
118937	2025-05-15T17:52:42	26.1	20.5
118938	2025-05-15T18:02:42	25.4	22
118939	2025-05-15T18:12:42	25	22.5
118940	2025-05-15T18:22:42	24.5	24
118941	2025-05-15T18:32:42	23.2	25.5
118942	2025-05-15T18:42:42	22.1	27
118943	2025-05-15T18:52:42	21.2	28.5
118944	2025-05-15T19:02:42	20.6	30
118945	2025-05-15T19:12:42	20.2	31.5
118946	2025-05-15T19:22:41	19.5	32.5
118947	2025-05-15T19:42:41	18.6	35
118948	2025-05-15T19:52:41	18.1	36.5
118949	2025-05-15T20:02:41	17.8	38.5
118950	2025-05-15T20:12:41	17.2	38
118951	2025-05-15T20:22:41	16.9	39
118952	2025-05-15T20:32:41	16.6	40
118953	2025-05-15T20:42:41	16.2	42.5
118954	2025-05-15T20:52:42	15.8	44
118955	2025-05-15T21:02:42	15.3	45
118956	2025-05-15T21:12:42	15	46.5
118957	2025-05-15T21:22:41	14.6	47.5
118958	2025-05-15T21:32:41	14.4	48
118959	2025-05-15T21:42:41	14	48.5
118960	2025-05-15T21:52:41	13.9	49.5
118961	2025-05-15T22:02:41	13.5	50.5
118962	2025-05-15T22:13:00	13.2	51
118963	2025-05-15T22:22:41	13	52.5
118964	2025-05-15T22:32:41	12.5	53.5
118965	2025-05-15T22:42:41	12.3	54
118966	2025-05-15T22:52:41	12.1	54
118967	2025-05-15T23:02:41	11.9	54.5
118968	2025-05-15T23:12:41	11.6	55.5
118969	2025-05-15T23:22:41	11.4	56.5
118970	2025-05-15T23:32:41	11.2	56
118971	2025-05-15T23:42:41	11	56.5
118972	2025-05-15T23:52:41	10.8	57
118973	2025-05-16T00:02:41	10.7	56
118974	2025-05-16T00:12:41	10.5	56
118975	2025-05-16T00:22:41	10.4	57
118976	2025-05-16T00:32:41	10.1	57.5
118977	2025-05-16T00:42:41	9.9	58.5
118978	2025-05-16T00:52:41	9.8	59
118979	2025-05-16T01:12:41	9.2	60
118980	2025-05-16T01:22:41	9	61
118981	2025-05-16T01:32:41	8.9	62
118982	2025-05-16T01:42:41	8.7	61.5
118983	2025-05-16T01:52:41	8.5	63
118984	2025-05-16T02:02:41	8.4	62.5
118985	2025-05-16T02:12:41	8.2	64
118986	2025-05-16T02:22:41	8	64.5
118987	2025-05-16T02:32:41	7.8	65
118988	2025-05-16T02:42:41	7.7	66
118989	2025-05-16T02:52:41	7.5	66
118990	2025-05-16T03:02:41	7.5	65.5
118991	2025-05-16T03:12:41	7.5	66.5
118992	2025-05-16T03:22:41	7.2	67.5
118993	2025-05-16T03:32:41	7	67.5
118994	2025-05-16T03:42:41	6.9	68
118995	2025-05-16T03:52:41	6.8	69
118996	2025-05-16T04:02:41	6.7	69
118997	2025-05-16T04:12:41	6.7	69
118998	2025-05-16T04:22:41	6.8	69.5
118999	2025-05-16T04:32:41	6.8	69.5
119000	2025-05-16T04:42:41	6.9	69
119001	2025-05-16T04:52:41	6.9	69.5
119002	2025-05-16T05:02:41	7.2	69.5
119003	2025-05-16T05:12:41	7.3	69.5
119004	2025-05-16T05:22:41	7.6	70
119005	2025-05-16T05:32:41	7.7	69
119006	2025-05-16T05:42:41	8	68.5
119007	2025-05-16T05:52:41	8.3	68
119008	2025-05-16T06:02:41	8.6	67
119009	2025-05-16T06:12:41	9.1	65.5
119010	2025-05-16T06:22:41	9.3	64.5
119011	2025-05-16T06:32:41	9.6	65
119012	2025-05-16T06:42:41	10	63.5
119013	2025-05-16T06:52:41	10.3	64
119014	2025-05-16T07:02:41	10.6	64
119015	2025-05-16T07:12:41	10.8	63
119016	2025-05-16T07:22:41	11.1	61
119017	2025-05-16T07:32:41	11.5	60.5
119018	2025-05-16T07:42:41	11.8	59.5
119019	2025-05-16T07:52:41	11.9	59
119020	2025-05-16T08:02:41	12.1	58
119021	2025-05-16T08:12:41	12.4	56.5
119022	2025-05-16T08:22:41	12.8	55.5
119023	2025-05-16T08:32:41	13.1	54
119024	2025-05-16T08:42:41	13.3	50
119025	2025-05-16T08:52:41	13.5	50.5
119026	2025-05-16T09:02:41	14	49
119027	2025-05-16T09:12:41	14.4	47.5
119028	2025-05-16T09:22:41	14.7	46
119029	2025-05-16T09:32:41	15.1	45
119030	2025-05-16T09:42:41	16.3	43
119031	2025-05-16T09:52:41	17.3	42.5
119032	2025-05-16T10:02:41	18	39
119033	2025-05-16T10:12:41	17.8	40
119034	2025-05-16T10:22:41	17.1	40.5
119035	2025-05-16T10:32:41	17.5	39.5
119036	2025-05-16T10:42:40	17.7	41
119037	2025-05-16T10:52:40	17.6	40
119038	2025-05-16T11:02:40	18.2	39
119039	2025-05-16T11:12:40	17.9	38
119040	2025-05-16T11:22:40	18.9	37.5
119041	2025-05-16T11:32:40	19.8	34.5
119042	2025-05-16T11:42:40	20	35
119043	2025-05-16T11:52:40	20	33
119044	2025-05-16T12:02:40	20.6	34
119045	2025-05-16T12:12:40	27.5	25.5
119046	2025-05-16T12:22:40	30.6	21.5
119047	2025-05-16T12:32:40	32.7	19.5
119048	2025-05-16T12:42:40	32.1	20.5
119049	2025-05-16T12:52:40	34	18
119050	2025-05-16T13:02:40	35.4	18
119051	2025-05-16T13:12:40	31	20.5
119052	2025-05-16T13:22:40	35.3	18.5
119053	2025-05-16T13:32:40	31.1	20.5
119054	2025-05-16T13:42:40	35.8	18.5
119055	2025-05-16T13:52:40	29.6	21.5
119056	2025-05-16T14:02:40	27.6	23.5
119057	2025-05-16T14:12:40	26.4	25
119058	2025-05-16T14:22:40	30.6	22
119059	2025-05-16T14:32:40	33.8	21
119060	2025-05-16T14:42:40	28.9	24
119061	2025-05-16T14:52:40	28.3	23.5
119062	2025-05-16T15:02:40	30.5	20.5
119063	2025-05-16T15:12:40	28.1	24
119064	2025-05-16T15:22:40	28.6	24
119065	2025-05-16T15:32:40	30.4	22.5
119066	2025-05-16T15:42:40	27.5	24.5
119067	2025-05-16T15:52:40	26.4	26
119068	2025-05-16T16:02:40	25.4	27.5
119069	2025-05-16T16:12:40	25.6	26
119070	2025-05-16T16:22:40	25.6	26.5
119071	2025-05-16T16:32:40	24.3	28
119072	2025-05-16T16:42:40	25.4	28
119073	2025-05-16T16:52:40	25.6	27.5
119074	2025-05-16T17:02:40	26.8	28
119075	2025-05-16T17:12:40	25.2	28.5
119076	2025-05-16T17:22:40	24.5	31.5
119077	2025-05-16T17:32:40	23.9	31
119078	2025-05-16T17:42:40	24.3	30
119079	2025-05-16T17:52:40	23	31
119080	2025-05-16T18:02:40	22.4	33
119081	2025-05-16T18:12:40	22	34
119082	2025-05-16T18:22:40	21.8	35
119083	2025-05-16T18:32:40	21.8	36
119084	2025-05-16T18:42:40	21.2	39
119085	2025-05-16T18:52:40	20.7	41.5
119086	2025-05-16T19:02:40	20.2	43
119087	2025-05-16T19:12:40	19.5	45
119088	2025-05-16T19:22:40	19	45.5
119089	2025-05-16T19:32:40	18.4	46.5
119090	2025-05-16T19:42:40	17.8	48.5
119091	2025-05-16T19:52:40	17.3	50.5
119092	2025-05-16T20:02:40	16.9	52
119093	2025-05-16T20:12:40	16.5	50.5
119094	2025-05-16T20:22:40	16	50.5
119095	2025-05-16T20:32:40	15.8	52
119096	2025-05-16T20:42:40	15.5	53
119097	2025-05-16T20:52:40	15.1	54.5
119098	2025-05-16T21:02:40	14.9	54.5
119099	2025-05-16T21:12:40	14.5	55
119100	2025-05-16T21:22:40	14	56
119101	2025-05-16T21:32:40	14	56.5
119102	2025-05-16T21:42:39	14	58
119103	2025-05-16T21:52:39	13.8	58.5
119104	2025-05-16T22:02:39	13.6	60
119105	2025-05-16T22:12:39	13.1	61.5
119106	2025-05-16T22:22:39	13	62
119107	2025-05-16T22:32:40	12.6	63
119108	2025-05-16T22:42:39	12.5	62.5
119109	2025-05-16T22:52:39	12.3	63
119110	2025-05-16T23:02:40	12.1	65
119111	2025-05-16T23:12:39	11.8	65.5
119112	2025-05-16T23:22:39	11.7	66.5
119113	2025-05-16T23:32:39	11.5	67
119114	2025-05-16T23:42:39	11.3	68
119115	2025-05-16T23:52:40	11.3	68
119116	2025-05-17T00:02:39	11.3	68.5
119117	2025-05-17T00:12:39	11.4	67.5
119118	2025-05-17T00:22:39	11.3	69.5
119119	2025-05-17T00:32:39	11.1	70
119120	2025-05-17T00:42:39	10.9	70.5
119121	2025-05-17T00:52:39	10.6	71.5
119122	2025-05-17T01:02:39	10.5	71.5
119123	2025-05-17T01:12:39	10.3	71.5
119124	2025-05-17T01:22:39	10.1	71.5
119125	2025-05-17T01:32:39	9.7	73
119126	2025-05-17T01:42:39	9.6	74.5
119127	2025-05-17T01:52:39	9.6	75
119128	2025-05-17T02:02:39	9.6	74.5
119129	2025-05-17T02:12:39	9.4	74.5
119130	2025-05-17T02:22:39	9.4	75
119131	2025-05-17T02:32:39	9.4	75
119132	2025-05-17T02:42:39	9.2	76
119133	2025-05-17T02:52:39	9.1	77
119134	2025-05-17T03:02:39	8.8	78.5
119135	2025-05-17T03:12:39	8.7	79
119136	2025-05-17T03:22:39	8.5	79.5
119137	2025-05-17T03:32:39	8.4	80
119138	2025-05-17T03:42:39	8.4	80
119139	2025-05-17T03:52:39	8.2	79.5
119140	2025-05-17T04:02:39	8	80
119141	2025-05-17T04:12:39	8.1	80
119142	2025-05-17T04:22:39	8	79.5
119143	2025-05-17T04:32:39	8.1	80
119144	2025-05-17T04:42:39	8.1	80
119145	2025-05-17T04:52:39	8.3	80
119146	2025-05-17T05:02:39	8.5	79.5
119147	2025-05-17T05:12:39	8.6	78.5
119148	2025-05-17T05:22:39	8.8	78.5
119149	2025-05-17T05:32:39	9	80.5
119150	2025-05-17T05:42:39	9.3	79.5
119151	2025-05-17T05:52:39	9.5	79
119152	2025-05-17T06:02:39	9.8	78
119153	2025-05-17T06:12:39	10.1	77.5
119154	2025-05-17T06:22:39	10.6	77.5
119155	2025-05-17T06:32:39	10.9	77
119156	2025-05-17T06:42:39	11.2	77
119157	2025-05-17T06:52:39	11.4	76.5
119158	2025-05-17T07:02:39	11.7	77
119159	2025-05-17T07:12:39	12	75.5
119160	2025-05-17T07:22:39	12.1	75.5
119161	2025-05-17T07:32:39	12.4	75
119162	2025-05-17T07:42:39	12.7	75
119163	2025-05-17T07:52:39	13.1	72.5
119164	2025-05-17T08:02:39	13.7	71
119165	2025-05-17T08:12:39	14.5	67.5
119166	2025-05-17T08:22:39	15.2	64
119167	2025-05-17T08:32:39	15.3	65
119168	2025-05-17T08:42:39	15.3	63
119169	2025-05-17T08:52:39	15.7	62.5
119170	2025-05-17T09:02:39	15.9	62
119171	2025-05-17T09:12:39	16	61.5
119172	2025-05-17T09:22:39	16.4	60.5
119173	2025-05-17T09:32:39	16.8	59.5
119174	2025-05-17T09:42:39	17.2	57
119175	2025-05-17T09:52:39	18	55
119176	2025-05-17T10:02:39	18.1	55.5
119177	2025-05-17T10:12:39	18.5	54
119178	2025-05-17T10:22:39	18.4	54
119179	2025-05-17T10:32:39	18.3	55.5
119180	2025-05-17T10:42:39	18.2	51.5
119181	2025-05-17T10:52:39	18.7	52.5
119182	2025-05-17T11:02:39	19	52
119183	2025-05-17T11:12:39	19.2	50
119184	2025-05-17T11:22:38	20	48
119185	2025-05-17T11:32:38	20.3	46.5
119186	2025-05-17T11:42:39	21.1	45
119187	2025-05-17T11:52:38	21.2	44
119188	2025-05-17T12:02:38	21.5	45
119189	2025-05-17T12:12:38	21.6	43
119190	2025-05-17T12:22:38	24.2	38
119191	2025-05-17T12:32:38	22.7	42.5
119192	2025-05-17T12:42:38	29	34.5
119193	2025-05-17T12:52:38	31.3	29.5
119194	2025-05-17T13:02:38	30	30
119195	2025-05-17T13:12:38	32.7	26.5
119196	2025-05-17T13:22:38	30.3	28.5
119197	2025-05-17T13:32:38	30.9	28
119198	2025-05-17T13:42:38	28	30
119199	2025-05-17T13:52:38	27.5	30.5
119200	2025-05-17T14:02:38	26.4	32
119201	2025-05-17T14:12:38	25.8	34
119202	2025-05-17T14:22:38	25.7	35
119203	2025-05-17T14:32:38	25.6	35.5
119204	2025-05-17T14:42:38	27.3	34.5
119205	2025-05-17T14:52:38	28.9	31.5
119206	2025-05-17T15:02:38	28.6	31
119207	2025-05-17T15:12:38	31.4	28.5
119208	2025-05-17T15:22:38	31.1	27.5
119209	2025-05-17T15:32:38	32	27
119210	2025-05-17T16:20:11	30.5	28.5
119211	2025-05-17T16:20:12	27.8	31.5
119212	2025-05-17T16:20:12	27.5	32
119213	2025-05-17T16:20:12	28	32
119214	2025-05-17T16:22:38	27.7	32
119215	2025-05-17T16:32:38	27.6	33
119216	2025-05-17T16:42:38	27	34
119217	2025-05-17T16:52:38	25.7	35
119218	2025-05-17T17:02:38	25.1	37
119219	2025-05-17T17:12:38	25.7	36
119220	2025-05-17T17:22:38	24.9	37.5
119221	2025-05-17T17:32:38	24.3	38
119222	2025-05-17T17:42:38	23.8	37
119223	2025-05-17T17:52:38	23	37.5
119224	2025-05-17T18:02:38	22.4	38.5
119225	2025-05-17T18:12:38	22.1	39.5
119226	2025-05-17T18:22:38	21.9	40
119227	2025-05-17T18:32:38	21.9	40.5
119228	2025-05-17T18:42:38	21.5	40.5
119229	2025-05-17T18:52:38	21.1	41
119230	2025-05-17T19:02:38	20.8	41.5
119231	2025-05-17T19:12:38	20.6	43.5
119232	2025-05-17T19:22:38	20.3	44.5
119233	2025-05-17T19:32:38	20	48
119234	2025-05-17T20:22:38	18.3	54.5
119235	2025-05-17T20:32:38	18	53.5
119236	2025-05-17T20:42:38	18	53.5
119237	2025-05-17T20:52:38	17.5	53
119238	2025-05-17T21:02:38	17.2	52.5
119239	2025-05-17T21:12:38	17.1	54
119240	2025-05-17T21:22:38	17.2	54
119241	2025-05-17T21:32:38	17.1	55.5
119242	2025-05-17T21:42:38	17.1	55
119243	2025-05-17T21:52:37	16.1	56.5
119244	2025-05-17T22:02:37	16.3	58
119245	2025-05-17T22:12:37	16.1	58
119246	2025-05-17T22:22:37	15.9	58
119247	2025-05-17T22:32:37	15.6	59
119248	2025-05-17T22:42:37	15.4	58.5
119249	2025-05-17T22:52:37	15	59.5
119250	2025-05-17T23:02:37	14.9	60
119251	2025-05-17T23:12:37	14.7	61
119252	2025-05-17T23:22:37	14.5	61.5
119253	2025-05-17T23:32:37	14.1	63
119254	2025-05-17T23:42:37	14	63.5
119255	2025-05-17T23:52:37	13.5	64
119256	2025-05-18T00:02:37	13.4	64
119257	2025-05-18T00:12:37	13.2	64.5
119258	2025-05-18T00:22:37	12.9	66.5
119259	2025-05-18T00:32:37	12.7	67.5
119260	2025-05-18T00:42:37	12.5	67.5
119261	2025-05-18T01:02:37	11.9	67.5
119262	2025-05-18T01:12:37	11.7	68.5
119263	2025-05-18T01:22:37	11.7	68
119264	2025-05-18T01:32:37	11.4	69
119265	2025-05-18T01:42:37	11.3	69.5
119266	2025-05-18T01:52:37	11	69.5
119267	2025-05-18T02:02:37	11	71
119268	2025-05-18T02:12:37	10.8	70.5
119269	2025-05-18T02:22:37	10.6	71
119270	2025-05-18T02:32:37	10.4	72
119271	2025-05-18T02:42:37	10.4	72.5
119272	2025-05-18T02:52:37	10.2	72.5
119273	2025-05-18T03:02:37	10	73.5
119274	2025-05-18T03:12:37	9.8	74
119275	2025-05-18T03:22:37	9.6	74
119276	2025-05-18T03:32:37	9.5	74.5
119277	2025-05-18T03:42:37	9.4	75.5
119278	2025-05-18T03:52:37	9.4	75.5
119279	2025-05-18T04:02:37	9.2	75.5
119280	2025-05-18T04:12:37	9.2	76
119281	2025-05-18T04:22:37	9.3	77
119282	2025-05-18T04:32:37	9.3	76.5
119283	2025-05-18T04:42:37	9.4	77.5
119284	2025-05-18T04:52:37	9.3	78
119285	2025-05-18T05:02:37	9.5	78
119286	2025-05-18T05:12:37	9.7	78
119287	2025-05-18T05:22:37	10	78
119288	2025-05-18T05:32:37	10.3	78
119289	2025-05-18T05:42:37	10.4	78.5
119290	2025-05-18T05:52:37	10.6	79
119291	2025-05-18T06:02:37	11	79.5
119292	2025-05-18T06:12:37	12.2	70.5
119293	2025-05-18T06:22:37	12.7	67.5
119294	2025-05-18T06:32:37	13.1	66.5
119295	2025-05-18T06:42:37	12.9	68.5
119296	2025-05-18T06:52:37	12.9	68.5
119297	2025-05-18T07:02:37	13	67.5
119298	2025-05-18T07:12:37	13.3	67
119299	2025-05-18T07:22:37	13.6	65
119300	2025-05-18T07:32:37	13.7	65
119301	2025-05-18T07:42:37	14.1	64.5
119302	2025-05-18T07:52:37	14.3	63.5
119303	2025-05-18T08:02:37	14.6	63
119304	2025-05-18T08:12:37	14.9	61.5
119305	2025-05-18T08:22:37	15.1	61.5
119306	2025-05-18T08:32:37	15.4	59.5
119307	2025-05-18T08:42:37	15.8	60
119308	2025-05-18T08:52:37	16	59
119309	2025-05-18T09:02:37	16.2	58.5
119310	2025-05-18T09:12:37	16.5	57.5
119311	2025-05-18T09:22:37	16.7	55.5
119312	2025-05-18T09:32:37	17.1	53.5
119313	2025-05-18T09:42:37	17.3	53
119314	2025-05-18T09:52:37	17.4	52.5
119315	2025-05-18T10:02:37	18.1	48.5
119316	2025-05-18T10:12:37	18.1	49.5
119317	2025-05-18T10:22:37	18.7	48
119318	2025-05-18T10:32:37	19.4	48.5
119319	2025-05-18T10:42:37	19.4	48
119320	2025-05-18T10:52:37	19.4	48
119321	2025-05-18T11:02:36	19.9	45
119322	2025-05-18T11:12:36	19.7	46.5
119323	2025-05-18T11:22:36	20.3	44.5
119324	2025-05-18T11:32:36	20.3	43.5
119325	2025-05-18T11:42:36	20.8	43
119326	2025-05-18T11:52:36	21.1	42
119327	2025-05-18T12:02:36	22.2	38.5
119328	2025-05-18T12:12:36	22.7	37.5
119329	2025-05-18T12:22:36	24.5	35.5
119330	2025-05-18T12:32:36	26	33.5
119331	2025-05-18T12:42:54	23.5	35.5
119332	2025-05-18T12:52:36	25.2	35
119333	2025-05-18T13:02:36	24.9	33.5
119334	2025-05-18T13:12:36	24	34.5
119335	2025-05-18T13:22:36	23.6	34
119336	2025-05-18T13:32:36	24.3	34.5
119337	2025-05-18T13:42:36	23.9	35.5
119338	2025-05-18T13:52:36	29.4	27
119339	2025-05-18T14:02:36	29.6	27
119340	2025-05-18T14:12:36	31.1	25.5
119341	2025-05-18T14:22:36	31.2	25.5
119342	2025-05-18T14:32:36	30.7	26.5
119343	2025-05-18T14:42:36	29.7	28
119344	2025-05-18T14:52:36	26.8	30
119345	2025-05-18T15:02:36	26.8	30.5
119346	2025-05-18T15:12:36	25.5	31.5
119347	2025-05-18T15:22:36	29.9	26.5
119348	2025-05-18T15:32:36	30.8	25
119349	2025-05-18T15:42:36	28.1	27
119350	2025-05-18T15:52:36	26.7	35.5
119351	2025-05-18T16:02:36	26.8	35.5
119352	2025-05-18T16:12:36	25.3	38
119353	2025-05-18T16:22:36	26.1	37
119354	2025-05-18T16:32:36	27.5	35
119355	2025-05-18T16:42:36	26.9	35.5
119356	2025-05-18T16:52:36	26.1	36
119357	2025-05-18T17:02:36	26.1	36.5
119358	2025-05-18T17:12:36	28.3	33
119359	2025-05-18T17:22:36	28.2	32.5
119360	2025-05-18T17:32:36	27.6	34
119361	2025-05-18T17:42:36	26.8	34.5
119362	2025-05-18T17:52:36	26.3	36
119363	2025-05-18T18:02:36	25.6	36.5
119364	2025-05-18T18:12:36	23.9	39.5
119365	2025-05-18T18:22:36	23.6	40.5
119366	2025-05-18T18:32:36	22.7	41
119367	2025-05-18T18:42:36	21.7	43.5
119368	2025-05-18T18:52:36	21.2	44
119369	2025-05-18T19:02:36	20.5	46
119370	2025-05-18T19:12:36	19.9	48
119371	2025-05-18T19:22:36	19.4	50
119372	2025-05-18T19:32:36	18.9	52.5
119373	2025-05-18T19:42:36	18.4	53
119374	2025-05-18T19:52:36	18.1	53.5
119375	2025-05-18T20:02:36	18	54.5
119376	2025-05-18T20:12:36	18	54
119377	2025-05-18T20:32:36	17.6	55.5
119378	2025-05-18T20:42:36	17.4	56
119379	2025-05-18T20:52:36	17.3	56.5
119380	2025-05-18T21:02:36	17.1	57
119381	2025-05-18T21:12:36	16.9	57
119382	2025-05-18T21:22:36	16.8	57.5
119383	2025-05-18T21:32:36	16.7	57.5
119384	2025-05-18T21:42:35	16.5	58
119385	2025-05-18T21:52:35	16.3	58.5
119386	2025-05-18T22:02:35	16.1	59
119387	2025-05-18T22:12:36	15.8	59.5
119388	2025-05-18T22:22:35	15.7	60
119389	2025-05-18T22:32:35	15.5	60
119390	2025-05-18T22:42:36	15.4	60.5
119391	2025-05-18T22:52:35	15.2	61
119392	2025-05-18T23:02:35	15.1	61.5
119393	2025-05-18T23:12:35	14.8	62
119394	2025-05-18T23:22:36	14.7	62.5
119395	2025-05-18T23:32:35	14.4	63
119396	2025-05-18T23:42:35	14.2	63.5
119397	2025-05-18T23:52:35	14.1	64.5
119398	2025-05-19T00:02:35	13.9	64.5
119399	2025-05-19T00:12:35	13.6	65
119400	2025-05-19T00:22:35	13.5	66
119401	2025-05-19T00:32:35	13.2	66.5
119402	2025-05-19T00:42:35	13	67
119403	2025-05-19T00:52:35	12.7	67.5
119404	2025-05-19T01:02:35	12.7	68
119405	2025-05-19T01:12:35	12.6	68
119406	2025-05-19T01:22:35	12.4	68.5
119407	2025-05-19T01:32:35	12.1	69
119408	2025-05-19T01:42:35	11.9	69.5
119409	2025-05-19T01:52:35	11.9	70
119410	2025-05-19T02:02:35	11.6	71
119411	2025-05-19T02:12:35	11.5	71
119412	2025-05-19T02:22:35	11.3	71.5
119413	2025-05-19T02:32:35	11.2	72
119414	2025-05-19T02:42:35	11	72.5
119415	2025-05-19T02:52:35	10.9	73
119416	2025-05-19T03:02:35	10.8	73
119417	2025-05-19T03:12:35	10.6	74
119418	2025-05-19T03:22:35	10.4	74.5
119419	2025-05-19T03:32:35	10.3	75
119420	2025-05-19T03:42:35	10.1	75.5
119421	2025-05-19T03:52:35	10.2	75.5
119422	2025-05-19T04:02:35	10.1	76.5
119423	2025-05-19T04:12:35	10	76.5
119424	2025-05-19T04:22:35	10.1	77
119425	2025-05-19T04:32:35	10.1	77
119426	2025-05-19T04:42:35	10.1	76.5
119427	2025-05-19T04:52:35	10	76.5
119428	2025-05-19T05:02:35	10.1	76.5
119429	2025-05-19T05:12:35	10.2	77
119430	2025-05-19T05:22:35	10.4	77
119431	2025-05-19T05:32:35	10.4	77.5
119432	2025-05-19T05:42:35	10.6	77.5
119433	2025-05-19T05:52:35	10.8	77.5
119434	2025-05-19T06:02:35	10.9	77.5
119435	2025-05-19T06:12:35	11.4	76.5
119436	2025-05-19T06:22:35	11.8	76.5
119437	2025-05-19T06:32:35	12	76.5
119438	2025-05-19T06:42:35	12.3	75.5
119439	2025-05-19T06:52:35	12.6	75.5
119440	2025-05-19T07:02:35	12.9	74
119441	2025-05-19T07:12:35	13.2	73.5
119442	2025-05-19T07:22:35	13.6	73.5
119443	2025-05-19T07:32:35	13.9	72
119444	2025-05-19T07:42:35	14.5	70
119445	2025-05-19T07:52:35	14.7	71
119446	2025-05-19T08:02:35	14.9	70.5
119447	2025-05-19T08:12:35	15.1	68.5
119448	2025-05-19T08:22:35	15.6	67
119449	2025-05-19T08:32:35	16	64.5
119450	2025-05-19T08:42:35	16.1	64
119451	2025-05-19T08:52:35	16.3	62
119452	2025-05-19T09:02:35	16.6	61
119453	2025-05-19T09:12:35	17	61
119454	2025-05-19T09:22:35	17.3	59
119455	2025-05-19T09:32:35	17.4	59.5
119456	2025-05-19T09:42:35	17.7	57.5
119457	2025-05-19T09:52:35	17.8	56.5
119458	2025-05-19T10:02:35	18.2	56
119459	2025-05-19T10:12:35	18.5	53.5
119460	2025-05-19T10:22:35	18.8	53.5
119461	2025-05-19T10:32:35	18.9	53
119462	2025-05-19T10:42:34	19.2	51
119463	2025-05-19T10:52:34	19.5	51.5
119464	2025-05-19T11:02:34	19.8	50
119465	2025-05-19T11:12:34	20	49
119466	2025-05-19T11:22:34	20.3	48
119467	2025-05-19T11:32:34	20.7	47.5
119468	2025-05-19T11:42:34	21.1	46.5
119469	2025-05-19T11:52:34	21.5	45.5
119470	2025-05-19T12:02:34	22.2	45
119471	2025-05-19T12:12:34	29.4	31.5
119472	2025-05-19T12:22:34	33	26.5
119473	2025-05-19T12:32:34	34.2	25.5
119474	2025-05-19T12:42:34	35.1	23.5
119475	2025-05-19T12:52:34	36.1	23
119476	2025-05-19T13:02:34	36.7	23
119477	2025-05-19T13:12:34	37.7	21
119478	2025-05-19T13:22:34	38.3	21.5
119479	2025-05-19T13:32:34	38.5	20.5
119480	2025-05-19T13:42:34	38.7	19.5
119481	2025-05-19T13:52:34	38.2	20
119482	2025-05-19T14:02:34	38.4	19.5
119483	2025-05-19T14:12:34	38	20.5
119484	2025-05-19T14:22:34	38.3	20.5
119485	2025-05-19T14:32:34	38	20
119486	2025-05-19T14:42:34	37.9	20.5
119487	2025-05-19T14:52:34	38.4	19.5
119488	2025-05-19T15:02:34	37.2	19.5
119489	2025-05-19T15:12:34	37.6	19.5
119490	2025-05-19T15:22:34	37.3	19.5
119491	2025-05-19T15:32:34	37.8	19
119492	2025-05-19T15:42:34	36.1	19.5
119493	2025-05-19T15:52:34	35.3	20.5
119494	2025-05-19T16:02:34	36.5	19.5
119495	2025-05-19T16:12:34	36	20
119496	2025-05-19T16:22:34	35.8	19
119497	2025-05-19T16:32:34	35.3	19
119498	2025-05-19T16:42:34	34.7	20.5
119499	2025-05-19T16:52:34	33.8	21
119500	2025-05-19T17:02:34	33	21
119501	2025-05-19T17:12:34	33.2	22
119502	2025-05-19T17:22:34	32.3	22
119503	2025-05-19T17:32:34	30.4	24
119504	2025-05-19T17:42:34	30.1	24.5
119505	2025-05-19T17:52:34	29.2	24.5
119506	2025-05-19T18:02:34	28.9	25
119507	2025-05-19T18:12:34	29.1	25.5
119508	2025-05-19T18:22:34	28.7	26
119509	2025-05-19T18:32:34	27.4	28.5
119510	2025-05-19T18:42:34	26.4	30
119511	2025-05-19T18:52:34	26	30
119512	2025-05-19T19:02:34	24.9	32.5
119513	2025-05-19T19:12:34	24.1	34
119514	2025-05-19T19:22:34	23.3	35
119515	2025-05-19T19:32:34	22.7	36.5
119516	2025-05-19T19:42:34	22.2	37.5
119517	2025-05-19T19:52:34	21.7	39.5
119518	2025-05-19T20:02:34	21.5	40
119519	2025-05-19T20:12:34	21	41.5
119520	2025-05-19T20:22:34	20.5	42.5
119521	2025-05-19T20:32:34	20	43.5
119522	2025-05-19T20:42:34	19.5	44.5
119523	2025-05-19T20:52:34	19.4	45
119524	2025-05-19T21:02:34	19	46.5
119525	2025-05-19T21:12:34	18.7	47.5
119526	2025-05-19T21:22:34	18.2	48.5
119527	2025-05-19T21:32:34	18.1	49.5
119528	2025-05-19T21:42:34	17.6	50
119529	2025-05-19T21:52:34	17.4	48
119530	2025-05-19T22:02:33	17.3	50.5
119531	2025-05-19T22:12:33	17	51.5
119532	2025-05-19T22:22:33	16.9	48.5
119533	2025-05-19T22:32:33	17.1	48
119534	2025-05-19T22:42:33	17.2	48
119535	2025-05-19T22:52:33	17	48
119536	2025-05-19T23:02:33	16.8	48
119537	2025-05-19T23:12:33	16.9	48
119538	2025-05-19T23:22:33	16.7	48.5
119539	2025-05-19T23:32:33	16.6	49
119540	2025-05-19T23:42:33	16.5	49.5
119541	2025-05-19T23:52:33	16.3	50.5
119542	2025-05-20T00:02:33	15.7	54
119543	2025-05-20T00:12:33	15.3	54.5
119544	2025-05-20T00:22:33	15.2	55.5
119545	2025-05-20T00:32:33	14.9	56.5
119546	2025-05-20T00:42:33	14.7	56.5
119547	2025-05-20T01:02:33	14.3	58
119548	2025-05-20T01:12:33	14.3	58.5
119549	2025-05-20T01:22:33	14.3	58
119550	2025-05-20T01:32:33	14.2	58.5
119551	2025-05-20T01:42:33	14	59
119552	2025-05-20T01:52:33	13.7	59.5
119553	2025-05-20T02:02:33	13.7	59.5
119554	2025-05-20T02:12:33	13.6	59.5
119555	2025-05-20T02:22:33	13.5	60.5
119556	2025-05-20T02:32:33	13.4	61
119557	2025-05-20T02:42:33	13.2	61.5
119558	2025-05-20T02:52:33	13.1	61.5
119559	2025-05-20T03:02:33	13.2	61.5
119560	2025-05-20T03:12:33	13.2	61.5
119561	2025-05-20T03:22:33	13.2	62
119562	2025-05-20T03:32:33	13.3	62
119563	2025-05-20T03:42:33	13.1	62
119564	2025-05-20T03:52:33	13.2	62.5
119565	2025-05-20T04:02:33	13.3	62
119566	2025-05-20T04:12:33	13.2	62.5
119567	2025-05-20T04:22:33	13.3	62.5
119568	2025-05-20T04:32:33	13.3	62.5
119569	2025-05-20T04:42:33	13.4	62
119570	2025-05-20T04:52:33	13.6	62
119571	2025-05-20T05:02:33	14	62
119572	2025-05-20T05:12:33	14	62
119573	2025-05-20T05:22:33	14.2	62.5
119574	2025-05-20T05:32:33	14.3	63
119575	2025-05-20T05:42:33	14.4	62
119576	2025-05-20T05:52:33	14.6	62
119577	2025-05-20T06:02:33	14.8	62.5
119578	2025-05-20T06:12:33	14.9	64
119579	2025-05-20T06:22:33	15.1	61.5
119580	2025-05-20T06:32:33	15.3	62.5
119581	2025-05-20T06:42:33	15.7	61.5
119582	2025-05-20T06:52:33	15.9	61.5
119583	2025-05-20T07:02:33	16	62.5
119584	2025-05-20T07:12:33	16.2	62
119585	2025-05-20T07:22:33	16.4	61.5
119586	2025-05-20T07:32:33	16.9	60
119587	2025-05-20T07:42:33	17.6	59
119588	2025-05-20T07:52:33	18.3	57.5
119589	2025-05-20T08:02:33	18.7	57
119590	2025-05-20T08:12:33	19.2	57.5
119591	2025-05-20T08:22:33	19.3	55.5
119592	2025-05-20T08:32:33	19.6	55
119593	2025-05-20T08:42:33	20.1	52.5
119594	2025-05-20T08:52:33	20.5	51.5
119595	2025-05-20T09:02:33	20.7	50.5
119596	2025-05-20T09:12:33	20.7	51
119597	2025-05-20T09:22:33	20.9	50.5
119598	2025-05-20T09:32:33	21.1	49.5
119599	2025-05-20T09:42:32	21.1	49.5
119600	2025-05-20T09:52:32	21.4	49
119601	2025-05-20T10:02:32	21.8	49
119602	2025-05-20T10:12:32	22.2	47.5
119603	2025-05-20T10:22:32	22.7	46.5
119604	2025-05-20T10:32:49	22.8	45.5
119605	2025-05-20T10:42:32	23.1	46.5
119606	2025-05-20T10:52:32	23.2	46
119607	2025-05-20T11:02:32	23.3	46.5
119608	2025-05-20T11:12:32	23.2	46
119609	2025-05-20T11:22:32	23.4	45.5
119610	2025-05-20T11:32:33	23.4	46
119611	2025-05-20T11:42:32	23.6	45.5
119612	2025-05-20T11:52:32	24	45
119613	2025-05-20T12:02:32	24.3	43
119614	2025-05-20T12:12:32	24.4	43.5
119615	2025-05-20T12:22:32	24.2	45
119616	2025-05-20T12:32:32	24.4	44.5
119617	2025-05-20T12:42:32	24.2	45.5
119618	2025-05-20T12:52:32	24.5	46
119619	2025-05-20T13:02:32	24.9	48
119620	2025-05-20T13:12:32	24.9	45.5
119621	2025-05-20T13:22:32	24.9	45
119622	2025-05-20T13:32:32	24.9	42.5
119623	2025-05-20T13:42:32	25	43.5
119624	2025-05-20T13:52:32	26	42
119625	2025-05-20T14:02:32	28.4	39
119626	2025-05-20T14:12:32	30.7	34
119627	2025-05-20T14:22:32	30.3	34
119628	2025-05-20T14:32:32	31.7	32
119629	2025-05-20T14:42:32	30.7	33
119630	2025-05-20T14:52:32	32.5	31
119631	2025-05-20T15:02:32	35.2	27
119632	2025-05-20T15:12:32	37.1	24.5
119633	2025-05-20T15:22:32	39	22.5
119634	2025-05-20T15:32:32	38.4	23
119635	2025-05-20T15:42:32	38.4	22
119636	2025-05-20T15:52:32	35.5	24.5
119637	2025-05-20T16:02:32	36.7	24.5
119638	2025-05-20T16:12:32	34	26
119639	2025-05-20T16:22:32	30.8	30.5
119640	2025-05-20T16:32:32	29.5	33
119641	2025-05-20T16:42:32	28.7	34
119642	2025-05-20T16:52:32	28.2	34.5
119643	2025-05-20T17:02:32	27.9	36
119644	2025-05-20T17:12:32	27	39
119645	2025-05-20T17:22:32	27.3	41.5
119646	2025-05-20T17:32:32	27.3	42.5
119647	2025-05-20T17:42:32	26.9	43
119648	2025-05-20T17:52:32	26.4	43
119649	2025-05-20T18:02:32	25.7	46
119650	2025-05-20T18:12:32	25.3	45.5
119651	2025-05-20T18:22:32	24.8	49
119652	2025-05-20T18:32:32	24.4	49.5
119653	2025-05-20T18:42:32	23.9	49.5
119654	2025-05-20T18:52:32	23.3	51
119655	2025-05-20T19:02:32	23	51.5
119656	2025-05-20T19:12:32	22.8	53
119657	2025-05-20T19:22:32	22.5	54
119658	2025-05-20T19:32:32	22.2	52.5
119659	2025-05-20T19:42:31	22.1	53
119660	2025-05-20T19:52:31	21.8	54
119661	2025-05-20T20:02:31	21.7	53
119662	2025-05-20T20:12:31	21.4	54.5
119663	2025-05-20T20:22:32	21.3	56
119664	2025-05-20T20:32:31	21.1	56
119665	2025-05-20T20:42:31	20.5	56
119666	2025-05-20T20:52:31	20.5	57
119667	2025-05-20T21:02:31	20.4	58
119668	2025-05-20T21:12:31	20.2	58
119669	2025-05-20T21:22:31	20	58
119670	2025-05-20T21:32:31	19.8	60
119671	2025-05-20T21:42:31	19.5	61
119672	2025-05-20T21:52:31	19.3	58.5
119673	2025-05-20T22:02:31	18.9	60.5
119674	2025-05-20T22:12:31	18.6	62.5
119675	2025-05-20T22:22:31	18.5	63.5
119676	2025-05-20T22:32:31	18.2	63.5
119677	2025-05-20T22:42:31	18.2	63.5
119678	2025-05-20T22:52:31	18.1	62
119679	2025-05-20T23:02:31	17.9	62
119680	2025-05-20T23:12:31	17.7	62.5
119681	2025-05-20T23:32:31	17.7	63
119682	2025-05-20T23:42:31	17.6	63
119683	2025-05-20T23:52:31	17.6	64
119684	2025-05-21T00:02:31	17.5	64
119685	2025-05-21T00:12:31	17.3	65.5
119686	2025-05-21T00:22:31	17.2	66.5
119687	2025-05-21T00:32:31	17.2	67
119688	2025-05-21T00:42:31	17	67.5
119689	2025-05-21T00:52:31	16.8	68.5
119690	2025-05-21T01:02:31	16.4	69.5
119691	2025-05-21T01:12:31	16	70.5
119692	2025-05-21T01:22:31	15.8	71.5
119693	2025-05-21T01:32:31	15.9	72.5
119694	2025-05-21T01:42:31	15.6	74.5
119695	2025-05-21T01:52:31	15.8	75
119696	2025-05-21T02:02:31	15.9	76
119697	2025-05-21T02:12:31	16	76.5
119698	2025-05-21T02:22:31	16.1	77.5
119699	2025-05-21T02:32:31	16.1	78
119700	2025-05-21T02:42:31	16	78.5
119701	2025-05-21T02:52:31	16	79
119702	2025-05-21T03:02:31	16	79
119703	2025-05-21T03:12:31	16	79
119704	2025-05-21T03:22:31	16.1	81
119705	2025-05-21T03:32:31	16	82.5
119706	2025-05-21T03:42:31	15.9	83
119707	2025-05-21T03:52:31	15.9	82
119708	2025-05-21T04:02:31	15.8	83
119709	2025-05-21T04:12:31	15.7	82
119710	2025-05-21T04:22:31	15.8	83.5
119711	2025-05-21T04:32:31	15.9	84
119712	2025-05-21T04:42:31	15.9	84
119713	2025-05-21T04:52:31	16	83.5
119714	2025-05-21T05:02:31	16.1	84
119715	2025-05-21T05:12:31	16	83
119716	2025-05-21T05:22:31	16	83.5
119717	2025-05-21T05:32:31	15.8	82.5
119718	2025-05-21T05:42:31	15.9	80.5
119719	2025-05-21T05:52:31	16	78.5
119720	2025-05-21T06:02:31	16.3	77
119721	2025-05-21T06:12:31	16.8	76.5
119722	2025-05-21T06:22:31	17.2	77
119723	2025-05-21T06:32:31	17.6	77
119724	2025-05-21T06:42:30	17.6	78.5
119725	2025-05-21T06:52:30	17.6	77.5
119726	2025-05-21T07:02:30	17.4	77.5
119727	2025-05-21T07:12:30	17.2	79
119728	2025-05-21T07:22:47	17.1	80.5
119729	2025-05-21T07:32:30	17	81
119730	2025-05-21T07:42:30	16.7	84
119731	2025-05-21T07:52:30	16	87.5
119732	2025-05-21T08:02:30	15.7	92.5
119733	2025-05-21T08:12:30	15.6	91
119734	2025-05-21T08:22:30	15.8	91.5
119735	2025-05-21T08:32:30	15.7	93
119736	2025-05-21T08:42:30	15.4	98.5
119737	2025-05-21T08:52:30	15.5	99
119738	2025-05-21T09:02:30	15.7	100
119739	2025-05-21T09:12:30	15.9	100
119740	2025-05-21T09:22:30	15.9	99
119741	2025-05-21T09:32:30	15.7	100
119742	2025-05-21T09:42:30	15.8	100
119743	2025-05-21T09:52:30	16.3	100
119744	2025-05-21T10:12:30	16.5	100
119745	2025-05-21T10:22:30	16.4	100
119746	2025-05-21T10:32:30	16.4	100
119747	2025-05-21T10:42:30	16.6	100
119748	2025-05-21T10:52:30	17	100
119749	2025-05-21T11:02:30	17.4	100
119750	2025-05-21T11:12:30	17.8	100
119751	2025-05-21T11:22:30	18.8	100
119752	2025-05-21T11:32:30	20.1	100
119753	2025-05-21T11:42:30	20.8	100
119754	2025-05-21T11:52:30	21.1	100
119755	2025-05-21T12:02:30	23.2	98
119756	2025-05-21T12:12:30	27.1	71.5
119757	2025-05-21T12:22:30	27	57.5
119758	2025-05-21T12:32:30	26.2	59.5
119759	2025-05-21T12:42:30	29	49
119760	2025-05-21T12:52:30	30.1	43
119761	2025-05-21T13:02:30	27.3	51.5
119762	2025-05-21T13:12:30	28.9	49
119763	2025-05-21T13:22:30	29.6	46
119764	2025-05-21T13:32:30	31.1	40.5
119765	2025-05-21T13:42:30	29.1	43.5
119766	2025-05-21T13:52:30	28.2	48
119767	2025-05-21T14:02:30	25.6	45
119768	2025-05-21T14:12:30	23.3	52.5
119769	2025-05-21T14:22:30	17.4	100
119770	2025-05-21T14:32:30	18.5	100
119771	2025-05-21T14:42:30	21.4	100
119772	2025-05-21T14:52:30	24.8	100
119773	2025-05-21T15:02:30	26.2	100
119774	2025-05-21T15:12:30	26.1	100
119775	2025-05-21T15:22:30	25.1	100
119776	2025-05-21T15:32:30	24.2	100
119777	2025-05-21T15:42:30	22.6	99
119778	2025-05-21T15:52:30	21.3	98
119779	2025-05-21T16:02:30	20.5	96.5
119780	2025-05-21T16:12:30	20.2	95.5
119781	2025-05-21T16:22:30	19.9	95
119782	2025-05-21T16:32:30	20.3	95
119783	2025-05-21T16:42:30	20.2	95
119784	2025-05-21T16:52:30	19.8	95
119785	2025-05-21T17:02:30	20	95
119786	2025-05-21T17:12:30	20.2	95
119787	2025-05-21T17:22:29	19.8	95
119788	2025-05-21T17:32:29	19.4	95
119789	2025-05-21T17:42:29	19.4	95.5
119790	2025-05-21T17:52:29	19	95
119791	2025-05-21T18:02:29	18.8	95.5
119792	2025-05-21T18:12:29	18.7	95.5
119793	2025-05-21T18:22:29	18.4	95.5
119794	2025-05-21T18:32:29	18.2	95.5
119795	2025-05-21T18:42:29	17.3	95.5
119796	2025-05-21T18:52:29	16.8	95.5
119797	2025-05-21T19:02:29	16.1	95.5
119798	2025-05-21T19:12:29	15.4	95.5
119799	2025-05-21T19:22:29	13.8	95.5
119800	2025-05-21T19:32:29	13.2	95.5
119801	2025-05-21T19:42:29	12.7	95.5
119802	2025-05-21T19:52:29	12.7	95.5
119803	2025-05-21T20:02:29	12.5	95.5
119804	2025-05-21T20:12:29	12.4	95.5
119805	2025-05-21T20:22:29	12.4	95.5
119806	2025-05-21T20:32:29	12.3	95.5
119807	2025-05-21T20:42:29	12.2	96
119808	2025-05-21T20:52:29	12.2	96
119809	2025-05-21T21:02:29	12.1	96
119810	2025-05-21T21:12:29	12.1	96
119811	2025-05-21T21:22:29	12.1	95.5
119812	2025-05-21T21:32:29	12.1	96
119813	2025-05-21T21:42:29	12.1	96
119814	2025-05-21T21:52:29	12.3	96
119815	2025-05-21T22:02:29	12.2	96
119816	2025-05-21T22:12:29	12.2	96
119817	2025-05-21T22:22:29	12.3	96
119818	2025-05-21T22:32:29	12.3	96
119819	2025-05-21T22:42:29	12.3	96
119820	2025-05-21T22:52:29	12.2	96
119821	2025-05-21T23:02:29	12.3	96
119822	2025-05-21T23:12:29	12.1	96
119823	2025-05-21T23:22:29	12	96
119824	2025-05-21T23:32:29	12	96
119825	2025-05-21T23:42:29	12	96
119826	2025-05-21T23:52:29	12	96
119827	2025-05-22T00:02:29	11.9	96
119828	2025-05-22T00:12:29	11.9	96
119829	2025-05-22T00:22:29	11.8	96
119830	2025-05-22T00:32:29	11.6	96
119831	2025-05-22T00:42:29	11.6	96
119832	2025-05-22T00:52:29	11.7	96
119833	2025-05-22T01:02:29	11.6	96
119834	2025-05-22T01:12:29	11.5	96
119835	2025-05-22T01:22:29	11.4	96
119836	2025-05-22T01:32:29	11.4	96
119837	2025-05-22T01:42:29	11.4	96
119838	2025-05-22T01:52:29	11.4	96
119839	2025-05-22T02:02:29	11.4	96
119840	2025-05-22T02:12:29	11.4	96
119841	2025-05-22T02:22:29	11.3	96
119842	2025-05-22T02:32:29	11.3	96
119843	2025-05-22T02:42:29	11.2	96
119844	2025-05-22T02:52:29	11.3	96
119845	2025-05-22T03:02:29	11.1	96
119846	2025-05-22T03:12:29	11.2	96
119847	2025-05-22T03:22:29	11.2	96
119848	2025-05-22T03:32:29	10.9	96
119849	2025-05-22T03:42:29	10.8	96
119850	2025-05-22T03:52:29	10.9	96
119851	2025-05-22T04:02:29	10.8	96
119852	2025-05-22T04:12:29	10.8	96
119853	2025-05-22T04:22:29	10.8	96
119854	2025-05-22T04:32:29	11	96.5
119855	2025-05-22T04:42:29	10.9	96
119856	2025-05-22T04:52:29	10.9	96
119857	2025-05-22T05:02:29	10.9	96
119858	2025-05-22T05:12:29	11	96
119859	2025-05-22T05:22:29	11.1	96
119860	2025-05-22T05:32:29	11.2	96
119861	2025-05-22T05:42:29	11.2	96
119862	2025-05-22T05:52:29	11.2	96
119863	2025-05-22T06:02:29	11.4	96
119864	2025-05-22T06:12:29	11.3	96.5
119865	2025-05-22T06:22:29	11.3	96
119866	2025-05-22T06:32:29	11.4	96.5
119867	2025-05-22T06:42:29	11.5	96
119868	2025-05-22T06:52:29	11.6	96
119869	2025-05-22T07:02:29	11.5	96
119870	2025-05-22T07:12:29	11.4	96
119871	2025-05-22T07:22:29	11.4	96.5
119872	2025-05-22T07:32:29	11.4	96.5
119873	2025-05-22T07:42:29	11.6	96.5
119874	2025-05-22T07:52:29	11.6	96.5
119875	2025-05-22T08:02:28	11.6	96
119876	2025-05-22T08:12:28	11.7	96.5
119877	2025-05-22T08:22:28	11.9	96.5
119878	2025-05-22T08:32:28	12	96.5
119879	2025-05-22T08:42:28	12.6	96.5
119880	2025-05-22T08:52:28	13.4	96.5
119881	2025-05-22T09:02:28	13.8	96.5
119882	2025-05-22T09:12:28	14.3	96
119883	2025-05-22T09:22:29	15	96.5
119884	2025-05-22T09:32:28	15.6	96.5
119885	2025-05-22T09:42:28	15	96.5
119886	2025-05-22T09:52:28	14.6	96.5
119887	2025-05-22T10:02:28	14.7	96
119888	2025-05-22T10:12:28	15.2	96.5
119889	2025-05-22T10:22:28	15.2	96.5
119890	2025-05-22T10:32:28	14.7	96.5
119891	2025-05-22T10:42:28	16.1	96.5
119892	2025-05-22T10:52:28	16.1	96.5
119893	2025-05-22T11:02:28	16.1	96.5
119894	2025-05-22T11:12:28	16.4	96.5
119895	2025-05-22T11:22:28	17.2	96.5
119896	2025-05-22T11:32:28	18	96.5
119897	2025-05-22T11:42:28	17.2	97
119898	2025-05-22T11:52:28	18.4	97
119899	2025-05-22T12:02:28	17.1	97
119900	2025-05-22T12:12:28	22.5	97
119901	2025-05-22T12:22:28	19.2	96.5
119902	2025-05-22T12:32:28	17.6	96.5
119903	2025-05-22T12:42:28	17.9	97
119904	2025-05-22T12:52:28	19.3	97
119905	2025-05-22T13:02:28	22.1	96.5
119906	2025-05-22T13:12:28	27.4	97
119907	2025-05-22T13:22:28	22	99.5
119908	2025-05-22T13:32:28	22.5	99.5
119909	2025-05-22T13:42:28	22	100
119910	2025-05-22T13:52:28	24.9	100
119911	2025-05-22T14:02:28	21.6	100
119912	2025-05-22T14:12:28	22.9	100
119913	2025-05-22T14:22:28	21.9	59
119914	2025-05-22T14:32:28	21.2	48
119915	2025-05-22T14:42:28	20	48.5
119916	2025-05-22T14:52:28	19.8	49
119917	2025-05-22T15:02:28	19.5	46.5
119918	2025-05-22T15:12:28	18.9	47.5
119919	2025-05-22T15:22:28	18.6	48
119920	2025-05-22T15:32:28	18.6	49
119921	2025-05-22T15:42:28	19.1	49
119922	2025-05-22T15:52:28	19.4	49.5
119923	2025-05-22T16:02:28	19.6	51.5
119924	2025-05-22T16:12:28	22	42
119925	2025-05-22T16:22:28	24.3	37
119926	2025-05-22T16:32:28	24.1	38.5
119927	2025-05-22T16:42:28	22	40.5
119928	2025-05-22T16:52:28	20.2	43
119929	2025-05-22T17:02:28	19.6	47.5
119930	2025-05-22T17:12:28	19.1	47.5
119931	2025-05-22T17:22:28	18.6	46.5
119932	2025-05-22T17:32:50	18.2	48
119933	2025-05-22T17:42:28	18.4	51
119934	2025-05-22T17:52:28	18	49
119935	2025-05-22T18:02:28	17.4	50
119936	2025-05-22T18:12:28	17	52.5
119937	2025-05-22T18:22:27	17.1	54
119938	2025-05-22T18:32:27	16.7	55.5
119939	2025-05-22T18:42:27	16.6	57.5
119940	2025-05-22T18:52:27	16.5	59.5
119941	2025-05-22T19:02:27	16.3	60.5
119942	2025-05-22T19:12:27	16.1	62.5
119943	2025-05-22T19:22:27	15.6	65.5
119944	2025-05-22T19:32:27	15.5	67
119945	2025-05-22T19:42:27	15.2	67
119946	2025-05-22T19:52:27	14.9	67
119947	2025-05-22T20:02:28	14.7	69
119948	2025-05-22T20:12:27	14.6	68
119949	2025-05-22T20:22:28	14.3	66.5
119950	2025-05-22T20:32:27	14.2	67
119951	2025-05-22T20:42:28	14.2	69.5
119952	2025-05-22T20:52:28	13.6	68
119953	2025-05-22T21:02:27	13.5	71
119954	2025-05-22T21:12:27	13.4	72.5
119955	2025-05-22T21:22:27	13.3	73.5
119956	2025-05-22T21:32:27	13.2	74.5
119957	2025-05-22T21:42:27	12.9	72.5
119958	2025-05-22T21:52:27	12.9	73.5
119959	2025-05-22T22:02:27	12.9	73.5
119960	2025-05-22T22:12:27	12.8	73.5
119961	2025-05-22T22:22:27	12.8	75
119962	2025-05-22T22:32:27	12.8	74.5
119963	2025-05-22T22:42:27	12.6	75.5
119964	2025-05-22T22:52:27	12.3	76
119965	2025-05-22T23:02:27	12.4	77.5
119966	2025-05-22T23:12:27	12	79.5
119967	2025-05-22T23:22:27	11.9	80
119968	2025-05-22T23:32:27	11.8	81
119969	2025-05-22T23:42:27	11.9	80.5
119970	2025-05-22T23:52:27	11.9	81
119971	2025-05-23T00:02:27	11.9	81
119972	2025-05-23T00:12:27	11.8	81.5
119973	2025-05-23T00:22:27	11.7	81.5
119974	2025-05-23T00:32:27	11.6	81.5
119975	2025-05-23T00:42:27	11.4	82
119976	2025-05-23T00:52:27	10.9	84
119977	2025-05-23T01:02:27	10.7	85
119978	2025-05-23T01:12:27	10.3	86
119979	2025-05-23T01:22:27	10	86
119980	2025-05-23T01:32:27	10.2	85.5
119981	2025-05-23T01:42:27	10	86
119982	2025-05-23T01:52:27	9.7	86.5
119983	2025-05-23T02:02:27	9.4	83.5
119984	2025-05-23T02:12:27	9.4	82
119985	2025-05-23T02:22:27	9.4	83
119986	2025-05-23T02:32:27	9.3	84
119987	2025-05-23T02:42:27	9.3	84.5
119988	2025-05-23T02:52:27	9.4	84.5
119989	2025-05-23T03:02:27	9.3	84.5
119990	2025-05-23T03:12:27	9.4	84.5
119991	2025-05-23T03:22:27	9.4	85
119992	2025-05-23T03:32:27	9.4	85.5
119993	2025-05-23T03:42:27	9.2	86
119994	2025-05-23T03:52:27	9.1	86.5
119995	2025-05-23T04:02:27	9.1	86.5
119996	2025-05-23T04:12:27	9.2	87
119997	2025-05-23T04:22:27	9.3	86.5
119998	2025-05-23T04:32:27	9.4	87
119999	2025-05-23T04:42:27	9.5	86
120000	2025-05-23T04:52:27	9.7	85
120001	2025-05-23T05:02:27	9.8	84
120002	2025-05-23T05:12:27	9.8	83
120003	2025-05-23T05:22:27	10	84
120004	2025-05-23T05:32:27	10.2	86
120005	2025-05-23T05:42:27	10.2	85.5
120006	2025-05-23T06:02:27	10.4	82
120007	2025-05-23T06:12:27	10.8	79.5
120008	2025-05-23T06:22:27	10.5	75.5
120009	2025-05-23T06:32:27	10.6	76
120010	2025-05-23T06:42:27	10.7	70
120011	2025-05-23T06:52:27	10.8	71.5
120012	2025-05-23T07:02:27	10.9	70
120013	2025-05-23T07:12:27	10.9	71
120014	2025-05-23T07:22:27	11.2	70
120015	2025-05-23T07:32:27	11.2	67
120016	2025-05-23T07:42:27	11.4	68.5
120017	2025-05-23T07:52:27	11.7	67
120018	2025-05-23T08:02:27	11.7	62.5
120019	2025-05-23T08:12:27	11.9	63
120020	2025-05-23T08:22:27	11.9	63
120021	2025-05-23T08:32:27	12.3	61
120022	2025-05-23T08:42:27	12.6	61.5
120023	2025-05-23T08:52:27	12.8	60
120024	2025-05-23T09:02:26	12.9	59.5
120025	2025-05-23T09:12:26	13.4	58
120026	2025-05-23T09:22:26	13.5	56
120027	2025-05-23T09:32:26	14	54.5
120028	2025-05-23T09:42:26	14.4	53.5
120029	2025-05-23T09:52:26	14.7	50.5
120030	2025-05-23T10:02:26	15.1	50.5
120031	2025-05-23T10:12:26	15.5	49
120032	2025-05-23T10:22:26	15.8	48
120033	2025-05-23T10:32:26	16.5	48.5
120034	2025-05-23T10:42:26	16.1	47.5
120035	2025-05-23T10:52:26	16.1	49
120036	2025-05-23T11:02:26	16.8	44.5
120037	2025-05-23T11:12:26	16.9	45.5
120038	2025-05-23T11:22:26	17.1	44.5
120039	2025-05-23T11:32:26	18	43.5
120040	2025-05-23T11:42:26	17.8	42
120041	2025-05-23T11:52:26	18.9	44.5
120042	2025-05-23T12:02:26	19	43
120043	2025-05-23T12:12:26	18.1	43
120044	2025-05-23T12:22:26	23.1	32.5
120045	2025-05-23T12:32:26	19.6	39.5
120046	2025-05-23T12:42:26	20.3	35.5
120047	2025-05-23T12:52:26	20.9	34
120048	2025-05-23T13:02:26	23.2	31.5
120049	2025-05-23T13:12:26	26.9	25.5
120050	2025-05-23T13:22:26	22.5	31
120051	2025-05-23T13:32:26	21.5	31.5
120052	2025-05-23T13:42:26	20.3	33
120053	2025-05-23T13:52:26	21.3	33
120054	2025-05-23T14:02:26	20.3	33.5
120055	2025-05-23T14:12:26	19.7	33.5
120056	2025-05-23T14:22:26	20.6	32.5
120057	2025-05-23T14:32:26	20.4	32.5
120058	2025-05-23T14:42:26	19.7	34
120059	2025-05-23T14:52:26	24.6	26.5
120060	2025-05-23T15:02:26	26.1	26
120061	2025-05-23T15:12:26	22.4	28
120062	2025-05-23T15:22:26	21	30
120063	2025-05-23T15:32:26	20.5	31
120064	2025-05-23T15:42:26	19.5	31
120065	2025-05-23T15:52:26	25.8	26.5
120066	2025-05-23T16:02:26	23.8	26
120067	2025-05-23T16:12:26	21.3	30
120068	2025-05-23T16:22:26	20.4	31.5
120069	2025-05-23T16:32:26	20	33
120070	2025-05-23T16:42:26	20	31.5
120071	2025-05-23T16:52:26	20.3	32.5
120072	2025-05-23T17:46:21	18.8	35
120073	2025-05-23T17:46:21	20.5	34
120074	2025-05-23T17:46:21	24	29
120075	2025-05-23T17:46:22	20.8	30
120076	2025-05-23T17:46:22	19.8	33
120077	2025-05-23T17:52:26	19.7	34.5
120078	2025-05-23T18:02:26	18.6	36
120079	2025-05-23T18:12:26	17.8	37.5
120080	2025-05-23T18:22:26	17.2	40
120081	2025-05-23T18:32:26	16.9	41.5
120082	2025-05-23T18:42:26	16.6	41.5
120083	2025-05-23T18:52:26	16.2	42
120084	2025-05-23T19:02:26	15.9	47
120085	2025-05-23T19:12:26	15.3	50
120086	2025-05-23T19:22:26	15	54
120087	2025-05-23T19:32:26	14.5	52.5
120088	2025-05-23T19:42:26	14	54
120089	2025-05-23T19:52:26	13.2	55
120090	2025-05-23T20:02:26	13.1	57.5
120091	2025-05-23T20:12:26	12.8	59
120092	2025-05-23T20:22:26	12.7	56.5
120093	2025-05-23T20:32:26	12.4	58.5
120094	2025-05-23T20:42:26	12.1	60
120095	2025-05-23T20:52:25	11.9	60
120096	2025-05-23T21:02:25	11.6	60
120097	2025-05-23T21:12:25	11.5	62.5
120098	2025-05-23T21:22:25	11.2	63.5
120099	2025-05-23T21:32:25	10.9	63
120100	2025-05-23T21:42:25	10.7	66
120101	2025-05-23T21:52:25	10.4	67
120102	2025-05-23T22:02:25	10.2	69
120103	2025-05-23T22:12:25	10	70.5
120104	2025-05-23T22:22:25	9.7	72
120105	2025-05-23T22:32:25	9.5	71.5
120106	2025-05-23T22:42:25	9.6	71
120107	2025-05-23T22:52:25	9.3	70.5
120108	2025-05-23T23:02:25	9	71
120109	2025-05-23T23:12:25	8.7	73.5
120110	2025-05-23T23:22:25	8.7	74.5
120111	2025-05-23T23:32:25	8.5	75
120112	2025-05-23T23:42:25	8.4	75.5
120113	2025-05-23T23:52:25	8.2	75.5
120114	2025-05-24T00:02:25	8.2	75.5
120115	2025-05-24T00:12:25	7.9	76.5
120116	2025-05-24T00:22:25	7.7	76.5
120117	2025-05-24T00:32:25	7.6	77
120118	2025-05-24T00:42:25	7.4	77.5
120119	2025-05-24T00:52:25	7.3	78
120120	2025-05-24T01:02:25	7.3	78.5
120121	2025-05-24T01:12:25	7.5	79
120122	2025-05-24T01:22:25	7.7	77.5
120123	2025-05-24T01:32:25	7.7	78
120124	2025-05-24T01:42:25	7.7	80
120125	2025-05-24T01:52:25	7.6	80
120126	2025-05-24T02:02:25	7.6	80
120127	2025-05-24T02:12:25	7.4	81
120128	2025-05-24T02:22:25	7.3	80
120129	2025-05-24T02:32:25	6.9	82
120130	2025-05-24T02:42:25	6.7	83
120131	2025-05-24T02:52:25	6.6	82.5
120132	2025-05-24T03:02:25	6.3	83.5
120133	2025-05-24T03:12:25	6.3	83.5
120134	2025-05-24T03:22:25	6.1	84.5
120135	2025-05-24T03:32:25	6.1	85
120136	2025-05-24T03:42:25	6	85
120137	2025-05-24T03:52:25	5.9	85.5
120138	2025-05-24T04:02:25	5.9	86
120139	2025-05-24T04:12:25	6	85.5
120140	2025-05-24T04:22:25	5.9	85.5
120141	2025-05-24T04:32:25	6	86
120142	2025-05-24T04:42:25	6.2	86
120143	2025-05-24T04:52:25	6.3	85.5
120144	2025-05-24T05:02:25	6.6	83
120145	2025-05-24T05:12:25	6.8	83
120146	2025-05-24T05:22:25	7.1	85
120147	2025-05-24T05:32:25	7.1	84
120148	2025-05-24T05:42:25	7.4	82.5
120149	2025-05-24T05:52:25	7.5	81.5
120150	2025-05-24T06:02:25	7.9	78.5
120151	2025-05-24T06:12:25	8.2	77
120152	2025-05-24T06:22:25	8.7	77.5
120153	2025-05-24T06:32:25	9.2	73
120154	2025-05-24T06:42:25	9.7	73
120155	2025-05-24T06:52:25	10	70
120156	2025-05-24T07:02:25	10.3	69
120157	2025-05-24T07:12:25	10.6	68
120158	2025-05-24T07:22:25	10.8	67.5
120159	2025-05-24T07:32:25	11.2	66.5
120160	2025-05-24T07:42:25	11.6	66
120161	2025-05-24T07:52:25	12	62.5
120162	2025-05-24T08:02:25	12.4	61
120163	2025-05-24T08:12:25	12.6	59
120164	2025-05-24T08:22:25	12.9	60
120165	2025-05-24T08:32:25	13.1	59.5
120166	2025-05-24T08:42:25	13.3	59.5
120167	2025-05-24T08:52:25	13.6	58
120168	2025-05-24T09:02:25	14	56.5
120169	2025-05-24T09:12:25	14.2	52.5
120170	2025-05-24T09:22:25	14.8	48
120171	2025-05-24T09:32:25	15	44.5
120172	2025-05-24T09:42:25	15.3	37
120173	2025-05-24T09:52:25	16	40
120174	2025-05-24T10:02:25	16.3	34
120175	2025-05-24T10:12:25	16.3	37
120176	2025-05-24T10:22:25	16.4	38
120177	2025-05-24T10:32:25	16.5	37.5
120178	2025-05-24T10:42:25	17.1	31.5
120179	2025-05-24T10:52:25	17.4	31.5
120180	2025-05-24T11:02:25	18	32.5
120181	2025-05-24T11:12:25	18.1	33
120182	2025-05-24T11:22:25	18.6	31.5
120183	2025-05-24T11:32:25	18.6	33
120184	2025-05-24T11:42:25	18.7	31.5
120185	2025-05-24T11:52:25	19.8	31.5
120186	2025-05-24T12:02:25	22.5	28.5
120187	2025-05-24T12:12:25	24.2	27.5
120188	2025-05-24T12:22:25	24.6	26.5
120189	2025-05-24T12:32:24	26.5	25.5
120190	2025-05-24T12:42:24	27.2	23.5
120191	2025-05-24T12:52:24	30	22.5
120192	2025-05-24T13:02:24	30.7	22
120193	2025-05-24T13:12:24	28.2	25
120194	2025-05-24T13:22:24	29	22
120195	2025-05-24T13:32:24	29.8	21
120196	2025-05-24T13:42:24	26.7	24.5
120197	2025-05-24T13:52:24	26.2	25.5
120198	2025-05-24T14:02:24	25.7	27
120199	2025-05-24T14:12:24	25.4	26.5
120200	2025-05-24T14:22:24	24.1	28
120201	2025-05-24T14:32:24	24.6	28
120202	2025-05-24T14:42:24	24.9	27.5
120203	2025-05-24T14:52:24	24.8	28
120204	2025-05-24T15:02:24	24.3	29
120205	2025-05-24T15:12:24	24	28
120206	2025-05-24T15:22:24	23.9	28.5
120207	2025-05-24T15:32:24	23.5	29.5
120208	2025-05-24T15:42:24	23.1	30.5
120209	2025-05-24T15:52:24	22.7	32
120210	2025-05-24T16:02:24	21.6	32.5
120211	2025-05-24T16:12:24	21.3	34
120212	2025-05-24T16:22:24	21.2	35.5
120213	2025-05-24T16:32:24	20.9	35
120214	2025-05-24T16:42:24	20.6	35.5
120215	2025-05-24T16:52:24	20.1	37
120216	2025-05-24T17:02:24	19.7	38
120217	2025-05-24T17:12:24	19.6	39
120218	2025-05-24T17:22:24	19	42
120219	2025-05-24T17:32:24	18.5	42.5
120220	2025-05-24T17:42:24	18	45.5
120221	2025-05-24T17:52:24	17.6	50.5
120222	2025-05-24T18:02:24	16.9	56
120223	2025-05-24T18:12:24	16.5	54.5
120224	2025-05-24T18:22:24	15.7	64
120225	2025-05-24T18:32:24	14.9	66.5
120226	2025-05-24T18:42:24	13.8	91.5
120227	2025-05-24T18:52:24	13.3	99
120228	2025-05-24T19:02:24	13.5	99.5
120229	2025-05-24T19:12:24	13.6	100
120230	2025-05-24T19:22:24	13.9	100
120231	2025-05-24T19:32:24	13.8	100
120232	2025-05-24T19:42:24	13.7	100
120233	2025-05-24T19:52:24	13.8	100
120234	2025-05-24T20:02:24	13.6	100
120235	2025-05-24T20:12:24	13.5	100
120236	2025-05-24T20:22:24	13.5	100
120237	2025-05-24T20:32:24	13.3	100
120238	2025-05-24T20:42:24	13.3	100
120239	2025-05-24T20:52:24	13.2	100
120240	2025-05-24T21:02:24	13.1	100
120241	2025-05-24T21:12:24	13.3	100
120242	2025-05-24T21:22:24	13.2	100
120243	2025-05-24T21:32:24	13.1	100
120244	2025-05-24T21:42:24	12.7	100
120245	2025-05-24T21:52:24	12.9	100
120246	2025-05-24T22:02:24	12.4	100
120247	2025-05-24T22:12:24	12.4	100
120248	2025-05-24T22:22:24	12.4	100
120249	2025-05-24T22:32:24	12.6	100
120250	2025-05-24T22:42:24	12.3	100
120251	2025-05-24T22:52:24	12.3	100
120252	2025-05-24T23:02:24	12.5	100
120253	2025-05-24T23:22:24	12.5	100
120254	2025-05-24T23:32:24	12.5	100
120255	2025-05-24T23:42:24	12.6	100
120256	2025-05-24T23:52:24	12.5	100
120257	2025-05-25T00:02:24	12.6	100
120258	2025-05-25T00:12:23	12.5	100
120259	2025-05-25T00:22:24	12.6	100
120260	2025-05-25T00:32:24	12.6	100
120261	2025-05-25T00:42:23	12.5	100
120262	2025-05-25T00:52:23	12.6	100
120263	2025-05-25T01:02:24	12.6	100
120264	2025-05-25T01:12:23	12.5	100
120265	2025-05-25T01:22:23	12.5	100
120266	2025-05-25T01:32:23	12.6	100
120267	2025-05-25T01:52:23	12.6	100
120268	2025-05-25T02:02:24	12.6	100
120269	2025-05-25T02:12:24	12.6	99.5
120270	2025-05-25T02:22:23	12.6	98.5
120271	2025-05-25T02:32:23	12.6	97.5
120272	2025-05-25T02:42:23	12.6	97
120273	2025-05-25T02:52:23	12.7	96
120274	2025-05-25T03:02:23	12.7	96
120275	2025-05-25T03:12:23	13	96
120276	2025-05-25T03:22:23	13.3	96
120277	2025-05-25T03:32:23	13.4	96
120278	2025-05-25T03:42:23	12.6	96
120279	2025-05-25T03:52:23	11.9	96
120280	2025-05-25T04:02:23	11.7	96
120281	2025-05-25T04:12:23	11.7	96
120282	2025-05-25T04:22:23	12	96
120283	2025-05-25T04:32:23	12	96
120284	2025-05-25T04:42:23	12.3	96
120285	2025-05-25T04:52:23	12.6	96
120286	2025-05-25T05:02:23	12.8	96
120287	2025-05-25T05:12:23	13.1	96
120288	2025-05-25T05:22:23	13.4	96
120289	2025-05-25T05:32:23	13.5	96
120290	2025-05-25T05:42:23	13.6	96
120291	2025-05-25T05:52:23	13.8	96
120292	2025-05-25T06:02:23	13.7	96
120293	2025-05-25T06:12:23	13.4	96
120294	2025-05-25T06:22:23	13.3	96
120295	2025-05-25T06:32:23	13.6	96
120296	2025-05-25T06:42:23	13.9	96
120297	2025-05-25T06:52:23	14.1	96
120298	2025-05-25T07:02:23	13.8	96
120299	2025-05-25T07:12:23	13.7	96
120300	2025-05-25T07:22:23	13.7	96.5
120301	2025-05-25T07:32:23	13.7	96.5
120302	2025-05-25T07:42:23	13.9	96.5
120303	2025-05-25T07:52:23	14	96.5
120304	2025-05-25T08:02:23	14.1	96.5
120305	2025-05-25T08:12:23	14.5	96.5
120306	2025-05-25T08:22:23	15	96.5
120307	2025-05-25T08:32:23	15.7	96.5
120308	2025-05-25T08:42:23	16	96.5
120309	2025-05-25T08:52:23	16.3	96.5
120310	2025-05-25T09:02:23	16.7	96.5
120311	2025-05-25T09:12:23	17.5	96.5
120312	2025-05-25T09:22:23	17.7	96.5
120313	2025-05-25T09:32:23	18.4	96.5
120314	2025-05-25T09:42:23	18.7	96.5
120315	2025-05-25T09:52:23	18.9	96.5
120316	2025-05-25T10:02:23	18.7	99.5
120317	2025-05-25T10:12:23	19.7	100
120318	2025-05-25T10:32:23	19.9	100
120319	2025-05-25T10:42:23	19.8	95.5
120320	2025-05-25T10:52:23	20.4	80.5
120321	2025-05-25T11:02:41	20.7	63
120322	2025-05-25T11:12:23	20.7	61
120323	2025-05-25T11:22:23	21.4	59
120324	2025-05-25T11:32:23	21.3	58.5
120325	2025-05-25T11:42:23	21.2	60
120326	2025-05-25T11:52:23	21.3	58
120327	2025-05-25T12:02:23	20.5	59
120328	2025-05-25T12:12:23	20.2	60.5
120329	2025-05-25T12:22:22	20	61.5
120330	2025-05-25T12:32:22	20.8	60.5
120331	2025-05-25T12:42:22	21.5	60
120332	2025-05-25T12:52:22	22.7	56.5
120333	2025-05-25T13:02:22	23.4	53
120334	2025-05-25T13:12:22	22.3	56
120335	2025-05-25T13:22:22	25.1	49
120336	2025-05-25T13:32:22	24.5	50.5
120337	2025-05-25T13:42:22	23.2	52.5
120338	2025-05-25T13:52:22	22.2	55.5
120339	2025-05-25T14:02:22	21.5	57.5
120340	2025-05-25T14:12:22	21.6	57
120341	2025-05-25T14:22:22	22	57
120342	2025-05-25T14:32:22	22.3	54.5
120343	2025-05-25T14:42:22	21.9	56
120344	2025-05-25T14:52:22	22.2	55
120345	2025-05-25T15:02:22	24.4	51.5
120346	2025-05-25T15:12:22	26.9	45.5
120347	2025-05-25T15:22:22	25.6	47
120348	2025-05-25T15:32:22	24.6	49.5
120349	2025-05-25T15:42:22	24.8	49
120350	2025-05-25T15:52:22	24	50.5
120351	2025-05-25T16:02:22	23.2	53
120352	2025-05-25T16:12:22	22.9	54
120353	2025-05-25T16:22:22	22.5	54
120354	2025-05-25T16:32:22	22.5	54.5
120355	2025-05-25T16:42:22	22.3	55
120356	2025-05-25T16:52:22	21.9	54.5
120357	2025-05-25T17:02:22	21.7	55.5
120358	2025-05-25T17:12:22	21.2	56.5
120359	2025-05-25T17:22:22	21.1	57.5
120360	2025-05-25T17:32:22	20.9	59
120361	2025-05-25T17:42:22	20.8	59.5
120362	2025-05-25T17:52:22	20.9	60
120363	2025-05-25T18:02:22	20.6	60.5
120364	2025-05-25T18:12:22	20.4	62
120365	2025-05-25T18:22:22	20.2	62
120366	2025-05-25T18:32:22	20	61.5
120367	2025-05-25T18:42:22	20	62
120368	2025-05-25T18:52:22	19.8	70.5
120369	2025-05-25T19:02:22	16.7	93.5
120370	2025-05-25T19:12:22	16.1	98
120371	2025-05-25T19:22:22	16.3	96
120372	2025-05-25T19:32:22	16.4	98
120373	2025-05-25T19:42:22	16.2	92
120374	2025-05-25T19:52:22	16.3	95
120375	2025-05-25T20:02:22	16.4	95
120376	2025-05-25T20:12:22	16.3	95
120377	2025-05-25T20:22:22	16.1	92
120378	2025-05-25T20:32:22	16.1	93.5
120379	2025-05-25T20:42:22	16.1	96.5
120380	2025-05-25T20:52:22	16.2	99
120381	2025-05-25T21:02:22	16.4	99
120382	2025-05-25T21:12:22	16.2	96
120383	2025-05-25T21:22:22	15.8	95
120384	2025-05-25T21:32:22	15.6	97
120385	2025-05-25T21:42:22	15.3	97.5
120386	2025-05-25T21:52:22	15.1	98
120387	2025-05-25T22:02:22	15	98
120388	2025-05-25T22:12:22	14.8	98
120389	2025-05-25T22:22:22	14.8	98
120390	2025-05-25T22:32:22	14.7	97
120391	2025-05-25T22:42:22	14.7	96
120392	2025-05-25T22:52:22	14.7	96.5
120393	2025-05-25T23:02:22	14.8	96
120394	2025-05-25T23:12:22	14.6	96
120395	2025-05-25T23:22:22	14.6	96.5
120396	2025-05-25T23:32:22	14.6	97
120397	2025-05-25T23:42:21	14.7	97
120398	2025-05-25T23:52:21	14.7	97
120399	2025-05-26T00:02:21	14.7	96.5
120400	2025-05-26T00:12:21	14.6	96
120401	2025-05-26T00:22:21	14.6	96
120402	2025-05-26T00:32:21	14.6	96
120403	2025-05-26T00:42:21	14.7	95
120404	2025-05-26T00:52:21	14.6	95
120405	2025-05-26T01:02:21	14.6	95
120406	2025-05-26T01:12:21	14.6	95
120407	2025-05-26T01:22:21	14.4	95.5
120408	2025-05-26T01:32:21	14.3	96
120409	2025-05-26T01:42:21	14.2	96.5
120410	2025-05-26T01:52:21	14	96.5
120411	2025-05-26T02:02:21	14.2	96.5
120412	2025-05-26T02:12:21	14.2	96
120413	2025-05-26T02:22:21	14.2	95.5
120414	2025-05-26T02:32:21	14.3	95.5
120415	2025-05-26T02:42:21	14.1	95.5
120416	2025-05-26T02:52:21	14	95.5
120417	2025-05-26T03:02:21	13.9	96
120418	2025-05-26T03:12:21	13.7	97
120419	2025-05-26T03:22:21	13.5	97.5
120420	2025-05-26T03:32:21	13.3	97
120421	2025-05-26T03:42:21	13.2	96
120422	2025-05-26T03:52:21	13.2	94
120423	2025-05-26T04:02:21	13.2	93
120424	2025-05-26T04:12:21	13.1	91
120425	2025-05-26T04:22:21	13.1	91
120426	2025-05-26T04:32:21	13.3	90
120427	2025-05-26T04:42:21	13.7	90
120428	2025-05-26T04:52:21	13.6	90.5
120429	2025-05-26T05:02:21	13.7	91
120430	2025-05-26T05:12:21	13.8	90.5
120431	2025-05-26T05:22:21	14	86.5
120432	2025-05-26T05:32:21	14	81.5
120433	2025-05-26T05:42:21	14.1	80
120434	2025-05-26T05:52:21	13.8	82
120435	2025-05-26T06:02:21	13.6	80.5
120436	2025-05-26T06:12:21	13.9	81
120437	2025-05-26T06:22:21	14.2	76.5
120438	2025-05-26T06:32:21	14.6	74.5
120439	2025-05-26T06:42:21	15	73
120440	2025-05-26T06:52:21	15.3	72
120441	2025-05-26T07:02:21	15.4	70
120442	2025-05-26T07:12:21	15.4	69.5
120443	2025-05-26T07:22:21	15.8	67.5
120444	2025-05-26T07:32:21	15.6	65.5
120445	2025-05-26T07:42:21	15.8	68
120446	2025-05-26T07:52:21	15.9	64
120447	2025-05-26T08:02:21	16.4	65
120448	2025-05-26T08:12:21	16.3	63
120449	2025-05-26T08:22:21	16.8	58.5
120450	2025-05-26T08:32:21	16.7	58.5
120451	2025-05-26T08:42:21	16.8	55.5
120452	2025-05-26T08:52:21	16.9	55.5
120453	2025-05-26T09:02:21	17.4	55
120454	2025-05-26T09:12:21	17.8	55
120455	2025-05-26T09:22:21	18	55
120456	2025-05-26T09:32:21	18.1	54
120457	2025-05-26T09:42:21	18.4	50.5
120458	2025-05-26T09:52:21	18.6	52
120459	2025-05-26T10:02:21	18.1	53
120460	2025-05-26T10:12:21	18.9	51
120461	2025-05-26T10:22:21	18.7	52.5
120462	2025-05-26T10:32:21	18.7	53
120463	2025-05-26T10:42:21	18.8	50.5
120464	2025-05-26T10:52:21	19.1	51
120465	2025-05-26T11:02:21	18.8	52
120466	2025-05-26T11:12:20	19.6	50
120467	2025-05-26T11:22:20	19.6	49
120468	2025-05-26T11:32:20	19.5	47.5
120469	2025-05-26T11:42:20	19.6	48.5
120470	2025-05-26T11:52:20	20.4	46
120471	2025-05-26T12:02:20	20	45.5
120472	2025-05-26T12:12:20	20.7	47
120473	2025-05-26T12:22:20	24.9	37
120474	2025-05-26T12:32:20	23.4	40.5
120475	2025-05-26T12:42:20	22.6	42
120476	2025-05-26T12:52:20	24.5	37
120477	2025-05-26T13:02:20	21.9	43
120478	2025-05-26T13:12:20	22	45
120479	2025-05-26T13:22:20	26.7	35
120480	2025-05-26T13:32:20	26.1	34.5
120481	2025-05-26T13:42:20	23.7	36.5
120482	2025-05-26T13:52:20	25.7	35
120483	2025-05-26T14:02:20	24.1	39.5
120484	2025-05-26T14:12:20	23.7	41
120485	2025-05-26T14:22:20	25.6	37
120486	2025-05-26T14:32:20	28.3	32.5
120487	2025-05-26T14:42:20	25.4	35
120488	2025-05-26T14:52:20	27.5	32.5
120489	2025-05-26T15:02:20	27.7	31
120490	2025-05-26T15:12:20	28	31
120491	2025-05-26T15:22:20	27.2	33
120492	2025-05-26T15:32:20	24.5	36
120493	2025-05-26T15:42:20	24.1	37
120494	2025-05-26T15:52:20	24.3	35.5
120495	2025-05-26T16:02:20	26	34.5
120496	2025-05-26T16:12:20	25.9	33.5
120497	2025-05-26T16:22:20	24.7	34.5
120498	2025-05-26T16:32:20	23	37.5
120499	2025-05-26T16:42:20	23.2	38
120500	2025-05-26T17:12:20	23.3	39.5
120501	2025-05-26T17:22:20	22.6	39.5
120502	2025-05-26T17:32:20	22.2	40.5
120503	2025-05-26T17:42:20	21.4	42.5
120504	2025-05-26T17:52:20	21.4	41
120505	2025-05-26T18:12:20	21.3	43
120506	2025-05-26T18:22:20	20.9	44
120507	2025-05-26T18:32:20	20	47.5
120508	2025-05-26T18:42:20	19.2	50
120509	2025-05-26T18:52:20	18.5	53
120510	2025-05-26T19:02:20	18.2	55.5
120511	2025-05-26T19:12:20	17.4	57.5
120512	2025-05-26T19:22:20	16.9	55.5
120513	2025-05-26T19:32:20	16.9	56
120514	2025-05-26T19:42:20	16.6	57.5
120515	2025-05-26T19:52:20	16.2	60
120516	2025-05-26T20:02:20	16	60.5
120517	2025-05-26T20:12:20	15.7	62
120518	2025-05-26T20:22:20	15.4	63.5
120519	2025-05-26T20:32:20	15.1	65
120520	2025-05-26T20:42:20	14.9	66
120521	2025-05-26T20:52:20	15.1	66.5
120522	2025-05-26T21:02:20	14.9	67
120523	2025-05-26T21:12:20	15	65
120524	2025-05-26T21:22:20	14.9	66.5
120525	2025-05-26T21:32:20	14.7	68
120526	2025-05-26T21:42:20	14.6	69
120527	2025-05-26T21:52:20	14.6	69
120528	2025-05-26T22:02:19	14.6	69.5
120529	2025-05-26T22:12:19	14.5	70.5
120530	2025-05-26T22:22:19	14.4	70.5
120531	2025-05-26T22:32:19	14.1	72.5
120532	2025-05-26T22:42:20	14	72.5
120533	2025-05-26T22:52:19	14.1	72.5
120534	2025-05-26T23:02:19	14	72.5
120535	2025-05-26T23:12:19	14	72
120536	2025-05-26T23:22:19	14	72
120537	2025-05-26T23:32:19	13.9	74
120538	2025-05-26T23:42:19	13.8	74
120539	2025-05-26T23:52:19	13.8	74
120540	2025-05-27T00:02:19	13.6	75
120541	2025-05-27T00:12:19	13.3	76
120542	2025-05-27T00:22:19	13.2	77
120543	2025-05-27T00:32:19	12.9	77.5
120544	2025-05-27T00:42:19	12.9	78
120545	2025-05-27T00:52:19	12.7	78
120546	2025-05-27T01:02:19	12.6	78.5
120547	2025-05-27T01:12:19	12.5	79
120548	2025-05-27T01:22:19	12.4	79
120549	2025-05-27T01:32:19	12.3	80
120550	2025-05-27T01:42:19	12.1	80.5
120551	2025-05-27T01:52:19	12	81
120552	2025-05-27T02:02:19	11.7	81.5
120553	2025-05-27T02:12:19	11.7	81.5
120554	2025-05-27T02:22:19	11.5	82
120555	2025-05-27T02:32:19	11.3	82
120556	2025-05-27T02:42:19	11.5	82
120557	2025-05-27T02:52:19	11.3	82.5
120558	2025-05-27T03:02:19	11.3	83
120559	2025-05-27T03:12:19	11.1	82.5
120560	2025-05-27T03:22:19	11	83
120561	2025-05-27T03:32:19	11.1	83
120562	2025-05-27T03:42:19	11.2	82
120563	2025-05-27T03:52:19	11.3	81.5
120564	2025-05-27T04:02:19	11.4	81.5
120565	2025-05-27T04:12:19	11.5	82
120566	2025-05-27T04:22:19	11.6	81
120567	2025-05-27T04:32:19	11.8	82
120568	2025-05-27T04:42:19	12	82
120569	2025-05-27T04:52:19	12	82.5
120570	2025-05-27T05:02:19	12.4	81
120571	2025-05-27T05:22:19	12.8	80
120572	2025-05-27T05:32:19	13	80
120573	2025-05-27T05:42:19	13.4	80.5
120574	2025-05-27T05:52:19	13.6	80
120575	2025-05-27T06:02:19	13.8	77
120576	2025-05-27T06:12:19	14	75
120577	2025-05-27T06:22:19	14.3	74
120578	2025-05-27T06:32:19	14.3	73.5
120579	2025-05-27T06:42:19	14.4	85.5
120580	2025-05-27T06:52:19	14.7	79
120581	2025-05-27T07:02:19	15.1	73
120582	2025-05-27T07:12:19	15.5	72
120583	2025-05-27T07:22:19	15.7	69.5
120584	2025-05-27T07:32:19	16	68.5
120585	2025-05-27T07:42:19	16.1	67
120586	2025-05-27T07:52:19	16.2	65
120587	2025-05-27T08:02:19	16.3	65.5
120588	2025-05-27T08:12:19	16.6	64.5
120589	2025-05-27T08:22:19	16.8	65
120590	2025-05-27T08:32:19	17.2	62
120591	2025-05-27T08:42:19	17.9	61
120592	2025-05-27T08:52:19	17.9	60.5
120593	2025-05-27T09:02:19	18.8	57
120594	2025-05-27T09:12:19	19	55
120595	2025-05-27T09:22:19	18.5	57
120596	2025-05-27T09:32:19	18.4	57
120597	2025-05-27T09:42:19	19.1	55
120598	2025-05-27T09:52:19	19.6	54.5
120599	2025-05-27T10:02:19	19.6	54
120600	2025-05-27T10:12:19	19.4	54.5
120601	2025-05-27T10:22:19	20	54
120602	2025-05-27T10:32:19	19.9	53.5
120603	2025-05-27T10:42:19	20.4	53
120604	2025-05-27T10:52:19	20.3	53
120605	2025-05-27T11:02:19	20.5	51
120606	2025-05-27T11:12:18	21.1	50.5
120607	2025-05-27T11:22:18	20.5	53
120608	2025-05-27T11:32:18	19.9	53.5
120609	2025-05-27T11:42:18	20.2	52.5
120610	2025-05-27T11:52:18	21.4	50
120611	2025-05-27T12:02:18	22.8	45.5
120612	2025-05-27T12:12:18	22.5	46
120613	2025-05-27T12:22:18	21.7	48
120614	2025-05-27T12:32:18	22.6	45.5
120615	2025-05-27T12:42:18	23.4	44.5
120616	2025-05-27T12:52:18	22.8	45.5
120617	2025-05-27T13:02:18	26.1	39
120618	2025-05-27T13:12:18	27.2	36.5
120619	2025-05-27T13:22:18	27	37
120620	2025-05-27T13:32:18	26.6	38
120621	2025-05-27T13:42:18	26.6	37.5
120622	2025-05-27T13:52:18	28.6	35.5
120623	2025-05-27T14:02:18	28.4	35
120624	2025-05-27T14:12:18	28.5	35.5
120625	2025-05-27T14:22:18	29	34.5
120626	2025-05-27T14:32:18	28.1	35
120627	2025-05-27T14:42:18	26	38
120628	2025-05-27T14:52:18	25.5	40
120629	2025-05-27T15:02:18	28.4	36
120630	2025-05-27T15:12:18	26.7	37
120631	2025-05-27T15:22:18	25.5	40
120632	2025-05-27T15:32:18	24.9	41
120633	2025-05-27T15:42:18	25.7	40.5
120634	2025-05-27T15:52:18	24.6	40.5
120635	2025-05-27T16:02:18	25.1	41
120636	2025-05-27T16:12:18	24.2	42
120637	2025-05-27T16:22:18	24.4	42
120638	2025-05-27T16:32:18	24.9	41.5
120639	2025-05-27T16:42:18	24.9	40.5
120640	2025-05-27T16:52:18	24.6	41.5
120641	2025-05-27T17:02:18	23	45
120642	2025-05-27T17:12:18	22.5	46.5
120643	2025-05-27T17:22:18	22	47.5
120644	2025-05-27T17:32:18	21.6	48.5
120645	2025-05-27T17:42:18	21.8	48.5
120646	2025-05-27T17:52:18	21.7	48.5
120647	2025-05-27T18:02:18	21.5	49.5
120648	2025-05-27T18:12:18	21.2	50
120649	2025-05-27T18:22:18	20.9	51.5
120650	2025-05-27T18:32:18	20.7	52
120651	2025-05-27T18:42:18	20.4	53
120652	2025-05-27T18:52:18	20.3	53.5
120653	2025-05-27T19:02:18	20.1	54
120654	2025-05-27T19:12:18	20	54.5
120655	2025-05-27T19:22:18	19.9	55
120656	2025-05-27T19:32:18	19.7	56
120657	2025-05-27T19:42:18	19.6	58.5
120658	2025-05-27T19:52:18	19.2	59.5
120659	2025-05-27T20:02:18	19.1	60.5
120660	2025-05-27T20:12:18	19.1	60
120661	2025-05-27T20:22:18	19	60.5
120662	2025-05-27T20:32:18	18.8	60.5
120663	2025-05-27T20:42:39	18.9	59.5
120664	2025-05-27T20:52:18	18.9	59.5
120665	2025-05-27T21:02:18	18.8	59.5
120666	2025-05-27T21:12:18	18.7	59.5
120667	2025-05-27T21:22:18	18.7	59.5
120668	2025-05-27T21:32:18	18.6	60
120669	2025-05-27T21:42:17	18.7	60.5
120670	2025-05-27T21:52:17	18.5	60.5
120671	2025-05-27T22:02:17	18.5	61
120672	2025-05-27T22:12:17	18.4	61
120673	2025-05-27T22:22:17	18.5	61
120674	2025-05-27T22:32:17	18.4	61.5
120675	2025-05-27T22:42:17	18.2	62.5
120676	2025-05-27T22:52:17	18	64.5
120677	2025-05-27T23:02:17	17.9	63
120678	2025-05-27T23:12:17	18.2	62.5
120679	2025-05-27T23:22:17	18.1	62.5
120680	2025-05-27T23:32:17	18.2	62.5
120681	2025-05-27T23:42:17	18.1	63
120682	2025-05-27T23:52:17	18	62.5
120683	2025-05-28T00:02:17	18.1	62.5
120684	2025-05-28T00:12:17	18	62
120685	2025-05-28T00:22:17	18.1	61.5
120686	2025-05-28T00:32:17	18.2	61
120687	2025-05-28T00:42:17	18.2	61
120688	2025-05-28T00:52:17	18.3	61
120689	2025-05-28T01:02:17	18.3	60.5
120690	2025-05-28T01:12:17	18.4	60.5
120691	2025-05-28T01:22:17	18.4	60
120692	2025-05-28T01:32:17	18.4	60.5
120693	2025-05-28T01:42:17	18.3	61
120694	2025-05-28T01:52:17	17.4	71.5
120695	2025-05-28T02:02:17	17.2	66.5
120696	2025-05-28T02:12:17	17.7	64.5
120697	2025-05-28T02:22:17	17.9	63.5
120698	2025-05-28T02:32:17	17.9	63
120699	2025-05-28T02:42:17	17.9	63
120700	2025-05-28T02:52:17	18	63.5
120701	2025-05-28T03:02:17	18	63.5
120702	2025-05-28T03:12:17	17.9	64.5
120703	2025-05-28T03:22:17	17.9	65
120704	2025-05-28T03:32:17	17.8	65.5
120705	2025-05-28T03:42:17	17.8	65.5
120706	2025-05-28T03:52:17	17.6	66
120707	2025-05-28T04:02:17	17.8	66.5
120708	2025-05-28T04:12:17	17.7	66.5
120709	2025-05-28T04:22:17	17.6	67.5
120710	2025-05-28T04:32:17	17	78
120711	2025-05-28T04:42:17	17.1	74
120712	2025-05-28T04:52:17	16.9	73
120713	2025-05-28T05:02:17	15.8	84
120714	2025-05-28T05:12:17	15.2	94
120715	2025-05-28T05:22:17	15	95
120716	2025-05-28T05:32:17	15.1	92
120717	2025-05-28T05:42:17	15.4	92
120718	2025-05-28T05:52:17	15.4	92
120719	2025-05-28T06:02:17	15.9	90.5
120720	2025-05-28T06:12:17	16.1	85.5
120721	2025-05-28T06:22:17	16.2	84.5
120722	2025-05-28T06:32:17	15.6	87.5
120723	2025-05-28T06:42:17	14.6	98
120724	2025-05-28T06:52:17	14.3	100
120725	2025-05-28T07:02:17	14.1	100
120726	2025-05-28T07:12:17	14	100
120727	2025-05-28T07:22:17	13.9	95
120728	2025-05-28T07:32:17	14.1	94.5
120729	2025-05-28T07:42:17	14.2	94.5
120730	2025-05-28T07:52:17	14.1	94.5
120731	2025-05-28T08:02:17	14.1	94.5
120732	2025-05-28T08:12:17	14.1	95
120733	2025-05-28T08:22:17	13.8	95
120734	2025-05-28T08:32:16	13.8	95
120735	2025-05-28T08:42:16	13.7	95
120736	2025-05-28T08:52:16	13.7	95
120737	2025-05-28T09:02:16	13.7	95
120738	2025-05-28T09:12:16	14.1	95
120739	2025-05-28T09:22:16	14.2	95
120740	2025-05-28T09:32:16	14.3	95
120741	2025-05-28T09:42:16	14.4	95.5
120742	2025-05-28T09:52:16	14.4	95.5
120743	2025-05-28T10:02:16	14	95.5
120744	2025-05-28T10:12:16	13.8	95.5
120745	2025-05-28T10:22:16	14	95.5
120746	2025-05-28T10:32:16	14.1	95.5
120747	2025-05-28T10:42:16	14.1	95.5
120748	2025-05-28T10:52:16	14.2	95.5
120749	2025-05-28T11:02:16	13.7	95.5
120750	2025-05-28T11:12:16	13.7	95.5
120751	2025-05-28T11:22:16	13.6	95.5
120752	2025-05-28T11:32:16	14	95.5
120753	2025-05-28T11:42:16	13.8	95.5
120754	2025-05-28T11:52:16	13.4	95.5
120755	2025-05-28T12:02:16	13.4	95.5
120756	2025-05-28T12:12:16	13.6	95.5
120757	2025-05-28T12:22:16	14	95.5
120758	2025-05-28T12:32:16	14.1	96
120759	2025-05-28T12:42:16	14.3	95.5
120760	2025-05-28T12:52:16	14.5	96
120761	2025-05-28T13:02:16	14.9	95.5
120762	2025-05-28T13:12:16	14.9	96
120763	2025-05-28T13:22:16	14.9	96
120764	2025-05-28T13:32:16	15	96
120765	2025-05-28T13:42:16	15.2	96
120766	2025-05-28T13:52:16	14.9	96
120767	2025-05-28T14:02:16	14.4	96
120768	2025-05-28T14:12:16	14.8	96
120769	2025-05-28T14:22:16	15.6	96
120770	2025-05-28T14:32:16	16.3	96
120771	2025-05-28T14:42:16	19.3	96
120772	2025-05-28T14:52:16	18.7	96
120773	2025-05-28T15:02:16	17.6	96
120774	2025-05-28T15:12:16	15.8	96
120775	2025-05-28T15:22:16	15.1	96
120776	2025-05-28T15:32:16	15	96
120777	2025-05-28T15:42:16	15.8	96
120778	2025-05-28T15:52:16	15.7	96.5
120779	2025-05-28T16:02:16	15.7	96.5
120780	2025-05-28T16:12:16	15.5	96.5
120781	2025-05-28T16:22:16	15.2	96.5
120782	2025-05-28T16:32:16	14.6	96
120783	2025-05-28T16:42:16	14.6	96
120784	2025-05-28T16:52:16	14.4	96
120785	2025-05-28T17:02:16	14.4	96.5
120786	2025-05-28T17:12:16	14.4	96.5
120787	2025-05-28T17:22:16	14.7	96.5
120788	2025-05-28T17:32:16	14.7	96.5
120789	2025-05-28T17:42:16	14.5	96.5
120790	2025-05-28T17:52:16	14.5	96.5
120791	2025-05-28T18:02:16	14.3	96.5
120792	2025-05-28T18:12:16	14.2	96.5
120793	2025-05-28T18:22:16	14.2	96.5
120794	2025-05-28T18:32:16	14.1	96.5
120795	2025-05-28T18:42:16	14.1	97.5
120796	2025-05-28T18:52:16	14.2	97
120797	2025-05-28T19:02:16	14.4	97
120798	2025-05-28T19:12:16	14.2	97
120799	2025-05-28T19:22:16	14.1	97
120800	2025-05-28T19:32:16	14.1	97
120801	2025-05-28T19:42:16	13.9	97
120802	2025-05-28T19:52:16	13.9	97
120803	2025-05-28T20:02:16	14	97
120804	2025-05-28T20:12:16	13.9	97
120805	2025-05-28T20:22:16	13.8	97
120806	2025-05-28T20:32:16	13.7	97
120807	2025-05-28T20:42:16	13.7	97
120808	2025-05-28T20:52:15	13.7	97
120809	2025-05-28T21:02:15	13.6	97
120810	2025-05-28T21:12:15	13.6	97
120811	2025-05-28T21:22:15	13.7	97
120812	2025-05-28T21:32:15	13.6	97
120813	2025-05-28T21:42:15	13.8	97
120814	2025-05-28T21:52:15	13.9	97
120815	2025-05-28T22:02:15	14.1	97
120816	2025-05-28T22:12:15	13.9	97
120817	2025-05-28T22:22:15	14.1	97
120818	2025-05-28T22:32:15	14	97
120819	2025-05-28T22:42:15	14	97
120820	2025-05-28T22:52:15	13.9	97
120821	2025-05-28T23:02:15	13.9	97
120822	2025-05-28T23:12:15	13.7	97
120823	2025-05-28T23:22:15	13.7	97
120824	2025-05-28T23:32:15	13.7	97
120825	2025-05-28T23:42:15	13.6	97
120826	2025-05-28T23:52:15	13.6	97
120827	2025-05-29T00:02:15	13.6	97
120828	2025-05-29T00:12:15	13.5	97
120829	2025-05-29T00:22:15	13.7	97
120830	2025-05-29T00:32:15	13.5	97
120831	2025-05-29T00:42:15	13.6	97
120832	2025-05-29T00:52:15	13.5	97
120833	2025-05-29T01:02:15	13.5	97
120834	2025-05-29T01:12:15	13.4	97
120835	2025-05-29T01:22:15	13.4	97
120836	2025-05-29T01:32:15	13.2	97
120837	2025-05-29T01:42:15	13.2	97
120838	2025-05-29T01:52:15	13.2	97
120839	2025-05-29T02:02:15	13.1	97
120840	2025-05-29T02:12:15	13.1	97
120841	2025-05-29T02:22:15	13	97
120842	2025-05-29T02:32:15	13	97
120843	2025-05-29T02:42:15	13	97
120844	2025-05-29T02:52:15	13.1	97
120845	2025-05-29T03:02:15	13.1	97
120846	2025-05-29T03:12:15	13.2	97
120847	2025-05-29T03:22:15	13.2	97
120848	2025-05-29T03:32:15	13.1	97
120849	2025-05-29T03:42:15	13.1	97
120850	2025-05-29T03:52:15	13.1	97
120851	2025-05-29T04:02:15	13.2	97
120852	2025-05-29T04:12:15	13.2	97
120853	2025-05-29T04:22:15	13.3	97
120854	2025-05-29T04:32:15	13.2	97
120855	2025-05-29T04:42:15	13.2	97
120856	2025-05-29T04:52:15	13.4	97
120857	2025-05-29T05:02:15	13.3	97
120858	2025-05-29T05:12:15	13.4	97
120859	2025-05-29T05:22:15	13.6	97
120860	2025-05-29T05:32:15	13.8	97
120861	2025-05-29T05:42:15	13.7	97
120862	2025-05-29T05:52:15	13.8	97
120863	2025-05-29T06:02:15	13.9	97
120864	2025-05-29T06:12:15	14	97
120865	2025-05-29T06:22:15	14.1	97
120866	2025-05-29T06:32:15	14.5	97
120867	2025-05-29T06:42:15	14.8	97
120868	2025-05-29T06:52:15	14.9	97
120869	2025-05-29T07:02:15	15.1	97
120870	2025-05-29T07:12:15	15.4	97
120871	2025-05-29T07:22:15	15.7	97
120872	2025-05-29T07:32:15	15.8	97.5
120873	2025-05-29T07:42:15	16.5	97
120874	2025-05-29T07:52:15	16.2	97
120875	2025-05-29T08:02:15	16.5	97
120876	2025-05-29T08:12:15	16.6	97
120877	2025-05-29T08:22:15	16.2	97
120878	2025-05-29T08:32:15	16.3	97
120879	2025-05-29T08:42:14	16.5	97
120880	2025-05-29T08:52:15	16.3	97
120881	2025-05-29T09:02:15	16.7	97
120882	2025-05-29T09:12:15	17.1	97
120883	2025-05-29T09:22:15	17.5	97
120884	2025-05-29T09:32:14	18	97
120885	2025-05-29T09:42:14	18.5	100
120886	2025-05-29T10:12:14	19.1	100
120887	2025-05-29T10:22:14	19.5	100
120888	2025-05-29T10:32:14	20.5	97.5
120889	2025-05-29T10:42:14	20.5	68
120890	2025-05-29T10:52:14	20.7	64.5
120891	2025-05-29T11:02:14	21.4	62
120892	2025-05-29T11:12:14	22.2	61.5
120893	2025-05-29T11:22:14	22.1	60
120894	2025-05-29T11:32:14	22	60.5
120895	2025-05-29T11:42:14	22.1	59
120896	2025-05-29T11:52:14	22.1	56
120897	2025-05-29T12:02:14	22.5	55
120898	2025-05-29T12:12:14	22.6	54.5
120899	2025-05-29T12:22:14	23.6	52
120900	2025-05-29T12:32:14	23.2	53.5
120901	2025-05-29T12:42:14	22.6	55.5
120902	2025-05-29T12:52:14	23.2	54.5
120903	2025-05-29T13:02:14	24.5	50
120904	2025-05-29T13:12:14	24.3	51
120905	2025-05-29T13:22:14	24	52.5
120906	2025-05-29T13:32:14	23.7	51.5
120907	2025-05-29T13:42:14	23.3	53
120908	2025-05-29T13:52:14	23.3	54
120909	2025-05-29T14:02:14	22.8	53.5
120910	2025-05-29T14:12:14	23.1	53.5
120911	2025-05-29T14:22:14	23.5	52
120912	2025-05-29T14:32:14	25.1	49.5
120913	2025-05-29T14:42:14	26.5	47.5
120914	2025-05-29T14:52:14	25.6	48.5
120915	2025-05-29T15:02:14	26.2	46.5
120916	2025-05-29T15:12:14	25.3	48.5
120917	2025-05-29T15:22:14	24.8	50
120918	2025-05-29T15:32:32	24.7	50
120919	2025-05-29T15:42:14	25.5	49.5
120920	2025-05-29T15:52:14	24.7	49
120921	2025-05-29T16:02:14	25	49
120922	2025-05-29T16:12:14	24.5	50.5
120923	2025-05-29T16:22:14	24.1	51.5
120924	2025-05-29T16:32:14	24	51
120925	2025-05-29T16:42:14	24.8	51
120926	2025-05-29T16:52:14	24.3	50
120927	2025-05-29T17:02:14	23.5	52
120928	2025-05-29T17:12:14	23.2	53.5
120929	2025-05-29T17:22:14	23.2	54
120930	2025-05-29T17:32:14	22.9	53
120931	2025-05-29T17:42:14	22.6	55.5
120932	2025-05-29T17:52:14	22.4	56
120933	2025-05-29T18:02:14	22	57
120934	2025-05-29T18:12:14	21.9	58
120935	2025-05-29T18:22:14	21.5	58.5
120936	2025-05-29T18:32:14	21.5	59.5
120937	2025-05-29T18:42:14	21.1	60.5
120938	2025-05-29T18:52:14	21	60.5
120939	2025-05-29T19:02:14	20.9	64.5
120940	2025-05-29T19:12:14	20.4	66.5
120941	2025-05-29T19:22:14	20.2	67
120942	2025-05-29T19:32:14	20.1	68
120943	2025-05-29T19:42:14	20	69.5
120944	2025-05-29T19:52:14	20	69.5
120945	2025-05-29T20:02:14	19.8	68
120946	2025-05-29T20:12:13	19.7	68
120947	2025-05-29T20:22:13	19.7	70
120948	2025-05-29T20:32:13	19.8	72
120949	2025-05-29T20:42:13	19.3	70.5
120950	2025-05-29T20:52:13	19.3	69.5
120951	2025-05-29T21:02:13	19.5	66.5
120952	2025-05-29T21:12:13	19.5	66
120953	2025-05-29T21:22:13	19.5	65
120954	2025-05-29T21:32:13	19.5	66
120955	2025-05-29T21:42:13	19.3	66.5
120956	2025-05-29T21:52:13	19.1	68
120957	2025-05-29T22:02:13	19.1	68
120958	2025-05-29T22:12:13	18.9	69
120959	2025-05-29T22:22:14	18.7	72.5
120960	2025-05-29T22:32:13	18.5	71.5
120961	2025-05-29T22:42:13	18.1	73
120962	2025-05-29T22:52:13	17.9	74
120963	2025-05-29T23:02:13	17.7	74.5
120964	2025-05-29T23:12:13	17.8	74
120965	2025-05-29T23:22:13	17.4	77
120966	2025-05-29T23:32:13	17.2	77
120967	2025-05-29T23:42:13	17	77.5
120968	2025-05-29T23:52:13	17.2	78
120969	2025-05-30T00:02:13	16.8	79.5
120970	2025-05-30T00:12:13	16.8	81
120971	2025-05-30T00:22:13	16.9	81
120972	2025-05-30T00:32:13	16.9	80
120973	2025-05-30T00:42:13	16.6	80.5
120974	2025-05-30T00:52:13	16.8	80
120975	2025-05-30T01:02:13	16.8	81
120976	2025-05-30T01:12:13	16.9	82
120977	2025-05-30T01:22:13	16.8	82.5
120978	2025-05-30T01:32:13	16.9	82
120979	2025-05-30T01:42:13	16.7	82
120980	2025-05-30T01:52:13	16.7	82
120981	2025-05-30T02:02:13	16.5	81
120982	2025-05-30T02:12:13	16.6	83
120983	2025-05-30T02:22:13	16.6	83.5
120984	2025-05-30T02:32:13	16.5	84.5
120985	2025-05-30T02:42:13	16.5	83
120986	2025-05-30T02:52:13	16.5	84.5
120987	2025-05-30T03:02:13	16.6	86
120988	2025-05-30T03:12:13	16.4	86
120989	2025-05-30T03:22:13	16.4	85
120990	2025-05-30T03:32:13	16.3	86
120991	2025-05-30T03:42:13	16.4	82
120992	2025-05-30T03:52:13	16.4	81
120993	2025-05-30T04:02:13	16.4	81.5
120994	2025-05-30T04:12:13	16.2	84.5
120995	2025-05-30T04:22:13	16.3	86
120996	2025-05-30T04:32:13	16.4	86.5
120997	2025-05-30T04:42:13	16.4	86
120998	2025-05-30T04:52:13	16.6	84
120999	2025-05-30T05:02:13	16.8	86
121000	2025-05-30T05:12:13	16.8	85
121001	2025-05-30T05:22:13	17	81
121002	2025-05-30T05:32:13	17	81.5
121003	2025-05-30T05:42:13	17.2	81
121004	2025-05-30T05:52:13	17.3	82
121005	2025-05-30T06:02:13	17.4	81
121006	2025-05-30T06:12:13	17.6	80
121007	2025-05-30T06:22:13	17.7	81
121008	2025-05-30T06:32:13	18.2	79.5
121009	2025-05-30T06:42:13	18.5	76
121010	2025-05-30T06:52:13	18.9	70.5
121011	2025-05-30T07:02:13	19	71.5
121012	2025-05-30T07:12:12	19.3	72
121013	2025-05-30T07:22:12	19.5	71
121014	2025-05-30T07:32:12	19.8	70
121015	2025-05-30T07:42:12	20	68.5
121016	2025-05-30T07:52:12	20.3	69.5
121017	2025-05-30T08:02:12	20.5	68
121018	2025-05-30T08:12:12	20.7	66.5
121019	2025-05-30T08:22:12	20.9	64.5
121020	2025-05-30T08:32:12	21.2	65
121021	2025-05-30T08:42:12	21.4	63.5
121022	2025-05-30T08:52:12	21.7	62
121023	2025-05-30T09:02:12	22	60.5
121024	2025-05-30T09:12:12	22.2	61
121025	2025-05-30T09:22:12	22.1	60.5
121026	2025-05-30T09:32:12	22.4	60
121027	2025-05-30T09:42:12	22.6	59
121028	2025-05-30T09:52:12	22.9	58.5
121029	2025-05-30T10:02:12	22.9	58
121030	2025-05-30T10:12:12	23.1	58
121031	2025-05-30T10:22:12	23.3	58.5
121032	2025-05-30T10:32:12	23.6	58
121033	2025-05-30T10:42:12	23.7	55
121034	2025-05-30T10:52:12	23.8	54.5
121035	2025-05-30T11:02:12	24.1	55
121036	2025-05-30T11:12:12	24.2	54.5
121037	2025-05-30T11:22:12	24.5	53
121038	2025-05-30T11:32:12	24.5	51
121039	2025-05-30T11:42:12	24.6	52
121040	2025-05-30T11:52:12	25.2	51
121041	2025-05-30T12:02:12	28.8	42.5
121042	2025-05-30T12:12:12	31.7	38
121043	2025-05-30T12:22:12	33.9	36
121044	2025-05-30T12:32:12	35.4	32.5
121045	2025-05-30T12:42:12	34.8	33.5
121046	2025-05-30T12:52:12	38.3	30
121047	2025-05-30T13:02:12	37.6	32.5
121048	2025-05-30T13:12:12	36.4	32.5
121049	2025-05-30T13:22:12	37.5	31.5
121050	2025-05-30T13:32:12	37.4	31
121051	2025-05-30T13:42:12	39.5	30
121052	2025-05-30T13:52:12	37.3	30.5
121053	2025-05-30T14:02:12	38.6	29.5
121054	2025-05-30T14:12:12	39.5	28
121055	2025-05-30T14:22:12	41.2	29
121056	2025-05-30T14:32:12	40.9	27.5
121057	2025-05-30T14:42:12	40.6	27.5
121058	2025-05-30T14:52:12	39	29
121059	2025-05-30T15:02:12	39.9	28
121060	2025-05-30T15:12:12	39.6	28.5
121061	2025-05-30T15:22:12	39.9	29
121062	2025-05-30T15:32:12	40.8	27.5
121063	2025-05-30T15:42:12	40.4	29
121064	2025-05-30T15:52:12	41.4	28.5
121065	2025-05-30T16:02:12	40.4	28
121066	2025-05-30T16:12:12	37.8	30
121067	2025-05-30T16:22:12	37.4	30.5
121068	2025-05-30T16:32:12	38.2	29.5
121069	2025-05-30T16:42:12	38.5	31
121070	2025-05-30T16:52:12	38.1	30.5
121071	2025-05-30T17:02:12	36.9	31
121072	2025-05-30T17:12:12	37.8	30
121073	2025-05-30T17:22:12	36.4	31.5
121074	2025-05-30T17:32:12	37.2	31
121075	2025-05-30T17:42:12	35.7	32
121076	2025-05-30T17:52:12	35	33.5
121077	2025-05-30T18:02:11	35.2	34.5
121078	2025-05-30T19:00:24	35.4	35
121079	2025-05-30T19:00:24	34.7	40
121080	2025-05-30T19:00:24	33.9	42.5
121081	2025-05-30T19:00:24	35.4	38
121082	2025-05-30T19:00:24	32.5	46.5
121083	2025-05-30T19:02:11	31.5	49
121084	2025-05-30T19:12:11	30.2	51
121085	2025-05-30T19:22:11	29.1	52
121086	2025-05-30T19:32:11	28.3	54.5
121087	2025-05-30T19:42:11	27.6	55.5
121088	2025-05-30T19:52:11	27	58
121089	2025-05-30T20:02:11	26.5	59.5
121090	2025-05-30T20:12:11	26.1	58.5
121091	2025-05-30T20:22:11	25.6	59.5
121092	2025-05-30T20:32:11	25.2	61.5
121093	2025-05-30T20:42:11	24.9	61
121094	2025-05-30T21:02:11	24.1	62.5
121095	2025-05-30T21:12:11	23.9	64.5
121096	2025-05-30T21:22:11	23.5	64
121097	2025-05-30T21:32:11	23.2	66
121098	2025-05-30T21:42:11	22.9	67
121099	2025-05-30T21:52:11	22.5	68.5
121100	2025-05-30T22:02:11	22.3	69
121101	2025-05-30T22:12:11	22.1	69
121102	2025-05-30T22:22:11	21.9	70
121103	2025-05-30T22:32:11	21.6	69.5
121104	2025-05-30T22:42:11	21.2	71.5
121105	2025-05-30T22:52:11	21	72
121106	2025-05-30T23:02:11	20.8	73
121107	2025-05-30T23:12:11	20.5	73
121108	2025-05-30T23:22:11	20.3	73.5
121109	2025-05-30T23:32:11	20.1	73.5
121110	2025-05-30T23:42:11	19.8	74.5
121111	2025-05-30T23:52:11	19.4	76
121112	2025-05-31T00:02:11	19.4	75.5
121113	2025-05-31T00:12:11	19.2	76.5
121114	2025-05-31T00:22:11	19.1	77.5
121115	2025-05-31T00:32:11	18.9	78
121116	2025-05-31T00:42:11	18.6	78
121117	2025-05-31T00:52:11	18.6	78
121118	2025-05-31T01:02:11	18.4	79
121119	2025-05-31T01:12:11	18.2	79.5
121120	2025-05-31T01:22:11	18.1	79
121121	2025-05-31T01:32:11	18	80
121122	2025-05-31T01:42:11	17.7	80.5
121123	2025-05-31T01:52:11	17.6	81
121124	2025-05-31T02:02:11	17.6	81
121125	2025-05-31T02:12:11	17.4	82.5
121126	2025-05-31T02:22:11	17.4	81
121127	2025-05-31T02:32:11	17.1	82
121128	2025-05-31T02:42:11	16.8	83.5
121129	2025-05-31T02:52:11	16.9	83
121130	2025-05-31T03:02:11	16.8	83.5
121131	2025-05-31T03:12:11	16.7	84.5
121132	2025-05-31T03:22:11	16.6	84
121133	2025-05-31T03:32:11	16.5	84.5
121134	2025-05-31T03:42:11	16.2	85.5
121135	2025-05-31T03:52:11	16.2	85
121136	2025-05-31T04:02:11	16.3	85.5
121137	2025-05-31T04:12:11	16.4	85.5
121138	2025-05-31T04:22:11	16.4	86
121139	2025-05-31T04:32:11	16.5	86
121140	2025-05-31T04:42:11	16.6	87
121141	2025-05-31T04:52:10	16.7	87
121142	2025-05-31T05:02:10	16.5	87.5
121143	2025-05-31T05:12:10	16.8	88
121144	2025-05-31T05:22:10	17	88
121145	2025-05-31T05:32:10	17.2	88
121146	2025-05-31T05:42:11	17.4	88
121147	2025-05-31T05:52:10	17.7	87
121148	2025-05-31T06:02:10	17.9	85.5
121149	2025-05-31T06:12:10	18.2	85
121150	2025-05-31T06:22:10	18.7	84.5
121151	2025-05-31T06:32:10	18.9	82
121152	2025-05-31T06:42:10	19.3	79.5
121153	2025-05-31T06:52:10	19.6	79
121154	2025-05-31T07:02:10	19.9	78
121155	2025-05-31T07:12:10	20	79
121156	2025-05-31T07:22:10	20.1	79
121157	2025-05-31T07:32:10	20.6	77
121158	2025-05-31T07:42:10	21.2	72.5
121159	2025-05-31T07:52:10	21.3	74.5
121160	2025-05-31T08:02:10	21.6	71
121161	2025-05-31T08:12:10	21.8	71.5
121162	2025-05-31T08:22:10	22.7	69.5
121163	2025-05-31T08:32:10	22.8	68.5
121164	2025-05-31T08:42:10	23.1	66.5
121165	2025-05-31T08:52:10	23.4	66.5
121166	2025-05-31T09:02:10	23.5	67
121167	2025-05-31T09:12:10	23.8	65.5
121168	2025-05-31T09:22:10	23.8	65.5
121169	2025-05-31T09:32:10	24.2	65
121170	2025-05-31T09:42:10	24.4	63.5
121171	2025-05-31T09:52:10	24.7	66.5
121172	2025-05-31T10:02:10	25	63.5
121173	2025-05-31T10:12:10	25.6	60
121174	2025-05-31T10:22:10	25.9	56.5
121175	2025-05-31T10:32:10	26.5	56
121176	2025-05-31T10:42:10	26.6	57.5
121177	2025-05-31T10:52:10	27.1	53
121178	2025-05-31T11:02:10	27.2	53
121179	2025-05-31T11:12:10	27.6	51.5
121180	2025-05-31T11:22:10	27.9	51.5
121181	2025-05-31T11:32:10	28.2	50.5
121182	2025-05-31T11:42:10	28.6	51.5
121183	2025-05-31T11:52:10	28.9	45.5
121184	2025-05-31T12:02:10	32.6	41.5
121185	2025-05-31T12:12:10	36.5	35.5
121186	2025-05-31T12:22:10	37.4	32
121187	2025-05-31T12:32:10	39.7	29
121188	2025-05-31T12:42:10	38.6	29
121189	2025-05-31T12:52:10	41.3	24.5
121190	2025-05-31T13:02:10	40.1	27
121191	2025-05-31T13:12:10	42.6	25
121192	2025-05-31T13:22:10	42.6	24.5
121193	2025-05-31T13:32:10	42.8	23.5
121194	2025-05-31T13:42:10	43.1	24
121195	2025-05-31T13:52:10	42.5	25
121196	2025-05-31T14:02:10	43.2	25
121197	2025-05-31T14:12:10	42.8	24
121198	2025-05-31T14:22:10	42.8	23.5
121199	2025-05-31T14:32:10	42.9	24.5
121200	2025-05-31T14:42:10	44.2	24.5
121201	2025-05-31T14:52:10	44.2	23.5
121202	2025-05-31T15:02:10	42.7	25.5
121203	2025-05-31T15:12:10	39.5	27.5
121204	2025-05-31T15:22:10	38.1	30
121205	2025-05-31T15:32:10	35.7	32
121206	2025-05-31T15:42:10	35	35
121207	2025-05-31T15:52:10	34.6	36
121208	2025-05-31T16:02:09	34.1	39.5
121209	2025-05-31T16:12:09	32.3	41
121210	2025-05-31T16:22:09	30.7	43
121211	2025-05-31T16:32:09	29.4	46
121212	2025-05-31T16:42:09	28.3	49.5
121213	2025-05-31T16:52:09	27.7	53.5
121214	2025-05-31T17:02:09	27.4	55
121215	2025-05-31T17:12:09	28.8	53
121216	2025-05-31T17:22:09	28.3	51.5
121217	2025-05-31T17:32:09	27.6	53
121218	2025-05-31T17:42:09	27.3	54
121219	2025-05-31T17:52:09	26.9	55
121220	2025-05-31T18:02:09	26.6	55.5
121221	2025-05-31T18:12:09	26	56
121222	2025-05-31T18:22:09	25.1	58
121223	2025-05-31T18:32:09	24.1	61.5
121224	2025-05-31T18:42:09	23.6	74.5
121225	2025-05-31T18:52:09	23	78.5
121226	2025-05-31T19:02:09	23.2	75.5
121227	2025-05-31T19:12:09	23.2	79.5
121228	2025-05-31T19:22:09	22.9	77.5
121229	2025-05-31T19:32:09	22.5	75.5
121230	2025-05-31T19:42:09	22.3	77.5
121231	2025-05-31T19:52:09	21.7	74.5
121232	2025-05-31T20:02:09	21.7	74.5
121233	2025-05-31T20:12:09	21.5	75
121234	2025-05-31T20:22:09	21.4	75
121235	2025-05-31T20:32:09	21.3	76.5
121236	2025-05-31T20:42:09	21.3	78.5
121237	2025-05-31T20:52:09	21.2	79
121238	2025-05-31T21:02:09	21.1	78
121239	2025-05-31T21:12:09	20.8	77.5
121240	2025-05-31T21:22:09	20.8	79.5
121241	2025-05-31T21:32:09	20.5	78.5
121242	2025-05-31T21:42:09	20.6	77
121243	2025-05-31T21:52:09	20.4	78
121244	2025-05-31T22:02:09	20.2	78.5
121245	2025-05-31T22:12:09	20.3	78
121246	2025-05-31T22:22:09	20.1	79.5
121247	2025-05-31T22:32:09	20	79
121248	2025-05-31T22:42:09	19.7	79.5
121249	2025-05-31T22:52:09	19.6	80.5
121250	2025-05-31T23:02:09	19.6	82
121251	2025-05-31T23:12:09	19.3	83
121252	2025-05-31T23:22:09	19.1	83.5
121253	2025-05-31T23:32:09	18.8	82.5
121254	2025-05-31T23:42:09	18.7	83
121255	2025-05-31T23:52:09	18.5	84
121256	2025-06-01T00:02:09	18.4	85
121257	2025-06-01T00:12:09	18.5	84
121258	2025-06-01T00:22:09	18.8	83
121259	2025-06-01T00:32:09	18.5	83.5
121260	2025-06-01T00:42:09	18.4	84.5
121261	2025-06-01T00:52:09	18.6	84
121262	2025-06-01T01:02:09	18.7	85
121263	2025-06-01T01:12:09	18.6	86
121264	2025-06-01T01:22:09	18.6	86
121265	2025-06-01T01:32:09	18.5	86.5
121266	2025-06-01T01:42:09	18	89
121267	2025-06-01T01:52:09	18.3	88.5
121268	2025-06-01T02:02:09	18.4	88
121269	2025-06-01T02:12:09	18.5	88
121270	2025-06-01T02:22:09	18.5	88.5
121271	2025-06-01T02:32:08	18.6	89.5
121272	2025-06-01T02:42:08	18.4	89.5
121273	2025-06-01T02:52:08	18.4	89.5
121274	2025-06-01T03:02:08	18.3	90
121275	2025-06-01T03:12:08	18.2	90
121276	2025-06-01T03:22:08	18.2	90.5
121277	2025-06-01T03:32:08	18.2	90.5
121278	2025-06-01T03:42:08	17.9	91
121279	2025-06-01T03:52:08	17.8	91.5
121280	2025-06-01T04:02:08	17.7	91.5
121281	2025-06-01T04:12:08	17.7	92
121282	2025-06-01T04:22:08	17.8	92.5
121283	2025-06-01T04:32:08	17.8	92
121284	2025-06-01T04:42:08	18	91
121285	2025-06-01T04:52:08	18.1	91.5
121286	2025-06-01T05:02:08	18.4	91
121287	2025-06-01T05:12:08	18.4	90.5
121288	2025-06-01T05:22:08	18.5	90
121289	2025-06-01T05:32:08	18.5	90.5
121290	2025-06-01T05:42:08	18.6	90.5
121291	2025-06-01T05:52:08	19	89.5
121292	2025-06-01T06:02:08	19.3	88
121293	2025-06-01T06:12:08	19.8	85.5
121294	2025-06-01T06:22:08	20	82.5
121295	2025-06-01T06:32:08	20.2	82.5
121296	2025-06-01T06:42:08	20.6	80.5
121297	2025-06-01T06:52:08	20.7	80
121298	2025-06-01T07:02:08	21.2	78.5
121299	2025-06-01T07:12:08	21.4	77
121300	2025-06-01T07:22:08	21.5	78.5
121301	2025-06-01T07:32:08	21.8	78.5
121302	2025-06-01T07:42:23	22	78
121303	2025-06-01T07:52:08	22.2	77.5
121304	2025-06-01T08:02:08	22.7	75.5
121305	2025-06-01T08:12:08	22.7	75.5
121306	2025-06-01T08:22:08	23	73
121307	2025-06-01T08:32:08	23.4	71.5
121308	2025-06-01T08:42:08	24	69
121309	2025-06-01T08:52:08	24.6	66
121310	2025-06-01T09:02:08	24.9	64
121311	2025-06-01T09:12:08	25.4	62
121312	2025-06-01T09:22:08	25.8	58.5
121313	2025-06-01T09:32:08	26.1	57.5
121314	2025-06-01T09:42:08	26	57
121315	2025-06-01T09:52:08	26.3	57
121316	2025-06-01T10:02:08	26.5	57
121317	2025-06-01T10:12:08	27.1	55
121318	2025-06-01T10:22:08	27.3	55
121319	2025-06-01T10:32:08	27.7	53
121320	2025-06-01T10:42:08	28.1	53
121321	2025-06-01T10:52:08	28.1	52.5
121322	2025-06-01T11:02:08	28.2	53
121323	2025-06-01T11:12:08	28.3	54
121324	2025-06-01T11:22:08	28.8	52
121325	2025-06-01T11:32:08	29.1	52.5
121326	2025-06-01T11:42:08	28.7	53.5
121327	2025-06-01T11:52:08	29.4	52
121328	2025-06-01T12:02:08	31.5	46.5
121329	2025-06-01T12:12:08	32	45
121330	2025-06-01T12:22:08	28.7	70.5
121331	2025-06-01T12:32:08	24.5	97
121332	2025-06-01T12:42:08	26.5	100
121333	2025-06-01T12:52:08	27.9	100
121334	2025-06-01T13:02:07	27.5	100
121335	2025-06-01T13:12:07	26.1	100
121336	2025-06-01T13:22:07	25.6	100
121337	2025-06-01T13:32:07	26	100
121338	2025-06-01T13:42:07	27.8	100
121339	2025-06-01T13:52:07	27.1	98.5
121340	2025-06-01T14:02:07	27.1	99.5
121341	2025-06-01T14:12:07	28.4	98.5
121342	2025-06-01T14:22:07	31.4	89.5
121343	2025-06-01T14:32:07	32.9	51.5
121344	2025-06-01T14:42:07	33.7	46.5
121345	2025-06-01T14:52:07	31.3	51
121346	2025-06-01T15:02:07	32.5	48
121347	2025-06-01T15:12:07	33	49.5
121348	2025-06-01T15:22:07	35.1	45
121349	2025-06-01T15:32:07	36.1	42
121350	2025-06-01T15:42:07	36	40.5
121351	2025-06-01T15:52:07	36.3	39
121352	2025-06-01T16:02:07	36	39.5
121353	2025-06-01T16:12:07	35.2	40
121354	2025-06-01T16:22:07	32.4	45
121355	2025-06-01T16:32:07	31	47
121356	2025-06-01T16:42:07	30	48.5
121357	2025-06-01T16:52:07	29.4	49.5
121358	2025-06-01T17:02:07	28.9	52.5
121359	2025-06-01T17:12:07	28.2	52
121360	2025-06-01T17:22:07	28.1	54.5
121361	2025-06-01T17:32:07	27.8	54.5
121362	2025-06-01T17:42:07	27.3	55.5
121363	2025-06-01T17:52:07	26.7	57.5
121364	2025-06-01T18:02:07	26.6	57.5
121365	2025-06-01T18:12:07	26.3	59
121366	2025-06-01T18:22:07	25.1	67.5
121367	2025-06-01T18:32:07	24.7	77
121368	2025-06-01T18:42:07	24.4	83
121369	2025-06-01T18:52:07	24.3	81.5
121370	2025-06-01T19:02:07	24.1	79.5
121371	2025-06-01T19:12:07	23.6	79.5
121372	2025-06-01T19:22:07	23	84
121373	2025-06-01T19:32:07	23.2	81.5
121374	2025-06-01T19:42:07	22.3	83.5
121375	2025-06-01T19:52:07	22.6	84
121376	2025-06-01T20:02:07	22.1	85.5
121377	2025-06-01T20:12:07	22.4	85.5
121378	2025-06-01T20:22:07	22.4	85
121379	2025-06-01T20:32:07	22.4	83
121380	2025-06-01T20:42:07	22.2	84.5
121381	2025-06-01T20:52:07	22.1	84.5
121382	2025-06-01T21:02:07	21.7	84
121383	2025-06-01T21:12:07	21.6	85
121384	2025-06-01T21:22:07	21.8	85.5
121385	2025-06-01T21:32:07	21.5	84
121386	2025-06-01T21:42:07	20.8	86.5
121387	2025-06-01T21:52:07	21.2	86
121388	2025-06-01T22:02:07	21.1	84
121389	2025-06-01T22:12:07	21	83.5
121390	2025-06-01T22:22:07	20.7	83.5
121391	2025-06-01T22:32:07	20.9	85.5
121392	2025-06-01T22:42:07	20.7	84
121393	2025-06-01T22:52:07	20.6	84.5
121394	2025-06-01T23:02:07	20.8	84
121395	2025-06-01T23:12:07	20.4	84.5
121396	2025-06-01T23:22:06	20.4	85.5
121397	2025-06-01T23:32:06	20.3	86.5
121398	2025-06-01T23:42:06	20.2	87.5
121399	2025-06-01T23:52:06	20.2	88
121400	2025-06-02T00:02:06	20.1	87.5
121401	2025-06-02T00:12:06	20	87.5
121402	2025-06-02T00:22:06	19.8	88.5
121403	2025-06-02T00:32:06	19.7	89.5
121404	2025-06-02T00:42:06	19.6	87.5
121405	2025-06-02T00:52:06	19.3	88.5
121406	2025-06-02T01:02:06	19.2	88
121407	2025-06-02T01:12:06	19.3	87
121408	2025-06-02T01:22:06	19	87.5
121409	2025-06-02T01:32:06	19	88
121410	2025-06-02T01:42:06	18.9	88.5
121411	2025-06-02T01:52:06	18.8	88.5
121412	2025-06-02T02:02:06	18.7	89
121413	2025-06-02T02:12:06	18.5	89.5
121414	2025-06-02T02:22:06	18.4	90
121415	2025-06-02T02:32:06	18.5	89.5
121416	2025-06-02T02:42:06	18.5	89
121417	2025-06-02T02:52:06	18.4	89.5
121418	2025-06-02T03:02:06	18.4	89
121419	2025-06-02T03:12:06	18.2	90
121420	2025-06-02T03:22:06	18.2	90.5
121421	2025-06-02T03:32:06	18	90.5
121422	2025-06-02T03:42:06	18	91.5
121423	2025-06-02T03:52:06	18	91.5
121424	2025-06-02T04:02:06	18	91
121425	2025-06-02T04:12:06	18	91
121426	2025-06-02T04:22:06	18	91.5
121427	2025-06-02T04:32:06	18.2	91
121428	2025-06-02T04:42:06	18.2	91
121429	2025-06-02T04:52:06	18.3	91
121430	2025-06-02T05:02:06	18.4	90.5
121431	2025-06-02T05:12:06	18.5	90
121432	2025-06-02T05:22:06	18.7	89.5
121433	2025-06-02T05:32:06	18.7	89
121434	2025-06-02T05:42:06	18.8	89.5
121435	2025-06-02T05:52:06	18.9	89
121436	2025-06-02T06:02:06	19.1	88.5
121437	2025-06-02T06:12:06	19.2	88.5
121438	2025-06-02T06:22:06	19.4	88.5
121439	2025-06-02T06:32:06	19.5	87.5
121440	2025-06-02T06:42:06	19.6	87.5
121441	2025-06-02T06:52:06	19.7	87.5
121442	2025-06-02T07:02:06	19.8	87.5
121443	2025-06-02T07:12:06	20	86.5
121444	2025-06-02T07:22:06	20.3	85.5
121445	2025-06-02T07:32:06	20.7	84.5
121446	2025-06-02T07:42:06	21.3	80.5
121447	2025-06-02T07:52:06	21.4	81
121448	2025-06-02T08:02:06	21.4	77.5
121449	2025-06-02T08:12:06	21.5	78.5
121450	2025-06-02T08:22:06	21.7	77
121451	2025-06-02T08:32:06	22	75
121452	2025-06-02T08:42:06	21.9	75
121453	2025-06-02T08:52:06	21.6	76
121454	2025-06-02T09:02:06	21.9	73.5
121455	2025-06-02T09:12:06	22.3	71
121456	2025-06-02T09:32:06	23.1	71
121457	2025-06-02T09:42:06	23.6	67
121458	2025-06-02T09:52:05	24.5	63.5
121459	2025-06-02T10:02:05	25	65
121460	2025-06-02T10:12:05	24.6	63
121461	2025-06-02T10:22:05	24.4	63.5
121462	2025-06-02T10:32:05	24.5	62.5
121463	2025-06-02T10:42:05	24.2	62.5
121464	2025-06-02T10:52:05	23.9	65.5
121465	2025-06-02T11:02:05	22.5	76
121466	2025-06-02T11:12:05	22.1	71
121467	2025-06-02T11:22:05	21.6	85.5
121468	2025-06-02T11:32:05	19.1	100
121469	2025-06-02T11:42:05	19	100
121470	2025-06-02T11:52:05	18.1	100
121471	2025-06-02T12:02:05	17.6	100
121472	2025-06-02T12:12:05	17.3	100
121473	2025-06-02T12:22:05	16.7	100
121474	2025-06-02T12:32:05	16	100
121475	2025-06-02T12:42:05	15.9	100
121476	2025-06-02T12:52:05	16.3	100
121477	2025-06-02T13:02:05	17.2	100
121478	2025-06-02T13:12:05	17.3	100
121479	2025-06-02T13:22:05	17.6	100
121480	2025-06-02T13:32:05	17.6	100
121481	2025-06-02T13:42:05	17.8	100
121482	2025-06-02T13:52:05	18.2	100
121483	2025-06-02T14:02:05	17.9	100
121484	2025-06-02T14:12:05	17.6	100
121485	2025-06-02T14:22:05	17.3	100
121486	2025-06-02T14:32:05	17.4	100
121487	2025-06-02T14:42:05	17.5	100
121488	2025-06-02T14:52:05	17.7	100
121489	2025-06-02T15:02:23	17.9	100
121490	2025-06-02T15:12:05	18.1	100
121491	2025-06-02T15:22:05	18.5	100
121492	2025-06-02T15:32:05	18.5	100
121493	2025-06-02T15:42:05	19	100
121494	2025-06-02T15:52:05	19.4	100
121495	2025-06-02T16:02:05	19.2	100
121496	2025-06-02T16:12:05	19.3	100
121497	2025-06-02T16:22:05	19.7	100
121498	2025-06-02T16:32:05	20.3	100
121499	2025-06-02T16:42:05	21.4	100
121500	2025-06-02T16:52:05	21.8	100
121501	2025-06-02T17:02:05	21.6	100
121502	2025-06-02T17:12:05	20.9	100
121503	2025-06-02T17:22:05	20.1	100
121504	2025-06-02T17:32:05	19.7	100
121505	2025-06-02T17:42:05	20	100
121506	2025-06-02T17:52:05	20.6	100
121507	2025-06-02T18:02:05	20	100
121508	2025-06-02T18:12:05	20.1	100
121509	2025-06-02T18:22:05	20.1	100
121510	2025-06-02T18:32:05	19.9	100
121511	2025-06-02T18:42:05	19.5	100
121512	2025-06-02T18:52:05	19.1	100
121513	2025-06-02T19:02:05	18.9	100
121514	2025-06-02T19:12:05	18.5	100
121515	2025-06-02T19:22:05	18.2	100
121516	2025-06-02T19:32:05	18	100
121517	2025-06-02T19:42:05	17.6	100
121518	2025-06-02T19:52:05	17.3	100
121519	2025-06-02T20:02:05	17.1	100
121520	2025-06-02T20:12:05	16.8	100
121521	2025-06-02T20:22:05	16.7	100
121522	2025-06-02T20:32:05	16.6	100
121523	2025-06-02T20:42:05	16.3	100
121524	2025-06-02T20:52:05	16.2	100
121525	2025-06-02T21:02:05	15.7	100
121526	2025-06-02T21:12:04	15.7	100
121527	2025-06-02T21:22:04	15.7	100
121528	2025-06-02T21:32:04	16	100
121529	2025-06-02T21:42:04	15.9	100
121530	2025-06-02T21:52:04	15.6	100
121531	2025-06-02T22:02:04	15.5	100
121532	2025-06-02T22:12:04	15.5	100
121533	2025-06-02T22:22:04	15.6	100
121534	2025-06-02T22:32:04	15.7	100
121535	2025-06-02T22:42:04	15.5	100
121536	2025-06-02T22:52:04	15	100
121537	2025-06-02T23:02:04	15	100
121538	2025-06-02T23:12:05	15	100
121539	2025-06-02T23:52:04	14.6	97.5
121540	2025-06-03T00:12:04	14.4	96.5
121541	2025-06-03T00:22:04	14.4	96.5
121542	2025-06-03T00:32:04	14.1	96.5
121543	2025-06-03T00:42:04	14	96.5
121544	2025-06-03T00:52:04	14	96.5
121545	2025-06-03T01:02:04	14	96.5
121546	2025-06-03T01:12:04	13.9	96.5
121547	2025-06-03T01:22:04	13.7	96.5
121548	2025-06-03T01:32:04	13.6	96.5
121549	2025-06-03T01:42:04	13.5	96.5
121550	2025-06-03T01:52:04	13.3	96.5
121551	2025-06-03T02:02:04	13.3	96.5
121552	2025-06-03T02:12:04	13.2	96.5
121553	2025-06-03T02:22:04	13.1	96.5
121554	2025-06-03T02:32:04	13	96.5
121555	2025-06-03T02:42:04	12.9	96.5
121556	2025-06-03T02:52:04	12.8	96.5
121557	2025-06-03T03:02:04	12.6	96.5
121558	2025-06-03T03:12:04	12.7	96.5
121559	2025-06-03T03:22:04	12.6	96.5
121560	2025-06-03T03:32:04	12.5	96.5
121561	2025-06-03T03:52:04	12.6	96.5
121562	2025-06-03T04:02:04	12.5	96.5
121563	2025-06-03T04:12:04	12.6	96.5
121564	2025-06-03T04:22:04	12.8	97
121565	2025-06-03T04:32:04	12.8	96.5
121566	2025-06-03T04:42:04	12.8	96.5
121567	2025-06-03T04:52:04	13	96.5
121568	2025-06-03T05:02:04	13.1	96.5
121569	2025-06-03T05:12:04	13.5	96.5
121570	2025-06-03T05:22:04	13.9	96.5
121571	2025-06-03T05:32:04	14.3	96.5
121572	2025-06-03T05:42:04	14.5	96.5
121573	2025-06-03T05:52:04	14.9	96.5
121574	2025-06-03T06:02:04	15.1	96.5
121575	2025-06-03T06:12:04	15.4	97
121576	2025-06-03T06:22:04	15.7	97
121577	2025-06-03T06:32:04	16.2	96.5
121578	2025-06-03T06:42:04	16.6	96.5
121579	2025-06-03T06:52:04	16.4	96.5
121580	2025-06-03T07:02:04	16.6	96.5
121581	2025-06-03T07:12:04	16.8	96.5
121582	2025-06-03T07:22:04	17	96.5
121583	2025-06-03T07:32:04	17.5	96.5
121584	2025-06-03T07:42:04	18.6	96.5
121585	2025-06-03T07:52:04	19	96.5
121586	2025-06-03T08:02:04	19.2	96.5
121587	2025-06-03T08:12:04	19.7	96.5
121588	2025-06-03T08:22:04	19.8	96.5
121589	2025-06-03T08:32:04	20.1	96.5
121590	2025-06-03T08:42:04	20.2	96.5
121591	2025-06-03T08:52:04	20.6	96.5
121592	2025-06-03T09:02:03	21.1	97
121593	2025-06-03T09:12:03	21.1	97
121594	2025-06-03T09:22:03	21.5	99.5
121595	2025-06-03T09:32:03	21.2	99.5
121596	2025-06-03T09:42:03	21.3	99.5
121597	2025-06-03T09:52:03	21.8	100
121598	2025-06-03T10:02:03	22.5	100
121599	2025-06-03T10:12:03	22.5	100
121600	2025-06-03T10:22:03	22.8	100
121601	2025-06-03T10:32:03	23.8	100
121602	2025-06-03T10:42:03	23.7	96
121603	2025-06-03T10:52:03	24.4	68.5
121604	2025-06-03T11:02:03	24.1	67
121605	2025-06-03T11:12:03	23.7	68.5
121606	2025-06-03T11:22:03	24.1	65.5
121607	2025-06-03T11:32:03	24.6	63.5
121608	2025-06-03T11:42:03	25.3	65
121609	2025-06-03T11:52:03	25.5	61
121610	2025-06-03T12:12:03	30.8	50
121611	2025-06-03T12:22:03	30.3	48
121612	2025-06-03T12:32:03	34.3	40.5
121613	2025-06-03T12:42:03	31.9	41
121614	2025-06-03T12:52:03	30.7	46
121615	2025-06-03T13:02:03	29.2	46.5
121616	2025-06-03T13:12:03	27.2	53.5
121617	2025-06-03T13:22:03	27.3	54.5
121618	2025-06-03T13:32:03	27.2	56
121619	2025-06-03T13:42:03	26.6	58.5
121620	2025-06-03T13:52:03	26.1	58
121621	2025-06-03T14:02:03	26	58.5
121622	2025-06-03T14:12:03	27.3	54.5
121623	2025-06-03T14:22:03	28.7	52.5
121624	2025-06-03T14:32:03	31	48.5
121625	2025-06-03T14:42:03	29	50.5
121626	2025-06-03T14:52:03	29	51.5
121627	2025-06-03T15:02:03	32.3	45.5
121628	2025-06-03T15:12:03	30.6	46
121629	2025-06-03T15:22:03	25.5	93
121630	2025-06-03T15:32:03	28.2	87.5
121631	2025-06-03T15:42:03	25.8	72.5
121632	2025-06-03T15:52:03	26.2	62
121633	2025-06-03T16:02:03	26.7	60.5
121634	2025-06-03T16:12:03	28.9	53.5
121635	2025-06-03T16:22:03	29.3	51.5
121636	2025-06-03T16:32:03	29.1	52.5
121637	2025-06-03T16:42:03	29	53
121638	2025-06-03T16:52:03	28.7	53
121639	2025-06-03T17:02:03	27.5	56.5
121640	2025-06-03T17:12:03	27.2	57.5
121641	2025-06-03T17:22:03	26.9	59
121642	2025-06-03T17:32:03	26.9	58.5
121643	2025-06-03T17:42:03	26.8	59
121644	2025-06-03T17:52:03	26	59.5
121645	2025-06-03T18:02:03	25.5	61
121646	2025-06-03T18:12:03	25.2	62.5
121647	2025-06-03T18:22:03	24.6	64.5
121648	2025-06-03T18:32:03	24.3	67
121649	2025-06-03T18:42:03	23.9	69
121650	2025-06-03T18:52:03	23.8	71.5
121651	2025-06-03T19:02:02	23.2	72.5
121652	2025-06-03T19:12:02	23.1	74
121653	2025-06-03T19:22:02	22.9	74
121654	2025-06-03T19:32:02	22.7	73.5
121655	2025-06-03T19:42:02	22.3	75
121656	2025-06-03T19:52:03	21.9	76
121657	2025-06-03T20:02:02	21.4	77.5
121658	2025-06-03T20:12:02	21	77.5
121659	2025-06-03T20:22:02	20.4	79
121660	2025-06-03T20:32:03	20.4	80
121661	2025-06-03T20:42:02	20.1	81.5
121662	2025-06-03T21:02:02	19.6	81.5
121663	2025-06-03T21:12:02	19.5	82
121664	2025-06-03T21:22:02	19.4	82.5
121665	2025-06-03T21:32:02	19.2	82.5
121666	2025-06-03T21:42:02	18.9	83
121667	2025-06-03T21:52:02	18.8	82.5
121668	2025-06-03T22:02:02	18.6	83
121669	2025-06-03T22:12:02	18.4	83.5
121670	2025-06-03T22:22:02	18.3	84.5
121671	2025-06-03T22:32:02	18.2	84.5
121672	2025-06-03T22:42:02	17.8	84
121673	2025-06-03T22:52:02	17.8	85
121674	2025-06-03T23:02:02	17.6	85
121675	2025-06-03T23:12:02	17.6	85.5
121676	2025-06-03T23:22:02	17.4	85.5
121677	2025-06-03T23:32:02	17.4	86
121678	2025-06-03T23:42:02	17.3	86.5
121679	2025-06-03T23:52:02	17.3	86.5
121680	2025-06-04T00:02:02	17.2	87
121681	2025-06-04T00:12:02	17.1	87
121682	2025-06-04T00:22:02	17	87
121683	2025-06-04T00:32:02	16.7	87.5
121684	2025-06-04T00:42:02	16.7	88
121685	2025-06-04T00:52:02	16.7	88
121686	2025-06-04T01:02:02	16.9	88
121687	2025-06-04T01:12:02	16.9	88.5
121688	2025-06-04T01:22:02	17	88
121689	2025-06-04T01:32:02	17	88
121690	2025-06-04T01:42:19	16.8	92.5
121691	2025-06-04T01:52:02	16.8	91.5
121692	2025-06-04T02:02:02	16.8	91.5
121693	2025-06-04T02:12:02	16.7	90.5
121694	2025-06-04T02:22:02	16.8	93
121695	2025-06-04T02:32:02	16.8	92
121696	2025-06-04T02:42:02	16.7	91.5
121697	2025-06-04T02:52:02	16.7	91.5
121698	2025-06-04T03:02:02	16.5	92
121699	2025-06-04T03:12:02	16.4	92.5
121700	2025-06-04T03:22:02	16.5	93
121701	2025-06-04T03:32:02	16.5	94
121702	2025-06-04T03:42:02	16.5	94
121703	2025-06-04T03:52:02	16.4	94.5
121704	2025-06-04T04:12:02	16.7	95
121705	2025-06-04T04:22:02	16.7	94.5
121706	2025-06-04T04:32:02	16.8	94
121707	2025-06-04T04:42:02	16.8	96
121708	2025-06-04T04:52:02	16.9	96
121709	2025-06-04T05:02:02	17	96
121710	2025-06-04T05:12:02	17	95.5
121711	2025-06-04T05:22:02	17.2	95.5
121712	2025-06-04T05:32:02	17.3	94.5
121713	2025-06-04T05:42:02	17.3	95
121714	2025-06-04T05:52:02	17.3	94.5
121715	2025-06-04T06:02:02	17.3	95.5
121716	2025-06-04T06:12:02	17.2	96
121717	2025-06-04T06:22:01	17.3	96
121718	2025-06-04T06:32:01	17.2	95.5
121719	2025-06-04T06:42:01	17.3	96
121720	2025-06-04T06:52:01	17.7	95.5
121721	2025-06-04T07:02:01	18	95
121722	2025-06-04T07:12:01	18.3	94
121723	2025-06-04T07:22:01	18.8	92.5
121724	2025-06-04T07:32:01	18.6	93
121725	2025-06-04T07:42:01	18.5	91.5
121726	2025-06-04T07:52:01	18.5	93.5
121727	2025-06-04T08:02:01	18.9	94.5
121728	2025-06-04T08:12:01	19.3	92.5
121729	2025-06-04T08:22:01	19.9	91
121730	2025-06-04T08:32:01	19.6	91.5
121731	2025-06-04T08:42:01	19.8	89.5
121732	2025-06-04T08:52:17	20	88
121733	2025-06-04T09:02:01	20.7	85
121734	2025-06-04T09:12:01	21.1	83.5
121735	2025-06-04T09:22:01	21.5	83
121736	2025-06-04T09:32:01	21.6	84.5
121737	2025-06-04T09:42:01	21.3	83.5
121738	2025-06-04T09:52:01	21	86
121739	2025-06-04T10:02:01	20.6	90
121740	2025-06-04T10:12:01	19.8	93.5
121741	2025-06-04T10:22:01	19.1	100
121742	2025-06-04T10:32:01	19	100
121743	2025-06-04T10:42:01	18.8	100
121744	2025-06-04T10:52:01	19.1	100
121745	2025-06-04T11:02:01	19.6	100
121746	2025-06-04T11:12:01	20.1	100
121747	2025-06-04T11:22:01	20.6	100
121748	2025-06-04T11:32:01	20.4	100
121749	2025-06-04T11:42:01	21.7	100
121750	2025-06-04T11:52:01	22	100
121751	2025-06-04T12:02:01	21.3	100
121752	2025-06-04T12:12:01	21.3	100
121753	2025-06-04T12:22:01	21.6	100
121754	2025-06-04T12:32:01	22.5	91.5
121755	2025-06-04T12:42:01	22.1	87.5
121756	2025-06-04T12:52:01	21.9	85
121757	2025-06-04T13:02:01	22.2	90.5
121758	2025-06-04T13:12:01	21.7	86
121759	2025-06-04T13:22:01	21.5	93.5
121760	2025-06-04T13:32:01	22	91.5
121761	2025-06-04T13:42:01	21.8	85.5
121762	2025-06-04T13:52:01	21.7	85
121763	2025-06-04T14:02:01	21.9	83.5
121764	2025-06-04T14:12:01	21.6	84
121765	2025-06-04T14:22:01	21.4	85
121766	2025-06-04T14:42:01	21.7	80.5
121767	2025-06-04T14:52:01	21.4	82
121768	2025-06-04T15:02:01	21.4	83.5
121769	2025-06-04T15:12:01	21.3	85
121770	2025-06-04T15:22:01	21.1	85.5
121771	2025-06-04T15:32:01	20.6	91
121772	2025-06-04T15:42:01	19.2	98.5
121773	2025-06-04T15:52:01	18.3	100
121774	2025-06-04T16:02:01	18.3	100
121775	2025-06-04T16:12:01	18.6	100
121776	2025-06-04T16:22:01	19.1	100
121777	2025-06-04T16:32:01	19.5	100
121778	2025-06-04T16:42:01	19.4	100
121779	2025-06-04T16:52:00	19.3	100
121780	2025-06-04T17:02:01	19	100
121781	2025-06-04T17:12:00	18.7	100
121782	2025-06-04T17:22:00	18.5	100
121783	2025-06-04T17:32:00	18.3	100
121784	2025-06-04T17:42:00	17.7	100
121785	2025-06-04T17:52:00	17.4	100
121786	2025-06-04T18:02:00	17.1	100
121787	2025-06-04T18:12:00	17.1	100
121788	2025-06-04T18:22:00	17	100
121789	2025-06-04T18:32:00	17	100
121790	2025-06-04T18:42:00	17.1	100
121791	2025-06-04T18:52:00	17.1	100
121792	2025-06-04T19:02:00	17	100
121793	2025-06-04T19:12:00	17	100
121794	2025-06-04T19:22:00	17	100
121795	2025-06-04T19:32:00	16.8	100
121796	2025-06-04T19:42:00	16.8	100
121797	2025-06-04T19:52:00	16.8	100
121798	2025-06-04T20:02:00	16.7	100
121799	2025-06-04T20:12:00	16.7	100
121800	2025-06-04T20:22:00	16.6	100
121801	2025-06-04T20:32:00	16.6	100
121802	2025-06-04T20:42:00	16.6	100
121803	2025-06-04T20:52:00	16.6	100
121804	2025-06-04T21:02:00	16.8	100
121805	2025-06-04T21:12:00	16.6	100
121806	2025-06-04T21:22:00	16.6	100
121807	2025-06-04T21:32:00	16.5	100
121808	2025-06-04T21:42:00	16.5	100
121809	2025-06-04T21:52:00	16.5	100
121810	2025-06-04T22:02:00	16.5	100
121811	2025-06-04T22:12:00	16.6	100
121812	2025-06-04T22:22:00	16.5	100
121813	2025-06-04T22:32:00	16.6	100
121814	2025-06-04T22:42:00	16.6	100
121815	2025-06-04T22:52:00	16.6	100
121816	2025-06-04T23:02:00	16.6	100
121817	2025-06-04T23:12:00	16.8	100
121818	2025-06-04T23:22:00	16.8	100
121819	2025-06-04T23:32:00	16.7	100
121820	2025-06-04T23:42:00	16.7	100
121821	2025-06-04T23:52:00	16.5	100
121822	2025-06-05T00:02:00	16.5	100
121823	2025-06-05T00:12:00	16.5	100
121824	2025-06-05T00:22:00	16.5	100
121825	2025-06-05T00:32:00	16.5	97
121826	2025-06-05T00:42:00	16.6	96
121827	2025-06-05T00:52:00	16.2	97
121828	2025-06-05T01:02:00	16.2	95
121829	2025-06-05T01:12:00	16.3	97
121830	2025-06-05T01:22:00	16.3	95.5
121831	2025-06-05T01:32:00	16.6	95
121832	2025-06-05T01:42:00	16.4	93.5
121833	2025-06-05T01:52:00	16.3	93
121834	2025-06-05T02:02:00	16.2	93
121835	2025-06-05T02:12:00	16.2	92.5
121836	2025-06-05T02:22:00	16	93.5
121837	2025-06-05T02:32:00	15.8	94.5
121838	2025-06-05T02:42:00	16	94.5
121839	2025-06-05T02:52:00	16	93.5
121840	2025-06-05T03:02:00	16	93
121841	2025-06-05T03:12:00	15.9	93
121842	2025-06-05T03:22:00	15.8	93.5
121843	2025-06-05T03:32:00	15.6	93.5
121844	2025-06-05T03:42:00	15.5	94.5
121845	2025-06-05T03:52:00	15.6	94.5
121846	2025-06-05T04:02:00	15.7	94
121847	2025-06-05T04:12:00	15.6	94.5
121848	2025-06-05T04:22:00	15.7	95
121849	2025-06-05T04:31:59	15.7	95
121850	2025-06-05T04:41:59	15.8	95
121851	2025-06-05T04:51:59	15.8	94.5
121852	2025-06-05T05:01:59	15.7	93.5
121853	2025-06-05T05:11:59	16	93.5
121854	2025-06-05T05:21:59	15.9	93.5
121855	2025-06-05T05:31:59	16.1	93
121856	2025-06-05T05:41:59	16.3	92.5
121857	2025-06-05T05:51:59	16.3	92.5
121858	2025-06-05T06:01:59	16.3	92
121859	2025-06-05T06:11:59	16.4	91
121860	2025-06-05T06:21:59	16.6	90
121861	2025-06-05T06:31:59	16.8	88.5
121862	2025-06-05T06:41:59	17.1	87.5
121863	2025-06-05T06:51:59	17.3	84.5
121864	2025-06-05T07:01:59	17.6	84
121865	2025-06-05T07:11:59	17.7	82
121866	2025-06-05T07:21:59	17.7	81.5
121867	2025-06-05T07:31:59	18	78.5
121868	2025-06-05T07:41:59	18.1	78
121869	2025-06-05T07:51:59	18.5	74
121870	2025-06-05T08:01:59	19	73
121871	2025-06-05T08:11:59	19.4	70.5
121872	2025-06-05T08:21:59	19.4	71
121873	2025-06-05T08:31:59	18.8	81
121874	2025-06-05T08:41:59	16.3	100
121875	2025-06-05T08:51:59	16.9	100
121876	2025-06-05T09:01:59	17.1	100
121877	2025-06-05T09:11:59	17.5	100
121878	2025-06-05T09:21:59	17.6	100
121879	2025-06-05T09:31:59	17.9	100
121880	2025-06-05T09:41:59	18.1	100
121881	2025-06-05T09:51:59	18.2	100
121882	2025-06-05T10:01:59	17.7	99.5
121883	2025-06-05T10:11:59	16.3	100
121884	2025-06-05T10:21:59	16.9	100
121885	2025-06-05T10:31:59	17.7	100
121886	2025-06-05T10:41:59	18.6	100
121887	2025-06-05T10:51:59	18.8	100
121888	2025-06-05T11:01:59	19	100
121889	2025-06-05T11:11:59	19.2	99
121890	2025-06-05T11:21:59	19.6	81
121891	2025-06-05T11:31:59	20.4	74.5
121892	2025-06-05T11:41:59	20.8	73.5
121893	2025-06-05T11:51:59	21.4	72
121894	2025-06-05T12:01:59	22.1	67.5
121895	2025-06-05T12:11:59	23	62.5
121896	2025-06-05T12:21:59	21.6	65.5
121897	2025-06-05T12:31:59	22.2	64
121898	2025-06-05T12:41:59	22	62
121899	2025-06-05T12:51:59	21.6	56.5
121900	2025-06-05T13:01:59	21.8	54
121901	2025-06-05T13:11:59	22.4	53.5
121902	2025-06-05T13:21:59	23.4	52.5
121903	2025-06-05T13:31:59	22.5	53
121904	2025-06-05T13:41:59	22.3	53.5
121905	2025-06-05T13:51:59	22.9	52.5
121906	2025-06-05T14:02:18	23.1	50
121907	2025-06-05T14:11:59	25.9	46
121908	2025-06-05T14:21:59	27.1	42.5
121909	2025-06-05T14:31:59	27.5	39.5
121910	2025-06-05T14:41:59	27.5	40.5
121911	2025-06-05T14:51:59	27.8	39.5
121912	2025-06-05T15:01:59	29	37
121913	2025-06-05T15:11:59	28.1	40
121914	2025-06-05T15:21:59	28.7	39
121915	2025-06-05T15:31:59	27.5	39.5
121916	2025-06-05T15:41:58	26.8	42.5
121917	2025-06-05T15:51:58	25.9	42
121918	2025-06-05T16:01:58	26.3	43
121919	2025-06-05T16:11:58	25.8	43.5
121920	2025-06-05T16:21:58	25.4	45.5
121921	2025-06-05T16:31:58	25	47
121922	2025-06-05T16:41:58	24.2	48.5
121923	2025-06-05T16:51:58	23.5	51
121924	2025-06-05T17:01:58	23.2	53
121925	2025-06-05T17:11:58	22.9	53.5
121926	2025-06-05T17:21:58	22.3	54.5
121927	2025-06-05T17:31:58	22.2	56
121928	2025-06-05T17:54:23	21.8	57
121929	2025-06-05T17:54:23	21.6	58
121930	2025-06-05T18:01:58	21.3	59
121931	2025-06-05T18:11:58	21.1	59.5
121932	2025-06-05T18:21:58	20.9	59.5
121933	2025-06-05T18:31:58	20.6	61.5
121934	2025-06-05T18:41:58	20.6	63
121935	2025-06-05T18:51:58	20.4	65.5
121936	2025-06-05T19:01:58	20.2	68
121937	2025-06-05T19:21:58	19.9	67.5
121938	2025-06-05T19:31:58	19.8	65.5
121939	2025-06-05T19:41:58	19.7	65.5
121940	2025-06-05T19:51:58	19.5	67
121941	2025-06-05T20:01:58	19.4	67.5
121942	2025-06-05T20:11:58	19.3	68
121943	2025-06-05T20:21:58	19.2	68.5
121944	2025-06-05T20:31:58	19.2	69.5
121945	2025-06-05T20:41:58	19.1	72
121946	2025-06-05T20:51:58	19.1	73
121947	2025-06-05T21:01:58	19	77
121948	2025-06-05T21:11:58	18.7	78
121949	2025-06-05T21:21:58	18.6	73.5
121950	2025-06-05T21:31:58	18.4	72.5
121951	2025-06-05T21:41:58	18.4	73
121952	2025-06-05T21:51:58	18.4	77.5
121953	2025-06-05T22:01:58	17.8	75
121954	2025-06-05T22:11:58	18.2	76.5
121955	2025-06-05T22:21:58	18.1	78
121956	2025-06-05T22:31:58	17.6	77.5
121957	2025-06-05T22:41:58	17.4	77.5
121958	2025-06-05T22:51:58	17.6	78
121959	2025-06-05T23:01:58	17.5	79.5
121960	2025-06-05T23:11:58	17.3	81.5
121961	2025-06-05T23:21:58	17.4	82.5
121962	2025-06-05T23:31:58	17.4	81
121963	2025-06-05T23:41:58	17.4	82.5
121964	2025-06-05T23:51:58	17.4	83
121965	2025-06-06T00:01:58	17.4	84
121966	2025-06-06T00:11:58	17.3	83.5
121967	2025-06-06T00:21:58	17.3	85.5
121968	2025-06-06T00:31:58	17.3	86
121969	2025-06-06T00:41:58	17.3	86
121970	2025-06-06T00:51:58	17.3	86
121971	2025-06-06T01:01:58	17.2	86.5
121972	2025-06-06T01:11:58	17.5	86.5
121973	2025-06-06T01:21:58	17.4	87.5
121974	2025-06-06T01:31:58	17.1	91
121975	2025-06-06T01:41:58	17.2	93.5
121976	2025-06-06T01:51:58	17.1	90.5
121977	2025-06-06T02:01:58	17.3	89.5
121978	2025-06-06T02:11:58	17.3	89
121979	2025-06-06T02:21:58	17.7	87.5
121980	2025-06-06T02:31:58	17.8	86
121981	2025-06-06T02:41:57	18.1	83.5
121982	2025-06-06T02:51:57	18.5	80
121983	2025-06-06T03:01:57	18.7	80
121984	2025-06-06T03:11:57	18.9	78.5
121985	2025-06-06T03:21:57	19	78.5
121986	2025-06-06T03:31:57	18.8	78
121987	2025-06-06T03:41:57	18.9	77.5
121988	2025-06-06T03:51:57	19	77
121989	2025-06-06T04:01:57	19.1	75.5
121990	2025-06-06T04:11:58	19	75.5
121991	2025-06-06T04:21:57	19.3	75
121992	2025-06-06T04:31:57	19.3	73.5
121993	2025-06-06T04:41:57	19.5	73
121994	2025-06-06T04:51:57	19.6	73
121995	2025-06-06T05:01:57	19.8	72.5
121996	2025-06-06T05:11:57	19.9	72.5
121997	2025-06-06T05:21:57	20	71.5
121998	2025-06-06T05:31:57	20.1	71.5
121999	2025-06-06T05:41:57	20.1	71
122000	2025-06-06T05:51:57	20.2	72.5
122001	2025-06-06T06:01:57	19.9	73
122002	2025-06-06T06:11:57	18.7	82.5
122003	2025-06-06T06:21:57	18.4	86.5
122004	2025-06-06T06:31:57	17.6	94
122005	2025-06-06T06:41:57	18.7	87
122006	2025-06-06T06:51:57	19.3	82.5
122007	2025-06-06T07:01:57	19.4	80.5
122008	2025-06-06T07:11:57	18.2	98
122009	2025-06-06T07:21:57	19.1	85.5
122010	2025-06-06T07:31:57	19.6	84
122011	2025-06-06T07:41:57	20.1	80.5
122012	2025-06-06T07:51:57	18.9	90
122013	2025-06-06T08:01:57	17.7	100
122014	2025-06-06T08:11:57	16.9	100
122015	2025-06-06T08:21:57	16.5	100
122016	2025-06-06T08:31:57	16.7	100
122017	2025-06-06T08:41:57	16.7	100
122018	2025-06-06T08:51:57	17.2	100
122019	2025-06-06T09:01:57	17.4	100
122020	2025-06-06T09:11:57	17.5	100
122021	2025-06-06T09:21:57	17.4	100
122022	2025-06-06T09:31:57	17.1	100
122023	2025-06-06T09:41:57	17.1	100
122024	2025-06-06T09:51:57	17.4	100
122025	2025-06-06T10:01:57	17.5	100
122026	2025-06-06T10:11:57	16.7	100
122027	2025-06-06T10:21:57	16.5	100
122028	2025-06-06T10:32:15	16.7	100
122029	2025-06-06T10:41:57	16.4	100
122030	2025-06-06T10:51:57	16.1	100
122031	2025-06-06T11:01:57	16.2	100
122032	2025-06-06T11:11:57	15.8	100
122033	2025-06-06T11:21:57	16.3	100
122034	2025-06-06T11:31:57	16.5	100
122035	2025-06-06T11:41:57	16.9	100
122036	2025-06-06T11:51:57	17.8	100
122037	2025-06-06T12:01:57	17.7	100
122038	2025-06-06T12:11:57	17.4	100
122039	2025-06-06T12:21:57	16.9	100
122040	2025-06-06T12:31:57	16.4	100
122041	2025-06-06T12:41:57	16.7	100
122042	2025-06-06T12:51:57	16.7	100
122043	2025-06-06T13:01:57	16.3	100
122044	2025-06-06T13:11:57	16.3	100
122045	2025-06-06T13:21:57	16.3	99
122046	2025-06-06T13:31:57	16.3	98.5
122047	2025-06-06T13:41:56	16.4	97.5
122048	2025-06-06T13:51:56	16.9	96.5
122049	2025-06-06T14:01:56	18.6	96
122050	2025-06-06T14:11:56	18.8	96
122051	2025-06-06T14:21:56	20	96
122052	2025-06-06T14:31:56	20.7	96
122053	2025-06-06T14:41:56	22	96
122054	2025-06-06T14:51:56	21.5	96
122055	2025-06-06T15:01:56	20.5	96
122056	2025-06-06T15:11:56	19.5	96
122057	2025-06-06T15:21:56	19.4	96
122058	2025-06-06T15:31:56	19.2	96
122059	2025-06-06T15:41:56	18.9	96
122060	2025-06-06T15:51:56	18.6	96
122061	2025-06-06T16:01:56	17.7	96
122062	2025-06-06T16:11:56	17.6	96
122063	2025-06-06T16:21:56	17.4	96
122064	2025-06-06T16:31:56	17.5	96
122065	2025-06-06T16:41:56	17.6	96
122066	2025-06-06T16:51:56	17.6	96.5
122067	2025-06-06T17:01:56	17.7	96
122068	2025-06-06T17:11:56	18	96
122069	2025-06-06T17:21:56	17.9	96
122070	2025-06-06T17:31:56	17.9	96.5
122071	2025-06-06T17:41:56	17.9	96
122072	2025-06-06T17:51:56	17.9	96.5
122073	2025-06-06T18:01:56	17.8	96
122074	2025-06-06T18:11:56	17.8	96
122075	2025-06-06T18:21:56	17.7	96.5
122076	2025-06-06T18:31:56	17.7	96
122077	2025-06-06T18:41:56	17.6	96
122078	2025-06-06T18:51:56	17.4	96.5
122079	2025-06-06T19:01:56	17.3	96.5
122080	2025-06-06T19:11:56	17.3	96.5
122081	2025-06-06T19:21:56	17.2	96.5
122082	2025-06-06T19:31:56	17.1	96.5
122083	2025-06-06T19:41:56	17.1	96.5
122084	2025-06-06T19:51:56	17	96.5
122085	2025-06-06T20:01:56	16.9	96.5
122086	2025-06-06T20:11:56	16.8	96.5
122087	2025-06-06T20:21:56	16.5	96.5
122088	2025-06-06T20:31:56	16.5	96.5
122089	2025-06-06T20:41:56	16.4	96.5
122090	2025-06-06T20:51:56	16.2	96.5
122091	2025-06-06T21:01:56	16	96.5
122092	2025-06-06T21:11:56	15.9	96.5
122093	2025-06-06T21:21:56	15.8	96.5
122094	2025-06-06T21:31:56	15.6	96.5
122095	2025-06-06T21:41:56	15.9	96.5
122096	2025-06-06T21:51:56	15.9	96.5
122097	2025-06-06T22:01:56	15.9	96.5
122098	2025-06-06T22:11:56	16	96.5
122099	2025-06-06T22:21:56	15.9	96.5
122100	2025-06-06T22:31:56	15.9	96.5
122101	2025-06-06T22:41:56	15.8	96.5
122102	2025-06-06T22:51:56	15.7	96.5
122103	2025-06-06T23:01:56	15.8	96.5
122104	2025-06-06T23:11:56	15.9	96.5
122105	2025-06-06T23:21:56	15.8	96.5
122106	2025-06-06T23:31:56	15.7	96.5
122107	2025-06-06T23:41:56	15.8	96.5
122108	2025-06-06T23:51:56	15.7	96.5
122109	2025-06-07T00:01:56	15.8	96.5
122110	2025-06-07T00:11:56	15.8	96.5
122111	2025-06-07T00:21:56	15.6	96.5
122112	2025-06-07T00:31:56	15.6	96.5
122113	2025-06-07T00:41:56	15.6	96.5
122114	2025-06-07T00:51:56	15.3	96.5
122115	2025-06-07T01:01:56	15.4	96.5
122116	2025-06-07T01:11:56	15.4	96.5
122117	2025-06-07T01:21:56	15.5	96.5
122118	2025-06-07T01:31:56	15.4	96.5
122119	2025-06-07T01:41:55	15.3	96.5
122120	2025-06-07T01:51:55	15.1	96.5
122121	2025-06-07T02:01:55	15	96.5
122122	2025-06-07T02:11:55	14.9	96.5
122123	2025-06-07T02:21:55	15.2	96.5
122124	2025-06-07T02:31:55	15.3	96.5
122125	2025-06-07T02:41:55	15.3	96.5
122126	2025-06-07T02:51:55	15.6	96.5
122127	2025-06-07T03:01:55	16.1	96.5
122128	2025-06-07T03:11:55	16	96.5
122129	2025-06-07T03:21:55	16	96.5
122130	2025-06-07T03:31:55	16	96.5
122131	2025-06-07T03:41:55	15.9	96.5
122132	2025-06-07T03:51:55	15.9	96.5
122133	2025-06-07T04:01:55	16.1	96.5
122134	2025-06-07T04:11:55	16.1	96.5
122135	2025-06-07T04:21:55	16.2	96.5
122136	2025-06-07T04:31:55	16.3	96.5
122137	2025-06-07T04:41:55	16.3	96.5
122138	2025-06-07T04:51:55	16.4	96.5
122139	2025-06-07T05:01:55	16.5	96.5
122140	2025-06-07T05:11:55	16.4	96.5
122141	2025-06-07T05:21:55	16.6	96.5
122142	2025-06-07T05:31:55	16.8	96.5
122143	2025-06-07T05:41:55	17.1	96.5
122144	2025-06-07T05:51:55	17	96.5
122145	2025-06-07T06:01:55	17.2	96.5
122146	2025-06-07T06:11:55	17.3	96.5
122147	2025-06-07T06:21:55	17.4	96.5
122148	2025-06-07T06:31:55	17.6	96.5
122149	2025-06-07T06:41:55	17.3	96.5
122150	2025-06-07T06:51:55	17.1	96.5
122151	2025-06-07T07:01:55	17.1	96.5
122152	2025-06-07T07:11:55	16.7	96.5
122153	2025-06-07T07:21:55	16.2	97
122154	2025-06-07T07:31:55	15.9	97
122155	2025-06-07T07:41:55	15.8	97
122156	2025-06-07T07:51:55	15.7	97
122157	2025-06-07T08:01:55	15.7	97
122158	2025-06-07T08:11:55	15.4	97
122159	2025-06-07T08:21:55	15.1	97.5
122160	2025-06-07T08:31:55	15.3	97.5
122161	2025-06-07T08:41:55	15.6	97.5
122162	2025-06-07T08:51:55	16	97.5
122163	2025-06-07T09:01:55	16.3	97
122164	2025-06-07T09:11:55	16.7	97
122165	2025-06-07T09:21:55	17	97
122166	2025-06-07T09:31:55	17.5	97
122167	2025-06-07T09:41:55	17.7	97
122168	2025-06-07T09:51:55	17.8	97
122169	2025-06-07T10:01:55	18	97
122170	2025-06-07T10:11:55	18.5	97
122171	2025-06-07T10:21:55	18.5	97
122172	2025-06-07T10:31:55	18.2	97
122173	2025-06-07T10:41:55	18	97
122174	2025-06-07T10:51:55	17.9	97
122175	2025-06-07T11:01:55	18.9	97
122176	2025-06-07T11:11:55	19.4	97
122177	2025-06-07T11:21:55	18.8	97
122178	2025-06-07T11:31:55	18.5	97
122179	2025-06-07T11:41:55	18.1	97
122180	2025-06-07T11:51:55	19.2	97
122181	2025-06-07T12:01:55	21.3	97.5
122182	2025-06-07T12:11:55	23.5	97.5
122183	2025-06-07T12:21:55	22.3	97
122184	2025-06-07T12:31:55	20.9	97
122185	2025-06-07T12:41:54	21.2	97
122186	2025-06-07T12:51:54	21.3	97
122187	2025-06-07T13:01:54	21.3	100
122188	2025-06-07T13:11:54	20.6	100
122189	2025-06-07T13:21:54	20.8	100
122190	2025-06-07T13:31:54	21.4	100
122191	2025-06-07T13:41:54	21.2	98
122192	2025-06-07T13:51:54	21	94
122193	2025-06-07T14:01:54	20.6	68.5
122194	2025-06-07T14:11:54	20	73
122195	2025-06-07T14:21:54	20.2	71.5
122196	2025-06-07T14:31:54	20.4	70
122197	2025-06-07T14:41:54	20	70.5
122198	2025-06-07T14:51:54	20	69.5
122199	2025-06-07T15:01:54	21.5	64.5
122200	2025-06-07T15:11:54	22	61.5
122201	2025-06-07T15:21:54	23.3	57.5
122202	2025-06-07T15:31:54	23.2	58
122203	2025-06-07T15:41:54	22.8	57
122204	2025-06-07T15:51:54	23.1	56.5
122205	2025-06-07T16:01:54	23.3	56.5
122206	2025-06-07T16:11:54	22.8	57.5
122207	2025-06-07T16:21:54	22.7	58.5
122208	2025-06-07T16:31:54	22.6	59
122209	2025-06-07T16:41:54	22.4	61
122210	2025-06-07T16:51:54	22	61
122211	2025-06-07T17:01:54	21.8	62
122212	2025-06-07T17:11:54	21.1	64
122213	2025-06-07T17:21:54	21.1	63.5
122214	2025-06-07T17:31:54	20.9	64.5
122215	2025-06-07T17:41:54	20.4	65.5
122216	2025-06-07T17:52:16	20.1	67
122217	2025-06-07T18:01:54	19.8	68.5
122218	2025-06-07T18:11:54	19.6	69
122219	2025-06-07T18:21:54	19.4	70.5
122220	2025-06-07T18:31:54	19.1	70.5
122221	2025-06-07T18:41:54	18.9	70.5
122222	2025-06-07T18:51:54	18.6	71
122223	2025-06-07T19:01:54	18.5	71
122224	2025-06-07T19:11:54	18.4	71.5
122225	2025-06-07T19:21:54	18.3	72.5
122226	2025-06-07T19:31:54	18.4	72
122227	2025-06-07T19:41:54	18.3	72
122228	2025-06-07T19:51:54	18.2	71
122229	2025-06-07T20:01:54	18.3	71
122230	2025-06-07T20:11:54	18.2	71
122231	2025-06-07T20:21:54	18.2	71.5
122232	2025-06-07T20:31:54	18	71
122233	2025-06-07T20:41:54	18	72
122234	2025-06-07T20:51:54	17.9	72.5
122235	2025-06-07T21:01:54	18	72.5
122236	2025-06-07T21:11:54	18	72.5
122237	2025-06-07T21:21:54	18	73.5
122238	2025-06-07T21:31:54	17.9	74
122239	2025-06-07T21:41:54	17.8	74.5
122240	2025-06-07T21:51:54	17.8	75
122241	2025-06-07T22:01:54	17.6	75.5
122242	2025-06-07T22:21:54	17.5	76.5
122243	2025-06-07T22:31:54	17.5	77
122244	2025-06-07T22:41:54	17.4	77.5
122245	2025-06-07T22:51:54	17.5	78
122246	2025-06-07T23:01:54	17.4	78
122247	2025-06-07T23:11:54	17.5	78.5
122248	2025-06-07T23:21:54	17.5	78.5
122249	2025-06-07T23:31:54	17.4	79.5
122250	2025-06-07T23:41:54	17.4	79
122251	2025-06-07T23:51:54	17.2	79.5
122252	2025-06-08T00:01:54	17.2	80
122253	2025-06-08T00:11:53	17.2	80.5
122254	2025-06-08T00:21:53	17	82.5
122255	2025-06-08T00:31:53	17.1	81
122256	2025-06-08T00:41:53	17.1	82
122257	2025-06-08T00:51:53	15.6	98.5
122258	2025-06-08T01:01:53	15.6	96
122259	2025-06-08T01:11:53	15.6	94.5
122260	2025-06-08T01:21:53	15.5	93.5
122261	2025-06-08T01:31:53	15.6	93
122262	2025-06-08T01:41:53	15.4	92.5
122263	2025-06-08T01:51:53	15.5	92.5
122264	2025-06-08T02:01:53	15.4	92.5
122265	2025-06-08T02:11:53	15.4	91
122266	2025-06-08T02:21:53	15.6	89.5
122267	2025-06-08T02:31:53	15.7	88
122268	2025-06-08T02:41:53	15.8	87
122269	2025-06-08T02:51:53	15.9	85.5
122270	2025-06-08T03:01:53	16	85
122271	2025-06-08T03:11:53	15.9	84.5
122272	2025-06-08T03:21:53	16	85
122273	2025-06-08T03:31:53	15	98
122274	2025-06-08T03:41:53	14.6	100
122275	2025-06-08T03:51:53	14.5	100
122276	2025-06-08T04:01:53	14.5	100
122277	2025-06-08T04:11:53	14.4	100
122278	2025-06-08T04:21:53	14.6	100
122279	2025-06-08T04:31:53	14.8	100
122280	2025-06-08T04:41:53	14.8	100
122281	2025-06-08T04:51:53	15	100
122282	2025-06-08T05:01:53	14.9	100
122283	2025-06-08T05:11:53	14.9	100
122284	2025-06-08T05:21:53	14.8	100
122285	2025-06-08T05:31:53	14.9	100
122286	2025-06-08T05:41:53	14.9	100
122287	2025-06-08T05:51:53	15.1	100
122288	2025-06-08T06:01:53	15.3	95.5
122289	2025-06-08T06:11:53	15.4	93
122290	2025-06-08T06:21:53	15.3	92
122291	2025-06-08T06:31:53	15.1	92
122292	2025-06-08T06:41:53	15.3	90
122293	2025-06-08T06:51:53	15.5	88.5
122294	2025-06-08T07:11:53	14.2	100
122295	2025-06-08T07:21:53	13.5	100
122296	2025-06-08T07:31:53	13	100
122297	2025-06-08T07:41:53	13.4	100
122298	2025-06-08T07:51:53	12.6	100
122299	2025-06-08T08:01:53	12.2	100
122300	2025-06-08T08:11:53	11.9	100
122301	2025-06-08T08:21:53	12	100
122302	2025-06-08T08:31:53	12.3	100
122303	2025-06-08T08:41:53	12.3	100
122304	2025-06-08T08:51:53	12.4	100
122305	2025-06-08T09:01:53	12.4	100
122306	2025-06-08T09:11:53	12.4	100
122307	2025-06-08T09:21:53	12.4	100
122308	2025-06-08T09:31:53	12.5	100
122309	2025-06-08T09:41:53	12.5	100
122310	2025-06-08T09:51:53	12.4	100
122311	2025-06-08T10:01:53	12.6	100
122312	2025-06-08T10:11:53	12.7	100
122313	2025-06-08T10:21:53	13.5	100
122314	2025-06-08T10:31:53	13.2	100
122315	2025-06-08T10:41:53	13.3	100
122316	2025-06-08T10:51:53	13.5	100
122317	2025-06-08T11:01:53	14.2	100
122318	2025-06-08T11:11:53	14.4	100
122319	2025-06-08T11:21:53	14.9	100
122320	2025-06-08T11:31:53	15.5	100
122321	2025-06-08T11:41:53	15.7	100
122322	2025-06-08T11:51:53	15.5	100
122323	2025-06-08T12:01:52	13.6	100
122324	2025-06-08T12:11:52	14	99.5
122325	2025-06-08T12:21:52	16.4	99.5
122326	2025-06-08T12:31:52	19.1	99.5
122327	2025-06-08T12:41:52	19.5	99.5
122328	2025-06-08T12:51:52	19.6	98.5
122329	2025-06-08T13:01:52	19.2	97.5
122330	2025-06-08T13:11:52	18.7	96.5
122331	2025-06-08T13:21:52	19.1	96.5
122332	2025-06-08T13:31:52	15.4	96.5
122333	2025-06-08T13:41:52	18.3	96.5
122334	2025-06-08T13:51:52	19.7	96.5
122335	2025-06-08T14:01:52	20.7	96.5
122336	2025-06-08T14:11:52	20.7	96.5
122337	2025-06-08T14:21:52	21.3	96.5
122338	2025-06-08T14:31:52	18.7	96.5
122339	2025-06-08T14:41:52	14.7	96.5
122340	2025-06-08T14:51:52	16.7	96.5
122341	2025-06-08T15:01:52	18.2	96.5
122342	2025-06-08T15:11:52	16.2	96.5
122343	2025-06-08T15:21:52	15.8	96.5
122344	2025-06-08T15:31:52	14.8	97
122345	2025-06-08T15:41:52	13.7	97
122346	2025-06-08T15:51:52	16.1	96.5
122347	2025-06-08T16:01:52	17.8	96.5
122348	2025-06-08T16:11:52	18.3	97
122349	2025-06-08T16:21:52	18.1	96.5
122350	2025-06-08T16:31:52	18.8	96.5
122351	2025-06-08T16:41:52	19.1	96.5
122352	2025-06-08T16:51:52	19.3	96.5
122353	2025-06-08T17:01:52	19.6	96.5
122354	2025-06-08T17:11:52	19.6	96.5
122355	2025-06-08T17:21:52	19.8	96.5
122356	2025-06-08T17:31:52	19.2	99.5
122357	2025-06-08T17:41:52	18.9	100
122358	2025-06-08T17:51:52	18.6	100
122359	2025-06-08T18:01:52	18.4	100
122360	2025-06-08T18:11:52	18.3	100
122361	2025-06-08T18:21:52	17.9	98.5
122362	2025-06-08T18:31:52	17.4	83
122363	2025-06-08T18:41:52	17.1	61.5
122364	2025-06-08T18:51:52	16.7	61
122365	2025-06-08T19:11:52	15.8	64
122366	2025-06-08T19:21:52	15.1	66.5
122367	2025-06-08T19:31:52	14.7	69.5
122368	2025-06-08T19:41:52	14.3	72
122369	2025-06-08T19:51:52	14	72
122370	2025-06-08T20:01:52	13.6	75
122371	2025-06-08T20:11:52	13	76.5
122372	2025-06-08T20:21:52	12.8	77.5
122373	2025-06-08T20:31:52	12.8	75.5
122374	2025-06-08T20:41:52	12.8	76
122375	2025-06-08T20:51:52	12.4	79
122376	2025-06-08T21:01:52	12.2	79.5
122377	2025-06-08T21:11:52	12.1	80
122378	2025-06-08T21:21:52	12	79
122379	2025-06-08T21:31:52	11.8	79.5
122380	2025-06-08T21:41:52	11.6	82
122381	2025-06-08T21:51:52	11.6	80.5
122382	2025-06-08T22:01:52	11.6	79.5
122383	2025-06-08T22:11:52	11.5	81
122384	2025-06-08T22:21:52	11.3	84.5
122385	2025-06-08T22:31:52	11	88
122386	2025-06-08T22:41:52	10.9	87
122387	2025-06-08T22:51:52	10.6	89.5
122388	2025-06-08T23:01:52	10.4	92
122389	2025-06-08T23:11:52	10.2	92.5
122390	2025-06-08T23:21:52	10	93.5
122391	2025-06-08T23:31:52	9.9	94
122392	2025-06-08T23:41:52	9.8	95
122393	2025-06-08T23:51:52	9.6	95.5
122394	2025-06-09T00:01:52	9.5	95.5
122395	2025-06-09T00:11:52	9.4	96
122396	2025-06-09T00:21:52	9.2	96
122397	2025-06-09T00:31:52	9	96.5
122398	2025-06-09T00:41:52	8.9	97
122399	2025-06-09T00:51:52	8.8	97.5
122400	2025-06-09T01:01:52	8.7	97.5
122401	2025-06-09T01:11:52	8.7	98.5
122402	2025-06-09T01:21:51	8.5	98
122403	2025-06-09T01:31:52	8.6	98.5
122404	2025-06-09T01:41:51	8.3	98
122405	2025-06-09T01:51:51	8.3	98.5
122406	2025-06-09T02:01:51	8.1	98.5
122407	2025-06-09T02:11:51	8	98.5
122408	2025-06-09T02:21:51	8	98.5
122409	2025-06-09T02:31:51	7.9	99
122410	2025-06-09T02:41:52	7.8	99
122411	2025-06-09T02:51:51	7.7	99
122412	2025-06-09T03:01:51	7.7	100
122413	2025-06-09T03:11:51	7.6	99.5
122414	2025-06-09T03:21:52	7.4	100
122415	2025-06-09T03:31:51	7.5	100
122416	2025-06-09T03:41:51	7.4	99.5
122417	2025-06-09T03:51:52	7.4	99.5
122418	2025-06-09T04:01:51	7.4	100
122419	2025-06-09T04:11:51	7.4	100
122420	2025-06-09T04:21:51	7.5	100
122421	2025-06-09T04:31:51	7.7	100
122422	2025-06-09T04:41:51	7.7	100
122423	2025-06-09T04:51:51	8	100
122424	2025-06-09T05:01:51	8.1	100
122425	2025-06-09T05:11:51	8.3	100
122426	2025-06-09T05:21:51	8.5	100
122427	2025-06-09T05:31:51	8.8	100
122428	2025-06-09T05:51:51	9.1	99
122429	2025-06-09T06:01:51	9.5	97
122430	2025-06-09T06:11:51	9.7	97.5
122431	2025-06-09T06:21:51	10.2	94.5
122432	2025-06-09T06:31:51	10.4	93
122433	2025-06-09T06:41:51	10.8	93
122434	2025-06-09T06:51:51	11.1	91
122435	2025-06-09T07:01:51	11.3	90
122436	2025-06-09T07:11:51	11.9	90.5
122437	2025-06-09T07:21:51	12.1	89
122438	2025-06-09T07:31:51	12.3	90
122439	2025-06-09T07:41:51	12.8	86.5
122440	2025-06-09T07:51:51	13.3	84
122441	2025-06-09T08:01:51	13.7	80.5
122442	2025-06-09T08:11:51	13.9	78
122443	2025-06-09T08:21:51	14.1	78
122444	2025-06-09T08:31:51	14.9	74
122445	2025-06-09T08:41:51	14.9	74.5
122446	2025-06-09T08:51:51	15.4	72.5
122447	2025-06-09T09:01:51	15.6	74.5
122448	2025-06-09T09:11:51	15.9	72.5
122449	2025-06-09T09:21:51	16	71.5
122450	2025-06-09T09:31:51	16.4	70
122451	2025-06-09T09:41:51	16.9	68.5
122452	2025-06-09T09:51:51	17.1	60.5
122453	2025-06-09T10:01:51	17.7	61.5
122454	2025-06-09T10:11:51	18	58.5
122455	2025-06-09T10:21:51	18.3	59
122456	2025-06-09T10:31:51	18.2	52.5
122457	2025-06-09T10:41:51	18.9	54.5
122458	2025-06-09T10:51:51	19.6	54
122459	2025-06-09T11:01:51	20.3	54
122460	2025-06-09T11:11:51	19.9	51
122461	2025-06-09T11:21:51	20	51
122462	2025-06-09T11:31:51	20.4	52.5
122463	2025-06-09T11:41:51	20.9	53
122464	2025-06-09T11:51:51	21.3	50
122465	2025-06-09T12:01:51	23.4	46
122466	2025-06-09T12:11:51	28.3	38
122467	2025-06-09T12:21:51	27.7	38
122468	2025-06-09T12:31:51	31.4	34.5
122469	2025-06-09T12:41:51	31.3	31.5
122470	2025-06-09T12:51:51	30.8	33
122471	2025-06-09T13:01:51	33.5	30.5
122472	2025-06-09T13:11:51	34.1	27.5
122473	2025-06-09T13:21:51	34.3	29.5
122474	2025-06-09T13:31:51	33.5	29.5
122475	2025-06-09T13:41:51	33.9	28
122476	2025-06-09T13:51:51	34.9	26.5
122477	2025-06-09T14:01:51	33.4	28.5
122478	2025-06-09T14:11:51	34.2	28.5
122479	2025-06-09T14:21:50	34.3	26.5
122480	2025-06-09T14:31:50	34.9	26.5
122481	2025-06-09T14:41:50	35.5	26
122482	2025-06-09T14:51:50	34.5	28.5
122483	2025-06-09T15:01:50	34.8	29
122484	2025-06-09T15:11:50	34.2	29
122485	2025-06-09T15:21:50	34.2	27.5
122486	2025-06-09T15:31:50	33	28
122487	2025-06-09T15:41:50	34.3	28
122488	2025-06-09T15:51:50	34.2	29
122489	2025-06-09T16:01:50	33.8	28.5
122490	2025-06-09T16:11:50	33.2	30.5
122491	2025-06-09T16:21:50	33.3	30
122492	2025-06-09T16:31:50	32.8	30
122493	2025-06-09T16:41:50	32.8	31.5
122494	2025-06-09T16:51:50	32.1	33
122495	2025-06-09T17:01:50	32.2	31
122496	2025-06-09T17:11:50	32.2	32
122497	2025-06-09T17:21:50	32.1	32
122498	2025-06-09T17:31:50	31.7	34
122499	2025-06-09T17:41:50	31.4	34.5
122500	2025-06-09T17:51:50	30.6	35.5
122501	2025-06-09T18:01:50	29.7	36.5
122502	2025-06-09T18:11:50	29.1	36.5
122503	2025-06-09T18:21:50	28.4	39
122504	2025-06-09T18:31:50	27.3	43.5
122505	2025-06-09T18:41:50	25.8	47.5
122506	2025-06-09T18:51:50	24.5	52
122507	2025-06-09T19:01:50	23.7	53
122508	2025-06-09T19:11:50	23	56
122509	2025-06-09T19:21:50	22.3	56.5
122510	2025-06-09T19:31:50	21.7	57.5
122511	2025-06-09T19:41:50	21.2	58
122512	2025-06-09T19:51:50	20.7	62
122513	2025-06-09T20:01:50	20.2	62.5
122514	2025-06-09T20:11:50	19.7	64
122515	2025-06-09T20:21:50	19.2	64.5
122516	2025-06-09T20:31:50	18.9	66
122517	2025-06-09T20:41:50	18.5	66
122518	2025-06-09T20:51:50	18.1	67
122519	2025-06-09T21:01:50	17.9	68.5
122520	2025-06-09T21:11:50	17.7	69.5
122521	2025-06-09T21:21:50	17.5	69.5
122522	2025-06-09T21:31:50	17.2	70.5
122523	2025-06-09T21:41:50	16.9	72
122524	2025-06-09T21:51:50	16.7	72
122525	2025-06-09T22:01:50	16.5	74
122526	2025-06-09T22:11:50	16.1	74.5
122527	2025-06-09T22:21:50	16	75.5
122528	2025-06-09T22:31:50	15.7	75.5
122529	2025-06-09T22:41:50	15.5	75.5
122530	2025-06-09T22:51:50	15.4	77
122531	2025-06-09T23:01:50	15.2	78
122532	2025-06-09T23:11:50	14.9	78.5
122533	2025-06-09T23:21:50	14.7	79
122534	2025-06-09T23:31:50	14.5	79
122535	2025-06-09T23:41:50	14.4	78.5
122536	2025-06-09T23:51:50	14.2	79
122537	2025-06-10T00:01:50	14.2	79.5
122538	2025-06-10T00:11:50	14	80.5
122539	2025-06-10T00:21:50	13.6	81.5
122540	2025-06-10T00:31:50	13.4	82
122541	2025-06-10T00:41:50	13.3	83.5
122542	2025-06-10T00:51:50	13.2	83.5
122543	2025-06-10T01:01:50	12.8	83.5
122544	2025-06-10T01:11:50	12.8	84
122545	2025-06-10T01:21:50	12.6	84
122546	2025-06-10T01:31:49	12.6	84.5
122547	2025-06-10T01:41:49	12.3	84.5
122548	2025-06-10T01:51:49	12.3	85
122549	2025-06-10T02:01:49	12	85.5
122550	2025-06-10T02:11:49	11.9	86
122551	2025-06-10T02:21:49	11.8	86.5
122552	2025-06-10T02:31:49	11.6	85.5
122553	2025-06-10T02:41:49	11.6	87
122554	2025-06-10T02:51:49	11.5	87.5
122555	2025-06-10T03:01:49	11.4	87.5
122556	2025-06-10T03:11:49	11.2	88
122557	2025-06-10T03:21:49	11.1	88
122558	2025-06-10T03:31:49	11	89
122559	2025-06-10T03:41:49	10.9	89
122560	2025-06-10T03:51:49	10.9	89.5
122561	2025-06-10T04:01:49	10.8	89.5
122562	2025-06-10T04:11:49	10.9	89.5
122563	2025-06-10T04:21:49	11	89.5
122564	2025-06-10T04:31:49	11	90.5
122565	2025-06-10T04:41:49	11.2	90
122566	2025-06-10T04:51:49	11.3	90
122567	2025-06-10T05:01:49	11.5	90.5
122568	2025-06-10T05:11:49	11.7	91
122569	2025-06-10T05:21:49	11.8	91.5
122570	2025-06-10T05:31:49	12.2	89.5
122571	2025-06-10T05:41:49	12.5	87.5
122572	2025-06-10T05:51:49	12.9	86
122573	2025-06-10T06:01:49	13.3	87
122574	2025-06-10T06:11:49	13.7	86
122575	2025-06-10T06:21:49	13.9	85
122576	2025-06-10T06:31:49	14.2	85.5
122577	2025-06-10T06:41:49	14.6	86
122578	2025-06-10T06:51:49	14.9	83
122579	2025-06-10T07:01:49	15.1	82
122580	2025-06-10T07:11:49	15.4	81
122581	2025-06-10T07:21:49	15.9	78
122582	2025-06-10T07:31:49	16.2	77.5
122583	2025-06-10T07:41:49	16.7	76
122584	2025-06-10T07:51:49	17.2	75.5
122585	2025-06-10T08:01:49	17.7	73
122586	2025-06-10T08:11:49	18.2	71.5
122587	2025-06-10T08:21:49	18.8	70.5
122588	2025-06-10T08:31:49	19.5	68.5
122589	2025-06-10T08:41:49	19.8	67
122590	2025-06-10T08:51:49	19.7	66
122591	2025-06-10T09:01:49	19.8	66.5
122592	2025-06-10T09:11:49	20	65
122593	2025-06-10T09:21:49	20.5	64
122594	2025-06-10T09:31:49	20.9	59.5
122595	2025-06-10T09:41:49	21.3	58.5
122596	2025-06-10T09:51:49	21.8	58
122597	2025-06-10T10:01:49	22.2	56
122598	2025-06-10T10:11:49	22.8	53.5
122599	2025-06-10T10:21:49	23.3	52.5
122600	2025-06-10T10:31:49	23.6	51.5
122601	2025-06-10T10:41:49	23.9	49.5
122602	2025-06-10T10:51:49	24.4	49
122603	2025-06-10T11:01:49	24.5	48.5
122604	2025-06-10T11:11:49	24.3	49
122605	2025-06-10T11:21:49	24.2	48.5
122606	2025-06-10T11:31:49	24.3	50
122607	2025-06-10T11:41:49	24.8	49
122608	2025-06-10T11:51:49	24.6	48.5
122609	2025-06-10T12:01:49	25.1	48.5
122610	2025-06-10T12:11:49	26.8	45
122611	2025-06-10T12:21:49	27.5	44.5
122612	2025-06-10T12:31:49	27.1	44
122613	2025-06-10T12:41:49	27.6	44.5
122614	2025-06-10T12:51:49	28.4	42
122615	2025-06-10T13:01:49	29.7	40
122616	2025-06-10T13:11:49	30.2	39.5
122617	2025-06-10T13:21:49	30.9	38
122618	2025-06-10T13:31:49	30.4	38.5
122619	2025-06-10T13:41:49	30.2	39.5
122620	2025-06-10T13:51:49	30.5	38
122621	2025-06-10T14:01:49	30.3	39
122622	2025-06-10T14:11:48	30	41
122623	2025-06-10T14:21:48	30.3	39.5
122624	2025-06-10T14:31:48	30.1	39.5
122625	2025-06-10T14:41:48	29.9	40
122626	2025-06-10T14:51:48	30.2	40
122627	2025-06-10T15:01:48	29.8	40.5
122628	2025-06-10T15:11:48	29.4	40.5
122629	2025-06-10T15:21:48	30	36.5
122630	2025-06-10T15:31:48	30.7	35
122631	2025-06-10T15:41:48	30.3	36.5
122632	2025-06-10T15:51:48	30	37.5
122633	2025-06-10T16:01:48	29.1	37.5
122634	2025-06-10T16:11:48	29.6	37.5
122635	2025-06-10T16:31:48	28.4	40.5
122636	2025-06-10T16:41:48	28.6	41
122637	2025-06-10T16:51:48	27.6	41
122638	2025-06-10T17:01:48	27.7	41
122639	2025-06-10T17:11:48	27.3	42
122640	2025-06-10T17:21:48	27.1	42.5
122641	2025-06-10T17:31:48	26.7	43
122642	2025-06-10T17:41:48	26.5	44
122643	2025-06-10T17:51:48	26.4	45
122644	2025-06-10T18:01:48	25.9	45
122645	2025-06-10T18:11:48	26	45
122646	2025-06-10T18:21:48	25.5	44.5
122647	2025-06-10T18:31:48	25.4	45.5
122648	2025-06-10T18:41:48	24.6	47
122649	2025-06-10T18:51:48	24.3	48
122650	2025-06-10T19:01:48	23.8	48.5
122651	2025-06-10T19:11:48	23.5	50
122652	2025-06-10T19:21:48	23	51
122653	2025-06-10T19:31:48	22.7	53.5
122654	2025-06-10T19:41:48	22.1	56
122655	2025-06-10T19:51:48	21.7	58.5
122656	2025-06-10T20:01:48	21.5	59.5
122657	2025-06-10T20:11:48	21.1	60.5
122658	2025-06-10T20:21:48	20.8	62
122659	2025-06-10T20:31:48	20.3	64
122660	2025-06-10T20:41:48	20	65.5
122661	2025-06-10T20:51:48	19.9	66
122662	2025-06-10T21:01:48	19.7	67
122663	2025-06-10T21:11:48	19.4	68
122664	2025-06-10T21:21:48	18.7	70
122665	2025-06-10T21:31:48	18.5	70.5
122666	2025-06-10T21:41:48	18.7	70
122667	2025-06-10T21:51:48	18.5	70
122668	2025-06-10T22:01:48	18.4	70.5
122669	2025-06-10T22:11:48	18.3	72
122670	2025-06-10T22:21:48	18.1	72.5
122671	2025-06-10T22:31:48	18.1	74
122672	2025-06-10T22:41:48	17.9	74
122673	2025-06-10T22:51:48	17.7	75
122674	2025-06-10T23:01:48	17.6	76
122675	2025-06-10T23:11:48	17.4	76.5
122676	2025-06-10T23:21:48	17.1	78
122677	2025-06-10T23:31:48	16.9	79
122678	2025-06-10T23:41:48	16.8	79
122679	2025-06-10T23:51:48	16.7	80
122680	2025-06-11T00:01:47	16.5	80
122681	2025-06-11T00:11:47	16.4	80.5
122682	2025-06-11T00:21:47	16.3	80.5
122683	2025-06-11T00:31:47	16.1	81.5
122684	2025-06-11T00:41:47	15.8	82
122685	2025-06-11T00:51:47	15.7	83
122686	2025-06-11T01:01:47	15.7	84
122687	2025-06-11T01:11:47	15.9	84
122688	2025-06-11T01:21:47	16.3	83
122689	2025-06-11T01:31:47	16.5	82
122690	2025-06-11T01:41:47	16.6	82.5
122691	2025-06-11T01:51:47	16.6	82.5
122692	2025-06-11T02:01:47	16.7	82
122693	2025-06-11T02:11:47	16.8	82
122694	2025-06-11T02:21:47	16.8	81
122695	2025-06-11T02:31:47	17	81
122696	2025-06-11T02:41:47	16.8	80.5
122697	2025-06-11T02:51:47	16.8	80.5
122698	2025-06-11T03:01:47	16.8	79.5
122699	2025-06-11T03:11:47	16.8	79.5
122700	2025-06-11T03:21:47	16.7	78
122701	2025-06-11T03:31:47	16.7	76.5
122702	2025-06-11T03:41:47	16.7	76.5
122703	2025-06-11T03:51:47	16.6	77.5
122704	2025-06-11T04:01:47	16.6	78.5
122705	2025-06-11T04:11:47	16.7	78
122706	2025-06-11T04:21:47	16.8	78.5
122707	2025-06-11T04:31:47	17	80
122708	2025-06-11T04:41:47	17	80
122709	2025-06-11T04:51:47	16.8	80
122710	2025-06-11T05:01:47	16.7	81
122711	2025-06-11T05:11:47	16.5	80.5
122712	2025-06-11T05:21:47	16.6	78.5
122713	2025-06-11T05:31:47	16.7	74.5
122714	2025-06-11T05:41:47	16.9	73.5
122715	2025-06-11T05:51:47	16.9	71.5
122716	2025-06-11T06:01:47	17	72.5
122717	2025-06-11T06:11:47	17.1	71
122718	2025-06-11T06:21:47	17.2	69
122719	2025-06-11T06:31:47	17.3	65.5
122720	2025-06-11T06:41:47	17.4	64
122721	2025-06-11T06:51:47	17.7	64
122722	2025-06-11T07:01:47	17.9	60.5
122723	2025-06-11T07:11:47	18	60
122724	2025-06-11T07:21:47	18.2	58.5
122725	2025-06-11T07:31:47	18.4	59
122726	2025-06-11T07:41:47	18.5	60
122727	2025-06-11T07:51:47	18.7	60
122728	2025-06-11T08:01:47	18.8	56.5
122729	2025-06-11T08:11:47	19	57
122730	2025-06-11T08:21:47	19.2	58
122731	2025-06-11T08:31:47	19.4	58.5
122732	2025-06-11T08:41:47	19.6	58.5
122733	2025-06-11T08:51:47	19.9	55.5
122734	2025-06-11T09:01:47	20.3	57.5
122735	2025-06-11T09:11:47	20.5	56.5
122736	2025-06-11T09:21:47	20.5	55
122737	2025-06-11T09:31:47	20.6	55
122738	2025-06-11T09:41:47	20.9	54.5
122739	2025-06-11T09:51:47	20.9	53.5
122740	2025-06-11T10:01:47	21.2	55
122741	2025-06-11T10:11:47	21.4	55
122742	2025-06-11T10:21:47	21.4	55
122743	2025-06-11T10:31:47	21.4	56.5
122744	2025-06-11T10:41:47	21.8	54.5
122745	2025-06-11T10:51:47	22	53.5
122746	2025-06-11T11:01:47	22.2	55
122747	2025-06-11T11:11:46	22.4	53
122748	2025-06-11T11:21:46	22.7	52.5
122749	2025-06-11T11:31:46	23	54.5
122750	2025-06-11T11:41:46	23.4	52.5
122751	2025-06-11T11:51:46	23.8	50
122752	2025-06-11T12:01:46	25.9	48
122753	2025-06-11T12:11:46	32.4	35.5
122754	2025-06-11T12:21:46	34.8	33
122755	2025-06-11T12:31:46	36.7	29.5
122756	2025-06-11T12:41:46	37.8	28
122757	2025-06-11T12:51:46	38.5	27.5
122758	2025-06-11T13:01:46	38.9	25.5
122759	2025-06-11T13:11:46	39.4	25.5
122760	2025-06-11T13:21:46	39.9	25.5
122761	2025-06-11T13:31:46	40.8	25
122762	2025-06-11T13:41:46	41	24.5
122763	2025-06-11T13:51:46	41	23.5
122764	2025-06-11T14:01:46	40.8	24
122765	2025-06-11T14:11:46	40.9	23.5
122766	2025-06-11T14:21:46	41.6	23
122767	2025-06-11T14:31:46	42.1	23.5
122768	2025-06-11T14:41:46	41.8	23
122769	2025-06-11T14:51:46	41.6	23
122770	2025-06-11T15:01:46	41.3	22.5
122771	2025-06-11T15:11:46	41.8	22.5
122772	2025-06-11T15:21:46	40	23
122773	2025-06-11T15:31:46	39.8	23
122774	2025-06-11T15:41:46	39.4	24.5
122775	2025-06-11T15:51:46	38.6	23.5
122776	2025-06-11T16:01:46	38.4	24
122777	2025-06-11T16:11:46	38.8	24.5
122778	2025-06-11T16:21:46	38	25
122779	2025-06-11T16:31:46	37.8	26.5
122780	2025-06-11T16:41:46	37.7	26
122781	2025-06-11T16:51:46	37.2	27
122782	2025-06-11T17:01:46	36.5	27.5
122783	2025-06-11T17:11:46	35.9	28.5
122784	2025-06-11T17:21:46	35.5	29.5
122785	2025-06-11T17:31:46	35	30
122786	2025-06-11T17:41:46	34.3	29.5
122787	2025-06-11T17:51:46	33.4	30.5
122788	2025-06-11T18:01:46	33	32.5
122789	2025-06-11T18:11:46	32	33.5
122790	2025-06-11T18:21:46	31.2	33.5
122791	2025-06-11T18:31:46	30.3	35
122792	2025-06-11T18:41:46	29.5	36.5
122793	2025-06-11T18:51:46	28.9	37.5
122794	2025-06-11T19:01:46	27.9	40
122795	2025-06-11T19:11:46	26.9	42
122796	2025-06-11T19:21:46	26.1	43.5
122797	2025-06-11T19:31:46	25.3	44.5
122798	2025-06-11T19:41:46	24.7	45.5
122799	2025-06-11T19:51:46	24.2	46.5
122800	2025-06-11T20:01:46	23.7	48
122801	2025-06-11T20:11:46	23.4	49
122802	2025-06-11T20:21:46	23	50
122803	2025-06-11T20:31:46	22.7	51
122804	2025-06-11T20:41:46	22.4	52
122805	2025-06-11T20:51:46	22	53
122806	2025-06-11T21:01:46	21.4	54.5
122807	2025-06-11T21:11:46	21	55
122808	2025-06-11T21:21:46	20.9	55
122809	2025-06-11T21:31:46	20.6	54
122810	2025-06-11T21:41:46	20.2	56
122811	2025-06-11T21:51:46	20.1	56
122812	2025-06-11T22:01:46	19.8	54.5
122813	2025-06-11T22:11:46	19.8	53
122814	2025-06-11T22:21:45	19.8	52.5
122815	2025-06-11T22:31:45	19.7	52.5
122816	2025-06-11T22:41:45	19.7	52.5
122817	2025-06-11T22:51:45	19.4	52
122818	2025-06-11T23:01:45	19.4	53
122819	2025-06-11T23:11:45	19.3	53
122820	2025-06-11T23:21:45	19.1	54
122821	2025-06-11T23:31:45	19	54
122822	2025-06-11T23:41:46	18.6	56.5
122823	2025-06-11T23:51:45	18.3	59.5
122824	2025-06-12T00:01:45	17.9	60.5
122825	2025-06-12T00:11:45	17.6	61.5
122826	2025-06-12T00:21:45	17.5	62
122827	2025-06-12T00:31:45	17.3	62
122828	2025-06-12T00:41:45	17	62.5
122829	2025-06-12T00:51:45	16.9	63
122830	2025-06-12T01:01:45	16.7	63
122831	2025-06-12T01:11:45	16.5	64
122832	2025-06-12T01:21:45	16.3	64.5
122833	2025-06-12T01:31:45	16.2	65.5
122834	2025-06-12T01:41:45	16.1	66.5
122835	2025-06-12T01:51:45	16	67.5
122836	2025-06-12T02:01:45	15.9	67
122837	2025-06-12T02:11:45	15.6	67.5
122838	2025-06-12T02:21:45	15.6	68
122839	2025-06-12T02:31:45	15.4	68.5
122840	2025-06-12T02:41:45	15.3	68.5
122841	2025-06-12T02:51:45	15.2	68
122842	2025-06-12T03:01:45	15.1	68
122843	2025-06-12T03:11:45	15.1	68
122844	2025-06-12T03:21:45	15	68
122845	2025-06-12T03:31:45	15	67.5
122846	2025-06-12T03:41:45	15	68
122847	2025-06-12T03:51:45	14.9	68
122848	2025-06-12T04:01:45	14.7	68.5
122849	2025-06-12T04:11:45	14.7	69
122850	2025-06-12T04:21:45	14.7	69
122851	2025-06-12T04:31:45	14.8	70
122852	2025-06-12T04:41:45	14.9	69.5
122853	2025-06-12T04:51:45	14.9	69.5
122854	2025-06-12T05:01:45	15.1	69.5
122855	2025-06-12T05:11:45	15.1	70.5
122856	2025-06-12T05:21:45	15.4	70
122857	2025-06-12T05:31:45	15.6	68.5
122858	2025-06-12T05:41:45	15.8	68
122859	2025-06-12T05:51:45	16	67
122860	2025-06-12T06:01:45	16.4	66.5
122861	2025-06-12T06:11:45	16.7	66
122862	2025-06-12T06:21:45	16.8	66
122863	2025-06-12T06:31:45	17.2	65
122864	2025-06-12T06:41:45	17.5	65.5
122865	2025-06-12T06:51:45	17.8	64
122866	2025-06-12T07:01:45	18.3	64
122867	2025-06-12T07:11:45	18.4	62.5
122868	2025-06-12T07:21:45	18.8	64.5
122869	2025-06-12T07:31:45	19.1	62.5
122870	2025-06-12T07:41:45	19.4	61.5
122871	2025-06-12T07:51:45	19.9	62
122872	2025-06-12T08:01:45	20.1	64.5
122873	2025-06-12T08:11:45	20.3	62.5
122874	2025-06-12T08:21:45	20.6	60.5
122875	2025-06-12T08:31:45	21	60.5
122876	2025-06-12T08:41:45	21.3	61.5
122877	2025-06-12T08:51:45	21.7	60
122878	2025-06-12T09:01:45	21.9	62
122879	2025-06-12T09:11:45	22.1	56.5
122880	2025-06-12T09:21:45	22.6	57.5
122881	2025-06-12T09:31:45	22.8	56.5
122882	2025-06-12T09:41:45	23.2	55.5
122883	2025-06-12T09:51:45	23.6	55
122884	2025-06-12T10:01:44	23.7	55.5
122885	2025-06-12T10:11:44	23.9	55.5
122886	2025-06-12T10:21:44	24.4	54.5
122887	2025-06-12T10:31:44	24.5	54.5
122888	2025-06-12T10:41:44	24.8	54.5
122889	2025-06-12T10:51:44	25.2	53.5
122890	2025-06-12T11:01:44	25.5	51
122891	2025-06-12T11:11:44	25.8	51.5
122892	2025-06-12T11:21:44	26.2	51.5
122893	2025-06-12T11:31:45	26.5	50
122894	2025-06-12T11:41:44	27	49.5
122895	2025-06-12T11:51:44	27.6	47
122896	2025-06-12T12:01:44	29.4	44.5
122897	2025-06-12T12:11:44	34.9	36
122898	2025-06-12T12:21:44	36.5	33
122899	2025-06-12T12:31:44	38.5	31.5
122900	2025-06-12T12:41:44	39.7	30
122901	2025-06-12T12:51:44	39.9	28
122902	2025-06-12T13:01:44	41.4	26.5
122903	2025-06-12T13:11:44	42	26.5
122904	2025-06-12T13:21:44	42.4	25.5
122905	2025-06-12T13:31:44	42.8	25
122906	2025-06-12T13:41:44	43.1	24.5
122907	2025-06-12T13:51:44	43.7	24
122908	2025-06-12T14:01:44	43.4	24
122909	2025-06-12T14:11:44	43.8	23.5
122910	2025-06-12T14:21:44	44.2	23.5
122911	2025-06-12T14:31:44	44.8	23.5
122912	2025-06-12T14:41:44	44.8	23
122913	2025-06-12T14:51:44	45	23
122914	2025-06-12T15:01:44	45	23
122915	2025-06-12T15:11:44	45.3	22
122916	2025-06-12T15:21:44	45.3	21.5
122917	2025-06-12T15:31:44	44.7	22.5
122918	2025-06-12T15:41:44	45.3	22
122919	2025-06-12T15:51:44	43.7	23
122920	2025-06-12T16:01:44	42.9	24
122921	2025-06-12T16:11:44	43	24.5
122922	2025-06-12T16:21:44	42.5	25.5
122923	2025-06-12T16:31:44	42.6	24.5
122924	2025-06-12T16:41:44	42.7	24.5
122925	2025-06-12T16:51:44	41.6	25
122926	2025-06-12T17:01:44	40.9	25.5
122927	2025-06-12T17:11:44	40.2	26.5
122928	2025-06-12T17:21:44	38.9	28
122929	2025-06-12T17:31:44	36.7	29.5
122930	2025-06-12T17:41:44	35.4	32
122931	2025-06-12T17:51:44	34.7	33
122932	2025-06-12T18:01:44	34.4	33
122933	2025-06-12T18:11:44	34.7	33
122934	2025-06-12T18:21:44	34.3	33.5
122935	2025-06-12T18:31:44	33.8	34.5
122936	2025-06-12T18:41:44	33	36
122937	2025-06-12T18:51:44	32.1	37.5
122938	2025-06-12T19:01:44	31.2	39
122939	2025-06-12T19:11:44	30.4	41
122940	2025-06-12T19:21:44	29.8	43
122941	2025-06-12T19:31:44	29.2	44
122942	2025-06-12T19:41:44	28.8	46
122943	2025-06-12T19:51:44	28.5	47
122944	2025-06-12T20:01:44	28.2	47.5
122945	2025-06-12T20:11:44	28	48.5
122946	2025-06-12T20:21:44	27.7	49.5
122947	2025-06-12T20:31:44	27.5	50
122948	2025-06-12T20:41:44	27.2	51.5
122949	2025-06-12T20:51:44	26.4	54
122950	2025-06-12T21:01:44	26.1	55.5
122951	2025-06-12T21:11:44	25.7	56
122952	2025-06-12T21:21:44	25.6	57
122953	2025-06-12T21:31:44	25.4	58
122954	2025-06-12T21:41:44	25.2	58
122955	2025-06-12T21:51:44	25.1	57.5
122956	2025-06-12T22:01:43	25	58.5
122957	2025-06-12T22:11:43	24.9	59
122958	2025-06-12T22:21:43	24.6	59
122959	2025-06-12T22:31:43	24.5	61
122960	2025-06-12T22:41:44	24.2	62
122961	2025-06-12T22:51:43	24	63
122962	2025-06-12T23:01:44	23.9	63
122963	2025-06-12T23:11:43	23.7	63.5
122964	2025-06-12T23:21:43	23.5	64.5
122965	2025-06-12T23:31:43	23.4	65
122966	2025-06-12T23:41:43	23.2	65.5
122967	2025-06-12T23:51:43	23	66.5
122968	2025-06-13T00:01:43	22.7	68
122969	2025-06-13T00:11:43	22.2	69.5
122970	2025-06-13T00:22:03	22.2	69.5
122971	2025-06-13T00:31:43	22.1	70.5
122972	2025-06-13T00:41:43	21.9	71
122973	2025-06-13T00:51:43	21.8	71.5
122974	2025-06-13T01:01:43	21.6	72.5
122975	2025-06-13T01:11:43	21.5	73
122976	2025-06-13T01:31:43	21.2	74
122977	2025-06-13T01:41:43	20.9	75.5
122978	2025-06-13T01:51:43	20.9	76.5
122979	2025-06-13T02:01:43	20.8	76.5
122980	2025-06-13T02:11:43	20.4	77.5
122981	2025-06-13T02:21:43	20.3	78.5
122982	2025-06-13T02:31:43	20.2	78.5
122983	2025-06-13T02:41:43	20.1	79.5
122984	2025-06-13T02:51:43	19.8	79.5
122985	2025-06-13T03:01:43	19.9	79.5
122986	2025-06-13T03:11:43	19.7	80
122987	2025-06-13T03:21:43	19.6	80
122988	2025-06-13T03:31:43	19.4	81
122989	2025-06-13T03:41:43	19.4	81.5
122990	2025-06-13T03:51:43	19.4	81.5
122991	2025-06-13T04:01:43	19.4	81
122992	2025-06-13T04:11:43	19.4	81.5
122993	2025-06-13T04:21:43	19.6	81
122994	2025-06-13T04:31:43	19.7	81.5
122995	2025-06-13T04:41:43	19.9	80.5
122996	2025-06-13T04:51:43	20	79.5
122997	2025-06-13T05:01:43	20.2	79
122998	2025-06-13T05:11:43	20.5	78.5
122999	2025-06-13T05:21:43	20.7	76.5
123000	2025-06-13T05:31:43	20.7	75.5
123001	2025-06-13T05:41:43	20.7	76.5
123002	2025-06-13T05:51:43	20.8	75.5
123003	2025-06-13T06:01:43	21	76
123004	2025-06-13T06:11:43	21	76
123005	2025-06-13T06:21:43	21	76
123006	2025-06-13T06:31:43	21.3	76
123007	2025-06-13T06:41:43	21.5	75
123008	2025-06-13T06:51:43	21.7	75
123009	2025-06-13T07:01:43	22	73.5
123010	2025-06-13T07:11:43	22.2	73.5
123011	2025-06-13T07:21:43	22.5	73.5
123012	2025-06-13T07:31:43	22.8	73
123013	2025-06-13T07:41:43	23	72.5
123014	2025-06-13T07:51:43	23.3	71.5
123015	2025-06-13T08:01:42	23.5	70.5
123016	2025-06-13T08:11:42	23.8	69.5
123017	2025-06-13T08:21:42	24.1	69.5
123018	2025-06-13T08:31:42	24.3	69
123019	2025-06-13T08:41:42	24.5	68
123020	2025-06-13T08:51:42	24.8	67
123021	2025-06-13T09:01:42	25.1	67.5
123022	2025-06-13T09:11:42	25.5	66.5
123023	2025-06-13T09:21:42	25.8	64.5
123024	2025-06-13T09:31:42	26	65
123025	2025-06-13T09:41:42	26.5	63
123026	2025-06-13T09:51:42	26.7	63.5
123027	2025-06-13T10:01:42	27.2	63
123028	2025-06-13T10:11:42	27.6	62.5
123029	2025-06-13T10:21:42	28	61
123030	2025-06-13T10:31:42	28.3	61
123031	2025-06-13T10:51:42	29.1	59
123032	2025-06-13T11:01:42	29.5	59.5
123033	2025-06-13T11:11:42	29.9	57.5
123034	2025-06-13T11:21:42	30.4	55.5
123035	2025-06-13T11:31:42	30.6	54
123036	2025-06-13T11:41:42	31.1	53.5
123037	2025-06-13T11:51:42	31.5	53
123038	2025-06-13T12:01:42	33.1	49.5
123039	2025-06-13T12:11:42	38.6	40.5
123040	2025-06-13T12:21:42	40.5	34.5
123041	2025-06-13T12:31:42	41.5	33.5
123042	2025-06-13T12:41:42	42.8	30.5
123043	2025-06-13T12:51:42	43.8	31.5
123044	2025-06-13T13:01:42	44.9	29.5
123045	2025-06-13T13:11:42	45.9	28.5
123046	2025-06-13T13:21:42	46.7	27.5
123047	2025-06-13T13:31:42	46.8	26
123048	2025-06-13T13:41:42	46.7	26
123049	2025-06-13T13:51:42	46.1	26.5
123050	2025-06-13T14:01:42	46.1	26.5
123051	2025-06-13T14:11:42	46.8	27
123052	2025-06-13T14:21:42	47	27
123053	2025-06-13T14:31:42	47	26.5
123054	2025-06-13T14:41:42	46.8	26
123055	2025-06-13T14:51:42	46.3	26
123056	2025-06-13T15:01:42	46.7	27
123057	2025-06-13T15:11:42	46.7	25.5
123058	2025-06-13T15:21:42	46	26
123059	2025-06-13T15:31:42	45.7	27
123060	2025-06-13T15:41:42	45.8	27
123061	2025-06-13T15:51:42	46	26.5
123062	2025-06-13T16:01:42	45.4	27
123063	2025-06-13T16:11:42	45.4	26
123064	2025-06-13T16:21:42	45.1	26
123065	2025-06-13T16:31:42	44.3	26.5
123066	2025-06-13T16:41:42	44	27
123067	2025-06-13T16:51:42	43.9	27.5
123068	2025-06-13T17:01:42	43.5	28
123069	2025-06-13T17:11:42	43.2	28
123070	2025-06-13T17:21:42	42.5	28.5
123071	2025-06-13T17:31:42	42.2	28.5
123072	2025-06-13T17:41:42	41.4	28.5
123073	2025-06-13T17:51:42	40.6	30
123074	2025-06-13T18:01:42	39.7	30.5
123075	2025-06-13T18:11:42	38.8	31
123076	2025-06-13T18:21:42	37.9	32.5
123077	2025-06-13T18:31:42	36.8	33.5
123078	2025-06-13T18:41:42	35.9	34.5
123079	2025-06-13T18:51:42	34.9	35.5
123080	2025-06-13T19:01:42	34	37
123081	2025-06-13T19:11:42	32.9	36.5
123082	2025-06-13T19:21:42	32.3	37
123083	2025-06-13T19:31:42	31.7	37.5
123084	2025-06-13T19:41:42	31.2	37.5
123085	2025-06-13T19:51:42	30.9	37.5
123086	2025-06-13T20:01:42	30.5	38.5
123087	2025-06-13T20:11:42	30.2	39
123088	2025-06-13T20:21:41	29.8	40
123089	2025-06-13T20:31:42	29.5	41
123090	2025-06-13T20:41:42	29.1	42
123091	2025-06-13T20:51:41	28.7	44.5
123092	2025-06-13T21:01:41	28.2	45.5
123093	2025-06-13T21:11:42	27.8	47.5
123094	2025-06-13T21:21:41	27.7	47.5
123095	2025-06-13T21:31:41	27.3	49
123096	2025-06-13T21:41:41	26.9	49.5
123097	2025-06-13T21:51:41	26.7	50
123098	2025-06-13T22:01:41	26.4	50.5
123099	2025-06-13T22:11:41	26.3	52
123100	2025-06-13T22:21:41	26	53
123101	2025-06-13T22:31:41	25.8	53
123102	2025-06-13T22:41:41	25.6	53.5
123103	2025-06-13T22:51:41	25.2	54.5
123104	2025-06-13T23:01:41	25.1	54.5
123105	2025-06-13T23:11:41	24.6	56.5
123106	2025-06-13T23:21:41	24.4	57.5
123107	2025-06-13T23:31:41	24.2	59
123108	2025-06-13T23:41:41	24.2	59
123109	2025-06-13T23:51:41	23.9	60
123110	2025-06-14T00:01:41	23.5	61.5
123111	2025-06-14T00:11:41	23.2	63
123112	2025-06-14T00:21:41	23.2	62
123113	2025-06-14T00:31:41	23	63
123114	2025-06-14T00:41:41	22.9	64
123115	2025-06-14T00:51:41	22.7	64
123116	2025-06-14T01:01:41	22.5	64.5
123117	2025-06-14T01:11:41	22.5	64
123118	2025-06-14T01:21:41	22.3	64.5
123119	2025-06-14T01:31:41	22.2	65
123120	2025-06-14T01:41:41	22.1	64.5
123121	2025-06-14T01:51:41	21.9	65
123122	2025-06-14T02:01:41	21.8	65
123123	2025-06-14T02:11:41	21.5	68
123124	2025-06-14T02:21:41	21.3	69
123125	2025-06-14T02:31:41	20.9	70.5
123126	2025-06-14T02:41:41	20.6	70.5
123127	2025-06-14T02:51:41	20.7	70.5
123128	2025-06-14T03:01:41	20.5	70.5
123129	2025-06-14T03:11:41	20.3	72
123130	2025-06-14T03:31:41	20.2	73
123131	2025-06-14T03:41:41	20.2	73
123132	2025-06-14T03:51:41	19.7	74.5
123133	2025-06-14T04:01:41	19.6	75.5
123134	2025-06-14T04:11:41	19.6	74.5
123135	2025-06-14T04:21:41	19.9	74.5
123136	2025-06-14T04:31:41	19.9	76
123137	2025-06-14T04:41:41	20	75.5
123138	2025-06-14T04:51:41	20.1	74.5
123139	2025-06-14T05:01:41	20.3	75.5
123140	2025-06-14T05:11:41	20.5	74.5
123141	2025-06-14T05:21:41	20.7	74.5
123142	2025-06-14T05:31:41	20.8	72
123143	2025-06-14T05:41:41	20.9	71.5
123144	2025-06-14T05:51:41	21.1	71.5
123145	2025-06-14T06:01:41	21.4	72.5
123146	2025-06-14T06:11:41	21.6	73
123147	2025-06-14T06:21:41	21.9	71.5
123148	2025-06-14T06:31:40	22.2	69.5
123149	2025-06-14T06:41:40	22.4	69
123150	2025-06-14T06:51:40	22.7	69.5
123151	2025-06-14T07:01:40	22.9	68
123152	2025-06-14T07:11:40	23.4	68
123153	2025-06-14T07:21:40	23.5	65
123154	2025-06-14T07:31:40	23.8	65
123155	2025-06-14T07:41:40	24	63
123156	2025-06-14T08:01:40	24.7	61
123157	2025-06-14T08:11:40	24.9	61.5
123158	2025-06-14T08:21:40	25.2	61.5
123159	2025-06-14T08:31:40	25.6	60.5
123160	2025-06-14T08:41:40	26	60.5
123161	2025-06-14T08:51:40	26.3	60.5
123162	2025-06-14T09:01:40	26.6	58
123163	2025-06-14T09:11:40	26.8	58.5
123164	2025-06-14T09:21:40	27.3	55.5
123165	2025-06-14T09:31:40	27.7	54
123166	2025-06-14T09:41:40	28	55.5
123167	2025-06-14T09:51:40	28.5	55.5
123168	2025-06-14T10:01:40	28.9	53.5
123169	2025-06-14T10:11:40	29.3	52.5
123170	2025-06-14T10:21:40	29.7	51
123171	2025-06-14T10:31:40	29.8	55
123172	2025-06-14T10:41:40	30.6	46
123173	2025-06-14T10:51:40	31.1	45
123174	2025-06-14T11:01:40	31.5	41.5
123175	2025-06-14T11:11:40	32.3	38
123176	2025-06-14T11:21:40	32.6	37
123177	2025-06-14T11:31:40	33	36.5
123178	2025-06-14T11:41:40	33.2	38
123179	2025-06-14T11:51:40	33	40
123180	2025-06-14T12:01:40	34.2	39
123181	2025-06-14T12:11:40	35.4	37.5
123182	2025-06-14T12:21:40	37	36.5
123183	2025-06-14T12:31:40	36.1	37.5
123184	2025-06-14T12:41:40	35.3	38
123185	2025-06-14T12:51:40	35.9	39
123186	2025-06-14T13:01:40	38	36.5
123187	2025-06-14T13:11:40	39.4	33
123188	2025-06-14T13:21:40	40.3	32
123189	2025-06-14T13:31:40	41.6	31
123190	2025-06-14T13:41:40	42.9	31.5
123191	2025-06-14T13:51:40	43	31
123192	2025-06-14T14:01:40	42.2	32
123193	2025-06-14T14:11:40	43.1	31.5
123194	2025-06-14T14:21:40	42.9	31
123195	2025-06-14T14:31:40	43.4	31
123196	2025-06-14T14:41:40	42.8	30.5
123197	2025-06-14T14:51:40	42.8	31.5
123198	2025-06-14T15:01:40	43.3	30.5
123199	2025-06-14T15:11:40	42.4	32.5
123200	2025-06-14T15:21:40	42.7	31.5
123201	2025-06-14T15:31:40	42	32
123202	2025-06-14T15:41:40	41.1	33
123203	2025-06-14T15:51:40	41.7	32.5
123204	2025-06-14T16:01:40	41.7	33.5
123205	2025-06-14T16:11:40	41.5	32.5
123206	2025-06-14T16:21:40	40.4	33
123207	2025-06-14T16:31:40	40.5	33.5
123208	2025-06-14T16:41:40	39.7	33
123209	2025-06-14T16:51:40	37.3	36.5
123210	2025-06-14T17:01:40	35.7	39.5
123211	2025-06-14T17:11:40	35	41
123212	2025-06-14T17:21:40	35.5	41.5
123213	2025-06-14T17:31:40	36.9	40
123214	2025-06-14T17:41:39	38	40.5
123215	2025-06-14T17:51:39	38.6	39
123216	2025-06-14T18:01:39	38.1	41
123217	2025-06-14T18:11:39	37.5	42.5
123218	2025-06-14T18:21:39	37.7	41
123219	2025-06-14T18:31:39	37.1	43
123220	2025-06-14T18:41:39	36.3	45
123221	2025-06-14T18:51:39	35.3	48
123222	2025-06-14T19:01:39	34.2	49.5
123223	2025-06-14T19:11:39	32.7	52.5
123224	2025-06-14T19:21:39	32.1	54
123225	2025-06-14T20:10:39	31.3	57
123226	2025-06-14T20:10:39	30.2	58
123227	2025-06-14T20:10:40	29.5	58.5
123228	2025-06-14T20:10:40	30.9	58.5
123229	2025-06-14T20:11:39	29.2	59.5
123230	2025-06-14T20:21:39	28.9	62
123231	2025-06-14T20:31:39	28.6	62.5
123232	2025-06-14T20:41:39	28.3	63
123233	2025-06-14T20:51:39	27.8	62.5
123234	2025-06-14T21:01:39	27.5	63.5
123235	2025-06-14T21:11:39	27.3	65
123236	2025-06-14T21:21:39	27	65
123237	2025-06-14T21:31:39	26.8	66
123238	2025-06-14T21:41:39	26.5	66.5
123239	2025-06-14T21:51:39	26.3	67
123240	2025-06-14T22:01:39	26.1	67
123241	2025-06-14T22:11:39	25.9	67
123242	2025-06-14T22:21:39	25.5	67.5
123243	2025-06-14T22:31:39	25.4	68
123244	2025-06-14T22:41:39	25.2	68.5
123245	2025-06-14T22:51:39	25	69
123246	2025-06-14T23:01:39	24.7	69.5
123247	2025-06-14T23:11:39	24.5	70
123248	2025-06-14T23:21:39	24.6	70.5
123249	2025-06-14T23:31:39	24.2	71.5
123250	2025-06-14T23:41:39	24.1	71
123251	2025-06-14T23:51:39	24	72
123252	2025-06-15T00:01:39	23.9	72.5
123253	2025-06-15T00:11:39	23.7	73
123254	2025-06-15T00:21:39	23.6	73.5
123255	2025-06-15T00:31:39	23.4	73.5
123256	2025-06-15T00:41:39	23.5	73
123257	2025-06-15T00:51:39	23.2	74
123258	2025-06-15T01:01:39	23	74.5
123259	2025-06-15T01:11:39	22.9	75
123260	2025-06-15T01:21:39	22.9	74.5
123261	2025-06-15T01:31:39	22.8	75
123262	2025-06-15T01:41:39	22.8	74.5
123263	2025-06-15T01:51:39	22.6	74.5
123264	2025-06-15T02:01:39	22.6	75
123265	2025-06-15T02:11:39	22.6	75
123266	2025-06-15T02:21:39	22.4	75
123267	2025-06-15T02:31:39	22.5	74.5
123268	2025-06-15T02:41:39	22.4	75
123269	2025-06-15T02:51:39	22.3	75.5
123270	2025-06-15T03:01:39	22.2	75.5
123271	2025-06-15T03:11:39	22.2	76
123272	2025-06-15T03:21:39	22.3	75.5
123273	2025-06-15T03:31:39	21.8	80.5
123274	2025-06-15T03:41:39	21.7	80
123275	2025-06-15T03:51:39	22	79
123276	2025-06-15T04:01:38	22	78
123277	2025-06-15T04:11:39	21.2	98
123278	2025-06-15T04:21:39	21	100
123279	2025-06-15T04:31:38	21.1	100
123280	2025-06-15T04:41:38	21.2	100
123281	2025-06-15T04:51:38	21.3	100
123282	2025-06-15T05:01:38	21.2	100
123283	2025-06-15T05:11:39	21.2	100
123284	2025-06-15T05:21:38	21.3	100
123285	2025-06-15T05:31:38	21.4	100
123286	2025-06-15T05:41:38	21.3	100
123287	2025-06-15T05:51:38	21.4	100
123288	2025-06-15T06:01:38	21.6	99.5
123289	2025-06-15T06:11:39	21.8	99
123290	2025-06-15T06:21:38	22	99
123291	2025-06-15T06:31:38	22.2	99
123292	2025-06-15T06:41:38	22.1	98.5
123293	2025-06-15T06:51:38	22.6	98.5
123294	2025-06-15T07:01:38	22.7	96
123295	2025-06-15T07:11:38	23.4	92
123296	2025-06-15T07:21:38	23.9	81.5
123297	2025-06-15T07:31:38	24.3	79.5
123298	2025-06-15T07:41:38	24.4	79
123299	2025-06-15T07:51:38	24.7	75
123300	2025-06-15T08:01:38	24.7	75.5
123301	2025-06-15T08:11:38	24.4	77
123302	2025-06-15T08:21:38	24.1	76.5
123303	2025-06-15T08:31:38	23.8	79.5
123304	2025-06-15T08:41:38	23.8	78
123305	2025-06-15T08:51:38	24.1	85.5
123306	2025-06-15T09:01:38	24.7	82
123307	2025-06-15T09:11:38	25	78
123308	2025-06-15T09:21:38	26	75
123309	2025-06-15T09:31:38	26.4	72.5
123310	2025-06-15T09:41:38	26.8	69.5
123311	2025-06-15T09:51:38	26.9	71
123312	2025-06-15T10:01:38	27	71
123313	2025-06-15T10:11:38	25.8	72.5
123314	2025-06-15T10:21:38	24.7	75.5
123315	2025-06-15T10:31:38	22.6	89.5
123316	2025-06-15T10:41:38	21.5	99
123317	2025-06-15T10:51:38	20.8	99.5
123318	2025-06-15T11:01:38	20.7	100
123319	2025-06-15T11:11:38	21	100
123320	2025-06-15T11:21:38	21.8	100
123321	2025-06-15T11:31:59	22.7	100
123322	2025-06-15T11:41:38	23.7	100
123323	2025-06-15T11:51:38	24.3	100
123324	2025-06-15T12:01:38	24.8	100
123325	2025-06-15T12:11:38	26.6	100
123326	2025-06-15T12:21:38	29.5	100
123327	2025-06-15T12:31:38	26.4	99
123328	2025-06-15T12:41:38	26.3	100
123329	2025-06-15T12:51:38	29.6	100
123330	2025-06-15T13:01:38	31.1	62.5
123331	2025-06-15T13:11:38	27.8	66
123332	2025-06-15T13:21:38	27.1	68
123333	2025-06-15T13:31:38	30.8	62
123334	2025-06-15T13:41:38	33.6	51
123335	2025-06-15T13:51:37	33.4	51
123336	2025-06-15T14:01:37	30.4	55.5
123337	2025-06-15T14:11:37	30.7	57
123338	2025-06-15T14:21:37	31.3	55.5
123339	2025-06-15T14:31:37	28.9	62
123340	2025-06-15T14:41:37	27.9	63.5
123341	2025-06-15T14:51:37	27.3	65.5
123342	2025-06-15T15:01:37	26.8	67
123343	2025-06-15T15:11:37	26.2	63
123344	2025-06-15T15:21:37	24.6	82.5
123345	2025-06-15T15:31:37	22.7	95
123346	2025-06-15T15:41:37	22	100
123347	2025-06-15T15:51:37	21.7	100
123348	2025-06-15T16:01:37	21.2	100
123349	2025-06-15T16:11:37	21	100
123350	2025-06-15T16:21:37	21.4	100
123351	2025-06-15T16:31:37	21.8	100
123352	2025-06-15T16:41:37	21	100
123353	2025-06-15T16:51:37	20.7	100
123354	2025-06-15T17:01:37	20.8	100
123355	2025-06-15T17:11:37	20.8	100
123356	2025-06-15T17:21:37	20.6	100
123357	2025-06-15T17:31:37	20.7	100
123358	2025-06-15T17:41:37	20.5	100
123359	2025-06-15T17:51:37	20.3	100
123360	2025-06-15T18:01:37	20.2	100
123361	2025-06-15T18:11:37	20	100
123362	2025-06-15T18:21:37	19.7	100
123363	2025-06-15T18:31:37	19.4	100
123364	2025-06-15T18:41:37	19.2	100
123365	2025-06-15T18:51:37	18.8	100
123366	2025-06-15T19:01:37	18.6	100
123367	2025-06-15T19:11:37	17.9	100
123368	2025-06-15T19:21:37	17.6	100
123369	2025-06-15T19:31:37	18	100
123370	2025-06-15T19:41:37	16.9	100
123371	2025-06-15T19:51:37	17.2	100
123372	2025-06-15T20:01:37	16.8	100
123373	2025-06-15T20:11:37	16.6	100
123374	2025-06-15T20:21:37	16.9	100
123375	2025-06-15T20:31:37	16.8	100
123376	2025-06-15T20:41:37	16.9	100
123377	2025-06-15T20:51:37	16.7	100
123378	2025-06-15T21:01:37	16.5	100
123379	2025-06-15T21:11:37	16.8	100
123380	2025-06-15T21:21:37	16.2	100
123381	2025-06-15T21:31:37	16.3	100
123382	2025-06-15T21:41:37	16.3	100
123383	2025-06-15T21:51:37	16.1	100
123384	2025-06-15T22:01:37	16.1	100
123385	2025-06-15T22:11:37	16.2	100
123386	2025-06-15T22:21:37	16.1	100
123387	2025-06-15T22:31:37	16.1	100
123388	2025-06-15T22:41:37	16.1	100
123389	2025-06-15T22:51:37	16	100
123390	2025-06-15T23:01:37	15.9	100
123391	2025-06-15T23:11:37	15.9	100
123392	2025-06-15T23:21:37	15.7	100
123393	2025-06-15T23:31:37	15.7	99
123394	2025-06-15T23:41:37	15.5	98
123395	2025-06-15T23:51:37	15.5	97
123396	2025-06-16T00:01:37	15.5	96.5
123397	2025-06-16T00:11:37	15.4	96
123398	2025-06-16T00:21:37	15.4	96
123399	2025-06-16T00:31:37	15.4	96
123400	2025-06-16T00:41:37	15.4	96.5
123401	2025-06-16T00:51:37	15.4	96.5
123402	2025-06-16T01:01:36	15.4	96.5
123403	2025-06-16T01:11:36	15.3	96.5
123404	2025-06-16T01:21:36	15.4	96.5
123405	2025-06-16T01:31:36	15.3	96.5
123406	2025-06-16T01:41:36	15.3	96.5
123407	2025-06-16T01:51:36	15.2	96.5
123408	2025-06-16T02:01:36	15.2	96.5
123409	2025-06-16T02:11:36	15.1	96.5
123410	2025-06-16T02:21:36	15.1	96.5
123411	2025-06-16T02:31:36	15.1	96.5
123412	2025-06-16T02:41:36	15	96.5
123413	2025-06-16T02:51:36	15.1	96.5
123414	2025-06-16T03:01:36	15.1	96.5
123415	2025-06-16T03:11:36	15.1	96.5
123416	2025-06-16T03:21:36	15.1	96.5
123417	2025-06-16T03:31:36	15.1	96.5
123418	2025-06-16T03:41:36	15	96.5
123419	2025-06-16T03:51:36	15.2	96.5
123420	2025-06-16T04:01:36	15.1	96.5
123421	2025-06-16T04:11:36	15.2	96.5
123422	2025-06-16T04:21:36	15.3	96.5
123423	2025-06-16T04:31:36	15.3	96.5
123424	2025-06-16T04:41:36	15.5	96.5
123425	2025-06-16T04:51:36	15.5	96.5
123426	2025-06-16T05:01:36	15.6	96.5
123427	2025-06-16T05:11:36	15.8	96.5
123428	2025-06-16T05:21:36	15.9	96.5
123429	2025-06-16T05:31:36	16.2	96.5
123430	2025-06-16T05:41:36	16.2	96.5
123431	2025-06-16T05:51:36	16.4	96.5
123432	2025-06-16T06:01:36	16.3	96.5
123433	2025-06-16T06:11:36	16.5	96.5
123434	2025-06-16T06:21:36	16.5	96.5
123435	2025-06-16T06:31:36	16.8	96.5
123436	2025-06-16T06:41:36	17	96.5
123437	2025-06-16T06:51:36	17.3	96.5
123438	2025-06-16T07:01:36	17.2	97
123439	2025-06-16T07:11:36	17.3	96.5
123440	2025-06-16T07:21:36	17.7	96.5
123441	2025-06-16T07:31:36	18.1	96.5
123442	2025-06-16T07:41:36	18.6	96.5
123443	2025-06-16T07:51:36	18.5	96.5
123444	2025-06-16T08:01:36	17.9	96.5
123445	2025-06-16T08:11:36	18.1	96.5
123446	2025-06-16T08:21:36	19.1	96.5
123447	2025-06-16T08:31:36	19	96.5
123448	2025-06-16T08:41:36	19.1	96.5
123449	2025-06-16T08:51:36	19.8	96.5
123450	2025-06-16T09:01:36	19.6	96.5
123451	2025-06-16T09:11:36	19.5	96.5
123452	2025-06-16T09:21:36	20.2	96.5
123453	2025-06-16T09:31:36	20.2	96.5
123454	2025-06-16T09:41:36	20.2	96.5
123455	2025-06-16T09:51:36	20	96.5
123456	2025-06-16T10:01:36	20.1	96.5
123457	2025-06-16T10:11:36	20.4	99.5
123458	2025-06-16T10:21:36	20.3	99.5
123459	2025-06-16T10:31:36	20.9	99.5
123460	2025-06-16T10:41:36	21.4	99.5
123461	2025-06-16T10:51:36	21.8	100
123462	2025-06-16T11:01:36	21.9	100
123463	2025-06-16T11:11:36	22	100
123464	2025-06-16T11:21:36	21.9	100
123465	2025-06-16T11:31:36	22.4	100
123466	2025-06-16T11:41:36	22.9	84.5
123467	2025-06-16T11:51:36	23.6	60
123468	2025-06-16T12:01:36	24.5	56
123469	2025-06-16T12:11:35	30.6	42.5
123470	2025-06-16T12:21:35	30.7	46.5
123471	2025-06-16T12:31:35	34.3	38.5
123472	2025-06-16T12:41:35	35.8	35.5
123473	2025-06-16T12:51:35	32.8	39.5
123474	2025-06-16T13:01:35	35.7	34.5
123475	2025-06-16T13:11:35	36.3	33.5
123476	2025-06-16T13:21:35	34.9	33
123477	2025-06-16T13:31:35	38.8	33
123478	2025-06-16T13:41:35	35.9	32.5
123479	2025-06-16T13:51:35	34	36
123480	2025-06-16T14:01:35	34.7	36
123481	2025-06-16T14:11:35	38	31
123482	2025-06-16T14:21:35	40	30.5
123483	2025-06-16T14:31:35	40.1	27
123484	2025-06-16T14:41:35	39	27.5
123485	2025-06-16T14:51:35	40	29
123486	2025-06-16T15:11:35	40.7	27.5
123487	2025-06-16T15:21:35	40.5	25
123488	2025-06-16T15:31:35	38.9	26.5
123489	2025-06-16T15:41:35	39.6	27.5
123490	2025-06-16T15:51:35	40	27.5
123491	2025-06-16T16:01:35	39.5	28
123492	2025-06-16T16:11:35	39.5	27.5
123493	2025-06-16T16:21:35	39.5	27.5
123494	2025-06-16T16:31:35	38.8	28.5
123495	2025-06-16T16:41:35	38.5	28.5
123496	2025-06-16T16:51:35	38.4	28.5
123497	2025-06-16T17:01:35	38	28.5
123498	2025-06-16T17:11:35	37	29.5
123499	2025-06-16T17:21:35	36	28
123500	2025-06-16T17:31:35	35.4	29
123501	2025-06-16T17:41:35	35.1	32
123502	2025-06-16T17:51:35	34.5	32
123503	2025-06-16T18:01:35	33.9	33
123504	2025-06-16T18:11:35	32.8	35
123505	2025-06-16T18:21:35	32	38
123506	2025-06-16T18:31:35	31.5	38.5
123507	2025-06-16T18:41:35	30.6	42.5
123508	2025-06-16T18:51:35	29.9	43.5
123509	2025-06-16T19:01:35	28.8	46
123510	2025-06-16T19:11:35	27.8	50
123511	2025-06-16T19:21:35	26.8	53.5
123512	2025-06-16T19:31:35	26	56.5
123513	2025-06-16T19:41:35	25.5	57.5
123514	2025-06-16T19:51:35	24.8	60
123515	2025-06-16T20:01:35	24.2	60.5
123516	2025-06-16T20:11:35	23.7	63.5
123517	2025-06-16T20:21:35	23.3	65
123518	2025-06-16T20:31:35	22.8	64.5
123519	2025-06-16T20:41:35	22.4	65.5
123520	2025-06-16T20:51:35	22.1	67.5
123521	2025-06-16T21:01:35	21.6	68.5
123522	2025-06-16T21:11:35	21.2	71
123523	2025-06-16T21:21:35	20.8	70
123524	2025-06-16T21:31:35	20.6	71
123525	2025-06-16T21:41:35	20.3	71.5
123526	2025-06-16T21:51:35	20.1	71.5
123527	2025-06-16T22:01:35	19.7	72.5
123528	2025-06-16T22:11:35	19.6	73
123529	2025-06-16T22:21:35	19.4	74.5
123530	2025-06-16T22:31:35	19.2	73.5
123531	2025-06-16T22:41:35	18.8	75
123532	2025-06-16T22:51:35	18.7	76
123533	2025-06-16T23:01:34	18.5	76
123534	2025-06-16T23:11:34	18.2	76.5
123535	2025-06-16T23:21:34	18	76.5
123536	2025-06-16T23:31:34	17.8	76.5
123537	2025-06-16T23:41:34	17.6	77.5
123538	2025-06-16T23:51:34	17.4	77.5
123539	2025-06-17T00:01:34	17.4	78.5
123540	2025-06-17T00:11:34	17.2	79.5
123541	2025-06-17T00:21:34	17	79
123542	2025-06-17T00:31:34	16.7	79.5
123543	2025-06-17T00:41:34	16.6	80.5
123544	2025-06-17T00:51:34	16.4	81.5
123545	2025-06-17T01:01:34	16.1	81.5
123546	2025-06-17T01:11:34	16.1	81.5
123547	2025-06-17T01:21:34	15.9	81
123548	2025-06-17T01:31:34	15.8	82
123549	2025-06-17T01:41:34	15.6	82
123550	2025-06-17T01:51:34	15.5	83
123551	2025-06-17T02:01:34	15.4	82.5
123552	2025-06-17T02:11:34	15.2	83
123553	2025-06-17T02:21:34	15.1	84
123554	2025-06-17T02:31:34	15	84.5
123555	2025-06-17T02:41:34	14.8	85
123556	2025-06-17T02:51:34	14.7	84
123557	2025-06-17T03:01:34	14.6	85
123558	2025-06-17T03:11:34	14.4	86
123559	2025-06-17T03:21:34	14.4	85.5
123560	2025-06-17T03:31:34	14.3	85.5
123561	2025-06-17T03:41:34	14.2	85.5
123562	2025-06-17T03:51:34	14.2	86.5
123563	2025-06-17T04:01:34	14.2	86.5
123564	2025-06-17T04:11:34	14.3	86.5
123565	2025-06-17T04:21:34	14.5	84.5
123566	2025-06-17T04:31:34	14.5	86.5
123567	2025-06-17T04:41:34	14.5	88
123568	2025-06-17T04:51:34	14.8	88
123569	2025-06-17T05:01:34	14.9	88
123570	2025-06-17T05:11:34	15	87
123571	2025-06-17T05:21:34	15.1	86.5
123572	2025-06-17T05:31:34	15.3	86.5
123573	2025-06-17T05:41:34	15.6	85.5
123574	2025-06-17T05:51:34	15.7	86
123575	2025-06-17T06:01:34	16	85.5
123576	2025-06-17T06:11:34	16.2	84
123577	2025-06-17T06:21:34	16.4	84
123578	2025-06-17T06:31:34	16.7	81.5
123579	2025-06-17T06:41:34	17	81.5
123580	2025-06-17T06:51:34	17.3	81.5
123581	2025-06-17T07:01:34	17.6	80
123582	2025-06-17T07:11:34	18	79.5
123583	2025-06-17T07:21:34	18.2	78.5
123584	2025-06-17T07:31:34	18.6	77
123585	2025-06-17T07:41:34	18.8	77.5
123586	2025-06-17T07:51:34	19.2	77
123587	2025-06-17T08:01:34	19.5	77
123588	2025-06-17T08:11:34	19.8	75.5
123589	2025-06-17T08:21:34	20	75
123590	2025-06-17T08:31:34	20.3	72.5
123591	2025-06-17T08:41:34	20.5	71.5
123592	2025-06-17T08:51:34	20.9	69
123593	2025-06-17T09:01:34	21.1	66.5
123594	2025-06-17T09:11:34	21.5	63
123595	2025-06-17T09:21:34	21.7	62.5
123596	2025-06-17T09:31:34	22.1	58.5
123597	2025-06-17T09:41:34	22.3	58.5
123598	2025-06-17T09:51:34	22.5	55.5
123599	2025-06-17T10:01:34	22.7	54.5
123600	2025-06-17T10:11:34	22.9	54
123601	2025-06-17T10:21:34	23.1	54.5
123602	2025-06-17T10:31:34	23.4	54.5
123603	2025-06-17T10:41:33	23.5	53.5
123604	2025-06-17T10:51:33	24	52
123605	2025-06-17T11:01:33	24.2	50.5
123606	2025-06-17T11:11:33	24.3	49.5
123607	2025-06-17T11:21:33	24.7	48.5
123608	2025-06-17T11:31:33	24.8	49.5
123609	2025-06-17T11:41:33	25.3	49
123610	2025-06-17T11:51:33	25.7	49
123611	2025-06-17T12:01:33	26.8	47.5
123612	2025-06-17T12:11:33	33	36
123613	2025-06-17T12:21:33	35.9	33
123614	2025-06-17T12:31:33	37.6	31.5
123615	2025-06-17T12:41:33	38.4	29.5
123616	2025-06-17T12:51:33	40.2	27.5
123617	2025-06-17T13:01:33	40.9	26
123618	2025-06-17T13:11:33	41.8	26.5
123619	2025-06-17T13:21:33	41.7	26
123620	2025-06-17T13:31:33	42.1	25.5
123621	2025-06-17T13:41:33	43.1	26
123622	2025-06-17T13:51:33	42.6	24.5
123623	2025-06-17T14:01:33	43.1	24.5
123624	2025-06-17T14:11:33	43.1	24
123625	2025-06-17T14:21:33	43.9	24.5
123626	2025-06-17T14:31:33	43.6	25
123627	2025-06-17T14:41:33	43.5	23.5
123628	2025-06-17T14:51:33	43.6	24
123629	2025-06-17T15:01:33	43.6	25
123630	2025-06-17T15:11:33	43.1	24
123631	2025-06-17T15:21:33	42.9	25
123632	2025-06-17T15:31:33	42.6	24.5
123633	2025-06-17T15:41:33	42	24.5
123634	2025-06-17T15:51:33	41.6	25
123635	2025-06-17T16:01:33	41.5	25
123636	2025-06-17T16:11:33	41.1	25
123637	2025-06-17T16:21:33	41.3	25.5
123638	2025-06-17T16:31:33	40.7	26.5
123639	2025-06-17T16:41:33	40.6	26.5
123640	2025-06-17T16:51:33	40.1	26
123641	2025-06-17T17:01:33	39.5	27
123642	2025-06-17T17:11:33	39	27.5
123643	2025-06-17T17:21:33	38.5	28
123644	2025-06-17T17:31:33	38.1	29
123645	2025-06-17T17:41:33	37.5	31
123646	2025-06-17T17:51:33	37.1	30.5
123647	2025-06-17T18:01:33	36	31.5
123648	2025-06-17T18:11:33	35.4	33.5
123649	2025-06-17T18:21:33	34.1	35
123650	2025-06-17T18:31:33	33.1	36.5
123651	2025-06-17T18:51:33	31.9	40
123652	2025-06-17T19:01:33	30.9	42
123653	2025-06-17T19:11:33	29.8	43.5
123654	2025-06-17T19:21:33	28.9	45.5
123655	2025-06-17T19:31:33	28.3	48
123656	2025-06-17T19:41:33	27.8	49.5
123657	2025-06-17T19:51:33	27.2	52
123658	2025-06-17T20:01:33	26.4	54.5
123659	2025-06-17T20:11:33	25.6	55.5
123660	2025-06-17T20:21:33	25.2	57
123661	2025-06-17T20:31:33	24.7	59
123662	2025-06-17T20:41:33	24.3	60
123663	2025-06-17T20:51:33	24.2	61
123664	2025-06-17T21:01:33	23.6	62
123665	2025-06-17T21:11:33	23.4	63
123666	2025-06-17T21:21:33	23	64
123667	2025-06-17T21:31:33	22.7	64
123668	2025-06-17T21:41:33	22.2	65.5
123669	2025-06-17T21:51:33	22	65.5
123670	2025-06-17T22:01:33	21.9	67
123671	2025-06-17T22:11:33	21.6	68
123672	2025-06-17T22:21:32	21.4	68
123673	2025-06-17T22:31:33	21.1	68.5
123674	2025-06-17T22:41:32	20.9	69.5
123675	2025-06-17T22:51:32	20.7	70
123676	2025-06-17T23:01:32	20.6	70.5
123677	2025-06-17T23:11:32	20.3	71
123678	2025-06-17T23:21:32	20.1	71
123679	2025-06-17T23:31:32	19.9	72
123680	2025-06-17T23:41:33	19.8	73.5
123681	2025-06-17T23:51:32	19.4	74
123682	2025-06-18T00:01:32	19.2	74.5
123683	2025-06-18T00:11:32	19	75
123684	2025-06-18T00:21:32	18.8	76
123685	2025-06-18T00:31:32	18.6	77
123686	2025-06-18T00:41:32	18.3	78.5
123687	2025-06-18T00:51:32	18.2	78.5
123688	2025-06-18T01:01:32	18.1	79
123689	2025-06-18T01:11:32	17.8	79
123690	2025-06-18T01:21:32	17.7	79
123691	2025-06-18T01:31:32	17.6	79.5
123692	2025-06-18T01:41:32	17.5	80
123693	2025-06-18T01:51:32	17.2	80.5
123694	2025-06-18T02:01:32	17.1	81
123695	2025-06-18T02:11:32	17.2	81
123696	2025-06-18T02:21:32	16.8	81.5
123697	2025-06-18T02:31:32	16.7	81.5
123698	2025-06-18T02:41:32	16.4	82.5
123699	2025-06-18T02:51:32	16.4	83
123700	2025-06-18T03:01:32	16.3	83
123701	2025-06-18T03:11:32	16.1	84
123702	2025-06-18T03:21:32	16	84
123703	2025-06-18T03:31:32	15.9	84.5
123704	2025-06-18T03:41:32	15.8	84.5
123705	2025-06-18T03:51:32	15.9	85
123706	2025-06-18T04:01:32	15.9	85
123707	2025-06-18T04:11:32	16	85
123708	2025-06-18T04:21:32	16.1	85.5
123709	2025-06-18T04:31:32	16.2	85
123710	2025-06-18T04:41:32	16.3	85.5
123711	2025-06-18T04:51:32	16.5	85.5
123712	2025-06-18T05:01:32	16.6	84.5
123713	2025-06-18T05:11:32	16.6	84.5
123714	2025-06-18T05:21:32	16.9	84.5
123715	2025-06-18T05:31:32	17	84.5
123716	2025-06-18T05:41:32	17.2	85
123717	2025-06-18T05:51:32	17.4	84.5
123718	2025-06-18T06:01:32	17.6	84
123719	2025-06-18T06:11:32	17.9	83.5
123720	2025-06-18T06:21:32	18.2	83
123721	2025-06-18T06:31:32	18.3	82.5
123722	2025-06-18T06:41:32	18.5	81.5
123723	2025-06-18T06:51:32	18.8	81
123724	2025-06-18T07:01:32	19.1	80
123725	2025-06-18T07:11:32	19.3	80
123726	2025-06-18T07:21:32	19.6	78.5
123727	2025-06-18T07:31:32	19.9	77.5
123728	2025-06-18T07:41:32	20	77
123729	2025-06-18T07:51:32	20.2	76.5
123730	2025-06-18T08:01:32	20.5	76.5
123731	2025-06-18T08:11:32	20.8	75.5
123732	2025-06-18T08:21:32	20.9	73
123733	2025-06-18T08:31:32	21.5	72.5
123734	2025-06-18T08:41:32	21.7	70
123735	2025-06-18T08:51:32	21.9	71.5
123736	2025-06-18T09:01:32	22.2	69.5
123737	2025-06-18T09:11:32	22.5	68.5
123738	2025-06-18T09:21:31	22.9	67.5
123739	2025-06-18T09:31:31	23.3	65
123740	2025-06-18T09:41:31	23.5	61
123741	2025-06-18T09:51:31	23.7	59.5
123742	2025-06-18T10:01:31	24.2	59.5
123743	2025-06-18T10:11:31	24.5	54
123744	2025-06-18T10:21:31	24.7	52
123745	2025-06-18T10:31:31	25	53.5
123746	2025-06-18T10:41:31	25.3	51
123747	2025-06-18T10:51:31	25.6	54
123748	2025-06-18T11:01:31	25.9	52
123749	2025-06-18T11:11:31	26.1	50.5
123750	2025-06-18T11:21:31	26.4	48
123751	2025-06-18T11:31:31	26.8	51
123752	2025-06-18T11:41:31	27.4	49
123753	2025-06-18T11:51:31	27.9	48
123754	2025-06-18T12:01:31	28.9	48
123755	2025-06-18T12:11:31	35.4	35.5
123756	2025-06-18T12:21:31	37.7	32
123757	2025-06-18T12:31:31	38.8	30.5
123758	2025-06-18T12:41:31	39.4	29
123759	2025-06-18T12:51:31	40.5	27.5
123760	2025-06-18T13:01:31	41.3	27
123761	2025-06-18T13:11:31	41.6	26.5
123762	2025-06-18T13:21:31	40.9	27
123763	2025-06-18T13:31:31	42.3	25
123764	2025-06-18T13:41:31	42.2	25
123765	2025-06-18T13:51:31	42.6	26
123766	2025-06-18T14:01:31	42.7	26
123767	2025-06-18T14:11:31	43.5	24.5
123768	2025-06-18T14:21:31	43.2	24
123769	2025-06-18T14:31:31	44.2	23.5
123770	2025-06-18T14:41:31	43.9	22.5
123771	2025-06-18T15:01:31	45.2	23.5
123772	2025-06-18T15:11:31	45.1	23
123773	2025-06-18T15:21:31	45.7	22
123774	2025-06-18T15:31:31	46.2	21.5
123775	2025-06-18T15:41:31	45.1	22.5
123776	2025-06-18T15:51:31	44.5	22
123777	2025-06-18T16:01:31	43.9	23
123778	2025-06-18T16:11:31	43.4	24
123779	2025-06-18T16:21:31	43.5	25
123780	2025-06-18T16:31:31	43.3	24
123781	2025-06-18T16:41:31	43.6	25
123782	2025-06-18T16:51:31	42.6	25.5
123783	2025-06-18T17:01:31	42	27.5
123784	2025-06-18T17:11:31	42.2	27
123785	2025-06-18T17:21:31	41.7	25.5
123786	2025-06-18T17:31:31	40.9	28
123787	2025-06-18T17:41:31	40.1	27.5
123788	2025-06-18T17:51:31	39.8	28.5
123789	2025-06-18T18:01:31	39.2	30.5
123790	2025-06-18T18:11:31	38.2	32.5
123791	2025-06-18T18:21:31	37.6	34
123792	2025-06-18T18:31:31	37	33.5
123793	2025-06-18T18:41:31	36	37.5
123794	2025-06-18T18:51:31	35.1	40
123795	2025-06-18T19:01:31	34.1	42
123796	2025-06-18T19:11:31	32.6	44.5
123797	2025-06-18T19:21:31	31.6	46.5
123798	2025-06-18T19:31:31	30.6	48.5
123799	2025-06-18T19:41:31	30	51
123800	2025-06-18T19:51:31	29.2	51.5
123801	2025-06-18T20:01:31	28.5	53
123802	2025-06-18T20:11:31	28.1	52.5
123803	2025-06-18T20:21:31	27.7	53.5
123804	2025-06-18T20:31:31	27.1	54.5
123805	2025-06-18T20:56:59	26.7	54.5
123806	2025-06-18T20:57:00	26.4	55
123807	2025-06-18T21:01:47	26	56.5
123808	2025-06-18T21:11:30	25.7	57.5
123809	2025-06-18T21:21:30	25.1	59
123810	2025-06-18T21:31:30	24.9	59.5
123811	2025-06-18T21:41:30	24.5	60.5
123812	2025-06-18T21:51:30	24.3	61.5
123813	2025-06-18T22:01:30	24	62
123814	2025-06-18T22:11:30	23.8	63
123815	2025-06-18T22:21:30	23.6	63.5
123816	2025-06-18T22:31:30	23.4	65
123817	2025-06-18T22:41:30	23.2	65
123818	2025-06-18T22:51:30	23	66
123819	2025-06-18T23:01:30	22.7	67
123820	2025-06-18T23:11:30	22.2	67
123821	2025-06-18T23:21:30	22.1	67
123822	2025-06-18T23:31:30	22.1	67
123823	2025-06-18T23:41:30	21.6	68
123824	2025-06-18T23:51:30	21.5	69.5
123825	2025-06-19T00:01:30	21.3	70.5
123826	2025-06-19T00:11:30	21.1	71.5
123827	2025-06-19T00:21:30	20.9	71.5
123828	2025-06-19T00:31:30	20.8	72
123829	2025-06-19T00:41:30	20.4	73
123830	2025-06-19T00:51:30	20.2	73
123831	2025-06-19T01:01:30	20	73.5
123832	2025-06-19T01:11:30	19.9	74.5
123833	2025-06-19T01:21:30	19.7	74.5
123834	2025-06-19T01:31:30	19.6	75
123835	2025-06-19T01:41:30	19.5	76
123836	2025-06-19T01:51:30	19.2	76.5
123837	2025-06-19T02:01:30	19	76
123838	2025-06-19T02:11:30	18.9	76
123839	2025-06-19T02:21:30	18.8	76.5
123840	2025-06-19T02:31:30	18.7	77
123841	2025-06-19T02:41:30	18.5	77
123842	2025-06-19T02:51:30	18.4	77.5
123843	2025-06-19T03:01:30	18.2	77
123844	2025-06-19T03:11:30	18.2	77
123845	2025-06-19T03:21:30	18.2	76.5
123846	2025-06-19T03:31:30	18	77
123847	2025-06-19T03:41:30	17.9	77.5
123848	2025-06-19T03:51:30	17.9	77.5
123849	2025-06-19T04:01:30	18	77.5
123850	2025-06-19T04:11:30	17.9	77.5
123851	2025-06-19T04:21:30	17.9	77.5
123852	2025-06-19T04:31:30	18	77.5
123853	2025-06-19T04:41:30	18.2	78
123854	2025-06-19T05:01:30	18.5	78.5
123855	2025-06-19T05:11:30	18.6	78
123856	2025-06-19T05:21:30	18.7	78
123857	2025-06-19T05:31:30	19	78
123858	2025-06-19T05:41:30	19.2	76
123859	2025-06-19T05:51:30	19.5	75
123860	2025-06-19T06:01:30	19.8	73
123861	2025-06-19T06:11:30	20.1	73
123862	2025-06-19T06:21:30	20.2	70.5
123863	2025-06-19T06:31:30	20.4	71.5
123864	2025-06-19T06:41:30	20.5	69.5
123865	2025-06-19T06:51:30	20.7	69
123866	2025-06-19T07:01:30	20.9	69.5
123867	2025-06-19T07:11:30	21.1	69.5
123868	2025-06-19T07:21:30	21.2	70
123869	2025-06-19T07:31:30	21.5	69
123870	2025-06-19T07:41:29	21.7	69
123871	2025-06-19T07:51:29	21.9	69
123872	2025-06-19T08:01:29	22.1	66.5
123873	2025-06-19T08:11:29	22.5	66.5
123874	2025-06-19T08:31:29	23	65.5
123875	2025-06-19T08:41:29	23.4	65.5
123876	2025-06-19T08:51:29	23.6	64.5
123877	2025-06-19T09:01:29	23.8	60.5
123878	2025-06-19T09:11:30	24.1	59.5
123879	2025-06-19T09:21:29	24.3	58.5
123880	2025-06-19T09:31:29	24.6	58.5
123881	2025-06-19T09:41:29	24.9	58
123882	2025-06-19T09:51:29	25.1	57.5
123883	2025-06-19T10:01:29	25.4	54.5
123884	2025-06-19T10:11:29	25.6	54
123885	2025-06-19T10:21:29	25.8	51.5
123886	2025-06-19T10:31:29	26.1	51.5
123887	2025-06-19T10:41:29	26.4	51.5
123888	2025-06-19T10:51:29	26.7	52
123889	2025-06-19T11:01:29	26.9	51.5
123890	2025-06-19T11:11:29	27	51
123891	2025-06-19T11:21:29	27.5	50.5
123892	2025-06-19T11:31:29	27.6	51
123893	2025-06-19T11:41:29	27.9	50.5
123894	2025-06-19T11:51:29	28.5	48
123895	2025-06-19T12:01:29	29.3	47.5
123896	2025-06-19T12:11:29	35.5	38
123897	2025-06-19T12:21:29	37.3	35.5
123898	2025-06-19T12:31:29	38.8	33
123899	2025-06-19T12:41:29	40.1	31
123900	2025-06-19T12:51:29	41.3	29.5
123901	2025-06-19T13:01:29	41.8	28.5
123902	2025-06-19T13:11:29	42.1	27
123903	2025-06-19T13:21:29	42.9	26.5
123904	2025-06-19T13:31:29	43.1	27.5
123905	2025-06-19T13:41:29	43.4	26
123906	2025-06-19T13:51:29	43.7	26.5
123907	2025-06-19T14:01:29	43.3	26.5
123908	2025-06-19T14:11:29	44	25
123909	2025-06-19T14:21:29	42.9	26.5
123910	2025-06-19T14:31:29	43.7	25
123911	2025-06-19T14:41:29	43.4	26
123912	2025-06-19T14:51:29	43.9	24.5
123913	2025-06-19T15:01:29	44.4	24
123914	2025-06-19T15:11:29	43.4	24.5
123915	2025-06-19T15:21:29	43.8	24.5
123916	2025-06-19T15:31:29	43.6	24.5
123917	2025-06-19T15:41:29	43.7	24
123918	2025-06-19T15:51:29	43.1	24
123919	2025-06-19T16:01:29	44.1	23.5
123920	2025-06-19T16:11:29	43	23.5
123921	2025-06-19T16:21:29	43.1	24
123922	2025-06-19T16:31:29	42.8	22.5
123923	2025-06-19T16:41:29	42.4	23
123924	2025-06-19T16:51:29	41.6	23.5
123925	2025-06-19T17:01:29	40.9	24.5
123926	2025-06-19T17:11:29	40.3	25.5
123927	2025-06-19T17:21:29	40	27
123928	2025-06-19T17:31:29	39.2	27
123929	2025-06-19T17:41:29	38.4	28
123930	2025-06-19T17:51:29	38	28
123931	2025-06-19T18:01:29	37.5	29
123932	2025-06-19T18:11:29	36.7	30
123933	2025-06-19T18:21:29	36.2	31
123934	2025-06-19T18:31:29	35.7	32.5
123935	2025-06-19T18:41:29	34.5	34
123936	2025-06-19T18:51:29	33.2	36
123937	2025-06-19T19:01:29	32.3	38
123938	2025-06-19T19:11:28	31.2	40
123939	2025-06-19T19:21:28	30.3	42.5
123940	2025-06-19T19:31:28	29.8	44.5
123941	2025-06-19T19:41:28	29.3	46
123942	2025-06-19T19:51:29	28.6	46.5
123943	2025-06-19T20:01:28	28.1	47
123944	2025-06-19T20:11:28	27.8	49
123945	2025-06-19T20:21:28	27.3	50
123946	2025-06-19T20:31:28	26.8	51.5
123947	2025-06-19T20:41:28	26.4	52.5
123948	2025-06-19T20:51:28	26	54
123949	2025-06-19T21:01:28	25.8	54.5
123950	2025-06-19T21:11:28	25.4	55.5
123951	2025-06-19T21:21:28	25.2	57.5
123952	2025-06-19T21:31:28	24.6	58.5
123953	2025-06-19T21:41:28	24.4	60
123954	2025-06-19T21:51:28	24.1	60
123955	2025-06-19T22:01:28	23.9	60.5
123956	2025-06-19T22:11:28	23.5	62.5
123957	2025-06-19T22:21:28	23.3	62.5
123958	2025-06-19T22:31:28	22.8	63.5
123959	2025-06-19T22:41:28	22.4	65
123960	2025-06-19T22:51:28	22.1	65.5
123961	2025-06-19T23:01:28	21.8	67
123962	2025-06-19T23:11:28	21.4	67.5
123963	2025-06-19T23:21:28	21.3	68.5
123964	2025-06-19T23:31:28	21	68.5
123965	2025-06-19T23:41:28	20.7	68
123966	2025-06-19T23:51:28	20.5	68.5
123967	2025-06-20T00:01:28	20.4	68.5
123968	2025-06-20T00:11:28	20.2	68
123969	2025-06-20T00:21:28	20	69
123970	2025-06-20T00:31:28	19.7	69
123971	2025-06-20T00:41:28	19.6	69.5
123972	2025-06-20T00:51:28	19.3	70
123973	2025-06-20T01:01:28	19.2	70.5
123974	2025-06-20T01:11:28	18.9	71
123975	2025-06-20T01:21:28	18.8	71
123976	2025-06-20T01:31:28	18.6	70.5
123977	2025-06-20T01:41:28	18.4	70
123978	2025-06-20T01:51:28	18.4	70
123979	2025-06-20T02:01:28	18.3	70.5
123980	2025-06-20T02:11:28	18.1	70.5
123981	2025-06-20T02:21:28	18	71.5
123982	2025-06-20T02:31:28	17.8	72
123983	2025-06-20T02:41:28	17.6	72.5
123984	2025-06-20T02:51:28	17.4	73
123985	2025-06-20T03:01:28	17.2	72.5
123986	2025-06-20T03:11:28	17.3	73
123987	2025-06-20T03:21:28	17.1	74
123988	2025-06-20T03:31:28	17	74
123989	2025-06-20T03:41:28	16.9	74.5
123990	2025-06-20T03:51:28	17.1	74.5
123991	2025-06-20T04:01:28	16.9	73.5
123992	2025-06-20T04:11:28	16.9	73.5
123993	2025-06-20T04:21:28	17	74
123994	2025-06-20T04:31:28	17	73.5
123995	2025-06-20T04:41:28	16.9	73.5
123996	2025-06-20T04:51:28	17.1	73.5
123997	2025-06-20T05:01:28	17.1	74
123998	2025-06-20T05:11:50	17.2	73.5
123999	2025-06-20T05:21:28	17.3	73
124000	2025-06-20T05:31:28	17.5	72.5
124001	2025-06-20T05:41:28	17.6	71.5
124002	2025-06-20T05:51:28	17.7	71
124003	2025-06-20T06:01:28	18	71.5
124004	2025-06-20T06:11:28	18.2	71
124005	2025-06-20T06:21:28	18.4	70.5
124006	2025-06-20T06:31:27	18.5	70
124007	2025-06-20T06:41:27	18.7	70.5
124008	2025-06-20T06:51:28	18.9	69.5
124009	2025-06-20T07:01:27	19.2	69
124010	2025-06-20T07:11:28	19.3	68.5
124011	2025-06-20T07:21:28	19.6	69
124012	2025-06-20T07:31:28	19.9	69.5
124013	2025-06-20T07:41:27	20.1	67.5
124014	2025-06-20T07:51:27	20.3	66.5
124015	2025-06-20T08:01:27	20.6	66.5
124016	2025-06-20T08:11:27	20.8	65.5
124017	2025-06-20T08:21:27	20.9	65.5
124018	2025-06-20T08:31:27	21.1	65.5
124019	2025-06-20T08:41:27	21.4	65
124020	2025-06-20T08:51:27	21.6	64.5
124021	2025-06-20T09:01:27	21.8	65
124022	2025-06-20T09:11:27	22.1	64
124023	2025-06-20T09:21:27	22.3	63
124024	2025-06-20T09:31:27	22.5	61.5
124025	2025-06-20T09:41:27	22.7	61.5
124026	2025-06-20T09:51:27	22.9	61
124027	2025-06-20T10:01:27	23.2	61
124028	2025-06-20T10:11:27	23.4	59
124029	2025-06-20T10:21:27	23.7	59
124030	2025-06-20T10:31:27	23.9	58
124031	2025-06-20T10:41:27	24.1	58
124032	2025-06-20T10:51:27	24.4	55.5
124033	2025-06-20T11:01:27	24.7	56
124034	2025-06-20T11:11:27	24.9	56
124035	2025-06-20T11:21:27	25.3	53.5
124036	2025-06-20T11:31:27	25.5	53
124037	2025-06-20T11:41:27	25.9	52
124038	2025-06-20T11:51:27	26.2	52.5
124039	2025-06-20T12:01:27	27	50.5
124040	2025-06-20T12:11:27	33.6	38.5
124041	2025-06-20T12:21:27	36.5	33
124042	2025-06-20T12:31:27	38.4	31.5
124043	2025-06-20T12:41:27	39.3	29.5
124044	2025-06-20T12:51:27	39.8	27.5
124045	2025-06-20T13:01:27	40.1	27
124046	2025-06-20T13:11:27	41	26
124047	2025-06-20T13:21:27	41.7	26.5
124048	2025-06-20T13:31:27	42.3	25
124049	2025-06-20T13:41:27	42.1	24.5
124050	2025-06-20T13:51:27	42.2	24.5
124051	2025-06-20T14:01:27	43.3	24.5
124052	2025-06-20T14:11:27	43.4	24.5
124053	2025-06-20T14:21:27	43.1	23
124054	2025-06-20T14:31:27	43.8	24
124055	2025-06-20T14:41:27	44.2	23.5
124056	2025-06-20T14:51:27	44	23
124057	2025-06-20T15:01:27	43	23
124058	2025-06-20T15:11:27	43.1	24
124059	2025-06-20T15:21:27	44	22.5
124060	2025-06-20T15:31:27	43.4	23
124061	2025-06-20T15:41:27	42.8	23.5
124062	2025-06-20T15:51:27	42.5	24
124063	2025-06-20T16:01:27	42.4	24
124064	2025-06-20T16:11:27	42.7	23
124065	2025-06-20T16:21:27	42.3	21.5
124066	2025-06-20T16:31:27	41.3	23.5
124067	2025-06-20T16:41:27	40.6	23
124068	2025-06-20T16:51:27	40.4	24.5
124069	2025-06-20T17:01:27	40.2	24.5
124070	2025-06-20T17:11:27	39	24.5
124071	2025-06-20T17:32:55	38.3	25
124072	2025-06-20T17:32:56	37.9	25
124073	2025-06-20T17:41:26	37.3	26
124074	2025-06-20T17:51:26	36.7	27.5
124075	2025-06-20T18:01:26	35.5	28
124076	2025-06-20T18:11:26	34.5	28.5
124077	2025-06-20T18:21:26	33.7	29.5
124078	2025-06-20T18:31:26	33	30.5
124079	2025-06-20T18:41:26	32.2	34
124080	2025-06-20T18:51:26	30.9	35.5
124081	2025-06-20T19:01:26	30	36.5
124082	2025-06-20T19:11:26	29.2	37
124083	2025-06-20T19:21:26	28.5	39
124084	2025-06-20T19:31:26	27.7	40.5
124085	2025-06-20T19:41:26	27.3	42
124086	2025-06-20T19:51:26	26.7	44
124087	2025-06-20T20:01:26	26.2	46
124088	2025-06-20T20:11:26	25.8	47
124089	2025-06-20T20:21:26	25.3	48.5
124090	2025-06-20T20:31:26	24.8	50
124091	2025-06-20T20:41:26	24.3	51.5
124092	2025-06-20T20:51:26	23.7	53
124093	2025-06-20T21:01:26	23.2	53.5
124094	2025-06-20T21:11:26	23	55
124095	2025-06-20T21:21:26	22.6	55
124096	2025-06-20T21:31:26	22.2	56
124097	2025-06-20T21:41:26	22	56
124098	2025-06-20T21:51:26	21.8	57
124099	2025-06-20T22:01:46	21.3	57.5
124100	2025-06-20T22:11:26	21.1	58.5
124101	2025-06-20T22:21:26	20.7	59.5
124102	2025-06-20T22:31:26	20.6	59.5
124103	2025-06-20T22:41:26	20.4	59
124104	2025-06-20T22:51:26	20.3	59
124105	2025-06-20T23:01:26	20	59
124106	2025-06-20T23:11:26	19.8	60.5
124107	2025-06-20T23:21:26	19.6	60.5
124108	2025-06-20T23:31:26	19.5	60.5
124109	2025-06-20T23:41:26	19.2	61.5
124110	2025-06-20T23:51:26	19	60.5
124111	2025-06-21T00:01:26	18.8	61.5
124112	2025-06-21T00:11:26	18.7	61
124113	2025-06-21T00:21:26	18.7	61.5
124114	2025-06-21T00:31:26	18.5	62
124115	2025-06-21T00:41:26	18.2	62.5
124116	2025-06-21T00:51:26	17.9	63
124117	2025-06-21T01:01:26	17.9	63
124118	2025-06-21T01:11:26	17.7	63
124119	2025-06-21T01:21:26	17.6	62.5
124120	2025-06-21T01:31:26	17.6	61
124121	2025-06-21T01:41:26	17.8	60
124122	2025-06-21T01:51:26	17.7	61
124123	2025-06-21T02:01:26	17.6	61.5
124124	2025-06-21T02:11:26	17.5	61
124125	2025-06-21T02:21:26	17.4	61.5
124126	2025-06-21T02:31:26	17.4	62
124127	2025-06-21T02:41:26	17.2	62
124128	2025-06-21T02:51:26	17.1	61
124129	2025-06-21T03:01:26	17	62
124130	2025-06-21T03:11:26	16.8	63
124131	2025-06-21T03:21:26	16.7	64
124132	2025-06-21T03:31:26	16.5	65
124133	2025-06-21T03:41:26	16.4	65
124134	2025-06-21T03:51:26	16.3	64.5
124135	2025-06-21T04:01:26	16.3	66
124136	2025-06-21T04:11:26	16	65.5
124137	2025-06-21T04:21:25	16.2	65.5
124138	2025-06-21T04:31:25	16.1	66.5
124139	2025-06-21T04:41:25	16	67
124140	2025-06-21T04:51:25	16.1	67
124141	2025-06-21T05:01:25	16	67.5
124142	2025-06-21T05:11:25	16	68
124143	2025-06-21T05:21:25	16.1	69
124144	2025-06-21T05:31:25	16.1	69
124145	2025-06-21T05:41:25	16.1	68
124146	2025-06-21T05:51:25	16.3	68.5
124147	2025-06-21T06:01:25	16.7	68
124148	2025-06-21T06:11:25	17	67.5
124149	2025-06-21T06:21:25	17.2	64.5
124150	2025-06-21T06:31:25	17.5	64.5
124151	2025-06-21T06:41:25	18	63.5
124152	2025-06-21T06:51:25	18.3	63.5
124153	2025-06-21T07:01:25	18.6	62.5
124154	2025-06-21T07:11:25	19.1	63
124155	2025-06-21T07:21:25	19.4	61.5
124156	2025-06-21T07:31:25	19.9	60.5
124157	2025-06-21T07:41:25	20.4	60
124158	2025-06-21T07:51:25	20.8	61
124159	2025-06-21T08:01:25	21.1	58.5
124160	2025-06-21T08:11:25	21.4	60
124161	2025-06-21T08:21:25	21.9	57.5
124162	2025-06-21T08:31:25	22.1	58.5
124163	2025-06-21T08:41:25	22.5	58
124164	2025-06-21T08:51:25	22.7	58
124165	2025-06-21T09:01:25	23.2	54
124166	2025-06-21T09:11:25	23.5	53.5
124167	2025-06-21T09:21:25	24	52
124168	2025-06-21T09:31:25	24.4	51.5
124169	2025-06-21T09:41:25	24.8	50
124170	2025-06-21T09:51:25	25.1	46.5
124171	2025-06-21T10:01:25	25.2	48.5
124172	2025-06-21T10:11:25	25.6	46.5
124173	2025-06-21T10:21:25	25.9	45.5
124174	2025-06-21T10:26:19	26	43
124175	2025-06-21T10:36:19	26.2	42.5
124176	2025-06-21T10:46:19	26.5	42.5
124177	2025-06-21T10:56:19	26.9	41.5
124178	2025-06-21T11:06:19	27.2	39.5
124179	2025-06-21T11:16:19	27.4	38.5
124180	2025-06-21T11:26:19	27.7	39.5
124181	2025-06-21T11:36:19	27.9	39
124182	2025-06-21T11:46:19	28.3	36.5
124183	2025-06-21T11:56:19	28.8	39
124184	2025-06-21T12:06:19	32.8	34.5
124185	2025-06-21T12:16:19	36.7	30
124186	2025-06-21T12:26:19	38.4	27
124187	2025-06-21T12:36:19	40.1	25.5
124188	2025-06-21T12:46:19	41.8	23.5
124189	2025-06-21T12:56:19	42.1	23.5
124190	2025-06-21T13:06:19	43.1	21.5
124191	2025-06-21T13:16:19	43.4	21
124192	2025-06-21T13:26:19	44.3	20
124193	2025-06-21T13:36:19	44.7	20
124194	2025-06-21T13:46:19	45.3	17.5
124195	2025-06-21T13:56:19	45.4	18.5
124196	2025-06-21T14:06:19	45.7	18
124197	2025-06-21T14:16:19	45.6	18.5
124198	2025-06-21T14:26:19	45.9	19
124199	2025-06-21T14:36:19	46.2	17
124200	2025-06-21T14:46:19	45.9	17.5
124201	2025-06-21T14:56:19	45.9	17.5
124202	2025-06-21T15:06:19	46.5	17
124203	2025-06-21T15:16:19	45.9	17
124204	2025-06-21T15:26:19	45.3	16
124205	2025-06-21T15:36:19	46.4	17
124206	2025-06-21T15:46:19	45.8	17
124207	2025-06-21T15:56:19	45.8	17
124208	2025-06-21T16:06:18	45.2	16.5
124209	2025-06-21T16:16:19	44.9	17.5
124210	2025-06-21T16:26:18	44.2	17
124211	2025-06-21T16:36:18	44	18.5
124212	2025-06-21T16:46:18	43.5	18.5
124213	2025-06-21T16:56:18	43.2	19.5
124214	2025-06-21T17:06:18	43	20
124215	2025-06-21T17:16:18	42.8	19.5
124216	2025-06-21T17:26:18	41.8	21
124217	2025-06-21T17:36:18	41.8	21
124218	2025-06-21T17:46:18	40.9	22
124219	2025-06-21T17:56:18	40.4	23
124220	2025-06-21T18:06:18	39.7	23.5
124221	2025-06-21T18:16:18	38.7	24.5
124222	2025-06-21T18:26:18	38	25.5
124223	2025-06-21T18:36:18	37.1	27.5
124224	2025-06-21T18:46:18	35.5	30
124225	2025-06-21T18:56:18	34.8	31.5
124226	2025-06-21T19:06:18	33.9	34
124227	2025-06-21T19:16:18	32.5	37
124228	2025-06-21T19:26:18	31.3	39
124229	2025-06-21T19:36:18	30.2	41
124230	2025-06-21T19:46:18	29.1	41.5
124231	2025-06-21T19:56:18	28.6	42.5
124232	2025-06-21T20:06:18	27.9	43.5
124233	2025-06-21T20:16:18	27.6	44.5
124234	2025-06-21T20:26:18	27.2	45.5
124235	2025-06-21T20:36:18	26.8	45
124236	2025-06-21T20:46:18	26.1	46
124237	2025-06-21T20:56:18	25.9	46.5
124238	2025-06-21T21:06:18	25.6	46.5
124239	2025-06-21T21:16:18	25.1	47.5
124240	2025-06-21T21:26:18	24.9	46.5
124241	2025-06-21T21:36:18	24.5	47
124242	2025-06-21T21:46:18	24.3	48
124243	2025-06-21T21:56:18	24.1	48
124244	2025-06-21T22:06:18	23.9	48.5
124245	2025-06-21T22:16:18	23.8	47.5
124246	2025-06-21T22:26:18	23.7	45
124247	2025-06-21T22:36:18	23.6	46
124248	2025-06-21T22:46:18	23.4	46
124249	2025-06-21T22:56:18	23.4	46
124250	2025-06-21T23:06:18	23.1	47.5
124251	2025-06-21T23:16:18	22.9	50
124252	2025-06-21T23:26:18	22.6	51.5
124253	2025-06-21T23:36:18	22.3	52.5
124254	2025-06-21T23:46:18	21.8	55
124255	2025-06-21T23:56:18	21.6	56
124256	2025-06-22T00:06:18	21.4	56.5
124257	2025-06-22T00:16:18	21.3	57.5
124258	2025-06-22T00:26:18	20.9	59
124259	2025-06-22T00:36:18	20.6	60.5
124260	2025-06-22T00:46:18	20.3	62.5
124261	2025-06-22T00:56:18	20	63.5
124262	2025-06-22T01:06:18	19.9	66
124263	2025-06-22T01:16:18	19.6	65
124264	2025-06-22T01:26:18	19.3	66.5
124265	2025-06-22T01:36:18	19.2	67.5
124266	2025-06-22T01:46:18	18.9	69
124267	2025-06-22T01:56:18	18.7	70
124268	2025-06-22T02:06:18	18.7	69.5
124269	2025-06-22T02:16:18	18.4	70.5
124270	2025-06-22T02:26:18	18.2	71.5
124271	2025-06-22T02:36:18	18.2	70.5
124272	2025-06-22T02:46:18	18.1	71
124273	2025-06-22T02:56:18	17.8	72.5
124274	2025-06-22T03:06:18	17.8	72.5
124275	2025-06-22T03:16:17	17.5	73.5
124276	2025-06-22T03:26:18	17.6	73
124277	2025-06-22T03:36:17	17.5	73
124278	2025-06-22T03:46:17	17.3	74
124279	2025-06-22T03:56:17	17.2	74.5
124280	2025-06-22T04:06:17	17.4	74
124281	2025-06-22T04:16:17	17.4	74.5
124282	2025-06-22T04:26:17	17.4	76.5
124283	2025-06-22T04:36:17	17.4	76
124284	2025-06-22T04:46:17	17.4	76.5
124285	2025-06-22T04:56:17	17.6	77
124286	2025-06-22T05:06:17	17.7	75
124287	2025-06-22T05:16:17	17.9	74
124288	2025-06-22T05:26:17	18	73.5
124289	2025-06-22T05:36:17	18.3	73
124290	2025-06-22T05:46:17	18.6	72.5
124291	2025-06-22T05:56:17	18.9	72
124292	2025-06-22T06:06:17	19	71
124293	2025-06-22T06:16:17	19.3	71
124294	2025-06-22T06:26:17	19.6	70
124295	2025-06-22T06:36:17	19.9	67.5
124296	2025-06-22T06:46:17	20.3	65.5
124297	2025-06-22T06:56:17	20.9	65
124298	2025-06-22T07:06:17	21.1	65
124299	2025-06-22T07:16:17	21.4	66
124300	2025-06-22T07:26:17	21.7	65
124301	2025-06-22T07:36:17	21.9	64.5
124302	2025-06-22T07:46:17	22.1	64
124303	2025-06-22T07:56:17	22.5	64
124304	2025-06-22T08:06:17	22.8	64.5
124305	2025-06-22T08:16:17	22.9	64.5
124306	2025-06-22T08:26:17	23.1	64
124307	2025-06-22T08:36:17	23.4	64
124308	2025-06-22T08:46:17	23.6	62
124309	2025-06-22T08:56:17	24.3	59
124310	2025-06-22T09:06:17	24.6	58.5
124311	2025-06-22T09:16:17	25	57.5
124312	2025-06-22T09:26:17	25.5	56.5
124313	2025-06-22T09:36:17	25.7	55.5
124314	2025-06-22T09:46:17	26	55
124315	2025-06-22T09:56:17	26.4	55
124316	2025-06-22T10:06:17	26.6	53.5
124317	2025-06-22T10:16:17	26.8	58.5
124318	2025-06-22T10:26:17	27.1	53
124319	2025-06-22T10:36:17	27.7	48
124320	2025-06-22T10:46:17	28.1	49.5
124321	2025-06-22T10:56:17	28.7	48
124322	2025-06-22T11:06:17	29.2	46.5
124323	2025-06-22T11:16:17	29.3	45.5
124324	2025-06-22T11:26:17	29.7	44.5
124325	2025-06-22T11:36:17	30.1	45
124326	2025-06-22T11:46:17	30.3	42
124327	2025-06-22T11:56:17	30.9	42
124328	2025-06-22T12:06:17	34.4	34.5
124329	2025-06-22T12:26:17	38.8	27
124330	2025-06-22T12:36:17	39.8	27.5
124331	2025-06-22T12:46:17	40.1	26
124332	2025-06-22T12:56:17	40.3	26
124333	2025-06-22T13:06:17	41.1	24
124334	2025-06-22T13:16:17	41.1	21.5
124335	2025-06-22T13:26:17	40.8	23.5
124336	2025-06-22T13:36:17	42	21.5
124337	2025-06-22T13:46:16	41.4	21.5
124338	2025-06-22T13:56:16	42.1	22.5
124339	2025-06-22T14:06:17	42.4	22.5
124340	2025-06-22T14:16:16	42.5	22.5
124341	2025-06-22T14:26:16	42.9	22
124342	2025-06-22T14:36:16	43.7	22
124343	2025-06-22T14:46:16	43.3	22.5
124344	2025-06-22T14:56:16	43.1	22.5
124345	2025-06-22T15:06:16	42.4	22
124346	2025-06-22T15:16:16	44.7	21.5
124347	2025-06-22T15:26:16	43.1	22.5
124348	2025-06-22T15:36:16	43.2	22.5
124349	2025-06-22T15:46:16	43.4	22
124350	2025-06-22T15:56:16	42.1	23.5
124351	2025-06-22T16:06:16	43.2	23
124352	2025-06-22T16:16:16	42.5	24
124353	2025-06-22T16:26:16	41.8	24.5
124354	2025-06-22T16:36:16	40.8	26
124355	2025-06-22T16:46:16	40.5	26
124356	2025-06-22T16:56:16	40.7	26
124357	2025-06-22T17:06:16	40.2	27
124358	2025-06-22T17:16:16	39.4	27.5
124359	2025-06-22T17:26:16	39.3	29
124360	2025-06-22T17:36:16	39	29.5
124361	2025-06-22T17:46:16	38.2	31
124362	2025-06-22T17:56:16	37.9	31.5
124363	2025-06-22T18:06:16	37.4	35
124364	2025-06-22T18:16:16	37.9	35.5
124365	2025-06-22T18:26:16	37.9	37.5
124366	2025-06-22T18:36:16	37	39
124367	2025-06-22T18:46:16	36.3	41
124368	2025-06-22T18:56:16	35.1	43
124369	2025-06-22T19:06:16	34.3	45
124370	2025-06-22T19:16:16	33.5	46
124371	2025-06-22T19:26:16	32.6	47.5
124372	2025-06-22T19:36:16	32	49
124373	2025-06-22T19:46:16	31.3	51
124374	2025-06-22T19:56:16	30.8	52.5
124375	2025-06-22T20:06:16	30.4	52.5
124376	2025-06-22T20:16:16	30	53
124377	2025-06-22T20:26:16	29.7	54.5
124378	2025-06-22T20:36:16	29.2	54.5
124379	2025-06-22T20:46:16	28.9	54.5
124380	2025-06-22T20:56:16	28.6	55
124381	2025-06-22T21:06:16	28.3	55
124382	2025-06-22T21:16:16	28.1	57.5
124383	2025-06-22T21:26:16	28.1	56.5
124384	2025-06-22T21:36:16	28.1	57
124385	2025-06-22T21:46:16	27.9	56
124386	2025-06-22T21:56:16	27.7	55.5
124387	2025-06-22T22:06:16	27.5	56.5
124388	2025-06-22T22:16:16	27.5	49
124389	2025-06-22T22:26:16	27.3	49.5
124390	2025-06-22T22:36:16	27.1	50.5
124391	2025-06-22T22:46:16	26.7	52
124392	2025-06-22T22:56:16	26.8	53
124393	2025-06-22T23:06:16	26.7	54.5
124394	2025-06-22T23:16:16	26.7	56.5
124395	2025-06-22T23:26:16	26.6	58
124396	2025-06-22T23:36:16	26.4	59.5
124397	2025-06-22T23:46:16	26.4	61
124398	2025-06-22T23:56:16	26.2	62
124399	2025-06-23T00:06:16	26	63.5
124400	2025-06-23T00:16:16	25.9	62
124401	2025-06-23T00:26:16	25.8	61.5
124402	2025-06-23T00:36:16	25.6	62.5
124403	2025-06-23T00:46:16	25.4	63.5
124404	2025-06-23T00:56:16	25.2	64
124405	2025-06-23T01:06:16	25.2	68.5
124406	2025-06-23T01:16:15	23.7	85.5
124407	2025-06-23T01:26:15	23.6	83
124408	2025-06-23T01:36:15	23.9	73
124409	2025-06-23T01:46:15	22.3	81
124410	2025-06-23T01:56:15	22.5	76.5
124411	2025-06-23T02:06:15	22.8	75
124412	2025-06-23T02:16:15	22.8	74.5
124413	2025-06-23T02:26:15	23	74
124414	2025-06-23T02:36:15	22.9	74.5
124415	2025-06-23T02:46:15	22.9	75
124416	2025-06-23T02:56:15	22.8	76
124417	2025-06-23T03:06:15	22.9	75
124418	2025-06-23T03:16:15	22.9	74.5
124419	2025-06-23T03:26:15	22.9	74.5
124420	2025-06-23T03:36:15	22.9	75
124421	2025-06-23T03:46:15	22.6	76.5
124422	2025-06-23T03:56:15	22.5	77
124423	2025-06-23T04:06:15	22.7	76.5
124424	2025-06-23T04:16:15	22.5	77
124425	2025-06-23T04:26:15	22.5	77.5
124426	2025-06-23T04:36:15	22.6	77.5
124427	2025-06-23T04:46:15	22.6	78
124428	2025-06-23T04:56:15	22.5	79
124429	2025-06-23T05:06:15	22.5	79
124430	2025-06-23T05:16:15	22.6	78
124431	2025-06-23T05:26:15	22.7	78.5
124432	2025-06-23T05:36:15	22.9	79
124433	2025-06-23T05:46:15	23.1	77.5
124434	2025-06-23T05:56:15	23.6	76.5
124435	2025-06-23T06:06:15	24	75
124436	2025-06-23T06:16:15	24.2	74.5
124437	2025-06-23T06:26:15	24.2	75
124438	2025-06-23T06:36:15	24.3	75
124439	2025-06-23T06:46:15	24.4	75
124440	2025-06-23T06:56:15	24.4	75.5
124441	2025-06-23T07:06:15	24.5	75
124442	2025-06-23T07:16:15	24.8	73.5
124443	2025-06-23T07:26:15	25.1	73
124444	2025-06-23T07:36:15	25.6	70.5
124445	2025-06-23T07:46:15	25.6	70
124446	2025-06-23T07:56:15	25.5	68
124447	2025-06-23T08:06:15	25.5	68
124448	2025-06-23T08:16:15	25.8	66
124449	2025-06-23T08:26:15	26.4	63.5
124450	2025-06-23T08:36:15	27.2	62.5
124451	2025-06-23T08:46:15	27.2	63.5
124452	2025-06-23T08:56:15	27.5	57
124453	2025-06-23T09:06:15	27.9	55
124454	2025-06-23T09:16:15	28.1	54.5
124455	2025-06-23T09:26:15	28.1	54
124456	2025-06-23T09:36:15	28.3	54
124457	2025-06-23T09:46:15	28.2	54
124458	2025-06-23T09:56:15	28.1	54.5
124459	2025-06-23T10:06:15	28.1	53
124460	2025-06-23T10:16:15	28.3	50.5
124461	2025-06-23T10:26:15	28.5	49.5
124462	2025-06-23T10:36:15	28.3	47
124463	2025-06-23T10:46:14	28.2	48.5
124464	2025-06-23T10:56:14	28.6	47
124465	2025-06-23T11:06:14	28.5	44.5
124466	2025-06-23T11:16:14	28.4	43
124467	2025-06-23T11:26:14	28.4	40.5
124468	2025-06-23T11:36:14	28.8	39.5
124469	2025-06-23T11:46:14	29	38.5
124470	2025-06-23T11:56:14	29.4	34
124471	2025-06-23T12:06:14	31.8	30.5
124472	2025-06-23T12:16:14	32.5	30.5
124473	2025-06-23T12:26:14	33.4	32.5
124474	2025-06-23T12:36:14	35	30
124475	2025-06-23T12:46:14	33.1	33
124476	2025-06-23T12:56:14	32.2	34
124477	2025-06-23T13:06:14	32.1	35
124478	2025-06-23T13:16:14	31.4	35
124479	2025-06-23T13:26:14	30.2	35
124480	2025-06-23T13:36:14	29.4	35.5
124481	2025-06-23T13:46:14	29	37
124482	2025-06-23T13:56:14	29.1	38.5
124483	2025-06-23T14:06:14	29.1	38.5
124484	2025-06-23T14:16:14	29.1	40
124485	2025-06-23T14:26:14	29.1	39.5
124486	2025-06-23T14:36:14	28.8	40
124487	2025-06-23T14:46:14	28.3	42
124488	2025-06-23T14:56:14	28.2	43.5
124489	2025-06-23T15:06:14	28	45
124490	2025-06-23T15:16:14	28.2	45
124491	2025-06-23T15:26:14	27.5	47
124492	2025-06-23T15:36:14	27.5	47.5
124493	2025-06-23T15:46:14	27.1	48.5
124494	2025-06-23T15:56:14	26.7	50.5
124495	2025-06-23T16:06:14	26.2	50
124496	2025-06-23T16:16:14	25.9	51.5
124497	2025-06-23T16:26:14	26	50.5
124498	2025-06-23T16:36:14	26.1	51.5
124499	2025-06-23T16:46:14	26.7	49.5
124500	2025-06-23T16:56:14	27.1	49
124501	2025-06-23T17:06:14	28.4	45.5
124502	2025-06-23T17:16:14	28.6	45.5
124503	2025-06-23T17:26:14	27	48
124504	2025-06-23T17:36:14	28.2	46.5
124505	2025-06-23T17:46:14	27.2	48.5
124506	2025-06-23T17:56:14	26.1	51
124507	2025-06-23T18:06:14	26.1	51
124508	2025-06-23T18:16:14	25.6	51
124509	2025-06-23T18:26:14	24.7	53.5
124510	2025-06-23T18:36:14	25.3	52.5
124511	2025-06-23T18:46:14	25.4	52.5
124512	2025-06-23T18:56:14	25	53
124513	2025-06-23T19:06:14	24.6	53
124514	2025-06-23T19:16:14	23.9	54
124515	2025-06-23T19:26:14	23.4	54.5
124516	2025-06-23T19:36:14	23	54.5
124517	2025-06-23T19:46:14	22.7	56
124518	2025-06-23T19:56:14	22.5	57
124519	2025-06-23T20:06:14	22.3	58
124520	2025-06-23T20:16:14	22	58.5
124521	2025-06-23T20:26:14	21.7	59.5
124522	2025-06-23T20:36:13	21.6	60.5
124523	2025-06-23T20:46:14	21.3	62
124524	2025-06-23T20:56:13	21.1	64
124525	2025-06-23T21:06:13	20.7	66
124526	2025-06-23T21:16:13	20.5	67
124527	2025-06-23T21:26:13	20.3	68
124528	2025-06-23T21:36:13	20.1	69.5
124529	2025-06-23T21:46:13	20.1	69.5
124530	2025-06-23T21:56:13	19.9	70.5
124531	2025-06-23T22:06:13	19.8	71.5
124532	2025-06-23T22:16:13	19.5	71.5
124533	2025-06-23T22:26:13	19.4	72.5
124534	2025-06-23T22:36:13	19.3	72.5
124535	2025-06-23T22:46:13	19.3	73
124536	2025-06-23T22:56:13	19.3	73
124537	2025-06-23T23:06:13	19.3	72.5
124538	2025-06-23T23:16:13	19.4	72
124539	2025-06-23T23:26:13	19.3	72
124540	2025-06-23T23:36:13	19.3	72
124541	2025-06-23T23:46:13	19.3	72
124542	2025-06-23T23:56:13	19.1	73
124543	2025-06-24T00:06:13	18.9	74
124544	2025-06-24T00:16:13	18.7	74.5
124545	2025-06-24T00:26:13	18.7	74
124546	2025-06-24T00:36:13	18.7	74.5
124547	2025-06-24T00:46:13	18.5	75.5
124548	2025-06-24T00:56:13	18.3	76
124549	2025-06-24T01:06:13	18.1	77
124550	2025-06-24T01:16:13	17.9	78
124551	2025-06-24T01:26:13	17.9	78
124552	2025-06-24T01:36:13	18	78
124553	2025-06-24T01:46:13	17.8	78.5
124554	2025-06-24T01:56:13	17.7	78.5
124555	2025-06-24T02:06:13	17.7	79
124556	2025-06-24T02:16:13	17.7	79.5
124557	2025-06-24T02:26:13	17.6	79.5
124558	2025-06-24T02:36:13	17.3	80.5
124559	2025-06-24T02:46:13	17.1	80.5
124560	2025-06-24T02:56:13	17.1	81.5
124561	2025-06-24T03:06:13	17	82
124562	2025-06-24T03:16:13	16.8	82
124563	2025-06-24T03:26:13	16.7	83
124564	2025-06-24T03:36:13	16.4	83.5
124565	2025-06-24T03:46:13	16.3	84
124566	2025-06-24T03:56:13	16.3	84.5
124567	2025-06-24T04:06:13	16.4	84
124568	2025-06-24T04:16:13	16.5	84
124569	2025-06-24T04:26:13	16.7	83.5
124570	2025-06-24T04:36:13	16.9	82.5
124571	2025-06-24T04:46:13	17.1	81.5
124572	2025-06-24T04:56:13	17.3	80.5
124573	2025-06-24T05:06:13	17.5	80.5
124574	2025-06-24T05:16:13	17.8	80
124575	2025-06-24T05:26:13	18	78.5
124576	2025-06-24T05:36:13	18.2	76.5
124577	2025-06-24T05:56:13	18.4	73.5
124578	2025-06-24T06:06:13	18.7	72.5
124579	2025-06-24T06:16:13	18.9	71.5
124580	2025-06-24T06:26:13	19.1	70.5
124581	2025-06-24T06:36:13	19.2	65.5
124582	2025-06-24T06:46:13	19.4	64.5
124583	2025-06-24T06:56:13	19.4	65
124584	2025-06-24T07:06:13	19.6	66
124585	2025-06-24T07:16:32	19.8	66.5
124586	2025-06-24T07:26:13	19.9	66.5
124587	2025-06-24T07:36:13	20.2	67
124588	2025-06-24T07:46:12	20.4	68
124589	2025-06-24T07:56:12	20.7	68.5
124590	2025-06-24T08:06:12	21	68.5
124591	2025-06-24T08:16:12	21.3	67
124592	2025-06-24T08:26:12	21.7	66.5
124593	2025-06-24T08:36:12	22.1	64.5
124594	2025-06-24T08:46:12	22.2	65
124595	2025-06-24T08:56:12	22.5	63.5
124596	2025-06-24T09:06:12	22.8	60.5
124597	2025-06-24T09:16:12	23.5	58
124598	2025-06-24T09:26:12	23.8	58
124599	2025-06-24T09:36:12	23.5	58
124600	2025-06-24T09:46:12	24.1	54.5
124601	2025-06-24T09:56:12	24.2	53.5
124602	2025-06-24T10:06:12	24.4	54
124603	2025-06-24T10:16:12	24.6	52
124604	2025-06-24T10:26:12	24.7	49
124605	2025-06-24T10:36:12	25.2	48.5
124606	2025-06-24T10:46:12	25.3	47
124607	2025-06-24T10:56:12	25.4	43.5
124608	2025-06-24T11:06:12	25.7	44
124609	2025-06-24T11:16:12	25.8	45
124610	2025-06-24T11:26:12	26	45.5
124611	2025-06-24T11:36:12	26.3	44
124612	2025-06-24T11:46:12	26.4	44.5
124613	2025-06-24T11:56:12	26.6	44.5
124614	2025-06-24T12:06:12	29.7	39.5
124615	2025-06-24T12:16:12	32.3	35
124616	2025-06-24T12:26:12	33.4	34
124617	2025-06-24T12:36:12	33.8	34
124618	2025-06-24T12:46:12	34.7	32.5
124619	2025-06-24T12:56:12	34.5	32
124620	2025-06-24T13:06:12	34.6	32.5
124621	2025-06-24T13:16:12	35.4	30.5
124622	2025-06-24T13:26:12	34.8	30.5
124623	2025-06-24T13:36:12	35.7	29.5
124624	2025-06-24T13:46:12	35.6	30.5
124625	2025-06-24T13:56:12	35.7	30.5
124626	2025-06-24T14:06:12	36.1	29.5
124627	2025-06-24T14:16:12	36	29
124628	2025-06-24T14:26:12	36.5	29
124629	2025-06-24T14:36:12	35.7	29.5
124630	2025-06-24T14:46:12	36	29.5
124631	2025-06-24T14:56:12	35	30.5
124632	2025-06-24T15:06:12	35.6	30.5
124633	2025-06-24T15:16:12	35.8	30.5
124634	2025-06-24T15:26:12	35.6	30.5
124635	2025-06-24T15:36:12	35.6	31
124636	2025-06-24T15:46:12	35.7	31.5
124637	2025-06-24T15:56:12	36.1	31
124638	2025-06-24T16:06:12	35.7	31.5
124639	2025-06-24T16:16:12	36	31
124640	2025-06-24T16:26:12	35.1	32
124641	2025-06-24T16:36:12	35.3	32
124642	2025-06-24T16:46:12	35.8	31.5
124643	2025-06-24T16:56:12	36	31.5
124644	2025-06-24T17:06:12	35.7	31.5
124645	2025-06-24T17:16:12	35.3	32
124646	2025-06-24T17:26:12	35.2	32
124647	2025-06-24T17:36:12	34.9	32
124648	2025-06-24T17:46:12	34.9	32.5
124649	2025-06-24T17:56:11	34.8	33
124650	2025-06-24T18:06:11	34.4	33
124651	2025-06-24T18:16:11	33.9	34.5
124652	2025-06-24T18:26:11	33.2	35.5
124653	2025-06-24T18:36:11	32.5	36.5
124654	2025-06-24T18:46:11	31.7	37.5
124655	2025-06-24T18:56:11	30.8	40
124656	2025-06-24T19:06:11	30.1	42
124657	2025-06-24T19:16:11	29.3	44
124658	2025-06-24T19:26:11	28.5	46.5
124659	2025-06-24T19:36:11	28.3	47.5
124660	2025-06-24T19:56:11	27.4	51.5
124661	2025-06-24T20:06:11	26.9	51
124662	2025-06-24T20:16:11	26.1	52
124663	2025-06-24T20:36:11	25.8	52
124664	2025-06-24T20:46:12	25.5	54
124665	2025-06-24T20:56:11	25.3	57.5
124666	2025-06-24T21:06:11	25.1	56.5
124667	2025-06-24T21:16:11	24.8	57.5
124668	2025-06-24T21:26:11	24.6	59
124669	2025-06-24T21:36:11	24.3	59.5
124670	2025-06-24T21:46:11	24	61
124671	2025-06-24T22:06:11	23.6	63
124672	2025-06-24T22:16:11	23.2	63.5
124673	2025-06-24T22:26:11	23.1	64
124674	2025-06-24T22:36:11	22.8	65
124675	2025-06-24T22:46:11	22.6	65
124676	2025-06-24T22:56:11	22.4	66
124677	2025-06-24T23:06:11	22.1	66.5
124678	2025-06-24T23:16:11	22.1	66.5
124679	2025-06-24T23:26:11	22	67
124680	2025-06-24T23:36:11	21.7	68
124681	2025-06-24T23:46:11	21.7	67.5
124682	2025-06-24T23:56:11	21.5	68
124683	2025-06-25T00:06:11	21.2	68.5
124684	2025-06-25T00:16:11	21.1	69
124685	2025-06-25T00:26:11	20.8	69.5
124686	2025-06-25T00:36:11	20.7	69.5
124687	2025-06-25T00:46:11	20.5	70.5
124688	2025-06-25T00:56:11	20.4	71.5
124689	2025-06-25T01:06:11	20.1	72
124690	2025-06-25T01:16:11	20	72.5
124691	2025-06-25T01:26:11	19.9	74
124692	2025-06-25T01:36:11	19.6	74
124693	2025-06-25T01:46:11	19.6	74
124694	2025-06-25T01:56:11	19.5	74
124695	2025-06-25T02:06:11	19.2	75
124696	2025-06-25T02:16:11	19.2	75.5
124697	2025-06-25T02:26:11	18.9	76
124698	2025-06-25T02:36:11	19	76
124699	2025-06-25T02:46:11	18.8	76.5
124700	2025-06-25T02:56:11	18.7	77.5
124701	2025-06-25T03:06:11	18.6	77.5
124702	2025-06-25T03:16:11	18.4	78
124703	2025-06-25T03:26:11	18.4	78.5
124704	2025-06-25T03:36:11	18.2	78.5
124705	2025-06-25T03:46:11	18.2	79
124706	2025-06-25T03:56:11	18.3	78.5
124707	2025-06-25T04:06:11	18.3	78.5
124708	2025-06-25T04:16:11	18.4	79
124709	2025-06-25T04:26:11	18.4	79.5
124710	2025-06-25T04:36:11	18.4	79.5
124711	2025-06-25T04:46:10	18.6	79.5
124712	2025-06-25T04:56:10	18.8	79.5
124713	2025-06-25T05:06:10	18.7	79
124714	2025-06-25T05:16:11	19.1	78.5
124715	2025-06-25T05:26:10	19.3	78
124716	2025-06-25T05:36:10	19.4	77.5
124717	2025-06-25T05:46:11	19.6	77
124718	2025-06-25T05:56:10	19.9	77.5
124719	2025-06-25T06:06:10	20.2	76.5
124720	2025-06-25T06:16:10	20.3	76.5
124721	2025-06-25T06:26:10	20.5	76
124722	2025-06-25T06:36:10	21.1	75.5
124723	2025-06-25T06:46:10	21.3	76
124724	2025-06-25T06:56:10	21.6	74.5
124725	2025-06-25T07:06:10	22	74.5
124726	2025-06-25T07:16:10	22.5	74
124727	2025-06-25T07:26:10	23	68
124728	2025-06-25T07:36:10	23.6	66.5
124729	2025-06-25T07:46:28	24.2	67
124730	2025-06-25T07:56:10	24.4	65.5
124731	2025-06-25T08:06:10	24.9	61
124732	2025-06-25T08:16:10	25.4	60.5
124733	2025-06-25T08:26:10	25.7	60
124734	2025-06-25T08:36:10	26.1	57.5
124735	2025-06-25T08:46:10	26.4	56
124736	2025-06-25T08:56:10	26.9	55
124737	2025-06-25T09:06:10	27.2	54
124738	2025-06-25T09:16:10	27.4	52.5
124739	2025-06-25T09:26:10	27.7	53
124740	2025-06-25T09:36:10	28	50.5
124741	2025-06-25T09:46:10	28.1	50.5
124742	2025-06-25T09:56:10	28.4	47.5
124743	2025-06-25T10:06:10	28.7	46
124744	2025-06-25T10:16:10	28.9	47
124745	2025-06-25T10:26:10	29.2	46
124746	2025-06-25T10:36:10	29.5	43.5
124747	2025-06-25T10:46:10	29.8	43.5
124748	2025-06-25T10:56:10	29.8	43
124749	2025-06-25T11:16:10	30.3	43
124750	2025-06-25T11:26:10	30.5	43
124751	2025-06-25T11:36:10	30.6	42.5
124752	2025-06-25T11:46:10	31.1	42
124753	2025-06-25T11:56:10	31.2	42.5
124754	2025-06-25T12:06:10	33.9	37.5
124755	2025-06-25T12:16:10	36.5	34
124756	2025-06-25T12:26:10	38.7	30.5
124757	2025-06-25T12:36:10	39.6	28.5
124758	2025-06-25T12:46:10	40.6	28
124759	2025-06-25T12:56:10	37.3	31
124760	2025-06-25T13:06:10	35.3	35
124761	2025-06-25T13:16:10	36.7	32.5
124762	2025-06-25T13:26:10	39.7	30
124763	2025-06-25T13:36:10	40.2	29
124764	2025-06-25T13:46:10	40.8	27.5
124765	2025-06-25T13:56:10	37.5	31
124766	2025-06-25T14:06:10	37.3	33
124767	2025-06-25T14:16:10	36.3	35
124768	2025-06-25T14:26:09	36.2	34
124769	2025-06-25T14:36:09	39	32
124770	2025-06-25T14:46:10	40.9	29.5
124771	2025-06-25T14:56:09	42.3	28
124772	2025-06-25T15:06:09	43.2	27
124773	2025-06-25T15:16:09	42.1	27.5
124774	2025-06-25T15:26:09	42.7	27
124775	2025-06-25T15:36:09	43.2	27
124776	2025-06-25T15:46:09	41.8	28
124777	2025-06-25T15:56:09	40.8	28
124778	2025-06-25T16:06:09	40.9	29
124779	2025-06-25T16:16:09	40.8	28.5
124780	2025-06-25T16:26:09	40.2	29.5
124781	2025-06-25T16:46:09	41	29
124782	2025-06-25T16:56:09	40.6	28.5
124783	2025-06-25T17:06:09	40	29
124784	2025-06-25T17:16:09	41.2	29
124785	2025-06-25T17:26:09	41.1	28.5
124786	2025-06-25T17:36:09	41.6	29.5
124787	2025-06-25T17:46:09	41.7	30
124788	2025-06-25T17:56:09	41.5	31.5
124789	2025-06-25T18:06:09	40.9	32.5
124790	2025-06-25T18:16:09	40.2	34.5
124791	2025-06-25T18:26:09	39.2	36
124792	2025-06-25T18:36:09	38.3	38
124793	2025-06-25T18:46:09	37.3	40.5
124794	2025-06-25T18:56:09	36.2	42
124795	2025-06-25T19:06:09	35.1	45
124796	2025-06-25T19:16:09	33.9	48.5
124797	2025-06-25T19:26:09	32.9	50
124798	2025-06-25T19:36:09	32.1	50.5
124799	2025-06-25T19:46:09	31.4	50.5
124800	2025-06-25T19:56:09	30.9	51
124801	2025-06-25T20:21:15	30.4	53
124802	2025-06-25T20:21:16	30	53
124803	2025-06-25T20:26:09	29.7	54.5
124804	2025-06-25T20:36:09	29.4	54
124805	2025-06-25T20:46:09	28.8	55.5
124806	2025-06-25T20:56:09	28.5	57
124807	2025-06-25T21:06:09	28.2	56.5
124808	2025-06-25T21:16:09	27.9	57
124809	2025-06-25T21:26:09	27.7	58
124810	2025-06-25T21:36:09	27.3	58.5
124811	2025-06-25T21:46:09	27	58.5
124812	2025-06-25T21:56:09	26.5	59.5
124813	2025-06-25T22:06:09	26.3	58.5
124814	2025-06-25T22:16:09	26.4	56
124815	2025-06-25T22:26:09	26.4	57
124816	2025-06-25T22:36:09	26.1	58
124817	2025-06-25T22:46:09	26.1	60
124818	2025-06-25T22:56:09	25.9	61
124819	2025-06-25T23:06:09	25.7	61.5
124820	2025-06-25T23:16:09	25.5	62
124821	2025-06-25T23:26:09	25.3	62.5
124822	2025-06-25T23:36:09	25.1	63
124823	2025-06-25T23:46:09	25	64
124824	2025-06-25T23:56:09	24.6	64
124825	2025-06-26T00:06:09	24.5	63.5
124826	2025-06-26T00:16:09	24.4	64
124827	2025-06-26T00:26:09	23.9	66.5
124828	2025-06-26T00:36:09	24	67.5
124829	2025-06-26T00:46:09	23.5	67
124830	2025-06-26T00:56:09	23.5	67.5
124831	2025-06-26T01:06:09	23.6	67.5
124832	2025-06-26T01:16:09	23.4	69
124833	2025-06-26T01:26:08	24.1	64.5
124834	2025-06-26T01:36:08	24.2	65.5
124835	2025-06-26T01:46:08	24.1	67
124836	2025-06-26T01:56:08	24.1	67
124837	2025-06-26T02:06:08	24	66
124838	2025-06-26T02:16:08	24	65.5
124839	2025-06-26T02:26:08	23.8	65.5
124840	2025-06-26T02:36:08	23.7	66
124841	2025-06-26T02:46:08	23.7	66.5
124842	2025-06-26T02:56:08	23.5	67
124843	2025-06-26T03:06:08	23.4	68
124844	2025-06-26T03:16:08	23.1	68
124845	2025-06-26T03:26:08	23	68.5
124846	2025-06-26T03:36:08	23	69
124847	2025-06-26T03:46:08	22.8	68
124848	2025-06-26T03:56:08	22.9	68
124849	2025-06-26T04:06:08	23	69
124850	2025-06-26T04:16:08	23	68.5
124851	2025-06-26T04:26:08	23.1	68
124852	2025-06-26T04:36:08	23.3	69
124853	2025-06-26T04:46:08	23.4	69
124854	2025-06-26T04:56:08	23.4	70
124855	2025-06-26T05:06:08	23.3	71
124856	2025-06-26T05:16:08	23.4	71.5
124857	2025-06-26T05:26:08	23.4	71
124858	2025-06-26T05:36:08	23.6	70.5
124859	2025-06-26T05:46:08	23.8	71.5
124860	2025-06-26T05:56:08	23.9	69
124861	2025-06-26T06:06:08	23.7	69
124862	2025-06-26T06:16:08	24.1	69
124863	2025-06-26T06:26:08	24	67
124864	2025-06-26T06:36:08	24.3	67.5
124865	2025-06-26T06:46:08	24.3	67.5
124866	2025-06-26T06:56:08	24.7	66.5
124867	2025-06-26T07:06:08	24.6	66.5
124868	2025-06-26T07:16:08	24.9	66.5
124869	2025-06-26T07:26:08	24.9	65
124870	2025-06-26T07:36:08	25.3	64
124871	2025-06-26T07:46:08	25.3	62.5
124872	2025-06-26T07:56:08	25.2	62.5
124873	2025-06-26T08:06:08	25.3	62
124874	2025-06-26T08:16:08	25.6	60
124875	2025-06-26T08:26:08	26	59.5
124876	2025-06-26T08:36:08	26.4	56.5
124877	2025-06-26T08:46:08	26.6	57
124878	2025-06-26T08:56:08	26.9	57
124879	2025-06-26T09:06:08	27.2	56.5
124880	2025-06-26T09:16:08	27.1	55.5
124881	2025-06-26T09:26:08	27.3	55
124882	2025-06-26T09:36:08	27.6	51
124883	2025-06-26T09:46:08	27.7	50.5
124884	2025-06-26T09:56:08	28	51
124885	2025-06-26T10:06:08	28.3	51
124886	2025-06-26T10:16:08	28.5	51.5
124887	2025-06-26T10:26:08	28.9	54
124888	2025-06-26T10:36:08	28.6	55.5
124889	2025-06-26T10:46:08	28.7	55.5
124890	2025-06-26T10:56:08	28.8	54
124891	2025-06-26T11:06:08	28.1	55.5
124892	2025-06-26T11:16:07	27.6	56.5
124893	2025-06-26T11:26:07	27.8	56
124894	2025-06-26T11:36:07	28.2	54
124895	2025-06-26T11:46:07	28.6	53
124896	2025-06-26T11:56:07	29	51
124897	2025-06-26T12:06:07	29.8	49
124898	2025-06-26T12:16:07	32.3	43.5
124899	2025-06-26T12:26:07	32.6	42
124900	2025-06-26T12:36:07	33.5	39.5
124901	2025-06-26T12:46:07	34.8	36.5
124902	2025-06-26T12:56:07	33.7	37.5
124903	2025-06-26T13:06:07	35.1	35.5
124904	2025-06-26T13:16:07	31.8	39.5
124905	2025-06-26T13:26:07	30.1	42.5
124906	2025-06-26T13:36:07	30.6	41.5
124907	2025-06-26T13:46:24	30.6	44
124908	2025-06-26T13:56:07	31.1	43
124909	2025-06-26T14:06:07	32.2	40.5
124910	2025-06-26T14:16:07	31.1	44
124911	2025-06-26T14:26:07	30.3	46
124912	2025-06-26T14:36:07	31.3	44
124913	2025-06-26T14:46:07	33.6	38.5
124914	2025-06-26T14:56:07	34.7	36
124915	2025-06-26T15:06:07	35.1	35.5
124916	2025-06-26T15:16:07	35.7	35
124917	2025-06-26T15:26:07	36.1	35
124918	2025-06-26T15:36:07	36.4	33
124919	2025-06-26T15:46:07	35.5	34.5
124920	2025-06-26T15:56:07	33.6	37
124921	2025-06-26T16:06:07	34.4	36.5
124922	2025-06-26T16:16:07	34	37.5
124923	2025-06-26T16:26:07	33.5	39
124924	2025-06-26T16:36:07	33.6	39
124925	2025-06-26T16:46:07	32	43
124926	2025-06-26T16:56:07	30.4	46
124927	2025-06-26T17:06:07	31	45.5
124928	2025-06-26T17:16:07	30.1	48
124929	2025-06-26T17:26:07	29.6	47.5
124930	2025-06-26T17:36:07	29.4	49
124931	2025-06-26T17:46:07	29	51
124932	2025-06-26T17:56:07	28.9	51.5
124933	2025-06-26T18:06:07	28.8	50
124934	2025-06-26T18:16:07	29.5	48.5
124935	2025-06-26T18:26:07	30	47
124936	2025-06-26T18:36:07	29.4	47.5
124937	2025-06-26T18:46:07	29.1	48
124938	2025-06-26T18:56:07	28.9	48.5
124939	2025-06-26T19:06:07	28.3	50
124940	2025-06-26T19:16:07	27.6	52
124941	2025-06-26T19:26:07	27.1	53
124942	2025-06-26T19:36:07	26.8	54.5
124943	2025-06-26T19:56:07	26.1	59
124944	2025-06-26T20:06:07	26	59.5
124945	2025-06-26T20:16:07	25.7	60
124946	2025-06-26T20:26:07	25.7	60.5
124947	2025-06-26T20:36:07	25.8	61
124948	2025-06-26T20:46:07	25.8	61.5
124949	2025-06-26T20:56:07	25.6	62
124950	2025-06-26T21:06:07	25.5	63
124951	2025-06-26T21:16:07	25.4	63.5
124952	2025-06-26T21:26:07	25.2	64
124953	2025-06-26T21:36:06	24.8	65
124954	2025-06-26T21:46:06	24.3	67
124955	2025-06-26T21:56:07	24.3	67.5
124956	2025-06-26T22:06:06	24.2	68
124957	2025-06-26T22:16:06	24.2	67.5
124958	2025-06-26T22:26:06	24.1	68
124959	2025-06-26T22:36:07	24.2	68
124960	2025-06-26T22:46:06	24.1	68.5
124961	2025-06-26T22:56:06	23.3	71.5
124962	2025-06-26T23:06:06	23.2	71.5
124963	2025-06-26T23:16:06	23.2	71
124964	2025-06-26T23:26:06	23.4	69.5
124965	2025-06-26T23:36:06	23.5	69
124966	2025-06-26T23:46:06	23.5	69
124967	2025-06-26T23:56:06	23.5	69.5
124968	2025-06-27T00:06:06	23.4	69.5
124969	2025-06-27T00:16:06	23.3	70
124970	2025-06-27T00:26:06	23.2	70
124971	2025-06-27T00:36:06	23.1	70.5
124972	2025-06-27T00:46:06	23.2	70.5
124973	2025-06-27T00:56:06	23	70.5
124974	2025-06-27T01:06:06	22.9	70
124975	2025-06-27T01:16:06	22.5	71
124976	2025-06-27T01:26:06	22.4	72
124977	2025-06-27T01:36:06	22.3	72.5
124978	2025-06-27T01:46:06	22.2	73
124979	2025-06-27T01:56:06	21.7	74
124980	2025-06-27T02:06:06	21.6	74.5
124981	2025-06-27T02:16:06	21.5	75.5
124982	2025-06-27T02:26:06	21.3	76
124983	2025-06-27T02:36:06	21.1	76.5
124984	2025-06-27T02:46:06	20.9	77
124985	2025-06-27T02:56:06	20.8	77
124986	2025-06-27T03:06:06	20.9	77.5
124987	2025-06-27T03:16:06	20.7	77.5
124988	2025-06-27T03:26:06	20.8	77.5
124989	2025-06-27T03:36:06	20.9	78
124990	2025-06-27T03:46:06	20.8	78
124991	2025-06-27T03:56:06	20.7	79
124992	2025-06-27T04:06:06	20.9	78.5
124993	2025-06-27T04:16:06	21	77.5
124994	2025-06-27T04:26:06	21.2	77
124995	2025-06-27T04:36:06	21.3	77
124996	2025-06-27T04:46:06	21.3	77
124997	2025-06-27T04:56:06	21.3	76.5
124998	2025-06-27T05:06:06	21.5	76.5
124999	2025-06-27T05:16:06	21.7	75.5
125000	2025-06-27T05:26:06	22.2	74.5
125001	2025-06-27T05:36:06	22.6	72.5
125002	2025-06-27T05:46:06	22.6	72
125003	2025-06-27T05:56:06	22.6	72.5
125004	2025-06-27T06:06:06	22.7	72.5
125005	2025-06-27T06:16:06	23	72
125006	2025-06-27T06:26:06	23.1	71.5
125007	2025-06-27T06:36:06	23.4	71
125008	2025-06-27T06:46:06	23.5	70
125009	2025-06-27T06:56:06	23.8	68.5
125010	2025-06-27T07:06:06	24	67.5
125011	2025-06-27T07:16:05	24.2	66.5
125012	2025-06-27T07:26:05	24.4	66.5
125013	2025-06-27T07:36:05	24.5	66.5
125014	2025-06-27T07:46:05	24.9	65.5
125015	2025-06-27T07:56:05	25.4	63.5
125016	2025-06-27T08:06:05	25.5	63
125017	2025-06-27T08:16:05	25.9	62.5
125018	2025-06-27T08:26:05	25.6	63.5
125019	2025-06-27T08:36:05	25.7	64.5
125020	2025-06-27T08:46:05	26.2	61.5
125021	2025-06-27T08:56:05	26	61.5
125022	2025-06-27T09:06:05	25.5	63
125023	2025-06-27T09:16:05	25.9	62
125024	2025-06-27T09:26:05	25.2	64.5
125025	2025-06-27T09:36:05	25.1	65
125026	2025-06-27T09:46:05	24.2	75.5
125027	2025-06-27T09:56:05	24.7	68.5
125028	2025-06-27T10:06:05	26.3	63.5
125029	2025-06-27T10:16:05	26.8	61.5
125030	2025-06-27T10:26:05	26.3	62
125031	2025-06-27T10:36:05	27.2	60.5
125032	2025-06-27T10:46:05	27.1	61
125033	2025-06-27T10:56:05	27	61
125034	2025-06-27T11:06:05	27.3	59
125035	2025-06-27T11:16:05	26.5	61.5
125036	2025-06-27T11:26:05	26.2	62.5
125037	2025-06-27T11:36:05	25.6	63.5
125038	2025-06-27T11:46:05	25.5	64.5
125039	2025-06-27T11:56:05	25.3	64.5
125040	2025-06-27T12:06:05	25.6	64.5
125041	2025-06-27T12:16:05	26.1	63.5
125042	2025-06-27T12:26:05	26.3	64
125043	2025-06-27T12:36:05	26.8	61.5
125044	2025-06-27T12:46:05	28.9	55.5
125045	2025-06-27T12:56:05	27.2	60
125046	2025-06-27T13:06:05	26.3	62
125047	2025-06-27T13:16:05	27.5	60
125048	2025-06-27T13:26:05	29.9	53.5
125049	2025-06-27T13:36:05	29.4	53.5
125050	2025-06-27T13:46:05	27.7	58
125051	2025-06-27T13:56:05	27	61.5
125052	2025-06-27T14:06:05	28.2	58.5
125053	2025-06-27T14:16:05	27.4	59
125054	2025-06-27T14:26:05	26.2	79.5
125055	2025-06-27T14:36:05	24.8	72.5
125056	2025-06-27T14:46:05	24.6	80
125057	2025-06-27T14:56:05	26.1	77
125058	2025-06-27T15:06:05	28.1	68
125059	2025-06-27T15:16:05	31.9	55.5
125060	2025-06-27T15:26:05	28.5	62
125061	2025-06-27T15:36:05	27.6	64
125062	2025-06-27T15:46:05	27.3	66.5
125063	2025-06-27T15:56:05	29.5	58.5
125064	2025-06-27T16:06:05	28.2	61
125065	2025-06-27T16:16:05	27.3	62.5
125066	2025-06-27T16:26:05	27.1	64
125067	2025-06-27T16:36:05	27.4	64.5
125068	2025-06-27T16:46:05	29.1	59
125069	2025-06-27T16:56:05	29	59
125070	2025-06-27T17:06:04	31.7	52
125071	2025-06-27T17:16:04	30.3	52
125072	2025-06-27T17:26:04	30.6	52.5
125073	2025-06-27T17:36:04	31.9	50
125074	2025-06-27T17:46:04	30.5	52
125075	2025-06-27T17:56:04	31.2	51
125076	2025-06-27T18:06:04	30.7	52
125077	2025-06-27T18:16:04	30.6	52.5
125078	2025-06-27T18:26:04	29.6	53.5
125079	2025-06-27T18:36:04	29.8	53.5
125080	2025-06-27T18:46:04	30	53.5
125081	2025-06-27T18:56:04	29.2	55
125082	2025-06-27T19:06:04	28	57
125083	2025-06-27T19:16:04	27.2	59
125084	2025-06-27T19:26:04	26.7	61
125085	2025-06-27T19:36:04	26.7	61.5
125086	2025-06-27T19:46:04	26.6	62
125087	2025-06-27T19:56:04	26.4	63.5
125088	2025-06-27T20:06:04	26.1	65
125089	2025-06-27T20:16:04	25.5	67
125090	2025-06-27T20:26:04	25.3	68
125091	2025-06-27T20:36:04	24.8	68.5
125092	2025-06-27T20:46:04	24.5	69.5
125093	2025-06-27T20:56:04	24.2	70.5
125094	2025-06-27T21:06:04	23.7	72
125095	2025-06-27T21:16:04	23.4	73
125096	2025-06-27T21:26:04	23.4	72.5
125097	2025-06-27T21:36:04	23.2	73
125098	2025-06-27T21:46:04	23.2	73.5
125099	2025-06-27T21:56:04	23	74
125100	2025-06-27T22:06:04	22.8	75
125101	2025-06-27T22:16:04	22.7	76
125102	2025-06-27T22:26:04	22.4	76.5
125103	2025-06-27T22:36:04	22.2	76.5
125104	2025-06-27T22:46:04	22.1	77.5
125105	2025-06-27T22:56:04	21.9	78
125106	2025-06-27T23:06:04	21.8	78.5
125107	2025-06-27T23:16:04	21.7	78.5
125108	2025-06-27T23:26:04	21.5	79
125109	2025-06-27T23:36:04	21.3	79.5
125110	2025-06-27T23:46:04	21.3	80
125111	2025-06-27T23:56:04	21	80
125112	2025-06-28T00:06:04	21	80.5
125113	2025-06-28T00:16:04	20.8	81.5
125114	2025-06-28T00:26:04	20.7	81
125115	2025-06-28T00:36:04	20.6	81.5
125116	2025-06-28T00:46:04	20.4	82
125117	2025-06-28T00:56:04	20.2	82.5
125118	2025-06-28T01:06:04	20.1	83.5
125119	2025-06-28T01:16:04	20	83
125120	2025-06-28T01:26:04	19.8	84
125121	2025-06-28T01:36:04	19.6	84.5
125122	2025-06-28T01:46:04	19.5	84.5
125123	2025-06-28T01:56:04	19.5	85
125124	2025-06-28T02:06:04	19.3	85.5
125125	2025-06-28T02:16:04	19.1	85.5
125126	2025-06-28T02:26:04	19.2	85
125127	2025-06-28T02:36:04	19.1	85.5
125128	2025-06-28T02:46:04	18.9	86
125129	2025-06-28T02:56:04	19	86.5
125130	2025-06-28T03:06:03	18.8	87
125131	2025-06-28T03:16:03	18.7	87
125132	2025-06-28T03:26:03	18.7	87
125133	2025-06-28T03:36:03	18.6	87.5
125134	2025-06-28T03:46:03	18.7	87.5
125135	2025-06-28T03:56:03	19	87
125136	2025-06-28T04:06:03	19.1	87
125137	2025-06-28T04:16:03	19	87
125138	2025-06-28T04:26:03	19.1	87
125139	2025-06-28T04:36:03	19.2	87
125140	2025-06-28T04:46:03	19.3	88
125141	2025-06-28T04:56:03	19.5	88.5
125142	2025-06-28T05:06:03	19.7	88
125143	2025-06-28T05:16:03	19.8	88
125144	2025-06-28T05:26:03	20	88
125145	2025-06-28T05:36:03	20.2	88.5
125146	2025-06-28T05:46:03	20.5	87
125147	2025-06-28T05:56:03	20.8	87
125148	2025-06-28T06:06:03	21.1	86
125149	2025-06-28T06:16:03	21.5	84.5
125150	2025-06-28T06:26:03	21.8	82.5
125151	2025-06-28T06:36:03	21.9	82.5
125152	2025-06-28T06:46:03	22.5	80
125153	2025-06-28T06:56:03	22.7	78.5
125154	2025-06-28T07:06:03	23	77.5
125155	2025-06-28T07:16:03	23.4	76.5
125156	2025-06-28T07:26:03	23.6	75
125157	2025-06-28T07:36:03	23.7	75.5
125158	2025-06-28T07:46:03	23.9	72.5
125159	2025-06-28T07:56:03	24.5	72
125160	2025-06-28T08:06:03	24.6	71
125161	2025-06-28T08:16:03	24.9	70
125162	2025-06-28T08:26:03	25.5	69.5
125163	2025-06-28T08:36:03	25.7	66
125164	2025-06-28T08:46:03	25.9	66
125165	2025-06-28T08:56:03	25.8	64.5
125166	2025-06-28T09:06:03	26.8	63
125167	2025-06-28T09:16:03	26.6	62.5
125168	2025-06-28T09:26:03	26.2	62.5
125169	2025-06-28T09:36:03	27	61
125170	2025-06-28T09:46:03	27.5	59.5
125171	2025-06-28T09:56:03	27.4	59
125172	2025-06-28T10:06:03	27.9	57
125173	2025-06-28T10:16:03	27.6	59
125174	2025-06-28T10:26:03	28.2	57.5
125175	2025-06-28T10:36:03	28	56
125176	2025-06-28T10:46:03	28.2	56
125177	2025-06-28T10:56:03	28.4	55
125178	2025-06-28T11:06:03	28.5	54.5
125179	2025-06-28T11:16:03	28.8	53
125180	2025-06-28T11:26:03	29.1	52.5
125181	2025-06-28T11:36:03	29.4	52
125182	2025-06-28T11:46:03	29.4	52.5
125183	2025-06-28T11:56:03	29.9	51.5
125184	2025-06-28T12:06:03	32.1	45
125185	2025-06-28T12:16:03	37.1	38.5
125186	2025-06-28T12:26:03	37.9	37
125187	2025-06-28T12:36:03	38.3	35.5
125188	2025-06-28T12:46:03	40.2	34
125189	2025-06-28T12:56:03	39.2	34.5
125190	2025-06-28T13:06:03	40.2	31.5
125191	2025-06-28T13:16:03	42.2	29.5
125192	2025-06-28T13:26:02	41	31.5
125193	2025-06-28T13:36:02	41.9	29.5
125194	2025-06-28T13:46:02	40.3	31.5
125195	2025-06-28T13:56:02	41.4	31
125196	2025-06-28T14:06:02	41	32
125197	2025-06-28T14:16:02	41.4	30
125198	2025-06-28T14:26:02	42.4	29
125199	2025-06-28T14:36:02	41.1	31
125200	2025-06-28T14:46:02	41.8	30
125201	2025-06-28T14:56:02	42	29.5
125202	2025-06-28T15:06:02	40.7	31
125203	2025-06-28T15:16:02	43.3	29
125204	2025-06-28T15:26:02	43.4	28.5
125205	2025-06-28T15:36:02	42.4	29
125206	2025-06-28T15:46:02	42.6	29
125207	2025-06-28T15:56:02	41.3	31
125208	2025-06-28T16:06:02	42.4	29.5
125209	2025-06-28T16:16:02	42.9	29.5
125210	2025-06-28T16:26:02	41.7	29.5
125211	2025-06-28T16:36:02	42.1	29
125212	2025-06-28T16:46:02	42	29.5
125213	2025-06-28T16:56:02	41.1	30.5
125214	2025-06-28T17:06:02	39.9	31.5
125215	2025-06-28T17:16:02	40.2	31.5
125216	2025-06-28T17:26:02	40.7	31.5
125217	2025-06-28T17:36:02	39.9	32
125218	2025-06-28T17:46:02	39.7	32.5
125219	2025-06-28T17:56:02	39.6	33
125220	2025-06-28T18:06:02	39.8	33
125221	2025-06-28T18:16:02	39.4	33.5
125222	2025-06-28T18:26:02	38.8	34.5
125223	2025-06-28T18:36:02	38.1	35.5
125224	2025-06-28T18:56:02	36.6	39
125225	2025-06-28T19:06:02	36.3	39
125226	2025-06-28T19:16:02	34.8	44
125227	2025-06-28T19:26:02	33.5	47
125228	2025-06-28T19:36:02	33	48.5
125229	2025-06-28T19:46:02	32.1	50
125230	2025-06-28T19:56:02	31.6	51.5
125231	2025-06-28T20:06:02	30.7	53
125232	2025-06-28T20:16:02	30.1	54
125233	2025-06-28T20:26:02	29.7	55
125234	2025-06-28T20:36:02	29.3	57
125235	2025-06-28T20:46:02	29	58.5
125236	2025-06-28T20:56:02	28.6	58.5
125237	2025-06-28T21:06:02	28.4	59
125238	2025-06-28T21:16:02	27.9	60
125239	2025-06-28T21:26:02	27.4	61
125240	2025-06-28T21:36:02	27.3	61.5
125241	2025-06-28T21:46:02	26.9	62
125242	2025-06-28T21:56:02	26.4	63.5
125243	2025-06-28T22:06:02	26.3	63.5
125244	2025-06-28T22:16:02	26.1	64.5
125245	2025-06-28T22:26:02	25.9	66
125246	2025-06-28T22:36:02	25.7	67
125247	2025-06-28T22:46:02	25.5	67.5
125248	2025-06-28T22:56:02	25.3	68
125249	2025-06-28T23:06:02	25	69
125250	2025-06-28T23:16:02	24.7	69
125251	2025-06-28T23:26:02	24.6	70
125252	2025-06-28T23:36:02	24.4	70
125253	2025-06-28T23:46:02	24.2	71
125254	2025-06-28T23:56:02	23.9	71.5
125255	2025-06-29T00:06:02	23.8	72
125256	2025-06-29T00:16:02	23.6	72
125257	2025-06-29T00:26:02	23.5	73.5
125258	2025-06-29T00:36:01	23.2	74
125259	2025-06-29T00:46:01	23	74.5
125260	2025-06-29T00:56:02	23	75
125261	2025-06-29T01:16:01	22.5	76
125262	2025-06-29T01:26:01	22.3	76.5
125263	2025-06-29T01:36:01	22.3	76.5
125264	2025-06-29T01:46:01	21.9	77.5
125265	2025-06-29T01:56:01	21.8	77.5
125266	2025-06-29T02:06:01	21.6	78.5
125267	2025-06-29T02:16:01	21.5	78.5
125268	2025-06-29T02:26:01	21.2	79.5
125269	2025-06-29T02:36:01	21.2	79
125270	2025-06-29T02:46:01	21.2	80
125271	2025-06-29T02:56:01	21	80
125272	2025-06-29T03:06:01	20.9	80
125273	2025-06-29T03:16:01	20.8	80
125274	2025-06-29T03:26:01	20.6	80.5
125275	2025-06-29T03:36:01	20.6	80.5
125276	2025-06-29T03:46:01	20.4	81
125277	2025-06-29T03:56:01	20.3	81.5
125278	2025-06-29T04:06:01	20.3	81.5
125279	2025-06-29T04:16:01	20.4	81
125280	2025-06-29T04:26:01	20.4	81.5
125281	2025-06-29T04:36:01	20.5	82
125282	2025-06-29T04:46:01	20.5	82
125283	2025-06-29T04:56:01	20.7	81.5
125284	2025-06-29T05:06:01	20.8	82.5
125285	2025-06-29T05:16:01	20.9	82
125286	2025-06-29T05:26:01	21.1	82
125287	2025-06-29T05:36:01	21.4	82.5
125288	2025-06-29T05:46:01	21.5	81.5
125289	2025-06-29T05:56:01	21.8	79
125290	2025-06-29T06:06:01	22.1	79
125291	2025-06-29T06:16:01	22.4	77.5
125292	2025-06-29T06:26:01	22.6	77
125293	2025-06-29T06:36:01	22.8	76.5
125294	2025-06-29T06:46:01	22.9	75.5
125295	2025-06-29T06:56:01	23.1	74.5
125296	2025-06-29T07:06:01	23.4	73
125297	2025-06-29T07:16:01	23.5	71.5
125298	2025-06-29T07:26:01	23.9	72
125299	2025-06-29T07:36:01	23.9	71
125300	2025-06-29T07:46:01	24.2	71
125301	2025-06-29T07:56:01	24.5	71
125302	2025-06-29T08:06:01	24.8	68.5
125303	2025-06-29T08:16:01	25	69
125304	2025-06-29T08:26:01	25.4	66.5
125305	2025-06-29T08:36:01	25.7	65
125306	2025-06-29T08:46:01	25.7	66
125307	2025-06-29T08:56:01	26	62.5
125308	2025-06-29T09:06:01	26.3	63
125309	2025-06-29T09:16:01	26.4	62
125310	2025-06-29T09:26:01	26.6	61
125311	2025-06-29T09:36:01	26.9	62
125312	2025-06-29T09:46:01	27.4	59.5
125313	2025-06-29T09:56:01	27.5	60
125314	2025-06-29T10:06:01	27.7	59
125315	2025-06-29T10:16:01	28.1	58.5
125316	2025-06-29T10:26:01	28.4	57.5
125317	2025-06-29T10:36:01	28.6	55.5
125318	2025-06-29T10:46:00	28.8	55
125319	2025-06-29T10:56:00	29	54
125320	2025-06-29T11:06:00	29.1	52.5
125321	2025-06-29T11:16:00	29.5	52
125322	2025-06-29T11:26:00	29.7	49.5
125323	2025-06-29T11:46:00	30.4	48
125324	2025-06-29T11:56:00	30.7	47
125325	2025-06-29T12:06:00	33.3	41
125326	2025-06-29T12:16:00	38.7	34
125327	2025-06-29T12:26:00	42	28.5
125328	2025-06-29T12:36:00	42.8	26
125329	2025-06-29T12:46:00	43.5	27
125330	2025-06-29T12:56:00	45.8	26.5
125331	2025-06-29T13:06:00	46.4	25.5
125332	2025-06-29T13:16:00	46.4	25
125333	2025-06-29T13:26:00	47.5	25
125334	2025-06-29T13:36:00	47.1	24.5
125335	2025-06-29T13:46:00	47.7	24.5
125336	2025-06-29T13:56:00	48.1	24
125337	2025-06-29T14:06:00	47.2	24.5
125338	2025-06-29T14:16:00	47.9	24
125339	2025-06-29T14:26:00	48	23.5
125340	2025-06-29T14:36:00	48.7	22.5
125341	2025-06-29T14:46:00	48.4	23.5
125342	2025-06-29T14:56:00	47.5	24.5
125343	2025-06-29T15:06:00	47.4	23.5
125344	2025-06-29T15:16:00	47.5	24
125345	2025-06-29T15:26:00	48.5	22.5
125346	2025-06-29T15:36:00	47	23
125347	2025-06-29T15:46:00	46.7	23
125348	2025-06-29T15:56:00	47.1	24
125349	2025-06-29T16:06:00	46.6	23.5
125350	2025-06-29T16:16:00	46.2	23.5
125351	2025-06-29T16:26:00	46.8	23
125352	2025-06-29T16:36:00	45.2	23.5
125353	2025-06-29T16:46:00	46	23
125354	2025-06-29T16:56:00	45.4	23.5
125355	2025-06-29T17:06:00	45.5	23.5
125356	2025-06-29T17:16:00	45	24.5
125357	2025-06-29T17:26:00	45.1	25
125358	2025-06-29T17:36:00	44.8	25.5
125359	2025-06-29T17:46:00	44	26
125360	2025-06-29T17:56:00	43.8	25.5
125361	2025-06-29T18:06:00	43	26
125362	2025-06-29T18:16:00	42.4	26.5
125363	2025-06-29T18:26:00	42	26.5
125364	2025-06-29T18:36:00	41.3	27.5
125365	2025-06-29T18:46:00	39.8	28.5
125366	2025-06-29T18:56:00	39	30
125367	2025-06-29T19:55:41	36.7	35
125368	2025-06-29T19:55:41	35.6	36.5
125369	2025-06-29T19:55:41	34.4	39
125370	2025-06-29T19:55:41	37.9	32.5
125371	2025-06-29T19:55:42	35	37.5
125372	2025-06-29T19:56:00	33.8	40
125373	2025-06-29T20:06:00	33.2	41
125374	2025-06-29T20:16:00	32.6	43
125375	2025-06-29T20:26:00	32	44
125376	2025-06-29T20:36:00	31.7	45.5
125377	2025-06-29T20:46:00	31.4	46.5
125378	2025-06-29T20:56:00	30.6	48
125379	2025-06-29T21:06:00	30.2	48.5
125380	2025-06-29T21:16:00	29.8	50.5
125381	2025-06-29T21:26:00	29.5	51
125382	2025-06-29T21:36:00	29.2	52.5
125383	2025-06-29T21:46:00	28.8	53.5
125384	2025-06-29T21:56:00	28.6	53.5
125385	2025-06-29T22:06:00	28	54.5
125386	2025-06-29T22:16:00	27.8	55.5
125387	2025-06-29T22:26:00	27.4	56.5
125388	2025-06-29T22:36:00	27.3	57
125389	2025-06-29T22:46:00	26.9	58
125390	2025-06-29T22:56:00	26.7	59
125391	2025-06-29T23:16:00	26.1	60.5
125392	2025-06-29T23:25:59	25.7	61.5
125393	2025-06-29T23:36:00	25.5	62
125394	2025-06-29T23:45:59	25.1	63
125395	2025-06-29T23:55:59	24.9	63.5
125396	2025-06-30T00:05:59	24.8	64.5
125397	2025-06-30T00:15:59	24.5	64.5
125398	2025-06-30T00:25:59	24.2	65.5
125399	2025-06-30T00:35:59	24.1	65.5
125400	2025-06-30T00:45:59	24	66.5
125401	2025-06-30T00:55:59	23.6	67
125402	2025-06-30T01:15:59	23.3	68.5
125403	2025-06-30T01:25:59	23	68.5
125404	2025-06-30T01:35:59	23	69
125405	2025-06-30T01:45:59	22.8	69.5
125406	2025-06-30T01:55:59	22.5	70
125407	2025-06-30T02:05:59	22.4	70.5
125408	2025-06-30T02:15:59	22.1	71.5
125409	2025-06-30T02:25:59	22.1	72
125410	2025-06-30T02:35:59	22	72
125411	2025-06-30T02:45:59	21.9	72
125412	2025-06-30T02:55:59	21.9	72.5
125413	2025-06-30T03:05:59	21.8	72.5
125414	2025-06-30T03:15:59	21.8	73
125415	2025-06-30T03:25:59	21.6	73
125416	2025-06-30T03:35:59	21.6	74
125417	2025-06-30T03:45:59	21.7	74.5
125418	2025-06-30T03:55:59	21.7	74
125419	2025-06-30T04:05:59	21.8	74
125420	2025-06-30T04:15:59	21.8	74
125421	2025-06-30T04:25:59	21.9	74
125422	2025-06-30T04:35:59	21.9	74.5
125423	2025-06-30T04:45:59	22.1	74
125424	2025-06-30T04:55:59	22.3	74
125425	2025-06-30T05:05:59	22.4	74
125426	2025-06-30T05:15:59	22.4	74.5
125427	2025-06-30T05:25:59	22.4	74
125428	2025-06-30T05:35:59	22.5	73.5
125429	2025-06-30T05:45:59	22.7	72
125430	2025-06-30T05:55:59	23	71.5
125431	2025-06-30T06:05:59	23.3	70.5
125432	2025-06-30T06:15:59	23.6	69.5
125433	2025-06-30T06:25:59	23.8	69.5
125434	2025-06-30T06:35:59	24	68.5
125435	2025-06-30T06:45:59	24.3	68.5
125436	2025-06-30T06:55:59	24.4	68
125437	2025-06-30T07:05:59	24.7	68
125438	2025-06-30T07:15:59	25.1	68.5
125439	2025-06-30T07:25:59	25.3	66.5
125440	2025-06-30T07:35:59	25.6	65.5
125441	2025-06-30T07:45:59	25.9	64
125442	2025-06-30T07:55:59	26	63
125443	2025-06-30T08:05:59	26.4	63
125444	2025-06-30T08:15:59	26.7	62
125445	2025-06-30T08:25:59	26.9	62
125446	2025-06-30T08:35:59	27.2	61.5
125447	2025-06-30T08:45:59	27.3	59.5
125448	2025-06-30T08:55:59	27.5	59.5
125449	2025-06-30T09:05:59	27.8	58
125450	2025-06-30T09:15:59	28	58
125451	2025-06-30T09:25:59	28.4	57
125452	2025-06-30T09:35:58	28.7	56.5
125453	2025-06-30T09:45:58	29	56
125454	2025-06-30T09:55:58	29.1	55.5
125455	2025-06-30T10:05:58	29.4	54.5
125456	2025-06-30T10:15:58	29.8	53
125457	2025-06-30T10:25:58	29.9	52
125458	2025-06-30T10:35:58	30.2	51.5
125459	2025-06-30T10:45:58	30.6	51.5
125460	2025-06-30T10:55:58	31	50.5
125461	2025-06-30T11:05:58	31.3	49.5
125462	2025-06-30T11:15:58	31.7	48
125463	2025-06-30T11:25:58	32	48.5
125464	2025-06-30T11:35:58	32.2	46.5
125465	2025-06-30T11:45:58	32.5	46
125466	2025-06-30T11:55:58	32.8	46.5
125467	2025-06-30T12:05:58	35.1	41.5
125468	2025-06-30T12:15:58	41	34.5
125469	2025-06-30T12:25:58	42.7	30.5
125470	2025-06-30T12:35:58	43.4	29.5
125471	2025-06-30T12:45:58	45	28.5
125472	2025-06-30T12:55:58	45.8	27.5
125473	2025-06-30T13:05:58	46.8	26
125474	2025-06-30T13:15:58	47.7	25.5
125475	2025-06-30T13:25:58	48	25
125476	2025-06-30T13:35:58	48.9	25
125477	2025-06-30T13:45:58	48.8	24
125478	2025-06-30T13:55:58	48.5	24.5
125479	2025-06-30T14:05:58	49.1	24
125480	2025-06-30T14:15:58	49.6	23
125481	2025-06-30T14:25:58	48.9	23.5
125482	2025-06-30T14:35:58	48.6	23
125483	2025-06-30T14:45:58	48.8	23.5
125484	2025-06-30T14:55:58	48.8	24
125485	2025-06-30T15:05:58	48.8	23
125486	2025-06-30T15:15:58	48.1	23.5
125487	2025-06-30T15:25:58	48.4	23
125488	2025-06-30T15:35:58	49	23
125489	2025-06-30T15:45:58	47.8	23.5
125490	2025-06-30T15:55:58	47.6	24
125491	2025-06-30T16:05:58	47.6	24
125492	2025-06-30T16:15:58	46.6	24.5
125493	2025-06-30T16:25:58	46.1	25
125494	2025-06-30T16:36:16	46.1	25
125495	2025-06-30T16:45:58	45.6	25.5
125496	2025-06-30T16:55:58	45.2	25.5
125497	2025-06-30T17:05:58	45.1	26
125498	2025-06-30T17:15:58	44.8	26
125499	2025-06-30T17:25:58	44	26.5
125500	2025-06-30T17:35:58	43.4	27
125501	2025-06-30T17:45:58	43.4	27
125502	2025-06-30T17:55:58	43.1	28
125503	2025-06-30T18:05:58	42.4	28.5
125504	2025-06-30T18:15:58	41.9	28.5
125505	2025-06-30T18:25:58	41.4	30
125506	2025-06-30T18:35:58	40.8	31
125507	2025-06-30T18:45:58	40	31.5
125508	2025-06-30T18:55:58	39.4	33.5
125509	2025-06-30T19:05:58	38.3	34.5
125510	2025-06-30T19:15:58	37.3	36
125511	2025-06-30T19:25:58	36.4	37.5
125512	2025-06-30T19:35:58	35.7	37.5
125513	2025-06-30T19:45:58	35.1	39.5
125514	2025-06-30T19:55:58	34.4	41
125515	2025-06-30T20:05:58	33.7	43
125516	2025-06-30T20:15:58	33.2	44.5
125517	2025-06-30T20:25:58	32.7	45
125518	2025-06-30T20:35:58	32	47
125519	2025-06-30T20:45:58	31.5	49
125520	2025-06-30T20:55:58	31.2	49
125521	2025-06-30T21:05:58	30.8	48
125522	2025-06-30T21:15:58	30.4	49.5
125523	2025-06-30T21:25:58	30	51
125524	2025-06-30T21:35:58	29.6	52
125525	2025-06-30T21:45:58	29.4	52.5
125526	2025-06-30T21:55:58	29.2	52.5
125527	2025-06-30T22:05:58	28.9	54
125528	2025-06-30T22:15:58	28.5	54
125529	2025-06-30T22:25:57	28.2	54.5
125530	2025-06-30T22:35:57	28.1	56
125531	2025-06-30T22:45:57	27.8	56
125532	2025-06-30T22:55:57	27.5	55
125533	2025-06-30T23:05:57	27.5	54
125534	2025-06-30T23:15:57	27.5	54.5
125535	2025-06-30T23:25:57	27.3	55
125536	2025-06-30T23:35:57	27	57
125537	2025-06-30T23:45:57	26.8	59
125538	2025-06-30T23:55:57	26.6	60
125539	2025-07-01T00:05:57	26.5	60.5
125540	2025-07-01T00:15:57	26.1	61
125541	2025-07-01T00:25:57	26	61
125542	2025-07-01T00:35:57	25.8	60.5
125543	2025-07-01T00:45:57	25.7	60
125544	2025-07-01T00:55:57	25.7	61.5
125545	2025-07-01T01:05:57	25.6	62
125546	2025-07-01T01:15:57	25.4	61
125547	2025-07-01T01:25:57	25	63
125548	2025-07-01T01:35:57	24.5	64
125549	2025-07-01T01:45:57	24.5	64.5
125550	2025-07-01T01:55:57	24.4	65
125551	2025-07-01T02:05:57	24.3	63.5
125552	2025-07-01T02:15:57	24.3	63.5
125553	2025-07-01T02:25:57	24.2	63.5
125554	2025-07-01T02:35:57	24.1	64.5
125555	2025-07-01T02:45:57	24	65.5
125556	2025-07-01T02:55:57	23.9	65
125557	2025-07-01T03:05:57	23.5	66
125558	2025-07-01T03:15:57	23.4	67
125559	2025-07-01T03:25:57	23.2	67.5
125560	2025-07-01T03:35:57	23.1	68
125561	2025-07-01T03:45:57	23	68.5
125562	2025-07-01T03:55:57	22.8	69
125563	2025-07-01T04:05:57	22.9	69.5
125564	2025-07-01T04:15:57	23	69
125565	2025-07-01T04:25:57	22.9	69
125566	2025-07-01T04:35:57	23.1	69
125567	2025-07-01T04:45:57	23	68
125568	2025-07-01T04:55:57	23.2	69
125569	2025-07-01T05:05:57	23.3	67
125570	2025-07-01T05:15:57	23.5	64.5
125571	2025-07-01T05:25:57	23.5	60
125572	2025-07-01T05:35:57	23.6	59
125573	2025-07-01T05:45:57	23.9	59.5
125574	2025-07-01T05:55:57	24	59
125575	2025-07-01T06:05:57	24.2	59
125576	2025-07-01T06:15:57	24.3	57.5
125577	2025-07-01T06:25:57	24.5	58.5
125578	2025-07-01T06:35:57	24.6	59
125579	2025-07-01T06:45:57	24.7	60
125580	2025-07-01T06:55:57	25	58.5
125581	2025-07-01T07:05:57	25.1	57.5
125582	2025-07-01T07:15:57	25.3	56.5
125583	2025-07-01T07:25:57	25.6	56.5
125584	2025-07-01T07:35:57	25.8	56.5
125585	2025-07-01T07:45:57	26.1	56.5
125586	2025-07-01T07:55:57	26.2	57
125587	2025-07-01T08:05:57	26.5	57
125588	2025-07-01T08:15:56	26.9	56.5
125589	2025-07-01T08:25:57	26.9	57
125590	2025-07-01T08:35:56	27.2	55.5
125591	2025-07-01T08:45:56	27.6	55
125592	2025-07-01T08:55:56	28.1	53.5
125593	2025-07-01T09:05:56	28.3	52.5
125594	2025-07-01T09:15:56	28.7	53
125595	2025-07-01T09:25:56	28.9	50.5
125596	2025-07-01T09:35:56	29.2	50.5
125597	2025-07-01T09:45:56	29.5	50.5
125598	2025-07-01T09:55:56	29.8	50.5
125599	2025-07-01T10:05:56	30	49.5
125600	2025-07-01T10:15:56	30.3	48.5
125601	2025-07-01T10:25:56	30.6	48
125602	2025-07-01T10:35:56	30.9	48
125603	2025-07-01T10:45:56	31.1	47
125604	2025-07-01T10:55:56	31.6	47
125605	2025-07-01T11:05:56	31.8	45.5
125606	2025-07-01T11:15:56	32.2	45
125607	2025-07-01T11:25:56	32.7	43.5
125608	2025-07-01T11:35:56	33.2	42.5
125609	2025-07-01T11:45:56	33.9	41.5
125610	2025-07-01T11:55:56	34.3	40
125611	2025-07-01T12:05:56	36.2	38.5
125612	2025-07-01T12:15:56	41.9	31
125613	2025-07-01T12:25:56	43.9	28.5
125614	2025-07-01T12:35:56	44.6	28.5
125615	2025-07-01T12:45:56	45.9	26.5
125616	2025-07-01T12:55:56	47.6	24.5
125617	2025-07-01T13:05:56	45.8	26
125618	2025-07-01T13:15:56	45.3	27.5
125619	2025-07-01T13:25:56	45	28
125620	2025-07-01T13:35:56	43.7	31
125621	2025-07-01T13:45:56	44	30
125622	2025-07-01T13:55:56	43.5	30
125623	2025-07-01T14:05:56	44.2	28.5
125624	2025-07-01T14:15:56	44.5	27
125625	2025-07-01T14:25:56	46.8	25.5
125626	2025-07-01T14:35:56	47.5	25.5
125627	2025-07-01T14:45:56	46.1	25.5
125628	2025-07-01T14:55:56	45.9	25.5
125629	2025-07-01T15:05:56	49	24.5
125630	2025-07-01T15:15:56	50.7	22.5
125631	2025-07-01T15:25:56	51.2	22
125632	2025-07-01T15:35:56	51	21.5
125633	2025-07-01T15:45:56	50.9	22.5
125634	2025-07-01T15:55:56	51.4	21.5
125635	2025-07-01T16:05:56	50.5	22
125636	2025-07-01T16:15:56	50.4	22.5
125637	2025-07-01T16:25:56	50.7	22.5
125638	2025-07-01T16:35:56	50.8	22.5
125639	2025-07-01T16:45:56	50.5	22
125640	2025-07-01T16:55:56	49.9	22.5
125641	2025-07-01T17:05:56	49.7	23
125642	2025-07-01T17:15:56	49.3	23
125643	2025-07-01T17:25:56	48.9	24
125644	2025-07-01T17:35:56	48.3	24.5
125645	2025-07-01T17:45:56	47.9	25.5
125646	2025-07-01T17:55:56	47	26
125647	2025-07-01T18:05:56	46.1	26.5
125648	2025-07-01T18:15:56	44.9	26.5
125649	2025-07-01T18:25:56	43.9	27
125650	2025-07-01T18:35:56	42.8	27.5
125651	2025-07-01T18:45:56	41.8	29
125652	2025-07-01T18:55:56	40.8	29.5
125653	2025-07-01T19:05:56	39.7	30
125654	2025-07-01T19:15:56	38.4	31
125655	2025-07-01T19:25:56	37.3	32.5
125656	2025-07-01T19:35:56	36.5	34
125657	2025-07-01T19:45:56	36	36
125658	2025-07-01T19:55:56	35.5	37
125659	2025-07-01T20:05:56	34.8	38
125660	2025-07-01T20:15:56	34.5	36
125661	2025-07-01T20:25:56	34.1	39.5
125662	2025-07-01T20:35:56	33.6	42
125663	2025-07-01T20:45:56	32.9	39.5
125664	2025-07-01T20:55:56	32.7	42.5
125665	2025-07-01T21:05:56	32.2	43.5
125666	2025-07-01T21:15:56	31.7	46
125667	2025-07-01T21:25:56	31.5	45
125668	2025-07-01T21:35:56	31.1	45.5
125669	2025-07-01T21:45:56	30.7	47
125670	2025-07-01T21:55:56	30.3	48
125671	2025-07-01T22:05:55	29.7	48
125672	2025-07-01T22:15:55	29.6	48.5
125673	2025-07-01T22:25:55	29.4	50
125674	2025-07-01T22:35:56	29.1	51
125675	2025-07-01T22:45:55	28.9	51
125676	2025-07-01T22:55:55	28.5	53
125677	2025-07-01T23:05:55	28.2	55
125678	2025-07-01T23:15:55	28.1	54.5
125679	2025-07-01T23:25:55	27.7	54
125680	2025-07-01T23:35:55	27.5	54
125681	2025-07-01T23:45:55	27.1	54.5
125682	2025-07-01T23:55:55	26.9	55.5
125683	2025-07-02T00:05:55	26.6	56.5
125684	2025-07-02T00:15:55	26.3	58
125685	2025-07-02T00:25:55	26.1	59.5
125686	2025-07-02T00:35:55	25.9	61.5
125687	2025-07-02T00:45:55	25.6	60.5
125688	2025-07-02T00:55:55	25.4	61.5
125689	2025-07-02T01:05:55	25.2	61.5
125690	2025-07-02T01:15:55	25	62
125691	2025-07-02T01:25:55	24.6	63
125692	2025-07-02T01:35:55	24.4	64.5
125693	2025-07-02T01:45:55	24.1	65
125694	2025-07-02T01:55:55	24	66
125695	2025-07-02T02:05:55	23.8	66.5
125696	2025-07-02T02:15:55	23.7	67.5
125697	2025-07-02T02:25:55	23.6	66.5
125698	2025-07-02T02:35:55	23.3	66.5
125699	2025-07-02T02:45:55	23.2	67
125700	2025-07-02T02:55:55	23.2	66
125701	2025-07-02T03:05:55	22.9	68
125702	2025-07-02T03:15:55	22.8	68.5
125703	2025-07-02T03:25:55	22.7	69
125704	2025-07-02T03:35:55	22.6	69.5
125705	2025-07-02T03:45:55	22.5	69.5
125706	2025-07-02T03:55:55	22.4	69.5
125707	2025-07-02T04:05:55	22.3	70.5
125708	2025-07-02T04:15:55	22.3	71.5
125709	2025-07-02T04:25:55	22.2	71.5
125710	2025-07-02T04:35:55	22.4	71.5
125711	2025-07-02T04:45:55	22.4	71.5
125712	2025-07-02T04:55:55	22.6	72
125713	2025-07-02T05:05:55	22.8	71.5
125714	2025-07-02T05:15:55	22.9	71
125715	2025-07-02T05:25:55	23.1	71
125716	2025-07-02T05:35:55	23.2	69.5
125717	2025-07-02T05:45:55	23.5	69
125718	2025-07-02T05:55:55	23.7	69
125719	2025-07-02T06:05:55	24	67
125720	2025-07-02T06:15:55	24.2	66
125721	2025-07-02T06:25:55	24.3	66
125722	2025-07-02T06:35:55	24.5	65.5
125723	2025-07-02T06:45:55	24.8	66.5
125724	2025-07-02T06:55:55	25	65
125725	2025-07-02T07:05:55	25.3	64
125726	2025-07-02T07:15:55	25.6	63.5
125727	2025-07-02T07:25:54	25.8	63
125728	2025-07-02T07:35:54	26.1	63.5
125729	2025-07-02T07:45:54	26.5	62
125730	2025-07-02T07:55:54	26.7	62.5
125731	2025-07-02T08:05:54	27	61.5
125732	2025-07-02T08:15:54	27.3	62
125733	2025-07-02T08:25:54	27.6	60.5
125734	2025-07-02T08:35:54	27.7	61
125735	2025-07-02T08:45:54	28.1	59.5
125736	2025-07-02T08:55:54	28.5	56.5
125737	2025-07-02T09:05:54	28.8	56
125738	2025-07-02T09:15:54	29.1	54.5
125739	2025-07-02T09:25:54	29.4	51.5
125740	2025-07-02T09:35:54	30	51
125741	2025-07-02T09:45:54	30.3	49.5
125742	2025-07-02T09:55:54	30.9	48.5
125743	2025-07-02T10:05:54	30.9	49.5
125744	2025-07-02T10:15:54	31.5	47
125745	2025-07-02T10:25:54	31.7	48.5
125746	2025-07-02T10:35:54	32.2	45.5
125747	2025-07-02T10:45:54	32.6	46
125748	2025-07-02T10:55:54	33	44.5
125749	2025-07-02T11:05:54	33.5	44.5
125750	2025-07-02T11:15:54	33.7	42.5
125751	2025-07-02T11:25:54	34.2	41.5
125752	2025-07-02T11:35:54	34.5	41
125753	2025-07-02T11:45:54	35.1	39.5
125754	2025-07-02T11:55:54	35.4	38.5
125755	2025-07-02T12:05:54	37.4	35.5
125756	2025-07-02T12:15:54	42.6	29.5
125757	2025-07-02T12:25:54	45.5	26.5
125758	2025-07-02T12:35:54	44.2	26
125759	2025-07-02T12:45:54	44.4	25.5
125760	2025-07-02T12:55:54	47	24
125761	2025-07-02T13:05:54	44.8	25
125762	2025-07-02T13:15:54	40.8	30.5
125763	2025-07-02T13:25:54	39.2	35.5
125764	2025-07-02T13:35:54	37.7	39
125765	2025-07-02T13:45:54	35.9	40.5
125766	2025-07-02T13:55:54	35.7	40.5
125767	2025-07-02T14:05:54	33.8	48.5
125768	2025-07-02T14:15:54	32.9	46.5
125769	2025-07-02T14:25:54	33.1	45.5
125770	2025-07-02T14:35:54	36.8	37
125771	2025-07-02T14:45:54	42.8	31.5
125772	2025-07-02T14:55:54	45.9	27
125773	2025-07-02T15:05:54	46.7	23.5
125774	2025-07-02T15:25:54	47.5	22.5
125775	2025-07-02T15:35:54	48.6	22.5
125776	2025-07-02T15:45:54	49.4	21
125777	2025-07-02T15:55:54	44.4	27.5
125778	2025-07-02T16:05:54	43.9	27.5
125779	2025-07-02T16:16:13	43.3	27.5
125780	2025-07-02T16:25:54	45.1	25.5
125781	2025-07-02T16:35:54	45.5	24.5
125782	2025-07-02T16:45:54	46.2	24.5
125783	2025-07-02T16:55:54	46.7	22.5
125784	2025-07-02T17:05:54	46.6	22
125785	2025-07-02T17:16:12	46.2	22.5
125786	2025-07-02T17:25:54	45.9	22.5
125787	2025-07-02T17:35:54	45.3	22.5
125788	2025-07-02T17:45:54	44.6	23
125789	2025-07-02T17:55:54	42.6	25.5
125790	2025-07-02T18:05:54	42.1	28.5
125791	2025-07-02T18:15:54	42	30.5
125792	2025-07-02T18:25:54	41.1	30.5
125793	2025-07-02T18:35:54	40.6	33.5
125794	2025-07-02T18:45:54	38.7	35.5
125795	2025-07-02T18:55:54	37.9	36.5
125796	2025-07-02T19:05:54	36.6	38.5
125797	2025-07-02T19:15:54	35.9	39
125798	2025-07-02T19:25:54	35.4	40.5
125799	2025-07-02T19:35:53	34.8	41
125800	2025-07-02T19:45:53	34.3	44
125801	2025-07-02T19:55:53	33.7	45.5
125802	2025-07-02T20:05:53	33.2	46.5
125803	2025-07-02T20:15:53	32.7	44.5
125804	2025-07-02T20:25:53	31.7	47
125805	2025-07-02T20:35:53	31.1	48.5
125806	2025-07-02T20:45:53	30.2	52
125807	2025-07-02T20:55:53	30.3	51
125808	2025-07-02T21:05:53	30.2	50.5
125809	2025-07-02T21:15:53	30.1	46.5
125810	2025-07-02T21:25:53	30	45
125811	2025-07-02T21:35:53	29.9	45.5
125812	2025-07-02T21:45:53	29.7	46
125813	2025-07-02T21:55:53	29.3	47
125814	2025-07-02T22:05:53	29.3	46.5
125815	2025-07-02T22:15:53	29.2	48
125816	2025-07-02T22:25:53	29.1	48
125817	2025-07-02T22:35:53	29	49
125818	2025-07-02T22:45:53	28.8	49
125819	2025-07-02T22:55:53	28.5	51
125820	2025-07-02T23:05:53	28.4	51
125821	2025-07-02T23:15:53	28.2	50.5
125822	2025-07-02T23:25:53	28.2	51
125823	2025-07-02T23:35:53	28.1	51
125824	2025-07-02T23:45:53	27.7	51.5
125825	2025-07-02T23:55:53	27.6	52
125826	2025-07-03T00:05:53	27.2	53.5
125827	2025-07-03T00:15:53	26.9	54.5
125828	2025-07-03T00:25:53	26.6	56.5
125829	2025-07-03T00:35:53	26.6	57.5
125830	2025-07-03T00:45:53	26.5	58.5
125831	2025-07-03T00:55:53	26.5	58.5
125832	2025-07-03T01:05:53	26.3	59.5
125833	2025-07-03T01:15:53	26.1	60
125834	2025-07-03T01:25:53	25.8	61
125835	2025-07-03T01:35:53	25.7	62
125836	2025-07-03T01:45:53	25.6	62.5
125837	2025-07-03T01:55:53	25.4	63
125838	2025-07-03T02:05:53	25.2	64
125839	2025-07-03T02:15:53	24.9	65
125840	2025-07-03T02:25:53	24.6	66
125841	2025-07-03T02:35:53	24.4	66
125842	2025-07-03T02:45:53	24	68
125843	2025-07-03T02:55:53	23.9	67.5
125844	2025-07-03T03:05:53	23.9	68
125845	2025-07-03T03:15:53	23.8	68.5
125846	2025-07-03T03:25:53	23.5	69.5
125847	2025-07-03T03:35:53	23.5	69.5
125848	2025-07-03T03:45:53	23.4	68.5
125849	2025-07-03T03:55:53	23.4	68.5
125850	2025-07-03T04:05:53	23.4	68.5
125851	2025-07-03T04:15:53	23.4	69
125852	2025-07-03T04:25:53	23.5	69.5
125853	2025-07-03T04:35:53	23.7	68.5
125854	2025-07-03T04:45:53	23.7	69
125855	2025-07-03T04:55:53	23.6	69.5
125856	2025-07-03T05:05:53	23.7	70.5
125857	2025-07-03T05:15:53	23.5	70.5
125858	2025-07-03T05:25:53	23.3	69.5
125859	2025-07-03T05:45:52	23.3	70
125860	2025-07-03T05:55:52	23.4	70
125861	2025-07-03T06:05:52	23.3	69
125862	2025-07-03T06:15:52	23.4	69.5
125863	2025-07-03T06:25:52	23.4	69.5
125864	2025-07-03T06:35:52	23.4	72.5
125865	2025-07-03T06:45:52	23.4	71
125866	2025-07-03T06:55:52	23.5	68
125867	2025-07-03T07:05:52	23.7	66.5
125868	2025-07-03T07:15:52	23.9	65.5
125869	2025-07-03T07:25:52	23.7	64.5
125870	2025-07-03T07:35:52	23.9	65
125871	2025-07-03T07:45:52	24	65
125872	2025-07-03T07:55:52	24.1	64.5
125873	2025-07-03T08:05:52	24.2	64
125874	2025-07-03T08:15:52	24.5	63.5
125875	2025-07-03T08:25:52	24	64.5
125876	2025-07-03T08:35:52	23.9	65
125877	2025-07-03T08:45:52	24	63
125878	2025-07-03T08:55:52	24	63
125879	2025-07-03T09:05:52	24.7	62
125880	2025-07-03T09:15:52	25.5	59
125881	2025-07-03T09:25:52	25.9	58
125882	2025-07-03T09:35:52	25.7	58.5
125883	2025-07-03T09:45:52	26.2	58.5
125884	2025-07-03T09:55:52	26.9	56.5
125885	2025-07-03T10:05:52	27.3	55
125886	2025-07-03T10:15:52	27.9	53.5
125887	2025-07-03T10:25:52	27.9	52
125888	2025-07-03T10:35:52	26.9	54
125889	2025-07-03T10:45:52	27.3	53.5
125890	2025-07-03T10:55:52	28.3	51
125891	2025-07-03T11:05:52	28.6	50.5
125892	2025-07-03T11:15:52	28.4	50.5
125893	2025-07-03T11:25:52	27.4	52
125894	2025-07-03T11:35:52	28.1	50
125895	2025-07-03T11:45:52	28.4	50
125896	2025-07-03T11:55:52	29	48
125897	2025-07-03T12:05:52	29.6	47
125898	2025-07-03T12:15:52	30.2	46.5
125899	2025-07-03T12:25:52	29.7	48
125900	2025-07-03T12:35:52	30	47.5
125901	2025-07-03T12:45:52	29.6	48.5
125902	2025-07-03T12:55:52	29.1	49.5
125903	2025-07-03T13:05:52	29	49.5
125904	2025-07-03T13:15:52	28.7	50.5
125905	2025-07-03T13:25:52	32	45
125906	2025-07-03T13:35:52	31.9	44
125907	2025-07-03T13:46:11	34.4	40
125908	2025-07-03T13:55:52	37.2	35.5
125909	2025-07-03T14:05:52	34.2	39.5
125910	2025-07-03T14:15:52	36.2	36
125911	2025-07-03T14:25:52	33.8	40
125912	2025-07-03T14:35:52	33	40.5
125913	2025-07-03T14:45:52	32.7	41.5
125914	2025-07-03T14:55:52	32.4	41
125915	2025-07-03T15:15:51	37.5	33.5
125916	2025-07-03T15:25:51	37.9	32.5
125917	2025-07-03T15:35:51	40.2	31
125918	2025-07-03T15:45:52	40.6	30.5
125919	2025-07-03T15:55:51	41.3	29
125920	2025-07-03T16:05:51	40.1	29
125921	2025-07-03T16:15:51	38.2	32
125922	2025-07-03T16:25:51	40.7	29.5
125923	2025-07-03T16:35:51	40.5	29
125924	2025-07-03T16:45:51	41.3	28.5
125925	2025-07-03T16:55:51	40.5	28.5
125926	2025-07-03T17:05:51	40.1	28
125927	2025-07-03T17:15:51	40.2	28
125928	2025-07-03T17:25:51	39.8	29
125929	2025-07-03T17:35:51	39.1	29.5
125930	2025-07-03T17:45:51	39.3	29
125931	2025-07-03T17:55:51	38.5	29.5
125932	2025-07-03T18:05:51	37.4	31
125933	2025-07-03T18:15:51	37.1	33
125934	2025-07-03T18:25:51	36.7	33.5
125935	2025-07-03T18:35:51	35.8	35.5
125936	2025-07-03T18:45:51	35.1	36.5
125937	2025-07-03T18:55:51	34	38.5
125938	2025-07-03T19:05:51	33	39.5
125939	2025-07-03T19:15:51	31.7	43.5
125940	2025-07-03T19:25:51	30.6	45.5
125941	2025-07-03T19:35:51	30	47
125942	2025-07-03T19:45:51	29.1	48
125943	2025-07-03T19:55:51	28.3	49
125944	2025-07-03T20:05:51	27.6	50
125945	2025-07-03T20:15:51	27	51
125946	2025-07-03T20:25:51	26.6	52.5
125947	2025-07-03T20:35:51	26	53.5
125948	2025-07-03T20:45:51	25.8	52.5
125949	2025-07-03T20:55:51	25.4	55
125950	2025-07-03T21:05:51	24.9	56.5
125951	2025-07-03T21:15:51	24.6	57.5
125952	2025-07-03T21:25:51	24.3	58
125953	2025-07-03T21:35:51	23.8	59
125954	2025-07-03T21:45:51	23.5	60
125955	2025-07-03T21:55:51	23.3	60
125956	2025-07-03T22:05:51	23	58.5
125957	2025-07-03T22:15:51	22.8	57
125958	2025-07-03T22:25:51	22.4	58
125959	2025-07-03T22:35:51	22.1	58.5
125960	2025-07-03T22:45:51	21.9	60.5
125961	2025-07-03T22:55:51	21.7	62
125962	2025-07-03T23:05:51	21.4	62
125963	2025-07-03T23:15:51	21.2	61.5
125964	2025-07-03T23:25:51	20.9	63.5
125965	2025-07-03T23:35:51	20.6	64
125966	2025-07-03T23:45:51	20.5	64.5
125967	2025-07-03T23:55:51	20	65
125968	2025-07-04T00:05:51	19.8	64.5
125969	2025-07-04T00:15:51	19.7	61
125970	2025-07-04T00:25:51	19.5	62.5
125971	2025-07-04T00:35:51	19.3	65
125972	2025-07-04T00:45:51	19.1	65
125973	2025-07-04T00:55:51	18.9	65.5
125974	2025-07-04T01:15:51	18.6	65
125975	2025-07-04T01:25:51	18.4	66
125976	2025-07-04T01:35:51	18.3	67
125977	2025-07-04T01:45:51	18.3	67
125978	2025-07-04T01:55:50	18.1	67
125979	2025-07-04T02:05:50	17.9	67
125980	2025-07-04T02:15:50	17.8	65.5
125981	2025-07-04T02:25:50	17.6	65
125982	2025-07-04T02:35:50	17.5	66
125983	2025-07-04T02:45:50	17.3	67
125984	2025-07-04T02:55:50	17.2	68
125985	2025-07-04T03:05:50	17	69.5
125986	2025-07-04T03:15:50	16.9	69
125987	2025-07-04T03:25:50	16.8	69.5
125988	2025-07-04T03:35:50	16.8	71
125989	2025-07-04T03:45:50	16.7	70.5
125990	2025-07-04T03:55:51	16.6	71
125991	2025-07-04T04:05:50	16.5	71
125992	2025-07-04T04:15:50	16.5	71.5
125993	2025-07-04T04:25:50	16.5	72
125994	2025-07-04T04:35:50	16.6	72.5
125995	2025-07-04T04:45:50	16.6	72.5
125996	2025-07-04T04:55:50	16.7	72.5
125997	2025-07-04T05:05:50	16.8	73
125998	2025-07-04T05:15:50	16.9	72.5
125999	2025-07-04T05:25:50	17.1	73
126000	2025-07-04T05:35:50	17.3	71.5
126001	2025-07-04T05:45:50	17.5	71
126002	2025-07-04T05:55:50	17.8	68
126003	2025-07-04T06:05:50	17.8	66
126004	2025-07-04T06:15:50	18.2	64.5
126005	2025-07-04T06:25:50	18.5	64.5
126006	2025-07-04T06:35:50	18.8	64
126007	2025-07-04T06:45:50	18.9	62.5
126008	2025-07-04T06:55:50	19.2	61.5
126009	2025-07-04T07:05:50	19.4	60.5
126010	2025-07-04T07:15:50	19.5	60.5
126011	2025-07-04T07:25:50	19.7	60.5
126012	2025-07-04T07:35:50	20	59.5
126013	2025-07-04T07:45:50	20.2	59
126014	2025-07-04T07:55:50	20.4	57
126015	2025-07-04T08:05:50	20.6	56.5
126016	2025-07-04T08:15:50	20.9	56.5
126017	2025-07-04T08:25:50	21.1	56
126018	2025-07-04T08:35:50	21.4	56
126019	2025-07-04T08:45:50	21.6	55
126020	2025-07-04T08:55:50	21.9	54.5
126021	2025-07-04T09:05:50	22.1	53.5
126022	2025-07-04T09:15:50	22.4	53.5
126023	2025-07-04T09:25:50	22.8	50.5
126024	2025-07-04T09:35:50	22.9	50.5
126025	2025-07-04T09:45:50	23.1	51
126026	2025-07-04T09:55:50	23.5	50
126027	2025-07-04T10:05:50	23.7	50
126028	2025-07-04T10:15:50	23.9	49.5
126029	2025-07-04T10:25:50	24.1	48.5
126030	2025-07-04T10:35:50	24.3	49
126031	2025-07-04T10:45:50	24.6	48.5
126032	2025-07-04T10:55:50	25.2	46.5
126033	2025-07-04T11:05:50	25.5	45.5
126034	2025-07-04T11:15:50	25.9	43.5
126035	2025-07-04T11:25:50	26.2	42.5
126036	2025-07-04T11:35:50	26.7	40.5
126037	2025-07-04T11:45:50	26.4	39.5
126038	2025-07-04T11:55:50	26.9	40
126039	2025-07-04T12:05:50	28.3	37.5
126040	2025-07-04T12:15:50	34.5	30
126041	2025-07-04T12:25:49	37.7	25.5
126042	2025-07-04T12:35:49	39.9	23.5
126043	2025-07-04T12:45:49	39.6	23.5
126044	2025-07-04T12:55:49	40.3	23.5
126045	2025-07-04T13:05:49	41	22
126046	2025-07-04T13:15:49	41.4	20.5
126047	2025-07-04T13:25:49	41.6	20.5
126048	2025-07-04T13:35:49	42.1	19.5
126049	2025-07-04T13:45:49	42.3	18.5
126050	2025-07-04T13:55:49	42.2	19
126051	2025-07-04T14:05:49	44.1	18.5
126052	2025-07-04T14:15:49	43.5	18
126053	2025-07-04T14:25:49	43.6	17.5
126054	2025-07-04T14:35:49	44.1	17.5
126055	2025-07-04T14:45:49	44.7	17.5
126056	2025-07-04T14:55:49	45.4	16
126057	2025-07-04T15:05:49	44.9	17
126058	2025-07-04T15:15:49	43.7	17.5
126059	2025-07-04T15:25:49	44	17.5
126060	2025-07-04T15:35:49	44.1	17
126061	2025-07-04T15:45:49	45.4	16.5
126062	2025-07-04T15:55:49	43.3	17.5
126063	2025-07-04T16:05:49	43.1	17.5
126064	2025-07-04T16:58:05	43.3	17.5
126065	2025-07-04T16:58:05	42.8	17.5
126066	2025-07-04T16:58:05	41.6	17.5
126067	2025-07-04T16:58:05	41.7	18
126068	2025-07-04T16:58:07	41.7	18
126069	2025-07-04T18:55:49	34.5	25.5
126070	2025-07-04T19:05:49	34.1	27.5
126071	2025-07-04T19:15:49	32.8	30.5
126072	2025-07-04T19:25:49	31.5	32.5
126073	2025-07-04T19:35:49	30.6	34.5
126074	2025-07-04T19:45:49	29.8	35.5
126075	2025-07-04T19:55:49	28.9	36.5
126076	2025-07-04T20:05:49	28.4	37.5
126077	2025-07-04T20:15:49	27.8	37.5
126078	2025-07-04T20:25:49	27.4	38
126079	2025-07-04T20:35:49	27	38.5
126080	2025-07-04T20:45:49	26.5	40.5
126081	2025-07-04T20:55:49	25.9	40
126082	2025-07-04T21:05:49	25.7	40.5
126083	2025-07-04T21:15:49	25.4	41
126084	2025-07-04T21:25:49	25.1	41.5
126085	2025-07-04T21:35:49	24.8	42
126086	2025-07-04T21:45:49	24.4	42.5
126087	2025-07-04T21:55:49	23.9	43.5
126088	2025-07-04T22:05:49	23.6	45.5
126089	2025-07-04T22:15:49	23.2	46
126090	2025-07-04T22:25:49	23.1	46
126091	2025-07-04T22:35:49	22.6	47
126092	2025-07-04T22:45:49	22.3	48.5
126093	2025-07-04T22:55:49	22	49.5
126094	2025-07-04T23:05:49	21.8	49.5
126095	2025-07-04T23:15:49	21.4	53
126096	2025-07-04T23:25:49	21.2	51.5
126097	2025-07-04T23:35:49	20.9	51.5
126098	2025-07-04T23:45:49	20.7	52
126099	2025-07-04T23:55:48	20.6	52
126100	2025-07-05T00:05:48	20.4	52.5
126101	2025-07-05T00:15:48	20.4	52.5
126102	2025-07-05T00:25:48	20.3	54.5
126103	2025-07-05T00:35:48	19.8	55
126104	2025-07-05T00:45:48	19.7	56
126105	2025-07-05T00:55:48	19.4	56
126106	2025-07-05T01:05:48	19.3	56
126107	2025-07-05T01:15:48	19.1	56
126108	2025-07-05T01:25:48	19	57
126109	2025-07-05T01:35:48	18.7	57.5
126110	2025-07-05T01:45:48	18.4	59
126111	2025-07-05T01:55:48	18.2	61
126112	2025-07-05T02:05:48	17.9	61.5
126113	2025-07-05T02:15:48	17.7	60.5
126114	2025-07-05T02:25:48	17.6	61.5
126115	2025-07-05T02:35:48	17.5	63
126116	2025-07-05T02:45:48	17.3	63.5
126117	2025-07-05T02:55:48	17.1	64.5
126118	2025-07-05T03:05:48	16.9	65.5
126119	2025-07-05T03:15:48	16.8	66
126120	2025-07-05T03:25:48	16.6	66.5
126121	2025-07-05T03:35:48	16.4	66
126122	2025-07-05T03:45:48	16.3	68.5
126123	2025-07-05T03:55:48	16.2	67.5
126124	2025-07-05T04:05:48	16.1	67.5
126125	2025-07-05T04:15:48	16.1	68
126126	2025-07-05T04:25:48	16.1	69
126127	2025-07-05T04:35:48	16.2	70.5
126128	2025-07-05T04:45:48	16.2	70
126129	2025-07-05T04:55:48	16.4	70.5
126130	2025-07-05T05:05:48	16.6	69
126131	2025-07-05T05:15:48	16.7	68.5
126132	2025-07-05T05:25:48	16.8	69.5
126133	2025-07-05T05:35:48	17.2	69
126134	2025-07-05T05:55:48	17.8	67
126135	2025-07-05T06:05:48	18	65
126136	2025-07-05T06:15:48	18.1	65
126137	2025-07-05T06:25:48	18.5	64
126138	2025-07-05T06:35:48	18.8	62.5
126139	2025-07-05T06:45:48	19.2	61.5
126140	2025-07-05T06:55:48	19.4	62
126141	2025-07-05T07:05:48	19.9	58.5
126142	2025-07-05T07:15:48	20.2	58.5
126143	2025-07-05T07:25:48	20.7	57
126144	2025-07-05T07:35:48	21	58
126145	2025-07-05T07:45:48	21.3	57.5
126146	2025-07-05T07:55:48	21.7	54
126147	2025-07-05T08:05:48	22.1	53
126148	2025-07-05T08:15:48	22.3	52.5
126149	2025-07-05T08:25:48	22.7	53
126150	2025-07-05T08:35:48	22.9	52
126151	2025-07-05T08:45:48	23.4	51.5
126152	2025-07-05T08:55:48	23.7	49
126153	2025-07-05T09:05:48	23.9	49
126154	2025-07-05T09:15:48	24	48.5
126155	2025-07-05T09:25:48	24.4	45.5
126156	2025-07-05T09:35:48	24.5	45
126157	2025-07-05T09:45:48	24.9	44
126158	2025-07-05T09:55:48	25.1	43
126159	2025-07-05T10:05:48	25.6	41.5
126160	2025-07-05T10:15:48	25.7	38.5
126161	2025-07-05T10:25:48	25.8	40
126162	2025-07-05T10:35:48	26.1	37
126163	2025-07-05T10:45:47	26.5	36.5
126164	2025-07-05T10:55:47	26.6	35.5
126165	2025-07-05T11:05:47	26.8	37
126166	2025-07-05T11:15:47	27	36.5
126167	2025-07-05T11:25:47	27	35
126168	2025-07-05T11:35:47	27.5	34
126169	2025-07-05T11:45:47	28.1	32.5
126170	2025-07-05T11:55:47	28.1	32.5
126171	2025-07-05T12:05:47	29.4	33.5
126172	2025-07-05T12:15:47	30.7	29.5
126173	2025-07-05T12:25:47	32.4	29.5
126174	2025-07-05T12:35:47	35.3	26.5
126175	2025-07-05T12:45:47	37.7	23
126176	2025-07-05T12:55:47	37.7	22.5
126177	2025-07-05T13:05:47	38.4	22
126178	2025-07-05T13:15:47	38.6	21
126179	2025-07-05T13:25:47	37.8	21
126180	2025-07-05T13:35:47	39	20.5
126181	2025-07-05T13:45:47	38.9	19.5
126182	2025-07-05T13:55:47	36.6	21.5
126183	2025-07-05T14:05:47	33.9	24
126184	2025-07-05T14:15:47	36.2	23
126185	2025-07-05T14:25:47	37.8	21.5
126186	2025-07-05T14:35:47	36.7	22
126187	2025-07-05T14:45:47	37.3	21
126188	2025-07-05T14:56:07	36.7	22.5
126189	2025-07-05T15:05:47	38.1	21.5
126190	2025-07-05T15:15:47	37.6	20
126191	2025-07-05T15:25:47	38.3	20.5
126192	2025-07-05T15:35:47	39.1	19
126193	2025-07-05T15:45:47	38.9	19
126194	2025-07-05T15:55:47	39	19
126195	2025-07-05T16:05:47	37.9	19.5
126196	2025-07-05T16:15:47	36	21.5
126197	2025-07-05T16:25:47	35.9	22
126198	2025-07-05T16:35:47	37.6	22
126199	2025-07-05T16:45:47	36.3	21
126200	2025-07-05T16:55:47	33.5	23.5
126201	2025-07-05T17:05:47	33.9	23
126202	2025-07-05T17:15:47	33	24
126203	2025-07-05T17:25:47	33.5	23.5
126204	2025-07-05T17:35:47	33.4	24.5
126205	2025-07-05T17:45:47	34.3	23.5
126206	2025-07-05T17:55:47	32.4	25.5
126207	2025-07-05T18:05:47	31.3	27
126208	2025-07-05T18:15:47	30	29
126209	2025-07-05T18:25:47	29.4	30.5
126210	2025-07-05T18:35:47	29.1	31.5
126211	2025-07-05T18:45:47	28.8	32
126212	2025-07-05T18:55:47	28.6	34.5
126213	2025-07-05T19:05:47	28	36.5
126214	2025-07-05T19:15:47	27.5	37.5
126215	2025-07-05T19:25:47	26.4	39
126216	2025-07-05T19:35:47	26.2	39.5
126217	2025-07-05T19:45:47	25.9	41
126218	2025-07-05T19:55:47	25.4	42
126219	2025-07-05T20:05:47	25.3	42.5
126220	2025-07-05T20:15:47	25	43
126221	2025-07-05T20:25:47	24.7	44
126222	2025-07-05T20:35:47	24.4	45
126223	2025-07-05T20:45:47	24.3	44.5
126224	2025-07-05T20:55:47	24	46
126225	2025-07-05T21:05:47	23.6	47
126226	2025-07-05T21:15:47	23	48.5
126227	2025-07-05T21:25:46	23.1	49
126228	2025-07-05T21:35:46	23	48.5
126229	2025-07-05T21:45:46	23	50.5
126230	2025-07-05T21:55:46	22.8	51
126231	2025-07-05T22:05:46	22.6	51
126232	2025-07-05T22:15:47	22.1	51
126233	2025-07-05T22:25:46	22.2	53
126234	2025-07-05T22:35:46	22.1	53.5
126235	2025-07-05T22:45:46	22	54.5
126236	2025-07-05T22:55:46	21.6	54.5
126237	2025-07-05T23:05:46	21.5	54.5
126238	2025-07-05T23:15:46	21.5	56.5
126239	2025-07-05T23:25:46	21.4	55.5
126240	2025-07-05T23:35:46	21.2	56
126241	2025-07-05T23:45:46	21.2	56.5
126242	2025-07-05T23:55:46	21.1	57.5
126243	2025-07-06T00:05:46	20.9	56.5
126244	2025-07-06T00:15:46	20.9	55
126245	2025-07-06T00:25:46	20.8	57.5
126246	2025-07-06T00:35:46	20.7	58.5
126247	2025-07-06T00:45:46	20.6	57.5
126248	2025-07-06T00:55:46	20.4	59.5
126249	2025-07-06T01:05:46	20.3	58
126250	2025-07-06T01:15:46	20	60
126251	2025-07-06T01:25:46	20	59.5
126252	2025-07-06T01:35:46	19.9	60
126253	2025-07-06T01:45:46	19.9	60
126254	2025-07-06T01:55:46	19.8	60
126255	2025-07-06T02:05:46	19.6	62.5
126256	2025-07-06T02:15:46	19.5	63
126257	2025-07-06T02:25:46	19.3	64
126258	2025-07-06T02:35:46	19	63.5
126259	2025-07-06T02:45:46	18.8	62.5
126260	2025-07-06T02:55:46	18.8	62
126261	2025-07-06T03:05:46	18.6	61
126262	2025-07-06T03:15:46	18.7	61
126263	2025-07-06T03:25:46	18.6	61
126264	2025-07-06T03:35:46	18.6	61.5
126265	2025-07-06T03:45:46	18.5	60.5
126266	2025-07-06T03:55:46	18.4	62.5
126267	2025-07-06T04:05:46	18.5	63
126268	2025-07-06T04:15:46	18.5	63
126269	2025-07-06T04:25:46	18.4	63
126270	2025-07-06T04:35:46	18.4	64
126271	2025-07-06T04:45:46	18.5	64.5
126272	2025-07-06T04:55:46	18.5	65
126273	2025-07-06T05:05:46	18.7	65.5
126274	2025-07-06T05:15:46	19	67
126275	2025-07-06T05:25:46	19	64
126276	2025-07-06T05:35:46	19.3	62.5
126277	2025-07-06T05:45:46	19.4	64
126278	2025-07-06T05:55:46	19.7	62.5
126279	2025-07-06T06:05:46	19.7	63.5
126280	2025-07-06T06:15:46	20	63
126281	2025-07-06T06:25:46	20.4	60.5
126282	2025-07-06T06:35:46	20.4	58
126283	2025-07-06T06:45:46	20.8	56.5
126284	2025-07-06T06:55:46	21.2	54.5
126285	2025-07-06T07:05:46	21.3	55.5
126286	2025-07-06T07:15:46	21.7	54.5
126287	2025-07-06T07:25:45	22.1	51.5
126288	2025-07-06T07:35:45	22.3	51.5
126289	2025-07-06T07:45:45	22.3	53.5
126290	2025-07-06T07:55:45	22.6	51.5
126291	2025-07-06T08:05:45	22.5	52.5
126292	2025-07-06T08:15:45	22.5	53.5
126293	2025-07-06T08:25:45	23	48.5
126294	2025-07-06T08:35:45	23.2	47
126295	2025-07-06T08:45:45	23.1	48
126296	2025-07-06T08:55:45	22.7	49
126297	2025-07-06T09:05:45	22.7	49
126298	2025-07-06T09:15:45	22.4	48.5
126299	2025-07-06T09:25:45	22.4	49
126300	2025-07-06T09:35:45	23	50
126301	2025-07-06T09:45:45	23.4	47.5
126302	2025-07-06T09:55:45	23.5	46
126303	2025-07-06T10:05:45	23.6	45
126304	2025-07-06T10:15:45	24.2	44.5
126305	2025-07-06T10:25:45	24.4	43.5
126306	2025-07-06T10:35:45	24.4	43
126307	2025-07-06T10:45:45	24.6	42.5
126308	2025-07-06T10:55:45	24.6	43
126309	2025-07-06T11:05:45	24.2	43
126310	2025-07-06T11:15:45	24.2	43.5
126311	2025-07-06T11:25:45	24	45
126312	2025-07-06T11:35:45	24.4	45.5
126313	2025-07-06T11:45:45	24.4	46.5
126314	2025-07-06T11:55:45	24.2	44.5
126315	2025-07-06T12:05:45	24.3	44.5
126316	2025-07-06T12:15:45	24.7	44.5
126317	2025-07-06T12:25:45	25.2	44.5
126318	2025-07-06T12:35:45	25.5	42.5
126319	2025-07-06T12:45:45	25.5	44.5
126320	2025-07-06T12:55:45	26.1	43
126321	2025-07-06T13:05:45	26.7	41.5
126322	2025-07-06T13:15:45	27	41.5
126323	2025-07-06T13:25:45	27.7	40
126324	2025-07-06T13:35:45	30.1	37
126325	2025-07-06T13:45:45	29.6	37.5
126326	2025-07-06T13:55:45	30.5	35.5
126327	2025-07-06T14:05:45	28.9	36.5
126328	2025-07-06T14:15:45	29.3	37.5
126329	2025-07-06T14:25:45	28.7	38
126330	2025-07-06T14:35:45	28.7	39
126331	2025-07-06T14:45:45	28	38.5
126332	2025-07-06T14:55:45	28	39.5
126333	2025-07-06T15:05:45	28	39.5
126334	2025-07-06T15:15:45	27.2	41
126335	2025-07-06T15:25:45	27.1	42
126336	2025-07-06T15:35:45	27	42
126337	2025-07-06T15:45:45	26.8	43.5
126338	2025-07-06T15:55:45	26.4	45.5
126339	2025-07-06T16:05:45	25.9	47
126340	2025-07-06T16:15:45	25.1	49
126341	2025-07-06T16:25:45	24.4	52
126342	2025-07-06T16:35:45	23.5	54.5
126343	2025-07-06T16:45:45	20.5	83
126344	2025-07-06T16:55:45	19.6	84.5
126345	2025-07-06T17:05:45	19.5	83
126346	2025-07-06T17:15:44	19.5	78
126347	2025-07-06T17:25:44	19.9	73.5
126348	2025-07-06T17:35:45	19.4	74.5
126349	2025-07-06T17:45:44	19.6	73.5
126350	2025-07-06T17:55:44	19.3	74.5
126351	2025-07-06T18:05:44	18.7	87
126352	2025-07-06T18:15:44	17.3	95.5
126353	2025-07-06T19:28:12	16.9	97.5
126354	2025-07-06T19:28:20	17.1	98.5
126355	2025-07-06T19:28:21	16.9	98.5
126356	2025-07-06T19:28:21	17	98.5
126357	2025-07-06T19:28:21	17	98.5
126358	2025-07-06T19:28:22	17.1	97.5
126359	2025-07-06T19:28:22	17.1	97.5
126360	2025-07-06T19:35:44	17.1	98
126361	2025-07-06T19:45:44	17	98
126362	2025-07-06T19:55:44	17	98
126363	2025-07-06T20:05:44	17.1	98
126364	2025-07-06T20:15:44	17.2	98
126365	2025-07-06T20:25:44	17.2	96.5
126366	2025-07-06T20:35:44	17	96
126367	2025-07-06T20:45:44	17	96
126368	2025-07-06T20:55:44	16.9	95.5
126369	2025-07-06T21:05:44	16.6	94.5
126370	2025-07-06T21:15:44	16.8	92.5
126371	2025-07-06T21:25:44	17	85.5
126372	2025-07-06T21:35:44	17.1	82.5
126373	2025-07-06T21:45:44	17	81.5
126374	2025-07-06T21:55:44	17	82
126375	2025-07-06T22:05:44	17	81
126376	2025-07-06T22:15:44	16.8	81.5
126377	2025-07-06T22:25:44	16.7	82
126378	2025-07-06T22:35:44	16.7	82
126379	2025-07-06T22:45:44	16.6	82.5
126380	2025-07-06T22:55:44	16.6	82
126381	2025-07-06T23:05:44	16.6	82
126382	2025-07-06T23:15:44	16.6	82
126383	2025-07-06T23:25:44	16.7	81.5
126384	2025-07-06T23:35:44	16.7	81.5
126385	2025-07-06T23:45:44	16.7	81.5
126386	2025-07-06T23:55:44	16.7	81.5
126387	2025-07-07T00:05:44	16.7	81.5
126388	2025-07-07T00:25:44	16.7	81
126389	2025-07-07T00:35:44	16.7	81
126390	2025-07-07T00:45:44	16.7	80.5
126391	2025-07-07T00:55:44	16.7	80
126392	2025-07-07T01:05:44	16.7	80
126393	2025-07-07T01:15:44	16.7	79.5
126394	2025-07-07T01:25:44	16.8	79
126395	2025-07-07T01:35:44	16.8	79.5
126396	2025-07-07T01:45:44	16.8	79
126397	2025-07-07T01:55:44	16.8	79
126398	2025-07-07T02:05:44	16.6	83.5
126399	2025-07-07T02:15:44	15.1	96
126400	2025-07-07T02:25:44	14.9	98.5
126401	2025-07-07T02:35:44	14.7	99
126402	2025-07-07T02:45:44	14.8	99
126403	2025-07-07T02:55:44	14.8	99
126404	2025-07-07T03:05:44	14.9	97.5
126405	2025-07-07T03:15:44	14.9	95.5
126406	2025-07-07T03:25:44	15	95
126407	2025-07-07T03:35:44	14.9	96
126408	2025-07-07T03:45:44	14.8	98
126409	2025-07-07T03:55:44	14.9	97.5
126410	2025-07-07T04:05:44	14.9	97
126411	2025-07-07T04:15:44	15.1	94.5
126412	2025-07-07T04:25:44	15.2	94
126413	2025-07-07T04:35:44	15.5	93
126414	2025-07-07T04:45:44	15.5	92.5
126415	2025-07-07T04:55:43	15.7	91.5
126416	2025-07-07T05:05:43	15.9	90.5
126417	2025-07-07T05:15:43	15.9	90
126418	2025-07-07T05:25:43	16.1	89.5
126419	2025-07-07T05:35:43	16.2	89.5
126420	2025-07-07T05:45:43	16.3	89
126421	2025-07-07T05:55:43	15.7	96
126422	2025-07-07T06:05:43	15.8	96.5
126423	2025-07-07T06:15:43	15.8	97
126424	2025-07-07T06:25:43	16.5	93
126425	2025-07-07T06:35:43	16.8	91
126426	2025-07-07T06:45:43	17.6	87
126427	2025-07-07T06:55:43	17	90
126428	2025-07-07T07:05:43	17.4	88
126429	2025-07-07T07:15:43	17.7	86
126430	2025-07-07T07:25:43	18.2	85
126431	2025-07-07T07:35:43	18.5	83.5
126432	2025-07-07T07:45:43	18.9	82.5
126433	2025-07-07T07:55:43	19.6	80.5
126434	2025-07-07T08:05:43	19.4	79
126435	2025-07-07T08:15:43	19.6	76.5
126436	2025-07-07T08:25:43	18.7	93
126437	2025-07-07T08:35:43	18.9	86
126438	2025-07-07T08:45:43	19.3	77
126439	2025-07-07T08:55:43	18	96
126440	2025-07-07T09:05:43	16.7	100
126441	2025-07-07T09:15:43	16.5	100
126442	2025-07-07T09:25:43	16.8	100
126443	2025-07-07T09:35:43	17.5	100
126444	2025-07-07T09:45:43	18.1	100
126445	2025-07-07T09:55:43	18.3	100
126446	2025-07-07T10:05:43	18.1	100
126447	2025-07-07T10:15:43	18.3	100
126448	2025-07-07T10:25:43	18.5	100
126449	2025-07-07T10:35:43	19.1	100
126450	2025-07-07T10:45:43	19.6	100
126451	2025-07-07T10:55:43	19.8	100
126452	2025-07-07T11:05:43	20.4	100
126453	2025-07-07T11:15:43	20.6	100
126454	2025-07-07T11:25:43	20.3	100
126455	2025-07-07T11:35:43	19.2	100
126456	2025-07-07T11:45:43	18.5	100
126457	2025-07-07T11:55:43	19.4	100
126458	2025-07-07T12:05:43	18.8	100
126459	2025-07-07T12:15:43	17	100
126460	2025-07-07T12:25:43	18.4	100
126461	2025-07-07T12:35:43	23.1	100
126462	2025-07-07T12:45:43	23.3	100
126463	2025-07-07T12:55:43	23.8	100
126464	2025-07-07T13:05:43	22.8	98.5
126465	2025-07-07T13:15:43	20.8	97.5
126466	2025-07-07T13:25:43	21	96.5
126467	2025-07-07T13:35:43	20.9	96
126468	2025-07-07T13:45:43	20.7	95
126469	2025-07-07T13:55:43	20.9	95
126470	2025-07-07T14:05:43	21.4	95
126471	2025-07-07T14:15:43	21.8	95
126472	2025-07-07T14:25:43	23.7	95
126473	2025-07-07T14:35:43	22.7	95
126474	2025-07-07T14:45:43	21.5	95.5
126475	2025-07-07T14:55:43	18.9	95.5
126476	2025-07-07T15:05:43	18.3	95.5
126477	2025-07-07T15:15:43	18.5	95.5
126478	2025-07-07T15:25:42	20.8	95.5
126479	2025-07-07T15:35:42	20.2	95.5
126480	2025-07-07T15:45:42	21.7	95.5
126481	2025-07-07T15:55:42	21.6	95.5
126482	2025-07-07T16:05:42	19.9	95.5
126483	2025-07-07T16:15:43	17.8	95.5
126484	2025-07-07T16:25:42	16	95.5
126485	2025-07-07T16:45:42	17.9	95.5
126486	2025-07-07T16:55:42	19.4	95.5
126487	2025-07-07T17:05:42	17.6	95.5
126488	2025-07-07T17:15:42	17.1	95.5
126489	2025-07-07T17:25:42	16.8	96
126490	2025-07-07T17:35:42	16.7	96
126491	2025-07-07T17:45:42	16.7	96
126492	2025-07-07T17:55:42	16.6	96
126493	2025-07-07T18:05:42	16.6	96
126494	2025-07-07T18:15:42	16.5	96
126495	2025-07-07T18:25:42	16.4	96
126496	2025-07-07T18:35:42	16.3	96
126497	2025-07-07T18:45:42	16.1	96
126498	2025-07-07T18:55:42	15.6	96
126499	2025-07-07T19:05:42	15.2	96
126500	2025-07-07T19:15:42	15.1	96
126501	2025-07-07T19:25:42	15.3	96
126502	2025-07-07T19:35:42	15.2	96
126503	2025-07-07T19:45:42	14.9	96
126504	2025-07-07T19:55:42	15	96
126505	2025-07-07T20:05:42	14.9	96
126506	2025-07-07T20:15:42	15	96
126507	2025-07-07T20:25:42	15	96
126508	2025-07-07T20:35:42	15	96
126509	2025-07-07T20:45:42	15.1	96
126510	2025-07-07T20:55:42	15	96
126511	2025-07-07T21:05:42	15.2	96
126512	2025-07-07T21:15:42	15.1	96
126513	2025-07-07T21:25:42	15.1	96
126514	2025-07-07T21:35:42	15	96
126515	2025-07-07T21:45:42	14.9	96
126516	2025-07-07T21:55:42	14.9	96.5
126517	2025-07-07T22:05:42	14.9	96.5
126518	2025-07-07T22:15:42	14.6	96.5
126519	2025-07-07T22:25:42	14.4	96.5
126520	2025-07-07T22:35:42	14.5	96.5
126521	2025-07-07T22:45:42	14.2	96.5
126522	2025-07-07T22:55:42	14	96.5
126523	2025-07-07T23:05:42	13.8	96
126524	2025-07-07T23:15:42	13.9	96
126525	2025-07-07T23:25:42	13.9	96.5
126526	2025-07-07T23:35:42	14	96.5
126527	2025-07-07T23:45:42	13.9	96.5
126528	2025-07-07T23:55:42	13.9	96.5
126529	2025-07-08T00:05:42	13.8	96.5
126530	2025-07-08T00:15:42	13.8	96.5
126531	2025-07-08T00:25:42	13.8	96.5
126532	2025-07-08T00:35:42	14	96.5
126533	2025-07-08T00:45:42	13.9	96.5
126534	2025-07-08T00:55:42	14.1	96.5
126535	2025-07-08T01:05:42	14.1	96.5
126536	2025-07-08T01:15:42	14.1	96.5
126537	2025-07-08T01:35:42	14	96.5
126538	2025-07-08T01:45:42	14	96.5
126539	2025-07-08T01:55:42	14.1	96.5
126540	2025-07-08T02:05:42	14	96.5
126541	2025-07-08T02:15:42	14	96.5
126542	2025-07-08T02:25:42	13.9	96.5
126543	2025-07-08T02:35:42	14	96.5
126544	2025-07-08T02:45:42	14	96.5
126545	2025-07-08T02:55:42	13.8	96.5
126546	2025-07-08T03:05:42	13.9	96.5
126547	2025-07-08T03:15:42	13.8	96.5
126548	2025-07-08T03:25:42	13.9	96.5
126549	2025-07-08T03:35:42	13.8	96.5
126550	2025-07-08T03:45:42	13.7	96.5
126551	2025-07-08T03:55:41	13.7	96.5
126552	2025-07-08T04:05:41	13.6	96.5
126553	2025-07-08T04:15:41	13.7	96.5
126554	2025-07-08T04:25:41	13.6	96.5
126555	2025-07-08T04:35:41	13.6	96.5
126556	2025-07-08T04:45:41	13.4	96.5
126557	2025-07-08T04:55:41	13.4	96.5
126558	2025-07-08T05:05:41	13.6	96.5
126559	2025-07-08T05:15:41	13.6	96.5
126560	2025-07-08T05:25:41	13.8	96.5
126561	2025-07-08T05:35:41	13.6	96.5
126562	2025-07-08T05:45:41	13.5	96.5
126563	2025-07-08T05:55:41	13.6	96.5
126564	2025-07-08T06:05:41	13.5	96.5
126565	2025-07-08T06:15:41	13.4	96.5
126566	2025-07-08T06:25:41	13.5	96.5
126567	2025-07-08T06:35:41	13.7	96.5
126568	2025-07-08T06:45:41	13.8	96.5
126569	2025-07-08T06:55:41	14.1	96.5
126570	2025-07-08T07:05:41	14.5	96.5
126571	2025-07-08T07:15:41	14.7	96.5
126572	2025-07-08T07:25:41	14.8	96.5
126573	2025-07-08T07:35:41	15	96.5
126574	2025-07-08T07:45:41	15.1	96.5
126575	2025-07-08T07:55:41	15.2	96.5
126576	2025-07-08T08:05:41	15.4	96.5
126577	2025-07-08T08:15:41	15.1	96.5
126578	2025-07-08T08:25:41	14.9	96.5
126579	2025-07-08T08:35:41	15	96.5
126580	2025-07-08T08:45:41	15.1	96.5
126581	2025-07-08T08:55:41	15.2	96.5
126582	2025-07-08T09:05:41	15.2	96.5
126583	2025-07-08T09:15:41	15.7	96.5
126584	2025-07-08T09:25:41	16.1	99.5
126585	2025-07-08T09:35:41	16.5	99.5
126586	2025-07-08T09:45:41	16.8	99.5
126587	2025-07-08T09:55:41	16.8	100
126588	2025-07-08T10:05:41	17.2	100
126589	2025-07-08T10:15:41	17.2	100
126590	2025-07-08T10:25:41	17.9	100
126591	2025-07-08T10:35:41	18	92.5
126592	2025-07-08T10:45:41	18.4	69.5
126593	2025-07-08T10:55:41	18.4	65.5
126594	2025-07-08T11:05:41	18.6	66.5
126595	2025-07-08T11:15:41	18.1	67
126596	2025-07-08T11:25:41	18.5	65.5
126597	2025-07-08T11:35:41	18.6	64.5
126598	2025-07-08T11:45:41	19.2	62.5
126599	2025-07-08T11:55:41	19.5	60.5
126600	2025-07-08T12:05:41	19.5	60
126601	2025-07-08T12:15:41	22.6	51.5
126602	2025-07-08T12:25:41	23.3	50
126603	2025-07-08T12:35:41	23.5	47
126604	2025-07-08T12:45:41	25.8	41
126605	2025-07-08T12:55:41	27.4	39.5
126606	2025-07-08T13:15:41	26	40.5
126607	2025-07-08T13:25:41	24.9	43.5
126608	2025-07-08T13:35:41	24.3	43
126609	2025-07-08T13:45:41	24.3	47
126610	2025-07-08T13:55:41	24.3	43.5
126611	2025-07-08T14:05:41	24.6	43.5
126612	2025-07-08T14:15:41	23.3	46
126613	2025-07-08T14:25:41	22.7	47
126614	2025-07-08T14:35:41	22.8	49.5
126615	2025-07-08T14:45:41	23.8	44
126616	2025-07-08T14:55:40	22.3	47.5
126617	2025-07-08T15:05:40	20.7	53
126618	2025-07-08T15:15:40	19.4	65
126619	2025-07-08T15:25:40	17.2	91
126620	2025-07-08T15:35:40	15.7	99.5
126621	2025-07-08T15:45:40	16.5	100
126622	2025-07-08T15:55:40	17.5	96
126623	2025-07-08T16:05:40	17	97
126624	2025-07-08T16:15:40	16.8	95.5
126625	2025-07-08T16:25:40	16.5	97
126626	2025-07-08T16:35:40	16.2	99.5
126627	2025-07-08T16:45:40	15.6	100
126628	2025-07-08T16:55:40	14.5	100
126629	2025-07-08T17:05:40	14.2	100
126630	2025-07-08T17:15:40	14.3	100
126631	2025-07-08T17:25:40	14	100
126632	2025-07-08T17:35:40	13.9	100
126633	2025-07-08T17:45:40	14	100
126634	2025-07-08T17:55:40	13.8	100
126635	2025-07-08T18:05:40	13.7	100
126636	2025-07-08T18:15:40	13.7	100
126637	2025-07-08T18:25:40	13.6	100
126638	2025-07-08T18:35:40	13.6	100
126639	2025-07-08T18:45:40	13.5	100
126640	2025-07-08T18:55:40	13.4	100
126641	2025-07-08T19:05:40	13.3	100
126642	2025-07-08T19:15:40	13.3	100
126643	2025-07-08T19:25:40	13.3	100
126644	2025-07-08T19:35:40	13.3	100
126645	2025-07-08T19:45:40	13.2	100
126646	2025-07-08T19:55:40	13.2	100
126647	2025-07-08T20:05:40	13.3	100
126648	2025-07-08T20:15:40	13.3	100
126649	2025-07-08T20:25:40	13.1	100
126650	2025-07-08T20:35:40	13.1	100
126651	2025-07-08T20:45:40	13	100
126652	2025-07-08T20:55:40	13.1	100
126653	2025-07-08T21:05:40	13.1	100
126654	2025-07-08T21:15:40	13.2	100
126655	2025-07-08T21:25:40	13.1	100
126656	2025-07-08T21:35:40	13.2	100
126657	2025-07-08T21:45:40	13.1	100
126658	2025-07-08T21:55:40	13.2	100
126659	2025-07-08T22:05:40	13.1	100
126660	2025-07-08T22:15:40	13	100
126661	2025-07-08T22:25:40	12.8	100
126662	2025-07-08T22:35:40	12.5	100
126663	2025-07-08T22:45:40	12.2	100
126664	2025-07-08T22:55:40	12.4	100
126665	2025-07-08T23:05:40	12.5	100
126666	2025-07-08T23:15:40	12.4	100
126667	2025-07-08T23:25:40	12.5	100
126668	2025-07-08T23:35:40	12.7	100
126669	2025-07-08T23:45:40	12.6	100
126670	2025-07-08T23:55:40	12.8	100
126671	2025-07-09T00:05:40	12.7	100
126672	2025-07-09T00:15:40	12.7	100
126673	2025-07-09T00:25:40	12.7	100
126674	2025-07-09T00:35:40	12.7	100
126675	2025-07-09T00:45:40	12.9	100
126676	2025-07-09T00:55:40	12.8	100
126677	2025-07-09T01:05:40	12.8	100
126678	2025-07-09T01:15:40	12.8	100
126679	2025-07-09T01:25:40	12.8	100
126680	2025-07-09T01:35:40	12.5	100
126681	2025-07-09T01:45:40	12.3	100
126682	2025-07-09T01:55:40	12.1	100
126683	2025-07-09T02:05:40	11.9	100
126684	2025-07-09T02:15:40	11.8	100
126685	2025-07-09T02:25:40	11.8	100
126686	2025-07-09T02:35:40	12	100
126687	2025-07-09T02:45:40	11.8	100
126688	2025-07-09T02:55:40	11.7	100
126689	2025-07-09T03:05:40	11.6	100
126690	2025-07-09T03:15:40	11.7	100
126691	2025-07-09T03:25:40	12.1	100
126692	2025-07-09T03:35:40	12.1	100
126693	2025-07-09T03:45:40	12.1	100
126694	2025-07-09T03:55:40	12	100
126695	2025-07-09T04:05:40	12.1	100
126696	2025-07-09T04:15:40	12.2	100
126697	2025-07-09T04:25:39	12.1	100
126698	2025-07-09T04:35:39	12.1	100
126699	2025-07-09T04:45:40	12.1	100
126700	2025-07-09T04:55:39	12.3	100
126701	2025-07-09T05:05:39	12.4	100
126702	2025-07-09T05:15:39	12.6	100
126703	2025-07-09T05:25:39	12.8	100
126704	2025-07-09T05:35:39	13.1	100
126705	2025-07-09T05:45:39	13.2	100
126706	2025-07-09T05:55:39	13.4	100
126707	2025-07-09T06:05:39	13.7	100
126708	2025-07-09T06:15:39	13.9	100
126709	2025-07-09T06:25:39	14.4	100
126710	2025-07-09T06:35:39	14.5	100
126711	2025-07-09T06:45:39	14.4	94.5
126712	2025-07-09T06:55:39	14.6	92.5
126713	2025-07-09T07:05:39	15.2	89
126714	2025-07-09T07:15:39	15.6	86
126715	2025-07-09T07:25:39	15.7	84.5
126716	2025-07-09T07:35:39	16	84.5
126717	2025-07-09T07:45:39	16	81.5
126718	2025-07-09T07:55:39	16.5	81
126719	2025-07-09T08:05:39	16.9	79.5
126720	2025-07-09T08:15:39	17	78
126721	2025-07-09T08:25:39	17.5	75.5
126722	2025-07-09T08:35:39	17.6	75.5
126723	2025-07-09T08:45:39	17.7	74.5
126724	2025-07-09T08:55:39	17.9	71.5
126725	2025-07-09T09:05:39	18.2	70
126726	2025-07-09T09:15:39	18.6	65.5
126727	2025-07-09T09:25:39	18.8	65
126728	2025-07-09T09:35:39	19.2	63
126729	2025-07-09T09:45:39	19.4	62
126730	2025-07-09T09:55:39	19.6	60.5
126731	2025-07-09T10:05:39	19.7	62
126732	2025-07-09T10:15:39	20.1	58.5
126733	2025-07-09T10:25:39	20.1	60.5
126734	2025-07-09T10:35:39	20.1	59.5
126735	2025-07-09T10:45:39	19.9	61
126736	2025-07-09T10:55:39	20.4	60.5
126737	2025-07-09T11:05:39	20.9	55.5
126738	2025-07-09T11:15:39	21.4	55
126739	2025-07-09T11:25:39	21.8	53.5
126740	2025-07-09T11:35:39	21.5	54.5
126741	2025-07-09T11:45:39	20.7	59.5
126742	2025-07-09T11:55:39	20.3	60.5
126743	2025-07-09T12:05:39	20.1	59.5
126744	2025-07-09T12:15:39	20.4	57
126745	2025-07-09T12:25:39	22.4	52.5
126746	2025-07-09T12:35:39	24.7	50
126747	2025-07-09T12:45:39	25.6	46.5
126748	2025-07-09T12:55:39	27	44.5
126749	2025-07-09T13:05:39	29.2	39
126750	2025-07-09T13:15:39	28.8	39
126751	2025-07-09T13:25:39	29.7	37.5
126752	2025-07-09T13:35:39	27.4	39.5
126753	2025-07-09T13:45:39	27.9	39.5
126754	2025-07-09T13:55:39	26.7	41.5
126755	2025-07-09T14:05:39	25.6	44
126756	2025-07-09T14:15:39	25.3	42.5
126757	2025-07-09T14:25:39	26.2	42
126758	2025-07-09T14:35:39	25.1	43
126759	2025-07-09T14:45:39	25.4	42.5
126760	2025-07-09T14:55:39	28.7	37.5
126761	2025-07-09T15:05:38	26.9	41
126762	2025-07-09T15:15:38	25.5	43.5
126763	2025-07-09T15:25:38	25	43.5
126764	2025-07-09T15:35:38	24.7	43
126765	2025-07-09T15:45:38	24.3	45
126766	2025-07-09T15:55:38	24.3	45
126767	2025-07-09T16:05:38	24.1	46
126768	2025-07-09T16:15:38	24.3	44
126769	2025-07-09T16:25:38	24.7	42.5
126770	2025-07-09T16:35:38	25.9	42.5
126771	2025-07-09T16:45:38	28	38
126772	2025-07-09T16:55:38	28.9	37
126773	2025-07-09T17:05:38	28	37
126774	2025-07-09T17:15:38	26.8	39
126775	2025-07-09T17:25:38	27.4	39.5
126776	2025-07-09T17:35:38	27.3	39
126777	2025-07-09T17:45:38	27.7	38.5
126778	2025-07-09T17:55:38	26.6	42
126779	2025-07-09T18:05:38	26.9	42.5
126780	2025-07-09T18:15:38	26.5	42.5
126781	2025-07-09T18:25:38	26.2	42.5
126782	2025-07-09T18:35:38	25.1	44.5
126783	2025-07-09T18:45:38	25.1	45.5
126784	2025-07-09T18:55:38	24	48
126785	2025-07-09T19:05:38	23.5	49
126786	2025-07-09T19:15:38	22.4	54.5
126787	2025-07-09T19:25:38	21.4	60.5
126788	2025-07-09T19:35:38	21.2	62
126789	2025-07-09T19:45:38	20.7	64
126790	2025-07-09T19:55:38	20.3	64.5
126791	2025-07-09T20:05:38	19.9	65
126792	2025-07-09T20:15:38	19.3	66.5
126793	2025-07-09T20:25:38	19	68
126794	2025-07-09T20:35:38	18.7	68.5
126795	2025-07-09T20:45:38	18.5	70
126796	2025-07-09T20:55:38	18.1	72
126797	2025-07-09T21:05:38	17.9	72.5
126798	2025-07-09T21:15:38	17.6	74
126799	2025-07-09T21:25:38	17.4	74.5
126800	2025-07-09T21:35:38	17.2	75.5
126801	2025-07-09T21:45:38	17	75
126802	2025-07-09T21:55:38	16.7	76.5
126803	2025-07-09T22:05:38	16.6	76.5
126804	2025-07-09T22:15:38	16.3	77
126805	2025-07-09T22:25:38	16.1	78
126806	2025-07-09T22:35:38	15.9	78.5
126807	2025-07-09T22:45:38	15.8	79.5
126808	2025-07-09T22:55:38	15.6	80.5
126809	2025-07-09T23:05:38	15.4	81
126810	2025-07-09T23:15:38	15.2	81.5
126811	2025-07-09T23:25:38	15	82
126812	2025-07-09T23:35:38	14.8	82.5
126813	2025-07-09T23:45:38	14.7	83
126814	2025-07-09T23:55:38	14.4	83.5
126815	2025-07-10T00:05:38	14.3	83.5
126816	2025-07-10T00:15:38	14.2	83.5
126817	2025-07-10T00:25:38	14	83
126818	2025-07-10T00:35:38	13.9	83
126819	2025-07-10T00:45:38	13.8	83.5
126820	2025-07-10T00:55:38	13.7	84.5
126821	2025-07-10T01:15:38	13.3	85.5
126822	2025-07-10T01:25:38	13.2	86
126823	2025-07-10T01:35:38	13.2	85.5
126824	2025-07-10T01:45:38	13.4	85.5
126825	2025-07-10T01:55:37	13.3	86
126826	2025-07-10T02:05:37	13.1	87
126827	2025-07-10T02:15:37	12.8	88
126828	2025-07-10T02:25:37	12.7	89
126829	2025-07-10T02:35:37	12.6	89
126830	2025-07-10T02:55:37	12.4	89.5
126831	2025-07-10T03:05:37	12.3	90
126832	2025-07-10T03:15:37	12.1	89.5
126833	2025-07-10T03:25:37	12	90
126834	2025-07-10T03:35:37	12	90.5
126835	2025-07-10T03:45:37	12	91
126836	2025-07-10T03:55:37	11.9	91
126837	2025-07-10T04:05:37	11.8	91
126838	2025-07-10T04:15:37	11.9	91.5
126839	2025-07-10T04:25:37	11.9	91
126840	2025-07-10T04:35:37	12	91
126841	2025-07-10T04:45:37	12	91
126842	2025-07-10T04:55:37	12.2	91.5
126843	2025-07-10T05:05:37	12.4	91.5
126844	2025-07-10T05:15:37	12.7	90.5
126845	2025-07-10T05:25:37	12.8	89.5
126846	2025-07-10T05:35:37	13	89.5
126847	2025-07-10T05:45:37	13.1	89.5
126848	2025-07-10T05:55:37	13.3	88
126849	2025-07-10T06:05:37	13.5	87.5
126850	2025-07-10T06:15:37	13.7	87
126851	2025-07-10T06:25:37	13.9	85.5
126852	2025-07-10T06:35:37	14.2	85.5
126853	2025-07-10T06:45:37	14.3	84.5
126854	2025-07-10T06:55:37	14.6	84
126855	2025-07-10T07:05:37	14.9	84
126856	2025-07-10T07:15:37	15.2	82.5
126857	2025-07-10T07:25:37	15.7	80.5
126858	2025-07-10T07:45:37	16.4	77.5
126859	2025-07-10T07:55:37	16.8	76
126860	2025-07-10T08:05:37	17.2	75
126861	2025-07-10T08:15:37	17.3	74.5
126862	2025-07-10T08:25:37	17.6	73.5
126863	2025-07-10T08:35:37	17.9	70
126864	2025-07-10T08:45:37	18.1	67
126865	2025-07-10T08:55:37	18.2	68.5
126866	2025-07-10T09:05:37	18.7	68.5
126867	2025-07-10T09:15:37	18.8	67
126868	2025-07-10T09:25:37	19.3	65.5
126869	2025-07-10T09:35:37	19.5	63
126870	2025-07-10T09:45:37	19.9	63.5
126871	2025-07-10T09:55:37	20.6	61
126872	2025-07-10T10:05:37	20.9	61
126873	2025-07-10T10:15:37	21.4	58
126874	2025-07-10T10:25:37	21.9	57
126875	2025-07-10T10:35:37	21.7	57.5
126876	2025-07-10T10:45:37	22.1	55.5
126877	2025-07-10T10:55:37	22.6	56
126878	2025-07-10T11:05:37	22.9	53.5
126879	2025-07-10T11:15:37	22.8	54
126880	2025-07-10T11:25:37	23.5	52
126881	2025-07-10T11:35:37	24	49.5
126882	2025-07-10T11:45:37	24	49.5
126883	2025-07-10T11:55:37	24	50
126884	2025-07-10T12:05:37	25.2	47.5
126885	2025-07-10T12:15:37	31.8	35.5
126886	2025-07-10T12:25:37	31.5	33.5
126887	2025-07-10T12:35:37	27.7	40
126888	2025-07-10T12:45:37	29.2	38
126889	2025-07-10T13:05:37	32.4	31.5
126890	2025-07-10T13:15:37	35.2	30
126891	2025-07-10T13:25:37	38.4	26
126892	2025-07-10T13:35:37	38.6	25
126893	2025-07-10T13:45:36	40.2	23
126894	2025-07-10T13:55:36	37.6	24.5
126895	2025-07-10T14:05:36	38.7	23.5
126896	2025-07-10T14:15:36	40.3	23.5
126897	2025-07-10T14:25:36	38.1	23.5
126898	2025-07-10T14:35:36	38.3	24
126899	2025-07-10T14:45:36	40.2	21
126900	2025-07-10T14:55:36	41.3	23
126901	2025-07-10T15:05:36	41.8	21.5
126902	2025-07-10T15:15:36	40	22
126903	2025-07-10T15:25:36	35.8	26
126904	2025-07-10T15:35:36	36.2	25.5
126905	2025-07-10T15:45:36	37.1	26
126906	2025-07-10T15:55:36	38.5	25.5
126907	2025-07-10T16:05:36	38.6	25
126908	2025-07-10T16:15:36	38.2	24
126909	2025-07-10T16:25:36	38.6	25
126910	2025-07-10T16:35:36	38	25
126911	2025-07-10T16:45:36	37.9	25
126912	2025-07-10T16:55:36	38.4	24
126913	2025-07-10T17:05:36	36	26.5
126914	2025-07-10T17:15:36	35.7	26.5
126915	2025-07-10T17:25:36	35	28
126916	2025-07-10T17:35:36	35.2	27.5
126917	2025-07-10T17:45:36	34.8	27.5
126918	2025-07-10T17:55:36	34.4	28.5
126919	2025-07-10T18:05:36	33.6	30
126920	2025-07-10T18:15:36	32.5	31
126921	2025-07-10T18:25:36	31.2	31.5
126922	2025-07-10T18:35:36	30.9	35
126923	2025-07-10T18:45:36	31	38.5
126924	2025-07-10T18:55:36	29.9	42.5
126925	2025-07-10T19:05:36	29	43.5
126926	2025-07-10T19:15:36	28.1	44
126927	2025-07-10T19:25:36	27.1	46
126928	2025-07-10T19:35:36	26.7	47.5
126929	2025-07-10T19:45:36	26.2	49.5
126930	2025-07-10T19:55:36	25.8	52.5
126931	2025-07-10T20:05:36	25.6	53
126932	2025-07-10T20:15:36	25.4	53.5
126933	2025-07-10T20:35:36	24.4	53
126934	2025-07-10T20:45:36	24.3	54.5
126935	2025-07-10T20:55:36	23.9	54
126936	2025-07-10T21:05:36	23.4	54.5
126937	2025-07-10T21:15:36	22.9	57
126938	2025-07-10T21:25:36	22.6	58.5
126939	2025-07-10T21:35:36	22.2	59.5
126940	2025-07-10T21:45:36	22.1	60
126941	2025-07-10T21:55:36	22.2	61
126942	2025-07-10T22:05:36	22.2	60.5
126943	2025-07-10T22:15:36	22.2	61.5
126944	2025-07-10T22:25:36	22	62.5
126945	2025-07-10T22:35:36	21.9	63
126946	2025-07-10T22:45:36	21.8	62.5
126947	2025-07-10T22:55:36	21.7	64
126948	2025-07-10T23:05:36	21.4	65
126949	2025-07-10T23:15:36	21.4	65.5
126950	2025-07-10T23:25:36	21.2	66.5
126951	2025-07-10T23:35:36	20.7	67
126952	2025-07-10T23:45:36	20.4	69
126953	2025-07-10T23:55:36	20.2	69.5
126954	2025-07-11T00:05:36	20.2	70.5
126955	2025-07-11T00:15:36	19.9	71.5
126956	2025-07-11T00:25:36	19.5	72.5
126957	2025-07-11T00:35:36	19.2	73
126958	2025-07-11T00:45:36	19	73.5
126959	2025-07-11T00:55:35	18.8	74
126960	2025-07-11T01:05:35	18.5	75
126961	2025-07-11T01:15:35	18.3	75
126962	2025-07-11T01:25:35	18	75
126963	2025-07-11T01:35:35	17.8	76
126964	2025-07-11T01:45:35	17.7	75.5
126965	2025-07-11T01:55:36	17.4	77
126966	2025-07-11T02:05:35	17.2	77.5
126967	2025-07-11T02:15:36	17.1	77.5
126968	2025-07-11T02:25:35	16.9	78.5
126969	2025-07-11T02:35:35	16.7	79.5
126970	2025-07-11T02:45:35	16.5	79.5
126971	2025-07-11T02:55:36	16.4	80
126972	2025-07-11T03:05:35	16.3	80.5
126973	2025-07-11T03:15:35	16.3	80
126974	2025-07-11T03:25:35	16.6	79.5
126975	2025-07-11T03:35:35	16.3	80
126976	2025-07-11T03:45:35	16.2	80
126977	2025-07-11T03:55:35	16.2	81
126978	2025-07-11T04:05:35	16.1	81.5
126979	2025-07-11T04:15:35	16	82
126980	2025-07-11T04:25:35	16.1	81.5
126981	2025-07-11T04:35:35	16.1	81
126982	2025-07-11T04:45:35	16.4	80.5
126983	2025-07-11T04:55:35	16.7	81.5
126984	2025-07-11T05:05:35	16.9	81
126985	2025-07-11T05:15:35	17.2	80
126986	2025-07-11T05:25:35	17.3	80
126987	2025-07-11T05:35:35	17.5	78.5
126988	2025-07-11T05:45:35	17.9	79.5
126989	2025-07-11T05:55:35	18.1	78.5
126990	2025-07-11T06:05:35	18.1	78
126991	2025-07-11T06:15:35	18	78.5
126992	2025-07-11T06:25:35	18	77.5
126993	2025-07-11T06:35:35	18.5	76
126994	2025-07-11T06:45:35	19.3	72.5
126995	2025-07-11T06:55:35	19.8	70.5
126996	2025-07-11T07:05:35	19.7	69.5
126997	2025-07-11T07:15:35	19.7	70.5
126998	2025-07-11T07:25:35	19.7	70.5
126999	2025-07-11T07:35:35	20.4	69
127000	2025-07-11T07:45:35	20.8	69
127001	2025-07-11T07:55:35	21.5	65.5
127002	2025-07-11T08:05:35	21.7	64.5
127003	2025-07-11T08:15:35	22.3	62.5
127004	2025-07-11T08:25:35	22.9	60.5
127005	2025-07-11T08:35:35	23.2	60
127006	2025-07-11T08:45:35	23.6	59
127007	2025-07-11T08:55:35	23.4	58.5
127008	2025-07-11T09:05:35	23.6	57.5
127009	2025-07-11T09:15:35	24.3	56.5
127010	2025-07-11T09:25:35	24.6	56.5
127011	2025-07-11T09:35:35	25	55
127012	2025-07-11T09:45:35	24.3	55
127013	2025-07-11T09:55:35	24.4	53.5
127014	2025-07-11T10:05:35	24.7	53.5
127015	2025-07-11T10:15:35	24.9	52.5
127016	2025-07-11T10:25:35	25.1	52
127017	2025-07-11T10:35:35	25	52.5
127018	2025-07-11T10:45:35	25.1	54.5
127019	2025-07-11T10:55:35	25.2	55
127020	2025-07-11T11:05:34	25.5	55.5
127021	2025-07-11T11:15:34	25.7	53.5
127022	2025-07-11T11:25:34	26	53
127023	2025-07-11T11:35:34	26.6	52
127024	2025-07-11T11:45:34	27.6	49.5
127025	2025-07-11T11:55:34	27.1	50.5
127026	2025-07-11T12:05:34	26.6	52
127027	2025-07-11T12:15:34	33.2	40.5
127028	2025-07-11T12:25:34	35.8	34.5
127029	2025-07-11T12:35:34	33.4	36.5
127030	2025-07-11T12:45:34	37.9	31
127031	2025-07-11T12:55:34	35.6	33.5
127032	2025-07-11T13:05:34	37.2	31
127033	2025-07-11T13:15:34	32.6	37.5
127034	2025-07-11T13:25:34	33	37.5
127035	2025-07-11T13:35:34	33	37
127036	2025-07-11T13:45:34	38.3	31
127037	2025-07-11T13:55:34	39.2	29.5
127038	2025-07-11T14:05:34	35.9	32.5
127039	2025-07-11T14:15:34	32.7	36.5
127040	2025-07-11T14:25:34	37.1	32
127041	2025-07-11T14:35:34	34.2	34.5
127042	2025-07-11T14:45:34	32.4	37
127043	2025-07-11T14:55:34	34.5	33.5
127044	2025-07-11T15:05:34	33.7	35
127045	2025-07-11T15:15:34	35.8	32.5
127046	2025-07-11T15:25:34	36.3	31.5
127047	2025-07-11T15:35:34	35.9	31.5
127048	2025-07-11T15:45:34	34.1	33.5
127049	2025-07-11T15:55:34	32.9	35
127050	2025-07-11T16:05:34	32.6	35
127051	2025-07-11T16:15:34	34.1	33.5
127052	2025-07-11T16:25:34	35.4	31.5
127053	2025-07-11T16:35:34	36	30.5
127054	2025-07-11T16:45:34	35.1	31.5
127055	2025-07-11T16:55:34	35.5	31
127056	2025-07-11T17:05:34	35.3	30.5
127057	2025-07-11T17:15:34	35.9	31.5
127058	2025-07-11T17:25:34	35.5	30
127059	2025-07-11T17:35:34	34.7	30
127060	2025-07-11T17:45:34	33.4	31.5
127061	2025-07-11T17:55:34	33	31
127062	2025-07-11T18:05:34	32.8	31.5
127063	2025-07-11T18:15:34	32.4	31.5
127064	2025-07-11T18:25:34	31.7	32.5
127065	2025-07-11T18:35:34	31.3	33
127066	2025-07-11T18:45:34	30.4	34
127067	2025-07-11T18:55:34	29.3	35.5
127068	2025-07-11T19:05:34	28.4	37
127069	2025-07-11T19:15:34	27.3	39.5
127070	2025-07-11T19:25:34	26.5	41
127071	2025-07-11T19:35:34	26.2	43
127072	2025-07-11T19:45:34	25.7	44.5
127073	2025-07-11T19:55:34	25.2	46.5
127074	2025-07-11T20:05:34	24.7	49
127075	2025-07-11T20:15:34	24.2	51.5
127076	2025-07-11T20:25:34	23.8	51
127077	2025-07-11T20:35:34	23.3	53.5
127078	2025-07-11T20:45:34	23	53.5
127079	2025-07-11T20:55:34	22.7	55.5
127080	2025-07-11T21:05:34	22.2	55.5
127081	2025-07-11T21:15:33	21.9	56.5
127082	2025-07-11T21:25:33	21.6	58
127083	2025-07-11T21:35:33	21.2	59
127084	2025-07-11T21:45:33	20.8	60.5
127085	2025-07-11T21:55:33	20.4	61.5
127086	2025-07-11T22:05:33	20.2	62
127087	2025-07-11T22:15:33	19.9	63
127088	2025-07-11T22:25:33	19.6	63.5
127089	2025-07-11T22:35:33	19.5	64
127090	2025-07-11T22:45:33	19.3	65
127091	2025-07-11T22:55:33	19.1	65.5
127092	2025-07-11T23:05:33	18.7	66.5
127093	2025-07-11T23:15:33	18.7	67
127094	2025-07-11T23:25:33	18.4	68
127095	2025-07-11T23:35:33	18.2	68
127096	2025-07-11T23:45:33	17.9	68.5
127097	2025-07-11T23:55:33	17.9	69.5
127098	2025-07-12T00:05:33	17.6	70
127099	2025-07-12T00:15:33	17.4	71
127100	2025-07-12T00:25:33	17.2	72
127101	2025-07-12T00:35:33	17	73
127102	2025-07-12T00:45:33	16.8	73.5
127103	2025-07-12T00:55:33	16.7	74.5
127104	2025-07-12T01:05:33	16.5	74.5
127105	2025-07-12T01:15:33	16.4	75
127106	2025-07-12T01:25:33	16.2	75.5
127107	2025-07-12T01:35:33	16.1	76
127108	2025-07-12T01:45:33	15.9	77
127109	2025-07-12T01:55:33	15.6	77.5
127110	2025-07-12T02:05:33	15.6	78
127111	2025-07-12T02:15:33	15.6	78
127112	2025-07-12T02:25:33	15.4	78
127113	2025-07-12T02:35:33	15.4	79
127114	2025-07-12T02:45:33	15.4	79
127115	2025-07-12T02:55:33	15.6	79
127116	2025-07-12T03:05:33	15.5	79.5
127117	2025-07-12T03:15:33	15.3	80
127118	2025-07-12T03:25:33	15.3	80.5
127119	2025-07-12T03:35:33	15.3	80.5
127120	2025-07-12T03:45:33	15.3	80.5
127121	2025-07-12T03:55:33	15.3	80.5
127122	2025-07-12T04:05:33	15.3	81.5
127123	2025-07-12T04:15:33	15.4	81.5
127124	2025-07-12T04:25:33	15.6	80.5
127125	2025-07-12T04:35:33	15.3	82
127126	2025-07-12T04:45:33	15.7	82
127127	2025-07-12T04:55:33	15.8	82
127128	2025-07-12T05:05:33	15.9	81.5
127129	2025-07-12T05:15:33	16.1	81
127130	2025-07-12T05:25:33	16.1	81
127131	2025-07-12T05:35:33	16.4	80.5
127132	2025-07-12T05:45:33	16.7	79.5
127133	2025-07-12T05:55:33	17	79
127134	2025-07-12T06:05:33	17.5	78
127135	2025-07-12T06:15:33	17.8	78
127136	2025-07-12T06:25:33	18.1	77.5
127137	2025-07-12T06:35:33	18.6	76
127138	2025-07-12T06:45:33	18.7	76.5
127139	2025-07-12T06:55:33	18.9	76
127140	2025-07-12T07:05:33	19.1	72.5
127141	2025-07-12T07:15:33	19.4	71.5
127142	2025-07-12T07:25:33	19.6	71
127143	2025-07-12T07:35:33	19.7	71.5
127144	2025-07-12T07:45:33	19.9	70.5
127145	2025-07-12T07:55:33	19.9	70.5
127146	2025-07-12T08:05:33	20	71
127147	2025-07-12T08:15:33	20.2	70.5
127148	2025-07-12T08:25:32	20.3	69
127149	2025-07-12T08:35:32	20.5	69.5
127150	2025-07-12T08:45:32	20.6	68
127151	2025-07-12T08:55:32	21	67.5
127152	2025-07-12T09:05:32	21.3	66.5
127153	2025-07-12T09:15:32	21.7	66.5
127154	2025-07-12T09:25:32	21.9	63.5
127155	2025-07-12T09:35:32	22.4	62.5
127156	2025-07-12T09:45:32	22.4	58.5
127157	2025-07-12T09:55:32	22.9	58.5
127158	2025-07-12T10:05:32	23.4	54.5
127159	2025-07-12T10:15:32	23.4	55.5
127160	2025-07-12T10:25:32	23.8	54
127161	2025-07-12T10:35:32	24.1	52.5
127162	2025-07-12T10:45:32	24.3	51
127163	2025-07-12T10:55:32	24.5	51
127164	2025-07-12T11:05:32	24.9	51
127165	2025-07-12T11:15:32	25.2	48
127166	2025-07-12T11:25:32	25.8	47.5
127167	2025-07-12T11:35:32	26.3	50.5
127168	2025-07-12T11:45:32	26.4	49.5
127169	2025-07-12T11:55:32	26.1	49
127170	2025-07-12T12:05:32	26.5	45.5
127171	2025-07-12T12:15:32	29	40
127172	2025-07-12T12:25:32	34.5	32.5
127173	2025-07-12T12:35:32	33.3	32
127174	2025-07-12T12:45:32	31.6	36
127175	2025-07-12T12:55:32	34.8	30
127176	2025-07-12T13:05:32	35.6	29.5
127177	2025-07-12T13:15:32	35.3	28.5
127178	2025-07-12T13:25:32	34.1	31
127179	2025-07-12T13:35:32	36.3	29.5
127180	2025-07-12T13:45:32	35.4	30
127181	2025-07-12T13:55:32	34.7	27.5
127182	2025-07-12T14:05:32	35.5	28
127183	2025-07-12T14:15:32	33.6	31
127184	2025-07-12T14:25:32	34.3	29
127185	2025-07-12T14:35:32	33.6	29.5
127186	2025-07-12T14:45:32	32.6	31
127187	2025-07-12T14:55:32	32.9	30.5
127188	2025-07-12T15:05:32	35.6	28.5
127189	2025-07-12T15:15:32	36.6	27.5
127190	2025-07-12T15:25:32	36.1	28.5
127191	2025-07-12T15:35:32	33.9	30.5
127192	2025-07-12T15:45:32	32.9	32.5
127193	2025-07-12T15:55:32	31.9	33.5
127194	2025-07-12T16:05:32	30.8	34.5
127195	2025-07-12T16:15:32	30.6	34.5
127196	2025-07-12T16:25:32	32.7	34
127197	2025-07-12T16:35:32	34	31
127198	2025-07-12T16:45:32	34.1	30.5
127199	2025-07-12T16:55:32	34.9	29.5
127200	2025-07-12T17:05:32	34.2	31
127201	2025-07-12T17:15:32	35.1	30.5
127202	2025-07-12T17:25:32	35.9	29.5
127203	2025-07-12T17:35:32	35	29
127204	2025-07-12T17:45:32	33.4	31
127205	2025-07-12T17:55:32	32.8	33.5
127206	2025-07-12T18:05:32	31.4	34
127207	2025-07-12T18:15:32	30.6	35
127208	2025-07-12T18:25:32	30.2	36
127209	2025-07-12T18:35:32	30	37
127210	2025-07-12T18:45:31	29.5	41
127211	2025-07-12T18:55:31	29	44
127212	2025-07-12T19:05:31	28.4	45.5
127213	2025-07-12T19:15:31	27.9	46
127214	2025-07-12T19:25:31	27.1	47
127215	2025-07-12T19:35:31	26.5	47.5
127216	2025-07-12T19:45:32	25.9	49
127217	2025-07-12T19:55:31	25.6	50
127218	2025-07-12T20:05:32	24.9	51.5
127219	2025-07-12T20:15:31	24.5	52.5
127220	2025-07-12T20:25:31	24.3	53
127221	2025-07-12T20:35:31	23.8	54
127222	2025-07-12T20:45:31	23.2	55
127223	2025-07-12T20:55:31	23.1	57
127224	2025-07-12T21:05:31	22.7	58.5
127225	2025-07-12T21:15:31	22.3	59
127226	2025-07-12T21:25:31	22.2	59.5
127227	2025-07-12T21:35:31	21.9	60.5
127228	2025-07-12T21:45:31	21.5	61
127229	2025-07-12T21:55:31	21.2	61
127230	2025-07-12T22:05:31	20.9	63
127231	2025-07-12T22:15:31	20.6	63
127232	2025-07-12T22:25:31	20.4	65
127233	2025-07-12T22:35:31	20.4	65.5
127234	2025-07-12T22:45:31	20	67
127235	2025-07-12T22:55:31	19.9	67.5
127236	2025-07-12T23:05:31	19.5	68
127237	2025-07-12T23:15:31	19.4	68
127238	2025-07-12T23:25:31	19.3	69.5
127239	2025-07-12T23:35:31	18.8	70.5
127240	2025-07-12T23:45:31	18.6	70.5
127241	2025-07-12T23:55:31	18.5	71
127242	2025-07-13T00:05:31	18.4	71.5
127243	2025-07-13T00:15:31	18.1	72.5
127244	2025-07-13T00:25:31	18	72.5
127245	2025-07-13T00:35:31	17.9	73.5
127246	2025-07-13T00:45:31	17.6	74.5
127247	2025-07-13T00:55:31	17.5	75
127248	2025-07-13T01:05:31	17.2	75
127249	2025-07-13T01:15:31	17.1	75
127250	2025-07-13T01:25:31	17	75.5
127251	2025-07-13T01:35:31	16.8	76
127252	2025-07-13T01:45:31	16.6	77
127253	2025-07-13T01:55:31	16.4	78
127254	2025-07-13T02:05:31	16.3	78.5
127255	2025-07-13T02:15:31	16.2	78.5
127256	2025-07-13T02:25:31	16	79.5
127257	2025-07-13T02:35:31	16	79.5
127258	2025-07-13T02:45:31	15.9	79.5
127259	2025-07-13T02:55:31	15.7	79.5
127260	2025-07-13T03:05:31	15.6	80.5
127261	2025-07-13T03:15:31	15.3	81.5
127262	2025-07-13T03:25:31	14.9	82.5
127263	2025-07-13T03:35:31	15.1	82.5
127264	2025-07-13T03:45:31	15	82
127265	2025-07-13T03:55:31	15	83
127266	2025-07-13T04:05:31	15	83
127267	2025-07-13T04:15:31	14.9	82.5
127268	2025-07-13T04:25:31	15	82
127269	2025-07-13T04:35:31	14.9	81.5
127270	2025-07-13T04:45:31	15	82.5
127271	2025-07-13T04:55:31	15.1	82.5
127272	2025-07-13T05:05:31	15	82.5
127273	2025-07-13T05:15:31	15.1	82.5
127274	2025-07-13T05:25:31	15.4	83.5
127275	2025-07-13T05:35:30	15.7	84
127276	2025-07-13T05:45:48	16	83.5
127277	2025-07-13T05:55:30	16.2	82.5
127278	2025-07-13T06:05:30	16.6	82
127279	2025-07-13T06:15:30	17.1	80
127280	2025-07-13T06:25:30	17.3	78.5
127281	2025-07-13T06:35:30	17.8	76
127282	2025-07-13T06:45:30	18.7	69.5
127283	2025-07-13T06:55:30	19.3	68
127284	2025-07-13T07:05:30	19.9	66
127285	2025-07-13T07:15:30	20.1	65
127286	2025-07-13T07:25:30	20.5	63.5
127287	2025-07-13T07:35:30	20.7	63
127288	2025-07-13T07:45:30	20.9	63.5
127289	2025-07-13T07:55:30	21.4	61.5
127290	2025-07-13T08:05:30	21.8	59
127291	2025-07-13T08:15:30	21.8	58
127292	2025-07-13T08:25:30	22.1	59
127293	2025-07-13T08:35:30	22.3	58
127294	2025-07-13T08:45:30	22.8	56.5
127295	2025-07-13T08:55:30	23	54.5
127296	2025-07-13T09:05:30	23.4	51.5
127297	2025-07-13T09:15:30	23.8	48
127298	2025-07-13T09:25:30	24.1	50
127299	2025-07-13T09:35:30	24.1	50
127300	2025-07-13T09:45:30	24.6	49
127301	2025-07-13T09:55:30	24.7	48.5
127302	2025-07-13T10:05:30	24.9	47
127303	2025-07-13T10:15:30	25.1	47.5
127304	2025-07-13T10:25:30	25.4	47
127305	2025-07-13T10:35:30	25.7	46.5
127306	2025-07-13T10:45:30	26.2	45
127307	2025-07-13T10:55:30	26.2	46
127308	2025-07-13T11:05:30	26.8	45
127309	2025-07-13T11:15:30	27.3	42.5
127310	2025-07-13T11:25:30	27.1	43.5
127311	2025-07-13T11:35:30	27.1	43
127312	2025-07-13T11:45:30	27.8	43
127313	2025-07-13T11:55:30	27.9	43
127314	2025-07-13T12:05:50	28.7	42
127315	2025-07-13T12:15:30	33.2	34.5
127316	2025-07-13T12:25:30	33.8	33
127317	2025-07-13T12:35:30	34.8	31.5
127318	2025-07-13T12:45:30	35.1	31.5
127319	2025-07-13T12:55:30	32.6	35.5
127320	2025-07-13T13:05:30	35.6	31
127321	2025-07-13T13:15:30	36.4	30
127322	2025-07-13T13:25:30	36.9	29
127323	2025-07-13T13:35:30	37.2	29.5
127324	2025-07-13T13:45:30	39.1	27.5
127325	2025-07-13T13:55:30	36	30.5
127326	2025-07-13T14:05:30	37.9	29
127327	2025-07-13T14:15:30	40.1	27
127328	2025-07-13T14:25:30	40.8	26
127329	2025-07-13T14:35:30	38.9	27
127330	2025-07-13T14:45:30	39.3	27
127331	2025-07-13T14:55:30	39.9	27
127332	2025-07-13T15:05:30	38	27.5
127333	2025-07-13T15:15:30	38.4	28.5
127334	2025-07-13T15:25:30	38.8	26.5
127335	2025-07-13T15:35:30	36.9	29
127336	2025-07-13T15:45:30	38.4	27.5
127337	2025-07-13T15:55:30	38.9	27
127338	2025-07-13T16:05:29	38	28
127339	2025-07-13T16:15:29	38.3	27.5
127340	2025-07-13T16:25:30	38.4	27.5
127341	2025-07-13T16:35:29	39.1	27
127342	2025-07-13T16:45:29	39	26.5
127343	2025-07-13T16:55:29	39.4	27
127344	2025-07-13T17:05:29	39.5	27
127345	2025-07-13T17:15:29	39.4	26
127346	2025-07-13T17:25:29	37.8	27
127347	2025-07-13T17:35:29	37.8	27.5
127348	2025-07-13T17:45:29	37.4	27.5
127349	2025-07-13T18:05:29	36.8	29.5
127350	2025-07-13T18:15:29	34.5	31.5
127351	2025-07-13T18:25:29	34.8	33.5
127352	2025-07-13T18:35:29	34.9	36
127353	2025-07-13T18:45:29	33.5	38.5
127354	2025-07-13T18:55:29	33.6	38
127355	2025-07-13T19:05:29	32.5	39
127356	2025-07-13T19:15:29	31.7	40.5
127357	2025-07-13T19:25:29	30.8	41.5
127358	2025-07-13T19:35:29	30.2	44
127359	2025-07-13T19:45:29	29.7	43
127360	2025-07-13T19:55:29	29.2	46.5
127361	2025-07-13T20:05:29	28.7	48.5
127362	2025-07-13T20:15:29	28.5	48
127363	2025-07-13T20:25:29	27	50
127364	2025-07-13T20:35:29	26.5	53
127365	2025-07-13T20:45:29	26.3	52.5
127366	2025-07-13T20:55:29	25.9	55
127367	2025-07-13T21:05:29	26	55
127368	2025-07-13T21:15:29	25.8	56
127369	2025-07-13T21:25:29	25.6	56.5
127370	2025-07-13T21:35:29	25.3	57
127371	2025-07-13T21:45:29	25	57.5
127372	2025-07-13T21:55:29	25	58
127373	2025-07-13T22:05:29	24.6	60
127374	2025-07-13T22:15:29	24.3	61
127375	2025-07-13T22:25:29	24	61.5
127376	2025-07-13T22:35:29	23.8	62
127377	2025-07-13T22:45:29	23.5	63.5
127378	2025-07-13T22:55:29	23.1	64.5
127379	2025-07-13T23:05:29	22.8	65
127380	2025-07-13T23:15:29	22.6	66
127381	2025-07-13T23:25:29	22.4	67
127382	2025-07-13T23:35:29	22.1	66.5
127383	2025-07-13T23:45:29	21.8	67.5
127384	2025-07-13T23:55:29	21.4	69
127385	2025-07-14T00:05:29	21.3	69.5
127386	2025-07-14T00:15:29	21.2	70
127387	2025-07-14T00:25:29	21.1	70.5
127388	2025-07-14T00:35:29	20.6	71.5
127389	2025-07-14T00:45:29	20.7	71.5
127390	2025-07-14T00:55:29	19.8	75.5
127391	2025-07-14T01:05:29	19.7	77
127392	2025-07-14T01:15:29	19.9	77
127393	2025-07-14T01:25:29	19.9	76
127394	2025-07-14T01:35:29	19.7	76.5
127395	2025-07-14T01:45:29	19.6	77
127396	2025-07-14T01:55:29	19.2	78
127397	2025-07-14T02:05:29	19.2	79
127398	2025-07-14T02:15:29	19.3	78.5
127399	2025-07-14T02:25:28	19.2	79
127400	2025-07-14T02:35:28	19	80
127401	2025-07-14T02:45:28	19.1	80
127402	2025-07-14T02:55:28	19	81
127403	2025-07-14T03:05:28	19.1	81.5
127404	2025-07-14T03:15:28	19.2	81.5
127405	2025-07-14T03:25:28	19.3	82
127406	2025-07-14T03:35:28	19.2	82
127407	2025-07-14T03:45:28	19.3	81.5
127408	2025-07-14T03:55:28	19.5	81
127409	2025-07-14T04:05:28	19.7	80
127410	2025-07-14T04:15:28	20.1	79
127411	2025-07-14T04:25:28	20.4	78
127412	2025-07-14T04:35:28	20.7	77
127413	2025-07-14T04:45:28	21	75.5
127414	2025-07-14T04:55:28	21.2	75.5
127415	2025-07-14T05:05:28	21.3	75.5
127416	2025-07-14T05:15:28	21.4	75.5
127417	2025-07-14T05:25:28	21.3	76.5
127418	2025-07-14T05:35:28	21.3	76
127419	2025-07-14T05:45:28	21.5	75.5
127420	2025-07-14T05:55:28	21.7	76
127421	2025-07-14T06:05:28	21.7	76.5
127422	2025-07-14T06:15:28	21.4	78.5
127423	2025-07-14T06:25:28	20.6	82
127424	2025-07-14T06:35:28	21.3	79.5
127425	2025-07-14T06:45:28	21.7	78.5
127426	2025-07-14T06:55:28	22.2	76.5
127427	2025-07-14T07:05:28	22.4	75
127428	2025-07-14T07:15:28	22.8	73.5
127429	2025-07-14T07:25:28	23.4	71.5
127430	2025-07-14T07:35:28	24	69
127431	2025-07-14T07:55:28	24	68.5
127432	2025-07-14T08:05:28	23.9	68.5
127433	2025-07-14T08:15:28	23.9	69
127434	2025-07-14T08:25:28	24.2	68
127435	2025-07-14T08:35:28	24.6	67.5
127436	2025-07-14T08:45:28	24.5	67
127437	2025-07-14T08:55:28	24.4	67.5
127438	2025-07-14T09:05:28	24.8	66.5
127439	2025-07-14T09:15:28	25	65.5
127440	2025-07-14T09:25:28	24.5	68
127441	2025-07-14T09:35:28	23.4	75
127442	2025-07-14T09:45:28	23.7	74.5
127443	2025-07-14T09:55:28	24.2	74
127444	2025-07-14T10:05:28	24.5	72.5
127445	2025-07-14T10:15:28	24.8	71.5
127446	2025-07-14T10:25:28	25.4	69.5
127447	2025-07-14T10:35:28	25.3	68
127448	2025-07-14T10:45:28	24.2	87
127449	2025-07-14T10:55:28	21.6	100
127450	2025-07-14T11:05:28	20	100
127451	2025-07-14T11:15:28	19.6	100
127452	2025-07-14T11:25:28	19.4	100
127453	2025-07-14T11:35:28	19.6	100
127454	2025-07-14T11:45:28	20.4	100
127455	2025-07-14T11:55:28	20.1	100
127456	2025-07-14T12:05:28	20.2	100
127457	2025-07-14T12:15:28	20.1	100
127458	2025-07-14T12:25:28	20.4	100
127459	2025-07-14T12:35:28	21.6	100
127460	2025-07-14T12:45:27	21.6	100
127461	2025-07-14T12:55:27	20.9	100
127462	2025-07-14T13:05:27	20.2	100
127463	2025-07-14T13:15:27	19.6	100
127464	2025-07-14T13:35:27	18.6	97
127465	2025-07-14T13:45:27	18.6	96
127466	2025-07-14T14:05:27	21.4	95
127467	2025-07-14T14:15:27	22	95
127468	2025-07-14T14:25:27	23	95.5
127469	2025-07-14T14:35:27	22.7	95
127470	2025-07-14T14:45:27	23.2	95.5
127471	2025-07-14T14:55:27	22.8	95.5
127472	2025-07-14T15:05:27	24.7	95.5
127473	2025-07-14T15:15:27	23.4	95.5
127474	2025-07-14T15:25:27	22.7	95.5
127475	2025-07-14T15:35:27	22.6	95.5
127476	2025-07-14T15:45:27	23.9	95.5
127477	2025-07-14T15:55:27	26.5	95.5
127478	2025-07-14T16:05:27	27.1	95.5
127479	2025-07-14T16:15:27	27.5	95.5
127480	2025-07-14T16:25:27	27.1	95.5
127481	2025-07-14T16:35:27	25.2	95.5
127482	2025-07-14T16:45:27	24.2	95.5
127483	2025-07-14T16:55:27	23.8	95.5
127484	2025-07-14T17:05:27	23.7	95.5
127485	2025-07-14T17:15:27	23.2	95.5
127486	2025-07-14T17:25:27	22.7	95.5
127487	2025-07-14T17:35:27	22.6	95.5
127488	2025-07-14T17:45:27	22.7	95.5
127489	2025-07-14T17:55:27	23	95.5
127490	2025-07-14T18:05:27	23.9	95.5
127491	2025-07-14T18:15:27	24.2	96
127492	2025-07-14T18:25:27	24.3	96
127493	2025-07-14T18:35:27	24.3	96
127494	2025-07-14T18:45:27	23.5	96
127495	2025-07-14T18:55:27	22.7	96
127496	2025-07-14T19:05:27	22.2	96
127497	2025-07-14T19:15:27	21.6	96
127498	2025-07-14T19:25:27	21.4	96
127499	2025-07-14T19:35:27	20.9	96
127500	2025-07-14T19:45:27	20.6	96
127501	2025-07-14T19:55:27	20.4	96
127502	2025-07-14T20:05:27	20.2	96
127503	2025-07-14T20:15:27	19.9	96
127504	2025-07-14T20:25:27	20	96
127505	2025-07-14T20:35:27	19.8	96.5
127506	2025-07-14T20:45:27	19.6	96.5
127507	2025-07-14T20:55:27	19.4	96.5
127508	2025-07-14T21:05:27	19.2	96
127509	2025-07-14T21:15:27	19	96.5
127510	2025-07-14T21:25:27	19	96.5
127511	2025-07-14T21:35:27	19	96.5
127512	2025-07-14T21:45:27	18.8	96.5
127513	2025-07-14T21:55:27	18.7	96.5
127514	2025-07-14T22:05:27	18.5	96.5
127515	2025-07-14T22:15:27	18.4	96.5
127516	2025-07-14T22:25:27	18.3	96.5
127517	2025-07-14T22:35:27	18.1	96.5
127518	2025-07-14T22:45:27	18.1	96.5
127519	2025-07-14T22:55:26	17.9	96.5
127520	2025-07-14T23:05:26	17.9	96.5
127521	2025-07-14T23:15:26	17.6	96.5
127522	2025-07-14T23:25:26	17.5	96.5
127523	2025-07-14T23:35:26	17.4	96.5
127524	2025-07-14T23:45:26	17.4	96.5
127525	2025-07-14T23:55:26	17.3	96.5
127526	2025-07-15T00:05:26	17.3	96.5
127527	2025-07-15T00:15:26	17.1	96.5
127528	2025-07-15T00:25:26	16.9	96.5
127529	2025-07-15T00:35:26	16.8	96.5
127530	2025-07-15T00:45:26	16.7	96.5
127531	2025-07-15T00:55:26	16.6	96.5
127532	2025-07-15T01:05:26	16.5	96.5
127533	2025-07-15T01:15:26	16.4	96.5
127534	2025-07-15T01:25:26	16.4	96.5
127535	2025-07-15T01:35:26	16.3	96.5
127536	2025-07-15T01:45:26	16.3	96.5
127537	2025-07-15T01:55:26	16.2	96.5
127538	2025-07-15T02:05:26	16.1	96.5
127539	2025-07-15T02:15:26	16.2	96.5
127540	2025-07-15T02:25:26	16.1	97
127541	2025-07-15T02:35:26	15.9	96.5
127542	2025-07-15T02:45:26	15.9	96.5
127543	2025-07-15T02:55:26	15.9	96.5
127544	2025-07-15T03:05:26	15.8	97
127545	2025-07-15T03:15:26	15.7	96.5
127546	2025-07-15T03:25:26	15.7	96.5
127547	2025-07-15T03:35:26	15.9	96.5
127548	2025-07-15T03:45:26	15.9	96.5
127549	2025-07-15T03:55:26	15.9	96.5
127550	2025-07-15T04:05:26	15.9	96.5
127551	2025-07-15T04:15:26	15.9	96.5
127552	2025-07-15T04:25:26	15.8	96.5
127553	2025-07-15T04:35:26	15.7	96.5
127554	2025-07-15T04:45:26	15.9	97
127555	2025-07-15T04:55:26	16	97
127556	2025-07-15T05:05:26	16	96.5
127557	2025-07-15T05:15:26	16.4	97
127558	2025-07-15T05:25:26	16.6	97
127559	2025-07-15T05:35:26	16.8	97
127560	2025-07-15T05:45:26	17.2	96.5
127561	2025-07-15T05:55:26	17.3	96.5
127562	2025-07-15T06:05:26	17.6	97
127563	2025-07-15T06:15:26	18.2	96.5
127564	2025-07-15T06:25:26	19.2	96.5
127565	2025-07-15T06:35:26	20.2	97
127566	2025-07-15T06:45:26	20.6	97
127567	2025-07-15T06:55:26	20.8	96.5
127568	2025-07-15T07:05:26	20.9	96.5
127569	2025-07-15T07:15:26	21.3	97
127570	2025-07-15T07:25:26	21.2	97
127571	2025-07-15T07:35:26	21.4	97
127572	2025-07-15T07:45:26	21.4	97
127573	2025-07-15T07:55:26	21.6	97
127574	2025-07-15T08:05:26	21.9	96.5
127575	2025-07-15T08:15:26	22.5	100
127576	2025-07-15T08:25:26	22.7	100
127577	2025-07-15T08:35:26	22.6	100
127578	2025-07-15T08:45:26	22.7	100
127579	2025-07-15T08:55:26	22.9	100
127580	2025-07-15T09:05:26	22.9	100
127581	2025-07-15T09:15:26	23.6	96.5
127582	2025-07-15T09:25:26	24	69
127583	2025-07-15T09:35:26	24.2	68
127584	2025-07-15T09:45:26	24.2	68
127585	2025-07-15T09:55:25	25.1	64
127586	2025-07-15T10:05:25	25.1	65.5
127587	2025-07-15T10:15:25	25.1	63.5
127588	2025-07-15T10:25:25	25.3	62
127589	2025-07-15T10:35:25	25.5	58.5
127590	2025-07-15T10:45:25	25.2	57
127591	2025-07-15T10:55:25	25.3	55.5
127592	2025-07-15T11:05:25	25.6	57
127593	2025-07-15T11:15:25	25.9	56.5
127594	2025-07-15T11:25:25	25.9	54.5
127595	2025-07-15T11:35:48	26.4	54.5
127596	2025-07-15T11:45:25	26.1	56
127597	2025-07-15T11:55:25	26.8	55.5
127598	2025-07-15T12:05:26	27.2	51.5
127599	2025-07-15T12:15:25	28.2	49
127600	2025-07-15T12:25:25	27.6	50
127601	2025-07-15T12:35:25	27.1	51.5
127602	2025-07-15T12:45:25	28.2	46.5
127603	2025-07-15T12:55:25	27.8	47.5
127604	2025-07-15T13:05:25	28	50
127605	2025-07-15T13:15:25	30.3	44.5
127606	2025-07-15T13:25:25	31	42
127607	2025-07-15T13:35:25	30.1	44.5
127608	2025-07-15T13:45:25	30	44
127609	2025-07-15T13:55:25	30	44
127610	2025-07-15T14:05:25	30.3	42.5
127611	2025-07-15T14:15:25	30	41.5
127612	2025-07-15T14:25:25	29.5	44
127613	2025-07-15T14:35:25	28.3	47.5
127614	2025-07-15T14:45:25	27.9	47.5
127615	2025-07-15T14:55:25	28.2	47
127616	2025-07-15T15:05:25	29	45.5
127617	2025-07-15T15:15:25	28.3	46.5
127618	2025-07-15T15:25:25	28.1	45.5
127619	2025-07-15T15:35:25	27.7	47
127620	2025-07-15T15:45:25	27.2	47
127621	2025-07-15T15:55:25	27.1	48
127622	2025-07-15T16:05:25	26.6	49
127623	2025-07-15T16:15:25	26.6	49
127624	2025-07-15T16:25:25	26.6	48
127625	2025-07-15T16:35:25	26.2	48.5
127626	2025-07-15T16:45:25	26.2	48.5
127627	2025-07-15T16:55:25	26	49
127628	2025-07-15T17:05:25	25.7	48.5
127629	2025-07-15T17:15:25	25.5	49.5
127630	2025-07-15T17:25:25	25.1	51
127631	2025-07-15T17:35:25	24.8	51
127632	2025-07-15T17:45:25	24.6	51.5
127633	2025-07-15T17:55:25	24.5	52
127634	2025-07-15T18:05:25	24.2	53
127635	2025-07-15T18:15:25	23.9	53.5
127636	2025-07-15T18:25:25	23.6	54.5
127637	2025-07-15T18:35:25	23.4	55.5
127638	2025-07-15T18:45:25	23.2	55.5
127639	2025-07-15T18:55:25	23.1	57
127640	2025-07-15T19:05:25	22.7	58
127641	2025-07-15T19:15:25	22.4	59
127642	2025-07-15T19:35:25	22	59.5
127643	2025-07-15T19:45:25	21.9	63
127644	2025-07-15T19:55:24	21.7	64
127645	2025-07-15T20:05:25	21.4	64.5
127646	2025-07-15T20:15:24	21.4	64
127647	2025-07-15T20:25:24	21.3	63.5
127648	2025-07-15T20:35:24	21.3	64.5
127649	2025-07-15T20:45:24	21	67
127650	2025-07-15T20:55:24	20.8	68
127651	2025-07-15T21:05:24	20.6	69
127652	2025-07-15T21:15:24	20.5	68
127653	2025-07-15T21:25:25	20.4	69
127654	2025-07-15T21:35:24	20	71
127655	2025-07-15T21:45:24	19.9	70.5
127656	2025-07-15T21:55:24	19.6	70
127657	2025-07-15T22:05:24	19.4	70
127658	2025-07-15T22:15:24	19.3	72.5
127659	2025-07-15T22:25:24	19.2	72
127660	2025-07-15T22:35:24	19.1	73
127661	2025-07-15T22:45:24	19.1	75.5
127662	2025-07-15T22:55:24	19.1	73.5
127663	2025-07-15T23:05:24	19	74.5
127664	2025-07-15T23:15:24	19.1	74
127665	2025-07-15T23:25:24	19	75.5
127666	2025-07-15T23:35:24	18.9	74.5
127667	2025-07-15T23:45:24	18.9	75
127668	2025-07-15T23:55:24	18.9	75
127669	2025-07-16T00:05:24	18.8	75.5
127670	2025-07-16T00:15:24	18.7	76.5
127671	2025-07-16T00:25:24	18.5	76
127672	2025-07-16T00:35:24	18.5	77
127673	2025-07-16T00:45:24	18.4	77.5
127674	2025-07-16T00:55:24	18.4	78.5
127675	2025-07-16T01:05:24	18.3	79.5
127676	2025-07-16T01:15:24	18.4	79.5
127677	2025-07-16T01:25:24	18.3	80
127678	2025-07-16T01:35:24	18.2	80
127679	2025-07-16T01:45:24	18.3	80
127680	2025-07-16T01:55:24	18.1	79
127681	2025-07-16T02:05:24	18.1	80
127682	2025-07-16T02:15:24	17.9	80
127683	2025-07-16T02:25:24	17.7	79.5
127684	2025-07-16T02:35:24	17.6	78.5
127685	2025-07-16T02:45:24	17.5	79.5
127686	2025-07-16T02:55:24	17.4	80
127687	2025-07-16T03:05:24	17.3	80
127688	2025-07-16T03:15:24	17.2	79
127689	2025-07-16T03:25:24	17.2	79.5
127690	2025-07-16T03:35:24	17.1	80
127691	2025-07-16T03:45:24	17.1	81
127692	2025-07-16T03:55:24	17	80
127693	2025-07-16T04:05:24	17.1	78.5
127694	2025-07-16T04:15:24	17.2	78.5
127695	2025-07-16T04:25:24	17.2	78.5
127696	2025-07-16T04:35:24	17.4	80.5
127697	2025-07-16T04:45:24	17.3	80
127698	2025-07-16T04:55:24	17.6	79
127699	2025-07-16T05:05:24	17.6	76
127700	2025-07-16T05:15:24	17.9	72.5
127701	2025-07-16T05:25:24	18.3	70
127702	2025-07-16T05:35:24	17.9	74.5
127703	2025-07-16T05:45:24	18.5	69.5
127704	2025-07-16T05:55:24	18.7	68.5
127705	2025-07-16T06:05:24	19	68
127706	2025-07-16T06:15:24	19.3	68
127707	2025-07-16T06:25:24	19.5	67.5
127708	2025-07-16T06:35:23	19.7	67
127709	2025-07-16T06:45:23	20.2	64
127710	2025-07-16T06:55:23	20.2	63.5
127711	2025-07-16T07:05:23	20.4	62
127712	2025-07-16T07:15:23	21	61.5
127713	2025-07-16T07:25:23	21.1	61.5
127714	2025-07-16T07:35:23	21.2	61.5
127715	2025-07-16T07:45:23	21.2	60.5
127716	2025-07-16T07:55:23	21.3	60.5
127717	2025-07-16T08:05:23	22.1	58.5
127718	2025-07-16T08:15:23	22.4	57
127719	2025-07-16T08:25:23	22.6	56
127720	2025-07-16T08:35:23	22.8	55.5
127721	2025-07-16T08:45:23	22.9	55.5
127722	2025-07-16T08:55:23	22.8	54
127723	2025-07-16T09:05:23	21.6	61.5
127724	2025-07-16T09:15:23	21.5	60
127725	2025-07-16T09:25:23	21.4	60
127726	2025-07-16T09:35:23	21.2	61.5
127727	2025-07-16T09:45:23	20.3	72
127728	2025-07-16T09:55:23	18.3	85.5
127729	2025-07-16T10:05:23	18.9	73.5
127730	2025-07-16T10:15:23	19	82.5
127731	2025-07-16T10:25:23	17.9	97
127732	2025-07-16T10:35:23	18.5	99
127733	2025-07-16T10:45:23	17.8	99.5
127734	2025-07-16T10:55:23	17.8	100
127735	2025-07-16T11:05:23	17.9	100
127736	2025-07-16T11:15:23	17.8	100
127737	2025-07-16T11:25:23	17.9	100
127738	2025-07-16T11:35:23	17.6	100
127739	2025-07-16T11:45:23	17.7	100
127740	2025-07-16T11:55:23	17.7	100
127741	2025-07-16T12:05:23	17.8	100
127742	2025-07-16T12:15:23	17.9	100
127743	2025-07-16T12:25:23	18.1	100
127744	2025-07-16T12:35:23	18.5	100
127745	2025-07-16T12:45:23	19	100
127746	2025-07-16T12:55:23	19.6	100
127747	2025-07-16T13:05:23	21.8	100
127748	2025-07-16T13:15:23	19.6	100
127749	2025-07-16T13:25:23	19.1	100
127750	2025-07-16T13:35:23	18.5	100
127751	2025-07-16T13:45:23	18.7	100
127752	2025-07-16T13:55:23	19.1	100
127753	2025-07-16T14:05:23	19.1	100
127754	2025-07-16T14:15:23	18.8	100
127755	2025-07-16T14:25:23	17.6	100
127756	2025-07-16T14:35:23	17.9	100
127757	2025-07-16T14:45:23	16.3	100
127758	2025-07-16T14:55:23	16	100
127759	2025-07-16T15:05:23	15.9	100
127760	2025-07-16T15:15:23	16.6	100
127761	2025-07-16T15:25:23	17.2	100
127762	2025-07-16T15:35:23	17.1	100
127763	2025-07-16T15:45:23	17.1	100
127764	2025-07-16T15:55:23	16.9	100
127765	2025-07-16T16:05:23	16.5	100
127766	2025-07-16T16:15:23	17	100
127767	2025-07-16T16:25:23	18.4	100
127768	2025-07-16T16:35:23	20	100
127769	2025-07-16T16:45:23	20	100
127770	2025-07-16T16:55:23	20.4	100
127771	2025-07-16T17:05:23	19.1	100
127772	2025-07-16T17:15:22	18.6	100
127773	2025-07-16T18:02:10	18.5	100
127774	2025-07-16T18:02:10	18.5	100
127775	2025-07-16T18:02:11	18.5	100
127776	2025-07-16T18:02:11	19.2	100
127777	2025-07-16T18:05:22	19.1	100
127778	2025-07-16T18:15:22	19.3	99
127779	2025-07-16T18:25:22	19.3	98.5
127780	2025-07-16T18:35:22	18.6	97.5
127781	2025-07-16T18:45:22	18.7	96.5
127782	2025-07-16T18:55:22	18.1	96
127783	2025-07-16T19:05:22	17.7	96
127784	2025-07-16T19:15:22	17.6	96
127785	2025-07-16T19:25:23	17.3	96
127786	2025-07-16T19:35:22	17.1	96
127787	2025-07-16T19:45:22	17	96
127788	2025-07-16T19:55:22	16.9	96
127789	2025-07-16T20:05:22	16.9	96
127790	2025-07-16T20:15:22	17	96
127791	2025-07-16T20:25:22	17.1	96
127792	2025-07-16T20:35:22	17.2	96
127793	2025-07-16T20:45:22	17.2	96
127794	2025-07-16T20:55:22	17.2	96.5
127795	2025-07-16T21:05:22	17.2	96
127796	2025-07-16T21:15:22	16.9	96.5
127797	2025-07-16T21:25:22	16.5	96.5
127798	2025-07-16T21:35:22	16.4	96.5
127799	2025-07-16T21:45:22	16.2	96.5
127800	2025-07-16T21:55:22	15.9	96.5
127801	2025-07-16T22:05:22	15.9	96.5
127802	2025-07-16T22:15:22	15.9	96.5
127803	2025-07-16T22:25:22	15.8	96.5
127804	2025-07-16T22:35:22	15.6	96.5
127805	2025-07-16T22:45:22	15.7	96.5
127806	2025-07-16T22:55:22	15.9	96.5
127807	2025-07-16T23:05:22	15.7	96.5
127808	2025-07-16T23:15:22	15.9	96.5
127809	2025-07-16T23:25:22	15.9	96.5
127810	2025-07-16T23:35:22	16	96.5
127811	2025-07-16T23:45:22	16.1	96.5
127812	2025-07-16T23:55:22	16	96.5
127813	2025-07-17T00:05:22	15.9	96.5
127814	2025-07-17T00:15:22	16.1	96.5
127815	2025-07-17T00:25:22	16.1	96.5
127816	2025-07-17T00:35:22	16.1	96.5
127817	2025-07-17T00:45:22	16	96.5
127818	2025-07-17T00:55:22	15.9	96.5
127819	2025-07-17T01:05:22	15.9	96.5
127820	2025-07-17T01:15:22	15.8	96.5
127821	2025-07-17T01:25:22	15.8	96.5
127822	2025-07-17T01:35:22	15.9	96.5
127823	2025-07-17T01:45:22	15.8	96.5
127824	2025-07-17T01:55:22	15.8	96.5
127825	2025-07-17T02:05:22	15.6	97
127826	2025-07-17T02:15:22	15.5	97
127827	2025-07-17T02:25:22	15.3	96.5
127828	2025-07-17T02:35:22	15.2	96.5
127829	2025-07-17T02:45:22	15.2	96.5
127830	2025-07-17T02:55:22	15.3	97
127831	2025-07-17T03:05:22	15.1	97
127832	2025-07-17T03:25:22	14.7	96.5
127833	2025-07-17T03:35:22	14.6	97
127834	2025-07-17T03:45:22	14.4	97
127835	2025-07-17T03:55:22	14.3	97
127836	2025-07-17T04:05:37	14.2	96.5
127837	2025-07-17T04:15:22	14.2	97
127838	2025-07-17T04:25:22	14.2	97
127839	2025-07-17T04:35:22	14.3	96.5
127840	2025-07-17T04:45:22	14.4	97
127841	2025-07-17T04:55:21	14.5	96.5
127842	2025-07-17T05:05:21	14.6	97
127843	2025-07-17T05:15:21	14.7	97
127844	2025-07-17T05:25:21	15	97
127845	2025-07-17T05:35:21	15.1	97
127846	2025-07-17T05:45:21	15.2	97
127847	2025-07-17T05:55:21	15.5	97
127848	2025-07-17T06:05:21	15.7	97
127849	2025-07-17T06:15:21	15.5	97
127850	2025-07-17T06:25:21	15.7	97
127851	2025-07-17T06:35:21	16.3	97
127852	2025-07-17T06:45:21	16.6	97
127853	2025-07-17T06:55:21	16.7	97
127854	2025-07-17T07:05:21	16.9	97
127855	2025-07-17T07:15:21	17.3	97
127856	2025-07-17T07:25:21	17.4	97
127857	2025-07-17T07:35:21	17.5	97
127858	2025-07-17T07:45:21	17.5	97
127859	2025-07-17T07:55:21	18.2	97
127860	2025-07-17T08:05:21	17.8	97
127861	2025-07-17T08:15:21	17.9	97
127862	2025-07-17T08:25:21	18.5	97
127863	2025-07-17T08:35:21	18.7	97
127864	2025-07-17T08:45:21	18.9	96.5
127865	2025-07-17T08:55:21	19.4	97
127866	2025-07-17T09:05:21	19.3	97
127867	2025-07-17T09:15:21	19.3	96.5
127868	2025-07-17T09:25:21	19.7	97
127869	2025-07-17T09:35:21	19.8	96.5
127870	2025-07-17T09:45:21	20.2	96.5
127871	2025-07-17T09:55:21	20.2	99.5
127872	2025-07-17T10:05:21	20.3	100
127873	2025-07-17T10:15:21	20.7	100
127874	2025-07-17T10:25:21	21.2	100
127875	2025-07-17T10:35:21	21.4	100
127876	2025-07-17T10:45:21	21.6	100
127877	2025-07-17T10:55:21	21.7	97.5
127878	2025-07-17T11:05:21	21.8	69.5
127879	2025-07-17T11:15:21	22.2	65
127880	2025-07-17T11:25:21	22.6	65
127881	2025-07-17T11:35:21	23	64
127882	2025-07-17T11:45:21	23	59.5
127883	2025-07-17T11:55:21	23.4	58
127884	2025-07-17T12:05:21	24.3	55.5
127885	2025-07-17T12:15:21	28.2	45
127886	2025-07-17T12:25:21	26.3	48
127887	2025-07-17T12:35:21	29.7	43
127888	2025-07-17T12:45:21	28.6	43
127889	2025-07-17T12:55:21	26.7	47
127890	2025-07-17T13:05:21	28.4	42
127891	2025-07-17T13:15:21	30.3	40.5
127892	2025-07-17T13:25:21	30.4	39.5
127893	2025-07-17T13:35:21	31.8	36
127894	2025-07-17T13:45:21	34	33.5
127895	2025-07-17T13:55:21	29.8	39
127896	2025-07-17T14:05:21	32.4	34.5
127897	2025-07-17T14:15:21	35.9	33.5
127898	2025-07-17T14:25:21	32.8	33.5
127899	2025-07-17T14:35:21	33.5	33
127900	2025-07-17T14:45:21	34.8	32.5
127901	2025-07-17T14:55:21	34.2	31
127902	2025-07-17T15:05:21	33.8	32
127903	2025-07-17T15:15:21	32.3	33.5
127904	2025-07-17T15:25:21	33.4	33
127905	2025-07-17T15:35:21	34	33.5
127906	2025-07-17T15:45:20	34.8	33
127907	2025-07-17T15:55:20	34.3	33
127908	2025-07-17T16:05:20	33.6	34
127909	2025-07-17T16:15:20	33.5	34.5
127910	2025-07-17T16:25:20	34.5	33
127911	2025-07-17T16:35:20	33.1	34
127912	2025-07-17T16:45:20	32.9	34.5
127913	2025-07-17T16:55:20	31.9	35
127914	2025-07-17T17:05:20	30.8	36
127915	2025-07-17T17:15:20	31	36
127916	2025-07-17T17:25:20	31	36.5
127917	2025-07-17T17:35:20	31.1	36
127918	2025-07-17T17:45:20	30.1	37.5
127919	2025-07-17T17:55:20	30.1	38.5
127920	2025-07-17T18:05:20	29.5	40
127921	2025-07-17T18:15:20	30	38.5
127922	2025-07-17T18:25:20	29.3	41
127923	2025-07-17T18:35:20	28.2	42.5
127924	2025-07-17T18:45:20	27.5	44
127925	2025-07-17T18:55:20	27.2	45.5
127926	2025-07-17T19:05:20	27	49
127927	2025-07-17T19:15:20	25.3	52
127928	2025-07-17T19:25:20	25.1	55
127929	2025-07-17T19:35:20	24.5	57.5
127930	2025-07-17T19:45:20	23.6	58.5
127931	2025-07-17T19:55:20	23.4	59
127932	2025-07-17T20:05:20	23.2	61
127933	2025-07-17T20:15:20	23.1	61.5
127934	2025-07-17T20:25:20	22.6	63.5
127935	2025-07-17T20:35:20	22.4	64
127936	2025-07-17T20:45:20	22	65
127937	2025-07-17T20:55:20	21.8	67
127938	2025-07-17T21:05:20	21.4	67.5
127939	2025-07-17T21:15:20	21.2	68.5
127940	2025-07-17T21:25:20	20.9	69
127941	2025-07-17T21:35:20	20.7	70
127942	2025-07-17T21:45:20	20.5	70.5
127943	2025-07-17T21:55:20	20.3	72.5
127944	2025-07-17T22:05:20	20	73.5
127945	2025-07-17T22:15:20	19.7	74.5
127946	2025-07-17T22:25:20	19.5	75
127947	2025-07-17T22:35:20	19.3	75.5
127948	2025-07-17T22:45:20	19.1	76
127949	2025-07-17T22:55:20	19	76.5
127950	2025-07-17T23:05:20	18.8	76
127951	2025-07-17T23:15:20	18.4	76.5
127952	2025-07-17T23:25:20	18.2	78
127953	2025-07-17T23:35:20	18	79
127954	2025-07-17T23:45:20	18	79
127955	2025-07-17T23:55:20	17.7	79.5
127956	2025-07-18T00:05:20	17.4	80
127957	2025-07-18T00:15:20	17.3	80
127958	2025-07-18T00:25:20	17.2	81
127959	2025-07-18T00:35:20	16.9	81
127960	2025-07-18T00:45:20	16.8	81
127961	2025-07-18T00:55:20	16.8	81.5
127962	2025-07-18T01:05:20	16.5	82
127963	2025-07-18T01:15:20	16.4	83
127964	2025-07-18T01:25:20	16.2	83
127965	2025-07-18T01:35:20	16.1	83.5
127966	2025-07-18T01:45:20	15.8	84.5
127967	2025-07-18T01:55:20	15.8	85
127968	2025-07-18T02:05:20	15.6	85
127969	2025-07-18T02:15:20	15.5	85.5
127970	2025-07-18T02:25:20	15.4	86
127971	2025-07-18T02:35:19	15.2	86
127972	2025-07-18T02:45:19	15.1	87
127973	2025-07-18T02:55:19	15	87
127974	2025-07-18T03:05:19	14.8	86.5
127975	2025-07-18T03:15:19	14.8	87.5
127976	2025-07-18T03:25:20	14.7	87.5
127977	2025-07-18T03:35:19	14.4	88
127978	2025-07-18T03:55:20	14.2	89
127979	2025-07-18T04:05:19	14.3	89
127980	2025-07-18T04:15:19	14.2	89
127981	2025-07-18T04:25:19	14.2	89
127982	2025-07-18T04:45:19	14.4	89.5
127983	2025-07-18T04:55:19	14.6	89
127984	2025-07-18T05:05:19	14.7	89.5
127985	2025-07-18T05:15:19	14.8	90
127986	2025-07-18T05:25:19	15	90
127987	2025-07-18T05:35:19	15.3	88.5
127988	2025-07-18T05:45:19	15.5	87.5
127989	2025-07-18T05:55:19	15.9	88
127990	2025-07-18T06:05:19	16.2	86
127991	2025-07-18T06:15:19	16.7	84
127992	2025-07-18T06:25:19	17	82.5
127993	2025-07-18T06:35:19	17.4	81.5
127994	2025-07-18T06:45:19	17.7	82
127995	2025-07-18T06:55:19	18	81
127996	2025-07-18T07:05:19	18.4	80
127997	2025-07-18T07:15:19	19	78.5
127998	2025-07-18T07:25:19	19.5	77
127999	2025-07-18T07:35:19	20	76
128000	2025-07-18T07:45:19	20.1	71.5
128001	2025-07-18T07:55:19	20.6	74
128002	2025-07-18T08:05:19	20.8	73.5
128003	2025-07-18T08:15:19	20.9	69
128004	2025-07-18T08:25:19	21	70.5
128005	2025-07-18T08:35:19	21.3	67
128006	2025-07-18T08:45:19	21.4	67.5
128007	2025-07-18T08:55:19	21.9	65
128008	2025-07-18T09:05:19	22.2	65.5
128009	2025-07-18T09:15:19	22.3	65
128010	2025-07-18T09:25:19	22.8	61
128011	2025-07-18T09:35:19	23.2	61.5
128012	2025-07-18T09:45:19	23.7	60
128013	2025-07-18T09:55:19	24	58
128014	2025-07-18T10:05:19	24.5	57
128015	2025-07-18T10:15:19	25	56
128016	2025-07-18T10:25:19	25.3	55
128017	2025-07-18T10:35:19	25.3	54
128018	2025-07-18T10:45:19	25.4	55.5
128019	2025-07-18T10:55:19	25.5	54
128020	2025-07-18T11:05:19	25.8	52.5
128021	2025-07-18T11:15:19	25.7	51.5
128022	2025-07-18T11:25:19	26.1	51
128023	2025-07-18T11:35:19	26.9	48
128024	2025-07-18T11:45:19	26.6	48
128025	2025-07-18T11:55:19	26.5	49
128026	2025-07-18T12:05:19	26.8	47.5
128027	2025-07-18T12:15:19	33	37
128028	2025-07-18T12:25:19	36.5	34
128029	2025-07-18T12:35:19	38.5	30
128030	2025-07-18T12:45:19	39.6	27
128031	2025-07-18T12:55:19	38.2	28
128032	2025-07-18T13:05:19	40.9	27
128033	2025-07-18T13:15:18	41.9	26.5
128034	2025-07-18T13:25:18	40.6	26
128035	2025-07-18T13:35:18	39.6	25
128036	2025-07-18T13:45:18	40.7	26.5
128037	2025-07-18T13:55:18	43.3	25
128038	2025-07-18T14:05:18	42.6	25
128039	2025-07-18T14:15:18	42.3	26
128040	2025-07-18T14:25:18	40.3	26.5
128041	2025-07-18T14:35:18	40	27
128042	2025-07-18T14:45:18	41	26
128043	2025-07-18T14:55:18	43.2	25
128044	2025-07-18T15:05:18	39.6	27
128045	2025-07-18T15:15:18	38	29
128046	2025-07-18T15:25:18	36.1	31.5
128047	2025-07-18T15:35:18	37.7	28.5
128048	2025-07-18T15:45:18	38.7	28
128049	2025-07-18T15:55:18	40.1	27
128050	2025-07-18T16:05:18	41.5	24.5
128051	2025-07-18T16:15:18	41.8	24
128052	2025-07-18T16:25:18	41.3	24
128053	2025-07-18T16:35:18	41.6	24.5
128054	2025-07-18T16:45:18	42.5	23.5
128055	2025-07-18T16:55:18	40.9	25
128056	2025-07-18T17:05:18	41.9	25
128057	2025-07-18T17:15:18	42	24.5
128058	2025-07-18T17:25:18	41.6	24.5
128059	2025-07-18T17:35:18	41	25
128060	2025-07-18T17:45:18	40.3	26
128061	2025-07-18T17:55:18	40	27.5
128062	2025-07-18T18:05:18	38.8	27
128063	2025-07-18T18:15:18	38.3	28.5
128064	2025-07-18T18:25:18	37.6	29
128065	2025-07-18T18:35:18	36.9	31
128066	2025-07-18T18:45:18	36.1	33
128067	2025-07-18T18:55:18	35	37
128068	2025-07-18T19:05:18	33.8	40
128069	2025-07-18T19:15:18	32.3	41.5
128070	2025-07-18T19:25:18	31.1	44.5
128071	2025-07-18T19:35:18	30.2	45.5
128072	2025-07-18T19:45:18	29.4	48.5
128073	2025-07-18T19:55:18	28.7	49
128074	2025-07-18T20:05:18	27.8	48.5
128075	2025-07-18T20:15:18	27.3	50.5
128076	2025-07-18T20:25:18	26.5	51
128077	2025-07-18T20:35:18	25.9	53
128078	2025-07-18T20:45:18	25.5	54.5
128079	2025-07-18T20:55:18	25.2	55.5
128080	2025-07-18T21:05:18	24.7	55.5
128081	2025-07-18T21:15:18	24.3	56
128082	2025-07-18T21:25:18	23.9	57.5
128083	2025-07-18T21:35:18	23.6	58
128084	2025-07-18T21:45:18	23.4	59.5
128085	2025-07-18T21:55:18	23	60
128086	2025-07-18T22:05:18	22.8	60.5
128087	2025-07-18T22:15:18	22.6	61
128088	2025-07-18T22:25:18	22.4	61
128089	2025-07-18T22:35:18	22.1	61.5
128090	2025-07-18T22:45:18	21.8	62
128091	2025-07-18T22:55:18	21.7	62.5
128092	2025-07-18T23:05:18	21.3	63
128093	2025-07-18T23:15:18	21.2	63.5
128094	2025-07-18T23:25:18	21	63.5
128095	2025-07-18T23:35:18	20.8	64.5
128096	2025-07-18T23:45:18	20.6	66
128097	2025-07-18T23:55:18	20.2	67
128098	2025-07-19T00:05:18	20.1	66.5
128099	2025-07-19T00:15:18	20	66.5
128100	2025-07-19T00:25:17	19.8	67
128101	2025-07-19T00:35:17	19.7	68
128102	2025-07-19T00:45:17	19.5	68
128103	2025-07-19T00:55:17	19.4	68.5
128104	2025-07-19T01:05:17	19	69.5
128105	2025-07-19T01:15:17	18.7	70.5
128106	2025-07-19T01:25:17	18.7	71
128107	2025-07-19T01:35:17	18.5	71
128108	2025-07-19T01:45:17	18.4	71
128109	2025-07-19T01:55:17	18.4	71.5
128110	2025-07-19T02:05:17	18.3	70.5
128111	2025-07-19T02:15:17	18.1	71.5
128112	2025-07-19T02:25:17	17.9	72.5
128113	2025-07-19T02:35:37	17.9	72
128114	2025-07-19T02:45:17	17.8	73
128115	2025-07-19T02:55:17	17.6	73.5
128116	2025-07-19T03:05:17	17.5	75
128117	2025-07-19T03:15:17	17.4	75
128118	2025-07-19T03:25:17	17.2	75.5
128119	2025-07-19T03:35:17	17.3	74.5
128120	2025-07-19T03:45:17	17.2	74.5
128121	2025-07-19T03:55:17	17.2	75
128122	2025-07-19T04:05:17	17.1	75
128123	2025-07-19T04:15:17	17.1	75.5
128124	2025-07-19T04:25:17	17.2	75.5
128125	2025-07-19T04:35:17	17.2	75.5
128126	2025-07-19T04:45:17	17.4	75.5
128127	2025-07-19T04:55:17	17.5	75.5
128128	2025-07-19T05:05:17	17.7	75
128129	2025-07-19T05:15:17	17.9	75
128130	2025-07-19T05:25:17	18.1	75
128131	2025-07-19T05:35:17	18.4	74
128132	2025-07-19T05:45:17	18.5	74
128133	2025-07-19T05:55:17	18.7	74
128134	2025-07-19T06:05:17	19	76
128135	2025-07-19T06:15:17	19.2	75
128136	2025-07-19T06:25:17	19.6	74
128137	2025-07-19T06:35:17	19.7	74.5
128138	2025-07-19T06:45:17	20	73
128139	2025-07-19T06:55:17	20.6	68.5
128140	2025-07-19T07:05:17	21.1	69.5
128141	2025-07-19T07:15:17	21.7	69.5
128142	2025-07-19T07:25:17	22.7	66
128143	2025-07-19T07:35:17	23.5	63
128144	2025-07-19T07:45:17	23.6	62
128145	2025-07-19T07:55:17	23.7	64.5
128146	2025-07-19T08:05:17	23.6	64.5
128147	2025-07-19T08:15:17	23.6	64.5
128148	2025-07-19T08:25:17	23.9	63
128149	2025-07-19T08:35:17	24.2	63.5
128150	2025-07-19T08:45:17	24.9	62
128151	2025-07-19T08:55:17	25.6	61
128152	2025-07-19T09:05:17	26.1	61
128153	2025-07-19T09:15:17	26.3	58
128154	2025-07-19T09:25:17	26.4	55
128155	2025-07-19T09:35:17	26.8	55.5
128156	2025-07-19T09:45:17	26.9	53.5
128157	2025-07-19T09:55:17	27.5	53.5
128158	2025-07-19T10:05:17	28	54
128159	2025-07-19T10:15:17	28.2	57
128160	2025-07-19T10:25:17	28.2	50.5
128161	2025-07-19T10:35:17	28.2	51.5
128162	2025-07-19T10:45:17	28.8	53
128163	2025-07-19T10:55:17	28.8	52.5
128164	2025-07-19T11:05:16	29	50.5
128165	2025-07-19T11:15:16	29.5	51
128166	2025-07-19T11:25:16	29.5	50.5
128167	2025-07-19T11:35:16	30.1	48
128168	2025-07-19T11:45:16	31.1	46
128169	2025-07-19T11:55:16	30.8	44.5
128170	2025-07-19T12:05:16	32	42.5
128171	2025-07-19T12:15:16	34.9	39
128172	2025-07-19T12:25:16	35.5	39.5
128173	2025-07-19T12:35:16	33.3	39
128174	2025-07-19T12:45:16	33	41
128175	2025-07-19T12:55:16	33.6	39.5
128176	2025-07-19T13:05:16	33.4	38.5
128177	2025-07-19T13:15:16	33.2	40.5
128178	2025-07-19T13:25:16	32.3	42.5
128179	2025-07-19T13:35:16	31.8	44
128180	2025-07-19T13:45:16	31.6	46
128181	2025-07-19T13:55:16	31.9	47
128182	2025-07-19T14:05:16	31.4	47.5
128183	2025-07-19T14:15:16	31.4	47.5
128184	2025-07-19T14:25:16	31	49
128185	2025-07-19T14:35:16	30.3	48.5
128186	2025-07-19T14:45:16	29.9	49.5
128187	2025-07-19T14:55:16	28.9	52
128188	2025-07-19T15:05:16	28.6	54
128189	2025-07-19T15:15:16	28.3	55
128190	2025-07-19T15:25:16	28	55.5
128191	2025-07-19T15:35:16	27.5	56.5
128192	2025-07-19T15:45:16	27.2	58
128193	2025-07-19T15:55:16	26.8	60
128194	2025-07-19T16:05:16	26.7	62.5
128195	2025-07-19T16:15:16	26.6	63
128196	2025-07-19T16:25:16	26.6	62
128197	2025-07-19T16:35:16	27.3	61
128198	2025-07-19T16:45:16	26.8	60
128199	2025-07-19T16:55:16	26.6	61.5
128200	2025-07-19T17:05:16	26.8	58.5
128201	2025-07-19T17:15:16	26.2	60
128202	2025-07-19T17:25:16	25.9	61.5
128203	2025-07-19T17:35:16	26	60
128204	2025-07-19T17:45:16	26.6	59
128205	2025-07-19T17:55:16	28	55
128206	2025-07-19T18:05:16	27.2	55.5
128207	2025-07-19T18:15:16	27	56.5
128208	2025-07-19T18:25:16	26.4	58
128209	2025-07-19T18:35:16	26.1	58.5
128210	2025-07-19T18:45:16	25.7	60
128211	2025-07-19T18:55:16	25.5	60.5
128212	2025-07-19T19:05:16	25.2	62.5
128213	2025-07-19T19:15:16	24.3	65.5
128214	2025-07-19T19:25:16	23.9	67.5
128215	2025-07-19T19:35:16	23.6	69
128216	2025-07-19T19:45:16	23.6	70.5
128217	2025-07-19T19:55:16	23.4	71
128218	2025-07-19T20:05:16	23.1	71
128219	2025-07-19T20:15:16	22.9	72
128220	2025-07-19T20:25:16	22.7	72.5
128221	2025-07-19T20:35:16	22.4	73
128222	2025-07-19T20:45:16	22.3	74
128223	2025-07-19T20:55:16	22.1	74.5
128224	2025-07-19T21:05:16	22	75.5
128225	2025-07-19T21:15:16	21.6	75.5
128226	2025-07-19T21:25:16	21.5	76.5
128227	2025-07-19T21:35:15	21.4	77
128228	2025-07-19T21:45:15	21.2	77
128229	2025-07-19T21:55:16	21.1	77.5
128230	2025-07-19T22:05:15	20.8	77.5
128231	2025-07-19T22:15:15	20.6	78.5
128232	2025-07-19T22:25:15	20.5	78.5
128233	2025-07-19T22:35:16	20.4	79
128234	2025-07-19T22:45:16	20.2	79.5
128235	2025-07-19T22:55:15	20	80.5
128236	2025-07-19T23:05:15	19.9	81
128237	2025-07-19T23:15:15	19.8	81
128238	2025-07-19T23:25:15	19.7	81.5
128239	2025-07-19T23:35:15	19.5	82
128240	2025-07-19T23:45:15	19.4	81
128241	2025-07-19T23:55:15	19.2	81.5
128242	2025-07-20T00:05:15	19.1	82.5
128243	2025-07-20T00:15:15	18.9	83
128244	2025-07-20T00:25:15	18.8	82.5
128245	2025-07-20T00:35:15	18.6	82.5
128246	2025-07-20T00:45:15	18.6	83.5
128247	2025-07-20T00:55:15	18.4	83.5
128248	2025-07-20T01:05:15	18.4	83.5
128249	2025-07-20T01:15:15	18.3	84
128250	2025-07-20T01:25:15	18.1	84
128251	2025-07-20T01:35:15	17.9	84.5
128252	2025-07-20T01:45:15	17.9	84.5
128253	2025-07-20T01:55:15	17.8	85.5
128254	2025-07-20T02:05:15	17.7	85.5
128255	2025-07-20T02:15:15	17.6	85
128256	2025-07-20T02:25:15	17.5	85
128257	2025-07-20T02:35:15	17.4	85
128258	2025-07-20T02:45:15	17.3	85.5
128259	2025-07-20T02:55:15	17.2	85
128260	2025-07-20T03:05:15	17.1	85.5
128261	2025-07-20T03:15:15	17	86
128262	2025-07-20T03:25:15	16.6	89
128263	2025-07-20T03:35:15	16.6	88.5
128264	2025-07-20T03:45:15	16.7	88.5
128265	2025-07-20T03:55:15	16.5	88.5
128266	2025-07-20T04:05:15	16.7	88
128267	2025-07-20T04:15:15	16.7	88
128268	2025-07-20T04:25:15	16.8	88
128269	2025-07-20T04:35:15	16.9	88
128270	2025-07-20T04:45:15	17.2	87
128271	2025-07-20T04:55:15	17.7	86
128272	2025-07-20T05:05:15	17.9	85
128273	2025-07-20T05:15:15	18.4	84.5
128274	2025-07-20T05:25:15	18.6	85
128275	2025-07-20T05:35:15	18.8	85
128276	2025-07-20T05:45:15	18.6	86
128277	2025-07-20T05:55:15	18.8	86.5
128278	2025-07-20T06:05:15	18.9	86.5
128279	2025-07-20T06:15:15	19.1	86
128280	2025-07-20T06:25:15	19.5	84
128281	2025-07-20T06:35:15	19.9	82.5
128282	2025-07-20T06:45:15	20.2	81
128283	2025-07-20T06:55:15	20.4	79.5
128284	2025-07-20T07:05:15	20.8	77
128285	2025-07-20T07:15:15	21.4	77
128286	2025-07-20T07:25:15	21.8	76.5
128287	2025-07-20T07:35:15	22.1	74
128288	2025-07-20T07:45:14	22.3	74
128289	2025-07-20T07:55:14	22.7	72
128290	2025-07-20T08:05:14	22.9	71.5
128291	2025-07-20T08:15:14	23.3	71
128292	2025-07-20T08:25:14	23.7	70
128293	2025-07-20T08:35:14	24.1	69
128294	2025-07-20T08:45:14	24.5	67
128295	2025-07-20T08:55:14	24.9	65.5
128296	2025-07-20T09:05:14	25.6	64
128297	2025-07-20T09:15:14	25.9	61.5
128298	2025-07-20T09:25:14	26.3	62
128299	2025-07-20T09:35:14	26.5	61.5
128300	2025-07-20T09:45:14	27.1	62
128301	2025-07-20T09:55:14	27.8	59.5
128302	2025-07-20T10:05:14	28.2	57
128303	2025-07-20T10:15:14	28.5	56
128304	2025-07-20T10:25:14	29.1	55
128305	2025-07-20T10:35:14	29.3	55
128306	2025-07-20T10:45:14	29.4	55
128307	2025-07-20T10:55:14	29.4	54.5
128308	2025-07-20T11:05:14	29.9	54.5
128309	2025-07-20T11:15:14	30.7	53
128310	2025-07-20T11:25:14	31.3	50.5
128311	2025-07-20T11:35:14	31.3	51.5
128312	2025-07-20T11:45:14	31.7	50
128313	2025-07-20T11:55:14	32.1	48
128314	2025-07-20T12:05:14	32.7	47.5
128315	2025-07-20T12:15:14	36.2	41.5
128316	2025-07-20T12:25:14	36.3	40.5
128317	2025-07-20T12:35:14	34.7	42
128318	2025-07-20T12:45:14	34.3	43.5
128319	2025-07-20T12:55:14	34.1	44.5
128320	2025-07-20T13:05:14	34.6	44.5
128321	2025-07-20T13:15:14	35.5	42.5
128322	2025-07-20T13:25:14	36.5	42
128323	2025-07-20T13:35:14	36.2	42.5
128324	2025-07-20T13:45:14	36.8	38.5
128325	2025-07-20T13:55:14	37.1	39
128326	2025-07-20T14:05:14	37.5	36
128327	2025-07-20T14:15:14	36.8	36.5
128328	2025-07-20T14:25:14	34.9	38.5
128329	2025-07-20T14:35:14	35.4	38
128330	2025-07-20T14:45:14	34.9	40
128331	2025-07-20T14:55:14	33.5	42
128332	2025-07-20T15:05:14	32.7	44.5
128333	2025-07-20T15:15:14	33	43.5
128334	2025-07-20T15:25:14	33.7	43
128335	2025-07-20T15:35:14	35.6	39.5
128336	2025-07-20T15:45:14	34.1	43
128337	2025-07-20T15:55:14	33.3	44
128338	2025-07-20T16:05:14	32.9	45.5
128339	2025-07-20T16:15:14	32.7	45
128340	2025-07-20T16:25:14	32.9	46.5
128341	2025-07-20T16:35:14	31.9	45
128342	2025-07-20T16:45:14	31.2	44
128343	2025-07-20T16:55:14	29.1	51.5
128344	2025-07-20T17:05:14	26.7	84.5
128345	2025-07-20T17:15:14	22.8	97.5
128346	2025-07-20T17:25:14	23.6	100
128347	2025-07-20T17:35:14	22.9	99.5
128348	2025-07-20T17:55:13	20.9	100
128349	2025-07-20T18:05:13	20.5	100
128350	2025-07-20T18:15:13	20.6	100
128351	2025-07-20T18:25:13	20.5	100
128352	2025-07-20T18:35:13	19.9	100
128353	2025-07-20T18:45:13	19.8	100
128354	2025-07-20T18:55:13	19.6	100
128355	2025-07-20T19:05:13	19.4	100
128356	2025-07-20T19:15:13	19.5	100
128357	2025-07-20T19:25:13	19.4	100
128358	2025-07-20T19:35:13	19.3	100
128359	2025-07-20T19:45:13	19.5	99
128360	2025-07-20T19:55:13	19.5	98
128361	2025-07-20T20:05:13	19.6	97
128362	2025-07-20T20:15:13	19.5	96
128363	2025-07-20T20:25:13	19.6	95.5
128364	2025-07-20T20:35:13	19.6	95.5
128365	2025-07-20T20:45:13	19.7	95.5
128366	2025-07-20T20:55:13	19.4	95.5
128367	2025-07-20T21:05:13	19.4	95.5
128368	2025-07-20T21:15:13	19.4	95.5
128369	2025-07-20T21:25:13	19	95.5
128370	2025-07-20T21:35:13	19.2	95.5
128371	2025-07-20T21:45:13	18.8	96
128372	2025-07-20T21:55:13	18.9	96
128373	2025-07-20T22:05:13	18.8	96
128374	2025-07-20T22:15:13	18.9	96
128375	2025-07-20T22:25:13	19.1	96
128376	2025-07-20T22:35:13	18.9	96
128377	2025-07-20T22:45:13	19	96
128378	2025-07-20T22:55:13	19	96
128379	2025-07-20T23:05:13	18.9	96
128380	2025-07-20T23:15:13	19	96
128381	2025-07-20T23:25:13	18.7	96
128382	2025-07-20T23:35:13	18.8	96
128383	2025-07-20T23:45:13	18.8	96
128384	2025-07-20T23:55:13	18.9	96
128385	2025-07-21T00:05:13	18.8	96
128386	2025-07-21T00:15:13	18.8	96
128387	2025-07-21T00:25:13	18.7	96
128388	2025-07-21T00:35:13	18.8	96
128389	2025-07-21T00:45:13	18.6	96
128390	2025-07-21T00:55:13	18.6	96
128391	2025-07-21T01:05:13	18.5	96
128392	2025-07-21T01:15:13	18.5	96
128393	2025-07-21T01:25:13	18.5	96
128394	2025-07-21T01:35:13	18.5	96
128395	2025-07-21T01:45:13	18.4	96
128396	2025-07-21T01:55:13	18.4	96
128397	2025-07-21T02:05:13	18.1	96
128398	2025-07-21T02:15:13	18.2	96
128399	2025-07-21T02:25:13	18.2	96.5
128400	2025-07-21T02:35:13	18.1	96
128401	2025-07-21T02:45:13	18.2	96.5
128402	2025-07-21T02:55:13	18.2	96.5
128403	2025-07-21T03:05:13	18.1	96.5
128404	2025-07-21T03:15:13	18.2	96.5
128405	2025-07-21T03:25:13	18.2	96.5
128406	2025-07-21T03:35:13	18.1	96.5
128407	2025-07-21T03:45:13	18	96.5
128408	2025-07-21T03:55:13	18.1	96.5
128409	2025-07-21T04:05:13	18	96.5
128410	2025-07-21T04:15:13	18.2	96.5
128411	2025-07-21T04:25:13	18.2	96.5
128412	2025-07-21T04:35:12	18.3	96.5
128413	2025-07-21T04:45:12	18.2	96.5
128414	2025-07-21T04:55:12	18.2	96.5
128415	2025-07-21T05:05:12	18.2	96.5
128416	2025-07-21T05:15:12	18.2	96.5
128417	2025-07-21T05:25:12	18.1	96.5
128418	2025-07-21T05:35:12	18.2	96.5
128419	2025-07-21T05:45:12	18.1	96.5
128420	2025-07-21T05:55:12	18.1	96.5
128421	2025-07-21T06:05:12	18.2	96.5
128422	2025-07-21T06:15:12	18.1	96.5
128423	2025-07-21T06:25:12	18.2	96.5
128424	2025-07-21T06:35:12	18.3	96.5
128425	2025-07-21T06:45:12	18.3	96.5
128426	2025-07-21T06:55:12	18.3	96.5
128427	2025-07-21T07:05:12	18.5	96.5
128428	2025-07-21T07:15:12	18.6	96.5
128429	2025-07-21T07:25:12	18.7	96.5
128430	2025-07-21T07:35:12	19	96.5
128431	2025-07-21T07:45:12	19.1	96.5
128432	2025-07-21T07:55:12	19.3	96.5
128433	2025-07-21T08:05:12	19.8	96.5
128434	2025-07-21T08:15:12	20.2	96.5
128435	2025-07-21T08:25:12	20.5	97
128436	2025-07-21T08:35:12	20.5	96.5
128437	2025-07-21T08:45:12	20.2	96.5
128438	2025-07-21T08:55:12	20.1	97
128439	2025-07-21T09:05:12	20.1	97
128440	2025-07-21T09:15:12	20.3	97
128441	2025-07-21T09:25:12	20.6	97
128442	2025-07-21T09:35:12	20.7	97
128443	2025-07-21T09:45:12	20.7	97
128444	2025-07-21T09:55:12	21.1	96.5
128445	2025-07-21T10:05:12	21.1	97
128446	2025-07-21T10:15:12	21.4	97
128447	2025-07-21T10:25:12	21.7	97
128448	2025-07-21T10:35:12	22.3	97
128449	2025-07-21T10:45:12	22.9	97
128450	2025-07-21T10:55:12	23	97
128451	2025-07-21T11:05:12	23.2	97
128452	2025-07-21T11:15:12	23.6	100
128453	2025-07-21T11:25:12	24	100
128454	2025-07-21T11:35:12	23.9	100
128455	2025-07-21T11:45:12	24	100
128456	2025-07-21T11:55:12	24.4	100
128457	2025-07-21T12:05:12	25	100
128458	2025-07-21T12:15:12	30.2	49.5
128459	2025-07-21T12:25:12	31.9	41.5
128460	2025-07-21T12:35:12	34.1	37
128461	2025-07-21T12:45:12	35.3	35.5
128462	2025-07-21T12:55:12	35.3	35.5
128463	2025-07-21T13:05:12	35.9	33
128464	2025-07-21T13:15:12	31.1	40.5
128465	2025-07-21T13:35:12	27.2	47
128466	2025-07-21T13:45:12	27.3	47.5
128467	2025-07-21T13:55:12	29.5	44.5
128468	2025-07-21T14:05:12	31.8	43
128469	2025-07-21T14:15:12	31	42.5
128470	2025-07-21T14:25:12	28.9	46
128471	2025-07-21T14:35:12	28	46.5
128472	2025-07-21T14:45:12	27.7	47
128473	2025-07-21T14:55:11	27	50
128474	2025-07-21T15:05:11	26.7	50.5
128475	2025-07-21T15:15:11	25.4	57
128476	2025-07-21T15:25:11	18.6	100
128477	2025-07-21T15:35:11	19.1	100
128478	2025-07-21T15:45:11	20.9	100
128479	2025-07-21T15:55:11	20.3	100
128480	2025-07-21T16:05:11	19.8	100
128481	2025-07-21T16:15:11	20	100
128482	2025-07-21T16:25:11	20.9	100
128483	2025-07-21T16:35:11	22.9	100
128484	2025-07-21T16:45:11	23.6	100
128485	2025-07-21T16:55:11	23.3	100
128486	2025-07-21T17:05:11	24.3	100
128487	2025-07-21T17:15:11	25.4	100
128488	2025-07-21T17:25:11	24.2	100
128489	2025-07-21T17:35:11	23	100
128490	2025-07-21T17:45:11	22.4	100
128491	2025-07-21T17:55:11	23.7	100
128492	2025-07-21T18:05:11	22.6	100
128493	2025-07-21T18:15:11	21.7	100
128494	2025-07-21T18:35:11	20.1	100
128495	2025-07-21T18:45:11	20.2	100
128496	2025-07-21T18:55:11	20	100
128497	2025-07-21T19:05:11	19.7	100
128498	2025-07-21T19:15:11	19.6	100
128499	2025-07-21T19:25:11	19.2	100
128500	2025-07-21T19:35:11	19.2	100
128501	2025-07-21T19:45:11	18.8	100
128502	2025-07-21T19:55:11	18.8	100
128503	2025-07-21T20:05:11	18.9	100
128504	2025-07-21T20:15:11	18.4	100
128505	2025-07-21T20:25:11	18.1	100
128506	2025-07-21T20:35:11	17.8	99.5
128507	2025-07-21T20:45:11	17.7	99
128508	2025-07-21T20:55:11	17.7	98
128509	2025-07-21T21:05:11	17.5	97
128510	2025-07-21T21:15:11	17.5	97
128511	2025-07-21T21:35:11	17.5	97
128512	2025-07-21T21:45:11	17.5	97
128513	2025-07-21T21:55:11	17.5	97
128514	2025-07-21T22:05:11	17.6	97
128515	2025-07-21T22:15:11	18.1	97
128516	2025-07-21T22:25:11	18.5	97
128517	2025-07-21T22:35:11	18.5	97
128518	2025-07-21T22:45:11	18.5	97
128519	2025-07-21T22:55:11	18.5	97
128520	2025-07-21T23:05:11	18.5	97
128521	2025-07-21T23:15:11	18.5	97
128522	2025-07-21T23:35:11	18.3	97
128523	2025-07-21T23:45:11	18.6	97
128524	2025-07-21T23:55:11	18.7	97
128525	2025-07-22T00:05:11	18.5	97
128526	2025-07-22T00:15:11	18.5	97
128527	2025-07-22T00:25:11	18.6	97
128528	2025-07-22T00:45:11	18.7	97
128529	2025-07-22T00:55:11	18.7	97
128530	2025-07-22T01:05:11	18.5	97
128531	2025-07-22T01:15:11	18.5	97
128532	2025-07-22T01:25:11	18.5	100
128533	2025-07-22T01:35:11	18.4	100
128534	2025-07-22T01:45:10	18.4	100
128535	2025-07-22T01:55:10	18.3	100
128536	2025-07-22T02:05:10	18.4	100
128537	2025-07-22T02:15:10	18.5	100
128538	2025-07-22T02:25:10	17.7	100
128539	2025-07-22T02:35:10	16.8	100
128540	2025-07-22T02:45:10	16.7	100
128541	2025-07-22T02:55:10	16.8	100
128542	2025-07-22T03:05:10	16.7	100
128543	2025-07-22T03:15:10	16.5	100
128544	2025-07-22T03:25:10	16.5	100
128545	2025-07-22T03:35:10	16.3	100
128546	2025-07-22T03:45:10	16.3	100
128547	2025-07-22T03:55:10	16.4	100
128548	2025-07-22T04:05:10	16.3	100
128549	2025-07-22T04:15:10	16.2	100
128550	2025-07-22T04:25:10	16.1	100
128551	2025-07-22T04:35:10	16.1	100
128552	2025-07-22T04:45:10	16	100
128553	2025-07-22T04:55:10	16.2	100
128554	2025-07-22T05:05:10	16.2	100
128555	2025-07-22T05:15:10	16.1	100
128556	2025-07-22T05:25:10	16.1	100
128557	2025-07-22T05:35:10	16.1	100
128558	2025-07-22T05:45:10	16.2	100
128559	2025-07-22T05:55:10	15.9	100
128560	2025-07-22T06:05:10	15.9	100
128561	2025-07-22T06:15:10	15.8	100
128562	2025-07-22T06:25:10	15.6	99.5
128563	2025-07-22T06:35:10	15.8	98.5
128564	2025-07-22T06:45:10	15.8	98
128565	2025-07-22T06:55:10	15.8	98
128566	2025-07-22T07:05:10	16	98
128567	2025-07-22T07:15:10	16	98
128568	2025-07-22T07:25:10	16.1	98
128569	2025-07-22T07:35:10	16.5	98
128570	2025-07-22T07:45:10	17.2	98
128571	2025-07-22T07:55:10	17.5	98
128572	2025-07-22T08:05:10	17.9	98
128573	2025-07-22T08:15:10	18.3	98
128574	2025-07-22T08:25:10	18.5	98
128575	2025-07-22T08:35:10	18.7	98
128576	2025-07-22T08:45:10	18.9	98
128577	2025-07-22T08:55:10	18.8	98
128578	2025-07-22T09:05:10	18.8	98
128579	2025-07-22T09:15:10	19.1	98
128580	2025-07-22T09:25:10	19.1	98
128581	2025-07-22T09:35:10	18.6	98
128582	2025-07-22T09:45:10	19	97.5
128583	2025-07-22T09:55:10	19.4	98
128584	2025-07-22T10:05:10	19.9	97.5
128585	2025-07-22T10:15:10	19.8	97.5
128586	2025-07-22T10:25:10	20.4	98
128587	2025-07-22T10:35:10	20.7	97.5
128588	2025-07-22T10:45:10	21	97.5
128589	2025-07-22T10:55:10	21.2	98
128590	2025-07-22T11:05:10	21.4	98
128591	2025-07-22T11:15:10	21.6	98
128592	2025-07-22T11:25:10	21	98
128593	2025-07-22T11:35:10	22.1	98
128594	2025-07-22T11:45:10	21.9	97.5
128595	2025-07-22T11:55:10	21.9	97.5
128596	2025-07-22T12:05:10	22.4	97.5
128597	2025-07-22T12:15:10	22.8	97.5
128598	2025-07-22T12:25:10	23.6	100
128599	2025-07-22T12:35:10	22.3	99.5
128600	2025-07-22T12:45:10	18.9	100
128601	2025-07-22T12:55:09	20.3	100
128602	2025-07-22T13:05:09	20.1	100
128603	2025-07-22T13:15:09	20.6	100
128604	2025-07-22T13:25:09	20.4	100
128605	2025-07-22T13:35:09	20	100
128606	2025-07-22T13:45:09	20.1	100
128607	2025-07-22T13:55:09	21.7	100
128608	2025-07-22T14:05:09	24	100
128609	2025-07-22T14:15:09	24.7	100
128610	2025-07-22T14:25:09	25.7	90.5
128611	2025-07-22T14:35:09	23.7	67
128612	2025-07-22T14:45:09	22.8	71
128613	2025-07-22T14:55:09	22.1	75
128614	2025-07-22T15:05:09	19	100
128615	2025-07-22T15:15:09	19.1	100
128616	2025-07-22T15:25:09	19.7	100
128617	2025-07-22T15:35:09	20.7	100
128618	2025-07-22T15:45:09	20.1	100
128619	2025-07-22T15:55:09	20.2	100
128620	2025-07-22T16:05:09	20.3	100
128621	2025-07-22T16:15:09	20.6	100
128622	2025-07-22T16:25:09	20.3	100
128623	2025-07-22T16:35:09	19.7	100
128624	2025-07-22T16:45:09	19.6	100
128625	2025-07-22T16:55:09	19	100
128626	2025-07-22T17:05:09	17.4	100
128627	2025-07-22T17:15:09	17.6	100
128628	2025-07-22T17:25:09	17.7	100
128629	2025-07-22T17:35:09	17.8	100
128630	2025-07-22T17:45:09	18.3	100
128631	2025-07-22T17:55:09	18.4	100
128632	2025-07-22T18:05:09	18.6	100
128633	2025-07-22T18:15:09	18.8	100
128634	2025-07-22T18:25:09	19	100
128635	2025-07-22T18:35:09	19.6	90
128636	2025-07-22T18:45:09	19.1	86.5
128637	2025-07-22T18:55:09	18.9	85
128638	2025-07-22T19:05:09	19	83.5
128639	2025-07-22T19:15:09	18.8	84.5
128640	2025-07-22T19:25:09	18.5	84.5
128641	2025-07-22T19:35:09	18.5	84
128642	2025-07-22T19:45:09	18.6	85
128643	2025-07-22T19:55:09	18.5	85
128644	2025-07-22T20:05:09	18.5	84.5
128645	2025-07-22T20:15:09	18.5	83
128646	2025-07-22T20:25:09	18.6	83
128647	2025-07-22T20:35:09	18.5	83
128648	2025-07-22T20:45:09	18.6	82.5
128649	2025-07-22T20:55:09	18.7	82
128650	2025-07-22T21:05:09	18.6	81.5
128651	2025-07-22T21:15:09	18.7	82
128652	2025-07-22T21:25:09	18.5	82.5
128653	2025-07-22T21:35:09	18.5	83
128654	2025-07-22T21:45:09	18.4	84.5
128655	2025-07-22T21:55:09	18.3	85
128656	2025-07-22T22:05:09	18.2	85
128657	2025-07-22T22:15:09	18.2	84.5
128658	2025-07-22T22:25:09	18.1	84
128659	2025-07-22T22:35:09	18	85.5
128660	2025-07-22T22:45:09	17.9	84.5
128661	2025-07-22T22:55:09	17.6	86
128662	2025-07-22T23:15:09	17.5	84.5
128663	2025-07-22T23:25:09	17.5	84
128664	2025-07-22T23:35:09	17.6	83
128665	2025-07-22T23:45:09	17.5	84.5
128666	2025-07-23T00:05:08	17.3	86
128667	2025-07-23T00:15:08	17.3	84
128668	2025-07-23T00:25:09	17.2	86.5
128669	2025-07-23T00:35:09	16.9	85.5
128670	2025-07-23T00:45:09	16.8	85
128671	2025-07-23T00:55:08	17	85
128672	2025-07-23T01:05:08	17.1	84
128673	2025-07-23T01:15:09	17.3	83
128674	2025-07-23T01:25:08	17.1	85
128675	2025-07-23T01:35:08	17.2	83
128676	2025-07-23T01:45:08	17.3	83.5
128677	2025-07-23T01:55:08	17.1	84
128678	2025-07-23T02:05:08	17.4	83.5
128679	2025-07-23T02:15:08	17.2	85
128680	2025-07-23T02:25:08	17.3	83
128681	2025-07-23T02:35:08	17.4	82.5
128682	2025-07-23T02:45:08	17.3	83
128683	2025-07-23T02:55:08	17	83.5
128684	2025-07-23T03:05:08	16.9	84
128685	2025-07-23T03:15:08	16.9	85
128686	2025-07-23T03:25:08	16.8	85.5
128687	2025-07-23T03:35:08	16.8	87
128688	2025-07-23T03:45:08	16.7	88
128689	2025-07-23T03:55:08	16.6	92
128690	2025-07-23T04:05:08	16.4	93
128691	2025-07-23T04:15:08	16.4	94
128692	2025-07-23T04:25:08	16.2	95
128693	2025-07-23T04:35:08	16.1	96.5
128694	2025-07-23T04:45:08	16.3	97
128695	2025-07-23T05:05:08	16.7	94.5
128696	2025-07-23T05:15:08	16.9	92.5
128697	2025-07-23T05:25:08	17.1	92.5
128698	2025-07-23T05:35:08	17.1	89.5
128699	2025-07-23T05:45:08	17.2	91
128700	2025-07-23T05:55:08	17.4	87.5
128701	2025-07-23T06:05:08	17.6	84.5
128702	2025-07-23T06:15:08	18.1	83.5
128703	2025-07-23T06:25:08	18.4	81
128704	2025-07-23T06:35:08	18.6	80.5
128705	2025-07-23T06:45:08	18.9	80
128706	2025-07-23T06:55:08	19.1	79
128707	2025-07-23T07:05:08	19.6	77.5
128708	2025-07-23T07:15:08	20	75.5
128709	2025-07-23T07:25:08	20.3	74.5
128710	2025-07-23T07:35:08	20.4	75
128711	2025-07-23T07:45:08	20.8	73.5
128712	2025-07-23T07:55:08	20.8	72.5
128713	2025-07-23T08:05:08	20.5	72
128714	2025-07-23T08:15:08	20.4	74
128715	2025-07-23T08:25:08	20.6	75
128716	2025-07-23T08:35:08	20.5	72
128717	2025-07-23T08:45:08	20.7	71.5
128718	2025-07-23T08:55:08	20.9	71.5
128719	2025-07-23T09:05:08	21.1	71
128720	2025-07-23T09:15:08	21	69.5
128721	2025-07-23T09:25:08	21.4	68
128722	2025-07-23T09:35:08	21.6	67
128723	2025-07-23T09:45:08	21.8	66.5
128724	2025-07-23T09:55:08	22	67
128725	2025-07-23T10:05:08	22.2	67
128726	2025-07-23T10:15:08	23	61.5
128727	2025-07-23T10:25:08	23	61
128728	2025-07-23T10:35:08	23.4	56.5
128729	2025-07-23T10:45:07	23.5	53
128730	2025-07-23T10:55:07	23.7	54
128731	2025-07-23T11:05:07	23.8	50
128732	2025-07-23T11:15:07	23.7	53
128733	2025-07-23T11:25:07	23.9	49
128734	2025-07-23T11:35:07	24.1	46.5
128735	2025-07-23T11:45:07	24.3	48
128736	2025-07-23T11:55:07	24.3	51
128737	2025-07-23T12:05:07	25.1	49
128738	2025-07-23T12:15:07	29.7	39.5
128739	2025-07-23T12:25:07	29.8	38
128740	2025-07-23T12:35:07	30.7	37
128741	2025-07-23T12:45:07	32.7	35
128742	2025-07-23T12:55:07	32	35.5
128743	2025-07-23T13:05:07	30.9	40.5
128744	2025-07-23T13:15:07	34.3	34
128745	2025-07-23T13:25:07	33.6	34.5
128746	2025-07-23T13:35:07	33.1	35.5
128747	2025-07-23T13:45:07	34.2	33
128748	2025-07-23T13:55:07	36	31.5
128749	2025-07-23T14:05:07	34.9	32.5
128750	2025-07-23T14:15:07	37.2	30.5
128751	2025-07-23T14:25:07	36.3	30
128752	2025-07-23T14:35:07	34.2	32.5
128753	2025-07-23T14:45:07	34.9	30
128754	2025-07-23T14:55:07	36	31
128755	2025-07-23T15:05:07	35.1	30.5
128756	2025-07-23T15:15:07	35.1	31
128757	2025-07-23T15:25:07	33.2	34
128758	2025-07-23T15:35:07	34	34
128759	2025-07-23T15:45:07	31.5	37
128760	2025-07-23T15:55:07	30.2	39.5
128761	2025-07-23T16:05:07	28.8	43.5
128762	2025-07-23T16:15:07	28.8	42.5
128763	2025-07-23T16:25:07	28.3	44
128764	2025-07-23T16:35:07	28.3	45.5
128765	2025-07-23T16:45:07	28.9	43
128766	2025-07-23T16:55:07	29.2	42.5
128767	2025-07-23T17:05:07	29.2	42
128768	2025-07-23T17:15:07	30.2	40
128769	2025-07-23T17:25:07	30	42
128770	2025-07-23T17:35:07	29.7	42
128771	2025-07-23T17:45:07	28.1	45
128772	2025-07-23T17:55:07	27.3	45.5
128773	2025-07-23T18:05:07	26.7	49
128774	2025-07-23T18:15:07	26.4	52
128775	2025-07-23T18:25:07	26.1	55.5
128776	2025-07-23T18:35:07	25.6	59
128777	2025-07-23T18:45:07	25.4	60
128778	2025-07-23T18:55:07	24.9	60.5
128779	2025-07-23T19:05:07	24.4	62.5
128780	2025-07-23T19:15:07	24	63.5
128781	2025-07-23T19:25:07	23.6	65
128782	2025-07-23T19:35:07	23.4	66.5
128783	2025-07-23T19:45:07	23.2	67.5
128784	2025-07-23T19:55:07	22.8	68
128785	2025-07-23T20:05:07	22.6	68.5
128786	2025-07-23T20:15:07	22.1	68.5
128787	2025-07-23T20:25:07	22.1	70
128788	2025-07-23T20:35:07	21.9	71
128789	2025-07-23T20:45:06	21.6	71.5
128790	2025-07-23T20:55:06	21.5	71.5
128791	2025-07-23T21:05:06	21.4	71
128792	2025-07-23T21:15:06	21.2	71
128793	2025-07-23T21:25:06	20.8	73
128794	2025-07-23T21:35:06	20.6	73.5
128795	2025-07-23T21:45:06	20.4	73.5
128796	2025-07-23T21:55:06	20.3	75
128797	2025-07-23T22:05:06	20.2	75.5
128798	2025-07-23T22:15:06	20	75.5
128799	2025-07-23T22:25:24	19.9	77
128800	2025-07-23T22:35:06	19.7	77
128801	2025-07-23T22:45:06	19.6	77.5
128802	2025-07-23T22:55:06	19.5	76.5
128803	2025-07-23T23:05:06	19.4	76
128804	2025-07-23T23:15:06	19.3	76
128805	2025-07-23T23:25:06	19.2	76.5
128806	2025-07-23T23:35:06	19	77
128807	2025-07-23T23:45:06	19	76.5
128808	2025-07-23T23:55:06	18.8	77
128809	2025-07-24T00:05:06	18.8	78
128810	2025-07-24T00:15:06	18.7	77
128811	2025-07-24T00:25:06	18.6	77
128812	2025-07-24T00:35:06	18.5	77.5
128813	2025-07-24T00:45:06	18.5	77.5
128814	2025-07-24T01:25:06	17.5	84.5
128815	2025-07-24T01:35:06	17.5	84.5
128816	2025-07-24T01:45:06	17.4	85
128817	2025-07-24T01:55:06	17.4	85.5
128818	2025-07-24T02:05:06	17.4	84
128819	2025-07-24T02:15:06	17.4	84.5
128820	2025-07-24T02:25:06	17.4	83.5
128821	2025-07-24T02:35:06	17	85
128822	2025-07-24T02:45:06	17.2	85.5
128823	2025-07-24T02:55:06	16.9	86.5
128824	2025-07-24T03:05:06	17.1	86
128825	2025-07-24T03:15:06	17.2	85.5
128826	2025-07-24T03:25:06	17.1	85.5
128827	2025-07-24T03:35:06	17.2	86.5
128828	2025-07-24T03:45:06	17	86.5
128829	2025-07-24T03:55:06	17.2	87
128830	2025-07-24T04:05:06	16.9	87
128831	2025-07-24T04:15:06	16.7	87.5
128832	2025-07-24T04:25:06	16.6	88
128833	2025-07-24T04:35:06	16.7	88.5
128834	2025-07-24T04:45:06	16.9	88.5
128835	2025-07-24T04:55:06	17.1	87
128836	2025-07-24T05:05:06	17.2	86.5
128837	2025-07-24T05:15:06	17.5	86
128838	2025-07-24T05:25:06	17.7	84.5
128839	2025-07-24T05:35:06	17.9	84.5
128840	2025-07-24T05:45:06	18.3	83
128841	2025-07-24T05:55:06	18.5	82
128842	2025-07-24T06:05:06	18.7	81.5
128843	2025-07-24T06:15:06	18.9	82
128844	2025-07-24T06:25:06	19	81.5
128845	2025-07-24T06:35:06	19	82
128846	2025-07-24T06:45:06	19	82.5
128847	2025-07-24T06:55:06	18.7	83
128848	2025-07-24T07:05:06	18.5	84
128849	2025-07-24T07:15:06	18.1	90.5
128850	2025-07-24T07:25:06	18	88
128851	2025-07-24T07:35:06	18.1	87.5
128852	2025-07-24T07:45:05	18	88
128853	2025-07-24T07:55:05	17.2	96
128854	2025-07-24T08:05:05	17.3	98.5
128855	2025-07-24T08:15:05	17.6	98.5
128856	2025-07-24T08:25:05	17.9	93.5
128857	2025-07-24T08:35:05	18	93
128858	2025-07-24T08:45:05	18.7	87.5
128859	2025-07-24T08:55:05	19.1	87.5
128860	2025-07-24T09:05:05	19.2	85.5
128861	2025-07-24T09:15:05	19.4	84.5
128862	2025-07-24T09:25:05	19.8	82.5
128863	2025-07-24T09:35:05	19.9	82.5
128864	2025-07-24T09:45:05	20.2	81.5
128865	2025-07-24T09:55:05	20.8	78.5
128866	2025-07-24T10:05:05	21.5	76.5
128867	2025-07-24T10:15:05	22.1	75.5
128868	2025-07-24T10:25:05	22.7	73
128869	2025-07-24T10:35:05	23	70.5
128870	2025-07-24T10:45:05	22.6	71
128871	2025-07-24T10:55:05	22.8	72
128872	2025-07-24T11:05:05	22.9	71
128873	2025-07-24T11:15:05	23.5	69.5
128874	2025-07-24T11:25:05	24.1	66.5
128875	2025-07-24T11:35:05	24.5	66.5
128876	2025-07-24T11:45:05	25.2	63
128877	2025-07-24T11:55:05	25.3	62
128878	2025-07-24T12:05:05	26.1	59.5
128879	2025-07-24T12:15:05	29.8	48.5
128880	2025-07-24T12:25:05	34	41.5
128881	2025-07-24T12:35:05	31.5	45.5
128882	2025-07-24T12:45:05	31.6	47.5
128883	2025-07-24T12:55:05	32.2	45
128884	2025-07-24T13:05:05	30.1	48.5
128885	2025-07-24T13:15:05	31.5	43
128886	2025-07-24T13:25:05	28	51
128887	2025-07-24T13:35:05	27.4	53.5
128888	2025-07-24T13:45:05	27.3	54.5
128889	2025-07-24T13:55:05	26.6	56
128890	2025-07-24T14:05:05	26.4	56.5
128891	2025-07-24T14:15:05	26.4	57
128892	2025-07-24T14:25:05	26.4	58.5
128893	2025-07-24T14:35:05	26.2	58
128894	2025-07-24T14:45:05	29	51
128895	2025-07-24T14:55:05	31.9	46
128896	2025-07-24T15:05:05	33.3	43.5
128897	2025-07-24T15:15:05	32.3	45
128898	2025-07-24T15:25:05	32.2	44
128899	2025-07-24T15:35:22	33.2	42
128900	2025-07-24T15:45:05	34.9	39.5
128901	2025-07-24T15:55:05	34.7	37.5
128902	2025-07-24T16:05:05	35.4	37
128903	2025-07-24T16:15:05	33.7	37
128904	2025-07-24T16:25:05	36.4	34.5
128905	2025-07-24T16:35:05	36.9	34.5
128906	2025-07-24T16:45:05	36.6	34.5
128907	2025-07-24T16:55:05	37.4	34.5
128908	2025-07-24T17:05:05	37.6	32
128909	2025-07-24T17:15:05	36.7	33.5
128910	2025-07-24T17:25:05	35.9	35
128911	2025-07-24T17:35:05	36.5	34
128912	2025-07-24T17:45:05	34.9	35.5
128913	2025-07-24T17:55:05	32.3	40.5
128914	2025-07-24T18:05:05	31.1	42.5
128915	2025-07-24T18:15:05	30.1	43.5
128916	2025-07-24T18:25:05	28.6	49
128917	2025-07-24T18:35:04	28.3	50.5
128918	2025-07-24T18:45:05	28.3	52
128919	2025-07-24T18:55:04	27	53.5
128920	2025-07-24T19:05:05	26.1	56.5
128921	2025-07-24T19:15:05	25.7	56.5
128922	2025-07-24T19:25:04	25.3	59
128923	2025-07-24T19:35:04	24.8	61.5
128924	2025-07-24T19:45:04	24.3	63
128925	2025-07-24T19:55:04	24	63
128926	2025-07-24T20:05:04	23.6	64.5
128927	2025-07-24T20:15:04	23.3	65.5
128928	2025-07-24T20:25:04	22.7	67.5
128929	2025-07-24T20:35:04	22.4	68.5
128930	2025-07-24T20:45:04	22.1	70
128931	2025-07-24T20:55:04	22.1	70.5
128932	2025-07-24T21:05:04	22	72
128933	2025-07-24T21:15:04	21.6	72.5
128934	2025-07-24T21:25:04	21.3	74
128935	2025-07-24T21:35:04	21.2	75
128936	2025-07-24T21:45:04	20.9	76
128937	2025-07-24T21:55:04	20.7	77.5
128938	2025-07-24T22:05:04	20.4	78
128939	2025-07-24T22:15:04	20.1	78.5
128940	2025-07-24T22:25:04	20	79
128941	2025-07-24T22:35:04	19.8	79.5
128942	2025-07-24T22:45:04	19.7	80
128943	2025-07-24T22:55:04	19.6	80.5
128944	2025-07-24T23:05:04	19.4	80.5
128945	2025-07-24T23:15:04	18.9	83
128946	2025-07-24T23:25:04	18.6	83.5
128947	2025-07-24T23:35:04	18.4	83
128948	2025-07-24T23:45:04	18.6	83
128949	2025-07-24T23:55:04	18.5	83.5
128950	2025-07-25T00:05:04	18.6	84
128951	2025-07-25T00:15:04	18.5	84.5
128952	2025-07-25T00:25:04	18.4	85
128953	2025-07-25T00:35:04	18.4	85.5
128954	2025-07-25T00:45:04	18.2	85.5
128955	2025-07-25T00:55:04	18.1	86
128956	2025-07-25T01:15:04	17.9	86.5
128957	2025-07-25T01:25:04	17.8	86.5
128958	2025-07-25T01:35:04	17.6	87.5
128959	2025-07-25T01:45:04	17.4	87.5
128960	2025-07-25T01:55:04	17.2	88.5
128961	2025-07-25T02:05:04	17.2	88
128962	2025-07-25T02:15:04	17.1	88.5
128963	2025-07-25T02:25:04	16.9	88.5
128964	2025-07-25T02:35:04	16.7	88.5
128965	2025-07-25T02:45:04	16.8	89
128966	2025-07-25T02:55:04	16.5	90
128967	2025-07-25T03:05:04	16.4	90
128968	2025-07-25T03:15:04	16.4	90.5
128969	2025-07-25T03:25:04	16.3	90.5
128970	2025-07-25T03:35:04	16.2	90.5
128971	2025-07-25T03:45:04	16.3	91
128972	2025-07-25T03:55:04	16	91.5
128973	2025-07-25T04:05:04	16.1	91.5
128974	2025-07-25T04:15:04	16.1	91.5
128975	2025-07-25T04:25:04	16.1	92
128976	2025-07-25T04:35:04	16.2	92
128977	2025-07-25T04:45:04	16.4	91.5
128978	2025-07-25T04:55:04	16.4	91
128979	2025-07-25T05:05:03	16.5	91.5
128980	2025-07-25T05:15:03	16.8	91
128981	2025-07-25T05:25:03	16.9	90.5
128982	2025-07-25T05:35:03	16.9	90
128983	2025-07-25T05:45:03	17.1	89.5
128984	2025-07-25T05:55:03	17.2	88.5
128985	2025-07-25T06:05:03	17.2	88
128986	2025-07-25T06:15:03	17.2	88
128987	2025-07-25T06:25:03	17.3	88
128988	2025-07-25T06:35:03	17.1	89
128989	2025-07-25T06:45:03	17.3	89
128990	2025-07-25T06:55:03	17.6	88
128991	2025-07-25T07:05:03	17.9	87.5
128992	2025-07-25T07:15:03	18.1	86.5
128993	2025-07-25T07:25:03	18.4	85.5
128994	2025-07-25T07:35:03	18.5	84.5
128995	2025-07-25T07:45:03	18.4	85
128996	2025-07-25T08:05:03	18.5	85.5
128997	2025-07-25T08:15:03	18.5	85
128998	2025-07-25T08:25:03	18.6	85
128999	2025-07-25T08:35:03	19	85
129000	2025-07-25T08:45:03	19.1	84.5
129001	2025-07-25T08:55:03	19.3	84
129002	2025-07-25T09:05:03	19.4	83.5
129003	2025-07-25T09:15:03	19.3	83.5
129004	2025-07-25T09:25:03	19.7	82
129005	2025-07-25T09:35:03	20.3	81
129006	2025-07-25T09:45:03	20.8	79
129007	2025-07-25T09:55:03	21	76.5
129008	2025-07-25T10:05:03	21.2	75.5
129009	2025-07-25T10:15:03	21.5	76
129010	2025-07-25T10:25:03	22.1	73.5
129011	2025-07-25T10:35:03	22.8	71.5
129012	2025-07-25T10:45:03	23.3	69.5
129013	2025-07-25T10:55:03	23.9	68.5
129014	2025-07-25T11:05:03	24.7	67
129015	2025-07-25T11:15:03	24.6	67
129016	2025-07-25T11:25:03	24.7	66.5
129017	2025-07-25T11:35:03	24.9	65.5
129018	2025-07-25T11:45:03	25.5	64
129019	2025-07-25T11:55:03	25.5	62.5
129020	2025-07-25T12:05:03	25.7	62
129021	2025-07-25T12:15:03	25.8	61
129022	2025-07-25T12:25:03	26.8	56.5
129023	2025-07-25T12:35:03	27.4	55
129024	2025-07-25T12:45:03	28.1	55
129025	2025-07-25T12:55:03	32.1	46.5
129026	2025-07-25T13:05:03	34.7	40
129027	2025-07-25T13:15:03	37.3	37.5
129028	2025-07-25T13:35:03	38.4	34
129029	2025-07-25T13:45:03	38.4	33.5
129030	2025-07-25T13:55:03	41.2	31
129031	2025-07-25T14:05:03	40.6	30.5
129032	2025-07-25T14:15:03	40.2	30.5
129033	2025-07-25T14:25:03	41.6	28.5
129034	2025-07-25T14:35:03	39	31
129035	2025-07-25T14:45:03	36.4	33
129036	2025-07-25T14:55:03	34	38
129037	2025-07-25T15:05:03	31.7	43.5
129038	2025-07-25T15:15:03	30.5	49.5
129039	2025-07-25T15:25:03	29	53.5
129040	2025-07-25T15:35:03	28.2	53.5
129041	2025-07-25T15:45:02	27.5	58.5
129042	2025-07-25T15:55:02	30.4	54
129043	2025-07-25T16:05:02	32.3	48.5
129044	2025-07-25T16:15:02	33.6	45.5
129045	2025-07-25T16:25:02	33.5	45
129046	2025-07-25T16:35:02	31.1	49.5
129047	2025-07-25T16:45:02	30.3	53
129048	2025-07-25T16:55:02	31.6	49.5
129049	2025-07-25T17:05:02	33.2	44.5
129050	2025-07-25T17:15:02	32.2	47
129051	2025-07-25T17:25:02	31.5	49.5
129052	2025-07-25T17:45:02	32.1	46
129053	2025-07-25T17:55:02	30.8	48.5
129054	2025-07-25T18:05:02	29.9	49.5
129055	2025-07-25T18:15:02	30	47
129056	2025-07-25T18:25:02	30.4	47.5
129057	2025-07-25T18:45:02	28.5	53
129058	2025-07-25T18:55:02	27.5	57
129059	2025-07-25T19:05:02	27.2	58.5
129060	2025-07-25T19:15:02	26.6	60.5
129061	2025-07-25T19:25:02	26.1	61
129062	2025-07-25T19:35:02	25.7	63
129063	2025-07-25T19:45:02	25.2	64.5
129064	2025-07-25T19:55:02	24.8	66
129065	2025-07-25T20:05:02	24.4	66.5
129066	2025-07-25T20:15:02	23.3	68.5
129067	2025-07-25T20:25:02	23.4	68.5
129068	2025-07-25T20:35:02	23.3	69.5
129069	2025-07-25T20:45:02	22.8	70
129070	2025-07-25T20:55:02	22.4	72
129071	2025-07-25T21:05:02	22.5	71.5
129072	2025-07-25T21:15:02	22.4	72.5
129073	2025-07-25T21:25:02	22.1	74.5
129074	2025-07-25T21:35:02	21.7	76
129075	2025-07-25T21:45:02	21.2	77.5
129076	2025-07-25T21:55:02	21.4	77.5
129077	2025-07-25T22:05:02	21.4	77
129078	2025-07-25T22:15:02	21.4	77.5
129079	2025-07-25T22:25:02	21.2	78
129080	2025-07-25T22:35:02	20.9	79.5
129081	2025-07-25T22:45:02	20.8	80
129082	2025-07-25T22:55:02	20.7	80.5
129083	2025-07-25T23:05:02	20.7	80.5
129084	2025-07-25T23:15:02	20.7	80.5
129085	2025-07-25T23:25:02	20.6	81
129086	2025-07-25T23:35:02	20.4	81
129087	2025-07-25T23:45:02	20.2	82.5
129088	2025-07-25T23:55:02	20	83
129089	2025-07-26T00:05:02	19.7	83.5
129090	2025-07-26T00:15:02	19.6	84.5
129091	2025-07-26T00:25:02	19.5	83.5
129092	2025-07-26T00:35:02	19.6	83
129093	2025-07-26T00:45:02	19.3	83.5
129094	2025-07-26T00:55:02	19.4	83
129095	2025-07-26T01:05:02	19.3	84
129096	2025-07-26T01:15:02	19.4	84.5
129097	2025-07-26T01:25:02	19.3	85
129098	2025-07-26T01:35:02	19.2	85
129099	2025-07-26T01:45:02	19.1	85
129100	2025-07-26T01:55:01	19.2	85.5
129101	2025-07-26T02:05:01	19.1	86
129102	2025-07-26T02:15:01	19	86.5
129103	2025-07-26T02:25:01	18.9	86.5
129104	2025-07-26T02:35:01	18.8	86.5
129105	2025-07-26T02:45:01	18.8	86.5
129106	2025-07-26T02:55:01	18.7	87
129107	2025-07-26T03:05:01	18.8	87
129108	2025-07-26T03:15:01	18.5	87.5
129109	2025-07-26T03:25:01	18.6	87.5
129110	2025-07-26T03:35:01	18.5	88
129111	2025-07-26T03:45:01	18.5	88.5
129112	2025-07-26T03:55:01	18.4	89
129113	2025-07-26T04:05:01	18.5	89
129114	2025-07-26T04:15:01	18.4	89
129115	2025-07-26T04:25:01	18.6	89
129116	2025-07-26T04:35:01	18.6	88.5
129117	2025-07-26T04:45:01	18.7	88.5
129118	2025-07-26T04:55:15	18.8	88.5
129119	2025-07-26T05:05:01	19	89
129120	2025-07-26T05:15:01	18.8	90
129121	2025-07-26T05:25:01	19	89
129122	2025-07-26T05:35:01	19.1	86.5
129123	2025-07-26T05:45:01	19.1	86.5
129124	2025-07-26T05:55:01	19.3	87
129125	2025-07-26T06:05:01	19.3	87
129126	2025-07-26T06:15:01	19.7	86
129127	2025-07-26T06:25:01	19.9	86
129128	2025-07-26T06:35:01	19.9	85.5
129129	2025-07-26T06:45:01	20.2	85.5
129130	2025-07-26T06:55:01	20.5	84.5
129131	2025-07-26T07:05:01	20.8	83.5
129132	2025-07-26T07:15:01	20.8	83
129133	2025-07-26T07:25:01	20.8	84
129134	2025-07-26T07:35:01	20.8	84.5
129135	2025-07-26T07:45:01	20.8	84
129136	2025-07-26T07:55:01	21.3	81.5
129137	2025-07-26T08:05:01	21.6	81.5
129138	2025-07-26T08:15:01	22.4	79
129139	2025-07-26T08:25:01	22.2	78
129140	2025-07-26T08:35:01	21.9	79
129141	2025-07-26T08:45:01	22.3	78
129142	2025-07-26T08:55:01	22.9	76.5
129143	2025-07-26T09:05:01	23.5	75
129144	2025-07-26T09:15:01	24.3	72.5
129145	2025-07-26T09:25:01	24.2	71.5
129146	2025-07-26T09:35:01	24.5	71
129147	2025-07-26T09:45:01	24.8	70.5
129148	2025-07-26T09:55:01	24.1	72
129149	2025-07-26T10:05:01	24.1	72.5
129150	2025-07-26T10:15:01	23.7	72
129151	2025-07-26T10:25:01	24	71
129152	2025-07-26T10:35:01	24.1	70.5
129153	2025-07-26T10:45:01	24.2	71
129154	2025-07-26T10:55:01	24.9	70
129155	2025-07-26T11:05:01	25.5	66.5
129156	2025-07-26T11:15:01	26.6	63.5
129157	2025-07-26T11:25:01	27.1	62
129158	2025-07-26T11:35:01	26.9	60.5
129159	2025-07-26T11:45:01	27	61
129160	2025-07-26T11:55:01	25	72
129161	2025-07-26T12:05:01	25.3	68.5
129162	2025-07-26T12:15:00	26.2	67.5
129163	2025-07-26T12:25:00	28.7	58.5
129164	2025-07-26T12:35:00	34.7	47
129165	2025-07-26T12:45:00	31.2	50.5
129166	2025-07-26T12:55:00	25.1	98
129167	2025-07-26T13:05:00	25	100
129168	2025-07-26T13:15:00	24.8	92.5
129169	2025-07-26T13:25:00	23.7	98.5
129170	2025-07-26T13:35:00	22.9	98.5
129171	2025-07-26T13:45:00	21.9	100
129172	2025-07-26T13:55:00	21.8	100
129173	2025-07-26T14:05:00	20.9	100
129174	2025-07-26T14:15:00	20.7	100
129175	2025-07-26T14:25:00	21.3	100
129176	2025-07-26T14:35:00	20.8	97.5
129177	2025-07-26T14:45:00	20.3	100
129178	2025-07-26T14:55:00	20.6	99
129179	2025-07-26T15:05:00	21.5	99.5
129180	2025-07-26T15:15:00	22.2	98
129181	2025-07-26T15:25:00	22.7	94.5
129182	2025-07-26T15:35:00	22.8	90
129183	2025-07-26T15:45:00	22.7	86
129184	2025-07-26T15:55:00	22.8	86.5
129185	2025-07-26T16:05:00	23.2	84
129186	2025-07-26T16:15:00	23.4	85
129187	2025-07-26T16:25:00	23.4	81.5
129188	2025-07-26T16:35:00	23.8	86
129189	2025-07-26T16:45:00	23.4	86
129190	2025-07-26T16:55:00	22.5	89
129191	2025-07-26T17:05:00	22	96
129192	2025-07-26T17:15:00	21.6	99
129193	2025-07-26T17:25:00	21.6	98
129194	2025-07-26T17:35:00	21.6	94
129195	2025-07-26T17:45:00	21.7	87.5
129196	2025-07-26T17:55:00	21.3	91
129197	2025-07-26T18:05:00	21.2	86.5
129198	2025-07-26T18:15:00	21.1	87.5
129199	2025-07-26T18:25:00	20.7	89
129200	2025-07-26T18:35:00	20.6	88.5
129201	2025-07-26T18:45:00	20.4	90.5
129202	2025-07-26T18:55:00	20.3	93
129203	2025-07-26T19:05:00	20.3	94
129204	2025-07-26T19:15:00	20.1	92.5
129205	2025-07-26T19:25:00	19.9	93.5
129206	2025-07-26T19:35:00	19.8	94
129207	2025-07-26T19:45:00	19	97.5
129208	2025-07-26T19:55:00	18.8	100
129209	2025-07-26T20:05:00	18.6	100
129210	2025-07-26T20:15:00	18.5	99
129211	2025-07-26T20:25:00	18.1	100
129212	2025-07-26T20:45:00	18.1	96.5
129213	2025-07-26T20:55:00	17.9	96.5
129214	2025-07-26T21:05:00	17.8	96.5
129215	2025-07-26T21:15:00	17.7	96.5
129216	2025-07-26T21:25:00	17.7	96.5
129217	2025-07-26T21:35:00	17.7	96.5
129218	2025-07-26T21:45:00	17.7	97
129219	2025-07-26T21:55:00	17.6	97
129220	2025-07-26T22:05:00	17.4	97
129221	2025-07-26T22:15:00	17.2	98.5
129222	2025-07-26T22:25:00	16.9	98.5
129223	2025-07-26T22:35:00	16.8	100
129224	2025-07-26T22:44:59	16.7	100
129225	2025-07-26T22:54:59	16.7	100
129226	2025-07-26T23:04:59	16.6	100
129227	2025-07-26T23:14:59	16.5	100
129228	2025-07-26T23:24:59	16.3	100
129229	2025-07-26T23:34:59	16.4	100
129230	2025-07-26T23:44:59	16.3	100
129231	2025-07-26T23:54:59	16.3	100
129232	2025-07-27T00:04:59	16.3	100
129233	2025-07-27T00:14:59	16.3	100
129234	2025-07-27T00:24:59	16.4	100
129235	2025-07-27T00:34:59	16.5	100
129236	2025-07-27T00:44:59	16.4	100
129237	2025-07-27T00:54:59	16.4	100
129238	2025-07-27T01:04:59	16.4	100
129239	2025-07-27T01:24:59	16.4	100
129240	2025-07-27T01:34:59	16.5	100
129241	2025-07-27T01:44:59	16.5	100
129242	2025-07-27T01:54:59	16.4	100
129243	2025-07-27T02:04:59	16.5	100
129244	2025-07-27T02:14:59	16.4	100
129245	2025-07-27T02:24:59	16.3	100
129246	2025-07-27T02:34:59	16.3	100
129247	2025-07-27T02:44:59	16.5	100
129248	2025-07-27T02:54:59	16.4	100
129249	2025-07-27T03:04:59	16.5	100
129250	2025-07-27T03:14:59	16.4	100
129251	2025-07-27T03:24:59	16.4	100
129252	2025-07-27T04:07:43	16.4	100
129253	2025-07-27T04:07:44	16.4	100
129254	2025-07-27T04:07:44	16.5	100
129255	2025-07-27T04:07:44	16.5	100
129256	2025-07-27T04:14:59	16.3	100
129257	2025-07-27T04:24:59	16.4	100
129258	2025-07-27T04:34:59	16.5	100
129259	2025-07-27T04:44:59	16.6	100
129260	2025-07-27T04:54:59	16.7	100
129261	2025-07-27T05:04:59	16.8	100
129262	2025-07-27T05:14:59	16.8	100
129263	2025-07-27T05:24:59	17	100
129264	2025-07-27T05:34:59	17.2	100
129265	2025-07-27T05:44:59	17.3	100
129266	2025-07-27T05:54:59	17.4	100
129267	2025-07-27T06:04:59	17.6	100
129268	2025-07-27T06:14:59	17.9	100
129269	2025-07-27T06:24:59	18.2	100
129270	2025-07-27T06:34:59	18.4	100
129271	2025-07-27T06:44:59	18.8	100
129272	2025-07-27T06:54:59	19.1	100
129273	2025-07-27T07:04:59	19.3	100
129274	2025-07-27T07:14:59	19.8	100
129275	2025-07-27T07:24:59	20.3	100
129276	2025-07-27T07:34:59	20.2	100
129277	2025-07-27T07:44:59	20.3	100
129278	2025-07-27T07:54:59	20.8	100
129279	2025-07-27T08:04:59	21.1	100
129280	2025-07-27T08:14:59	21.4	100
129281	2025-07-27T08:24:59	21.4	100
129282	2025-07-27T08:34:59	22.2	100
129283	2025-07-27T08:44:59	21.8	86.5
129284	2025-07-27T08:54:59	22	82.5
129285	2025-07-27T09:04:59	22.1	82.5
129286	2025-07-27T09:14:59	22.5	79.5
129287	2025-07-27T09:24:59	22.7	80
129288	2025-07-27T09:34:59	22.7	78
129289	2025-07-27T09:44:59	23.1	75
129290	2025-07-27T09:54:59	23.7	72.5
129291	2025-07-27T10:04:58	24.1	71.5
129292	2025-07-27T10:14:58	24.4	67.5
129293	2025-07-27T10:24:58	24.1	68.5
129294	2025-07-27T10:34:58	24	68
129295	2025-07-27T10:44:58	23.2	79
129296	2025-07-27T10:54:58	22.6	80
129297	2025-07-27T11:04:58	22.2	92.5
129298	2025-07-27T11:24:58	21.8	100
129299	2025-07-27T11:34:58	21.3	100
129300	2025-07-27T11:44:58	19.6	97.5
129301	2025-07-27T11:54:58	20.8	97.5
129302	2025-07-27T12:04:58	21.1	97.5
129303	2025-07-27T12:14:58	21.3	96.5
129304	2025-07-27T12:24:58	21.9	96
129305	2025-07-27T12:34:58	23	96
129306	2025-07-27T12:44:58	23.8	96
129307	2025-07-27T12:54:58	23.2	96
129308	2025-07-27T13:04:58	22.6	96
129309	2025-07-27T13:14:58	24.1	96
129310	2025-07-27T13:24:58	26.5	96
129311	2025-07-27T13:34:58	27.4	96
129312	2025-07-27T13:44:58	25.9	96
129313	2025-07-27T13:54:58	24.7	96
129314	2025-07-27T14:04:58	24	96
129315	2025-07-27T14:14:58	23.4	96
129316	2025-07-27T14:24:58	20.4	96.5
129317	2025-07-27T14:34:58	21.3	96.5
129318	2025-07-27T14:44:58	21.2	96.5
129319	2025-07-27T14:54:58	21.8	96.5
129320	2025-07-27T15:04:58	21.9	96.5
129321	2025-07-27T15:14:58	22.2	96.5
129322	2025-07-27T15:24:58	22.2	96.5
129323	2025-07-27T15:34:58	22.9	96.5
129324	2025-07-27T15:44:58	25.1	96.5
129325	2025-07-27T15:54:58	27.3	96.5
129326	2025-07-27T16:04:58	26.4	96.5
129327	2025-07-27T16:14:58	27.1	96.5
129328	2025-07-27T16:24:58	25.1	96.5
129329	2025-07-27T16:34:58	23.3	96.5
129330	2025-07-27T16:44:58	22.9	96.5
129331	2025-07-27T16:54:58	22.2	96.5
129332	2025-07-27T17:04:58	20.6	96.5
129333	2025-07-27T17:14:58	17.9	96.5
129334	2025-07-27T17:24:58	17.8	96.5
129335	2025-07-27T17:34:58	18	97
129336	2025-07-27T17:44:58	17.9	97
129337	2025-07-27T17:54:58	17.6	97
129338	2025-07-27T18:04:58	17.7	97
129339	2025-07-27T18:14:58	17.5	97
129340	2025-07-27T18:24:58	17.4	97
129341	2025-07-27T18:34:58	17.5	97
129342	2025-07-27T18:44:58	17.3	97
129343	2025-07-27T18:54:58	17.1	97
129344	2025-07-27T19:04:58	17	97
129345	2025-07-27T19:14:58	17	97
129346	2025-07-27T19:24:58	16.9	97
129347	2025-07-27T19:34:58	16.7	97
129348	2025-07-27T19:44:58	16.3	97
129349	2025-07-27T19:54:58	16.4	97
129350	2025-07-27T20:04:58	16.4	97
129351	2025-07-27T20:14:58	16.1	97
129352	2025-07-27T20:24:58	16.2	97
129353	2025-07-27T20:34:58	16.2	97
129354	2025-07-27T20:44:57	16.2	97
129355	2025-07-27T20:54:58	16.2	97
129356	2025-07-27T21:04:57	16.3	97
129357	2025-07-27T21:14:57	16.2	97
129358	2025-07-27T21:24:57	16.1	97
129359	2025-07-27T21:34:57	16	97
129360	2025-07-27T21:44:57	16	97
129361	2025-07-27T21:54:57	15.8	97
129362	2025-07-27T22:04:57	15.9	97
129363	2025-07-27T22:14:57	15.9	97.5
129364	2025-07-27T22:24:57	15.9	97
129365	2025-07-27T22:34:57	15.7	97
129366	2025-07-27T22:44:57	15.8	97
129367	2025-07-27T22:54:57	15.7	97
129368	2025-07-27T23:04:57	15.5	97.5
129369	2025-07-27T23:14:57	15.6	97.5
129370	2025-07-27T23:24:57	15.6	97.5
129371	2025-07-27T23:34:57	15.7	97.5
129372	2025-07-27T23:44:57	15.7	97.5
129373	2025-07-27T23:54:57	15.7	97.5
129374	2025-07-28T00:04:57	15.6	97.5
129375	2025-07-28T00:14:57	15.7	97.5
129376	2025-07-28T00:24:57	15.7	97.5
129377	2025-07-28T00:34:57	15.7	97.5
129378	2025-07-28T00:44:57	15.7	97.5
129379	2025-07-28T00:54:57	15.6	97.5
129380	2025-07-28T01:04:57	15.5	97.5
129381	2025-07-28T01:14:57	15.4	97.5
129382	2025-07-28T01:24:57	15.4	98
129383	2025-07-28T01:34:57	15.4	97.5
129384	2025-07-28T01:44:57	15.3	97.5
129385	2025-07-28T01:54:57	15.5	97.5
129386	2025-07-28T02:04:57	15.2	97.5
129387	2025-07-28T02:14:57	15.4	97.5
129388	2025-07-28T02:24:57	15.3	97.5
129389	2025-07-28T02:34:57	15.2	97.5
129390	2025-07-28T02:44:57	15.1	97.5
129391	2025-07-28T02:54:57	15.1	97.5
129392	2025-07-28T03:04:57	15.1	97.5
129393	2025-07-28T03:14:57	15	97.5
129394	2025-07-28T03:24:57	15.1	97.5
129395	2025-07-28T03:34:57	15.1	97.5
129396	2025-07-28T03:44:57	15.1	97.5
129397	2025-07-28T03:54:57	15.2	97.5
129398	2025-07-28T04:04:57	15.2	97.5
129399	2025-07-28T04:14:57	15.4	97.5
129400	2025-07-28T04:24:57	15.3	97.5
129401	2025-07-28T04:34:57	15.4	97.5
129402	2025-07-28T04:44:57	15.3	97.5
129403	2025-07-28T04:54:57	15.2	97.5
129404	2025-07-28T05:04:57	15.2	97.5
129405	2025-07-28T05:14:57	15.2	97.5
129406	2025-07-28T05:24:57	15.1	97.5
129407	2025-07-28T05:34:57	15.1	97.5
129408	2025-07-28T05:44:57	15.3	97.5
129409	2025-07-28T05:54:57	15.1	97.5
129410	2025-07-28T06:04:57	15.3	97.5
129411	2025-07-28T06:14:57	15.2	97.5
129412	2025-07-28T06:24:57	15.3	97.5
129413	2025-07-28T06:34:57	15.4	97.5
129414	2025-07-28T06:44:57	15.5	97.5
129415	2025-07-28T06:54:57	15.6	97.5
129416	2025-07-28T07:04:57	15.7	97.5
129417	2025-07-28T07:14:57	15.8	97.5
129418	2025-07-28T07:24:57	16	97.5
129419	2025-07-28T07:34:57	15.9	97.5
129420	2025-07-28T07:44:57	16.2	97.5
129421	2025-07-28T07:54:57	16.4	97.5
129422	2025-07-28T08:04:57	16.7	97.5
129423	2025-07-28T08:14:57	16.7	97.5
129424	2025-07-28T08:24:56	16.8	97.5
129425	2025-07-28T08:34:56	16.9	97.5
129426	2025-07-28T08:44:56	17	97.5
129427	2025-07-28T08:54:56	17.2	97.5
129428	2025-07-28T09:04:56	17.7	97.5
129429	2025-07-28T09:14:56	17.8	97.5
129430	2025-07-28T09:24:56	17.8	97.5
129431	2025-07-28T09:34:56	18.3	97.5
129432	2025-07-28T09:44:56	18.3	97.5
129433	2025-07-28T09:54:56	18	97.5
129434	2025-07-28T10:04:56	17.9	97.5
129435	2025-07-28T10:14:56	17.7	97.5
129436	2025-07-28T10:24:56	17.8	97.5
129437	2025-07-28T10:34:56	19.4	97.5
129438	2025-07-28T10:44:56	20.2	97.5
129439	2025-07-28T10:54:56	20.8	97.5
129440	2025-07-28T11:04:56	19.9	97.5
129441	2025-07-28T11:14:56	19.4	97.5
129442	2025-07-28T11:24:56	18.4	97.5
129443	2025-07-28T11:34:56	17.4	97.5
129444	2025-07-28T11:44:56	17.5	97.5
129445	2025-07-28T11:54:56	17.8	97.5
129446	2025-07-28T12:04:56	17.1	97.5
129447	2025-07-28T12:14:56	17.4	97.5
129448	2025-07-28T12:24:56	18.4	97.5
129449	2025-07-28T12:34:56	20.4	97.5
129450	2025-07-28T12:44:56	21.4	97.5
129451	2025-07-28T12:54:56	19.1	97.5
129452	2025-07-28T13:04:56	20.6	97.5
129453	2025-07-28T13:14:56	21.1	97.5
129454	2025-07-28T13:24:56	21.7	97.5
129455	2025-07-28T13:34:56	21.4	97
129456	2025-07-28T13:44:56	19.8	97.5
129457	2025-07-28T13:54:56	19.9	97.5
129458	2025-07-28T14:04:56	21	97.5
129459	2025-07-28T14:14:56	21.9	97.5
129460	2025-07-28T14:24:56	23.2	97.5
129461	2025-07-28T14:34:56	22.7	97.5
129462	2025-07-28T14:44:56	23.1	97.5
129463	2025-07-28T14:54:56	23.2	97.5
129464	2025-07-28T15:04:56	26	97.5
129465	2025-07-28T15:14:56	25.9	97.5
129466	2025-07-28T15:24:56	22.9	100
129467	2025-07-28T15:34:56	20.6	100
129468	2025-07-28T15:44:56	19	100
129469	2025-07-28T15:54:56	18.8	100
129470	2025-07-28T16:04:56	18.3	100
129471	2025-07-28T16:14:56	19.9	100
129472	2025-07-28T16:24:56	20.8	100
129473	2025-07-28T16:34:56	19.8	100
129474	2025-07-28T16:44:56	19.1	100
129475	2025-07-28T16:54:56	19.1	100
129476	2025-07-28T17:04:56	20.2	100
129477	2025-07-28T17:14:56	19.1	100
129478	2025-07-28T17:24:56	19	100
129479	2025-07-28T17:34:56	18.9	100
129480	2025-07-28T17:44:56	19.7	100
129481	2025-07-28T17:54:56	20.1	100
129482	2025-07-28T18:04:56	18.7	100
129483	2025-07-28T18:14:56	18.3	100
129484	2025-07-28T18:24:56	18.4	100
129485	2025-07-28T18:34:56	17.7	100
129486	2025-07-28T18:44:56	17.5	100
129487	2025-07-28T18:54:55	17.1	100
129488	2025-07-28T19:04:55	16.8	100
129489	2025-07-28T19:14:55	16.6	100
129490	2025-07-28T19:24:55	16.7	100
129491	2025-07-28T19:34:55	16.8	100
129492	2025-07-28T19:44:55	16.8	100
129493	2025-07-28T19:54:55	16.6	100
129494	2025-07-28T20:04:55	16.7	100
129495	2025-07-28T20:14:55	16.4	100
129496	2025-07-28T20:24:55	16.2	100
129497	2025-07-28T20:34:55	16	100
129498	2025-07-28T20:44:55	16	100
129499	2025-07-28T20:54:55	15.9	100
129500	2025-07-28T21:04:55	16.1	100
129501	2025-07-28T21:14:55	16.1	100
129502	2025-07-28T21:24:55	16.1	100
129503	2025-07-28T21:34:55	16	100
129504	2025-07-28T21:44:55	16	100
129505	2025-07-28T21:54:55	15.8	100
129506	2025-07-28T22:04:55	15.9	100
129507	2025-07-28T22:14:55	15.7	100
129508	2025-07-28T22:24:55	15.5	100
129509	2025-07-28T22:34:55	15.6	100
129510	2025-07-28T22:44:55	15.7	100
129511	2025-07-28T22:54:55	15.7	100
129512	2025-07-28T23:04:55	15.5	100
129513	2025-07-28T23:14:55	15.5	100
129514	2025-07-28T23:24:55	15.3	100
129515	2025-07-28T23:34:55	15	100
129516	2025-07-28T23:44:55	14.9	98
129517	2025-07-28T23:54:55	14.9	100
129518	2025-07-29T00:14:55	14.4	100
129519	2025-07-29T00:24:55	14.3	100
129520	2025-07-29T00:34:55	14.6	99
129521	2025-07-29T00:44:55	14.5	100
129522	2025-07-29T00:54:55	14.4	100
129523	2025-07-29T01:04:55	14.4	99.5
129524	2025-07-29T01:14:55	14.4	100
129525	2025-07-29T01:24:55	14.4	100
129526	2025-07-29T01:34:55	14.5	100
129527	2025-07-29T01:44:55	14.6	100
129528	2025-07-29T01:54:55	14.5	99.5
129529	2025-07-29T02:04:55	14.7	98.5
129530	2025-07-29T02:14:55	14.7	99
129531	2025-07-29T02:24:55	14.7	98.5
129532	2025-07-29T02:34:55	14.9	98
129533	2025-07-29T02:44:55	14.9	98.5
129534	2025-07-29T02:54:55	14.9	97
129535	2025-07-29T03:04:55	14.8	98
129536	2025-07-29T03:14:55	14.8	98
129537	2025-07-29T03:24:55	14.9	97.5
129538	2025-07-29T03:34:55	14.9	97
129539	2025-07-29T03:44:55	14.9	96.5
129540	2025-07-29T03:54:55	14.9	97.5
129541	2025-07-29T04:04:55	14.9	98.5
129542	2025-07-29T04:14:55	14.9	98
129543	2025-07-29T04:24:55	15	96.5
129544	2025-07-29T04:34:55	15	95.5
129545	2025-07-29T04:44:55	15	96
129546	2025-07-29T04:54:55	14.9	98.5
129547	2025-07-29T05:04:55	14.7	100
129548	2025-07-29T05:14:55	14.6	100
129549	2025-07-29T05:24:55	14.6	100
129550	2025-07-29T05:34:55	14.6	100
129551	2025-07-29T05:44:55	14.8	100
129552	2025-07-29T05:54:55	14.9	100
129553	2025-07-29T06:04:55	15.1	100
129554	2025-07-29T06:14:55	15.3	99.5
129555	2025-07-29T06:24:55	15.9	96
129556	2025-07-29T06:34:55	15.9	95.5
129557	2025-07-29T06:44:55	15.9	96
129558	2025-07-29T06:54:55	16.1	94
129559	2025-07-29T07:04:54	16.2	93
129560	2025-07-29T07:14:54	16.6	92
129561	2025-07-29T07:24:55	16.9	90.5
129562	2025-07-29T07:34:54	17.1	90
129563	2025-07-29T07:44:54	17.2	91
129564	2025-07-29T07:54:54	17.2	92
129565	2025-07-29T08:04:54	17.2	91
129566	2025-07-29T08:14:54	17.5	86.5
129567	2025-07-29T08:24:54	18.1	84.5
129568	2025-07-29T08:34:54	18.2	84
129569	2025-07-29T08:44:54	18	86
129570	2025-07-29T08:54:54	18.4	84
129571	2025-07-29T09:04:54	18.5	83.5
129572	2025-07-29T09:14:54	18.9	82.5
129573	2025-07-29T09:24:54	19	79
129574	2025-07-29T09:34:54	19.3	78.5
129575	2025-07-29T09:44:54	19.6	76.5
129576	2025-07-29T09:54:54	20.2	74.5
129577	2025-07-29T10:04:54	20.5	71.5
129578	2025-07-29T10:14:54	20.5	72.5
129579	2025-07-29T10:24:54	20.4	72.5
129580	2025-07-29T10:34:54	21	71.5
129581	2025-07-29T10:44:54	21.7	67
129582	2025-07-29T10:54:54	21.8	67
129583	2025-07-29T11:04:54	18.9	94.5
129584	2025-07-29T11:14:54	19.6	94.5
129585	2025-07-29T11:24:54	19.9	89.5
129586	2025-07-29T11:34:54	19.8	84.5
129587	2025-07-29T11:44:54	20.5	83
129588	2025-07-29T11:54:54	21.3	76
129589	2025-07-29T12:04:54	21.7	81.5
129590	2025-07-29T12:14:54	25.6	60
129591	2025-07-29T12:24:54	28.4	52
129592	2025-07-29T12:34:54	28.8	54.5
129593	2025-07-29T12:44:54	29.8	43.5
129594	2025-07-29T12:54:54	27.5	49.5
129595	2025-07-29T13:04:54	25.9	51.5
129596	2025-07-29T13:14:54	26.1	52.5
129597	2025-07-29T13:24:54	24.5	53
129598	2025-07-29T13:34:54	28.3	46
129599	2025-07-29T13:44:54	29.2	41.5
129600	2025-07-29T13:54:54	31.2	41
129601	2025-07-29T14:04:54	31.6	38.5
129602	2025-07-29T14:14:54	32.6	37.5
129603	2025-07-29T14:24:54	32.1	36.5
129604	2025-07-29T14:34:54	32.2	37
129605	2025-07-29T14:44:54	30.9	40
129606	2025-07-29T14:54:54	31	39.5
129607	2025-07-29T15:04:54	31.6	38
129608	2025-07-29T15:14:54	29.2	43
129609	2025-07-29T15:24:54	30.6	38.5
129610	2025-07-29T15:34:54	31.4	36.5
129611	2025-07-29T15:44:54	31.6	35.5
129612	2025-07-29T15:54:54	27.6	40.5
129613	2025-07-29T16:04:54	26.8	42.5
129614	2025-07-29T16:14:54	26.4	43.5
129615	2025-07-29T16:24:54	26.2	44.5
129616	2025-07-29T16:34:54	26.6	48
129617	2025-07-29T16:44:54	27	48.5
129618	2025-07-29T16:54:54	27.8	47
129619	2025-07-29T17:04:54	28.1	46
129620	2025-07-29T17:14:54	29.4	44
129621	2025-07-29T17:24:53	29.3	48
129622	2025-07-29T17:34:53	28.1	51.5
129623	2025-07-29T17:44:54	28.4	49.5
129624	2025-07-29T17:54:53	27.2	51
129625	2025-07-29T18:04:53	26.3	56.5
129626	2025-07-29T18:14:53	25.5	61.5
129627	2025-07-29T18:24:53	24.7	62
129628	2025-07-29T18:34:53	24	63.5
129629	2025-07-29T18:44:53	23.3	65
129630	2025-07-29T18:54:53	22.8	69
129631	2025-07-29T19:04:53	22.5	68.5
129632	2025-07-29T19:14:53	21.4	69
129633	2025-07-29T19:24:53	21.2	70
129634	2025-07-29T19:34:53	21.3	73
129635	2025-07-29T19:44:53	21.1	73
129636	2025-07-29T19:54:53	20.9	71
129637	2025-07-29T20:04:53	20.8	73.5
129638	2025-07-29T20:14:53	20.7	74
129639	2025-07-29T20:24:53	20.3	76
129640	2025-07-29T20:34:53	20.3	77
129641	2025-07-29T20:44:53	20	76
129642	2025-07-29T20:54:53	19.9	76
129643	2025-07-29T21:04:53	19.8	76.5
129644	2025-07-29T21:14:53	19.8	77
129645	2025-07-29T21:24:53	19.7	77
129646	2025-07-29T21:34:53	19.7	77.5
129647	2025-07-29T21:44:53	19.5	78.5
129648	2025-07-29T22:04:53	19.2	81
129649	2025-07-29T22:14:53	19.2	81.5
129650	2025-07-29T22:24:53	19	82
129651	2025-07-29T22:34:53	18.6	83.5
129652	2025-07-29T22:44:53	18.4	85
129653	2025-07-29T22:54:53	18.5	85.5
129654	2025-07-29T23:04:53	18.2	86
129655	2025-07-29T23:14:53	18	86
129656	2025-07-29T23:24:53	17.9	86.5
129657	2025-07-29T23:34:53	17.9	87
129658	2025-07-29T23:44:53	17.7	87.5
129659	2025-07-29T23:54:53	17.8	87.5
129660	2025-07-30T00:04:53	17.4	88.5
129661	2025-07-30T00:14:53	17.6	88.5
129662	2025-07-30T00:24:53	17.4	88
129663	2025-07-30T00:34:53	17.2	88
129664	2025-07-30T00:44:53	17.1	90
129665	2025-07-30T00:54:53	17.1	90.5
129666	2025-07-30T01:04:53	17.1	91
129667	2025-07-30T01:14:53	17	91
129668	2025-07-30T01:24:53	16.9	91.5
129669	2025-07-30T01:34:53	16.8	90
129670	2025-07-30T01:44:53	16.8	91
129671	2025-07-30T01:54:53	16.8	92
129672	2025-07-30T02:04:53	16.4	91.5
129673	2025-07-30T02:14:53	16.5	92.5
129674	2025-07-30T02:24:53	16.5	92.5
129675	2025-07-30T02:34:53	16.5	92.5
129676	2025-07-30T02:44:53	16.6	92
129677	2025-07-30T02:54:53	16.5	93
129678	2025-07-30T03:04:53	16.5	92.5
129679	2025-07-30T03:14:53	16.4	92
129680	2025-07-30T03:24:53	16.3	92.5
129681	2025-07-30T03:34:53	16.2	92
129682	2025-07-30T03:44:53	16.3	91.5
129683	2025-07-30T03:54:53	16.3	92.5
129684	2025-07-30T04:04:53	16.2	93
129685	2025-07-30T04:14:53	16.3	90.5
129686	2025-07-30T04:24:52	16.3	88.5
129687	2025-07-30T04:34:52	16.4	88
129688	2025-07-30T04:44:52	16.2	95.5
129689	2025-07-30T04:54:52	15.5	100
129690	2025-07-30T05:04:52	15.1	100
129691	2025-07-30T05:14:52	15.1	100
129692	2025-07-30T05:24:52	15.2	100
129693	2025-07-30T05:34:52	15.4	100
129694	2025-07-30T05:44:52	15.2	100
129695	2025-07-30T05:54:52	14.9	100
129696	2025-07-30T06:04:52	15.1	100
129697	2025-07-30T06:14:52	15.2	100
129698	2025-07-30T06:24:52	15.3	100
129699	2025-07-30T06:34:52	15.2	100
129700	2025-07-30T06:44:52	15.1	100
129701	2025-07-30T06:54:52	15.1	100
129702	2025-07-30T07:04:52	15.1	100
129703	2025-07-30T07:14:52	15	100
129704	2025-07-30T07:24:52	14.9	100
129705	2025-07-30T07:34:52	14.9	100
129706	2025-07-30T07:44:52	14.9	100
129707	2025-07-30T07:54:52	14.8	100
129708	2025-07-30T08:04:52	14.8	100
129709	2025-07-30T08:14:52	14.8	100
129710	2025-07-30T08:24:52	15	100
129711	2025-07-30T08:34:52	15.4	100
129712	2025-07-30T08:44:52	15.7	100
129713	2025-07-30T08:54:52	15.5	100
129714	2025-07-30T09:04:52	15.3	100
129715	2025-07-30T09:14:52	15.4	100
129716	2025-07-30T09:24:52	16	100
129717	2025-07-30T09:34:52	16.1	100
129718	2025-07-30T10:04:52	17	100
129719	2025-07-30T10:14:52	16.7	100
129720	2025-07-30T10:24:52	16.8	100
129721	2025-07-30T10:34:52	17.2	100
129722	2025-07-30T10:44:52	17.8	100
129723	2025-07-30T10:54:52	18.3	100
129724	2025-07-30T11:04:52	18	100
129725	2025-07-30T11:14:52	18.6	100
129726	2025-07-30T11:24:52	19.1	100
129727	2025-07-30T11:34:52	19.4	100
129728	2025-07-30T11:44:52	20	100
129729	2025-07-30T11:54:52	19.5	100
129730	2025-07-30T12:04:52	19.4	100
129731	2025-07-30T12:14:52	23.2	100
129732	2025-07-30T12:24:52	25.5	60.5
129733	2025-07-30T12:34:52	25.8	58.5
129734	2025-07-30T12:44:52	24.4	64.5
129735	2025-07-30T12:54:52	23.6	66
129736	2025-07-30T13:04:52	27.1	55.5
129737	2025-07-30T13:14:52	23.8	63
129738	2025-07-30T13:24:52	22.4	68
129739	2025-07-30T13:34:52	22.4	68
129740	2025-07-30T13:44:52	23.8	63
129741	2025-07-30T13:54:52	27.3	53.5
129742	2025-07-30T14:04:52	27.6	52
129743	2025-07-30T14:14:52	28.3	49
129744	2025-07-30T14:24:52	28.7	48.5
129745	2025-07-30T14:34:52	29.4	46
129746	2025-07-30T14:44:52	29.8	47
129747	2025-07-30T14:54:52	29.9	45.5
129748	2025-07-30T15:04:52	28.4	50
129749	2025-07-30T15:14:52	29.5	47
129750	2025-07-30T15:24:52	27.7	51
129751	2025-07-30T15:34:51	24.9	58
129752	2025-07-30T15:44:52	24.2	59.5
129753	2025-07-30T15:54:51	25.3	57.5
129754	2025-07-30T16:04:51	24.1	58.5
129755	2025-07-30T16:14:51	25.8	57
129756	2025-07-30T16:24:51	26.7	53
129757	2025-07-30T16:34:51	26.2	54.5
129758	2025-07-30T16:44:51	26.2	54.5
129759	2025-07-30T16:54:51	26.1	55
129760	2025-07-30T17:04:51	26.1	54.5
129761	2025-07-30T17:14:51	26.3	54.5
129762	2025-07-30T17:24:51	25.8	56
129763	2025-07-30T17:34:51	25.7	57.5
129764	2025-07-30T17:54:51	24.7	61
129765	2025-07-30T18:04:51	23.2	63.5
129766	2025-07-30T18:14:51	22.7	65.5
129767	2025-07-30T18:24:51	22.4	66.5
129768	2025-07-30T18:34:51	21.9	67
129769	2025-07-30T18:44:51	21.3	69
129770	2025-07-30T18:54:51	20.8	70.5
129771	2025-07-30T19:04:51	20.3	72
129772	2025-07-30T19:14:51	20.1	72.5
129773	2025-07-30T19:24:51	19.6	73.5
129774	2025-07-30T19:34:51	19.3	74.5
129775	2025-07-30T19:44:51	19.1	77.5
129776	2025-07-30T19:54:51	18.8	78
129777	2025-07-30T20:04:51	18.4	80.5
129778	2025-07-30T20:14:51	18.2	78
129779	2025-07-30T20:24:51	18.2	77.5
129780	2025-07-30T20:34:51	18	77
129781	2025-07-30T20:44:51	18	77
129782	2025-07-30T20:54:51	18.1	77
129783	2025-07-30T21:04:51	18	77.5
129784	2025-07-30T21:14:51	17.8	78.5
129785	2025-07-30T21:24:51	17.9	79
129786	2025-07-30T21:34:51	17.7	80
129787	2025-07-30T21:44:51	17.6	80.5
129788	2025-07-30T21:54:51	17.5	81
129789	2025-07-30T22:04:51	17.3	81.5
129790	2025-07-30T22:14:51	17.2	82.5
129791	2025-07-30T22:24:51	17.2	84
129792	2025-07-30T22:34:51	17	84.5
129793	2025-07-30T22:44:51	17	84.5
129794	2025-07-30T22:54:51	17.1	83.5
129795	2025-07-30T23:04:51	17.1	84
129796	2025-07-30T23:24:51	17.1	84.5
129797	2025-07-30T23:34:51	17.1	83.5
129798	2025-07-30T23:44:51	17.2	83.5
129799	2025-07-30T23:54:51	17.5	83
129800	2025-07-31T00:04:51	17.7	83
129801	2025-07-31T00:14:51	17.7	83
129802	2025-07-31T00:24:51	17.7	83
129803	2025-07-31T00:34:51	17.5	83.5
129804	2025-07-31T00:44:51	17.6	83.5
129805	2025-07-31T00:54:51	17.4	84.5
129806	2025-07-31T01:04:51	17.4	84
129807	2025-07-31T01:14:51	17.1	84.5
129808	2025-07-31T01:24:51	17.1	85.5
129809	2025-07-31T01:34:51	16.8	86.5
129810	2025-07-31T01:44:51	16.9	86.5
129811	2025-07-31T01:54:51	16.8	87.5
129812	2025-07-31T02:04:51	16.5	88
129813	2025-07-31T02:14:51	16.6	88.5
129814	2025-07-31T02:24:50	16.5	88.5
129815	2025-07-31T02:34:50	16.6	88.5
129816	2025-07-31T02:44:50	16.7	88.5
129817	2025-07-31T02:54:50	16.6	88
129818	2025-07-31T03:04:50	16.7	88
129819	2025-07-31T03:14:50	16.8	88
129820	2025-07-31T03:24:50	16.7	88.5
129821	2025-07-31T03:34:50	16.7	89
129822	2025-07-31T03:44:50	16.8	89
129823	2025-07-31T03:54:50	16.6	89
129824	2025-07-31T04:04:50	16.7	89
129825	2025-07-31T04:14:50	16.7	89
129826	2025-07-31T04:24:50	16.7	89
129827	2025-07-31T04:34:50	16.9	89.5
129828	2025-07-31T04:44:50	16.8	89.5
129829	2025-07-31T04:54:50	16.8	89
129830	2025-07-31T05:04:50	16.9	89
129831	2025-07-31T05:14:50	16.1	98.5
129832	2025-07-31T05:24:50	15.8	100
129833	2025-07-31T05:34:50	15.8	100
129834	2025-07-31T05:44:50	15.9	100
129835	2025-07-31T05:54:50	15.8	100
129836	2025-07-31T06:04:50	16	100
129837	2025-07-31T06:14:50	15.9	100
129838	2025-07-31T06:24:50	16	100
129839	2025-07-31T06:34:50	16.2	100
129840	2025-07-31T06:44:50	16.6	100
129841	2025-07-31T06:54:50	16.9	98.5
129842	2025-07-31T07:04:50	17.2	96
129843	2025-07-31T07:14:50	17.7	95
129844	2025-07-31T07:24:50	18	92.5
129845	2025-07-31T07:34:50	18.3	90
129846	2025-07-31T07:44:50	18.6	89
129847	2025-07-31T07:54:50	18.8	88.5
129848	2025-07-31T08:04:50	19	87.5
129849	2025-07-31T08:14:50	19.7	87
129850	2025-07-31T08:24:50	20.1	85.5
129851	2025-07-31T08:34:50	20.2	82.5
129852	2025-07-31T08:44:50	20.1	83
129853	2025-07-31T08:54:50	20.2	82.5
129854	2025-07-31T09:04:50	20.4	82.5
129855	2025-07-31T09:14:50	20.5	81.5
129856	2025-07-31T09:24:50	20.7	80
129857	2025-07-31T09:34:50	21.1	77
129858	2025-07-31T09:44:50	21.6	75
129859	2025-07-31T09:54:50	21.5	74.5
129860	2025-07-31T10:04:50	21.6	74.5
129861	2025-07-31T10:14:50	22	74
129862	2025-07-31T10:24:50	22.3	71
129863	2025-07-31T10:34:50	22.5	71.5
129864	2025-07-31T10:44:50	22.4	72.5
129865	2025-07-31T10:54:50	22.7	68.5
129866	2025-07-31T11:04:50	23.2	68
129867	2025-07-31T11:14:50	23.5	65
129868	2025-07-31T11:24:50	23.4	60
129869	2025-07-31T11:34:50	23.6	58.5
129870	2025-07-31T11:44:50	24.3	58
129871	2025-07-31T11:54:50	24.5	58.5
129872	2025-07-31T12:04:50	24.6	59
129873	2025-07-31T12:14:50	29.2	47
129874	2025-07-31T12:24:50	29.7	46
129875	2025-07-31T12:34:50	31.1	42.5
129876	2025-07-31T12:44:50	30	44
129877	2025-07-31T12:54:50	28.7	47.5
129878	2025-07-31T13:04:50	27.3	49
129879	2025-07-31T13:14:49	30.3	43.5
129880	2025-07-31T13:24:49	31	42
129881	2025-07-31T13:34:49	32.2	38.5
129882	2025-07-31T13:44:49	31.9	40.5
129883	2025-07-31T13:54:49	32.1	39
129884	2025-07-31T14:04:49	31.3	41
129885	2025-07-31T14:14:49	29	48
129886	2025-07-31T14:24:49	29.6	47
129887	2025-07-31T14:34:49	31.8	41.5
129888	2025-07-31T14:44:49	32.7	42.5
129889	2025-07-31T14:54:49	32.3	41
129890	2025-07-31T15:04:49	31	44.5
129891	2025-07-31T15:14:49	30.7	45
129892	2025-07-31T15:24:49	30.3	45.5
129893	2025-07-31T15:34:49	29.2	49.5
129894	2025-07-31T15:44:49	29.9	47.5
129895	2025-07-31T15:54:49	28.4	50
129896	2025-07-31T16:04:49	27.5	51.5
129897	2025-07-31T16:14:49	29	48.5
129898	2025-07-31T16:24:49	28.6	47
129899	2025-07-31T16:34:49	28	48.5
129900	2025-07-31T16:44:49	27.3	48
129901	2025-07-31T16:54:49	28.3	48
129902	2025-07-31T17:04:49	27	51
129903	2025-07-31T17:14:49	26.7	51
129904	2025-07-31T17:24:49	27.4	50
129905	2025-07-31T17:34:49	26.5	53
129906	2025-07-31T17:44:49	25.4	56
129907	2025-07-31T17:54:49	25	57
129908	2025-07-31T18:04:49	24.8	59
129909	2025-07-31T18:14:49	24.5	60
129910	2025-07-31T18:24:49	24.3	60
129911	2025-07-31T18:34:49	24	63
129912	2025-07-31T18:44:49	23.5	64
129913	2025-07-31T18:54:49	23.2	65
129914	2025-07-31T19:04:49	23.1	65
129915	2025-07-31T19:14:49	22.9	65.5
129916	2025-07-31T19:24:49	22.8	65.5
129917	2025-07-31T19:34:49	22.6	68
129918	2025-07-31T19:44:49	22.6	69.5
129919	2025-07-31T19:54:49	22.4	70
129920	2025-07-31T20:04:49	22.4	71
129921	2025-07-31T20:14:49	22.3	71.5
129922	2025-07-31T20:24:49	22.3	73
129923	2025-07-31T20:34:49	21.9	74
129924	2025-07-31T20:44:49	21.8	74.5
129925	2025-07-31T20:54:49	21.7	75
129926	2025-07-31T21:04:49	21.6	76.5
129927	2025-07-31T21:14:49	21.2	77.5
129928	2025-07-31T21:24:49	21.1	78.5
129929	2025-07-31T21:34:49	20.9	78.5
129930	2025-07-31T21:44:49	20.6	78.5
129931	2025-07-31T21:54:49	20.6	79
129932	2025-07-31T22:04:49	20.3	79.5
129933	2025-07-31T22:14:49	20.4	78.5
129934	2025-07-31T22:24:49	20.3	75.5
129935	2025-07-31T22:34:49	20.2	74.5
129936	2025-07-31T22:44:49	20.5	74
129937	2025-07-31T22:54:49	20.5	73.5
129938	2025-07-31T23:04:49	20.5	73
129939	2025-07-31T23:14:48	20.6	73.5
129940	2025-07-31T23:24:48	20.5	74
129941	2025-07-31T23:34:48	20.2	74
129942	2025-07-31T23:44:48	20.2	75
129943	2025-07-31T23:54:48	20.1	75
129944	2025-08-01T00:04:48	20.2	75
129945	2025-08-01T00:14:48	20.1	75
129946	2025-08-01T00:24:48	20.1	75.5
129947	2025-08-01T00:34:48	19.9	75.5
129948	2025-08-01T00:44:48	20	76.5
129949	2025-08-01T00:54:48	19.9	76.5
129950	2025-08-01T01:04:48	19.8	77
129951	2025-08-01T01:14:48	19.7	77
129952	2025-08-01T01:24:48	19.8	76.5
129953	2025-08-01T01:34:48	19	88.5
129954	2025-08-01T01:44:48	18.4	89
129955	2025-08-01T01:54:48	18.3	90.5
129956	2025-08-01T02:04:48	18.3	90
129957	2025-08-01T02:14:48	18.3	89
129958	2025-08-01T02:25:06	18.5	89
129959	2025-08-01T02:34:48	18.4	88.5
129960	2025-08-01T02:44:48	18.5	88
129961	2025-08-01T02:54:48	18.4	88
129962	2025-08-01T03:04:48	18.4	88
129963	2025-08-01T03:14:48	18.4	88.5
129964	2025-08-01T03:24:48	18.4	89
129965	2025-08-01T03:34:48	18.2	89
129966	2025-08-01T03:44:48	18.2	89.5
129967	2025-08-01T03:54:48	18	93.5
129968	2025-08-01T04:04:48	17.9	93.5
129969	2025-08-01T04:14:48	17.8	95
129970	2025-08-01T04:24:48	17.2	100
129971	2025-08-01T04:34:48	17.1	100
129972	2025-08-01T04:44:48	17.4	100
129973	2025-08-01T04:54:48	17.3	100
129974	2025-08-01T05:04:48	17.4	100
129975	2025-08-01T05:14:48	17.6	100
129976	2025-08-01T05:24:48	17.5	100
129977	2025-08-01T05:34:48	17.9	100
129978	2025-08-01T05:44:48	17.9	100
129979	2025-08-01T05:54:48	17.8	100
129980	2025-08-01T06:04:48	17.5	100
129981	2025-08-01T06:14:48	17.5	100
129982	2025-08-01T06:24:48	17.3	100
129983	2025-08-01T06:34:48	17.3	100
129984	2025-08-01T06:44:48	17.4	100
129985	2025-08-01T06:54:48	17.7	100
129986	2025-08-01T07:04:48	17.9	100
129987	2025-08-01T07:14:48	17.9	100
129988	2025-08-01T07:24:48	18.3	94
129989	2025-08-01T07:34:48	18.7	88.5
129990	2025-08-01T07:44:48	19.1	86
129991	2025-08-01T07:54:48	19.2	84
129992	2025-08-01T08:04:48	19.5	83
129993	2025-08-01T08:14:48	19.6	81
129994	2025-08-01T08:24:48	19.9	82.5
129995	2025-08-01T08:34:48	20.1	81.5
129996	2025-08-01T08:44:48	20.5	79
129997	2025-08-01T08:54:48	20.3	79
129998	2025-08-01T09:04:48	20.8	77.5
129999	2025-08-01T09:14:48	21	77
130000	2025-08-01T09:24:48	20.9	78
130001	2025-08-01T09:34:48	21.2	78.5
130002	2025-08-01T09:44:48	20.9	78.5
130003	2025-08-01T09:54:48	21.2	79
130004	2025-08-01T10:04:48	21.1	77.5
130005	2025-08-01T10:14:47	21.5	77
130006	2025-08-01T10:24:47	22	75.5
130007	2025-08-01T10:34:47	22.2	75.5
130008	2025-08-01T10:44:47	22.3	72.5
130009	2025-08-01T10:54:47	22.8	72.5
130010	2025-08-01T11:04:47	23.6	69.5
130011	2025-08-01T11:14:47	23.5	68
130012	2025-08-01T11:24:47	22.4	72
130013	2025-08-01T11:34:47	19.9	100
130014	2025-08-01T11:44:47	19.8	100
130015	2025-08-01T11:54:47	21.2	100
130016	2025-08-01T12:04:47	20.6	100
130017	2025-08-01T12:14:47	20.1	100
130018	2025-08-01T12:24:47	19.7	100
130019	2025-08-01T12:34:47	20.1	100
130020	2025-08-01T12:44:47	21.7	100
130021	2025-08-01T12:54:47	25.7	89.5
130022	2025-08-01T13:04:47	27.3	64
130023	2025-08-01T13:14:47	27.3	61.5
130024	2025-08-01T13:24:47	27	60
130025	2025-08-01T13:34:47	26.9	61.5
130026	2025-08-01T13:44:47	29.3	54
130027	2025-08-01T13:54:47	29.4	55
130028	2025-08-01T14:04:47	27.8	60.5
130029	2025-08-01T14:14:47	27.3	60.5
130030	2025-08-01T14:24:47	26.2	63
130031	2025-08-01T14:34:47	24.1	70.5
130032	2025-08-01T14:44:47	23.1	70
130033	2025-08-01T14:54:47	22.5	69.5
130034	2025-08-01T15:04:47	21.9	72.5
130035	2025-08-01T15:14:47	21.7	74
130036	2025-08-01T15:24:47	21.5	75
130037	2025-08-01T15:34:47	20.6	84.5
130038	2025-08-01T15:44:47	20.1	86.5
130039	2025-08-01T15:54:47	20.9	84
130040	2025-08-01T16:04:47	21.5	78
130041	2025-08-01T16:14:47	21.7	76
130042	2025-08-01T16:24:47	21.4	75.5
130043	2025-08-01T16:34:47	21.1	76
130044	2025-08-01T16:44:47	20.8	79.5
130045	2025-08-01T16:54:47	23.1	71
130046	2025-08-01T17:04:47	22.6	70.5
130047	2025-08-01T17:14:47	21.7	75.5
130048	2025-08-01T17:24:47	21.3	75.5
130049	2025-08-01T17:34:47	20.9	77.5
130050	2025-08-01T17:44:47	20.6	79.5
130051	2025-08-01T17:54:47	20.2	82
130052	2025-08-01T18:04:47	19.5	89
130053	2025-08-01T18:14:47	18.4	95.5
130054	2025-08-01T18:24:47	17.7	100
130055	2025-08-01T18:34:47	17.4	100
130056	2025-08-01T18:44:47	17.3	100
130057	2025-08-01T18:54:47	16.9	100
130058	2025-08-01T19:04:47	16.9	100
130059	2025-08-01T19:14:47	16.7	100
130060	2025-08-01T19:24:47	16.7	100
130061	2025-08-01T19:34:47	16.7	100
130062	2025-08-01T19:44:47	16.5	100
130063	2025-08-01T19:54:47	16.5	100
130064	2025-08-01T20:04:47	16.5	100
130065	2025-08-01T20:14:47	16.5	100
130066	2025-08-01T20:24:47	16.5	100
130067	2025-08-01T20:44:46	16.3	100
130068	2025-08-01T20:54:46	16.1	100
130069	2025-08-01T21:04:46	16.1	100
130070	2025-08-01T21:14:46	16.2	100
130071	2025-08-01T21:24:46	16.2	100
130072	2025-08-01T21:34:46	16.3	100
130073	2025-08-01T21:44:46	16.3	100
130074	2025-08-01T21:54:46	16.3	100
130075	2025-08-01T22:04:46	16.5	100
130076	2025-08-01T22:14:46	16.3	100
130077	2025-08-01T22:24:46	16.4	100
130078	2025-08-01T22:34:46	16.3	100
130079	2025-08-01T22:44:46	16.3	100
130080	2025-08-01T22:54:46	16.2	100
130081	2025-08-01T23:04:46	16.1	100
130082	2025-08-01T23:14:46	16.1	100
130083	2025-08-01T23:24:46	16.1	100
130084	2025-08-01T23:34:46	16	100
130085	2025-08-01T23:44:46	16	100
130086	2025-08-01T23:54:46	16	100
130087	2025-08-02T00:04:46	16	100
130088	2025-08-02T00:14:46	15.9	100
130089	2025-08-02T00:24:46	15.8	100
130090	2025-08-02T00:34:46	16	100
130091	2025-08-02T00:44:46	15.8	100
130092	2025-08-02T00:54:46	15.8	100
130093	2025-08-02T01:04:46	15.8	100
130094	2025-08-02T01:14:46	15.8	100
130095	2025-08-02T01:24:46	15.8	100
130096	2025-08-02T01:34:46	15.8	100
130097	2025-08-02T01:44:46	15.7	100
130098	2025-08-02T01:54:46	15.8	100
130099	2025-08-02T02:04:46	15.8	100
130100	2025-08-02T02:14:46	15.8	100
130101	2025-08-02T02:24:46	15.8	100
130102	2025-08-02T02:34:46	15.9	100
130103	2025-08-02T02:44:46	15.9	100
130104	2025-08-02T02:54:46	16	100
130105	2025-08-02T03:04:46	15.9	100
130106	2025-08-02T03:14:46	15.8	100
130107	2025-08-02T03:24:46	15.9	100
130108	2025-08-02T03:34:46	15.8	100
130109	2025-08-02T03:44:46	15.6	100
130110	2025-08-02T03:54:46	15.6	100
130111	2025-08-02T04:04:46	15.5	100
130112	2025-08-02T04:14:46	15.7	100
130113	2025-08-02T04:24:46	15.6	100
130114	2025-08-02T04:34:46	15.6	100
130115	2025-08-02T04:44:46	15.6	100
130116	2025-08-02T04:54:46	15.6	100
130117	2025-08-02T05:04:46	15.6	100
130118	2025-08-02T05:14:46	15.6	100
130119	2025-08-02T05:24:46	15.6	100
130120	2025-08-02T05:34:46	15.8	100
130121	2025-08-02T05:44:46	15.8	100
130122	2025-08-02T05:54:46	15.9	100
130123	2025-08-02T06:04:46	16.1	100
130124	2025-08-02T06:14:46	16.3	100
130125	2025-08-02T06:24:46	16.2	100
130126	2025-08-02T06:34:46	16.2	100
130127	2025-08-02T06:44:46	15.9	100
130128	2025-08-02T06:54:46	16	100
130129	2025-08-02T07:04:46	15.9	100
130130	2025-08-02T07:14:46	16.1	100
130131	2025-08-02T07:24:46	16.1	100
130132	2025-08-02T07:34:46	16.2	100
130133	2025-08-02T07:44:46	16.2	100
130134	2025-08-02T07:54:46	16.3	100
130135	2025-08-02T08:04:46	16.3	100
130136	2025-08-02T08:14:46	16.4	100
130137	2025-08-02T08:24:46	16.8	100
130138	2025-08-02T08:34:45	17	100
130139	2025-08-02T08:44:46	17	100
130140	2025-08-02T08:54:45	17.4	100
130141	2025-08-02T09:04:45	17.5	100
130142	2025-08-02T09:14:45	17.6	100
130143	2025-08-02T09:24:45	17.9	100
130144	2025-08-02T09:34:45	18	100
130145	2025-08-02T09:44:45	18.4	91
130146	2025-08-02T09:54:45	18.8	91
130147	2025-08-02T10:04:45	18.5	90
130148	2025-08-02T10:14:45	18.7	86
130149	2025-08-02T10:24:45	19.5	82.5
130150	2025-08-02T10:34:45	20.1	81
130151	2025-08-02T10:44:45	20.6	78.5
130152	2025-08-02T10:54:45	20.4	79.5
130153	2025-08-02T11:04:45	20.7	74.5
130154	2025-08-02T11:14:45	21.3	76.5
130155	2025-08-02T11:24:45	21.2	74.5
130156	2025-08-02T11:34:45	20.1	77.5
130157	2025-08-02T11:44:45	18.4	99
130158	2025-08-02T11:54:45	17.4	100
130159	2025-08-02T12:04:45	16.7	100
130160	2025-08-02T12:14:45	17.3	100
130161	2025-08-02T12:24:45	20.4	100
130162	2025-08-02T12:34:45	20	100
130163	2025-08-02T12:44:45	19.5	100
130164	2025-08-02T12:54:45	20.2	100
130165	2025-08-02T13:04:45	19.2	100
130166	2025-08-02T13:14:45	18.8	100
130167	2025-08-02T13:24:45	19.2	100
130168	2025-08-02T13:34:45	21.2	100
130169	2025-08-02T13:44:45	21.3	99.5
130170	2025-08-02T13:54:45	25.4	99
130171	2025-08-02T14:04:45	26.7	98
130172	2025-08-02T14:14:45	26.6	97
130173	2025-08-02T14:24:45	23.3	100
130174	2025-08-02T14:34:45	22.2	100
130175	2025-08-02T14:44:45	22.6	100
130176	2025-08-02T14:54:45	22.4	100
130177	2025-08-02T15:04:45	25.1	100
130178	2025-08-02T15:14:45	27	100
130179	2025-08-02T15:24:45	27.2	97.5
130180	2025-08-02T15:34:45	26	99
130181	2025-08-02T15:44:45	27	50.5
130182	2025-08-02T15:54:45	25.7	51
130183	2025-08-02T16:04:45	24.6	55.5
130184	2025-08-02T16:14:45	27.8	46.5
130185	2025-08-02T16:24:45	28.5	45
130186	2025-08-02T16:34:45	27.7	45.5
130187	2025-08-02T16:45:06	27.2	46.5
130188	2025-08-02T16:54:45	27.6	45.5
130189	2025-08-02T17:04:45	27.1	47
130190	2025-08-02T17:14:45	26.2	48.5
130191	2025-08-02T17:24:45	24.4	52
130192	2025-08-02T17:34:45	23.2	56
130193	2025-08-02T17:44:45	22.2	59.5
130194	2025-08-02T17:54:45	21.8	62
130195	2025-08-02T18:04:45	21.6	62.5
130196	2025-08-02T18:14:45	21.3	64.5
130197	2025-08-02T18:24:45	21.2	64.5
130198	2025-08-02T18:34:45	20.7	65
130199	2025-08-02T18:44:45	20.5	67
130200	2025-08-02T18:54:45	20.4	68
130201	2025-08-02T19:04:44	20.2	68
130202	2025-08-02T19:24:44	19.7	69
130203	2025-08-02T20:31:44	19.4	70.5
130204	2025-08-02T20:31:48	19.1	72
130205	2025-08-02T20:31:48	18.8	73.5
130206	2025-08-02T20:31:48	18.6	74.5
130207	2025-08-02T20:31:48	18.6	75
130208	2025-08-02T20:34:44	18.3	77.5
130209	2025-08-02T20:54:44	18	79
130210	2025-08-02T21:04:44	17.9	80.5
130211	2025-08-02T21:14:44	17.7	80.5
130212	2025-08-02T21:24:44	17.6	81
130213	2025-08-02T21:34:44	17.4	82
130214	2025-08-02T21:44:44	17.3	82.5
130215	2025-08-02T21:54:44	17.2	83
130216	2025-08-02T22:04:44	17	84
130217	2025-08-02T22:14:44	16.9	85
130218	2025-08-02T22:24:44	16.8	85.5
130219	2025-08-02T22:34:44	16.7	86
130220	2025-08-02T22:44:44	16.6	86.5
130221	2025-08-02T22:54:44	16.6	87
130222	2025-08-02T23:04:44	16.5	87.5
130223	2025-08-02T23:14:44	16.5	88
130224	2025-08-02T23:24:44	16.5	88
130225	2025-08-02T23:34:44	16.5	88.5
130226	2025-08-02T23:44:44	16.4	89.5
130227	2025-08-02T23:54:44	16.3	89.5
130228	2025-08-03T00:04:44	16.3	89.5
130229	2025-08-03T00:14:44	16.3	89.5
130230	2025-08-03T00:24:44	16.2	90.5
130231	2025-08-03T00:34:44	16.2	90.5
130232	2025-08-03T00:44:44	16.1	91
130233	2025-08-03T00:54:44	16.1	92
130234	2025-08-03T01:04:44	16.1	92
130235	2025-08-03T01:14:44	16.1	91.5
130236	2025-08-03T01:24:44	16	91.5
130237	2025-08-03T01:34:44	16	91.5
130238	2025-08-03T01:44:44	15.9	92
130239	2025-08-03T01:54:44	15.9	92
130240	2025-08-03T02:04:44	15.8	92.5
130241	2025-08-03T02:14:44	15.8	92.5
130242	2025-08-03T02:24:44	15.7	92.5
130243	2025-08-03T02:34:44	15.6	92.5
130244	2025-08-03T02:44:44	15.7	92.5
130245	2025-08-03T02:54:44	15.6	92.5
130246	2025-08-03T03:04:44	15.5	92.5
130247	2025-08-03T03:15:01	15.5	92.5
130248	2025-08-03T03:24:44	15.5	92.5
130249	2025-08-03T03:34:44	15.4	93
130250	2025-08-03T03:44:44	15.3	93
130251	2025-08-03T03:54:44	15.2	93
130252	2025-08-03T04:04:44	15.3	93
130253	2025-08-03T04:14:44	15.3	93
130254	2025-08-03T04:24:44	15.3	93
130255	2025-08-03T04:34:44	15.3	93
130256	2025-08-03T04:44:44	15.4	93
130257	2025-08-03T04:54:44	15.5	92.5
130258	2025-08-03T05:04:44	15.6	92.5
130259	2025-08-03T05:14:44	15.6	92
130260	2025-08-03T05:24:44	15.9	92
130261	2025-08-03T05:34:44	16	91
130262	2025-08-03T05:44:44	16	90.5
130263	2025-08-03T05:54:44	16.1	90.5
130264	2025-08-03T06:04:44	16.2	90
130265	2025-08-03T06:14:44	16.1	89.5
130266	2025-08-03T06:24:44	16.3	88
130267	2025-08-03T06:34:43	16.5	85.5
130268	2025-08-03T06:44:43	16.9	82.5
130269	2025-08-03T06:54:43	17	81
130270	2025-08-03T07:04:43	17.2	82.5
130271	2025-08-03T07:14:43	17.4	80.5
130272	2025-08-03T07:24:43	17.4	80
130273	2025-08-03T07:34:43	17.7	78.5
130274	2025-08-03T07:44:43	17.9	77.5
130275	2025-08-03T07:54:43	18	78
130276	2025-08-03T08:04:43	17.9	78
130277	2025-08-03T08:14:43	18.7	77.5
130278	2025-08-03T08:24:43	18.7	74
130279	2025-08-03T08:34:43	19.1	73.5
130280	2025-08-03T08:44:43	18.7	72
130281	2025-08-03T08:54:43	18.6	71.5
130282	2025-08-03T09:04:43	18.6	72
130283	2025-08-03T09:14:43	18.8	72.5
130284	2025-08-03T09:24:43	19.1	70
130285	2025-08-03T09:34:43	19.1	71.5
130286	2025-08-03T09:44:43	19.1	71
130287	2025-08-03T09:54:43	18.9	73
130288	2025-08-03T10:04:43	18.9	71.5
130289	2025-08-03T10:14:43	19.2	71.5
130290	2025-08-03T10:24:43	18.8	77
130291	2025-08-03T10:34:43	19.2	72
130292	2025-08-03T10:44:43	19.9	69
130293	2025-08-03T10:54:43	19.9	67
130294	2025-08-03T11:04:43	20.3	66
130295	2025-08-03T11:14:43	21.2	63.5
130296	2025-08-03T11:24:43	22	62
130297	2025-08-03T11:34:43	21.5	64
130298	2025-08-03T11:44:43	21.4	61
130299	2025-08-03T11:54:43	21.2	61
130300	2025-08-03T12:04:43	20.3	65.5
130301	2025-08-03T12:14:43	19.8	71.5
130302	2025-08-03T12:24:43	19.2	75.5
130303	2025-08-03T12:34:43	19	76
130304	2025-08-03T12:44:43	18.8	74.5
130305	2025-08-03T12:54:43	19.2	75
130306	2025-08-03T13:04:43	19.9	73.5
130307	2025-08-03T13:14:43	22.8	63
130308	2025-08-03T13:24:43	25.3	53.5
130309	2025-08-03T13:34:43	26.7	49.5
130310	2025-08-03T13:44:43	23.7	53
130311	2025-08-03T13:54:43	22.6	56
130312	2025-08-03T14:04:43	21.8	56
130313	2025-08-03T14:14:43	21.5	57.5
130314	2025-08-03T14:24:43	21.6	57
130315	2025-08-03T14:34:43	21.7	56.5
130316	2025-08-03T14:44:43	21.9	57.5
130317	2025-08-03T14:54:43	21.7	56
130318	2025-08-03T15:04:43	22.3	56
130319	2025-08-03T15:14:43	22.2	55
130320	2025-08-03T15:24:43	21.4	56.5
130321	2025-08-03T15:34:43	21.1	57
130322	2025-08-03T15:44:43	21.1	58.5
130323	2025-08-03T15:54:43	21.4	57.5
130324	2025-08-03T16:04:43	21.3	58
130325	2025-08-03T16:14:43	23.1	55
130326	2025-08-03T16:24:43	25.2	51
130327	2025-08-03T16:44:43	24.5	50.5
130328	2025-08-03T16:54:43	23.1	53.5
130329	2025-08-03T17:04:43	22.4	56.5
130330	2025-08-03T17:14:42	22.3	57.5
130331	2025-08-03T17:24:42	21.7	60
130332	2025-08-03T17:34:42	22.3	58
130333	2025-08-03T17:44:43	21.2	60
130334	2025-08-03T17:54:42	20.6	61
130335	2025-08-03T18:04:42	20	62.5
130336	2025-08-03T18:14:42	19.9	65
130337	2025-08-03T18:24:42	19.4	68
130338	2025-08-03T18:34:42	19.2	71
130339	2025-08-03T18:44:42	18.7	71.5
130340	2025-08-03T18:54:42	18.5	73
130341	2025-08-03T19:04:42	18	74
130342	2025-08-03T19:14:42	18	76
130343	2025-08-03T19:24:42	17.7	75
130344	2025-08-03T19:34:42	17.5	76.5
130345	2025-08-03T19:44:42	17.1	76
130346	2025-08-03T19:54:42	17	78.5
130347	2025-08-03T20:04:42	16.9	78.5
130348	2025-08-03T20:14:42	16.8	79
130349	2025-08-03T20:24:42	16.5	80
130350	2025-08-03T20:34:42	16.1	79
130351	2025-08-03T20:44:42	16.3	76.5
130352	2025-08-03T20:54:42	16.4	75.5
130353	2025-08-03T21:04:42	16.5	75
130354	2025-08-03T21:14:42	16.4	76
130355	2025-08-03T21:24:42	16.2	77
130356	2025-08-03T21:34:42	15.7	81.5
130357	2025-08-03T21:44:42	15.7	80.5
130358	2025-08-03T21:54:42	15.4	82.5
130359	2025-08-03T22:04:42	15.4	83
130360	2025-08-03T22:14:42	15.3	85
130361	2025-08-03T22:24:42	15.4	85
130362	2025-08-03T22:34:42	15.1	82.5
130363	2025-08-03T22:44:42	15.2	81.5
130364	2025-08-03T22:54:42	15.4	80
130365	2025-08-03T23:04:42	15.5	79
130366	2025-08-03T23:14:42	15.7	78
130367	2025-08-03T23:24:42	15.8	77.5
130368	2025-08-03T23:34:42	15.7	77.5
130369	2025-08-03T23:44:42	15.8	77
130370	2025-08-03T23:54:42	15.9	76.5
130371	2025-08-04T00:04:42	16.1	77
130372	2025-08-04T00:14:42	16	77
130373	2025-08-04T00:24:42	16.1	76.5
130374	2025-08-04T00:34:42	16.2	76.5
130375	2025-08-04T00:44:42	16.3	77
130376	2025-08-04T00:54:42	16.3	77.5
130377	2025-08-04T01:04:42	16.2	78
130378	2025-08-04T01:14:42	16.2	78
130379	2025-08-04T01:24:42	16.2	78.5
130380	2025-08-04T01:34:42	16.3	78
130381	2025-08-04T01:44:42	16.4	77.5
130382	2025-08-04T01:54:42	16.4	76.5
130383	2025-08-04T02:04:42	16.6	75
130384	2025-08-04T02:14:42	16.8	75.5
130385	2025-08-04T02:24:42	16.6	76
130386	2025-08-04T02:34:42	16.6	76.5
130387	2025-08-04T02:44:42	16.5	76.5
130388	2025-08-04T02:54:42	16.6	77
130389	2025-08-04T03:04:42	16.3	78.5
130390	2025-08-04T03:24:42	15.1	92
130391	2025-08-04T03:34:42	14.9	92.5
130392	2025-08-04T03:44:42	14.8	95.5
130393	2025-08-04T04:04:42	14.8	95
130394	2025-08-04T04:14:42	14.9	95.5
130395	2025-08-04T04:24:42	14.8	94
130396	2025-08-04T04:34:42	14.8	97
130397	2025-08-04T04:44:42	14.7	99
130398	2025-08-04T04:54:41	14.6	99.5
130399	2025-08-04T05:04:42	14.8	99.5
130400	2025-08-04T05:14:41	14.8	99
130401	2025-08-04T05:24:41	14.7	100
130402	2025-08-04T05:34:41	14.7	100
130403	2025-08-04T05:44:41	14.6	100
130404	2025-08-04T05:54:41	14.6	100
130405	2025-08-04T06:04:41	14.6	100
130406	2025-08-04T06:14:41	14.9	100
130407	2025-08-04T06:24:41	15.1	100
130408	2025-08-04T06:34:41	15.2	100
130409	2025-08-04T06:44:41	15.1	100
130410	2025-08-04T06:54:41	15.1	100
130411	2025-08-04T07:04:41	15.1	100
130412	2025-08-04T07:14:41	15.1	100
130413	2025-08-04T07:24:41	15.1	100
130414	2025-08-04T07:34:41	15.1	100
130415	2025-08-04T07:44:41	15.2	100
130416	2025-08-04T07:54:41	15.2	100
130417	2025-08-04T08:04:41	15.3	100
130418	2025-08-04T08:14:41	15.2	100
130419	2025-08-04T08:24:41	15.3	100
130420	2025-08-04T08:34:41	15.5	100
130421	2025-08-04T08:44:41	15.8	100
130422	2025-08-04T08:54:41	16.2	100
130423	2025-08-04T09:04:41	16.6	100
130424	2025-08-04T09:14:41	16.9	100
130425	2025-08-04T09:24:41	17.1	100
130426	2025-08-04T09:34:41	17.3	100
130427	2025-08-04T09:44:41	17.5	100
130428	2025-08-04T09:54:41	17.7	100
130429	2025-08-04T10:04:41	17.8	100
130430	2025-08-04T10:15:00	17.8	100
130431	2025-08-04T10:24:41	18.4	100
130432	2025-08-04T10:34:41	18.8	100
130433	2025-08-04T10:44:41	18.7	100
130434	2025-08-04T10:54:41	18.6	100
130435	2025-08-04T11:04:41	18.7	100
130436	2025-08-04T11:14:41	18.8	100
130437	2025-08-04T11:24:41	19.2	100
130438	2025-08-04T11:34:41	19.6	100
130439	2025-08-04T11:44:41	19.9	100
130440	2025-08-04T11:54:41	19.8	95.5
130441	2025-08-04T12:04:41	19.9	83.5
130442	2025-08-04T12:14:41	20.1	79.5
130443	2025-08-04T12:24:41	20.5	77.5
130444	2025-08-04T12:34:41	20.5	77.5
130445	2025-08-04T12:44:41	21.2	77
130446	2025-08-04T12:54:41	22.5	73.5
130447	2025-08-04T13:04:41	23.8	70
130448	2025-08-04T13:14:41	25.5	66
130449	2025-08-04T13:24:41	25.5	67
130450	2025-08-04T13:34:41	26.3	65.5
130451	2025-08-04T13:44:41	27.7	60.5
130452	2025-08-04T13:54:41	29.5	55
130453	2025-08-04T14:04:41	30.6	51
130454	2025-08-04T14:14:41	30	53.5
130455	2025-08-04T14:24:41	30.3	52
130456	2025-08-04T14:34:41	29	53.5
130457	2025-08-04T14:44:41	28.1	58.5
130458	2025-08-04T14:54:41	30	53.5
130459	2025-08-04T15:04:41	31.4	49
130460	2025-08-04T15:14:41	30.6	50.5
130461	2025-08-04T15:24:41	32	48
130462	2025-08-04T15:34:41	31.7	47
130463	2025-08-04T15:44:41	31.7	45.5
130464	2025-08-04T15:54:40	31.6	47
130465	2025-08-04T16:04:40	31.3	45.5
130466	2025-08-04T16:14:40	30.6	47
130467	2025-08-04T16:24:40	29.6	49.5
130468	2025-08-04T16:34:40	29	51
130469	2025-08-04T16:44:40	28.5	51
130470	2025-08-04T16:54:40	29.7	49
130471	2025-08-04T17:04:40	28.7	52
130472	2025-08-04T17:14:40	29.3	53
130473	2025-08-04T17:24:40	28.3	55
130474	2025-08-04T17:34:40	27.7	58
130475	2025-08-04T17:44:40	27.4	57.5
130476	2025-08-04T17:54:40	26.4	61
130477	2025-08-04T18:04:40	26	62
130478	2025-08-04T18:14:40	25.7	63
130479	2025-08-04T18:24:40	25.1	66
130480	2025-08-04T18:34:40	24.8	67
130481	2025-08-04T18:44:40	24.6	68
130482	2025-08-04T18:54:40	24.4	70
130483	2025-08-04T19:04:40	24.2	69.5
130484	2025-08-04T19:14:40	24.1	74
130485	2025-08-04T19:24:40	23.9	76
130486	2025-08-04T19:34:40	23.6	77
130487	2025-08-04T19:44:40	23.2	76.5
130488	2025-08-04T19:54:40	23	76.5
130489	2025-08-04T20:04:40	22.7	77.5
130490	2025-08-04T20:14:40	22.4	79
130491	2025-08-04T20:24:40	22.2	80
130492	2025-08-04T20:34:40	22	81
130493	2025-08-04T20:44:40	21.9	81.5
130494	2025-08-04T21:04:40	21.3	83
130495	2025-08-04T21:14:40	21	83.5
130496	2025-08-04T21:24:40	20.8	84.5
130497	2025-08-04T21:34:40	20.6	85.5
130498	2025-08-04T21:44:40	20.6	84.5
130499	2025-08-04T21:54:40	20.5	84
130500	2025-08-04T22:04:40	20.5	83.5
130501	2025-08-04T22:14:40	20.3	84.5
130502	2025-08-04T22:24:40	20.3	85.5
130503	2025-08-04T22:34:40	20.3	85
130504	2025-08-04T22:44:40	20.2	85.5
130505	2025-08-04T22:54:40	20.1	86
130506	2025-08-04T23:04:40	20	86
130507	2025-08-04T23:14:40	19.9	86.5
130508	2025-08-04T23:24:40	19.4	87.5
130509	2025-08-04T23:34:40	19.3	88
130510	2025-08-04T23:44:40	19	89
130511	2025-08-04T23:54:40	18.9	89.5
130512	2025-08-05T00:04:40	18.7	90
130513	2025-08-05T00:14:40	18.6	90
130514	2025-08-05T00:24:40	18.3	90.5
130515	2025-08-05T00:34:40	18.4	90.5
130516	2025-08-05T00:44:40	18.3	90.5
130517	2025-08-05T00:54:40	18.3	91
130518	2025-08-05T01:04:40	18.2	91
130519	2025-08-05T01:14:40	18.1	90.5
130520	2025-08-05T01:24:40	18	91
130521	2025-08-05T01:34:40	17.8	91.5
130522	2025-08-05T01:44:40	17.6	92.5
130523	2025-08-05T01:54:40	17.5	92.5
130524	2025-08-05T02:04:40	17.6	92.5
130525	2025-08-05T02:14:39	17.6	92.5
130526	2025-08-05T02:24:39	17.5	92.5
130527	2025-08-05T02:44:39	17.4	93
130528	2025-08-05T02:54:58	17.3	93
130529	2025-08-05T03:04:39	17.2	93.5
130530	2025-08-05T03:14:39	17.1	94
130531	2025-08-05T03:24:39	16.8	94.5
130532	2025-08-05T03:34:39	16.7	94.5
130533	2025-08-05T03:44:39	16.8	94.5
130534	2025-08-05T03:54:39	16.7	95
130535	2025-08-05T04:04:39	16.5	95.5
130536	2025-08-05T04:14:39	16.6	95.5
130537	2025-08-05T04:24:39	16.7	95
130538	2025-08-05T04:34:39	16.7	95
130539	2025-08-05T04:44:39	16.8	95.5
130540	2025-08-05T04:54:39	16.9	95
130541	2025-08-05T05:04:39	17.2	94.5
130542	2025-08-05T05:14:39	17.4	94.5
130543	2025-08-05T05:24:39	17.8	94
130544	2025-08-05T05:34:39	18.1	94
130545	2025-08-05T05:44:39	18.4	93
130546	2025-08-05T05:54:39	18.6	91.5
130547	2025-08-05T06:04:39	18.9	91
130548	2025-08-05T06:14:39	19.1	88
130549	2025-08-05T06:24:39	19.3	88
130550	2025-08-05T06:34:39	19.4	87.5
130551	2025-08-05T06:44:39	19.5	87.5
130552	2025-08-05T06:54:39	19.7	86.5
130553	2025-08-05T07:04:39	19.9	83.5
130554	2025-08-05T07:14:39	19.8	83
130555	2025-08-05T07:24:39	20	84.5
130556	2025-08-05T07:34:39	20	84
130557	2025-08-05T07:44:39	20.3	82.5
130558	2025-08-05T07:54:39	20.5	81.5
130559	2025-08-05T08:04:39	20.7	81.5
130560	2025-08-05T08:14:39	21	80.5
130561	2025-08-05T08:24:39	21.7	77.5
130562	2025-08-05T08:34:39	22.3	76.5
130563	2025-08-05T08:44:39	22.4	75
130564	2025-08-05T08:54:39	22.5	75.5
130565	2025-08-05T09:04:39	22.7	75
130566	2025-08-05T09:14:39	22.8	75.5
130567	2025-08-05T09:24:39	23.3	74.5
130568	2025-08-05T09:34:39	23.9	74
130569	2025-08-05T09:44:39	23.9	74
130570	2025-08-05T09:54:39	23.8	74.5
130571	2025-08-05T10:04:39	24.3	74.5
130572	2025-08-05T10:14:39	24.8	72.5
130573	2025-08-05T10:24:39	24.7	72
130574	2025-08-05T10:34:39	25.2	71
130575	2025-08-05T10:44:39	25.7	70
130576	2025-08-05T10:54:39	26.3	69
130577	2025-08-05T11:04:39	26.3	68
130578	2025-08-05T11:14:39	26.1	67.5
130579	2025-08-05T11:24:39	25.6	68
130580	2025-08-05T11:34:39	25.8	69
130581	2025-08-05T11:44:39	24.3	82
130582	2025-08-05T11:54:39	24.3	74
130583	2025-08-05T12:04:39	20.9	100
130584	2025-08-05T12:14:39	20.3	100
130585	2025-08-05T12:24:39	21.3	100
130586	2025-08-05T12:34:39	21.3	100
130587	2025-08-05T12:44:39	21.2	100
130588	2025-08-05T12:54:38	21.2	100
130589	2025-08-05T13:04:38	21.5	100
130590	2025-08-05T13:14:38	23.7	100
130591	2025-08-05T13:24:38	26.8	100
130592	2025-08-05T13:34:38	25.6	100
130593	2025-08-05T13:44:38	26.7	100
130594	2025-08-05T13:54:38	26.2	100
130595	2025-08-05T14:04:38	25.6	100
130596	2025-08-05T14:14:38	24.6	100
130597	2025-08-05T14:24:38	27.6	100
130598	2025-08-05T14:34:38	30	100
130599	2025-08-05T14:44:38	30	100
130600	2025-08-05T14:54:38	30.5	100
130601	2025-08-05T15:04:38	31.8	100
130602	2025-08-05T15:14:38	31.4	100
130603	2025-08-05T15:24:38	32.4	98
130604	2025-08-05T15:34:38	32.8	91
130605	2025-08-05T15:44:38	33.1	41.5
130606	2025-08-05T15:54:38	32.1	38.5
130607	2025-08-05T16:04:38	31.4	39.5
130608	2025-08-05T16:14:38	31.4	39.5
130609	2025-08-05T16:24:38	31.9	38
130610	2025-08-05T16:34:38	31.6	37.5
130611	2025-08-05T16:44:38	31.3	37
130612	2025-08-05T16:54:38	30.9	38
130613	2025-08-05T17:04:38	30.7	38
130614	2025-08-05T17:14:38	30.1	39.5
130615	2025-08-05T17:24:38	29	41.5
130616	2025-08-05T17:34:38	29.3	41.5
130617	2025-08-05T17:44:38	28.4	44.5
130618	2025-08-05T17:54:38	27.2	47.5
130619	2025-08-05T18:04:38	26.5	48
130620	2025-08-05T18:14:38	25.7	48.5
130621	2025-08-05T18:24:38	25	50.5
130622	2025-08-05T18:34:38	24.6	50
130623	2025-08-05T18:44:38	24.1	49.5
130624	2025-08-05T18:54:38	23.6	49.5
130625	2025-08-05T19:04:38	23.4	52
130626	2025-08-05T19:14:38	23.2	58
130627	2025-08-05T19:24:38	23.1	60
130628	2025-08-05T19:34:38	22.8	61
130629	2025-08-05T19:44:38	22.4	64.5
130630	2025-08-05T19:54:38	21.8	65.5
130631	2025-08-05T20:04:38	21.2	67
130632	2025-08-05T20:14:38	20.7	67.5
130633	2025-08-05T20:24:38	20.5	69
130634	2025-08-05T20:34:38	19.8	69.5
130635	2025-08-05T20:44:38	19.7	69.5
130636	2025-08-05T20:54:38	19.7	69
130637	2025-08-05T21:04:38	19.5	68.5
130638	2025-08-05T21:14:38	19.5	68
130639	2025-08-05T21:24:38	19.4	68
130640	2025-08-05T21:34:38	19.2	70.5
130641	2025-08-05T21:44:38	19.1	72
130642	2025-08-05T21:54:38	18.8	70
130643	2025-08-05T22:04:38	18.8	71
130644	2025-08-05T22:14:38	18.8	70.5
130645	2025-08-05T22:24:38	19	71
130646	2025-08-05T22:34:38	19	71.5
130647	2025-08-05T22:44:38	18.6	72
130648	2025-08-05T22:54:53	18.5	73.5
130649	2025-08-05T23:04:38	18.5	75.5
130650	2025-08-05T23:14:38	18.4	77
130651	2025-08-05T23:24:38	18.4	78
130652	2025-08-05T23:34:38	18.2	77.5
130653	2025-08-05T23:44:37	18	78.5
130654	2025-08-05T23:54:37	17.8	79.5
130655	2025-08-06T00:04:37	17.7	80.5
130656	2025-08-06T00:14:37	17.6	80
130657	2025-08-06T00:24:37	17.3	79.5
130658	2025-08-06T00:34:37	17.1	81
130659	2025-08-06T00:44:37	17	82.5
130660	2025-08-06T00:54:37	16.5	83.5
130661	2025-08-06T01:04:38	16.3	84
130662	2025-08-06T01:14:38	16	85
130663	2025-08-06T01:24:37	15.7	85.5
130664	2025-08-06T01:34:37	15.5	85.5
130665	2025-08-06T01:44:37	15.3	86
130666	2025-08-06T01:54:37	15	86
130667	2025-08-06T02:04:37	14.9	86.5
130668	2025-08-06T02:14:37	14.7	86
130669	2025-08-06T02:24:37	14.5	86.5
130670	2025-08-06T02:34:37	14.3	86.5
130671	2025-08-06T02:44:37	14.1	87
130672	2025-08-06T02:54:37	13.9	87
130673	2025-08-06T03:04:37	13.6	87
130674	2025-08-06T03:14:37	13.4	87.5
130675	2025-08-06T03:24:37	13.5	87.5
130676	2025-08-06T03:34:37	13.3	88
130677	2025-08-06T03:44:37	13.1	88
130678	2025-08-06T03:54:37	12.9	88
130679	2025-08-06T04:04:37	12.8	88.5
130680	2025-08-06T04:14:37	12.7	88.5
130681	2025-08-06T04:24:37	12.7	89
130682	2025-08-06T04:34:37	12.7	89
130683	2025-08-06T04:44:37	12.7	89
130684	2025-08-06T04:54:37	12.7	88.5
130685	2025-08-06T05:04:37	12.8	89
130686	2025-08-06T05:14:37	12.8	89.5
130687	2025-08-06T05:24:37	13.1	89.5
130688	2025-08-06T05:34:37	13.1	88.5
130689	2025-08-06T05:44:37	13.4	88.5
130690	2025-08-06T05:54:37	13.6	88.5
130691	2025-08-06T06:04:37	13.8	88
130692	2025-08-06T06:14:37	14	87.5
130693	2025-08-06T06:24:37	14.2	86.5
130694	2025-08-06T06:34:37	14.8	85
130695	2025-08-06T06:44:37	15.2	83.5
130696	2025-08-06T06:54:37	15.5	82
130697	2025-08-06T07:04:37	16.1	80.5
130698	2025-08-06T07:14:37	16.4	77
130699	2025-08-06T07:24:37	16.8	73.5
130700	2025-08-06T07:34:37	17	72.5
130701	2025-08-06T07:44:37	17.3	70
130702	2025-08-06T07:54:37	17.7	70.5
130703	2025-08-06T08:04:37	18	69
130704	2025-08-06T08:14:37	18.4	70.5
130705	2025-08-06T08:24:37	18.6	67
130706	2025-08-06T08:34:37	18.8	68.5
130707	2025-08-06T08:44:37	19.1	68
130708	2025-08-06T08:54:37	19.5	66.5
130709	2025-08-06T09:04:37	19.8	66.5
130710	2025-08-06T09:14:37	20	65.5
130711	2025-08-06T09:24:37	20.4	65
130712	2025-08-06T09:34:37	20.8	61
130713	2025-08-06T09:44:37	21.1	59
130714	2025-08-06T09:54:37	21.5	58.5
130715	2025-08-06T10:04:37	21.6	55
130716	2025-08-06T10:14:37	22	55
130717	2025-08-06T10:24:37	22.3	53.5
130718	2025-08-06T10:34:37	22.6	55
130719	2025-08-06T10:44:37	23.1	53
130720	2025-08-06T10:54:37	23.5	53
130721	2025-08-06T11:04:36	23.7	51.5
130722	2025-08-06T11:14:36	23.9	51.5
130723	2025-08-06T11:24:36	24.7	52.5
130724	2025-08-06T11:34:36	24.6	48
130725	2025-08-06T11:44:36	25.1	50
130726	2025-08-06T11:54:36	25.5	49
130727	2025-08-06T12:04:36	25.8	48
130728	2025-08-06T12:14:36	29.1	41.5
130729	2025-08-06T12:24:36	31.3	39
130730	2025-08-06T12:34:36	33.4	34.5
130731	2025-08-06T12:44:36	34.5	33
130732	2025-08-06T12:54:36	35.8	31.5
130733	2025-08-06T13:04:36	36.2	30.5
130734	2025-08-06T13:14:36	37.4	30
130735	2025-08-06T13:24:36	37.5	29
130736	2025-08-06T13:34:36	34.8	31.5
130737	2025-08-06T13:44:36	34.6	31
130738	2025-08-06T13:54:36	36.1	32
130739	2025-08-06T14:04:36	37	28.5
130740	2025-08-06T14:14:36	37.1	29.5
130741	2025-08-06T14:24:36	37.1	28
130742	2025-08-06T14:34:36	36.2	28.5
130743	2025-08-06T14:44:36	37.1	28
130744	2025-08-06T14:54:36	36.3	28
130745	2025-08-06T15:04:36	37.3	28
130746	2025-08-06T15:14:36	36.5	28
130747	2025-08-06T15:24:36	36.8	28.5
130748	2025-08-06T15:34:36	36.7	27.5
130749	2025-08-06T15:44:36	36.9	28
130750	2025-08-06T15:54:36	37	29
130751	2025-08-06T16:04:36	36.5	28.5
130752	2025-08-06T16:14:36	36.3	29
130753	2025-08-06T16:24:36	35.2	28.5
130754	2025-08-06T16:34:36	34.9	29
130755	2025-08-06T16:44:36	34.3	30
130756	2025-08-06T16:54:36	34	32
130757	2025-08-06T17:04:36	33.6	32
130758	2025-08-06T17:14:36	32.8	32.5
130759	2025-08-06T17:24:36	32.4	32.5
130760	2025-08-06T17:34:36	31.8	34
130761	2025-08-06T17:44:36	30.4	35.5
130762	2025-08-06T17:54:36	29.1	37.5
130763	2025-08-06T18:04:36	27.9	39.5
130764	2025-08-06T18:14:36	27	43.5
130765	2025-08-06T18:24:36	26.3	46
130766	2025-08-06T18:34:36	25.8	46
130767	2025-08-06T18:44:36	24.9	46
130768	2025-08-06T18:54:36	24.4	48.5
130769	2025-08-06T19:04:36	23.8	49
130770	2025-08-06T19:14:36	23.2	50.5
130771	2025-08-06T19:24:36	22.7	52
130772	2025-08-06T19:34:36	22.4	55.5
130773	2025-08-06T19:44:36	21.7	58
130774	2025-08-06T19:54:36	20.7	60.5
130775	2025-08-06T20:04:36	20.5	62
130776	2025-08-06T20:14:36	20.1	62.5
130777	2025-08-06T20:24:36	19.8	63.5
130778	2025-08-06T20:34:36	19.4	64.5
130779	2025-08-06T20:44:36	19.4	65.5
130780	2025-08-06T20:54:36	19	66.5
130781	2025-08-06T21:04:36	18.8	66.5
130782	2025-08-06T21:14:36	18.5	67.5
130783	2025-08-06T21:24:36	18.3	69
130784	2025-08-06T21:34:35	18	69.5
130785	2025-08-06T21:44:35	17.8	69
130786	2025-08-06T21:54:35	17.7	69
130787	2025-08-06T22:04:35	17.6	70.5
130788	2025-08-06T22:14:35	17.3	70.5
130789	2025-08-06T22:24:35	17.1	71
130790	2025-08-06T22:34:35	16.9	71.5
130791	2025-08-06T22:44:35	16.7	72
130792	2025-08-06T22:54:35	16.5	72.5
130793	2025-08-06T23:04:35	16.4	72.5
130794	2025-08-06T23:14:35	16.1	73
130795	2025-08-06T23:24:35	16.1	73.5
130796	2025-08-06T23:34:36	16.1	74
130797	2025-08-06T23:44:35	15.7	75.5
130798	2025-08-06T23:54:35	15.4	76.5
130799	2025-08-07T00:04:35	15.2	77
130800	2025-08-07T00:14:35	15	78.5
130801	2025-08-07T00:24:35	14.9	79
130802	2025-08-07T00:34:35	14.7	79.5
130803	2025-08-07T00:44:35	14.4	81
130804	2025-08-07T00:54:35	14.3	81.5
130805	2025-08-07T01:04:35	14.1	81.5
130806	2025-08-07T01:14:35	13.8	82.5
130807	2025-08-07T01:24:35	13.8	83.5
130808	2025-08-07T01:34:35	13.7	84.5
130809	2025-08-07T01:44:35	13.5	84.5
130810	2025-08-07T01:54:35	13.5	85
130811	2025-08-07T02:04:35	13.3	85
130812	2025-08-07T02:14:35	13.2	85.5
130813	2025-08-07T02:24:35	13.2	86
130814	2025-08-07T02:34:35	13	86.5
130815	2025-08-07T02:44:35	12.9	87
130816	2025-08-07T02:54:35	13	86.5
130817	2025-08-07T03:04:35	12.8	86.5
130818	2025-08-07T03:14:35	12.8	87
130819	2025-08-07T03:24:35	12.8	87
130820	2025-08-07T03:34:35	12.7	88
130821	2025-08-07T03:44:35	12.5	89
130822	2025-08-07T03:54:35	12.3	89
130823	2025-08-07T04:04:35	12.4	89.5
130824	2025-08-07T04:14:35	12.1	90.5
130825	2025-08-07T04:24:35	12.4	90.5
130826	2025-08-07T04:34:35	12.6	89.5
130827	2025-08-07T04:44:35	12.8	89
130828	2025-08-07T04:54:35	12.9	89
130829	2025-08-07T05:04:35	13.1	89.5
130830	2025-08-07T05:14:35	13.2	90
130831	2025-08-07T05:24:35	13.4	89.5
130832	2025-08-07T05:34:35	13.6	89
130833	2025-08-07T05:44:35	13.7	88.5
130834	2025-08-07T05:54:35	13.7	88
130835	2025-08-07T06:04:35	13.8	89
130836	2025-08-07T06:14:35	13.9	89
130837	2025-08-07T06:24:35	14	88.5
130838	2025-08-07T06:34:35	14.1	87.5
130839	2025-08-07T06:44:35	14.2	88
130840	2025-08-07T06:54:35	14.4	87
130841	2025-08-07T07:04:35	14.8	86
130842	2025-08-07T07:14:35	15.1	84.5
130843	2025-08-07T07:24:35	15.2	85
130844	2025-08-07T07:34:35	15.5	84
130845	2025-08-07T07:44:35	16	85
130846	2025-08-07T07:54:35	16.3	84
130847	2025-08-07T08:04:35	16.2	84.5
130848	2025-08-07T08:14:35	16.6	82.5
130849	2025-08-07T08:24:35	16.9	80
130850	2025-08-07T08:34:35	17.7	78
130851	2025-08-07T08:44:35	17.9	79
130852	2025-08-07T08:54:35	18.2	76.5
130853	2025-08-07T09:04:35	18.4	76
130854	2025-08-07T09:24:35	19.1	74.5
130855	2025-08-07T09:34:35	19.3	76
130856	2025-08-07T09:44:35	19.5	73.5
130857	2025-08-07T09:54:35	20.1	69.5
130858	2025-08-07T10:04:34	20.6	69.5
130859	2025-08-07T10:14:34	21	66.5
130860	2025-08-07T10:24:34	21.8	65.5
130861	2025-08-07T10:34:34	22	65.5
130862	2025-08-07T10:44:34	22.2	63.5
130863	2025-08-07T10:54:34	22.6	62.5
130864	2025-08-07T11:04:34	22.9	60.5
130865	2025-08-07T11:14:34	23.2	62
130866	2025-08-07T11:24:34	23.8	59
130867	2025-08-07T11:34:34	23.9	59
130868	2025-08-07T11:44:34	24	56.5
130869	2025-08-07T11:54:34	24.1	56.5
130870	2025-08-07T12:04:34	24.6	56
130871	2025-08-07T12:14:34	30.3	42.5
130872	2025-08-07T12:24:34	31.8	39
130873	2025-08-07T12:34:34	32.9	38
130874	2025-08-07T12:44:34	33.6	37.5
130875	2025-08-07T12:54:34	34	38
130876	2025-08-07T13:04:34	34.6	35
130877	2025-08-07T13:14:34	35.5	35
130878	2025-08-07T13:24:34	33.5	36
130879	2025-08-07T13:34:34	35.4	35.5
130880	2025-08-07T13:44:34	36	33.5
130881	2025-08-07T13:54:34	35.8	33.5
130882	2025-08-07T14:04:34	35.4	34.5
130883	2025-08-07T14:14:34	36.9	32.5
130884	2025-08-07T14:24:34	36.1	34
130885	2025-08-07T14:34:34	36	32.5
130886	2025-08-07T14:44:34	36.5	31.5
130887	2025-08-07T14:54:34	35.7	32.5
130888	2025-08-07T15:04:34	37.7	30.5
130889	2025-08-07T15:14:34	36.3	31.5
130890	2025-08-07T15:24:34	36.1	32.5
130891	2025-08-07T15:34:34	36.7	31.5
130892	2025-08-07T15:44:34	35.5	33.5
130893	2025-08-07T15:54:34	34.3	34.5
130894	2025-08-07T16:04:34	32.8	37.5
130895	2025-08-07T16:14:34	32.4	38.5
130896	2025-08-07T16:24:34	34.6	38
130897	2025-08-07T16:34:34	35.7	35.5
130898	2025-08-07T16:44:34	34.7	34.5
130899	2025-08-07T16:54:34	34.8	35
130900	2025-08-07T17:04:34	35.1	34.5
130901	2025-08-07T17:14:34	34.3	35
130902	2025-08-07T17:24:34	33.2	37
130903	2025-08-07T17:34:34	34.1	37
130904	2025-08-07T17:44:34	32.9	38
130905	2025-08-07T17:54:34	31.4	40.5
130906	2025-08-07T18:04:34	30.2	43
130907	2025-08-07T18:14:34	30	50
130908	2025-08-07T18:24:34	29.5	52.5
130909	2025-08-07T18:34:34	28.4	54.5
130910	2025-08-07T18:44:34	28	56
130911	2025-08-07T18:54:34	27.5	58
130912	2025-08-07T19:04:34	27	58.5
130913	2025-08-07T19:14:34	26.5	59.5
130914	2025-08-07T19:24:34	26.1	59.5
130915	2025-08-07T19:34:34	25.5	64
130916	2025-08-07T19:44:34	25.1	64
130917	2025-08-07T19:54:34	24.8	65
130918	2025-08-07T20:04:34	24.3	66
130919	2025-08-07T20:14:34	24	67
130920	2025-08-07T20:24:34	23.7	67.5
130921	2025-08-07T20:34:34	23.4	67.5
130922	2025-08-07T20:44:34	23.1	68.5
130923	2025-08-07T21:04:33	22.5	69.5
130924	2025-08-07T21:14:33	22.2	70
130925	2025-08-07T21:24:33	22	70.5
130926	2025-08-07T21:34:33	21.8	71.5
130927	2025-08-07T21:44:33	21.5	71.5
130928	2025-08-07T21:54:33	21.1	70.5
130929	2025-08-07T22:04:33	20.9	71.5
130930	2025-08-07T22:14:33	20.6	73
130931	2025-08-07T22:24:33	20.6	73.5
130932	2025-08-07T22:34:33	20.3	73.5
130933	2025-08-07T22:44:33	20.1	74.5
130934	2025-08-07T22:54:33	19.9	75
130935	2025-08-07T23:04:33	19.7	75.5
130936	2025-08-07T23:14:33	19.5	76
130937	2025-08-07T23:24:33	19.4	77
130938	2025-08-07T23:34:33	19.2	77
130939	2025-08-07T23:44:33	19	78
130940	2025-08-07T23:54:33	18.9	78.5
130941	2025-08-08T00:04:33	18.7	79
130942	2025-08-08T00:14:33	18.5	80
130943	2025-08-08T00:24:33	18.3	80.5
130944	2025-08-08T00:34:33	18	81.5
130945	2025-08-08T00:44:33	17.8	82.5
130946	2025-08-08T00:54:33	17.6	83
130947	2025-08-08T01:04:33	17.6	83
130948	2025-08-08T01:14:33	17.4	83.5
130949	2025-08-08T01:24:33	17.3	83.5
130950	2025-08-08T01:34:33	17.2	83.5
130951	2025-08-08T01:44:33	17	84.5
130952	2025-08-08T01:54:33	16.8	84
130953	2025-08-08T02:04:33	16.7	84
130954	2025-08-08T02:14:33	16.6	84
130955	2025-08-08T02:24:33	16.5	85.5
130956	2025-08-08T02:34:33	16.3	86
130957	2025-08-08T02:44:33	16.2	86
130958	2025-08-08T02:54:33	16	86
130959	2025-08-08T03:04:33	15.9	86.5
130960	2025-08-08T03:14:33	15.8	87.5
130961	2025-08-08T03:24:33	15.7	87.5
130962	2025-08-08T03:34:33	15.6	87.5
130963	2025-08-08T03:44:33	15.4	87.5
130964	2025-08-08T03:54:33	15.5	87.5
130965	2025-08-08T04:04:33	15.4	87.5
130966	2025-08-08T04:14:33	15.3	88
130967	2025-08-08T04:24:33	15.2	87.5
130968	2025-08-08T04:34:33	15.2	87.5
130969	2025-08-08T04:44:33	15.2	87.5
130970	2025-08-08T04:54:33	15.1	88
130971	2025-08-08T05:04:33	15.3	88
130972	2025-08-08T05:14:33	15.3	88.5
130973	2025-08-08T05:24:33	15.6	88.5
130974	2025-08-08T05:34:33	15.9	88.5
130975	2025-08-08T05:44:33	16.2	87
130976	2025-08-08T05:54:33	16.8	85
130977	2025-08-08T06:04:33	17	83
130978	2025-08-08T06:14:33	17.5	82
130979	2025-08-08T06:24:33	17.9	83
130980	2025-08-08T06:34:33	18.4	81.5
130981	2025-08-08T06:44:33	18.7	79
130982	2025-08-08T06:54:33	19	78
130983	2025-08-08T07:04:33	19.1	79
130984	2025-08-08T07:14:33	19.1	80
130985	2025-08-08T07:24:33	19.1	78
130986	2025-08-08T07:34:32	19.2	78.5
130987	2025-08-08T07:44:32	19.6	78.5
130988	2025-08-08T07:54:32	20	76.5
130989	2025-08-08T08:04:32	20.4	76
130990	2025-08-08T08:14:32	21.1	74.5
130991	2025-08-08T08:24:32	21.6	73
130992	2025-08-08T08:34:32	22	71
130993	2025-08-08T08:44:32	22.3	70
130994	2025-08-08T08:54:32	22.3	71.5
130995	2025-08-08T09:04:32	22.5	71
130996	2025-08-08T09:14:32	22.9	70.5
130997	2025-08-08T09:24:32	23.3	68.5
130998	2025-08-08T09:34:32	23.7	67
130999	2025-08-08T09:44:32	24.2	64
131000	2025-08-08T09:54:32	24.4	61
131001	2025-08-08T10:04:32	24.8	59
131002	2025-08-08T10:14:32	25	59
131003	2025-08-08T10:24:32	25.4	57.5
131004	2025-08-08T10:34:32	25.6	58.5
131005	2025-08-08T10:44:32	25.9	59
131006	2025-08-08T10:54:32	26.1	58.5
131007	2025-08-08T11:04:32	26.5	56.5
131008	2025-08-08T11:14:32	26.7	55
131009	2025-08-08T11:24:32	27	56
131010	2025-08-08T11:34:32	27.2	55
131011	2025-08-08T11:44:32	27.8	52.5
131012	2025-08-08T11:54:32	27.9	51
131013	2025-08-08T12:04:32	28.5	50
131014	2025-08-08T12:14:32	33.5	41
131015	2025-08-08T12:24:32	35.7	34.5
131016	2025-08-08T12:34:32	38.4	32
131017	2025-08-08T12:44:32	38.8	29
131018	2025-08-08T12:54:32	38.3	28.5
131019	2025-08-08T13:04:32	39.6	27.5
131020	2025-08-08T13:14:32	40.2	25.5
131021	2025-08-08T13:24:32	39.7	24
131022	2025-08-08T13:34:32	40.1	24.5
131023	2025-08-08T13:44:32	40.9	25
131024	2025-08-08T13:54:32	40.7	25
131025	2025-08-08T14:04:32	41.1	24.5
131026	2025-08-08T14:14:32	39.9	24
131027	2025-08-08T14:24:32	41	25
131028	2025-08-08T14:34:32	40.5	24
131029	2025-08-08T14:44:32	40.1	26
131030	2025-08-08T14:54:32	41.1	25.5
131031	2025-08-08T15:04:32	39.3	26.5
131032	2025-08-08T15:14:32	40.8	27
131033	2025-08-08T15:24:32	41.6	25
131034	2025-08-08T15:34:32	42	25
131035	2025-08-08T15:44:32	41.9	24
131036	2025-08-08T15:54:32	41.1	24
131037	2025-08-08T16:04:32	41.7	23
131038	2025-08-08T16:14:32	41.4	23.5
131039	2025-08-08T16:24:32	40.9	25.5
131040	2025-08-08T16:34:32	40.2	25
131041	2025-08-08T16:44:32	39.8	26
131042	2025-08-08T16:54:32	40.7	25.5
131043	2025-08-08T17:04:32	39.8	24.5
131044	2025-08-08T17:14:32	39.9	25
131045	2025-08-08T17:24:32	39	27
131046	2025-08-08T17:34:32	39.1	28.5
131047	2025-08-08T17:44:32	38.6	31.5
131048	2025-08-08T17:54:32	36.8	35.5
131049	2025-08-08T18:04:32	35.4	39.5
131050	2025-08-08T18:14:32	34.4	40.5
131051	2025-08-08T18:24:32	33.7	43
131052	2025-08-08T18:34:32	33	44
131053	2025-08-08T18:44:31	31.9	44.5
131054	2025-08-08T18:54:31	31.2	49
131055	2025-08-08T19:04:31	30.5	51
131056	2025-08-08T19:14:31	29.9	53
131057	2025-08-08T19:24:31	29.5	53.5
131058	2025-08-08T19:34:31	29	53.5
131059	2025-08-08T19:44:31	28.3	52.5
131060	2025-08-08T19:54:31	27.8	52.5
131061	2025-08-08T20:04:31	27.3	53
131062	2025-08-08T20:14:31	26.8	55.5
131063	2025-08-08T20:24:31	26.5	54.5
131064	2025-08-08T20:34:31	26.2	57
131065	2025-08-08T20:44:31	25.9	56.5
131066	2025-08-08T20:54:31	25.5	58
131067	2025-08-08T21:04:31	25.2	58.5
131068	2025-08-08T21:24:31	24.7	60.5
131069	2025-08-08T21:34:31	24.3	61
131070	2025-08-08T21:44:31	23.9	63
131071	2025-08-08T21:54:31	23.8	63.5
131072	2025-08-08T22:04:31	23.3	64.5
131073	2025-08-08T22:14:31	22.9	66
131074	2025-08-08T22:24:31	22.6	66
131075	2025-08-08T22:34:31	22.3	68.5
131076	2025-08-08T22:44:31	22.2	68.5
131077	2025-08-08T22:54:31	21.9	69.5
131078	2025-08-08T23:04:31	21.7	70
131079	2025-08-08T23:14:31	21.6	71
131080	2025-08-08T23:24:31	21.3	71.5
131081	2025-08-08T23:29:38	21.3	71.5
131082	2025-08-08T23:39:38	21.1	72
131083	2025-08-08T23:49:38	21	72
131084	2025-08-08T23:59:38	20.7	73.5
131085	2025-08-09T00:09:38	20.6	73.5
131086	2025-08-09T00:19:38	20.3	73.5
131087	2025-08-09T00:29:38	20.1	75
131088	2025-08-09T00:39:38	19.9	76
131089	2025-08-09T00:49:38	19.8	76
131090	2025-08-09T00:59:38	19.7	77
131091	2025-08-09T01:09:38	19.5	77.5
131092	2025-08-09T01:19:38	19.5	78
131093	2025-08-09T01:29:38	19.5	77
131094	2025-08-09T01:39:38	19.3	78
131095	2025-08-09T01:49:38	19.2	78.5
131096	2025-08-09T01:59:38	19	78.5
131097	2025-08-09T02:09:38	18.9	79
131098	2025-08-09T02:19:38	18.8	80
131099	2025-08-09T02:29:38	18.6	80.5
131100	2025-08-09T02:39:38	18.5	80.5
131101	2025-08-09T02:49:38	18.5	81
131102	2025-08-09T02:59:38	18.3	81.5
131103	2025-08-09T03:09:38	18.1	82
131104	2025-08-09T03:19:38	17.9	82.5
131105	2025-08-09T03:29:38	17.8	83
131106	2025-08-09T03:39:38	17.7	83.5
131107	2025-08-09T03:49:38	17.6	84
131108	2025-08-09T03:59:38	17.6	84
131109	2025-08-09T04:09:38	17.4	84
131110	2025-08-09T04:19:38	17.3	84.5
131111	2025-08-09T04:29:38	17.3	85
131112	2025-08-09T04:39:38	17.3	85.5
131113	2025-08-09T04:49:38	17.3	85.5
131114	2025-08-09T04:59:38	17.4	85
131115	2025-08-09T05:09:38	17.4	85
131116	2025-08-09T05:19:38	17.5	84.5
131117	2025-08-09T05:29:38	17.5	84.5
131118	2025-08-09T05:39:37	17.7	84.5
131119	2025-08-09T05:49:37	17.8	85.5
131120	2025-08-09T05:59:37	17.9	85
131121	2025-08-09T06:09:37	18.1	84.5
131122	2025-08-09T06:19:37	18.3	84.5
131123	2025-08-09T06:29:37	18.4	86
131124	2025-08-09T06:49:37	18.5	84.5
131125	2025-08-09T06:59:37	18.6	84
131126	2025-08-09T07:09:37	18.9	81.5
131127	2025-08-09T07:19:37	19.2	80.5
131128	2025-08-09T07:29:37	19.8	77.5
131129	2025-08-09T07:39:37	20.2	76
131130	2025-08-09T07:49:37	20.3	77
131131	2025-08-09T07:59:37	20.8	76
131132	2025-08-09T08:09:37	20.9	75.5
131133	2025-08-09T08:19:37	21.2	75
131134	2025-08-09T08:29:57	21.4	75.5
131135	2025-08-09T08:39:37	21.7	75
131136	2025-08-09T08:49:37	21.9	74
131137	2025-08-09T08:59:37	22.1	73.5
131138	2025-08-09T09:09:37	22.5	74
131139	2025-08-09T09:19:37	22.9	71.5
131140	2025-08-09T09:29:37	23.5	69
131141	2025-08-09T09:39:37	23.7	67.5
131142	2025-08-09T09:49:37	24.1	64.5
131143	2025-08-09T09:59:37	24.7	64.5
131144	2025-08-09T10:09:37	24.9	66
131145	2025-08-09T10:19:37	25.3	66
131146	2025-08-09T10:29:37	25.5	65
131147	2025-08-09T10:39:37	25.8	64.5
131148	2025-08-09T10:49:37	26.1	64.5
131149	2025-08-09T10:59:37	26.8	62.5
131150	2025-08-09T11:09:37	27.1	58.5
131151	2025-08-09T11:19:37	27.3	61
131152	2025-08-09T11:29:37	27.7	55
131153	2025-08-09T11:39:37	28	55.5
131154	2025-08-09T11:49:37	28.3	53.5
131155	2025-08-09T11:59:37	28.7	51.5
131156	2025-08-09T12:09:37	32.1	47.5
131157	2025-08-09T12:19:37	35.6	41
131158	2025-08-09T12:29:37	38.5	36
131159	2025-08-09T12:39:37	40.2	36
131160	2025-08-09T12:49:37	39.7	33
131161	2025-08-09T12:59:37	40	30.5
131162	2025-08-09T13:09:37	40.5	28.5
131163	2025-08-09T13:19:37	41.1	29.5
131164	2025-08-09T13:29:37	41.3	28
131165	2025-08-09T13:39:37	43.1	27.5
131166	2025-08-09T13:49:37	42.7	27
131167	2025-08-09T13:59:37	43.9	26.5
131168	2025-08-09T14:09:37	42.6	27
131169	2025-08-09T14:19:37	43.2	26.5
131170	2025-08-09T14:29:37	42.4	26.5
131171	2025-08-09T14:39:37	41.6	28
131172	2025-08-09T14:49:37	42.1	28
131173	2025-08-09T14:59:37	42.6	26.5
131174	2025-08-09T15:09:37	42.1	28
131175	2025-08-09T15:19:37	42.5	27.5
131176	2025-08-09T15:29:37	42.4	28
131177	2025-08-09T15:39:37	41.6	30
131178	2025-08-09T15:49:37	41	29
131179	2025-08-09T15:59:37	41.8	29
131180	2025-08-09T16:09:37	40.9	30
131181	2025-08-09T16:19:37	41.1	30
131182	2025-08-09T16:29:37	41	29
131183	2025-08-09T16:39:36	40.9	28
131184	2025-08-09T16:49:37	39.6	30
131185	2025-08-09T16:59:36	39.5	30
131186	2025-08-09T17:09:36	39.3	30
131187	2025-08-09T17:19:36	39	31
131188	2025-08-09T17:29:36	38.8	32
131189	2025-08-09T17:39:36	38.6	33
131190	2025-08-09T17:49:36	36.7	37.5
131191	2025-08-09T17:59:36	35.8	40.5
131192	2025-08-09T18:09:36	35.3	44
131193	2025-08-09T18:19:36	34.5	46.5
131194	2025-08-09T18:29:36	33.9	49
131195	2025-08-09T18:39:36	32.7	50
131196	2025-08-09T18:49:36	31.8	51
131197	2025-08-09T18:59:36	31.5	51
131198	2025-08-09T19:09:36	31	54.5
131199	2025-08-09T19:19:36	30.6	54
131200	2025-08-09T19:29:36	30	53.5
131201	2025-08-09T19:39:36	29.7	56
131202	2025-08-09T19:49:36	29.3	58
131203	2025-08-09T19:59:36	28.9	58.5
131204	2025-08-09T20:09:36	28.4	60
131205	2025-08-09T20:19:36	28	60.5
131206	2025-08-09T20:29:36	27.8	61.5
131207	2025-08-09T20:39:36	27.2	61.5
131208	2025-08-09T20:49:36	26.6	62
131209	2025-08-09T20:59:36	26.5	62
131210	2025-08-09T21:09:36	26.2	62.5
131211	2025-08-09T21:19:36	26	63.5
131212	2025-08-09T21:29:36	25.7	64
131213	2025-08-09T21:39:36	25.3	64.5
131214	2025-08-09T21:49:36	25	65.5
131215	2025-08-09T21:59:36	24.6	66.5
131216	2025-08-09T22:09:36	24.4	67
131217	2025-08-09T22:19:36	24.2	68
131218	2025-08-09T22:29:36	23.9	69
131219	2025-08-09T22:39:36	23.7	69.5
131220	2025-08-09T22:49:36	23.6	71
131221	2025-08-09T22:59:36	23.6	71
131222	2025-08-09T23:09:36	23.3	72.5
131223	2025-08-09T23:19:36	23.1	72.5
131224	2025-08-09T23:29:36	22.9	73.5
131225	2025-08-09T23:39:36	22.8	74
131226	2025-08-09T23:49:36	22.7	74.5
131227	2025-08-09T23:59:36	22.4	75
131228	2025-08-10T00:09:36	22.3	76
131229	2025-08-10T00:19:36	22.1	76.5
131230	2025-08-10T00:29:36	22	77.5
131231	2025-08-10T00:39:36	21.8	77.5
131232	2025-08-10T00:49:36	21.6	78
131233	2025-08-10T00:59:36	21.4	78.5
131234	2025-08-10T01:09:36	21.3	79
131235	2025-08-10T01:19:36	21.1	79
131236	2025-08-10T01:29:36	21.1	79.5
131237	2025-08-10T01:39:36	20.8	79.5
131238	2025-08-10T01:49:36	20.7	80
131239	2025-08-10T01:59:36	20.4	80.5
131240	2025-08-10T02:09:36	20.3	80.5
131241	2025-08-10T02:19:36	20.1	81
131242	2025-08-10T02:29:36	19.8	80.5
131243	2025-08-10T02:39:36	19.7	81
131244	2025-08-10T02:49:36	19.6	81
131245	2025-08-10T02:59:35	19.5	80
131246	2025-08-10T03:09:35	19.4	79
131247	2025-08-10T03:19:35	19.3	77
131248	2025-08-10T03:29:35	19.1	74
131249	2025-08-10T03:39:35	19.1	74.5
131250	2025-08-10T03:49:35	18.9	74
131251	2025-08-10T03:59:35	18.9	74
131252	2025-08-10T04:09:35	18.8	75
131253	2025-08-10T04:19:35	18.7	76
131254	2025-08-10T04:29:35	18.4	78
131255	2025-08-10T04:39:35	18.4	78.5
131256	2025-08-10T04:49:35	18.3	79.5
131257	2025-08-10T04:59:35	18.3	79
131258	2025-08-10T05:09:35	18.4	78.5
131259	2025-08-10T05:19:35	18.4	77.5
131260	2025-08-10T05:29:35	18.5	78.5
131261	2025-08-10T05:39:35	18.7	76
131262	2025-08-10T05:49:35	18.8	75
131263	2025-08-10T05:59:35	18.9	74.5
131264	2025-08-10T06:09:35	19.2	75
131265	2025-08-10T06:19:35	19.3	74.5
131266	2025-08-10T06:29:35	19.4	73.5
131267	2025-08-10T06:39:35	19.5	73
131268	2025-08-10T06:49:35	19.7	72
131269	2025-08-10T06:59:35	19.7	72
131270	2025-08-10T07:09:35	20	71
131271	2025-08-10T07:19:35	20.1	71
131272	2025-08-10T07:29:35	20.4	71.5
131273	2025-08-10T07:39:35	20.5	70
131274	2025-08-10T07:49:35	20.7	71.5
131275	2025-08-10T07:59:35	20.8	70
131276	2025-08-10T08:09:35	21.1	69.5
131277	2025-08-10T08:19:35	21.2	69
131278	2025-08-10T08:29:35	21.4	66.5
131279	2025-08-10T08:39:35	21.7	66
131280	2025-08-10T08:49:35	21.8	65.5
131281	2025-08-10T08:59:35	21.9	65.5
131282	2025-08-10T09:09:35	22.2	66
131283	2025-08-10T09:19:35	22.4	64.5
131284	2025-08-10T09:29:35	22.6	67
131285	2025-08-10T09:39:35	22.8	62.5
131286	2025-08-10T09:49:35	23	64
131287	2025-08-10T09:59:35	23.2	62.5
131288	2025-08-10T10:09:35	23.4	61.5
131289	2025-08-10T10:19:35	23.6	64
131290	2025-08-10T10:29:35	23.9	63
131291	2025-08-10T10:39:35	24.1	60.5
131292	2025-08-10T10:49:35	24.4	61
131293	2025-08-10T10:59:35	24.5	62
131294	2025-08-10T11:09:35	24.9	59.5
131295	2025-08-10T11:19:35	25.3	59
131296	2025-08-10T11:29:35	25.4	59.5
131297	2025-08-10T11:39:35	25.7	57
131298	2025-08-10T11:49:35	25.9	58.5
131299	2025-08-10T11:59:35	26.4	56.5
131300	2025-08-10T12:09:35	30.5	48.5
131301	2025-08-10T12:19:35	34.5	39
131302	2025-08-10T12:29:35	36.5	35.5
131303	2025-08-10T12:39:35	37.9	33
131304	2025-08-10T12:49:35	40	31.5
131305	2025-08-10T12:59:35	40.6	29.5
131306	2025-08-10T13:09:35	40.2	28.5
131307	2025-08-10T13:19:35	41.2	27.5
131308	2025-08-10T13:29:34	41.4	26
131309	2025-08-10T13:39:34	43.6	25
131310	2025-08-10T13:49:34	43.7	26.5
131311	2025-08-10T13:59:34	43.8	25
131312	2025-08-10T14:09:34	44.3	24.5
131313	2025-08-10T14:19:34	44.1	23.5
131314	2025-08-10T14:29:34	44.1	23.5
131315	2025-08-10T14:39:34	44.1	23
131316	2025-08-10T14:49:34	45.2	21
131317	2025-08-10T14:59:34	45	20
131318	2025-08-10T15:09:34	44.7	21.5
131319	2025-08-10T15:19:34	44.4	19
131320	2025-08-10T15:29:34	44.7	18.5
131321	2025-08-10T15:39:34	45.1	18
131322	2025-08-10T15:49:34	44.5	17.5
131323	2025-08-10T15:59:34	44	19
131324	2025-08-10T16:09:34	43.9	18.5
131325	2025-08-10T16:19:34	43.6	19.5
131326	2025-08-10T16:29:34	43.6	19.5
131327	2025-08-10T16:39:34	43.2	21.5
131328	2025-08-10T16:49:34	41.4	22
131329	2025-08-10T16:59:34	41.7	22
131330	2025-08-10T17:09:34	40.8	22.5
131331	2025-08-10T17:19:34	40.5	21.5
131332	2025-08-10T17:29:34	39.7	23
131333	2025-08-10T17:39:34	38.7	24
131334	2025-08-10T17:49:34	36.3	27
131335	2025-08-10T17:59:34	34.5	30.5
131336	2025-08-10T18:09:34	33.5	33
131337	2025-08-10T18:19:34	32.7	35.5
131338	2025-08-10T18:29:34	31.8	40
131339	2025-08-10T18:39:34	30.9	42.5
131340	2025-08-10T18:49:34	30	43
131341	2025-08-10T18:59:34	29.2	45.5
131342	2025-08-10T19:09:34	28.5	46.5
131343	2025-08-10T19:19:34	27.7	48
131344	2025-08-10T19:29:34	27.2	48
131345	2025-08-10T19:39:34	26.6	48.5
131346	2025-08-10T19:49:34	26.2	49.5
131347	2025-08-10T19:59:34	25.7	50
131348	2025-08-10T20:09:34	25.3	51
131349	2025-08-10T20:19:34	24.9	52
131350	2025-08-10T21:16:28	24.6	53
131351	2025-08-10T21:16:31	23.8	54.5
131352	2025-08-10T21:16:31	23	57
131353	2025-08-10T21:16:31	24.1	54
131354	2025-08-10T21:16:31	23.3	56
131355	2025-08-10T21:19:34	22.7	58
131356	2025-08-10T21:29:34	22.4	59
131357	2025-08-10T21:39:34	22.1	59
131358	2025-08-10T21:49:34	22	60
131359	2025-08-10T21:59:34	21.7	61
131360	2025-08-10T22:09:34	21.3	61
131361	2025-08-10T22:19:34	20.9	62
131362	2025-08-10T22:29:34	20.6	62.5
131363	2025-08-10T22:39:34	20.3	63.5
131364	2025-08-10T22:49:34	20	64.5
131365	2025-08-10T22:59:34	19.7	65.5
131366	2025-08-10T23:09:34	19.4	66.5
131367	2025-08-10T23:19:34	19.2	67
131368	2025-08-10T23:29:34	19.2	67
131369	2025-08-10T23:39:34	19	67
131370	2025-08-10T23:49:34	18.7	67.5
131371	2025-08-10T23:59:34	18.6	67.5
131372	2025-08-11T00:09:34	18.5	68
131373	2025-08-11T00:19:34	18.4	68.5
131374	2025-08-11T00:29:34	18.2	69
131375	2025-08-11T00:39:34	18.1	69
131376	2025-08-11T00:49:34	17.9	69
131377	2025-08-11T00:59:34	17.8	69.5
131378	2025-08-11T01:09:34	17.7	70
131379	2025-08-11T01:19:34	17.7	70
131380	2025-08-11T01:29:33	17.6	69
131381	2025-08-11T01:39:34	17.5	69
131382	2025-08-11T01:49:33	17.5	69
131383	2025-08-11T01:59:33	17.3	69
131384	2025-08-11T02:09:33	17.2	69.5
131385	2025-08-11T02:19:33	17	70
131386	2025-08-11T02:29:33	16.9	71
131387	2025-08-11T02:39:33	16.9	71.5
131388	2025-08-11T02:49:33	16.7	72
131389	2025-08-11T02:59:33	16.6	72.5
131390	2025-08-11T03:09:33	16.5	72.5
131391	2025-08-11T03:19:33	16.4	72.5
131392	2025-08-11T03:29:33	16.3	72.5
131393	2025-08-11T03:39:33	16.3	72.5
131394	2025-08-11T03:49:33	16.3	72
131395	2025-08-11T03:59:33	16.2	72.5
131396	2025-08-11T04:09:33	16	73.5
131397	2025-08-11T04:19:33	16	73
131398	2025-08-11T04:29:33	15.8	74
131399	2025-08-11T04:39:33	16	73.5
131400	2025-08-11T04:49:33	15.9	74
131401	2025-08-11T04:59:33	15.9	74
131402	2025-08-11T05:09:33	15.9	73.5
131403	2025-08-11T05:19:33	16	73.5
131404	2025-08-11T05:29:33	16.3	72.5
131405	2025-08-11T05:39:33	16.4	72
131406	2025-08-11T05:49:33	16.6	72.5
131407	2025-08-11T05:59:33	16.9	72
131408	2025-08-11T06:09:33	17	72
131409	2025-08-11T06:19:33	17.3	72
131410	2025-08-11T06:29:33	17.4	72
131411	2025-08-11T06:39:33	17.7	71.5
131412	2025-08-11T06:49:33	17.8	72.5
131413	2025-08-11T06:59:33	18.2	71.5
131414	2025-08-11T07:09:33	18.5	70
131415	2025-08-11T07:19:33	18.8	69
131416	2025-08-11T07:29:33	19.2	68
131417	2025-08-11T07:39:33	19.4	69
131418	2025-08-11T07:49:33	19.6	68.5
131419	2025-08-11T07:59:33	19.8	68.5
131420	2025-08-11T08:09:33	20.1	67.5
131421	2025-08-11T08:19:33	20.5	67
131422	2025-08-11T08:29:33	20.6	66
131423	2025-08-11T08:39:33	20.9	66
131424	2025-08-11T08:49:33	21.2	66
131425	2025-08-11T08:59:33	21.3	66
131426	2025-08-11T09:09:33	21.6	65.5
131427	2025-08-11T09:19:33	21.8	68
131428	2025-08-11T09:29:33	22.1	66.5
131429	2025-08-11T09:39:33	22.5	65.5
131430	2025-08-11T09:49:33	22.7	64.5
131431	2025-08-11T09:59:33	23	66
131432	2025-08-11T10:09:33	23.4	64.5
131433	2025-08-11T10:19:33	23.6	64
131434	2025-08-11T10:29:33	23.9	62.5
131435	2025-08-11T10:39:33	24.3	63
131436	2025-08-11T10:49:33	24.7	59
131437	2025-08-11T10:59:33	24.9	59
131438	2025-08-11T11:09:33	25.2	58
131439	2025-08-11T11:19:33	25.6	56.5
131440	2025-08-11T11:29:33	25.9	54.5
131441	2025-08-11T11:39:33	26.1	53
131442	2025-08-11T11:49:33	26.5	54.5
131443	2025-08-11T11:59:32	26.9	52.5
131444	2025-08-11T12:09:32	31.4	43.5
131445	2025-08-11T12:19:32	36.5	34.5
131446	2025-08-11T12:29:32	38.8	31.5
131447	2025-08-11T12:39:32	40.4	29.5
131448	2025-08-11T12:49:32	41.2	28.5
131449	2025-08-11T12:59:32	42.7	27.5
131450	2025-08-11T13:09:32	43.5	26.5
131451	2025-08-11T13:19:32	44.1	26
131452	2025-08-11T13:29:32	44.4	24
131453	2025-08-11T13:39:32	45.8	24
131454	2025-08-11T13:49:32	45.6	24
131455	2025-08-11T13:59:32	45.8	24.5
131456	2025-08-11T14:09:32	46.7	23
131457	2025-08-11T14:19:32	46.3	23
131458	2025-08-11T14:29:32	46.7	23.5
131459	2025-08-11T14:39:32	46	23.5
131460	2025-08-11T14:49:32	46.1	23
131461	2025-08-11T14:59:32	46.1	23.5
131462	2025-08-11T15:09:32	46	23
131463	2025-08-11T15:19:32	46.1	23.5
131464	2025-08-11T15:29:32	46.1	22
131465	2025-08-11T15:39:32	45.2	23.5
131466	2025-08-11T15:49:32	44.3	24.5
131467	2025-08-11T15:59:32	44.2	23.5
131468	2025-08-11T16:09:32	44.6	24.5
131469	2025-08-11T16:19:32	43.7	24
131470	2025-08-11T16:29:32	43.5	25
131471	2025-08-11T16:39:32	43.2	25
131472	2025-08-11T16:49:32	42.5	25
131473	2025-08-11T16:59:32	41.5	26
131474	2025-08-11T17:09:32	41.3	26.5
131475	2025-08-11T17:19:32	40.6	27
131476	2025-08-11T17:29:32	40	27.5
131477	2025-08-11T17:39:32	39.1	29.5
131478	2025-08-11T17:49:32	37	33
131479	2025-08-11T17:59:32	35.4	35.5
131480	2025-08-11T18:09:32	33.9	37.5
131481	2025-08-11T18:19:32	33.1	39
131482	2025-08-11T18:29:32	32.4	40
131483	2025-08-11T18:39:32	31.9	42
131484	2025-08-11T18:49:32	31.1	44.5
131485	2025-08-11T18:59:32	30.3	47
131486	2025-08-11T19:09:32	29.6	48.5
131487	2025-08-11T19:19:32	28.9	49.5
131488	2025-08-11T19:29:32	28.4	51
131489	2025-08-11T19:39:32	27.7	52.5
131490	2025-08-11T19:49:32	27.1	53.5
131491	2025-08-11T19:59:32	26.5	55
131492	2025-08-11T20:09:32	26	56.5
131493	2025-08-11T20:19:32	25.6	58
131494	2025-08-11T20:29:32	25.3	58.5
131495	2025-08-11T20:39:32	25.1	59
131496	2025-08-11T20:49:32	24.5	59.5
131497	2025-08-11T20:59:32	24.4	60.5
131498	2025-08-11T21:09:32	24.1	61
131499	2025-08-11T21:19:32	23.6	61.5
131500	2025-08-11T21:29:32	23.4	62.5
131501	2025-08-11T21:39:32	23.1	63
131502	2025-08-11T21:49:32	22.8	64
131503	2025-08-11T21:59:32	22.6	64.5
131504	2025-08-11T22:09:32	22.5	64.5
131505	2025-08-11T22:19:32	22.3	65
131506	2025-08-11T22:29:32	22.2	64.5
131507	2025-08-11T22:39:32	22	65.5
131508	2025-08-11T22:49:32	21.7	65.5
131509	2025-08-11T22:59:32	21.6	65.5
131510	2025-08-11T23:09:32	21.5	66.5
131511	2025-08-11T23:19:32	21.2	67.5
131512	2025-08-11T23:29:32	21	67
131513	2025-08-11T23:39:32	20.8	67.5
131514	2025-08-11T23:49:32	20.8	68.5
131515	2025-08-11T23:59:31	20.6	68.5
131516	2025-08-12T00:19:31	20.4	70
131517	2025-08-12T00:29:31	20.2	70
131518	2025-08-12T00:39:31	20	71
131519	2025-08-12T00:49:31	19.8	71.5
131520	2025-08-12T00:59:31	19.7	72
131521	2025-08-12T01:09:31	19.6	72.5
131522	2025-08-12T01:19:31	19.4	73
131523	2025-08-12T01:29:31	19.3	73.5
131524	2025-08-12T01:39:31	19.1	74
131525	2025-08-12T01:49:31	18.9	74.5
131526	2025-08-12T01:59:31	18.9	75
131527	2025-08-12T02:09:31	18.6	76
131528	2025-08-12T02:19:31	18.5	76
131529	2025-08-12T02:29:31	18.5	76.5
131530	2025-08-12T02:39:31	18.2	77.5
131531	2025-08-12T02:49:31	18	78
131532	2025-08-12T02:59:31	17.7	79
131533	2025-08-12T03:09:31	17.6	80
131534	2025-08-12T03:19:31	17.5	80.5
131535	2025-08-12T03:29:31	17.4	81
131536	2025-08-12T03:39:31	17.3	81.5
131537	2025-08-12T03:49:31	17.2	82.5
131538	2025-08-12T03:59:31	17.1	82.5
131539	2025-08-12T04:09:31	17	83
131540	2025-08-12T04:19:31	16.9	82.5
131541	2025-08-12T04:29:31	16.9	84
131542	2025-08-12T04:39:31	16.6	84.5
131543	2025-08-12T04:49:31	16.6	86
131544	2025-08-12T05:09:31	16.6	86.5
131545	2025-08-12T05:19:31	16.6	86.5
131546	2025-08-12T05:29:31	16.8	86.5
131547	2025-08-12T05:39:31	17.1	86
131548	2025-08-12T05:49:31	17.4	85
131549	2025-08-12T05:59:31	17.6	84
131550	2025-08-12T06:09:31	17.7	84.5
131551	2025-08-12T06:19:31	17.8	83
131552	2025-08-12T06:29:31	18.1	82.5
131553	2025-08-12T06:39:31	18.3	82.5
131554	2025-08-12T06:49:31	18.7	81.5
131555	2025-08-12T06:59:31	18.9	81
131556	2025-08-12T07:09:31	19.2	81
131557	2025-08-12T07:19:31	19.5	80.5
131558	2025-08-12T07:29:31	19.7	81
131559	2025-08-12T07:39:53	20.2	80.5
131560	2025-08-12T07:49:31	20.5	80
131561	2025-08-12T07:59:31	20.8	79.5
131562	2025-08-12T08:09:31	21.3	77.5
131563	2025-08-12T08:19:31	21.6	77
131564	2025-08-12T08:29:31	21.8	77
131565	2025-08-12T08:39:31	22.2	76
131566	2025-08-12T08:49:31	22.6	74.5
131567	2025-08-12T08:59:31	22.9	75
131568	2025-08-12T09:09:31	23.3	73.5
131569	2025-08-12T09:19:31	23.6	73
131570	2025-08-12T09:29:31	23.9	72
131571	2025-08-12T09:39:31	24.3	71
131572	2025-08-12T09:49:31	24.6	70
131573	2025-08-12T09:59:31	25	70.5
131574	2025-08-12T10:09:31	25.3	70.5
131575	2025-08-12T10:19:31	25.6	70.5
131576	2025-08-12T10:29:30	26	70
131577	2025-08-12T10:39:30	26.3	68.5
131578	2025-08-12T10:49:30	26.7	66
131579	2025-08-12T10:59:30	27	64
131580	2025-08-12T11:09:30	27.4	64
131581	2025-08-12T11:19:30	27.7	62
131582	2025-08-12T11:29:30	28.2	60.5
131583	2025-08-12T11:39:30	28.6	59.5
131584	2025-08-12T11:49:30	29.1	60
131585	2025-08-12T11:59:30	29.7	58
131586	2025-08-12T12:09:30	33.5	49
131587	2025-08-12T12:19:30	37.8	40.5
131588	2025-08-12T12:29:30	40.5	37.5
131589	2025-08-12T12:39:30	42.3	34
131590	2025-08-12T12:49:30	43.5	33
131591	2025-08-12T12:59:30	44.1	31.5
131592	2025-08-12T13:09:30	44.4	30
131593	2025-08-12T13:19:30	44.6	31
131594	2025-08-12T13:29:30	46.3	29.5
131595	2025-08-12T13:39:30	46.8	28
131596	2025-08-12T13:49:30	45.1	29.5
131597	2025-08-12T13:59:30	45.6	28
131598	2025-08-12T14:09:30	47.4	28
131599	2025-08-12T14:19:30	48.1	27
131600	2025-08-12T14:29:30	48.5	27
131601	2025-08-12T14:39:30	48.8	27
131602	2025-08-12T14:49:30	49	26.5
131603	2025-08-12T14:59:30	48.9	27
131604	2025-08-12T15:09:30	48.8	27
131605	2025-08-12T15:19:30	48.6	26.5
131606	2025-08-12T15:29:30	48.1	27.5
131607	2025-08-12T15:39:30	48.1	28
131608	2025-08-12T15:49:30	47.9	28
131609	2025-08-12T15:59:30	47.6	28.5
131610	2025-08-12T16:09:30	47	29
131611	2025-08-12T16:19:30	46.6	29.5
131612	2025-08-12T16:29:30	46.2	30
131613	2025-08-12T16:39:30	45.8	31
131614	2025-08-12T16:49:30	45.2	32
131615	2025-08-12T16:59:30	44.5	32
131616	2025-08-12T17:09:30	43.6	33.5
131617	2025-08-12T17:19:30	43.1	35
131618	2025-08-12T17:29:30	42.3	36
131619	2025-08-12T17:39:30	41.5	37.5
131620	2025-08-12T17:49:30	40.1	44.5
131621	2025-08-12T17:59:30	38.4	47
131622	2025-08-12T18:09:30	37.2	49.5
131623	2025-08-12T18:19:30	36.1	51
131624	2025-08-12T18:29:30	35.5	52.5
131625	2025-08-12T18:39:30	34.3	53.5
131626	2025-08-12T18:49:30	33.1	55.5
131627	2025-08-12T18:59:30	32.6	56
131628	2025-08-12T19:09:30	31.9	57.5
131629	2025-08-12T19:19:30	31.3	59.5
131630	2025-08-12T19:29:30	31	60
131631	2025-08-12T19:39:30	30.7	61
131632	2025-08-12T19:49:30	30.1	62.5
131633	2025-08-12T19:59:30	30	62.5
131634	2025-08-12T20:09:30	29.8	63.5
131635	2025-08-12T20:19:30	29.4	64
131636	2025-08-12T20:29:30	29.3	62
131637	2025-08-12T20:39:48	29.2	63
131638	2025-08-12T20:49:30	28.9	63
131639	2025-08-12T20:59:30	28.7	63.5
131640	2025-08-12T21:09:30	28.1	67
131641	2025-08-12T21:19:30	28	68
131642	2025-08-12T21:29:30	27.5	69
131643	2025-08-12T21:39:30	27.1	70.5
131644	2025-08-12T21:49:30	26.9	70
131645	2025-08-12T21:59:30	26.2	72
131646	2025-08-12T22:09:30	25.8	74
131647	2025-08-12T22:19:30	25.9	73.5
131648	2025-08-12T22:29:30	25.5	73.5
131649	2025-08-12T22:39:30	25.4	73.5
131650	2025-08-12T22:49:29	24.9	75.5
131651	2025-08-12T22:59:29	24.8	75.5
131652	2025-08-12T23:09:30	24.7	75.5
131653	2025-08-12T23:19:29	24.4	75.5
131654	2025-08-12T23:29:29	24	76
131655	2025-08-12T23:39:29	23.9	76
131656	2025-08-12T23:49:30	23.7	76.5
131657	2025-08-12T23:59:29	23.5	77
131658	2025-08-13T00:09:29	23.2	77.5
131659	2025-08-13T00:19:29	23.1	78
131660	2025-08-13T00:29:29	23	78.5
131661	2025-08-13T00:39:29	22.7	79
131662	2025-08-13T00:49:29	22.5	79.5
131663	2025-08-13T00:59:29	22.4	80
131664	2025-08-13T01:09:29	22.1	80.5
131665	2025-08-13T01:19:29	22	81
131666	2025-08-13T01:29:29	21.8	81.5
131667	2025-08-13T01:39:29	21.8	81.5
131668	2025-08-13T01:49:29	21.6	82
131669	2025-08-13T01:59:29	21.5	82
131670	2025-08-13T02:09:29	21.2	82.5
131671	2025-08-13T02:19:29	21.1	83
131672	2025-08-13T02:29:29	20.9	83
131673	2025-08-13T02:39:29	20.9	83.5
131674	2025-08-13T02:49:29	20.6	84
131675	2025-08-13T02:59:29	20.5	84
131676	2025-08-13T03:09:29	20.4	84.5
131677	2025-08-13T03:19:29	20.2	84
131678	2025-08-13T03:29:29	20.1	85
131679	2025-08-13T03:39:29	19.9	85
131680	2025-08-13T03:49:29	19.8	85.5
131681	2025-08-13T03:59:29	19.6	85.5
131682	2025-08-13T04:09:29	19.5	85.5
131683	2025-08-13T04:19:29	19.3	86
131684	2025-08-13T04:29:29	19.3	87
131685	2025-08-13T04:39:29	19.4	86.5
131686	2025-08-13T04:49:29	19.4	86.5
131687	2025-08-13T04:59:29	19.4	86
131688	2025-08-13T05:09:29	19.5	86
131689	2025-08-13T05:19:29	19.6	85.5
131690	2025-08-13T05:29:29	19.5	87
131691	2025-08-13T05:39:29	19.7	85.5
131692	2025-08-13T05:49:29	20	85.5
131693	2025-08-13T05:59:29	20.3	84
131694	2025-08-13T06:09:29	20.6	83
131695	2025-08-13T06:19:29	20.9	82
131696	2025-08-13T06:29:29	21	81
131697	2025-08-13T06:39:29	21.4	81.5
131698	2025-08-13T06:49:29	21.8	79.5
131699	2025-08-13T06:59:29	22.2	77.5
131700	2025-08-13T07:09:29	22.3	79.5
131701	2025-08-13T07:19:29	22.5	79.5
131702	2025-08-13T07:29:29	22.8	79.5
131703	2025-08-13T07:39:29	23.5	76
131704	2025-08-13T07:49:29	24.3	71.5
131705	2025-08-13T07:59:29	25	67
131706	2025-08-13T08:09:29	25.3	68.5
131707	2025-08-13T08:19:29	25.6	67.5
131708	2025-08-13T08:29:29	26	67
131709	2025-08-13T08:39:28	26.4	65.5
131710	2025-08-13T08:49:28	26.7	62
131711	2025-08-13T08:59:28	27.3	59.5
131712	2025-08-13T09:09:28	27.9	54.5
131713	2025-08-13T09:19:46	28.3	53.5
131714	2025-08-13T09:29:28	28.7	51
131715	2025-08-13T09:39:28	28.9	51
131716	2025-08-13T09:49:28	29	49.5
131717	2025-08-13T09:59:28	29.1	49.5
131718	2025-08-13T10:09:28	29.5	50
131719	2025-08-13T10:19:28	29.8	53
131720	2025-08-13T10:29:28	29.9	48.5
131721	2025-08-13T10:39:28	30.4	47
131722	2025-08-13T10:49:28	30.7	46
131723	2025-08-13T10:59:28	30.8	46.5
131724	2025-08-13T11:09:28	31.1	46.5
131725	2025-08-13T11:19:28	31.5	46
131726	2025-08-13T11:29:28	31.7	43.5
131727	2025-08-13T11:39:28	32	45.5
131728	2025-08-13T11:49:28	32.3	42.5
131729	2025-08-13T11:59:28	32.8	38
131730	2025-08-13T12:09:28	36.2	33.5
131731	2025-08-13T12:19:28	39.4	30.5
131732	2025-08-13T12:29:28	39.7	29.5
131733	2025-08-13T12:39:28	43.4	26.5
131734	2025-08-13T12:49:28	44.1	25.5
131735	2025-08-13T12:59:28	43.7	27
131736	2025-08-13T13:09:28	45.8	24.5
131737	2025-08-13T13:19:28	47	24.5
131738	2025-08-13T13:29:28	46	23.5
131739	2025-08-13T13:39:28	48.1	23.5
131740	2025-08-13T13:49:28	48.5	22.5
131741	2025-08-13T13:59:28	48	23
131742	2025-08-13T14:09:28	46.9	22
131743	2025-08-13T14:19:28	47.1	22.5
131744	2025-08-13T14:29:28	47.4	22.5
131745	2025-08-13T14:39:28	48.5	22
131746	2025-08-13T14:49:28	48.7	21.5
131747	2025-08-13T14:59:28	47.1	22
131748	2025-08-13T15:09:28	48.2	22.5
131749	2025-08-13T15:19:28	49	22.5
131750	2025-08-13T15:29:28	49.3	23
131751	2025-08-13T15:39:28	48.2	22.5
131752	2025-08-13T15:49:28	47.4	22
131753	2025-08-13T15:59:28	47.7	22.5
131754	2025-08-13T16:19:28	47.1	25.5
131755	2025-08-13T16:29:28	47.3	27
131756	2025-08-13T16:39:28	46.4	29.5
131757	2025-08-13T16:49:28	45.8	28.5
131758	2025-08-13T16:59:28	44.9	31.5
131759	2025-08-13T17:09:28	43.9	34.5
131760	2025-08-13T17:19:28	42.7	35.5
131761	2025-08-13T17:29:28	41.8	37
131762	2025-08-13T17:39:28	41.1	37.5
131763	2025-08-13T17:49:28	39.5	41
131764	2025-08-13T17:59:28	38.2	42.5
131765	2025-08-13T18:09:28	36.4	43
131766	2025-08-13T18:19:28	35.9	47
131767	2025-08-13T18:29:28	35.1	47.5
131768	2025-08-13T18:39:28	34.3	49.5
131769	2025-08-13T18:49:28	33.6	49.5
131770	2025-08-13T18:59:28	32.8	50.5
131771	2025-08-13T19:09:28	32.1	51
131772	2025-08-13T19:19:28	31.4	52
131773	2025-08-13T19:29:28	31	53
131774	2025-08-13T19:39:28	30.5	54
131775	2025-08-13T19:49:28	30	54.5
131776	2025-08-13T19:59:28	29.4	56.5
131777	2025-08-13T20:09:28	28.9	58.5
131778	2025-08-13T20:19:28	28.7	59
131779	2025-08-13T20:29:28	28.3	59.5
131780	2025-08-13T20:39:28	28.3	59
131781	2025-08-13T20:49:28	27.9	60.5
131782	2025-08-13T20:59:27	27.7	61
131783	2025-08-13T21:09:27	27.3	62
131784	2025-08-13T21:19:27	26.9	62.5
131785	2025-08-13T21:29:27	26.7	62
131786	2025-08-13T21:39:27	26.4	63
131787	2025-08-13T21:49:27	26.1	63.5
131788	2025-08-13T21:59:27	25.9	63.5
131789	2025-08-13T22:09:27	25.6	63.5
131790	2025-08-13T22:19:27	25.4	65
131791	2025-08-13T22:29:27	25.3	65
131792	2025-08-13T22:39:27	24.9	65
131793	2025-08-13T22:49:27	24.7	67
131794	2025-08-13T22:59:27	24.5	68.5
131795	2025-08-13T23:09:27	24.3	69
131796	2025-08-13T23:19:27	24	67
131797	2025-08-13T23:29:27	23.6	67
131798	2025-08-13T23:39:49	23.7	66.5
131799	2025-08-13T23:49:27	23.6	66
131800	2025-08-13T23:59:27	23.6	65.5
131801	2025-08-14T00:09:27	23.4	67
131802	2025-08-14T00:19:27	23.1	68.5
131803	2025-08-14T00:29:27	23	69
131804	2025-08-14T00:39:27	22.9	70
131805	2025-08-14T00:49:27	22.6	69.5
131806	2025-08-14T00:59:27	22.5	70
131807	2025-08-14T01:09:27	22.3	70.5
131808	2025-08-14T01:29:27	21.3	78
131809	2025-08-14T01:39:27	21	80.5
131810	2025-08-14T01:49:27	21.2	79.5
131811	2025-08-14T01:59:27	21	79.5
131812	2025-08-14T02:09:27	20.8	80.5
131813	2025-08-14T02:19:27	20.9	80
131814	2025-08-14T02:29:27	20.8	80.5
131815	2025-08-14T02:39:27	20.8	81
131816	2025-08-14T02:49:27	20.7	81.5
131817	2025-08-14T02:59:27	20.6	81
131818	2025-08-14T03:09:27	20.6	81
131819	2025-08-14T03:19:27	20.5	80
131820	2025-08-14T03:29:27	20.3	80
131821	2025-08-14T03:39:27	20	81
131822	2025-08-14T03:49:27	19.9	84
131823	2025-08-14T03:59:27	19.4	86
131824	2025-08-14T04:09:27	19.6	84.5
131825	2025-08-14T04:19:27	19.5	83.5
131826	2025-08-14T04:29:27	19.7	82.5
131827	2025-08-14T04:39:27	20	82
131828	2025-08-14T04:49:27	20.3	81
131829	2025-08-14T04:59:27	20.4	81.5
131830	2025-08-14T05:09:27	20.4	82
131831	2025-08-14T05:19:27	20.6	82
131832	2025-08-14T05:29:27	20.4	83
131833	2025-08-14T05:39:27	20.6	83
131834	2025-08-14T05:49:27	20.8	82
131835	2025-08-14T05:59:27	21.1	81
131836	2025-08-14T06:09:27	21.4	80.5
131837	2025-08-14T06:19:27	21.7	79
131838	2025-08-14T06:29:27	22	80
131839	2025-08-14T06:39:27	22.1	80
131840	2025-08-14T06:49:27	22.4	81
131841	2025-08-14T06:59:26	22.5	81
131842	2025-08-14T07:09:26	23.3	76
131843	2025-08-14T07:19:26	23.7	73
131844	2025-08-14T07:29:26	24.2	71
131845	2025-08-14T07:39:26	24.7	68.5
131846	2025-08-14T07:49:26	25	68
131847	2025-08-14T07:59:26	25.5	65
131848	2025-08-14T08:09:26	25.5	64
131849	2025-08-14T08:19:26	25.9	64.5
131850	2025-08-14T08:29:26	26.1	63.5
131851	2025-08-14T08:39:26	26.3	64
131852	2025-08-14T08:49:26	26.4	63.5
131853	2025-08-14T08:59:26	26.6	63
131854	2025-08-14T09:09:26	26.8	63
131855	2025-08-14T09:19:26	27.1	63
131856	2025-08-14T09:29:26	27.2	62.5
131857	2025-08-14T09:39:26	27.5	62.5
131858	2025-08-14T09:49:26	28	60.5
131859	2025-08-14T09:59:26	28.1	60
131860	2025-08-14T10:09:26	28.2	60
131861	2025-08-14T10:19:26	28.6	58.5
131862	2025-08-14T10:29:26	28.7	55.5
131863	2025-08-14T10:39:26	29	56.5
131864	2025-08-14T10:49:26	29.1	56
131865	2025-08-14T10:59:26	29.3	57
131866	2025-08-14T11:09:26	29.8	56.5
131867	2025-08-14T11:19:26	29.9	56.5
131868	2025-08-14T11:29:26	30.2	56
131869	2025-08-14T11:39:26	30.5	56.5
131870	2025-08-14T11:49:26	30.7	54.5
131871	2025-08-14T11:59:26	30.9	54.5
131872	2025-08-14T12:09:26	35	45.5
131873	2025-08-14T12:19:26	38.7	40.5
131874	2025-08-14T12:29:26	40.6	38
131875	2025-08-14T12:39:26	40.1	36.5
131876	2025-08-14T12:49:26	42.2	35
131877	2025-08-14T12:59:26	42.7	33.5
131878	2025-08-14T13:09:26	44.3	31.5
131879	2025-08-14T13:19:26	43.1	33
131880	2025-08-14T13:29:26	44.7	31
131881	2025-08-14T13:39:26	47.3	29
131882	2025-08-14T13:49:26	45.2	30.5
131883	2025-08-14T13:59:26	47.6	29
131884	2025-08-14T14:09:26	48.3	28
131885	2025-08-14T14:19:42	48.2	27.5
131886	2025-08-14T14:29:26	49.3	27
131887	2025-08-14T14:39:26	49.7	26.5
131888	2025-08-14T14:49:26	49.9	26
131889	2025-08-14T14:59:26	49.4	27
131890	2025-08-14T15:09:26	49.2	26.5
131891	2025-08-14T15:19:26	48.9	27
131892	2025-08-14T15:29:26	47.4	27.5
131893	2025-08-14T15:39:26	47.3	28
131894	2025-08-14T15:49:26	48.2	27.5
131895	2025-08-14T15:59:26	48.2	27
131896	2025-08-14T16:29:26	47	29
131897	2025-08-14T16:39:26	46.6	29.5
131898	2025-08-14T16:49:26	45.6	29.5
131899	2025-08-14T16:59:26	44.6	31.5
131900	2025-08-14T17:09:26	44.4	35.5
131901	2025-08-14T17:19:26	43.2	37
131902	2025-08-14T17:29:26	42.6	38.5
131903	2025-08-14T17:39:26	42.1	39
131904	2025-08-14T17:49:26	40	39.5
131905	2025-08-14T17:59:26	38.2	41.5
131906	2025-08-14T18:09:26	37.2	43.5
131907	2025-08-14T18:19:26	36.2	45
131908	2025-08-14T18:29:26	35.3	46.5
131909	2025-08-14T18:39:26	34.2	49
131910	2025-08-14T18:49:26	33.7	51
131911	2025-08-14T18:59:26	33.2	51
131912	2025-08-14T19:09:25	32.6	55
131913	2025-08-14T19:19:25	32.2	55.5
131914	2025-08-14T19:29:25	31.7	57.5
131915	2025-08-14T19:39:25	31.1	58
131916	2025-08-14T19:49:25	30.8	58
131917	2025-08-14T19:59:26	30.3	59.5
131918	2025-08-14T20:09:25	29.9	60.5
131919	2025-08-14T20:19:25	29.6	60.5
131920	2025-08-14T20:39:25	28.7	62
131921	2025-08-14T20:49:25	28.6	63.5
131922	2025-08-14T20:59:25	28.2	63.5
131923	2025-08-14T21:09:25	28	64.5
131924	2025-08-14T21:19:25	27.8	65.5
131925	2025-08-14T21:29:25	27.5	66.5
131926	2025-08-14T21:39:25	27.3	66.5
131927	2025-08-14T21:49:25	27.1	67.5
131928	2025-08-14T21:59:25	26.9	68.5
131929	2025-08-14T22:09:25	26.7	67.5
131930	2025-08-14T22:19:25	26.6	69
131931	2025-08-14T22:29:25	26.3	69.5
131932	2025-08-14T22:39:25	26.2	70
131933	2025-08-14T22:49:25	26	71
131934	2025-08-14T22:59:25	25.7	71.5
131935	2025-08-14T23:09:25	25.6	72
131936	2025-08-14T23:19:25	25.3	72.5
131937	2025-08-14T23:29:25	25.1	73
131938	2025-08-14T23:39:25	25	73.5
131939	2025-08-14T23:49:25	24.8	74
131940	2025-08-14T23:59:25	24.6	75
131941	2025-08-15T00:09:25	24.5	75
131942	2025-08-15T00:19:25	24.3	76.5
131943	2025-08-15T00:29:25	23.9	77
131944	2025-08-15T00:39:25	23.9	77.5
131945	2025-08-15T00:49:25	23.8	77
131946	2025-08-15T00:59:25	23.7	78
131947	2025-08-15T01:09:25	23.6	78.5
131948	2025-08-15T01:19:25	23.5	78.5
131949	2025-08-15T01:29:25	23.3	79
131950	2025-08-15T01:39:25	23.1	79.5
131951	2025-08-15T01:49:25	23	80
131952	2025-08-15T01:59:25	22.9	79.5
131953	2025-08-15T02:09:25	22.9	80
131954	2025-08-15T02:19:25	22.6	80.5
131955	2025-08-15T02:29:25	22.6	80.5
131956	2025-08-15T02:39:25	22.4	81.5
131957	2025-08-15T02:49:25	22.3	82
131958	2025-08-15T02:59:25	22.3	82
131959	2025-08-15T03:09:25	22.2	83
131960	2025-08-15T03:19:25	22.1	82.5
131961	2025-08-15T03:29:25	22	83
131962	2025-08-15T03:39:25	21.9	84
131963	2025-08-15T03:49:25	21.8	84
131964	2025-08-15T03:59:25	21.7	84.5
131965	2025-08-15T04:09:25	21.7	84.5
131966	2025-08-15T04:19:25	21.5	84.5
131967	2025-08-15T04:29:25	21.5	84.5
131968	2025-08-15T04:39:25	21.5	85
131969	2025-08-15T04:49:25	21.4	85
131970	2025-08-15T04:59:25	21.4	85
131971	2025-08-15T05:09:24	21.4	84.5
131972	2025-08-15T05:19:24	21.4	84.5
131973	2025-08-15T05:29:24	21.6	85
131974	2025-08-15T05:39:24	21.7	83.5
131975	2025-08-15T05:49:24	21.9	83.5
131976	2025-08-15T05:59:24	22	84.5
131977	2025-08-15T06:09:24	22.2	84.5
131978	2025-08-15T06:19:24	22.5	84
131979	2025-08-15T06:29:24	22.6	84
131980	2025-08-15T06:39:24	22.9	83.5
131981	2025-08-15T06:49:24	23.2	83
131982	2025-08-15T06:59:24	23.5	82
131983	2025-08-15T07:09:24	23.7	82
131984	2025-08-15T07:19:24	24	81
131985	2025-08-15T07:29:24	24.3	79
131986	2025-08-15T07:39:24	24.5	78
131987	2025-08-15T07:49:24	24.8	76.5
131988	2025-08-15T07:59:24	25.1	75
131989	2025-08-15T08:09:24	25.3	74.5
131990	2025-08-15T08:19:24	25.6	75
131991	2025-08-15T08:29:24	25.8	73.5
131992	2025-08-15T08:39:24	26	73.5
131993	2025-08-15T08:49:24	26.4	72
131994	2025-08-15T08:59:24	26.6	72
131995	2025-08-15T09:09:24	26.9	71
131996	2025-08-15T09:19:24	27.3	69
131997	2025-08-15T09:29:24	27.5	69.5
131998	2025-08-15T09:39:24	27.7	69
131999	2025-08-15T09:49:24	28	68.5
132000	2025-08-15T09:59:24	28.4	68
132001	2025-08-15T10:09:24	28.7	65.5
132002	2025-08-15T10:19:24	29	66.5
132003	2025-08-15T10:29:24	29.2	65
132004	2025-08-15T10:39:24	29.5	62.5
132005	2025-08-15T10:49:24	29.9	63
132006	2025-08-15T10:59:24	30.3	62
132007	2025-08-15T11:09:24	30.6	61.5
132008	2025-08-15T11:19:24	30.9	61
132009	2025-08-15T11:29:24	31.5	60
132010	2025-08-15T11:39:24	32.1	56.5
132011	2025-08-15T11:49:24	32.6	53
132012	2025-08-15T11:59:24	33	54.5
132013	2025-08-15T12:09:24	36.8	46.5
132014	2025-08-15T12:19:24	40.5	40
132015	2025-08-15T12:29:24	41.6	38.5
132016	2025-08-15T12:39:24	43.5	35
132017	2025-08-15T12:49:24	44.9	33.5
132018	2025-08-15T12:59:24	45.8	32
132019	2025-08-15T13:09:24	46.8	31.5
132020	2025-08-15T13:19:24	48.2	30
132021	2025-08-15T13:29:24	49.1	29
132022	2025-08-15T13:39:24	49.7	28.5
132023	2025-08-15T13:49:24	48.7	29
132024	2025-08-15T13:59:24	46.5	29.5
132025	2025-08-15T14:09:24	44.7	31.5
132026	2025-08-15T14:19:24	43.3	33.5
132027	2025-08-15T14:29:24	42	35.5
132028	2025-08-15T14:39:24	41	36.5
132029	2025-08-15T14:49:24	41.3	34.5
132030	2025-08-15T14:59:24	40.4	38
132031	2025-08-15T15:09:24	41	38
132032	2025-08-15T15:19:24	42.3	36.5
132033	2025-08-15T15:29:24	43.5	34.5
132034	2025-08-15T15:39:24	44	35
132035	2025-08-15T15:49:24	44.2	33.5
132036	2025-08-15T15:59:24	42	35.5
132037	2025-08-15T16:09:23	40.3	37.5
132038	2025-08-15T16:19:23	39.1	41.5
132039	2025-08-15T16:29:23	37.9	42.5
132040	2025-08-15T16:39:23	37	45
132041	2025-08-15T16:49:23	36.6	45.5
132042	2025-08-15T16:59:23	36.2	50.5
132043	2025-08-15T17:09:23	35.4	52.5
132044	2025-08-15T17:19:23	35	53.5
132045	2025-08-15T17:29:23	34.7	55.5
132046	2025-08-15T17:39:23	35.5	53
132047	2025-08-15T17:49:23	35.4	51.5
132048	2025-08-15T17:59:23	34.9	51.5
132049	2025-08-15T18:09:23	34.4	51
132050	2025-08-15T18:19:23	34	52
132051	2025-08-15T18:29:23	33.8	54
132052	2025-08-15T18:39:23	33.3	56
132053	2025-08-15T18:49:23	32.7	58
132054	2025-08-15T18:59:23	32	59
132055	2025-08-15T19:09:23	31.3	60.5
132056	2025-08-15T19:19:23	31.1	56
132057	2025-08-15T19:29:23	31	58
132058	2025-08-15T19:39:23	30.6	60
132059	2025-08-15T19:49:23	30.1	60.5
132060	2025-08-15T19:59:23	29.6	62
132061	2025-08-15T20:09:23	29.4	63
132062	2025-08-15T20:19:23	29.2	63
132063	2025-08-15T20:29:23	28.9	64.5
132064	2025-08-15T20:39:23	28.7	65.5
132065	2025-08-15T20:49:23	28.4	66.5
132066	2025-08-15T20:59:23	28.5	60
132067	2025-08-15T21:09:23	28.2	59
132068	2025-08-15T21:19:23	28.1	60
132069	2025-08-15T21:29:23	28	60.5
132070	2025-08-15T21:39:23	27.7	61.5
132071	2025-08-15T21:49:23	27.4	61.5
132072	2025-08-15T21:59:23	27.2	64.5
132073	2025-08-15T22:09:23	26.9	66
132074	2025-08-15T22:19:23	26.7	66
132075	2025-08-15T22:29:23	26.5	66
132076	2025-08-15T22:39:23	26.4	66
132077	2025-08-15T22:49:23	26.2	65
132078	2025-08-15T22:59:23	26	63.5
132079	2025-08-15T23:09:23	25.8	64.5
132080	2025-08-15T23:19:23	25.7	64
132081	2025-08-15T23:29:23	25.5	64
132082	2025-08-15T23:39:23	25.3	65
132083	2025-08-15T23:49:23	25.1	66.5
132084	2025-08-15T23:59:23	24.9	67.5
132085	2025-08-16T00:09:23	24.7	66.5
132086	2025-08-16T00:19:23	24.5	69
132087	2025-08-16T00:29:23	24.3	70
132088	2025-08-16T00:39:23	24.1	71
132089	2025-08-16T00:49:23	23.9	72
132090	2025-08-16T00:59:23	23.7	72
132091	2025-08-16T01:09:23	23.5	73
132092	2025-08-16T01:19:23	23.4	73
132093	2025-08-16T01:29:23	23.2	73
132094	2025-08-16T01:39:23	23.1	73
132095	2025-08-16T01:49:23	22.9	71.5
132096	2025-08-16T01:59:23	22.9	71
132097	2025-08-16T02:09:22	22.8	71
132098	2025-08-16T02:19:22	22.6	72.5
132099	2025-08-16T02:29:22	22.5	73.5
132100	2025-08-16T02:39:22	22.4	74
132101	2025-08-16T02:49:22	22.1	75
132102	2025-08-16T02:59:22	22.1	74.5
132103	2025-08-16T03:09:22	22	75
132104	2025-08-16T03:19:22	21.9	75.5
132105	2025-08-16T03:29:22	21.7	76.5
132106	2025-08-16T03:39:22	21.5	76.5
132107	2025-08-16T03:49:22	21.3	77
132108	2025-08-16T03:59:22	21.3	77.5
132109	2025-08-16T04:09:22	21.3	77.5
132110	2025-08-16T04:19:22	21.3	77.5
132111	2025-08-16T04:29:22	21.1	77.5
132112	2025-08-16T04:39:22	21.2	77.5
132113	2025-08-16T04:49:22	21.3	77.5
132114	2025-08-16T04:59:22	21.3	77
132115	2025-08-16T05:09:22	21.6	76
132116	2025-08-16T05:19:22	21.8	75
132117	2025-08-16T05:29:22	22.1	74.5
132118	2025-08-16T05:39:22	22.1	74
132119	2025-08-16T05:49:22	22.1	74.5
132120	2025-08-16T05:59:22	22.2	74
132121	2025-08-16T06:09:22	22.3	74.5
132122	2025-08-16T06:19:22	22.5	73.5
132123	2025-08-16T06:29:22	22.7	71.5
132124	2025-08-16T06:39:22	22.9	71
132125	2025-08-16T06:49:22	23	69.5
132126	2025-08-16T06:59:22	23.1	68.5
132127	2025-08-16T07:09:22	23.6	68
132128	2025-08-16T07:19:22	23.6	68
132129	2025-08-16T07:29:22	23.5	68.5
132130	2025-08-16T07:39:22	23.6	69
132131	2025-08-16T07:49:22	24	68
132132	2025-08-16T07:59:22	24.2	67.5
132133	2025-08-16T08:09:22	24.4	67.5
132134	2025-08-16T08:19:22	24.7	66.5
132135	2025-08-16T08:29:22	25.2	67
132136	2025-08-16T08:39:22	25.2	64.5
132137	2025-08-16T08:49:22	25.3	65
132138	2025-08-16T08:59:22	25.9	63.5
132139	2025-08-16T09:09:22	26.6	62
132140	2025-08-16T09:19:22	26.9	61
132141	2025-08-16T09:29:22	27.1	60.5
132142	2025-08-16T09:39:22	27.3	59.5
132143	2025-08-16T09:49:22	27.2	59.5
132144	2025-08-16T09:59:22	27.8	59
132145	2025-08-16T10:09:22	28.1	59
132146	2025-08-16T10:19:22	28.2	57.5
132147	2025-08-16T10:29:22	28.7	56
132148	2025-08-16T10:39:22	29	56
132149	2025-08-16T10:49:22	29.7	55
132150	2025-08-16T10:59:22	29.9	54
132151	2025-08-16T11:09:22	30	54
132152	2025-08-16T11:19:22	30.8	53
132153	2025-08-16T11:29:22	30.8	52
132154	2025-08-16T11:39:22	31.7	50
132155	2025-08-16T11:49:22	32.6	48
132156	2025-08-16T11:59:22	33	47.5
132157	2025-08-16T12:09:21	35.8	42
132158	2025-08-16T12:19:21	39.6	37
132159	2025-08-16T12:29:21	39.9	35.5
132160	2025-08-16T12:39:21	40.8	34
132161	2025-08-16T12:49:21	42.1	31
132162	2025-08-16T12:59:21	42.5	31
132163	2025-08-16T13:09:21	42.6	30
132164	2025-08-16T13:19:21	42.2	30
132165	2025-08-16T13:29:21	42.1	31
132166	2025-08-16T13:39:21	44	29
132167	2025-08-16T13:49:21	44.7	27.5
132168	2025-08-16T13:59:21	44.4	27.5
132169	2025-08-16T14:09:21	43.3	29
132170	2025-08-16T14:19:21	44	28
132171	2025-08-16T14:29:21	44.7	27.5
132172	2025-08-16T14:39:38	43.8	28.5
132173	2025-08-16T14:49:21	43.1	29
132174	2025-08-16T14:59:21	42	30
132175	2025-08-16T15:09:21	41.8	30
132176	2025-08-16T15:19:21	42.6	29
132177	2025-08-16T15:29:21	42.6	28.5
132178	2025-08-16T15:39:21	41.8	29
132179	2025-08-16T15:49:21	38.9	32
132180	2025-08-16T15:59:21	37.6	34.5
132181	2025-08-16T16:09:21	39.6	32
132182	2025-08-16T16:19:21	37.5	34
132183	2025-08-16T16:29:21	38	33.5
132184	2025-08-16T16:39:21	38	33.5
132185	2025-08-16T16:49:21	37.8	33.5
132186	2025-08-16T16:59:21	37	34.5
132187	2025-08-16T17:09:21	35.7	36.5
132188	2025-08-16T17:19:21	34.6	38.5
132189	2025-08-16T17:29:21	34	39.5
132190	2025-08-16T17:39:21	33.1	41
132191	2025-08-16T17:49:21	32	42
132192	2025-08-16T17:59:21	30.9	44.5
132193	2025-08-16T18:09:21	30.3	45.5
132194	2025-08-16T18:19:21	29.6	46.5
132195	2025-08-16T18:29:21	29	48
132196	2025-08-16T18:39:21	28.6	50
132197	2025-08-16T18:49:21	28.3	51
132198	2025-08-16T18:59:21	27.9	52
132199	2025-08-16T19:09:21	27.8	53
132200	2025-08-16T19:19:21	27.4	54.5
132201	2025-08-16T19:29:21	26.9	55.5
132202	2025-08-16T19:39:21	26.6	56
132203	2025-08-16T19:49:21	26.4	57
132204	2025-08-16T19:59:21	26.1	57
132205	2025-08-16T20:09:21	25.7	58
132206	2025-08-16T20:19:21	25.5	57
132207	2025-08-16T20:29:21	25.1	56
132208	2025-08-16T20:39:21	24.8	57
132209	2025-08-16T20:49:21	24.5	57
132210	2025-08-16T20:59:21	24.2	57.5
132211	2025-08-16T21:09:21	23.9	58.5
132212	2025-08-16T21:19:21	23.7	59.5
132213	2025-08-16T21:29:21	23.4	60
132214	2025-08-16T21:39:21	23.2	61.5
132215	2025-08-16T21:49:21	23	63
132216	2025-08-16T21:59:21	22.6	63
132217	2025-08-16T22:09:21	22.4	64
132218	2025-08-16T22:19:21	22.2	65
132219	2025-08-16T22:29:21	21.9	65.5
132220	2025-08-16T22:39:21	21.7	66.5
132221	2025-08-16T22:49:21	21.5	67.5
132222	2025-08-16T22:59:21	21.2	67.5
132223	2025-08-16T23:09:21	21	68.5
132224	2025-08-16T23:19:21	20.8	69
132225	2025-08-16T23:29:21	20.7	69.5
132226	2025-08-16T23:39:21	20.6	70.5
132227	2025-08-16T23:49:20	20.3	70.5
132228	2025-08-16T23:59:21	20.2	71.5
132229	2025-08-17T00:09:21	20.1	71.5
132230	2025-08-17T00:19:20	19.9	72.5
132231	2025-08-17T00:29:20	19.7	72.5
132232	2025-08-17T00:39:20	19.6	74
132233	2025-08-17T00:49:20	19.6	74.5
132234	2025-08-17T00:59:21	19.8	74
132235	2025-08-17T01:09:20	20	73.5
132236	2025-08-17T01:19:20	20.2	72.5
132237	2025-08-17T01:29:20	20.3	72
132238	2025-08-17T01:39:20	20.2	71.5
132239	2025-08-17T01:49:20	20.3	71.5
132240	2025-08-17T01:59:20	20.3	71
132241	2025-08-17T02:09:20	20.2	71.5
132242	2025-08-17T02:19:20	20	71
132243	2025-08-17T02:29:20	20	71.5
132244	2025-08-17T02:39:20	19.9	72
132245	2025-08-17T02:49:20	19.9	71.5
132246	2025-08-17T02:59:20	20	71.5
132247	2025-08-17T03:09:20	19.9	71
132248	2025-08-17T03:19:20	19.8	71.5
132249	2025-08-17T03:29:20	19.8	71
132250	2025-08-17T03:39:20	19.6	71
132251	2025-08-17T03:49:20	19.7	71
132252	2025-08-17T03:59:20	19.7	71
132253	2025-08-17T04:09:20	19.6	71
132254	2025-08-17T04:19:20	19.7	71
132255	2025-08-17T04:29:20	19.5	71.5
132256	2025-08-17T04:39:20	19.6	71
132257	2025-08-17T04:49:20	19.5	71
132258	2025-08-17T04:59:20	19.6	71.5
132259	2025-08-17T05:09:20	19.6	71.5
132260	2025-08-17T05:19:20	19.7	71.5
132261	2025-08-17T05:29:20	19.7	71.5
132262	2025-08-17T05:39:20	19.7	71
132263	2025-08-17T05:49:20	19.9	70.5
132264	2025-08-17T05:59:20	20	70.5
132265	2025-08-17T06:09:20	20.1	70
132266	2025-08-17T06:19:20	20.2	70
132267	2025-08-17T06:29:20	20.5	69.5
132268	2025-08-17T06:39:20	20.6	69.5
132269	2025-08-17T06:49:20	20.8	68.5
132270	2025-08-17T06:59:20	20.9	67
132271	2025-08-17T07:09:20	21.2	67
132272	2025-08-17T07:19:20	21.2	66
132273	2025-08-17T07:29:20	21.5	66
132274	2025-08-17T07:39:20	21.8	65.5
132275	2025-08-17T07:49:20	21.9	65
132276	2025-08-17T07:59:20	22.1	63.5
132277	2025-08-17T08:09:20	22.4	64
132278	2025-08-17T08:19:20	22.3	63
132279	2025-08-17T08:29:20	22.1	63.5
132280	2025-08-17T08:39:20	21.7	66
132281	2025-08-17T08:49:20	21.3	66
132282	2025-08-17T08:59:20	21.4	67.5
132283	2025-08-17T09:09:20	21.5	66.5
132284	2025-08-17T09:19:20	21.4	66.5
132285	2025-08-17T09:29:19	21.7	66.5
132286	2025-08-17T09:39:19	21.8	66.5
132287	2025-08-17T09:49:19	22.1	65
132288	2025-08-17T09:59:19	22.2	65.5
132289	2025-08-17T10:09:19	22.5	64
132290	2025-08-17T10:19:19	22.8	63.5
132291	2025-08-17T10:29:19	22.6	63
132292	2025-08-17T10:39:19	22.9	62
132293	2025-08-17T10:49:19	23.5	60.5
132294	2025-08-17T10:59:19	23.6	61.5
132295	2025-08-17T11:09:19	23.9	58
132296	2025-08-17T11:19:19	24.3	59
132297	2025-08-17T11:29:19	24.3	56.5
132298	2025-08-17T11:39:19	24.4	56
132299	2025-08-17T11:49:19	24.7	55
132300	2025-08-17T11:59:19	25	54
132301	2025-08-17T12:09:19	29.5	45
132302	2025-08-17T12:19:19	33.4	38.5
132303	2025-08-17T12:29:19	36.7	33
132304	2025-08-17T12:39:19	37	32
132305	2025-08-17T12:49:19	33.6	36
132306	2025-08-17T12:59:19	37.8	32
132307	2025-08-17T13:09:19	38.7	29.5
132308	2025-08-17T13:19:19	41.1	27.5
132309	2025-08-17T13:29:19	42.1	26.5
132310	2025-08-17T13:39:19	42.1	26
132311	2025-08-17T13:49:19	40.5	26.5
132312	2025-08-17T13:59:19	40.2	26
132313	2025-08-17T14:09:19	42.8	24
132314	2025-08-17T14:19:19	42	24.5
132315	2025-08-17T14:29:19	42.3	23.5
132316	2025-08-17T14:39:19	42.9	22
132317	2025-08-17T14:49:19	43.1	21
132318	2025-08-17T15:09:19	40.4	22.5
132319	2025-08-17T15:19:19	40.9	20.5
132320	2025-08-17T15:29:19	42.6	20
132321	2025-08-17T15:39:19	41.8	19.5
132322	2025-08-17T15:49:19	42.2	18
132323	2025-08-17T15:59:19	42.1	16.5
132324	2025-08-17T16:09:19	41.8	17
132325	2025-08-17T16:19:19	41.5	15.5
132326	2025-08-17T16:29:19	41.8	17
132327	2025-08-17T16:39:19	40.8	15.5
132328	2025-08-17T16:49:19	39.7	15.5
132329	2025-08-17T16:59:19	39.5	18
132330	2025-08-17T17:09:19	37.8	18.5
132331	2025-08-17T17:19:19	36.2	20.5
132332	2025-08-17T17:29:19	35.4	21.5
132333	2025-08-17T17:39:19	35.2	23
132334	2025-08-17T17:49:19	33.1	25
132335	2025-08-17T17:59:19	31.5	27.5
132336	2025-08-17T18:09:19	30.4	29.5
132337	2025-08-17T18:19:19	29.5	32
132338	2025-08-17T18:29:19	29	34
132339	2025-08-17T18:39:19	28.4	37
132340	2025-08-17T18:49:19	27.8	40
132341	2025-08-17T18:59:19	27.1	41
132342	2025-08-17T19:09:19	26.6	41.5
132343	2025-08-17T19:19:19	26	43.5
132344	2025-08-17T19:29:19	25.5	45
132345	2025-08-17T19:39:19	25.1	46.5
132346	2025-08-17T19:49:19	24.7	47.5
132347	2025-08-17T19:59:19	24.3	48.5
132348	2025-08-17T20:09:19	23.7	50
132349	2025-08-17T20:19:19	23.4	51.5
132350	2025-08-17T20:29:19	22.9	52
132351	2025-08-17T20:39:19	22.6	53
132352	2025-08-17T20:49:19	21.9	54
132353	2025-08-17T20:59:18	21.6	54.5
132354	2025-08-17T21:09:18	21.3	55.5
132355	2025-08-17T21:19:18	21.2	55
132356	2025-08-17T21:29:18	20.8	55
132357	2025-08-17T21:39:18	20.4	56
132358	2025-08-17T21:49:18	20.1	57
132359	2025-08-17T21:59:18	19.7	59
132360	2025-08-17T22:09:18	19.6	60
132361	2025-08-17T22:19:18	19.2	60.5
132362	2025-08-17T22:29:18	18.8	61.5
132363	2025-08-17T22:39:18	18.6	63
132364	2025-08-17T22:49:18	18.5	64
132365	2025-08-17T22:59:18	18.3	64.5
132366	2025-08-17T23:09:18	17.9	65.5
132367	2025-08-17T23:19:18	17.7	66.5
132368	2025-08-17T23:29:18	17.5	67.5
132369	2025-08-17T23:39:18	17.5	67.5
132370	2025-08-17T23:49:18	17.4	68.5
132371	2025-08-17T23:59:18	17.4	69
132372	2025-08-18T00:09:18	17.2	69.5
132373	2025-08-18T00:19:18	17	70
132374	2025-08-18T00:29:18	16.7	70.5
132375	2025-08-18T00:39:18	16.5	71
132376	2025-08-18T00:49:18	16.3	71.5
132377	2025-08-18T00:59:18	16	72.5
132378	2025-08-18T01:09:18	15.8	73
132379	2025-08-18T01:19:18	15.7	74
132380	2025-08-18T01:29:18	15.6	74.5
132381	2025-08-18T01:39:18	15.4	75.5
132382	2025-08-18T01:49:18	15.2	76
132383	2025-08-18T01:59:18	15	76.5
132384	2025-08-18T02:09:18	14.9	77
132385	2025-08-18T02:19:18	14.6	77.5
132386	2025-08-18T02:29:18	14.4	78.5
132387	2025-08-18T02:39:18	14.3	79
132388	2025-08-18T02:49:18	14.3	79.5
132389	2025-08-18T02:59:18	14	80
132390	2025-08-18T03:09:18	14	80.5
132391	2025-08-18T03:19:18	14	81
132392	2025-08-18T03:29:18	13.8	81.5
132393	2025-08-18T03:39:18	13.7	82
132394	2025-08-18T03:49:18	13.6	82.5
132395	2025-08-18T03:59:18	13.6	82.5
132396	2025-08-18T04:09:18	13.6	83
132397	2025-08-18T04:19:18	13.6	82.5
132398	2025-08-18T04:29:18	13.5	83
132399	2025-08-18T04:39:18	13.5	82.5
132400	2025-08-18T04:49:18	13.4	83.5
132401	2025-08-18T04:59:18	13.4	83
132402	2025-08-18T05:09:18	13.4	83
132403	2025-08-18T05:19:18	13.6	83
132404	2025-08-18T05:29:18	13.6	83.5
132405	2025-08-18T05:39:18	13.8	83
132406	2025-08-18T05:49:18	14.2	82.5
132407	2025-08-18T05:59:18	14.2	82
132408	2025-08-18T06:09:18	14.4	82
132409	2025-08-18T06:19:18	14.7	81.5
132410	2025-08-18T06:29:18	14.8	81
132411	2025-08-18T06:39:18	15.2	80.5
132412	2025-08-18T06:49:18	15.6	80
132413	2025-08-18T06:59:18	15.8	79.5
132414	2025-08-18T07:09:18	16.1	79
132415	2025-08-18T07:19:18	16.3	78.5
132416	2025-08-18T07:29:18	16.5	78
132417	2025-08-18T07:39:18	16.8	77.5
132418	2025-08-18T07:49:17	17.2	77
132419	2025-08-18T07:59:18	17.3	76.5
132420	2025-08-18T08:09:17	17.5	75.5
132421	2025-08-18T08:19:17	17.8	75.5
132422	2025-08-18T08:29:17	18	74.5
132423	2025-08-18T08:39:17	18.5	74
132424	2025-08-18T08:49:17	18.7	73
132425	2025-08-18T08:59:17	18.9	72.5
132426	2025-08-18T09:09:17	19.1	72
132427	2025-08-18T09:19:17	19.5	71.5
132428	2025-08-18T09:29:17	19.8	69
132429	2025-08-18T09:39:17	20	69
132430	2025-08-18T09:49:17	20.4	69
132431	2025-08-18T09:59:17	20.6	67.5
132432	2025-08-18T10:09:17	20.8	66.5
132433	2025-08-18T10:19:17	21.1	68.5
132434	2025-08-18T10:29:17	21.4	66.5
132435	2025-08-18T10:39:17	21.6	65.5
132436	2025-08-18T10:49:17	22	64.5
132437	2025-08-18T10:59:17	22.3	63
132438	2025-08-18T11:09:17	22.6	61.5
132439	2025-08-18T11:19:17	22.8	60
132440	2025-08-18T11:29:17	23.2	59
132441	2025-08-18T11:39:17	23.6	59.5
132442	2025-08-18T11:49:17	23.9	56.5
132443	2025-08-18T11:59:17	24.3	55
132444	2025-08-18T12:09:17	29.9	44.5
132445	2025-08-18T12:19:17	34.2	36
132446	2025-08-18T12:29:17	36.7	32.5
132447	2025-08-18T12:39:17	38.3	30
132448	2025-08-18T12:49:17	39.3	28.5
132449	2025-08-18T12:59:17	39.6	28.5
132450	2025-08-18T13:09:17	40.7	27.5
132451	2025-08-18T13:19:17	41.6	26.5
132452	2025-08-18T13:29:17	42.1	25.5
132453	2025-08-18T13:39:17	43	25.5
132454	2025-08-18T13:49:17	43.5	24.5
132455	2025-08-18T13:59:17	43.5	24.5
132456	2025-08-18T14:09:17	43.2	24.5
132457	2025-08-18T14:19:17	43.2	24.5
132458	2025-08-18T14:29:17	43	24.5
132459	2025-08-18T14:39:17	42.6	24
132460	2025-08-18T14:49:17	43.4	24
132461	2025-08-18T14:59:17	43.4	24.5
132462	2025-08-18T15:09:17	43.4	24
132463	2025-08-18T15:19:17	43.1	24
132464	2025-08-18T15:29:17	42.5	24.5
132465	2025-08-18T15:39:17	42.5	24
132466	2025-08-18T15:49:17	41.6	25.5
132467	2025-08-18T15:59:17	41.6	25.5
132468	2025-08-18T16:09:17	41.3	25
132469	2025-08-18T16:19:17	40.8	25.5
132470	2025-08-18T16:29:17	40.3	26
132471	2025-08-18T16:39:17	40.2	26.5
132472	2025-08-18T16:49:17	39.3	27
132473	2025-08-18T16:59:17	38.8	28
132474	2025-08-18T17:09:17	37.4	30
132475	2025-08-18T17:19:17	35.2	32
132476	2025-08-18T17:29:17	34.9	33
132477	2025-08-18T17:39:17	34.8	33.5
132478	2025-08-18T17:49:17	33	35.5
132479	2025-08-18T17:59:17	31.6	37.5
132480	2025-08-18T18:09:17	30.8	40
132481	2025-08-18T18:19:17	30	42.5
132482	2025-08-18T18:29:17	29.3	44
132483	2025-08-18T18:39:17	28.7	45
132484	2025-08-18T18:49:17	28.1	46.5
132485	2025-08-18T18:59:16	27.6	47
132486	2025-08-18T19:09:16	27.1	49
132487	2025-08-18T19:19:16	26.5	51
132488	2025-08-18T19:29:16	26.1	52.5
132489	2025-08-18T19:39:16	25.8	53.5
132490	2025-08-18T19:49:16	25.3	54
132491	2025-08-18T19:59:17	24.8	55.5
132492	2025-08-18T20:09:16	24.2	57
132493	2025-08-18T20:19:16	23.7	58.5
132494	2025-08-18T20:29:16	23.3	60
132495	2025-08-18T20:39:16	23	61
132496	2025-08-18T20:49:16	22.6	62
132497	2025-08-18T20:59:16	22.3	63
132498	2025-08-18T21:09:16	22	64
132499	2025-08-18T21:19:16	21.8	64.5
132500	2025-08-18T21:29:16	21.6	64.5
132501	2025-08-18T21:39:16	21.3	65.5
132502	2025-08-18T21:49:16	20.9	66
132503	2025-08-18T21:59:16	20.7	66.5
132504	2025-08-18T22:09:16	20.7	66.5
132505	2025-08-18T22:19:16	20.5	66.5
132506	2025-08-18T22:29:16	20.4	66.5
132507	2025-08-18T22:39:16	20.1	66.5
132508	2025-08-18T22:49:16	20.1	67
132509	2025-08-18T22:59:16	19.9	67
132510	2025-08-18T23:09:16	19.8	68.5
132511	2025-08-18T23:19:37	19.4	69.5
132512	2025-08-18T23:39:16	19.1	70.5
132513	2025-08-18T23:49:16	19	71
132514	2025-08-18T23:59:16	18.9	71.5
132515	2025-08-19T00:09:16	18.6	72
132516	2025-08-19T00:19:16	18.5	72.5
132517	2025-08-19T00:29:16	18.3	72.5
132518	2025-08-19T00:39:16	18.3	73.5
132519	2025-08-19T00:49:16	17.9	74
132520	2025-08-19T00:59:16	17.9	74
132521	2025-08-19T01:09:16	17.7	74
132522	2025-08-19T01:19:16	17.6	74.5
132523	2025-08-19T01:29:16	17.4	74.5
132524	2025-08-19T01:39:16	17.2	75.5
132525	2025-08-19T01:49:16	17.1	76.5
132526	2025-08-19T01:59:16	16.9	77
132527	2025-08-19T02:09:16	16.8	77.5
132528	2025-08-19T02:19:16	16.8	78.5
132529	2025-08-19T02:29:16	16.6	79
132530	2025-08-19T02:39:16	16.4	80.5
132531	2025-08-19T02:49:16	16.3	80.5
132532	2025-08-19T02:59:16	16.1	80.5
132533	2025-08-19T03:09:16	16	81.5
132534	2025-08-19T03:19:16	15.8	82
132535	2025-08-19T03:29:16	15.7	82.5
132536	2025-08-19T03:39:16	15.7	82.5
132537	2025-08-19T03:49:16	15.5	83
132538	2025-08-19T03:59:16	15.5	83
132539	2025-08-19T04:09:16	15.4	83.5
132540	2025-08-19T04:19:16	15.2	84
132541	2025-08-19T04:29:16	15.1	84
132542	2025-08-19T04:39:16	15.1	84
132543	2025-08-19T04:49:16	15.1	84.5
132544	2025-08-19T04:59:16	15.1	85
132545	2025-08-19T05:09:16	15.1	85
132546	2025-08-19T05:19:16	15.2	85
132547	2025-08-19T05:29:16	15.4	84.5
132548	2025-08-19T05:39:16	15.4	85
132549	2025-08-19T05:49:16	15.6	84.5
132550	2025-08-19T05:59:16	15.8	84.5
132551	2025-08-19T06:09:15	16.1	85
132552	2025-08-19T06:19:15	16.3	85
132553	2025-08-19T06:29:15	16.4	83.5
132554	2025-08-19T06:39:15	16.7	82.5
132555	2025-08-19T06:49:15	16.9	81
132556	2025-08-19T06:59:15	17.1	81
132557	2025-08-19T07:09:15	17.3	80.5
132558	2025-08-19T07:19:15	17.6	79
132559	2025-08-19T07:29:15	17.8	79
132560	2025-08-19T07:39:15	18	77.5
132561	2025-08-19T07:49:15	18.5	74.5
132562	2025-08-19T07:59:15	19	73.5
132563	2025-08-19T08:09:15	19.2	73
132564	2025-08-19T08:19:15	19.5	73
132565	2025-08-19T08:29:15	19.9	72.5
132566	2025-08-19T08:49:15	20.6	71.5
132567	2025-08-19T08:59:15	20.9	72
132568	2025-08-19T09:09:15	21.2	71
132569	2025-08-19T09:19:15	21.8	69
132570	2025-08-19T09:29:15	22.2	69
132571	2025-08-19T09:39:15	22.5	68
132572	2025-08-19T09:49:15	22.9	64.5
132573	2025-08-19T09:59:15	23.3	64.5
132574	2025-08-19T10:09:15	23.7	63.5
132575	2025-08-19T10:19:15	24	62
132576	2025-08-19T10:29:15	24.4	60
132577	2025-08-19T10:39:15	25.1	59
132578	2025-08-19T10:49:15	25.4	55.5
132579	2025-08-19T10:59:15	25.6	56
132580	2025-08-19T11:09:15	26.1	54
132581	2025-08-19T11:19:15	26.2	53.5
132582	2025-08-19T11:29:15	26.5	52.5
132583	2025-08-19T11:39:15	26.9	51.5
132584	2025-08-19T11:49:15	27.4	50.5
132585	2025-08-19T11:59:15	27.8	49
132586	2025-08-19T12:09:15	33.3	38
132587	2025-08-19T12:19:15	37.2	33
132588	2025-08-19T12:29:15	40.2	30
132589	2025-08-19T12:39:15	42.1	28
132590	2025-08-19T12:49:15	43.3	26
132591	2025-08-19T12:59:15	41.1	27.5
132592	2025-08-19T13:09:15	43.6	25.5
132593	2025-08-19T13:19:15	43.2	26
132594	2025-08-19T13:29:15	44	25
132595	2025-08-19T13:39:15	43.8	25.5
132596	2025-08-19T13:49:15	44	26
132597	2025-08-19T13:59:15	42.8	26
132598	2025-08-19T14:09:15	44.3	25
132599	2025-08-19T14:19:15	44.1	24.5
132600	2025-08-19T14:29:15	45.3	24.5
132601	2025-08-19T14:39:15	46.9	23.5
132602	2025-08-19T14:49:15	46.9	22.5
132603	2025-08-19T14:59:15	43	25.5
132604	2025-08-19T15:09:15	41.7	26.5
132605	2025-08-19T15:19:15	42.7	27
132606	2025-08-19T15:29:15	42.4	26.5
132607	2025-08-19T15:39:15	42.2	26
132608	2025-08-19T15:49:15	42.4	26.5
132609	2025-08-19T15:59:15	42.2	26.5
132610	2025-08-19T16:09:15	39.6	28
132611	2025-08-19T16:19:15	39.5	27
132612	2025-08-19T16:29:15	40.9	25
132613	2025-08-19T16:39:15	41	24.5
132614	2025-08-19T16:49:15	40	25.5
132615	2025-08-19T16:59:15	39.3	26.5
132616	2025-08-19T17:09:15	38.6	27.5
132617	2025-08-19T17:19:14	36.9	29
132618	2025-08-19T17:29:14	36	30.5
132619	2025-08-19T17:39:14	35.2	32.5
132620	2025-08-19T17:49:14	35	37
132621	2025-08-19T17:59:14	33.9	39.5
132622	2025-08-19T18:09:14	32.9	42
132623	2025-08-19T18:19:14	31.7	43.5
132624	2025-08-19T18:29:14	30.9	44.5
132625	2025-08-19T18:39:14	30.4	44.5
132626	2025-08-19T18:49:14	29.6	49.5
132627	2025-08-19T18:59:14	29.3	50.5
132628	2025-08-19T19:09:14	28.7	51.5
132629	2025-08-19T19:19:14	28.2	52
132630	2025-08-19T19:29:14	27.9	50.5
132631	2025-08-19T19:39:14	27.5	52.5
132632	2025-08-19T19:49:14	27	53.5
132633	2025-08-19T19:59:14	26.7	54
132634	2025-08-19T20:09:14	26.2	55
132635	2025-08-19T20:19:14	25.9	55.5
132636	2025-08-19T20:39:14	25.2	57.5
132637	2025-08-19T20:49:14	25	58
132638	2025-08-19T20:59:14	24.7	59
132639	2025-08-19T21:09:14	24.5	59.5
132640	2025-08-19T21:19:14	24.2	61
132641	2025-08-19T21:29:14	23.9	61.5
132642	2025-08-19T21:39:14	23.6	62
132643	2025-08-19T21:49:14	23.2	62
132644	2025-08-19T21:59:14	23	62
132645	2025-08-19T22:09:14	22.9	63.5
132646	2025-08-19T22:19:14	22.6	64.5
132647	2025-08-19T22:29:14	22.3	66
132648	2025-08-19T22:39:14	22.2	67
132649	2025-08-19T22:49:14	22.1	67
132650	2025-08-19T22:59:14	21.6	67.5
132651	2025-08-19T23:09:14	21.5	68.5
132652	2025-08-19T23:19:14	21.3	69
132653	2025-08-19T23:29:14	20.2	73
132654	2025-08-19T23:39:14	20.2	72.5
132655	2025-08-19T23:49:14	20.3	71.5
132656	2025-08-19T23:59:14	20.4	71
132657	2025-08-20T00:09:14	20.4	71.5
132658	2025-08-20T00:19:14	20.3	72
132659	2025-08-20T00:29:14	20	72
132660	2025-08-20T00:39:14	19.9	72.5
132661	2025-08-20T00:49:14	19.9	73
132662	2025-08-20T00:59:14	19.8	72.5
132663	2025-08-20T01:09:14	19.6	73
132664	2025-08-20T01:19:14	19.4	73.5
132665	2025-08-20T01:29:14	19	75
132666	2025-08-20T01:39:14	19	75
132667	2025-08-20T01:49:14	19.1	75
132668	2025-08-20T01:59:14	18.9	76
132669	2025-08-20T02:09:14	19	76
132670	2025-08-20T02:19:14	19.1	76.5
132671	2025-08-20T02:29:14	19.2	76.5
132672	2025-08-20T02:39:14	19.6	77
132673	2025-08-20T02:49:14	19.7	76.5
132674	2025-08-20T02:59:14	19.9	76
132675	2025-08-20T03:09:14	19.8	76.5
132676	2025-08-20T03:19:14	19.9	77
132677	2025-08-20T03:29:14	19.9	77
132678	2025-08-20T03:39:14	20.1	77
132679	2025-08-20T03:49:13	20.2	77
132680	2025-08-20T03:59:14	20.3	77
132681	2025-08-20T04:09:13	20.6	76.5
132682	2025-08-20T04:19:13	20.7	76.5
132683	2025-08-20T04:29:13	20.6	76.5
132684	2025-08-20T04:39:13	20.7	76.5
132685	2025-08-20T04:49:13	20.6	77
132686	2025-08-20T04:59:13	20.7	77
132687	2025-08-20T05:09:13	20.8	77
132688	2025-08-20T05:19:13	20.7	76
132689	2025-08-20T05:29:13	20.9	76
132690	2025-08-20T05:39:13	21	76.5
132691	2025-08-20T05:49:13	21.1	76.5
132692	2025-08-20T05:59:13	21.2	76
132693	2025-08-20T06:09:32	21.4	76
132694	2025-08-20T06:19:13	21.7	75.5
132695	2025-08-20T06:29:13	21.9	76
132696	2025-08-20T06:39:13	21.8	75.5
132697	2025-08-20T06:49:13	21.9	75.5
132698	2025-08-20T06:59:13	22.2	75
132699	2025-08-20T07:09:13	22.2	74.5
132700	2025-08-20T07:19:13	22.3	74.5
132701	2025-08-20T07:29:13	22.4	74.5
132702	2025-08-20T07:39:13	22.5	74.5
132703	2025-08-20T07:49:13	22.5	75
132704	2025-08-20T07:59:13	22.5	74.5
132705	2025-08-20T08:09:13	22.6	74.5
132706	2025-08-20T08:19:13	22.5	75
132707	2025-08-20T08:29:13	22.5	74.5
132708	2025-08-20T08:39:13	22.5	74.5
132709	2025-08-20T08:49:13	22.6	76.5
132710	2025-08-20T08:59:13	22.6	76.5
132711	2025-08-20T09:09:13	22.2	76.5
132712	2025-08-20T09:19:13	22.2	76.5
132713	2025-08-20T09:29:13	22.3	77
132714	2025-08-20T09:39:13	22.9	75.5
132715	2025-08-20T09:49:13	23.3	73.5
132716	2025-08-20T09:59:13	23.6	72.5
132717	2025-08-20T10:09:13	23.7	71.5
132718	2025-08-20T10:19:13	23.8	71.5
132719	2025-08-20T10:29:13	23.8	71
132720	2025-08-20T10:39:13	24.5	70.5
132721	2025-08-20T10:49:13	24.9	70
132722	2025-08-20T10:59:13	25.3	68.5
132723	2025-08-20T11:09:13	25	69
132724	2025-08-20T11:19:13	25.2	68
132725	2025-08-20T11:29:13	25.4	68.5
132726	2025-08-20T11:39:13	25.6	66.5
132727	2025-08-20T11:49:13	25.8	66.5
132728	2025-08-20T11:59:13	24.9	68.5
132729	2025-08-20T12:09:13	24.4	69.5
132730	2025-08-20T12:19:13	24.2	70.5
132731	2025-08-20T12:29:13	24.1	71
132732	2025-08-20T12:39:13	24.4	70.5
132733	2025-08-20T12:49:13	24.3	70.5
132734	2025-08-20T12:59:13	24	71
132735	2025-08-20T13:09:13	23.9	71.5
132736	2025-08-20T13:19:13	23.7	73
132737	2025-08-20T13:29:13	23.5	73
132738	2025-08-20T13:39:12	23.5	73
132739	2025-08-20T13:49:12	23.3	73.5
132740	2025-08-20T13:59:12	23.1	74
132741	2025-08-20T14:09:12	23.3	74
132742	2025-08-20T14:19:12	23.1	74.5
132743	2025-08-20T14:29:12	23.2	74
132744	2025-08-20T14:39:12	23.3	75
132745	2025-08-20T14:49:12	23.6	74.5
132746	2025-08-20T14:59:12	23.2	74.5
132747	2025-08-20T15:09:12	23.2	76
132748	2025-08-20T15:19:12	23	76.5
132749	2025-08-20T15:29:12	22.9	76.5
132750	2025-08-20T15:39:12	22.7	76
132751	2025-08-20T15:49:12	22.7	75.5
132752	2025-08-20T15:59:12	22.6	76
132753	2025-08-20T16:09:12	22.8	76
132754	2025-08-20T16:19:12	22.6	76.5
132755	2025-08-20T16:29:12	22.3	78
132756	2025-08-20T16:39:12	22.3	78
132757	2025-08-20T16:49:12	22.2	78
132758	2025-08-20T16:59:12	22.3	79
132759	2025-08-20T17:09:12	22	80
132760	2025-08-20T17:19:12	21.9	80.5
132761	2025-08-20T17:29:12	21.7	81.5
132762	2025-08-20T17:39:12	21.6	81.5
132763	2025-08-20T17:49:12	21.5	81.5
132764	2025-08-20T17:59:12	21.4	82
132765	2025-08-20T18:09:12	21.3	82.5
132766	2025-08-20T18:19:12	21.3	83
132767	2025-08-20T18:29:12	21.2	83.5
132768	2025-08-20T18:39:12	21.2	83.5
132769	2025-08-20T18:49:12	21	83.5
132770	2025-08-20T18:59:12	21	84
132771	2025-08-20T19:09:12	20.9	84
132772	2025-08-20T19:19:12	20.9	83.5
132773	2025-08-20T19:29:12	20.8	83.5
132774	2025-08-20T19:39:12	20.8	83.5
132775	2025-08-20T19:49:12	20.7	83.5
132776	2025-08-20T19:59:12	20.7	84.5
132777	2025-08-20T20:09:12	20.7	85.5
132778	2025-08-20T20:19:12	20.7	86
132779	2025-08-20T20:29:12	20.7	86
132780	2025-08-20T20:39:12	20.6	86
132781	2025-08-20T20:49:12	20.5	86.5
132782	2025-08-20T20:59:12	20.4	87
132783	2025-08-20T21:09:12	20.3	87.5
132784	2025-08-20T21:19:12	20.3	87.5
132785	2025-08-20T21:29:12	20.3	87
132786	2025-08-20T21:39:12	20.3	86.5
132787	2025-08-20T21:49:12	20.2	86.5
132788	2025-08-20T21:59:12	20.3	86.5
132789	2025-08-20T22:09:12	20.2	87
132790	2025-08-20T22:19:12	20.1	86.5
132791	2025-08-20T22:29:12	20.1	86.5
132792	2025-08-20T22:39:12	20.1	87
132793	2025-08-20T22:49:12	19.9	87
132794	2025-08-20T22:59:12	20	87.5
132795	2025-08-20T23:09:12	19.9	89.5
132796	2025-08-20T23:19:12	19.7	90.5
132797	2025-08-20T23:29:12	19.7	91.5
132798	2025-08-20T23:39:12	19.6	92
132799	2025-08-20T23:49:12	19.5	92.5
132800	2025-08-20T23:59:11	19.5	92.5
132801	2025-08-21T00:09:11	19.3	93
132802	2025-08-21T00:19:11	19.2	93
132803	2025-08-21T00:29:11	19	92
132804	2025-08-21T00:39:11	18.9	92
132805	2025-08-21T00:49:11	18.8	91
132806	2025-08-21T00:59:11	18.7	90.5
132807	2025-08-21T01:09:11	18.7	90
132808	2025-08-21T01:19:11	18.6	90.5
132809	2025-08-21T01:29:11	18.6	90.5
132810	2025-08-21T01:39:11	18.5	90.5
132811	2025-08-21T01:49:11	18.5	91
132812	2025-08-21T01:59:11	18.5	91
132813	2025-08-21T02:09:11	18.4	91.5
132814	2025-08-21T02:19:11	18.4	91
132815	2025-08-21T02:29:11	18.3	91.5
132816	2025-08-21T02:39:11	18.4	91.5
132817	2025-08-21T02:49:11	18.2	92
132818	2025-08-21T02:59:11	18.1	92
132819	2025-08-21T03:09:11	18.2	92
132820	2025-08-21T03:19:11	18	92
132821	2025-08-21T03:29:11	17.9	92.5
132822	2025-08-21T03:39:11	18	92.5
132823	2025-08-21T03:49:11	17.9	92.5
132824	2025-08-21T03:59:11	17.9	93
132825	2025-08-21T04:09:11	17.9	93
132826	2025-08-21T04:19:11	17.8	93
132827	2025-08-21T04:29:11	17.9	93
132828	2025-08-21T04:39:11	17.8	93
132829	2025-08-21T04:49:11	17.7	93.5
132830	2025-08-21T04:59:11	17.8	93.5
132831	2025-08-21T05:19:11	17.9	94.5
132832	2025-08-21T05:29:11	17.7	94.5
132833	2025-08-21T05:39:11	17.8	94.5
132834	2025-08-21T05:49:11	17.9	94.5
132835	2025-08-21T05:59:11	18	93.5
132836	2025-08-21T06:09:11	18.1	90
132837	2025-08-21T06:19:11	18.2	84
132838	2025-08-21T06:29:11	18.4	82.5
132839	2025-08-21T06:39:11	18.7	82
132840	2025-08-21T06:49:11	18.8	79.5
132841	2025-08-21T06:59:11	19	79
132842	2025-08-21T07:09:11	19.3	76.5
132843	2025-08-21T07:19:11	19.6	76
132844	2025-08-21T07:29:11	19.8	74
132845	2025-08-21T07:39:11	19.9	72.5
132846	2025-08-21T07:49:11	20	72
132847	2025-08-21T08:09:11	20.8	70.5
132848	2025-08-21T08:19:11	20.8	69
132849	2025-08-21T08:29:11	21.1	68.5
132850	2025-08-21T08:39:11	21.3	69.5
132851	2025-08-21T08:49:11	21.5	66
132852	2025-08-21T08:59:11	21.6	66.5
132853	2025-08-21T09:09:11	22	65.5
132854	2025-08-21T09:29:11	22.6	64.5
132855	2025-08-21T09:39:11	22.5	64.5
132856	2025-08-21T09:49:11	23.3	62.5
132857	2025-08-21T09:59:11	23	63
132858	2025-08-21T10:09:11	23.3	62
132859	2025-08-21T10:19:11	23.5	61
132860	2025-08-21T10:29:11	23.7	61
132861	2025-08-21T10:39:10	23.7	61
132862	2025-08-21T10:49:10	24.2	60
132863	2025-08-21T10:59:10	24.1	61
132864	2025-08-21T11:09:10	24.2	60.5
132865	2025-08-21T11:19:10	23.7	61
132866	2025-08-21T11:29:10	23.6	62.5
132867	2025-08-21T11:39:10	23.9	62.5
132868	2025-08-21T11:49:10	24.7	61
132869	2025-08-21T11:59:10	25.3	59
132870	2025-08-21T12:09:10	27.1	54
132871	2025-08-21T12:19:10	28.1	51
132872	2025-08-21T12:29:10	26.9	53.5
132873	2025-08-21T12:39:10	26.4	54
132874	2025-08-21T12:49:10	26	55.5
132875	2025-08-21T12:59:10	25.8	55.5
132876	2025-08-21T13:09:10	27	53
132877	2025-08-21T13:19:10	28.5	49
132878	2025-08-21T13:29:10	29.2	48.5
132879	2025-08-21T13:39:10	28.5	49
132880	2025-08-21T13:49:10	29.7	47
132881	2025-08-21T13:59:10	28.4	48.5
132882	2025-08-21T14:09:10	27.9	49.5
132883	2025-08-21T14:19:10	29.2	47.5
132884	2025-08-21T14:29:10	29.7	50
132885	2025-08-21T14:39:10	28.1	54
132886	2025-08-21T14:49:10	27.4	55
132887	2025-08-21T14:59:10	27.1	56
132888	2025-08-21T15:09:10	26.5	58.5
132889	2025-08-21T15:19:10	26.2	58.5
132890	2025-08-21T15:29:10	27.4	55.5
132891	2025-08-21T15:39:10	26.4	58.5
132892	2025-08-21T15:49:10	26	60
132893	2025-08-21T15:59:10	25.6	62
132894	2025-08-21T16:09:10	25.4	62.5
132895	2025-08-21T16:19:10	25	63.5
132896	2025-08-21T16:29:10	24.9	66
132897	2025-08-21T16:39:10	24.5	69
132898	2025-08-21T16:49:10	24.3	70
132899	2025-08-21T16:59:10	23.9	71.5
132900	2025-08-21T17:09:10	24	71
132901	2025-08-21T17:19:10	23.9	71
132902	2025-08-21T17:29:10	24.1	70
132903	2025-08-21T17:39:10	23.5	71
132904	2025-08-21T17:49:10	23.5	72
132905	2025-08-21T17:59:10	23.1	74
132906	2025-08-21T18:09:10	22.9	75.5
132907	2025-08-21T18:19:10	22.5	78
132908	2025-08-21T18:29:10	22.3	79
132909	2025-08-21T18:39:10	22	80
132910	2025-08-21T18:49:10	21.8	80.5
132911	2025-08-21T18:59:10	21.8	81
132912	2025-08-21T19:09:10	21.7	81.5
132913	2025-08-21T19:19:10	21.6	81
132914	2025-08-21T19:29:10	21.5	81
132915	2025-08-21T19:39:10	21.3	81
132916	2025-08-21T19:49:10	21.3	81.5
132917	2025-08-21T19:59:10	21.1	82
132918	2025-08-21T20:09:10	21	82.5
132919	2025-08-21T20:19:10	21	82.5
132920	2025-08-21T20:29:10	20.8	83.5
132921	2025-08-21T20:39:09	20.5	84
132922	2025-08-21T20:49:10	20.1	85
132923	2025-08-21T20:59:09	19.9	85.5
132924	2025-08-21T21:09:10	19.7	86
132925	2025-08-21T21:19:09	19.5	87.5
132926	2025-08-21T21:29:09	19.3	87.5
132927	2025-08-21T21:39:09	19.2	87.5
132928	2025-08-21T21:49:09	18.8	88
132929	2025-08-21T21:59:09	18.7	88
132930	2025-08-21T22:09:09	18.6	88.5
132931	2025-08-21T22:19:09	18.4	88.5
132932	2025-08-21T22:29:09	18.2	88.5
132933	2025-08-21T22:39:09	17.9	88
132934	2025-08-21T22:49:09	17.8	89
132935	2025-08-21T22:59:09	17.7	88.5
132936	2025-08-21T23:09:09	17.7	88.5
132937	2025-08-21T23:19:09	17.6	89
132938	2025-08-21T23:29:09	17.5	89
132939	2025-08-21T23:49:09	17.2	88.5
132940	2025-08-21T23:59:09	17.1	88
132941	2025-08-22T00:09:09	17	86.5
132942	2025-08-22T00:19:09	16.9	86
132943	2025-08-22T00:29:09	16.9	85
132944	2025-08-22T00:39:09	16.8	84
132945	2025-08-22T00:49:09	16.7	86
132946	2025-08-22T00:59:09	16.5	85.5
132947	2025-08-22T01:09:09	16.5	85.5
132948	2025-08-22T01:19:09	16.4	85
132949	2025-08-22T01:29:09	16.2	85
132950	2025-08-22T01:39:09	16.2	86.5
132951	2025-08-22T01:49:09	16.1	87
132952	2025-08-22T01:59:09	16.1	82
132953	2025-08-22T02:09:09	16.2	79
132954	2025-08-22T02:19:09	16	78.5
132955	2025-08-22T02:29:09	16.2	79.5
132956	2025-08-22T02:39:09	16.2	79.5
132957	2025-08-22T02:49:09	15.9	80.5
132958	2025-08-22T02:59:09	15.7	82
132959	2025-08-22T03:09:09	15.5	83
132960	2025-08-22T03:19:09	15.3	83
132961	2025-08-22T03:39:27	15.2	79
132962	2025-08-22T03:49:09	15.3	78.5
132963	2025-08-22T03:59:09	15.4	79
132964	2025-08-22T04:09:09	15.5	79.5
132965	2025-08-22T04:19:09	15.6	79.5
132966	2025-08-22T04:29:09	15.7	79.5
132967	2025-08-22T04:39:09	15.6	80.5
132968	2025-08-22T04:49:09	15.7	81
132969	2025-08-22T04:59:09	15.9	79
132970	2025-08-22T05:09:09	15.9	79
132971	2025-08-22T05:19:09	15.9	77.5
132972	2025-08-22T05:29:09	16.1	78
132973	2025-08-22T05:39:09	16	78
132974	2025-08-22T05:49:09	16.2	77.5
132975	2025-08-22T05:59:09	16.2	75.5
132976	2025-08-22T06:09:09	16.6	73
132977	2025-08-22T06:19:09	16.8	71.5
132978	2025-08-22T06:29:09	16.8	70.5
132979	2025-08-22T06:39:09	17	69.5
132980	2025-08-22T06:49:09	17	70.5
132981	2025-08-22T06:59:09	17.3	69.5
132982	2025-08-22T07:09:09	17.6	68.5
132983	2025-08-22T07:19:09	17.8	67.5
132984	2025-08-22T07:29:09	18	67
132985	2025-08-22T07:39:09	18.5	65.5
132986	2025-08-22T07:49:08	18.7	64
132987	2025-08-22T07:59:08	18.3	64.5
132988	2025-08-22T08:09:08	18.2	64
132989	2025-08-22T08:19:08	18.4	65
132990	2025-08-22T08:29:08	18.3	62.5
132991	2025-08-22T08:39:08	18.5	62
132992	2025-08-22T08:49:08	18.6	60.5
132993	2025-08-22T08:59:08	18.8	60
132994	2025-08-22T09:09:08	19.2	58.5
132995	2025-08-22T09:19:08	19.3	57.5
132996	2025-08-22T09:39:08	19.6	57
132997	2025-08-22T09:49:08	19.8	57
132998	2025-08-22T09:59:08	19.7	56.5
132999	2025-08-22T10:09:08	19.9	55
133000	2025-08-22T10:19:08	19.9	55
133001	2025-08-22T10:29:08	20.2	54.5
133002	2025-08-22T10:39:08	20.3	54
133003	2025-08-22T10:49:08	20.6	54
133004	2025-08-22T10:59:08	20.6	54
133005	2025-08-22T11:09:08	20.8	53
133006	2025-08-22T11:19:08	21	52.5
133007	2025-08-22T11:29:08	21.3	53
133008	2025-08-22T11:39:08	21.9	51.5
133009	2025-08-22T11:49:08	22.5	51
133010	2025-08-22T11:59:08	23.2	48.5
133011	2025-08-22T12:09:08	24.9	45.5
133012	2025-08-22T12:19:08	28.9	37.5
133013	2025-08-22T12:29:08	26.5	41.5
133014	2025-08-22T12:39:08	32	33.5
133015	2025-08-22T12:49:08	34.5	30
133016	2025-08-22T12:59:08	31.9	32.5
133017	2025-08-22T13:09:08	32	37.5
133018	2025-08-22T13:19:08	33.9	34
133019	2025-08-22T13:29:08	36.9	27.5
133020	2025-08-22T13:39:08	36.9	27
133021	2025-08-22T13:49:08	35.5	29
133022	2025-08-22T13:59:08	34.5	29.5
133023	2025-08-22T14:09:08	33.3	30
133024	2025-08-22T14:19:08	32.3	31
133025	2025-08-22T14:29:08	30.8	32.5
133026	2025-08-22T14:39:08	29.1	36
133027	2025-08-22T14:49:08	28.5	36.5
133028	2025-08-22T14:59:08	28	37.5
133029	2025-08-22T15:09:08	30.2	34
133030	2025-08-22T15:19:08	28.6	36
133031	2025-08-22T15:29:08	30.6	34
133032	2025-08-22T15:39:08	30.7	33
133033	2025-08-22T15:49:08	31	33
133034	2025-08-22T15:59:08	31.7	32
133035	2025-08-22T16:09:08	33.1	30.5
133036	2025-08-22T16:19:08	31.4	31
133037	2025-08-22T16:29:08	29.6	34
133038	2025-08-22T16:39:08	32	31.5
133039	2025-08-22T16:49:08	30.2	34
133040	2025-08-22T16:59:08	30.9	33.5
133041	2025-08-22T17:09:08	30.3	32.5
133042	2025-08-22T17:19:08	27.6	37
133043	2025-08-22T17:29:08	27	36
133044	2025-08-22T17:39:08	26.6	37
133045	2025-08-22T17:49:08	25.7	37
133046	2025-08-22T17:59:07	24.7	38
133047	2025-08-22T18:09:07	23.6	39
133048	2025-08-22T18:19:07	23.2	41
133049	2025-08-22T18:29:07	22.8	42
133050	2025-08-22T18:39:07	22.4	43
133051	2025-08-22T18:49:07	22.2	44.5
133052	2025-08-22T18:59:07	21.9	44
133053	2025-08-22T19:09:07	21.4	45
133054	2025-08-22T19:19:07	20.9	45.5
133055	2025-08-22T19:29:07	20.5	46
133056	2025-08-22T19:39:07	20.3	46.5
133057	2025-08-22T19:49:07	19.9	48
133058	2025-08-22T19:59:07	19.6	49.5
133059	2025-08-22T20:09:07	19.4	51
133060	2025-08-22T20:19:07	19	53.5
133061	2025-08-22T20:29:07	18.6	54.5
133062	2025-08-22T20:39:07	18.4	54
133063	2025-08-22T20:49:07	18.2	55
133064	2025-08-22T20:59:07	17.8	55.5
133065	2025-08-22T21:09:07	17.4	57.5
133066	2025-08-22T21:19:07	17.1	59
133067	2025-08-22T21:29:07	16.8	60
133068	2025-08-22T21:39:07	16.5	62
133069	2025-08-22T21:49:07	16.1	62.5
133070	2025-08-22T21:59:07	16	63.5
133071	2025-08-22T22:09:07	15.8	64.5
133072	2025-08-22T22:19:07	15.7	64.5
133073	2025-08-22T22:29:07	15.5	65.5
133074	2025-08-22T22:39:07	15.2	65
133075	2025-08-22T22:49:07	14.9	67
133076	2025-08-22T22:59:07	15	67
133077	2025-08-22T23:09:07	14.7	67.5
133078	2025-08-22T23:19:07	14.4	68
133079	2025-08-22T23:29:07	14.2	68.5
133080	2025-08-22T23:39:07	14.1	68.5
133081	2025-08-22T23:49:07	14.1	70
133082	2025-08-22T23:59:07	14.1	69.5
133083	2025-08-23T00:09:07	14.3	70
133084	2025-08-23T00:19:07	14.1	69.5
133085	2025-08-23T00:29:07	14.3	70
133086	2025-08-23T00:39:07	14.1	71.5
133087	2025-08-23T00:49:07	13.9	72.5
133088	2025-08-23T00:59:07	13.7	73.5
133089	2025-08-23T01:09:07	13.7	74
133090	2025-08-23T01:19:07	13.8	73.5
133091	2025-08-23T01:29:07	13.9	73.5
133092	2025-08-23T01:39:07	14	73.5
133093	2025-08-23T01:49:07	14.1	75
133094	2025-08-23T01:59:07	14.1	73
133095	2025-08-23T02:09:07	14.1	73
133096	2025-08-23T02:19:07	13.9	74.5
133097	2025-08-23T02:29:07	14.1	73.5
133098	2025-08-23T02:39:07	13.9	75
133099	2025-08-23T02:49:07	14	73.5
133100	2025-08-23T02:59:07	13.9	75
133101	2025-08-23T03:09:07	13.9	76
133102	2025-08-23T03:19:07	13.9	74.5
133103	2025-08-23T03:29:07	13.8	75.5
133104	2025-08-23T03:39:07	13.8	74
133105	2025-08-23T03:49:07	13.8	74
133106	2025-08-23T03:59:07	13.8	72.5
133107	2025-08-23T04:09:07	13.7	74
133108	2025-08-23T04:19:07	13.9	74
133109	2025-08-23T04:29:07	13.8	74
133110	2025-08-23T04:39:07	13.8	74.5
133111	2025-08-23T04:49:07	13.7	74.5
133112	2025-08-23T04:59:07	13.5	77
133113	2025-08-23T05:09:07	13.2	75
133114	2025-08-23T05:19:07	13.4	76.5
133115	2025-08-23T05:29:07	13.7	76
133116	2025-08-23T05:39:07	13.9	74.5
133117	2025-08-23T05:49:06	14	74.5
133118	2025-08-23T05:59:06	14.1	74
133119	2025-08-23T06:09:06	14.3	73.5
133120	2025-08-23T06:19:06	14.5	75
133121	2025-08-23T06:29:06	14.7	73
133122	2025-08-23T06:39:06	14.9	72
133123	2025-08-23T06:49:06	15.1	71
133124	2025-08-23T06:59:06	15.4	73.5
133125	2025-08-23T07:09:06	15.6	73.5
133126	2025-08-23T07:19:06	15.7	72
133127	2025-08-23T07:29:06	15.9	69
133128	2025-08-23T07:39:06	15.8	70.5
133129	2025-08-23T07:49:06	15.9	72
133130	2025-08-23T07:59:06	16.7	66.5
133131	2025-08-23T08:09:06	17	65.5
133132	2025-08-23T08:19:06	17.3	63.5
133133	2025-08-23T08:29:06	17.1	62
133134	2025-08-23T08:39:06	17.2	61
133135	2025-08-23T08:49:06	17.2	61
133136	2025-08-23T08:59:06	17.2	61.5
133137	2025-08-23T09:09:06	17.5	62
133138	2025-08-23T09:19:06	17.5	61
133139	2025-08-23T09:29:06	17.9	61.5
133140	2025-08-23T09:39:06	18.1	60.5
133141	2025-08-23T09:49:06	18.5	60
133142	2025-08-23T09:59:06	19.2	57
133143	2025-08-23T10:09:06	19.9	54
133144	2025-08-23T10:19:06	20.5	52.5
133145	2025-08-23T10:29:06	21	52
133146	2025-08-23T10:39:06	21	51
133147	2025-08-23T10:49:06	20.9	51
133148	2025-08-23T10:59:06	20.9	52
133149	2025-08-23T11:09:06	21.2	50.5
133150	2025-08-23T11:19:06	21.2	49.5
133151	2025-08-23T11:29:06	21.8	47.5
133152	2025-08-23T11:39:06	22.4	47
133153	2025-08-23T11:49:06	22	48
133154	2025-08-23T11:59:06	22.8	47.5
133155	2025-08-23T12:09:06	24	44
133156	2025-08-23T12:19:06	25.2	42.5
133157	2025-08-23T12:29:06	25.3	41.5
133158	2025-08-23T12:39:06	25.3	41
133159	2025-08-23T12:49:06	30.5	35
133160	2025-08-23T12:59:06	26.7	36.5
133161	2025-08-23T13:09:06	27.7	37
133162	2025-08-23T13:19:06	25	40
133163	2025-08-23T13:29:06	24.4	41.5
133164	2025-08-23T13:39:06	26	40
133165	2025-08-23T13:49:06	26.6	39.5
133166	2025-08-23T13:59:06	27.9	37
133167	2025-08-23T14:09:06	26.2	39
133168	2025-08-23T14:19:06	25.7	40.5
133169	2025-08-23T14:29:06	27.1	38.5
133170	2025-08-23T14:39:06	28.3	37.5
133171	2025-08-23T14:49:06	28.5	36.5
133172	2025-08-23T14:59:06	29.2	36
133173	2025-08-23T15:09:06	27.5	37.5
133174	2025-08-23T15:19:06	27.5	37
133175	2025-08-23T15:29:06	27.8	36.5
133176	2025-08-23T15:39:06	27.1	37.5
133177	2025-08-23T15:49:06	27.1	38.5
133178	2025-08-23T15:59:06	26.9	38.5
133179	2025-08-23T16:09:06	26.2	40.5
133180	2025-08-23T16:19:05	25.7	39.5
133181	2025-08-23T16:29:05	24.8	41.5
133182	2025-08-23T16:39:05	24.7	42.5
133183	2025-08-23T16:49:05	24.3	43.5
133184	2025-08-23T16:59:05	23.9	45
133185	2025-08-23T17:09:05	23.6	46
133186	2025-08-23T17:19:05	23.4	46.5
133187	2025-08-23T17:29:05	23	47
133188	2025-08-23T17:39:05	22.7	48
133189	2025-08-23T17:49:06	22.2	49
133190	2025-08-23T17:59:05	21.8	50.5
133191	2025-08-23T18:09:05	21.5	51.5
133192	2025-08-23T18:19:05	21.1	53
133193	2025-08-23T18:29:05	21	54
133194	2025-08-23T18:39:05	20.5	55
133195	2025-08-23T18:49:05	20.5	56
133196	2025-08-23T18:59:05	20.3	56
133197	2025-08-23T19:09:05	20	57.5
133198	2025-08-23T19:19:05	20	58
133199	2025-08-23T19:29:05	19.8	58.5
133200	2025-08-23T19:39:05	19.6	60
133201	2025-08-23T19:49:05	19.3	60.5
133202	2025-08-23T19:59:05	19.2	61
133203	2025-08-23T20:09:05	19.1	61.5
133204	2025-08-23T20:19:05	18.8	62
133205	2025-08-23T20:29:05	18.6	62.5
133206	2025-08-23T20:39:05	18.7	63.5
133207	2025-08-23T20:49:05	18.7	64
133208	2025-08-23T20:59:05	18.7	63.5
133209	2025-08-23T21:09:05	18.7	63.5
133210	2025-08-23T21:19:05	18.7	63
133211	2025-08-23T21:29:05	18.7	63
133212	2025-08-23T21:39:05	18.4	63
133213	2025-08-23T21:49:05	18.5	64
133214	2025-08-23T21:59:05	18.3	65
133215	2025-08-23T22:09:05	18.1	66
133216	2025-08-23T22:19:05	18	66.5
133217	2025-08-23T22:29:05	17.8	67.5
133218	2025-08-23T22:39:05	17.7	69
133219	2025-08-23T22:49:05	17.5	69.5
133220	2025-08-23T22:59:05	17.4	71
133221	2025-08-23T23:09:05	17.2	71
133222	2025-08-23T23:19:05	17.1	71.5
133223	2025-08-23T23:29:05	16.8	71.5
133224	2025-08-23T23:39:05	16.6	72.5
133225	2025-08-23T23:49:05	16.1	74.5
133226	2025-08-23T23:59:05	16	75
133227	2025-08-24T00:09:05	16	75.5
133228	2025-08-24T00:19:05	15.8	76
133229	2025-08-24T00:29:05	15.8	76
133230	2025-08-24T00:39:05	15.6	76
133231	2025-08-24T00:49:05	15.6	76
133232	2025-08-24T00:59:05	15.5	76.5
133233	2025-08-24T01:09:05	15.4	77
133234	2025-08-24T01:19:05	15.1	78
133235	2025-08-24T01:29:05	14.8	78.5
133236	2025-08-24T01:39:05	14.4	79.5
133237	2025-08-24T01:49:05	14.2	80.5
133238	2025-08-24T01:59:05	14	81
133239	2025-08-24T02:09:05	13.8	81.5
133240	2025-08-24T02:19:05	13.8	82
133241	2025-08-24T02:29:05	13.5	82
133242	2025-08-24T02:39:05	13.3	82.5
133243	2025-08-24T02:49:05	13.1	83
133244	2025-08-24T02:59:05	13	83.5
133245	2025-08-24T03:09:05	12.9	83.5
133246	2025-08-24T03:19:05	12.7	84
133247	2025-08-24T03:29:05	12.6	84
133248	2025-08-24T03:39:05	12.5	84
133249	2025-08-24T03:49:05	12.3	84.5
133250	2025-08-24T03:59:05	12.2	84.5
133251	2025-08-24T04:09:05	12.1	84
133252	2025-08-24T04:19:05	11.9	85
133253	2025-08-24T04:29:05	11.8	85
133254	2025-08-24T04:39:04	11.7	85
133255	2025-08-24T04:49:05	11.6	85.5
133256	2025-08-24T04:59:04	11.6	86
133257	2025-08-24T05:09:04	11.6	86
133258	2025-08-24T05:19:04	11.7	86.5
133259	2025-08-24T05:29:04	11.7	86.5
133260	2025-08-24T05:39:04	11.8	86
133261	2025-08-24T05:49:04	12	86
133262	2025-08-24T05:59:04	12.2	86
133263	2025-08-24T06:09:04	12.4	85.5
133264	2025-08-24T06:19:04	12.6	85.5
133265	2025-08-24T06:29:04	12.9	86
133266	2025-08-24T06:39:04	13	85.5
133267	2025-08-24T06:49:04	13.5	85.5
133268	2025-08-24T06:59:04	13.6	85
133269	2025-08-24T07:09:04	13.8	84
133270	2025-08-24T07:19:04	14	83
133271	2025-08-24T07:29:04	14.5	83
133272	2025-08-24T07:39:04	14.6	81.5
133273	2025-08-24T07:49:04	14.9	80.5
133274	2025-08-24T07:59:04	15.1	79.5
133275	2025-08-24T08:09:04	15.5	78.5
133276	2025-08-24T08:19:04	15.7	78.5
133277	2025-08-24T08:29:04	16	77
133278	2025-08-24T08:49:04	16.4	74.5
133279	2025-08-24T08:59:04	16.6	73
133280	2025-08-24T09:09:04	17	71.5
133281	2025-08-24T09:19:04	17.3	68.5
133282	2025-08-24T09:29:04	17.5	65.5
133283	2025-08-24T09:39:04	17.9	65.5
133284	2025-08-24T09:49:04	18.3	64
133285	2025-08-24T09:59:04	18.5	61
133286	2025-08-24T10:09:04	18.8	57.5
133287	2025-08-24T10:19:04	19	56.5
133288	2025-08-24T10:29:04	19.2	55.5
133289	2025-08-24T10:39:04	19.4	53.5
133290	2025-08-24T10:49:04	19.9	51
133291	2025-08-24T10:59:04	20.4	51
133292	2025-08-24T11:09:04	20.8	50.5
133293	2025-08-24T11:19:04	21	50
133294	2025-08-24T11:29:04	21.6	48.5
133295	2025-08-24T11:39:04	21.6	48
133296	2025-08-24T11:49:04	21.7	48.5
133297	2025-08-24T11:59:04	22.2	47.5
133298	2025-08-24T12:09:04	28.1	37
133299	2025-08-24T12:19:04	32.3	30.5
133300	2025-08-24T12:29:04	34.8	27.5
133301	2025-08-24T12:39:04	31.1	30.5
133302	2025-08-24T12:49:04	36.2	25.5
133303	2025-08-24T12:59:04	36.7	25
133304	2025-08-24T13:09:04	37.1	24
133305	2025-08-24T13:19:04	39.3	23
133306	2025-08-24T13:29:04	38.8	22.5
133307	2025-08-24T13:39:04	40.5	21.5
133308	2025-08-24T13:49:04	38.3	22.5
133309	2025-08-24T13:59:04	40.2	20.5
133310	2025-08-24T14:09:04	40.8	20.5
133311	2025-08-24T14:19:04	40	20.5
133312	2025-08-24T14:29:04	39.3	21
133313	2025-08-24T14:39:04	37.8	21.5
133314	2025-08-24T14:49:04	39.4	21.5
133315	2025-08-24T14:59:04	38.1	21
133316	2025-08-24T15:09:04	37.7	21.5
133317	2025-08-24T15:19:03	38.7	21.5
133318	2025-08-24T15:29:03	38.3	22
133319	2025-08-24T15:39:03	38.1	22
133320	2025-08-24T15:49:03	38.3	21.5
133321	2025-08-24T15:59:03	38.7	21
133322	2025-08-24T16:09:03	37.4	21.5
133323	2025-08-24T16:19:03	38	21.5
133324	2025-08-24T16:29:03	37.6	22
133325	2025-08-24T16:39:03	36.6	22
133326	2025-08-24T16:49:03	36.6	22
133327	2025-08-24T17:09:03	33.8	24.5
133328	2025-08-24T17:19:03	31.9	26
133329	2025-08-24T17:29:03	31	27.5
133330	2025-08-24T17:39:03	29.8	29.5
133331	2025-08-24T17:49:03	28.6	32
133332	2025-08-24T17:59:03	27.8	33.5
133333	2025-08-24T18:09:03	26.9	34.5
133334	2025-08-24T18:19:03	26.1	38.5
133335	2025-08-24T18:29:03	25.6	41
133336	2025-08-24T18:39:03	24.8	43
133337	2025-08-24T18:49:03	24.1	44
133338	2025-08-24T18:59:03	23.5	46.5
133339	2025-08-24T19:09:03	22.7	46
133340	2025-08-24T19:19:03	22.2	47
133341	2025-08-24T19:29:03	21.7	48.5
133342	2025-08-24T19:39:03	21.3	48.5
133343	2025-08-24T19:49:03	20.8	50
133344	2025-08-24T19:59:03	20.3	50.5
133345	2025-08-24T20:09:03	19.9	51.5
133346	2025-08-24T20:19:03	19.6	52
133347	2025-08-24T20:29:03	19.1	53
133348	2025-08-24T20:39:03	18.8	54
133349	2025-08-24T20:49:03	18.3	54.5
133350	2025-08-24T20:59:03	18.1	56
133351	2025-08-24T21:09:03	17.8	57
133352	2025-08-24T21:19:03	17.5	57
133353	2025-08-24T21:29:03	17.2	58
133354	2025-08-24T21:39:03	16.9	59.5
133355	2025-08-24T21:49:03	16.6	60
133356	2025-08-24T21:59:03	16.4	60.5
133357	2025-08-24T22:09:03	16.1	61.5
133358	2025-08-24T22:19:03	15.8	62.5
133359	2025-08-24T22:29:03	15.6	63
133360	2025-08-24T22:39:03	15.3	63.5
133361	2025-08-24T22:49:03	15.1	63.5
133362	2025-08-24T22:59:03	15	64.5
133363	2025-08-24T23:09:03	14.8	65.5
133364	2025-08-24T23:19:03	14.5	66.5
133365	2025-08-24T23:29:03	14.3	66.5
133366	2025-08-24T23:49:03	14	67.5
133367	2025-08-24T23:59:03	13.8	68
133368	2025-08-25T00:09:03	13.7	69
133369	2025-08-25T00:19:03	13.5	69.5
133370	2025-08-25T00:29:03	13.3	70
133371	2025-08-25T00:39:03	13.1	70.5
133372	2025-08-25T00:49:03	12.9	71.5
133373	2025-08-25T00:59:03	12.7	72
133374	2025-08-25T01:09:03	12.5	72
133375	2025-08-25T01:19:03	12.4	72.5
133376	2025-08-25T01:29:03	12.2	73.5
133377	2025-08-25T01:39:03	12	73.5
133378	2025-08-25T01:49:03	11.8	74.5
133379	2025-08-25T01:59:03	11.6	75
133380	2025-08-25T02:09:03	11.4	76
133381	2025-08-25T02:19:03	11.4	77.5
133382	2025-08-25T02:29:03	11.1	77.5
133383	2025-08-25T02:39:03	11	78
133384	2025-08-25T02:49:03	10.8	78.5
133385	2025-08-25T02:59:02	10.7	78.5
133386	2025-08-25T03:09:02	10.5	79.5
133387	2025-08-25T03:19:02	10.4	79.5
133388	2025-08-25T03:29:02	10.3	80.5
133389	2025-08-25T03:39:02	10.1	81
133390	2025-08-25T03:49:02	10	81.5
133391	2025-08-25T03:59:02	10	81.5
133392	2025-08-25T04:09:02	9.9	81.5
133393	2025-08-25T04:19:02	9.6	82
133394	2025-08-25T04:29:02	9.7	82.5
133395	2025-08-25T04:39:02	9.5	83
133396	2025-08-25T04:49:02	9.5	82.5
133397	2025-08-25T04:59:02	9.5	82
133398	2025-08-25T05:09:02	9.5	82.5
133399	2025-08-25T05:19:02	9.6	82.5
133400	2025-08-25T05:29:02	9.8	82.5
133401	2025-08-25T05:39:02	9.8	83
133402	2025-08-25T05:49:02	9.9	83.5
133403	2025-08-25T05:59:02	10.2	83
133404	2025-08-25T06:09:02	10.6	81.5
133405	2025-08-25T06:19:02	10.9	80.5
133406	2025-08-25T06:29:02	11.1	80
133407	2025-08-25T06:39:02	11.4	79.5
133408	2025-08-25T06:49:02	11.9	78.5
133409	2025-08-25T06:59:02	12.2	77.5
133410	2025-08-25T07:09:02	12.5	77.5
133411	2025-08-25T07:19:02	13	74.5
133412	2025-08-25T07:29:02	13.5	75
133413	2025-08-25T07:39:02	13.8	75.5
133414	2025-08-25T07:49:02	14.1	76
133415	2025-08-25T07:59:02	14.4	74.5
133416	2025-08-25T08:09:02	14.8	73.5
133417	2025-08-25T08:19:02	15	71
133418	2025-08-25T08:29:02	15.5	70
133419	2025-08-25T08:39:02	15.8	68
133420	2025-08-25T08:49:02	16.2	67
133421	2025-08-25T08:59:02	16.5	67
133422	2025-08-25T09:09:20	16.8	65
133423	2025-08-25T09:19:02	17.3	64
133424	2025-08-25T09:29:02	17.6	63
133425	2025-08-25T09:39:02	18	61.5
133426	2025-08-25T09:49:02	18.3	61.5
133427	2025-08-25T09:59:02	18.7	60
133428	2025-08-25T10:09:02	18.8	58
133429	2025-08-25T10:19:02	19.1	55
133430	2025-08-25T10:29:02	19.2	54
133431	2025-08-25T10:39:02	19.7	54.5
133432	2025-08-25T10:49:02	20	52
133433	2025-08-25T10:59:02	20.3	52
133434	2025-08-25T11:09:02	20.5	51.5
133435	2025-08-25T11:19:02	20.8	52.5
133436	2025-08-25T11:29:02	21.1	49.5
133437	2025-08-25T11:39:02	21.5	49
133438	2025-08-25T11:49:02	21.8	48.5
133439	2025-08-25T11:59:02	22.3	49
133440	2025-08-25T12:09:02	29.2	36
133441	2025-08-25T12:19:02	33.4	30.5
133442	2025-08-25T12:29:02	35.8	27.5
133443	2025-08-25T12:39:02	37.1	25.5
133444	2025-08-25T12:49:02	37.7	25
133445	2025-08-25T12:59:02	39.5	23.5
133446	2025-08-25T13:09:02	40	23
133447	2025-08-25T13:19:02	41.3	22.5
133448	2025-08-25T13:29:02	41	22.5
133449	2025-08-25T13:39:02	42.7	21.5
133450	2025-08-25T13:49:02	43.1	21
133451	2025-08-25T13:59:02	43.4	20
133452	2025-08-25T14:09:02	43.8	20.5
133453	2025-08-25T14:19:02	44.1	19.5
133454	2025-08-25T14:29:02	43.8	19
133455	2025-08-25T14:39:02	43.3	19.5
133456	2025-08-25T14:49:02	44.1	19.5
133457	2025-08-25T14:59:02	44.6	18.5
133458	2025-08-25T15:09:02	44.2	18.5
133459	2025-08-25T15:19:02	44.3	19
133460	2025-08-25T15:29:02	42.9	19
133461	2025-08-25T15:39:01	43	19.5
133462	2025-08-25T15:49:02	43.1	19
133463	2025-08-25T15:59:01	42.6	18.5
133464	2025-08-25T16:09:01	41.6	19.5
133465	2025-08-25T16:19:01	41.3	20
133466	2025-08-25T16:29:01	41.1	19.5
133467	2025-08-25T16:39:01	39.3	21
133468	2025-08-25T16:49:01	39.4	22.5
133469	2025-08-25T16:59:01	38.3	22.5
133470	2025-08-25T17:09:01	35.7	24.5
133471	2025-08-25T17:19:01	34.5	25
133472	2025-08-25T17:29:01	33.7	26.5
133473	2025-08-25T17:39:01	32.1	28.5
133474	2025-08-25T17:49:01	30.7	30.5
133475	2025-08-25T17:59:01	29.9	32.5
133476	2025-08-25T18:09:01	29.1	35.5
133477	2025-08-25T18:19:01	28.3	38.5
133478	2025-08-25T18:29:01	27.5	41
133479	2025-08-25T18:39:01	26.8	42
133480	2025-08-25T18:49:01	26	44.5
133481	2025-08-25T18:59:01	25.2	46
133482	2025-08-25T19:09:01	24.7	46
133483	2025-08-25T19:19:01	24	47
133484	2025-08-25T19:29:01	23.6	46.5
133485	2025-08-25T19:49:01	22.6	48.5
133486	2025-08-25T19:59:01	22.1	49.5
133487	2025-08-25T20:09:01	21.7	50.5
133488	2025-08-25T20:19:01	21.2	51
133489	2025-08-25T20:29:01	20.8	52
133490	2025-08-25T20:39:01	20.4	52.5
133491	2025-08-25T20:49:01	19.9	54
133492	2025-08-25T20:59:01	19.6	54.5
133493	2025-08-25T21:09:01	19.5	55.5
133494	2025-08-25T21:19:01	19.2	56
133495	2025-08-25T21:29:01	18.8	57.5
133496	2025-08-25T21:39:01	18.4	57.5
133497	2025-08-25T21:49:01	18.3	58
133498	2025-08-25T21:59:01	18	58.5
133499	2025-08-25T22:09:01	17.7	59
133500	2025-08-25T22:19:01	17.5	59
133501	2025-08-25T22:29:01	17.4	59
133502	2025-08-25T22:39:01	17.2	59
133503	2025-08-25T22:49:01	16.9	59.5
133504	2025-08-25T22:59:01	16.7	60.5
133505	2025-08-25T23:09:01	16.5	61.5
133506	2025-08-25T23:19:01	16.3	62
133507	2025-08-25T23:29:01	16.1	65
133508	2025-08-25T23:39:01	15.9	65.5
133509	2025-08-25T23:49:01	15.6	67
133510	2025-08-25T23:59:01	15.5	68
133511	2025-08-26T00:09:01	15.1	69
133512	2025-08-26T00:19:01	14.9	70.5
133513	2025-08-26T00:29:01	14.8	70.5
133514	2025-08-26T00:39:01	14.5	70
133515	2025-08-26T00:49:01	14.3	71.5
133516	2025-08-26T00:59:01	14.1	72.5
133517	2025-08-26T01:09:01	14	73
133518	2025-08-26T01:19:01	13.8	73
133519	2025-08-26T01:29:01	13.8	73.5
133520	2025-08-26T01:39:01	13.5	74.5
133521	2025-08-26T01:49:01	13.3	75
133522	2025-08-26T01:59:01	13.1	76
133523	2025-08-26T02:09:01	13	76
133524	2025-08-26T02:19:01	12.9	77
133525	2025-08-26T02:29:01	12.9	77
133526	2025-08-26T02:39:01	12.6	76.5
133527	2025-08-26T02:49:01	12.5	78
133528	2025-08-26T02:59:00	12.4	78
133529	2025-08-26T03:09:00	12.2	78.5
133530	2025-08-26T03:19:00	12.1	79
133531	2025-08-26T03:29:00	12	79
133532	2025-08-26T03:39:00	11.9	79
133533	2025-08-26T03:49:00	11.8	79.5
133534	2025-08-26T03:59:00	11.6	80
133535	2025-08-26T04:09:00	11.5	80.5
133536	2025-08-26T04:19:00	11.4	81
133537	2025-08-26T04:29:00	11.4	80.5
133538	2025-08-26T04:39:00	11.4	80.5
133539	2025-08-26T04:49:00	11.2	82
133540	2025-08-26T04:59:00	11.1	82
133541	2025-08-26T05:09:00	11.2	82.5
133542	2025-08-26T05:19:00	11.2	82.5
133543	2025-08-26T05:29:00	11.4	82.5
133544	2025-08-26T05:39:00	11.6	83
133545	2025-08-26T05:49:00	11.7	82.5
133546	2025-08-26T05:59:00	11.9	82.5
133547	2025-08-26T06:09:00	12.1	82.5
133548	2025-08-26T06:19:00	12.4	82.5
133549	2025-08-26T06:29:00	12.5	81
133550	2025-08-26T06:39:00	12.8	80.5
133551	2025-08-26T06:49:00	13.2	80.5
133552	2025-08-26T06:59:00	13.5	80.5
133553	2025-08-26T07:09:00	13.9	80.5
133554	2025-08-26T07:19:00	14.2	80.5
133555	2025-08-26T07:29:00	14.7	78.5
133556	2025-08-26T07:39:00	14.9	78
133557	2025-08-26T07:49:00	15.5	77.5
133558	2025-08-26T07:59:00	15.7	76.5
133559	2025-08-26T08:09:00	16	76
133560	2025-08-26T08:19:00	16.4	76
133561	2025-08-26T08:29:00	16.6	76
133562	2025-08-26T08:39:00	17	75
133563	2025-08-26T08:49:00	17.2	75
133564	2025-08-26T08:59:00	17.5	74
133565	2025-08-26T09:09:00	17.8	74
133566	2025-08-26T09:19:00	18.1	73
133567	2025-08-26T09:29:00	18.5	72.5
133568	2025-08-26T09:39:00	18.9	71.5
133569	2025-08-26T09:49:00	19.3	71
133570	2025-08-26T09:59:00	19.7	69
133571	2025-08-26T10:09:00	19.9	68.5
133572	2025-08-26T10:19:00	20.5	69
133573	2025-08-26T10:29:00	21	65
133574	2025-08-26T10:39:00	21.3	64
133575	2025-08-26T10:49:00	21.9	64
133576	2025-08-26T11:09:00	23.2	56
133577	2025-08-26T11:19:00	23.6	52.5
133578	2025-08-26T11:29:00	24.2	50.5
133579	2025-08-26T11:39:00	24.6	49.5
133580	2025-08-26T11:49:00	25.3	47.5
133581	2025-08-26T11:59:00	26.3	45.5
133582	2025-08-26T12:09:00	29.7	40.5
133583	2025-08-26T12:19:00	33.2	34
133584	2025-08-26T12:29:00	35.5	31
133585	2025-08-26T12:39:00	34.4	31
133586	2025-08-26T12:49:00	35.3	31
133587	2025-08-26T12:59:00	36.1	30.5
133588	2025-08-26T13:09:00	35	32
133589	2025-08-26T13:19:00	36.7	29
133590	2025-08-26T13:29:00	37.1	28
133591	2025-08-26T13:39:00	37.9	27.5
133592	2025-08-26T13:49:00	38.3	27.5
133593	2025-08-26T13:59:00	37.5	27
133594	2025-08-26T14:09:00	37.6	27.5
133595	2025-08-26T14:19:00	37	27.5
133596	2025-08-26T14:29:00	36.5	28
133597	2025-08-26T14:39:00	36.9	27.5
133598	2025-08-26T14:48:59	37.2	26.5
133599	2025-08-26T14:58:59	36.3	27
133600	2025-08-26T15:08:59	37	26
133601	2025-08-26T15:18:59	34.2	29
133602	2025-08-26T15:28:59	34.8	29.5
133603	2025-08-26T15:38:59	35.6	30.5
133604	2025-08-26T15:48:59	35.5	30
133605	2025-08-26T15:58:59	34.6	31.5
133606	2025-08-26T16:08:59	35.6	31
133607	2025-08-26T16:18:59	34.7	31.5
133608	2025-08-26T16:28:59	34.2	35
133609	2025-08-26T16:38:59	33.5	38.5
133610	2025-08-26T16:48:59	32.7	41.5
133611	2025-08-26T16:58:59	31.8	44.5
133612	2025-08-26T17:08:59	31.2	46
133613	2025-08-26T17:18:59	30.6	48.5
133614	2025-08-26T17:28:59	29.9	49
133615	2025-08-26T17:38:59	29.4	52
133616	2025-08-26T17:48:59	28.9	52
133617	2025-08-26T17:58:59	28.4	53
133618	2025-08-26T18:08:59	27.8	54
133619	2025-08-26T18:18:59	27.4	55.5
133620	2025-08-26T18:28:59	27.1	54
133621	2025-08-26T18:38:59	27	53.5
133622	2025-08-26T18:48:59	26.7	53
133623	2025-08-26T18:58:59	26.5	53.5
133624	2025-08-26T19:08:59	26.2	54
133625	2025-08-26T19:18:59	26.2	54
133626	2025-08-26T19:28:59	25.9	55
133627	2025-08-26T19:38:59	25.8	56.5
133628	2025-08-26T19:48:59	25.6	57.5
133629	2025-08-26T19:58:59	25.3	58.5
133630	2025-08-26T20:08:59	25	58.5
133631	2025-08-26T20:18:59	24.8	59.5
133632	2025-08-26T20:28:59	24.1	61.5
133633	2025-08-26T20:38:59	23.3	72.5
133634	2025-08-26T20:48:59	23.6	62.5
133635	2025-08-26T20:58:59	23.9	62.5
133636	2025-08-26T21:08:59	24.3	61.5
133637	2025-08-26T21:18:59	24	63
133638	2025-08-26T21:28:59	23.9	65
133639	2025-08-26T21:38:59	23.7	66
133640	2025-08-26T21:48:59	23.5	67
133641	2025-08-26T21:58:59	23.4	67.5
133642	2025-08-26T22:08:59	23.4	67
133643	2025-08-26T22:18:59	23.2	69.5
133644	2025-08-26T22:28:59	21.3	79
133645	2025-08-26T22:38:59	20.8	80
133646	2025-08-26T22:48:59	21.3	78
133647	2025-08-26T22:58:59	21.5	76
133648	2025-08-26T23:08:59	21.6	76
133649	2025-08-26T23:18:59	21.6	75.5
133650	2025-08-26T23:28:59	21.6	75.5
133651	2025-08-26T23:38:59	21.7	76
133652	2025-08-26T23:48:59	21.9	73.5
133653	2025-08-26T23:58:59	21.8	74
133654	2025-08-27T00:08:59	21.7	74.5
133655	2025-08-27T00:18:59	21.5	75.5
133656	2025-08-27T00:28:59	21.5	76
133657	2025-08-27T00:38:58	21.3	76.5
133658	2025-08-27T00:48:58	21.2	77
133659	2025-08-27T00:58:58	21.3	76.5
133660	2025-08-27T01:08:58	21.2	77
133661	2025-08-27T01:18:58	21.1	76.5
133662	2025-08-27T01:28:58	21	77
133663	2025-08-27T01:38:58	20.8	78
133664	2025-08-27T01:48:58	20.5	79
133665	2025-08-27T01:58:58	20.4	79.5
133666	2025-08-27T02:08:58	20.4	80
133667	2025-08-27T02:18:58	20.3	80
133668	2025-08-27T02:28:58	20.1	80.5
133669	2025-08-27T02:38:58	19.9	81
133670	2025-08-27T02:48:58	19.7	82
133671	2025-08-27T02:58:58	19.4	82
133672	2025-08-27T03:08:58	19.3	83
133673	2025-08-27T03:18:58	19.1	83.5
133674	2025-08-27T03:28:58	19	84
133675	2025-08-27T03:38:58	19	84
133676	2025-08-27T03:48:58	18.8	84.5
133677	2025-08-27T03:58:58	19	84
133678	2025-08-27T04:08:58	18.7	84.5
133679	2025-08-27T04:18:58	18.6	84.5
133680	2025-08-27T04:28:58	18.6	84.5
133681	2025-08-27T04:38:58	18.5	84.5
133682	2025-08-27T04:48:58	18.4	84.5
133683	2025-08-27T04:58:58	18.4	84.5
133684	2025-08-27T05:08:58	18.7	84
133685	2025-08-27T05:18:58	19	83
133686	2025-08-27T05:28:58	19.1	82.5
133687	2025-08-27T05:38:58	19.2	82.5
133688	2025-08-27T05:48:58	19.3	82
133689	2025-08-27T05:58:58	19.5	82.5
133690	2025-08-27T06:08:58	19.6	82
133691	2025-08-27T06:18:58	20	81.5
133692	2025-08-27T06:28:58	20.6	79.5
133693	2025-08-27T06:38:58	20.7	79
133694	2025-08-27T06:48:58	21.1	77.5
133695	2025-08-27T06:58:58	21.2	77
133696	2025-08-27T07:08:58	21.1	76.5
133697	2025-08-27T07:18:58	21.3	77.5
133698	2025-08-27T07:28:58	21.6	76.5
133699	2025-08-27T07:38:58	21.8	74
133700	2025-08-27T07:48:58	22	75
133701	2025-08-27T07:58:58	22.3	72.5
133702	2025-08-27T08:08:58	22.6	71.5
133703	2025-08-27T08:18:58	23	69
133704	2025-08-27T08:28:58	23.3	68.5
133705	2025-08-27T08:38:58	23.6	68.5
133706	2025-08-27T08:48:58	24.2	65
133707	2025-08-27T08:58:58	24.3	65
133708	2025-08-27T09:08:58	24.5	64.5
133709	2025-08-27T09:18:58	24.5	65.5
133710	2025-08-27T09:28:58	24.5	65.5
133711	2025-08-27T09:38:58	24.4	67.5
133712	2025-08-27T09:48:58	24.2	68.5
133713	2025-08-27T09:58:58	24.1	69.5
133714	2025-08-27T10:08:58	24.7	67.5
133715	2025-08-27T10:18:58	25.7	65.5
133716	2025-08-27T10:28:58	26.1	64
133717	2025-08-27T10:38:58	26.3	63
133718	2025-08-27T10:48:58	26	64
133719	2025-08-27T10:58:58	26.2	64.5
133720	2025-08-27T11:08:57	25.7	66
133721	2025-08-27T11:18:57	25.5	67.5
133722	2025-08-27T11:28:57	25.8	66.5
133723	2025-08-27T11:38:57	26.9	66
133724	2025-08-27T11:48:57	27.1	62.5
133725	2025-08-27T11:58:57	27.4	61.5
133726	2025-08-27T12:08:57	31.4	52.5
133727	2025-08-27T12:18:57	29	57
133728	2025-08-27T12:28:57	30.3	54
133729	2025-08-27T12:38:57	32.8	48.5
133730	2025-08-27T12:48:57	33.7	47
133731	2025-08-27T12:58:57	34.4	44
133732	2025-08-27T13:08:57	34.6	44
133733	2025-08-27T13:18:57	36.5	41
133734	2025-08-27T13:28:57	36.2	40
133735	2025-08-27T13:38:57	36.4	38.5
133736	2025-08-27T13:48:57	37.4	36.5
133737	2025-08-27T13:58:57	35.2	39
133738	2025-08-27T14:08:57	34.9	40
133739	2025-08-27T14:18:57	37.3	38
133740	2025-08-27T14:28:57	34.5	42
133741	2025-08-27T14:38:57	33	45.5
133742	2025-08-27T14:48:57	32.9	46.5
133743	2025-08-27T14:58:57	31.2	50
133744	2025-08-27T15:08:57	30.8	51.5
133745	2025-08-27T15:18:57	31.1	49.5
133746	2025-08-27T15:28:57	32.1	46.5
133747	2025-08-27T15:38:57	29.9	51.5
133748	2025-08-27T15:48:57	29.8	52.5
133749	2025-08-27T15:58:57	29.2	54.5
133750	2025-08-27T16:08:57	28.4	57.5
133751	2025-08-27T16:18:57	28.6	57.5
133752	2025-08-27T16:28:57	28.3	58.5
133753	2025-08-27T16:38:57	28	60
133754	2025-08-27T16:48:57	27.9	61
133755	2025-08-27T16:58:57	27.4	62.5
133756	2025-08-27T17:08:57	27.3	63
133757	2025-08-27T17:18:57	27.3	63.5
133758	2025-08-27T17:28:57	27.3	64
133759	2025-08-27T17:38:57	27.2	65
133760	2025-08-27T17:48:57	26.9	65
133761	2025-08-27T17:58:57	26.7	66.5
133762	2025-08-27T18:08:57	26.5	67
133763	2025-08-27T18:18:57	26.3	68.5
133764	2025-08-27T18:28:57	25.6	70.5
133765	2025-08-27T18:38:57	25.4	71
133766	2025-08-27T18:48:57	25.4	71.5
133767	2025-08-27T18:58:57	25.3	72
133768	2025-08-27T19:08:57	25.1	72
133769	2025-08-27T19:18:57	24.9	73
133770	2025-08-27T19:28:57	24.8	73.5
133771	2025-08-27T19:38:57	24.7	74.5
133772	2025-08-27T19:48:57	24.5	75.5
133773	2025-08-27T19:58:57	24.4	76
133774	2025-08-27T20:08:57	24.2	77
133775	2025-08-27T20:18:57	24.2	81.5
133776	2025-08-27T20:28:57	23.8	81
133777	2025-08-27T20:38:57	23.1	97.5
133778	2025-08-27T20:48:57	22.8	98.5
133779	2025-08-27T20:58:57	22.4	97
133780	2025-08-27T21:08:56	22.1	98.5
133781	2025-08-27T21:18:56	21.8	98
133782	2025-08-27T21:28:56	22.1	99
133783	2025-08-27T21:38:56	21.7	97.5
133784	2025-08-27T21:48:56	21.9	99
133785	2025-08-27T21:58:56	21.8	98
133786	2025-08-27T22:08:56	21.7	96.5
133787	2025-08-27T22:18:56	21.3	97.5
133788	2025-08-27T22:28:56	21.6	97.5
133789	2025-08-27T22:38:56	21.5	97.5
133790	2025-08-27T22:48:56	21.4	96
133791	2025-08-27T22:58:56	21.4	98
133792	2025-08-27T23:08:56	21.2	97
133793	2025-08-27T23:18:56	21.3	97
133794	2025-08-27T23:28:56	21.1	97.5
133795	2025-08-27T23:38:56	21.2	98
133796	2025-08-27T23:48:56	21.2	98.5
133797	2025-08-27T23:58:56	21.1	97.5
133798	2025-08-28T00:08:56	20.8	96.5
133799	2025-08-28T00:18:56	20.6	99
133800	2025-08-28T00:28:56	20.7	100
133801	2025-08-28T00:38:56	20.7	100
133802	2025-08-28T00:48:56	20.4	100
133803	2025-08-28T00:58:56	20.3	100
133804	2025-08-28T01:08:56	20.2	100
133805	2025-08-28T01:18:56	20	100
133806	2025-08-28T01:28:56	20	100
133807	2025-08-28T01:38:56	19.9	100
133808	2025-08-28T01:48:56	19.8	100
133809	2025-08-28T01:58:56	19.9	100
133810	2025-08-28T02:08:56	19.9	100
133811	2025-08-28T02:18:56	19.8	100
133812	2025-08-28T02:28:56	19.9	100
133813	2025-08-28T02:38:56	19.7	100
133814	2025-08-28T02:48:56	19.6	100
133815	2025-08-28T02:58:56	19.5	100
133816	2025-08-28T03:08:56	19.5	100
133817	2025-08-28T03:18:56	19.2	100
133818	2025-08-28T03:28:56	19.3	100
133819	2025-08-28T03:38:56	19.1	100
133820	2025-08-28T03:48:56	19.3	100
133821	2025-08-28T03:58:56	19.3	100
133822	2025-08-28T04:08:56	19.2	100
133823	2025-08-28T04:18:56	19.2	100
133824	2025-08-28T04:28:56	19	100
133825	2025-08-28T04:38:56	18.5	100
133826	2025-08-28T04:48:56	18.4	100
133827	2025-08-28T04:58:56	18.1	100
133828	2025-08-28T05:08:56	17.9	100
133829	2025-08-28T05:18:56	17.8	100
133830	2025-08-28T05:28:56	17.7	100
133831	2025-08-28T05:38:56	17.7	100
133832	2025-08-28T05:48:56	17.7	100
133833	2025-08-28T05:58:56	17.7	100
133834	2025-08-28T06:08:56	17.8	100
133835	2025-08-28T06:18:56	17.8	100
133836	2025-08-28T06:28:56	17.8	100
133837	2025-08-28T06:38:56	17.8	100
133838	2025-08-28T06:48:56	17.7	100
133839	2025-08-28T06:58:56	17.8	100
133840	2025-08-28T07:08:56	17.7	100
133841	2025-08-28T07:18:56	17.8	100
133842	2025-08-28T07:28:55	17.8	99.5
133843	2025-08-28T07:38:55	18.1	98.5
133844	2025-08-28T07:48:55	18	97
133845	2025-08-28T07:58:55	18.3	96.5
133846	2025-08-28T08:08:55	18.7	96
133847	2025-08-28T08:18:55	19.2	96
133848	2025-08-28T08:28:55	19.3	96
133849	2025-08-28T08:38:55	19	96
133850	2025-08-28T08:48:55	19	96
133851	2025-08-28T08:58:55	19	96
133852	2025-08-28T09:08:55	19.1	96
133853	2025-08-28T09:18:55	19.5	96
133854	2025-08-28T09:28:55	19.7	96
133855	2025-08-28T09:38:55	20.3	96
133856	2025-08-28T09:48:55	20.8	96
133857	2025-08-28T09:58:55	20.8	96
133858	2025-08-28T10:08:55	20.5	96
133859	2025-08-28T10:18:55	20.5	96
133860	2025-08-28T10:28:55	21.1	96
133861	2025-08-28T10:38:55	21.4	96
133862	2025-08-28T10:48:55	21.6	96
133863	2025-08-28T10:58:55	21.7	96
133864	2025-08-28T11:08:55	21.8	96
133865	2025-08-28T11:18:55	22.1	96
133866	2025-08-28T11:28:55	22.1	96
133867	2025-08-28T11:38:55	22.1	96
133868	2025-08-28T11:48:55	22.2	96.5
133869	2025-08-28T11:58:55	22.4	96.5
133870	2025-08-28T12:08:55	22.9	96.5
133871	2025-08-28T12:18:55	22.4	96.5
133872	2025-08-28T12:28:55	22.1	96.5
133873	2025-08-28T12:38:55	22.3	96.5
133874	2025-08-28T12:48:55	22.2	96.5
133875	2025-08-28T12:58:55	22	96.5
133876	2025-08-28T13:18:55	21.7	96.5
133877	2025-08-28T13:28:55	21.6	96.5
133878	2025-08-28T13:38:55	21.8	96.5
133879	2025-08-28T13:48:55	21.8	96.5
133880	2025-08-28T13:58:55	21.9	96.5
133881	2025-08-28T14:08:55	22.3	96.5
133882	2025-08-28T14:18:55	22.5	96.5
133883	2025-08-28T14:38:55	22.5	99
133884	2025-08-28T14:48:55	22.7	99.5
133885	2025-08-28T14:58:55	22.6	100
133886	2025-08-28T15:08:55	22.5	100
133887	2025-08-28T15:18:55	22.5	100
133888	2025-08-28T15:28:55	22.4	100
133889	2025-08-28T15:38:55	22.3	100
133890	2025-08-28T15:48:55	22.3	100
133891	2025-08-28T15:58:55	22.2	90
133892	2025-08-28T16:08:55	22.3	77
133893	2025-08-28T16:18:55	22.9	75.5
133894	2025-08-28T16:28:55	22.8	73.5
133895	2025-08-28T16:38:55	23.4	77
133896	2025-08-28T16:48:55	24.4	74.5
133897	2025-08-28T16:58:55	25	71.5
133898	2025-08-28T17:08:55	24.3	72
133899	2025-08-28T17:18:55	23.8	70.5
133900	2025-08-28T17:28:55	23.4	74.5
133901	2025-08-28T17:38:54	22.9	78.5
133902	2025-08-28T17:48:54	22.5	79.5
133903	2025-08-28T17:58:54	22.4	78.5
133904	2025-08-28T18:08:54	22	85
133905	2025-08-28T18:18:54	21.7	87
133906	2025-08-28T18:28:54	21.3	87.5
133907	2025-08-28T18:38:54	21	89
133908	2025-08-28T18:48:54	20.6	91
133909	2025-08-28T18:58:54	20.3	93.5
133910	2025-08-28T19:08:54	20	93
133911	2025-08-28T19:18:54	19.8	94
133912	2025-08-28T19:28:54	19.9	94
133913	2025-08-28T19:38:54	19.6	94.5
133914	2025-08-28T19:48:54	19.3	95
133915	2025-08-28T19:58:54	19.1	96
133916	2025-08-28T20:08:54	19	95
133917	2025-08-28T20:18:54	19	95.5
133918	2025-08-28T20:28:54	18.8	95.5
133919	2025-08-28T20:48:54	18.8	96
133920	2025-08-28T20:58:54	18.7	93
133921	2025-08-28T21:08:54	18.7	93.5
133922	2025-08-28T21:18:54	18.4	93
133923	2025-08-28T21:28:54	18.4	95.5
133924	2025-08-28T21:38:54	18.3	96.5
133925	2025-08-28T21:48:54	18.1	97
133926	2025-08-28T21:58:54	18.2	97.5
133927	2025-08-28T22:08:54	18.4	96.5
133928	2025-08-28T22:28:54	18.1	94.5
133929	2025-08-28T22:38:54	18	96.5
133930	2025-08-28T22:48:54	17.8	95
133931	2025-08-28T22:58:54	17.8	96
133932	2025-08-28T23:09:00	17.7	95.5
133933	2025-08-28T23:18:54	17.6	94.5
133934	2025-08-28T23:28:54	17.9	93.5
133935	2025-08-28T23:38:54	18	92.5
133936	2025-08-28T23:48:54	18	91.5
133937	2025-08-28T23:58:54	17.7	98.5
133938	2025-08-29T00:08:54	17.2	100
133939	2025-08-29T00:18:54	17	100
133940	2025-08-29T00:28:54	16.7	100
133941	2025-08-29T00:38:54	16.5	100
133942	2025-08-29T00:48:54	16.2	100
133943	2025-08-29T00:58:54	15.7	100
133944	2025-08-29T01:08:54	15.1	100
133945	2025-08-29T01:18:54	14.9	100
133946	2025-08-29T01:28:54	14.7	100
133947	2025-08-29T01:38:54	14.5	100
133948	2025-08-29T01:48:54	14.4	100
133949	2025-08-29T01:58:54	14.4	100
133950	2025-08-29T02:08:54	14.3	100
133951	2025-08-29T02:18:54	14.3	100
133952	2025-08-29T02:28:54	14.4	100
133953	2025-08-29T02:38:54	14.3	100
133954	2025-08-29T02:48:54	14.3	100
133955	2025-08-29T02:58:54	14.3	100
133956	2025-08-29T03:08:54	14.4	100
133957	2025-08-29T03:18:54	14.2	100
133958	2025-08-29T03:28:54	14.1	100
133959	2025-08-29T03:38:54	14.1	100
133960	2025-08-29T03:48:54	14.1	100
133961	2025-08-29T03:58:54	14.2	100
133962	2025-08-29T04:08:54	14.1	100
133963	2025-08-29T04:18:54	13.9	100
133964	2025-08-29T04:28:54	13.7	100
133965	2025-08-29T04:38:54	13.5	100
133966	2025-08-29T04:48:54	13.4	100
133967	2025-08-29T04:58:53	13.4	100
133968	2025-08-29T05:08:53	13.3	100
133969	2025-08-29T05:18:53	13.2	100
133970	2025-08-29T05:28:53	13.3	100
133971	2025-08-29T05:38:53	13.3	100
133972	2025-08-29T05:48:53	13.5	100
133973	2025-08-29T05:58:53	13.5	100
133974	2025-08-29T06:08:53	13.5	100
133975	2025-08-29T06:18:53	13.7	100
133976	2025-08-29T06:28:53	13.9	100
133977	2025-08-29T06:38:53	14	100
133978	2025-08-29T06:48:53	14.3	100
133979	2025-08-29T06:58:53	14.4	100
133980	2025-08-29T07:08:53	14.6	100
133981	2025-08-29T07:18:53	14.7	100
133982	2025-08-29T07:28:53	14.9	100
133983	2025-08-29T07:38:53	15.2	100
133984	2025-08-29T07:48:53	15.5	100
133985	2025-08-29T07:58:53	15.7	100
133986	2025-08-29T08:08:53	16.1	100
133987	2025-08-29T08:18:53	16.6	100
133988	2025-08-29T08:28:53	16.8	100
133989	2025-08-29T08:38:53	17	100
133990	2025-08-29T08:48:53	17.1	100
133991	2025-08-29T08:58:53	17.2	100
133992	2025-08-29T09:08:53	17.6	100
133993	2025-08-29T09:18:53	18	100
133994	2025-08-29T09:28:53	18.2	100
133995	2025-08-29T09:38:53	18.3	100
133996	2025-08-29T09:48:53	18.8	98
133997	2025-08-29T09:58:53	19.1	99.5
133998	2025-08-29T10:08:53	19.3	99.5
133999	2025-08-29T10:18:53	19.3	100
134000	2025-08-29T10:28:53	19.6	100
134001	2025-08-29T10:38:53	20	100
134002	2025-08-29T10:48:53	20.3	100
134003	2025-08-29T10:58:53	20.7	90
134004	2025-08-29T11:08:53	21.3	65.5
134005	2025-08-29T11:18:53	21.5	63.5
134006	2025-08-29T11:28:53	21.7	64.5
134007	2025-08-29T11:38:53	22	64.5
134008	2025-08-29T11:48:53	22.2	60
134009	2025-08-29T11:58:53	22.6	58
134010	2025-08-29T12:08:53	28.3	46.5
134011	2025-08-29T12:18:53	29.6	43
134012	2025-08-29T12:28:53	30.1	39
134013	2025-08-29T12:38:53	30.6	37.5
134014	2025-08-29T12:48:53	30.9	36.5
134015	2025-08-29T12:58:53	31.3	34.5
134016	2025-08-29T13:08:53	32	34
134017	2025-08-29T13:18:53	32.8	33.5
134018	2025-08-29T13:28:53	32.2	33.5
134019	2025-08-29T13:38:53	32.5	33.5
134020	2025-08-29T13:48:53	32.8	33
134021	2025-08-29T13:58:53	29.4	38.5
134022	2025-08-29T14:08:53	33.6	35.5
134023	2025-08-29T14:18:53	34.1	34
134024	2025-08-29T14:28:53	34	32.5
134025	2025-08-29T14:38:53	32.6	33.5
134026	2025-08-29T14:48:53	32.9	33.5
134027	2025-08-29T14:58:53	31.6	35
134028	2025-08-29T15:08:53	30.1	37
134029	2025-08-29T15:18:53	29.4	39
134030	2025-08-29T15:28:53	28.8	40.5
134031	2025-08-29T15:38:53	29.9	39.5
134032	2025-08-29T15:48:53	27.9	40.5
134033	2025-08-29T15:58:52	26.2	43.5
134034	2025-08-29T16:18:52	25.4	46.5
134035	2025-08-29T16:28:52	24.9	49
134036	2025-08-29T16:38:52	24.5	52.5
134037	2025-08-29T16:48:52	21.6	93.5
134038	2025-08-29T16:58:52	20.6	98.5
134039	2025-08-29T17:08:52	20.8	93
134040	2025-08-29T17:18:52	21.4	98.5
134041	2025-08-29T17:28:52	19.6	97
134042	2025-08-29T17:38:52	18.4	97
134043	2025-08-29T17:48:52	18.6	100
134044	2025-08-29T18:08:52	17.6	97.5
134045	2025-08-29T18:18:52	18.3	100
134046	2025-08-29T18:28:52	17.5	98.5
134047	2025-08-29T18:38:52	17.6	99.5
134048	2025-08-29T18:48:52	17.9	100
134049	2025-08-29T18:58:52	17.7	98.5
134050	2025-08-29T19:08:52	17.7	98.5
134051	2025-08-29T19:18:52	17.7	97.5
134052	2025-08-29T19:28:52	17.7	97
134053	2025-08-29T19:38:52	17.5	97
134054	2025-08-29T19:48:52	17.4	98.5
134055	2025-08-29T19:58:52	17	96.5
134056	2025-08-29T20:08:52	16.9	99
134057	2025-08-29T20:18:52	16.6	97
134058	2025-08-29T20:28:52	16.7	99.5
134059	2025-08-29T20:38:52	16.5	99
134060	2025-08-29T20:48:52	16.5	99.5
134061	2025-08-29T20:58:52	16.3	99.5
134062	2025-08-29T21:08:52	16.2	99.5
134063	2025-08-29T21:18:52	16	100
134064	2025-08-29T21:28:52	16.1	99.5
134065	2025-08-29T21:38:52	15.9	100
134066	2025-08-29T21:48:52	15.7	100
134067	2025-08-29T21:58:52	15.7	100
134068	2025-08-29T22:08:52	15.6	100
134069	2025-08-29T22:18:52	15.5	100
134070	2025-08-29T22:28:52	15.3	100
134071	2025-08-29T22:38:52	15.4	100
134072	2025-08-29T22:48:52	15.2	100
134073	2025-08-29T22:58:52	15	100
134074	2025-08-29T23:08:52	15	100
134075	2025-08-29T23:18:52	14.9	100
134076	2025-08-29T23:28:52	14.7	100
134077	2025-08-29T23:38:52	14.8	100
134078	2025-08-29T23:48:52	14.9	100
134079	2025-08-29T23:58:52	15.1	100
134080	2025-08-30T00:08:52	15.2	100
134081	2025-08-30T00:18:52	15.1	99.5
134082	2025-08-30T00:28:52	14.9	99.5
134083	2025-08-30T00:38:52	14.9	98
134084	2025-08-30T00:48:52	15.1	97
134085	2025-08-30T00:58:52	15.1	97.5
134086	2025-08-30T01:08:52	15.1	98
134087	2025-08-30T01:18:52	15.2	97.5
134088	2025-08-30T01:28:52	15.2	98.5
134089	2025-08-30T01:38:52	15.1	98
134090	2025-08-30T01:48:52	15.2	98
134091	2025-08-30T01:58:52	15	97
134092	2025-08-30T02:08:52	15.1	96
134093	2025-08-30T02:18:52	15.3	95.5
134094	2025-08-30T02:28:52	15.3	95
134095	2025-08-30T02:38:52	15.6	94.5
134096	2025-08-30T02:48:52	15.7	94
134097	2025-08-30T02:58:52	15.7	93.5
134098	2025-08-30T03:08:52	15.6	93
134099	2025-08-30T03:18:52	15.6	94
134100	2025-08-30T03:28:52	15.6	93.5
134101	2025-08-30T03:38:51	15.7	93
134102	2025-08-30T03:48:51	15.8	92.5
134103	2025-08-30T03:58:51	15.8	92.5
134104	2025-08-30T04:08:51	15.7	91.5
134105	2025-08-30T04:18:51	15.7	91.5
134106	2025-08-30T04:28:51	15.6	92.5
134107	2025-08-30T04:38:51	15.5	93
134108	2025-08-30T04:48:51	15.5	93
134109	2025-08-30T04:58:51	15.4	94
134110	2025-08-30T05:08:51	15.4	94
134111	2025-08-30T05:18:51	15.5	94
134112	2025-08-30T05:28:51	15.6	94
134113	2025-08-30T05:38:51	15.5	93.5
134114	2025-08-30T05:58:51	15.3	95
134115	2025-08-30T06:08:51	15.5	94
134116	2025-08-30T06:18:51	15.6	93.5
134117	2025-08-30T06:28:51	15.6	93
134118	2025-08-30T06:38:51	15.9	92.5
134119	2025-08-30T06:48:51	16	92
134120	2025-08-30T06:58:51	16.2	91
134121	2025-08-30T07:08:51	16.3	91
134122	2025-08-30T07:18:51	16.4	90
134123	2025-08-30T07:28:51	16.7	89
134124	2025-08-30T07:38:51	17	87.5
134125	2025-08-30T07:48:51	17.1	86
134126	2025-08-30T07:58:51	17.3	84.5
134127	2025-08-30T08:08:51	17.5	83.5
134128	2025-08-30T08:18:51	17.4	85.5
134129	2025-08-30T08:28:51	17.9	83.5
134130	2025-08-30T08:38:51	18.2	80.5
134131	2025-08-30T08:48:51	18.5	79
134132	2025-08-30T08:58:51	18.6	79
134133	2025-08-30T09:08:51	18.9	78
134134	2025-08-30T09:18:51	18.4	79.5
134135	2025-08-30T09:28:51	18.7	78.5
134136	2025-08-30T09:38:51	18.7	77
134137	2025-08-30T09:48:51	19.1	76.5
134138	2025-08-30T09:58:51	19.6	73.5
134139	2025-08-30T10:08:51	19.6	75.5
134140	2025-08-30T10:18:51	19.9	72
134141	2025-08-30T10:28:51	20.1	69
134142	2025-08-30T10:38:51	20.9	68
134143	2025-08-30T10:48:51	21.3	67
134144	2025-08-30T10:58:51	21.4	67
134145	2025-08-30T11:08:51	21.1	67.5
134146	2025-08-30T11:18:51	19.3	91.5
134147	2025-08-30T11:28:51	17.3	100
134148	2025-08-30T11:38:51	18.6	100
134149	2025-08-30T11:48:51	18.9	100
134150	2025-08-30T11:58:51	17.5	100
134151	2025-08-30T12:08:51	17.3	100
134152	2025-08-30T12:18:51	22.8	100
134153	2025-08-30T12:28:51	21.5	100
134154	2025-08-30T12:38:51	25.5	96
134155	2025-08-30T12:48:51	26.7	96
134156	2025-08-30T12:58:51	27.2	96
134157	2025-08-30T13:08:51	28.8	96
134158	2025-08-30T13:18:51	29	96
134159	2025-08-30T13:28:51	30.1	96
134160	2025-08-30T13:38:51	29.5	51.5
134161	2025-08-30T13:48:51	29.3	47.5
134162	2025-08-30T13:58:51	25.5	55
134163	2025-08-30T14:08:51	26.5	53.5
134164	2025-08-30T14:18:51	24.7	58.5
134165	2025-08-30T14:28:51	25.5	56
134166	2025-08-30T14:38:50	28.5	49.5
134167	2025-08-30T14:48:50	28.9	49
134168	2025-08-30T14:58:50	29.1	48
134169	2025-08-30T15:08:50	26.9	49.5
134170	2025-08-30T15:18:50	28.6	46.5
134171	2025-08-30T15:28:50	27.4	49.5
134172	2025-08-30T15:38:50	29.6	46
134173	2025-08-30T15:48:50	30.6	44
134174	2025-08-30T15:58:50	28.9	45.5
134175	2025-08-30T16:08:50	29	45
134176	2025-08-30T16:18:50	29.5	43.5
134177	2025-08-30T16:28:50	28.7	45
134178	2025-08-30T16:38:50	27.1	48
134179	2025-08-30T16:48:50	25.6	50
134180	2025-08-30T16:58:50	24.1	55.5
134181	2025-08-30T17:08:50	23.3	57
134182	2025-08-30T17:18:50	23	59.5
134183	2025-08-30T17:28:50	23.1	65.5
134184	2025-08-30T17:38:50	23.1	67.5
134185	2025-08-30T17:48:50	23	69
134186	2025-08-30T17:58:50	22.8	71
134187	2025-08-30T18:08:50	22.6	72
134188	2025-08-30T18:18:50	22.4	70.5
134189	2025-08-30T18:28:50	22.2	74
134190	2025-08-30T19:37:53	21.1	76
134191	2025-08-30T19:37:56	21.4	75
134192	2025-08-30T19:37:56	20.8	78.5
134193	2025-08-30T19:37:57	21.8	75
134194	2025-08-30T19:37:57	21.1	76.5
134195	2025-08-30T19:38:01	20.7	78
134196	2025-08-30T19:38:50	20.5	78.5
134197	2025-08-30T20:48:50	18.1	86.5
134198	2025-08-30T20:58:50	17.8	85
134199	2025-08-30T21:08:50	17.7	84
134200	2025-08-30T21:18:50	17.4	86
134201	2025-08-30T21:28:50	17.2	86
134202	2025-08-30T21:38:50	17	87
134203	2025-08-30T21:48:50	16.9	87.5
134204	2025-08-30T21:58:50	16.7	87
134205	2025-08-30T22:08:50	16.5	88
134206	2025-08-30T22:18:50	16.3	88.5
134207	2025-08-30T22:28:50	16.2	89
134208	2025-08-30T22:38:50	16.1	89
134209	2025-08-30T22:48:50	15.8	89
134210	2025-08-30T22:58:50	15.8	89.5
134211	2025-08-30T23:08:50	15.5	89.5
134212	2025-08-30T23:18:50	15.4	90.5
134213	2025-08-30T23:28:50	15.3	90.5
134214	2025-08-30T23:38:50	15.3	90.5
134215	2025-08-30T23:48:50	15.1	91
134216	2025-08-30T23:58:50	15	91.5
134217	2025-08-31T00:08:50	14.9	91
134218	2025-08-31T00:18:50	14.8	92
134219	2025-08-31T00:28:50	14.8	92
134220	2025-08-31T00:38:50	14.7	92
134221	2025-08-31T00:48:50	14.5	92.5
134222	2025-08-31T00:58:50	14.4	92.5
134223	2025-08-31T01:08:50	14.3	93
134224	2025-08-31T01:18:50	14.1	93.5
134225	2025-08-31T01:28:49	14.1	93.5
134226	2025-08-31T01:38:49	14	94
134227	2025-08-31T01:48:49	13.9	94
134228	2025-08-31T01:58:49	13.8	95
134229	2025-08-31T02:08:49	13.7	95
134230	2025-08-31T02:18:49	13.8	94.5
134231	2025-08-31T02:28:49	13.6	95
134232	2025-08-31T02:38:49	13.6	95
134233	2025-08-31T02:48:49	13.7	94.5
134234	2025-08-31T02:58:49	13.6	94.5
134235	2025-08-31T03:08:49	13.4	95.5
134236	2025-08-31T03:18:49	13.3	95.5
134237	2025-08-31T03:28:49	13	96
134238	2025-08-31T03:38:49	13.1	96
134239	2025-08-31T03:48:49	13	96
134240	2025-08-31T03:58:49	12.9	96.5
134241	2025-08-31T04:08:49	12.9	96
134242	2025-08-31T04:18:49	12.8	96.5
134243	2025-08-31T04:28:49	12.8	97
134244	2025-08-31T04:38:49	12.8	96.5
134245	2025-08-31T04:48:49	12.7	97
134246	2025-08-31T04:58:49	12.6	97.5
134247	2025-08-31T05:08:49	12.8	97
134248	2025-08-31T05:18:49	12.7	97
134249	2025-08-31T05:28:49	12.9	96.5
134250	2025-08-31T05:38:49	13.2	96
134251	2025-08-31T05:48:49	13.6	96
134252	2025-08-31T05:58:49	14	95
134253	2025-08-31T06:08:49	14.5	94.5
134254	2025-08-31T06:18:49	14.8	93.5
134255	2025-08-31T06:28:49	15.2	93.5
134256	2025-08-31T06:38:49	15.4	92.5
134257	2025-08-31T06:48:49	15.8	91
134258	2025-08-31T06:58:49	16.1	91
134259	2025-08-31T07:08:49	16.4	89.5
134260	2025-08-31T07:18:49	17.1	86.5
134261	2025-08-31T07:28:49	17	86
134262	2025-08-31T07:38:49	17.1	86.5
134263	2025-08-31T07:48:49	17.3	85.5
134264	2025-08-31T07:58:49	17.3	85
134265	2025-08-31T08:08:49	17.8	84.5
134266	2025-08-31T08:18:49	18.4	83
134267	2025-08-31T08:28:49	18.8	81.5
134268	2025-08-31T08:38:49	19.1	80
134269	2025-08-31T08:48:49	19	80
134270	2025-08-31T08:58:49	19.6	78.5
134271	2025-08-31T09:08:49	20.2	77
134272	2025-08-31T09:18:49	20.8	74.5
134273	2025-08-31T09:28:49	21.3	74.5
134274	2025-08-31T09:38:49	21.1	73.5
134275	2025-08-31T09:48:49	21.5	73
134276	2025-08-31T09:58:49	21.5	72
134277	2025-08-31T10:08:49	21.7	71.5
134278	2025-08-31T10:18:49	22	71.5
134279	2025-08-31T10:28:49	22.7	69.5
134280	2025-08-31T10:38:49	23.2	65.5
134281	2025-08-31T10:48:49	23.4	66.5
134282	2025-08-31T10:58:49	23.6	66
134283	2025-08-31T11:08:49	22.9	67.5
134284	2025-08-31T11:18:49	22.9	68.5
134285	2025-08-31T11:28:49	23.1	70.5
134286	2025-08-31T11:38:49	23.3	67.5
134287	2025-08-31T11:48:49	23.3	67.5
134288	2025-08-31T11:58:49	23.9	71
134289	2025-08-31T12:08:49	31.1	50.5
134290	2025-08-31T12:18:49	33.4	44
134291	2025-08-31T12:28:49	35.3	39
134292	2025-08-31T12:38:49	35.4	38
134293	2025-08-31T12:48:49	36.9	37
134294	2025-08-31T12:58:49	39	33.5
134295	2025-08-31T13:08:48	38.9	34.5
134296	2025-08-31T13:18:48	39.2	33.5
134297	2025-08-31T13:28:48	40	31.5
134298	2025-08-31T13:38:48	39.5	32.5
134299	2025-08-31T13:48:48	38.7	32
134300	2025-08-31T13:58:48	41.2	31.5
134301	2025-08-31T14:08:48	40.4	32
134302	2025-08-31T14:18:48	41.3	32.5
134303	2025-08-31T14:28:48	42	31
134304	2025-08-31T14:38:48	40.3	33
134305	2025-08-31T14:48:48	37.3	38
134306	2025-08-31T14:58:48	39.2	35
134307	2025-08-31T15:08:48	41.8	32
134308	2025-08-31T15:18:48	42.3	31
134309	2025-08-31T15:28:48	42.1	31
134310	2025-08-31T15:38:48	42.4	31
134311	2025-08-31T15:48:48	42.1	31
134312	2025-08-31T15:58:48	42.5	30.5
134313	2025-08-31T16:08:48	42.6	31
134314	2025-08-31T16:18:48	41.5	32
134315	2025-08-31T16:28:48	40.7	32
134316	2025-08-31T16:38:48	37.8	36
134317	2025-08-31T16:48:48	36.8	37
134318	2025-08-31T16:58:48	35.2	39.5
134319	2025-08-31T17:08:48	34.5	41.5
134320	2025-08-31T17:18:48	33.2	44
134321	2025-08-31T17:28:48	32.6	46
134322	2025-08-31T17:38:48	31.4	48
134323	2025-08-31T17:48:48	30.4	50
134324	2025-08-31T17:58:48	29.6	51.5
134325	2025-08-31T18:08:48	28.8	53
134326	2025-08-31T18:18:48	28.1	53
134327	2025-08-31T18:28:48	27.5	55
134328	2025-08-31T18:38:48	27	56
134329	2025-08-31T18:48:48	26.6	57
134330	2025-08-31T18:58:48	26.2	57.5
134331	2025-08-31T19:08:48	25.8	58.5
134332	2025-08-31T19:18:48	25.3	59
134333	2025-08-31T19:28:48	24.8	60
134334	2025-08-31T19:38:48	24.5	60.5
134335	2025-08-31T19:48:48	24.2	61
134336	2025-08-31T19:58:48	23.9	62
134337	2025-08-31T20:08:48	23.6	62
134338	2025-08-31T20:18:48	23.3	63
134339	2025-08-31T20:28:48	22.9	63.5
134340	2025-08-31T20:38:48	22.7	64
134341	2025-08-31T20:48:48	22.6	65
134342	2025-08-31T20:58:48	22.4	65.5
134343	2025-08-31T21:08:48	22.3	65.5
134344	2025-08-31T21:18:48	22.2	65
134345	2025-08-31T21:28:48	21.9	66.5
134346	2025-08-31T21:38:48	21.9	65.5
134347	2025-08-31T21:48:48	21.5	68
134348	2025-08-31T21:58:48	21.3	69
134349	2025-08-31T22:08:48	21.2	69.5
134350	2025-08-31T22:18:48	21.1	70.5
134351	2025-08-31T22:28:48	21	68.5
134352	2025-08-31T22:38:48	21.1	70
134353	2025-08-31T22:48:48	20.7	72
134354	2025-08-31T22:58:48	20.4	73
134355	2025-08-31T23:08:48	20	73
134356	2025-08-31T23:18:48	20	74
134357	2025-08-31T23:28:48	19.9	75
134358	2025-08-31T23:38:48	19.8	75
134359	2025-08-31T23:48:47	19.4	76.5
134360	2025-08-31T23:58:47	19.3	77.5
134361	2025-09-01T00:08:47	19.2	78
134362	2025-09-01T00:18:47	19.1	79
134363	2025-09-01T00:28:47	19	79.5
134364	2025-09-01T00:38:47	18.9	79
134365	2025-09-01T00:48:47	19.2	82.5
134366	2025-09-01T00:58:47	18.9	85.5
134367	2025-09-01T01:08:47	18.9	87.5
134368	2025-09-01T01:18:47	18.9	87.5
134369	2025-09-01T01:28:47	19.1	87.5
134370	2025-09-01T01:38:47	19	87
134371	2025-09-01T01:48:47	18.9	86
134372	2025-09-01T01:58:47	18.8	85
134373	2025-09-01T02:08:47	18.8	84.5
134374	2025-09-01T02:18:47	18.8	83.5
134375	2025-09-01T02:28:47	18.8	82.5
134376	2025-09-01T02:38:47	18.8	81.5
134377	2025-09-01T02:48:47	18.8	81.5
134378	2025-09-01T02:58:47	18.7	80.5
134379	2025-09-01T03:08:47	18.7	80
134380	2025-09-01T03:18:47	18.4	81
134381	2025-09-01T03:28:47	18.3	81.5
134382	2025-09-01T03:38:47	18.3	82
134383	2025-09-01T03:48:47	18.2	82
134384	2025-09-01T03:58:47	18	83
134385	2025-09-01T04:08:47	17.9	83
134386	2025-09-01T04:18:47	17.9	83
134387	2025-09-01T04:28:47	17.8	83.5
134388	2025-09-01T04:38:47	17.7	84
134389	2025-09-01T04:48:47	17.6	84.5
134390	2025-09-01T04:58:47	17.5	85
134391	2025-09-01T05:08:47	17.4	85.5
134392	2025-09-01T05:18:47	17.6	85.5
134393	2025-09-01T05:28:47	17.5	85.5
134394	2025-09-01T05:38:47	17.6	85
134395	2025-09-01T05:48:47	17.6	85
134396	2025-09-01T05:58:47	17.6	86
134397	2025-09-01T06:08:47	17.6	85.5
134398	2025-09-01T06:18:47	17.5	86
134399	2025-09-01T06:28:47	17.5	87
134400	2025-09-01T06:38:47	17.4	87.5
134401	2025-09-01T06:48:47	17.6	88
134402	2025-09-01T06:58:47	17.7	87.5
134403	2025-09-01T07:08:47	17.4	87.5
134404	2025-09-01T07:18:47	17.3	90.5
134405	2025-09-01T07:28:47	16.4	97
134406	2025-09-01T07:38:47	16.3	100
134407	2025-09-01T07:48:47	16.2	100
134408	2025-09-01T07:58:47	16.3	100
134409	2025-09-01T08:08:47	16.5	100
134410	2025-09-01T08:18:47	16.6	100
134411	2025-09-01T08:28:47	16.8	100
134412	2025-09-01T08:38:47	16.8	100
134413	2025-09-01T08:48:47	16.7	100
134414	2025-09-01T08:58:47	16.7	100
134415	2025-09-01T09:08:47	16.9	100
134416	2025-09-01T09:18:47	17.2	100
134417	2025-09-01T09:28:47	17.2	100
134418	2025-09-01T09:38:47	17.2	100
134419	2025-09-01T09:48:47	18.1	100
134420	2025-09-01T09:58:47	17.6	97
134421	2025-09-01T10:08:47	18.7	96.5
134422	2025-09-01T10:18:47	19.5	96.5
134423	2025-09-01T10:28:47	20	91
134424	2025-09-01T10:38:47	19.7	91
134425	2025-09-01T10:48:47	19.6	92
134426	2025-09-01T10:58:46	19.5	90.5
134427	2025-09-01T11:08:46	20.4	89.5
134428	2025-09-01T11:18:46	21	87.5
134429	2025-09-01T11:28:46	21.6	87
134430	2025-09-01T11:38:46	21.4	87
134431	2025-09-01T11:48:46	22.5	79.5
134432	2025-09-01T11:58:46	23	75
134433	2025-09-01T12:08:46	22.3	73.5
134434	2025-09-01T12:18:46	26.4	60.5
134435	2025-09-01T12:28:46	27.7	58
134436	2025-09-01T12:38:46	24.2	63
134437	2025-09-01T12:48:46	25.1	67
134438	2025-09-01T12:58:46	26.2	62
134439	2025-09-01T13:08:46	25.5	60
134440	2025-09-01T13:18:46	24.7	63
134441	2025-09-01T13:28:46	24.3	65.5
134442	2025-09-01T13:38:46	24.3	67
134443	2025-09-01T13:48:46	24	63.5
134444	2025-09-01T13:58:46	23.8	64.5
134445	2025-09-01T14:08:46	23.4	66
134446	2025-09-01T14:18:46	23.6	67.5
134447	2025-09-01T14:28:46	23.8	66
134448	2025-09-01T14:38:46	24.3	66
134449	2025-09-01T14:48:46	24.3	63
134450	2025-09-01T14:58:46	22.7	70.5
134451	2025-09-01T15:08:46	20.2	99.5
134452	2025-09-01T15:18:46	20	100
134453	2025-09-01T15:28:46	20.8	100
134454	2025-09-01T15:38:46	20.9	100
134455	2025-09-01T15:48:46	21.2	100
134456	2025-09-01T15:58:46	20.9	100
134457	2025-09-01T16:08:46	20.7	100
134458	2025-09-01T16:18:46	20.8	100
134459	2025-09-01T16:28:46	20.1	100
134460	2025-09-01T16:38:46	19.9	100
134461	2025-09-01T16:48:46	20.1	100
134462	2025-09-01T16:58:46	20	100
134463	2025-09-01T17:08:46	20.3	100
134464	2025-09-01T17:18:46	20.2	100
134465	2025-09-01T17:28:46	19.8	100
134466	2025-09-01T17:38:46	19.4	100
134467	2025-09-01T17:48:46	18.9	100
134468	2025-09-01T17:58:46	18.7	100
134469	2025-09-01T18:08:46	18.5	100
134470	2025-09-01T18:18:46	18.1	100
134471	2025-09-01T18:28:46	17.7	100
134472	2025-09-01T18:38:46	17.6	100
134473	2025-09-01T18:48:46	17.6	100
134474	2025-09-01T18:58:46	17.4	100
134475	2025-09-01T19:08:46	17.4	100
134476	2025-09-01T19:18:46	17.3	100
134477	2025-09-01T19:28:46	17.2	100
134478	2025-09-01T19:38:46	16.7	100
134479	2025-09-01T19:48:46	16.9	100
134480	2025-09-01T19:58:46	16.8	100
134481	2025-09-01T20:08:46	16.9	100
134482	2025-09-01T20:18:46	16.8	100
134483	2025-09-01T20:28:46	16.8	100
134484	2025-09-01T20:38:46	16.8	100
134485	2025-09-01T20:48:46	16.8	100
134486	2025-09-01T20:58:46	16.6	100
134487	2025-09-01T21:08:46	16.5	100
134488	2025-09-01T21:18:46	16.6	100
134489	2025-09-01T21:28:46	16.6	100
134490	2025-09-01T21:38:45	16.5	100
134491	2025-09-01T21:48:45	16.5	100
134492	2025-09-01T21:58:45	16.4	100
134493	2025-09-01T22:08:45	16.4	100
134494	2025-09-01T22:18:45	16.3	100
134495	2025-09-01T22:28:45	16.3	100
134496	2025-09-01T22:38:45	16.3	100
134497	2025-09-01T22:48:45	16.2	100
134498	2025-09-01T22:58:45	16	100
134499	2025-09-01T23:08:45	16	100
134500	2025-09-01T23:18:45	15.8	100
134501	2025-09-01T23:28:45	15.8	100
134502	2025-09-01T23:38:45	15.8	100
134503	2025-09-01T23:48:45	15.7	100
134504	2025-09-01T23:58:45	15.8	100
134505	2025-09-02T00:08:45	15.8	100
134506	2025-09-02T00:18:45	15.7	100
134507	2025-09-02T00:28:45	15.7	100
134508	2025-09-02T00:38:45	15.7	100
134509	2025-09-02T00:48:45	15.6	100
134510	2025-09-02T00:58:45	15.6	100
134511	2025-09-02T01:08:45	15.6	100
134512	2025-09-02T01:18:45	15.6	100
134513	2025-09-02T01:28:45	15.5	100
134514	2025-09-02T01:38:45	15.4	100
134515	2025-09-02T01:48:45	15.4	100
134516	2025-09-02T01:58:45	15.3	100
134517	2025-09-02T02:08:45	15.3	100
134518	2025-09-02T02:18:45	15.4	100
134519	2025-09-02T02:28:45	15.3	100
134520	2025-09-02T02:38:45	15	100
134521	2025-09-02T02:58:45	15	100
134522	2025-09-02T03:08:45	14.9	100
134523	2025-09-02T03:18:45	15	100
134524	2025-09-02T03:28:45	14.8	100
134525	2025-09-02T03:38:45	14.8	100
134526	2025-09-02T03:48:45	14.7	100
134527	2025-09-02T03:58:45	14.7	100
134528	2025-09-02T04:08:45	14.6	100
134529	2025-09-02T04:18:45	14.4	100
134530	2025-09-02T04:28:45	14.2	100
134531	2025-09-02T04:38:45	14.3	100
134532	2025-09-02T04:48:45	14.3	100
134533	2025-09-02T04:58:45	14.4	100
134534	2025-09-02T05:08:45	14.5	100
134535	2025-09-02T05:18:45	14.5	100
134536	2025-09-02T05:28:45	14.6	100
134537	2025-09-02T05:38:45	14.9	100
134538	2025-09-02T05:48:45	14.9	100
134539	2025-09-02T05:58:45	14.9	100
134540	2025-09-02T06:08:45	15.1	100
134541	2025-09-02T06:18:45	15	100
134542	2025-09-02T06:28:45	15.2	100
134543	2025-09-02T06:38:45	15.1	100
134544	2025-09-02T06:48:45	15.2	100
134545	2025-09-02T06:58:45	15.1	100
134546	2025-09-02T07:08:45	15.1	100
134547	2025-09-02T07:18:45	15.4	100
134548	2025-09-02T07:28:45	16	100
134549	2025-09-02T07:38:45	16.2	99.5
134550	2025-09-02T07:48:45	16.3	96
134551	2025-09-02T07:58:45	16.9	90
134552	2025-09-02T08:08:45	17.7	85
134553	2025-09-02T08:18:45	17.9	83
134554	2025-09-02T08:28:45	17.7	84
134555	2025-09-02T08:38:45	16.4	97
134556	2025-09-02T08:48:45	15.6	100
134557	2025-09-02T08:58:45	15.6	100
134558	2025-09-02T09:08:45	16.3	100
134559	2025-09-02T09:18:45	17	100
134560	2025-09-02T09:28:45	17.8	100
134561	2025-09-02T09:38:44	18.2	95
134562	2025-09-02T09:48:44	18.5	92
134563	2025-09-02T09:58:45	18.7	87.5
134564	2025-09-02T10:08:44	18.4	84.5
134565	2025-09-02T10:18:44	18.7	85.5
134566	2025-09-02T10:28:44	18.8	86
134567	2025-09-02T10:38:44	19	85.5
134568	2025-09-02T10:48:44	19.1	83.5
134569	2025-09-02T10:58:44	19.7	82
134570	2025-09-02T11:08:44	20	78.5
134571	2025-09-02T11:18:44	19.1	79
134572	2025-09-02T11:28:44	17.9	86.5
134573	2025-09-02T11:38:44	17.5	83
134574	2025-09-02T11:48:44	18	83
134575	2025-09-02T11:58:44	19.1	83.5
134576	2025-09-02T12:08:44	23.1	70
134577	2025-09-02T12:18:44	27.9	55
134578	2025-09-02T12:28:44	29.3	50
134579	2025-09-02T12:58:44	30.3	40
134580	2025-09-02T13:08:44	31.5	39.5
134581	2025-09-02T13:18:44	31.1	39.5
134582	2025-09-02T13:28:44	31	41
134583	2025-09-02T13:38:44	32.5	36
134584	2025-09-02T13:48:44	32.3	37
134585	2025-09-02T13:58:44	34.2	36
134586	2025-09-02T14:08:44	33.9	34
134587	2025-09-02T14:18:44	35	32.5
134588	2025-09-02T14:28:44	34.9	33
134589	2025-09-02T14:38:44	37.9	30.5
134590	2025-09-02T14:48:44	37.2	32
134591	2025-09-02T14:58:44	35	33
134592	2025-09-02T15:08:44	35.8	35
134593	2025-09-02T15:18:44	36.2	30.5
134594	2025-09-02T15:28:44	34	33
134595	2025-09-02T15:38:44	28.9	40.5
134596	2025-09-02T15:48:44	29.7	40.5
134597	2025-09-02T15:58:44	28.5	43.5
134598	2025-09-02T16:08:44	30.4	40
134599	2025-09-02T16:18:44	27.8	44.5
134600	2025-09-02T16:28:44	27.5	45.5
134601	2025-09-02T16:38:44	26.5	48
134602	2025-09-02T16:48:44	26.1	53
134603	2025-09-02T16:58:44	25.5	56
134604	2025-09-02T17:08:44	25.1	57
134605	2025-09-02T17:18:44	24.8	56.5
134606	2025-09-02T17:28:44	24.1	58.5
134607	2025-09-02T17:38:44	23.8	60
134608	2025-09-02T17:48:44	23.5	61
134609	2025-09-02T17:58:44	23	65
134610	2025-09-02T18:08:44	22.5	66.5
134611	2025-09-02T18:18:44	22	69
134612	2025-09-02T18:28:44	21.6	69.5
134613	2025-09-02T18:38:44	21.3	70
134614	2025-09-02T18:48:44	20.7	72
134615	2025-09-02T18:58:44	20.6	70
134616	2025-09-02T19:08:44	20.5	71.5
134617	2025-09-02T19:18:44	20.3	73
134618	2025-09-02T19:28:44	20.1	73.5
134619	2025-09-02T19:38:44	19.9	73
134620	2025-09-02T19:48:44	19.6	74.5
134621	2025-09-02T19:58:44	19.2	76
134622	2025-09-02T20:08:44	19.1	78
134623	2025-09-02T20:18:43	18.7	77.5
134624	2025-09-02T20:28:43	18.6	78
134625	2025-09-02T20:38:43	18.3	78.5
134626	2025-09-02T20:48:43	18.1	79
134627	2025-09-02T20:58:43	18	80
134628	2025-09-02T21:08:43	17.6	79.5
134629	2025-09-02T21:18:43	17.4	80.5
134630	2025-09-02T21:28:43	17.4	81
134631	2025-09-02T21:38:43	17.4	80.5
134632	2025-09-02T21:48:43	17.6	80.5
134633	2025-09-02T21:58:43	17.5	80.5
134634	2025-09-02T22:08:43	17.6	80.5
134635	2025-09-02T22:18:43	17.5	81
134636	2025-09-02T22:28:43	17.6	81.5
134637	2025-09-02T22:38:43	17.5	82
134638	2025-09-02T22:48:43	17.4	83.5
134639	2025-09-02T22:58:43	17.3	76
134640	2025-09-02T23:08:43	17.5	72.5
134641	2025-09-02T23:18:43	17.5	72
134642	2025-09-02T23:28:43	17.4	73.5
134643	2025-09-02T23:38:43	17.4	73.5
134644	2025-09-02T23:48:43	17.2	75.5
134645	2025-09-02T23:58:43	17.1	76
134646	2025-09-03T00:08:43	17.1	76.5
134647	2025-09-03T00:18:43	17.1	80.5
134648	2025-09-03T00:28:43	17.1	81.5
134649	2025-09-03T00:38:43	17.1	82
134650	2025-09-03T00:48:43	17.1	82.5
134651	2025-09-03T00:58:43	17.1	81.5
134652	2025-09-03T01:08:43	17	81.5
134653	2025-09-03T01:18:43	16.7	88.5
134654	2025-09-03T01:28:43	16.7	88
134655	2025-09-03T01:38:43	16.9	86.5
134656	2025-09-03T01:48:43	16.8	87
134657	2025-09-03T01:58:43	16.9	88
134658	2025-09-03T02:08:43	16.9	87
134659	2025-09-03T02:18:43	16.9	84
134660	2025-09-03T02:28:43	17.1	82.5
134661	2025-09-03T02:38:43	17.1	81
134662	2025-09-03T02:48:43	17	81
134663	2025-09-03T02:58:43	17	82.5
134664	2025-09-03T03:08:43	17	85.5
134665	2025-09-03T03:18:43	16.9	87.5
134666	2025-09-03T03:28:43	16.9	88.5
134667	2025-09-03T03:38:43	16.8	88.5
134668	2025-09-03T03:48:43	16.8	87.5
134669	2025-09-03T03:58:43	16.8	87.5
134670	2025-09-03T04:08:43	16.7	88
134671	2025-09-03T04:18:43	16.6	88.5
134672	2025-09-03T04:28:43	16.4	89.5
134673	2025-09-03T04:38:43	16.1	91
134674	2025-09-03T04:48:43	16.1	91
134675	2025-09-03T04:58:43	16.1	91
134676	2025-09-03T05:08:43	16	90
134677	2025-09-03T05:18:43	16.1	89.5
134678	2025-09-03T05:28:43	16.3	90
134679	2025-09-03T05:38:43	16.4	89.5
134680	2025-09-03T05:48:43	16.5	90
134681	2025-09-03T05:58:43	16.6	89.5
134682	2025-09-03T06:08:43	16.9	86
134683	2025-09-03T06:18:43	17.3	81.5
134684	2025-09-03T06:28:43	17.8	80
134685	2025-09-03T06:38:43	18.2	79
134686	2025-09-03T06:48:43	18.4	78
134687	2025-09-03T06:58:43	18.7	77
134688	2025-09-03T07:08:43	19.1	76.5
134689	2025-09-03T07:18:43	19.2	75.5
134690	2025-09-03T07:28:43	19.4	74.5
134691	2025-09-03T07:38:42	19.4	75.5
134692	2025-09-03T07:48:42	19.6	75
134693	2025-09-03T07:58:42	19.6	74.5
134694	2025-09-03T08:08:42	19.8	74.5
134695	2025-09-03T08:18:42	19.9	73.5
134696	2025-09-03T08:28:42	19.8	74
134697	2025-09-03T08:38:42	19.8	74
134698	2025-09-03T08:48:42	20.2	75
134699	2025-09-03T08:58:42	20.4	74
134700	2025-09-03T09:08:42	20.5	73
134701	2025-09-03T09:18:42	20.8	72.5
134702	2025-09-03T09:28:42	20.9	72.5
134703	2025-09-03T09:38:42	21	71.5
134704	2025-09-03T09:48:42	21.1	71.5
134705	2025-09-03T09:58:42	21.4	70.5
134706	2025-09-03T10:09:01	21.8	69.5
134707	2025-09-03T10:18:42	22	68
134708	2025-09-03T10:28:42	22.3	67.5
134709	2025-09-03T10:38:42	22.8	65.5
134710	2025-09-03T10:48:42	22.8	63.5
134711	2025-09-03T10:58:42	22.9	64.5
134712	2025-09-03T11:08:42	22.9	63
134713	2025-09-03T11:18:42	23.2	63.5
134714	2025-09-03T11:28:42	23.4	61
134715	2025-09-03T11:38:42	23.7	60.5
134716	2025-09-03T11:48:42	24.2	59
134717	2025-09-03T11:58:42	24.5	58
134718	2025-09-03T12:08:42	26	53.5
134719	2025-09-03T12:18:42	28.9	48.5
134720	2025-09-03T12:28:42	31.2	42
134721	2025-09-03T12:38:42	31.5	41.5
134722	2025-09-03T12:48:42	32.7	40
134723	2025-09-03T12:58:42	32.9	39.5
134724	2025-09-03T13:08:42	32.8	39
134725	2025-09-03T13:18:42	34.5	38
134726	2025-09-03T13:28:42	34.2	37
134727	2025-09-03T13:38:42	34.2	37
134728	2025-09-03T13:48:42	34.1	37.5
134729	2025-09-03T13:58:42	35	36.5
134730	2025-09-03T14:08:42	35.3	36.5
134731	2025-09-03T14:18:42	34.8	37
134732	2025-09-03T14:28:42	35.2	37
134733	2025-09-03T14:38:42	35.9	35.5
134734	2025-09-03T14:48:42	35.3	36
134735	2025-09-03T14:58:42	35.3	35.5
134736	2025-09-03T15:08:42	35.3	36.5
134737	2025-09-03T15:18:42	34.9	36
134738	2025-09-03T15:28:42	37	34
134739	2025-09-03T15:38:42	36	36
134740	2025-09-03T15:48:42	35.9	35.5
134741	2025-09-03T15:58:42	35.3	36
134742	2025-09-03T16:08:42	35.3	37
134743	2025-09-03T16:18:42	34.5	37
134744	2025-09-03T16:28:42	33.5	39
134745	2025-09-03T16:38:42	34	40
134746	2025-09-03T16:48:42	32.7	43
134747	2025-09-03T16:58:42	31.3	45.5
134748	2025-09-03T17:08:42	30.7	47
134749	2025-09-03T17:18:42	31	48.5
134750	2025-09-03T17:28:42	30.4	50
134751	2025-09-03T17:38:41	29.5	54.5
134752	2025-09-03T17:48:41	28.7	57.5
134753	2025-09-03T17:58:41	27.9	60
134754	2025-09-03T18:08:41	27.2	61.5
134755	2025-09-03T18:18:41	26.6	63.5
134756	2025-09-03T18:28:41	26.1	65
134757	2025-09-03T18:38:41	25.7	66
134758	2025-09-03T18:48:41	25.2	66
134759	2025-09-03T18:58:41	24.8	66
134760	2025-09-03T19:08:41	24.4	67
134761	2025-09-03T19:18:41	24.3	67
134762	2025-09-03T19:28:41	23.9	68.5
134763	2025-09-03T19:38:41	23.7	68.5
134764	2025-09-03T19:48:41	23.4	69.5
134765	2025-09-03T19:58:41	23.2	69.5
134766	2025-09-03T20:08:41	23.1	70
134767	2025-09-03T20:18:41	22.9	71
134768	2025-09-03T20:28:41	22.4	72.5
134769	2025-09-03T20:38:41	22.2	73.5
134770	2025-09-03T20:48:41	21.9	75
134771	2025-09-03T20:58:41	21.6	75.5
134772	2025-09-03T21:08:41	21.4	75
134773	2025-09-03T21:18:41	21.3	76
134774	2025-09-03T21:28:41	21	76.5
134775	2025-09-03T21:38:41	20.7	77
134776	2025-09-03T21:48:41	20.6	77.5
134777	2025-09-03T22:08:41	20.1	78
134778	2025-09-03T22:18:41	20.1	78.5
134779	2025-09-03T22:28:41	19.9	79.5
134780	2025-09-03T22:38:41	19.6	80
134781	2025-09-03T22:48:41	19.6	80.5
134782	2025-09-03T22:58:41	19.5	80.5
134783	2025-09-03T23:08:41	19.2	80.5
134784	2025-09-03T23:18:41	19.2	81
134785	2025-09-03T23:28:41	19.1	81.5
134786	2025-09-03T23:38:41	19.1	82.5
134787	2025-09-03T23:48:41	19	82
134788	2025-09-03T23:58:41	19.1	81.5
134789	2025-09-04T00:08:41	19.2	82
134790	2025-09-04T00:18:41	19.4	81.5
134791	2025-09-04T00:28:41	19.3	81.5
134792	2025-09-04T00:38:41	19	83
134793	2025-09-04T00:48:41	19	83
134794	2025-09-04T00:58:41	19	83.5
134795	2025-09-04T01:08:41	19.2	83.5
134796	2025-09-04T01:18:41	19	84
134797	2025-09-04T01:28:41	18.8	84.5
134798	2025-09-04T01:38:41	18.8	84.5
134799	2025-09-04T01:48:41	18.7	84.5
134800	2025-09-04T01:58:41	18.6	85
134801	2025-09-04T02:08:41	18.3	86
134802	2025-09-04T02:18:41	18.3	86.5
134803	2025-09-04T02:28:41	18.2	87
134804	2025-09-04T02:38:41	18	87
134805	2025-09-04T02:48:41	17.9	87.5
134806	2025-09-04T02:58:41	17.9	88
134807	2025-09-04T03:08:41	17.9	88.5
134808	2025-09-04T03:18:41	18.1	88.5
134809	2025-09-04T03:28:41	17.9	89
134810	2025-09-04T03:38:41	17.8	89.5
134811	2025-09-04T03:48:41	17.4	91
134812	2025-09-04T03:58:40	17.4	91
134813	2025-09-04T04:08:41	17.2	91.5
134814	2025-09-04T04:18:40	17.3	91.5
134815	2025-09-04T04:28:40	17.2	92
134816	2025-09-04T04:38:40	17	92
134817	2025-09-04T04:48:40	17	92.5
134818	2025-09-04T04:58:40	17	92.5
134819	2025-09-04T05:08:40	16.9	93
134820	2025-09-04T05:18:40	17	93
134821	2025-09-04T05:28:40	16.9	93.5
134822	2025-09-04T05:38:40	17	93.5
134823	2025-09-04T05:48:40	17	93.5
134824	2025-09-04T05:58:40	17.1	94
134825	2025-09-04T06:08:40	17.1	94
134826	2025-09-04T06:18:40	17.2	94.5
134827	2025-09-04T06:28:40	17.3	94.5
134828	2025-09-04T06:38:40	17.5	93.5
134829	2025-09-04T06:48:40	17.8	93.5
134830	2025-09-04T06:58:40	18	92.5
134831	2025-09-04T07:08:40	18.8	90.5
134832	2025-09-04T07:18:40	19.2	89
134833	2025-09-04T07:28:40	19.6	86.5
134834	2025-09-04T07:38:40	19.6	86
134835	2025-09-04T07:48:40	20	84
134836	2025-09-04T07:58:40	20.2	83.5
134837	2025-09-04T08:08:40	20.5	81
134838	2025-09-04T08:18:40	20.6	80
134839	2025-09-04T08:28:40	20.8	81
134840	2025-09-04T08:38:40	21.2	80
134841	2025-09-04T08:48:40	21.4	78.5
134842	2025-09-04T08:58:40	21.9	76.5
134843	2025-09-04T09:08:40	22.3	75.5
134844	2025-09-04T09:18:40	22.7	75
134845	2025-09-04T09:28:40	23.2	72.5
134846	2025-09-04T09:38:40	23.2	72.5
134847	2025-09-04T09:48:40	23.5	72
134848	2025-09-04T09:58:40	23.4	72
134849	2025-09-04T10:08:40	23.2	72.5
134850	2025-09-04T10:18:40	23	74
134851	2025-09-04T10:28:40	22.3	77.5
134852	2025-09-04T10:38:40	20.9	93.5
134853	2025-09-04T10:48:40	20	99
134854	2025-09-04T10:58:40	20.1	99.5
134855	2025-09-04T11:08:40	20.5	99.5
134856	2025-09-04T11:18:40	20.9	98.5
134857	2025-09-04T11:28:40	20.5	96.5
134858	2025-09-04T11:38:40	20.5	91.5
134859	2025-09-04T11:48:40	20.3	93.5
134860	2025-09-04T11:58:40	21.2	90.5
134861	2025-09-04T12:08:40	22.6	90
134862	2025-09-04T12:18:40	22.9	85.5
134863	2025-09-04T12:28:40	25.3	86
134864	2025-09-04T12:38:40	27.1	69
134865	2025-09-04T12:48:40	28.1	67.5
134866	2025-09-04T12:58:40	25.7	70
134867	2025-09-04T13:08:40	24.4	73
134868	2025-09-04T13:18:40	26.5	68
134869	2025-09-04T13:28:40	25.7	71.5
134870	2025-09-04T13:38:40	24.6	74.5
134871	2025-09-04T13:48:40	24.2	76.5
134872	2025-09-04T13:58:40	23.2	79
134873	2025-09-04T14:08:40	23.4	78
134874	2025-09-04T14:18:40	23.6	77.5
134875	2025-09-04T14:28:40	23.4	78
134876	2025-09-04T14:38:39	23.4	78
134877	2025-09-04T14:48:39	22.9	80
134878	2025-09-04T14:58:39	22.5	81
134879	2025-09-04T15:08:39	22.2	80
134880	2025-09-04T15:18:39	22	78
134881	2025-09-04T15:28:39	21.8	76
134882	2025-09-04T15:38:39	21.6	75
134883	2025-09-04T15:48:39	21.4	77.5
134884	2025-09-04T15:58:39	20.9	79
134885	2025-09-04T16:08:39	20.1	86
134886	2025-09-04T16:18:39	19.3	94.5
134887	2025-09-04T16:28:39	18.8	92
134888	2025-09-04T16:38:39	18.9	91.5
134889	2025-09-04T16:48:39	18.8	91.5
134890	2025-09-04T16:58:39	18.8	91.5
134891	2025-09-04T17:08:39	18.7	96
134892	2025-09-04T17:18:39	18.9	97.5
134893	2025-09-04T17:28:39	18.9	96
134894	2025-09-04T17:38:39	18.4	93
134895	2025-09-04T17:48:39	18.4	92
134896	2025-09-04T17:58:39	18.2	92
134897	2025-09-04T18:08:39	18.3	94
134898	2025-09-04T18:18:39	18.2	95
134899	2025-09-04T18:28:39	18.1	94.5
134900	2025-09-04T18:38:39	18	92.5
134901	2025-09-04T18:48:39	17.7	93.5
134902	2025-09-04T18:58:39	17.7	93
134903	2025-09-04T19:08:39	17.6	94.5
134904	2025-09-04T19:18:39	17.5	93.5
134905	2025-09-04T19:28:39	17.4	94
134906	2025-09-04T19:38:39	17.5	93.5
134907	2025-09-04T19:48:39	17.5	94.5
134908	2025-09-04T19:58:39	17.5	94.5
134909	2025-09-04T20:08:39	17.6	95
134910	2025-09-04T20:28:39	17.3	95
134911	2025-09-04T20:38:39	17.1	94
134912	2025-09-04T20:48:39	17	94.5
134913	2025-09-04T20:58:39	17	94
134914	2025-09-04T21:08:39	16.9	95
134915	2025-09-04T21:18:39	16.9	96
134916	2025-09-04T21:28:39	16.8	96
134917	2025-09-04T21:38:39	16.8	96
134918	2025-09-04T21:48:39	16.9	95.5
134919	2025-09-04T21:58:39	16.9	94.5
134920	2025-09-04T22:08:39	17	94.5
134921	2025-09-04T22:18:39	16.9	91.5
134922	2025-09-04T22:28:39	17	92.5
134923	2025-09-04T22:38:39	17	91.5
134924	2025-09-04T22:48:39	17.1	90.5
134925	2025-09-04T23:18:39	16.4	95
134926	2025-09-04T23:28:39	16.5	94.5
134927	2025-09-04T23:38:39	16.5	94
134928	2025-09-04T23:48:39	16.5	93.5
134929	2025-09-04T23:58:39	16.5	93.5
134930	2025-09-05T00:08:39	16.5	93
134931	2025-09-05T00:18:39	16.3	93
134932	2025-09-05T00:28:39	16.3	94
134933	2025-09-05T00:38:39	16.1	94.5
134934	2025-09-05T00:48:39	16.1	95
134935	2025-09-05T00:58:39	15.9	95.5
134936	2025-09-05T01:08:39	15.9	95.5
134937	2025-09-05T01:18:39	15.9	96
134938	2025-09-05T01:28:39	15.8	96
134939	2025-09-05T01:38:39	15.6	96.5
134940	2025-09-05T01:48:39	15.5	96.5
134941	2025-09-05T01:58:38	15.6	95.5
134942	2025-09-05T02:08:38	15.6	94.5
134943	2025-09-05T02:18:38	15.7	94.5
134944	2025-09-05T02:28:38	15.5	95.5
134945	2025-09-05T02:38:38	15.4	96
134946	2025-09-05T02:48:38	15.3	96.5
134947	2025-09-05T02:58:38	15.6	96
134948	2025-09-05T03:08:38	15.6	96
134949	2025-09-05T03:18:38	15.6	96.5
134950	2025-09-05T03:28:38	15.4	97
134951	2025-09-05T03:38:38	15.5	95.5
134952	2025-09-05T03:48:38	15.5	95.5
134953	2025-09-05T03:58:38	15.6	95.5
134954	2025-09-05T04:08:38	15.5	95.5
134955	2025-09-05T04:18:38	15.4	96
134956	2025-09-05T04:28:38	15.6	94.5
134957	2025-09-05T04:38:38	15.6	94.5
134958	2025-09-05T04:48:38	15.8	95
134959	2025-09-05T04:58:38	15.7	95
134960	2025-09-05T05:08:38	15.8	94.5
134961	2025-09-05T05:18:38	15.8	94.5
134962	2025-09-05T05:28:38	16	94.5
134963	2025-09-05T05:38:38	16	93
134964	2025-09-05T05:48:38	16.1	91.5
134965	2025-09-05T05:58:38	16.2	91.5
134966	2025-09-05T06:08:38	16.2	91.5
134967	2025-09-05T06:18:38	16.1	91
134968	2025-09-05T06:28:38	16.3	91.5
134969	2025-09-05T06:38:38	16.5	91.5
134970	2025-09-05T06:48:38	16.6	91.5
134971	2025-09-05T06:58:38	16.6	91
134972	2025-09-05T07:08:38	16.5	92
134973	2025-09-05T07:18:38	16.5	91.5
134974	2025-09-05T07:28:38	16.5	91
134975	2025-09-05T07:38:38	16.6	91.5
134976	2025-09-05T07:48:38	16.5	90.5
134977	2025-09-05T07:58:38	16.6	90.5
134978	2025-09-05T08:08:38	16.8	90
134979	2025-09-05T08:18:38	17	87
134980	2025-09-05T08:28:38	17	86.5
134981	2025-09-05T08:38:38	16.6	96
134982	2025-09-05T08:48:38	15.9	100
134983	2025-09-05T08:58:38	16.1	100
134984	2025-09-05T09:08:38	16.4	96.5
134985	2025-09-05T09:18:38	16.5	92
134986	2025-09-05T09:28:38	16.7	89
134987	2025-09-05T09:38:38	17.4	85.5
134988	2025-09-05T09:48:38	18.3	77
134989	2025-09-05T09:58:38	17.9	79
134990	2025-09-05T10:08:38	18	76.5
134991	2025-09-05T10:18:38	18.5	74
134992	2025-09-05T10:28:38	19.2	69.5
134993	2025-09-05T10:38:38	19.1	69.5
134994	2025-09-05T10:48:38	19.4	68
134995	2025-09-05T10:58:38	20.4	65.5
134996	2025-09-05T11:08:38	20.6	66
134997	2025-09-05T11:18:38	20.5	66
134998	2025-09-05T11:28:38	20.6	65.5
134999	2025-09-05T11:38:38	20.8	64
135000	2025-09-05T11:48:38	21.5	63
135001	2025-09-05T11:58:38	21.7	62.5
135002	2025-09-05T12:08:38	20.2	68
135003	2025-09-05T12:18:38	19.6	70.5
135004	2025-09-05T12:28:38	25.1	60.5
135005	2025-09-05T12:38:38	26.3	55
135006	2025-09-05T12:48:38	25.3	55
135007	2025-09-05T12:58:38	22.4	61.5
135008	2025-09-05T13:08:38	18.7	94
135009	2025-09-05T13:18:37	16.8	99.5
135010	2025-09-05T13:28:37	15.8	100
135011	2025-09-05T13:38:37	16.8	100
135012	2025-09-05T13:48:37	16.7	100
135013	2025-09-05T13:58:37	16.7	100
135014	2025-09-05T14:08:37	17.2	100
135015	2025-09-05T14:18:37	21.3	100
135016	2025-09-05T14:28:37	22.8	100
135017	2025-09-05T14:38:37	24.1	100
135018	2025-09-05T14:48:37	24.1	100
135019	2025-09-05T14:58:37	24.7	100
135020	2025-09-05T15:08:37	25.4	100
135021	2025-09-05T15:18:37	25.8	100
135022	2025-09-05T15:28:37	26.9	98
135023	2025-09-05T15:38:37	26.7	89
135024	2025-09-05T15:48:37	25.4	58
135025	2025-09-05T15:58:37	25.6	55.5
135026	2025-09-05T16:08:37	23.8	59.5
135027	2025-09-05T16:18:37	23.8	58.5
135028	2025-09-05T16:28:37	23.6	59.5
135029	2025-09-05T16:38:37	22.2	63.5
135030	2025-09-05T16:48:37	21.7	66.5
135031	2025-09-05T16:58:37	21.2	68
135032	2025-09-05T17:08:37	20.8	68.5
135033	2025-09-05T17:18:37	20.3	68.5
135034	2025-09-05T17:28:37	19.8	72
135035	2025-09-05T17:38:37	19.5	76
135036	2025-09-05T17:48:37	18.9	77
135037	2025-09-05T17:58:37	18.4	78.5
135038	2025-09-05T18:08:37	18.1	81
135039	2025-09-05T18:18:37	17.7	81.5
135040	2025-09-05T18:28:37	17.2	81.5
135041	2025-09-05T18:38:37	17	84.5
135042	2025-09-05T18:48:37	17	86
135043	2025-09-05T18:58:37	16.7	87.5
135044	2025-09-05T19:08:37	16.3	88
135045	2025-09-05T19:18:37	16.1	89
135046	2025-09-05T19:28:37	16	89
135047	2025-09-05T19:38:37	15.8	89.5
135048	2025-09-05T19:48:37	15.6	89.5
135049	2025-09-05T19:58:37	15.4	90.5
135050	2025-09-05T20:08:37	15.2	91
135051	2025-09-05T20:18:37	15	91.5
135052	2025-09-05T20:28:37	14.9	91
135053	2025-09-05T20:38:37	14.8	92
135054	2025-09-05T20:48:37	14.6	92
135055	2025-09-05T20:58:37	14.4	92
135056	2025-09-05T21:08:37	14.3	92
135057	2025-09-05T21:18:37	14.2	91.5
135058	2025-09-05T21:28:37	14	92.5
135059	2025-09-05T21:38:37	13.8	92.5
135060	2025-09-05T21:48:37	13.6	93
135061	2025-09-05T21:58:37	13.6	93.5
135062	2025-09-05T22:08:37	13.4	94
135063	2025-09-05T22:18:37	13.3	94
135064	2025-09-05T22:28:37	13.1	94.5
135065	2025-09-05T22:38:37	13	94.5
135066	2025-09-05T22:48:37	12.9	95
135067	2025-09-05T22:58:37	12.8	95
135068	2025-09-05T23:08:37	12.7	95
135069	2025-09-05T23:18:37	12.6	95
135070	2025-09-05T23:28:37	12.5	95.5
135071	2025-09-05T23:38:37	12.4	95.5
135072	2025-09-05T23:48:37	12.2	95
135073	2025-09-05T23:58:37	12.2	95.5
135074	2025-09-06T00:08:37	12.1	96
135075	2025-09-06T00:18:37	12	96
135076	2025-09-06T00:28:37	11.8	96
135077	2025-09-06T00:38:37	11.8	96
135078	2025-09-06T00:48:37	11.6	96.5
135079	2025-09-06T00:58:36	11.6	96.5
135080	2025-09-06T01:08:36	11.5	96.5
135081	2025-09-06T01:18:36	11.4	96.5
135082	2025-09-06T01:28:36	11.2	96.5
135083	2025-09-06T01:38:36	11.2	97
135084	2025-09-06T01:48:36	11.1	96.5
135085	2025-09-06T01:58:36	11.1	97
135086	2025-09-06T02:08:36	10.9	97
135087	2025-09-06T02:18:36	10.9	97
135088	2025-09-06T02:28:36	10.8	97
135089	2025-09-06T02:38:36	10.7	97
135090	2025-09-06T02:48:36	10.6	97.5
135091	2025-09-06T02:58:36	10.6	97.5
135092	2025-09-06T03:08:36	10.6	98
135093	2025-09-06T03:18:36	10.6	98.5
135094	2025-09-06T03:28:36	10.6	99
135095	2025-09-06T03:38:36	10.5	99
135096	2025-09-06T03:48:36	10.4	99
135097	2025-09-06T03:58:36	10.2	98.5
135098	2025-09-06T04:08:36	10.1	98.5
135099	2025-09-06T04:18:36	10	98
135100	2025-09-06T04:28:36	10	98
135101	2025-09-06T04:38:36	9.9	98.5
135102	2025-09-06T04:48:36	9.8	98.5
135103	2025-09-06T04:58:36	9.7	99
135104	2025-09-06T05:08:36	9.8	99
135105	2025-09-06T05:18:36	9.7	99
135106	2025-09-06T05:28:36	9.8	98.5
135107	2025-09-06T05:38:36	9.9	98.5
135108	2025-09-06T05:48:36	10.1	99
135109	2025-09-06T05:58:36	10.3	99.5
135110	2025-09-06T06:08:36	10.6	99.5
135111	2025-09-06T06:18:36	10.8	99
135112	2025-09-06T06:28:36	11.2	98
135113	2025-09-06T06:38:36	11.3	98
135114	2025-09-06T06:48:36	11.6	97.5
135115	2025-09-06T06:58:36	12	97
135116	2025-09-06T07:08:36	12.3	96
135117	2025-09-06T07:18:36	12.8	96.5
135118	2025-09-06T07:28:36	13.1	96
135119	2025-09-06T07:38:36	13.4	95
135120	2025-09-06T07:48:36	14	93.5
135121	2025-09-06T07:58:36	14.3	92.5
135122	2025-09-06T08:08:36	14.7	91
135123	2025-09-06T08:18:36	15	90.5
135124	2025-09-06T08:28:36	15.1	90
135125	2025-09-06T08:38:36	15.3	91
135126	2025-09-06T08:48:36	15.8	89.5
135127	2025-09-06T08:58:36	16.3	88
135128	2025-09-06T09:08:36	16.6	86
135129	2025-09-06T09:18:36	16.8	84.5
135130	2025-09-06T09:28:36	17.1	81.5
135131	2025-09-06T09:38:36	17.6	80
135132	2025-09-06T09:48:36	17.8	78.5
135133	2025-09-06T09:58:36	18	75
135134	2025-09-06T10:08:36	18.4	72.5
135135	2025-09-06T10:18:36	18.7	72.5
135136	2025-09-06T10:28:36	19	72
135137	2025-09-06T10:38:36	19.4	71.5
135138	2025-09-06T10:48:36	19.8	69.5
135139	2025-09-06T10:58:36	20.2	65.5
135140	2025-09-06T11:08:36	20.3	65.5
135141	2025-09-06T11:18:36	20.8	65
135142	2025-09-06T11:28:36	20.9	67
135143	2025-09-06T11:38:36	21.2	65.5
135144	2025-09-06T11:48:36	21.5	63
135145	2025-09-06T11:58:36	21.9	62
135146	2025-09-06T12:08:36	30.3	44
135147	2025-09-06T12:18:36	33	37.5
135148	2025-09-06T12:28:36	34.9	35
135149	2025-09-06T12:38:36	35.8	33.5
135150	2025-09-06T12:48:36	36.7	32.5
135151	2025-09-06T12:58:36	36.6	30.5
135152	2025-09-06T13:08:36	37	29.5
135153	2025-09-06T13:18:36	38.5	28
135154	2025-09-06T13:28:36	38.9	28
135155	2025-09-06T13:38:36	39	27.5
135156	2025-09-06T13:48:36	39.6	26.5
135157	2025-09-06T13:58:35	40	27
135158	2025-09-06T14:08:35	40.4	25.5
135159	2025-09-06T14:18:35	39.9	27
135160	2025-09-06T14:28:35	40.4	26.5
135161	2025-09-06T14:38:35	40.4	27
135162	2025-09-06T14:48:35	40.3	27.5
135163	2025-09-06T14:58:35	39.4	28
135164	2025-09-06T15:08:35	38.8	27.5
135165	2025-09-06T15:18:35	39.2	28.5
135166	2025-09-06T15:28:35	39.3	27.5
135167	2025-09-06T15:38:35	37	29.5
135168	2025-09-06T15:48:35	36	31
135169	2025-09-06T15:58:35	34.4	33.5
135170	2025-09-06T16:08:35	33.1	35
135171	2025-09-06T16:18:35	33.5	34
135172	2025-09-06T16:28:35	32.1	36.5
135173	2025-09-06T16:38:35	30.6	39
135174	2025-09-06T16:48:35	29.4	41
135175	2025-09-06T16:58:35	28.9	43
135176	2025-09-06T17:08:35	28.3	43
135177	2025-09-06T17:18:35	27.9	43
135178	2025-09-06T17:28:35	27.1	42.5
135179	2025-09-06T17:38:35	26.4	44
135180	2025-09-06T17:48:35	25.6	46.5
135181	2025-09-06T17:58:35	25	50.5
135182	2025-09-06T18:08:35	24.3	52.5
135183	2025-09-06T18:18:35	23.7	53
135184	2025-09-06T18:28:35	23.1	54.5
135185	2025-09-06T18:38:35	22.7	54.5
135186	2025-09-06T18:48:35	22.3	54
135187	2025-09-06T18:58:35	22.1	53.5
135188	2025-09-06T19:08:35	21.9	54
135189	2025-09-06T19:18:35	21.5	55.5
135190	2025-09-06T19:28:35	21.3	57
135191	2025-09-06T19:38:35	21.1	58.5
135192	2025-09-06T19:48:35	20.8	60
135193	2025-09-06T19:58:35	20.6	61
135194	2025-09-06T20:18:35	19.9	64
135195	2025-09-06T20:28:35	19.8	65
135196	2025-09-06T20:38:35	19.5	66.5
135197	2025-09-06T20:48:35	19.3	67
135198	2025-09-06T20:58:35	19.2	67
135199	2025-09-06T21:08:35	19	67.5
135200	2025-09-06T21:18:35	18.8	68
135201	2025-09-06T21:28:35	18.6	68
135202	2025-09-06T21:38:35	18.5	68.5
135203	2025-09-06T21:48:35	18.4	68.5
135204	2025-09-06T21:58:35	18.3	69
135205	2025-09-06T22:08:35	18.1	69
135206	2025-09-06T22:28:35	17.8	70.5
135207	2025-09-06T22:38:35	17.3	73
135208	2025-09-06T22:48:35	17.1	73.5
135209	2025-09-06T22:58:35	16.9	75
135210	2025-09-06T23:08:35	16.6	76
135211	2025-09-06T23:18:35	16.3	76.5
135212	2025-09-06T23:28:35	16.2	77.5
135213	2025-09-06T23:38:35	16	78
135214	2025-09-06T23:48:35	16	78.5
135215	2025-09-06T23:58:35	15.8	78
135216	2025-09-07T00:08:35	15.7	79
135217	2025-09-07T00:18:35	15.6	79
135218	2025-09-07T00:28:35	15.3	80
135219	2025-09-07T00:38:35	15.4	80.5
135220	2025-09-07T00:48:34	15.1	81
135221	2025-09-07T00:58:34	14.9	81
135222	2025-09-07T01:08:34	14.9	82
135223	2025-09-07T01:18:34	14.6	82.5
135224	2025-09-07T01:28:34	14.6	82.5
135225	2025-09-07T01:38:34	14.5	83
135226	2025-09-07T01:48:34	14.4	83
135227	2025-09-07T01:58:34	14.1	84
135228	2025-09-07T02:08:34	14.1	84.5
135229	2025-09-07T02:18:34	13.8	85
135230	2025-09-07T02:28:34	13.6	86
135231	2025-09-07T02:38:34	13.6	86
135232	2025-09-07T02:48:34	13.4	86.5
135233	2025-09-07T02:58:34	13.2	86.5
135234	2025-09-07T03:08:34	13.2	86.5
135235	2025-09-07T03:18:34	13	87.5
135236	2025-09-07T03:28:34	12.6	90.5
135237	2025-09-07T03:38:34	12.6	90
135238	2025-09-07T03:48:34	12.4	89.5
135239	2025-09-07T03:58:34	12.2	89.5
135240	2025-09-07T04:08:34	12.2	90
135241	2025-09-07T04:18:34	12.1	90.5
135242	2025-09-07T04:28:34	12	90
135243	2025-09-07T04:38:34	12	90
135244	2025-09-07T04:48:34	11.9	89.5
135245	2025-09-07T04:58:34	11.8	90.5
135246	2025-09-07T05:08:34	11.7	91
135247	2025-09-07T05:18:34	11.6	91
135248	2025-09-07T05:28:34	11.7	91.5
135249	2025-09-07T05:38:34	11.7	91
135250	2025-09-07T05:48:34	11.9	90.5
135251	2025-09-07T05:58:34	12	91
135252	2025-09-07T06:08:34	12.1	91
135253	2025-09-07T06:18:34	12.2	91
135254	2025-09-07T06:28:34	12.5	90.5
135255	2025-09-07T06:38:34	12.6	91
135256	2025-09-07T06:48:34	12.8	90.5
135257	2025-09-07T06:58:34	13.3	90
135258	2025-09-07T07:08:34	13.5	88.5
135259	2025-09-07T07:18:34	13.6	87.5
135260	2025-09-07T07:28:34	13.9	87.5
135261	2025-09-07T07:38:34	14.3	87.5
135262	2025-09-07T07:48:34	14.6	87
135263	2025-09-07T07:58:34	14.8	87
135264	2025-09-07T08:08:34	15	86
135265	2025-09-07T08:18:34	15.3	85
135266	2025-09-07T08:28:34	15.6	84.5
135267	2025-09-07T08:38:34	15.9	84
135268	2025-09-07T08:48:34	16.4	82.5
135269	2025-09-07T08:58:34	16.8	80.5
135270	2025-09-07T09:08:34	17	80.5
135271	2025-09-07T09:18:34	17.4	79
135272	2025-09-07T09:28:34	17.6	78.5
135273	2025-09-07T09:38:34	18.1	78.5
135274	2025-09-07T09:48:34	18.2	79
135275	2025-09-07T09:58:34	18.7	78
135276	2025-09-07T10:08:34	19.1	77
135277	2025-09-07T10:18:34	19.5	75
135278	2025-09-07T10:28:34	19.7	73.5
135279	2025-09-07T10:38:34	20.1	73
135280	2025-09-07T10:48:34	20.6	69.5
135281	2025-09-07T10:58:34	21	69
135282	2025-09-07T11:08:34	21.4	69.5
135283	2025-09-07T11:18:34	22	69
135284	2025-09-07T11:28:34	22.6	68
135285	2025-09-07T11:38:34	23.1	67
135286	2025-09-07T11:48:34	23.7	65
135287	2025-09-07T11:58:34	24.8	63
135288	2025-09-07T12:08:34	30.4	49.5
135289	2025-09-07T12:18:34	33	44
135290	2025-09-07T12:28:34	36	40
135291	2025-09-07T12:38:34	36.2	38.5
135292	2025-09-07T12:48:34	37.7	35.5
135293	2025-09-07T12:58:34	39.6	33
135294	2025-09-07T13:08:33	38.7	33.5
135295	2025-09-07T13:18:33	38.3	32
135296	2025-09-07T13:28:33	38.8	32.5
135297	2025-09-07T13:38:33	38.9	32
135298	2025-09-07T13:48:33	39.1	32.5
135299	2025-09-07T13:58:33	39.5	31.5
135300	2025-09-07T14:08:33	38.8	31.5
135301	2025-09-07T14:18:33	39.2	31.5
135302	2025-09-07T14:28:33	39.3	31.5
135303	2025-09-07T14:38:33	40.4	31
135304	2025-09-07T14:48:33	41.1	30
135305	2025-09-07T14:58:33	40.4	30.5
135306	2025-09-07T15:08:33	40	30.5
135307	2025-09-07T15:18:33	39.2	32
135308	2025-09-07T15:28:33	38.6	32.5
135309	2025-09-07T15:38:33	38.7	33
135310	2025-09-07T15:48:33	38.2	33.5
135311	2025-09-07T15:58:33	37.9	33
135312	2025-09-07T16:08:33	37	34.5
135313	2025-09-07T16:18:33	35.4	37
135314	2025-09-07T16:28:33	33.6	39
135315	2025-09-07T16:38:33	32.2	41.5
135316	2025-09-07T16:48:33	31	43
135317	2025-09-07T16:58:33	30.4	43
135318	2025-09-07T17:08:33	30.1	44
135319	2025-09-07T17:18:33	29.2	46
135320	2025-09-07T17:28:33	28.6	47.5
135321	2025-09-07T17:38:33	28	48.5
135322	2025-09-07T17:48:33	27.3	50
135323	2025-09-07T17:58:33	26.6	52
135324	2025-09-07T18:08:33	26	53
135325	2025-09-07T18:18:33	25.6	53.5
135326	2025-09-07T18:28:33	25.3	52.5
135327	2025-09-07T18:38:33	24.9	54
135328	2025-09-07T18:48:33	24.6	54.5
135329	2025-09-07T18:58:33	24.3	55.5
135330	2025-09-07T19:08:33	23.8	58.5
135331	2025-09-07T19:18:33	23.4	61.5
135332	2025-09-07T19:28:33	23	63
135333	2025-09-07T19:38:33	22.6	64.5
135334	2025-09-07T19:48:33	22.4	64.5
135335	2025-09-07T19:58:33	22.1	66.5
135336	2025-09-07T20:08:33	21.8	67.5
135337	2025-09-07T20:18:33	21.6	68.5
135338	2025-09-07T20:28:33	21.2	69.5
135339	2025-09-07T20:38:33	21	69.5
135340	2025-09-07T20:48:33	20.9	70.5
135341	2025-09-07T20:58:33	20.6	71.5
135342	2025-09-07T21:08:33	20.5	72
135343	2025-09-07T21:18:33	20.2	73
135344	2025-09-07T21:28:33	20	73.5
135345	2025-09-07T21:38:33	19.8	74
135346	2025-09-07T21:48:33	19.5	74
135347	2025-09-07T21:58:33	19.2	75
135348	2025-09-07T22:08:33	18.9	76
135349	2025-09-07T22:18:33	18.7	76
135350	2025-09-07T22:28:33	18.6	77
135351	2025-09-07T22:38:33	18.4	77
135352	2025-09-07T22:48:33	18.1	77.5
135353	2025-09-07T22:58:33	18	79
135354	2025-09-07T23:08:33	17.7	79.5
135355	2025-09-07T23:18:33	17.6	79.5
135356	2025-09-07T23:28:33	17.4	80.5
135357	2025-09-07T23:38:33	17.2	81
135358	2025-09-07T23:48:32	17.1	81.5
135359	2025-09-07T23:58:32	16.9	82
135360	2025-09-08T00:08:32	16.9	82.5
135361	2025-09-08T00:18:32	16.8	82.5
135362	2025-09-08T00:28:32	16.8	82.5
135363	2025-09-08T00:38:32	16.7	83
135364	2025-09-08T00:48:32	16.5	83.5
135365	2025-09-08T00:58:32	16.3	84
135366	2025-09-08T01:08:32	16.2	83.5
135367	2025-09-08T01:18:32	15.8	85.5
135368	2025-09-08T01:28:32	16	85
135369	2025-09-08T01:38:32	15.8	86
135370	2025-09-08T01:48:32	15.8	85.5
135371	2025-09-08T01:58:32	15.7	86
135372	2025-09-08T02:08:32	15.6	86
135373	2025-09-08T02:18:32	15.5	86.5
135374	2025-09-08T02:28:32	15.5	86.5
135375	2025-09-08T02:38:32	15.5	87
135376	2025-09-08T02:48:32	15.3	87.5
135377	2025-09-08T02:58:32	15.4	87
135378	2025-09-08T03:08:32	15.4	87
135379	2025-09-08T03:18:32	15.1	88.5
135380	2025-09-08T03:28:32	14.9	89.5
135381	2025-09-08T03:38:32	15	89.5
135382	2025-09-08T03:48:32	15	89.5
135383	2025-09-08T03:58:32	15	89
135384	2025-09-08T04:08:32	15.1	89
135385	2025-09-08T04:18:32	15.2	89
135386	2025-09-08T04:28:32	15.2	89.5
135387	2025-09-08T04:38:32	15.3	89
135388	2025-09-08T04:48:32	15.2	89
135389	2025-09-08T04:58:32	15.3	89.5
135390	2025-09-08T05:08:32	15.4	89.5
135391	2025-09-08T05:18:32	15.4	89.5
135392	2025-09-08T05:28:32	15.5	89.5
135393	2025-09-08T05:38:32	15.6	89
135394	2025-09-08T05:48:32	15.7	89.5
135395	2025-09-08T05:58:32	15.7	91
135396	2025-09-08T06:08:32	15.8	92
135397	2025-09-08T06:18:32	15.8	92.5
135398	2025-09-08T06:28:32	16.2	91.5
135399	2025-09-08T06:38:32	16.6	90
135400	2025-09-08T06:48:32	16.7	90.5
135401	2025-09-08T06:58:32	16.1	98
135402	2025-09-08T07:08:32	16.1	99
135403	2025-09-08T07:18:32	16.1	98.5
135404	2025-09-08T07:28:32	16.5	99
135405	2025-09-08T07:38:32	16.8	98
135406	2025-09-08T07:48:52	17.1	97.5
135407	2025-09-08T07:58:32	17.5	98
135408	2025-09-08T08:08:32	17.8	95.5
135409	2025-09-08T08:18:32	18.1	94
135410	2025-09-08T08:28:32	18.2	93.5
135411	2025-09-08T08:38:32	18	93
135412	2025-09-08T08:48:32	17.9	93.5
135413	2025-09-08T08:58:32	18.1	94
135414	2025-09-08T09:08:32	18.2	94
135415	2025-09-08T09:18:32	18.5	94
135416	2025-09-08T09:28:32	18.8	93
135417	2025-09-08T09:38:32	18.7	97
135418	2025-09-08T09:48:32	18.7	95
135419	2025-09-08T09:58:32	18.5	95.5
135420	2025-09-08T10:08:32	18.2	100
135421	2025-09-08T10:18:32	18	100
135422	2025-09-08T10:28:32	18.2	100
135423	2025-09-08T10:38:32	18.3	100
135424	2025-09-08T10:48:32	18.3	100
135425	2025-09-08T10:58:32	18.6	100
135426	2025-09-08T11:08:32	18.9	100
135427	2025-09-08T11:18:31	18.8	100
135428	2025-09-08T11:28:31	18.9	100
135429	2025-09-08T11:38:31	19	100
135430	2025-09-08T11:48:31	19.1	100
135431	2025-09-08T11:58:31	18.9	100
135432	2025-09-08T12:08:31	18.8	100
135433	2025-09-08T12:18:32	18.8	100
135434	2025-09-08T12:28:31	18.8	100
135435	2025-09-08T12:38:31	18.9	100
135436	2025-09-08T12:48:31	18.9	100
135437	2025-09-08T12:58:31	19	100
135438	2025-09-08T13:08:31	18.9	100
135439	2025-09-08T13:18:31	19.2	100
135440	2025-09-08T13:28:31	19.3	99
135441	2025-09-08T13:38:31	19.5	98
135442	2025-09-08T13:48:31	19.7	96.5
135443	2025-09-08T13:58:31	19.9	95
135444	2025-09-08T14:08:31	20.6	92.5
135445	2025-09-08T14:18:31	20.7	92.5
135446	2025-09-08T14:28:31	21	90.5
135447	2025-09-08T14:38:31	22	86.5
135448	2025-09-08T14:48:31	22.1	87
135449	2025-09-08T14:58:31	22.6	85
135450	2025-09-08T15:08:31	22.5	85
135451	2025-09-08T15:18:31	23.8	80
135452	2025-09-08T15:28:31	23.8	82.5
135453	2025-09-08T15:38:31	25.1	77
135454	2025-09-08T15:48:31	25.6	74
135455	2025-09-08T15:58:31	24.9	75.5
135456	2025-09-08T16:08:31	24.5	76
135457	2025-09-08T16:18:31	23.8	79
135458	2025-09-08T16:28:31	23.3	80.5
135459	2025-09-08T16:38:31	23.1	81.5
135460	2025-09-08T16:48:31	22.9	84.5
135461	2025-09-08T16:58:31	22.7	86
135462	2025-09-08T17:08:31	22.4	86
135463	2025-09-08T17:18:31	22.1	86
135464	2025-09-08T17:28:31	21.9	87
135465	2025-09-08T17:38:31	21.4	87.5
135466	2025-09-08T17:48:31	21.2	88.5
135467	2025-09-08T17:58:31	21	90
135468	2025-09-08T18:08:31	20.8	89
135469	2025-09-08T18:18:31	20.5	90.5
135470	2025-09-08T18:28:31	20.3	91
135471	2025-09-08T18:38:31	20.2	92
135472	2025-09-08T18:48:31	19.9	92
135473	2025-09-08T18:58:31	19.7	92
135474	2025-09-08T19:08:31	19.6	93
135475	2025-09-08T19:18:31	19.2	94
135476	2025-09-08T19:28:31	19.1	94.5
135477	2025-09-08T19:38:31	18.9	94
135478	2025-09-08T19:48:31	18.8	93.5
135479	2025-09-08T19:58:31	18.8	94
135480	2025-09-08T20:08:31	18.6	95
135481	2025-09-08T20:18:31	18.5	95.5
135482	2025-09-08T20:28:31	18.4	95.5
135483	2025-09-08T20:38:31	18.2	96
135484	2025-09-08T20:48:31	18.2	95
135485	2025-09-08T20:58:31	18	96
135486	2025-09-08T21:08:31	17.8	96.5
135487	2025-09-08T21:18:31	17.7	96
135488	2025-09-08T21:28:31	17.6	96.5
135489	2025-09-08T21:38:31	17.6	96.5
135490	2025-09-08T21:48:31	17.4	96.5
135491	2025-09-08T21:58:30	17.3	96.5
135492	2025-09-08T22:08:30	17.2	97
135493	2025-09-08T22:18:30	17.1	98
135494	2025-09-08T22:28:30	17.2	99
135495	2025-09-08T22:38:30	17.4	98
135496	2025-09-08T22:48:30	17.4	98
135497	2025-09-08T22:58:30	17.4	98.5
135498	2025-09-08T23:08:30	17.4	98
135499	2025-09-08T23:18:30	17.5	98
135500	2025-09-08T23:28:30	17.4	97.5
135501	2025-09-08T23:38:30	17.3	97.5
135502	2025-09-08T23:48:30	17.3	97.5
135503	2025-09-08T23:58:30	17.4	97
135504	2025-09-09T00:08:30	17.4	97
135505	2025-09-09T00:18:30	17.3	97
135506	2025-09-09T00:28:30	17.3	97.5
135507	2025-09-09T00:38:30	17.3	98
135508	2025-09-09T00:48:30	17.3	97.5
135509	2025-09-09T00:58:30	17.4	97.5
135510	2025-09-09T01:08:30	17.4	97.5
135511	2025-09-09T01:28:30	17.2	98
135512	2025-09-09T01:48:30	17	99
135513	2025-09-09T01:58:30	16.9	99
135514	2025-09-09T02:08:30	16.8	99.5
135515	2025-09-09T02:18:30	16.8	99.5
135516	2025-09-09T02:28:30	16.7	99.5
135517	2025-09-09T02:58:30	16.5	98.5
135518	2025-09-09T03:08:30	16.4	98
135519	2025-09-09T03:18:30	16.4	98
135520	2025-09-09T03:28:30	16.2	98
135521	2025-09-09T03:38:30	16.2	98.5
135522	2025-09-09T03:48:30	16.1	98.5
135523	2025-09-09T03:58:30	16.1	98.5
135524	2025-09-09T04:08:52	16.1	98.5
135525	2025-09-09T04:18:30	16	98.5
135526	2025-09-09T04:28:30	16.1	98.5
135527	2025-09-09T04:38:30	16.2	98
135528	2025-09-09T04:48:30	16.1	98
135529	2025-09-09T04:58:30	16.1	98
135530	2025-09-09T05:08:30	16.2	98
135531	2025-09-09T05:18:30	16.1	98
135532	2025-09-09T05:28:30	16.2	98
135533	2025-09-09T05:38:30	16.3	98
135534	2025-09-09T05:48:30	16.4	98
135535	2025-09-09T05:58:30	16.2	98
135536	2025-09-09T06:08:30	16.2	98
135537	2025-09-09T06:18:30	16.2	99.5
135538	2025-09-09T06:28:30	16	100
135539	2025-09-09T06:38:30	16	100
135540	2025-09-09T06:48:30	15.9	100
135541	2025-09-09T06:58:30	15.9	100
135542	2025-09-09T07:08:30	15.9	100
135543	2025-09-09T07:18:30	15.9	100
135544	2025-09-09T07:28:30	16	100
135545	2025-09-09T07:38:30	16.1	100
135546	2025-09-09T07:48:30	15.8	99
135547	2025-09-09T07:58:30	15.5	98
135548	2025-09-09T08:08:30	15.3	97
135549	2025-09-09T08:18:30	15	97
135550	2025-09-09T08:28:30	14.9	97
135551	2025-09-09T08:38:30	14.9	97
135552	2025-09-09T08:48:30	14.9	97
135553	2025-09-09T08:58:30	14.9	96.5
135554	2025-09-09T09:08:30	14.9	96.5
135555	2025-09-09T09:18:30	14.8	97
135556	2025-09-09T09:28:30	14.9	97
135557	2025-09-09T09:38:30	14.9	97
135558	2025-09-09T09:48:29	15	97
135559	2025-09-09T09:58:29	14.9	96.5
135560	2025-09-09T10:08:29	15.1	96.5
135561	2025-09-09T10:18:29	15.3	97
135562	2025-09-09T10:28:29	15.5	97
135563	2025-09-09T10:38:29	15.6	97
135564	2025-09-09T10:48:29	15.7	97
135565	2025-09-09T10:58:29	16.3	97
135566	2025-09-09T11:08:29	16.7	96.5
135567	2025-09-09T11:18:29	17.2	97
135568	2025-09-09T11:28:29	17.2	97
135569	2025-09-09T11:38:29	17.3	97
135570	2025-09-09T11:48:29	17.6	97
135571	2025-09-09T11:58:29	18.2	97
135572	2025-09-09T12:08:29	22.2	97
135573	2025-09-09T12:18:29	20.5	97
135574	2025-09-09T12:28:29	21.7	97
135575	2025-09-09T12:38:29	23.6	96.5
135576	2025-09-09T12:48:29	22.3	96.5
135577	2025-09-09T12:58:29	21.1	96.5
135578	2025-09-09T13:08:29	19.9	96.5
135579	2025-09-09T13:18:29	24.5	96.5
135580	2025-09-09T13:28:29	24.8	96.5
135581	2025-09-09T13:38:29	21.9	99.5
135582	2025-09-09T13:48:29	26.1	99.5
135583	2025-09-09T13:58:29	26	97.5
135584	2025-09-09T14:08:29	25.8	97
135585	2025-09-09T14:18:29	25.2	58
135586	2025-09-09T14:28:29	23.6	61
135587	2025-09-09T14:38:29	25.7	57.5
135588	2025-09-09T14:48:29	26.2	55.5
135589	2025-09-09T14:58:29	27.6	52.5
135590	2025-09-09T15:08:29	27.8	51
135591	2025-09-09T15:18:29	27.3	52
135592	2025-09-09T15:28:29	27.9	49
135593	2025-09-09T15:38:29	29.1	46
135594	2025-09-09T15:48:29	29	45.5
135595	2025-09-09T15:58:29	28.4	46.5
135596	2025-09-09T16:08:29	27.7	49
135597	2025-09-09T16:18:29	26.1	52.5
135598	2025-09-09T16:28:29	25.1	54.5
135599	2025-09-09T16:38:29	24.1	57.5
135600	2025-09-09T16:48:29	23.1	59
135601	2025-09-09T16:58:29	22.6	61.5
135602	2025-09-09T17:08:29	22.7	62.5
135603	2025-09-09T17:18:29	22.2	66
135604	2025-09-09T17:28:29	21.9	70.5
135605	2025-09-09T17:38:29	21.3	71.5
135606	2025-09-09T17:48:29	20.9	76.5
135607	2025-09-09T17:58:29	20.3	80
135608	2025-09-09T18:08:29	19.9	79
135609	2025-09-09T18:18:29	19.5	82
135610	2025-09-09T18:28:29	19.1	80.5
135611	2025-09-09T18:38:29	18.8	82.5
135612	2025-09-09T18:48:29	18.7	83
135613	2025-09-09T18:58:29	18.5	84
135614	2025-09-09T19:08:29	18.4	84
135615	2025-09-09T19:18:29	18.2	85
135616	2025-09-09T19:28:29	17.7	85.5
135617	2025-09-09T19:38:29	17.4	86
135618	2025-09-09T19:48:29	17.1	87.5
135619	2025-09-09T19:58:29	16.9	88.5
135620	2025-09-09T20:08:29	16.7	89
135621	2025-09-09T20:18:28	16.5	90
135622	2025-09-09T20:28:29	16.4	91
135623	2025-09-09T20:38:28	16.1	91
135624	2025-09-09T20:48:28	16	92
135625	2025-09-09T20:58:28	15.9	91.5
135626	2025-09-09T21:08:28	15.7	92
135627	2025-09-09T21:18:28	15.4	92
135628	2025-09-09T21:28:28	15.3	93
135629	2025-09-09T21:38:28	15.1	93.5
135630	2025-09-09T21:48:28	15.1	94
135631	2025-09-09T21:58:28	14.8	94.5
135632	2025-09-09T22:08:28	14.8	94.5
135633	2025-09-09T22:18:28	14.5	95
135634	2025-09-09T22:28:28	14.4	95
135635	2025-09-09T22:38:28	14.4	95
135636	2025-09-09T22:48:28	14.3	94.5
135637	2025-09-09T22:58:28	14	95
135638	2025-09-09T23:08:28	13.9	95
135639	2025-09-09T23:18:28	13.8	95
135640	2025-09-09T23:28:28	13.8	95.5
135641	2025-09-09T23:38:28	13.7	95.5
135642	2025-09-09T23:48:28	13.6	96
135643	2025-09-09T23:58:28	13.4	96.5
135644	2025-09-10T00:08:28	13.3	96.5
135645	2025-09-10T00:18:28	13.2	97
135646	2025-09-10T00:28:28	13	98
135647	2025-09-10T00:38:28	12.9	97.5
135648	2025-09-10T00:48:28	12.8	98
135649	2025-09-10T00:58:28	12.7	97
135650	2025-09-10T01:08:28	12.6	97
135651	2025-09-10T01:18:28	12.5	96.5
135652	2025-09-10T01:28:28	12.4	97
135653	2025-09-10T01:38:28	12.5	97
135654	2025-09-10T01:48:28	12.3	97
135655	2025-09-10T01:58:28	12.3	97.5
135656	2025-09-10T02:08:28	12.3	97
135657	2025-09-10T02:18:28	12.1	97.5
135658	2025-09-10T02:28:28	12.1	97
135659	2025-09-10T02:38:28	11.9	97
135660	2025-09-10T02:48:28	11.6	98
135661	2025-09-10T02:58:28	11.7	99
135662	2025-09-10T03:08:28	11.9	98.5
135663	2025-09-10T03:18:28	11.9	99
135664	2025-09-10T03:28:28	11.6	99
135665	2025-09-10T03:38:28	11.5	99.5
135666	2025-09-10T03:48:28	11.5	98
135667	2025-09-10T03:58:28	11.3	98.5
135668	2025-09-10T04:08:28	11.3	98.5
135669	2025-09-10T04:18:28	11.1	99
135670	2025-09-10T04:28:28	11.1	99
135671	2025-09-10T04:38:28	11.1	99
135672	2025-09-10T04:48:28	11	99
135673	2025-09-10T04:58:28	10.9	99
135674	2025-09-10T05:08:28	11.1	99.5
135675	2025-09-10T05:18:28	11.4	99
135676	2025-09-10T05:28:28	11.5	98.5
135677	2025-09-10T05:38:28	11.7	98.5
135678	2025-09-10T05:48:28	11.8	98
135679	2025-09-10T05:58:28	11.9	97.5
135680	2025-09-10T06:08:28	12.1	96.5
135681	2025-09-10T06:18:28	12.3	96.5
135682	2025-09-10T06:28:28	12.5	97.5
135683	2025-09-10T06:38:28	12.6	97.5
135684	2025-09-10T06:48:28	12.8	97
135685	2025-09-10T06:58:28	13	97
135686	2025-09-10T07:08:28	13.3	96.5
135687	2025-09-10T07:18:28	13.7	95
135688	2025-09-10T07:28:28	13.9	94.5
135689	2025-09-10T07:38:28	14	94
135690	2025-09-10T07:48:28	14.2	93.5
135691	2025-09-10T07:58:28	14.5	93.5
135692	2025-09-10T08:08:28	14.8	92.5
135693	2025-09-10T08:18:28	14.9	92
135694	2025-09-10T08:28:28	14.9	92
135695	2025-09-10T08:38:28	15.1	91.5
135696	2025-09-10T08:48:28	15.4	90.5
135697	2025-09-10T08:58:28	15.7	90
135698	2025-09-10T09:08:28	16.2	89
135699	2025-09-10T09:18:28	17	86
135700	2025-09-10T09:28:28	17.5	85
135701	2025-09-10T09:38:28	18	83.5
135702	2025-09-10T09:48:27	18.5	82.5
135703	2025-09-10T09:58:27	19	80
135704	2025-09-10T10:08:27	19.2	81
135705	2025-09-10T10:18:27	19.7	79.5
135706	2025-09-10T10:28:27	19.3	79
135707	2025-09-10T10:38:27	19.6	79.5
135708	2025-09-10T10:48:27	19.9	79
135709	2025-09-10T10:58:27	20.2	77
135710	2025-09-10T11:08:27	20.1	78.5
135711	2025-09-10T11:18:27	20.2	77.5
135712	2025-09-10T11:28:27	20	78.5
135713	2025-09-10T11:38:27	20.1	78.5
135714	2025-09-10T11:48:27	21.1	75.5
135715	2025-09-10T11:58:27	21.4	74
135716	2025-09-10T12:08:27	22.4	72
135717	2025-09-10T12:18:27	22.1	71.5
135718	2025-09-10T12:28:27	24.1	68.5
135719	2025-09-10T12:38:27	26.9	59.5
135720	2025-09-10T12:48:27	29.9	52.5
135721	2025-09-10T12:58:27	33.2	44.5
135722	2025-09-10T13:08:27	34	43.5
135723	2025-09-10T13:18:27	36.1	40
135724	2025-09-10T13:28:27	36	39
135725	2025-09-10T13:38:27	36.6	38.5
135726	2025-09-10T13:48:27	37.7	36.5
135727	2025-09-10T13:58:27	34.5	41
135728	2025-09-10T14:08:27	34.8	41
135729	2025-09-10T14:18:27	36.1	38
135730	2025-09-10T14:28:27	36.4	38.5
135731	2025-09-10T14:38:27	36.7	37
135732	2025-09-10T14:48:27	36.8	37.5
135733	2025-09-10T14:58:27	36.7	37.5
135734	2025-09-10T15:08:27	35.1	39
135735	2025-09-10T15:18:27	35.6	38.5
135736	2025-09-10T15:28:27	35.5	40
135737	2025-09-10T15:38:27	36	38
135738	2025-09-10T15:48:27	35	39.5
135739	2025-09-10T15:58:27	34.9	39
135740	2025-09-10T16:08:27	34.6	39.5
135741	2025-09-10T16:18:27	32.2	43
135742	2025-09-10T16:28:27	30.1	47.5
135743	2025-09-10T16:38:27	29.3	51
135744	2025-09-10T16:48:27	28.2	52
135745	2025-09-10T16:58:27	27.2	55.5
135746	2025-09-10T17:08:27	26.4	57.5
135747	2025-09-10T17:18:27	25.9	60
135748	2025-09-10T17:28:27	25.2	62
135749	2025-09-10T17:38:27	24.7	63.5
135750	2025-09-10T17:48:27	23.7	67.5
135751	2025-09-10T17:58:27	22.7	70
135752	2025-09-10T18:08:27	22.6	70
135753	2025-09-10T18:18:27	22.3	71
135754	2025-09-10T18:28:27	21.8	72.5
135755	2025-09-10T18:38:27	21.6	73.5
135756	2025-09-10T18:48:27	21.2	75
135757	2025-09-10T18:58:27	20.9	75.5
135758	2025-09-10T19:08:27	20.5	76
135759	2025-09-10T19:18:27	20.2	77.5
135760	2025-09-10T19:28:27	19.9	78
135761	2025-09-10T19:38:27	19.7	78
135762	2025-09-10T19:48:27	19.5	79
135763	2025-09-10T19:58:27	19.2	79.5
135764	2025-09-10T20:08:26	18.8	80
135765	2025-09-10T20:18:26	18.6	81
135766	2025-09-10T20:28:26	18.3	81.5
135767	2025-09-10T20:38:26	18	81.5
135768	2025-09-10T20:48:26	18	82
135769	2025-09-10T20:58:26	17.7	83
135770	2025-09-10T21:08:26	17.6	83.5
135771	2025-09-10T21:18:26	17.4	83
135772	2025-09-10T21:28:26	17.1	83.5
135773	2025-09-10T21:38:26	16.9	84.5
135774	2025-09-10T21:48:26	16.7	84.5
135775	2025-09-10T21:58:26	16.5	85
135776	2025-09-10T22:08:26	16.2	85.5
135777	2025-09-10T22:18:26	16.1	85.5
135778	2025-09-10T22:28:26	16.1	86
135779	2025-09-10T22:38:26	15.9	86
135780	2025-09-10T22:48:26	15.8	86
135781	2025-09-10T22:58:26	15.8	86
135782	2025-09-10T23:18:26	15.4	87.5
135783	2025-09-10T23:28:26	15.3	87.5
135784	2025-09-10T23:38:26	15.1	88.5
135785	2025-09-10T23:48:26	15	88
135786	2025-09-10T23:58:26	14.9	88.5
135787	2025-09-11T00:08:26	14.8	88.5
135788	2025-09-11T00:18:26	14.7	89
135789	2025-09-11T00:28:26	14.6	89.5
135790	2025-09-11T00:38:26	14.5	89.5
135791	2025-09-11T00:48:26	14.4	89.5
135792	2025-09-11T00:58:26	14.7	89.5
135793	2025-09-11T01:08:26	14.8	89.5
135794	2025-09-11T01:18:26	14.9	89.5
135795	2025-09-11T01:28:26	14.9	89.5
135796	2025-09-11T01:38:26	14.9	90.5
135797	2025-09-11T01:48:26	14.9	90.5
135798	2025-09-11T01:58:26	15	90.5
135799	2025-09-11T02:08:26	15.1	90.5
135800	2025-09-11T02:18:26	15	91
135801	2025-09-11T02:28:26	15.1	91
135802	2025-09-11T02:38:26	15.1	91.5
135803	2025-09-11T02:48:26	15.1	91.5
135804	2025-09-11T02:58:26	15	91.5
135805	2025-09-11T03:08:26	15.2	92
135806	2025-09-11T03:18:26	15	92
135807	2025-09-11T03:38:26	15.1	92.5
135808	2025-09-11T03:48:26	15.1	92.5
135809	2025-09-11T03:58:26	15.1	93
135810	2025-09-11T04:08:26	15.1	93
135811	2025-09-11T04:18:26	15.1	96
135812	2025-09-11T04:28:26	15.1	95.5
135813	2025-09-11T04:38:26	15	96
135814	2025-09-11T04:48:26	15	95.5
135815	2025-09-11T04:58:26	14.8	100
135816	2025-09-11T05:08:26	14.9	100
135817	2025-09-11T05:18:26	14.8	100
135818	2025-09-11T05:28:26	14.8	100
135819	2025-09-11T05:38:26	14.9	100
135820	2025-09-11T05:48:26	15	100
135821	2025-09-11T05:58:26	15	100
135822	2025-09-11T06:08:26	15.2	100
135823	2025-09-11T06:18:26	15.4	100
135824	2025-09-11T06:28:26	15.7	100
135825	2025-09-11T06:38:26	15.8	100
135826	2025-09-11T06:48:26	16	100
135827	2025-09-11T06:58:26	16.4	100
135828	2025-09-11T07:08:26	16.6	100
135829	2025-09-11T07:18:26	16.7	100
135830	2025-09-11T07:28:26	16.8	100
135831	2025-09-11T07:38:26	16.7	100
135832	2025-09-11T07:48:26	16.4	100
135833	2025-09-11T08:08:26	16.7	100
135834	2025-09-11T08:28:25	17.1	100
135835	2025-09-11T08:38:25	17.8	100
135836	2025-09-11T08:48:25	17.8	90
135837	2025-09-11T08:58:25	17.6	87.5
135838	2025-09-11T09:08:25	17.7	86.5
135839	2025-09-11T09:18:25	18	77
135840	2025-09-11T09:28:25	18.5	74
135841	2025-09-11T09:38:25	18.5	75
135842	2025-09-11T09:48:25	18.1	68.5
135843	2025-09-11T09:58:25	18.1	70.5
135844	2025-09-11T10:08:25	17.8	71.5
135845	2025-09-11T10:18:25	17.9	73.5
135846	2025-09-11T10:28:25	18.5	72.5
135847	2025-09-11T10:38:25	18.7	73.5
135848	2025-09-11T10:48:25	18.2	79.5
135849	2025-09-11T10:58:25	18.1	80
135850	2025-09-11T11:08:25	16.8	93
135851	2025-09-11T11:18:25	17.5	83
135852	2025-09-11T11:28:25	18.6	76
135853	2025-09-11T11:38:25	18.7	74.5
135854	2025-09-11T11:48:25	18.3	75.5
135855	2025-09-11T11:58:25	16.7	95
135856	2025-09-11T12:08:25	18.8	92
135857	2025-09-11T12:18:25	17.9	87.5
135858	2025-09-11T12:28:25	17.5	92
135859	2025-09-11T12:38:25	19	82
135860	2025-09-11T12:48:25	18.7	74.5
135861	2025-09-11T12:58:25	19.1	72.5
135862	2025-09-11T13:08:25	21.1	65
135863	2025-09-11T13:18:25	21.2	62.5
135864	2025-09-11T13:28:25	22.7	58
135865	2025-09-11T13:38:25	23.9	54
135866	2025-09-11T13:48:25	24.5	52
135867	2025-09-11T13:58:25	26.3	49.5
135868	2025-09-11T14:08:25	25.6	50
135869	2025-09-11T14:18:25	25.4	49.5
135870	2025-09-11T14:28:25	25.4	44.5
135871	2025-09-11T14:38:25	26	43
135872	2025-09-11T14:58:25	24.3	46
135873	2025-09-11T15:08:25	22.5	50.5
135874	2025-09-11T15:18:25	21.9	53
135875	2025-09-11T15:28:25	21.7	54.5
135876	2025-09-11T15:38:25	24.6	47.5
135877	2025-09-11T15:48:25	24.5	47.5
135878	2025-09-11T15:58:25	24.6	48
135879	2025-09-11T16:18:25	23.4	50
135880	2025-09-11T16:28:25	21.8	54.5
135881	2025-09-11T16:38:25	21.1	57
135882	2025-09-11T16:48:25	20.6	59.5
135883	2025-09-11T16:58:25	20.5	61.5
135884	2025-09-11T17:08:25	20	61
135885	2025-09-11T17:18:25	19.7	62
135886	2025-09-11T17:28:25	19.4	62.5
135887	2025-09-11T17:38:25	19.1	64
135888	2025-09-11T17:48:25	18.8	65
135889	2025-09-11T17:58:25	18.6	64.5
135890	2025-09-11T18:08:25	18.8	64.5
135891	2025-09-11T18:18:25	18.7	66
135892	2025-09-11T18:28:25	18.3	67
135893	2025-09-11T18:38:25	18	69
135894	2025-09-11T18:48:25	17.8	69.5
135895	2025-09-11T18:58:24	17.8	69
135896	2025-09-11T19:08:24	18	68
135897	2025-09-11T19:18:24	18	68
135898	2025-09-11T19:28:24	17.7	69
135899	2025-09-11T19:38:24	17.6	69.5
135900	2025-09-11T19:48:24	17.7	70.5
135901	2025-09-11T19:58:25	17.5	70.5
135902	2025-09-11T20:08:24	17.4	71.5
135903	2025-09-11T20:18:24	17.3	72
135904	2025-09-11T20:28:24	17.1	72
135905	2025-09-11T20:38:24	16.7	73.5
135906	2025-09-11T20:48:24	16.6	74.5
135907	2025-09-11T20:58:24	16.3	75.5
135908	2025-09-11T21:08:24	16.1	78.5
135909	2025-09-11T21:18:24	16.1	80
135910	2025-09-11T21:28:24	15.7	80.5
135911	2025-09-11T21:38:24	15.7	82
135912	2025-09-11T21:48:24	15.5	82.5
135913	2025-09-11T21:58:24	15.7	82.5
135914	2025-09-11T22:08:24	15.4	84
135915	2025-09-11T22:18:24	15.8	79
135916	2025-09-11T22:28:24	16.7	74.5
135917	2025-09-11T22:38:24	17	73.5
135918	2025-09-11T22:48:24	17.2	73.5
135919	2025-09-11T22:58:24	17.4	71.5
135920	2025-09-11T23:08:24	17.6	70.5
135921	2025-09-11T23:18:24	17.6	70
135922	2025-09-11T23:28:24	17.6	70
135923	2025-09-11T23:38:24	17.6	70.5
135924	2025-09-11T23:48:24	17.3	76
135925	2025-09-11T23:58:24	17.3	72
135926	2025-09-12T00:08:24	17.4	72
135927	2025-09-12T00:18:24	17.4	71.5
135928	2025-09-12T00:28:24	17.3	72.5
135929	2025-09-12T00:38:24	17.2	73.5
135930	2025-09-12T00:48:24	17.2	74
135931	2025-09-12T00:58:24	16.9	86
135932	2025-09-12T01:08:24	14.9	99.5
135933	2025-09-12T01:18:24	14.6	100
135934	2025-09-12T01:28:24	14.8	100
135935	2025-09-12T01:38:24	14.7	100
135936	2025-09-12T01:48:24	14.6	100
135937	2025-09-12T01:58:24	14.4	100
135938	2025-09-12T02:08:24	14.1	100
135939	2025-09-12T02:18:24	14.2	100
135940	2025-09-12T02:28:24	13.8	100
135941	2025-09-12T02:38:24	13.3	100
135942	2025-09-12T02:48:24	13	100
135943	2025-09-12T02:58:24	12.6	100
135944	2025-09-12T03:08:24	12.7	100
135945	2025-09-12T03:18:24	12.5	100
135946	2025-09-12T03:28:24	12.4	100
135947	2025-09-12T03:38:24	12.5	100
135948	2025-09-12T03:48:24	12.3	100
135949	2025-09-12T03:58:24	12.1	100
135950	2025-09-12T04:08:24	12.1	100
135951	2025-09-12T04:18:24	12	100
135952	2025-09-12T04:28:24	11.9	100
135953	2025-09-12T04:38:24	12	100
135954	2025-09-12T04:48:24	11.7	100
135955	2025-09-12T04:58:24	11.7	100
135956	2025-09-12T05:08:24	12	100
135957	2025-09-12T05:18:24	11.9	100
135958	2025-09-12T05:28:24	12.1	100
135959	2025-09-12T05:38:24	12.3	100
135960	2025-09-12T05:48:24	12.8	100
135961	2025-09-12T05:58:24	13.1	100
135962	2025-09-12T06:08:24	13.3	100
135963	2025-09-12T06:18:24	13.5	100
135964	2025-09-12T06:28:24	13.6	100
135965	2025-09-12T06:38:24	13.5	100
135966	2025-09-12T06:48:24	13.6	100
135967	2025-09-12T06:58:23	13.8	100
135968	2025-09-12T07:08:23	13.8	100
135969	2025-09-12T07:18:23	13.7	100
135970	2025-09-12T07:28:23	14.1	100
135971	2025-09-12T07:38:23	14.6	100
135972	2025-09-12T07:48:23	14.6	100
135973	2025-09-12T07:58:23	14.6	99
135974	2025-09-12T08:08:23	14.5	98
135975	2025-09-12T08:18:23	15	97
135976	2025-09-12T08:28:23	15.5	96.5
135977	2025-09-12T08:38:23	15.5	96.5
135978	2025-09-12T08:48:23	15.4	96.5
135979	2025-09-12T08:58:23	15.7	96.5
135980	2025-09-12T09:08:23	16.2	96.5
135981	2025-09-12T09:18:23	16.2	96.5
135982	2025-09-12T09:28:23	16.6	96
135983	2025-09-12T09:38:23	17	96
135984	2025-09-12T09:48:23	17.7	96
135985	2025-09-12T09:58:23	16.9	99
135986	2025-09-12T10:08:23	16.2	100
135987	2025-09-12T10:18:23	15.4	100
135988	2025-09-12T10:28:23	15.6	100
135989	2025-09-12T10:38:23	16.2	100
135990	2025-09-12T10:48:23	16.7	100
135991	2025-09-12T10:58:23	17.1	100
135992	2025-09-12T11:08:23	17.3	98.5
135993	2025-09-12T11:18:23	17.3	78.5
135994	2025-09-12T11:28:23	17.9	70.5
135995	2025-09-12T11:38:23	18.2	68
135996	2025-09-12T11:48:23	18.3	67
135997	2025-09-12T11:58:23	20.4	63
135998	2025-09-12T12:08:23	19.3	62
135999	2025-09-12T12:18:23	18.9	63.5
136000	2025-09-12T12:28:23	18.7	63
136001	2025-09-12T12:38:23	18.9	61
136002	2025-09-12T12:48:23	22.8	50.5
136003	2025-09-12T12:58:23	22.2	51.5
136004	2025-09-12T13:08:23	20.7	56
136005	2025-09-12T13:18:23	21.7	53.5
136006	2025-09-12T13:28:23	20.6	57
136007	2025-09-12T13:38:23	22.1	51
136008	2025-09-12T13:48:23	23	49.5
136009	2025-09-12T13:58:23	21.1	52
136010	2025-09-12T14:08:23	20.6	55
136011	2025-09-12T14:18:23	21.5	54.5
136012	2025-09-12T14:28:23	25.4	43.5
136013	2025-09-12T14:38:23	22.1	50
136014	2025-09-12T14:48:23	21.4	53.5
136015	2025-09-12T14:58:23	20.7	56.5
136016	2025-09-12T15:08:23	20.7	60
136017	2025-09-12T15:18:23	22.2	58.5
136018	2025-09-12T15:28:23	26.9	49
136019	2025-09-12T15:38:23	27.8	44.5
136020	2025-09-12T15:48:23	28	43.5
136021	2025-09-12T16:18:23	21.9	61
136022	2025-09-12T16:28:23	21.3	66.5
136023	2025-09-12T16:38:23	20.8	66.5
136024	2025-09-12T16:48:23	20.5	71
136025	2025-09-12T16:58:23	20.3	74.5
136026	2025-09-12T17:08:23	20.1	74.5
136027	2025-09-12T17:18:23	19.9	75.5
136028	2025-09-12T17:28:23	19.3	74
136029	2025-09-12T17:38:23	19	76.5
136030	2025-09-12T17:48:23	18.4	78.5
136031	2025-09-12T17:58:22	17.9	78
136032	2025-09-12T18:08:22	17.8	79
136033	2025-09-12T18:18:22	17.4	80.5
136034	2025-09-12T18:28:22	17.3	81.5
136035	2025-09-12T18:38:22	17.2	82.5
136036	2025-09-12T18:48:22	17	81
136037	2025-09-12T18:58:22	16.9	82
136038	2025-09-12T19:08:22	16.8	83
136039	2025-09-12T19:18:22	16.7	82
136040	2025-09-12T19:28:22	16.5	85
136041	2025-09-12T19:38:22	16.5	84.5
136042	2025-09-12T19:48:22	16.5	86.5
136043	2025-09-12T19:58:22	16.3	85.5
136044	2025-09-12T20:08:22	16	87
136045	2025-09-12T20:18:22	15.8	87.5
136046	2025-09-12T20:28:22	15.8	86.5
136047	2025-09-12T20:38:22	15.7	84.5
136048	2025-09-12T20:48:22	15.4	87.5
136049	2025-09-12T20:58:22	15.3	89
136050	2025-09-12T21:08:22	15	90
136051	2025-09-12T21:18:22	15	89.5
136052	2025-09-12T21:28:22	15	90
136053	2025-09-12T21:38:22	15.1	90
136054	2025-09-12T21:48:22	15.1	88.5
136055	2025-09-12T21:58:22	15	89.5
136056	2025-09-12T22:08:22	14.9	90
136057	2025-09-12T22:18:22	14.8	90
136058	2025-09-12T22:28:22	14.7	89.5
136059	2025-09-12T22:38:22	14.6	90
136060	2025-09-12T22:48:22	14.5	90
136061	2025-09-12T22:58:22	14.6	90.5
136062	2025-09-12T23:08:22	14.5	91.5
136063	2025-09-12T23:28:22	14.1	92.5
136064	2025-09-12T23:38:22	14	92
136065	2025-09-12T23:48:22	14	92
136066	2025-09-12T23:58:22	14	92
136067	2025-09-13T00:08:22	13.9	92
136068	2025-09-13T00:18:22	13.8	92.5
136069	2025-09-13T00:28:22	13.9	92
136070	2025-09-13T00:38:22	13.7	92.5
136071	2025-09-13T00:48:22	13.7	93
136072	2025-09-13T00:58:22	13.6	93.5
136073	2025-09-13T01:08:22	13.5	93
136074	2025-09-13T01:18:22	13.5	93
136075	2025-09-13T01:28:22	13.5	93.5
136076	2025-09-13T01:38:22	13.3	94.5
136077	2025-09-13T01:48:22	13.1	94.5
136078	2025-09-13T01:58:22	13.1	95
136079	2025-09-13T02:08:22	13.1	95
136080	2025-09-13T02:18:22	13	95.5
136081	2025-09-13T02:28:22	12.9	95.5
136082	2025-09-13T02:38:22	12.8	95.5
136083	2025-09-13T02:48:22	12.6	95.5
136084	2025-09-13T02:58:22	12.3	97
136085	2025-09-13T03:08:22	12.1	97.5
136086	2025-09-13T03:18:22	12.1	97.5
136087	2025-09-13T03:28:22	11.9	98
136088	2025-09-13T03:38:22	11.7	98
136089	2025-09-13T03:48:22	11.8	98
136090	2025-09-13T03:58:22	11.6	98
136091	2025-09-13T04:08:22	11.4	98
136092	2025-09-13T04:18:22	11.4	98
136093	2025-09-13T04:28:22	11.5	97.5
136094	2025-09-13T04:38:22	11.4	97.5
136095	2025-09-13T04:48:22	11.4	97
136096	2025-09-13T04:58:22	11.4	97
136097	2025-09-13T05:08:22	11.3	97
136098	2025-09-13T05:18:22	11.4	96.5
136099	2025-09-13T05:28:22	11.6	96.5
136100	2025-09-13T05:38:22	11.7	96.5
136101	2025-09-13T05:48:22	11.8	96
136102	2025-09-13T05:58:22	11.8	95.5
136103	2025-09-13T06:08:22	11.6	96
136104	2025-09-13T06:18:22	11.6	96.5
136105	2025-09-13T06:28:22	12	96.5
136106	2025-09-13T06:38:22	12.4	96
136107	2025-09-13T06:48:22	12.9	94.5
136108	2025-09-13T06:58:21	13.1	93.5
136109	2025-09-13T07:08:21	13.5	93
136110	2025-09-13T07:18:21	13.7	91.5
136111	2025-09-13T07:28:21	14.1	90
136112	2025-09-13T07:38:21	14.8	83.5
136113	2025-09-13T07:48:21	15.3	83
136114	2025-09-13T07:58:21	15.3	83.5
136115	2025-09-13T08:08:21	15.7	84.5
136116	2025-09-13T08:18:21	16.1	83
136117	2025-09-13T08:28:21	16.3	82.5
136118	2025-09-13T08:38:21	16	83
136119	2025-09-13T08:48:21	16	82.5
136120	2025-09-13T08:58:21	15.8	84.5
136121	2025-09-13T09:08:21	16.2	82
136122	2025-09-13T09:18:21	16.9	80.5
136123	2025-09-13T09:28:21	17.9	75
136124	2025-09-13T09:38:21	18.7	71.5
136125	2025-09-13T09:48:21	19.1	69.5
136126	2025-09-13T09:58:21	19.5	69.5
136127	2025-09-13T10:08:21	20.1	68
136128	2025-09-13T10:18:21	20.4	65
136129	2025-09-13T10:28:21	20.7	63.5
136130	2025-09-13T10:38:21	21.1	63
136131	2025-09-13T10:48:21	21.3	62
136132	2025-09-13T10:58:21	21	62
136133	2025-09-13T11:08:21	21.2	61.5
136134	2025-09-13T11:18:21	21.5	59
136135	2025-09-13T11:28:21	22	59
136136	2025-09-13T11:38:21	22.2	55
136137	2025-09-13T11:48:21	22.5	54.5
136138	2025-09-13T11:58:21	23.4	52.5
136139	2025-09-13T12:08:21	24.9	49
136140	2025-09-13T12:18:21	27.3	45
136141	2025-09-13T12:28:21	25	47.5
136142	2025-09-13T12:38:21	23.9	50
136143	2025-09-13T12:48:21	24.2	48.5
136144	2025-09-13T12:58:21	27.8	43
136145	2025-09-13T13:08:21	25.4	46.5
136146	2025-09-13T13:18:21	26.6	45
136147	2025-09-13T13:28:21	23.9	49
136148	2025-09-13T13:38:21	23	51
136149	2025-09-13T13:48:21	22.3	53
136150	2025-09-13T13:58:21	23.1	54
136151	2025-09-13T14:08:21	25.8	48
136152	2025-09-13T14:18:21	25.6	49
136153	2025-09-13T14:28:21	25.3	48.5
136154	2025-09-13T14:38:21	25.4	47.5
136155	2025-09-13T14:48:21	25.2	49
136156	2025-09-13T14:58:21	25.5	48
136157	2025-09-13T15:08:21	25.2	49
136158	2025-09-13T15:18:21	25.1	49
136159	2025-09-13T15:28:21	24.7	49.5
136160	2025-09-13T15:38:21	25	49.5
136161	2025-09-13T15:48:21	23.5	51.5
136162	2025-09-13T15:58:21	22.7	53.5
136163	2025-09-13T16:08:21	24.5	53
136164	2025-09-13T16:18:21	24.8	51.5
136165	2025-09-13T16:28:21	23.7	54
136166	2025-09-13T16:38:21	23.3	56.5
136167	2025-09-13T16:48:21	22.9	58
136168	2025-09-13T16:58:21	22.8	62
136169	2025-09-13T17:08:21	22.4	64.5
136170	2025-09-13T17:18:21	22.1	65.5
136171	2025-09-13T17:28:20	21.8	68
136172	2025-09-13T17:38:20	21.3	69
136173	2025-09-13T17:48:20	20.9	70
136174	2025-09-13T17:58:20	20.6	72
136175	2025-09-13T18:08:20	20.4	71.5
136176	2025-09-13T18:18:20	20.3	72.5
136177	2025-09-13T18:28:20	20	72
136178	2025-09-13T18:38:20	19.9	72
136179	2025-09-13T18:48:20	19.8	73.5
136180	2025-09-13T18:58:20	19.2	72.5
136181	2025-09-13T19:08:20	19.1	71.5
136182	2025-09-13T19:18:20	19.1	70.5
136183	2025-09-13T19:28:20	19.1	70
136184	2025-09-13T19:38:20	19.1	70
136185	2025-09-13T19:48:20	19	69.5
136186	2025-09-13T19:58:20	18.9	70
136187	2025-09-13T20:08:20	18.8	70
136188	2025-09-13T20:18:20	18.8	73.5
136189	2025-09-13T20:28:20	18.6	70
136190	2025-09-13T20:38:20	18.7	70.5
136191	2025-09-13T20:48:20	18.5	71.5
136192	2025-09-13T20:58:20	18.4	73.5
136193	2025-09-13T21:08:20	17.9	75.5
136194	2025-09-13T21:18:20	17.6	76.5
136195	2025-09-13T21:28:20	17.7	75.5
136196	2025-09-13T21:38:20	17.9	76
136197	2025-09-13T21:48:20	17.8	79
136198	2025-09-13T21:58:20	17.8	79
136199	2025-09-13T22:08:20	17.8	81.5
136200	2025-09-13T22:18:20	17.7	82.5
136201	2025-09-13T22:28:20	17.7	83
136202	2025-09-13T22:38:20	17.2	86.5
136203	2025-09-13T22:48:20	17.1	86
136204	2025-09-13T22:58:20	17.3	85
136205	2025-09-13T23:08:20	17	87
136206	2025-09-13T23:18:20	15.8	100
136207	2025-09-13T23:28:20	15.8	100
136208	2025-09-13T23:38:20	15.6	100
136209	2025-09-13T23:48:20	15.1	100
136210	2025-09-13T23:58:20	15.4	100
136211	2025-09-14T00:08:20	15.4	100
136212	2025-09-14T00:18:20	15.3	100
136213	2025-09-14T00:28:20	15.2	100
136214	2025-09-14T00:38:20	14.8	100
136215	2025-09-14T00:48:20	14.8	100
136216	2025-09-14T00:58:20	14.3	100
136217	2025-09-14T01:08:20	14.5	100
136218	2025-09-14T01:18:20	14.1	100
136219	2025-09-14T01:28:20	13.9	100
136220	2025-09-14T01:38:20	14	100
136221	2025-09-14T01:48:20	13.7	100
136222	2025-09-14T01:58:20	13.8	100
136223	2025-09-14T02:08:20	13.7	100
136224	2025-09-14T02:18:20	13.5	100
136225	2025-09-14T02:28:20	13.4	100
136226	2025-09-14T02:38:20	13.5	100
136227	2025-09-14T02:48:20	13.4	100
136228	2025-09-14T02:58:20	13.5	100
136229	2025-09-14T03:08:20	13.4	100
136230	2025-09-14T03:18:20	13.3	100
136231	2025-09-14T03:28:20	13.3	100
136232	2025-09-14T03:38:20	13.4	100
136233	2025-09-14T03:48:20	13.3	100
136234	2025-09-14T03:58:20	13.2	100
136235	2025-09-14T04:08:20	13.2	100
136236	2025-09-14T04:18:20	13.3	100
136237	2025-09-14T04:28:20	13.2	100
136238	2025-09-14T04:38:20	13.3	100
136239	2025-09-14T04:48:20	13.3	100
136240	2025-09-14T04:58:20	13.5	100
136241	2025-09-14T05:08:20	13.6	100
136242	2025-09-14T05:18:20	13.4	100
136243	2025-09-14T05:28:35	13.5	100
136244	2025-09-14T05:38:19	13.5	100
136245	2025-09-14T05:48:19	13.6	100
136246	2025-09-14T05:58:19	13.7	100
136247	2025-09-14T06:08:19	13.8	100
136248	2025-09-14T06:18:19	13.9	100
136249	2025-09-14T06:28:19	14.1	100
136250	2025-09-14T06:38:19	14.1	100
136251	2025-09-14T06:48:19	14.2	100
136252	2025-09-14T06:58:19	14.4	100
136253	2025-09-14T07:08:19	14.4	100
136254	2025-09-14T07:18:19	14.7	100
136255	2025-09-14T07:28:19	15	100
136256	2025-09-14T07:38:19	14.9	100
136257	2025-09-14T07:48:19	15	100
136258	2025-09-14T07:58:19	15.2	100
136259	2025-09-14T08:08:19	15.2	100
136260	2025-09-14T08:18:19	15.2	100
136261	2025-09-14T08:28:19	15.3	100
136262	2025-09-14T08:38:19	15.5	100
136263	2025-09-14T08:48:19	16	100
136264	2025-09-14T08:58:19	15.7	100
136265	2025-09-14T09:08:19	15.5	100
136266	2025-09-14T09:18:19	15.4	100
136267	2025-09-14T09:28:19	15.8	100
136268	2025-09-14T09:38:19	16.5	100
136269	2025-09-14T09:48:19	16.6	100
136270	2025-09-14T09:58:19	16.9	100
136271	2025-09-14T10:08:19	17.1	100
136272	2025-09-14T10:18:19	17.2	100
136273	2025-09-14T10:28:19	17.4	100
136274	2025-09-14T10:38:19	17.7	100
136275	2025-09-14T10:48:19	18.4	100
136276	2025-09-14T10:58:19	18.7	100
136277	2025-09-14T11:08:19	18.3	100
136278	2025-09-14T11:18:19	18.9	100
136279	2025-09-14T11:28:19	18.6	100
136280	2025-09-14T11:38:19	19.1	100
136281	2025-09-14T11:48:19	19.4	89.5
136282	2025-09-14T11:58:19	19	78.5
136283	2025-09-14T12:08:19	18.7	76.5
136284	2025-09-14T12:18:19	18.9	77
136285	2025-09-14T12:28:19	22.3	67.5
136286	2025-09-14T12:38:19	24	60
136287	2025-09-14T12:48:19	23.3	64
136288	2025-09-14T12:58:19	21.9	67
136289	2025-09-14T13:08:19	21.7	66.5
136290	2025-09-14T13:18:19	24.8	60
136291	2025-09-14T13:28:19	27.1	51.5
136292	2025-09-14T13:38:19	26.9	53.5
136293	2025-09-14T13:48:19	26.8	52
136294	2025-09-14T13:58:19	26.8	52.5
136295	2025-09-14T14:08:19	23.4	60.5
136296	2025-09-14T14:18:19	23.2	62.5
136297	2025-09-14T14:28:19	23.4	61.5
136298	2025-09-14T14:38:19	24.5	58
136299	2025-09-14T14:58:19	23.3	63
136300	2025-09-14T15:08:19	23.2	62
136301	2025-09-14T15:18:19	22.8	63.5
136302	2025-09-14T15:28:19	22.1	65.5
136303	2025-09-14T15:38:19	22.1	65
136304	2025-09-14T15:48:19	22.4	65.5
136305	2025-09-14T15:58:19	22.5	64
136306	2025-09-14T16:08:19	22	68.5
136307	2025-09-14T16:18:19	22	71.5
136308	2025-09-14T16:28:18	21.8	69.5
136309	2025-09-14T16:38:18	21.4	76
136310	2025-09-14T16:48:18	21.1	77
136311	2025-09-14T16:58:18	21.4	77.5
136312	2025-09-14T17:08:18	21.1	77.5
136313	2025-09-14T17:18:18	20.8	80
136314	2025-09-14T17:28:18	20.6	80.5
136315	2025-09-14T17:38:18	20.3	81
136316	2025-09-14T17:48:18	20	81
136317	2025-09-14T17:58:18	19.9	80.5
136318	2025-09-14T18:08:18	19.7	79
136319	2025-09-14T18:18:18	19.5	83
136320	2025-09-14T18:28:18	19.4	83
136321	2025-09-14T18:38:18	19.3	82.5
136322	2025-09-14T18:48:18	19.3	84
136323	2025-09-14T18:58:18	19.3	86.5
136324	2025-09-14T19:08:18	19.1	86.5
136325	2025-09-14T19:18:18	19	86
136326	2025-09-14T19:28:18	18.9	86
136327	2025-09-14T19:38:18	18.8	87.5
136328	2025-09-14T19:48:18	18.7	86.5
136329	2025-09-14T19:58:18	18.6	85.5
136330	2025-09-14T20:08:18	18.5	83
136331	2025-09-14T20:18:18	18.7	82.5
136332	2025-09-14T20:28:18	18.8	80.5
136333	2025-09-14T20:38:18	19	79.5
136334	2025-09-14T20:48:18	19.4	79.5
136335	2025-09-14T20:58:18	19.1	81.5
136336	2025-09-14T21:08:18	19.2	80
136337	2025-09-14T21:18:18	19.3	80.5
136338	2025-09-14T21:28:18	19.1	81
136339	2025-09-14T21:38:18	19	82
136340	2025-09-14T21:48:18	18.9	83
136341	2025-09-14T21:58:18	18.9	83.5
136342	2025-09-14T22:08:18	19	82.5
136343	2025-09-14T22:18:18	19.1	82.5
136344	2025-09-14T22:28:18	19.2	82.5
136345	2025-09-14T22:38:18	19.3	83.5
136346	2025-09-14T22:48:18	19.1	84
136347	2025-09-14T22:58:18	19.1	84
136348	2025-09-14T23:08:18	19.2	83.5
136349	2025-09-14T23:18:18	19.3	83
136350	2025-09-14T23:28:18	19.6	82.5
136351	2025-09-14T23:38:18	19.7	81.5
136352	2025-09-14T23:48:18	20	81
136353	2025-09-14T23:58:18	20.1	80.5
136354	2025-09-15T00:08:18	20.2	81
136355	2025-09-15T00:18:18	20	82.5
136356	2025-09-15T00:28:18	19.9	82.5
136357	2025-09-15T00:38:18	20	82
136358	2025-09-15T00:48:18	20.1	82
136359	2025-09-15T00:58:18	20.2	82
136360	2025-09-15T01:08:18	20.3	81.5
136361	2025-09-15T01:18:18	20.3	81
136362	2025-09-15T01:28:18	20.5	81
136363	2025-09-15T01:38:18	20.7	80.5
136364	2025-09-15T01:48:18	20.8	80
136365	2025-09-15T01:58:18	20.8	79.5
136366	2025-09-15T02:08:18	20.9	79
136367	2025-09-15T02:18:18	21	79
136368	2025-09-15T02:28:18	21.1	79
136369	2025-09-15T02:38:18	20.8	82
136370	2025-09-15T02:48:18	20.8	81
136371	2025-09-15T02:58:18	20.9	80.5
136372	2025-09-15T03:08:17	20.9	80.5
136373	2025-09-15T03:18:17	19	98.5
136374	2025-09-15T03:28:17	19.1	97
136375	2025-09-15T03:38:17	19.2	95.5
136376	2025-09-15T03:48:17	19.1	96
136377	2025-09-15T03:58:17	18.4	100
136378	2025-09-15T04:08:17	18.5	100
136379	2025-09-15T04:18:17	18.7	99.5
136380	2025-09-15T04:28:17	18.8	99
136381	2025-09-15T04:38:17	18.7	99
136382	2025-09-15T04:48:17	19	97.5
136383	2025-09-15T04:58:17	19.3	95
136384	2025-09-15T05:08:17	19.1	99
136385	2025-09-15T05:18:17	18.4	100
136386	2025-09-15T05:28:17	18.3	100
136387	2025-09-15T05:38:17	18.4	100
136388	2025-09-15T05:48:17	18.2	100
136389	2025-09-15T05:58:17	18.4	100
136390	2025-09-15T06:08:17	18.5	100
136391	2025-09-15T06:18:17	19	100
136392	2025-09-15T06:28:17	19.1	100
136393	2025-09-15T06:38:17	18.4	100
136394	2025-09-15T06:48:17	18.7	100
136395	2025-09-15T06:58:17	18.5	100
136396	2025-09-15T07:08:17	18.7	100
136397	2025-09-15T07:18:17	18.8	100
136398	2025-09-15T07:28:17	19.2	100
136399	2025-09-15T07:38:17	19.5	100
136400	2025-09-15T07:48:17	19.9	100
136401	2025-09-15T07:58:17	20.1	100
136402	2025-09-15T08:08:17	20	100
136403	2025-09-15T08:18:17	19.9	99
136404	2025-09-15T08:28:17	20.3	98.5
136405	2025-09-15T08:38:17	21	90.5
136406	2025-09-15T08:48:17	22	85.5
136407	2025-09-15T08:58:17	21.7	89.5
136408	2025-09-15T09:08:17	22.1	82
136409	2025-09-15T09:18:17	21.1	92.5
136410	2025-09-15T09:28:17	20.6	95
136411	2025-09-15T09:38:17	21	92.5
136412	2025-09-15T09:48:17	21.3	87
136413	2025-09-15T09:58:17	21.2	84.5
136414	2025-09-15T10:08:17	21.4	84
136415	2025-09-15T10:18:17	21.9	82
136416	2025-09-15T10:28:17	22	81.5
136417	2025-09-15T10:38:17	22.5	80.5
136418	2025-09-15T10:48:17	19.8	99
136419	2025-09-15T10:58:17	19.7	100
136420	2025-09-15T11:08:17	20.3	100
136421	2025-09-15T11:18:17	20.8	100
136422	2025-09-15T11:28:17	21.2	100
136423	2025-09-15T11:38:17	21.8	98
136424	2025-09-15T11:48:17	21.9	96
136425	2025-09-15T11:58:17	23.7	98
136426	2025-09-15T12:08:17	23	83.5
136427	2025-09-15T12:18:17	23.8	77
136428	2025-09-15T12:28:17	22.4	79.5
136429	2025-09-15T12:38:17	26.1	70
136430	2025-09-15T12:48:17	23.2	77
136431	2025-09-15T12:58:17	24	74
136432	2025-09-15T13:08:17	22.9	77.5
136433	2025-09-15T13:18:17	19.7	100
136434	2025-09-15T13:28:17	19.4	100
136435	2025-09-15T13:38:16	20.8	100
136436	2025-09-15T13:48:16	22.1	100
136437	2025-09-15T13:58:16	20.9	100
136438	2025-09-15T14:08:16	20.8	100
136439	2025-09-15T14:18:16	21.6	100
136440	2025-09-15T14:28:16	21.3	100
136441	2025-09-15T14:38:16	20.7	100
136442	2025-09-15T14:48:16	20.5	100
136443	2025-09-15T14:58:16	20.3	100
136444	2025-09-15T15:08:16	20.1	100
136445	2025-09-15T15:18:16	19.5	100
136446	2025-09-15T15:28:16	18.5	100
136447	2025-09-15T15:38:16	17.9	100
136448	2025-09-15T15:48:16	17.9	100
136449	2025-09-15T15:58:16	18.2	100
136450	2025-09-15T16:08:16	18.5	100
136451	2025-09-15T16:18:16	18.4	100
136452	2025-09-15T16:28:16	18.6	100
136453	2025-09-15T16:38:16	18.6	100
136454	2025-09-15T16:48:16	18.8	100
136455	2025-09-15T16:58:16	18.5	100
136456	2025-09-15T17:08:16	17.9	100
136457	2025-09-15T17:18:16	17.4	100
136458	2025-09-15T17:28:16	17.4	100
136459	2025-09-15T17:38:16	17.5	100
136460	2025-09-15T17:48:16	17.4	100
136461	2025-09-15T17:58:16	17.4	100
136462	2025-09-15T18:08:16	17.1	100
136463	2025-09-15T18:18:16	17	100
136464	2025-09-15T18:28:16	16.5	100
136465	2025-09-15T18:38:16	16.4	100
136466	2025-09-15T18:48:16	16.2	99
136467	2025-09-15T18:58:16	16.1	98
136468	2025-09-15T19:08:16	16.1	97.5
136469	2025-09-15T19:18:16	16	97
136470	2025-09-15T19:28:16	15.9	97
136471	2025-09-15T19:38:16	15.6	96.5
136472	2025-09-15T19:48:16	15.5	97
136473	2025-09-15T19:58:16	15.1	97
136474	2025-09-15T20:08:16	15.1	97
136475	2025-09-15T20:18:16	15.1	97
136476	2025-09-15T20:28:16	14.6	97
136477	2025-09-15T20:38:16	14.3	97
136478	2025-09-15T20:48:16	14.9	97
136479	2025-09-15T20:58:16	15	97
136480	2025-09-15T21:08:16	14.5	97
136481	2025-09-15T21:18:16	15	97
136482	2025-09-15T21:28:16	15.2	97
136483	2025-09-15T21:38:16	15.2	97
136484	2025-09-15T21:48:16	15.5	97
136485	2025-09-15T21:58:16	15.4	97
136486	2025-09-15T22:08:16	15.5	97
136487	2025-09-15T22:18:16	15.9	97
136488	2025-09-15T22:28:16	16	97
136489	2025-09-15T22:38:16	16	97
136490	2025-09-15T22:48:16	15.9	96.5
136491	2025-09-15T22:58:16	15.8	96.5
136492	2025-09-15T23:08:16	15.9	96.5
136493	2025-09-15T23:18:16	15.8	96.5
136494	2025-09-15T23:28:16	15.7	96.5
136495	2025-09-15T23:38:16	15.7	96.5
136496	2025-09-15T23:48:34	15.9	96.5
136497	2025-09-15T23:58:16	16	99.5
136498	2025-09-16T00:08:16	16.1	99.5
136499	2025-09-16T00:18:16	16	99.5
136500	2025-09-16T00:28:16	15.9	100
136501	2025-09-16T00:38:16	15.8	100
136502	2025-09-16T00:48:16	15.8	100
136503	2025-09-16T00:58:16	15.9	100
136504	2025-09-16T01:08:16	15.9	100
136505	2025-09-16T01:18:15	15.9	100
136506	2025-09-16T01:28:15	15.9	100
136507	2025-09-16T01:38:15	16.1	96
136508	2025-09-16T01:48:15	16.2	79
136509	2025-09-16T01:58:15	16.2	78
136510	2025-09-16T02:08:15	16	77.5
136511	2025-09-16T02:18:15	16	76.5
136512	2025-09-16T02:28:15	15.7	76.5
136513	2025-09-16T02:38:15	15.6	76.5
136514	2025-09-16T02:48:15	15.6	76.5
136515	2025-09-16T02:58:15	15.5	77
136516	2025-09-16T03:08:15	15.3	77
136517	2025-09-16T03:18:15	15.3	76.5
136518	2025-09-16T03:28:15	15.2	77.5
136519	2025-09-16T03:38:15	15	78
136520	2025-09-16T03:48:15	14.8	79.5
136521	2025-09-16T03:58:15	14.8	79.5
136522	2025-09-16T04:08:15	14.7	80
136523	2025-09-16T04:18:15	14.6	80.5
136524	2025-09-16T04:28:15	14.6	81.5
136525	2025-09-16T04:38:15	14.4	81
136526	2025-09-16T04:48:15	14.3	82
136527	2025-09-16T04:58:15	14.2	81.5
136528	2025-09-16T05:08:15	14.1	82
136529	2025-09-16T05:18:15	14.1	82.5
136530	2025-09-16T05:28:15	14	84
136531	2025-09-16T05:38:15	13.8	84.5
136532	2025-09-16T05:48:15	13.7	84.5
136533	2025-09-16T05:58:15	13.8	83.5
136534	2025-09-16T06:08:15	13.9	83.5
136535	2025-09-16T06:18:15	14	82.5
136536	2025-09-16T06:28:15	14.1	82
136537	2025-09-16T06:38:15	14.2	82
136538	2025-09-16T06:48:15	14.5	81.5
136539	2025-09-16T06:58:15	14.9	80.5
136540	2025-09-16T07:08:15	15.1	78.5
136541	2025-09-16T07:18:15	15.5	78
136542	2025-09-16T07:28:15	15.8	76.5
136543	2025-09-16T07:38:15	16	75
136544	2025-09-16T07:48:15	16.4	73
136545	2025-09-16T07:58:15	16.2	73
136546	2025-09-16T08:08:15	16.3	73
136547	2025-09-16T08:18:15	16.4	72
136548	2025-09-16T08:28:15	16.4	73.5
136549	2025-09-16T08:38:15	16.5	70.5
136550	2025-09-16T08:48:15	16.7	72
136551	2025-09-16T08:58:15	16.8	71
136552	2025-09-16T09:08:15	17.1	69.5
136553	2025-09-16T09:18:15	17.4	68.5
136554	2025-09-16T09:28:15	17.5	66.5
136555	2025-09-16T09:38:15	17.1	66.5
136556	2025-09-16T09:48:15	17.5	67
136557	2025-09-16T09:58:15	17.8	66
136558	2025-09-16T10:08:15	17.8	65
136559	2025-09-16T10:18:15	17.9	64.5
136560	2025-09-16T10:28:15	18.2	65.5
136561	2025-09-16T10:38:15	18.2	64.5
136562	2025-09-16T10:48:15	18.3	63.5
136563	2025-09-16T10:58:15	18.3	61.5
136564	2025-09-16T11:08:15	18	63.5
136565	2025-09-16T11:18:15	17.9	63.5
136566	2025-09-16T11:28:15	18	62.5
136567	2025-09-16T11:38:15	18	63
136568	2025-09-16T11:48:15	18.7	61.5
136569	2025-09-16T11:58:15	20	57.5
136570	2025-09-16T12:08:15	19.6	57
136571	2025-09-16T12:18:15	19.2	57.5
136572	2025-09-16T12:28:15	18.6	59.5
136573	2025-09-16T12:38:15	18.5	60.5
136574	2025-09-16T12:48:15	18.5	60.5
136575	2025-09-16T12:58:15	19.1	60
136576	2025-09-16T13:08:14	19.1	60.5
136577	2025-09-16T13:18:14	18.7	61
136578	2025-09-16T13:28:34	18.6	62
136579	2025-09-16T13:38:14	18.9	63
136580	2025-09-16T13:48:14	23.5	52.5
136581	2025-09-16T13:58:14	21.7	51.5
136582	2025-09-16T14:08:14	21.9	51
136583	2025-09-16T14:18:14	20.9	53
136584	2025-09-16T14:28:14	23.9	48.5
136585	2025-09-16T14:38:14	23.5	47.5
136586	2025-09-16T14:48:14	25.5	42.5
136587	2025-09-16T14:58:14	23.1	46
136588	2025-09-16T15:08:14	21.9	49
136589	2025-09-16T15:18:14	23	48
136590	2025-09-16T15:28:14	24	46
136591	2025-09-16T15:38:14	22.6	48.5
136592	2025-09-16T15:48:14	21.4	51.5
136593	2025-09-16T15:58:14	20.5	54.5
136594	2025-09-16T16:08:14	21.5	52
136595	2025-09-16T16:18:14	21.6	52
136596	2025-09-16T16:28:14	19.9	56.5
136597	2025-09-16T16:38:14	19.4	58
136598	2025-09-16T16:48:14	18.8	60
136599	2025-09-16T16:58:14	18.4	61
136600	2025-09-16T17:08:14	17.9	61.5
136601	2025-09-16T17:18:14	17.5	63
136602	2025-09-16T17:38:14	16.9	64
136603	2025-09-16T17:48:14	16.6	65.5
136604	2025-09-16T17:58:14	16.5	69
136605	2025-09-16T18:08:14	16.2	69
136606	2025-09-16T18:18:14	16.1	68.5
136607	2025-09-16T18:28:14	16.3	67
136608	2025-09-16T18:38:14	16.4	68.5
136609	2025-09-16T18:48:14	16.1	70
136610	2025-09-16T18:58:14	16.1	69
136611	2025-09-16T19:08:14	16	68.5
136612	2025-09-16T19:18:14	15.9	69
136613	2025-09-16T19:28:14	15.6	69.5
136614	2025-09-16T19:38:14	15.3	71
136615	2025-09-16T19:48:14	15.2	71
136616	2025-09-16T19:58:34	15.1	72
136617	2025-09-16T20:08:14	14.9	73
136618	2025-09-16T20:18:14	14.7	73.5
136619	2025-09-16T20:28:14	14.6	73.5
136620	2025-09-16T20:38:14	14.4	74
136621	2025-09-16T20:48:14	14.4	75
136622	2025-09-16T20:58:14	14.3	74.5
136623	2025-09-16T21:08:14	14.4	74
136624	2025-09-16T21:18:14	14.2	74
136625	2025-09-16T21:28:14	14.2	74
136626	2025-09-16T21:38:14	14.1	74.5
136627	2025-09-16T21:48:14	14.1	74.5
136628	2025-09-16T21:58:14	14.1	74.5
136629	2025-09-16T22:08:14	14.1	75
136630	2025-09-16T22:18:14	14.1	75
136631	2025-09-16T22:28:14	14	75.5
136632	2025-09-16T22:38:14	14.1	75.5
136633	2025-09-16T22:48:14	14.1	76
136634	2025-09-16T22:58:14	14.2	76
136635	2025-09-16T23:08:14	14.3	75.5
136636	2025-09-16T23:18:14	14.4	75.5
136637	2025-09-16T23:28:14	14.4	75.5
136638	2025-09-16T23:38:14	14.3	76
136639	2025-09-16T23:48:14	14.1	77
136640	2025-09-16T23:58:14	14	77.5
136641	2025-09-17T00:08:14	13.8	78
136642	2025-09-17T00:18:14	13.6	79.5
136643	2025-09-17T00:28:14	13.4	79.5
136644	2025-09-17T00:38:14	13.3	80
136645	2025-09-17T00:48:14	13.4	80.5
136646	2025-09-17T00:58:14	13.4	81
136647	2025-09-17T01:08:14	13.4	80
136648	2025-09-17T01:18:14	13.3	81
136649	2025-09-17T01:28:14	13.1	82
136650	2025-09-17T01:38:13	12.9	83.5
136651	2025-09-17T01:48:14	12.9	84
136652	2025-09-17T01:58:14	12.9	84
136653	2025-09-17T02:08:13	12.9	84.5
136654	2025-09-17T02:18:13	12.9	84.5
136655	2025-09-17T02:28:13	12.9	85.5
136656	2025-09-17T02:38:13	12.9	85.5
136657	2025-09-17T02:48:13	12.8	86
136658	2025-09-17T02:58:14	12.7	85.5
136659	2025-09-17T03:08:13	12.6	86
136660	2025-09-17T03:18:13	12.7	86
136661	2025-09-17T03:28:13	12.7	86.5
136662	2025-09-17T03:38:13	12.8	88
136663	2025-09-17T03:48:13	12.8	88
136664	2025-09-17T03:58:13	12.8	88
136665	2025-09-17T04:08:13	12.8	88
136666	2025-09-17T04:18:13	12.8	86
136667	2025-09-17T04:28:13	12.8	86.5
136668	2025-09-17T04:38:13	12.8	87
136669	2025-09-17T04:48:13	12.8	87.5
136670	2025-09-17T04:58:13	12.8	86.5
136671	2025-09-17T05:08:13	12.9	85.5
136672	2025-09-17T05:18:13	12.9	86.5
136673	2025-09-17T05:28:13	12.9	87
136674	2025-09-17T05:38:13	12.9	87.5
136675	2025-09-17T05:48:13	13	88.5
136676	2025-09-17T05:58:13	13.1	88.5
136677	2025-09-17T06:08:13	13.2	88.5
136678	2025-09-17T06:18:13	13.6	88
136679	2025-09-17T06:28:13	13.8	87.5
136680	2025-09-17T06:38:13	13.9	86
136681	2025-09-17T06:48:13	14.1	86
136682	2025-09-17T06:58:13	13.9	86
136683	2025-09-17T07:08:13	14	85.5
136684	2025-09-17T07:18:13	14.3	84
136685	2025-09-17T07:28:13	14.6	82.5
136686	2025-09-17T07:38:13	14.9	81
136687	2025-09-17T07:48:13	15.2	79.5
136688	2025-09-17T07:58:13	15.6	78.5
136689	2025-09-17T08:08:13	16	77
136690	2025-09-17T08:18:13	16.1	76
136691	2025-09-17T08:28:13	16.3	75.5
136692	2025-09-17T08:38:13	16.7	74.5
136693	2025-09-17T08:48:13	17.2	73.5
136694	2025-09-17T08:58:13	17.9	71
136695	2025-09-17T09:08:13	18	71
136696	2025-09-17T09:18:13	18.4	70
136697	2025-09-17T09:28:13	18.6	68
136698	2025-09-17T09:38:13	18.8	66.5
136699	2025-09-17T09:48:13	19	66
136700	2025-09-17T09:58:13	19.1	64
136701	2025-09-17T10:08:13	19.4	63
136702	2025-09-17T10:18:13	19.6	62.5
136703	2025-09-17T10:28:13	19.7	62.5
136704	2025-09-17T10:38:13	19.9	62.5
136705	2025-09-17T10:48:13	20	63.5
136706	2025-09-17T10:58:13	20.6	61.5
136707	2025-09-17T11:08:13	20.8	61.5
136708	2025-09-17T11:18:13	20.8	60.5
136709	2025-09-17T11:28:13	20.7	61
136710	2025-09-17T11:38:13	20.4	60
136711	2025-09-17T11:48:13	21.3	58.5
136712	2025-09-17T11:58:13	21.9	57.5
136713	2025-09-17T12:08:13	24.3	51
136714	2025-09-17T12:18:13	23.4	52.5
136715	2025-09-17T12:28:13	22.8	52.5
136716	2025-09-17T12:38:13	22.8	53
136717	2025-09-17T12:48:13	24.8	49
136718	2025-09-17T12:58:12	23.4	51.5
136719	2025-09-17T13:18:12	26.7	45
136720	2025-09-17T13:28:12	26.5	45.5
136721	2025-09-17T13:38:12	27.2	44
136722	2025-09-17T13:48:12	27	44
136723	2025-09-17T13:58:12	26.6	46
136724	2025-09-17T14:08:12	27.9	43.5
136725	2025-09-17T14:18:12	28	43.5
136726	2025-09-17T14:28:12	25.9	47
136727	2025-09-17T14:38:12	26.4	46.5
136728	2025-09-17T14:48:12	27	45.5
136729	2025-09-17T14:58:12	28.6	42.5
136730	2025-09-17T15:08:12	27.6	45.5
136731	2025-09-17T15:18:12	28.6	43.5
136732	2025-09-17T15:28:12	27.7	45
136733	2025-09-17T15:38:12	27.9	44
136734	2025-09-17T15:48:12	27.5	45
136735	2025-09-17T15:58:12	27.1	45
136736	2025-09-17T16:08:12	25.1	50
136737	2025-09-17T16:18:12	25.4	48.5
136738	2025-09-17T16:28:12	24.1	51
136739	2025-09-17T16:38:12	23.5	53
136740	2025-09-17T16:48:12	22.9	55
136741	2025-09-17T16:58:12	22.3	57
136742	2025-09-17T17:08:12	22.5	61
136743	2025-09-17T17:18:12	22.5	62.5
136744	2025-09-17T17:28:12	22.3	64
136745	2025-09-17T17:38:12	22	64
136746	2025-09-17T17:48:12	21.8	66
136747	2025-09-17T17:58:12	21.6	68
136748	2025-09-17T18:08:12	21.4	68.5
136749	2025-09-17T18:18:12	21.1	71
136750	2025-09-17T18:28:12	20.9	70.5
136751	2025-09-17T18:38:12	20.8	71.5
136752	2025-09-17T18:48:12	20.5	71
136753	2025-09-17T18:58:12	20.2	71
136754	2025-09-17T19:08:12	19.8	73
136755	2025-09-17T19:18:12	19.7	74.5
136756	2025-09-17T19:28:12	19.6	75
136757	2025-09-17T19:38:12	19.3	75.5
136758	2025-09-17T19:48:12	18.9	77
136759	2025-09-17T19:58:12	18.5	77.5
136760	2025-09-17T20:08:12	18.1	79
136761	2025-09-17T20:18:12	17.8	80
136762	2025-09-17T20:28:12	17.6	79.5
136763	2025-09-17T20:38:12	17.2	79
136764	2025-09-17T20:48:12	17	79.5
136765	2025-09-17T20:58:12	17	81.5
136766	2025-09-17T21:08:12	16.8	82
136767	2025-09-17T21:18:12	16.5	82
136768	2025-09-17T21:28:12	16.4	82
136769	2025-09-17T21:38:12	16.2	83
136770	2025-09-17T21:48:12	16.1	83.5
136771	2025-09-17T21:58:12	15.8	83
136772	2025-09-17T22:08:12	15.8	84
136773	2025-09-17T22:28:12	15.4	84.5
136774	2025-09-17T22:38:12	15.3	84
136775	2025-09-17T22:48:12	15.1	85
136776	2025-09-17T22:58:12	14.9	85.5
136777	2025-09-17T23:08:12	14.9	86
136778	2025-09-17T23:18:12	14.8	86
136779	2025-09-17T23:28:12	14.6	86.5
136780	2025-09-17T23:38:12	14.5	86.5
136781	2025-09-17T23:48:11	14.3	87
136782	2025-09-17T23:58:11	14.2	87.5
136783	2025-09-18T00:08:11	14.1	88
136784	2025-09-18T00:18:11	13.9	88.5
136785	2025-09-18T00:28:11	13.9	88
136786	2025-09-18T00:38:11	13.9	89
136787	2025-09-18T00:48:11	13.8	89
136788	2025-09-18T00:58:11	13.6	89.5
136789	2025-09-18T01:08:11	13.4	89.5
136790	2025-09-18T01:18:11	13.2	90
136791	2025-09-18T01:28:11	13.2	90.5
136792	2025-09-18T01:38:11	13.1	90.5
136793	2025-09-18T01:48:11	13	90.5
136794	2025-09-18T01:58:11	12.8	91
136795	2025-09-18T02:08:11	12.8	91
136796	2025-09-18T02:28:11	12.6	91.5
136797	2025-09-18T02:38:11	12.6	92
136798	2025-09-18T02:48:11	12.4	92
136799	2025-09-18T02:58:11	12.4	92.5
136800	2025-09-18T03:08:11	12.2	92.5
136801	2025-09-18T03:18:11	12.1	93
136802	2025-09-18T03:28:11	12	93
136803	2025-09-18T03:38:11	11.9	93.5
136804	2025-09-18T03:48:11	11.7	93.5
136805	2025-09-18T03:58:11	11.6	93.5
136806	2025-09-18T04:08:11	11.6	93.5
136807	2025-09-18T04:18:11	11.4	93.5
136808	2025-09-18T04:28:11	11.4	94
136809	2025-09-18T04:38:11	11.4	94
136810	2025-09-18T04:48:11	11.2	94.5
136811	2025-09-18T04:58:11	11.1	94.5
136812	2025-09-18T05:08:11	11.2	94.5
136813	2025-09-18T05:18:11	11.2	95
136814	2025-09-18T05:28:11	11.1	95
136815	2025-09-18T05:38:11	11.2	95
136816	2025-09-18T05:48:11	11.2	95
136817	2025-09-18T05:58:11	11.4	95
136818	2025-09-18T06:08:11	11.5	95.5
136819	2025-09-18T06:18:11	11.8	96
136820	2025-09-18T06:28:11	12	96
136821	2025-09-18T06:38:11	12.3	96
136822	2025-09-18T06:48:11	12.6	95
136823	2025-09-18T06:58:11	12.9	93
136824	2025-09-18T07:08:11	13.1	92.5
136825	2025-09-18T07:18:11	13.3	91.5
136826	2025-09-18T07:28:11	13.7	91
136827	2025-09-18T07:38:11	13.8	90.5
136828	2025-09-18T07:48:11	14	90
136829	2025-09-18T07:58:11	14.5	89.5
136830	2025-09-18T08:08:11	14.8	89
136831	2025-09-18T08:18:11	15.5	87.5
136832	2025-09-18T08:28:11	16.1	84.5
136833	2025-09-18T08:38:11	16.5	82.5
136834	2025-09-18T08:48:11	17	81
136835	2025-09-18T08:58:11	17.4	79
136836	2025-09-18T09:08:11	17.6	78.5
136837	2025-09-18T09:18:11	17.9	77
136838	2025-09-18T09:28:11	18.3	77
136839	2025-09-18T09:38:11	18.5	77
136840	2025-09-18T09:48:11	18.9	74
136841	2025-09-18T09:58:11	19.4	71.5
136842	2025-09-18T10:08:11	19.8	68.5
136843	2025-09-18T10:18:11	20.2	65.5
136844	2025-09-18T10:28:11	20.5	66.5
136845	2025-09-18T10:38:11	20.8	67
136846	2025-09-18T10:48:11	21	65
136847	2025-09-18T10:58:11	21.3	62.5
136848	2025-09-18T11:08:11	21.5	62.5
136849	2025-09-18T11:18:11	21.9	61.5
136850	2025-09-18T11:28:11	22.1	61.5
136851	2025-09-18T11:38:11	22.2	60.5
136852	2025-09-18T11:48:11	22.6	60.5
136853	2025-09-18T11:58:11	26	51.5
136854	2025-09-18T12:08:11	29.3	44
136855	2025-09-18T12:18:10	30.8	41.5
136856	2025-09-18T12:28:10	31.8	39
136857	2025-09-18T12:38:10	31.9	39
136858	2025-09-18T12:48:10	32.6	37.5
136859	2025-09-18T12:58:10	32.8	37.5
136860	2025-09-18T13:08:10	34.1	35.5
136861	2025-09-18T13:18:10	34.2	34
136862	2025-09-18T13:28:10	34.4	33.5
136863	2025-09-18T13:38:10	34.2	33.5
136864	2025-09-18T13:48:10	34.6	33
136865	2025-09-18T13:58:10	34.7	33.5
136866	2025-09-18T14:08:10	34.6	32
136867	2025-09-18T14:18:10	35.1	32
136868	2025-09-18T14:28:10	35.3	31.5
136869	2025-09-18T14:38:10	34.4	32.5
136870	2025-09-18T14:48:10	33.4	33.5
136871	2025-09-18T14:58:10	34	33.5
136872	2025-09-18T15:08:10	34	34
136873	2025-09-18T15:18:10	33.4	34.5
136874	2025-09-18T15:28:10	33.7	34.5
136875	2025-09-18T15:38:10	33.2	36
136876	2025-09-18T15:48:10	32.7	35.5
136877	2025-09-18T15:58:10	32.5	37
136878	2025-09-18T16:08:10	31.9	37.5
136879	2025-09-18T16:18:10	31.3	39
136880	2025-09-18T16:28:10	29.3	42
136881	2025-09-18T16:38:10	28.9	43
136882	2025-09-18T16:48:10	28	45
136883	2025-09-18T16:58:10	27.8	48.5
136884	2025-09-18T17:08:10	27.6	52.5
136885	2025-09-18T17:18:10	26.8	56
136886	2025-09-18T17:28:10	25.6	58
136887	2025-09-18T17:38:10	24.9	59.5
136888	2025-09-18T17:48:10	24.2	60.5
136889	2025-09-18T17:58:10	23.7	62
136890	2025-09-18T18:08:10	23.1	64
136891	2025-09-18T18:18:10	22.8	65.5
136892	2025-09-18T18:28:10	22.5	67
136893	2025-09-18T18:48:10	22	69
136894	2025-09-18T18:58:10	21.5	69
136895	2025-09-18T19:08:10	21.1	71
136896	2025-09-18T19:18:10	20.9	72
136897	2025-09-18T19:28:10	20.5	72.5
136898	2025-09-18T19:38:10	20.3	73
136899	2025-09-18T19:48:10	20.1	73.5
136900	2025-09-18T19:58:10	19.7	74.5
136901	2025-09-18T20:08:10	19.5	75
136902	2025-09-18T20:18:10	19.1	75.5
136903	2025-09-18T20:28:10	18.9	76
136904	2025-09-18T20:38:10	18.7	76.5
136905	2025-09-18T20:48:10	18.5	77.5
136906	2025-09-18T20:58:10	18.3	77.5
136907	2025-09-18T21:08:10	18	78.5
136908	2025-09-18T21:18:10	17.8	79
136909	2025-09-18T21:28:10	17.6	79.5
136910	2025-09-18T21:38:10	17.3	79.5
136911	2025-09-18T21:48:10	17.2	80
136912	2025-09-18T21:58:10	16.9	81
136913	2025-09-18T22:08:10	16.7	81.5
136914	2025-09-18T22:18:10	16.4	82
136915	2025-09-18T22:28:10	16.3	82
136916	2025-09-18T22:38:10	16.1	82
136917	2025-09-18T22:58:10	15.7	83.5
136918	2025-09-18T23:08:10	15.6	84
136919	2025-09-18T23:18:10	15.5	83.5
136920	2025-09-18T23:28:09	15.3	84
136921	2025-09-18T23:38:09	15.2	84
136922	2025-09-18T23:48:09	15	84.5
136923	2025-09-19T00:08:09	14.7	85.5
136924	2025-09-19T00:18:10	14.5	86
136925	2025-09-19T00:28:09	14.3	86
136926	2025-09-19T00:38:09	14.3	86
136927	2025-09-19T00:48:09	14	86.5
136928	2025-09-19T00:58:10	13.9	87
136929	2025-09-19T01:08:10	13.9	86.5
136930	2025-09-19T01:18:09	13.7	87
136931	2025-09-19T01:28:09	13.6	87.5
136932	2025-09-19T01:38:09	13.4	88
136933	2025-09-19T01:48:09	13.3	89
136934	2025-09-19T01:58:09	13.2	89
136935	2025-09-19T02:08:09	13	89
136936	2025-09-19T02:18:09	12.8	89.5
136937	2025-09-19T02:28:09	12.7	89
136938	2025-09-19T02:38:09	12.5	90
136939	2025-09-19T02:48:09	12.4	90
136940	2025-09-19T02:58:09	12.3	90.5
136941	2025-09-19T03:08:09	12.2	90.5
136942	2025-09-19T03:18:09	12	90.5
136943	2025-09-19T03:28:09	11.9	91
136944	2025-09-19T03:38:09	11.9	91.5
136945	2025-09-19T03:48:09	11.9	91.5
136946	2025-09-19T03:58:09	11.7	91.5
136947	2025-09-19T04:08:09	11.5	91.5
136948	2025-09-19T04:18:09	11.5	91.5
136949	2025-09-19T04:28:09	11.3	92
136950	2025-09-19T04:38:09	11.2	91.5
136951	2025-09-19T04:48:09	11.1	92
136952	2025-09-19T04:58:09	11.1	92
136953	2025-09-19T05:08:09	10.9	92.5
136954	2025-09-19T05:18:09	11	92.5
136955	2025-09-19T05:28:09	10.9	92
136956	2025-09-19T05:38:09	10.8	92
136957	2025-09-19T05:48:09	10.8	92.5
136958	2025-09-19T05:58:09	10.9	93
136959	2025-09-19T06:08:09	11.1	93.5
136960	2025-09-19T06:18:09	11.2	94
136961	2025-09-19T06:28:09	11.4	94
136962	2025-09-19T06:38:09	11.7	95
136963	2025-09-19T06:48:09	11.9	95.5
136964	2025-09-19T06:58:09	12.1	96
136965	2025-09-19T07:08:09	12.3	96.5
136966	2025-09-19T07:18:09	12.5	96
136967	2025-09-19T07:28:09	12.8	96.5
136968	2025-09-19T07:38:09	13.1	96.5
136969	2025-09-19T07:48:09	13.4	95.5
136970	2025-09-19T07:58:09	13.9	94.5
136971	2025-09-19T08:08:09	14.1	91.5
136972	2025-09-19T08:18:09	14.2	92
136973	2025-09-19T08:28:09	14.5	90.5
136974	2025-09-19T08:38:09	14.9	89.5
136975	2025-09-19T08:48:09	15	87
136976	2025-09-19T08:58:09	15.3	87
136977	2025-09-19T09:08:09	15.9	84
136978	2025-09-19T09:18:09	16.4	83.5
136979	2025-09-19T09:28:09	16.8	83
136980	2025-09-19T09:38:09	17.2	81
136981	2025-09-19T09:48:09	17.4	79.5
136982	2025-09-19T09:58:09	17.7	80
136983	2025-09-19T10:08:09	18.1	77.5
136984	2025-09-19T10:18:09	18.4	76.5
136985	2025-09-19T10:28:09	18.6	77
136986	2025-09-19T10:38:09	18.5	77
136987	2025-09-19T10:48:09	18.8	78.5
136988	2025-09-19T10:58:09	19.2	76
136989	2025-09-19T11:08:09	19.6	75.5
136990	2025-09-19T11:18:09	20	74
136991	2025-09-19T11:28:09	20.4	74.5
136992	2025-09-19T11:38:09	20.9	72
136993	2025-09-19T11:48:09	21.2	72
136994	2025-09-19T11:58:08	25.9	60
136995	2025-09-19T12:08:08	31	45
136996	2025-09-19T12:18:08	34.4	38
136997	2025-09-19T12:28:08	36.5	36
136998	2025-09-19T12:38:08	36.9	34
136999	2025-09-19T12:48:08	38.2	32.5
137000	2025-09-19T12:58:08	39	32
137001	2025-09-19T13:08:08	38.7	32
137002	2025-09-19T13:18:08	40.6	30
137003	2025-09-19T13:28:08	42.1	29
137004	2025-09-19T13:38:08	42.3	28
137005	2025-09-19T13:48:08	42.7	28
137006	2025-09-19T13:58:08	43.6	27.5
137007	2025-09-19T14:08:08	44	26
137008	2025-09-19T14:18:09	43.7	25.5
137009	2025-09-19T14:28:08	43.7	25
137010	2025-09-19T14:38:08	44.1	24.5
137011	2025-09-19T14:48:08	44.5	24
137012	2025-09-19T14:58:08	44.1	25.5
137013	2025-09-19T15:08:08	42.9	29
137014	2025-09-19T15:18:08	41.5	30
137015	2025-09-19T15:28:08	41.1	30.5
137016	2025-09-19T15:38:08	40.9	30
137017	2025-09-19T15:48:08	39.6	31
137018	2025-09-19T15:58:08	39.3	31
137019	2025-09-19T16:08:08	38.9	32
137020	2025-09-19T16:18:08	37.2	34
137021	2025-09-19T16:28:08	35.7	37
137022	2025-09-19T16:38:08	35.5	41
137023	2025-09-19T16:48:08	34.1	45
137024	2025-09-19T16:58:08	32.6	48.5
137025	2025-09-19T17:08:08	31.5	51.5
137026	2025-09-19T17:18:08	30.3	54.5
137027	2025-09-19T17:28:08	29.2	57
137028	2025-09-19T17:38:08	28.3	60
137029	2025-09-19T17:48:08	27.7	61.5
137030	2025-09-19T17:58:08	27	63.5
137031	2025-09-19T18:08:08	26.3	63
137032	2025-09-19T18:18:08	25.7	63.5
137033	2025-09-19T18:28:08	25.2	63.5
137034	2025-09-19T18:38:08	24.7	64
137035	2025-09-19T18:48:08	24.3	64.5
137036	2025-09-19T18:58:08	24	65.5
137037	2025-09-19T19:08:08	23.7	66
137038	2025-09-19T19:18:08	23.1	68
137039	2025-09-19T19:28:08	22.4	71
137040	2025-09-19T19:38:08	22.2	71.5
137041	2025-09-19T19:48:08	22.1	71.5
137042	2025-09-19T19:58:08	21.9	72.5
137043	2025-09-19T20:08:08	21.7	72.5
137044	2025-09-19T20:18:08	21.4	73.5
137045	2025-09-19T20:28:08	21.2	73
137046	2025-09-19T20:38:08	20.8	74
137047	2025-09-19T20:48:08	20.5	75
137048	2025-09-19T20:58:08	20.3	75.5
137049	2025-09-19T21:08:08	20.1	76.5
137050	2025-09-19T21:18:08	19.7	78
137051	2025-09-19T21:28:08	19.6	78
137052	2025-09-19T21:38:08	19.5	78
137053	2025-09-19T21:48:08	19.3	77
137054	2025-09-19T21:58:08	19.1	78.5
137055	2025-09-19T22:18:08	18.8	80
137056	2025-09-19T22:28:08	18.9	80
137057	2025-09-19T22:38:07	18.6	80.5
137058	2025-09-19T22:48:07	18.4	80.5
137059	2025-09-19T22:58:07	18	80.5
137060	2025-09-19T23:18:07	17.7	82
137061	2025-09-19T23:28:07	17.7	83
137062	2025-09-19T23:38:07	17.5	83
137063	2025-09-19T23:48:07	17.3	83.5
137064	2025-09-19T23:58:07	17.3	84
137065	2025-09-20T00:08:07	17.2	84.5
137066	2025-09-20T00:18:07	17	84.5
137067	2025-09-20T00:28:07	16.7	85
137068	2025-09-20T00:38:07	16.7	85.5
137069	2025-09-20T00:48:07	16.6	86
137070	2025-09-20T00:58:07	16.4	85
137071	2025-09-20T01:08:07	16.4	86
137072	2025-09-20T01:18:07	16.1	87
137073	2025-09-20T01:28:07	15.7	88
137074	2025-09-20T01:38:07	15.8	87.5
137075	2025-09-20T01:48:07	15.8	88
137076	2025-09-20T02:08:07	15.7	88
137077	2025-09-20T02:18:07	15.7	88
137078	2025-09-20T02:28:07	15.6	88.5
137079	2025-09-20T02:38:07	15.5	89
137080	2025-09-20T02:48:07	15.4	88.5
137081	2025-09-20T02:58:07	15.4	89
137082	2025-09-20T03:08:07	15.3	89
137083	2025-09-20T03:18:07	15.2	89.5
137084	2025-09-20T03:28:07	15.1	89.5
137085	2025-09-20T03:38:07	15	89.5
137086	2025-09-20T03:48:07	15	89.5
137087	2025-09-20T03:58:07	14.9	89.5
137088	2025-09-20T04:08:07	14.7	90
137089	2025-09-20T04:18:07	14.6	90.5
137090	2025-09-20T04:28:07	14.4	91
137091	2025-09-20T04:38:07	14.2	90.5
137092	2025-09-20T04:48:07	14.1	91
137093	2025-09-20T04:58:07	14	91
137094	2025-09-20T05:08:07	13.9	92
137095	2025-09-20T05:18:07	13.9	92
137096	2025-09-20T05:28:07	13.9	91.5
137097	2025-09-20T05:38:07	13.7	92
137098	2025-09-20T05:48:07	13.8	92
137099	2025-09-20T05:58:25	13.9	92.5
137100	2025-09-20T06:08:07	14.1	92.5
137101	2025-09-20T06:18:07	14.3	92
137102	2025-09-20T06:28:07	14.4	92.5
137103	2025-09-20T06:48:07	14.9	93
137104	2025-09-20T06:58:07	15.1	93
137105	2025-09-20T07:08:07	15.4	93.5
137106	2025-09-20T07:18:07	15.8	94
137107	2025-09-20T07:28:07	16.2	93.5
137108	2025-09-20T07:38:07	16.7	91.5
137109	2025-09-20T07:48:07	17.1	92
137110	2025-09-20T07:58:07	17.6	88
137111	2025-09-20T08:08:07	17.9	88
137112	2025-09-20T08:18:07	18.1	87.5
137113	2025-09-20T08:28:07	18.5	87
137114	2025-09-20T08:38:07	18.7	86.5
137115	2025-09-20T08:48:07	19	86.5
137116	2025-09-20T08:58:07	19.3	86.5
137117	2025-09-20T09:08:07	19.3	87
137118	2025-09-20T09:18:07	19.6	86.5
137119	2025-09-20T09:28:07	20	86
137120	2025-09-20T09:38:07	20.5	83.5
137121	2025-09-20T09:48:07	20.8	85
137122	2025-09-20T09:58:07	21.2	83
137123	2025-09-20T10:08:07	21.5	83.5
137124	2025-09-20T10:18:07	21.9	83.5
137125	2025-09-20T10:28:06	22.4	80
137126	2025-09-20T10:38:06	22.8	79.5
137127	2025-09-20T10:48:06	23.5	74.5
137128	2025-09-20T10:58:06	24.5	69
137129	2025-09-20T11:08:06	25.1	68
137130	2025-09-20T11:18:06	25.7	63.5
137131	2025-09-20T11:28:06	26.9	54
137132	2025-09-20T11:38:06	27.7	53
137133	2025-09-20T11:48:06	28.2	54
137134	2025-09-20T11:58:06	32	44
137135	2025-09-20T12:08:06	34.6	38
137136	2025-09-20T12:18:06	35.5	36
137137	2025-09-20T12:28:06	36	34.5
137138	2025-09-20T12:38:06	36.6	34.5
137139	2025-09-20T12:48:06	37.3	32.5
137140	2025-09-20T12:58:06	37.8	31.5
137141	2025-09-20T13:08:06	37.9	32
137142	2025-09-20T13:18:06	38.3	32.5
137143	2025-09-20T13:28:06	39.3	31
137144	2025-09-20T13:38:06	37.9	31.5
137145	2025-09-20T13:48:06	38.4	32
137146	2025-09-20T13:58:06	37.8	32.5
137147	2025-09-20T14:08:06	37.9	33
137148	2025-09-20T14:18:06	37.9	33
137149	2025-09-20T14:28:06	38.1	32.5
137150	2025-09-20T14:38:06	38.3	32.5
137151	2025-09-20T14:48:06	37.9	33.5
137152	2025-09-20T14:58:06	35.1	37.5
137153	2025-09-20T15:08:06	36.6	34
137154	2025-09-20T15:18:06	38.1	32.5
137155	2025-09-20T15:28:06	37.6	32
137156	2025-09-20T16:43:58	33.9	39.5
137157	2025-09-20T16:43:59	37.6	32
137158	2025-09-20T16:44:00	36.3	33.5
137159	2025-09-20T16:44:01	36.9	33.5
137160	2025-09-20T16:44:02	36.7	34.5
137161	2025-09-20T16:44:02	34.5	37.5
137162	2025-09-20T16:44:02	33.9	41
137163	2025-09-20T16:48:06	33	40
137164	2025-09-20T16:58:06	31.6	43.5
137165	2025-09-20T17:08:06	30.2	45.5
137166	2025-09-20T17:18:06	29.9	49.5
137167	2025-09-20T17:28:06	29.4	53
137168	2025-09-20T17:38:06	28.8	54.5
137169	2025-09-20T17:48:06	28.1	55.5
137170	2025-09-20T17:58:06	27.5	56
137171	2025-09-20T18:08:06	27.1	58
137172	2025-09-20T18:18:06	26.9	58.5
137173	2025-09-20T18:28:06	26.2	59.5
137174	2025-09-20T18:38:06	26.1	60
137175	2025-09-20T18:48:06	26.1	61
137176	2025-09-20T18:58:06	25.9	61.5
137177	2025-09-20T19:08:06	25.8	63
137178	2025-09-20T19:18:06	25.4	63.5
137179	2025-09-20T19:28:06	25.3	65
137180	2025-09-20T19:38:06	24.8	65
137181	2025-09-20T19:48:06	24.5	67
137182	2025-09-20T19:58:06	24.2	68.5
137183	2025-09-20T20:08:06	24.1	69
137184	2025-09-20T20:18:06	24	69
137185	2025-09-20T20:28:06	23.8	69.5
137186	2025-09-20T20:38:06	23.7	70.5
137187	2025-09-20T20:48:06	23.4	71
137188	2025-09-20T20:58:05	23	72
137189	2025-09-20T21:08:05	22.8	73
137190	2025-09-20T21:18:05	22.6	73
137191	2025-09-20T21:28:05	22.3	74.5
137192	2025-09-20T21:38:05	22.1	75.5
137193	2025-09-20T21:48:05	22.1	75
137194	2025-09-20T21:58:05	22	75.5
137195	2025-09-20T22:08:05	21.9	76
137196	2025-09-20T22:18:05	21.7	76.5
137197	2025-09-20T22:28:05	21.3	77
137198	2025-09-20T22:38:05	21.1	78.5
137199	2025-09-20T22:48:05	20.8	79.5
137200	2025-09-20T22:58:05	20.4	80
137201	2025-09-20T23:08:05	20.3	80
137202	2025-09-20T23:18:05	20	80.5
137203	2025-09-20T23:28:05	19.9	81
137204	2025-09-20T23:38:05	19.7	81
137205	2025-09-20T23:48:05	19.5	81.5
137206	2025-09-20T23:58:05	19.4	82
137207	2025-09-21T00:08:05	19.2	82
137208	2025-09-21T00:18:05	19	82.5
137209	2025-09-21T00:28:05	19	83
137210	2025-09-21T00:38:05	18.7	82.5
137211	2025-09-21T00:48:05	18.7	83
137212	2025-09-21T00:58:05	18.8	82
137213	2025-09-21T01:08:05	18.7	82
137214	2025-09-21T01:18:05	18.6	82.5
137215	2025-09-21T01:28:05	18.5	83
137216	2025-09-21T01:38:05	18.5	83.5
137217	2025-09-21T01:48:05	18.5	83.5
137218	2025-09-21T01:58:05	18.2	84.5
137219	2025-09-21T02:08:05	18.1	84.5
137220	2025-09-21T02:18:05	18.1	85
137221	2025-09-21T02:28:05	18	85.5
137222	2025-09-21T02:38:05	17.9	85.5
137223	2025-09-21T02:48:05	17.9	85.5
137224	2025-09-21T02:58:05	17.9	85.5
137225	2025-09-21T03:08:05	17.7	86
137226	2025-09-21T03:18:05	17.6	86
137227	2025-09-21T03:28:05	17.6	86.5
137228	2025-09-21T03:38:05	17.5	86
137229	2025-09-21T03:48:05	17.3	87.5
137230	2025-09-21T03:58:05	17.3	87.5
137231	2025-09-21T04:08:05	17	89
137232	2025-09-21T04:18:05	17	88.5
137233	2025-09-21T04:28:05	16.7	89.5
137234	2025-09-21T04:38:05	16.9	89
137235	2025-09-21T04:48:05	16.7	89.5
137236	2025-09-21T04:58:05	16.7	89.5
137237	2025-09-21T05:08:05	16.8	90
137238	2025-09-21T05:18:05	17.4	89
137239	2025-09-21T05:28:05	17.8	88
137240	2025-09-21T05:38:05	18.3	87
137241	2025-09-21T05:48:05	18.4	87
137242	2025-09-21T05:58:05	18.4	87
137243	2025-09-21T06:08:05	18.5	87
137244	2025-09-21T06:18:05	18.8	86.5
137245	2025-09-21T06:28:05	18.9	87
137246	2025-09-21T06:38:05	19	86.5
137247	2025-09-21T06:48:05	19.1	86.5
137248	2025-09-21T06:58:05	19.2	86.5
137249	2025-09-21T07:08:05	19.3	86.5
137250	2025-09-21T07:18:05	19.4	85.5
137251	2025-09-21T07:28:05	19.5	85
137252	2025-09-21T07:38:04	19.4	84
137253	2025-09-21T07:48:04	19.6	83.5
137254	2025-09-21T07:58:04	20	82
137255	2025-09-21T08:08:04	20.1	81.5
137256	2025-09-21T08:18:04	19.8	82
137257	2025-09-21T08:28:04	19.7	81.5
137258	2025-09-21T08:38:04	20	81
137259	2025-09-21T08:48:04	20.4	79.5
137260	2025-09-21T08:58:04	20.5	79
137261	2025-09-21T09:08:04	20.9	77
137262	2025-09-21T09:18:04	21.9	75
137263	2025-09-21T09:28:04	22.3	73
137264	2025-09-21T09:38:04	22.2	72.5
137265	2025-09-21T09:48:04	22.3	72.5
137266	2025-09-21T09:58:04	22.3	73
137267	2025-09-21T10:08:04	22.1	74
137268	2025-09-21T10:18:04	22.4	73.5
137269	2025-09-21T10:28:04	22.5	72
137270	2025-09-21T10:38:04	22.8	71.5
137271	2025-09-21T10:48:04	22.7	72.5
137272	2025-09-21T10:58:04	22.6	73
137273	2025-09-21T11:08:04	22.7	74
137274	2025-09-21T11:18:04	22.4	73
137275	2025-09-21T11:28:04	22.2	74
137276	2025-09-21T11:38:04	21.9	75
137277	2025-09-21T11:48:04	21.8	75.5
137278	2025-09-21T11:58:04	21.5	76.5
137279	2025-09-21T12:08:04	21.1	81.5
137280	2025-09-21T12:18:04	19.8	97.5
137281	2025-09-21T12:28:04	18.8	99.5
137282	2025-09-21T12:38:04	18.8	100
137283	2025-09-21T12:48:04	18.5	98
137284	2025-09-21T12:58:04	19.5	95.5
137285	2025-09-21T13:08:04	19	95
137286	2025-09-21T13:18:04	19.1	95
137287	2025-09-21T13:28:04	18.7	98
137288	2025-09-21T13:38:04	18.7	98
137289	2025-09-21T13:48:04	18.3	98
137290	2025-09-21T13:58:04	18.5	98
137291	2025-09-21T14:08:04	18.5	98
137292	2025-09-21T14:18:04	18.3	98
137293	2025-09-21T14:28:04	18.2	98
137294	2025-09-21T14:38:04	18.3	98.5
137295	2025-09-21T14:48:04	18.2	100
137296	2025-09-21T14:58:04	18.2	100
137297	2025-09-21T15:08:04	18	100
137298	2025-09-21T15:18:04	18.1	100
137299	2025-09-21T15:28:04	18.1	100
137300	2025-09-21T15:38:04	17.8	100
137301	2025-09-21T15:48:04	17.6	100
137302	2025-09-21T15:58:04	17.6	100
137303	2025-09-21T16:08:04	17.7	100
137304	2025-09-21T16:18:04	17.9	100
137305	2025-09-21T16:28:04	17.6	100
137306	2025-09-21T16:38:04	17.1	100
137307	2025-09-21T16:48:04	16.1	100
137308	2025-09-21T16:58:04	15.7	100
137309	2025-09-21T17:08:24	15.5	100
137310	2025-09-21T17:18:04	15.2	100
137311	2025-09-21T17:28:04	15	100
137312	2025-09-21T17:38:04	15.1	100
137313	2025-09-21T17:48:04	14.8	100
137314	2025-09-21T17:58:04	14.2	100
137315	2025-09-21T18:08:04	14	100
137316	2025-09-21T18:18:04	13.9	100
137317	2025-09-21T18:28:04	13.7	100
137318	2025-09-21T18:38:03	13.7	100
137319	2025-09-21T18:48:03	13.8	100
137320	2025-09-21T18:58:03	13.9	100
137321	2025-09-21T19:08:03	14	100
137322	2025-09-21T19:18:03	13.9	100
137323	2025-09-21T19:28:03	13.8	100
137324	2025-09-21T19:38:03	13.7	100
137325	2025-09-21T19:48:03	13.6	100
137326	2025-09-21T19:58:03	13.5	100
137327	2025-09-21T20:08:03	13.6	100
137328	2025-09-21T20:18:03	13.6	100
137329	2025-09-21T20:28:03	13.6	100
137330	2025-09-21T20:38:03	13.8	100
137331	2025-09-21T20:48:03	13.8	100
137332	2025-09-21T20:58:03	13.7	100
137333	2025-09-21T21:08:03	13.6	100
137334	2025-09-21T21:18:03	13.7	100
137335	2025-09-21T21:28:03	13.6	100
137336	2025-09-21T21:38:03	13.5	100
137337	2025-09-21T21:48:03	13.5	100
137338	2025-09-21T21:58:03	13.5	100
137339	2025-09-21T22:08:03	13.5	100
137340	2025-09-21T22:18:03	13.4	100
137341	2025-09-21T22:28:03	13.4	100
137342	2025-09-21T22:38:03	13.4	100
137343	2025-09-21T22:48:03	13.3	100
137344	2025-09-21T22:58:03	13.3	100
137345	2025-09-21T23:08:03	13.2	100
137346	2025-09-21T23:18:03	13.3	100
137347	2025-09-21T23:28:03	13.2	100
137348	2025-09-21T23:38:03	13.2	100
137349	2025-09-21T23:48:03	13.2	100
137350	2025-09-21T23:58:03	13	100
137351	2025-09-22T00:08:03	13.1	100
137352	2025-09-22T00:18:03	13.1	100
137353	2025-09-22T00:28:03	12.9	100
137354	2025-09-22T00:38:03	12.8	100
137355	2025-09-22T00:48:03	13	100
137356	2025-09-22T00:58:03	12.9	100
137357	2025-09-22T01:08:03	13	100
137358	2025-09-22T01:18:03	13	100
137359	2025-09-22T01:28:03	12.9	100
137360	2025-09-22T01:38:03	12.8	100
137361	2025-09-22T01:48:03	12.8	100
137362	2025-09-22T01:58:03	12.7	100
137363	2025-09-22T02:08:03	12.8	100
137364	2025-09-22T02:18:03	12.7	100
137365	2025-09-22T02:28:03	12.6	100
137366	2025-09-22T02:38:03	12.6	100
137367	2025-09-22T02:48:03	12.7	100
137368	2025-09-22T02:58:03	12.7	100
137369	2025-09-22T03:08:03	12.7	100
137370	2025-09-22T03:18:03	12.7	100
137371	2025-09-22T03:28:03	12.7	100
137372	2025-09-22T03:38:03	12.7	100
137373	2025-09-22T03:48:03	12.7	100
137374	2025-09-22T03:58:03	12.6	100
137375	2025-09-22T04:08:03	12.4	100
137376	2025-09-22T04:18:03	12.3	100
137377	2025-09-22T04:28:03	12.3	100
137378	2025-09-22T04:38:03	12.1	100
137379	2025-09-22T04:48:03	12	100
137380	2025-09-22T04:58:03	12	100
137381	2025-09-22T05:08:03	12	100
137382	2025-09-22T05:18:03	11.9	100
137383	2025-09-22T05:28:03	11.8	100
137384	2025-09-22T05:38:03	11.8	100
137385	2025-09-22T05:48:03	11.8	100
137386	2025-09-22T05:58:03	11.7	100
137387	2025-09-22T06:08:03	11.7	100
137388	2025-09-22T06:18:03	11.6	100
137389	2025-09-22T06:28:03	11.6	100
137390	2025-09-22T06:38:03	11.6	100
137391	2025-09-22T06:48:03	11.7	100
137392	2025-09-22T06:58:03	11.6	100
137393	2025-09-22T07:08:03	11.7	100
137394	2025-09-22T07:18:03	11.7	100
137395	2025-09-22T07:28:03	11.6	100
137396	2025-09-22T07:38:03	11.6	100
137397	2025-09-22T07:48:02	11.8	100
137398	2025-09-22T07:58:02	11.7	100
137399	2025-09-22T08:08:02	11.8	100
137400	2025-09-22T08:18:02	11.8	100
137401	2025-09-22T08:28:02	11.9	100
137402	2025-09-22T08:38:02	11.9	100
137403	2025-09-22T08:48:02	12	100
137404	2025-09-22T08:58:02	12.1	100
137405	2025-09-22T09:08:02	12.1	100
137406	2025-09-22T09:18:02	12.1	99.5
137407	2025-09-22T09:28:02	12.2	98
137408	2025-09-22T09:38:02	12.2	97.5
137409	2025-09-22T09:48:02	12.3	96.5
137410	2025-09-22T09:58:02	12.3	96.5
137411	2025-09-22T10:08:02	12.5	96.5
137412	2025-09-22T10:18:02	12.6	96.5
137413	2025-09-22T10:28:02	12.5	96.5
137414	2025-09-22T10:38:02	12.7	96.5
137415	2025-09-22T10:48:02	12.7	96.5
137416	2025-09-22T10:58:02	12.7	96.5
137417	2025-09-22T11:08:02	12.9	96.5
137418	2025-09-22T11:18:02	12.9	96.5
137419	2025-09-22T11:28:02	13	97
137420	2025-09-22T11:38:02	13	96.5
137421	2025-09-22T11:48:02	13	97
137422	2025-09-22T11:58:02	13.1	96.5
137423	2025-09-22T12:08:02	13.1	97
137424	2025-09-22T12:18:02	13	97
137425	2025-09-22T12:28:02	13.1	97
137426	2025-09-22T12:38:02	13	97
137427	2025-09-22T12:48:02	12.8	97
137428	2025-09-22T12:58:02	12.9	96.5
137429	2025-09-22T13:08:02	12.9	97
137430	2025-09-22T13:18:02	12.8	97
137431	2025-09-22T13:28:02	12.8	97
137432	2025-09-22T13:38:02	12.7	97
137433	2025-09-22T13:48:02	12.7	97
137434	2025-09-22T13:58:02	12.6	97
137435	2025-09-22T14:08:02	12.6	97
137436	2025-09-22T14:18:02	12.6	97
137437	2025-09-22T14:28:02	12.6	97
137438	2025-09-22T14:38:02	12.5	97
137439	2025-09-22T14:48:02	12.3	97
137440	2025-09-22T14:58:02	12.3	97
137441	2025-09-22T15:08:02	12.1	97
137442	2025-09-22T15:18:02	12	97
137443	2025-09-22T15:28:02	11.9	97
137444	2025-09-22T15:38:02	11.9	97
137445	2025-09-22T15:48:02	11.8	97
137446	2025-09-22T15:58:02	11.8	97
137447	2025-09-22T16:08:02	11.7	97
137448	2025-09-22T16:18:02	11.6	97
137449	2025-09-22T16:28:02	11.6	97
137450	2025-09-22T16:38:02	11.5	100
137451	2025-09-22T16:48:02	11.5	100
137452	2025-09-22T16:58:02	11.4	100
137453	2025-09-22T17:08:02	11.4	100
137454	2025-09-22T17:18:02	11.3	100
137455	2025-09-22T17:28:02	11.2	100
137456	2025-09-22T17:38:02	11.1	100
137457	2025-09-22T17:48:02	11.1	100
137458	2025-09-22T17:58:02	11.1	100
137459	2025-09-22T18:08:02	11.1	100
137460	2025-09-22T18:18:02	11	100
137461	2025-09-22T18:28:02	11	100
137462	2025-09-22T18:38:02	11	100
137463	2025-09-22T18:48:02	11	100
137464	2025-09-22T18:58:02	11	100
137465	2025-09-22T19:08:02	11	100
137466	2025-09-22T19:18:02	11	100
137467	2025-09-22T19:28:02	11	100
137468	2025-09-22T19:38:02	10.9	100
137469	2025-09-22T19:48:02	11	100
137470	2025-09-22T19:58:02	10.9	100
137471	2025-09-22T20:08:02	11	100
137472	2025-09-22T20:18:02	11	100
137473	2025-09-22T20:28:02	11	100
137474	2025-09-22T20:38:02	10.8	100
137475	2025-09-22T20:48:02	10.7	100
137476	2025-09-22T20:58:02	10.7	100
137477	2025-09-22T21:08:02	10.6	100
137478	2025-09-22T21:18:02	10.8	100
137479	2025-09-22T21:28:02	10.7	100
137480	2025-09-22T21:38:02	10.8	100
137481	2025-09-22T21:48:02	10.7	100
137482	2025-09-22T21:58:01	10.5	100
137483	2025-09-22T22:08:01	10.5	100
137484	2025-09-22T22:18:01	10.5	100
137485	2025-09-22T22:28:01	10.5	100
137486	2025-09-22T22:38:01	10.3	100
137487	2025-09-22T22:48:01	10.4	100
137488	2025-09-22T22:58:01	10.4	100
137489	2025-09-22T23:08:01	10.3	100
137490	2025-09-22T23:18:01	10.5	100
137491	2025-09-22T23:28:01	10.5	100
137492	2025-09-22T23:38:02	10.5	100
137493	2025-09-22T23:48:01	10.5	100
137494	2025-09-22T23:58:01	10.5	100
137495	2025-09-23T00:08:01	10.5	100
137496	2025-09-23T00:18:01	10.4	100
137497	2025-09-23T00:28:01	10.4	100
137498	2025-09-23T00:38:01	10.5	100
137499	2025-09-23T00:48:01	10.4	100
137500	2025-09-23T00:58:01	10.6	100
137501	2025-09-23T01:08:01	10.5	100
137502	2025-09-23T01:18:01	10.5	100
137503	2025-09-23T01:28:01	10.5	100
137504	2025-09-23T01:38:01	10.5	100
137505	2025-09-23T01:48:01	10.5	100
137506	2025-09-23T01:58:01	10.5	100
137507	2025-09-23T02:08:01	10.5	100
137508	2025-09-23T02:18:01	10.5	100
137509	2025-09-23T02:28:01	10.5	100
137510	2025-09-23T02:38:01	10.5	100
137511	2025-09-23T02:48:01	10.5	100
137512	2025-09-23T02:58:01	10.5	100
137513	2025-09-23T03:08:01	10.5	100
137514	2025-09-23T03:18:01	10.6	100
137515	2025-09-23T03:28:01	10.5	100
137516	2025-09-23T03:38:01	10.6	100
137517	2025-09-23T03:48:01	10.5	100
137518	2025-09-23T03:58:01	10.6	100
137519	2025-09-23T04:08:01	10.6	100
137520	2025-09-23T04:18:01	10.6	100
137521	2025-09-23T04:28:01	10.6	100
137522	2025-09-23T04:38:01	10.6	100
137523	2025-09-23T04:48:01	10.6	100
137524	2025-09-23T04:58:01	10.6	100
137525	2025-09-23T05:08:01	10.6	100
137526	2025-09-23T05:18:01	10.6	100
137527	2025-09-23T05:28:01	10.6	100
137528	2025-09-23T05:38:01	10.7	100
137529	2025-09-23T05:48:01	10.6	100
137530	2025-09-23T05:58:01	10.6	100
137531	2025-09-23T06:08:01	10.7	100
137532	2025-09-23T06:18:01	10.8	100
137533	2025-09-23T06:28:01	10.6	100
137534	2025-09-23T06:38:01	10.7	100
137535	2025-09-23T06:48:01	10.7	100
137536	2025-09-23T06:58:01	10.8	100
137537	2025-09-23T07:08:01	11	100
137538	2025-09-23T07:18:01	11.1	100
137539	2025-09-23T07:28:01	11.1	100
137540	2025-09-23T07:38:01	11.3	100
137541	2025-09-23T07:48:01	11.4	100
137542	2025-09-23T07:58:01	11.6	100
137543	2025-09-23T08:08:01	11.6	100
137544	2025-09-23T08:18:01	11.5	100
137545	2025-09-23T08:28:01	11.4	99
137546	2025-09-23T08:38:01	11.7	99.5
137547	2025-09-23T08:48:01	11.5	98.5
137548	2025-09-23T08:58:01	11.5	97.5
137549	2025-09-23T09:08:01	11.6	97.5
137550	2025-09-23T09:18:01	11.7	96.5
137551	2025-09-23T09:28:01	11.7	96.5
137552	2025-09-23T09:38:01	11.8	95.5
137553	2025-09-23T09:48:01	12	95
137554	2025-09-23T09:58:01	12.3	94.5
137555	2025-09-23T10:08:01	12.4	95.5
137556	2025-09-23T10:18:01	12.5	94.5
137557	2025-09-23T10:28:01	12.7	94
137558	2025-09-23T10:38:01	13.1	93
137559	2025-09-23T10:48:01	13.1	92
137560	2025-09-23T10:58:01	12.8	92
137561	2025-09-23T11:08:01	12.7	91
137562	2025-09-23T11:18:01	13.1	90
137563	2025-09-23T11:28:01	13.1	90.5
137564	2025-09-23T11:38:01	13.1	89.5
137565	2025-09-23T11:48:01	13.3	88.5
137566	2025-09-23T11:58:01	13.3	88.5
137567	2025-09-23T12:08:01	13.3	88.5
137568	2025-09-23T12:18:00	13.2	89.5
137569	2025-09-23T12:28:01	13.1	89.5
137570	2025-09-23T12:38:00	13.3	89.5
137571	2025-09-23T12:58:00	13.3	89
137572	2025-09-23T13:08:00	13.3	87
137573	2025-09-23T13:18:00	13.3	88
137574	2025-09-23T13:28:00	13.5	86.5
137575	2025-09-23T13:38:00	14	85
137576	2025-09-23T13:48:00	14.5	84
137577	2025-09-23T13:58:00	14.2	84
137578	2025-09-23T14:08:00	14.5	84.5
137579	2025-09-23T14:18:00	14.4	83
137580	2025-09-23T14:28:00	14.1	84
137581	2025-09-23T14:38:00	14	85.5
137582	2025-09-23T14:48:00	13.9	85.5
137583	2025-09-23T14:58:00	13.6	86
137584	2025-09-23T15:08:00	13.5	87
137585	2025-09-23T15:18:00	13.3	86
137586	2025-09-23T15:28:00	13.3	88
137587	2025-09-23T15:38:00	13.3	88.5
137588	2025-09-23T15:48:00	13.3	87.5
137589	2025-09-23T15:58:00	13.3	89
137590	2025-09-23T16:08:00	13.1	87.5
137591	2025-09-23T16:18:00	13.2	87
137592	2025-09-23T16:28:00	13.1	87
137593	2025-09-23T16:38:00	13.1	88.5
137594	2025-09-23T16:48:00	13	90
137595	2025-09-23T16:58:00	13	90.5
137596	2025-09-23T17:08:00	12.9	91.5
137597	2025-09-23T17:18:00	12.8	92.5
137598	2025-09-23T17:28:00	12.7	94.5
137599	2025-09-23T17:38:00	12.6	95
137600	2025-09-23T17:48:00	12.5	95.5
137601	2025-09-23T17:58:00	12.5	97.5
137602	2025-09-23T18:08:00	12.4	98
137603	2025-09-23T18:18:00	12.3	99
137604	2025-09-23T18:28:00	12.3	98.5
137605	2025-09-23T18:38:00	12.3	99.5
137606	2025-09-23T18:48:00	12.3	98.5
137607	2025-09-23T18:58:00	12.1	99
137608	2025-09-23T19:08:19	12.1	99.5
137609	2025-09-23T19:18:00	11.9	100
137610	2025-09-23T19:28:00	11.9	100
137611	2025-09-23T19:38:00	11.9	100
137612	2025-09-23T19:48:00	11.7	100
137613	2025-09-23T19:58:00	11.5	100
137614	2025-09-23T20:08:00	11.4	100
137615	2025-09-23T20:18:00	11.4	100
137616	2025-09-23T20:28:00	11.5	100
137617	2025-09-23T20:38:00	11.5	100
137618	2025-09-23T20:48:00	11.3	100
137619	2025-09-23T20:58:00	11.2	100
137620	2025-09-23T21:08:00	11.3	100
137621	2025-09-23T21:18:00	11.2	100
137622	2025-09-23T21:28:00	11.3	100
137623	2025-09-23T21:38:00	11.1	100
137624	2025-09-23T21:48:00	11.1	100
137625	2025-09-23T21:58:00	11.1	100
137626	2025-09-23T22:08:00	11	100
137627	2025-09-23T22:18:00	10.9	100
137628	2025-09-23T22:28:00	10.9	100
137629	2025-09-23T22:38:00	10.9	100
137630	2025-09-23T22:48:00	10.8	100
137631	2025-09-23T22:58:00	10.7	100
137632	2025-09-23T23:08:00	10.7	100
137633	2025-09-23T23:18:00	10.7	100
137634	2025-09-23T23:28:00	10.6	100
137635	2025-09-23T23:38:00	10.6	100
137636	2025-09-23T23:48:20	10.6	100
137637	2025-09-23T23:58:00	10.5	100
137638	2025-09-24T00:08:00	10.5	100
137639	2025-09-24T00:18:00	10.5	100
137640	2025-09-24T00:28:00	10.5	100
137641	2025-09-24T00:38:00	10.6	100
137642	2025-09-24T00:48:00	10.5	100
137643	2025-09-24T00:58:00	10.6	100
137644	2025-09-24T01:08:00	10.5	100
137645	2025-09-24T01:18:00	10.5	100
137646	2025-09-24T01:28:00	10.4	100
137647	2025-09-24T01:38:00	10.4	100
137648	2025-09-24T01:48:00	10.3	100
137649	2025-09-24T01:58:00	10.4	100
137650	2025-09-24T02:08:00	10.3	100
137651	2025-09-24T02:18:00	10.3	100
137652	2025-09-24T02:28:00	10.3	100
137653	2025-09-24T02:37:59	10.3	100
137654	2025-09-24T02:47:59	10.2	100
137655	2025-09-24T02:57:59	10.3	100
137656	2025-09-24T03:07:59	10.2	100
137657	2025-09-24T03:17:59	10.3	100
137658	2025-09-24T03:27:59	10.2	100
137659	2025-09-24T03:37:59	10.2	100
137660	2025-09-24T03:47:59	10.2	100
137661	2025-09-24T03:57:59	10.2	100
137662	2025-09-24T04:07:59	10.3	100
137663	2025-09-24T04:17:59	10.2	100
137664	2025-09-24T04:27:59	10.1	100
137665	2025-09-24T04:37:59	10.2	100
137666	2025-09-24T04:47:59	10.2	100
137667	2025-09-24T04:57:59	10.2	100
137668	2025-09-24T05:07:59	10.3	100
137669	2025-09-24T05:17:59	10.3	100
137670	2025-09-24T05:27:59	10.2	100
137671	2025-09-24T05:37:59	10.1	100
137672	2025-09-24T05:47:59	10	100
137673	2025-09-24T05:57:59	10	100
137674	2025-09-24T06:07:59	10	100
137675	2025-09-24T06:17:59	10	100
137676	2025-09-24T06:27:59	10.1	100
137677	2025-09-24T06:37:59	10.1	100
137678	2025-09-24T06:47:59	10	100
137679	2025-09-24T06:57:59	10	100
137680	2025-09-24T07:07:59	10.1	100
137681	2025-09-24T07:17:59	10	100
137682	2025-09-24T07:27:59	10.1	100
137683	2025-09-24T07:37:59	10.1	100
137684	2025-09-24T07:47:59	10.1	100
137685	2025-09-24T07:57:59	10	100
137686	2025-09-24T08:07:59	10.2	100
137687	2025-09-24T08:17:59	10	100
137688	2025-09-24T08:27:59	10.1	100
137689	2025-09-24T08:37:59	10	100
137690	2025-09-24T08:47:59	10	100
137691	2025-09-24T08:57:59	10.1	100
137692	2025-09-24T09:07:59	10.1	100
137693	2025-09-24T09:17:59	10.1	100
137694	2025-09-24T09:27:59	10.2	100
137695	2025-09-24T09:37:59	10.2	100
137696	2025-09-24T09:47:59	10.1	100
137697	2025-09-24T09:57:59	10.2	100
137698	2025-09-24T10:07:59	10.3	100
137699	2025-09-24T10:17:59	10.2	100
137700	2025-09-24T10:27:59	10.2	100
137701	2025-09-24T10:37:59	10.3	100
137702	2025-09-24T10:47:59	10.3	100
137703	2025-09-24T10:57:59	10.3	100
137704	2025-09-24T11:07:59	10.3	100
137705	2025-09-24T11:17:59	10.5	100
137706	2025-09-24T11:27:59	10.5	100
137707	2025-09-24T11:37:59	10.8	100
137708	2025-09-24T11:47:59	10.8	100
137709	2025-09-24T11:57:59	10.9	99.5
137710	2025-09-24T12:07:59	10.9	99.5
137711	2025-09-24T12:17:59	11	99.5
137712	2025-09-24T12:27:59	11	99.5
137713	2025-09-24T12:37:59	11	100
137714	2025-09-24T12:47:59	10.9	100
137715	2025-09-24T12:57:59	11	100
137716	2025-09-24T13:07:59	11.1	100
137717	2025-09-24T13:17:59	10.7	100
137718	2025-09-24T13:27:59	10.6	100
137719	2025-09-24T13:37:59	10.5	100
137720	2025-09-24T13:47:59	10.5	100
137721	2025-09-24T13:57:59	10.4	100
137722	2025-09-24T14:07:59	10.4	100
137723	2025-09-24T14:17:59	10.3	100
137724	2025-09-24T14:27:59	10.3	100
137725	2025-09-24T14:37:59	10.1	100
137726	2025-09-24T14:47:59	10.3	100
137727	2025-09-24T14:57:59	10.3	100
137728	2025-09-24T15:07:59	10.3	100
137729	2025-09-24T15:17:59	10.2	100
137730	2025-09-24T15:27:59	10.2	100
137731	2025-09-24T15:37:59	10.1	100
137732	2025-09-24T15:47:59	10	100
137733	2025-09-24T15:57:59	10.1	100
137734	2025-09-24T16:07:59	10.1	100
137735	2025-09-24T16:17:59	10.2	100
137736	2025-09-24T16:27:59	10.2	100
137737	2025-09-24T16:37:59	10.1	100
137738	2025-09-24T16:47:59	10.1	100
137739	2025-09-24T16:57:59	10.1	100
137740	2025-09-24T17:07:59	10.1	100
137741	2025-09-24T17:17:59	10.2	100
137742	2025-09-24T17:27:59	10.2	100
137743	2025-09-24T17:37:59	10.1	100
137744	2025-09-24T17:47:59	10.2	100
137745	2025-09-24T17:57:58	10.2	100
137746	2025-09-24T18:07:58	10.2	100
137747	2025-09-24T18:17:58	10.3	100
137748	2025-09-24T18:27:58	10.2	100
137749	2025-09-24T18:37:58	10.3	100
137750	2025-09-24T18:47:58	10.3	100
137751	2025-09-24T18:57:58	10.3	100
137752	2025-09-24T19:07:58	10.2	100
137753	2025-09-24T19:17:58	10.2	100
137754	2025-09-24T19:27:58	10.1	100
137755	2025-09-24T19:37:58	10.1	100
137756	2025-09-24T19:47:58	10.2	100
137757	2025-09-24T19:57:58	10.2	100
137758	2025-09-24T20:07:58	10.3	100
137759	2025-09-24T20:17:58	10.3	100
137760	2025-09-24T20:27:58	10.3	100
137761	2025-09-24T20:37:58	10.3	100
137762	2025-09-24T20:47:58	10.3	100
137763	2025-09-24T20:57:58	10.3	100
137764	2025-09-24T21:07:58	10.2	100
137765	2025-09-24T21:17:58	10.4	100
137766	2025-09-24T21:27:58	10.4	100
137767	2025-09-24T21:37:58	10.4	100
137768	2025-09-24T21:47:58	10.3	100
137769	2025-09-24T21:57:58	10.3	100
137770	2025-09-24T22:07:58	10.3	100
137771	2025-09-24T22:17:58	10.4	100
137772	2025-09-24T22:27:58	10.4	100
137773	2025-09-24T22:37:58	10.4	100
137774	2025-09-24T22:47:58	10.5	100
137775	2025-09-24T22:57:58	10.4	100
137776	2025-09-24T23:07:58	10.4	100
137777	2025-09-24T23:17:58	10.5	100
137778	2025-09-24T23:27:58	10.4	100
137779	2025-09-24T23:37:58	10.4	100
137780	2025-09-24T23:47:58	10.5	100
137781	2025-09-24T23:57:58	10.5	100
137782	2025-09-25T00:07:58	10.4	100
137783	2025-09-25T00:17:58	10.5	100
137784	2025-09-25T00:27:58	10.4	100
137785	2025-09-25T00:37:58	10.4	100
137786	2025-09-25T00:47:58	10.4	100
137787	2025-09-25T00:57:58	10.4	100
137788	2025-09-25T01:07:58	10.5	100
137789	2025-09-25T01:17:58	10.6	100
137790	2025-09-25T01:27:58	10.6	100
137791	2025-09-25T01:37:58	10.5	100
137792	2025-09-25T01:47:58	10.5	100
137793	2025-09-25T01:57:58	10.5	100
137794	2025-09-25T02:07:58	10.5	100
137795	2025-09-25T02:17:58	10.5	100
137796	2025-09-25T02:27:58	10.5	100
137797	2025-09-25T02:37:58	10.5	100
137798	2025-09-25T02:47:58	10.5	100
137799	2025-09-25T02:57:58	10.5	100
137800	2025-09-25T03:07:58	10.5	100
137801	2025-09-25T03:17:58	10.5	100
137802	2025-09-25T03:27:58	10.4	100
137803	2025-09-25T03:37:58	10.4	100
137804	2025-09-25T03:47:58	10.4	100
137805	2025-09-25T03:57:58	10.4	100
137806	2025-09-25T04:07:58	10.5	100
137807	2025-09-25T04:17:58	10.4	100
137808	2025-09-25T04:27:58	10.4	100
137809	2025-09-25T04:37:58	10.5	100
137810	2025-09-25T04:47:58	10.5	100
137811	2025-09-25T04:57:58	10.4	100
137812	2025-09-25T05:07:58	10.5	100
137813	2025-09-25T05:17:58	10.5	100
137814	2025-09-25T05:27:58	10.4	100
137815	2025-09-25T05:37:58	10.5	100
137816	2025-09-25T05:47:58	10.6	100
137817	2025-09-25T05:57:58	10.5	100
137818	2025-09-25T06:07:58	10.5	100
137819	2025-09-25T06:17:58	10.6	100
137820	2025-09-25T06:27:58	10.5	100
137821	2025-09-25T06:37:58	10.6	100
137822	2025-09-25T06:47:58	10.5	100
137823	2025-09-25T06:57:58	10.6	100
137824	2025-09-25T07:07:58	10.6	100
137825	2025-09-25T07:17:58	10.6	100
137826	2025-09-25T07:27:58	10.4	100
137827	2025-09-25T07:37:58	10.5	100
137828	2025-09-25T07:47:58	10.5	100
137829	2025-09-25T07:57:58	10.5	100
137830	2025-09-25T08:07:58	10.6	100
137831	2025-09-25T08:17:58	10.7	100
137832	2025-09-25T08:27:58	10.9	100
137833	2025-09-25T08:37:58	11	100
137834	2025-09-25T08:47:58	10.9	100
137835	2025-09-25T08:57:58	11	100
137836	2025-09-25T09:07:58	10.8	100
137837	2025-09-25T09:17:57	11.1	100
137838	2025-09-25T09:27:57	11.1	100
137839	2025-09-25T09:37:57	11.3	100
137840	2025-09-25T09:47:57	11.5	100
137841	2025-09-25T09:57:57	11.3	100
137842	2025-09-25T10:07:57	11.4	100
137843	2025-09-25T10:17:57	11.5	100
137844	2025-09-25T10:27:57	11.6	100
137845	2025-09-25T10:37:57	11.5	100
137846	2025-09-25T10:47:57	11.4	100
137847	2025-09-25T10:57:57	11.4	100
137848	2025-09-25T11:07:57	11.4	100
137849	2025-09-25T11:17:57	11.6	100
137850	2025-09-25T11:27:57	11.6	100
137851	2025-09-25T11:37:57	11.9	100
137852	2025-09-25T11:47:57	12	100
137853	2025-09-25T11:57:57	11.9	100
137854	2025-09-25T12:07:57	11.9	100
137855	2025-09-25T12:17:57	11.9	100
137856	2025-09-25T12:27:57	12.1	100
137857	2025-09-25T12:37:57	12	100
137858	2025-09-25T12:47:57	12.3	100
137859	2025-09-25T12:57:57	12.4	100
137860	2025-09-25T13:07:57	12.6	100
137861	2025-09-25T13:17:57	12.2	99.5
137862	2025-09-25T13:27:57	12.2	100
137863	2025-09-25T13:37:57	12.2	100
137864	2025-09-25T13:47:57	12.2	100
137865	2025-09-25T13:57:57	11.9	100
137866	2025-09-25T14:07:57	12.1	100
137867	2025-09-25T14:17:57	11.8	100
137868	2025-09-25T14:27:57	11.8	100
137869	2025-09-25T14:37:57	11.9	100
137870	2025-09-25T14:47:57	12	100
137871	2025-09-25T14:57:57	12.1	100
137872	2025-09-25T15:07:57	12.1	100
137873	2025-09-25T15:17:57	12.1	100
137874	2025-09-25T15:27:57	12.1	100
137875	2025-09-25T15:37:57	12.1	100
137876	2025-09-25T15:47:57	12.1	100
137877	2025-09-25T15:57:57	12.1	100
137878	2025-09-25T16:07:57	12.1	100
137879	2025-09-25T16:17:57	12	100
137880	2025-09-25T16:27:57	12	100
137881	2025-09-25T16:37:57	12	100
137882	2025-09-25T16:47:57	11.8	100
137883	2025-09-25T16:57:57	11.9	100
137884	2025-09-25T17:07:57	11.9	100
137885	2025-09-25T17:17:57	11.8	100
137886	2025-09-25T17:27:57	11.7	100
137887	2025-09-25T17:37:57	11.7	100
137888	2025-09-25T17:47:57	11.6	100
137889	2025-09-25T17:57:57	11.5	100
137890	2025-09-25T18:07:57	11.5	100
137891	2025-09-25T18:17:57	11.3	100
137892	2025-09-25T18:27:57	11.3	100
137893	2025-09-25T18:37:57	11.1	100
137894	2025-09-25T18:47:57	11	100
137895	2025-09-25T18:57:57	11.1	100
137896	2025-09-25T19:07:57	11	100
137897	2025-09-25T19:17:57	11	100
137898	2025-09-25T19:27:57	10.9	100
137899	2025-09-25T19:37:57	11	100
137900	2025-09-25T19:47:57	11.1	100
137901	2025-09-25T19:57:57	11.1	100
137902	2025-09-25T20:07:57	10.8	100
137903	2025-09-25T20:17:57	10.6	100
137904	2025-09-25T20:27:57	10.5	100
137905	2025-09-25T20:37:57	10.3	100
137906	2025-09-25T20:47:57	10.4	100
137907	2025-09-25T20:57:57	10.2	100
137908	2025-09-25T21:07:57	10.3	100
137909	2025-09-25T21:17:57	10.1	100
137910	2025-09-25T21:27:57	9.8	100
137911	2025-09-25T21:37:57	9.6	100
137912	2025-09-25T21:47:57	9.5	100
137913	2025-09-25T21:57:57	9.4	100
137914	2025-09-25T22:07:57	9.3	100
137915	2025-09-25T22:17:57	9.2	100
137916	2025-09-25T22:27:57	9	100
137917	2025-09-25T22:37:57	9.1	100
137918	2025-09-25T22:47:57	9.3	100
137919	2025-09-25T22:57:57	9.5	100
137920	2025-09-25T23:07:57	9.6	100
137921	2025-09-25T23:17:57	9.4	100
137922	2025-09-25T23:27:57	9.1	100
137923	2025-09-25T23:37:57	8.8	100
137924	2025-09-25T23:47:57	8.7	100
137925	2025-09-25T23:57:57	8.5	100
137926	2025-09-26T00:07:56	8.4	100
137927	2025-09-26T00:17:56	8.5	100
137928	2025-09-26T00:27:56	8.3	100
137929	2025-09-26T00:37:56	8.3	100
137930	2025-09-26T00:47:56	8.1	100
137931	2025-09-26T00:57:56	8.1	100
137932	2025-09-26T01:07:56	8	100
137933	2025-09-26T01:17:56	7.9	100
137934	2025-09-26T01:27:56	7.7	100
137935	2025-09-26T01:37:56	7.8	100
137936	2025-09-26T01:47:56	8	100
137937	2025-09-26T01:57:56	8.1	100
137938	2025-09-26T02:07:56	8	100
137939	2025-09-26T02:17:56	8	100
137940	2025-09-26T02:27:56	8	100
137941	2025-09-26T02:37:56	7.9	100
137942	2025-09-26T02:47:56	8	100
137943	2025-09-26T02:57:56	8.3	100
137944	2025-09-26T03:07:56	8.4	100
137945	2025-09-26T03:17:56	8.5	100
137946	2025-09-26T03:27:56	8.5	100
137947	2025-09-26T03:37:56	8.5	100
137948	2025-09-26T03:47:56	8.5	100
137949	2025-09-26T03:57:56	8.6	100
137950	2025-09-26T04:07:56	8.5	100
137951	2025-09-26T04:17:56	8.5	100
137952	2025-09-26T04:27:56	8.6	100
137953	2025-09-26T04:37:56	8.7	100
137954	2025-09-26T04:47:56	8.7	100
137955	2025-09-26T04:57:56	8.8	100
137956	2025-09-26T05:07:56	8.8	100
137957	2025-09-26T05:17:56	8.8	100
137958	2025-09-26T05:27:56	9	100
137959	2025-09-26T05:37:56	9	100
137960	2025-09-26T05:47:56	9.1	100
137961	2025-09-26T05:57:56	9.2	100
137962	2025-09-26T06:07:56	9.2	100
137963	2025-09-26T06:17:56	9.2	100
137964	2025-09-26T06:27:56	9.1	100
137965	2025-09-26T06:37:56	9.3	100
137966	2025-09-26T06:47:56	9.5	100
137967	2025-09-26T06:57:56	9.8	100
137968	2025-09-26T07:07:56	10.2	100
137969	2025-09-26T07:17:56	10.7	100
137970	2025-09-26T07:27:56	11.6	99
137971	2025-09-26T07:37:56	12.2	95
137972	2025-09-26T07:47:56	11.5	95
137973	2025-09-26T07:57:56	11	96
137974	2025-09-26T08:07:56	10.9	97
137975	2025-09-26T08:17:56	11	97
137976	2025-09-26T08:27:56	11	96.5
137977	2025-09-26T08:37:56	11.2	97
137978	2025-09-26T08:47:56	11.4	97
137979	2025-09-26T08:57:56	11.6	96.5
137980	2025-09-26T09:07:56	12	95.5
137981	2025-09-26T09:17:56	12.4	95
137982	2025-09-26T09:27:56	12.5	95.5
137983	2025-09-26T09:37:56	12.3	95
137984	2025-09-26T09:47:56	12.3	96
137985	2025-09-26T09:57:56	12.7	94
137986	2025-09-26T10:07:56	12.5	94
137987	2025-09-26T10:17:56	12.6	93
137988	2025-09-26T10:27:56	12.8	92
137989	2025-09-26T10:37:56	12.8	93
137990	2025-09-26T10:47:56	13	91.5
137991	2025-09-26T10:57:56	13	93.5
137992	2025-09-26T11:07:56	13.2	92.5
137993	2025-09-26T11:17:56	13.2	92
137994	2025-09-26T11:27:56	13.2	91.5
137995	2025-09-26T11:37:56	13.5	91
137996	2025-09-26T11:47:56	13.4	91.5
137997	2025-09-26T11:57:56	13	91
137998	2025-09-26T12:07:56	13	91
137999	2025-09-26T12:17:56	13.1	91
138000	2025-09-26T12:27:56	13.3	91
138001	2025-09-26T12:33:03	13.2	90.5
138002	2025-09-26T12:43:03	13	90
138003	2025-09-26T12:53:03	12.9	93
138004	2025-09-26T13:03:03	12.8	93.5
138005	2025-09-26T13:13:03	12.8	92.5
138006	2025-09-26T13:23:03	12.8	93
138007	2025-09-26T13:33:03	12.8	93.5
138008	2025-09-26T13:43:03	13.1	94
138009	2025-09-26T13:53:03	13	93.5
138010	2025-09-26T14:03:03	12.9	94.5
138011	2025-09-26T14:13:03	12.9	94.5
138012	2025-09-26T14:23:03	13	94.5
138013	2025-09-26T14:33:03	13.2	93.5
138014	2025-09-26T14:43:03	13.2	93.5
138015	2025-09-26T14:53:03	13.1	95
138016	2025-09-26T15:03:03	12.9	96
138017	2025-09-26T15:13:03	12.9	95
138018	2025-09-26T15:23:03	12.9	95.5
138019	2025-09-26T15:33:02	12.9	95.5
138020	2025-09-26T15:43:02	12.8	96
138021	2025-09-26T15:53:02	12.7	96.5
138022	2025-09-26T16:03:02	12.6	96.5
138023	2025-09-26T16:13:02	12.5	97
138024	2025-09-26T16:23:02	12.4	97
138025	2025-09-26T16:33:02	12.4	97.5
138026	2025-09-26T16:43:02	12.3	99
138027	2025-09-26T16:53:02	12.3	98
138028	2025-09-26T17:03:02	12.3	98.5
138029	2025-09-26T17:13:02	12.3	99
138030	2025-09-26T17:23:02	12.1	100
138031	2025-09-26T17:33:02	12.2	100
138032	2025-09-26T17:43:02	12.1	100
138033	2025-09-26T17:53:02	12.1	100
138034	2025-09-26T18:03:02	12.1	100
138035	2025-09-26T18:13:02	12.1	100
138036	2025-09-26T18:23:02	12	100
138037	2025-09-26T18:33:02	12	100
138038	2025-09-26T18:43:02	12	100
138039	2025-09-26T18:53:02	12	100
138040	2025-09-26T19:03:02	12.1	100
138041	2025-09-26T19:13:02	12	100
138042	2025-09-26T19:23:02	12	100
138043	2025-09-26T19:33:02	12	100
138044	2025-09-26T19:43:02	12	100
138045	2025-09-26T19:53:02	12	100
138046	2025-09-26T20:03:02	12	100
138047	2025-09-26T20:13:02	11.9	100
138048	2025-09-26T20:23:02	11.8	100
138049	2025-09-26T20:33:02	11.6	100
138050	2025-09-26T20:43:02	11.5	100
138051	2025-09-26T20:53:02	11.3	100
138052	2025-09-26T21:03:02	11.3	100
138053	2025-09-26T21:13:02	11.2	100
138054	2025-09-26T21:23:02	10.8	100
138055	2025-09-26T21:33:02	10.5	100
138056	2025-09-26T21:43:02	10.3	100
138057	2025-09-26T21:53:02	10.1	100
138058	2025-09-26T22:03:02	9.9	100
138059	2025-09-26T22:13:02	9.8	100
138060	2025-09-26T22:23:02	9.8	100
138061	2025-09-26T22:33:02	9.9	100
138062	2025-09-26T22:43:02	9.9	100
138063	2025-09-26T22:53:02	10.1	100
138064	2025-09-26T23:03:02	10.2	100
138065	2025-09-26T23:13:02	10.2	100
138066	2025-09-26T23:23:02	10.4	100
138067	2025-09-26T23:33:02	10.4	100
138068	2025-09-26T23:43:02	10.4	100
138069	2025-09-26T23:53:02	10.5	100
138070	2025-09-27T00:03:02	10.5	100
138071	2025-09-27T00:13:02	10.5	100
138072	2025-09-27T00:23:02	10.6	100
138073	2025-09-27T00:33:02	10.5	100
138074	2025-09-27T00:43:02	10.7	100
138075	2025-09-27T00:53:02	10.5	100
138076	2025-09-27T01:03:02	10.7	100
138077	2025-09-27T01:13:02	10.8	100
138078	2025-09-27T01:23:02	10.8	100
138079	2025-09-27T01:33:02	10.8	100
138080	2025-09-27T01:43:02	10.8	100
138081	2025-09-27T01:53:02	10.8	100
138082	2025-09-27T02:03:02	10.8	100
138083	2025-09-27T02:13:02	10.9	100
138084	2025-09-27T02:23:02	10.8	100
138085	2025-09-27T02:33:02	10.8	100
138086	2025-09-27T02:43:02	10.7	100
138087	2025-09-27T02:53:02	10.7	100
138088	2025-09-27T03:03:02	10.7	100
138089	2025-09-27T03:13:02	10.6	100
138090	2025-09-27T03:23:02	10.6	100
138091	2025-09-27T03:33:02	10.5	100
138092	2025-09-27T03:43:02	10.5	100
138093	2025-09-27T03:53:02	10.6	100
138094	2025-09-27T04:03:02	10.6	100
138095	2025-09-27T04:13:02	10.6	100
138096	2025-09-27T04:23:02	10.8	100
138097	2025-09-27T04:33:02	10.7	100
138098	2025-09-27T04:43:02	10.8	100
138099	2025-09-27T04:53:02	10.8	100
138100	2025-09-27T05:03:02	10.9	100
138101	2025-09-27T05:13:02	10.9	100
138102	2025-09-27T05:23:02	11	100
138103	2025-09-27T05:33:02	10.9	100
138104	2025-09-27T05:43:02	11	100
138105	2025-09-27T05:53:02	11.1	100
138106	2025-09-27T06:03:01	11	100
138107	2025-09-27T06:13:01	11.2	100
138108	2025-09-27T06:23:01	11.1	100
138109	2025-09-27T06:33:01	11.2	100
138110	2025-09-27T06:43:01	11.2	100
138111	2025-09-27T06:53:01	11.3	100
138112	2025-09-27T07:03:01	11.4	100
138113	2025-09-27T07:13:01	11.5	100
138114	2025-09-27T07:23:01	11.5	100
138115	2025-09-27T07:33:01	11.6	99.5
138116	2025-09-27T07:43:01	12.1	99
138117	2025-09-27T07:53:01	12.4	97
138118	2025-09-27T08:03:01	11.9	97
138119	2025-09-27T08:13:01	12.2	96.5
138120	2025-09-27T08:23:01	12.5	95.5
138121	2025-09-27T08:33:01	12.9	94
138122	2025-09-27T08:43:01	12.9	93
138123	2025-09-27T08:53:01	13.3	92
138124	2025-09-27T09:03:01	13.6	90.5
138125	2025-09-27T09:13:01	14	89.5
138126	2025-09-27T09:23:01	14.3	88
138127	2025-09-27T09:33:01	14.3	87
138128	2025-09-27T09:43:01	14.4	85.5
138129	2025-09-27T09:53:01	14.4	86
138130	2025-09-27T10:03:01	14.7	84
138131	2025-09-27T10:13:01	14.5	83
138132	2025-09-27T10:23:01	14.7	83.5
138133	2025-09-27T10:33:01	14.6	83
138134	2025-09-27T10:43:01	14.9	80
138135	2025-09-27T10:53:01	15.3	79.5
138136	2025-09-27T11:03:01	15.5	80.5
138137	2025-09-27T11:13:01	15.3	78
138138	2025-09-27T11:23:01	16.3	79
138139	2025-09-27T11:33:01	17.5	74.5
138140	2025-09-27T11:43:01	17.9	71.5
138141	2025-09-27T11:53:01	18.3	70.5
138142	2025-09-27T12:03:01	18.8	68.5
138143	2025-09-27T12:13:01	18.4	72
138144	2025-09-27T12:23:01	17.8	73
138145	2025-09-27T12:33:01	18.3	70
138146	2025-09-27T12:43:01	18.3	69
138147	2025-09-27T12:53:01	18.5	72.5
138148	2025-09-27T13:03:01	18.4	73
138149	2025-09-27T13:13:01	18.2	70
138150	2025-09-27T13:23:01	18.4	70
138151	2025-09-27T13:33:01	18.7	71.5
138152	2025-09-27T13:43:01	19.8	66.5
138153	2025-09-27T13:53:01	20	65.5
138154	2025-09-27T14:03:01	19.8	69
138155	2025-09-27T14:13:01	20	66
138156	2025-09-27T14:23:01	20	65.5
138157	2025-09-27T14:33:01	20.8	66
138158	2025-09-27T14:43:01	20.9	65.5
138159	2025-09-27T14:53:01	21.1	66.5
138160	2025-09-27T15:03:01	21.1	65
138161	2025-09-27T15:13:01	20.6	68
138162	2025-09-27T15:23:01	19.8	70
138163	2025-09-27T15:33:01	20.1	69.5
138164	2025-09-27T15:43:01	21.1	65.5
138165	2025-09-27T15:53:01	23.6	58
138166	2025-09-27T16:03:01	23.9	57
138167	2025-09-27T16:13:01	21.4	61.5
138168	2025-09-27T16:23:01	19.5	70
138169	2025-09-27T16:33:01	18.4	72.5
138170	2025-09-27T16:43:01	17.9	73
138171	2025-09-27T16:53:01	17.5	76
138172	2025-09-27T17:03:01	17.1	79
138173	2025-09-27T17:13:01	16.8	81
138174	2025-09-27T17:23:01	16.4	83
138175	2025-09-27T17:33:01	16.1	83
138176	2025-09-27T17:43:01	15.7	83
138177	2025-09-27T17:53:00	15.5	85
138178	2025-09-27T18:03:00	15.3	85
138179	2025-09-27T18:13:00	15.1	86
138180	2025-09-27T18:23:00	14.8	86
138181	2025-09-27T18:33:01	14.7	87.5
138182	2025-09-27T18:43:00	14.5	89.5
138183	2025-09-27T18:53:00	14.4	90
138184	2025-09-27T19:03:00	14.3	92
138185	2025-09-27T19:13:00	14.2	91
138186	2025-09-27T19:23:00	14.2	92
138187	2025-09-27T19:33:00	14	92
138188	2025-09-27T19:43:00	14.1	92
138189	2025-09-27T19:53:00	14.1	93
138190	2025-09-27T20:03:00	14.1	92.5
138191	2025-09-27T20:13:00	14.1	92.5
138192	2025-09-27T20:23:00	14	93
138193	2025-09-27T20:33:00	13.8	93.5
138194	2025-09-27T20:43:00	13.8	94.5
138195	2025-09-27T20:53:00	13.8	94
138196	2025-09-27T21:03:00	13.7	94
138197	2025-09-27T21:13:00	13.6	95.5
138198	2025-09-27T21:23:00	13.6	95
138199	2025-09-27T21:33:00	13.4	95
138200	2025-09-27T21:43:00	13	96
138201	2025-09-27T21:53:00	12.5	97.5
138202	2025-09-27T22:03:00	12.1	98
138203	2025-09-27T22:13:00	11.9	98
138204	2025-09-27T22:23:00	11.8	98.5
138205	2025-09-27T22:33:00	11.7	98.5
138206	2025-09-27T22:43:00	11.6	98.5
138207	2025-09-27T22:53:00	11.7	98
138208	2025-09-27T23:03:00	11.4	99
138209	2025-09-27T23:13:00	11.3	99.5
138210	2025-09-27T23:23:00	11.4	99
138211	2025-09-27T23:33:00	11.4	100
138212	2025-09-27T23:43:00	11.2	100
138213	2025-09-27T23:53:00	11	100
138214	2025-09-28T00:03:00	10.8	100
138215	2025-09-28T00:13:00	10.5	100
138216	2025-09-28T00:23:00	10.4	100
138217	2025-09-28T00:33:00	10.2	100
138218	2025-09-28T00:43:00	10	100
138219	2025-09-28T00:53:00	9.9	100
138220	2025-09-28T01:03:00	9.7	100
138221	2025-09-28T01:13:00	9.6	100
138222	2025-09-28T01:23:00	9.6	100
138223	2025-09-28T01:33:00	9.4	100
138224	2025-09-28T01:43:00	9.3	100
138225	2025-09-28T01:53:00	9.3	100
138226	2025-09-28T02:03:00	9.2	100
138227	2025-09-28T02:13:00	9	100
138228	2025-09-28T02:23:00	9	100
138229	2025-09-28T02:33:00	8.9	100
138230	2025-09-28T02:43:00	8.8	100
138231	2025-09-28T02:53:00	8.7	100
138232	2025-09-28T03:03:00	8.6	100
138233	2025-09-28T03:13:00	8.5	100
138234	2025-09-28T03:23:00	8.4	100
138235	2025-09-28T03:33:00	8.3	100
138236	2025-09-28T03:43:00	8.3	100
138237	2025-09-28T03:53:00	8.1	100
138238	2025-09-28T04:03:00	8	100
138239	2025-09-28T04:13:00	7.8	100
138240	2025-09-28T04:23:00	7.7	100
138241	2025-09-28T04:33:00	7.7	100
138242	2025-09-28T04:43:00	7.5	100
138243	2025-09-28T04:53:00	7.5	100
138244	2025-09-28T05:03:00	7.4	100
138245	2025-09-28T05:13:00	7.4	100
138246	2025-09-28T05:23:00	7.5	100
138247	2025-09-28T05:33:00	7.7	100
138248	2025-09-28T05:43:00	7.6	100
138249	2025-09-28T05:53:00	7.6	100
138250	2025-09-28T06:03:00	7.6	100
138251	2025-09-28T06:13:00	7.8	100
138252	2025-09-28T06:23:00	8	100
138253	2025-09-28T06:33:00	8.1	100
138254	2025-09-28T06:43:00	8.3	100
138255	2025-09-28T06:53:00	8.5	100
138256	2025-09-28T07:03:00	8.8	100
138257	2025-09-28T07:13:00	9	100
138258	2025-09-28T07:23:00	9.3	100
138259	2025-09-28T07:33:00	9.6	100
138260	2025-09-28T07:43:00	9.8	100
138261	2025-09-28T07:53:00	10.1	100
138262	2025-09-28T08:03:00	10.3	100
138263	2025-09-28T08:13:00	10.6	100
138264	2025-09-28T08:23:00	11.1	100
138265	2025-09-28T08:33:00	11.3	100
138266	2025-09-28T08:43:00	11.8	100
138267	2025-09-28T08:53:00	12.1	100
138268	2025-09-28T09:03:00	12.4	100
138269	2025-09-28T09:13:00	12.7	99.5
138270	2025-09-28T09:22:59	13.4	97
138271	2025-09-28T09:32:59	14	95.5
138272	2025-09-28T09:42:59	14	94.5
138273	2025-09-28T09:52:59	14.3	92
138274	2025-09-28T10:02:59	14.7	92.5
138275	2025-09-28T10:12:59	15.5	90.5
138276	2025-09-28T10:22:59	16.2	86
138277	2025-09-28T10:32:59	16.7	84.5
138278	2025-09-28T10:42:59	17.4	81.5
138279	2025-09-28T10:52:59	18.1	79.5
138280	2025-09-28T11:02:59	17.9	79
138281	2025-09-28T11:12:59	17.9	80
138282	2025-09-28T11:22:59	18.5	76
138283	2025-09-28T11:32:59	19	74.5
138284	2025-09-28T11:42:59	18.3	76.5
138285	2025-09-28T11:52:59	18.8	75
138286	2025-09-28T12:02:59	18.2	76
138287	2025-09-28T12:12:59	19.9	73.5
138288	2025-09-28T12:22:59	22.6	63
138289	2025-09-28T12:32:59	24.7	58
138290	2025-09-28T12:42:59	27	51.5
138291	2025-09-28T12:52:59	24.3	56
138292	2025-09-28T13:02:59	24.7	56
138293	2025-09-28T13:12:59	24.1	55.5
138294	2025-09-28T13:22:59	24.2	56
138295	2025-09-28T13:32:59	24.3	58
138296	2025-09-28T13:42:59	27.8	50
138297	2025-09-28T13:52:59	29.8	44
138298	2025-09-28T14:02:59	27.6	47.5
138299	2025-09-28T14:12:59	26.1	50
138300	2025-09-28T14:22:59	26.3	49.5
138301	2025-09-28T14:32:59	28.3	46
138302	2025-09-28T14:42:59	24.2	53.5
138303	2025-09-28T14:52:59	23.6	55
138304	2025-09-28T15:02:59	27	48
138305	2025-09-28T15:12:59	23.5	54.5
138306	2025-09-28T15:22:59	26.4	50.5
138307	2025-09-28T15:32:59	28	46
138308	2025-09-28T15:42:59	27.8	46
138309	2025-09-28T15:52:59	27.9	45.5
138310	2025-09-28T16:02:59	24.4	50.5
138311	2025-09-28T16:12:59	21.9	56.5
138312	2025-09-28T16:22:59	21.3	61.5
138313	2025-09-28T16:32:59	20	64.5
138314	2025-09-28T16:42:59	19.3	66
138315	2025-09-28T16:52:59	18.4	68
138316	2025-09-28T17:02:59	17.6	71.5
138317	2025-09-28T17:12:59	17.1	74.5
138318	2025-09-28T17:22:59	16.4	75.5
138319	2025-09-28T17:32:59	16	79
138320	2025-09-28T17:42:59	15.7	80.5
138321	2025-09-28T17:52:59	15.3	81
138322	2025-09-28T18:02:59	14.9	82
138323	2025-09-28T18:12:59	14.6	83
138324	2025-09-28T18:22:59	14.3	84
138325	2025-09-28T18:32:59	13.9	85
138326	2025-09-28T18:42:59	13.6	86.5
138327	2025-09-28T18:52:59	13.7	87.5
138328	2025-09-28T19:02:59	13.2	87
138329	2025-09-28T19:12:59	13.1	88
138330	2025-09-28T19:22:59	12.9	87.5
138331	2025-09-28T19:32:59	12.7	89.5
138332	2025-09-28T19:42:59	12.6	89
138333	2025-09-28T19:52:59	12.3	90
138334	2025-09-28T20:02:59	12	91
138335	2025-09-28T20:12:59	11.9	91
138336	2025-09-28T20:22:59	11.8	92
138337	2025-09-28T20:32:59	11.7	92.5
138338	2025-09-28T20:42:58	11.6	92.5
138339	2025-09-28T20:52:58	11.3	92
138340	2025-09-28T21:02:58	11.1	92
138341	2025-09-28T21:12:58	11.2	92.5
138342	2025-09-28T21:22:58	11.1	93.5
138343	2025-09-28T21:32:58	11	93.5
138344	2025-09-28T21:42:58	10.9	94
138345	2025-09-28T21:52:58	10.7	94.5
138346	2025-09-28T22:02:58	10.5	95
138347	2025-09-28T22:12:58	10.3	95
138348	2025-09-28T22:22:58	10.2	95
138349	2025-09-28T22:32:58	10.2	95
138350	2025-09-28T22:42:58	9.9	95.5
138351	2025-09-28T22:52:58	9.7	95.5
138352	2025-09-28T23:02:58	9.7	95.5
138353	2025-09-28T23:12:58	9.5	96.5
138354	2025-09-28T23:22:58	9.4	97
138355	2025-09-28T23:32:58	9.3	97.5
138356	2025-09-28T23:42:58	9.1	97
138357	2025-09-28T23:52:58	9	97.5
138358	2025-09-29T00:02:58	8.8	97.5
138359	2025-09-29T00:12:58	8.7	97.5
138360	2025-09-29T00:22:58	8.5	98
138361	2025-09-29T00:32:58	8.5	98
138362	2025-09-29T00:42:58	8.3	98
138363	2025-09-29T00:52:58	8.3	98
138364	2025-09-29T01:02:58	8.1	97.5
138365	2025-09-29T01:12:58	8	97.5
138366	2025-09-29T01:22:58	7.8	98
138367	2025-09-29T01:32:58	7.8	98
138368	2025-09-29T01:42:58	7.7	98.5
138369	2025-09-29T01:52:58	7.5	98.5
138370	2025-09-29T02:02:58	7.5	98
138371	2025-09-29T02:12:58	7.4	98
138372	2025-09-29T02:22:58	7.3	98.5
138373	2025-09-29T02:32:58	7.3	98.5
138374	2025-09-29T02:42:58	7.2	99
138375	2025-09-29T02:52:58	7.2	97.5
138376	2025-09-29T03:02:58	7.1	97.5
138377	2025-09-29T03:13:15	7	98.5
138378	2025-09-29T03:22:58	6.9	99
138379	2025-09-29T03:32:58	6.8	99
138380	2025-09-29T03:42:58	6.7	99.5
138381	2025-09-29T03:52:58	6.9	98.5
138382	2025-09-29T04:02:58	6.7	99
138383	2025-09-29T04:12:58	7.1	99
138384	2025-09-29T04:22:58	7.2	98.5
138385	2025-09-29T04:32:58	7.3	99
138386	2025-09-29T04:42:58	7.2	99
138387	2025-09-29T04:52:58	7.2	100
138388	2025-09-29T05:02:58	7.2	99
138389	2025-09-29T05:12:58	7.4	100
138390	2025-09-29T05:22:58	7.5	100
138391	2025-09-29T05:32:58	7.6	100
138392	2025-09-29T05:42:58	7.7	100
138393	2025-09-29T05:52:58	7.7	100
138394	2025-09-29T06:02:58	7.6	100
138395	2025-09-29T06:12:58	7.7	100
138396	2025-09-29T06:22:58	7.9	100
138397	2025-09-29T06:32:58	8.2	100
138398	2025-09-29T06:42:58	8.2	100
138399	2025-09-29T06:52:58	8.4	100
138400	2025-09-29T07:02:58	8.7	99.5
138401	2025-09-29T07:12:58	9	99
138402	2025-09-29T07:22:58	9.3	98.5
138403	2025-09-29T07:32:58	9.5	97.5
138404	2025-09-29T07:42:58	9.7	97
138405	2025-09-29T07:52:58	10	96.5
138406	2025-09-29T08:02:58	10.4	95.5
138407	2025-09-29T08:12:58	10.6	95
138408	2025-09-29T08:22:58	11	93.5
138409	2025-09-29T08:32:58	11.2	92.5
138410	2025-09-29T08:42:58	11.1	92
138411	2025-09-29T08:52:58	11.4	91.5
138412	2025-09-29T09:02:58	11.7	91
138413	2025-09-29T09:12:58	12.2	90
138414	2025-09-29T09:22:58	12.4	90.5
138415	2025-09-29T09:32:58	12.5	90
138416	2025-09-29T09:42:58	12.8	89.5
138417	2025-09-29T09:52:58	13.2	88.5
138418	2025-09-29T10:02:58	13.4	88
138419	2025-09-29T10:12:58	14	85.5
138420	2025-09-29T10:22:58	14	86
138421	2025-09-29T10:32:58	14.4	84.5
138422	2025-09-29T10:42:58	15.1	83.5
138423	2025-09-29T10:52:58	15	82
138424	2025-09-29T11:02:58	14.9	83
138425	2025-09-29T11:12:58	15.3	80.5
138426	2025-09-29T11:22:58	15	83
138427	2025-09-29T11:32:58	14.4	85.5
138428	2025-09-29T11:43:15	14.7	83.5
138429	2025-09-29T11:52:58	15.5	83
138430	2025-09-29T12:02:58	19.1	74
138431	2025-09-29T12:12:58	21.6	65
138432	2025-09-29T12:22:58	23.2	58
138433	2025-09-29T12:32:58	23.2	56.5
138434	2025-09-29T12:42:57	24.5	53
138435	2025-09-29T12:52:57	26	50
138436	2025-09-29T13:02:57	27.6	46
138437	2025-09-29T13:12:57	28.5	44.5
138438	2025-09-29T13:22:57	29.6	42
138439	2025-09-29T13:32:57	29.8	42
138440	2025-09-29T13:42:57	26.6	49
138441	2025-09-29T13:52:57	28.6	45
138442	2025-09-29T14:02:57	30.3	41.5
138443	2025-09-29T14:12:57	32	40
138444	2025-09-29T14:22:57	33.4	38
138445	2025-09-29T14:32:57	34	36.5
138446	2025-09-29T14:42:57	34.7	35.5
138447	2025-09-29T14:52:57	33.5	35.5
138448	2025-09-29T15:02:57	32.9	37.5
138449	2025-09-29T15:12:57	33.2	37.5
138450	2025-09-29T15:22:57	31	40
138451	2025-09-29T15:32:57	29.7	41.5
138452	2025-09-29T15:42:57	30.9	41
138453	2025-09-29T15:52:57	29.7	43
138454	2025-09-29T16:02:57	26.9	49
138455	2025-09-29T16:12:57	24.2	55
138456	2025-09-29T16:22:57	22.7	58.5
138457	2025-09-29T16:32:57	21.6	62
138458	2025-09-29T16:42:57	21.3	65
138459	2025-09-29T16:52:57	21.3	68.5
138460	2025-09-29T17:02:57	20.5	69
138461	2025-09-29T17:12:57	20.1	70
138462	2025-09-29T17:22:57	19.5	71.5
138463	2025-09-29T17:32:57	19.1	73.5
138464	2025-09-29T17:42:57	19.1	74
138465	2025-09-29T17:52:57	18.8	74.5
138466	2025-09-29T18:02:57	18	76
138467	2025-09-29T18:12:57	17.9	76.5
138468	2025-09-29T18:22:57	17.3	79.5
138469	2025-09-29T18:32:57	17.4	80
138470	2025-09-29T18:42:57	17.2	79.5
138471	2025-09-29T18:52:57	17	80.5
138472	2025-09-29T19:02:57	16.8	81.5
138473	2025-09-29T19:12:57	16.7	82
138474	2025-09-29T19:22:57	16.5	83
138475	2025-09-29T19:32:57	16.4	83.5
138476	2025-09-29T19:42:57	16.1	84
138477	2025-09-29T19:52:57	15.9	84
138478	2025-09-29T20:02:57	15.5	85.5
138479	2025-09-29T20:12:57	14.9	86
138480	2025-09-29T20:22:57	14.7	87
138481	2025-09-29T20:32:57	14.6	88
138482	2025-09-29T20:42:57	14.4	87.5
138483	2025-09-29T20:52:57	14.1	87
138484	2025-09-29T21:02:57	13.9	87.5
138485	2025-09-29T21:12:57	13.5	90
138486	2025-09-29T21:22:57	13.6	88.5
138487	2025-09-29T21:32:57	13.2	90
138488	2025-09-29T21:42:57	13	90.5
138489	2025-09-29T21:52:57	13.1	89.5
138490	2025-09-29T22:02:57	12.9	90.5
138491	2025-09-29T22:12:57	12.9	91
138492	2025-09-29T22:22:57	12.7	90.5
138493	2025-09-29T22:32:57	12.6	90
138494	2025-09-29T22:42:57	12.3	91
138495	2025-09-29T22:52:57	12.3	90.5
138496	2025-09-29T23:02:57	12.2	91
138497	2025-09-29T23:12:57	12.1	91
138498	2025-09-29T23:22:57	11.9	91
138499	2025-09-29T23:32:57	12	91.5
138500	2025-09-29T23:42:57	11.8	92.5
138501	2025-09-29T23:52:57	11.7	92.5
138502	2025-09-30T00:02:56	11.7	92.5
138503	2025-09-30T00:12:56	11.8	92
138504	2025-09-30T00:22:56	11.8	91.5
138505	2025-09-30T00:32:56	11.6	91.5
138506	2025-09-30T00:42:56	11.7	92
138507	2025-09-30T00:52:56	11.8	92.5
138508	2025-09-30T01:02:56	11.7	92.5
138509	2025-09-30T01:12:56	11.6	93
138510	2025-09-30T01:22:56	11.6	93.5
138511	2025-09-30T01:32:56	11.5	93.5
138512	2025-09-30T01:42:56	11.4	94.5
138513	2025-09-30T01:52:56	11.5	94.5
138514	2025-09-30T02:02:56	11.3	95
138515	2025-09-30T02:12:56	11.2	95
138516	2025-09-30T02:22:56	11.2	95
138517	2025-09-30T02:32:56	11.3	95.5
138518	2025-09-30T02:42:56	11.3	95
138519	2025-09-30T02:52:56	11.3	95
138520	2025-09-30T03:02:56	11.2	96
138521	2025-09-30T03:12:56	11.2	96
138522	2025-09-30T03:22:56	11.3	96.5
138523	2025-09-30T03:32:56	11.2	96.5
138524	2025-09-30T03:42:56	11.2	97
138525	2025-09-30T03:52:56	11	97
138526	2025-09-30T04:02:56	11.1	97.5
138527	2025-09-30T04:12:56	11	97.5
138528	2025-09-30T04:22:56	11	97
138529	2025-09-30T04:32:56	11	98
138530	2025-09-30T04:42:56	11	98.5
138531	2025-09-30T04:52:56	10.9	98.5
138532	2025-09-30T05:02:56	11	99
138533	2025-09-30T05:12:56	11	99.5
138534	2025-09-30T05:22:56	10.8	99.5
138535	2025-09-30T05:32:56	10.8	99.5
138536	2025-09-30T05:42:56	10.8	99.5
138537	2025-09-30T05:52:56	10.7	99.5
138538	2025-09-30T06:02:56	10.8	99.5
138539	2025-09-30T06:12:56	11.1	99.5
138540	2025-09-30T06:22:56	11.1	99.5
138541	2025-09-30T06:32:56	11.2	99.5
138542	2025-09-30T06:42:56	11.4	99
138543	2025-09-30T06:52:56	11.5	98.5
138544	2025-09-30T07:02:56	11.6	98.5
138545	2025-09-30T07:12:56	11.7	98
138546	2025-09-30T07:22:56	11.9	98
138547	2025-09-30T07:32:56	12	97.5
138548	2025-09-30T07:42:56	12.2	97.5
138549	2025-09-30T07:52:56	12.5	96.5
138550	2025-09-30T08:02:56	12.8	96.5
138551	2025-09-30T08:12:56	12.9	96
138552	2025-09-30T08:22:56	13.4	94.5
138553	2025-09-30T08:32:56	13.6	93.5
138554	2025-09-30T08:42:56	13.9	93
138555	2025-09-30T08:52:56	14.1	92.5
138556	2025-09-30T09:02:56	14.3	90.5
138557	2025-09-30T09:12:56	14.5	91
138558	2025-09-30T09:22:56	14.8	89.5
138559	2025-09-30T09:32:56	15.2	88.5
138560	2025-09-30T09:42:56	15.5	86
138561	2025-09-30T09:52:56	16	85
138562	2025-09-30T10:02:56	16	83
138563	2025-09-30T10:12:56	16.1	83.5
138564	2025-09-30T10:22:56	17.1	80
138565	2025-09-30T10:32:56	16.8	80.5
138566	2025-09-30T10:42:56	17.4	77.5
138567	2025-09-30T10:52:56	17.4	78.5
138568	2025-09-30T11:02:56	17.3	77
138569	2025-09-30T11:12:56	18	75
138570	2025-09-30T11:22:56	19.2	71
138571	2025-09-30T11:32:56	18	73
138572	2025-09-30T11:42:56	17.7	74.5
138573	2025-09-30T11:52:56	17.9	74
138574	2025-09-30T12:02:56	18.9	72
138575	2025-09-30T12:12:56	18.3	71
138576	2025-09-30T12:22:56	18.7	71.5
138577	2025-09-30T12:32:56	18.7	71
138578	2025-09-30T12:42:56	18	72
138579	2025-09-30T12:52:56	18	74
138580	2025-09-30T13:02:56	18.5	72.5
138581	2025-09-30T13:12:55	19.1	69.5
138582	2025-09-30T13:22:56	22.3	60
138583	2025-09-30T13:32:55	25.6	50.5
138584	2025-09-30T13:42:55	27.2	46.5
138585	2025-09-30T13:52:55	26.9	45
138586	2025-09-30T14:02:55	24.7	50.5
138587	2025-09-30T14:12:55	25.6	48
138588	2025-09-30T14:22:55	23.4	53
138589	2025-09-30T14:32:55	22.1	56.5
138590	2025-09-30T14:42:55	26	51
138591	2025-09-30T14:52:55	27.5	45
138592	2025-09-30T15:02:55	29.1	43
138593	2025-09-30T15:12:55	28.9	42
138594	2025-09-30T15:22:55	28.2	42.5
138595	2025-09-30T15:32:55	27.6	44
138596	2025-09-30T15:42:55	26.1	46
138597	2025-09-30T15:52:55	23.8	50.5
138598	2025-09-30T16:02:55	22.7	54.5
138599	2025-09-30T16:12:55	21.8	59
138600	2025-09-30T16:22:55	20.4	57.5
138601	2025-09-30T16:32:55	19.6	58.5
138602	2025-09-30T16:42:55	19	63
138603	2025-09-30T16:52:55	18.6	65
138604	2025-09-30T17:02:55	17.9	65.5
138605	2025-09-30T17:12:55	17.6	68.5
138606	2025-09-30T17:22:55	17	70
138607	2025-09-30T17:32:55	17	71.5
138608	2025-09-30T17:42:55	16.9	74
138609	2025-09-30T17:52:55	16.6	75.5
138610	2025-09-30T18:02:55	16.4	74.5
138611	2025-09-30T18:12:55	16.1	73.5
138612	2025-09-30T18:22:55	15.7	75.5
138613	2025-09-30T18:32:55	15.4	76.5
138614	2025-09-30T18:43:14	15.2	79
138615	2025-09-30T18:52:55	15	81.5
138616	2025-09-30T19:02:55	14.6	82
138617	2025-09-30T19:12:55	14.3	85
138618	2025-09-30T19:22:55	13.9	86
138619	2025-09-30T19:32:55	13.7	87
138620	2025-09-30T19:42:55	13.7	87.5
138621	2025-09-30T19:52:55	13.6	87.5
138622	2025-09-30T20:02:55	13.4	88
138623	2025-09-30T20:12:55	12.9	88
138624	2025-09-30T20:22:55	12.7	89
138625	2025-09-30T20:32:55	12.4	89.5
138626	2025-09-30T20:42:55	12.1	89
138627	2025-09-30T20:52:55	11.9	89
138628	2025-09-30T21:02:55	11.8	89.5
138629	2025-09-30T21:12:55	11.6	90.5
138630	2025-09-30T21:22:55	11.3	90.5
138631	2025-09-30T21:32:55	11.1	91.5
138632	2025-09-30T21:42:55	11	92
138633	2025-09-30T21:52:55	10.6	91.5
138634	2025-09-30T22:02:55	10.5	92.5
138635	2025-09-30T22:12:55	10.5	93
138636	2025-09-30T22:22:55	10.4	94.5
138637	2025-09-30T22:32:55	10.1	94.5
138638	2025-09-30T22:42:55	10.1	94.5
138639	2025-09-30T22:52:55	9.9	95
138640	2025-09-30T23:02:55	9.7	95
138641	2025-09-30T23:12:55	9.6	95.5
138642	2025-09-30T23:22:55	9.8	95
138643	2025-09-30T23:32:55	10	94
138644	2025-09-30T23:42:55	10	95
138645	2025-09-30T23:52:55	10	95
138646	2025-10-01T00:02:55	9.8	96
138647	2025-10-01T00:12:55	9.6	96.5
138648	2025-10-01T00:22:55	9.5	96.5
138649	2025-10-01T00:32:55	9.4	97.5
138650	2025-10-01T00:42:55	9.3	97.5
138651	2025-10-01T00:52:55	9.4	97.5
138652	2025-10-01T01:02:55	9.2	97.5
138653	2025-10-01T01:12:55	9.1	98
138654	2025-10-01T01:22:55	9.1	98
138655	2025-10-01T01:32:55	8.8	98.5
138656	2025-10-01T01:42:55	8.6	98.5
138657	2025-10-01T01:52:55	8.6	99
138658	2025-10-01T02:02:55	8.7	99
138659	2025-10-01T02:12:54	8.6	99.5
138660	2025-10-01T02:22:54	8.6	99
138661	2025-10-01T02:32:54	8.6	99.5
138662	2025-10-01T02:42:54	8.6	99.5
138663	2025-10-01T02:52:54	8.5	100
138664	2025-10-01T03:02:54	8.4	100
138665	2025-10-01T03:12:54	8.4	100
138666	2025-10-01T03:22:54	8.7	100
138667	2025-10-01T03:32:54	8.8	99.5
138668	2025-10-01T03:42:54	9	99
138669	2025-10-01T03:52:54	9	98
138670	2025-10-01T04:02:54	9.1	98
138671	2025-10-01T04:12:54	9	98.5
138672	2025-10-01T04:22:54	8.8	99
138673	2025-10-01T04:32:54	8.6	99.5
138674	2025-10-01T04:42:54	8.4	99.5
138675	2025-10-01T04:52:54	8.3	100
138676	2025-10-01T05:02:54	8.4	100
138677	2025-10-01T05:12:54	8.3	100
138678	2025-10-01T05:22:54	8.1	100
138679	2025-10-01T05:32:54	8	100
138680	2025-10-01T05:42:54	7.9	100
138681	2025-10-01T05:52:54	7.9	100
138682	2025-10-01T06:02:54	7.9	100
138683	2025-10-01T06:12:54	7.8	100
138684	2025-10-01T06:22:54	7.8	100
138685	2025-10-01T06:32:54	8	100
138686	2025-10-01T06:42:54	8.1	100
138687	2025-10-01T06:52:54	8.2	100
138688	2025-10-01T07:02:54	8.4	100
138689	2025-10-01T07:12:54	8.5	100
138690	2025-10-01T07:22:54	8.8	100
138691	2025-10-01T07:32:54	9.2	99
138692	2025-10-01T07:42:54	10.1	97
138693	2025-10-01T07:52:54	11	94
138694	2025-10-01T08:02:54	11.1	91
138695	2025-10-01T08:12:54	10.5	92
138696	2025-10-01T08:22:54	10.3	93
138697	2025-10-01T08:32:54	10.7	92.5
138698	2025-10-01T08:42:54	11.2	91.5
138699	2025-10-01T08:52:54	11.7	89.5
138700	2025-10-01T09:02:54	12.3	88.5
138701	2025-10-01T09:12:54	12.8	85.5
138702	2025-10-01T09:22:54	13.2	83.5
138703	2025-10-01T09:32:54	13.6	81
138704	2025-10-01T09:42:54	14	81
138705	2025-10-01T09:52:54	14.5	80
138706	2025-10-01T10:02:54	14.3	80.5
138707	2025-10-01T10:12:54	13.5	82.5
138708	2025-10-01T10:22:54	13.4	83
138709	2025-10-01T10:32:54	13.2	83.5
138710	2025-10-01T10:42:54	13.2	84
138711	2025-10-01T10:52:54	13.5	84.5
138712	2025-10-01T11:02:54	13.6	83.5
138713	2025-10-01T11:12:54	13.7	82.5
138714	2025-10-01T11:22:54	14	79
138715	2025-10-01T11:32:54	14.2	76.5
138716	2025-10-01T11:42:54	14.5	76
138717	2025-10-01T11:52:54	15.6	75.5
138718	2025-10-01T12:02:54	19.7	60.5
138719	2025-10-01T12:12:54	22.3	53
138720	2025-10-01T12:22:54	24.1	48
138721	2025-10-01T12:32:54	25.7	45
138722	2025-10-01T12:42:54	26.8	41
138723	2025-10-01T12:52:54	28.4	39
138724	2025-10-01T13:02:54	29.5	34.5
138725	2025-10-01T13:12:54	29.9	33.5
138726	2025-10-01T13:22:54	29.3	34.5
138727	2025-10-01T13:32:54	29.7	33.5
138728	2025-10-01T13:42:54	30.7	32.5
138729	2025-10-01T13:52:54	31.3	31.5
138730	2025-10-01T14:02:54	32	29.5
138731	2025-10-01T14:12:54	32.3	29.5
138732	2025-10-01T14:22:54	32.8	29
138733	2025-10-01T14:32:54	32.7	30
138734	2025-10-01T14:42:54	33.1	27.5
138735	2025-10-01T14:52:54	33.3	27
138736	2025-10-01T15:02:54	32.9	27.5
138737	2025-10-01T15:12:54	32.2	27
138738	2025-10-01T15:22:54	32.1	27.5
138739	2025-10-01T15:32:54	31.9	28
138740	2025-10-01T15:42:53	30.8	28
138741	2025-10-01T15:52:53	29.1	31
138742	2025-10-01T16:02:53	25	36
138743	2025-10-01T16:12:53	23.2	40
138744	2025-10-01T16:22:53	22.2	41.5
138745	2025-10-01T16:32:53	21.4	43
138746	2025-10-01T16:42:53	20.2	47.5
138747	2025-10-01T16:52:53	19.1	50.5
138748	2025-10-01T17:02:53	18.3	54
138749	2025-10-01T17:12:53	17.6	56
138750	2025-10-01T17:22:53	16.9	58
138751	2025-10-01T17:32:53	16.3	60
138752	2025-10-01T17:42:53	15.8	62
138753	2025-10-01T17:52:53	15.2	63.5
138754	2025-10-01T18:02:53	14.9	64.5
138755	2025-10-01T18:12:53	14.2	65.5
138756	2025-10-01T18:22:53	13.8	68
138757	2025-10-01T18:32:53	13.4	69.5
138758	2025-10-01T18:42:53	13.2	70
138759	2025-10-01T18:52:53	12.8	71
138760	2025-10-01T19:02:53	12.5	73
138761	2025-10-01T19:12:53	12.3	73.5
138762	2025-10-01T19:22:53	12.1	74.5
138763	2025-10-01T19:32:53	11.8	74.5
138764	2025-10-01T19:42:53	11.8	72
138765	2025-10-01T19:52:53	11.6	71
138766	2025-10-01T20:02:53	11.4	72
138767	2025-10-01T20:12:53	11.4	71.5
138768	2025-10-01T20:22:53	11.2	72
138769	2025-10-01T20:32:53	10.7	76.5
138770	2025-10-01T20:42:53	10.3	78
138771	2025-10-01T20:52:53	10.1	79
138772	2025-10-01T21:02:53	9.8	79.5
138773	2025-10-01T21:12:53	9.5	81
138774	2025-10-01T21:22:53	9.3	81
138775	2025-10-01T21:32:53	9.1	82
138776	2025-10-01T21:42:53	8.9	82.5
138777	2025-10-01T21:52:53	8.7	83
138778	2025-10-01T22:02:53	8.6	83.5
138779	2025-10-01T22:12:53	8.3	84
138780	2025-10-01T22:22:53	8.1	84.5
138781	2025-10-01T22:32:53	8	85
138782	2025-10-01T22:42:53	7.7	85.5
138783	2025-10-01T22:52:53	7.5	85.5
138784	2025-10-01T23:02:53	7.4	86.5
138785	2025-10-01T23:12:53	7.2	87
138786	2025-10-01T23:22:53	7.1	87.5
138787	2025-10-01T23:32:53	7	87.5
138788	2025-10-01T23:42:53	6.8	88
138789	2025-10-01T23:52:53	6.8	88.5
138790	2025-10-02T00:02:53	6.6	89
138791	2025-10-02T00:12:53	6.4	88.5
138792	2025-10-02T00:22:53	6.3	89
138793	2025-10-02T00:32:53	6.2	89.5
138794	2025-10-02T00:42:53	6	90
138795	2025-10-02T00:52:53	6	90.5
138796	2025-10-02T01:02:53	5.9	90.5
138797	2025-10-02T01:12:53	5.7	91
138798	2025-10-02T01:22:53	5.6	91
138799	2025-10-02T01:32:53	5.7	91
138800	2025-10-02T01:42:53	5.5	91
138801	2025-10-02T01:52:53	5.4	91.5
138802	2025-10-02T02:02:53	5.4	92
138803	2025-10-02T02:12:53	5.3	92
138804	2025-10-02T02:22:53	5.1	92
138805	2025-10-02T02:32:53	5	92.5
138806	2025-10-02T02:42:53	4.8	93.5
138807	2025-10-02T02:52:53	4.6	94
138808	2025-10-02T03:02:53	4.6	93.5
138809	2025-10-02T03:12:53	4.6	94.5
138810	2025-10-02T03:22:53	4.7	93.5
138811	2025-10-02T03:32:53	4.4	94.5
138812	2025-10-02T03:42:53	4.3	95
138813	2025-10-02T03:52:53	4.3	95
138814	2025-10-02T04:03:10	4.2	95
138815	2025-10-02T04:12:53	4	95.5
138816	2025-10-02T04:22:53	3.9	95.5
138817	2025-10-02T04:32:53	3.9	95.5
138818	2025-10-02T04:42:53	3.8	96
138819	2025-10-02T04:52:53	3.8	96.5
138820	2025-10-02T05:02:53	3.7	96.5
138821	2025-10-02T05:12:53	3.6	96.5
138822	2025-10-02T05:22:53	3.6	97
138823	2025-10-02T05:32:53	3.6	97.5
138824	2025-10-02T05:42:53	3.6	97.5
138825	2025-10-02T05:52:53	3.6	97
138826	2025-10-02T06:02:53	3.8	97
138827	2025-10-02T06:12:53	3.8	96.5
138828	2025-10-02T06:22:53	4.1	96
138829	2025-10-02T06:32:53	4.2	95.5
138830	2025-10-02T06:42:53	4.5	94.5
138831	2025-10-02T06:52:53	4.8	94.5
138832	2025-10-02T07:02:53	4.8	95
138833	2025-10-02T07:12:53	5.1	94.5
138834	2025-10-02T07:22:53	5.3	95
138835	2025-10-02T07:32:53	5.6	95
138836	2025-10-02T07:42:53	6	94.5
138837	2025-10-02T07:52:53	6.3	94.5
138838	2025-10-02T08:02:53	6.6	94
138839	2025-10-02T08:12:53	6.9	94.5
138840	2025-10-02T08:22:53	7.2	94
138841	2025-10-02T08:32:53	7.5	93.5
138842	2025-10-02T08:42:53	7.8	92
138843	2025-10-02T08:52:53	8	91
138844	2025-10-02T09:02:53	8.4	89.5
138845	2025-10-02T09:12:53	8.7	88
138846	2025-10-02T09:22:53	8.8	88
138847	2025-10-02T09:32:53	9.4	86.5
138848	2025-10-02T09:42:53	9.6	85.5
138849	2025-10-02T09:52:53	9.8	85.5
138850	2025-10-02T10:02:52	10.2	83
138851	2025-10-02T10:12:52	10.4	83
138852	2025-10-02T10:22:52	10.5	82
138853	2025-10-02T10:32:52	10.9	81.5
138854	2025-10-02T10:42:52	11	79.5
138855	2025-10-02T10:52:52	11.4	78
138856	2025-10-02T11:02:52	11.8	77.5
138857	2025-10-02T11:12:52	12.2	75.5
138858	2025-10-02T11:22:52	12.5	75.5
138859	2025-10-02T11:32:52	13	74.5
138860	2025-10-02T11:42:52	13.3	72
138861	2025-10-02T11:52:52	14.3	69.5
138862	2025-10-02T12:02:52	18.7	57.5
138863	2025-10-02T12:12:52	21.4	49.5
138864	2025-10-02T12:22:52	23.1	44
138865	2025-10-02T12:32:52	23.5	42.5
138866	2025-10-02T12:42:52	25.8	38.5
138867	2025-10-02T12:52:52	27.2	36.5
138868	2025-10-02T13:02:52	28.2	34.5
138869	2025-10-02T13:12:52	28.6	33.5
138870	2025-10-02T13:22:52	29.2	32.5
138871	2025-10-02T13:32:52	29.9	31.5
138872	2025-10-02T13:42:52	30.4	31
138873	2025-10-02T13:52:52	31.4	30.5
138874	2025-10-02T14:02:52	31.6	29
138875	2025-10-02T14:12:52	31.8	28
138876	2025-10-02T14:22:52	32.2	27.5
138877	2025-10-02T14:32:52	32.4	27.5
138878	2025-10-02T14:42:52	32.8	27.5
138879	2025-10-02T14:52:52	33.2	27
138880	2025-10-02T15:02:52	33	27
138881	2025-10-02T15:12:52	33	26
138882	2025-10-02T15:22:52	32.4	27
138883	2025-10-02T15:32:52	32.4	27
138884	2025-10-02T15:42:52	32.2	27.5
138885	2025-10-02T15:52:52	31	28.5
138886	2025-10-02T16:02:52	25.9	34.5
138887	2025-10-02T16:12:52	23.5	39
138888	2025-10-02T16:22:52	22.1	42.5
138889	2025-10-02T16:32:52	21.4	44.5
138890	2025-10-02T16:42:52	20.2	48
138891	2025-10-02T16:52:52	19.1	51
138892	2025-10-02T17:02:52	18.3	53
138893	2025-10-02T17:12:52	17.5	56.5
138894	2025-10-02T17:22:52	16.9	58.5
138895	2025-10-02T17:32:52	16.4	59.5
138896	2025-10-02T17:42:52	15.9	61.5
138897	2025-10-02T17:52:52	15.4	63
138898	2025-10-02T18:02:52	14.9	65.5
138899	2025-10-02T18:12:52	14.2	66.5
138900	2025-10-02T18:22:52	14	67
138901	2025-10-02T18:32:52	13.3	70
138902	2025-10-02T18:42:52	12.8	71
138903	2025-10-02T18:52:52	12.4	73
138904	2025-10-02T19:02:52	12.2	73
138905	2025-10-02T19:12:52	11.8	74
138906	2025-10-02T19:22:52	11.7	74
138907	2025-10-02T19:32:52	11.5	75
138908	2025-10-02T19:42:52	11.2	75
138909	2025-10-02T19:52:52	11	75
138910	2025-10-02T20:02:52	10.7	75.5
138911	2025-10-02T20:12:52	10.4	76
138912	2025-10-02T20:22:52	10.4	76
138913	2025-10-02T20:32:52	10.2	76
138914	2025-10-02T20:42:52	10.2	74
138915	2025-10-02T20:52:52	10.3	73
138916	2025-10-02T21:02:52	10.2	73
138917	2025-10-02T21:12:52	10	74
138918	2025-10-02T21:22:52	9.8	74
138919	2025-10-02T21:32:52	9.7	74
138920	2025-10-02T21:42:52	9.4	77
138921	2025-10-02T21:52:52	9.1	78
138922	2025-10-02T22:02:52	9	78
138923	2025-10-02T22:12:51	8.7	79.5
138924	2025-10-02T22:22:52	8.5	80.5
138925	2025-10-02T22:32:52	8.3	81.5
138926	2025-10-02T22:42:51	8.1	82
138927	2025-10-02T22:52:51	7.9	82
138928	2025-10-02T23:02:51	7.9	81.5
138929	2025-10-02T23:12:51	7.9	81.5
138930	2025-10-02T23:22:51	7.6	83.5
138931	2025-10-02T23:32:51	7.5	83.5
138932	2025-10-02T23:42:51	7.3	84
138933	2025-10-02T23:52:51	7.2	84.5
138934	2025-10-03T00:02:51	7	85
138935	2025-10-03T00:12:51	6.8	86.5
138936	2025-10-03T00:22:51	6.6	86
138937	2025-10-03T00:32:51	6.6	86.5
138938	2025-10-03T00:42:51	6.4	86
138939	2025-10-03T00:52:51	6.4	86.5
138940	2025-10-03T01:02:51	6.2	88
138941	2025-10-03T01:12:51	6.3	88
138942	2025-10-03T01:22:51	6.1	88
138943	2025-10-03T01:32:51	6	89
138944	2025-10-03T01:42:51	5.8	89.5
138945	2025-10-03T01:52:51	5.7	89.5
138946	2025-10-03T02:02:51	5.5	90
138947	2025-10-03T02:12:51	5.4	90.5
138948	2025-10-03T02:22:51	5.5	90
138949	2025-10-03T02:32:51	5.4	90.5
138950	2025-10-03T02:42:51	5.3	91
138951	2025-10-03T02:52:51	5.2	91
138952	2025-10-03T03:02:51	5.1	91
138953	2025-10-03T03:12:51	5.1	91.5
138954	2025-10-03T03:22:51	4.9	92
138955	2025-10-03T03:32:51	5	92.5
138956	2025-10-03T03:42:51	4.8	92.5
138957	2025-10-03T03:52:51	4.5	92.5
138958	2025-10-03T04:02:51	4.5	93.5
138959	2025-10-03T04:12:51	4.5	93.5
138960	2025-10-03T04:22:51	4.3	93.5
138961	2025-10-03T04:32:51	4.4	93.5
138962	2025-10-03T04:42:51	4.6	92
138963	2025-10-03T04:52:51	4.8	91.5
138964	2025-10-03T05:02:51	5.2	89.5
138965	2025-10-03T05:12:51	5.5	89
138966	2025-10-03T05:22:51	5.7	88.5
138967	2025-10-03T05:32:51	5.8	88
138968	2025-10-03T05:42:51	5.7	88
138969	2025-10-03T05:52:51	5.6	89
138970	2025-10-03T06:02:51	5.6	90.5
138971	2025-10-03T06:12:51	5.6	91.5
138972	2025-10-03T06:22:51	5.6	92
138973	2025-10-03T06:32:51	5.6	91.5
138974	2025-10-03T06:42:51	6	90.5
138975	2025-10-03T06:52:51	6.5	89.5
138976	2025-10-03T07:02:51	7	87.5
138977	2025-10-03T07:12:51	7.3	85
138978	2025-10-03T07:22:51	7.4	85.5
138979	2025-10-03T07:32:51	7.6	86
138980	2025-10-03T07:42:51	7.7	84
138981	2025-10-03T07:52:51	8	85.5
138982	2025-10-03T08:02:51	8.2	85
138983	2025-10-03T08:12:51	8.5	83
138984	2025-10-03T08:22:51	8.8	83
138985	2025-10-03T08:32:51	9.3	81
138986	2025-10-03T08:42:51	9.5	80.5
138987	2025-10-03T08:52:51	9.9	79
138988	2025-10-03T09:02:51	10.2	78
138989	2025-10-03T09:12:51	10.4	79
138990	2025-10-03T09:22:51	10.7	77
138991	2025-10-03T09:32:51	11.5	76
138992	2025-10-03T09:42:51	11.7	73.5
138993	2025-10-03T09:52:51	12.1	74
138994	2025-10-03T10:02:51	11.9	74.5
138995	2025-10-03T10:12:51	12.1	75
138996	2025-10-03T10:22:51	12.1	74.5
138997	2025-10-03T10:32:51	12	73.5
138998	2025-10-03T10:42:51	12.4	73
138999	2025-10-03T10:53:09	12.3	71
139000	2025-10-03T11:02:51	12.4	71.5
139001	2025-10-03T11:12:51	13.1	70
139002	2025-10-03T11:22:51	13.3	70
139003	2025-10-03T11:32:51	13.5	69.5
139004	2025-10-03T11:42:51	14	68
139005	2025-10-03T11:52:51	14.7	66.5
139006	2025-10-03T12:02:51	15	65.5
139007	2025-10-03T12:12:51	14.7	67.5
139008	2025-10-03T12:22:51	14.7	67.5
139009	2025-10-03T12:32:51	14.7	67
139010	2025-10-03T12:42:51	14.5	67.5
139011	2025-10-03T12:52:51	14.5	68
139012	2025-10-03T13:02:51	14.6	68.5
139013	2025-10-03T13:12:51	14.4	71.5
139014	2025-10-03T13:22:51	15	68.5
139015	2025-10-03T13:32:51	15.6	66
139016	2025-10-03T13:42:51	15.3	66.5
139017	2025-10-03T13:52:51	14.9	66.5
139018	2025-10-03T14:02:51	14.5	68.5
139019	2025-10-03T14:12:51	14.1	68.5
139020	2025-10-03T14:22:51	13.9	69.5
139021	2025-10-03T14:32:51	13.8	70.5
139022	2025-10-03T14:42:51	13.8	70.5
139023	2025-10-03T14:52:51	13.7	70.5
139024	2025-10-03T15:02:51	13.5	70
139025	2025-10-03T15:12:51	13.5	72.5
139026	2025-10-03T15:22:51	13.3	73.5
139027	2025-10-03T15:32:51	13.2	74.5
139028	2025-10-03T15:42:50	13.2	76.5
139029	2025-10-03T15:52:50	13.1	76
139030	2025-10-03T16:02:50	13	77.5
139031	2025-10-03T16:12:50	12.8	77
139032	2025-10-03T16:22:50	12.7	78
139033	2025-10-03T16:32:50	12.5	81
139034	2025-10-03T16:42:50	12.3	83.5
139035	2025-10-03T16:52:50	12.1	84
139036	2025-10-03T17:02:50	12	84.5
139037	2025-10-03T17:12:50	11.9	84
139038	2025-10-03T17:22:50	11.9	85
139039	2025-10-03T17:32:50	11.7	86
139040	2025-10-03T17:42:50	11.6	86
139041	2025-10-03T17:52:50	11.6	85.5
139042	2025-10-03T18:02:50	11.7	86.5
139043	2025-10-03T18:12:50	11.6	87.5
139044	2025-10-03T18:22:50	11.4	87.5
139045	2025-10-03T18:32:50	11.1	87.5
139046	2025-10-03T18:42:50	11	89
139047	2025-10-03T18:52:50	11	89.5
139048	2025-10-03T19:02:50	10.8	90.5
139049	2025-10-03T19:12:50	10.7	90.5
139050	2025-10-03T19:22:50	10.6	90
139051	2025-10-03T19:32:50	10.7	90
139052	2025-10-03T19:42:50	10.6	90.5
139053	2025-10-03T19:52:50	10.6	91.5
139054	2025-10-03T20:02:50	10.5	92
139055	2025-10-03T20:12:50	10.5	92
139056	2025-10-03T20:22:50	10.6	92
139057	2025-10-03T20:32:50	10.6	92.5
139058	2025-10-03T20:42:50	10.5	92.5
139059	2025-10-03T20:52:50	10.5	92.5
139060	2025-10-03T21:02:50	10.5	93
139061	2025-10-03T21:12:50	10.6	92.5
139062	2025-10-03T21:22:50	10.4	92.5
139063	2025-10-03T21:32:50	10.4	92.5
139064	2025-10-03T21:42:50	10.4	93
139065	2025-10-03T21:52:50	10.3	93.5
139066	2025-10-03T22:02:50	10.3	93.5
139067	2025-10-03T22:12:50	10.5	93.5
139068	2025-10-03T22:22:50	10.5	93
139069	2025-10-03T22:32:50	10.5	93.5
139070	2025-10-03T22:42:50	10.5	93.5
139071	2025-10-03T22:52:50	10.5	93
139072	2025-10-03T23:02:50	10.5	92.5
139073	2025-10-03T23:12:50	10.5	93
139074	2025-10-03T23:22:50	10.5	93.5
139075	2025-10-03T23:32:50	10.6	92.5
139076	2025-10-03T23:42:50	10.6	92
139077	2025-10-03T23:52:50	10.5	92.5
139078	2025-10-04T00:02:50	10.5	91.5
139079	2025-10-04T00:12:50	10.6	92
139080	2025-10-04T00:22:50	10.6	92
139081	2025-10-04T00:32:50	10.6	92
139082	2025-10-04T00:42:50	10.6	92
139083	2025-10-04T00:52:50	10.7	92.5
139084	2025-10-04T01:02:50	10.7	92
139085	2025-10-04T01:12:50	10.7	92
139086	2025-10-04T01:22:50	10.8	92
139087	2025-10-04T01:32:50	10.9	92
139088	2025-10-04T01:42:50	10.8	92.5
139089	2025-10-04T01:52:50	10.7	92.5
139090	2025-10-04T02:02:50	10.9	93
139091	2025-10-04T02:12:50	10.9	93.5
139092	2025-10-04T02:22:50	10.8	93.5
139093	2025-10-04T02:32:50	11	92.5
139094	2025-10-04T02:42:50	11	93
139095	2025-10-04T02:52:50	11	92.5
139096	2025-10-04T03:02:50	11	92.5
139097	2025-10-04T03:12:50	11.1	93
139098	2025-10-04T03:22:50	11.1	92.5
139099	2025-10-04T03:32:50	11.1	93
139100	2025-10-04T03:42:50	11.1	93
139101	2025-10-04T03:52:50	11	93
139102	2025-10-04T04:02:50	11.2	93
139103	2025-10-04T04:12:50	11.1	93
139104	2025-10-04T04:22:50	11.1	93.5
139105	2025-10-04T04:32:50	11.2	93
139106	2025-10-04T04:42:50	12.4	93
139107	2025-10-04T04:52:50	13.6	88.5
139108	2025-10-04T05:02:50	14.2	86.5
139109	2025-10-04T05:12:50	14.6	84.5
139110	2025-10-04T05:22:50	14.7	84
139111	2025-10-04T05:32:50	14.7	84
139112	2025-10-04T05:43:09	14.9	83
139113	2025-10-04T05:52:50	15.2	82.5
139114	2025-10-04T06:02:50	15.2	82.5
139115	2025-10-04T06:12:50	15.3	82.5
139116	2025-10-04T06:22:49	15.4	82
139117	2025-10-04T06:32:49	15.7	82
139118	2025-10-04T06:42:49	16	81
139119	2025-10-04T06:52:49	16.2	80
139120	2025-10-04T07:02:49	16.3	80.5
139121	2025-10-04T07:12:49	16.4	80
139122	2025-10-04T07:22:49	16.5	79.5
139123	2025-10-04T07:32:49	16.6	79.5
139124	2025-10-04T07:42:49	16.7	80
139125	2025-10-04T07:52:49	16.8	79.5
139126	2025-10-04T08:02:49	16.9	79.5
139127	2025-10-04T08:12:49	17.1	79.5
139128	2025-10-04T08:22:49	17.4	79
139129	2025-10-04T08:32:49	17.8	77.5
139130	2025-10-04T08:42:49	18.1	77
139131	2025-10-04T08:52:49	18.5	76
139132	2025-10-04T09:02:49	19	74.5
139133	2025-10-04T09:12:49	19.1	75
139134	2025-10-04T09:22:49	19	74.5
139135	2025-10-04T09:32:49	19.2	74.5
139136	2025-10-04T09:42:49	19.4	73.5
139137	2025-10-04T09:52:49	19.8	71.5
139138	2025-10-04T10:02:49	20.6	69.5
139139	2025-10-04T10:12:49	20.8	69.5
139140	2025-10-04T10:22:49	17.3	99
139141	2025-10-04T10:32:49	17.2	100
139142	2025-10-04T10:42:49	17.2	100
139143	2025-10-04T10:52:49	17.3	100
139144	2025-10-04T11:02:49	16.5	100
139145	2025-10-04T11:12:49	16.4	100
139146	2025-10-04T11:22:49	16.2	100
139147	2025-10-04T11:32:49	16.1	100
139148	2025-10-04T11:42:49	16	97
139149	2025-10-04T11:52:49	15.8	97.5
139150	2025-10-04T12:02:49	15.3	97.5
139151	2025-10-04T12:12:49	14.6	97
139152	2025-10-04T12:22:49	14.2	96.5
139153	2025-10-04T12:32:49	14.1	96
139154	2025-10-04T12:42:49	14	96
139155	2025-10-04T12:52:49	14	96.5
139156	2025-10-04T13:02:49	13.6	96.5
139157	2025-10-04T13:12:49	13.3	96.5
139158	2025-10-04T13:22:49	13.2	96.5
139159	2025-10-04T13:32:49	13	96.5
139160	2025-10-04T13:42:49	12.9	96.5
139161	2025-10-04T13:52:49	12.6	96.5
139162	2025-10-04T14:02:49	12.6	97
139163	2025-10-04T14:12:49	12.3	97
139164	2025-10-04T14:22:49	12.2	97
139165	2025-10-04T14:32:49	12.1	97
139166	2025-10-04T14:42:49	12.1	97
139167	2025-10-04T14:52:49	12.1	97
139168	2025-10-04T15:02:49	12	97
139169	2025-10-04T15:12:49	12	97
139170	2025-10-04T15:22:49	11.9	97
139171	2025-10-04T15:32:49	11.2	97
139172	2025-10-04T15:42:49	10.9	97
139173	2025-10-04T15:52:49	10.8	97
139174	2025-10-04T16:02:49	10.8	97
139175	2025-10-04T16:12:49	11.8	96.5
139176	2025-10-04T16:22:49	11.3	97
139177	2025-10-04T16:32:49	11.4	96.5
139178	2025-10-04T16:42:49	11.2	97
139179	2025-10-04T16:52:49	11	97
139180	2025-10-04T17:02:49	10.8	97
139181	2025-10-04T17:12:49	10.5	97
139182	2025-10-04T17:22:49	10.7	96.5
139183	2025-10-04T17:32:49	10.8	97
139184	2025-10-04T17:42:49	10.8	96.5
139185	2025-10-04T17:52:49	10.9	97
139186	2025-10-04T18:02:49	10.8	97
139187	2025-10-04T18:12:49	10.8	97
139188	2025-10-04T18:22:49	10.5	97
139189	2025-10-04T18:32:49	10.4	97
139190	2025-10-04T18:42:49	10.3	97
139191	2025-10-04T18:52:49	10.2	97
139192	2025-10-04T19:02:48	9.9	97
139193	2025-10-04T19:12:48	9.7	97
139194	2025-10-04T19:22:48	9.6	97
139195	2025-10-04T19:32:48	9.5	97
139196	2025-10-04T19:42:48	9.6	97
139197	2025-10-04T19:52:48	9.9	97
139198	2025-10-04T20:02:48	9.9	97
139199	2025-10-04T20:12:48	10.3	97
139200	2025-10-04T20:22:48	9.6	97
139201	2025-10-04T20:32:48	9	97
139202	2025-10-04T20:42:48	9.3	97
139203	2025-10-04T20:52:48	9.2	97
139204	2025-10-04T21:02:48	9.2	97
139205	2025-10-04T21:12:48	9	97
139206	2025-10-04T21:22:48	8.8	96.5
139207	2025-10-04T21:32:48	9	97
139208	2025-10-04T21:42:48	9.4	96.5
139209	2025-10-04T21:52:48	9.4	97
139210	2025-10-04T22:02:48	9.4	97
139211	2025-10-04T22:12:48	9.5	97
139212	2025-10-04T22:22:48	9.4	97
139213	2025-10-04T22:32:48	9.5	97
139214	2025-10-04T22:42:48	9.5	96.5
139215	2025-10-04T22:52:48	9.7	97
139216	2025-10-04T23:02:48	9.6	96.5
139217	2025-10-04T23:12:48	9.7	97
139218	2025-10-04T23:22:48	10	97
139219	2025-10-04T23:32:48	9.5	97
139220	2025-10-04T23:42:48	9.5	96.5
139221	2025-10-04T23:52:48	9.6	97
139222	2025-10-05T00:02:48	9	96.5
139223	2025-10-05T00:12:48	8.9	97
139224	2025-10-05T00:22:48	9	97
139225	2025-10-05T00:32:48	9	97
139226	2025-10-05T00:42:48	9	96.5
139227	2025-10-05T00:52:48	9.2	96.5
139228	2025-10-05T01:02:48	9.1	97
139229	2025-10-05T01:12:48	9.1	96.5
139230	2025-10-05T01:22:48	9.3	96.5
139231	2025-10-05T01:32:48	9.5	97
139232	2025-10-05T01:42:48	9.6	97
139233	2025-10-05T01:52:48	9.4	99.5
139234	2025-10-05T02:02:48	9.4	99.5
139235	2025-10-05T02:12:48	9.7	99.5
139236	2025-10-05T02:22:48	9.9	99.5
139237	2025-10-05T02:32:48	10	99.5
139238	2025-10-05T02:42:48	9.9	99.5
139239	2025-10-05T02:52:48	10	100
139240	2025-10-05T03:02:48	10	100
139241	2025-10-05T03:12:48	10	100
139242	2025-10-05T03:22:48	9.9	100
139243	2025-10-05T03:32:48	9.9	100
139244	2025-10-05T03:42:48	10	100
139245	2025-10-05T03:52:48	10.2	100
139246	2025-10-05T04:02:48	10.1	100
139247	2025-10-05T04:12:48	10.1	100
139248	2025-10-05T04:22:48	10.2	100
139249	2025-10-05T04:32:48	9.9	100
139250	2025-10-05T04:42:48	9.5	100
139251	2025-10-05T04:52:48	9.2	100
139252	2025-10-05T05:02:48	9.1	100
139253	2025-10-05T05:12:48	9.1	100
139254	2025-10-05T05:22:48	9.2	100
139255	2025-10-05T05:32:48	9.3	100
139256	2025-10-05T05:42:48	9.3	100
139257	2025-10-05T05:52:48	9.1	100
139258	2025-10-05T06:02:48	9.2	100
139259	2025-10-05T06:12:48	9.3	100
139260	2025-10-05T06:22:48	9.3	100
139261	2025-10-05T06:32:48	9.1	100
139262	2025-10-05T06:42:48	9.2	100
139263	2025-10-05T06:52:48	9.2	100
139264	2025-10-05T07:02:48	9.4	100
139265	2025-10-05T07:12:48	9.7	100
139266	2025-10-05T07:22:48	9.9	100
139267	2025-10-05T07:32:48	10	100
139268	2025-10-05T07:42:48	10.1	100
139269	2025-10-05T07:52:48	10.1	100
139270	2025-10-05T08:02:48	9.4	100
139271	2025-10-05T08:12:48	9.3	98
139272	2025-10-05T08:22:48	9.3	97
139273	2025-10-05T08:32:48	9.5	97.5
139274	2025-10-05T08:42:48	9.7	97.5
139275	2025-10-05T08:52:48	9.8	97.5
139276	2025-10-05T09:02:48	10.1	97
139277	2025-10-05T09:12:48	10	97.5
139278	2025-10-05T09:22:48	10	97.5
139279	2025-10-05T09:32:48	10.1	97.5
139280	2025-10-05T09:42:48	10.7	97.5
139281	2025-10-05T09:52:48	10	97.5
139282	2025-10-05T10:02:48	9.8	97.5
139283	2025-10-05T10:12:48	9.9	97.5
139284	2025-10-05T10:22:48	10	97.5
139285	2025-10-05T10:32:48	10.3	97.5
139286	2025-10-05T10:42:48	10.4	97.5
139287	2025-10-05T10:52:48	10.6	97.5
139288	2025-10-05T11:02:48	11.2	97.5
139289	2025-10-05T11:12:48	11.5	97.5
139290	2025-10-05T11:22:48	12	97.5
139291	2025-10-05T11:32:47	12.6	97.5
139292	2025-10-05T11:42:47	12.6	97.5
139293	2025-10-05T11:52:47	12.5	97.5
139294	2025-10-05T12:02:47	11.3	97.5
139295	2025-10-05T12:12:47	11.1	97.5
139296	2025-10-05T12:22:47	11.5	97.5
139297	2025-10-05T12:32:47	11.4	97.5
139298	2025-10-05T12:42:47	10.6	97
139299	2025-10-05T12:52:47	10.6	97
139300	2025-10-05T13:02:47	10.4	97
139301	2025-10-05T13:12:47	11.8	97
139302	2025-10-05T13:22:47	15.5	97
139303	2025-10-05T13:32:47	14.2	97
139304	2025-10-05T13:42:47	12.8	97
139305	2025-10-05T13:52:47	12	97
139306	2025-10-05T14:02:47	11.1	97
139307	2025-10-05T14:12:47	11.4	97
139308	2025-10-05T14:22:47	11.5	97
139309	2025-10-05T14:32:47	11.8	97
139310	2025-10-05T14:42:47	14.7	97
139311	2025-10-05T14:52:47	12.3	97
139312	2025-10-05T15:02:47	11.6	97
139313	2025-10-05T15:12:47	14.7	97
139314	2025-10-05T15:22:47	12	97
139315	2025-10-05T15:32:47	11.5	97
139316	2025-10-05T15:42:47	11.3	97
139317	2025-10-05T15:52:47	11.1	97
139318	2025-10-05T16:02:47	11	97
139319	2025-10-05T16:12:47	10.8	97
139320	2025-10-05T16:22:47	10.5	97
139321	2025-10-05T16:32:47	10.5	97
139322	2025-10-05T16:42:47	10.2	97
139323	2025-10-05T16:52:47	10.2	97
139324	2025-10-05T17:02:47	10.2	97
139325	2025-10-05T17:12:47	10.1	97
139326	2025-10-05T17:22:47	10	97
139327	2025-10-05T17:32:47	10	97
139328	2025-10-05T17:42:47	10.1	97
139329	2025-10-05T17:52:47	9.9	97
139330	2025-10-05T18:02:47	10	97
139331	2025-10-05T18:12:47	9.8	97
139332	2025-10-05T18:22:47	9.8	97
139333	2025-10-05T18:32:47	10.2	97
139334	2025-10-05T18:42:47	10.4	97
139335	2025-10-05T18:52:47	10.3	97
139336	2025-10-05T19:02:47	10.3	97
139337	2025-10-05T19:12:47	10.3	97
139338	2025-10-05T19:22:47	10.2	97
139339	2025-10-05T19:32:47	10.3	97
139340	2025-10-05T19:42:47	10.3	97
139341	2025-10-05T19:52:47	10.5	97
139342	2025-10-05T20:02:47	10.4	97
139343	2025-10-05T20:12:47	10.5	97
139344	2025-10-05T20:22:47	10.4	97
139345	2025-10-05T20:32:47	10.5	97
139346	2025-10-05T20:42:47	10.5	97
139347	2025-10-05T20:52:47	10.6	97
139348	2025-10-05T21:02:47	10.6	97
139349	2025-10-05T21:12:47	10.6	97
139350	2025-10-05T21:22:47	10.7	97.5
139351	2025-10-05T21:32:47	10.5	97
139352	2025-10-05T21:42:47	10.5	97
139353	2025-10-05T21:52:47	10.5	97
139354	2025-10-05T22:02:47	10.4	97
139355	2025-10-05T22:12:47	10.3	97
139356	2025-10-05T22:22:47	10.5	97
139357	2025-10-05T22:32:47	10.4	97
139358	2025-10-05T22:42:47	10.4	97
139359	2025-10-05T22:52:47	10.4	100
139360	2025-10-05T23:02:47	10.3	100
139361	2025-10-05T23:12:47	10.2	100
139362	2025-10-05T23:22:47	10.2	100
139363	2025-10-05T23:32:47	10.2	100
139364	2025-10-05T23:42:47	10.2	100
139365	2025-10-05T23:52:47	10.2	100
139366	2025-10-06T00:02:47	10.1	100
139367	2025-10-06T00:12:47	10	100
139368	2025-10-06T00:22:47	10.1	100
139369	2025-10-06T00:32:47	10.2	100
139370	2025-10-06T00:42:47	10.2	98
139371	2025-10-06T00:52:47	10.2	97.5
139372	2025-10-06T01:02:47	10.3	97
139373	2025-10-06T01:12:47	10.2	97.5
139374	2025-10-06T01:22:47	10.2	97
139375	2025-10-06T01:32:47	9.9	100
139376	2025-10-06T01:42:47	9.7	99.5
139377	2025-10-06T01:52:47	9.7	98.5
139378	2025-10-06T02:02:47	9.7	99
139379	2025-10-06T02:12:47	9.8	98
139380	2025-10-06T02:22:47	9.9	97.5
139381	2025-10-06T02:32:47	10	96.5
139382	2025-10-06T02:42:47	10.1	96.5
139383	2025-10-06T02:52:47	10.2	95.5
139384	2025-10-06T03:02:47	10.4	95.5
139385	2025-10-06T03:12:46	10.2	96
139386	2025-10-06T03:22:46	10.3	96
139387	2025-10-06T03:32:46	10.2	95
139388	2025-10-06T03:42:46	10.2	95.5
139389	2025-10-06T03:52:46	10.3	95.5
139390	2025-10-06T04:02:46	10.2	95.5
139391	2025-10-06T04:12:46	10.2	95.5
139392	2025-10-06T04:22:46	10.2	95.5
139393	2025-10-06T04:32:46	10.2	95.5
139394	2025-10-06T04:42:46	10.3	95.5
139395	2025-10-06T04:52:46	10.2	95.5
139396	2025-10-06T05:02:46	10.1	96
139397	2025-10-06T05:12:46	10.2	96
139398	2025-10-06T05:22:46	10.1	95.5
139399	2025-10-06T05:32:46	10.2	96
139400	2025-10-06T05:42:46	10.2	96
139401	2025-10-06T05:52:46	10.2	96
139402	2025-10-06T06:02:46	10.3	95.5
139403	2025-10-06T06:12:46	10.3	95.5
139404	2025-10-06T06:22:46	10.4	95.5
139405	2025-10-06T06:32:46	10.4	95.5
139406	2025-10-06T06:42:46	10.4	95.5
139407	2025-10-06T06:52:46	10.7	94.5
139408	2025-10-06T07:02:46	10.8	94.5
139409	2025-10-06T07:12:46	11	94
139410	2025-10-06T07:22:46	11.1	93
139411	2025-10-06T07:32:46	11.2	93
139412	2025-10-06T07:42:46	11.4	92.5
139413	2025-10-06T07:52:46	11.6	92
139414	2025-10-06T08:03:07	11.7	91.5
139415	2025-10-06T08:12:46	11.8	91
139416	2025-10-06T08:22:46	11.9	90.5
139417	2025-10-06T08:32:46	12.1	90
139418	2025-10-06T08:42:46	12	90
139419	2025-10-06T08:52:46	12.2	90
139420	2025-10-06T09:02:46	12.1	90
139421	2025-10-06T09:12:46	12.2	89.5
139422	2025-10-06T09:22:46	12.2	90
139423	2025-10-06T09:32:46	12.5	89
139424	2025-10-06T09:42:46	12.7	88
139425	2025-10-06T09:52:46	12.9	87
139426	2025-10-06T10:02:46	13	86.5
139427	2025-10-06T10:12:46	13.1	86
139428	2025-10-06T10:22:46	12.9	84.5
139429	2025-10-06T10:32:46	12.9	85
139430	2025-10-06T10:42:46	12.9	85.5
139431	2025-10-06T10:52:46	12.7	85.5
139432	2025-10-06T11:02:46	12.7	85
139433	2025-10-06T11:12:46	13	85.5
139434	2025-10-06T11:22:46	13.1	84.5
139435	2025-10-06T11:32:46	13.2	84
139436	2025-10-06T11:42:46	13.4	84
139437	2025-10-06T11:52:46	13.4	84
139438	2025-10-06T12:02:46	13.2	85
139439	2025-10-06T12:12:46	13.3	85.5
139440	2025-10-06T12:22:46	13.3	86
139441	2025-10-06T12:32:46	13.2	86
139442	2025-10-06T12:42:46	13.1	86.5
139443	2025-10-06T12:52:46	13.1	87
139444	2025-10-06T13:02:46	13	88
139445	2025-10-06T13:12:46	12.7	89
139446	2025-10-06T13:22:46	12.7	89.5
139447	2025-10-06T13:32:46	12.6	90
139448	2025-10-06T13:42:46	12.4	92
139449	2025-10-06T13:52:46	12	94.5
139450	2025-10-06T14:02:46	11.9	96.5
139451	2025-10-06T14:12:46	11.7	98
139452	2025-10-06T14:22:46	11.7	100
139453	2025-10-06T14:32:46	11.6	100
139454	2025-10-06T14:42:46	11.7	100
139455	2025-10-06T14:52:46	11.6	99
139456	2025-10-06T15:02:46	11.8	99
139457	2025-10-06T15:12:46	11.8	99
139458	2025-10-06T15:22:46	11.6	100
139459	2025-10-06T15:32:46	11.5	100
139460	2025-10-06T15:42:46	11.5	100
139461	2025-10-06T15:52:46	11.4	100
139462	2025-10-06T16:02:46	11.4	100
139463	2025-10-06T16:12:46	11.3	100
139464	2025-10-06T16:22:46	11.2	100
139465	2025-10-06T16:32:46	11.2	100
139466	2025-10-06T16:42:46	11.2	100
139467	2025-10-06T16:52:46	11.1	100
139468	2025-10-06T17:02:46	11.1	100
139469	2025-10-06T17:12:46	11.1	100
139470	2025-10-06T17:22:46	11	100
139471	2025-10-06T17:32:46	11.1	100
139472	2025-10-06T17:42:46	11.1	100
139473	2025-10-06T17:52:46	11	100
139474	2025-10-06T18:02:45	11.2	100
139475	2025-10-06T18:12:45	11.2	100
139476	2025-10-06T18:22:45	11.1	100
139477	2025-10-06T18:32:45	11.2	100
139478	2025-10-06T18:42:45	11.2	100
139479	2025-10-06T18:52:45	11.2	100
139480	2025-10-06T19:02:45	11.1	100
139481	2025-10-06T19:12:45	11.2	100
139482	2025-10-06T19:22:45	11.1	100
139483	2025-10-06T19:32:45	11.1	100
139484	2025-10-06T19:42:45	11	100
139485	2025-10-06T19:52:45	11.1	100
139486	2025-10-06T20:02:45	11	100
139487	2025-10-06T20:12:45	11	100
139488	2025-10-06T20:22:45	11	100
139489	2025-10-06T20:32:45	11	100
139490	2025-10-06T20:42:45	11.1	100
139491	2025-10-06T20:52:45	11.1	100
139492	2025-10-06T21:02:45	11	100
139493	2025-10-06T21:12:45	11.1	100
139494	2025-10-06T21:22:45	11	100
139495	2025-10-06T21:32:45	11	100
139496	2025-10-06T21:42:45	11	100
139497	2025-10-06T21:52:45	11	100
139498	2025-10-06T22:02:45	11	100
139499	2025-10-06T22:12:45	11	100
139500	2025-10-06T22:22:45	11	100
139501	2025-10-06T22:32:45	11	100
139502	2025-10-06T22:42:45	11	100
139503	2025-10-06T22:52:45	11	100
139504	2025-10-06T23:02:45	11.1	100
139505	2025-10-06T23:12:45	11.1	100
139506	2025-10-06T23:23:01	11	100
139507	2025-10-06T23:32:45	11.1	100
139508	2025-10-06T23:42:45	11.2	100
139509	2025-10-06T23:52:45	11.1	100
139510	2025-10-07T00:02:45	11.2	100
139511	2025-10-07T00:12:45	11.1	100
139512	2025-10-07T00:22:45	11.1	100
139513	2025-10-07T00:32:45	11.2	100
139514	2025-10-07T00:42:45	11.2	100
139515	2025-10-07T00:52:45	11.1	100
139516	2025-10-07T01:02:45	11.1	100
139517	2025-10-07T01:12:45	11.1	100
139518	2025-10-07T01:22:45	11.2	100
139519	2025-10-07T01:32:45	11	100
139520	2025-10-07T01:42:45	11.2	100
139521	2025-10-07T01:52:45	11.3	100
139522	2025-10-07T02:02:45	11.2	100
139523	2025-10-07T02:12:45	11.1	100
139524	2025-10-07T02:22:45	11.3	100
139525	2025-10-07T02:32:45	11.3	100
139526	2025-10-07T02:42:45	11.3	100
139527	2025-10-07T02:52:45	11.3	100
139528	2025-10-07T03:02:45	11.2	100
139529	2025-10-07T03:12:45	11.2	100
139530	2025-10-07T03:22:45	11.3	100
139531	2025-10-07T03:32:45	11.2	100
139532	2025-10-07T03:42:45	11.1	100
139533	2025-10-07T03:52:45	11.2	100
139534	2025-10-07T04:02:45	11.2	100
139535	2025-10-07T04:12:45	11.3	100
139536	2025-10-07T04:22:45	11.2	100
139537	2025-10-07T04:32:45	11.1	100
139538	2025-10-07T04:42:45	11.2	100
139539	2025-10-07T04:52:45	11.3	100
139540	2025-10-07T05:02:45	11.2	100
139541	2025-10-07T05:12:45	11.2	100
139542	2025-10-07T05:22:45	11.2	100
139543	2025-10-07T05:32:45	11.2	100
139544	2025-10-07T05:42:45	11.2	100
139545	2025-10-07T05:52:45	11.2	100
139546	2025-10-07T06:02:45	11.3	100
139547	2025-10-07T06:12:45	11.3	100
139548	2025-10-07T06:22:45	11.3	100
139549	2025-10-07T06:32:45	11.3	100
139550	2025-10-07T06:42:45	11.4	100
139551	2025-10-07T06:52:45	11.4	100
139552	2025-10-07T07:02:45	11.5	100
139553	2025-10-07T07:12:45	11.4	100
139554	2025-10-07T07:22:45	11.5	100
139555	2025-10-07T07:32:45	11.6	100
139556	2025-10-07T07:42:45	11.8	100
139557	2025-10-07T07:52:45	11.9	100
139558	2025-10-07T08:02:45	12.1	100
139559	2025-10-07T08:12:45	12.3	100
139560	2025-10-07T08:22:45	12.5	100
139561	2025-10-07T08:32:45	12.8	100
139562	2025-10-07T08:42:45	12.9	99
139563	2025-10-07T08:52:45	13.1	98.5
139564	2025-10-07T09:02:45	13.2	99.5
139565	2025-10-07T09:12:44	13.3	98
139566	2025-10-07T09:22:44	13.4	98.5
139567	2025-10-07T09:32:44	13.7	98.5
139568	2025-10-07T09:42:44	14	97
139569	2025-10-07T09:52:44	14.1	96
139570	2025-10-07T10:02:44	14.2	94
139571	2025-10-07T10:12:44	14.2	94.5
139572	2025-10-07T10:22:44	14.6	93.5
139573	2025-10-07T10:32:44	14.7	91.5
139574	2025-10-07T10:42:44	15.4	90
139575	2025-10-07T10:52:44	15.7	87.5
139576	2025-10-07T11:02:44	15.7	87
139577	2025-10-07T11:12:44	15.6	87.5
139578	2025-10-07T11:22:44	15.3	89
139579	2025-10-07T11:32:44	15.3	91.5
139580	2025-10-07T11:42:44	15.8	88.5
139581	2025-10-07T11:52:44	16.1	86.5
139582	2025-10-07T12:02:44	16	88
139583	2025-10-07T12:12:44	16.2	86
139584	2025-10-07T12:22:44	16.7	85
139585	2025-10-07T12:32:44	17.7	81
139586	2025-10-07T12:42:44	18.7	80.5
139587	2025-10-07T12:52:44	20.9	74.5
139588	2025-10-07T13:02:44	24.6	63
139589	2025-10-07T13:12:44	26.3	53.5
139590	2025-10-07T13:22:44	24.5	61.5
139591	2025-10-07T13:32:44	21.9	63
139592	2025-10-07T13:42:44	20.6	73.5
139593	2025-10-07T13:52:44	23.4	67.5
139594	2025-10-07T14:02:44	26.2	58.5
139595	2025-10-07T14:12:44	27.7	52.5
139596	2025-10-07T14:22:44	28.8	51
139597	2025-10-07T14:32:44	28.6	49.5
139598	2025-10-07T14:42:44	25.6	57.5
139599	2025-10-07T14:52:44	22.4	61.5
139600	2025-10-07T15:02:44	27	53.5
139601	2025-10-07T15:12:44	27.9	50.5
139602	2025-10-07T15:22:44	29.3	50
139603	2025-10-07T15:32:44	30.1	46.5
139604	2025-10-07T15:42:44	25.5	57
139605	2025-10-07T15:52:44	26.9	52
139606	2025-10-07T16:02:44	25.1	57
139607	2025-10-07T16:12:44	23.3	62
139608	2025-10-07T16:22:44	21.8	69
139609	2025-10-07T16:32:44	20.9	73
139610	2025-10-07T16:42:44	20	78
139611	2025-10-07T16:52:44	19.2	79
139612	2025-10-07T17:02:44	18.6	81
139613	2025-10-07T17:12:44	17.9	83
139614	2025-10-07T17:22:44	17.4	84.5
139615	2025-10-07T17:32:44	17.1	86.5
139616	2025-10-07T17:42:44	16.6	86.5
139617	2025-10-07T17:52:44	16.3	87
139618	2025-10-07T18:02:44	16.1	88.5
139619	2025-10-07T18:12:44	15.7	88
139620	2025-10-07T18:22:44	15.5	88
139621	2025-10-07T18:32:44	15.2	89.5
139622	2025-10-07T18:42:44	15.1	90
139623	2025-10-07T18:52:44	14.7	90
139624	2025-10-07T19:02:44	14.4	90
139625	2025-10-07T19:12:44	14.2	91
139626	2025-10-07T19:22:44	14	92
139627	2025-10-07T19:32:44	13.8	92.5
139628	2025-10-07T19:42:44	13.5	92.5
139629	2025-10-07T19:52:44	13.3	93
139630	2025-10-07T20:02:44	13.1	93
139631	2025-10-07T20:12:44	12.9	93.5
139632	2025-10-07T20:22:44	12.7	93.5
139633	2025-10-07T20:32:44	12.5	94
139634	2025-10-07T20:42:44	12.4	95
139635	2025-10-07T20:52:44	12.2	94.5
139636	2025-10-07T21:02:44	12.1	95.5
139637	2025-10-07T21:12:43	12	96
139638	2025-10-07T21:22:43	12	96
139639	2025-10-07T21:32:43	12	96.5
139640	2025-10-07T21:42:43	11.9	96.5
139641	2025-10-07T21:52:43	11.8	97
139642	2025-10-07T22:02:43	11.6	96.5
139643	2025-10-07T22:12:43	11.6	97.5
139644	2025-10-07T22:22:43	11.3	97.5
139645	2025-10-07T22:32:43	11.2	97.5
139646	2025-10-07T22:42:43	11.1	98
139647	2025-10-07T22:52:43	11	98.5
139648	2025-10-07T23:02:43	10.8	98
139649	2025-10-07T23:12:43	10.8	98.5
139650	2025-10-07T23:22:43	10.7	98.5
139651	2025-10-07T23:32:43	10.8	99
139652	2025-10-07T23:42:43	10.6	99.5
139653	2025-10-07T23:52:43	10.5	99.5
139654	2025-10-08T00:02:43	10.5	99.5
139655	2025-10-08T00:12:43	10.4	99
139656	2025-10-08T00:22:43	10.2	99.5
139657	2025-10-08T00:32:43	10.2	99.5
139658	2025-10-08T00:42:43	10.2	99.5
139659	2025-10-08T00:52:43	10.2	100
139660	2025-10-08T01:02:43	10	100
139661	2025-10-08T01:12:43	9.9	100
139662	2025-10-08T01:22:43	9.7	100
139663	2025-10-08T01:32:43	9.7	100
139664	2025-10-08T01:42:43	9.6	100
139665	2025-10-08T01:52:43	9.5	100
139666	2025-10-08T02:02:43	9.3	100
139667	2025-10-08T02:12:43	9.3	100
139668	2025-10-08T02:22:43	9.2	100
139669	2025-10-08T02:32:43	9.3	100
139670	2025-10-08T02:42:43	9.2	100
139671	2025-10-08T02:52:43	9	100
139672	2025-10-08T03:02:43	9.1	100
139673	2025-10-08T03:12:43	9	100
139674	2025-10-08T03:22:43	9	100
139675	2025-10-08T03:32:43	8.8	100
139676	2025-10-08T03:42:43	8.9	100
139677	2025-10-08T03:52:43	8.9	100
139678	2025-10-08T04:02:43	8.9	100
139679	2025-10-08T04:12:43	8.8	100
139680	2025-10-08T04:22:43	8.8	100
139681	2025-10-08T04:32:43	8.6	100
139682	2025-10-08T04:42:43	8.6	100
139683	2025-10-08T04:52:43	8.5	100
139684	2025-10-08T05:02:43	8.5	100
139685	2025-10-08T05:12:43	8.4	100
139686	2025-10-08T05:22:43	8.3	100
139687	2025-10-08T05:32:43	8.2	100
139688	2025-10-08T05:42:43	8.2	100
139689	2025-10-08T05:52:43	8.2	100
139690	2025-10-08T06:02:43	8.4	100
139691	2025-10-08T06:12:43	8.5	100
139692	2025-10-08T06:22:43	8.6	100
139693	2025-10-08T06:32:43	8.8	100
139694	2025-10-08T06:42:43	9.2	100
139695	2025-10-08T06:52:43	9.4	100
139696	2025-10-08T07:02:43	9.6	100
139697	2025-10-08T07:12:43	9.5	100
139698	2025-10-08T07:22:43	9.5	100
139699	2025-10-08T07:32:43	10.1	99.5
139700	2025-10-08T07:42:43	10.2	99
139701	2025-10-08T07:52:43	10.4	98.5
139702	2025-10-08T08:02:43	10.5	98.5
139703	2025-10-08T08:12:43	10.7	98
139704	2025-10-08T08:22:43	10.8	98.5
139705	2025-10-08T08:32:43	11.2	97.5
139706	2025-10-08T08:42:43	11.9	93.5
139707	2025-10-08T08:52:43	12.1	93.5
139708	2025-10-08T09:02:43	12	95.5
139709	2025-10-08T09:12:43	12.7	91.5
139710	2025-10-08T09:22:43	12.9	91
139711	2025-10-08T09:32:43	12.6	93
139712	2025-10-08T09:42:43	12.6	92.5
139713	2025-10-08T09:52:43	12.3	94.5
139714	2025-10-08T10:02:43	12.7	93.5
139715	2025-10-08T10:12:43	12.9	93.5
139716	2025-10-08T10:22:43	13	93.5
139717	2025-10-08T10:32:43	13.1	92.5
139718	2025-10-08T10:42:43	13	92
139719	2025-10-08T10:52:43	13.2	92.5
139720	2025-10-08T11:02:43	13.2	91.5
139721	2025-10-08T11:12:43	13.5	91.5
139722	2025-10-08T11:22:43	14.5	88
139723	2025-10-08T11:32:43	15.7	85.5
139724	2025-10-08T11:42:43	15.5	84.5
139725	2025-10-08T11:52:43	16	85
139726	2025-10-08T12:02:43	18.5	75.5
139727	2025-10-08T12:12:43	21	68.5
139728	2025-10-08T12:22:43	22.4	64.5
139729	2025-10-08T12:32:42	23.8	62
139730	2025-10-08T12:42:42	25.2	58
139731	2025-10-08T12:52:42	26.7	52.5
139732	2025-10-08T13:02:42	26.6	52.5
139733	2025-10-08T13:12:42	28.1	46
139734	2025-10-08T13:22:42	27.9	49.5
139735	2025-10-08T13:32:42	28.7	49
139736	2025-10-08T13:42:42	29.2	46.5
139737	2025-10-08T13:52:42	30	45.5
139738	2025-10-08T14:02:42	28.5	46.5
139739	2025-10-08T14:12:42	30.3	44.5
139740	2025-10-08T14:22:42	29.1	45
139741	2025-10-08T14:32:42	29.8	44.5
139742	2025-10-08T14:42:42	30	45.5
139743	2025-10-08T14:52:42	31.4	42.5
139744	2025-10-08T15:02:42	30.7	42
139745	2025-10-08T15:12:42	30.5	43.5
139746	2025-10-08T15:22:42	30.7	43
139747	2025-10-08T15:32:42	29.6	45
139748	2025-10-08T15:42:42	26.3	52.5
139749	2025-10-08T15:52:42	24.5	56.5
139750	2025-10-08T16:02:42	24.3	57.5
139751	2025-10-08T16:12:42	23.1	62
139752	2025-10-08T16:22:42	22.3	64.5
139753	2025-10-08T16:32:42	21.6	66
139754	2025-10-08T16:42:42	21	70
139755	2025-10-08T16:52:42	20.3	71.5
139756	2025-10-08T17:02:42	19.7	73
139757	2025-10-08T17:12:42	19.2	74.5
139758	2025-10-08T17:22:42	18.9	75.5
139759	2025-10-08T17:32:42	18.7	77
139760	2025-10-08T17:42:42	18.5	78.5
139761	2025-10-08T17:52:42	18.1	79
139762	2025-10-08T18:02:42	17.8	80
139763	2025-10-08T18:12:42	17.5	80.5
139764	2025-10-08T18:22:42	17.4	81.5
139765	2025-10-08T18:32:42	17	81.5
139766	2025-10-08T18:42:42	16.9	82.5
139767	2025-10-08T18:52:42	16.9	82.5
139768	2025-10-08T19:02:42	16.9	83
139769	2025-10-08T19:12:42	16.8	83
139770	2025-10-08T19:22:42	16.8	83.5
139771	2025-10-08T19:32:42	16.7	84
139772	2025-10-08T19:42:42	16.5	84
139773	2025-10-08T19:52:42	16.5	84.5
139774	2025-10-08T20:02:42	16.4	85
139775	2025-10-08T20:12:42	16.4	85.5
139776	2025-10-08T20:22:42	16.3	86
139777	2025-10-08T20:32:42	16.3	87
139778	2025-10-08T20:42:42	16.2	87
139779	2025-10-08T20:52:42	16.1	87
139780	2025-10-08T21:02:42	15.9	87
139781	2025-10-08T21:12:42	15.9	88
139782	2025-10-08T21:22:42	15.9	88.5
139783	2025-10-08T21:32:42	15.7	88.5
139784	2025-10-08T21:42:42	15.7	89
139785	2025-10-08T21:52:42	15.7	89.5
139786	2025-10-08T22:02:42	15.6	90
139787	2025-10-08T22:12:42	15.5	90.5
139788	2025-10-08T22:22:42	15.4	90.5
139789	2025-10-08T22:32:42	15.4	91
139790	2025-10-08T22:42:42	15.4	91
139791	2025-10-08T22:52:42	15.3	91.5
139792	2025-10-08T23:02:42	15.1	91.5
139793	2025-10-08T23:12:42	15	92
139794	2025-10-08T23:22:42	15	92.5
139795	2025-10-08T23:32:42	14.9	92
139796	2025-10-08T23:42:41	14.9	92
139797	2025-10-08T23:52:41	14.9	92
139798	2025-10-09T00:02:41	14.9	92.5
139799	2025-10-09T00:12:41	14.8	93
139800	2025-10-09T00:22:41	14.8	93.5
139801	2025-10-09T00:32:41	14.6	95.5
139802	2025-10-09T00:42:41	14.6	95.5
139803	2025-10-09T00:52:41	14.4	95.5
139804	2025-10-09T01:02:41	14.6	96
139805	2025-10-09T01:12:41	14.2	97
139806	2025-10-09T01:22:41	14	98.5
139807	2025-10-09T01:32:41	13.9	98.5
139808	2025-10-09T01:42:41	13.8	99.5
139809	2025-10-09T01:52:41	13.9	99.5
139810	2025-10-09T02:02:41	13.9	100
139811	2025-10-09T02:12:41	13.9	99
139812	2025-10-09T02:22:41	13.9	99
139813	2025-10-09T02:32:41	13.9	98.5
139814	2025-10-09T02:42:41	13.9	99
139815	2025-10-09T02:52:41	13.8	98
139816	2025-10-09T03:02:41	13.7	98
139817	2025-10-09T03:12:41	13.7	98.5
139818	2025-10-09T03:22:41	13.6	98
139819	2025-10-09T03:32:41	13.7	98.5
139820	2025-10-09T03:42:41	13.6	98
139821	2025-10-09T03:52:41	13.6	98
139822	2025-10-09T04:02:41	13.6	98
139823	2025-10-09T04:12:41	13.5	98
139824	2025-10-09T04:22:41	13.5	98
139825	2025-10-09T04:32:41	13.5	98
139826	2025-10-09T04:42:41	13.4	98
139827	2025-10-09T04:52:41	13.2	98
139828	2025-10-09T05:02:41	13.2	98.5
139829	2025-10-09T05:12:41	13.2	98
139830	2025-10-09T05:22:41	13.1	98.5
139831	2025-10-09T05:32:41	13	98
139832	2025-10-09T05:42:41	13.1	98
139833	2025-10-09T05:52:41	13.1	98
139834	2025-10-09T06:02:41	13.1	98
139835	2025-10-09T06:12:41	13.2	98
139836	2025-10-09T06:22:41	13.1	98
139837	2025-10-09T06:32:41	13.4	98
139838	2025-10-09T06:42:41	13.5	98
139839	2025-10-09T06:52:41	13.3	97.5
139840	2025-10-09T07:02:41	13.2	98.5
139841	2025-10-09T07:12:41	13.7	97
139842	2025-10-09T07:22:41	13.9	96
139843	2025-10-09T07:32:41	14.3	95
139844	2025-10-09T07:42:41	14.4	93.5
139845	2025-10-09T07:52:41	14.5	93.5
139846	2025-10-09T08:02:41	14.5	91.5
139847	2025-10-09T08:12:41	15	90
139848	2025-10-09T08:22:41	15.2	87.5
139849	2025-10-09T08:32:41	15.2	88
139850	2025-10-09T08:42:41	15.5	85
139851	2025-10-09T08:52:41	15.4	85.5
139852	2025-10-09T09:02:41	15.4	86.5
139853	2025-10-09T09:12:41	15	86
139854	2025-10-09T09:22:41	14.6	88
139855	2025-10-09T09:32:41	15	86.5
139856	2025-10-09T09:42:41	15.6	84
139857	2025-10-09T09:52:41	15	87
139858	2025-10-09T10:02:41	14.9	87.5
139859	2025-10-09T10:12:41	15.2	87
139860	2025-10-09T10:22:41	15.6	84
139861	2025-10-09T10:32:41	16.2	82
139862	2025-10-09T10:42:41	17.6	76
139863	2025-10-09T10:52:41	17.8	75.5
139864	2025-10-09T11:02:41	17.5	76.5
139865	2025-10-09T11:12:41	17.1	77
139866	2025-10-09T11:22:41	17.3	80
139867	2025-10-09T11:32:41	18.6	75.5
139868	2025-10-09T11:42:41	19.4	71.5
139869	2025-10-09T11:52:41	20.3	70.5
139870	2025-10-09T12:02:41	19.4	72
139871	2025-10-09T12:12:41	19.3	72
139872	2025-10-09T12:22:41	19.4	72
139873	2025-10-09T12:32:40	21.5	69
139874	2025-10-09T12:42:40	21.4	66
139875	2025-10-09T12:52:40	22.3	64.5
139876	2025-10-09T13:02:40	23	61
139877	2025-10-09T13:12:40	23.1	61.5
139878	2025-10-09T13:22:40	22.8	60
139879	2025-10-09T13:32:40	23.2	60
139880	2025-10-09T13:42:40	22	62.5
139881	2025-10-09T13:52:40	21.1	65.5
139882	2025-10-09T14:02:40	20.5	67.5
139883	2025-10-09T14:12:40	20.2	68
139884	2025-10-09T14:22:40	19.9	69
139885	2025-10-09T14:32:40	19.4	71.5
139886	2025-10-09T14:42:40	19.3	71.5
139887	2025-10-09T14:52:40	19.1	72
139888	2025-10-09T15:02:40	19	73
139889	2025-10-09T15:12:40	18.9	73.5
139890	2025-10-09T15:22:40	18.7	75
139891	2025-10-09T15:32:40	18.5	76
139892	2025-10-09T15:42:40	18.4	76.5
139893	2025-10-09T15:52:40	18.1	77.5
139894	2025-10-09T16:02:40	17.9	77
139895	2025-10-09T16:12:40	17.7	79.5
139896	2025-10-09T16:22:40	17.6	81
139897	2025-10-09T16:32:40	17.4	83
139898	2025-10-09T16:42:40	17.3	84.5
139899	2025-10-09T16:52:40	17	85
139900	2025-10-09T17:02:40	16.9	85.5
139901	2025-10-09T17:12:40	16.7	86
139902	2025-10-09T17:22:40	16.6	86.5
139903	2025-10-09T17:32:40	16.5	87.5
139904	2025-10-09T17:42:40	16.3	88.5
139905	2025-10-09T17:52:40	16.2	88.5
139906	2025-10-09T18:02:40	16.1	89
139907	2025-10-09T18:12:40	16	88.5
139908	2025-10-09T18:22:40	15.8	89.5
139909	2025-10-09T18:32:40	15.6	90
139910	2025-10-09T18:42:40	15.5	90.5
139911	2025-10-09T18:52:40	15.4	91
139912	2025-10-09T19:02:40	15.2	91
139913	2025-10-09T19:12:40	15.1	92.5
139914	2025-10-09T19:22:40	14.7	93.5
139915	2025-10-09T19:32:40	14.2	94.5
139916	2025-10-09T19:42:40	13.8	95.5
139917	2025-10-09T19:52:40	13.6	95.5
139918	2025-10-09T20:02:40	13.3	96
139919	2025-10-09T20:12:40	13.1	95.5
139920	2025-10-09T20:22:40	12.8	95.5
139921	2025-10-09T20:32:40	12.6	96
139922	2025-10-09T20:42:40	12.6	96
139923	2025-10-09T20:52:40	12.4	96.5
139924	2025-10-09T21:02:40	12.2	96.5
139925	2025-10-09T21:12:40	12.1	96.5
139926	2025-10-09T21:22:40	11.8	96.5
139927	2025-10-09T21:32:40	11.9	96.5
139928	2025-10-09T21:42:40	11.9	96
139929	2025-10-09T21:52:40	11.7	97
139930	2025-10-09T22:02:40	11.5	97.5
139931	2025-10-09T22:12:40	11.3	97.5
139932	2025-10-09T22:22:40	11.1	97.5
139933	2025-10-09T22:32:40	11	97.5
139934	2025-10-09T22:42:40	10.9	97.5
139935	2025-10-09T22:52:40	10.7	97.5
139936	2025-10-09T23:02:40	10.5	97.5
139937	2025-10-09T23:12:40	10.6	97.5
139938	2025-10-09T23:22:40	10.5	98
139939	2025-10-09T23:32:40	10.4	97.5
139940	2025-10-09T23:42:40	10.1	97
139941	2025-10-09T23:52:40	10	97.5
139942	2025-10-10T00:02:40	10	97.5
139943	2025-10-10T00:12:40	9.8	97.5
139944	2025-10-10T00:22:40	9.6	97.5
139945	2025-10-10T00:32:40	9.4	98
139946	2025-10-10T00:42:40	9.3	98
139947	2025-10-10T00:52:40	9.3	98
139948	2025-10-10T01:02:40	9.2	98
139949	2025-10-10T01:12:40	9	98.5
139950	2025-10-10T01:22:40	8.8	98.5
139951	2025-10-10T01:32:39	8.7	98.5
139952	2025-10-10T01:42:39	8.7	98.5
139953	2025-10-10T01:52:39	8.6	98.5
139954	2025-10-10T02:02:39	8.5	98.5
139955	2025-10-10T02:12:39	8.3	99
139956	2025-10-10T02:22:39	8.3	99.5
139957	2025-10-10T02:32:39	8.4	99.5
139958	2025-10-10T02:42:39	8.2	99.5
139959	2025-10-10T02:52:39	8.2	99.5
139960	2025-10-10T03:02:39	8	99.5
139961	2025-10-10T03:12:39	7.9	99.5
139962	2025-10-10T03:22:39	7.8	99.5
139963	2025-10-10T03:32:39	7.8	99.5
139964	2025-10-10T03:42:39	7.6	99
139965	2025-10-10T03:52:39	7.5	99.5
139966	2025-10-10T04:02:39	7.4	99.5
139967	2025-10-10T04:12:39	7.3	99.5
139968	2025-10-10T04:22:39	7.3	100
139969	2025-10-10T04:32:39	7.3	100
139970	2025-10-10T04:42:39	7.1	100
139971	2025-10-10T04:52:39	7.2	100
139972	2025-10-10T05:02:39	7.5	99
139973	2025-10-10T05:12:39	7.6	98.5
139974	2025-10-10T05:22:39	7.3	99
139975	2025-10-10T05:32:39	7.2	99
139976	2025-10-10T05:42:39	7.4	99.5
139977	2025-10-10T05:52:39	7.3	99.5
139978	2025-10-10T06:02:39	7.3	100
139979	2025-10-10T06:12:39	7.3	100
139980	2025-10-10T06:22:39	7.2	100
139981	2025-10-10T06:32:39	7.4	100
139982	2025-10-10T06:42:39	7.6	100
139983	2025-10-10T06:52:39	7.8	100
139984	2025-10-10T07:02:39	8.2	100
139985	2025-10-10T07:12:39	8.3	100
139986	2025-10-10T07:22:39	8.4	100
139987	2025-10-10T07:32:39	8.8	100
139988	2025-10-10T07:42:57	9	100
139989	2025-10-10T07:52:39	9.3	100
139990	2025-10-10T08:02:39	9.9	100
139991	2025-10-10T08:12:39	10.7	97.5
139992	2025-10-10T08:22:39	11.1	96
139993	2025-10-10T08:32:39	11.5	94.5
139994	2025-10-10T08:42:39	12	92.5
139995	2025-10-10T08:52:39	12.5	90.5
139996	2025-10-10T09:02:39	13	90
139997	2025-10-10T09:12:39	13.4	88.5
139998	2025-10-10T09:22:39	13.7	87
139999	2025-10-10T09:32:39	13.7	85.5
140000	2025-10-10T09:42:39	14.2	85.5
140001	2025-10-10T09:52:39	14.2	84
140002	2025-10-10T10:02:39	14.3	83
140003	2025-10-10T10:12:39	15.1	80.5
140004	2025-10-10T10:22:39	15.6	80
140005	2025-10-10T10:32:39	15.4	79
140006	2025-10-10T10:42:39	15.5	78.5
140007	2025-10-10T10:52:39	15.6	78
140008	2025-10-10T11:02:39	15.7	78.5
140009	2025-10-10T11:12:39	16	75.5
140010	2025-10-10T11:22:39	16.6	74.5
140011	2025-10-10T11:32:39	16.9	72.5
140012	2025-10-10T11:42:39	16.9	71.5
140013	2025-10-10T11:52:39	16.8	72
140014	2025-10-10T12:02:39	16.6	73
140015	2025-10-10T12:12:39	16.5	73
140016	2025-10-10T12:22:39	17.1	72.5
140017	2025-10-10T12:32:39	18.3	68
140018	2025-10-10T12:42:39	19.3	65.5
140019	2025-10-10T12:52:39	22.1	58.5
140020	2025-10-10T13:02:39	23.3	53.5
140021	2025-10-10T13:12:39	24.1	51.5
140022	2025-10-10T13:22:39	24.8	49.5
140023	2025-10-10T13:32:39	26.2	47.5
140024	2025-10-10T13:42:39	26.7	46
140025	2025-10-10T13:52:39	23.5	52
140026	2025-10-10T14:02:39	22.1	56
140027	2025-10-10T14:12:39	21.8	56.5
140028	2025-10-10T14:22:39	21	58
140029	2025-10-10T14:32:39	23.1	53
140030	2025-10-10T14:42:39	24.5	50
140031	2025-10-10T14:52:39	21.4	56.5
140032	2025-10-10T15:02:39	20.7	58
140033	2025-10-10T15:12:39	19.7	59.5
140034	2025-10-10T15:22:39	19.3	62
140035	2025-10-10T15:32:39	18.7	64.5
140036	2025-10-10T15:42:39	18.2	66
140037	2025-10-10T15:52:38	17.8	66.5
140038	2025-10-10T16:02:38	17.5	69.5
140039	2025-10-10T16:12:38	17.2	68.5
140040	2025-10-10T16:22:38	17	70.5
140041	2025-10-10T16:32:38	16.6	71.5
140042	2025-10-10T16:42:38	16.3	74.5
140043	2025-10-10T16:52:38	16.2	75
140044	2025-10-10T17:02:38	16	76
140045	2025-10-10T17:12:38	15.9	76
140046	2025-10-10T17:22:38	15.7	77.5
140047	2025-10-10T17:32:38	15.6	78.5
140048	2025-10-10T17:42:38	15.4	78
140049	2025-10-10T17:52:38	15	79.5
140050	2025-10-10T18:02:38	14.5	80.5
140051	2025-10-10T18:12:38	14.1	83
140052	2025-10-10T18:22:38	14.1	83
140053	2025-10-10T18:32:38	13.7	85
140054	2025-10-10T18:42:38	13.4	85.5
140055	2025-10-10T18:52:38	13.2	86
140056	2025-10-10T19:02:38	12.8	87
140057	2025-10-10T19:12:38	12.6	88
140058	2025-10-10T19:22:38	12.4	88
140059	2025-10-10T19:32:38	12.4	89
140060	2025-10-10T19:42:38	12.4	89
140061	2025-10-10T19:52:38	12.6	88
140062	2025-10-10T20:02:38	12.8	87.5
140063	2025-10-10T20:12:38	12.9	88
140064	2025-10-10T20:22:38	13	87.5
140065	2025-10-10T20:32:38	13	87
140066	2025-10-10T20:42:38	13	87
140067	2025-10-10T20:52:38	13	87.5
140068	2025-10-10T21:02:38	13	87
140069	2025-10-10T21:12:38	12.9	87
140070	2025-10-10T21:22:38	12.9	87
140071	2025-10-10T21:32:38	12.8	87.5
140072	2025-10-10T21:42:38	12.8	87.5
140073	2025-10-10T21:52:38	12.8	87
140074	2025-10-10T22:02:38	12.7	87
140075	2025-10-10T22:12:38	12.8	87.5
140076	2025-10-10T22:22:38	12.7	87.5
140077	2025-10-10T22:32:38	12.8	87.5
140078	2025-10-10T22:42:38	12.7	88
140079	2025-10-10T22:52:38	12.6	88
140080	2025-10-10T23:02:38	12.6	88
140081	2025-10-10T23:12:38	12.6	86
140082	2025-10-10T23:22:38	12.4	85.5
140083	2025-10-10T23:32:38	12.3	86.5
140084	2025-10-10T23:42:38	12.1	86
140085	2025-10-10T23:52:38	11.8	87
140086	2025-10-11T00:02:38	11.5	87
140087	2025-10-11T00:12:38	11.4	88
140088	2025-10-11T00:22:38	11.2	88
140089	2025-10-11T00:32:38	11.1	88.5
140090	2025-10-11T00:42:38	11.2	88
140091	2025-10-11T00:52:38	11.2	87.5
140092	2025-10-11T01:02:38	11	89
140093	2025-10-11T01:12:38	10.8	89
140094	2025-10-11T01:22:38	10.4	91
140095	2025-10-11T01:32:38	10.3	92
140096	2025-10-11T01:42:38	10.2	93.5
140097	2025-10-11T01:52:38	10.1	94.5
140098	2025-10-11T02:02:38	9.7	95.5
140099	2025-10-11T02:12:38	9.6	96
140100	2025-10-11T02:22:38	9.6	96.5
140101	2025-10-11T02:32:38	9.3	97
140102	2025-10-11T02:42:38	9	97.5
140103	2025-10-11T02:52:38	8.9	97.5
140104	2025-10-11T03:02:38	8.8	97.5
140105	2025-10-11T03:12:38	8.6	98
140106	2025-10-11T03:22:38	8.5	98
140107	2025-10-11T03:32:38	8.4	98
140108	2025-10-11T03:42:38	8.5	98
140109	2025-10-11T03:52:38	8.4	98.5
140110	2025-10-11T04:02:38	8.2	98.5
140111	2025-10-11T04:12:38	8.1	98.5
140112	2025-10-11T04:22:38	8	98.5
140113	2025-10-11T04:32:38	7.8	98
140114	2025-10-11T04:42:38	7.7	98
140115	2025-10-11T04:52:38	7.7	98.5
140116	2025-10-11T05:02:38	7.5	98.5
140117	2025-10-11T05:12:38	7.3	98.5
140118	2025-10-11T05:22:38	7.2	98.5
140119	2025-10-11T05:32:38	7.3	99
140120	2025-10-11T05:42:38	7.4	99.5
140121	2025-10-11T05:52:38	7.3	99
140122	2025-10-11T06:02:38	7.4	99
140123	2025-10-11T06:12:38	7.4	99
140124	2025-10-11T06:22:38	7.6	99
140125	2025-10-11T06:32:38	7.5	98
140126	2025-10-11T06:42:38	7.8	98.5
140127	2025-10-11T06:52:37	8.1	99.5
140128	2025-10-11T07:02:37	8.3	99.5
140129	2025-10-11T07:12:37	8.6	100
140130	2025-10-11T07:22:37	8.7	100
140131	2025-10-11T07:32:37	9.3	98.5
140132	2025-10-11T07:42:37	9.6	98
140133	2025-10-11T07:52:37	9.9	96.5
140134	2025-10-11T08:02:37	10.3	95.5
140135	2025-10-11T08:12:37	10.7	95
140136	2025-10-11T08:22:37	10.8	94
140137	2025-10-11T08:32:37	11.1	93.5
140138	2025-10-11T08:42:37	11.3	93
140139	2025-10-11T08:52:37	11.5	93
140140	2025-10-11T09:02:37	11.8	92
140141	2025-10-11T09:12:37	12.1	91
140142	2025-10-11T09:22:37	12.6	90
140143	2025-10-11T09:32:37	12.8	89
140144	2025-10-11T09:42:37	12.9	88.5
140145	2025-10-11T09:52:37	13.3	88.5
140146	2025-10-11T10:02:37	13.6	87.5
140147	2025-10-11T10:12:37	13.9	84
140148	2025-10-11T10:22:37	14.3	80.5
140149	2025-10-11T10:32:37	14.5	79
140150	2025-10-11T10:42:37	14.8	79
140151	2025-10-11T10:52:37	15.1	77.5
140152	2025-10-11T11:02:37	15.5	75.5
140153	2025-10-11T11:12:37	15.9	75.5
140154	2025-10-11T11:22:37	16.2	73.5
140155	2025-10-11T11:32:37	16.6	74
140156	2025-10-11T11:42:37	16.9	73.5
140157	2025-10-11T11:52:37	18.9	68
140158	2025-10-11T12:02:37	22.6	58.5
140159	2025-10-11T12:12:37	24.8	51.5
140160	2025-10-11T12:22:37	26.3	46
140161	2025-10-11T12:32:37	27.5	44.5
140162	2025-10-11T12:42:37	28.6	40.5
140163	2025-10-11T12:52:37	29.8	39
140164	2025-10-11T13:02:37	30.1	38.5
140165	2025-10-11T13:12:37	31	38
140166	2025-10-11T13:22:37	31.4	37.5
140167	2025-10-11T13:32:37	30.7	39.5
140168	2025-10-11T13:42:37	32.3	35.5
140169	2025-10-11T13:52:37	33.9	34
140170	2025-10-11T14:02:37	34.9	32
140171	2025-10-11T14:12:37	34	33
140172	2025-10-11T14:22:37	33.6	33
140173	2025-10-11T14:32:37	34.4	32
140174	2025-10-11T14:42:37	32.6	35
140175	2025-10-11T14:52:37	27.3	42.5
140176	2025-10-11T15:02:37	26.2	46
140177	2025-10-11T15:12:37	28.7	42
140178	2025-10-11T15:22:37	31.1	37
140179	2025-10-11T15:32:37	30.5	38
140180	2025-10-11T15:42:37	25.6	47
140181	2025-10-11T15:52:37	26.3	47.5
140182	2025-10-11T16:02:37	26.6	46
140183	2025-10-11T16:12:37	23.8	52.5
140184	2025-10-11T16:22:37	22.8	55
140185	2025-10-11T16:32:37	21.4	59
140186	2025-10-11T16:42:37	20.6	62.5
140187	2025-10-11T16:52:37	19.7	63.5
140188	2025-10-11T17:02:37	19	66.5
140189	2025-10-11T17:12:37	18.6	68
140190	2025-10-11T17:22:37	18	69.5
140191	2025-10-11T17:32:37	17.4	71.5
140192	2025-10-11T17:42:37	17	73.5
140193	2025-10-11T17:52:37	16.8	74
140194	2025-10-11T18:02:37	16.4	76
140195	2025-10-11T18:12:37	16	76
140196	2025-10-11T18:22:37	15.9	77
140197	2025-10-11T18:32:36	15.4	78
140198	2025-10-11T18:42:36	15.5	79
140199	2025-10-11T18:52:36	15.5	78
140200	2025-10-11T19:02:36	15.7	78
140201	2025-10-11T19:12:36	15.7	79
140202	2025-10-11T19:22:36	15.7	79
140203	2025-10-11T19:32:36	15.5	79.5
140204	2025-10-11T19:42:36	15.5	79.5
140205	2025-10-11T19:52:36	15.6	80
140206	2025-10-11T20:02:36	15.3	80.5
140207	2025-10-11T20:12:36	15.4	80.5
140208	2025-10-11T20:22:36	15.4	80.5
140209	2025-10-11T20:32:36	15.4	81
140210	2025-10-11T20:42:36	15.3	80.5
140211	2025-10-11T20:52:36	15.3	80.5
140212	2025-10-11T21:02:36	15.2	81
140213	2025-10-11T21:12:36	15.2	82
140214	2025-10-11T21:22:36	15.1	82
140215	2025-10-11T21:32:36	14.8	82.5
140216	2025-10-11T21:42:36	14.7	82.5
140217	2025-10-11T21:52:36	14.8	83
140218	2025-10-11T22:02:36	14.6	82.5
140219	2025-10-11T22:12:36	14.6	83.5
140220	2025-10-11T22:22:36	14.5	83.5
140221	2025-10-11T22:32:36	14.5	84
140222	2025-10-11T22:42:36	14.4	84.5
140223	2025-10-11T22:52:36	14.4	85
140224	2025-10-11T23:02:36	14.2	85.5
140225	2025-10-11T23:12:36	14	86
140226	2025-10-11T23:22:36	14.1	86.5
140227	2025-10-11T23:32:36	14	87
140228	2025-10-11T23:42:36	13.9	86.5
140229	2025-10-11T23:52:36	13.9	87
140230	2025-10-12T00:02:36	13.8	87.5
140231	2025-10-12T00:12:36	13.7	88
140232	2025-10-12T00:22:36	13.6	88.5
140233	2025-10-12T00:32:36	13.5	88.5
140234	2025-10-12T00:42:36	13.4	89
140235	2025-10-12T00:52:36	13.4	89
140236	2025-10-12T01:02:36	13.4	89.5
140237	2025-10-12T01:12:36	13.5	90
140238	2025-10-12T01:22:36	13.4	90.5
140239	2025-10-12T01:32:36	13.4	90.5
140240	2025-10-12T01:42:36	13.4	90.5
140241	2025-10-12T01:52:36	13.1	91.5
140242	2025-10-12T02:02:36	12.8	92
140243	2025-10-12T02:12:36	12.7	93
140244	2025-10-12T02:22:36	12.5	93.5
140245	2025-10-12T02:32:36	12.3	94.5
140246	2025-10-12T02:42:36	12.1	94.5
140247	2025-10-12T02:52:36	11.9	94.5
140248	2025-10-12T03:02:36	11.6	95
140249	2025-10-12T03:12:36	11.7	95
140250	2025-10-12T03:22:53	11.6	94.5
140251	2025-10-12T03:32:36	11.7	94.5
140252	2025-10-12T03:42:36	11.6	94.5
140253	2025-10-12T03:52:36	11.6	94.5
140254	2025-10-12T04:02:36	11.6	94
140255	2025-10-12T04:12:36	11.5	94
140256	2025-10-12T04:22:36	11.5	94
140257	2025-10-12T04:32:36	11.3	94
140258	2025-10-12T04:42:36	11.3	94.5
140259	2025-10-12T04:52:36	11.1	94.5
140260	2025-10-12T05:02:36	11	95.5
140261	2025-10-12T05:12:36	10.9	95
140262	2025-10-12T05:22:36	10.6	95.5
140263	2025-10-12T05:32:36	10.2	96.5
140264	2025-10-12T05:42:36	10.1	97
140265	2025-10-12T05:52:36	10.4	97
140266	2025-10-12T06:02:36	10.8	96
140267	2025-10-12T06:12:36	10.9	95.5
140268	2025-10-12T06:22:36	11	95.5
140269	2025-10-12T06:32:36	11.1	95
140270	2025-10-12T06:42:36	11.3	94.5
140271	2025-10-12T06:52:36	11.5	94.5
140272	2025-10-12T07:02:36	11.6	95
140273	2025-10-12T07:12:36	11.9	95
140274	2025-10-12T07:22:36	12.1	94.5
140275	2025-10-12T07:32:36	12.5	94.5
140276	2025-10-12T07:42:36	12.8	93.5
140277	2025-10-12T07:52:36	13	92.5
140278	2025-10-12T08:02:36	13.3	92
140279	2025-10-12T08:12:35	13.5	92
140280	2025-10-12T08:22:35	14	90
140281	2025-10-12T08:32:35	14.2	89
140282	2025-10-12T08:42:35	14.5	88.5
140283	2025-10-12T08:52:35	14.9	87.5
140284	2025-10-12T09:02:35	15.2	86
140285	2025-10-12T09:12:35	15.3	87
140286	2025-10-12T09:22:35	15.7	85
140287	2025-10-12T09:32:35	16.1	83.5
140288	2025-10-12T09:42:35	16.2	82.5
140289	2025-10-12T09:52:35	16.3	82
140290	2025-10-12T10:02:35	16.6	81.5
140291	2025-10-12T10:12:35	17.1	80.5
140292	2025-10-12T10:22:35	17.7	77.5
140293	2025-10-12T10:32:35	18.1	76.5
140294	2025-10-12T10:42:35	17.7	75.5
140295	2025-10-12T10:52:35	17.6	76.5
140296	2025-10-12T11:02:35	17.8	75
140297	2025-10-12T11:12:35	18	74
140298	2025-10-12T11:22:35	18	72.5
140299	2025-10-12T11:32:35	17.9	72.5
140300	2025-10-12T11:42:35	18.2	71.5
140301	2025-10-12T11:52:35	18.5	69.5
140302	2025-10-12T12:02:35	18.5	68
140303	2025-10-12T12:12:35	18.9	66
140304	2025-10-12T12:22:35	18.8	64
140305	2025-10-12T12:32:35	19.1	62
140306	2025-10-12T12:42:35	19.4	64
140307	2025-10-12T12:52:35	19.4	64.5
140308	2025-10-12T13:02:35	21.5	59.5
140309	2025-10-12T13:12:35	21	59
140310	2025-10-12T13:22:35	23.3	52
140311	2025-10-12T13:32:35	20.6	57.5
140312	2025-10-12T13:42:35	20.2	60.5
140313	2025-10-12T13:52:35	20.8	60.5
140314	2025-10-12T14:02:35	24.8	52.5
140315	2025-10-12T14:12:35	23	52.5
140316	2025-10-12T14:22:35	20.7	60
140317	2025-10-12T14:32:35	19.7	62
140318	2025-10-12T14:42:35	19.4	64
140319	2025-10-12T14:52:35	18.6	64.5
140320	2025-10-12T15:02:35	18.4	65
140321	2025-10-12T15:12:35	18.2	65.5
140322	2025-10-12T15:22:35	17.9	65.5
140323	2025-10-12T15:32:35	17.4	67
140324	2025-10-12T15:42:35	17.2	67.5
140325	2025-10-12T15:52:35	16.8	68
140326	2025-10-12T16:02:35	16.6	68.5
140327	2025-10-12T16:12:35	16.5	68.5
140328	2025-10-12T16:22:35	16.3	69.5
140329	2025-10-12T16:32:35	16.2	70.5
140330	2025-10-12T16:42:35	16	70.5
140331	2025-10-12T16:52:35	15.8	72
140332	2025-10-12T17:02:35	15.6	73.5
140333	2025-10-12T17:12:35	15.4	75
140334	2025-10-12T17:22:35	15.2	75.5
140335	2025-10-12T17:32:35	15.2	76
140336	2025-10-12T17:42:35	15.2	76.5
140337	2025-10-12T17:52:35	15.1	77.5
140338	2025-10-12T18:02:35	15.1	78
140339	2025-10-12T18:12:35	14.9	79
140340	2025-10-12T18:22:35	14.9	76.5
140341	2025-10-12T18:32:35	14.7	76
140342	2025-10-12T18:42:35	14.7	76
140343	2025-10-12T18:52:35	14.7	77
140344	2025-10-12T19:02:35	14.6	77.5
140345	2025-10-12T19:12:35	14.5	78
140346	2025-10-12T19:22:35	14.4	78
140347	2025-10-12T19:32:35	14.4	77.5
140348	2025-10-12T19:42:35	14.4	77
140349	2025-10-12T19:52:35	14.4	77
140350	2025-10-12T20:02:34	14.2	77
140351	2025-10-12T20:12:34	14.1	77.5
140352	2025-10-12T20:22:34	14	78.5
140353	2025-10-12T20:32:34	13.9	79
140354	2025-10-12T20:42:34	13.7	79.5
140355	2025-10-12T20:52:34	13.7	80
140356	2025-10-12T21:02:34	13.5	80
140357	2025-10-12T21:12:34	13.6	81
140358	2025-10-12T21:22:34	13.5	81.5
140359	2025-10-12T21:32:34	13.3	82
140360	2025-10-12T21:42:34	13.3	82.5
140361	2025-10-12T21:52:34	13.4	83.5
140362	2025-10-12T22:02:34	13.3	83.5
140363	2025-10-12T22:12:34	13.3	83.5
140364	2025-10-12T22:22:34	13.1	83.5
140365	2025-10-12T22:32:34	12.9	83
140366	2025-10-12T22:42:34	13	83
140367	2025-10-12T22:52:34	13	83.5
140368	2025-10-12T23:02:34	12.9	83
140369	2025-10-12T23:12:34	12.9	83.5
140370	2025-10-12T23:22:34	13	83.5
140371	2025-10-12T23:32:34	12.9	83.5
140372	2025-10-12T23:42:34	12.9	84
140373	2025-10-12T23:52:34	12.7	84
140374	2025-10-13T00:02:34	12.7	85
140375	2025-10-13T00:12:34	12.4	85.5
140376	2025-10-13T00:22:34	12.2	84.5
140377	2025-10-13T00:32:34	11.9	85.5
140378	2025-10-13T00:42:34	11.6	87.5
140379	2025-10-13T00:52:34	11.3	89.5
140380	2025-10-13T01:02:34	10.9	91
140381	2025-10-13T01:12:34	10.6	91.5
140382	2025-10-13T01:22:34	10.5	92
140383	2025-10-13T01:32:34	10.3	93
140384	2025-10-13T01:42:34	10	93.5
140385	2025-10-13T01:52:34	10	94
140386	2025-10-13T02:02:34	9.9	94.5
140387	2025-10-13T02:12:34	9.9	95
140388	2025-10-13T02:22:34	9.9	94
140389	2025-10-13T02:32:34	10.2	93
140390	2025-10-13T02:42:34	10.2	92
140391	2025-10-13T02:52:34	10.2	92.5
140392	2025-10-13T03:02:34	10.1	93
140393	2025-10-13T03:12:34	9.9	93.5
140394	2025-10-13T03:22:34	9.9	93.5
140395	2025-10-13T03:32:34	10	93
140396	2025-10-13T03:42:34	9.6	94
140397	2025-10-13T03:52:34	9.4	94
140398	2025-10-13T04:02:34	9.3	94.5
140399	2025-10-13T04:12:34	9.1	95
140400	2025-10-13T04:22:34	9	95
140401	2025-10-13T04:32:34	9.1	95
140402	2025-10-13T04:42:34	8.8	95.5
140403	2025-10-13T04:52:34	8.8	96
140404	2025-10-13T05:02:34	8.6	96.5
140405	2025-10-13T05:12:34	8.5	97
140406	2025-10-13T05:22:34	8.5	97
140407	2025-10-13T05:32:34	8.6	97
140408	2025-10-13T05:42:34	8.7	97
140409	2025-10-13T05:52:34	8.7	97
140410	2025-10-13T06:02:34	8.7	97
140411	2025-10-13T06:12:34	8.7	96
140412	2025-10-13T06:22:34	8.9	96
140413	2025-10-13T06:32:34	8.9	95
140414	2025-10-13T06:42:34	9.2	95.5
140415	2025-10-13T06:52:34	9.3	95
140416	2025-10-13T07:02:34	9.5	94
140417	2025-10-13T07:12:34	9.8	93.5
140418	2025-10-13T07:22:34	10	92.5
140419	2025-10-13T07:32:34	10.2	92
140420	2025-10-13T07:42:34	10.7	91
140421	2025-10-13T07:52:34	10.8	90.5
140422	2025-10-13T08:02:34	11.1	89.5
140423	2025-10-13T08:12:34	11.1	89
140424	2025-10-13T08:22:34	11.3	89
140425	2025-10-13T08:32:34	11.6	88
140426	2025-10-13T08:42:34	11.8	86.5
140427	2025-10-13T08:52:34	12.1	87.5
140428	2025-10-13T09:02:34	12.5	85
140429	2025-10-13T09:12:34	13.4	82.5
140430	2025-10-13T09:22:34	14	80
140431	2025-10-13T09:32:34	14.3	78.5
140432	2025-10-13T10:12:34	15.4	75
140433	2025-10-13T10:22:34	15.6	74.5
140434	2025-10-13T10:32:34	16	73
140435	2025-10-13T10:42:33	15.9	73.5
140436	2025-10-13T10:52:33	16.1	72.5
140437	2025-10-13T11:02:33	16.6	71.5
140438	2025-10-13T11:12:33	16.8	69.5
140439	2025-10-13T11:22:33	17	69.5
140440	2025-10-13T11:32:33	16.9	69
140441	2025-10-13T11:42:33	16.6	70.5
140442	2025-10-13T11:52:33	16.7	70.5
140443	2025-10-13T12:02:33	16.8	71.5
140444	2025-10-13T12:12:33	16.8	71.5
140445	2025-10-13T12:22:33	16.5	71
140446	2025-10-13T12:32:33	16.4	72
140447	2025-10-13T12:42:33	16.1	73
140448	2025-10-13T12:52:33	16	73
140449	2025-10-13T13:02:33	16.1	74
140450	2025-10-13T13:12:33	16	73.5
140451	2025-10-13T13:22:33	16	73.5
140452	2025-10-13T13:32:33	16	73.5
140453	2025-10-13T13:42:33	17.9	69.5
140454	2025-10-13T13:52:33	21.4	59
140455	2025-10-13T14:02:33	19.7	63.5
140456	2025-10-13T14:12:33	18.6	66
140457	2025-10-13T14:22:33	17.6	68.5
140458	2025-10-13T14:32:33	17.1	71
140459	2025-10-13T14:42:33	16.9	71
140460	2025-10-13T14:52:33	16.9	71.5
140461	2025-10-13T15:02:33	16.9	71.5
140462	2025-10-13T15:12:33	16.5	72
140463	2025-10-13T15:22:33	16.3	73.5
140464	2025-10-13T15:32:33	16.2	75
140465	2025-10-13T15:42:33	16	75.5
140466	2025-10-13T15:52:33	15.7	76
140467	2025-10-13T16:02:33	15.6	77
140468	2025-10-13T16:12:33	15.3	78.5
140469	2025-10-13T16:22:33	15.2	79
140470	2025-10-13T16:32:33	15	80.5
140471	2025-10-13T16:42:33	15	81.5
140472	2025-10-13T16:52:33	14.7	82.5
140473	2025-10-13T17:02:33	14.7	83
140474	2025-10-13T17:12:33	14.6	83
140475	2025-10-13T18:51:15	14.4	82.5
140476	2025-10-13T18:51:16	14.5	84
140477	2025-10-13T18:51:16	14.5	83.5
140478	2025-10-13T18:51:20	14.4	84.5
140479	2025-10-13T18:51:21	14.3	85
140480	2025-10-13T18:51:21	14.3	85.5
140481	2025-10-13T18:51:22	14.3	86
140482	2025-10-13T18:51:22	14.2	86
140483	2025-10-13T18:51:22	14	86.5
140484	2025-10-13T18:52:33	14	87.5
140485	2025-10-13T19:02:33	14	87.5
140486	2025-10-13T19:12:33	13.8	88.5
140487	2025-10-13T19:22:33	13.8	88.5
140488	2025-10-13T19:32:33	13.8	88.5
140489	2025-10-13T19:42:33	13.8	88.5
140490	2025-10-13T19:52:33	13.7	88.5
140491	2025-10-13T20:02:33	13.7	89
140492	2025-10-13T20:12:33	13.6	89
140493	2025-10-13T20:22:33	13.6	89
140494	2025-10-13T20:32:33	13.6	89.5
140495	2025-10-13T20:42:33	13.5	89.5
140496	2025-10-13T20:52:33	13.4	90
140497	2025-10-13T21:02:33	13.4	90
140498	2025-10-13T21:12:33	13.4	90.5
140499	2025-10-13T21:22:33	13.3	90.5
140500	2025-10-13T21:32:33	13.2	91
140501	2025-10-13T21:42:33	13.2	91
140502	2025-10-13T21:52:33	13.2	91
140503	2025-10-13T22:02:33	12.9	91.5
140504	2025-10-13T22:12:33	12.9	92
140505	2025-10-13T22:22:33	12.9	92.5
140506	2025-10-13T22:32:33	12.8	92.5
140507	2025-10-13T22:42:33	12.4	93
140508	2025-10-13T22:52:33	11.9	95
140509	2025-10-13T23:02:33	12	95
140510	2025-10-13T23:12:32	12.1	94.5
140511	2025-10-13T23:22:32	12	94.5
140512	2025-10-13T23:32:32	12.1	94.5
140513	2025-10-13T23:42:32	12.2	94
140514	2025-10-13T23:52:32	12.3	94
140515	2025-10-14T00:02:32	12.3	94
140516	2025-10-14T00:12:32	12.4	93.5
140517	2025-10-14T00:22:32	12.3	93.5
140518	2025-10-14T00:32:32	12.4	93
140519	2025-10-14T00:42:32	12.4	93
140520	2025-10-14T00:52:32	12.5	93
140521	2025-10-14T01:02:32	12.4	93
140522	2025-10-14T01:12:32	12.4	93
140523	2025-10-14T01:22:32	12.4	93
140524	2025-10-14T01:32:32	12.4	93
140525	2025-10-14T01:42:32	12.4	93
140526	2025-10-14T01:52:32	12.3	93.5
140527	2025-10-14T02:02:32	12.3	93.5
140528	2025-10-14T02:12:32	12.2	94
140529	2025-10-14T02:22:32	12.2	93.5
140530	2025-10-14T02:32:32	12.2	94
140531	2025-10-14T02:42:32	12.2	94.5
140532	2025-10-14T02:52:32	12.2	94.5
140533	2025-10-14T03:02:32	12.2	94
140534	2025-10-14T03:12:32	12.1	94
140535	2025-10-14T03:22:32	12.2	93.5
140536	2025-10-14T03:32:32	12.1	94
140537	2025-10-14T03:42:32	12.2	93.5
140538	2025-10-14T03:52:32	12.1	94
140539	2025-10-14T04:02:32	12.1	94.5
140540	2025-10-14T04:12:32	12	94.5
140541	2025-10-14T04:22:32	11.8	95
140542	2025-10-14T04:32:32	11.8	95.5
140543	2025-10-14T04:42:32	11.7	95.5
140544	2025-10-14T04:52:32	11.7	96
140545	2025-10-14T05:02:32	11.6	96
140546	2025-10-14T05:12:32	11.6	96
140547	2025-10-14T05:22:32	11.4	96.5
140548	2025-10-14T05:32:32	11.4	97
140549	2025-10-14T05:42:32	11.3	97
140550	2025-10-14T05:52:32	10.9	98
140551	2025-10-14T06:02:32	10.5	99
140552	2025-10-14T06:12:32	10.2	99.5
140553	2025-10-14T06:22:32	10.1	99.5
140554	2025-10-14T06:32:32	10.1	100
140555	2025-10-14T06:42:32	10.1	100
140556	2025-10-14T06:52:32	10.1	100
140557	2025-10-14T07:02:32	10.2	100
140558	2025-10-14T07:12:32	10.5	100
140559	2025-10-14T07:22:32	10.7	100
140560	2025-10-14T07:32:32	10.7	100
140561	2025-10-14T07:42:32	10.9	99.5
140562	2025-10-14T07:52:32	11.1	99
140563	2025-10-14T08:02:32	11.1	99
140564	2025-10-14T08:12:32	11.3	99
140565	2025-10-14T08:22:32	11.6	98.5
140566	2025-10-14T08:32:32	11.7	97.5
140567	2025-10-14T08:42:32	12	97
140568	2025-10-14T08:52:32	12.4	96
140569	2025-10-14T09:02:32	12.7	94.5
140570	2025-10-14T09:12:32	12.6	94
140571	2025-10-14T09:22:32	12.8	94
140572	2025-10-14T09:32:32	13	94
140573	2025-10-14T09:42:32	13.3	92
140574	2025-10-14T09:52:32	13.3	91.5
140575	2025-10-14T10:02:32	13.4	91
140576	2025-10-14T10:12:32	13.7	90.5
140577	2025-10-14T10:22:32	13.8	88.5
140578	2025-10-14T10:32:32	14	88
140579	2025-10-14T10:42:32	14.2	86.5
140580	2025-10-14T10:52:32	14.4	86.5
140581	2025-10-14T11:02:32	14.7	85.5
140582	2025-10-14T11:12:32	14.9	84
140583	2025-10-14T11:22:32	15.4	82.5
140584	2025-10-14T11:32:32	15.7	79.5
140585	2025-10-14T11:42:32	16.5	77.5
140586	2025-10-14T11:52:32	18.1	69.5
140587	2025-10-14T12:02:32	23	57
140588	2025-10-14T12:12:32	23.2	51.5
140589	2025-10-14T12:22:32	21.7	58.5
140590	2025-10-14T12:32:32	22.2	56.5
140591	2025-10-14T12:42:32	20.4	58.5
140592	2025-10-14T12:52:32	22.3	54
140593	2025-10-14T13:02:31	23.6	48.5
140594	2025-10-14T13:12:31	22.2	51.5
140595	2025-10-14T13:22:31	22.4	52
140596	2025-10-14T13:32:31	24.8	47
140597	2025-10-14T13:42:31	28.5	39.5
140598	2025-10-14T13:52:31	29.8	36.5
140599	2025-10-14T14:02:31	27.7	39
140600	2025-10-14T14:12:31	30.7	34.5
140601	2025-10-14T14:22:31	27.4	38.5
140602	2025-10-14T14:32:31	26.5	42
140603	2025-10-14T14:42:31	30.3	35.5
140604	2025-10-14T14:52:31	31.5	35.5
140605	2025-10-14T15:12:31	23.3	48
140606	2025-10-14T15:22:31	22.5	52
140607	2025-10-14T15:32:31	22.3	52
140608	2025-10-14T15:42:31	21.6	54.5
140609	2025-10-14T15:52:31	20.5	56.5
140610	2025-10-14T16:02:31	19.9	59
140611	2025-10-14T16:12:31	19.1	62
140612	2025-10-14T16:22:31	18.5	64.5
140613	2025-10-14T16:32:31	17.9	67.5
140614	2025-10-14T16:42:31	17.1	69.5
140615	2025-10-14T16:52:31	16.7	72
140616	2025-10-14T17:02:31	16.3	73.5
140617	2025-10-14T17:12:31	15.8	74.5
140618	2025-10-14T17:22:31	15.6	76
140619	2025-10-14T17:32:31	15.1	76.5
140620	2025-10-14T17:42:31	14.9	77.5
140621	2025-10-14T17:52:31	14.6	78.5
140622	2025-10-14T18:02:31	14.5	78
140623	2025-10-14T18:12:31	14.1	79.5
140624	2025-10-14T18:22:31	13.9	80
140625	2025-10-14T18:32:31	14	80.5
140626	2025-10-14T18:42:31	14	80
140627	2025-10-14T18:52:31	13.9	80.5
140628	2025-10-14T19:02:31	13.8	81
140629	2025-10-14T19:12:31	14.1	80
140630	2025-10-14T19:22:31	14.2	80.5
140631	2025-10-14T19:32:31	14.2	80.5
140632	2025-10-14T19:42:31	14.1	81
140633	2025-10-14T19:52:31	13.9	81.5
140634	2025-10-14T20:02:31	13.9	81.5
140635	2025-10-14T20:12:31	13.9	81.5
140636	2025-10-14T20:22:31	13.9	82
140637	2025-10-14T20:32:31	13.8	82
140638	2025-10-14T20:42:31	13.9	82.5
140639	2025-10-14T20:52:31	13.9	82.5
140640	2025-10-14T21:02:31	13.8	82.5
140641	2025-10-14T21:12:31	13.8	81.5
140642	2025-10-14T21:22:31	13.7	81.5
140643	2025-10-14T21:32:31	13.7	81
140644	2025-10-14T21:42:31	13.7	81
140645	2025-10-14T21:52:31	13.5	81
140646	2025-10-14T22:02:31	13.6	82
140647	2025-10-14T22:12:31	13.5	82.5
140648	2025-10-14T22:22:31	13.4	82.5
140649	2025-10-14T22:32:31	13.3	82.5
140650	2025-10-14T22:42:31	13.1	82
140651	2025-10-14T22:52:31	13	82.5
140652	2025-10-14T23:02:31	13	82.5
140653	2025-10-14T23:12:31	12.8	82.5
140654	2025-10-14T23:22:31	12.5	83.5
140655	2025-10-14T23:32:31	12.4	84
140656	2025-10-14T23:42:31	12.3	84
140657	2025-10-14T23:52:31	12.5	84.5
140658	2025-10-15T00:02:31	12.6	85
140659	2025-10-15T00:12:31	12.5	84.5
140660	2025-10-15T00:22:31	12.6	84
140661	2025-10-15T00:32:31	12.6	84
140662	2025-10-15T00:42:31	12.6	84.5
140663	2025-10-15T00:52:31	12.6	84
140664	2025-10-15T01:02:31	12.5	84
140665	2025-10-15T01:12:30	12.4	84
140666	2025-10-15T01:22:30	12.4	84
140667	2025-10-15T01:32:30	12.3	84
140668	2025-10-15T01:42:30	12.3	85
140669	2025-10-15T01:52:30	12.4	86
140670	2025-10-15T02:02:30	12.3	86.5
140671	2025-10-15T02:12:30	12.3	86
140672	2025-10-15T02:22:30	12.2	85
140673	2025-10-15T02:32:30	12.2	86
140674	2025-10-15T02:42:30	12.2	86.5
140675	2025-10-15T02:52:30	12.1	86.5
140676	2025-10-15T03:02:30	12.1	87.5
140677	2025-10-15T03:12:30	11.9	86.5
140678	2025-10-15T03:22:30	11.9	87
140679	2025-10-15T03:32:30	11.8	87.5
140680	2025-10-15T03:42:30	11.8	88
140681	2025-10-15T03:52:30	11.8	88.5
140682	2025-10-15T04:02:30	11.8	88
140683	2025-10-15T04:12:30	11.8	88
140684	2025-10-15T04:22:30	11.7	89
140685	2025-10-15T04:32:30	11.8	88.5
140686	2025-10-15T04:42:30	11.7	89
140687	2025-10-15T04:52:30	11.7	88
140688	2025-10-15T05:02:30	11.7	88.5
140689	2025-10-15T05:12:30	11.6	89
140690	2025-10-15T05:22:30	11.6	89
140691	2025-10-15T05:32:30	11.4	89.5
140692	2025-10-15T05:42:30	11.5	90
140693	2025-10-15T05:52:30	11.5	90
140694	2025-10-15T06:02:30	11.7	90
140695	2025-10-15T06:12:30	11.7	89
140696	2025-10-15T06:22:30	11.7	88.5
140697	2025-10-15T06:32:30	11.8	88.5
140698	2025-10-15T06:42:30	12.1	88
140699	2025-10-15T06:52:30	12.1	88
140700	2025-10-15T07:02:30	12.6	87
140701	2025-10-15T07:12:30	12.6	86
140702	2025-10-15T07:22:30	12.5	86.5
140703	2025-10-15T07:32:30	12.9	86.5
140704	2025-10-15T07:42:30	13.1	85.5
140705	2025-10-15T07:52:30	13.4	84.5
140706	2025-10-15T08:02:30	13.6	83.5
140707	2025-10-15T08:12:30	13.7	82.5
140708	2025-10-15T08:22:30	13.9	82
140709	2025-10-15T08:32:30	14.1	81.5
140710	2025-10-15T08:42:30	14.5	81
140711	2025-10-15T08:52:30	14.8	79
140712	2025-10-15T09:02:30	15.2	77.5
140713	2025-10-15T09:12:30	15.6	77
140714	2025-10-15T09:22:30	15.7	76.5
140715	2025-10-15T09:32:50	16.1	75.5
140716	2025-10-15T09:42:30	16.8	74
140717	2025-10-15T09:52:30	17	72.5
140718	2025-10-15T10:02:30	16.7	73.5
140719	2025-10-15T10:12:30	16.3	75.5
140720	2025-10-15T10:22:30	16.8	74
140721	2025-10-15T10:32:30	17	72
140722	2025-10-15T10:42:30	16.7	73
140723	2025-10-15T10:52:30	16.8	74
140724	2025-10-15T11:02:30	16.7	73
140725	2025-10-15T11:12:30	17	71.5
140726	2025-10-15T11:22:30	17.8	69.5
140727	2025-10-15T11:32:30	19	63.5
140728	2025-10-15T11:42:30	18.7	66.5
140729	2025-10-15T11:52:30	18.4	67.5
140730	2025-10-15T12:02:30	18.3	67
140731	2025-10-15T12:12:30	18.6	67
140732	2025-10-15T12:22:30	19	62.5
140733	2025-10-15T12:32:30	19.3	61.5
140734	2025-10-15T12:42:30	19.8	61
140735	2025-10-15T12:52:30	19.5	61
140736	2025-10-15T13:02:30	19.3	60.5
140737	2025-10-15T13:12:30	19.3	61.5
140738	2025-10-15T13:22:30	18.9	60.5
140739	2025-10-15T13:32:30	19.3	61.5
140740	2025-10-15T13:42:30	21.4	57
140741	2025-10-15T13:52:30	24.2	49.5
140742	2025-10-15T14:02:29	27.2	42.5
140743	2025-10-15T14:12:29	23.4	48
140744	2025-10-15T14:22:29	22.7	48.5
140745	2025-10-15T14:32:29	21	53
140746	2025-10-15T14:42:29	20.5	56
140747	2025-10-15T14:52:29	23.1	50.5
140748	2025-10-15T15:02:29	24.3	47.5
140749	2025-10-15T15:12:29	27.8	43.5
140750	2025-10-15T15:22:29	24.5	47.5
140751	2025-10-15T15:32:29	20.4	57.5
140752	2025-10-15T15:42:29	19	62
140753	2025-10-15T15:52:29	18.3	65
140754	2025-10-15T16:02:29	19.2	63.5
140755	2025-10-15T16:12:29	18.8	65
140756	2025-10-15T16:22:29	18	67
140757	2025-10-15T16:32:29	17.7	69
140758	2025-10-15T16:42:48	17	71.5
140759	2025-10-15T16:52:29	16.5	74
140760	2025-10-15T17:02:29	16.2	75
140761	2025-10-15T17:12:29	16	77.5
140762	2025-10-15T17:22:29	15.8	78
140763	2025-10-15T17:32:29	15.2	79.5
140764	2025-10-15T17:42:29	15.1	80
140765	2025-10-15T17:52:29	14.6	81.5
140766	2025-10-15T18:02:29	14.5	82
140767	2025-10-15T18:12:29	14	83
140768	2025-10-15T18:22:29	13.7	84
140769	2025-10-15T18:32:29	14	83.5
140770	2025-10-15T18:42:29	14.1	83
140771	2025-10-15T18:52:29	14.2	83
140772	2025-10-15T19:02:29	13.6	84.5
140773	2025-10-15T19:12:29	13	85.5
140774	2025-10-15T19:22:29	12.7	86.5
140775	2025-10-15T19:32:29	12.4	87
140776	2025-10-15T19:42:29	12.1	87.5
140777	2025-10-15T19:52:29	11.9	87.5
140778	2025-10-15T20:02:29	11.6	88
140779	2025-10-15T20:12:29	11.3	89
140780	2025-10-15T20:22:29	11.3	89
140781	2025-10-15T20:32:29	11.1	89
140782	2025-10-15T20:42:29	11.1	89.5
140783	2025-10-15T20:52:29	11	89.5
140784	2025-10-15T21:02:29	10.8	89.5
140785	2025-10-15T21:12:29	10.6	90
140786	2025-10-15T21:22:29	10.3	90.5
140787	2025-10-15T21:32:29	10.2	91
140788	2025-10-15T21:42:29	9.9	91
140789	2025-10-15T21:52:29	9.8	91
140790	2025-10-15T22:02:29	9.7	91.5
140791	2025-10-15T22:12:29	9.6	92.5
140792	2025-10-15T22:22:29	10	92
140793	2025-10-15T22:32:29	10.1	91.5
140794	2025-10-15T22:42:29	9.7	92.5
140795	2025-10-15T22:52:29	9.5	93.5
140796	2025-10-15T23:02:29	9.2	94
140797	2025-10-15T23:12:29	9.1	94.5
140798	2025-10-15T23:22:29	9	94.5
140799	2025-10-15T23:32:29	8.8	94.5
140800	2025-10-15T23:42:29	8.8	95
140801	2025-10-15T23:52:29	8.6	95.5
140802	2025-10-16T00:02:29	8.5	95
140803	2025-10-16T00:12:29	8.4	95
140804	2025-10-16T00:22:29	8.2	95
140805	2025-10-16T00:32:29	8.2	95.5
140806	2025-10-16T00:42:29	8.2	95.5
140807	2025-10-16T00:52:29	8.2	96
140808	2025-10-16T01:02:29	8.1	96
140809	2025-10-16T01:12:29	8.1	96.5
140810	2025-10-16T01:22:29	8	97
140811	2025-10-16T01:32:29	7.9	97.5
140812	2025-10-16T01:42:29	8	97.5
140813	2025-10-16T01:52:29	7.9	97
140814	2025-10-16T02:02:29	7.7	97
140815	2025-10-16T02:12:29	7.4	97.5
140816	2025-10-16T02:22:29	7.4	98
140817	2025-10-16T02:32:29	7.5	98
140818	2025-10-16T02:42:29	7.6	98
140819	2025-10-16T02:52:29	7.5	98
140820	2025-10-16T03:02:29	7.5	98.5
140821	2025-10-16T03:12:29	7.4	98
140822	2025-10-16T03:22:29	7.1	98
140823	2025-10-16T03:32:29	6.9	98.5
140824	2025-10-16T03:42:29	6.9	99
140825	2025-10-16T03:52:29	7	99.5
140826	2025-10-16T04:02:29	6.8	99.5
140827	2025-10-16T04:12:29	6.6	100
140828	2025-10-16T04:22:29	6.5	100
140829	2025-10-16T04:32:29	6.4	100
140830	2025-10-16T04:42:29	6.5	100
140831	2025-10-16T04:52:28	6.4	100
140832	2025-10-16T05:02:28	6.4	100
140833	2025-10-16T05:12:28	6.3	100
140834	2025-10-16T05:22:28	6.3	100
140835	2025-10-16T05:32:28	6.4	100
140836	2025-10-16T05:42:28	6.8	100
140837	2025-10-16T05:52:28	7	100
140838	2025-10-16T06:02:28	7	100
140839	2025-10-16T06:12:28	7.1	100
140840	2025-10-16T06:22:28	7.3	100
140841	2025-10-16T06:32:28	7.5	100
140842	2025-10-16T06:42:28	7.8	99.5
140843	2025-10-16T06:52:28	8	98.5
140844	2025-10-16T07:02:28	8.2	97.5
140845	2025-10-16T07:12:28	8.3	97.5
140846	2025-10-16T07:22:28	8.4	98.5
140847	2025-10-16T07:32:28	8.2	98.5
140848	2025-10-16T07:42:28	8.3	99
140849	2025-10-16T07:52:28	8.7	99
140850	2025-10-16T08:02:28	9.2	98.5
140851	2025-10-16T08:12:28	9.6	97.5
140852	2025-10-16T08:22:28	10	96.5
140853	2025-10-16T08:32:28	10.2	95.5
140854	2025-10-16T08:42:28	10.2	95.5
140855	2025-10-16T08:52:28	10.3	96
140856	2025-10-16T09:02:28	10.4	95.5
140857	2025-10-16T09:12:28	10.5	94
140858	2025-10-16T09:22:28	10.9	90
140859	2025-10-16T09:32:28	11.4	88
140860	2025-10-16T09:42:28	11.8	85
140861	2025-10-16T09:52:28	12	84
140862	2025-10-16T10:02:28	11.9	83.5
140863	2025-10-16T10:12:28	12.5	83
140864	2025-10-16T10:22:28	13.1	80.5
140865	2025-10-16T10:32:28	13.6	78.5
140866	2025-10-16T10:42:28	13.8	77
140867	2025-10-16T10:52:28	14.3	76.5
140868	2025-10-16T11:02:28	14.8	74
140869	2025-10-16T11:12:28	15.2	72.5
140870	2025-10-16T11:22:28	15.6	71.5
140871	2025-10-16T11:32:28	15.8	69.5
140872	2025-10-16T11:42:28	15.9	70
140873	2025-10-16T11:52:28	16.1	69
140874	2025-10-16T12:02:28	16.1	68
140875	2025-10-16T12:12:28	16.5	66
140876	2025-10-16T12:22:28	16.9	66
140877	2025-10-16T12:32:28	16.8	66
140878	2025-10-16T12:42:28	17	67
140879	2025-10-16T12:52:28	16.9	66.5
140880	2025-10-16T13:02:28	17.4	66
140881	2025-10-16T13:12:28	17.6	65
140882	2025-10-16T13:22:28	19.1	61
140883	2025-10-16T13:32:28	19.7	58
140884	2025-10-16T13:42:28	18.4	62.5
140885	2025-10-16T13:52:28	20.5	58
140886	2025-10-16T14:02:28	18.9	61.5
140887	2025-10-16T14:12:28	18.6	61.5
140888	2025-10-16T14:22:28	17.7	62
140889	2025-10-16T14:32:28	17.3	64
140890	2025-10-16T14:42:28	17.1	66
140891	2025-10-16T14:52:28	16.9	65
140892	2025-10-16T15:02:28	16.7	65.5
140893	2025-10-16T15:12:28	16.4	66
140894	2025-10-16T15:22:28	16.8	65.5
140895	2025-10-16T15:32:28	16.2	67
140896	2025-10-16T15:42:28	15.6	68.5
140897	2025-10-16T15:52:28	15.3	70.5
140898	2025-10-16T16:02:28	15	72.5
140899	2025-10-16T16:12:28	14.8	72.5
140900	2025-10-16T16:22:28	14.6	74
140901	2025-10-16T16:32:28	14.4	74.5
140902	2025-10-16T16:42:28	14.3	76
140903	2025-10-16T16:52:28	14	76
140904	2025-10-16T17:02:28	14	76
140905	2025-10-16T17:12:28	13.8	77
140906	2025-10-16T17:22:28	13.7	78.5
140907	2025-10-16T17:32:28	13.7	78.5
140908	2025-10-16T17:42:28	13.6	79.5
140909	2025-10-16T17:52:28	13.4	80
140910	2025-10-16T18:02:28	13.4	80.5
140911	2025-10-16T18:12:28	13.2	81
140912	2025-10-16T18:22:28	13.1	81.5
140913	2025-10-16T18:32:28	13	82
140914	2025-10-16T18:42:28	13	82
140915	2025-10-16T18:52:27	12.9	82
140916	2025-10-16T19:02:27	12.8	82.5
140917	2025-10-16T19:12:28	12.6	84
140918	2025-10-16T19:22:27	12.2	85.5
140919	2025-10-16T19:32:27	12	86.5
140920	2025-10-16T19:42:27	11.8	88
140921	2025-10-16T19:52:27	11.9	87.5
140922	2025-10-16T20:02:27	12.1	87
140923	2025-10-16T20:12:27	12	87.5
140924	2025-10-16T20:22:27	12.1	87.5
140925	2025-10-16T20:32:27	12.1	87.5
140926	2025-10-16T20:42:27	12	88
140927	2025-10-16T20:52:27	12	88
140928	2025-10-16T21:02:27	12	88.5
140929	2025-10-16T21:12:27	11.8	89
140930	2025-10-16T21:22:27	11.9	89
140931	2025-10-16T21:32:27	11.8	89.5
140932	2025-10-16T21:42:27	11.8	89
140933	2025-10-16T21:52:27	11.7	89.5
140934	2025-10-16T22:02:27	11.6	89.5
140935	2025-10-16T22:12:27	11.5	90
140936	2025-10-16T22:22:27	11.4	90.5
140937	2025-10-16T22:32:27	11.5	90.5
140938	2025-10-16T22:42:27	11.5	90.5
140939	2025-10-16T22:52:27	11.5	90.5
140940	2025-10-16T23:02:27	11.5	90.5
140941	2025-10-16T23:12:27	11.4	91
140942	2025-10-16T23:22:27	11.5	91
140943	2025-10-16T23:32:27	11.5	90.5
140944	2025-10-16T23:42:27	11.4	90.5
140945	2025-10-16T23:52:27	11.3	90.5
140946	2025-10-17T00:02:27	11.4	91
140947	2025-10-17T00:12:27	11.3	91
140948	2025-10-17T00:22:27	11.3	91
140949	2025-10-17T00:32:27	11.3	92
140950	2025-10-17T00:42:27	11.3	92.5
140951	2025-10-17T00:52:27	11.2	92.5
140952	2025-10-17T01:02:27	11.1	93
140953	2025-10-17T01:12:27	11	93
140954	2025-10-17T01:22:27	11.1	93.5
140955	2025-10-17T01:32:27	11	93.5
140956	2025-10-17T01:42:27	10.9	93
140957	2025-10-17T01:52:27	11	93
140958	2025-10-17T02:02:27	10.9	93.5
140959	2025-10-17T02:12:27	11	93
140960	2025-10-17T02:22:27	10.9	93
140961	2025-10-17T02:32:27	10.7	93.5
140962	2025-10-17T02:42:27	10.8	94
140963	2025-10-17T02:52:27	10.7	94
140964	2025-10-17T03:02:27	10.7	94
140965	2025-10-17T03:12:27	10.7	94.5
140966	2025-10-17T03:22:27	10.7	94.5
140967	2025-10-17T03:32:27	10.6	94.5
140968	2025-10-17T03:42:27	10.6	95
140969	2025-10-17T03:52:27	10.6	95
140970	2025-10-17T04:02:27	10.6	95
140971	2025-10-17T04:12:27	10.6	94.5
140972	2025-10-17T04:22:27	10.6	94.5
140973	2025-10-17T04:32:27	10.5	94.5
140974	2025-10-17T04:42:27	10.3	95.5
140975	2025-10-17T04:52:27	10.3	96
140976	2025-10-17T05:02:27	10.5	95.5
140977	2025-10-17T05:12:27	10.6	95.5
140978	2025-10-17T05:22:27	10	96.5
140979	2025-10-17T05:32:27	9.9	97
140980	2025-10-17T05:42:27	9.9	97
140981	2025-10-17T05:52:27	9.9	97
140982	2025-10-17T06:02:27	9.9	97
140983	2025-10-17T06:12:27	10	96
140984	2025-10-17T06:22:27	10	96
140985	2025-10-17T06:32:27	10.2	95.5
140986	2025-10-17T06:42:27	10.4	95
140987	2025-10-17T06:52:27	10.6	94.5
140988	2025-10-17T07:02:27	10.8	94
140989	2025-10-17T07:12:27	10.9	93
140990	2025-10-17T07:22:27	11.2	92
140991	2025-10-17T07:32:27	11.3	91.5
140992	2025-10-17T07:42:27	11.7	91
140993	2025-10-17T07:52:27	11.8	90.5
140994	2025-10-17T08:02:27	12.1	90
140995	2025-10-17T08:12:27	12.2	89.5
140996	2025-10-17T08:22:27	12.6	89
140997	2025-10-17T08:32:27	12.7	87
140998	2025-10-17T08:42:27	13	86.5
140999	2025-10-17T08:52:27	13.2	85.5
141000	2025-10-17T09:02:27	13.4	85
141001	2025-10-17T09:12:27	13.7	84
141002	2025-10-17T09:22:27	13.9	83.5
141003	2025-10-17T09:32:27	14.3	83
141004	2025-10-17T09:42:26	14.8	82
141005	2025-10-17T09:52:26	15.3	79
141006	2025-10-17T10:02:26	15.8	77.5
141007	2025-10-17T10:12:26	15.4	77
141008	2025-10-17T10:22:26	14.7	81
141009	2025-10-17T10:32:26	14.5	82
141010	2025-10-17T10:42:26	14.3	83
141011	2025-10-17T10:52:26	14.5	82
141012	2025-10-17T11:02:26	14.4	82.5
141013	2025-10-17T11:12:26	14.4	83
141014	2025-10-17T11:22:26	14.5	82
141015	2025-10-17T11:32:26	14.7	80.5
141016	2025-10-17T11:42:26	15	81.5
141017	2025-10-17T11:52:26	15.1	80.5
141018	2025-10-17T12:02:26	15.5	79.5
141019	2025-10-17T12:12:26	15.9	77.5
141020	2025-10-17T12:22:26	16	77
141021	2025-10-17T12:32:26	16.5	76
141022	2025-10-17T12:42:26	16.4	74.5
141023	2025-10-17T12:52:26	15.8	76
141024	2025-10-17T13:02:26	15.3	77.5
141025	2025-10-17T13:12:26	15.1	77.5
141026	2025-10-17T13:22:26	15	79
141027	2025-10-17T13:32:26	15.1	77.5
141028	2025-10-17T13:42:26	15.2	77.5
141029	2025-10-17T13:52:26	15.3	77.5
141030	2025-10-17T14:02:26	15.3	76.5
141031	2025-10-17T14:12:26	15.2	79
141032	2025-10-17T14:22:26	15	79
141033	2025-10-17T14:32:26	14.8	79.5
141034	2025-10-17T14:42:26	14.7	81.5
141035	2025-10-17T14:52:26	14.5	82.5
141036	2025-10-17T15:02:43	14.4	82.5
141037	2025-10-17T15:12:26	14.3	84
141038	2025-10-17T15:22:26	14.1	84
141039	2025-10-17T15:32:26	14	84
141040	2025-10-17T15:42:26	13.9	84.5
141041	2025-10-17T15:52:26	13.9	85
141042	2025-10-17T16:02:26	13.7	85.5
141043	2025-10-17T16:12:26	13.6	86
141044	2025-10-17T16:22:26	13.5	87
141045	2025-10-17T16:32:26	13.4	87
141046	2025-10-17T16:42:26	13.3	88
141047	2025-10-17T16:52:26	13.1	88
141048	2025-10-17T17:02:26	13.1	88
141049	2025-10-17T17:12:26	13	88.5
141050	2025-10-17T17:22:26	12.9	89
141051	2025-10-17T17:32:26	12.9	89.5
141052	2025-10-17T17:42:26	12.8	89
141053	2025-10-17T17:52:26	12.6	89.5
141054	2025-10-17T18:02:26	12.7	90
141055	2025-10-17T18:12:26	12.6	90.5
141056	2025-10-17T18:22:26	12.5	90.5
141057	2025-10-17T18:32:26	12.3	91.5
141058	2025-10-17T18:42:26	12.3	92
141059	2025-10-17T18:52:26	12	92.5
141060	2025-10-17T19:02:26	11.9	92.5
141061	2025-10-17T19:12:26	11.9	93
141062	2025-10-17T19:22:26	11.7	93.5
141063	2025-10-17T19:32:26	11.6	93.5
141064	2025-10-17T19:42:26	11.7	93.5
141065	2025-10-17T19:52:26	11.8	93.5
141066	2025-10-17T20:02:26	11.7	93.5
141067	2025-10-17T20:12:26	11.8	93.5
141068	2025-10-17T20:22:26	11.6	93.5
141069	2025-10-17T20:32:26	11.5	93.5
141070	2025-10-17T20:42:26	11.4	94
141071	2025-10-17T20:52:26	11.5	94
141072	2025-10-17T21:02:26	11.4	94
141073	2025-10-17T21:12:26	11.4	94.5
141074	2025-10-17T21:22:26	11.2	94
141075	2025-10-17T21:32:26	11.3	94.5
141076	2025-10-17T21:42:26	11.3	94.5
141077	2025-10-17T21:52:26	11.2	94.5
141078	2025-10-17T22:02:26	11.2	95
141079	2025-10-17T22:12:26	11.2	95
141080	2025-10-17T22:22:26	11.1	95
141081	2025-10-17T22:32:26	11.1	95
141082	2025-10-17T22:42:26	11.2	95
141083	2025-10-17T22:52:25	11.1	95
141084	2025-10-17T23:02:25	11.1	95
141085	2025-10-17T23:12:25	11.1	95
141086	2025-10-17T23:22:25	11	95
141087	2025-10-17T23:32:25	11	95
141088	2025-10-17T23:42:25	10.9	95
141089	2025-10-17T23:52:25	11	95.5
141090	2025-10-18T00:02:25	11	95.5
141091	2025-10-18T00:12:25	10.9	95.5
141092	2025-10-18T00:22:25	10.9	95.5
141093	2025-10-18T00:32:25	10.8	95.5
141094	2025-10-18T00:42:25	10.8	95.5
141095	2025-10-18T00:52:25	10.8	96
141096	2025-10-18T01:02:25	10.7	96
141097	2025-10-18T01:12:25	10.6	95.5
141098	2025-10-18T01:22:25	10.6	96
141099	2025-10-18T01:32:25	10.5	95.5
141100	2025-10-18T01:42:25	10.6	95
141101	2025-10-18T01:52:25	10.7	94
141102	2025-10-18T02:02:25	10.6	94.5
141103	2025-10-18T02:12:25	10.5	95
141104	2025-10-18T02:22:25	10.5	95
141105	2025-10-18T02:32:25	10.4	95.5
141106	2025-10-18T02:42:25	10.4	95.5
141107	2025-10-18T02:52:25	10.4	95.5
141108	2025-10-18T03:02:25	10.3	96
141109	2025-10-18T03:12:25	10.2	96
141110	2025-10-18T03:22:25	10.3	96
141111	2025-10-18T03:32:25	10.2	96
141112	2025-10-18T03:42:25	10.1	96
141113	2025-10-18T03:52:25	10.1	96.5
141114	2025-10-18T04:02:25	10.1	96.5
141115	2025-10-18T04:12:25	10	96.5
141116	2025-10-18T04:22:25	9.9	96.5
141117	2025-10-18T04:32:25	9.9	96.5
141118	2025-10-18T04:42:25	9.8	96.5
141119	2025-10-18T04:52:25	9.8	97
141120	2025-10-18T05:02:25	9.8	97
141121	2025-10-18T05:12:25	9.7	96.5
141122	2025-10-18T05:22:25	9.4	97.5
141123	2025-10-18T05:32:25	8.8	98.5
141124	2025-10-18T05:42:25	8.5	99.5
141125	2025-10-18T05:52:25	8.2	99.5
141126	2025-10-18T06:02:25	8	100
141127	2025-10-18T06:12:25	7.9	100
141128	2025-10-18T06:22:25	7.8	100
141129	2025-10-18T06:32:25	7.7	100
141130	2025-10-18T06:42:25	7.9	100
141131	2025-10-18T06:52:25	8.1	100
141132	2025-10-18T07:02:25	8.4	99.5
141133	2025-10-18T07:12:25	8.7	99.5
141134	2025-10-18T07:22:25	8.7	99.5
141135	2025-10-18T07:32:25	8.8	99.5
141136	2025-10-18T07:42:25	8.6	100
141137	2025-10-18T07:52:25	8.6	100
141138	2025-10-18T08:02:25	8.8	100
141139	2025-10-18T08:12:25	9.2	99.5
141140	2025-10-18T08:22:25	9.5	98.5
141141	2025-10-18T08:32:25	9.8	97.5
141142	2025-10-18T08:42:25	10.1	94.5
141143	2025-10-18T08:52:25	10.4	94
141144	2025-10-18T09:02:25	10.8	92
141145	2025-10-18T09:12:25	11.1	90.5
141146	2025-10-18T09:22:25	11.4	87.5
141147	2025-10-18T09:32:25	11.6	87.5
141148	2025-10-18T09:42:25	11.7	86
141149	2025-10-18T09:52:25	12.1	83
141150	2025-10-18T10:02:25	13.1	80
141151	2025-10-18T10:12:25	14.3	75
141152	2025-10-18T10:22:25	14	77
141153	2025-10-18T10:32:25	14.4	76.5
141154	2025-10-18T10:42:25	14.8	72.5
141155	2025-10-18T10:52:25	15.1	71
141156	2025-10-18T11:02:25	15.6	67
141157	2025-10-18T11:12:25	15.7	62.5
141158	2025-10-18T11:22:25	15.8	60
141159	2025-10-18T11:32:25	16.3	58.5
141160	2025-10-18T11:42:25	16.5	58.5
141161	2025-10-18T11:52:25	17	57.5
141162	2025-10-18T12:02:25	17.7	55.5
141163	2025-10-18T12:12:25	18.5	51.5
141164	2025-10-18T12:22:25	23.1	43.5
141165	2025-10-18T12:32:25	25.5	39
141166	2025-10-18T12:42:25	24.1	39.5
141167	2025-10-18T12:52:25	26.3	35.5
141168	2025-10-18T13:02:25	26.1	35.5
141169	2025-10-18T13:12:25	28.9	33
141170	2025-10-18T13:22:25	24.5	37.5
141171	2025-10-18T13:32:24	25.6	35.5
141172	2025-10-18T13:42:24	26.4	34.5
141173	2025-10-18T13:52:24	28.2	32.5
141174	2025-10-18T14:02:24	29.1	32.5
141175	2025-10-18T14:12:24	23.6	38.5
141176	2025-10-18T14:22:24	21.9	41.5
141177	2025-10-18T14:32:24	26.7	35
141178	2025-10-18T14:42:24	29	31.5
141179	2025-10-18T14:52:24	29.8	33
141180	2025-10-18T15:02:24	29.7	34
141181	2025-10-18T15:12:24	28.9	35
141182	2025-10-18T15:22:24	27	38
141183	2025-10-18T15:32:24	26.6	38.5
141184	2025-10-18T15:42:24	25.6	39.5
141185	2025-10-18T15:52:24	23.3	44.5
141186	2025-10-18T16:02:24	21.2	48
141187	2025-10-18T16:12:24	19.2	54
141188	2025-10-18T16:22:24	18.1	56.5
141189	2025-10-18T16:32:24	17.1	59.5
141190	2025-10-18T16:42:24	16.4	62
141191	2025-10-18T16:52:24	15.8	63
141192	2025-10-18T17:02:24	15.3	65
141193	2025-10-18T17:12:24	14.9	66
141194	2025-10-18T18:36:27	14.4	67.5
141195	2025-10-18T18:36:28	14	69
141196	2025-10-18T18:36:28	13.4	69.5
141197	2025-10-18T18:36:29	13.6	69.5
141198	2025-10-18T18:36:29	12.6	72
141199	2025-10-18T18:36:29	13.1	70.5
141200	2025-10-18T18:36:30	12.7	71.5
141201	2025-10-18T18:36:30	12.3	73
141202	2025-10-18T18:42:24	12.1	73.5
141203	2025-10-18T18:52:24	12	74
141204	2025-10-18T19:02:24	11.7	74
141205	2025-10-18T19:12:24	11.6	74.5
141206	2025-10-18T19:22:24	11.3	75
141207	2025-10-18T19:32:24	11.2	75.5
141208	2025-10-18T19:42:24	11.1	75
141209	2025-10-18T19:52:24	11	75
141210	2025-10-18T20:02:24	10.8	75
141211	2025-10-18T20:12:24	10.9	74.5
141212	2025-10-18T20:22:24	10.7	74.5
141213	2025-10-18T20:32:24	10.6	74.5
141214	2025-10-18T20:42:24	10.5	74.5
141215	2025-10-18T20:52:24	10.5	74.5
141216	2025-10-18T21:02:24	10.4	74
141217	2025-10-18T21:12:24	10.5	74
141218	2025-10-18T21:22:24	10.4	74
141219	2025-10-18T21:32:24	10.3	73.5
141220	2025-10-18T21:42:24	10.2	74
141221	2025-10-18T21:52:24	10.1	74.5
141222	2025-10-18T22:02:24	10.1	74.5
141223	2025-10-18T22:12:24	10.1	73.5
141224	2025-10-18T22:22:24	10.1	74
141225	2025-10-18T22:32:24	9.9	74.5
141226	2025-10-18T22:42:24	9.9	75
141227	2025-10-18T22:52:24	9.7	75
141228	2025-10-18T23:02:24	9.7	75.5
141229	2025-10-18T23:12:24	9.6	75.5
141230	2025-10-18T23:22:24	9.5	75.5
141231	2025-10-18T23:32:24	9.5	76
141232	2025-10-18T23:42:24	9.2	78.5
141233	2025-10-18T23:52:24	8.9	79
141234	2025-10-19T00:02:24	8.9	80
141235	2025-10-19T00:12:24	8.7	81
141236	2025-10-19T00:22:24	8.6	80.5
141237	2025-10-19T00:32:24	8.4	81
141238	2025-10-19T00:42:24	8.5	82
141239	2025-10-19T00:52:24	8.5	81.5
141240	2025-10-19T01:02:24	8.4	82
141241	2025-10-19T01:12:24	8.4	81.5
141242	2025-10-19T01:22:24	8.4	81.5
141243	2025-10-19T01:32:24	8.3	81
141244	2025-10-19T01:42:24	8.7	80
141245	2025-10-19T01:52:24	8.7	79.5
141246	2025-10-19T02:02:24	8.5	81
141247	2025-10-19T02:12:24	8.2	81.5
141248	2025-10-19T02:22:24	7.9	83
141249	2025-10-19T02:32:24	7.8	84
141250	2025-10-19T02:42:24	7.5	86
141251	2025-10-19T02:52:24	7.3	86.5
141252	2025-10-19T03:02:24	7.3	86.5
141253	2025-10-19T03:12:24	7.3	86
141254	2025-10-19T03:22:24	7.4	86.5
141255	2025-10-19T03:32:24	7.4	86.5
141256	2025-10-19T03:42:23	7.3	87.5
141257	2025-10-19T03:52:23	7.1	89
141258	2025-10-19T04:02:23	7	90.5
141259	2025-10-19T04:12:23	6.9	90.5
141260	2025-10-19T04:22:23	6.8	91
141261	2025-10-19T04:32:23	6.7	91
141262	2025-10-19T04:42:23	6.8	91.5
141263	2025-10-19T04:52:23	6.6	91.5
141264	2025-10-19T05:02:23	6.6	92
141265	2025-10-19T05:12:23	6.4	92.5
141266	2025-10-19T05:22:23	6.3	92.5
141267	2025-10-19T05:32:23	6.2	92.5
141268	2025-10-19T05:42:23	6.2	93.5
141269	2025-10-19T05:52:23	6.3	94
141270	2025-10-19T06:02:23	6.3	93
141271	2025-10-19T06:12:23	6.3	93.5
141272	2025-10-19T06:22:23	6.3	93.5
141273	2025-10-19T06:32:23	6.3	93.5
141274	2025-10-19T06:42:23	6.4	93.5
141275	2025-10-19T06:52:23	6.6	93.5
141276	2025-10-19T07:02:23	6.8	93
141277	2025-10-19T07:12:23	7.1	92.5
141278	2025-10-19T07:22:23	7.3	91.5
141279	2025-10-19T07:32:23	7.3	91.5
141280	2025-10-19T07:42:23	7.6	91
141281	2025-10-19T07:52:23	7.9	90
141282	2025-10-19T08:02:23	8	90
141283	2025-10-19T08:12:23	8.4	89
141284	2025-10-19T08:22:23	8.5	88.5
141285	2025-10-19T08:32:23	8.7	88
141286	2025-10-19T08:42:23	9.1	87
141287	2025-10-19T08:52:23	9.5	85.5
141288	2025-10-19T09:02:23	9.6	85.5
141289	2025-10-19T09:12:23	9.8	84
141290	2025-10-19T09:22:23	10.1	83
141291	2025-10-19T09:32:23	10.7	82
141292	2025-10-19T09:42:23	11	81
141293	2025-10-19T09:52:23	11.3	80.5
141294	2025-10-19T10:02:23	11.5	79
141295	2025-10-19T10:12:23	11.8	77.5
141296	2025-10-19T10:22:23	12.3	76.5
141297	2025-10-19T10:32:23	12.9	73.5
141298	2025-10-19T10:42:23	13.4	71.5
141299	2025-10-19T10:52:23	13.6	69.5
141300	2025-10-19T11:02:23	13.9	70
141301	2025-10-19T11:12:23	14.1	70
141302	2025-10-19T11:22:23	14.4	68.5
141303	2025-10-19T11:32:23	15.1	69
141304	2025-10-19T11:42:23	15.8	68.5
141305	2025-10-19T11:52:23	16.7	66.5
141306	2025-10-19T12:02:23	18.8	59
141307	2025-10-19T12:12:23	17.8	60.5
141308	2025-10-19T12:22:23	17.3	63
141309	2025-10-19T12:32:23	17.1	63
141310	2025-10-19T12:42:23	16.8	64.5
141311	2025-10-19T12:52:23	16.6	65
141312	2025-10-19T13:02:23	16	66.5
141313	2025-10-19T13:12:23	16.1	68.5
141314	2025-10-19T13:22:23	16.1	68.5
141315	2025-10-19T13:32:23	18.3	62.5
141316	2025-10-19T13:42:23	17.3	63
141317	2025-10-19T13:52:23	16.5	66.5
141318	2025-10-19T14:02:23	16.2	67.5
141319	2025-10-19T14:12:23	16.2	68.5
141320	2025-10-19T14:22:23	16.1	69.5
141321	2025-10-19T14:32:23	16.2	68.5
141322	2025-10-19T14:42:23	15.8	70.5
141323	2025-10-19T14:52:23	15.5	72.5
141324	2025-10-19T15:02:23	15.2	73.5
141325	2025-10-19T15:12:23	14.9	74.5
141326	2025-10-19T15:22:23	14.8	76.5
141327	2025-10-19T15:32:23	14.5	77.5
141328	2025-10-19T15:42:23	14.4	78.5
141329	2025-10-19T15:52:23	14.2	80
141330	2025-10-19T16:02:23	14	81
141331	2025-10-19T16:12:23	13.9	82.5
141332	2025-10-19T16:22:23	13.7	84
141333	2025-10-19T16:32:23	13.5	84.5
141334	2025-10-19T16:42:23	13.3	85.5
141335	2025-10-19T16:52:23	13.2	86
141336	2025-10-19T17:02:23	13.1	86.5
141337	2025-10-19T17:12:23	12.9	87
141338	2025-10-19T17:22:23	12.7	88
141339	2025-10-19T17:32:23	12.8	88
141340	2025-10-19T17:42:23	12.6	87.5
141341	2025-10-19T17:52:23	12.5	88.5
141342	2025-10-19T18:02:23	12.4	89
141343	2025-10-19T18:12:23	12.2	89
141344	2025-10-19T18:22:23	12.1	89
141345	2025-10-19T18:32:22	12	89.5
141346	2025-10-19T18:42:22	12	89
141347	2025-10-19T18:52:23	11.8	89
141348	2025-10-19T19:02:22	11.9	88.5
141349	2025-10-19T19:12:22	11.9	88.5
141350	2025-10-19T19:22:22	11.8	89
141351	2025-10-19T19:32:22	11.8	89.5
141352	2025-10-19T19:42:22	11.8	90
141353	2025-10-19T19:52:22	11.7	90.5
141354	2025-10-19T20:02:22	11.7	90.5
141355	2025-10-19T20:12:22	11.7	90.5
141356	2025-10-19T20:22:22	11.7	90.5
141357	2025-10-19T20:32:22	11.7	91
141358	2025-10-19T20:42:22	11.7	91.5
141359	2025-10-19T20:52:22	11.6	92
141360	2025-10-19T21:02:22	11.5	92
141361	2025-10-19T21:12:22	11.5	92.5
141362	2025-10-19T21:22:22	11.4	92.5
141363	2025-10-19T21:32:22	11.2	93
141364	2025-10-19T21:42:22	11.1	94
141365	2025-10-19T21:52:22	10.9	94.5
141366	2025-10-19T22:02:22	10.7	95.5
141367	2025-10-19T22:12:22	10.5	96
141368	2025-10-19T22:22:22	10.4	95.5
141369	2025-10-19T22:32:22	10.1	96.5
141370	2025-10-19T22:42:22	9.9	97
141371	2025-10-19T22:52:22	9.7	96.5
141372	2025-10-19T23:02:22	9.6	97
141373	2025-10-19T23:12:22	9.9	96.5
141374	2025-10-19T23:22:22	9.8	96
141375	2025-10-19T23:32:22	10	95.5
141376	2025-10-19T23:42:22	10	95.5
141377	2025-10-19T23:52:22	10	95.5
141378	2025-10-20T00:02:22	10	95
141379	2025-10-20T00:12:22	9.9	94
141380	2025-10-20T00:22:22	9.9	94.5
141381	2025-10-20T00:32:22	10	94.5
141382	2025-10-20T00:42:22	10	94.5
141383	2025-10-20T00:52:22	10.1	94.5
141384	2025-10-20T01:02:22	10.1	94.5
141385	2025-10-20T01:12:22	10.1	94.5
141386	2025-10-20T01:22:22	10.1	95
141387	2025-10-20T01:32:22	10.1	95
141388	2025-10-20T01:42:22	10.1	95.5
141389	2025-10-20T01:52:22	10	96.5
141390	2025-10-20T02:02:22	10	96.5
141391	2025-10-20T02:12:22	9.9	97
141392	2025-10-20T02:22:22	9.7	97.5
141393	2025-10-20T02:32:22	9.7	97.5
141394	2025-10-20T02:42:22	9.7	97.5
141395	2025-10-20T02:52:22	9.7	97
141396	2025-10-20T03:02:22	9.8	97
141397	2025-10-20T03:12:22	9.8	97
141398	2025-10-20T03:22:22	9.8	97
141399	2025-10-20T03:32:22	9.9	97.5
141400	2025-10-20T03:42:22	9.9	97
141401	2025-10-20T03:52:22	9.8	97
141402	2025-10-20T04:02:22	9.9	97
141403	2025-10-20T04:12:22	9.9	97
141404	2025-10-20T04:22:22	9.9	97
141405	2025-10-20T04:32:22	9.9	97.5
141406	2025-10-20T04:42:22	9.9	97.5
141407	2025-10-20T04:52:44	10	97
141408	2025-10-20T05:02:22	10.1	97
141409	2025-10-20T05:12:22	10	97
141410	2025-10-20T05:22:22	10.2	97
141411	2025-10-20T05:32:22	10.1	97.5
141412	2025-10-20T05:42:22	10.2	97.5
141413	2025-10-20T05:52:22	10.2	98
141414	2025-10-20T06:02:22	10	98
141415	2025-10-20T06:12:22	10.2	98
141416	2025-10-20T06:22:22	10.3	98
141417	2025-10-20T06:32:22	10.4	97.5
141418	2025-10-20T06:42:22	10.7	97.5
141419	2025-10-20T06:52:22	10.7	97.5
141420	2025-10-20T07:02:22	10.8	97.5
141421	2025-10-20T07:12:22	10.9	97.5
141422	2025-10-20T07:22:22	11.2	97.5
141423	2025-10-20T07:32:22	11.2	98
141424	2025-10-20T07:42:22	11.5	98.5
141425	2025-10-20T07:52:22	11.8	98
141426	2025-10-20T08:02:22	12	98
141427	2025-10-20T08:12:22	12.2	97.5
141428	2025-10-20T08:22:22	12.4	96.5
141429	2025-10-20T08:32:22	12.3	98
141430	2025-10-20T08:42:22	12.6	98
141431	2025-10-20T08:52:22	12.9	98.5
141432	2025-10-20T09:02:22	12.9	98.5
141433	2025-10-20T09:12:22	13.1	97
141434	2025-10-20T09:22:22	13.1	97
141435	2025-10-20T09:32:22	13.1	98
141436	2025-10-20T09:42:22	13.1	98.5
141437	2025-10-20T09:52:22	13.1	97.5
141438	2025-10-20T10:02:22	13.2	98.5
141439	2025-10-20T10:12:22	13.6	98
141440	2025-10-20T10:22:21	14	97
141441	2025-10-20T10:32:21	14.2	96.5
141442	2025-10-20T10:42:21	14	96.5
141443	2025-10-20T10:52:21	14	97.5
141444	2025-10-20T11:02:21	14.3	98
141445	2025-10-20T11:12:21	14.5	96.5
141446	2025-10-20T11:22:21	14.7	96.5
141447	2025-10-20T11:32:21	14.7	96.5
141448	2025-10-20T11:42:21	14.7	96
141449	2025-10-20T11:52:21	15	95.5
141450	2025-10-20T12:02:21	15.2	95
141451	2025-10-20T12:12:21	15.3	95
141452	2025-10-20T12:22:21	15.5	95
141453	2025-10-20T12:32:21	16.1	94.5
141454	2025-10-20T12:42:21	16.2	93
141455	2025-10-20T12:52:21	16.3	93
141456	2025-10-20T13:02:21	16.3	92.5
141457	2025-10-20T13:12:21	16.8	89.5
141458	2025-10-20T13:22:21	17.1	90.5
141459	2025-10-20T13:32:21	17.2	90
141460	2025-10-20T13:42:21	17.4	90
141461	2025-10-20T13:52:21	17.8	87.5
141462	2025-10-20T14:02:21	17.4	90
141463	2025-10-20T14:12:21	17.5	91
141464	2025-10-20T14:22:21	17.7	90.5
141465	2025-10-20T14:32:21	17.7	90.5
141466	2025-10-20T14:42:21	17.6	89.5
141467	2025-10-20T14:52:21	17.4	91
141468	2025-10-20T15:02:21	17.2	90
141469	2025-10-20T15:12:21	18.2	86.5
141470	2025-10-20T15:22:21	17.7	88.5
141471	2025-10-20T15:32:21	17.3	85
141472	2025-10-20T15:42:21	16.7	88
141473	2025-10-20T15:52:21	16.3	87.5
141474	2025-10-20T16:02:21	16.1	84.5
141475	2025-10-20T16:12:21	16.3	83.5
141476	2025-10-20T16:22:21	15.9	83.5
141477	2025-10-20T16:32:21	15.5	86
141478	2025-10-20T16:42:21	15	88
141479	2025-10-20T16:52:21	14.9	90
141480	2025-10-20T17:02:21	14.5	89
141481	2025-10-20T17:12:21	14.6	88.5
141482	2025-10-20T17:22:21	14.3	92
141483	2025-10-20T17:32:21	14	92
141484	2025-10-20T17:42:21	13.6	94
141485	2025-10-20T17:52:21	13.3	94.5
141486	2025-10-20T18:02:21	13.1	95
141487	2025-10-20T18:12:21	13	94.5
141488	2025-10-20T18:22:21	12.6	96.5
141489	2025-10-20T18:32:21	12.3	97.5
141490	2025-10-20T18:42:21	12.3	97
141491	2025-10-20T18:52:21	12.1	97.5
141492	2025-10-20T19:02:21	11.9	97
141493	2025-10-20T19:12:21	12	96.5
141494	2025-10-20T19:22:21	12	96.5
141495	2025-10-20T19:32:21	12.3	96.5
141496	2025-10-20T19:42:21	12.2	95.5
141497	2025-10-20T19:52:21	11.8	97
141498	2025-10-20T20:02:21	11.5	98
141499	2025-10-20T20:12:21	11.4	98.5
141500	2025-10-20T20:22:21	11.2	98
141501	2025-10-20T20:32:21	11.2	98.5
141502	2025-10-20T20:42:21	11.2	98.5
141503	2025-10-20T20:52:21	11.1	99
141504	2025-10-20T21:02:21	10.9	99
141505	2025-10-20T21:12:21	10.9	99.5
141506	2025-10-20T21:22:21	11.1	99
141507	2025-10-20T21:32:21	11.6	98.5
141508	2025-10-20T21:42:21	11.4	98.5
141509	2025-10-20T21:52:21	11.2	99
141510	2025-10-20T22:02:21	10.8	99.5
141511	2025-10-20T22:12:21	10.6	100
141512	2025-10-20T22:22:21	10.8	100
141513	2025-10-20T22:32:21	11.7	100
141514	2025-10-20T22:42:20	12.3	97.5
141515	2025-10-20T22:52:20	12.9	94.5
141516	2025-10-20T23:02:20	13.7	89.5
141517	2025-10-20T23:12:20	13.9	88
141518	2025-10-20T23:22:20	14	87.5
141519	2025-10-20T23:32:20	14.1	87
141520	2025-10-20T23:42:20	14.4	86
141521	2025-10-20T23:52:20	14.3	86
141522	2025-10-21T00:02:20	14.5	85
141523	2025-10-21T00:12:20	14.5	85.5
141524	2025-10-21T00:22:20	14.7	85
141525	2025-10-21T00:32:20	14.6	85
141526	2025-10-21T00:42:20	14.9	85
141527	2025-10-21T00:52:20	14.5	85.5
141528	2025-10-21T01:02:20	14.7	85
141529	2025-10-21T01:12:20	14.9	84.5
141530	2025-10-21T01:22:20	15.2	83
141531	2025-10-21T01:32:20	15	83.5
141532	2025-10-21T01:42:20	15.2	83
141533	2025-10-21T01:52:20	15.2	83
141534	2025-10-21T02:02:20	15.2	82
141535	2025-10-21T02:12:20	15.3	82.5
141536	2025-10-21T02:22:20	15.3	82
141537	2025-10-21T02:32:20	15.5	80.5
141538	2025-10-21T02:42:20	15.3	81.5
141539	2025-10-21T02:52:20	15.2	82.5
141540	2025-10-21T03:02:20	15.3	82.5
141541	2025-10-21T03:12:20	14.2	89.5
141542	2025-10-21T03:22:20	13.2	100
141543	2025-10-21T03:32:20	13	95.5
141544	2025-10-21T03:42:20	13	95.5
141545	2025-10-21T03:52:20	12.9	95.5
141546	2025-10-21T04:02:20	12.7	95.5
141547	2025-10-21T04:12:20	12.6	95.5
141548	2025-10-21T04:22:20	12.8	95.5
141549	2025-10-21T04:32:20	12.9	95.5
141550	2025-10-21T04:42:20	12.9	95.5
141551	2025-10-21T04:52:20	12.9	95.5
141552	2025-10-21T05:02:20	12.6	95.5
141553	2025-10-21T05:12:20	12.2	95.5
141554	2025-10-21T05:22:20	12.1	95.5
141555	2025-10-21T05:32:20	11.9	95.5
141556	2025-10-21T05:42:20	12.1	95.5
141557	2025-10-21T05:52:20	12.3	96
141558	2025-10-21T06:02:20	12.5	96
141559	2025-10-21T06:12:20	12.5	96
141560	2025-10-21T06:22:20	12.6	96
141561	2025-10-21T06:32:20	12.7	96
141562	2025-10-21T06:42:20	12.9	96
141563	2025-10-21T06:52:20	13.2	96
141564	2025-10-21T07:02:20	13.3	96
141565	2025-10-21T07:12:20	13.3	96
141566	2025-10-21T07:22:20	12.5	96
141567	2025-10-21T07:32:20	12.5	96
141568	2025-10-21T07:42:20	12.5	96
141569	2025-10-21T07:52:20	12.8	96
141570	2025-10-21T08:02:20	12.8	96
141571	2025-10-21T08:12:20	12.8	96
141572	2025-10-21T08:22:20	12.8	96
141573	2025-10-21T08:32:20	13.1	96
141574	2025-10-21T08:42:20	13.2	96
141575	2025-10-21T08:52:20	13.4	96
141576	2025-10-21T09:02:20	13.3	96
141577	2025-10-21T09:12:20	13.7	96
141578	2025-10-21T09:22:20	14.2	96.5
141579	2025-10-21T09:32:20	14.6	96
141580	2025-10-21T09:42:20	14.6	96
141581	2025-10-21T09:52:20	14.8	96
141582	2025-10-21T10:02:20	14.3	96
141583	2025-10-21T10:12:20	14.1	96.5
141584	2025-10-21T10:22:20	13.3	96
141585	2025-10-21T10:32:20	13.1	96
141586	2025-10-21T10:42:20	13.3	96.5
141587	2025-10-21T10:52:20	13.4	96.5
141588	2025-10-21T11:02:20	13.5	96
141589	2025-10-21T11:12:20	13.7	96.5
141590	2025-10-21T11:22:20	13.9	96
141591	2025-10-21T11:32:20	14.2	96.5
141592	2025-10-21T11:42:19	14	96.5
141593	2025-10-21T11:52:19	15.2	96.5
141594	2025-10-21T12:02:19	14.6	96.5
141595	2025-10-21T12:12:19	15.2	96.5
141596	2025-10-21T12:22:19	15.1	96.5
141597	2025-10-21T12:32:19	15.4	96.5
141598	2025-10-21T12:42:19	15.8	96.5
141599	2025-10-21T12:52:19	16.8	96.5
141600	2025-10-21T13:02:19	15.9	96.5
141601	2025-10-21T13:12:19	15.9	96.5
141602	2025-10-21T13:22:19	16.7	96.5
141603	2025-10-21T13:32:19	16.1	96.5
141604	2025-10-21T13:42:19	15.6	96.5
141605	2025-10-21T13:52:19	15	96.5
141606	2025-10-21T14:02:19	15.4	96.5
141607	2025-10-21T14:12:19	15.4	96.5
141608	2025-10-21T14:22:19	15.3	96.5
141609	2025-10-21T14:32:19	14.9	96.5
141610	2025-10-21T14:42:19	14.7	96.5
141611	2025-10-21T14:52:19	14.7	96.5
141612	2025-10-21T15:02:19	15	96.5
141613	2025-10-21T15:12:19	16	96.5
141614	2025-10-21T15:22:19	18.2	96.5
141615	2025-10-21T15:32:19	16.5	96.5
141616	2025-10-21T15:42:19	15.9	96.5
141617	2025-10-21T15:52:19	15.6	96.5
141618	2025-10-21T16:02:19	15.1	96.5
141619	2025-10-21T16:12:19	14.5	96.5
141620	2025-10-21T16:22:19	14.1	96.5
141621	2025-10-21T16:32:19	13.8	96.5
141622	2025-10-21T16:42:19	13.4	96.5
141623	2025-10-21T16:52:19	13.2	96.5
141624	2025-10-21T17:02:19	13	96.5
141625	2025-10-21T17:12:19	12.7	96.5
141626	2025-10-21T17:22:19	12.4	96.5
141627	2025-10-21T17:32:19	12.2	96.5
141628	2025-10-21T17:42:19	12	96.5
141629	2025-10-21T17:52:19	11.9	96.5
141630	2025-10-21T18:02:19	11.9	96.5
141631	2025-10-21T18:12:19	11.9	96.5
141632	2025-10-21T18:22:19	12	96.5
141633	2025-10-21T18:32:19	12	96.5
141634	2025-10-21T18:42:19	12.1	96.5
141635	2025-10-21T18:52:19	12.2	96.5
141636	2025-10-21T19:02:19	12.1	96.5
141637	2025-10-21T19:12:19	12.1	96.5
141638	2025-10-21T19:22:19	12.2	96.5
141639	2025-10-21T19:32:19	12.1	96.5
141640	2025-10-21T19:42:19	12.1	97
141641	2025-10-21T19:52:19	12	96.5
141642	2025-10-21T20:02:19	12.1	97
141643	2025-10-21T20:12:19	12.1	96.5
141644	2025-10-21T20:22:19	12.2	97
141645	2025-10-21T20:32:19	12.4	96.5
141646	2025-10-21T20:42:19	12.6	97
141647	2025-10-21T20:52:19	12.7	97
141648	2025-10-21T21:02:19	12.6	97
141649	2025-10-21T21:12:19	12.8	97
141650	2025-10-21T21:22:19	13.1	97
141651	2025-10-21T21:32:19	13.2	97
141652	2025-10-21T21:42:19	13	97
141653	2025-10-21T21:52:19	12.8	97
141654	2025-10-21T22:02:19	12.9	97
141655	2025-10-21T22:12:19	12.7	97
141656	2025-10-21T22:22:19	12.8	97
141657	2025-10-21T22:32:19	12.8	97
141658	2025-10-21T22:42:19	12.7	97
141659	2025-10-21T22:52:19	12.7	97
141660	2025-10-21T23:02:19	12.7	97
141661	2025-10-21T23:12:19	12.6	97
141662	2025-10-21T23:22:19	12.6	97
141663	2025-10-21T23:32:19	12.6	97
141664	2025-10-21T23:42:19	12.6	97
141665	2025-10-21T23:52:19	12.5	97
141666	2025-10-22T00:02:19	12.8	97
141667	2025-10-22T00:12:19	13	97
141668	2025-10-22T00:22:19	12.9	97
141669	2025-10-22T00:32:19	13	97
141670	2025-10-22T00:42:19	12.7	97
141671	2025-10-22T00:52:19	12.8	97
141672	2025-10-22T01:02:19	12.8	97
141673	2025-10-22T01:12:19	12.8	97
141674	2025-10-22T01:22:18	12.9	97
141675	2025-10-22T01:32:18	13	97
141676	2025-10-22T01:42:19	12.9	97
141677	2025-10-22T01:52:18	12.8	97
141678	2025-10-22T02:02:18	12.7	97
141679	2025-10-22T02:12:18	12.6	97
141680	2025-10-22T02:22:18	12.5	97
141681	2025-10-22T02:32:18	12.5	97
141682	2025-10-22T02:42:18	12.6	97
141683	2025-10-22T02:52:18	12.7	97
141684	2025-10-22T03:02:18	12.5	97
141685	2025-10-22T03:12:18	12.6	97
141686	2025-10-22T03:22:18	12.6	97
141687	2025-10-22T03:32:19	12.6	97
141688	2025-10-22T03:42:18	12.5	97
141689	2025-10-22T03:52:18	12.5	97
141690	2025-10-22T04:02:35	12.4	97
141691	2025-10-22T04:12:18	12.4	97
141692	2025-10-22T04:22:18	12.4	97
141693	2025-10-22T04:32:18	12.3	97
141694	2025-10-22T04:42:18	12.4	97
141695	2025-10-22T04:52:18	12.4	97
141696	2025-10-22T05:02:18	12.4	97
141697	2025-10-22T05:12:18	12.2	97
141698	2025-10-22T05:22:18	12.3	97
141699	2025-10-22T05:32:18	12.4	97
141700	2025-10-22T05:42:18	12.2	97
141701	2025-10-22T05:52:18	12.3	97
141702	2025-10-22T06:02:18	12.1	97
141703	2025-10-22T06:12:18	12.2	97
141704	2025-10-22T06:22:18	12.3	97
141705	2025-10-22T06:32:18	12.4	97
141706	2025-10-22T06:42:18	12.3	97
141707	2025-10-22T06:52:18	12.4	97
141708	2025-10-22T07:02:18	12.5	97
141709	2025-10-22T07:12:18	12.7	97
141710	2025-10-22T07:22:18	13	97
141711	2025-10-22T07:32:18	13.2	97
141712	2025-10-22T07:42:18	13.4	97
141713	2025-10-22T07:52:18	13.6	97
141714	2025-10-22T08:02:18	13.6	97
141715	2025-10-22T08:12:18	13.6	97
141716	2025-10-22T08:22:18	13.9	97
141717	2025-10-22T08:32:18	14.1	97
141718	2025-10-22T08:42:18	14.3	97
141719	2025-10-22T08:52:18	14.4	97
141720	2025-10-22T09:02:18	14.5	97
141721	2025-10-22T09:12:18	14.6	97
141722	2025-10-22T09:22:18	14.7	97
141723	2025-10-22T09:32:18	14.8	97
141724	2025-10-22T09:42:18	14.7	97
141725	2025-10-22T09:52:18	14.4	100
141726	2025-10-22T10:02:18	14.1	100
141727	2025-10-22T10:12:18	13.8	100
141728	2025-10-22T10:22:18	13.8	100
141729	2025-10-22T10:32:18	13.7	100
141730	2025-10-22T10:42:18	13.8	100
141731	2025-10-22T10:52:18	14.2	100
141732	2025-10-22T11:02:18	14.7	100
141733	2025-10-22T11:12:18	15.2	100
141734	2025-10-22T11:22:18	15.7	100
141735	2025-10-22T11:32:18	16	99
141736	2025-10-22T11:42:18	16.2	96
141737	2025-10-22T11:52:18	16.2	95
141738	2025-10-22T12:02:18	16.6	95.5
141739	2025-10-22T12:12:18	17.1	90
141740	2025-10-22T12:22:18	16.3	92.5
141741	2025-10-22T12:32:18	16.4	88
141742	2025-10-22T12:42:18	16.3	88
141743	2025-10-22T12:52:18	16.3	87.5
141744	2025-10-22T13:02:18	16.4	88.5
141745	2025-10-22T13:12:18	16.5	91
141746	2025-10-22T13:22:18	16.5	88
141747	2025-10-22T13:32:18	16.4	90
141748	2025-10-22T13:42:18	16.3	92
141749	2025-10-22T13:52:18	16.1	97
141750	2025-10-22T14:02:17	16	92.5
141751	2025-10-22T14:12:17	16.2	95.5
141752	2025-10-22T14:22:17	16.4	95.5
141753	2025-10-22T14:32:17	16.1	96.5
141754	2025-10-22T14:42:17	16.1	95
141755	2025-10-22T14:52:17	16.1	98.5
141756	2025-10-22T15:02:35	16	99.5
141757	2025-10-22T15:12:17	15.9	99.5
141758	2025-10-22T15:22:17	15.9	100
141759	2025-10-22T15:32:17	15.8	100
141760	2025-10-22T15:42:17	15.7	100
141761	2025-10-22T15:52:17	15.6	100
141762	2025-10-22T16:02:17	15.5	97.5
141763	2025-10-22T16:12:17	15.4	97
141764	2025-10-22T16:22:17	15.3	97
141765	2025-10-22T16:32:17	15.2	97.5
141766	2025-10-22T16:42:17	15	100
141767	2025-10-22T16:52:17	14.9	100
141768	2025-10-22T17:02:17	14.7	100
141769	2025-10-22T17:12:17	14.9	100
141770	2025-10-22T17:22:17	14.8	100
141771	2025-10-22T17:32:17	14.7	100
141772	2025-10-22T17:42:17	14.6	100
141773	2025-10-22T17:52:17	14.7	100
141774	2025-10-22T18:02:17	14.7	100
141775	2025-10-22T18:12:17	14.5	100
141776	2025-10-22T18:22:17	14.6	100
141777	2025-10-22T18:32:17	14.6	100
141778	2025-10-22T18:42:17	14.5	100
141779	2025-10-22T18:52:17	14.5	100
141780	2025-10-22T19:02:17	14.4	100
141781	2025-10-22T19:12:17	14.4	100
141782	2025-10-22T19:32:17	14.5	100
141783	2025-10-22T19:42:17	14.6	100
141784	2025-10-22T19:52:17	14.6	100
141785	2025-10-22T20:02:17	14.6	100
141786	2025-10-22T20:12:17	14.6	100
141787	2025-10-22T20:22:17	14.6	100
141788	2025-10-22T20:32:17	14.7	100
141789	2025-10-22T20:42:17	14.7	100
141790	2025-10-22T20:52:17	14.9	100
141791	2025-10-22T21:02:17	14.9	100
141792	2025-10-22T21:12:17	15	100
141793	2025-10-22T21:22:17	15	100
141794	2025-10-22T21:32:17	14.9	100
141795	2025-10-22T21:42:17	14.9	100
141796	2025-10-22T21:52:17	14.8	100
141797	2025-10-22T22:02:17	14.8	100
141798	2025-10-22T22:12:17	14.3	100
141799	2025-10-22T22:22:17	14.5	100
141800	2025-10-22T22:32:17	14.6	100
141801	2025-10-22T22:42:17	14.6	100
141802	2025-10-22T22:52:17	14.3	100
141803	2025-10-22T23:02:17	13.9	100
141804	2025-10-22T23:12:17	14	100
141805	2025-10-22T23:22:17	13.7	100
141806	2025-10-22T23:32:17	13.9	100
141807	2025-10-22T23:42:17	13.8	100
141808	2025-10-22T23:52:17	14	100
141809	2025-10-23T00:02:17	14	100
141810	2025-10-23T00:12:17	14.1	100
141811	2025-10-23T00:22:17	14.4	100
141812	2025-10-23T00:32:17	14.5	100
141813	2025-10-23T00:42:17	14.6	100
141814	2025-10-23T00:52:17	14.4	100
141815	2025-10-23T01:02:17	14.4	100
141816	2025-10-23T01:12:17	14.3	100
141817	2025-10-23T01:22:17	14.5	100
141818	2025-10-23T01:32:17	14.4	100
141819	2025-10-23T01:42:17	14.4	100
141820	2025-10-23T01:52:17	14.4	100
141821	2025-10-23T02:02:17	14.4	100
141822	2025-10-23T02:12:17	14.5	100
141823	2025-10-23T02:22:16	14.6	100
141824	2025-10-23T02:32:16	14.8	100
141825	2025-10-23T02:42:16	14.8	100
141826	2025-10-23T02:52:16	14.6	100
141827	2025-10-23T03:02:16	14.6	100
141828	2025-10-23T03:12:16	14.6	100
141829	2025-10-23T03:22:16	14.7	100
141830	2025-10-23T03:32:16	14.7	100
141831	2025-10-23T03:42:16	14.7	100
141832	2025-10-23T03:52:16	14.5	100
141833	2025-10-23T04:02:16	14.4	100
141834	2025-10-23T04:12:16	14.6	100
141835	2025-10-23T04:22:16	14.7	100
141836	2025-10-23T04:32:16	15	100
141837	2025-10-23T04:42:16	14.6	100
141838	2025-10-23T04:52:16	14.8	100
141839	2025-10-23T05:02:16	14.6	100
141840	2025-10-23T05:12:16	14.7	100
141841	2025-10-23T05:22:16	14.7	100
141842	2025-10-23T05:32:16	14.7	100
141843	2025-10-23T05:42:16	14.7	100
141844	2025-10-23T05:52:16	14.7	100
141845	2025-10-23T06:02:16	14.7	100
141846	2025-10-23T06:12:16	14.7	100
141847	2025-10-23T06:22:16	14.8	100
141848	2025-10-23T06:32:16	14.8	100
141849	2025-10-23T06:42:16	14.8	100
141850	2025-10-23T06:52:16	14.2	98
141851	2025-10-23T07:02:16	13.5	98.5
141852	2025-10-23T07:12:16	13.3	98.5
141853	2025-10-23T07:22:16	12.8	98.5
141854	2025-10-23T07:32:16	12.6	98.5
141855	2025-10-23T07:42:16	12.5	98
141856	2025-10-23T07:52:16	12.7	98
141857	2025-10-23T08:02:16	12.7	98
141858	2025-10-23T08:12:16	12.3	98.5
141859	2025-10-23T08:22:16	12.4	98
141860	2025-10-23T08:32:16	12.4	98
141861	2025-10-23T08:42:16	12.6	98
141862	2025-10-23T08:52:16	12.8	98
141863	2025-10-23T09:02:16	13.3	98
141864	2025-10-23T09:12:16	13.7	98
141865	2025-10-23T09:22:16	13.5	98
141866	2025-10-23T09:32:16	13.2	98
141867	2025-10-23T09:42:16	12.4	98
141868	2025-10-23T09:52:16	11.7	98
141869	2025-10-23T10:02:16	11.6	98
141870	2025-10-23T10:12:16	11.2	98
141871	2025-10-23T10:22:16	10.9	98.5
141872	2025-10-23T10:32:16	10.8	98.5
141873	2025-10-23T10:42:16	11.3	98.5
141874	2025-10-23T10:52:16	11.9	98.5
141875	2025-10-23T11:02:16	12.3	98
141876	2025-10-23T11:12:16	12.9	98.5
141877	2025-10-23T11:22:16	12.9	98.5
141878	2025-10-23T11:32:16	10.6	98
141879	2025-10-23T11:42:16	10.6	98
141880	2025-10-23T11:52:16	12	98
141881	2025-10-23T12:02:16	12.4	98
141882	2025-10-23T12:12:16	13.2	98
141883	2025-10-23T12:22:16	14	98
141884	2025-10-23T12:32:16	15.9	98
141885	2025-10-23T12:42:16	16.4	98
141886	2025-10-23T12:52:16	16.6	98
141887	2025-10-23T13:02:16	16.3	98
141888	2025-10-23T13:12:16	17	98
141889	2025-10-23T13:22:16	17.1	98
141890	2025-10-23T13:32:16	14.8	97.5
141891	2025-10-23T13:42:16	13.3	97.5
141892	2025-10-23T13:52:16	14	97.5
141893	2025-10-23T14:02:16	14.5	97.5
141894	2025-10-23T14:12:16	13.8	97.5
141895	2025-10-23T14:22:16	13.7	100
141896	2025-10-23T14:42:16	12.9	98.5
141897	2025-10-23T14:52:16	12.5	98
141898	2025-10-23T15:02:16	12.4	98
141899	2025-10-23T15:12:16	12.5	100
141900	2025-10-23T15:22:16	12.6	100
141901	2025-10-23T15:32:16	12.6	100
141902	2025-10-23T15:42:15	11.9	97
141903	2025-10-23T15:52:15	12.4	86.5
141904	2025-10-23T16:02:15	12.5	79
141905	2025-10-23T16:12:15	12.3	81
141906	2025-10-23T16:22:15	11.8	86.5
141907	2025-10-23T16:32:15	11.7	84
141908	2025-10-23T16:42:15	11.3	93.5
141909	2025-10-23T16:52:15	10.5	100
141910	2025-10-23T17:02:15	10.3	100
141911	2025-10-23T17:12:15	10.5	100
141912	2025-10-23T17:22:15	10.2	100
141913	2025-10-23T17:32:15	10.3	100
141914	2025-10-23T17:42:15	10.2	100
141915	2025-10-23T17:52:15	10.4	100
141916	2025-10-23T18:02:15	10.2	100
141917	2025-10-23T18:12:15	10.4	100
141918	2025-10-23T18:22:15	10.8	96
141919	2025-10-23T18:32:15	11.3	90.5
141920	2025-10-23T18:42:15	11.4	88.5
141921	2025-10-23T18:52:15	11.4	87.5
141922	2025-10-23T19:02:15	11.3	87.5
141923	2025-10-23T19:12:15	10.2	99
141924	2025-10-23T19:22:15	9.8	100
141925	2025-10-23T19:32:15	10.1	97.5
141926	2025-10-23T19:42:15	9.9	99
141927	2025-10-23T19:52:15	10.4	93
141928	2025-10-23T20:02:15	10.8	89
141929	2025-10-23T20:12:15	11	86
141930	2025-10-23T20:22:15	11.2	84.5
141931	2025-10-23T20:32:15	11.4	83
141932	2025-10-23T20:42:15	11.3	81.5
141933	2025-10-23T20:52:15	11.4	81
141934	2025-10-23T21:02:15	11.3	81
141935	2025-10-23T21:12:15	11.2	82
141936	2025-10-23T21:22:15	11.3	82
141937	2025-10-23T21:32:15	11	85.5
141938	2025-10-23T21:42:15	9.5	100
141939	2025-10-23T21:52:15	9.9	100
141940	2025-10-23T22:02:15	10	100
141941	2025-10-23T22:12:15	9.8	100
141942	2025-10-23T22:22:15	9.7	100
141943	2025-10-23T22:32:15	9.7	100
141944	2025-10-23T22:42:15	9.7	93.5
141945	2025-10-23T22:52:15	9.7	92.5
141946	2025-10-23T23:02:15	9.8	92
141947	2025-10-23T23:12:15	9.8	91.5
141948	2025-10-23T23:22:15	8.3	97
141949	2025-10-23T23:32:15	7.8	97
141950	2025-10-23T23:42:15	7.7	97.5
141951	2025-10-23T23:52:15	7.6	97.5
141952	2025-10-24T00:02:15	7.6	97.5
141953	2025-10-24T00:12:15	7.5	97.5
141954	2025-10-24T00:22:15	7.6	97.5
141955	2025-10-24T00:32:15	7.8	97.5
141956	2025-10-24T00:42:15	7.6	97.5
141957	2025-10-24T00:52:15	7.4	97.5
141958	2025-10-24T01:02:15	7.6	97.5
141959	2025-10-24T01:12:15	7.6	97.5
141960	2025-10-24T01:22:15	7.8	97.5
141961	2025-10-24T01:32:15	7.9	97.5
141962	2025-10-24T01:42:15	7.8	97.5
141963	2025-10-24T01:52:15	7.8	97.5
141964	2025-10-24T02:02:15	7.8	97.5
141965	2025-10-24T02:12:15	7.8	97.5
141966	2025-10-24T02:22:15	7.9	97.5
141967	2025-10-24T02:32:15	8.1	97.5
141968	2025-10-24T02:42:15	8.1	97.5
141969	2025-10-24T02:52:15	8.2	97.5
141970	2025-10-24T03:02:15	8.1	97.5
141971	2025-10-24T03:12:15	8	97.5
141972	2025-10-24T03:22:15	8.2	97.5
141973	2025-10-24T03:32:15	8	97.5
141974	2025-10-24T03:42:15	8	97.5
141975	2025-10-24T03:52:15	7.8	97.5
141976	2025-10-24T04:02:15	7.1	97.5
141977	2025-10-24T04:12:15	6.7	97.5
141978	2025-10-24T04:22:15	6.8	97.5
141979	2025-10-24T04:32:15	7.2	97.5
141980	2025-10-24T04:42:15	7.4	97.5
141981	2025-10-24T04:52:15	7.5	97.5
141982	2025-10-24T05:02:15	7.4	97.5
141983	2025-10-24T05:12:15	7.5	97.5
141984	2025-10-24T05:22:15	7.5	97.5
141985	2025-10-24T05:32:15	7	97.5
141986	2025-10-24T05:42:15	6.6	97.5
141987	2025-10-24T05:52:15	6.8	97.5
141988	2025-10-24T06:02:15	7	97.5
141989	2025-10-24T06:12:15	7	97.5
141990	2025-10-24T06:22:15	7.3	97.5
141991	2025-10-24T06:32:15	7.4	97.5
141992	2025-10-24T06:42:15	7.5	97.5
141993	2025-10-24T06:52:15	7.5	97.5
141994	2025-10-24T07:02:15	7.7	97.5
141995	2025-10-24T07:12:15	7.8	97.5
141996	2025-10-24T07:22:15	7.8	97.5
141997	2025-10-24T07:32:15	8	97.5
141998	2025-10-24T07:42:15	8	97.5
141999	2025-10-24T07:52:15	8.1	97.5
142000	2025-10-24T08:02:15	8.2	97.5
142001	2025-10-24T08:12:15	8.4	97.5
142002	2025-10-24T08:22:15	8.1	97.5
142003	2025-10-24T08:32:15	8.2	97.5
142004	2025-10-24T08:42:15	8.9	98
142005	2025-10-24T08:52:15	9.3	98
142006	2025-10-24T09:02:15	9.4	97.5
142007	2025-10-24T09:12:14	9.7	97.5
142008	2025-10-24T09:22:14	9.5	97.5
142009	2025-10-24T09:32:14	9.6	97.5
142010	2025-10-24T09:42:14	9.5	97.5
142011	2025-10-24T09:52:14	9.7	97.5
142012	2025-10-24T10:02:14	9.6	97.5
142013	2025-10-24T10:12:14	9.5	97.5
142014	2025-10-24T10:22:14	10.1	97.5
142015	2025-10-24T10:32:14	10	100
142016	2025-10-24T10:42:14	9.5	100
142017	2025-10-24T10:52:14	8.9	100
142018	2025-10-24T11:02:14	8.8	100
142019	2025-10-24T11:12:14	8	100
142020	2025-10-24T11:22:14	7.9	100
142021	2025-10-24T11:32:14	9	100
142022	2025-10-24T11:42:14	9.5	100
142023	2025-10-24T11:52:14	10.6	100
142024	2025-10-24T12:02:14	12	100
142025	2025-10-24T12:12:14	11	100
142026	2025-10-24T12:22:14	10.9	100
142027	2025-10-24T12:32:14	11.7	100
142028	2025-10-24T12:42:14	12.2	100
142029	2025-10-24T12:52:14	11.9	99.5
142030	2025-10-24T13:02:14	12.5	79.5
142031	2025-10-24T13:12:14	12.7	64.5
142032	2025-10-24T13:22:14	15.7	52
142033	2025-10-24T13:32:14	12.8	57.5
142034	2025-10-24T13:42:14	12.5	62.5
142035	2025-10-24T13:52:14	13.1	60
142036	2025-10-24T14:02:14	12.5	62.5
142037	2025-10-24T14:12:14	13.2	63
142038	2025-10-24T14:22:14	13	61.5
142039	2025-10-24T14:32:14	12.3	64.5
142040	2025-10-24T14:42:14	12.5	62.5
142041	2025-10-24T14:52:14	12.3	63
142042	2025-10-24T15:02:14	14.2	59
142043	2025-10-24T15:12:14	13.8	57.5
142044	2025-10-24T15:22:14	12.3	61.5
142045	2025-10-24T15:32:14	11.8	63
142046	2025-10-24T15:42:14	11.6	63.5
142047	2025-10-24T15:52:14	11.1	65.5
142048	2025-10-24T16:02:14	10.9	65.5
142049	2025-10-24T16:12:14	10.5	67.5
142050	2025-10-24T16:22:14	10.4	68
142051	2025-10-24T16:32:14	10.4	69
142052	2025-10-24T16:42:14	10.5	68.5
142053	2025-10-24T16:52:14	10.4	68.5
142054	2025-10-24T17:12:14	9.9	69.5
142055	2025-10-24T17:22:14	9.7	70.5
142056	2025-10-24T17:32:14	9.7	71.5
142057	2025-10-24T17:42:14	9.6	71
142058	2025-10-24T17:52:14	9.4	71
142059	2025-10-24T18:02:33	9.3	71
142060	2025-10-24T18:12:14	9.2	70.5
142061	2025-10-24T18:22:14	9.3	70
142062	2025-10-24T18:32:14	9.3	70
142063	2025-10-24T18:42:14	9.4	69.5
142064	2025-10-24T18:52:14	9.5	68.5
142065	2025-10-24T19:02:14	9.5	68.5
142066	2025-10-24T19:12:14	9.4	69
142067	2025-10-24T19:22:14	9.3	70
142068	2025-10-24T19:32:14	9.3	70.5
142069	2025-10-24T19:42:14	9.3	70
142070	2025-10-24T19:52:14	9.2	70.5
142071	2025-10-24T20:02:14	9.4	70.5
142072	2025-10-24T20:12:14	9.3	71
142073	2025-10-24T20:22:14	9.3	71
142074	2025-10-24T20:32:14	9.3	72
142075	2025-10-24T20:42:14	9.4	72.5
142076	2025-10-24T20:52:14	9.3	73.5
142077	2025-10-24T21:02:14	9.3	74
142078	2025-10-24T21:12:14	9.5	73
142079	2025-10-24T21:22:14	9.5	74
142080	2025-10-24T21:32:14	9.8	73.5
142081	2025-10-24T21:42:14	9.9	74.5
142082	2025-10-24T21:52:14	9.9	76
142083	2025-10-24T22:02:14	9.7	77.5
142084	2025-10-24T22:12:14	9.5	79
142085	2025-10-24T22:22:14	9.8	77.5
142086	2025-10-24T22:32:14	9.8	77.5
142087	2025-10-24T22:42:14	9.8	79
142088	2025-10-24T22:52:14	10	78.5
142089	2025-10-24T23:02:14	10.1	77.5
142090	2025-10-24T23:12:14	10.2	77.5
142091	2025-10-24T23:22:14	10.3	77.5
142092	2025-10-24T23:32:14	10.2	79.5
142093	2025-10-24T23:42:14	10.2	80.5
142094	2025-10-24T23:52:14	9.4	93
142095	2025-10-25T00:02:14	8.5	100
142096	2025-10-25T00:12:14	8.4	100
142097	2025-10-25T00:22:14	8.3	100
142098	2025-10-25T00:32:14	8.2	100
142099	2025-10-25T00:42:13	8.2	100
142100	2025-10-25T00:52:13	8.2	100
142101	2025-10-25T01:02:13	8.2	100
142102	2025-10-25T01:12:13	8.3	100
142103	2025-10-25T01:22:13	8.4	100
142104	2025-10-25T01:32:13	8.4	100
142105	2025-10-25T01:42:13	8.5	100
142106	2025-10-25T01:52:13	8.5	100
142107	2025-10-25T02:02:13	8.5	100
142108	2025-10-25T02:12:13	8.7	100
142109	2025-10-25T02:22:13	8.9	100
142110	2025-10-25T02:32:13	8.8	100
142111	2025-10-25T02:42:13	8.9	100
142112	2025-10-25T02:52:13	8.8	100
142113	2025-10-25T03:02:13	8.6	100
142114	2025-10-25T03:12:13	8.3	99
142115	2025-10-25T03:22:13	8	98
142116	2025-10-25T03:32:13	8.3	97.5
142117	2025-10-25T03:42:13	8.4	96.5
142118	2025-10-25T03:52:13	8.6	96.5
142119	2025-10-25T04:02:13	8.7	96.5
142120	2025-10-25T04:12:13	8.5	97
142121	2025-10-25T04:22:13	8.6	96.5
142122	2025-10-25T04:32:13	8.8	97
142123	2025-10-25T04:42:13	8.4	97
142124	2025-10-25T04:52:13	8.4	97
142125	2025-10-25T05:02:13	8.3	97
142126	2025-10-25T05:12:13	8.3	97
142127	2025-10-25T05:22:13	8.3	96.5
142128	2025-10-25T05:32:13	8.4	97
142129	2025-10-25T05:42:13	8.4	97
142130	2025-10-25T05:52:13	8.5	97
142131	2025-10-25T06:02:13	8.5	97
142132	2025-10-25T06:12:13	8.4	97
142133	2025-10-25T06:22:13	8.6	97
142134	2025-10-25T06:32:13	8.6	97
142135	2025-10-25T06:42:13	8.6	97
142136	2025-10-25T06:52:13	8.6	97
142137	2025-10-25T07:02:13	8.8	97
142138	2025-10-25T07:12:13	8.8	97
142139	2025-10-25T07:22:13	8.8	97
142140	2025-10-25T07:32:13	8.8	97
142141	2025-10-25T07:42:13	8.8	97
142142	2025-10-25T07:52:13	8.8	97
142143	2025-10-25T08:02:13	9	97.5
142144	2025-10-25T08:12:13	9	97
142145	2025-10-25T08:22:13	9.1	97
142146	2025-10-25T08:32:13	9.2	97
142147	2025-10-25T08:42:13	9.7	97.5
142148	2025-10-25T08:52:13	10	97.5
142149	2025-10-25T09:02:13	10.3	97.5
142150	2025-10-25T09:12:13	10.3	97.5
142151	2025-10-25T09:22:13	10.4	97.5
142152	2025-10-25T09:32:13	10.5	97.5
142153	2025-10-25T09:42:13	10.5	97
142154	2025-10-25T09:52:13	10.6	97.5
142155	2025-10-25T10:02:13	10.7	97.5
142156	2025-10-25T10:12:13	10.7	97.5
142157	2025-10-25T10:22:13	11	97.5
142158	2025-10-25T10:32:13	11.4	97.5
142159	2025-10-25T10:42:13	11.6	97.5
142160	2025-10-25T10:52:13	11.9	97.5
142161	2025-10-25T11:02:13	12	97.5
142162	2025-10-25T11:12:13	11.8	97
142163	2025-10-25T11:32:13	12.2	97.5
142164	2025-10-25T11:42:13	12	97.5
142165	2025-10-25T11:52:13	11.7	97.5
142166	2025-10-25T12:02:13	11.5	97
142167	2025-10-25T12:12:13	10.3	97.5
142168	2025-10-25T12:22:13	10.4	97.5
142169	2025-10-25T12:32:13	11.4	97.5
142170	2025-10-25T12:42:13	11.6	97.5
142171	2025-10-25T12:52:13	10.7	97
142172	2025-10-25T13:02:13	10.5	97.5
142173	2025-10-25T13:12:13	11.3	97.5
142174	2025-10-25T13:22:13	11.9	97.5
142175	2025-10-25T13:32:13	11.9	97.5
142176	2025-10-25T13:42:13	11.5	97.5
142177	2025-10-25T13:52:13	11.4	97
142178	2025-10-25T14:02:13	11.5	97
142179	2025-10-25T14:12:13	11.5	97.5
142180	2025-10-25T14:22:13	11.7	97.5
142181	2025-10-25T14:32:13	11.6	97.5
142182	2025-10-25T14:42:13	11.8	97.5
142183	2025-10-25T14:52:13	11.8	97.5
142184	2025-10-25T15:02:13	11.8	97.5
142185	2025-10-25T15:12:13	12.1	80
142186	2025-10-25T15:22:13	12.1	79.5
142187	2025-10-25T15:32:13	12.2	77.5
142188	2025-10-25T15:42:13	12.1	78
142189	2025-10-25T15:52:13	12.1	78
142190	2025-10-25T16:02:13	12	78
142191	2025-10-25T16:12:13	11.8	78.5
142192	2025-10-25T16:22:13	11.8	79
142193	2025-10-25T16:32:13	11.6	78.5
142194	2025-10-25T16:42:13	11.2	81.5
142195	2025-10-25T16:52:12	11	81.5
142196	2025-10-25T17:02:12	10.8	82.5
142197	2025-10-25T17:12:12	10.6	84
142198	2025-10-25T17:22:12	10.9	82.5
142199	2025-10-25T17:32:12	11	82
142200	2025-10-25T17:42:12	10.8	83
142201	2025-10-25T17:52:12	10.9	81
142202	2025-10-25T18:02:12	10.8	82.5
142203	2025-10-25T18:12:12	10.9	80.5
142204	2025-10-25T18:22:12	10.7	81.5
142205	2025-10-25T18:32:12	10.7	83
142206	2025-10-25T18:42:12	10.6	84.5
142207	2025-10-25T18:52:12	10.5	85.5
142208	2025-10-25T19:02:12	10.2	88
142209	2025-10-25T19:12:12	10	91
142210	2025-10-25T19:22:12	9.8	93
142211	2025-10-25T19:32:12	9.3	94.5
142212	2025-10-25T19:42:12	9.3	95
142213	2025-10-25T19:52:12	8.9	96
142214	2025-10-25T20:02:12	9.4	94
142215	2025-10-25T20:12:12	9.5	93.5
142216	2025-10-25T20:22:12	9.6	92.5
142217	2025-10-25T20:32:12	9.7	92
142218	2025-10-25T20:42:12	9.8	92
142219	2025-10-25T20:52:12	9.4	95
142220	2025-10-25T21:02:12	9.3	98.5
142221	2025-10-25T21:12:12	9.1	100
142222	2025-10-25T21:22:12	9.1	100
142223	2025-10-25T21:32:12	9.1	100
142224	2025-10-25T21:42:12	8.9	100
142225	2025-10-25T21:52:12	9	100
142226	2025-10-25T22:02:12	9.1	100
142227	2025-10-25T22:12:12	9.2	100
142228	2025-10-25T22:22:12	9.2	100
142229	2025-10-25T22:32:12	9.3	100
142230	2025-10-25T22:42:12	9.3	100
142231	2025-10-25T22:52:12	9.4	100
142232	2025-10-25T23:02:12	9.4	100
142233	2025-10-25T23:12:12	9.4	100
142234	2025-10-25T23:22:12	9.3	100
142235	2025-10-25T23:32:12	9.3	100
142236	2025-10-25T23:42:12	9.3	100
142237	2025-10-25T23:52:12	9.4	100
142238	2025-10-26T00:02:12	9.5	100
142239	2025-10-26T00:12:12	9	100
142240	2025-10-26T00:22:12	9.1	100
142241	2025-10-26T00:32:12	9.1	100
142242	2025-10-26T00:42:12	8.7	100
142243	2025-10-26T00:52:12	8.7	100
142244	2025-10-26T01:02:12	8.8	100
142245	2025-10-26T01:12:12	8.9	100
142246	2025-10-26T01:22:12	9	100
142247	2025-10-26T01:32:12	9	100
142248	2025-10-26T01:42:12	8.9	100
142249	2025-10-26T01:52:12	9	100
142250	2025-10-26T02:02:12	9	100
142251	2025-10-26T02:12:12	9	100
142252	2025-10-26T02:22:12	8.9	100
142253	2025-10-26T02:32:12	8.8	100
142254	2025-10-26T02:42:12	8.4	100
142255	2025-10-26T02:52:12	8.5	100
142256	2025-10-26T03:02:12	8.3	100
142257	2025-10-26T03:12:12	8.4	100
142258	2025-10-26T03:22:12	8.3	100
142259	2025-10-26T03:32:12	8.1	100
142260	2025-10-26T03:42:12	8	100
142261	2025-10-26T03:52:12	8	100
142262	2025-10-26T04:02:12	7.7	100
142263	2025-10-26T04:12:12	7.5	100
142264	2025-10-26T04:22:12	7.4	100
142265	2025-10-26T04:32:12	7.2	100
142266	2025-10-26T04:42:12	7.1	100
142267	2025-10-26T04:52:12	6.7	100
142268	2025-10-26T05:02:12	6.3	100
142269	2025-10-26T05:12:12	6.4	100
142270	2025-10-26T05:22:12	6.5	100
142271	2025-10-26T05:32:12	6.3	100
142272	2025-10-26T05:42:12	6.1	100
142273	2025-10-26T05:52:12	6	100
142274	2025-10-26T06:02:12	5.9	100
142275	2025-10-26T06:12:12	5.8	100
142276	2025-10-26T06:22:12	5.7	100
142277	2025-10-26T06:32:12	5.7	100
142278	2025-10-26T06:42:12	5.9	100
142279	2025-10-26T06:52:12	5.9	100
142280	2025-10-26T07:02:12	6.2	100
142281	2025-10-26T07:12:12	6.5	100
142282	2025-10-26T07:22:12	6.8	100
142283	2025-10-26T07:32:12	7.2	100
142284	2025-10-26T07:42:12	7.4	100
142285	2025-10-26T07:52:12	7.5	100
142286	2025-10-26T08:02:12	7.6	100
142287	2025-10-26T08:12:12	7.6	100
142288	2025-10-26T08:22:12	7.5	100
142289	2025-10-26T08:32:12	7.5	100
142290	2025-10-26T08:42:12	7.7	100
142291	2025-10-26T08:52:12	7.9	100
142292	2025-10-26T09:02:12	8	100
142293	2025-10-26T09:12:12	8.2	91.5
142294	2025-10-26T09:22:12	7.2	100
142295	2025-10-26T09:32:12	6.8	100
142296	2025-10-26T09:42:12	6.9	100
142297	2025-10-26T09:52:12	6.9	100
142298	2025-10-26T10:02:12	6.9	100
142299	2025-10-26T10:12:12	7.1	100
142300	2025-10-26T10:22:12	7.7	100
142301	2025-10-26T10:32:12	8	100
142302	2025-10-26T10:42:12	8.3	100
142303	2025-10-26T10:52:11	8.2	100
142304	2025-10-26T11:02:11	7.5	100
142305	2025-10-26T11:12:11	7.4	100
142306	2025-10-26T11:22:11	7.3	100
142307	2025-10-26T11:32:11	8	100
142308	2025-10-26T11:42:11	8.2	100
142309	2025-10-26T11:52:11	8.4	100
142310	2025-10-26T12:02:11	8.4	100
142311	2025-10-26T12:12:11	8.6	97.5
142312	2025-10-26T12:22:11	7.6	100
142313	2025-10-26T12:32:11	8.3	100
142314	2025-10-26T12:42:11	8.9	99.5
142315	2025-10-26T12:52:11	10.4	89
142316	2025-10-26T13:02:11	11.6	83
142317	2025-10-26T13:12:11	10.6	84
142318	2025-10-26T13:22:11	10.1	83.5
142319	2025-10-26T13:32:11	9.7	85.5
142320	2025-10-26T13:42:11	9.6	84.5
142321	2025-10-26T13:52:11	9.5	85.5
142322	2025-10-26T14:02:11	8.9	94.5
142323	2025-10-26T14:12:11	9.1	94.5
142324	2025-10-26T14:22:11	11.4	79
142325	2025-10-26T14:32:11	13.1	72.5
142326	2025-10-26T14:42:11	13.5	72
142327	2025-10-26T14:52:11	14.4	64
142328	2025-10-26T15:02:11	12	69
142329	2025-10-26T15:12:11	13.1	66
142330	2025-10-26T15:22:11	12.5	67
142331	2025-10-26T15:32:11	12.6	67.5
142332	2025-10-26T15:42:11	11.3	71
142333	2025-10-26T15:52:11	10.3	76
142334	2025-10-26T16:02:11	9.6	79.5
142335	2025-10-26T16:12:11	9	81.5
142336	2025-10-26T16:22:11	8.7	82.5
142337	2025-10-26T16:32:11	8.7	82.5
142338	2025-10-26T16:42:11	8.4	83.5
142339	2025-10-26T16:52:11	8.5	84
142340	2025-10-26T17:02:11	8.4	85
142341	2025-10-26T17:12:11	8.3	86
142342	2025-10-26T17:22:11	8.2	85.5
142343	2025-10-26T17:32:11	7.6	89
142344	2025-10-26T17:42:11	7.3	91
142345	2025-10-26T17:52:11	7.4	91
142346	2025-10-26T18:02:11	7.4	90
142347	2025-10-26T18:12:11	7.5	88
142348	2025-10-26T18:22:11	7.8	86
142349	2025-10-26T18:32:11	8	84
142350	2025-10-26T18:42:11	7.9	84
142351	2025-10-26T18:52:11	8	83.5
142352	2025-10-26T19:02:11	8	83.5
142353	2025-10-26T19:12:11	8	83
142354	2025-10-26T19:22:11	7.9	83.5
142355	2025-10-26T19:32:11	7.7	84
142356	2025-10-26T19:42:11	7.8	84
142357	2025-10-26T19:52:11	7.8	84
142358	2025-10-26T20:02:11	7.9	84.5
142359	2025-10-26T20:12:11	7.9	82
142360	2025-10-26T20:22:11	7.7	85
142361	2025-10-26T20:32:11	7.7	85
142362	2025-10-26T20:42:11	7.7	85
142363	2025-10-26T20:52:11	7.9	84
142364	2025-10-26T21:02:11	7.8	84
142365	2025-10-26T21:12:11	7.7	84
142366	2025-10-26T21:22:11	7.9	84
142367	2025-10-26T21:32:11	7.9	83.5
142368	2025-10-26T21:42:11	8	84
142369	2025-10-26T21:52:11	7.6	85
142370	2025-10-26T22:02:11	7.3	90
142371	2025-10-26T22:12:11	6.6	98.5
142372	2025-10-26T22:22:11	6.6	98.5
142373	2025-10-26T22:32:11	6.6	97
142374	2025-10-26T22:42:11	6.8	96.5
142375	2025-10-26T22:52:11	6.4	100
142376	2025-10-26T23:02:11	6.4	99.5
142377	2025-10-26T23:12:11	6.5	100
142378	2025-10-26T23:22:11	6.4	100
142379	2025-10-26T23:32:11	6.2	100
142380	2025-10-26T23:42:11	6.2	100
142381	2025-10-26T23:52:11	6.2	100
142382	2025-10-27T00:02:11	6.3	100
142383	2025-10-27T00:12:11	6.2	100
142384	2025-10-27T00:22:11	6.2	100
142385	2025-10-27T00:32:11	6.2	100
142386	2025-10-27T00:42:11	6.3	100
142387	2025-10-27T00:52:11	6.4	100
142388	2025-10-27T01:02:11	6.7	100
142389	2025-10-27T01:12:11	6.9	100
142390	2025-10-27T01:22:11	7	100
142391	2025-10-27T01:32:11	6.9	100
142392	2025-10-27T01:42:11	6.8	100
142393	2025-10-27T01:52:11	6.6	100
142394	2025-10-27T02:02:11	6.5	100
142395	2025-10-27T02:12:11	6.5	100
142396	2025-10-27T02:22:11	6.5	100
142397	2025-10-27T02:32:11	6.4	100
142398	2025-10-27T02:42:11	6.4	100
142399	2025-10-27T02:52:11	6.3	100
142400	2025-10-27T03:02:11	6.3	100
142401	2025-10-27T03:12:11	6.3	100
142402	2025-10-27T03:22:11	6.4	100
142403	2025-10-27T03:32:11	6.3	100
142404	2025-10-27T03:42:11	6.4	100
142405	2025-10-27T03:52:11	6.4	100
142406	2025-10-27T04:02:11	6.3	100
142407	2025-10-27T04:12:11	6.4	100
142408	2025-10-27T04:22:11	6.5	100
142409	2025-10-27T04:32:11	6.5	100
142410	2025-10-27T04:42:11	6.5	100
142411	2025-10-27T04:52:11	6.5	100
142412	2025-10-27T05:02:11	6.3	100
142413	2025-10-27T05:12:11	6.3	100
142414	2025-10-27T05:22:11	6.3	100
142415	2025-10-27T05:32:11	6.4	100
142416	2025-10-27T05:42:11	6.4	100
142417	2025-10-27T05:52:11	6.3	100
142418	2025-10-27T06:02:11	6.5	100
142419	2025-10-27T06:12:11	6.4	100
142420	2025-10-27T06:22:11	6.4	100
142421	2025-10-27T06:32:11	6.4	100
142422	2025-10-27T06:42:31	6.3	100
142423	2025-10-27T06:52:11	6.4	100
142424	2025-10-27T07:02:11	6.4	100
142425	2025-10-27T07:12:11	6.5	100
142426	2025-10-27T07:22:10	6.5	100
142427	2025-10-27T07:32:10	6.5	100
142428	2025-10-27T07:42:10	6.5	100
142429	2025-10-27T07:52:10	6.6	100
142430	2025-10-27T08:02:10	6.6	100
142431	2025-10-27T08:12:10	6.7	100
142432	2025-10-27T08:22:10	6.8	100
142433	2025-10-27T08:32:10	6.9	100
142434	2025-10-27T08:42:10	7.2	100
142435	2025-10-27T08:52:10	7.1	100
142436	2025-10-27T09:02:10	7.2	100
142437	2025-10-27T09:12:10	7.3	100
142438	2025-10-27T09:22:10	7.3	99
142439	2025-10-27T09:32:10	7.3	98.5
142440	2025-10-27T09:42:10	7.5	97.5
142441	2025-10-27T09:52:10	7.6	97
142442	2025-10-27T10:02:10	7.9	97
142443	2025-10-27T10:12:10	7.8	97
142444	2025-10-27T10:22:10	8	97
142445	2025-10-27T10:32:10	8.2	97
142446	2025-10-27T10:42:10	8.7	97
142447	2025-10-27T10:52:10	8.3	97.5
142448	2025-10-27T11:02:10	8.1	97.5
142449	2025-10-27T11:12:10	8.2	97.5
142450	2025-10-27T11:22:10	8.2	98
142451	2025-10-27T11:32:10	8	98.5
142452	2025-10-27T11:42:10	7.4	98.5
142453	2025-10-27T11:52:10	7.5	98.5
142454	2025-10-27T12:02:10	7.6	98.5
142455	2025-10-27T12:12:10	7.8	98.5
142456	2025-10-27T12:22:10	7.7	98.5
142457	2025-10-27T12:32:10	7.7	98.5
142458	2025-10-27T12:42:10	8	98.5
142459	2025-10-27T12:52:10	10.1	98.5
142460	2025-10-27T13:02:10	12.7	98.5
142461	2025-10-27T13:12:10	13.6	98.5
142462	2025-10-27T13:22:10	11.5	98.5
142463	2025-10-27T13:32:10	13.5	98.5
142464	2025-10-27T13:42:10	10.8	98.5
142465	2025-10-27T13:52:10	10.8	98.5
142466	2025-10-27T14:02:10	12.7	98.5
142467	2025-10-27T14:12:10	15.1	98.5
142468	2025-10-27T14:22:10	15.8	98.5
142469	2025-10-27T14:32:10	16.1	98.5
142470	2025-10-27T14:42:10	15.8	98.5
142471	2025-10-27T14:52:10	14.9	98.5
142472	2025-10-27T15:02:10	13.7	98.5
142473	2025-10-27T15:12:10	13.4	98.5
142474	2025-10-27T15:22:10	12.9	98.5
142475	2025-10-27T15:32:10	14.1	98
142476	2025-10-27T15:42:10	13.2	98
142477	2025-10-27T15:52:10	12.9	98
142478	2025-10-27T16:02:10	11.5	98
142479	2025-10-27T16:12:10	11.1	98
142480	2025-10-27T16:22:10	10.6	98
142481	2025-10-27T16:32:10	10.4	98
142482	2025-10-27T16:42:10	10.3	100
142483	2025-10-27T16:52:10	10.2	100
142484	2025-10-27T17:02:10	10.2	100
142485	2025-10-27T17:12:10	10.1	100
142486	2025-10-27T17:22:10	10.1	100
142487	2025-10-27T17:32:10	10.1	100
142488	2025-10-27T17:42:10	9.9	100
142489	2025-10-27T17:52:10	10	100
142490	2025-10-27T18:02:10	10.1	100
142491	2025-10-27T18:12:10	10	100
142492	2025-10-27T18:22:10	10	100
142493	2025-10-27T18:32:10	9.9	100
142494	2025-10-27T18:42:10	9.9	100
142495	2025-10-27T18:52:10	9.8	100
142496	2025-10-27T19:02:10	9.6	100
142497	2025-10-27T19:12:10	9.7	100
142498	2025-10-27T19:22:10	9.7	100
142499	2025-10-27T19:32:10	9.7	100
142500	2025-10-27T19:42:10	9.6	100
142501	2025-10-27T19:52:10	9.5	100
142502	2025-10-27T20:02:10	9.4	100
142503	2025-10-27T20:12:10	9.1	100
142504	2025-10-27T20:22:10	9.3	100
142505	2025-10-27T20:32:10	9.3	100
142506	2025-10-27T20:42:10	9.3	100
142507	2025-10-27T20:52:10	8.6	100
142508	2025-10-27T21:02:10	8.7	100
142509	2025-10-27T21:12:10	8.9	97.5
142510	2025-10-27T21:22:10	9	94
142511	2025-10-27T21:32:10	9.2	94
142512	2025-10-27T21:42:10	9.1	91.5
142513	2025-10-27T21:52:10	9.2	92
142514	2025-10-27T22:02:10	8.8	95
142515	2025-10-27T22:12:10	8.5	97
142516	2025-10-27T22:22:10	8.8	96
142517	2025-10-27T22:32:10	8.7	97.5
142518	2025-10-27T22:42:10	8.5	98.5
142519	2025-10-27T22:52:10	8.5	99.5
142520	2025-10-27T23:02:10	8.5	99.5
142521	2025-10-27T23:12:10	8.5	99
142522	2025-10-27T23:22:10	8.6	99
142523	2025-10-27T23:32:09	8.6	100
142524	2025-10-27T23:42:09	8.6	99.5
142525	2025-10-27T23:52:09	8.4	100
142526	2025-10-28T00:02:09	8.3	100
142527	2025-10-28T00:12:09	8.4	100
142528	2025-10-28T00:22:09	8.4	100
142529	2025-10-28T00:32:09	8.3	99
142530	2025-10-28T00:42:09	8.4	98
142531	2025-10-28T00:52:09	8.4	97.5
142532	2025-10-28T01:02:09	8.4	96.5
142533	2025-10-28T01:12:09	8.5	96.5
142534	2025-10-28T01:22:09	8.4	96.5
142535	2025-10-28T01:32:09	8.4	96
142536	2025-10-28T01:42:09	8.5	95
142537	2025-10-28T01:52:09	8.6	94.5
142538	2025-10-28T02:02:09	8.6	95
142539	2025-10-28T02:12:09	8.7	95
142540	2025-10-28T02:22:09	8.8	94
142541	2025-10-28T02:32:09	8.9	93.5
142542	2025-10-28T02:42:09	9	92.5
142543	2025-10-28T02:52:09	9.1	92
142544	2025-10-28T03:02:09	9.1	92
142545	2025-10-28T03:12:09	9.2	91
142546	2025-10-28T03:22:09	9.3	90.5
142547	2025-10-28T03:32:09	9.3	90
142548	2025-10-28T03:42:09	9.4	89
142549	2025-10-28T03:52:09	9.4	88.5
142550	2025-10-28T04:02:09	9.6	88
142551	2025-10-28T04:12:09	9.7	87.5
142552	2025-10-28T04:22:09	9.7	87
142553	2025-10-28T04:32:09	9.7	86.5
142554	2025-10-28T04:42:09	9.8	85.5
142555	2025-10-28T04:52:09	9.9	85.5
142556	2025-10-28T05:02:09	10	84.5
142557	2025-10-28T05:12:09	10.1	84.5
142558	2025-10-28T05:22:09	10.2	83.5
142559	2025-10-28T05:32:09	10.3	84
142560	2025-10-28T05:42:09	10.3	84
142561	2025-10-28T05:52:09	10.5	83.5
142562	2025-10-28T06:02:09	10.6	83
142563	2025-10-28T06:12:09	10.8	82.5
142564	2025-10-28T06:22:09	11	81
142565	2025-10-28T06:32:09	11.2	80.5
142566	2025-10-28T06:42:09	11.1	81
142567	2025-10-28T06:52:09	11.2	81
142568	2025-10-28T07:02:09	11.3	79.5
142569	2025-10-28T07:12:09	11.3	79.5
142570	2025-10-28T07:22:09	11.5	78.5
142571	2025-10-28T07:32:09	11.7	78.5
142572	2025-10-28T07:42:09	11.7	79.5
142573	2025-10-28T07:52:09	11.8	79.5
142574	2025-10-28T08:02:09	11.9	79.5
142575	2025-10-28T08:12:09	12.2	78
142576	2025-10-28T08:22:09	12.5	77.5
142577	2025-10-28T08:32:09	12.5	77
142578	2025-10-28T08:42:09	12.7	77
142579	2025-10-28T08:52:09	12.6	78
142580	2025-10-28T09:02:09	12.7	79
142581	2025-10-28T09:12:09	12.6	79
142582	2025-10-28T09:22:09	12.7	81
142583	2025-10-28T09:32:09	12.7	80.5
142584	2025-10-28T09:52:09	12.6	85.5
142585	2025-10-28T10:02:09	12.1	88
142586	2025-10-28T10:12:09	12.6	85.5
142587	2025-10-28T10:22:09	12.7	85.5
142588	2025-10-28T10:32:09	12.8	85
142589	2025-10-28T10:42:09	13	87
142590	2025-10-28T10:52:09	11.7	98
142591	2025-10-28T11:02:09	11.7	100
142592	2025-10-28T11:12:09	11.9	100
142593	2025-10-28T11:22:09	11.6	99
142594	2025-10-28T11:32:09	11.4	100
142595	2025-10-28T11:42:09	11.4	100
142596	2025-10-28T11:52:09	11.5	100
142597	2025-10-28T12:02:09	11.9	100
142598	2025-10-28T12:12:09	12	100
142599	2025-10-28T12:22:09	11.7	100
142600	2025-10-28T12:32:09	11.4	100
142601	2025-10-28T12:42:09	11.4	100
142602	2025-10-28T12:52:09	11.4	100
142603	2025-10-28T13:02:09	11.4	100
142604	2025-10-28T13:12:09	12.4	100
142605	2025-10-28T13:22:09	14.2	100
142606	2025-10-28T13:32:09	13.1	99.5
142607	2025-10-28T13:42:09	13	93
142608	2025-10-28T13:52:09	13.1	89.5
142609	2025-10-28T14:02:09	16.5	74
142610	2025-10-28T14:12:09	15.6	70
142611	2025-10-28T14:22:09	14.7	71.5
142612	2025-10-28T14:32:09	14.8	71
142613	2025-10-28T14:42:09	14.2	73.5
142614	2025-10-28T14:52:08	14.1	74.5
142615	2025-10-28T15:02:08	14	74.5
142616	2025-10-28T15:12:08	13.9	74.5
142617	2025-10-28T15:22:08	13.7	71
142618	2025-10-28T15:32:08	13.8	71
142619	2025-10-28T15:42:08	13.8	70.5
142620	2025-10-28T15:52:08	13.5	72
142621	2025-10-28T16:02:08	13.4	72.5
142622	2025-10-28T16:12:08	13.3	73.5
142623	2025-10-28T16:22:08	13.1	73.5
142624	2025-10-28T16:32:08	13	74.5
142625	2025-10-28T16:42:08	13	75
142626	2025-10-28T16:52:08	13	75.5
142627	2025-10-28T17:02:08	13	76.5
142628	2025-10-28T17:12:08	13.1	76
142629	2025-10-28T17:22:08	13	75.5
142630	2025-10-28T17:32:08	12.9	76.5
142631	2025-10-28T17:42:08	12.9	76.5
142632	2025-10-28T17:52:08	12.9	76.5
142633	2025-10-28T18:02:08	12.9	76.5
142634	2025-10-28T18:12:08	12.9	75
142635	2025-10-28T18:22:08	13	75
142636	2025-10-28T18:32:08	13	75
142637	2025-10-28T18:42:08	13	74.5
142638	2025-10-28T18:52:08	12.9	74.5
142639	2025-10-28T19:02:08	13	74
142640	2025-10-28T19:12:08	13.1	75
142641	2025-10-28T19:22:08	13	75.5
142642	2025-10-28T19:32:08	13.1	76
142643	2025-10-28T19:42:08	13	76.5
142644	2025-10-28T19:52:08	12.9	77.5
142645	2025-10-28T20:02:08	12.8	79
142646	2025-10-28T20:12:08	12.7	80
142647	2025-10-28T20:22:08	12.5	80.5
142648	2025-10-28T20:32:08	12.6	80.5
142649	2025-10-28T20:42:08	12.6	80
142650	2025-10-28T20:52:08	12.6	79.5
142651	2025-10-28T21:02:08	12.5	79.5
142652	2025-10-28T21:12:08	12.6	79.5
142653	2025-10-28T21:22:08	12.7	80.5
142654	2025-10-28T21:32:08	12.6	81
142655	2025-10-28T21:42:08	12.5	81.5
142656	2025-10-28T21:52:08	12.5	82
142657	2025-10-28T22:02:08	12.5	81.5
142658	2025-10-28T22:12:08	12.5	81.5
142659	2025-10-28T22:22:08	12.4	82
142660	2025-10-28T22:32:08	12.3	82.5
142661	2025-10-28T22:42:08	12.2	83
142662	2025-10-28T22:52:08	12.2	83.5
142663	2025-10-28T23:02:08	12.3	83
142664	2025-10-28T23:12:08	12.2	83.5
142665	2025-10-28T23:22:08	12.4	82.5
142666	2025-10-28T23:32:08	12.2	83
142667	2025-10-28T23:42:08	12.3	83
142668	2025-10-28T23:52:08	12.3	83
142669	2025-10-29T00:02:08	12.2	82.5
142670	2025-10-29T00:12:08	12.2	82.5
142671	2025-10-29T00:22:08	12.2	82.5
142672	2025-10-29T00:32:08	12.2	83
142673	2025-10-29T00:42:08	12	83
142674	2025-10-29T00:52:08	12.1	83
142675	2025-10-29T01:02:08	12.1	83
142676	2025-10-29T01:12:08	11.9	85
142677	2025-10-29T01:22:08	12	83
142678	2025-10-29T01:32:08	11.9	84
142679	2025-10-29T01:42:08	11.9	84
142680	2025-10-29T01:52:08	12	85.5
142681	2025-10-29T02:02:08	12	84
142682	2025-10-29T02:12:08	11.9	89
142683	2025-10-29T02:22:08	11.7	88.5
142684	2025-10-29T02:32:08	11.6	91
142685	2025-10-29T02:42:08	11.6	92
142686	2025-10-29T02:52:08	11.5	92
142687	2025-10-29T03:02:08	11.4	91.5
142688	2025-10-29T03:12:08	11.4	93
142689	2025-10-29T03:22:08	11.4	93
142690	2025-10-29T03:32:08	11.2	92
142691	2025-10-29T03:42:08	11.4	92
142692	2025-10-29T03:52:08	11.3	93.5
142693	2025-10-29T04:02:08	11.3	94.5
142694	2025-10-29T04:12:08	11.3	93.5
142695	2025-10-29T04:22:08	11.2	93.5
142696	2025-10-29T04:32:08	11.2	94
142697	2025-10-29T04:42:08	11.2	94.5
142698	2025-10-29T04:52:08	11.2	95.5
142699	2025-10-29T05:02:08	11.2	96
142700	2025-10-29T05:12:08	11	96.5
142701	2025-10-29T05:22:07	10.8	96.5
142702	2025-10-29T05:32:07	10.9	97.5
142703	2025-10-29T05:42:07	10.7	97.5
142704	2025-10-29T05:52:08	10.7	97.5
142705	2025-10-29T06:02:07	10.7	96.5
142706	2025-10-29T06:12:07	10.5	96.5
142707	2025-10-29T06:22:07	10.2	97.5
142708	2025-10-29T06:32:07	9.8	98.5
142709	2025-10-29T06:42:07	9.5	99.5
142710	2025-10-29T06:52:07	9.5	100
142711	2025-10-29T07:02:07	9.4	100
142712	2025-10-29T07:12:07	9.4	100
142713	2025-10-29T07:22:07	9.6	100
142714	2025-10-29T07:32:07	9.5	100
142715	2025-10-29T07:42:07	9.6	100
142716	2025-10-29T07:52:07	10	100
142717	2025-10-29T08:02:07	10.2	97.5
142718	2025-10-29T08:12:07	10.4	97
142719	2025-10-29T08:22:07	11	92
142720	2025-10-29T08:32:07	11.4	89.5
142721	2025-10-29T08:42:07	11.8	88.5
142722	2025-10-29T08:52:07	12	92.5
142723	2025-10-29T09:02:07	11.9	89.5
142724	2025-10-29T09:12:07	12.1	88
142725	2025-10-29T09:22:07	12.6	86.5
142726	2025-10-29T09:32:07	13.1	82.5
142727	2025-10-29T09:42:07	13.5	80
142728	2025-10-29T09:52:07	13.9	80
142729	2025-10-29T10:02:07	14.2	78.5
142730	2025-10-29T10:12:07	14.6	78.5
142731	2025-10-29T10:22:07	14.9	76.5
142732	2025-10-29T10:32:07	15.2	76
142733	2025-10-29T10:42:07	15.3	75
142734	2025-10-29T10:52:07	15.5	75
142735	2025-10-29T11:02:07	16.2	69.5
142736	2025-10-29T11:12:07	16.1	71
142737	2025-10-29T11:22:07	16.6	72
142738	2025-10-29T11:32:07	17.8	71.5
142739	2025-10-29T11:42:07	17.9	66
142740	2025-10-29T11:52:07	18.1	70.5
142741	2025-10-29T12:02:07	18.7	67
142742	2025-10-29T12:12:07	18.6	69
142743	2025-10-29T12:22:07	18.4	65.5
142744	2025-10-29T12:32:07	18.5	67.5
142745	2025-10-29T12:42:07	19.2	67.5
142746	2025-10-29T12:52:07	20.1	64
142747	2025-10-29T13:02:07	19.5	68
142748	2025-10-29T13:12:07	20.5	62.5
142749	2025-10-29T13:22:07	22.6	58
142750	2025-10-29T13:32:07	23.1	57
142751	2025-10-29T13:42:07	22.9	54
142752	2025-10-29T13:52:07	22.2	58
142753	2025-10-29T14:02:07	20.9	63.5
142754	2025-10-29T14:12:07	21.2	63
142755	2025-10-29T14:22:07	21.4	62.5
142756	2025-10-29T14:32:07	20.3	65
142757	2025-10-29T14:42:07	19.2	63
142758	2025-10-29T14:52:07	19.6	68.5
142759	2025-10-29T15:02:07	19.1	68.5
142760	2025-10-29T15:12:07	18.5	75
142761	2025-10-29T15:22:07	18	75.5
142762	2025-10-29T15:32:07	17.4	79.5
142763	2025-10-29T15:42:07	17	81.5
142764	2025-10-29T15:52:07	16.8	83
142765	2025-10-29T16:02:07	16.2	84
142766	2025-10-29T16:12:07	15.6	85
142767	2025-10-29T16:22:07	15.2	86
142768	2025-10-29T16:32:07	15	86
142769	2025-10-29T16:42:07	14.8	87
142770	2025-10-29T16:52:07	14.3	86.5
142771	2025-10-29T17:02:07	14.4	86.5
142772	2025-10-29T17:12:07	14	85.5
142773	2025-10-29T17:22:06	13.8	86.5
142774	2025-10-29T17:32:06	13.6	88.5
142775	2025-10-29T17:42:06	13.3	90
142776	2025-10-29T17:52:06	12.9	91
142777	2025-10-29T18:02:06	13	90.5
142778	2025-10-29T18:12:06	12.9	90.5
142779	2025-10-29T18:22:06	12.9	90
142780	2025-10-29T18:32:06	12.9	90.5
142781	2025-10-29T18:42:06	12.9	91
142782	2025-10-29T18:52:06	12.8	89.5
142783	2025-10-29T19:02:06	12.8	90.5
142784	2025-10-29T19:12:06	12.8	90
142785	2025-10-29T19:22:06	12.8	90.5
142786	2025-10-29T19:32:06	13	92
142787	2025-10-29T19:42:06	12.9	91.5
142788	2025-10-29T19:52:06	12.9	93.5
142789	2025-10-29T20:02:06	12.7	94.5
142790	2025-10-29T20:12:06	12.6	94
142791	2025-10-29T20:22:06	12.6	93.5
142792	2025-10-29T20:32:06	12.7	95
142793	2025-10-29T20:42:06	12.5	95.5
142794	2025-10-29T20:52:06	12.5	95
142795	2025-10-29T21:02:06	12.4	96
142796	2025-10-29T21:12:06	12.5	96
142797	2025-10-29T21:22:06	12.5	96
142798	2025-10-29T21:32:06	12.4	98.5
142799	2025-10-29T21:42:06	12.4	99
142800	2025-10-29T21:52:06	12.3	100
142801	2025-10-29T22:02:06	12.2	100
142802	2025-10-29T22:12:06	12.1	100
142803	2025-10-29T22:22:06	12.1	100
142804	2025-10-29T22:32:06	12.1	100
142805	2025-10-29T22:42:06	12.1	100
142806	2025-10-29T22:52:06	12	100
142807	2025-10-29T23:02:06	12.1	100
142808	2025-10-29T23:12:06	12.2	100
142809	2025-10-29T23:22:06	12	100
142810	2025-10-29T23:32:06	12	100
142811	2025-10-29T23:42:06	12	100
142812	2025-10-29T23:52:06	12	100
142813	2025-10-30T00:02:06	11.9	100
142814	2025-10-30T00:12:06	12	100
142815	2025-10-30T00:22:06	12	100
142816	2025-10-30T00:32:06	12	100
142817	2025-10-30T00:42:06	13	96.5
142818	2025-10-30T00:52:06	13.4	94
142819	2025-10-30T01:02:06	12.7	100
142820	2025-10-30T01:12:06	12.7	100
142821	2025-10-30T01:22:06	13	100
142822	2025-10-30T01:32:06	12.7	100
142823	2025-10-30T01:42:06	12.6	100
142824	2025-10-30T01:52:06	12.5	98
142825	2025-10-30T02:02:06	12.5	98
142826	2025-10-30T02:12:06	12.5	98
142827	2025-10-30T02:22:06	12.4	98
142828	2025-10-30T02:32:06	12.5	98
142829	2025-10-30T02:42:06	12.4	98
142830	2025-10-30T02:52:06	12.4	98
142831	2025-10-30T03:02:06	12.4	98
142832	2025-10-30T03:12:06	12.3	98
142833	2025-10-30T03:22:06	12	97.5
142834	2025-10-30T03:32:06	12	97.5
142835	2025-10-30T03:42:06	12	98
142836	2025-10-30T03:52:06	11.7	97.5
142837	2025-10-30T04:02:06	11.7	97.5
142838	2025-10-30T04:12:06	11.2	97.5
142839	2025-10-30T04:22:06	11.2	98
142840	2025-10-30T04:32:06	11.4	98
142841	2025-10-30T04:42:06	11.3	98
142842	2025-10-30T04:52:06	11.4	98
142843	2025-10-30T05:02:06	11.2	98
142844	2025-10-30T05:12:06	11.5	98
142845	2025-10-30T05:22:06	11.4	98
142846	2025-10-30T05:32:06	11.3	98
142847	2025-10-30T05:42:06	11.1	98
142848	2025-10-30T05:52:06	11.1	98
142849	2025-10-30T06:02:06	11.2	98
142850	2025-10-30T06:12:06	10.9	98
142851	2025-10-30T06:22:06	10.7	98
142852	2025-10-30T06:32:06	10.8	97.5
142853	2025-10-30T06:42:06	10.8	98
142854	2025-10-30T06:52:06	10.7	98
142855	2025-10-30T07:02:06	10.9	98
142856	2025-10-30T07:12:06	11	98
142857	2025-10-30T07:22:06	11	100
142858	2025-10-30T07:32:05	11.1	100
142859	2025-10-30T07:42:05	10.9	100
142860	2025-10-30T07:52:06	10.8	100
142861	2025-10-30T08:02:05	11	100
142862	2025-10-30T08:12:05	11.2	100
142863	2025-10-30T08:22:05	11.3	100
142864	2025-10-30T08:32:05	11.3	100
142865	2025-10-30T08:42:05	11.4	100
142866	2025-10-30T08:52:05	11.8	100
142867	2025-10-30T09:02:05	11.6	92.5
142868	2025-10-30T09:12:05	11.5	86.5
142869	2025-10-30T09:22:05	11.6	85
142870	2025-10-30T09:32:05	11.6	85.5
142871	2025-10-30T09:42:05	11.8	84.5
142872	2025-10-30T09:52:05	11.8	82.5
142873	2025-10-30T10:02:05	11.8	83
142874	2025-10-30T10:12:05	11.9	84
142875	2025-10-30T10:22:05	11.9	84
142876	2025-10-30T10:32:05	12.2	84.5
142877	2025-10-30T10:42:05	12.5	82.5
142878	2025-10-30T10:52:05	13.1	81.5
142879	2025-10-30T11:02:05	13.4	79.5
142880	2025-10-30T11:12:05	13.4	76
142881	2025-10-30T11:22:05	13.7	77
142882	2025-10-30T11:32:05	15.9	72.5
142883	2025-10-30T11:42:05	17.1	67.5
142884	2025-10-30T11:52:05	17.6	61.5
142885	2025-10-30T12:02:05	17.7	57.5
142886	2025-10-30T12:12:05	18.7	61.5
142887	2025-10-30T12:22:05	19	57
142888	2025-10-30T12:32:05	19.8	60
142889	2025-10-30T12:42:05	20.4	61
142890	2025-10-30T12:52:05	21	60
142891	2025-10-30T13:02:05	21.3	46.5
142892	2025-10-30T13:12:05	21.2	42
142893	2025-10-30T13:22:05	21.9	40.5
142894	2025-10-30T13:32:05	21.6	42
142895	2025-10-30T13:42:05	22.6	40.5
142896	2025-10-30T13:52:05	23	40.5
142897	2025-10-30T14:02:05	23	40.5
142898	2025-10-30T14:12:05	23.4	39.5
142899	2025-10-30T14:22:05	24.3	41
142900	2025-10-30T14:32:05	23	40
142901	2025-10-30T14:42:05	23.2	40
142902	2025-10-30T14:52:05	24	40.5
142903	2025-10-30T15:02:05	23.3	40
142904	2025-10-30T15:12:05	23.7	40
142905	2025-10-30T15:22:05	22.5	44
142906	2025-10-30T15:32:05	19.6	45.5
142907	2025-10-30T15:42:05	18.2	52
142908	2025-10-30T15:52:05	17.2	62
142909	2025-10-30T16:02:05	16.3	65
142910	2025-10-30T16:12:05	15.6	69
142911	2025-10-30T16:22:05	15	70
142912	2025-10-30T16:32:05	14.4	70.5
142913	2025-10-30T16:42:05	14	73
142914	2025-10-30T16:52:05	13.6	73
142915	2025-10-30T17:02:05	13.1	74.5
142916	2025-10-30T17:12:05	12.7	75.5
142917	2025-10-30T17:22:05	12.4	77.5
142918	2025-10-30T17:32:05	12.2	78
142919	2025-10-30T17:42:05	12	77
142920	2025-10-30T17:52:05	11.5	78.5
142921	2025-10-30T18:02:05	11.4	80
142922	2025-10-30T18:12:05	11.1	81
142923	2025-10-30T18:22:05	10.8	81
142924	2025-10-30T18:32:05	10.6	80.5
142925	2025-10-30T18:42:05	10.4	83
142926	2025-10-30T18:52:05	10.4	84
142927	2025-10-30T19:02:05	10.2	84
142928	2025-10-30T19:12:05	10.1	83.5
142929	2025-10-30T19:22:05	10	83.5
142930	2025-10-30T19:32:05	9.8	85
142931	2025-10-30T19:42:05	9.7	86.5
142932	2025-10-30T19:52:05	9.6	86.5
142933	2025-10-30T20:02:05	10	80.5
142934	2025-10-30T20:12:05	9.7	83
142935	2025-10-30T20:22:05	9.5	85
142936	2025-10-30T20:32:05	9.3	85
142937	2025-10-30T20:42:04	9	87.5
142938	2025-10-30T20:52:05	8.9	87
142939	2025-10-30T21:02:05	8.9	86.5
142940	2025-10-30T21:12:05	8.8	87.5
142941	2025-10-30T21:22:04	8.6	88
142942	2025-10-30T21:32:04	8.5	87
142943	2025-10-30T21:42:04	8.8	85
142944	2025-10-30T21:52:04	8.8	85
142945	2025-10-30T22:02:04	8.5	85.5
142946	2025-10-30T22:12:04	8.3	87.5
142947	2025-10-30T22:22:04	8.1	88.5
142948	2025-10-30T22:32:04	8	88
142949	2025-10-30T22:42:04	7.8	88.5
142950	2025-10-30T22:52:04	7.8	89
142951	2025-10-30T23:02:04	7.7	89
142952	2025-10-30T23:12:04	7.6	89
142953	2025-10-30T23:22:04	7.4	90.5
142954	2025-10-30T23:32:04	7.1	91
142955	2025-10-30T23:42:05	7.2	91
142956	2025-10-30T23:52:04	7	91
142957	2025-10-31T00:02:04	6.9	92
142958	2025-10-31T00:12:04	6.8	92
142959	2025-10-31T00:22:04	6.7	91.5
142960	2025-10-31T00:32:04	6.4	93
142961	2025-10-31T00:42:04	6.3	94
142962	2025-10-31T00:52:04	6.3	93.5
142963	2025-10-31T01:02:04	6.1	95
142964	2025-10-31T01:12:04	6	95
142965	2025-10-31T01:22:04	5.8	96
142966	2025-10-31T01:32:04	5.8	96.5
142967	2025-10-31T01:42:04	5.5	97
142968	2025-10-31T01:52:04	5.3	97.5
142969	2025-10-31T02:02:04	5.1	97.5
142970	2025-10-31T02:12:04	5	97.5
142971	2025-10-31T02:22:04	5	98
142972	2025-10-31T02:32:04	4.9	98
142973	2025-10-31T02:42:04	4.8	98
142974	2025-10-31T02:52:04	4.6	98
142975	2025-10-31T03:02:04	4.6	98
142976	2025-10-31T03:12:04	4.4	98
142977	2025-10-31T03:22:04	4.3	98.5
142978	2025-10-31T03:32:04	4.3	98.5
142979	2025-10-31T03:42:04	4.3	98.5
142980	2025-10-31T03:52:04	4.1	98
142981	2025-10-31T04:02:04	4	98.5
142982	2025-10-31T04:12:04	3.8	99
142983	2025-10-31T04:22:04	3.6	99
142984	2025-10-31T04:32:04	3.6	99
142985	2025-10-31T04:42:04	3.5	99.5
142986	2025-10-31T04:52:04	3.5	99.5
142987	2025-10-31T05:02:04	3.3	100
142988	2025-10-31T05:12:04	3.3	100
142989	2025-10-31T05:22:04	3.2	100
142990	2025-10-31T05:32:04	3.2	100
142991	2025-10-31T05:42:04	3	99.5
142992	2025-10-31T05:52:04	3	99.5
142993	2025-10-31T06:02:04	3	99.5
142994	2025-10-31T06:12:04	3.1	99.5
142995	2025-10-31T06:22:04	3	100
142996	2025-10-31T06:32:04	3	100
142997	2025-10-31T06:42:04	3.1	100
142998	2025-10-31T06:52:04	3.2	100
142999	2025-10-31T07:02:04	3.3	99.5
143000	2025-10-31T07:12:04	3.4	100
143001	2025-10-31T07:22:04	3.7	100
143002	2025-10-31T07:32:04	3.9	100
143003	2025-10-31T07:42:04	4.3	100
143004	2025-10-31T07:52:04	4.8	100
143005	2025-10-31T08:02:04	5	100
143006	2025-10-31T08:12:04	5.4	100
143007	2025-10-31T08:22:04	5.8	100
143008	2025-10-31T08:32:04	6.4	100
143009	2025-10-31T08:42:04	7	99.5
143010	2025-10-31T08:52:04	7.5	98
143011	2025-10-31T09:02:04	7.9	97.5
143012	2025-10-31T09:12:04	8	96.5
143013	2025-10-31T09:22:04	8.2	96.5
143014	2025-10-31T09:32:04	8.6	95.5
143015	2025-10-31T09:42:04	9.1	93.5
143016	2025-10-31T09:52:04	9.5	93
143017	2025-10-31T10:02:04	9.7	93
143018	2025-10-31T10:12:04	10.1	91
143019	2025-10-31T10:22:04	10.4	91
143020	2025-10-31T10:32:04	10.9	88.5
143021	2025-10-31T10:42:04	11.4	88.5
143022	2025-10-31T10:52:04	11.7	86
143023	2025-10-31T11:02:04	12	86.5
143024	2025-10-31T11:12:04	12.1	85
143025	2025-10-31T11:22:04	12.1	84
143026	2025-10-31T11:32:04	12.6	83
143027	2025-10-31T11:42:04	13.4	82
143028	2025-10-31T11:52:04	13.5	81
143029	2025-10-31T12:02:04	15.2	76.5
143030	2025-10-31T12:12:04	16	74.5
143031	2025-10-31T12:22:04	15.3	72.5
143032	2025-10-31T12:32:04	14.7	76
143033	2025-10-31T12:42:04	14.6	77.5
143034	2025-10-31T12:52:04	14.5	79.5
143035	2025-10-31T13:02:04	14.3	79.5
143036	2025-10-31T13:12:04	14.2	78.5
143037	2025-10-31T13:22:04	14.7	78
143038	2025-10-31T13:32:04	14.3	80.5
143039	2025-10-31T13:42:04	14.1	79.5
143040	2025-10-31T13:52:04	14	82
143041	2025-10-31T14:02:04	13.8	81.5
143042	2025-10-31T14:12:04	13.8	83.5
143043	2025-10-31T14:22:04	13.7	84.5
143044	2025-10-31T14:32:04	13.5	83
143045	2025-10-31T14:42:04	13.6	84.5
143046	2025-10-31T14:52:04	13.6	85
143047	2025-10-31T15:02:04	13.4	84
143048	2025-10-31T15:12:04	13.1	88.5
143049	2025-10-31T15:22:04	12.6	89
143050	2025-10-31T15:32:04	12.5	88
143051	2025-10-31T15:42:04	12.3	90
143052	2025-10-31T15:52:04	12	92
143053	2025-10-31T16:02:04	11.9	92.5
143054	2025-10-31T16:12:04	11.6	93.5
143055	2025-10-31T16:22:04	11.3	94
143056	2025-10-31T16:32:04	11.2	95.5
143057	2025-10-31T16:42:03	10.9	96.5
143058	2025-10-31T16:52:03	10.8	97
143059	2025-10-31T17:02:03	10.6	97.5
143060	2025-10-31T17:12:03	10.6	96.5
143061	2025-10-31T17:22:03	10.7	97
143062	2025-10-31T17:32:03	10.6	97
143063	2025-10-31T17:42:03	10.5	97.5
143064	2025-10-31T17:52:03	10.5	96.5
143065	2025-10-31T18:02:03	10.4	97
143066	2025-10-31T18:12:03	10.4	97
143067	2025-10-31T18:22:03	10.1	98
143068	2025-10-31T18:32:03	10	98.5
143069	2025-10-31T18:42:03	9.9	98.5
143070	2025-10-31T18:52:03	10	98.5
143071	2025-10-31T19:02:03	9.9	98.5
143072	2025-10-31T19:12:03	9.9	99
143073	2025-10-31T19:22:03	9.9	98.5
143074	2025-10-31T19:32:03	9.9	99
143075	2025-10-31T19:42:03	10	99.5
143076	2025-10-31T19:52:03	9.8	98.5
143077	2025-10-31T20:02:03	9.7	99
143078	2025-10-31T20:12:03	9.8	99
143079	2025-10-31T20:22:03	9.8	99
143080	2025-10-31T21:31:16	9.8	99.5
143081	2025-10-31T21:31:17	9.7	99.5
143082	2025-10-31T21:31:17	9.6	100
143083	2025-10-31T21:31:18	9.6	99.5
143084	2025-10-31T21:31:18	9.6	100
143085	2025-10-31T21:31:19	9.3	100
143086	2025-10-31T21:32:03	9.1	100
143087	2025-10-31T21:42:03	9.3	100
143088	2025-10-31T21:52:03	9.3	100
143089	2025-10-31T22:02:03	9.3	100
143090	2025-10-31T22:12:03	9.1	100
143091	2025-10-31T22:22:03	8.9	100
143092	2025-10-31T22:32:03	8.8	100
143093	2025-10-31T22:42:03	8.8	100
143094	2025-10-31T22:52:03	8.8	100
143095	2025-10-31T23:02:03	8.7	100
143096	2025-10-31T23:12:03	8.4	100
143097	2025-10-31T23:22:03	8.2	100
143098	2025-10-31T23:32:03	8.2	100
143099	2025-10-31T23:42:03	8.3	100
143100	2025-10-31T23:52:03	8.3	100
143101	2025-11-01T00:02:03	8.1	100
143102	2025-11-01T00:12:03	8	100
143103	2025-11-01T00:22:03	7.9	100
143104	2025-11-01T00:32:03	7.6	100
143105	2025-11-01T00:42:03	7.6	100
143106	2025-11-01T00:52:03	7.5	100
143107	2025-11-01T01:02:03	7.4	100
143108	2025-11-01T01:12:03	7.4	100
143109	2025-11-01T01:22:03	7.4	100
143110	2025-11-01T01:32:03	7.4	100
143111	2025-11-01T01:42:03	7.4	100
143112	2025-11-01T01:52:03	7.2	100
143113	2025-11-01T02:02:03	7.2	100
143114	2025-11-01T02:12:03	7.1	100
143115	2025-11-01T02:22:03	7.2	100
143116	2025-11-01T02:32:03	7.2	100
143117	2025-11-01T02:42:03	7.3	100
143118	2025-11-01T02:52:03	7.4	100
143119	2025-11-01T03:02:03	7.4	100
143120	2025-11-01T03:12:03	7.4	100
143121	2025-11-01T03:22:03	7.2	100
143122	2025-11-01T03:32:03	7.2	100
143123	2025-11-01T03:42:03	7.1	100
143124	2025-11-01T03:52:03	7.4	100
143125	2025-11-01T04:02:03	7.5	100
143126	2025-11-01T04:12:03	7.5	100
143127	2025-11-01T04:22:03	7.6	100
143128	2025-11-01T04:32:03	7.8	100
143129	2025-11-01T04:42:03	7.9	100
143130	2025-11-01T04:52:03	8	100
143131	2025-11-01T05:02:03	8	100
143132	2025-11-01T05:12:03	8	100
143133	2025-11-01T05:22:03	8.1	100
143134	2025-11-01T05:32:03	8.1	100
143135	2025-11-01T05:42:03	8.2	100
143136	2025-11-01T05:52:03	8.1	100
143137	2025-11-01T06:02:03	8.3	100
143138	2025-11-01T06:12:03	8.2	100
143139	2025-11-01T06:22:03	8	100
143140	2025-11-01T06:32:03	8.2	100
143141	2025-11-01T06:42:03	8.4	100
143142	2025-11-01T06:52:03	8.5	100
143143	2025-11-01T07:02:03	8.6	100
143144	2025-11-01T07:12:03	8.7	100
143145	2025-11-01T07:22:03	9	100
143146	2025-11-01T07:32:03	9.3	100
143147	2025-11-01T07:42:03	9.7	100
143148	2025-11-01T07:52:03	10.1	100
143149	2025-11-01T08:02:03	10.4	100
143150	2025-11-01T08:12:03	10.6	100
143151	2025-11-01T08:22:03	10.8	100
143152	2025-11-01T08:32:03	11.2	100
143153	2025-11-01T08:42:03	11.6	100
143154	2025-11-01T08:52:03	11.8	100
143155	2025-11-01T09:02:03	12.1	100
143156	2025-11-01T09:12:03	12.5	100
143157	2025-11-01T09:22:03	12.9	98.5
143158	2025-11-01T09:32:03	13.4	97
143159	2025-11-01T09:42:03	13.5	96.5
143160	2025-11-01T09:52:03	13.7	96
143161	2025-11-01T10:02:02	13.9	94.5
143162	2025-11-01T10:12:02	14.2	94
143163	2025-11-01T10:22:02	14.3	94
143164	2025-11-01T10:32:02	14.5	94
143165	2025-11-01T10:42:02	14.6	94
143166	2025-11-01T10:52:02	14.8	92.5
143167	2025-11-01T11:02:02	15.4	91.5
143168	2025-11-01T11:12:02	15.6	88.5
143169	2025-11-01T11:22:02	15.7	89.5
143170	2025-11-01T11:32:02	15.8	88.5
143171	2025-11-01T11:42:02	15.9	89.5
143172	2025-11-01T11:52:02	15.8	89
143173	2025-11-01T12:02:02	15.8	89.5
143174	2025-11-01T12:12:02	15.9	88
143175	2025-11-01T12:22:02	16.1	87.5
143176	2025-11-01T12:32:02	16.2	85.5
143177	2025-11-01T12:42:02	16	87
143178	2025-11-01T12:52:02	15.8	91.5
143179	2025-11-01T13:02:02	15.3	95
143180	2025-11-01T13:12:02	15.1	95
143181	2025-11-01T13:22:02	15.2	95.5
143182	2025-11-01T13:32:02	15.2	93
143183	2025-11-01T13:42:02	15	100
143184	2025-11-01T13:52:02	14.9	99
143185	2025-11-01T14:02:02	15.1	100
143186	2025-11-01T14:12:02	15	100
143187	2025-11-01T14:22:02	15.1	100
143188	2025-11-01T14:32:02	14.9	100
143189	2025-11-01T14:42:02	14.8	100
143190	2025-11-01T14:52:02	14.7	100
143191	2025-11-01T15:02:02	14.6	100
143192	2025-11-01T15:12:02	14.6	100
143193	2025-11-01T15:22:02	14.6	100
143194	2025-11-01T15:32:02	14.5	100
143195	2025-11-01T15:42:02	14.4	100
143196	2025-11-01T15:52:02	14.4	100
143197	2025-11-01T16:02:02	14.4	100
143198	2025-11-01T16:12:02	14.2	100
143199	2025-11-01T16:22:02	14.2	100
143200	2025-11-01T16:32:02	14.3	100
143201	2025-11-01T16:42:02	14.1	100
143202	2025-11-01T16:52:02	14.2	100
143203	2025-11-01T17:02:02	14.2	100
143204	2025-11-01T17:12:02	14.1	100
143205	2025-11-01T17:22:02	14.1	100
143206	2025-11-01T17:32:02	14	100
143207	2025-11-01T17:42:02	13.8	100
143208	2025-11-01T17:52:02	13.6	100
143209	2025-11-01T18:02:02	13.4	100
143210	2025-11-01T18:12:02	13.2	100
143211	2025-11-01T18:22:02	13.2	100
143212	2025-11-01T18:32:02	12.9	100
143213	2025-11-01T18:42:02	12.8	100
143214	2025-11-01T18:52:02	12.7	100
143215	2025-11-01T19:02:02	12.8	100
143216	2025-11-01T19:12:02	12.6	100
143217	2025-11-01T19:22:02	12.7	100
143218	2025-11-01T19:32:02	12.5	100
143219	2025-11-01T19:42:02	12.5	100
143220	2025-11-01T19:52:02	12.5	100
143221	2025-11-01T20:02:02	12.5	100
143222	2025-11-01T20:12:02	12.4	100
143223	2025-11-01T20:22:02	12.4	100
143224	2025-11-01T20:32:02	12.5	100
143225	2025-11-01T20:42:02	12.3	100
143226	2025-11-01T20:52:02	12.4	100
143227	2025-11-01T21:02:02	12.5	100
143228	2025-11-01T21:12:02	12.3	100
143229	2025-11-01T21:22:02	12.2	100
143230	2025-11-01T21:32:02	12.3	100
143231	2025-11-01T21:42:02	12.1	100
143232	2025-11-01T21:52:02	12	100
143233	2025-11-01T22:02:02	11.9	100
143234	2025-11-01T22:12:02	11.9	100
143235	2025-11-01T22:22:02	12	100
143236	2025-11-01T22:32:02	12	100
143237	2025-11-01T22:42:02	11.9	100
143238	2025-11-01T22:52:02	12	100
143239	2025-11-01T23:02:02	11.9	100
143240	2025-11-01T23:12:02	12	100
143241	2025-11-01T23:22:01	11.9	100
143242	2025-11-01T23:32:01	11.9	100
143243	2025-11-01T23:42:01	11.9	100
143244	2025-11-01T23:52:01	11.8	100
143245	2025-11-02T00:02:01	11.8	100
143246	2025-11-02T00:12:01	11.9	100
143247	2025-11-02T00:22:01	11.8	100
143248	2025-11-02T00:32:01	11.8	100
143249	2025-11-02T00:42:01	11.7	100
143250	2025-11-02T00:52:01	11.7	100
143251	2025-11-02T01:02:01	11.5	100
143252	2025-11-02T01:12:01	11.4	100
143253	2025-11-02T01:22:01	11.5	100
143254	2025-11-02T01:32:01	11.3	100
143255	2025-11-02T01:42:01	11.3	100
143256	2025-11-02T01:52:01	11.2	100
143257	2025-11-02T02:02:01	11	100
143258	2025-11-02T02:12:01	10.8	100
143259	2025-11-02T02:22:01	10.7	100
143260	2025-11-02T02:32:01	10.8	100
143261	2025-11-02T02:42:01	10.7	100
143262	2025-11-02T02:52:01	10.7	100
143263	2025-11-02T03:02:01	10.5	100
143264	2025-11-02T03:12:01	10.4	100
143265	2025-11-02T03:22:01	10.4	100
143266	2025-11-02T03:32:01	10.4	100
143267	2025-11-02T03:42:01	10.5	100
143268	2025-11-02T03:52:01	10.3	100
143269	2025-11-02T04:02:01	10.3	100
143270	2025-11-02T04:12:01	10.2	100
143271	2025-11-02T04:22:18	10	100
143272	2025-11-02T04:32:01	10	100
143273	2025-11-02T04:42:01	10.1	100
143274	2025-11-02T04:52:01	10	100
143275	2025-11-02T05:02:01	10	100
143276	2025-11-02T05:12:01	10	100
143277	2025-11-02T05:22:01	10	100
143278	2025-11-02T05:32:01	10.1	100
143279	2025-11-02T05:42:01	10.1	100
143280	2025-11-02T05:52:01	10	100
143281	2025-11-02T06:02:01	9.9	100
143282	2025-11-02T06:12:01	9.7	100
143283	2025-11-02T06:22:01	9.7	100
143284	2025-11-02T06:32:01	9.8	100
143285	2025-11-02T06:42:01	9.7	100
143286	2025-11-02T06:52:01	9.8	100
143287	2025-11-02T07:02:01	9.7	100
143288	2025-11-02T07:12:01	9.8	100
143289	2025-11-02T07:22:01	9.8	100
143290	2025-11-02T07:32:01	9.8	100
143291	2025-11-02T07:42:01	9.8	100
143292	2025-11-02T07:52:01	10	100
143293	2025-11-02T08:02:01	10	100
143294	2025-11-02T08:12:01	10.1	100
143295	2025-11-02T08:22:01	10.4	100
143296	2025-11-02T08:32:01	10.4	100
143297	2025-11-02T08:42:01	10.6	100
143298	2025-11-02T08:52:01	10.7	100
143299	2025-11-02T09:02:01	10.7	100
143300	2025-11-02T09:12:01	10.6	100
143301	2025-11-02T09:22:01	10.7	100
143302	2025-11-02T09:32:01	11.4	100
143303	2025-11-02T09:42:01	12.1	100
143304	2025-11-02T09:52:21	12.5	100
143305	2025-11-02T10:02:01	12.8	100
143306	2025-11-02T10:12:01	13.4	100
143307	2025-11-02T10:22:01	13.5	100
143308	2025-11-02T10:32:01	13.4	100
143309	2025-11-02T10:42:01	13.4	100
143310	2025-11-02T10:52:01	13.3	100
143311	2025-11-02T11:02:01	13.2	100
143312	2025-11-02T11:12:01	13.1	100
143313	2025-11-02T11:22:01	13	100
143314	2025-11-02T11:32:01	13	100
143315	2025-11-02T11:42:01	12.7	100
143316	2025-11-02T11:52:01	12.7	100
143317	2025-11-02T12:02:01	12.7	100
143318	2025-11-02T12:12:01	12.7	100
143319	2025-11-02T12:22:01	12.7	100
143320	2025-11-02T12:32:01	12.8	100
143321	2025-11-02T12:42:01	12.7	100
143322	2025-11-02T12:52:01	12.8	100
143323	2025-11-02T13:02:01	12.7	100
143324	2025-11-02T13:12:01	12.7	100
143325	2025-11-02T13:22:01	12.9	100
143326	2025-11-02T13:32:01	12.8	100
143327	2025-11-02T13:42:01	12.9	100
143328	2025-11-02T13:52:01	12.8	100
143329	2025-11-02T14:02:01	12.8	100
143330	2025-11-02T14:12:00	12.2	100
143331	2025-11-02T14:22:00	12.2	100
143332	2025-11-02T14:32:00	11.8	100
143333	2025-11-02T14:42:00	11.6	100
143334	2025-11-02T14:52:00	11.5	100
143335	2025-11-02T15:02:00	11.6	100
143336	2025-11-02T15:12:00	11.3	100
143337	2025-11-02T15:22:00	11.3	100
143338	2025-11-02T15:32:00	11.1	100
143339	2025-11-02T15:42:00	10.9	100
143340	2025-11-02T15:52:00	10.7	100
143341	2025-11-02T16:02:00	10.5	100
143342	2025-11-02T16:12:00	10.3	100
143343	2025-11-02T16:22:00	10.3	100
143344	2025-11-02T16:32:00	10.4	100
143345	2025-11-02T16:42:00	10.2	100
143346	2025-11-02T16:52:00	10.3	100
143347	2025-11-02T17:02:00	10.3	100
143348	2025-11-02T17:12:00	10.3	100
143349	2025-11-02T17:22:00	10	100
143350	2025-11-02T17:32:00	10.1	100
143351	2025-11-02T17:42:00	10.2	100
143352	2025-11-02T17:52:00	10.1	100
143353	2025-11-02T18:02:00	9.8	100
143354	2025-11-02T18:12:00	9.6	100
143355	2025-11-02T18:22:00	9.6	100
143356	2025-11-02T18:32:00	9.8	100
143357	2025-11-02T18:42:00	9.9	100
143358	2025-11-02T18:52:00	10	100
143359	2025-11-02T19:02:00	9.8	100
143360	2025-11-02T19:12:00	9.7	100
143361	2025-11-02T19:22:00	9.8	100
143362	2025-11-02T19:32:00	9.8	100
143363	2025-11-02T19:42:00	9.8	100
143364	2025-11-02T19:52:00	9.8	100
143365	2025-11-02T20:02:00	9.7	100
143366	2025-11-02T20:12:00	9.5	100
143367	2025-11-02T20:22:00	9.4	100
143368	2025-11-02T20:32:00	9.2	100
143369	2025-11-02T20:42:00	9	100
143370	2025-11-02T20:52:00	8.9	100
143371	2025-11-02T21:02:00	8.8	100
143372	2025-11-02T21:12:00	8.8	100
143373	2025-11-02T21:22:00	8.7	100
143374	2025-11-02T21:32:00	8.7	100
143375	2025-11-02T21:42:00	8.7	100
143376	2025-11-02T21:52:00	8.8	100
143377	2025-11-02T22:02:00	8.8	100
143378	2025-11-02T22:12:00	8.8	100
143379	2025-11-02T22:22:00	8.8	100
143380	2025-11-02T22:32:00	8.8	100
143381	2025-11-02T22:42:00	8.3	100
143382	2025-11-02T22:52:00	8.4	100
143383	2025-11-02T23:02:00	8.4	100
143384	2025-11-02T23:12:00	8.1	100
143385	2025-11-02T23:22:00	8	100
143386	2025-11-02T23:32:00	8.3	100
143387	2025-11-02T23:42:00	8.4	100
143388	2025-11-02T23:52:00	8.4	100
143389	2025-11-03T00:02:00	8.5	100
143390	2025-11-03T00:12:00	8.6	100
143391	2025-11-03T00:22:00	8.5	100
143392	2025-11-03T00:32:00	8.2	100
143393	2025-11-03T00:42:00	7.9	100
143394	2025-11-03T00:52:00	7.7	100
143395	2025-11-03T01:02:00	7.6	100
143396	2025-11-03T01:12:00	7.5	100
143397	2025-11-03T01:22:00	7.3	100
143398	2025-11-03T01:32:00	7.3	100
143399	2025-11-03T01:42:00	7.2	100
143400	2025-11-03T01:52:00	7.1	100
143401	2025-11-03T02:02:00	7.2	100
143402	2025-11-03T02:12:00	7.4	100
143403	2025-11-03T02:22:00	7.5	100
143404	2025-11-03T02:32:00	7.5	100
143405	2025-11-03T02:42:00	7.1	100
143406	2025-11-03T02:52:00	7.1	100
143407	2025-11-03T03:02:00	7.3	100
143408	2025-11-03T03:12:00	7.2	100
143409	2025-11-03T03:22:00	7.2	100
143410	2025-11-03T03:32:00	7.1	100
143411	2025-11-03T03:42:00	7	100
143412	2025-11-03T03:52:00	6.9	100
143413	2025-11-03T04:02:00	7.1	100
143414	2025-11-03T04:12:00	6.7	100
143415	2025-11-03T04:22:00	6.6	100
143416	2025-11-03T04:32:00	6.6	100
143417	2025-11-03T04:42:00	6.8	100
143418	2025-11-03T04:52:00	6.8	100
143419	2025-11-03T05:02:00	6.3	100
143420	2025-11-03T05:12:00	6.2	100
143421	2025-11-03T05:22:00	6.2	100
143422	2025-11-03T05:32:00	6	100
143423	2025-11-03T05:42:00	6.3	100
143424	2025-11-03T05:52:00	6.2	100
143425	2025-11-03T06:02:00	6.1	100
143426	2025-11-03T06:12:00	5.8	100
143427	2025-11-03T06:22:00	5.7	100
143428	2025-11-03T06:32:00	5.5	100
143429	2025-11-03T06:42:00	5.2	100
143430	2025-11-03T06:52:00	5.7	100
143431	2025-11-03T07:02:00	6.3	100
143432	2025-11-03T07:12:00	6.6	100
143433	2025-11-03T07:22:00	7.1	100
143434	2025-11-03T07:32:00	7.3	100
143435	2025-11-03T07:42:00	7.5	100
143436	2025-11-03T07:52:00	7.4	100
143437	2025-11-03T08:02:00	7.6	100
143438	2025-11-03T08:12:00	7.8	100
143439	2025-11-03T08:22:00	8.2	100
143440	2025-11-03T08:32:00	8.6	100
143441	2025-11-03T08:42:00	9	100
143442	2025-11-03T08:51:59	9.3	100
143443	2025-11-03T09:01:59	9.6	100
143444	2025-11-03T09:11:59	9.9	100
143445	2025-11-03T09:21:59	10	100
143446	2025-11-03T09:31:59	10.2	100
143447	2025-11-03T09:41:59	10.2	100
143448	2025-11-03T09:51:59	10.6	100
143449	2025-11-03T10:01:59	10.9	100
143450	2025-11-03T10:11:59	10.6	100
143451	2025-11-03T10:21:59	10.9	100
143452	2025-11-03T10:31:59	11.2	100
143453	2025-11-03T10:41:59	11.2	100
143454	2025-11-03T10:51:59	11.3	100
143455	2025-11-03T11:01:59	11.9	100
143456	2025-11-03T11:11:59	12.2	100
143457	2025-11-03T11:21:59	11.8	100
143458	2025-11-03T11:31:59	11.7	100
143459	2025-11-03T11:41:59	12.5	100
143460	2025-11-03T11:51:59	13.7	100
143461	2025-11-03T12:01:59	13.1	100
143462	2025-11-03T12:11:59	13.2	100
143463	2025-11-03T12:21:59	13.2	100
143464	2025-11-03T12:31:59	14.6	100
143465	2025-11-03T12:41:59	13.5	100
143466	2025-11-03T12:51:59	15.3	100
143467	2025-11-03T13:01:59	15.8	100
143468	2025-11-03T13:11:59	18.5	100
143469	2025-11-03T13:21:59	18.7	100
143470	2025-11-03T13:31:59	15.7	100
143471	2025-11-03T13:41:59	18.7	100
143472	2025-11-03T13:51:59	17.3	95.5
143473	2025-11-03T14:01:59	16.3	91.5
143474	2025-11-03T14:11:59	20.1	88.5
143475	2025-11-03T14:21:59	16.7	72
143476	2025-11-03T14:31:59	17.7	64.5
143477	2025-11-03T14:41:59	15.7	68.5
143478	2025-11-03T14:51:59	15	70
143479	2025-11-03T15:01:59	18.1	62.5
143480	2025-11-03T15:11:59	17.5	64.5
143481	2025-11-03T15:21:59	15.4	68.5
143482	2025-11-03T15:31:59	14.2	74.5
143483	2025-11-03T15:41:59	14	75.5
143484	2025-11-03T15:51:59	13.2	80
143485	2025-11-03T16:01:59	12.8	85.5
143486	2025-11-03T16:11:59	12.3	89.5
143487	2025-11-03T16:21:59	11.9	91
143488	2025-11-03T16:31:59	11.6	92.5
143489	2025-11-03T16:41:59	11.2	93
143490	2025-11-03T16:51:59	11.2	94
143491	2025-11-03T17:01:59	11.4	91.5
143492	2025-11-03T17:11:59	11.1	93
143493	2025-11-03T17:21:59	10.8	94.5
143494	2025-11-03T17:31:59	10.6	95.5
143495	2025-11-03T17:41:59	10.2	96.5
143496	2025-11-03T17:51:59	10.2	92.5
143497	2025-11-03T18:01:59	10	94
143498	2025-11-03T18:11:59	10	92
143499	2025-11-03T18:21:59	10.1	89.5
143500	2025-11-03T18:31:59	10.2	89.5
143501	2025-11-03T18:41:59	10.4	88
143502	2025-11-03T18:51:59	10.7	87
143503	2025-11-03T19:01:59	10.7	87
143504	2025-11-03T19:11:59	10.7	87
143505	2025-11-03T19:21:59	10.7	92
143506	2025-11-03T19:31:59	10.7	90
143507	2025-11-03T19:41:59	10.6	91.5
143508	2025-11-03T19:51:59	10.4	95
143509	2025-11-03T20:01:59	10.2	95
143510	2025-11-03T20:11:59	10.1	96
143511	2025-11-03T20:21:59	10.1	96.5
143512	2025-11-03T20:31:59	10.2	96.5
143513	2025-11-03T20:41:59	10.2	96.5
143514	2025-11-03T20:51:59	10.2	96
143515	2025-11-03T21:01:59	10.2	96
143516	2025-11-03T21:11:59	10.1	97
143517	2025-11-03T21:21:59	10	97
143518	2025-11-03T21:32:19	9.8	96.5
143519	2025-11-03T21:41:59	9.7	98
143520	2025-11-03T21:51:59	9.5	99
143521	2025-11-03T22:01:59	9.4	99.5
143522	2025-11-03T22:11:59	9.1	99.5
143523	2025-11-03T22:21:59	8.9	100
143524	2025-11-03T22:31:59	8.4	100
143525	2025-11-03T22:41:59	8.1	100
143526	2025-11-03T22:51:59	7.9	100
143527	2025-11-03T23:01:59	7.7	100
143528	2025-11-03T23:11:59	7.6	100
143529	2025-11-03T23:21:59	7.9	100
143530	2025-11-03T23:31:59	7.7	100
143531	2025-11-03T23:41:58	7.3	100
143532	2025-11-03T23:51:58	7.1	100
143533	2025-11-04T00:01:58	7.1	100
143534	2025-11-04T00:11:58	6.9	100
143535	2025-11-04T00:21:58	6.8	100
143536	2025-11-04T00:31:58	6.6	100
143537	2025-11-04T00:41:59	6.5	100
143538	2025-11-04T00:51:58	6.3	100
143539	2025-11-04T01:01:58	6.2	100
143540	2025-11-04T01:11:58	5.9	100
143541	2025-11-04T01:21:58	5.7	100
143542	2025-11-04T01:31:58	5.8	100
143543	2025-11-04T01:41:58	5.6	100
143544	2025-11-04T01:51:58	5.5	100
143545	2025-11-04T02:01:58	5.4	100
143546	2025-11-04T02:11:58	5.2	100
143547	2025-11-04T02:21:58	5.1	100
143548	2025-11-04T02:31:58	5	100
143549	2025-11-04T02:41:58	5	100
143550	2025-11-04T02:51:58	4.9	100
143551	2025-11-04T03:01:58	4.9	100
143552	2025-11-04T03:11:58	4.7	100
143553	2025-11-04T03:21:58	4.4	100
143554	2025-11-04T03:32:19	4.4	100
143555	2025-11-04T03:41:58	4.3	100
143556	2025-11-04T03:51:58	4.1	100
143557	2025-11-04T04:01:58	4	100
143558	2025-11-04T04:11:58	4	100
143559	2025-11-04T04:21:58	3.9	100
143560	2025-11-04T04:31:58	3.9	100
143561	2025-11-04T04:41:58	3.8	100
143562	2025-11-04T04:51:58	3.6	100
143563	2025-11-04T05:01:58	3.6	100
143564	2025-11-04T05:11:58	3.4	100
143565	2025-11-04T05:21:58	3.3	100
143566	2025-11-04T05:31:58	3.3	100
143567	2025-11-04T05:41:58	3.2	100
143568	2025-11-04T05:51:58	3.2	100
143569	2025-11-04T06:01:58	3.2	100
143570	2025-11-04T06:11:58	3.2	100
143571	2025-11-04T06:21:58	3.3	100
143572	2025-11-04T06:31:58	3.3	100
143573	2025-11-04T06:41:58	3.3	100
143574	2025-11-04T06:51:58	3.4	100
143575	2025-11-04T07:01:58	3.5	100
143576	2025-11-04T07:11:58	3.6	100
143577	2025-11-04T07:21:58	4	100
143578	2025-11-04T07:31:58	4	100
143579	2025-11-04T07:41:58	4.3	100
143580	2025-11-04T07:51:58	4.4	100
143581	2025-11-04T08:01:58	4.6	100
143582	2025-11-04T08:11:58	4.9	100
143583	2025-11-04T08:21:58	5.2	100
143584	2025-11-04T08:31:58	5.4	100
143585	2025-11-04T08:41:58	5.6	100
143586	2025-11-04T08:51:58	5.8	100
143587	2025-11-04T09:01:58	6.1	100
143588	2025-11-04T09:11:58	6.4	100
143589	2025-11-04T09:21:58	6.6	100
143590	2025-11-04T09:31:58	6.9	100
143591	2025-11-04T09:41:58	7.2	100
143592	2025-11-04T09:51:58	7.5	100
143593	2025-11-04T10:01:58	7.8	100
143594	2025-11-04T10:11:58	7.9	100
143595	2025-11-04T10:21:58	8.2	100
143596	2025-11-04T10:31:58	8.4	100
143597	2025-11-04T10:41:58	8.8	100
143598	2025-11-04T10:51:58	9.3	99.5
143599	2025-11-04T11:01:58	10.3	97
143600	2025-11-04T11:11:58	10.5	94.5
143601	2025-11-04T11:21:58	11.2	94
143602	2025-11-04T11:31:58	13.7	86.5
143603	2025-11-04T11:41:58	16	79.5
143604	2025-11-04T11:51:58	17.7	75
143605	2025-11-04T12:01:58	18.7	69
143606	2025-11-04T12:11:58	20	66.5
143607	2025-11-04T12:21:58	21.1	63.5
143608	2025-11-04T12:31:58	21.4	62.5
143609	2025-11-04T12:41:58	21.4	56.5
143610	2025-11-04T12:51:58	21.3	57.5
143611	2025-11-04T13:01:58	20.4	58
143612	2025-11-04T13:11:58	21.2	55.5
143613	2025-11-04T13:21:58	22.1	56
143614	2025-11-04T13:31:58	23.8	52.5
143615	2025-11-04T13:41:58	24.2	50.5
143616	2025-11-04T13:51:58	24.1	49.5
143617	2025-11-04T14:01:58	25	52
143618	2025-11-04T14:11:58	25.6	47.5
143619	2025-11-04T14:21:58	25.4	50.5
143620	2025-11-04T14:31:58	24.8	48.5
143621	2025-11-04T14:41:58	23	55
143622	2025-11-04T14:51:58	22.8	53
143623	2025-11-04T15:01:58	23.9	50.5
143624	2025-11-04T15:11:58	23.6	52
143625	2025-11-04T15:21:58	22.8	55
143626	2025-11-04T15:31:58	20.2	60
143627	2025-11-04T15:41:58	18.7	66
143628	2025-11-04T15:51:58	17.5	70
143629	2025-11-04T16:01:58	16.6	74
143630	2025-11-04T16:11:58	15.9	76.5
143631	2025-11-04T16:21:58	15.2	76.5
143632	2025-11-04T16:31:58	14.8	78.5
143633	2025-11-04T16:41:58	14.2	79
143634	2025-11-04T16:51:58	13.8	80.5
143635	2025-11-04T17:01:58	13.4	82
143636	2025-11-04T17:11:58	13.1	83.5
143637	2025-11-04T17:21:58	12.6	83
143638	2025-11-04T17:31:58	12.2	84.5
143639	2025-11-04T17:41:57	11.9	85
143640	2025-11-04T17:51:57	11.6	85.5
143641	2025-11-04T18:01:57	11.4	86
143642	2025-11-04T18:11:57	11.1	86
143643	2025-11-04T18:21:57	10.8	87
143644	2025-11-04T18:31:57	10.5	87
143645	2025-11-04T18:41:57	10.5	87.5
143646	2025-11-04T18:51:57	10.1	87
143647	2025-11-04T19:01:57	9.9	88.5
143648	2025-11-04T19:11:57	9.7	89
143649	2025-11-04T19:21:57	9.5	89
143650	2025-11-04T19:31:57	9.1	89
143651	2025-11-04T19:41:57	9	89.5
143652	2025-11-04T19:51:57	8.8	89.5
143653	2025-11-04T20:01:57	8.5	89.5
143654	2025-11-04T20:11:57	8.3	91
143655	2025-11-04T20:21:57	8.3	90.5
143656	2025-11-04T20:31:57	8	91.5
143657	2025-11-04T20:41:57	7.9	91
143658	2025-11-04T20:51:57	7.8	93
143659	2025-11-04T21:01:57	7.6	92.5
143660	2025-11-04T21:11:57	7.4	92.5
143661	2025-11-04T21:21:57	7.3	93
143662	2025-11-04T21:31:57	7.1	93.5
143663	2025-11-04T21:41:57	7	93.5
143664	2025-11-04T21:51:57	6.8	93
143665	2025-11-04T22:01:57	6.6	93.5
143666	2025-11-04T22:11:57	6.4	94
143667	2025-11-04T22:21:57	6.3	94.5
143668	2025-11-04T22:31:57	6.1	94.5
143669	2025-11-04T22:41:57	6	95
143670	2025-11-04T22:51:57	5.9	95.5
143671	2025-11-04T23:01:57	5.8	95.5
143672	2025-11-04T23:11:57	5.6	95.5
143673	2025-11-04T23:21:57	5.5	95.5
143674	2025-11-04T23:31:57	5.4	95.5
143675	2025-11-04T23:41:57	5.2	95.5
143676	2025-11-04T23:51:57	5.1	96.5
143677	2025-11-05T00:01:57	4.9	96.5
143678	2025-11-05T00:11:57	4.8	96.5
143679	2025-11-05T00:21:57	4.8	97
143680	2025-11-05T00:31:57	4.6	97
143681	2025-11-05T00:41:57	4.5	97.5
143682	2025-11-05T00:51:57	4.3	97
143683	2025-11-05T01:01:57	4.2	97.5
143684	2025-11-05T01:11:57	4.1	97.5
143685	2025-11-05T01:21:57	4.1	98
143686	2025-11-05T01:31:57	3.9	98
143687	2025-11-05T01:41:57	3.8	98.5
143688	2025-11-05T01:51:57	3.7	99
143689	2025-11-05T02:01:57	3.6	98
143690	2025-11-05T02:11:57	3.5	98
143691	2025-11-05T02:21:57	3.4	98.5
143692	2025-11-05T02:31:57	3.6	100
143693	2025-11-05T02:41:57	3.6	100
143694	2025-11-05T02:51:57	3.5	100
143695	2025-11-05T03:01:57	3.3	100
143696	2025-11-05T03:11:57	3.1	100
143697	2025-11-05T03:21:57	3.1	100
143698	2025-11-05T03:31:57	3	100
143699	2025-11-05T03:41:57	3	100
143700	2025-11-05T03:51:57	3	99.5
143701	2025-11-05T04:01:57	2.9	100
143702	2025-11-05T04:11:57	2.7	100
143703	2025-11-05T04:21:57	2.6	100
143704	2025-11-05T04:31:57	2.7	100
143705	2025-11-05T04:41:57	2.6	100
143706	2025-11-05T04:51:57	2.3	100
143707	2025-11-05T05:01:57	2.4	100
143708	2025-11-05T05:11:57	2.2	100
143709	2025-11-05T05:21:57	2.2	100
143710	2025-11-05T05:31:57	2.2	100
143711	2025-11-05T05:41:57	2.1	100
143712	2025-11-05T05:51:57	2.1	100
143713	2025-11-05T06:01:57	2	100
143714	2025-11-05T06:11:57	1.9	100
143715	2025-11-05T06:21:57	1.8	100
143716	2025-11-05T06:32:15	1.9	100
143717	2025-11-05T06:41:57	2	100
143718	2025-11-05T06:51:57	2.1	100
143719	2025-11-05T07:01:57	2.4	100
143720	2025-11-05T07:11:57	2.4	100
143721	2025-11-05T07:21:57	2.4	100
143722	2025-11-05T07:31:57	2.6	100
143723	2025-11-05T07:41:57	2.9	100
143724	2025-11-05T07:51:57	3.1	100
143725	2025-11-05T08:01:57	3.3	100
143726	2025-11-05T08:11:57	3.6	100
143727	2025-11-05T08:21:57	3.9	100
143728	2025-11-05T08:31:57	4.5	100
143729	2025-11-05T08:41:57	4.8	100
143730	2025-11-05T08:51:57	5.1	100
143731	2025-11-05T09:01:57	5.4	100
143732	2025-11-05T09:11:57	5.7	100
143733	2025-11-05T09:21:57	6.1	100
143734	2025-11-05T09:31:57	6.7	100
143735	2025-11-05T09:41:57	7	100
143736	2025-11-05T09:51:57	7.4	100
143737	2025-11-05T10:01:57	7.8	100
143738	2025-11-05T10:11:57	8.3	99.5
143739	2025-11-05T10:21:57	8.7	98
143740	2025-11-05T10:31:57	9.1	97
143741	2025-11-05T10:41:57	9.7	95
143742	2025-11-05T10:51:57	10.3	94
143743	2025-11-05T11:01:57	11	90
143744	2025-11-05T11:11:57	11.4	88.5
143745	2025-11-05T11:21:57	12.4	85.5
143746	2025-11-05T11:31:57	13.7	78
143747	2025-11-05T11:41:57	14.7	76
143748	2025-11-05T11:51:57	15.7	72.5
143749	2025-11-05T12:01:57	16.4	68.5
143750	2025-11-05T12:11:57	17.4	67.5
143751	2025-11-05T12:21:57	18.1	64.5
143752	2025-11-05T12:31:57	18.1	66
143753	2025-11-05T12:41:57	17.4	66.5
143754	2025-11-05T12:51:57	17.4	68.5
143755	2025-11-05T13:01:57	18.4	65.5
143756	2025-11-05T13:11:57	17.5	68.5
143757	2025-11-05T13:21:57	18.1	70.5
143758	2025-11-05T13:31:57	18.8	67
143759	2025-11-05T13:41:57	23.9	55
143760	2025-11-05T13:51:57	26.5	48.5
143761	2025-11-05T14:01:57	25.7	46.5
143762	2025-11-05T14:11:57	24.9	48.5
143763	2025-11-05T14:21:57	25.2	48.5
143764	2025-11-05T14:31:57	25.4	48
143765	2025-11-05T14:41:57	25.6	49
143766	2025-11-05T14:51:56	24.2	48.5
143767	2025-11-05T15:01:56	23.1	51
143768	2025-11-05T15:11:56	23.3	53
143769	2025-11-05T15:21:56	22	54
143770	2025-11-05T15:31:56	20.6	57
143771	2025-11-05T15:41:56	18.1	64.5
143772	2025-11-05T15:51:56	16.9	70.5
143773	2025-11-05T16:01:56	15.9	72.5
143774	2025-11-05T16:11:56	15.2	75.5
143775	2025-11-05T16:21:56	14.6	77
143776	2025-11-05T16:31:56	14.2	77
143777	2025-11-05T16:41:56	13.4	78.5
143778	2025-11-05T16:51:56	13.1	80
143779	2025-11-05T17:01:56	12.6	81
143780	2025-11-05T17:11:56	12.1	82
143781	2025-11-05T17:21:56	11.9	83
143782	2025-11-05T17:31:56	11.6	82
143783	2025-11-05T17:41:56	11.3	84
143784	2025-11-05T17:51:56	10.9	84.5
143785	2025-11-05T18:01:56	10.7	85
143786	2025-11-05T18:11:56	10.4	83.5
143787	2025-11-05T18:22:15	10	86
143788	2025-11-05T18:31:56	9.6	85.5
143789	2025-11-05T18:41:56	9.5	86
143790	2025-11-05T18:51:56	9.1	87
143791	2025-11-05T19:01:56	9	86.5
143792	2025-11-05T19:11:56	8.7	88
143793	2025-11-05T19:21:56	8.4	88.5
143794	2025-11-05T19:31:56	8.2	89.5
143795	2025-11-05T19:41:56	8	89
143796	2025-11-05T19:51:56	7.7	89.5
143797	2025-11-05T20:01:56	7.6	89.5
143798	2025-11-05T20:11:56	7.4	89.5
143799	2025-11-05T20:21:56	7.2	89.5
143800	2025-11-05T20:31:56	7	89.5
143801	2025-11-05T20:41:56	6.8	90
143802	2025-11-05T20:51:56	6.5	91
143803	2025-11-05T21:01:56	6.4	91
143804	2025-11-05T21:11:56	6.2	90.5
143805	2025-11-05T21:21:56	5.9	91.5
143806	2025-11-05T21:31:56	5.9	91.5
143807	2025-11-05T21:41:56	5.6	91.5
143808	2025-11-05T21:51:56	5.5	93
143809	2025-11-05T22:01:56	5.5	92
143810	2025-11-05T22:11:56	5.2	92.5
143811	2025-11-05T22:21:56	5.1	92.5
143812	2025-11-05T22:31:56	4.9	93
143813	2025-11-05T22:41:56	4.8	92.5
143814	2025-11-05T22:51:56	4.6	93
143815	2025-11-05T23:01:56	4.5	93
143816	2025-11-05T23:11:56	4.4	93
143817	2025-11-05T23:21:56	4.3	93.5
143818	2025-11-05T23:31:56	4.1	93.5
143819	2025-11-05T23:41:56	4	94
143820	2025-11-05T23:51:56	3.9	94
143821	2025-11-06T00:01:56	3.8	94
143822	2025-11-06T00:11:56	3.7	94.5
143823	2025-11-06T00:21:56	3.6	94.5
143824	2025-11-06T00:31:56	3.5	94.5
143825	2025-11-06T00:41:56	3.4	94.5
143826	2025-11-06T00:51:56	3.3	94.5
143827	2025-11-06T01:01:56	3	95
143828	2025-11-06T01:11:56	3.1	95
143829	2025-11-06T01:21:56	3	95.5
143830	2025-11-06T01:31:56	2.8	95.5
143831	2025-11-06T01:41:56	2.8	95.5
143832	2025-11-06T01:51:56	2.7	95.5
143833	2025-11-06T02:01:56	2.5	95.5
143834	2025-11-06T02:11:56	2.4	96
143835	2025-11-06T02:21:56	2.3	96.5
143836	2025-11-06T02:31:56	2	96
143837	2025-11-06T02:41:56	2.1	97
143838	2025-11-06T02:51:56	2	97
143839	2025-11-06T03:01:56	2	97
143840	2025-11-06T03:11:56	1.9	97
143841	2025-11-06T03:21:56	1.9	97
143842	2025-11-06T03:31:56	1.8	96.5
143843	2025-11-06T03:41:56	1.7	97
143844	2025-11-06T03:51:56	1.6	97.5
143845	2025-11-06T04:02:14	1.8	98
143846	2025-11-06T04:11:56	1.8	99
143847	2025-11-06T04:21:56	1.8	99
143848	2025-11-06T04:31:56	2	98.5
143849	2025-11-06T04:41:56	2	98.5
143850	2025-11-06T04:51:56	1.9	98
143851	2025-11-06T05:01:56	1.9	98.5
143852	2025-11-06T05:11:56	1.9	98.5
143853	2025-11-06T05:21:56	1.7	99.5
143854	2025-11-06T05:31:56	2	99
143855	2025-11-06T05:41:56	1.9	99
143856	2025-11-06T05:51:56	2	99
143857	2025-11-06T06:01:56	2.2	98
143858	2025-11-06T06:11:56	2.1	98.5
143859	2025-11-06T06:21:56	2.4	100
143860	2025-11-06T06:31:56	2.3	99
143861	2025-11-06T06:41:56	2.3	100
143862	2025-11-06T06:51:56	2.6	100
143863	2025-11-06T07:01:56	2.7	100
143864	2025-11-06T07:11:56	2.7	100
143865	2025-11-06T07:21:56	3.1	100
143866	2025-11-06T07:31:56	3.4	100
143867	2025-11-06T07:41:56	3.6	99.5
143868	2025-11-06T07:51:56	3.9	100
143869	2025-11-06T08:01:56	4	99.5
143870	2025-11-06T08:11:56	4.4	100
143871	2025-11-06T08:21:56	4.6	99.5
143872	2025-11-06T08:31:56	4.8	100
143873	2025-11-06T08:41:56	5.1	100
143874	2025-11-06T09:01:56	5.4	100
143875	2025-11-06T09:11:56	5.8	99
143876	2025-11-06T09:21:56	6.6	97
143877	2025-11-06T09:31:56	6.4	97
143878	2025-11-06T09:41:56	6.9	96
143879	2025-11-06T09:51:56	7.2	95
143880	2025-11-06T10:01:56	7.3	95.5
143881	2025-11-06T10:11:56	7.6	94.5
143882	2025-11-06T10:21:56	8.3	92
143883	2025-11-06T10:31:56	8.1	91.5
143884	2025-11-06T10:41:56	8.7	92
143885	2025-11-06T10:51:56	9.1	90
143886	2025-11-06T11:01:56	9.2	89
143887	2025-11-06T11:11:56	9.3	88.5
143888	2025-11-06T11:21:56	9.5	88
143889	2025-11-06T11:31:56	10	88.5
143890	2025-11-06T11:41:56	11.7	82.5
143891	2025-11-06T11:51:56	11.8	81
143892	2025-11-06T12:01:56	13.2	77
143893	2025-11-06T12:11:56	13.9	73.5
143894	2025-11-06T12:21:56	14.9	72
143895	2025-11-06T12:31:56	13.8	75
143896	2025-11-06T12:41:56	15.7	71
143897	2025-11-06T12:51:56	16.9	64
143898	2025-11-06T13:01:56	17.2	64.5
143899	2025-11-06T13:11:56	16.4	65
143900	2025-11-06T13:21:56	16.1	65.5
143901	2025-11-06T13:31:55	16.5	66.5
143902	2025-11-06T13:41:55	16.2	66
143903	2025-11-06T13:51:55	18.4	63
143904	2025-11-06T14:01:55	20.2	56.5
143905	2025-11-06T14:11:55	21.1	53
143906	2025-11-06T14:21:55	21	53.5
143907	2025-11-06T14:31:55	19.3	56.5
143908	2025-11-06T14:41:55	19.3	56
143909	2025-11-06T14:51:55	17.3	61
143910	2025-11-06T15:01:55	14.5	70
143911	2025-11-06T15:11:55	13.3	73.5
143912	2025-11-06T15:21:55	12.3	78.5
143913	2025-11-06T15:31:55	11.6	80.5
143914	2025-11-06T15:41:55	10.6	82.5
143915	2025-11-06T15:51:55	9.9	85
143916	2025-11-06T16:01:55	9.6	87.5
143917	2025-11-06T16:11:55	9.6	86.5
143918	2025-11-06T16:21:55	9.4	88.5
143919	2025-11-06T16:31:55	9.6	87.5
143920	2025-11-06T16:41:55	9.4	88.5
143921	2025-11-06T16:51:55	9.4	89.5
143922	2025-11-06T17:01:55	9.5	89
143923	2025-11-06T17:11:55	9.7	89.5
143924	2025-11-06T17:21:55	9.2	91
143925	2025-11-06T17:31:55	8.9	91
143926	2025-11-06T17:41:55	8	91
143927	2025-11-06T17:51:55	8	94
143928	2025-11-06T18:01:55	8.1	93.5
143929	2025-11-06T18:11:55	7.6	92
143930	2025-11-06T18:21:55	7.2	93
143931	2025-11-06T18:31:55	7	95
143932	2025-11-06T18:41:55	7.1	97
143933	2025-11-06T18:51:55	7.2	97.5
143934	2025-11-06T19:01:55	7.1	97
143935	2025-11-06T19:11:55	7.1	97
143936	2025-11-06T19:21:55	7.4	97
143937	2025-11-06T19:31:55	7.4	97
143938	2025-11-06T19:41:55	7.4	96
143939	2025-11-06T19:51:55	7.3	95
143940	2025-11-06T20:01:55	7.2	96
143941	2025-11-06T20:11:55	7.3	96
143942	2025-11-06T20:21:55	7.2	96.5
143943	2025-11-06T20:31:55	7.3	97
143944	2025-11-06T20:41:55	7.4	96
143945	2025-11-06T20:51:55	7.2	94.5
143946	2025-11-06T21:01:55	7.2	94.5
143947	2025-11-06T21:11:55	7.1	95
143948	2025-11-06T21:21:55	6.9	94.5
143949	2025-11-06T21:31:55	6.9	95
143950	2025-11-06T21:41:55	6.8	94.5
143951	2025-11-06T21:51:55	6.8	95.5
143952	2025-11-06T22:01:55	6.4	94
143953	2025-11-06T22:11:55	6.4	94
143954	2025-11-06T22:21:55	6.5	94
143955	2025-11-06T22:31:55	6.4	94.5
143956	2025-11-06T22:41:55	6.2	95
143957	2025-11-06T22:51:55	6.1	95
143958	2025-11-06T23:01:55	6.2	95.5
143959	2025-11-06T23:11:55	6.2	95
143960	2025-11-06T23:21:55	6	96
143961	2025-11-06T23:31:55	6.1	95.5
143962	2025-11-06T23:41:55	6.1	96
143963	2025-11-06T23:51:55	6	96.5
143964	2025-11-07T00:01:55	6.1	96.5
143965	2025-11-07T00:11:55	6	96
143966	2025-11-07T00:21:55	6.1	95.5
143967	2025-11-07T00:31:55	6	94.5
143968	2025-11-07T00:41:55	5.9	93.5
143969	2025-11-07T00:51:55	5.9	93.5
143970	2025-11-07T01:01:55	5.8	93
143971	2025-11-07T01:11:55	5.8	93
143972	2025-11-07T01:21:55	5.6	92.5
143973	2025-11-07T01:31:55	5.6	92.5
143974	2025-11-07T01:41:55	5.5	91.5
143975	2025-11-07T01:51:55	5.5	91
143976	2025-11-07T02:01:55	5.1	92
143977	2025-11-07T02:11:55	4.7	92
143978	2025-11-07T02:21:55	4.3	93.5
143979	2025-11-07T02:31:55	3.8	94.5
143980	2025-11-07T02:41:55	3.5	94.5
143981	2025-11-07T02:51:55	3.2	94.5
143982	2025-11-07T03:01:55	3	96.5
143983	2025-11-07T03:11:55	2.7	96.5
143984	2025-11-07T03:21:55	2.8	97
143985	2025-11-07T03:31:55	2.9	96.5
143986	2025-11-07T03:41:55	3.1	95.5
143987	2025-11-07T03:51:55	2.8	95.5
143988	2025-11-07T04:01:55	2.3	96.5
143989	2025-11-07T04:11:55	2.1	96.5
143990	2025-11-07T04:21:55	2.1	96
143991	2025-11-07T04:31:55	2.1	95
143992	2025-11-07T04:41:55	2.5	94
143993	2025-11-07T04:51:55	2.6	93
143994	2025-11-07T05:01:55	2.8	94
143995	2025-11-07T05:11:55	2.4	93.5
143996	2025-11-07T05:21:55	2.3	93
143997	2025-11-07T05:31:55	2.2	93.5
143998	2025-11-07T05:41:55	2.2	93.5
143999	2025-11-07T05:51:55	2.2	95
144000	2025-11-07T06:01:55	2.4	96.5
144001	2025-11-07T06:11:55	2.6	96.5
144002	2025-11-07T06:21:55	2.8	96
144003	2025-11-07T06:31:55	2.9	97
144004	2025-11-07T06:41:55	3.1	96
144005	2025-11-07T06:51:55	3.1	95
144006	2025-11-07T07:01:55	3.3	93
144007	2025-11-07T07:11:55	3.4	94
144008	2025-11-07T07:21:55	3.4	93
144009	2025-11-07T07:31:55	3.6	93
144010	2025-11-07T07:41:55	3.8	94
144011	2025-11-07T07:51:55	4	92.5
144012	2025-11-07T08:01:55	4.2	92
144013	2025-11-07T08:11:55	4.4	91
144014	2025-11-07T08:21:55	4.6	90.5
144015	2025-11-07T08:31:55	4.8	90.5
144016	2025-11-07T08:41:55	4.9	90
144017	2025-11-07T08:51:55	5.2	91.5
144018	2025-11-07T09:01:55	5.3	90.5
144019	2025-11-07T09:11:55	5.7	89.5
144020	2025-11-07T09:21:55	5.8	89.5
144021	2025-11-07T09:31:55	6	88.5
144022	2025-11-07T09:41:55	6.6	87.5
144023	2025-11-07T09:51:55	6.8	86
144024	2025-11-07T10:01:55	6.8	86
144025	2025-11-07T10:11:55	7.2	85.5
144026	2025-11-07T10:21:55	7.4	84.5
144027	2025-11-07T10:31:55	7.5	83
144028	2025-11-07T10:41:55	7.4	85
144029	2025-11-07T10:51:55	8.6	82.5
144030	2025-11-07T11:01:55	9.6	77.5
144031	2025-11-07T11:11:55	9.1	78.5
144032	2025-11-07T11:21:55	8.2	81
144033	2025-11-07T11:31:55	8.3	81
144034	2025-11-07T11:41:54	8.7	80.5
144035	2025-11-07T11:51:54	8.7	81
144036	2025-11-07T12:01:54	8.6	81.5
144037	2025-11-07T12:11:54	8.5	80.5
144038	2025-11-07T12:21:54	8.6	82
144039	2025-11-07T12:31:54	8	82.5
144040	2025-11-07T12:41:54	8.1	83.5
144041	2025-11-07T12:51:54	8	83
144042	2025-11-07T13:01:54	8	83.5
144043	2025-11-07T13:11:54	7.8	83.5
144044	2025-11-07T13:21:54	7.7	84.5
144045	2025-11-07T13:31:54	7.7	84.5
144046	2025-11-07T13:41:54	7.7	84.5
144047	2025-11-07T13:51:54	7.5	85.5
144048	2025-11-07T14:01:54	7.4	86
144049	2025-11-07T14:11:54	7.4	86
144050	2025-11-07T14:21:54	7.4	86.5
144051	2025-11-07T14:31:54	7.4	88
144052	2025-11-07T14:41:54	7.5	88
144053	2025-11-07T14:51:54	7.3	87.5
144054	2025-11-07T15:01:54	7.3	89
144055	2025-11-07T15:11:54	7.1	88
144056	2025-11-07T15:21:54	7	89
144057	2025-11-07T15:31:54	7.1	90
144058	2025-11-07T15:41:54	6.9	90.5
144059	2025-11-07T15:51:54	6.9	91
144060	2025-11-07T16:01:54	6.7	90
144061	2025-11-07T16:11:54	6.7	91.5
144062	2025-11-07T16:21:54	6.6	91
144063	2025-11-07T16:31:54	6.6	91
144064	2025-11-07T16:41:54	6.6	91
144065	2025-11-07T16:51:54	6.4	91
144066	2025-11-07T17:01:54	6.4	91
144067	2025-11-07T17:11:54	6.3	91.5
144068	2025-11-07T17:21:54	6.3	91
144069	2025-11-07T17:31:54	6.2	91.5
144070	2025-11-07T17:41:54	6.2	92
144071	2025-11-07T17:51:54	6.2	92
144072	2025-11-07T18:01:54	6	91.5
144073	2025-11-07T18:11:54	6.1	92
144074	2025-11-07T18:21:54	6	91.5
144075	2025-11-07T18:31:54	5.8	92
144076	2025-11-07T18:41:54	5.9	91.5
144077	2025-11-07T18:51:54	5.7	91
144078	2025-11-07T19:01:54	5.6	91
144079	2025-11-07T19:11:54	5.7	91
144080	2025-11-07T19:21:54	5.5	91
144081	2025-11-07T19:31:54	5.5	91.5
144082	2025-11-07T19:41:54	5.5	91.5
144083	2025-11-07T19:51:54	5.6	91.5
144084	2025-11-07T20:01:54	5.4	91.5
144085	2025-11-07T20:11:54	5.4	92
144086	2025-11-07T20:21:54	5.2	91.5
144087	2025-11-07T20:31:54	5.1	92.5
144088	2025-11-07T20:41:54	5	93
144089	2025-11-07T20:51:54	5.1	93
144090	2025-11-07T21:01:54	4.9	93
144091	2025-11-07T21:11:54	5	93
144092	2025-11-07T21:21:54	4.9	93.5
144093	2025-11-07T21:31:54	4.9	93
144094	2025-11-07T21:41:54	5	93.5
144095	2025-11-07T21:51:54	4.9	93.5
144096	2025-11-07T22:01:54	4.8	94
144097	2025-11-07T22:11:54	4.9	94
144098	2025-11-07T22:21:54	4.8	94.5
144099	2025-11-07T22:31:54	4.8	95
144100	2025-11-07T22:41:54	4.8	95.5
144101	2025-11-07T22:51:54	4.9	96.5
144102	2025-11-07T23:01:54	4.8	96
144103	2025-11-07T23:11:54	4.8	96.5
144104	2025-11-07T23:21:54	4.6	96
144105	2025-11-07T23:31:54	4.7	97.5
144106	2025-11-07T23:41:54	4.7	98
144107	2025-11-07T23:51:54	4.7	98.5
144108	2025-11-08T00:01:54	4.6	98
144109	2025-11-08T00:11:54	4.6	98.5
144110	2025-11-08T00:21:54	4.6	99
144111	2025-11-08T00:31:54	4.6	99.5
144112	2025-11-08T00:41:54	4.5	99.5
144113	2025-11-08T00:51:54	4.7	100
144114	2025-11-08T01:01:54	4.7	100
144115	2025-11-08T01:11:54	4.7	100
144116	2025-11-08T01:21:54	4.6	99.5
144117	2025-11-08T01:31:54	4.5	99.5
144118	2025-11-08T01:41:54	4.5	99
144119	2025-11-08T01:51:54	4.4	98.5
144120	2025-11-08T02:01:54	4.5	99.5
144121	2025-11-08T02:11:54	4.5	99
144122	2025-11-08T02:21:54	4.3	98.5
144123	2025-11-08T02:31:54	4.5	98.5
144124	2025-11-08T02:41:54	4.4	98.5
144125	2025-11-08T02:51:54	4.4	98
144126	2025-11-08T03:01:54	4.5	98
144127	2025-11-08T03:11:54	4.5	97.5
144128	2025-11-08T03:21:54	4.5	98
144129	2025-11-08T03:31:54	4.6	98
144130	2025-11-08T03:41:54	4.6	98
144131	2025-11-08T03:51:54	4.7	98
144132	2025-11-08T04:01:54	4.6	97.5
144133	2025-11-08T04:11:54	4.7	98
144134	2025-11-08T04:21:54	4.7	98
144135	2025-11-08T04:31:54	4.6	98
144136	2025-11-08T04:41:54	4.6	97.5
144137	2025-11-08T04:51:54	4.6	98
144138	2025-11-08T05:01:54	4.5	97.5
144139	2025-11-08T05:11:54	4.5	98
144140	2025-11-08T05:21:54	4.6	97.5
144141	2025-11-08T05:31:54	4.5	98
144142	2025-11-08T05:41:54	4.5	97.5
144143	2025-11-08T05:51:54	4.5	98
144144	2025-11-08T06:01:54	4.5	98.5
144145	2025-11-08T06:11:54	4.6	97.5
144146	2025-11-08T06:21:54	4.4	98.5
144147	2025-11-08T06:31:54	4.5	99
144148	2025-11-08T06:41:54	4.6	99.5
144149	2025-11-08T06:51:54	4.5	99.5
144150	2025-11-08T07:01:54	4.6	100
144151	2025-11-08T07:11:54	4.6	99.5
144152	2025-11-08T07:21:54	4.6	99.5
144153	2025-11-08T07:31:54	4.5	99
144154	2025-11-08T07:41:54	4.6	99.5
144155	2025-11-08T07:51:54	4.8	99.5
144156	2025-11-08T08:01:54	4.8	99
144157	2025-11-08T08:11:54	4.8	98.5
144158	2025-11-08T08:21:54	5	99
144159	2025-11-08T08:31:54	5	98
144160	2025-11-08T08:41:54	5.1	98
144161	2025-11-08T08:51:54	5.1	98
144162	2025-11-08T09:01:54	5.1	98
144163	2025-11-08T09:11:54	5.1	97
144164	2025-11-08T09:21:54	5.2	97.5
144165	2025-11-08T09:31:54	5.2	96.5
144166	2025-11-08T09:41:54	5.3	96.5
144167	2025-11-08T09:51:54	5.4	96
144168	2025-11-08T10:01:54	5.2	96
144169	2025-11-08T10:11:54	5.3	95.5
144170	2025-11-08T10:21:54	5.3	95.5
144171	2025-11-08T10:31:54	5.3	96
144172	2025-11-08T10:41:54	5.3	96
144173	2025-11-08T10:51:54	5.5	96
144174	2025-11-08T11:01:54	5.6	95
144175	2025-11-08T11:11:54	5.6	95.5
144176	2025-11-08T11:21:54	5.7	95
144177	2025-11-08T11:31:54	5.9	94.5
144178	2025-11-08T11:41:54	5.9	94
144179	2025-11-08T11:51:54	6.1	93.5
144180	2025-11-08T12:01:54	6.2	93
144181	2025-11-08T12:11:54	6.2	92.5
144182	2025-11-08T12:21:54	6.3	93
144183	2025-11-08T12:31:54	6.3	92.5
144184	2025-11-08T12:41:54	6.3	91.5
144185	2025-11-08T12:51:54	6.2	92.5
144186	2025-11-08T13:01:53	6.3	91.5
144187	2025-11-08T13:11:53	6.1	92
144188	2025-11-08T13:21:53	6.1	92
144189	2025-11-08T13:31:53	6.2	92.5
144190	2025-11-08T13:41:53	6.2	92
144191	2025-11-08T13:51:53	6	92.5
144192	2025-11-08T14:01:53	6	93.5
144193	2025-11-08T14:11:53	6.1	94
144194	2025-11-08T14:21:53	6.3	93
144195	2025-11-08T14:31:53	6.2	93
144196	2025-11-08T14:41:53	6	93.5
144197	2025-11-08T14:51:53	5.8	94.5
144198	2025-11-08T15:01:53	5.8	94.5
144199	2025-11-08T15:11:53	5.7	95
144200	2025-11-08T15:21:53	5.7	95.5
144201	2025-11-08T15:31:53	5.6	95.5
144202	2025-11-08T15:41:53	5.5	96
144203	2025-11-08T15:51:53	5.5	96.5
144204	2025-11-08T16:01:53	5.4	97
144205	2025-11-08T16:11:53	5.4	97
144206	2025-11-08T16:21:53	5.3	98
144207	2025-11-08T16:31:53	5.2	99.5
144208	2025-11-08T16:41:53	5.1	100
144209	2025-11-08T16:51:53	5.1	100
144210	2025-11-08T17:01:53	5	100
144211	2025-11-08T17:11:53	5.1	100
144212	2025-11-08T17:21:53	5.1	100
144213	2025-11-08T17:31:53	5.1	100
144214	2025-11-08T17:41:53	5.1	100
144215	2025-11-08T17:51:53	5.2	99.5
144216	2025-11-08T18:01:53	5.1	99.5
144217	2025-11-08T18:11:53	4.9	99.5
144218	2025-11-08T19:43:58	4.9	100
144219	2025-11-08T19:43:59	4.7	100
144220	2025-11-08T19:44:03	4.8	100
144221	2025-11-08T19:44:04	4.7	100
144222	2025-11-08T19:44:04	4.8	100
144223	2025-11-08T19:44:05	4.9	100
144224	2025-11-08T19:44:05	4.8	100
144225	2025-11-08T19:44:05	4.8	100
144226	2025-11-08T19:44:05	4.7	100
144227	2025-11-08T19:51:53	4.7	100
144228	2025-11-08T20:01:53	4.8	100
144229	2025-11-08T20:11:53	4.8	100
144230	2025-11-08T20:41:53	4.8	100
144231	2025-11-08T20:51:53	4.9	100
144232	2025-11-08T21:01:53	5	100
144233	2025-11-08T21:11:53	5	100
144234	2025-11-08T21:21:53	4.9	100
144235	2025-11-08T21:31:53	4.9	100
144236	2025-11-08T21:41:53	4.9	100
144237	2025-11-08T21:51:53	4.9	100
144238	2025-11-08T22:01:53	5	100
144239	2025-11-08T22:11:53	5	100
144240	2025-11-08T22:21:53	5.2	99.5
144241	2025-11-08T22:31:53	5.1	99.5
144242	2025-11-08T22:41:53	5.1	99.5
144243	2025-11-08T22:51:53	5.2	99.5
144244	2025-11-08T23:01:53	5.2	99.5
144245	2025-11-08T23:11:53	5.3	99.5
144246	2025-11-08T23:21:53	5.2	99
144247	2025-11-08T23:31:53	5.3	99.5
144248	2025-11-08T23:41:53	5.3	99.5
144249	2025-11-08T23:51:53	5.1	99.5
144250	2025-11-09T00:01:53	5.3	99.5
144251	2025-11-09T00:11:53	5.2	99.5
144252	2025-11-09T00:21:53	5.3	99.5
144253	2025-11-09T00:31:53	5.2	99.5
144254	2025-11-09T00:41:53	5.1	100
144255	2025-11-09T00:51:53	5.2	100
144256	2025-11-09T01:01:53	5.3	100
144257	2025-11-09T01:11:53	5.2	100
144258	2025-11-09T01:21:53	5.3	100
144259	2025-11-09T01:31:53	5.5	100
144260	2025-11-09T01:41:53	5.6	99.5
144261	2025-11-09T01:51:53	5.7	99
144262	2025-11-09T02:01:53	5.7	99
144263	2025-11-09T02:11:53	5.8	99
144264	2025-11-09T02:21:53	5.8	98.5
144265	2025-11-09T02:31:53	5.8	98
144266	2025-11-09T02:41:53	5.8	98
144267	2025-11-09T02:51:53	5.8	98
144268	2025-11-09T03:01:53	5.9	98.5
144269	2025-11-09T03:11:53	5.9	98
144270	2025-11-09T03:21:53	5.9	98
144271	2025-11-09T03:31:53	5.9	98
144272	2025-11-09T03:41:53	6	98
144273	2025-11-09T03:51:53	6	98
144274	2025-11-09T04:01:53	6	98
144275	2025-11-09T04:11:53	6	99
144276	2025-11-09T04:21:53	6	99
144277	2025-11-09T04:31:53	6.1	99
144278	2025-11-09T04:41:53	6.2	99
144279	2025-11-09T04:51:53	6.1	100
144280	2025-11-09T05:01:53	6	100
144281	2025-11-09T05:11:53	6	100
144282	2025-11-09T05:21:53	6.1	100
144283	2025-11-09T05:31:53	6.2	100
144284	2025-11-09T05:41:53	6.2	100
144285	2025-11-09T05:51:53	6.3	100
144286	2025-11-09T06:01:53	6.2	100
144287	2025-11-09T06:11:53	6.3	100
144288	2025-11-09T06:21:53	6.4	100
144289	2025-11-09T06:31:53	6.5	100
144290	2025-11-09T06:41:53	6.5	100
144291	2025-11-09T06:51:53	6.5	100
144292	2025-11-09T07:01:53	6.7	100
144293	2025-11-09T07:11:53	6.7	100
144294	2025-11-09T07:21:53	6.8	100
144295	2025-11-09T07:31:53	7	100
144296	2025-11-09T07:41:53	7	100
144297	2025-11-09T07:51:53	7.1	100
144298	2025-11-09T08:01:53	7.2	100
144299	2025-11-09T08:11:53	7.2	100
144300	2025-11-09T08:21:53	7.1	100
144301	2025-11-09T08:31:53	7.1	100
144302	2025-11-09T08:41:53	7.1	100
144303	2025-11-09T08:51:53	7.1	100
144304	2025-11-09T09:01:53	7.2	100
144305	2025-11-09T09:11:53	7.2	100
144306	2025-11-09T09:21:53	7.2	100
144307	2025-11-09T09:31:53	7.2	100
144308	2025-11-09T09:41:53	7.2	100
144309	2025-11-09T09:51:53	7.5	100
144310	2025-11-09T10:01:53	7.5	100
144311	2025-11-09T10:11:53	7.5	100
144312	2025-11-09T10:21:53	7.6	100
144313	2025-11-09T10:31:53	7.7	100
144314	2025-11-09T10:41:53	7.8	100
144315	2025-11-09T10:51:53	8	100
144316	2025-11-09T11:01:53	8.1	100
144317	2025-11-09T11:11:53	8.2	100
144318	2025-11-09T11:21:53	8.3	100
144319	2025-11-09T11:31:53	8.3	100
144320	2025-11-09T11:41:53	8.4	100
144321	2025-11-09T11:51:53	8.6	100
144322	2025-11-09T12:01:53	8.6	100
144323	2025-11-09T12:11:53	8.7	100
144324	2025-11-09T12:21:53	8.7	100
144325	2025-11-09T12:31:53	8.8	100
144326	2025-11-09T12:41:52	8.9	100
144327	2025-11-09T12:51:52	9	100
144328	2025-11-09T13:01:52	9	100
144329	2025-11-09T13:11:52	9	100
144330	2025-11-09T13:21:52	9.2	100
144331	2025-11-09T13:31:52	9.3	100
144332	2025-11-09T13:41:52	9.3	100
144333	2025-11-09T13:51:52	9.5	100
144334	2025-11-09T14:01:52	9.5	100
144335	2025-11-09T14:11:52	9.5	100
144336	2025-11-09T14:21:52	9.6	100
144337	2025-11-09T14:31:52	9.5	100
144338	2025-11-09T14:41:52	9.5	100
144339	2025-11-09T14:51:52	9.7	100
144340	2025-11-09T15:01:52	9.6	100
144341	2025-11-09T15:11:52	9.6	100
144342	2025-11-09T15:21:52	9.6	100
144343	2025-11-09T15:31:52	9.7	100
144344	2025-11-09T15:41:52	9.6	100
144345	2025-11-09T15:51:52	9.5	100
144346	2025-11-09T16:01:52	9.5	100
144347	2025-11-09T16:11:52	9.4	100
144348	2025-11-09T16:21:52	9.6	100
144349	2025-11-09T16:31:52	9.5	100
144350	2025-11-09T16:41:52	9.5	100
144351	2025-11-09T16:51:52	9.4	100
144352	2025-11-09T17:01:52	9.7	100
144353	2025-11-09T17:11:52	9.5	100
144354	2025-11-09T17:21:52	9.4	100
144355	2025-11-09T17:31:52	9.4	100
144356	2025-11-09T17:41:52	9.6	100
144357	2025-11-09T17:51:52	9.5	100
144358	2025-11-09T18:01:52	9.5	100
144359	2025-11-09T18:11:56	9.5	100
144360	2025-11-09T18:21:52	9.6	100
144361	2025-11-09T18:31:52	9.6	100
144362	2025-11-09T18:41:52	9.6	100
144363	2025-11-09T18:51:52	9.6	100
144364	2025-11-09T19:01:52	9.5	100
144365	2025-11-09T19:11:52	9.6	100
144366	2025-11-09T19:21:52	9.5	100
144367	2025-11-09T19:31:52	9.5	100
144368	2025-11-09T19:41:52	9.6	100
144369	2025-11-09T19:51:52	9.7	100
144370	2025-11-09T20:01:52	9.6	100
144371	2025-11-09T20:11:52	9.6	100
144372	2025-11-09T20:21:52	9.7	100
144373	2025-11-09T20:31:52	9.7	100
144374	2025-11-09T20:41:52	9.7	100
144375	2025-11-09T20:51:52	9.6	100
144376	2025-11-09T21:01:52	9.6	100
144377	2025-11-09T21:11:52	9.6	100
144378	2025-11-09T21:21:52	9.5	100
144379	2025-11-09T21:31:52	9.4	100
144380	2025-11-09T21:41:52	9.4	100
144381	2025-11-09T21:51:52	9.4	100
144382	2025-11-09T22:01:52	9.4	100
144383	2025-11-09T22:11:52	9.4	100
144384	2025-11-09T22:21:52	9.4	100
144385	2025-11-09T22:31:52	9.3	100
144386	2025-11-09T22:41:52	9.3	100
144387	2025-11-09T22:51:52	9.4	100
144388	2025-11-09T23:01:52	9.3	100
144389	2025-11-09T23:11:52	9.2	100
144390	2025-11-09T23:21:52	9	100
144391	2025-11-09T23:31:52	9	100
144392	2025-11-09T23:41:52	9	100
144393	2025-11-09T23:51:52	8.9	100
144394	2025-11-10T00:01:52	8.8	100
144395	2025-11-10T00:11:52	8.8	100
144396	2025-11-10T00:21:52	8.8	100
144397	2025-11-10T00:31:52	8.8	100
144398	2025-11-10T00:41:52	8.6	100
144399	2025-11-10T00:51:52	8.8	100
144400	2025-11-10T01:01:52	8.6	100
144401	2025-11-10T01:11:52	8.6	100
144402	2025-11-10T01:21:52	8.6	100
144403	2025-11-10T01:31:52	8.5	100
144404	2025-11-10T01:41:52	8.4	100
144405	2025-11-10T01:51:52	8.4	100
144406	2025-11-10T02:01:52	8.1	100
144407	2025-11-10T02:11:52	7.8	100
144408	2025-11-10T02:21:52	7.2	100
144409	2025-11-10T02:31:52	7	100
144410	2025-11-10T02:41:52	6.8	100
144411	2025-11-10T02:51:52	6.5	100
144412	2025-11-10T03:01:52	6.3	100
144413	2025-11-10T03:11:52	6.2	100
144414	2025-11-10T03:21:52	6.1	100
144415	2025-11-10T03:31:52	6	100
144416	2025-11-10T03:41:52	5.8	100
144417	2025-11-10T03:51:52	6.3	100
144418	2025-11-10T04:01:52	6.4	100
144419	2025-11-10T04:11:52	6.1	100
144420	2025-11-10T04:21:52	6	100
144421	2025-11-10T04:31:52	5.8	100
144422	2025-11-10T04:41:52	5.7	100
144423	2025-11-10T04:51:52	5.3	100
144424	2025-11-10T05:01:52	5	100
144425	2025-11-10T05:11:52	4.8	100
144426	2025-11-10T05:21:52	4.6	100
144427	2025-11-10T05:31:52	4.5	100
144428	2025-11-10T05:41:52	4.5	100
144429	2025-11-10T05:51:52	4.6	100
144430	2025-11-10T06:01:52	4.5	100
144431	2025-11-10T06:11:52	4.1	100
144432	2025-11-10T06:21:52	3.9	100
144433	2025-11-10T06:31:52	3.8	100
144434	2025-11-10T06:41:52	3.8	100
144435	2025-11-10T06:51:52	3.7	100
144436	2025-11-10T07:01:52	3.9	100
144437	2025-11-10T07:11:52	3.8	100
144438	2025-11-10T07:21:52	4.3	100
144439	2025-11-10T07:31:52	4.6	100
144440	2025-11-10T07:41:52	5	100
144441	2025-11-10T07:51:52	5.2	100
144442	2025-11-10T08:01:51	5.2	100
144443	2025-11-10T08:11:52	5.1	100
144444	2025-11-10T08:21:51	5.1	100
144445	2025-11-10T08:31:51	5.3	100
144446	2025-11-10T08:41:52	5.7	100
144447	2025-11-10T08:51:51	6.2	100
144448	2025-11-10T09:01:51	6.3	100
144449	2025-11-10T09:11:51	6.5	100
144450	2025-11-10T09:21:51	6.7	100
144451	2025-11-10T09:31:51	7	100
144452	2025-11-10T09:41:51	7.4	100
144453	2025-11-10T09:51:51	7	100
144454	2025-11-10T10:01:51	6.8	100
144455	2025-11-10T10:11:51	6.8	100
144456	2025-11-10T10:21:51	6.7	100
144457	2025-11-10T10:31:51	6.9	100
144458	2025-11-10T10:41:51	6.9	100
144459	2025-11-10T10:51:51	7	100
144460	2025-11-10T11:01:51	7	100
144461	2025-11-10T11:11:51	7	100
144462	2025-11-10T11:21:51	7	100
144463	2025-11-10T11:31:51	7.1	100
144464	2025-11-10T11:41:51	7	100
144465	2025-11-10T11:51:51	7.1	100
144466	2025-11-10T12:01:51	7.2	100
144467	2025-11-10T12:11:51	7.2	100
144468	2025-11-10T12:21:51	7.6	100
144469	2025-11-10T12:31:51	8.2	100
144470	2025-11-10T12:41:51	7.8	100
144471	2025-11-10T12:51:51	7.8	100
144472	2025-11-10T13:01:51	7.7	100
144473	2025-11-10T13:11:51	8.2	100
144474	2025-11-10T13:21:51	8.1	100
144475	2025-11-10T13:31:51	7.8	100
144476	2025-11-10T13:41:51	7.4	100
144477	2025-11-10T13:51:51	7.5	100
144478	2025-11-10T14:01:51	7.5	100
144479	2025-11-10T14:11:51	7.6	100
144480	2025-11-10T14:21:51	7.3	100
144481	2025-11-10T14:31:51	7.3	100
144482	2025-11-10T14:41:51	7.3	100
144483	2025-11-10T14:51:51	7.3	100
144484	2025-11-10T15:01:51	7.1	100
144485	2025-11-10T15:11:51	7.2	100
144486	2025-11-10T15:21:51	7.1	100
144487	2025-11-10T15:31:51	7	100
144488	2025-11-10T15:41:51	6.9	100
144489	2025-11-10T15:51:51	6.8	100
144490	2025-11-10T16:01:51	6.7	100
144491	2025-11-10T16:11:51	6.7	100
144492	2025-11-10T16:21:51	6.7	100
144493	2025-11-10T16:31:51	6.7	100
144494	2025-11-10T16:41:51	6.7	100
144495	2025-11-10T16:51:51	6.5	100
144496	2025-11-10T17:01:51	6.4	100
144497	2025-11-10T17:11:51	6.4	100
144498	2025-11-10T17:21:51	6.3	100
144499	2025-11-10T17:31:51	6.4	100
144500	2025-11-10T17:41:51	6.3	100
144501	2025-11-10T17:51:51	6.3	100
144502	2025-11-10T18:01:51	6.3	100
144503	2025-11-10T18:11:51	6.2	100
144504	2025-11-10T18:21:51	6.3	100
144505	2025-11-10T18:31:51	6.3	100
144506	2025-11-10T18:41:51	6.4	100
144507	2025-11-10T18:51:51	6.5	100
144508	2025-11-10T19:01:51	6.4	100
144509	2025-11-10T19:11:51	6.4	100
144510	2025-11-10T19:21:51	6.4	100
144511	2025-11-10T19:31:51	6.4	100
144512	2025-11-10T19:41:51	6.3	100
144513	2025-11-10T19:51:51	6.2	100
144514	2025-11-10T20:01:51	6.4	100
144515	2025-11-10T20:11:51	6.2	100
144516	2025-11-10T20:21:51	6.4	100
144517	2025-11-10T20:31:51	6.4	100
144518	2025-11-10T20:41:51	6.5	100
144519	2025-11-10T20:51:51	6.4	100
144520	2025-11-10T21:01:51	6.5	100
144521	2025-11-10T21:11:51	6.3	100
144522	2025-11-10T21:21:51	6.3	100
144523	2025-11-10T21:31:51	6.5	100
144524	2025-11-10T21:41:51	6.4	100
144525	2025-11-10T21:51:51	6.3	100
144526	2025-11-10T22:01:51	6.1	100
144527	2025-11-10T22:11:51	6.2	100
144528	2025-11-10T22:21:51	6.1	100
144529	2025-11-10T22:31:51	6.1	100
144530	2025-11-10T22:41:51	6.1	100
144531	2025-11-10T22:51:51	6.1	100
144532	2025-11-10T23:01:51	6	100
144533	2025-11-10T23:11:51	6.3	100
144534	2025-11-10T23:21:51	6.4	100
144535	2025-11-10T23:31:51	6.4	100
144536	2025-11-10T23:41:51	6.5	100
144537	2025-11-10T23:51:51	6.6	100
144538	2025-11-11T00:01:51	6.7	100
144539	2025-11-11T00:11:51	6.7	100
144540	2025-11-11T00:21:51	6.7	100
144541	2025-11-11T00:31:51	6.8	100
144542	2025-11-11T00:41:51	6.8	100
144543	2025-11-11T00:51:51	6.8	100
144544	2025-11-11T01:01:51	6.8	100
144545	2025-11-11T01:11:51	6.9	100
144546	2025-11-11T01:21:51	6.9	100
144547	2025-11-11T01:31:51	7	100
144548	2025-11-11T01:41:51	7.1	100
144549	2025-11-11T01:51:51	7.1	100
144550	2025-11-11T02:01:51	7.2	100
144551	2025-11-11T02:11:51	7.2	100
144552	2025-11-11T02:21:51	7.3	100
144553	2025-11-11T02:31:51	7.3	100
144554	2025-11-11T02:41:51	7.2	100
144555	2025-11-11T02:51:51	7.4	100
144556	2025-11-11T03:01:51	7.4	100
144557	2025-11-11T03:11:51	7.5	100
144558	2025-11-11T03:21:51	7.6	100
144559	2025-11-11T03:31:51	7.6	100
144560	2025-11-11T03:41:51	7.7	100
144561	2025-11-11T03:51:51	7.9	100
144562	2025-11-11T04:01:51	8	100
144563	2025-11-11T04:11:51	8	100
144564	2025-11-11T04:21:51	8	100
144565	2025-11-11T04:31:51	8	100
144566	2025-11-11T04:41:51	7.8	100
144567	2025-11-11T04:51:51	8.1	100
144568	2025-11-11T05:01:51	8.1	100
144569	2025-11-11T05:11:50	8.3	100
144570	2025-11-11T05:21:50	8.2	100
144571	2025-11-11T05:31:50	8.2	100
144572	2025-11-11T05:41:50	8	100
144573	2025-11-11T05:51:50	7.8	100
144574	2025-11-11T06:01:50	7.8	100
144575	2025-11-11T06:11:50	7.3	100
144576	2025-11-11T06:21:50	7.2	100
144577	2025-11-11T06:31:50	7.2	100
144578	2025-11-11T06:41:50	6.9	100
144579	2025-11-11T06:51:50	6.9	100
144580	2025-11-11T07:01:50	6.7	100
144581	2025-11-11T07:11:50	6.8	100
144582	2025-11-11T07:21:50	6.7	100
144583	2025-11-11T07:31:50	6.7	100
144584	2025-11-11T07:41:50	6.7	100
144585	2025-11-11T07:51:50	7.3	100
144586	2025-11-11T08:01:50	7.8	100
144587	2025-11-11T08:11:50	8.2	100
144588	2025-11-11T08:21:50	8.6	100
144589	2025-11-11T08:31:50	8.9	100
144590	2025-11-11T08:41:50	9.2	100
144591	2025-11-11T08:51:50	9.5	100
144592	2025-11-11T09:01:50	9.8	100
144593	2025-11-11T09:11:50	10	100
144594	2025-11-11T09:21:50	10.1	100
144595	2025-11-11T09:31:50	10.1	100
144596	2025-11-11T09:41:50	10.7	100
144597	2025-11-11T09:51:50	11.2	98
144598	2025-11-11T10:01:50	11.1	96
144599	2025-11-11T10:11:50	10.9	96
144600	2025-11-11T10:21:50	11.1	96
144601	2025-11-11T10:41:50	11.6	91
144602	2025-11-11T10:51:50	12	89
144603	2025-11-11T11:01:50	12.6	86
144604	2025-11-11T11:11:50	12.7	86.5
144605	2025-11-11T11:21:50	13.3	84.5
144606	2025-11-11T11:31:50	14.3	80
144607	2025-11-11T11:41:50	15.4	79
144608	2025-11-11T11:51:50	15.4	76.5
144609	2025-11-11T12:01:50	15.2	75.5
144610	2025-11-11T12:11:50	16	73.5
144611	2025-11-11T12:21:50	16.1	71
144612	2025-11-11T12:31:50	16.7	69
144613	2025-11-11T12:41:50	17.2	68
144614	2025-11-11T12:51:50	16.9	68.5
144615	2025-11-11T13:01:50	17.5	69
144616	2025-11-11T13:11:50	18.1	65.5
144617	2025-11-11T13:21:50	18.5	63
144618	2025-11-11T13:31:50	18.3	63
144619	2025-11-11T13:41:50	18.6	63
144620	2025-11-11T13:51:50	19.2	61.5
144621	2025-11-11T14:01:50	18.9	63
144622	2025-11-11T14:11:50	20	58
144623	2025-11-11T14:21:50	20.9	56.5
144624	2025-11-11T14:31:50	20.6	55
144625	2025-11-11T14:41:50	20.1	58
144626	2025-11-11T14:51:50	20.5	55.5
144627	2025-11-11T15:01:50	20.9	55.5
144628	2025-11-11T15:11:50	20.8	61
144629	2025-11-11T15:21:50	20.5	62.5
144630	2025-11-11T15:31:50	19.2	64.5
144631	2025-11-11T15:41:50	16.7	74
144632	2025-11-11T15:51:50	15.4	76.5
144633	2025-11-11T16:01:50	14.4	78.5
144634	2025-11-11T16:11:50	13.8	80
144635	2025-11-11T16:21:50	13.2	81.5
144636	2025-11-11T16:31:50	12.7	83.5
144637	2025-11-11T16:41:50	12.3	84.5
144638	2025-11-11T16:51:50	11.8	84.5
144639	2025-11-11T17:01:50	11.5	85.5
144640	2025-11-11T17:11:50	11.3	86
144641	2025-11-11T17:21:50	10.9	86.5
144642	2025-11-11T17:31:50	10.9	87.5
144643	2025-11-11T17:41:50	10.6	88.5
144644	2025-11-11T17:51:50	10.2	88.5
144645	2025-11-11T18:01:50	10	90
144646	2025-11-11T18:11:50	9.8	90.5
144647	2025-11-11T18:21:50	9.6	91
144648	2025-11-11T18:31:50	9.5	91
144649	2025-11-11T18:41:50	9.2	91
144650	2025-11-11T18:51:50	9.1	91
144651	2025-11-11T19:01:50	8.8	92
144652	2025-11-11T19:11:50	8.7	91.5
144653	2025-11-11T19:21:50	8.5	92
144654	2025-11-11T19:31:50	8.2	92
144655	2025-11-11T19:41:50	8.2	93
144656	2025-11-11T19:51:50	8.1	93
144657	2025-11-11T20:01:50	7.9	93
144658	2025-11-11T20:11:49	7.7	92.5
144659	2025-11-11T20:21:49	7.5	93
144660	2025-11-11T20:31:49	7.5	93.5
144661	2025-11-11T20:41:49	7.1	93.5
144662	2025-11-11T20:51:49	7.1	94.5
144663	2025-11-11T21:01:50	7	93.5
144664	2025-11-11T21:11:49	6.9	93
144665	2025-11-11T21:21:49	6.6	94.5
144666	2025-11-11T21:31:49	6.5	95
144667	2025-11-11T21:41:49	6.3	95.5
144668	2025-11-11T21:51:49	6.2	96
144669	2025-11-11T22:01:49	6.1	96
144670	2025-11-11T22:11:49	6	95.5
144671	2025-11-11T22:21:49	5.9	96
144672	2025-11-11T22:31:49	5.9	95.5
144673	2025-11-11T22:41:49	5.8	94.5
144674	2025-11-11T22:51:49	5.6	96
144675	2025-11-11T23:01:49	5.4	96
144676	2025-11-11T23:11:49	5.2	97
144677	2025-11-11T23:21:49	5.2	97.5
144678	2025-11-11T23:31:49	5.1	97.5
144679	2025-11-11T23:41:49	5	97
144680	2025-11-11T23:51:49	4.9	97
144681	2025-11-12T00:01:49	4.8	97
144682	2025-11-12T00:11:49	4.7	98
144683	2025-11-12T00:21:49	4.6	98.5
144684	2025-11-12T00:31:49	4.3	98.5
144685	2025-11-12T00:41:49	4.3	98
144686	2025-11-12T00:51:49	4.2	99
144687	2025-11-12T01:01:49	4.3	98.5
144688	2025-11-12T01:11:49	4	98
144689	2025-11-12T01:21:49	3.9	99
144690	2025-11-12T01:31:49	3.8	99
144691	2025-11-12T01:41:49	3.6	99.5
144692	2025-11-12T01:51:49	3.6	99.5
144693	2025-11-12T02:01:49	3.5	99
144694	2025-11-12T02:11:49	3.4	99.5
144695	2025-11-12T02:21:49	3.4	100
144696	2025-11-12T02:31:49	3.3	99.5
144697	2025-11-12T02:41:49	3.4	99.5
144698	2025-11-12T02:51:49	3.2	99
144699	2025-11-12T03:01:49	3	99.5
144700	2025-11-12T03:11:49	2.9	99.5
144701	2025-11-12T03:21:49	2.9	100
144702	2025-11-12T03:31:49	2.8	99
144703	2025-11-12T03:41:49	2.7	99.5
144704	2025-11-12T03:51:49	2.7	100
144705	2025-11-12T04:01:49	2.5	100
144706	2025-11-12T04:11:49	2.5	100
144707	2025-11-12T04:21:49	2.5	100
144708	2025-11-12T04:31:49	2.3	100
144709	2025-11-12T04:41:49	2.2	100
144710	2025-11-12T04:51:49	2.2	100
144711	2025-11-12T05:01:49	2.1	100
144712	2025-11-12T05:11:49	2.1	100
144713	2025-11-12T05:21:49	2	100
144714	2025-11-12T05:31:49	2	100
144715	2025-11-12T05:41:49	2	100
144716	2025-11-12T05:51:49	2	100
144717	2025-11-12T06:01:49	1.9	100
144718	2025-11-12T06:11:49	1.8	100
144719	2025-11-12T06:21:49	1.7	100
144720	2025-11-12T06:31:49	1.7	100
144721	2025-11-12T06:41:49	1.7	100
144722	2025-11-12T06:51:49	1.8	100
144723	2025-11-12T07:01:49	1.8	100
144724	2025-11-12T07:11:49	1.9	100
144725	2025-11-12T07:21:49	2.1	100
144726	2025-11-12T07:31:49	2.4	100
144727	2025-11-12T07:41:49	2.4	100
144728	2025-11-12T07:51:49	2.6	100
144729	2025-11-12T08:01:49	2.7	100
144730	2025-11-12T08:11:49	3	100
144731	2025-11-12T08:21:49	3.5	100
144732	2025-11-12T08:31:49	3.7	100
144733	2025-11-12T08:41:49	4.1	100
144734	2025-11-12T08:51:49	4.2	100
144735	2025-11-12T09:01:49	4.3	100
144736	2025-11-12T09:11:49	4.5	100
144737	2025-11-12T09:21:49	5.1	100
144738	2025-11-12T09:31:49	5.3	100
144739	2025-11-12T10:11:49	6.8	100
144740	2025-11-12T10:21:49	7.1	100
144741	2025-11-12T10:31:49	7.6	100
144742	2025-11-12T10:41:49	8.1	100
144743	2025-11-12T10:51:49	8.7	99
144744	2025-11-12T11:01:49	9.6	96.5
144745	2025-11-12T11:11:49	9.9	94
144746	2025-11-12T11:21:49	10.5	92.5
144747	2025-11-12T11:31:49	12.2	88
144748	2025-11-12T11:41:49	13.8	82.5
144749	2025-11-12T11:51:49	15.1	77.5
144750	2025-11-12T12:01:49	16.2	72
144751	2025-11-12T12:11:49	17.3	65.5
144752	2025-11-12T12:21:49	18	67
144753	2025-11-12T12:31:49	19.2	63
144754	2025-11-12T12:41:49	19.7	61.5
144755	2025-11-12T12:51:49	19.8	58.5
144756	2025-11-12T13:01:49	20.2	59
144757	2025-11-12T13:11:49	20.2	61.5
144758	2025-11-12T13:21:49	20.4	59
144759	2025-11-12T13:31:49	20.7	60
144760	2025-11-12T13:41:49	19.3	62.5
144761	2025-11-12T13:51:49	18.5	66
144762	2025-11-12T14:01:49	17.8	68.5
144763	2025-11-12T14:11:49	16.9	68.5
144764	2025-11-12T14:21:49	16.3	69
144765	2025-11-12T14:31:49	16.1	73
144766	2025-11-12T14:41:49	16.2	72.5
144767	2025-11-12T14:51:49	15.8	72
144768	2025-11-12T15:01:49	16	70.5
144769	2025-11-12T15:11:49	15.4	77
144770	2025-11-12T15:21:49	14.7	77.5
144771	2025-11-12T15:31:49	13.9	81.5
144772	2025-11-12T15:41:49	13.1	83.5
144773	2025-11-12T15:51:49	12.6	86
144774	2025-11-12T16:01:49	12	86
144775	2025-11-12T16:11:49	11.7	88
144776	2025-11-12T16:21:49	11.6	88
144777	2025-11-12T16:31:49	11.1	88.5
144778	2025-11-12T16:41:49	10.9	88.5
144779	2025-11-12T16:51:49	10.7	89
144780	2025-11-12T17:01:49	10.6	89
144781	2025-11-12T17:11:49	10.2	90
144782	2025-11-12T17:21:49	10.1	90
144783	2025-11-12T17:31:49	9.8	90
144784	2025-11-12T17:41:49	9.7	90
144785	2025-11-12T17:51:49	9.4	91
144786	2025-11-12T18:01:49	9.2	92
144787	2025-11-12T18:11:49	9	92
144788	2025-11-12T18:21:48	8.9	92.5
144789	2025-11-12T18:31:48	8.6	93
144790	2025-11-12T18:41:49	8.3	92.5
144791	2025-11-12T18:51:48	8.2	93
144792	2025-11-12T19:01:48	8	93
144793	2025-11-12T19:11:48	8	93.5
144794	2025-11-12T19:21:48	7.8	93
144795	2025-11-12T19:31:48	7.6	93.5
144796	2025-11-12T19:41:48	7.6	93.5
144797	2025-11-12T19:51:48	7.4	94
144798	2025-11-12T20:01:48	7.5	94.5
144799	2025-11-12T20:11:48	7.3	94
144800	2025-11-12T20:21:48	7.1	94.5
144801	2025-11-12T20:31:48	7.1	94
144802	2025-11-12T20:41:48	7	94.5
144803	2025-11-12T20:51:48	6.9	94.5
144804	2025-11-12T21:01:48	6.7	94.5
144805	2025-11-12T21:11:48	6.7	95
144806	2025-11-12T21:21:48	6.6	95.5
144807	2025-11-12T21:31:48	6.5	95
144808	2025-11-12T21:41:48	6.3	95.5
144809	2025-11-12T21:51:48	6.3	96
144810	2025-11-12T22:01:48	6.2	96
144811	2025-11-12T22:11:48	6.1	96
144812	2025-11-12T22:21:48	6.1	96
144813	2025-11-12T22:31:48	5.9	96
144814	2025-11-12T22:41:48	5.9	96.5
144815	2025-11-12T22:51:48	5.6	97
144816	2025-11-12T23:01:48	5.7	97
144817	2025-11-12T23:11:48	5.5	97
144818	2025-11-12T23:21:48	5.5	97
144819	2025-11-12T23:31:48	5.3	97
144820	2025-11-12T23:41:48	5.2	97
144821	2025-11-12T23:51:48	5.2	97.5
144822	2025-11-13T00:01:48	5.1	97.5
144823	2025-11-13T00:11:48	4.9	97.5
144824	2025-11-13T00:21:48	4.9	98
144825	2025-11-13T00:31:48	4.8	98
144826	2025-11-13T00:41:48	4.7	98
144827	2025-11-13T00:51:48	4.7	98
144828	2025-11-13T01:01:48	4.4	98
144829	2025-11-13T01:11:48	4.4	98
144830	2025-11-13T01:21:48	4.4	98
144831	2025-11-13T01:31:48	4.4	98
144832	2025-11-13T01:41:48	4.3	98
144833	2025-11-13T01:51:48	4.3	98.5
144834	2025-11-13T02:01:48	4.2	99
144835	2025-11-13T02:11:48	4.1	98.5
144836	2025-11-13T02:21:48	4.1	99
144837	2025-11-13T02:31:48	3.9	99
144838	2025-11-13T02:41:48	4	99
144839	2025-11-13T02:51:48	3.9	99
144840	2025-11-13T03:01:48	3.8	99.5
144841	2025-11-13T03:11:48	3.8	99.5
144842	2025-11-13T03:21:48	3.8	99.5
144843	2025-11-13T03:31:48	3.7	99.5
144844	2025-11-13T03:41:48	3.5	99.5
144845	2025-11-13T03:51:48	3.5	99.5
144846	2025-11-13T04:01:48	3.5	99.5
144847	2025-11-13T04:11:48	3.6	100
144848	2025-11-13T04:21:48	3.3	100
144849	2025-11-13T04:31:48	3.2	99.5
144850	2025-11-13T04:41:48	3.3	100
144851	2025-11-13T04:51:48	3.2	100
144852	2025-11-13T05:01:48	3	100
144853	2025-11-13T05:11:48	3.1	100
144854	2025-11-13T05:21:48	3.1	100
144855	2025-11-13T05:31:48	3.2	100
144856	2025-11-13T05:41:48	2.9	100
144857	2025-11-13T05:51:48	3.1	100
144858	2025-11-13T06:01:48	3.1	100
144859	2025-11-13T06:11:48	3.1	100
144860	2025-11-13T06:21:48	3.2	100
144861	2025-11-13T06:31:48	3.2	100
144862	2025-11-13T06:41:48	3.4	100
144863	2025-11-13T06:51:48	3.5	100
144864	2025-11-13T07:01:48	3.6	100
144865	2025-11-13T07:11:48	3.6	100
144866	2025-11-13T07:21:48	3.9	100
144867	2025-11-13T07:31:48	4.1	100
144868	2025-11-13T07:41:48	4.2	100
144869	2025-11-13T07:51:48	4.4	100
144870	2025-11-13T08:01:48	4.7	100
144871	2025-11-13T08:11:48	4.9	100
144872	2025-11-13T08:21:48	5.5	100
144873	2025-11-13T08:31:48	6.2	100
144874	2025-11-13T08:41:48	6.7	100
144875	2025-11-13T08:51:48	7.2	100
144876	2025-11-13T09:01:48	7.8	99.5
144877	2025-11-13T09:11:48	8.3	98
144878	2025-11-13T09:21:48	8.7	98
144879	2025-11-13T09:31:48	9.3	96.5
144880	2025-11-13T09:41:48	9.8	94.5
144881	2025-11-13T09:51:48	10.2	92
144882	2025-11-13T10:01:48	10.6	90
144883	2025-11-13T10:11:48	10.9	89.5
144884	2025-11-13T10:21:48	11.4	90
144885	2025-11-13T10:31:48	11.8	89.5
144886	2025-11-13T10:41:48	12.6	86
144887	2025-11-13T10:51:48	12.9	83.5
144888	2025-11-13T11:01:48	13.5	81
144889	2025-11-13T11:11:48	14.2	78
144890	2025-11-13T11:21:48	14.7	74.5
144891	2025-11-13T11:31:48	15.9	71
144892	2025-11-13T11:41:48	16.8	65.5
144893	2025-11-13T11:51:48	17.7	66
144894	2025-11-13T12:01:48	18.1	66
144895	2025-11-13T12:11:48	18.4	63
144896	2025-11-13T12:21:48	19	61
144897	2025-11-13T12:31:48	19.7	63
144898	2025-11-13T12:41:48	20.2	59
144899	2025-11-13T12:51:48	20	61.5
144900	2025-11-13T13:01:48	19.6	63.5
144901	2025-11-13T13:11:48	19.5	62
144902	2025-11-13T13:21:48	19.6	65
144903	2025-11-13T13:31:48	19.9	63.5
144904	2025-11-13T13:41:48	19.9	62.5
144905	2025-11-13T13:51:48	20.3	61.5
144906	2025-11-13T14:01:48	20.4	63.5
144907	2025-11-13T14:11:48	19.5	64
144908	2025-11-13T14:21:48	19.2	64.5
144909	2025-11-13T14:31:48	18.7	69.5
144910	2025-11-13T14:41:47	18.1	71.5
144911	2025-11-13T14:51:47	18.6	70
144912	2025-11-13T15:01:47	18.5	72
144913	2025-11-13T15:11:47	16.9	76
144914	2025-11-13T15:21:47	16.3	77.5
144915	2025-11-13T15:31:47	15.8	79.5
144916	2025-11-13T15:41:47	15	82
144917	2025-11-13T15:51:47	14.4	83
144918	2025-11-13T16:02:07	13.8	85
144919	2025-11-13T16:11:47	13.7	84
144920	2025-11-13T16:21:47	13.3	85.5
144921	2025-11-13T16:31:47	12.9	86.5
144922	2025-11-13T16:41:47	12.6	86
144923	2025-11-13T16:51:47	12.4	86.5
144924	2025-11-13T17:01:47	12.2	86.5
144925	2025-11-13T17:11:47	11.9	87
144926	2025-11-13T17:21:47	11.8	86.5
144927	2025-11-13T17:31:47	11.6	86.5
144928	2025-11-13T17:41:47	11.4	87
144929	2025-11-13T17:51:47	11.4	87.5
144930	2025-11-13T18:01:47	11.1	86.5
144931	2025-11-13T18:11:47	11.1	87.5
144932	2025-11-13T18:21:47	10.8	87.5
144933	2025-11-13T18:31:47	10.8	87.5
144934	2025-11-13T18:41:47	10.7	88
144935	2025-11-13T18:51:47	10.4	88.5
144936	2025-11-13T19:01:47	10.1	89
144937	2025-11-13T19:11:47	10	89.5
144938	2025-11-13T19:21:47	9.8	90
144939	2025-11-13T19:31:47	9.7	90.5
144940	2025-11-13T19:41:47	9.5	91
144941	2025-11-13T19:51:47	9.3	90
144942	2025-11-13T20:01:47	9.2	91.5
144943	2025-11-13T20:11:47	9.2	92
144944	2025-11-13T20:21:47	9	91.5
144945	2025-11-13T20:31:47	8.9	93
144946	2025-11-13T20:41:47	8.6	92
144947	2025-11-13T20:51:47	8.5	92.5
144948	2025-11-13T21:01:47	8.3	93
144949	2025-11-13T21:11:47	8.3	94
144950	2025-11-13T21:21:47	8.3	93
144951	2025-11-13T21:31:47	8.1	93
144952	2025-11-13T21:41:47	7.9	93.5
144953	2025-11-13T21:51:47	7.8	94
144954	2025-11-13T22:01:47	7.7	94
144955	2025-11-13T22:11:47	7.6	94.5
144956	2025-11-13T22:21:47	7.5	95
144957	2025-11-13T22:31:47	7.4	95
144958	2025-11-13T22:41:47	7.3	94
144959	2025-11-13T22:51:47	7.4	95
144960	2025-11-13T23:01:47	7.5	94.5
144961	2025-11-13T23:11:47	7.5	94
144962	2025-11-13T23:21:47	7.6	94
144963	2025-11-13T23:31:47	7.4	94
144964	2025-11-13T23:41:47	7.3	95
144965	2025-11-13T23:51:47	7.2	95
144966	2025-11-14T00:01:47	7.2	95.5
144967	2025-11-14T00:11:47	7.3	95.5
144968	2025-11-14T00:21:47	7.2	94.5
144969	2025-11-14T00:31:47	7.3	95
144970	2025-11-14T00:41:47	7.3	95.5
144971	2025-11-14T00:51:47	7.2	96
144972	2025-11-14T01:01:47	6.9	96.5
144973	2025-11-14T01:11:47	6.7	97.5
144974	2025-11-14T01:21:47	6.5	98
144975	2025-11-14T01:31:47	6.4	98
144976	2025-11-14T01:36:54	6.1	98.5
144977	2025-11-14T01:46:54	6.1	98.5
144978	2025-11-14T01:56:54	6.1	98.5
144979	2025-11-14T02:06:54	6.1	98
144980	2025-11-14T02:16:54	6.1	97.5
144981	2025-11-14T02:26:54	6.1	97.5
144982	2025-11-14T02:36:54	6.2	97.5
144983	2025-11-14T02:46:54	6.1	97
144984	2025-11-14T02:56:54	6.2	97
144985	2025-11-14T03:06:54	6.1	97.5
144986	2025-11-14T03:16:54	6.2	97
144987	2025-11-14T03:26:54	6.1	97.5
144988	2025-11-14T03:36:54	6	97.5
144989	2025-11-14T03:46:54	6	97
144990	2025-11-14T03:56:54	6	97.5
144991	2025-11-14T04:06:54	6	97.5
144992	2025-11-14T04:16:54	6	97.5
144993	2025-11-14T04:26:54	6.1	97
144994	2025-11-14T04:36:54	6	97.5
144995	2025-11-14T04:46:54	5.8	97.5
144996	2025-11-14T04:56:54	5.7	98
144997	2025-11-14T05:06:54	5.5	98.5
144998	2025-11-14T05:16:54	5.6	98.5
144999	2025-11-14T05:26:54	5.3	99
145000	2025-11-14T05:36:54	5.3	99
145001	2025-11-14T05:46:54	5.7	98.5
145002	2025-11-14T05:56:54	5.8	97.5
145003	2025-11-14T06:06:54	5.6	97.5
145004	2025-11-14T06:16:54	5.3	98.5
145005	2025-11-14T06:26:54	5.5	99
145006	2025-11-14T06:36:54	5.5	98.5
145007	2025-11-14T06:46:54	5.5	99
145008	2025-11-14T06:56:54	5.4	99
145009	2025-11-14T07:06:54	5.6	99
145010	2025-11-14T07:16:54	5.7	99
145011	2025-11-14T07:26:54	5.7	99
145012	2025-11-14T07:36:54	5.9	99
145013	2025-11-14T07:46:54	6.2	98.5
145014	2025-11-14T07:56:54	6.3	98.5
145015	2025-11-14T08:06:54	6.3	98.5
145016	2025-11-14T08:16:54	6.7	98.5
145017	2025-11-14T08:26:54	7	98.5
145018	2025-11-14T08:36:54	7.2	98
145019	2025-11-14T08:46:54	7.4	98
145020	2025-11-14T08:56:54	7.6	98
145021	2025-11-14T09:06:54	7.8	97.5
145022	2025-11-14T09:16:54	8.2	97.5
145023	2025-11-14T09:26:54	8.4	97
145024	2025-11-14T09:36:54	8.8	95.5
145025	2025-11-14T09:46:53	9.1	94
145026	2025-11-14T09:56:53	9.1	95.5
145027	2025-11-14T10:06:53	9.4	96
145028	2025-11-14T10:16:53	9.6	94.5
145029	2025-11-14T10:26:53	10	94
145030	2025-11-14T10:36:53	10.3	92
145031	2025-11-14T10:46:53	11	92
145032	2025-11-14T10:56:53	11.5	89.5
145033	2025-11-14T11:06:53	11.7	89
145034	2025-11-14T11:16:53	11.9	89
145035	2025-11-14T11:26:53	12	89.5
145036	2025-11-14T11:36:53	12.2	88.5
145037	2025-11-14T11:46:53	12.3	86
145038	2025-11-14T11:56:53	12.7	85.5
145039	2025-11-14T12:06:53	12.8	84
145040	2025-11-14T12:16:53	13	84.5
145041	2025-11-14T12:26:53	13	84.5
145042	2025-11-14T12:36:53	13.5	84
145043	2025-11-14T12:46:53	13.4	84
145044	2025-11-14T12:56:53	13.8	83
145045	2025-11-14T13:06:53	13.9	83
145046	2025-11-14T13:16:53	14	82
145047	2025-11-14T13:26:53	14	81
145048	2025-11-14T13:36:53	14	82.5
145049	2025-11-14T13:46:53	13.7	82.5
145050	2025-11-14T13:56:53	13.5	84.5
145051	2025-11-14T14:06:53	13.4	84.5
145052	2025-11-14T14:16:53	13.7	85.5
145053	2025-11-14T14:26:53	13.6	86
145054	2025-11-14T14:36:53	13.4	85
145055	2025-11-14T14:46:53	13.2	86.5
145056	2025-11-14T14:56:53	13	87
145057	2025-11-14T15:06:53	12.9	87.5
145058	2025-11-14T15:16:53	12.8	88.5
145059	2025-11-14T15:26:53	12.6	89.5
145060	2025-11-14T15:36:53	12.4	90.5
145061	2025-11-14T15:46:53	12.3	90.5
145062	2025-11-14T15:56:53	12.2	90.5
145063	2025-11-14T16:06:53	12.1	91
145064	2025-11-14T16:16:53	12	92
145065	2025-11-14T16:26:53	12.1	91
145066	2025-11-14T16:36:53	11.8	92.5
145067	2025-11-14T16:46:53	11.8	92.5
145068	2025-11-14T16:56:53	11.8	92
145069	2025-11-14T17:06:53	11.8	92.5
145070	2025-11-14T17:16:53	11.7	93
145071	2025-11-14T17:26:53	11.5	94
145072	2025-11-14T17:36:53	11.4	94
145073	2025-11-14T17:46:53	11.3	94
145074	2025-11-14T17:56:53	11.3	93.5
145075	2025-11-14T18:06:53	11.3	93.5
145076	2025-11-14T18:16:53	11.2	92.5
145077	2025-11-14T18:26:53	11.1	94
145078	2025-11-14T18:36:53	11.1	94
145079	2025-11-14T18:46:53	10.9	94.5
145080	2025-11-14T18:56:53	10.7	95
145081	2025-11-14T19:06:53	10.6	95.5
145082	2025-11-14T19:16:53	10.5	95.5
145083	2025-11-14T19:26:53	10.4	96
145084	2025-11-14T19:36:53	10.4	96
145085	2025-11-14T19:46:53	10.3	96.5
145086	2025-11-14T19:56:53	10.5	95.5
145087	2025-11-14T20:06:53	10.4	95
145088	2025-11-14T20:16:53	10.1	96.5
145089	2025-11-14T20:26:53	10.3	96.5
145090	2025-11-14T20:36:53	10.4	95.5
145091	2025-11-14T20:46:53	10.5	95
145092	2025-11-14T20:56:53	10.6	94.5
145093	2025-11-14T21:06:53	10.5	95.5
145094	2025-11-14T21:16:53	10.6	96
145095	2025-11-14T21:26:53	10.6	95
145096	2025-11-14T21:36:53	10.8	94
145097	2025-11-14T21:46:53	11	94
145098	2025-11-14T21:56:53	10.9	93.5
145099	2025-11-14T22:06:53	10.9	94.5
145100	2025-11-14T22:16:53	10.7	95
145101	2025-11-14T22:26:53	10.7	95.5
145102	2025-11-14T22:36:53	10.7	95
145103	2025-11-14T22:46:53	10.5	95.5
145104	2025-11-14T22:56:53	10.6	95
145105	2025-11-14T23:06:53	10.5	95
145106	2025-11-14T23:16:53	10.4	96
145107	2025-11-14T23:26:53	10.4	96.5
145108	2025-11-14T23:36:53	10.5	96.5
145109	2025-11-14T23:46:53	10.4	96.5
145110	2025-11-14T23:56:53	10.2	96.5
145111	2025-11-15T00:06:53	10.2	96.5
145112	2025-11-15T00:16:53	10.3	96.5
145113	2025-11-15T00:26:53	10.3	96
145114	2025-11-15T00:36:52	10.4	97
145115	2025-11-15T00:46:52	10.3	97
145116	2025-11-15T00:56:52	10.2	97
145117	2025-11-15T01:06:52	10.4	96.5
145118	2025-11-15T01:16:52	10.5	96.5
145119	2025-11-15T01:26:52	10.4	97
145120	2025-11-15T01:36:52	10.4	96.5
145121	2025-11-15T01:46:52	10.4	96.5
145122	2025-11-15T01:56:52	10.4	97
145123	2025-11-15T02:06:52	10.5	96.5
145124	2025-11-15T02:16:52	10.5	97
145125	2025-11-15T02:26:52	10.6	96.5
145126	2025-11-15T02:36:52	10.5	96.5
145127	2025-11-15T02:46:52	10.5	97
145128	2025-11-15T02:56:52	10.5	97
145129	2025-11-15T03:06:52	10.5	96.5
145130	2025-11-15T03:16:52	10.4	97.5
145131	2025-11-15T03:26:52	10.5	97.5
145132	2025-11-15T03:36:52	10.4	98
145133	2025-11-15T03:46:52	10.6	98.5
145134	2025-11-15T03:56:52	10.4	98.5
145135	2025-11-15T04:06:52	10.4	98.5
145136	2025-11-15T04:16:52	10.5	99
145137	2025-11-15T04:26:52	10.5	99
145138	2025-11-15T04:36:52	10.4	99
145139	2025-11-15T04:46:52	10.4	99
145140	2025-11-15T04:56:52	10.4	99
145141	2025-11-15T05:06:52	10.3	99.5
145142	2025-11-15T05:16:52	10.4	99.5
145143	2025-11-15T05:26:52	10.3	100
145144	2025-11-15T05:36:52	10.4	99.5
145145	2025-11-15T05:46:52	10.6	98.5
145146	2025-11-15T05:56:52	10.7	98
145147	2025-11-15T06:06:52	10.9	96.5
145148	2025-11-15T06:16:52	10.9	96.5
145149	2025-11-15T06:26:52	11	96.5
145150	2025-11-15T06:36:52	10.8	97.5
145151	2025-11-15T06:46:52	10.9	98
145152	2025-11-15T06:56:52	10.8	97
145153	2025-11-15T07:06:52	10.8	98
145154	2025-11-15T07:16:52	11	97
145155	2025-11-15T07:26:52	10.9	97.5
145156	2025-11-15T07:36:52	10.9	98
145157	2025-11-15T07:46:52	11.2	96
145158	2025-11-15T07:56:52	11.3	96
145159	2025-11-15T08:06:52	11.4	95
145160	2025-11-15T08:16:52	11.5	95
145161	2025-11-15T08:26:52	11.5	95.5
145162	2025-11-15T08:36:52	11.6	95.5
145163	2025-11-15T08:46:52	11.6	95.5
145164	2025-11-15T08:56:52	11.8	95.5
145165	2025-11-15T09:06:52	11.7	95
145166	2025-11-15T09:16:52	12	94
145167	2025-11-15T09:26:52	12.1	94
145168	2025-11-15T09:36:52	12.3	95
145169	2025-11-15T09:46:52	12.6	94.5
145170	2025-11-15T09:56:52	12.7	94.5
145171	2025-11-15T10:06:52	13.1	95
145172	2025-11-15T10:16:52	13.5	93
145173	2025-11-15T10:26:52	13.6	93
145174	2025-11-15T10:36:52	13.7	92.5
145175	2025-11-15T10:46:52	13.8	92.5
145176	2025-11-15T10:56:52	13.7	92.5
145177	2025-11-15T11:06:52	13.6	93.5
145178	2025-11-15T11:16:52	13.6	96
145179	2025-11-15T11:26:52	13.3	100
145180	2025-11-15T11:36:52	13.1	98.5
145181	2025-11-15T11:46:52	13.2	99.5
145182	2025-11-15T12:06:52	13.8	98
145183	2025-11-15T12:16:52	14.3	97
145184	2025-11-15T12:26:52	14.6	97
145185	2025-11-15T12:36:52	14.9	95.5
145186	2025-11-15T12:46:52	14.9	94
145187	2025-11-15T12:56:52	16.1	82.5
145188	2025-11-15T13:06:52	16	79.5
145189	2025-11-15T13:16:52	16.6	77.5
145190	2025-11-15T13:26:52	17.8	74
145191	2025-11-15T13:36:52	17	76
145192	2025-11-15T13:46:52	16.6	77
145193	2025-11-15T13:57:09	16.6	79.5
145194	2025-11-15T14:06:52	16.4	77
145195	2025-11-15T14:16:52	19.7	66.5
145196	2025-11-15T14:26:52	17.9	70.5
145197	2025-11-15T14:36:52	17.1	74.5
145198	2025-11-15T14:46:52	18.7	71
145199	2025-11-15T14:56:51	17.2	74.5
145200	2025-11-15T15:06:51	16.2	75.5
145201	2025-11-15T15:16:51	15.8	79.5
145202	2025-11-15T15:26:51	15.4	81
145203	2025-11-15T15:36:51	15.2	82
145204	2025-11-15T15:46:51	15.1	82
145205	2025-11-15T15:56:51	14.9	82.5
145206	2025-11-15T16:06:51	14.8	85
145207	2025-11-15T16:16:51	14.6	87.5
145208	2025-11-15T16:26:51	14.4	88.5
145209	2025-11-15T16:36:51	14.5	87.5
145210	2025-11-15T16:46:51	14.4	87.5
145211	2025-11-15T16:56:51	14.3	89.5
145212	2025-11-15T17:06:51	14.1	90.5
145213	2025-11-15T17:16:51	14	90.5
145214	2025-11-15T17:26:51	14	91
145215	2025-11-15T17:36:51	14	91.5
145216	2025-11-15T17:46:51	13.8	92
145217	2025-11-15T17:56:51	13.7	92.5
145218	2025-11-15T18:06:51	13.7	93
145219	2025-11-15T18:16:51	13.5	93
145220	2025-11-15T18:26:51	13.4	93
145221	2025-11-15T18:36:51	13.3	94
145222	2025-11-15T18:46:51	13.3	94
145223	2025-11-15T18:56:51	13.1	94.5
145224	2025-11-15T19:06:51	12.9	95
145225	2025-11-15T19:16:51	13	95
145226	2025-11-15T19:26:51	13	95
145227	2025-11-15T19:36:51	13	94.5
145228	2025-11-15T19:46:51	12.7	93
145229	2025-11-15T19:56:51	12.7	95
145230	2025-11-15T20:06:51	12.6	95.5
145231	2025-11-15T20:16:51	12.4	96
145232	2025-11-15T20:26:51	12.4	96
145233	2025-11-15T20:36:51	12	96.5
145234	2025-11-15T20:46:51	11.9	95
145235	2025-11-15T20:56:51	12	92.5
145236	2025-11-15T21:06:51	11.7	95
145237	2025-11-15T21:16:51	11.4	95.5
145238	2025-11-15T21:26:51	11.2	96
145239	2025-11-15T21:36:51	11	96.5
145240	2025-11-15T21:46:51	10.8	97
145241	2025-11-15T21:56:51	10.7	97
145242	2025-11-15T22:06:51	10.4	97.5
145243	2025-11-15T22:16:51	10.2	97.5
145244	2025-11-15T22:26:51	10	97.5
145245	2025-11-15T22:36:51	9.8	97.5
145246	2025-11-15T22:46:51	9.7	97.5
145247	2025-11-15T22:56:51	9.6	96.5
145248	2025-11-15T23:06:51	9.4	96
145249	2025-11-15T23:16:51	9.2	97
145250	2025-11-15T23:26:51	9.1	97.5
145251	2025-11-15T23:36:51	8.8	97
145252	2025-11-15T23:46:51	8.7	97.5
145253	2025-11-15T23:56:51	8.4	98
145254	2025-11-16T00:06:51	8.3	98.5
145255	2025-11-16T00:16:51	8.3	98.5
145256	2025-11-16T00:26:51	8.1	98.5
145257	2025-11-16T00:36:51	7.9	98.5
145258	2025-11-16T00:46:51	7.9	98.5
145259	2025-11-16T00:56:51	7.7	99
145260	2025-11-16T01:06:51	7.6	99.5
145261	2025-11-16T01:16:51	7.5	99
145262	2025-11-16T01:26:51	7.2	98.5
145263	2025-11-16T01:36:51	7.2	99
145264	2025-11-16T01:46:51	7.1	99
145265	2025-11-16T01:56:51	7	99
145266	2025-11-16T02:06:51	6.8	99.5
145267	2025-11-16T02:16:51	6.7	99
145268	2025-11-16T02:26:51	6.6	99
145269	2025-11-16T02:36:51	6.5	98.5
145270	2025-11-16T02:46:51	6.4	99
145271	2025-11-16T02:56:51	6.3	99
145272	2025-11-16T03:06:51	6.1	98.5
145273	2025-11-16T03:16:51	6.1	99
145274	2025-11-16T03:26:51	5.9	99.5
145275	2025-11-16T03:36:51	5.9	99.5
145276	2025-11-16T03:46:51	5.7	100
145277	2025-11-16T03:56:51	5.8	100
145278	2025-11-16T04:06:51	5.6	99.5
145279	2025-11-16T04:16:51	5.5	99.5
145280	2025-11-16T04:26:51	5.4	100
145281	2025-11-16T04:36:51	5.4	100
145282	2025-11-16T04:46:51	5.4	100
145283	2025-11-16T04:56:51	5.2	100
145284	2025-11-16T05:06:51	5.2	100
145285	2025-11-16T05:16:51	5.1	100
145286	2025-11-16T05:26:51	4.9	100
145287	2025-11-16T05:36:51	5	100
145288	2025-11-16T05:46:51	4.8	100
145289	2025-11-16T05:56:51	4.8	100
145290	2025-11-16T06:06:51	4.8	100
145291	2025-11-16T06:16:51	4.6	100
145292	2025-11-16T06:26:51	4.7	99.5
145293	2025-11-16T06:36:51	4.6	99
145294	2025-11-16T06:46:51	4.6	100
145295	2025-11-16T06:56:51	4.4	100
145296	2025-11-16T07:06:51	4.4	100
145297	2025-11-16T07:16:51	4.6	100
145298	2025-11-16T07:36:51	4.8	100
145299	2025-11-16T07:46:51	5.1	99
145300	2025-11-16T07:56:51	5.3	99.5
145301	2025-11-16T08:06:51	5.6	99.5
145302	2025-11-16T08:16:51	5.9	100
145303	2025-11-16T08:26:51	6.1	100
145304	2025-11-16T08:36:51	6.4	99.5
145305	2025-11-16T08:46:51	6.7	99.5
145306	2025-11-16T08:56:50	7.1	99.5
145307	2025-11-16T09:06:50	7.3	99
145308	2025-11-16T09:16:50	7.7	98.5
145309	2025-11-16T09:26:50	7.9	98
145310	2025-11-16T09:36:50	8.2	98
145311	2025-11-16T09:46:50	8.5	97.5
145312	2025-11-16T10:06:50	8.9	97
145313	2025-11-16T10:16:50	9.2	97
145314	2025-11-16T10:26:50	9.2	96.5
145315	2025-11-16T10:36:50	9.6	96.5
145316	2025-11-16T10:46:50	9.9	96.5
145317	2025-11-16T10:56:50	10.3	94.5
145318	2025-11-16T11:06:50	10.4	92.5
145319	2025-11-16T11:16:50	10.7	92
145320	2025-11-16T11:26:50	10.9	91.5
145321	2025-11-16T11:36:50	11.2	91
145322	2025-11-16T11:46:50	11.3	91.5
145323	2025-11-16T11:56:50	11.4	90
145324	2025-11-16T12:06:50	11.5	89.5
145325	2025-11-16T12:16:50	11.5	89
145326	2025-11-16T12:26:50	11.5	88.5
145327	2025-11-16T12:36:50	11.4	89
145328	2025-11-16T12:46:50	11.3	91
145329	2025-11-16T12:56:50	11.4	90.5
145330	2025-11-16T13:06:50	11.3	90.5
145331	2025-11-16T13:16:50	11.4	91
145332	2025-11-16T13:26:50	11.4	90.5
145333	2025-11-16T13:36:50	11.2	91.5
145334	2025-11-16T13:46:50	11.1	92
145335	2025-11-16T13:56:50	11	92.5
145336	2025-11-16T14:06:50	10.9	93
145337	2025-11-16T14:16:50	10.8	93.5
145338	2025-11-16T14:26:50	10.8	93
145339	2025-11-16T14:36:50	10.7	93
145340	2025-11-16T14:46:50	10.6	93
145341	2025-11-16T14:56:50	10.5	94.5
145342	2025-11-16T15:06:50	10.5	94
145343	2025-11-16T15:16:50	10.4	95.5
145344	2025-11-16T15:26:50	10.2	96.5
145345	2025-11-16T15:36:50	10.2	97
145346	2025-11-16T15:46:50	10.1	97.5
145347	2025-11-16T15:56:50	10.1	98
145348	2025-11-16T16:06:50	10.1	98.5
145349	2025-11-16T16:16:50	10	99
145350	2025-11-16T16:26:50	9.9	99
145351	2025-11-16T16:36:50	10	99
145352	2025-11-16T16:46:50	10	98.5
145353	2025-11-16T16:56:50	10	99
145354	2025-11-16T17:06:50	9.9	99.5
145355	2025-11-16T17:16:50	9.9	100
145356	2025-11-16T17:26:50	9.9	100
145357	2025-11-16T17:36:50	9.7	100
145358	2025-11-16T17:46:50	9.7	100
145359	2025-11-16T17:56:50	9.8	100
145360	2025-11-16T18:06:50	9.6	100
145361	2025-11-16T18:16:50	9.7	100
145362	2025-11-16T18:26:50	9.7	100
145363	2025-11-16T18:36:50	9.4	100
145364	2025-11-16T18:46:50	9.6	100
145365	2025-11-16T18:56:50	9.5	100
145366	2025-11-16T19:06:50	9.5	100
145367	2025-11-16T19:16:50	9.6	100
145368	2025-11-16T19:26:50	9.5	100
145369	2025-11-16T19:36:50	9.4	100
145370	2025-11-16T19:46:50	9.6	100
145371	2025-11-16T19:56:50	9.5	100
145372	2025-11-16T20:06:50	9.5	100
145373	2025-11-16T20:16:50	9.6	100
145374	2025-11-16T20:26:50	9.5	100
145375	2025-11-16T20:36:50	9.5	100
145376	2025-11-16T20:46:50	9.6	100
145377	2025-11-16T20:56:50	9.4	100
145378	2025-11-16T21:06:50	9.5	100
145379	2025-11-16T21:16:50	9.6	100
145380	2025-11-16T21:26:50	9.5	100
145381	2025-11-16T21:36:50	9.5	100
145382	2025-11-16T21:46:50	9.5	100
145383	2025-11-16T21:56:50	9.5	100
145384	2025-11-16T22:06:50	9.4	100
145385	2025-11-16T22:16:50	9.5	100
145386	2025-11-16T22:26:50	9.4	100
145387	2025-11-16T22:36:50	9.3	100
145388	2025-11-16T22:46:50	9.5	100
145389	2025-11-16T22:56:50	9.5	100
145390	2025-11-16T23:06:50	9.6	100
145391	2025-11-16T23:16:50	9.7	100
145392	2025-11-16T23:26:50	9.8	100
145393	2025-11-16T23:36:50	9.7	100
145394	2025-11-16T23:46:50	9.7	100
145395	2025-11-16T23:56:50	9.8	100
145396	2025-11-17T00:06:50	9.8	100
145397	2025-11-17T00:16:50	9.9	100
145398	2025-11-17T00:26:50	9.8	100
145399	2025-11-17T00:36:50	9.8	100
145400	2025-11-17T00:46:50	9.8	100
145401	2025-11-17T00:56:50	9.9	100
145402	2025-11-17T01:06:50	9.8	100
145403	2025-11-17T01:16:49	9.9	100
145404	2025-11-17T01:26:49	9.7	100
145405	2025-11-17T01:36:49	9.7	100
145406	2025-11-17T01:46:49	9.7	100
145407	2025-11-17T01:56:49	9.6	100
145408	2025-11-17T02:06:49	9.6	100
145409	2025-11-17T02:16:49	9.6	100
145410	2025-11-17T02:26:49	9.5	100
145411	2025-11-17T02:36:49	9.6	100
145412	2025-11-17T02:46:49	9.4	100
145413	2025-11-17T02:56:49	9.3	100
145414	2025-11-17T03:06:49	9.3	100
145415	2025-11-17T03:16:49	9.3	100
145416	2025-11-17T03:26:49	9.2	99.5
145417	2025-11-17T03:36:49	9.1	98.5
145418	2025-11-17T03:46:49	9	98.5
145419	2025-11-17T03:56:49	9	97.5
145420	2025-11-17T04:06:49	8.9	97
145421	2025-11-17T04:16:49	8.7	97.5
145422	2025-11-17T04:27:09	8.5	99
145423	2025-11-17T04:36:49	8.3	100
145424	2025-11-17T04:46:49	8.3	100
145425	2025-11-17T04:56:49	8.1	100
145426	2025-11-17T05:06:49	8.2	100
145427	2025-11-17T05:16:49	8.1	100
145428	2025-11-17T05:26:49	8	99.5
145429	2025-11-17T05:36:49	7.8	98.5
145430	2025-11-17T05:46:49	7.6	100
145431	2025-11-17T05:56:49	7.4	100
145432	2025-11-17T06:06:49	7.1	100
145433	2025-11-17T06:16:49	7	100
145434	2025-11-17T06:26:49	6.9	100
145435	2025-11-17T06:36:49	6.9	100
145436	2025-11-17T06:46:49	6.8	100
145437	2025-11-17T06:56:49	6.2	100
145438	2025-11-17T07:06:49	6.1	97.5
145439	2025-11-17T07:16:49	5.8	97
145440	2025-11-17T07:26:49	5.7	97
145441	2025-11-17T07:36:49	5.7	97
145442	2025-11-17T07:46:49	5.5	97
145443	2025-11-17T07:56:49	5.1	98
145444	2025-11-17T08:06:49	5.2	99.5
145445	2025-11-17T08:16:49	5.1	98.5
145446	2025-11-17T08:26:49	5.1	99
145447	2025-11-17T08:36:49	5	99.5
145448	2025-11-17T08:46:49	5.3	99.5
145449	2025-11-17T08:56:49	5.4	99.5
145450	2025-11-17T09:06:49	5.3	100
145451	2025-11-17T09:16:49	4.9	99.5
145452	2025-11-17T09:26:49	4.8	100
145453	2025-11-17T09:36:49	4.6	100
145454	2025-11-17T09:46:49	4.9	100
145455	2025-11-17T09:56:49	4.9	100
145456	2025-11-17T10:06:49	5.5	100
145457	2025-11-17T10:16:49	6	94.5
145458	2025-11-17T10:26:49	6.1	91
145459	2025-11-17T10:36:49	5.8	88.5
145460	2025-11-17T10:46:49	5.5	88.5
145461	2025-11-17T10:56:49	5.6	90
145462	2025-11-17T11:06:49	5.8	90.5
145463	2025-11-17T11:16:49	5.9	89.5
145464	2025-11-17T11:26:49	6	90.5
145465	2025-11-17T11:36:49	5.9	89.5
145466	2025-11-17T11:46:49	5.9	89.5
145467	2025-11-17T11:56:49	6.1	89
145468	2025-11-17T12:06:49	6.4	88
145469	2025-11-17T12:16:49	6.3	89
145470	2025-11-17T12:26:49	6.2	89.5
145471	2025-11-17T12:36:49	6	89.5
145472	2025-11-17T12:46:49	5.9	93.5
145473	2025-11-17T12:56:49	5.7	94.5
145474	2025-11-17T13:06:49	5.8	93.5
145475	2025-11-17T13:16:49	5.7	93
145476	2025-11-17T13:26:49	5.7	100
145477	2025-11-17T13:36:49	5.8	100
145478	2025-11-17T13:46:49	5.6	100
145479	2025-11-17T13:56:49	5.9	100
145480	2025-11-17T14:06:49	6.2	100
145481	2025-11-17T14:16:49	5.8	100
145482	2025-11-17T14:26:49	5.2	100
145483	2025-11-17T14:36:49	5.4	100
145484	2025-11-17T14:46:49	5.3	100
145485	2025-11-17T14:56:49	5.1	100
145486	2025-11-17T15:06:49	5.2	100
145487	2025-11-17T15:16:49	5.4	100
145488	2025-11-17T15:26:49	5	100
145489	2025-11-17T15:36:49	4.8	100
145490	2025-11-17T15:46:49	4.8	100
145491	2025-11-17T15:56:49	5	100
145492	2025-11-17T16:06:49	4.9	100
145493	2025-11-17T16:16:49	4.7	100
145494	2025-11-17T16:26:49	4.8	100
145495	2025-11-17T16:36:49	4.9	100
145496	2025-11-17T16:46:49	4.4	100
145497	2025-11-17T16:56:49	4.3	100
145498	2025-11-17T17:06:49	3.8	100
145499	2025-11-17T17:16:49	3.5	100
145500	2025-11-17T17:26:49	3.2	100
145501	2025-11-17T17:36:49	3	100
145502	2025-11-17T17:46:49	2.9	100
145503	2025-11-17T17:56:49	2.5	100
145504	2025-11-17T18:06:49	2.3	100
145505	2025-11-17T18:16:49	2.3	100
145506	2025-11-17T18:26:49	2.3	100
145507	2025-11-17T18:36:49	2	100
145508	2025-11-17T18:46:49	1.9	100
145509	2025-11-17T18:56:49	1.7	100
145510	2025-11-17T19:06:49	2	100
145511	2025-11-17T19:16:49	1.8	100
145512	2025-11-17T19:26:49	2	100
145513	2025-11-17T19:36:49	2.4	100
145514	2025-11-17T19:46:49	2.1	100
145515	2025-11-17T19:56:49	1.9	100
145516	2025-11-17T20:06:49	1.7	100
145517	2025-11-17T20:16:49	1.6	100
145518	2025-11-17T20:26:49	1.6	100
145519	2025-11-17T20:36:49	1.6	100
145520	2025-11-17T20:46:49	1.8	100
145521	2025-11-17T20:56:49	1.8	100
145522	2025-11-17T21:06:49	1.9	100
145523	2025-11-17T21:16:49	2	100
145524	2025-11-17T21:26:49	1.8	100
145525	2025-11-17T21:36:49	1.6	100
145526	2025-11-17T21:46:49	1.3	100
145527	2025-11-17T21:56:49	1.3	100
145528	2025-11-17T22:06:49	1.4	100
145529	2025-11-17T22:16:49	1.7	100
145530	2025-11-17T22:26:49	1.8	100
145531	2025-11-17T22:36:49	1.7	100
145532	2025-11-17T22:46:49	1.2	100
145533	2025-11-17T22:56:49	0.9	100
145534	2025-11-17T23:06:49	0.7	100
145535	2025-11-17T23:16:49	0.7	100
145536	2025-11-17T23:26:49	0.3	100
145537	2025-11-17T23:36:49	0.2	100
145538	2025-11-17T23:46:49	0	100
145539	2025-11-17T23:56:49	0	100
145540	2025-11-18T00:06:49	-0.2	100
145541	2025-11-18T00:16:49	-0.4	100
145542	2025-11-18T00:26:49	-0.5	100
145543	2025-11-18T00:36:49	-0.5	100
145544	2025-11-18T00:46:49	-0.6	100
145545	2025-11-18T00:56:49	-0.8	100
145546	2025-11-18T01:06:49	-0.8	100
145547	2025-11-18T01:16:49	-0.9	100
145548	2025-11-18T01:26:49	-1	100
145549	2025-11-18T01:36:49	-1.2	100
145550	2025-11-18T01:46:49	-0.9	100
145551	2025-11-18T01:56:49	-1.1	100
145552	2025-11-18T02:06:49	-1.2	100
145553	2025-11-18T02:16:49	-1.4	100
145554	2025-11-18T02:26:49	-1.4	100
145555	2025-11-18T02:36:49	-1.5	100
145556	2025-11-18T02:46:49	-1.7	100
145557	2025-11-18T02:56:49	-1.6	100
145558	2025-11-18T03:06:49	-1.5	100
145559	2025-11-18T03:16:49	-1.6	100
145560	2025-11-18T03:26:49	-1.5	100
145561	2025-11-18T03:36:49	-1.7	100
145562	2025-11-18T03:46:49	-1.8	100
145563	2025-11-18T03:56:49	-1.7	100
145564	2025-11-18T04:06:49	-1.9	100
145565	2025-11-18T04:16:49	-2	100
145566	2025-11-18T04:26:49	-2	100
145567	2025-11-18T04:36:49	-2.1	100
145568	2025-11-18T04:46:49	-2.2	100
145569	2025-11-18T04:56:49	-1.1	100
145570	2025-11-18T05:06:49	-1.8	100
145571	2025-11-18T05:16:49	-2	100
145572	2025-11-18T05:26:49	-2.2	100
145573	2025-11-18T05:36:49	-2	100
145574	2025-11-18T05:46:49	-2.1	100
145575	2025-11-18T05:56:49	-2.4	100
145576	2025-11-18T06:06:49	-2.5	100
145577	2025-11-18T06:16:49	-2.5	100
145578	2025-11-18T06:26:49	-2.6	100
145579	2025-11-18T06:36:49	-2.6	100
145580	2025-11-18T06:46:49	-2.7	100
145581	2025-11-18T06:56:49	-2.6	100
145582	2025-11-18T07:06:49	-2.6	100
145583	2025-11-18T07:16:49	-2.5	100
145584	2025-11-18T07:26:49	-2.2	100
145585	2025-11-18T07:36:49	-1.9	100
145586	2025-11-18T07:46:49	-1.6	100
145587	2025-11-18T07:56:49	-1.6	100
145588	2025-11-18T08:06:49	-1.5	100
145589	2025-11-18T08:16:49	-1.5	100
145590	2025-11-18T08:26:49	-1.2	100
145591	2025-11-18T08:36:49	-1	100
145592	2025-11-18T08:46:49	-0.9	100
145593	2025-11-18T08:56:49	-0.6	100
145594	2025-11-18T09:06:49	-0.6	100
145595	2025-11-18T09:16:49	-0.4	100
145596	2025-11-18T09:26:49	-0.5	100
145597	2025-11-18T09:36:49	0	100
145598	2025-11-18T09:46:49	0	100
145599	2025-11-18T09:56:49	0.1	100
145600	2025-11-18T10:06:49	0.5	100
145601	2025-11-18T10:16:49	0.7	100
145602	2025-11-18T10:26:49	1	100
145603	2025-11-18T10:36:49	1.4	100
145604	2025-11-18T10:46:49	1.7	100
145605	2025-11-18T10:56:49	2.1	100
145606	2025-11-18T11:06:49	2.4	100
145607	2025-11-18T11:16:49	2.8	100
145608	2025-11-18T11:26:49	3.5	100
145609	2025-11-18T11:36:49	5.4	97.5
145610	2025-11-18T11:46:49	7.3	94.5
145611	2025-11-18T11:56:49	8.3	82
145612	2025-11-18T12:06:49	9.1	75.5
145613	2025-11-18T12:16:49	10.1	71.5
145614	2025-11-18T12:26:49	11	66.5
145615	2025-11-18T12:36:49	12.2	76
145616	2025-11-18T12:46:49	12.4	63
145617	2025-11-18T12:56:49	13.3	56.5
145618	2025-11-18T13:06:49	14.9	52.5
145619	2025-11-18T13:16:49	15	52
145620	2025-11-18T13:26:49	15.3	53
145621	2025-11-18T13:36:49	15.6	50.5
145622	2025-11-18T13:46:49	16.4	46.5
145623	2025-11-18T13:56:49	16	48
145624	2025-11-18T14:06:48	15.8	48.5
145625	2025-11-18T14:16:48	16.3	46
145626	2025-11-18T14:26:48	14.8	47.5
145627	2025-11-18T14:36:48	14.9	48
145628	2025-11-18T14:46:48	13.8	49
145629	2025-11-18T14:56:48	13.8	51
145630	2025-11-18T15:06:48	13.8	52.5
145631	2025-11-18T15:16:48	10.6	61
145632	2025-11-18T15:26:48	9	64
145633	2025-11-18T15:36:48	8.6	73
145634	2025-11-18T15:46:48	7.9	73.5
145635	2025-11-18T15:56:48	7.3	75.5
145636	2025-11-18T16:06:48	6.8	78
145637	2025-11-18T16:16:48	6.2	80
145638	2025-11-18T16:26:48	5.8	81
145639	2025-11-18T16:36:48	5.4	82.5
145640	2025-11-18T16:46:48	5.1	81.5
145641	2025-11-18T16:56:48	4.6	82.5
145642	2025-11-18T17:06:48	4	81
145643	2025-11-18T17:16:48	3.6	85
145644	2025-11-18T17:26:48	3.4	85.5
145645	2025-11-18T17:36:48	3.2	86.5
145646	2025-11-18T17:46:48	3.1	87.5
145647	2025-11-18T17:56:48	2.8	88
145648	2025-11-18T18:06:48	2.7	88.5
145649	2025-11-18T18:16:48	2.3	89
145650	2025-11-18T18:26:48	2.1	89.5
145651	2025-11-18T18:36:48	1.8	90
145652	2025-11-18T18:46:48	1.7	90.5
145653	2025-11-18T18:56:48	1.6	91
145654	2025-11-18T19:06:48	1.4	90.5
145655	2025-11-18T19:16:48	1.4	91.5
145656	2025-11-18T19:26:48	1.2	92
145657	2025-11-18T19:36:48	1	93
145658	2025-11-18T19:46:48	0.9	93.5
145659	2025-11-18T19:56:48	0.8	94
145660	2025-11-18T20:06:48	0.8	94
145661	2025-11-18T20:16:48	0.8	94
145662	2025-11-18T20:26:48	0.7	94
145663	2025-11-18T20:36:48	1	91
145664	2025-11-18T20:46:48	1.3	88.5
145665	2025-11-18T20:56:48	1.2	87
145666	2025-11-18T21:06:48	1.2	86
145667	2025-11-18T21:16:48	1.1	86
145668	2025-11-18T21:26:48	0.9	86.5
145669	2025-11-18T21:36:48	0.8	88
145670	2025-11-18T21:46:48	0.7	89
145671	2025-11-18T21:56:48	0.5	89
145672	2025-11-18T22:06:48	0.5	88.5
145673	2025-11-18T22:16:48	0.5	88
145674	2025-11-18T22:26:48	0.5	88
145675	2025-11-18T22:36:48	0.6	88
145676	2025-11-18T22:46:48	0.4	88.5
145677	2025-11-18T22:56:48	0.5	89
145678	2025-11-18T23:06:48	0.8	89.5
145679	2025-11-18T23:16:48	0.9	90
145680	2025-11-18T23:26:48	1.1	88.5
145681	2025-11-18T23:36:48	1.1	88
145682	2025-11-18T23:46:48	1.3	87.5
145683	2025-11-18T23:56:48	0.8	89
145684	2025-11-19T00:06:48	0.6	89.5
145685	2025-11-19T00:16:48	0.8	90.5
145686	2025-11-19T00:26:48	1.1	89.5
145687	2025-11-19T00:36:48	1.3	89.5
145688	2025-11-19T00:46:48	1.3	91
145689	2025-11-19T00:56:48	1.4	89
145690	2025-11-19T01:06:48	1.6	88
145691	2025-11-19T01:16:48	1.7	88.5
145692	2025-11-19T01:26:48	1.8	86.5
145693	2025-11-19T01:36:48	1.9	86.5
145694	2025-11-19T01:46:48	1.6	87.5
145695	2025-11-19T01:56:48	1	89
145696	2025-11-19T02:06:48	0.7	89.5
145697	2025-11-19T02:16:48	0.7	90
145698	2025-11-19T02:26:48	0.5	90
145699	2025-11-19T02:36:48	0.6	89.5
145700	2025-11-19T02:46:48	0.1	91
145701	2025-11-19T02:56:48	-0.2	93
145702	2025-11-19T03:06:48	-0.5	94
145703	2025-11-19T03:16:48	-0.8	96
145704	2025-11-19T03:26:48	-1.2	97.5
145705	2025-11-19T03:36:48	-1.2	98.5
145706	2025-11-19T03:46:48	-1.3	98.5
145707	2025-11-19T03:56:48	-1.1	98
145708	2025-11-19T04:06:48	-1	97.5
145709	2025-11-19T04:16:48	-1.4	98.5
145710	2025-11-19T04:26:48	-1.7	99
145711	2025-11-19T04:36:48	-1.7	99.5
145712	2025-11-19T04:46:48	-1.8	100
145713	2025-11-19T04:56:48	-1.9	100
145714	2025-11-19T05:06:48	-1.9	100
145715	2025-11-19T05:16:48	-1.8	100
145716	2025-11-19T05:26:48	-1.5	100
145717	2025-11-19T05:36:48	-1.4	100
145718	2025-11-19T05:46:48	-1.1	99.5
145719	2025-11-19T05:56:48	-1	98.5
145720	2025-11-19T06:06:48	-0.9	98
145721	2025-11-19T06:16:48	-0.8	98
145722	2025-11-19T06:26:48	-0.8	97
145723	2025-11-19T06:36:48	-0.6	97
145724	2025-11-19T06:46:48	-0.6	97
145725	2025-11-19T06:56:48	-0.6	97
145726	2025-11-19T07:06:48	-0.5	97
145727	2025-11-19T07:16:48	-0.3	97
145728	2025-11-19T07:26:48	0	96
145729	2025-11-19T07:36:48	0.1	95.5
145730	2025-11-19T07:46:48	0.3	94.5
145731	2025-11-19T07:56:48	0.4	93
145732	2025-11-19T08:06:48	0.5	93.5
145733	2025-11-19T08:16:48	0.6	93
145734	2025-11-19T08:26:48	0.9	92.5
145735	2025-11-19T08:36:48	1.1	90.5
145736	2025-11-19T08:46:48	1.3	90.5
145737	2025-11-19T08:56:48	2.4	88.5
145738	2025-11-19T09:06:48	3.1	86.5
145739	2025-11-19T09:16:48	3.6	84
145740	2025-11-19T09:26:48	4.4	78
145741	2025-11-19T09:36:48	4.9	74.5
145742	2025-11-19T09:46:48	4.9	73.5
145743	2025-11-19T09:56:48	4.7	74.5
145744	2025-11-19T10:06:48	5.1	72.5
145745	2025-11-19T10:16:48	5	74
145746	2025-11-19T10:26:48	5.2	73.5
145747	2025-11-19T10:36:48	5.9	69.5
145748	2025-11-19T10:46:48	6.7	68
145749	2025-11-19T10:56:48	7.6	65
145750	2025-11-19T11:06:48	7.7	63
145751	2025-11-19T11:16:48	7.7	62.5
145752	2025-11-19T11:26:48	8	62.5
145753	2025-11-19T11:36:48	9.4	58
145754	2025-11-19T11:46:48	10.2	54
145755	2025-11-19T11:56:48	11.1	52.5
145756	2025-11-19T12:06:48	9.9	53
145757	2025-11-19T12:16:48	11.2	51
145758	2025-11-19T12:26:48	12.1	49
145759	2025-11-19T12:36:48	12.3	47.5
145760	2025-11-19T12:46:48	10	52.5
145761	2025-11-19T12:56:48	11.2	51.5
145762	2025-11-19T13:06:48	12.1	49.5
145763	2025-11-19T13:16:48	12.7	47
145764	2025-11-19T13:36:48	12.6	47.5
145765	2025-11-19T13:46:48	10.5	52.5
145766	2025-11-19T13:56:48	12.7	48
145767	2025-11-19T14:06:48	12.3	48.5
145768	2025-11-19T14:16:48	12.7	47
145769	2025-11-19T14:26:48	12.8	47
145770	2025-11-19T14:36:48	12.2	49
145771	2025-11-19T14:46:48	12.7	48
145772	2025-11-19T14:56:48	12.9	45.5
145773	2025-11-19T15:06:48	10.4	50.5
145774	2025-11-19T15:16:48	8.9	53
145775	2025-11-19T15:26:48	8.6	53.5
145776	2025-11-19T15:36:48	8.2	54.5
145777	2025-11-19T15:46:48	7.8	56.5
145778	2025-11-19T15:56:48	7.5	58.5
145779	2025-11-19T16:06:48	7.2	58
145780	2025-11-19T16:16:48	7.3	58.5
145781	2025-11-19T16:26:48	7.1	59
145782	2025-11-19T16:36:48	7.3	59.5
145783	2025-11-19T16:46:48	7.2	59
145784	2025-11-19T16:56:48	7	60
145785	2025-11-19T17:06:48	7.1	59.5
145786	2025-11-19T17:16:48	7	59.5
145787	2025-11-19T17:26:48	7	59.5
145788	2025-11-19T17:36:48	6.9	61
145789	2025-11-19T17:46:48	6.3	76.5
145790	2025-11-19T17:56:48	6.2	68.5
145791	2025-11-19T18:06:48	4.9	90
145792	2025-11-19T18:16:48	4.2	98.5
145793	2025-11-19T18:26:48	4	100
145794	2025-11-19T18:36:48	3.7	100
145795	2025-11-19T18:46:48	3.8	100
145796	2025-11-19T18:56:48	3.7	100
145797	2025-11-19T19:06:48	3.7	100
145798	2025-11-19T19:16:48	3.8	100
145799	2025-11-19T19:26:48	3.8	100
145800	2025-11-19T19:36:48	3.8	100
145801	2025-11-19T19:46:48	3.6	100
145802	2025-11-19T19:56:48	3.7	100
145803	2025-11-19T20:06:48	3.5	100
145804	2025-11-19T20:16:48	3.6	100
145805	2025-11-19T20:26:48	3.6	100
145806	2025-11-19T20:36:48	3.5	100
145807	2025-11-19T20:46:48	3.5	100
145808	2025-11-19T20:56:48	3.7	100
145809	2025-11-19T21:06:48	3.8	100
145810	2025-11-19T21:16:48	3.9	100
145811	2025-11-19T21:26:48	4	100
145812	2025-11-19T21:36:48	3.8	100
145813	2025-11-19T21:46:48	3.9	100
145814	2025-11-19T21:56:48	4.1	100
145815	2025-11-19T22:06:48	4.2	100
145816	2025-11-19T22:16:48	4.3	100
145817	2025-11-19T22:26:48	4	100
145818	2025-11-19T22:36:48	4.1	100
145819	2025-11-19T22:46:48	4.1	100
145820	2025-11-19T22:56:48	3.7	100
145821	2025-11-19T23:06:48	3.8	100
145822	2025-11-19T23:16:48	4.1	100
145823	2025-11-19T23:26:48	3.7	100
145824	2025-11-19T23:36:48	3.4	100
145825	2025-11-19T23:46:48	3.3	100
145826	2025-11-19T23:56:48	3.3	100
145827	2025-11-20T00:06:48	3.4	100
145828	2025-11-20T00:16:48	3.4	100
145829	2025-11-20T00:27:05	3.8	100
145830	2025-11-20T00:36:47	3.9	100
145831	2025-11-20T00:46:47	4.2	100
145832	2025-11-20T00:56:47	4.4	100
145833	2025-11-20T01:06:47	4.6	100
145834	2025-11-20T01:16:47	4.5	100
145835	2025-11-20T01:26:47	4.2	100
145836	2025-11-20T01:36:47	4.2	100
145837	2025-11-20T01:46:47	4.1	100
145838	2025-11-20T01:56:47	4	100
145839	2025-11-20T02:06:47	4	100
145840	2025-11-20T02:16:47	4	100
145841	2025-11-20T02:26:47	4	100
145842	2025-11-20T02:36:47	3.6	100
145843	2025-11-20T02:46:47	3.4	100
145844	2025-11-20T02:56:47	3.4	100
145845	2025-11-20T03:06:47	3.4	100
145846	2025-11-20T03:16:47	3.3	100
145847	2025-11-20T03:26:47	3.2	100
145848	2025-11-20T03:36:47	3.2	100
145849	2025-11-20T03:46:47	3.2	100
145850	2025-11-20T03:56:47	3.1	100
145851	2025-11-20T04:06:47	3.3	100
145852	2025-11-20T04:16:47	3.3	100
145853	2025-11-20T04:26:47	3.4	100
145854	2025-11-20T04:36:47	3.5	100
145855	2025-11-20T04:46:47	3.4	100
145856	2025-11-20T04:56:47	3.4	100
145857	2025-11-20T05:06:47	3.4	100
145858	2025-11-20T05:16:47	3.2	100
145859	2025-11-20T05:26:47	3	100
145860	2025-11-20T05:36:47	2.8	100
145861	2025-11-20T05:46:47	2.7	100
145862	2025-11-20T05:56:47	2.7	100
145863	2025-11-20T06:06:47	2.7	100
145864	2025-11-20T06:16:47	2.9	100
145865	2025-11-20T06:26:47	2.9	100
145866	2025-11-20T06:36:47	3	100
145867	2025-11-20T06:46:47	3	100
145868	2025-11-20T06:56:47	2.9	100
145869	2025-11-20T07:06:47	2.9	100
145870	2025-11-20T07:16:47	3	100
145871	2025-11-20T07:26:47	3.1	100
145872	2025-11-20T07:36:47	3.1	100
145873	2025-11-20T07:46:47	3.2	100
145874	2025-11-20T07:56:47	3.3	100
145875	2025-11-20T08:06:47	3.4	100
145876	2025-11-20T08:16:47	3.5	100
145877	2025-11-20T08:26:47	3.6	100
145878	2025-11-20T08:36:47	3.6	100
145879	2025-11-20T08:46:47	3.6	100
145880	2025-11-20T08:56:47	3.8	100
145881	2025-11-20T09:06:47	3.8	100
145882	2025-11-20T09:16:47	3.8	100
145883	2025-11-20T09:26:47	4	100
145884	2025-11-20T09:36:47	4.2	100
145885	2025-11-20T09:46:47	4.5	100
145886	2025-11-20T09:56:47	4.3	100
145887	2025-11-20T10:06:47	4.6	100
145888	2025-11-20T10:16:47	4.6	100
145889	2025-11-20T10:26:47	4.4	100
145890	2025-11-20T10:36:47	4.5	100
145891	2025-11-20T10:46:47	4.5	100
145892	2025-11-20T10:56:47	4.1	100
145893	2025-11-20T11:06:47	4.1	100
145894	2025-11-20T11:26:47	4.2	100
145895	2025-11-20T11:36:47	4.4	100
145896	2025-11-20T11:46:47	4.8	100
145897	2025-11-20T11:56:47	5.2	100
145898	2025-11-20T12:06:47	8.1	100
145899	2025-11-20T12:16:47	9.6	100
145900	2025-11-20T12:26:47	10.6	100
145901	2025-11-20T12:36:47	7.8	100
145902	2025-11-20T12:46:47	10.8	100
145903	2025-11-20T12:56:47	11.6	100
145904	2025-11-20T13:06:47	10.3	100
145905	2025-11-20T13:16:47	8	100
145906	2025-11-20T13:26:47	7.2	100
145907	2025-11-20T13:36:47	6.7	100
145908	2025-11-20T13:46:47	6.4	100
145909	2025-11-20T13:56:47	5.9	100
145910	2025-11-20T14:06:47	5.9	100
145911	2025-11-20T14:16:47	5.9	100
145912	2025-11-20T14:26:47	5.9	100
145913	2025-11-20T14:36:47	5.8	100
145914	2025-11-20T14:46:47	6	100
145915	2025-11-20T14:56:47	6	100
145916	2025-11-20T15:06:47	4.8	100
145917	2025-11-20T15:16:47	4.1	100
145918	2025-11-20T15:26:47	3.7	100
145919	2025-11-20T15:36:47	3.5	100
145920	2025-11-20T15:46:47	3.6	100
145921	2025-11-20T15:56:47	3.6	100
145922	2025-11-20T16:06:47	3.9	100
145923	2025-11-20T16:16:47	3.8	100
145924	2025-11-20T16:26:47	3.6	100
145925	2025-11-20T16:36:47	3.5	100
145926	2025-11-20T16:46:47	3.4	100
145927	2025-11-20T16:56:47	3.1	100
145928	2025-11-20T17:06:47	2.8	100
145929	2025-11-20T17:16:47	2.7	100
145930	2025-11-20T17:26:47	2.5	100
145931	2025-11-20T17:36:47	2.3	100
145932	2025-11-20T17:46:47	2.3	100
145933	2025-11-20T17:56:47	2.1	100
145934	2025-11-20T18:06:47	1.9	100
145935	2025-11-20T18:16:47	1.8	100
145936	2025-11-20T18:26:47	1.7	100
145937	2025-11-20T18:36:47	1.6	100
145938	2025-11-20T18:46:47	1.4	100
145939	2025-11-20T18:56:47	1.5	100
145940	2025-11-20T19:06:47	1.5	100
145941	2025-11-20T19:16:47	1.3	100
145942	2025-11-20T19:26:47	1	100
145943	2025-11-20T19:36:47	0.8	100
145944	2025-11-20T19:46:47	0.9	100
145945	2025-11-20T19:56:47	1.2	100
145946	2025-11-20T20:06:47	1.1	100
145947	2025-11-20T20:16:47	1.2	100
145948	2025-11-20T20:26:47	1.3	100
145949	2025-11-20T20:36:47	1.3	100
145950	2025-11-20T20:46:47	1.5	100
145951	2025-11-20T20:56:47	1.4	100
145952	2025-11-20T21:06:47	1.5	100
145953	2025-11-20T21:16:47	1.5	100
145954	2025-11-20T21:26:47	1.5	100
145955	2025-11-20T21:36:47	1.5	100
145956	2025-11-20T21:46:47	1.5	100
145957	2025-11-20T21:56:47	1.4	100
145958	2025-11-20T22:06:47	1.6	100
145959	2025-11-20T22:16:47	1.6	100
145960	2025-11-20T22:26:47	1.6	100
145961	2025-11-20T22:36:47	1.6	100
145962	2025-11-20T22:46:47	1.5	100
145963	2025-11-20T22:56:47	1.6	100
145964	2025-11-20T23:06:47	1.6	100
145965	2025-11-20T23:16:47	1.7	100
145966	2025-11-20T23:26:47	1.6	100
145967	2025-11-20T23:36:47	1.8	100
145968	2025-11-20T23:46:47	1.8	100
145969	2025-11-20T23:56:47	1.7	100
145970	2025-11-21T00:06:47	1.7	100
145971	2025-11-21T00:16:47	1.6	100
145972	2025-11-21T00:26:47	1.7	100
145973	2025-11-21T00:36:47	1.8	100
145974	2025-11-21T00:46:47	1.8	100
145975	2025-11-21T00:56:47	1.8	100
145976	2025-11-21T01:06:47	1.8	100
145977	2025-11-21T01:16:47	1.9	100
145978	2025-11-21T01:26:47	1.9	100
145979	2025-11-21T01:36:47	1.7	100
145980	2025-11-21T01:46:47	1.5	100
145981	2025-11-21T01:56:47	1.7	100
145982	2025-11-21T02:06:47	1.6	100
145983	2025-11-21T02:16:47	1.6	100
145984	2025-11-21T02:26:47	1.7	100
145985	2025-11-21T02:36:47	1.5	100
145986	2025-11-21T02:46:47	1.5	100
145987	2025-11-21T02:56:47	1.3	100
145988	2025-11-21T03:06:47	1.1	100
145989	2025-11-21T03:16:47	1.3	100
145990	2025-11-21T03:26:47	1.4	100
145991	2025-11-21T03:36:47	1.6	100
145992	2025-11-21T03:46:47	1.7	100
145993	2025-11-21T03:56:47	1.7	100
145994	2025-11-21T04:06:47	1.8	100
145995	2025-11-21T04:16:47	1.9	100
145996	2025-11-21T04:26:47	1.9	100
145997	2025-11-21T04:36:47	2	100
145998	2025-11-21T04:46:47	2	100
145999	2025-11-21T04:56:47	2.1	100
146000	2025-11-21T05:06:47	2.1	100
146001	2025-11-21T05:16:47	2.1	100
146002	2025-11-21T05:26:47	2.1	100
146003	2025-11-21T05:36:47	2	100
146004	2025-11-21T05:46:47	1.9	100
146005	2025-11-21T05:56:47	2.1	100
146006	2025-11-21T06:06:47	2.1	100
146007	2025-11-21T06:16:47	2.1	100
146008	2025-11-21T06:26:47	2.3	100
146009	2025-11-21T06:46:47	2.3	100
146010	2025-11-21T06:56:47	2.3	100
146011	2025-11-21T07:06:47	2.2	100
146012	2025-11-21T07:16:47	2.3	100
146013	2025-11-21T07:26:47	2.3	100
146014	2025-11-21T07:36:47	2.3	100
146015	2025-11-21T07:46:47	2.3	100
146016	2025-11-21T07:56:47	2.3	100
146017	2025-11-21T08:06:47	2.5	100
146018	2025-11-21T08:16:47	2.4	100
146019	2025-11-21T08:26:47	2.6	100
146020	2025-11-21T08:36:47	2.6	100
146021	2025-11-21T08:46:47	2.6	100
146022	2025-11-21T08:56:47	2.3	100
146023	2025-11-21T09:06:47	2.2	100
146024	2025-11-21T09:16:47	2	100
146025	2025-11-21T09:26:47	2	100
146026	2025-11-21T09:36:47	2	100
146027	2025-11-21T09:46:47	1.6	100
146028	2025-11-21T09:56:47	2	100
146029	2025-11-21T10:06:47	1.7	100
146030	2025-11-21T10:16:47	1.6	100
146031	2025-11-21T10:26:47	1.8	100
146032	2025-11-21T10:36:47	2.2	100
146033	2025-11-21T10:46:47	2.5	100
146034	2025-11-21T10:56:47	2.8	100
146035	2025-11-21T11:06:47	3	100
146036	2025-11-21T11:16:47	3.3	100
146037	2025-11-21T11:26:47	3.4	100
146038	2025-11-21T11:36:47	4.5	100
146039	2025-11-21T11:46:47	5.1	100
146040	2025-11-21T11:56:47	5.7	100
146041	2025-11-21T12:06:47	7.1	100
146042	2025-11-21T12:16:47	7.9	100
146043	2025-11-21T12:26:47	8	100
146044	2025-11-21T12:36:47	8	100
146045	2025-11-21T12:46:47	6.6	100
146046	2025-11-21T12:56:47	6.6	100
146047	2025-11-21T13:06:47	9.3	100
146048	2025-11-21T13:16:47	9.2	87.5
146049	2025-11-21T13:26:47	9.5	72.5
146050	2025-11-21T13:36:46	8.6	63
146051	2025-11-21T13:46:46	7.6	68
146052	2025-11-21T13:56:46	7.2	69
146053	2025-11-21T14:06:46	7.9	65
146054	2025-11-21T14:16:46	8.8	60
146055	2025-11-21T14:26:46	9.2	57
146056	2025-11-21T14:36:46	10	56.5
146057	2025-11-21T14:46:46	9.7	58
146058	2025-11-21T14:56:46	10.2	57.5
146059	2025-11-21T15:06:46	7.9	60
146060	2025-11-21T15:16:46	5.9	65.5
146061	2025-11-21T15:26:46	4.9	69.5
146062	2025-11-21T15:36:46	4.2	72.5
146063	2025-11-21T15:46:46	3.7	72.5
146064	2025-11-21T15:56:46	3.2	72.5
146065	2025-11-21T16:06:46	2.8	77
146066	2025-11-21T16:16:46	2.4	78.5
146067	2025-11-21T16:26:46	2.1	79.5
146068	2025-11-21T16:36:46	1.9	79.5
146069	2025-11-21T16:46:46	1.8	80.5
146070	2025-11-21T16:56:46	1.3	82
146071	2025-11-21T17:06:46	1.2	83.5
146072	2025-11-21T17:16:46	1	85
146073	2025-11-21T17:26:46	0.7	86
146074	2025-11-21T17:36:46	0.6	87
146075	2025-11-21T17:46:46	0.2	87.5
146076	2025-11-21T17:56:46	0.1	88
146077	2025-11-21T18:06:46	0	87
146078	2025-11-21T18:16:46	-0.2	89
146079	2025-11-21T18:26:46	-0.4	89.5
146080	2025-11-21T18:36:46	-0.6	90.5
146081	2025-11-21T18:46:46	-0.7	90.5
146082	2025-11-21T18:56:46	-0.9	89.5
146083	2025-11-21T19:06:46	-1.1	91.5
146084	2025-11-21T19:16:46	-1.2	91.5
146085	2025-11-21T19:26:46	-1.3	91
146086	2025-11-21T19:36:46	-1.5	92.5
146087	2025-11-21T19:46:46	-1.6	92.5
146088	2025-11-21T19:56:46	-1.7	93
146089	2025-11-21T20:06:46	-1.8	94
146090	2025-11-21T20:16:46	-1.9	94
146091	2025-11-21T20:26:46	-1.9	94.5
146092	2025-11-21T20:36:46	-2.2	95
146093	2025-11-21T20:46:46	-2.1	94.5
146094	2025-11-21T20:56:46	-2.3	94.5
146095	2025-11-21T21:06:46	-2.3	95.5
146096	2025-11-21T21:16:46	-2.5	96
146097	2025-11-21T21:26:46	-2.6	96.5
146098	2025-11-21T21:36:46	-2.5	97
146099	2025-11-21T21:46:46	-2.6	97
146100	2025-11-21T21:56:46	-2.7	97.5
146101	2025-11-21T22:06:46	-2.8	98.5
146102	2025-11-21T22:16:46	-3	99
146103	2025-11-21T22:26:46	-3.1	99.5
146104	2025-11-21T22:36:46	-3.3	99.5
146105	2025-11-21T22:46:46	-2.9	100
146106	2025-11-21T22:56:46	-2.9	99.5
146107	2025-11-21T23:06:46	-3.4	100
146108	2025-11-21T23:16:46	-3.3	100
146109	2025-11-21T23:26:46	-3.6	100
146110	2025-11-21T23:36:46	-3.7	100
146111	2025-11-21T23:46:46	-3.8	100
146112	2025-11-21T23:56:46	-3.8	100
146113	2025-11-22T00:06:46	-3.6	100
146114	2025-11-22T00:16:46	-3.6	100
146115	2025-11-22T00:26:46	-3.9	100
146116	2025-11-22T00:36:46	-4.1	100
146117	2025-11-22T00:46:46	-4	100
146118	2025-11-22T00:56:46	-4.1	100
146119	2025-11-22T01:06:46	-4.2	100
146120	2025-11-22T01:16:46	-4.4	99.5
146121	2025-11-22T01:26:46	-4.5	99.5
146122	2025-11-22T01:36:46	-4.6	99.5
146123	2025-11-22T01:46:46	-4.6	99
146124	2025-11-22T01:56:46	-4.7	99
146125	2025-11-22T02:06:46	-4.7	99
146126	2025-11-22T02:16:46	-4.8	99
146127	2025-11-22T02:26:46	-5	99
146128	2025-11-22T02:36:46	-4.8	99.5
146129	2025-11-22T02:46:46	-5	99
146130	2025-11-22T02:56:46	-5	99.5
146131	2025-11-22T03:06:46	-5.1	99
146132	2025-11-22T03:16:46	-5	100
146133	2025-11-22T03:26:46	-5.1	99
146134	2025-11-22T03:36:47	-5.2	99
146135	2025-11-22T03:46:47	-5.2	99
146136	2025-11-22T03:56:47	-5.3	99
146137	2025-11-22T04:06:47	-5.5	98.5
146138	2025-11-22T04:16:47	-5.5	99.5
146139	2025-11-22T04:26:47	-5.4	99
146140	2025-11-22T04:36:47	-5.7	98.5
146141	2025-11-22T04:46:47	-5.8	98.5
146142	2025-11-22T04:56:47	-5.8	99
146143	2025-11-22T05:06:47	-6	98.5
146144	2025-11-22T05:16:47	-6.1	98.5
146145	2025-11-22T05:26:47	-6.3	98.5
146146	2025-11-22T05:36:47	-6.4	98.5
146147	2025-11-22T05:46:47	-6.6	98
146148	2025-11-22T05:56:47	-6.6	98
146149	2025-11-22T06:06:47	-6.6	98
146150	2025-11-22T06:16:47	-6.7	98
146151	2025-11-22T06:26:47	-6.8	98
146152	2025-11-22T06:36:47	-6.9	98
146153	2025-11-22T06:46:47	-6.9	98
146154	2025-11-22T06:56:47	-6.9	98
146155	2025-11-22T07:06:47	-6.8	98
146156	2025-11-22T07:16:47	-6.6	98.5
146157	2025-11-22T07:26:47	-6.7	98
146158	2025-11-22T07:36:47	-6.7	98.5
146159	2025-11-22T07:46:47	-6.5	98.5
146160	2025-11-22T07:56:47	-6.4	99
146161	2025-11-22T08:06:47	-6.1	99.5
146162	2025-11-22T08:16:47	-5.9	99.5
146163	2025-11-22T08:26:47	-5.7	100
146164	2025-11-22T08:36:47	-5.6	100
146165	2025-11-22T08:46:47	-5.3	100
146166	2025-11-22T08:56:47	-5.1	100
146167	2025-11-22T09:06:47	-5	100
146168	2025-11-22T09:16:47	-4.7	100
146169	2025-11-22T09:26:47	-4.5	100
146170	2025-11-22T09:36:47	-4.3	100
146171	2025-11-22T09:46:47	-4.2	100
146172	2025-11-22T09:56:47	-3.9	100
146173	2025-11-22T10:06:47	-3.9	100
146174	2025-11-22T10:16:47	-3.7	100
146175	2025-11-22T10:26:47	-3.5	100
146176	2025-11-22T10:36:47	-3.2	100
146177	2025-11-22T10:46:47	-2.9	100
146178	2025-11-22T10:56:47	-2.5	100
146179	2025-11-22T11:06:47	-2.1	100
146180	2025-11-22T11:16:47	-1.6	100
146181	2025-11-22T11:26:47	-1.2	100
146182	2025-11-22T11:36:47	-0.9	97.5
146183	2025-11-22T11:46:47	0.1	91.5
146184	2025-11-22T11:56:47	1.5	85
146185	2025-11-22T12:06:47	2.3	80.5
146186	2025-11-22T12:16:47	3.4	75.5
146187	2025-11-22T12:26:47	4.5	72
146188	2025-11-22T12:36:47	5.4	69
146189	2025-11-22T12:46:47	6.2	68
146190	2025-11-22T12:56:47	7.7	64.5
146191	2025-11-22T13:06:47	8.6	60
146192	2025-11-22T13:16:47	5.8	65
146193	2025-11-22T13:26:47	4.5	68.5
146194	2025-11-22T13:36:47	6.4	65
146195	2025-11-22T13:46:47	7.4	63
146196	2025-11-22T13:56:47	5.4	65
146197	2025-11-22T14:06:47	5.7	65.5
146198	2025-11-22T14:16:47	6.3	62.5
146199	2025-11-22T14:26:47	6.5	62.5
146200	2025-11-22T14:36:47	5.7	63
146201	2025-11-22T14:46:47	4.6	66
146202	2025-11-22T14:56:47	3.9	68.5
146203	2025-11-22T15:06:47	3.2	71.5
146204	2025-11-22T15:16:47	1.3	76.5
146205	2025-11-22T15:26:47	0.2	79.5
146206	2025-11-22T15:36:47	-0.2	82
146207	2025-11-22T15:46:47	-0.5	83.5
146208	2025-11-22T15:56:47	-0.6	84.5
146209	2025-11-22T16:06:47	-0.3	83.5
146210	2025-11-22T16:16:47	-0.5	83.5
146211	2025-11-22T16:26:47	-0.7	84
146212	2025-11-22T16:36:47	-0.8	84.5
146213	2025-11-22T16:46:47	-0.9	85
146214	2025-11-22T16:56:47	-0.7	85.5
146215	2025-11-22T17:06:47	-0.8	85.5
146216	2025-11-22T17:16:47	-0.9	86
146217	2025-11-22T17:26:47	-1.1	85.5
146218	2025-11-22T17:36:47	-1.1	86.5
146219	2025-11-22T17:46:47	-1.3	86.5
146220	2025-11-22T17:56:47	-1.3	87.5
146221	2025-11-22T18:06:47	-1.4	87.5
146222	2025-11-22T18:16:47	-1.1	87.5
146223	2025-11-22T18:26:47	-1.3	87.5
146224	2025-11-22T18:36:47	-1.2	88
146225	2025-11-22T18:46:47	-1.4	88
146226	2025-11-22T18:56:47	-1.3	88.5
146227	2025-11-22T19:06:47	-1.5	89
146228	2025-11-22T19:16:47	-1.4	90
146229	2025-11-22T19:26:47	-1.9	89
146230	2025-11-22T19:36:47	-1.8	89.5
146231	2025-11-22T19:46:47	-1.7	88.5
146232	2025-11-22T19:56:47	-1.9	88
146233	2025-11-22T20:06:47	-2	89
146234	2025-11-22T20:16:47	-1.8	89
146235	2025-11-22T20:26:47	-1.6	89
146236	2025-11-22T20:36:47	-1.8	89
146237	2025-11-22T20:46:47	-2	89.5
146238	2025-11-22T20:56:47	-1.9	90
146239	2025-11-22T21:06:47	-2	90
146240	2025-11-22T21:16:47	-2.3	90
146241	2025-11-22T21:26:47	-2.1	90
146242	2025-11-22T21:36:47	-2.2	90.5
146243	2025-11-22T21:46:47	-2.2	90.5
146244	2025-11-22T21:56:47	-2.4	91
146245	2025-11-22T22:06:47	-2.3	91
146246	2025-11-22T22:16:47	-2.1	90.5
146247	2025-11-22T22:26:47	-2.3	91
146248	2025-11-22T22:36:47	-2.2	91
146249	2025-11-22T22:46:47	-2.3	90.5
146250	2025-11-22T22:56:47	-2.5	89.5
146251	2025-11-22T23:06:47	-2.6	87.5
146252	2025-11-22T23:16:47	-2.6	87
146253	2025-11-22T23:26:47	-2.6	86.5
146254	2025-11-22T23:36:47	-2.4	87.5
146255	2025-11-22T23:46:47	-2.5	88
146256	2025-11-22T23:56:47	-2.6	89
146257	2025-11-23T00:06:47	-2.6	90
146258	2025-11-23T00:16:47	-2.5	90.5
146259	2025-11-23T00:26:47	-2.6	90
146260	2025-11-23T00:36:47	-2.5	89.5
146261	2025-11-23T00:46:47	-2.5	89
146262	2025-11-23T00:56:47	-2.6	88.5
146263	2025-11-23T01:16:47	-2.6	89
146264	2025-11-23T01:26:47	-2.6	89.5
146265	2025-11-23T01:36:47	-2.7	89.5
146266	2025-11-23T01:46:47	-2.6	90
146267	2025-11-23T01:56:47	-2.6	90
146268	2025-11-23T02:06:47	-2.8	90.5
146269	2025-11-23T02:16:47	-2.9	91
146270	2025-11-23T02:26:47	-2.8	88.5
146271	2025-11-23T02:36:47	-2.7	88
146272	2025-11-23T02:46:47	-2.9	87.5
146273	2025-11-23T02:56:47	-2.9	87.5
146274	2025-11-23T03:06:47	-3.1	86
146275	2025-11-23T03:16:47	-3.6	86
146276	2025-11-23T03:26:47	-4	86
146277	2025-11-23T03:36:47	-5	88.5
146278	2025-11-23T03:46:47	-5.4	90
146279	2025-11-23T03:56:47	-5.7	90.5
146280	2025-11-23T04:06:47	-5.8	90.5
146281	2025-11-23T04:16:47	-6	91.5
146282	2025-11-23T04:26:47	-6.1	91
146283	2025-11-23T04:36:47	-6.2	92
146284	2025-11-23T04:46:47	-6.4	90.5
146285	2025-11-23T04:56:47	-6.6	92
146286	2025-11-23T05:06:47	-6.8	92.5
146287	2025-11-23T05:16:47	-6.8	93
146288	2025-11-23T05:26:47	-7	91.5
146289	2025-11-23T05:36:47	-6.9	91.5
146290	2025-11-23T05:46:47	-6.7	91.5
146291	2025-11-23T05:56:47	-6.5	91
146292	2025-11-23T06:06:47	-6.6	91
146293	2025-11-23T06:16:47	-6.9	92
146294	2025-11-23T06:26:47	-6.9	92.5
146295	2025-11-23T06:36:47	-6.9	93
146296	2025-11-23T06:46:47	-6.9	93
146297	2025-11-23T06:56:47	-6.8	93
146298	2025-11-23T07:06:47	-6.8	92.5
146299	2025-11-23T07:16:47	-6.6	92.5
146300	2025-11-23T07:26:47	-6.2	90.5
146301	2025-11-23T07:36:47	-5.7	89.5
146302	2025-11-23T07:46:47	-5.5	88.5
146303	2025-11-23T07:56:47	-5.4	88.5
146304	2025-11-23T08:06:47	-5.4	89
146305	2025-11-23T08:16:47	-5.6	90.5
146306	2025-11-23T08:26:47	-5.7	91.5
146307	2025-11-23T08:36:47	-5.4	91.5
146308	2025-11-23T08:46:47	-5.1	91
146309	2025-11-23T08:56:47	-4.8	90.5
146310	2025-11-23T09:06:47	-4.4	89
146311	2025-11-23T09:16:47	-4.5	89.5
146312	2025-11-23T09:26:47	-4.3	89
146313	2025-11-23T09:36:47	-3.9	89
146314	2025-11-23T09:46:47	-3.7	88.5
146315	2025-11-23T09:56:47	-3.3	88
146316	2025-11-23T10:06:47	-3.2	87.5
146317	2025-11-23T10:16:47	-3	88
146318	2025-11-23T10:26:47	-2.8	87.5
146319	2025-11-23T10:36:47	-2.1	85
146320	2025-11-23T10:46:47	-1.5	83
146321	2025-11-23T10:56:47	-0.9	79.5
146322	2025-11-23T11:06:47	-0.5	75.5
146323	2025-11-23T11:16:47	-0.1	76
146324	2025-11-23T11:26:47	0.1	76
146325	2025-11-23T11:36:47	0.4	74.5
146326	2025-11-23T11:46:47	0.1	74.5
146327	2025-11-23T11:56:47	2	70.5
146328	2025-11-23T12:06:47	3.9	63.5
146329	2025-11-23T12:16:47	3	66
146330	2025-11-23T12:26:47	4.1	64
146331	2025-11-23T12:36:47	5.3	60
146332	2025-11-23T12:46:47	4	65.5
146333	2025-11-23T12:56:47	4.1	64
146334	2025-11-23T13:06:47	5	62
146335	2025-11-23T13:16:47	4.7	62.5
146336	2025-11-23T13:26:47	3.8	65
146337	2025-11-23T13:36:47	3.2	65
146338	2025-11-23T13:46:47	3	67.5
146339	2025-11-23T13:56:47	3	68.5
146340	2025-11-23T14:06:47	2.6	68.5
146341	2025-11-23T14:16:47	2.6	70.5
146342	2025-11-23T14:26:47	2.4	71.5
146343	2025-11-23T14:36:47	1.9	71
146344	2025-11-23T14:46:47	1.9	73.5
146345	2025-11-23T14:56:47	1.5	74.5
146346	2025-11-23T15:06:47	1.4	76.5
146347	2025-11-23T15:16:47	1.4	77.5
146348	2025-11-23T15:26:47	1.4	77.5
146349	2025-11-23T15:36:47	1.3	77
146350	2025-11-23T15:46:47	1.2	75
146351	2025-11-23T15:56:47	1.1	78
146352	2025-11-23T16:06:47	1	78
146353	2025-11-23T16:16:47	1	77
146354	2025-11-23T16:26:47	0.9	77.5
146355	2025-11-23T16:36:47	0.9	78
146356	2025-11-23T16:46:47	0.9	80
146357	2025-11-23T16:56:47	0.7	79
146358	2025-11-23T17:06:47	0.8	79.5
146359	2025-11-23T17:16:47	0.9	81.5
146360	2025-11-23T17:26:47	0.9	80.5
146361	2025-11-23T17:36:47	1	82.5
146362	2025-11-23T17:46:47	1	82
146363	2025-11-23T17:56:47	1	82.5
146364	2025-11-23T18:06:47	1	82.5
146365	2025-11-23T18:16:47	1	84.5
146366	2025-11-23T18:26:47	0.9	83.5
146367	2025-11-23T18:36:47	1	84
146368	2025-11-23T18:46:47	1.1	84.5
146369	2025-11-23T18:56:47	1.2	83.5
146370	2025-11-23T19:06:47	1.2	83.5
146371	2025-11-23T19:16:47	1.3	84.5
146372	2025-11-23T19:26:47	1.2	83.5
146373	2025-11-23T19:36:47	1.3	85
146374	2025-11-23T19:46:47	1.5	84.5
146375	2025-11-23T19:56:47	1.5	85
146376	2025-11-23T20:06:47	1.4	87.5
146377	2025-11-23T20:16:47	1.5	90
146378	2025-11-23T20:26:47	1.5	92
146379	2025-11-23T20:36:47	1.4	93.5
146380	2025-11-23T20:46:47	1.3	94.5
146381	2025-11-23T20:56:47	1.3	96
146382	2025-11-23T21:06:47	1.3	97
146383	2025-11-23T21:16:47	1.3	97.5
146384	2025-11-23T21:26:47	1.3	99
146385	2025-11-23T21:36:47	1.3	100
146386	2025-11-23T21:46:47	1.2	100
146387	2025-11-23T21:56:47	1.4	100
146388	2025-11-23T22:06:47	1.4	100
146389	2025-11-23T22:16:47	1.4	100
146390	2025-11-23T22:26:47	1.5	100
146391	2025-11-23T22:36:47	1.5	100
146392	2025-11-23T22:46:47	1.5	100
146393	2025-11-23T22:56:47	1.6	100
146394	2025-11-23T23:06:47	1.7	100
146395	2025-11-23T23:16:47	1.5	100
146396	2025-11-23T23:26:47	1.8	100
146397	2025-11-23T23:36:47	1.8	100
146398	2025-11-23T23:46:47	1.9	100
146399	2025-11-23T23:56:47	1.9	100
146400	2025-11-24T00:06:47	1.9	100
146401	2025-11-24T00:16:47	2	100
146402	2025-11-24T00:26:47	2.1	100
146403	2025-11-24T00:36:47	2.1	100
146404	2025-11-24T00:46:47	2.1	100
146405	2025-11-24T00:56:47	2.2	100
146406	2025-11-24T01:06:47	2.2	100
146407	2025-11-24T01:16:47	2.2	100
146408	2025-11-24T01:26:47	2.3	100
146409	2025-11-24T01:36:47	2.6	100
146410	2025-11-24T01:46:47	2.8	100
146411	2025-11-24T01:56:47	3	100
146412	2025-11-24T02:06:47	3	100
146413	2025-11-24T02:16:47	3	100
146414	2025-11-24T02:26:47	3	100
146415	2025-11-24T02:36:47	3	100
146416	2025-11-24T02:46:47	3.1	100
146417	2025-11-24T02:56:47	3.2	100
146418	2025-11-24T03:06:47	3.3	100
146419	2025-11-24T03:16:47	3.4	100
146420	2025-11-24T03:27:07	3.4	100
146421	2025-11-24T03:36:47	3.6	100
146422	2025-11-24T03:46:47	3.5	100
146423	2025-11-24T03:56:47	3.5	100
146424	2025-11-24T04:06:47	3.5	100
146425	2025-11-24T04:16:47	3.6	100
146426	2025-11-24T04:26:47	3.5	100
146427	2025-11-24T04:36:47	3.6	100
146428	2025-11-24T04:46:47	3.5	100
146429	2025-11-24T04:56:47	3.7	100
146430	2025-11-24T05:06:47	3.6	100
146431	2025-11-24T05:16:47	3.7	100
146432	2025-11-24T05:26:47	3.6	100
146433	2025-11-24T05:36:47	3.7	100
146434	2025-11-24T05:46:47	3.7	100
146435	2025-11-24T05:56:47	3.7	100
146436	2025-11-24T06:06:47	3.7	100
146437	2025-11-24T06:16:47	3.8	100
146438	2025-11-24T06:26:47	3.8	100
146439	2025-11-24T06:36:47	3.7	100
146440	2025-11-24T06:46:47	3.7	100
146441	2025-11-24T06:56:47	3.6	100
146442	2025-11-24T07:06:47	3.6	100
146443	2025-11-24T07:16:47	3.5	100
146444	2025-11-24T07:26:47	3.7	100
146445	2025-11-24T07:36:47	3.8	100
146446	2025-11-24T07:46:47	3.9	100
146447	2025-11-24T07:56:47	4	100
146448	2025-11-24T08:06:47	4	100
146449	2025-11-24T08:16:47	4.2	100
146450	2025-11-24T08:26:47	4.2	100
146451	2025-11-24T08:36:47	4.3	100
146452	2025-11-24T08:46:47	4.3	100
146453	2025-11-24T08:56:46	4.4	100
146454	2025-11-24T09:06:46	4.4	100
146455	2025-11-24T09:16:46	4.6	100
146456	2025-11-24T09:26:46	4.7	100
146457	2025-11-24T09:36:46	4.9	100
146458	2025-11-24T09:46:46	5	100
146459	2025-11-24T09:56:46	5.1	100
146460	2025-11-24T10:06:46	5.2	100
146461	2025-11-24T10:16:46	5.1	100
146462	2025-11-24T10:26:46	5.2	100
146463	2025-11-24T10:36:46	5.3	100
146464	2025-11-24T10:46:46	5.5	100
146465	2025-11-24T10:56:46	5.6	100
146466	2025-11-24T11:06:46	5.8	100
146467	2025-11-24T11:16:46	6	100
146468	2025-11-24T11:26:46	6	100
146469	2025-11-24T11:36:46	6.5	100
146470	2025-11-24T11:46:46	6.4	100
146471	2025-11-24T11:56:46	6.7	100
146472	2025-11-24T12:06:46	6.7	100
146473	2025-11-24T12:16:46	6.6	100
146474	2025-11-24T12:26:46	6.6	100
146475	2025-11-24T12:36:46	6.3	100
146476	2025-11-24T12:46:46	6.4	100
146477	2025-11-24T12:56:46	6.4	100
146478	2025-11-24T13:06:46	6.7	100
146479	2025-11-24T13:16:46	6.7	100
146480	2025-11-24T13:26:46	6.9	100
146481	2025-11-24T13:36:46	8.1	100
146482	2025-11-24T13:46:46	7.4	99.5
146483	2025-11-24T13:56:46	7	99.5
146484	2025-11-24T14:06:46	6.9	100
146485	2025-11-24T14:17:02	6.9	100
146486	2025-11-24T14:26:46	6.9	100
146487	2025-11-24T14:36:46	6.8	100
146488	2025-11-24T14:46:46	6.5	100
146489	2025-11-24T14:56:46	6.6	100
146490	2025-11-24T15:06:46	6.3	100
146491	2025-11-24T15:16:46	5.9	100
146492	2025-11-24T15:26:46	5.4	100
146493	2025-11-24T15:36:46	5.3	100
146494	2025-11-24T15:46:46	5	100
146495	2025-11-24T15:56:46	4.9	100
146496	2025-11-24T16:06:46	4.7	100
146497	2025-11-24T16:16:46	4.5	100
146498	2025-11-24T16:26:46	4.4	100
146499	2025-11-24T16:36:46	4.3	100
146500	2025-11-24T16:46:46	3.9	100
146501	2025-11-24T16:56:46	4	100
146502	2025-11-24T17:07:05	4.3	100
146503	2025-11-24T17:16:46	4.4	100
146504	2025-11-24T17:26:46	4.5	100
146505	2025-11-24T17:36:46	4.5	100
146506	2025-11-24T17:46:46	4.6	100
146507	2025-11-24T17:56:46	4.6	100
146508	2025-11-24T18:06:46	4.6	100
146509	2025-11-24T18:16:46	4.7	100
146510	2025-11-24T18:26:46	4.7	100
146511	2025-11-24T18:36:46	4.7	100
146512	2025-11-24T18:46:46	4.6	100
146513	2025-11-24T18:56:46	4.6	100
146514	2025-11-24T19:06:46	4.7	100
146515	2025-11-24T19:16:46	4.6	100
146516	2025-11-24T19:26:46	4.7	100
146517	2025-11-24T19:36:46	4.6	100
146518	2025-11-24T19:46:46	4.7	100
146519	2025-11-24T19:56:46	4.6	100
146520	2025-11-24T20:06:46	4.8	100
146521	2025-11-24T20:16:46	4.7	100
146522	2025-11-24T20:26:46	4.7	100
146523	2025-11-24T20:36:46	4.8	100
146524	2025-11-24T20:46:46	4.8	100
146525	2025-11-24T20:56:46	4.7	100
146526	2025-11-24T21:06:46	4.6	100
146527	2025-11-24T21:16:46	4.4	100
146528	2025-11-24T21:26:46	4.4	100
146529	2025-11-24T21:36:46	4.5	100
146530	2025-11-24T21:46:46	4.6	100
146531	2025-11-24T21:56:46	4.4	100
146532	2025-11-24T22:06:46	4.5	100
146533	2025-11-24T22:16:46	4.5	100
146534	2025-11-24T22:26:46	4.1	100
146535	2025-11-24T22:36:46	3.9	100
146536	2025-11-24T22:46:46	3.9	100
146537	2025-11-24T22:56:46	3.2	100
146538	2025-11-24T23:06:46	3.1	100
146539	2025-11-24T23:16:46	3.5	100
146540	2025-11-24T23:26:46	3.8	100
146541	2025-11-24T23:36:46	3.6	100
146542	2025-11-24T23:46:46	3.7	100
146543	2025-11-24T23:56:46	3.5	100
146544	2025-11-25T00:06:46	3.5	100
146545	2025-11-25T00:16:46	3.5	100
146546	2025-11-25T00:26:46	3.1	100
146547	2025-11-25T00:36:46	2.9	100
146548	2025-11-25T00:46:46	2.6	100
146549	2025-11-25T00:56:46	2.4	100
146550	2025-11-25T01:06:46	2.2	100
146551	2025-11-25T01:16:46	2.3	100
146552	2025-11-25T01:26:46	1.8	100
146553	2025-11-25T01:36:46	1.6	100
146554	2025-11-25T01:46:46	1.5	100
146555	2025-11-25T01:56:46	1.3	100
146556	2025-11-25T02:06:46	1.3	100
146557	2025-11-25T02:16:46	1.1	100
146558	2025-11-25T02:26:46	1.1	100
146559	2025-11-25T02:36:46	1	100
146560	2025-11-25T02:46:46	0.8	100
146561	2025-11-25T02:56:46	0.8	100
146562	2025-11-25T03:06:46	0.8	100
146563	2025-11-25T03:16:46	0.8	100
146564	2025-11-25T03:26:46	1.1	100
146565	2025-11-25T03:36:46	1.3	100
146566	2025-11-25T03:46:46	1.4	100
146567	2025-11-25T03:56:46	1.6	100
146568	2025-11-25T04:06:46	1.5	100
146569	2025-11-25T04:16:46	1.5	100
146570	2025-11-25T04:26:46	1.8	100
146571	2025-11-25T04:36:46	1.8	100
146572	2025-11-25T04:46:46	2	100
146573	2025-11-25T04:56:46	2	100
146574	2025-11-25T05:06:46	2.2	100
146575	2025-11-25T05:16:46	2.3	100
146576	2025-11-25T05:26:46	2.1	100
146577	2025-11-25T05:36:46	2.3	100
146578	2025-11-25T05:46:46	2.3	100
146579	2025-11-25T05:56:46	2.7	100
146580	2025-11-25T06:06:46	2.7	100
146581	2025-11-25T06:16:46	2.7	100
146582	2025-11-25T06:26:46	2.8	100
146583	2025-11-25T06:36:46	2.8	100
146584	2025-11-25T06:46:46	2.8	100
146585	2025-11-25T06:56:46	2.8	100
146586	2025-11-25T07:06:46	3	100
146587	2025-11-25T07:16:46	3	100
146588	2025-11-25T07:26:46	3	100
146589	2025-11-25T07:36:46	3.2	100
146590	2025-11-25T07:46:46	3.4	100
146591	2025-11-25T07:56:46	3.4	100
146592	2025-11-25T08:06:46	3.6	100
146593	2025-11-25T08:16:46	3.6	100
146594	2025-11-25T08:26:46	3.7	100
146595	2025-11-25T08:36:46	3.9	100
146596	2025-11-25T08:46:46	3.9	100
146597	2025-11-25T08:56:46	4.1	100
146598	2025-11-25T09:06:46	4.3	100
146599	2025-11-25T09:16:46	4.4	100
146600	2025-11-25T09:26:46	4.7	100
146601	2025-11-25T09:36:46	5	100
146602	2025-11-25T09:46:46	5.1	100
146603	2025-11-25T09:56:46	5.1	100
146604	2025-11-25T10:06:46	5.3	100
146605	2025-11-25T10:16:46	5.5	100
146606	2025-11-25T10:26:46	5.7	100
146607	2025-11-25T10:36:46	5.9	100
146608	2025-11-25T10:46:46	6.2	99.5
146609	2025-11-25T10:56:46	6.3	99.5
146610	2025-11-25T11:06:46	6.3	98
146611	2025-11-25T11:16:46	6.4	97.5
146612	2025-11-25T11:26:46	6.3	97.5
146613	2025-11-25T11:36:46	6.5	98
146614	2025-11-25T11:46:46	6.7	96
146615	2025-11-25T11:56:46	6.8	95
146616	2025-11-25T12:06:46	6.5	96.5
146617	2025-11-25T12:16:46	6.4	98
146618	2025-11-25T12:26:46	6.3	97.5
146619	2025-11-25T12:36:46	6.4	97.5
146620	2025-11-25T12:46:46	6.8	96
146621	2025-11-25T12:56:46	7	94
146622	2025-11-25T13:06:46	7	92.5
146623	2025-11-25T13:16:46	6.7	93.5
146624	2025-11-25T13:26:46	6.8	93
146625	2025-11-25T13:36:46	6.9	93.5
146626	2025-11-25T13:46:46	7	92.5
146627	2025-11-25T13:56:46	6.8	93.5
146628	2025-11-25T14:06:46	6.5	97
146629	2025-11-25T14:16:46	6.2	98.5
146630	2025-11-25T14:26:46	6	99.5
146631	2025-11-25T14:36:46	5.8	100
146632	2025-11-25T14:46:46	5.6	100
146633	2025-11-25T14:56:46	5.8	100
146634	2025-11-25T15:06:46	5.6	100
146635	2025-11-25T15:16:45	5.5	100
146636	2025-11-25T15:26:45	5.3	100
146637	2025-11-25T15:36:45	5.1	100
146638	2025-11-25T15:46:45	5.1	100
146639	2025-11-25T15:56:45	5.2	100
146640	2025-11-25T16:06:45	5.2	100
146641	2025-11-25T16:16:45	5.3	100
146642	2025-11-25T16:26:45	5.2	100
146643	2025-11-25T16:36:45	5.1	100
146644	2025-11-25T16:46:45	5.1	100
146645	2025-11-25T16:56:45	5.2	100
146646	2025-11-25T17:06:45	5.2	100
146647	2025-11-25T17:16:45	5.2	100
146648	2025-11-25T17:26:45	5.3	100
146649	2025-11-25T17:36:45	5.1	100
146650	2025-11-25T17:46:45	5.2	100
146651	2025-11-25T17:56:45	5.3	100
146652	2025-11-25T18:06:45	5.2	100
146653	2025-11-25T18:16:45	5.2	100
146654	2025-11-25T18:26:45	5.1	100
146655	2025-11-25T18:36:45	5.3	100
146656	2025-11-25T18:46:45	5.2	100
146657	2025-11-25T18:56:45	5.1	100
146658	2025-11-25T19:06:45	5.1	100
146659	2025-11-25T19:16:45	5.1	100
146660	2025-11-25T19:26:45	5.2	100
146661	2025-11-25T19:36:45	5.2	100
146662	2025-11-25T19:46:45	5.1	100
146663	2025-11-25T19:56:45	5.1	100
146664	2025-11-25T20:06:45	5.1	100
146665	2025-11-25T20:16:45	5.2	100
146666	2025-11-25T20:26:45	5.1	100
146667	2025-11-25T20:36:45	5.1	100
146668	2025-11-25T20:46:45	5.1	100
146669	2025-11-25T20:56:45	5	100
146670	2025-11-25T21:06:45	5.1	100
146671	2025-11-25T21:16:45	5	100
146672	2025-11-25T21:26:45	5.1	100
146673	2025-11-25T21:36:45	5.1	100
146674	2025-11-25T21:46:45	5.1	100
146675	2025-11-25T21:56:45	5.1	100
146676	2025-11-25T22:06:45	5.1	100
146677	2025-11-25T22:16:45	5.1	100
146678	2025-11-25T22:26:45	5.1	100
146679	2025-11-25T22:36:45	5.1	100
146680	2025-11-25T22:46:45	5.1	100
146681	2025-11-25T22:56:45	5.1	100
146682	2025-11-25T23:06:45	5.2	100
146683	2025-11-25T23:16:45	5.2	100
146684	2025-11-25T23:26:45	5.3	100
146685	2025-11-25T23:36:45	5.1	100
146686	2025-11-25T23:46:45	5.2	100
146687	2025-11-25T23:56:45	5.1	100
146688	2025-11-26T00:06:45	5.1	100
146689	2025-11-26T00:16:45	5.1	100
146690	2025-11-26T00:26:45	5.2	100
146691	2025-11-26T00:36:45	5.2	100
146692	2025-11-26T00:46:45	5	100
146693	2025-11-26T00:56:45	5	100
146694	2025-11-26T01:06:45	5.1	100
146695	2025-11-26T01:16:45	5	100
146696	2025-11-26T01:26:45	4.9	100
146697	2025-11-26T01:36:45	5.1	100
146698	2025-11-26T01:46:45	5	100
146699	2025-11-26T01:56:45	5.2	100
146700	2025-11-26T02:06:45	5.1	100
146701	2025-11-26T02:16:45	5.1	100
146702	2025-11-26T02:26:45	5.1	100
146703	2025-11-26T02:36:45	5	100
146704	2025-11-26T02:46:45	5	100
146705	2025-11-26T02:56:45	5.1	100
146706	2025-11-26T03:06:45	5.2	100
146707	2025-11-26T03:16:45	5.1	100
146708	2025-11-26T03:26:45	5.2	100
146709	2025-11-26T03:36:45	5.1	100
146710	2025-11-26T03:46:45	5.1	100
146711	2025-11-26T03:56:45	5.3	100
146712	2025-11-26T04:06:45	5.1	100
146713	2025-11-26T04:16:45	5.1	100
146714	2025-11-26T04:26:45	5	100
146715	2025-11-26T04:36:45	5	100
146716	2025-11-26T04:46:45	5	100
146717	2025-11-26T04:56:45	4.9	100
146718	2025-11-26T05:06:45	4.9	100
146719	2025-11-26T05:16:45	5	100
146720	2025-11-26T05:26:45	4.9	100
146721	2025-11-26T05:36:45	4.9	100
146722	2025-11-26T05:46:45	4.9	100
146723	2025-11-26T05:56:45	4.9	100
146724	2025-11-26T06:06:45	4.9	100
146725	2025-11-26T06:16:45	4.9	100
146726	2025-11-26T06:26:45	4.8	100
146727	2025-11-26T06:36:45	4.8	100
146728	2025-11-26T06:46:45	4.8	100
146729	2025-11-26T06:56:45	4.9	100
146730	2025-11-26T07:06:45	4.8	100
146731	2025-11-26T07:16:45	4.8	100
146732	2025-11-26T07:26:45	4.7	100
146733	2025-11-26T07:36:45	4.8	100
146734	2025-11-26T07:46:45	4.8	100
146735	2025-11-26T07:56:45	4.8	100
146736	2025-11-26T08:06:45	4.8	100
146737	2025-11-26T08:16:45	4.8	100
146738	2025-11-26T08:26:45	4.8	100
146739	2025-11-26T08:36:45	4.9	100
146740	2025-11-26T08:46:45	4.9	100
146741	2025-11-26T08:56:45	5.1	100
146742	2025-11-26T09:06:45	5.2	100
146743	2025-11-26T09:16:45	5.4	99.5
146744	2025-11-26T09:26:45	5.3	100
146745	2025-11-26T09:36:45	5.4	98.5
146746	2025-11-26T09:46:45	5.3	98.5
146747	2025-11-26T09:56:45	5.3	98.5
146748	2025-11-26T10:06:45	5.3	98.5
146749	2025-11-26T10:16:45	5.4	98.5
146750	2025-11-26T10:26:45	5.3	98
146751	2025-11-26T10:36:45	5.3	98
146752	2025-11-26T10:46:45	5.3	98.5
146753	2025-11-26T10:56:45	5.2	96.5
146754	2025-11-26T11:06:45	5.4	97
146755	2025-11-26T11:16:45	5.6	95.5
146756	2025-11-26T11:26:45	5.7	95
146757	2025-11-26T11:36:45	5.6	95
146758	2025-11-26T11:46:45	5.6	94.5
146759	2025-11-26T11:56:45	5.5	95
146760	2025-11-26T12:06:45	5.6	93.5
146761	2025-11-26T12:16:45	5.5	93.5
146762	2025-11-26T12:26:45	5.6	92
146763	2025-11-26T12:36:45	5.8	90
146764	2025-11-26T12:46:45	6.1	91
146765	2025-11-26T12:56:45	6	90
146766	2025-11-26T13:06:45	6.1	88.5
146767	2025-11-26T13:16:45	6.2	89
146768	2025-11-26T13:26:45	6.1	87
146769	2025-11-26T13:36:45	5.9	88.5
146770	2025-11-26T13:46:45	5.9	89
146771	2025-11-26T13:56:45	5.7	87
146772	2025-11-26T14:06:45	5.7	88.5
146773	2025-11-26T14:16:45	5.6	90.5
146774	2025-11-26T14:26:45	5.5	90
146775	2025-11-26T14:36:45	5.5	90
146776	2025-11-26T14:46:45	5.4	93.5
146777	2025-11-26T14:56:45	5.5	93
146778	2025-11-26T15:06:45	5.4	93.5
146779	2025-11-26T15:16:45	5.2	94
146780	2025-11-26T15:26:45	5.1	95.5
146781	2025-11-26T15:36:45	4.9	94.5
146782	2025-11-26T15:46:45	4.8	96
146783	2025-11-26T15:56:45	4.8	97.5
146784	2025-11-26T16:06:45	4.7	97
146785	2025-11-26T16:16:45	4.7	97.5
146786	2025-11-26T16:26:45	4.6	97
146787	2025-11-26T16:36:45	4.6	97.5
146788	2025-11-26T16:46:45	4.4	94.5
146789	2025-11-26T16:56:45	4.4	96
146790	2025-11-26T17:06:45	4.2	97.5
146791	2025-11-26T17:16:45	3.9	99.5
146792	2025-11-26T17:26:44	3.8	100
146793	2025-11-26T17:36:44	3.9	99.5
146794	2025-11-26T17:46:44	4.1	98
146795	2025-11-26T17:56:44	4.1	99
146796	2025-11-26T18:06:44	4	98.5
146797	2025-11-26T18:16:44	3.9	98.5
146798	2025-11-26T18:26:44	4	99
146799	2025-11-26T18:36:44	3.9	99
146800	2025-11-26T18:46:44	3.9	99
146801	2025-11-26T18:56:44	3.8	99
146802	2025-11-26T19:06:44	3.8	98.5
146803	2025-11-26T19:16:44	3.6	100
146804	2025-11-26T19:26:44	3.7	100
146805	2025-11-26T19:36:44	3.6	100
146806	2025-11-26T19:46:44	3.6	100
146807	2025-11-26T19:56:44	3.7	99.5
146808	2025-11-26T20:06:44	3.9	99.5
146809	2025-11-26T20:16:44	3.8	99.5
146810	2025-11-26T20:26:44	3.9	99.5
146811	2025-11-26T20:36:44	3.8	99.5
146812	2025-11-26T20:46:44	3.8	100
146813	2025-11-26T20:56:44	3.8	100
146814	2025-11-26T21:06:44	3.6	100
146815	2025-11-26T21:16:44	3.6	100
146816	2025-11-26T21:26:44	3.7	100
146817	2025-11-26T21:36:44	3.6	100
146818	2025-11-26T21:46:44	3.7	100
146819	2025-11-26T21:56:44	3.5	100
146820	2025-11-26T22:06:44	3.5	100
146821	2025-11-26T22:16:44	3.4	100
146822	2025-11-26T22:26:44	3.3	100
146823	2025-11-26T22:36:44	3.2	100
146824	2025-11-26T22:46:44	3.1	100
146825	2025-11-26T22:56:44	3.2	100
146826	2025-11-26T23:06:44	3.2	100
146827	2025-11-26T23:16:44	3.1	100
146828	2025-11-26T23:26:44	3.1	100
146829	2025-11-26T23:36:44	3.1	100
146830	2025-11-26T23:46:44	3.2	100
146831	2025-11-26T23:56:44	3.2	100
146832	2025-11-27T00:06:44	3.2	100
146833	2025-11-27T00:16:44	3.2	100
146834	2025-11-27T00:26:44	3.3	100
146835	2025-11-27T00:36:44	3.2	100
146836	2025-11-27T00:46:44	3.2	100
146837	2025-11-27T00:56:44	3.3	100
146838	2025-11-27T01:06:44	3.3	100
146839	2025-11-27T01:16:44	3.3	100
146840	2025-11-27T01:26:44	3.3	100
146841	2025-11-27T01:36:44	3.2	100
146842	2025-11-27T01:46:44	3.2	100
146843	2025-11-27T01:56:44	3.2	100
146844	2025-11-27T02:06:44	3.2	100
146845	2025-11-27T02:16:44	3.2	100
146846	2025-11-27T02:26:44	3.2	100
146847	2025-11-27T02:36:44	3.1	100
146848	2025-11-27T02:46:44	3.1	100
146849	2025-11-27T02:56:44	3.2	100
146850	2025-11-27T03:06:44	3.1	100
146851	2025-11-27T03:16:44	3.3	100
146852	2025-11-27T03:26:44	3.2	100
146853	2025-11-27T03:36:44	3.2	100
146854	2025-11-27T03:46:44	3.3	100
146855	2025-11-27T03:56:44	3.3	100
146856	2025-11-27T04:06:44	3.2	100
146857	2025-11-27T04:16:44	3.1	100
146858	2025-11-27T04:26:44	3.2	100
146859	2025-11-27T04:36:44	3.1	100
146860	2025-11-27T04:46:44	3.1	100
146861	2025-11-27T04:56:44	3.1	100
146862	2025-11-27T05:06:44	3.1	100
146863	2025-11-27T05:16:44	3	100
146864	2025-11-27T05:26:44	3.1	100
146865	2025-11-27T05:36:44	3.1	100
146866	2025-11-27T05:46:44	3.1	100
146867	2025-11-27T05:56:44	3.1	100
146868	2025-11-27T06:06:44	3	100
146869	2025-11-27T06:16:44	3.1	100
146870	2025-11-27T06:26:44	3.1	100
146871	2025-11-27T06:36:44	3.1	100
146872	2025-11-27T06:46:44	3	100
146873	2025-11-27T06:56:44	3.1	100
146874	2025-11-27T07:06:44	3.2	100
146875	2025-11-27T07:16:44	3.3	100
146876	2025-11-27T07:26:44	3	100
146877	2025-11-27T07:36:44	2.9	100
146878	2025-11-27T07:46:44	3.2	99.5
146879	2025-11-27T07:56:44	3.2	98
146880	2025-11-27T08:06:44	3.4	97
146881	2025-11-27T08:16:44	3.7	96
146882	2025-11-27T08:26:44	3.9	93.5
146883	2025-11-27T08:36:44	4	94.5
146884	2025-11-27T08:46:44	4	94.5
146885	2025-11-27T08:56:44	4.1	94.5
146886	2025-11-27T09:06:44	4.3	94.5
146887	2025-11-27T09:16:44	4.5	93
146888	2025-11-27T09:26:44	4.6	92.5
146889	2025-11-27T09:36:44	4.9	90.5
146890	2025-11-27T09:46:44	5.1	90
146891	2025-11-27T09:56:44	5.3	88
146892	2025-11-27T10:06:44	5.5	88.5
146893	2025-11-27T10:16:44	5.8	87
146894	2025-11-27T10:26:44	6.1	85
146895	2025-11-27T10:36:44	5.9	83.5
146896	2025-11-27T10:46:44	5.8	81.5
146897	2025-11-27T10:56:44	6.3	77.5
146898	2025-11-27T11:06:44	6.6	76.5
146899	2025-11-27T11:16:44	6.7	75.5
146900	2025-11-27T11:26:44	6.9	77.5
146901	2025-11-27T11:36:44	6.8	80
146902	2025-11-27T11:46:44	6.7	78
146903	2025-11-27T11:56:44	7.1	71
146904	2025-11-27T12:06:44	7.5	70.5
146905	2025-11-27T12:16:44	6.8	72
146906	2025-11-27T12:26:44	7.3	72.5
146907	2025-11-27T12:36:44	10.3	65.5
146908	2025-11-27T12:46:44	10.2	63.5
146909	2025-11-27T12:56:44	11.5	60
146910	2025-11-27T13:06:44	12.2	54.5
146911	2025-11-27T13:16:44	12.6	50.5
146912	2025-11-27T13:26:44	12	52
146913	2025-11-27T13:36:44	12.3	52
146914	2025-11-27T13:46:44	12.1	49
146915	2025-11-27T13:56:44	10.8	53.5
146916	2025-11-27T14:06:44	10.4	55.5
146917	2025-11-27T14:16:44	10.2	56.5
146918	2025-11-27T14:26:44	10.9	55.5
146919	2025-11-27T14:36:44	10	57
146920	2025-11-27T14:46:44	9.1	60
146921	2025-11-27T14:56:44	9.4	61.5
146922	2025-11-27T15:06:44	8.1	66
146923	2025-11-27T15:16:44	6.9	71
146924	2025-11-27T15:26:44	6.3	74.5
146925	2025-11-27T15:36:44	6	76.5
146926	2025-11-27T15:46:44	5.7	77.5
146927	2025-11-27T15:56:44	5.5	79.5
146928	2025-11-27T16:06:44	5.5	79.5
146929	2025-11-27T16:16:44	5.4	82
146930	2025-11-27T16:26:44	5.2	82
146931	2025-11-27T16:36:44	5.1	83
146932	2025-11-27T16:46:44	5	84
146933	2025-11-27T16:56:44	4.6	84.5
146934	2025-11-27T17:06:44	4.4	84
146935	2025-11-27T17:16:44	4.3	85.5
146936	2025-11-27T17:26:44	4.2	85.5
146937	2025-11-27T17:36:44	4.1	86
146938	2025-11-27T17:46:44	4.3	87
146939	2025-11-27T17:56:44	4.2	87
146940	2025-11-27T18:06:44	4.2	87.5
146941	2025-11-27T18:16:44	4.2	87.5
146942	2025-11-27T18:26:44	4.2	88
146943	2025-11-27T18:36:44	4	88
146944	2025-11-27T18:46:44	4	89
146945	2025-11-27T18:56:44	4	89.5
146946	2025-11-27T19:06:44	4	90
146947	2025-11-27T19:16:44	3.7	90.5
146948	2025-11-27T19:26:44	3.7	91
146949	2025-11-27T19:36:44	3.7	92
146950	2025-11-27T19:46:44	3.6	91.5
146951	2025-11-27T19:56:44	3.6	91.5
146952	2025-11-27T20:06:44	3.7	92
146953	2025-11-27T20:16:44	3.7	92
146954	2025-11-27T20:26:44	3.7	91.5
146955	2025-11-27T20:36:44	3.7	92
146956	2025-11-27T20:46:44	3.7	93
146957	2025-11-27T20:56:44	3.7	93
146958	2025-11-27T21:06:44	3.7	92.5
146959	2025-11-27T21:16:44	3.7	92
146960	2025-11-27T21:26:44	3.7	92.5
146961	2025-11-27T21:36:44	3.7	93
146962	2025-11-27T21:46:44	3.7	93
146963	2025-11-27T21:56:44	3.6	93
146964	2025-11-27T22:06:44	3.8	92.5
146965	2025-11-27T22:16:44	3.8	93
146966	2025-11-27T22:26:44	3.9	91
146967	2025-11-27T22:36:44	3.9	90
146968	2025-11-27T22:46:44	3.9	90.5
146969	2025-11-27T22:56:44	3.9	91
146970	2025-11-27T23:06:43	3.9	92
146971	2025-11-27T23:16:43	3.9	90
146972	2025-11-27T23:26:43	4	92.5
146973	2025-11-27T23:36:43	4.1	92.5
146974	2025-11-27T23:46:43	4.1	93
146975	2025-11-27T23:56:43	4.2	93
146976	2025-11-28T00:06:43	4.1	93
146977	2025-11-28T00:16:43	4	93.5
146978	2025-11-28T00:26:43	4	93
146979	2025-11-28T00:36:43	4.2	91.5
146980	2025-11-28T00:46:43	4.3	92.5
146981	2025-11-28T00:56:43	4.3	91.5
146982	2025-11-28T01:06:43	4.5	88.5
146983	2025-11-28T01:16:43	4.3	90.5
146984	2025-11-28T01:26:43	4.2	93
146985	2025-11-28T01:36:43	4.1	93
146986	2025-11-28T01:46:43	4.2	92.5
146987	2025-11-28T01:56:43	4.4	89
146988	2025-11-28T02:06:43	4.5	86.5
146989	2025-11-28T02:16:43	4.4	87
146990	2025-11-28T02:26:43	4.6	86.5
146991	2025-11-28T02:36:43	4.6	87
146992	2025-11-28T02:46:43	4.5	86.5
146993	2025-11-28T02:56:43	4.3	87.5
146994	2025-11-28T03:06:43	4.3	88.5
146995	2025-11-28T03:16:43	4.3	88
146996	2025-11-28T03:26:43	4.4	87
146997	2025-11-28T03:36:43	4.5	86.5
146998	2025-11-28T03:46:43	4.4	85.5
146999	2025-11-28T03:56:43	4.4	86
147000	2025-11-28T04:06:43	4.3	87.5
147001	2025-11-28T04:16:43	4.3	87.5
147002	2025-11-28T04:26:43	4.3	90
147003	2025-11-28T04:36:43	4.3	90
147004	2025-11-28T04:46:43	4.3	90.5
147005	2025-11-28T04:56:43	4.3	89.5
147006	2025-11-28T05:06:43	4.2	90
147007	2025-11-28T05:16:43	4.3	92
147008	2025-11-28T05:26:43	4.2	93
147009	2025-11-28T05:36:43	4.3	94
147010	2025-11-28T05:46:43	4.3	91.5
147011	2025-11-28T05:56:43	4.2	90
147012	2025-11-28T06:06:43	4.3	90.5
147013	2025-11-28T06:16:43	4.2	90.5
147014	2025-11-28T06:26:43	4.2	91.5
147015	2025-11-28T06:36:43	4.2	92.5
147016	2025-11-28T06:46:43	4.2	93
147017	2025-11-28T06:56:43	4.1	93.5
147018	2025-11-28T07:06:43	4.2	94.5
147019	2025-11-28T07:16:43	4.2	94
147020	2025-11-28T07:26:43	4.3	94
147021	2025-11-28T07:36:43	4.4	93.5
147022	2025-11-28T07:46:43	4.6	93
147023	2025-11-28T07:56:43	4.5	90.5
147024	2025-11-28T08:06:43	4.7	89
147025	2025-11-28T08:16:43	4.7	88.5
147026	2025-11-28T08:26:43	4.7	88
147027	2025-11-28T08:36:43	4.8	87.5
147028	2025-11-28T08:46:43	5	86.5
147029	2025-11-28T08:56:43	5	88
147030	2025-11-28T09:06:43	5.2	86.5
147031	2025-11-28T09:16:43	5.5	87
147032	2025-11-28T09:26:43	5.6	86
147033	2025-11-28T09:36:43	5.5	84
147034	2025-11-28T09:46:43	5.6	83
147035	2025-11-28T09:56:43	5.8	82
147036	2025-11-28T10:06:43	5.8	83
147037	2025-11-28T10:16:43	5.9	83
147038	2025-11-28T10:26:43	5.9	82.5
147039	2025-11-28T10:36:43	6.2	83
147040	2025-11-28T10:46:43	6.4	81.5
147041	2025-11-28T10:56:43	6.5	80
147042	2025-11-28T11:06:43	6.7	78
147043	2025-11-28T11:16:43	6.9	77.5
147044	2025-11-28T11:26:43	7.2	77
147045	2025-11-28T11:36:43	7.2	77
147046	2025-11-28T11:46:43	7.2	77.5
147047	2025-11-28T11:56:43	7.3	75.5
147048	2025-11-28T12:06:43	7.3	75
147049	2025-11-28T12:16:43	7.4	75.5
147050	2025-11-28T12:26:43	7.5	75
147051	2025-11-28T12:36:43	7.5	76
147052	2025-11-28T12:46:43	7.6	76.5
147053	2025-11-28T12:56:43	7.6	76.5
147054	2025-11-28T13:06:43	7.6	75.5
147055	2025-11-28T13:16:43	7.4	77
147056	2025-11-28T13:26:43	7.6	76
147057	2025-11-28T13:36:43	7.6	76
147058	2025-11-28T13:46:43	7.5	77.5
147059	2025-11-28T13:56:43	7.5	77
147060	2025-11-28T14:06:43	7.5	78.5
147061	2025-11-28T14:16:43	7.5	78.5
147062	2025-11-28T14:26:43	7.5	77.5
147063	2025-11-28T14:36:43	7.3	78
147064	2025-11-28T14:46:43	7.3	79
147065	2025-11-28T14:56:43	7.3	79
147066	2025-11-28T15:06:43	7.4	79.5
147067	2025-11-28T15:16:43	7.2	81
147068	2025-11-28T15:26:43	7.1	82
147069	2025-11-28T15:36:43	7	82.5
147070	2025-11-28T15:46:43	6.8	83.5
147071	2025-11-28T15:56:43	6.6	85
147072	2025-11-28T16:06:43	6.5	85.5
147073	2025-11-28T16:16:43	6.4	87
147074	2025-11-28T16:26:43	6.3	87
147075	2025-11-28T16:36:43	6.1	89
147076	2025-11-28T16:46:43	6.1	90
147077	2025-11-28T16:56:43	6.2	88.5
147078	2025-11-28T17:06:43	6.1	89.5
147079	2025-11-28T17:16:43	6	89.5
147080	2025-11-28T17:26:43	6	90
147081	2025-11-28T17:36:43	5.9	91
147082	2025-11-28T17:46:43	6	91
147083	2025-11-28T17:56:43	6	91.5
147084	2025-11-28T18:06:43	6	91.5
147085	2025-11-28T18:16:43	6.1	92.5
147086	2025-11-28T18:26:43	6.2	93
147087	2025-11-28T18:36:43	6.1	94
147088	2025-11-28T18:46:43	6.2	95.5
147089	2025-11-28T18:56:43	6.2	96
147090	2025-11-28T19:06:43	6.2	98
147091	2025-11-28T19:16:43	6.2	98
147092	2025-11-28T19:26:43	6.2	98.5
147093	2025-11-28T19:36:43	6.2	99
147094	2025-11-28T19:46:43	6.3	99.5
147095	2025-11-28T19:56:43	6.2	99.5
147096	2025-11-28T20:06:43	6.3	99
147097	2025-11-28T20:16:43	6.4	99.5
147098	2025-11-28T20:26:43	6.4	99.5
147099	2025-11-28T20:36:43	6.4	99.5
147100	2025-11-28T20:46:43	6.4	99.5
147101	2025-11-28T20:56:43	6.5	100
147102	2025-11-28T21:06:43	6.5	100
147103	2025-11-28T21:16:43	6.6	100
147104	2025-11-28T21:26:43	6.6	100
147105	2025-11-28T21:36:43	6.6	100
147106	2025-11-28T21:46:43	6.6	100
147107	2025-11-28T21:56:43	6.7	100
147108	2025-11-28T22:06:43	6.7	100
147109	2025-11-28T22:16:43	6.7	100
147110	2025-11-28T22:26:43	6.7	100
147111	2025-11-28T22:36:43	6.7	100
147112	2025-11-28T22:46:43	6.8	100
147113	2025-11-28T22:56:43	6.8	100
147114	2025-11-28T23:06:43	6.8	100
147115	2025-11-28T23:16:43	6.8	100
147116	2025-11-28T23:26:43	6.9	100
147117	2025-11-28T23:36:43	6.8	100
147118	2025-11-28T23:46:42	6.9	100
147119	2025-11-28T23:56:42	6.9	100
147120	2025-11-29T00:06:42	7.1	100
147121	2025-11-29T00:16:42	7.2	100
147122	2025-11-29T00:26:42	7.1	100
147123	2025-11-29T00:36:42	7.2	100
147124	2025-11-29T00:46:42	7.3	100
147125	2025-11-29T00:56:42	7.4	100
147126	2025-11-29T01:06:42	7.4	100
147127	2025-11-29T01:16:42	7.4	100
147128	2025-11-29T01:26:42	7.4	100
147129	2025-11-29T01:36:42	7.4	100
147130	2025-11-29T01:46:42	7.4	100
147131	2025-11-29T01:56:42	7.6	100
147132	2025-11-29T02:06:42	7.5	100
147133	2025-11-29T02:16:42	7.5	100
147134	2025-11-29T02:26:42	7.5	100
147135	2025-11-29T02:36:42	7.5	100
147136	2025-11-29T02:46:42	7.5	100
147137	2025-11-29T02:56:42	7.5	100
147138	2025-11-29T03:06:42	7.6	100
147139	2025-11-29T03:16:42	7.6	100
147140	2025-11-29T03:26:42	7.6	100
147141	2025-11-29T03:36:42	7.5	100
147142	2025-11-29T03:46:42	7.5	100
147143	2025-11-29T03:56:42	7.5	100
147144	2025-11-29T04:06:42	7.6	100
147145	2025-11-29T04:16:42	7.5	100
147146	2025-11-29T04:26:42	7.5	100
147147	2025-11-29T04:36:42	7.7	100
147148	2025-11-29T04:46:42	7.6	100
147149	2025-11-29T04:56:42	7.7	100
147150	2025-11-29T05:06:42	7.7	100
147151	2025-11-29T05:16:42	7.6	100
147152	2025-11-29T05:26:42	7.7	100
147153	2025-11-29T05:36:42	7.7	100
147154	2025-11-29T05:46:42	7.7	100
147155	2025-11-29T05:56:42	7.8	100
147156	2025-11-29T06:06:42	7.6	100
147157	2025-11-29T06:16:42	7.7	100
147158	2025-11-29T06:26:42	7.6	100
147159	2025-11-29T06:36:42	7.6	100
147160	2025-11-29T06:46:42	7.6	100
147161	2025-11-29T06:56:42	7.6	100
147162	2025-11-29T07:06:42	7.6	100
147163	2025-11-29T07:16:42	7.6	100
147164	2025-11-29T07:26:42	7.7	100
147165	2025-11-29T07:36:42	7.6	100
147166	2025-11-29T07:46:42	7.6	100
147167	2025-11-29T07:56:42	7.5	100
147168	2025-11-29T08:06:42	7.8	100
147169	2025-11-29T08:16:42	7.9	100
147170	2025-11-29T08:26:42	8.2	100
147171	2025-11-29T08:36:42	8.2	100
147172	2025-11-29T08:46:42	8.4	100
147173	2025-11-29T08:56:42	8.6	100
147174	2025-11-29T09:06:42	8.9	100
147175	2025-11-29T09:16:42	8.7	100
147176	2025-11-29T09:26:42	9.1	100
147177	2025-11-29T09:36:42	9.3	100
147178	2025-11-29T09:46:42	9.6	100
147179	2025-11-29T09:56:42	9.6	100
147180	2025-11-29T10:06:42	9.8	100
147181	2025-11-29T10:16:42	9.6	100
147182	2025-11-29T10:26:42	9.7	100
147183	2025-11-29T10:36:42	9.7	100
147184	2025-11-29T10:46:42	9.9	100
147185	2025-11-29T10:56:42	9.9	100
147186	2025-11-29T11:06:42	10.2	100
147187	2025-11-29T11:16:42	10.2	100
147188	2025-11-29T11:26:42	10.3	100
147189	2025-11-29T11:36:42	10.4	100
147190	2025-11-29T11:46:42	10.4	100
147191	2025-11-29T11:56:42	10.4	99
147192	2025-11-29T12:06:42	10.8	100
147193	2025-11-29T12:16:42	11.1	98.5
147194	2025-11-29T12:26:42	11.8	99
147195	2025-11-29T12:36:42	12	95.5
147196	2025-11-29T12:46:42	12	96
147197	2025-11-29T12:56:42	13.2	93
147198	2025-11-29T13:06:42	12.9	93
147199	2025-11-29T13:16:42	13.4	92
147200	2025-11-29T13:26:42	14.8	90
147201	2025-11-29T13:36:42	14	90
147202	2025-11-29T13:46:42	13.2	93
147203	2025-11-29T13:56:42	13.3	96.5
147204	2025-11-29T14:06:42	13.8	92.5
147205	2025-11-29T14:16:42	13.7	94.5
147206	2025-11-29T14:26:42	13.5	93.5
147207	2025-11-29T14:36:42	13.4	94.5
147208	2025-11-29T14:46:42	13	95
147209	2025-11-29T14:56:42	12.7	96.5
147210	2025-11-29T15:06:42	11.7	95.5
147211	2025-11-29T15:16:42	11.2	97
147212	2025-11-29T15:26:42	10.7	98.5
147213	2025-11-29T15:36:42	10.3	100
147214	2025-11-29T15:46:42	9.9	100
147215	2025-11-29T15:56:42	10	100
147216	2025-11-29T16:06:42	9.8	100
147217	2025-11-29T16:16:42	9.6	100
147218	2025-11-29T16:26:42	9.3	100
147219	2025-11-29T16:36:42	9	100
147220	2025-11-29T16:46:42	8.7	100
147221	2025-11-29T16:56:42	8.5	100
147222	2025-11-29T17:06:42	8.3	100
147223	2025-11-29T17:16:42	8.1	100
147224	2025-11-29T17:26:41	7.8	100
147225	2025-11-29T17:36:41	7.7	100
147226	2025-11-29T17:46:41	7.6	100
147227	2025-11-29T17:56:41	7.3	100
147228	2025-11-29T18:06:42	7.1	100
147229	2025-11-29T18:16:41	7.1	100
147230	2025-11-29T18:26:41	6.9	100
147231	2025-11-29T18:36:41	6.7	100
147232	2025-11-29T18:46:41	6.6	100
147233	2025-11-29T18:56:41	6.5	100
147234	2025-11-29T19:06:41	6.2	100
147235	2025-11-29T19:16:41	6.1	100
147236	2025-11-29T19:26:41	6	100
147237	2025-11-29T19:36:41	5.9	100
147238	2025-11-29T19:46:41	5.9	100
147239	2025-11-29T19:56:41	5.7	100
147240	2025-11-29T20:06:41	5.7	100
147241	2025-11-29T20:16:41	5.5	100
147242	2025-11-29T20:26:41	5.4	100
147243	2025-11-29T20:36:41	5.2	100
147244	2025-11-29T20:46:41	5.1	100
147245	2025-11-29T20:56:41	4.9	100
147246	2025-11-29T21:06:41	5	100
147247	2025-11-29T21:16:41	5	100
147248	2025-11-29T21:26:41	4.8	100
147249	2025-11-29T21:36:41	4.9	100
147250	2025-11-29T21:46:41	4.9	100
147251	2025-11-29T21:56:41	5.1	100
147252	2025-11-29T22:06:41	4.9	100
147253	2025-11-29T22:16:41	5.2	100
147254	2025-11-29T22:26:41	5.2	100
147255	2025-11-29T22:36:41	5.2	100
147256	2025-11-29T22:46:41	5.1	100
147257	2025-11-29T22:56:41	5.3	100
147258	2025-11-29T23:06:41	5.1	100
147259	2025-11-29T23:16:41	5	100
147260	2025-11-29T23:26:41	5.1	100
147261	2025-11-29T23:36:41	5.4	100
147262	2025-11-29T23:46:41	5.5	100
147263	2025-11-29T23:56:41	5.5	100
147264	2025-11-30T00:06:41	5.6	100
147265	2025-11-30T00:16:41	5.6	100
147266	2025-11-30T00:26:41	5.6	100
147267	2025-11-30T00:36:41	5.5	100
147268	2025-11-30T00:46:41	5.4	100
147269	2025-11-30T00:56:41	5.6	100
147270	2025-11-30T01:06:41	5.6	100
147271	2025-11-30T01:16:41	5.4	100
147272	2025-11-30T01:26:41	5.4	100
147273	2025-11-30T01:36:41	5.4	100
147274	2025-11-30T01:46:41	5.5	100
147275	2025-11-30T01:56:41	5.5	100
147276	2025-11-30T02:06:41	5.4	100
147277	2025-11-30T02:16:41	5.5	100
147278	2025-11-30T02:26:41	5.6	100
147279	2025-11-30T02:36:41	5.7	100
147280	2025-11-30T02:46:41	5.6	100
147281	2025-11-30T02:56:41	5.6	100
147282	2025-11-30T03:06:41	5.6	100
147283	2025-11-30T03:16:41	5.6	100
147284	2025-11-30T03:26:41	5.6	100
147285	2025-11-30T03:36:41	5.6	100
147286	2025-11-30T03:46:41	5.7	100
147287	2025-11-30T03:56:41	5.7	100
147288	2025-11-30T04:06:41	5.6	100
147289	2025-11-30T04:16:41	5.5	100
147290	2025-11-30T04:26:41	5.6	100
147291	2025-11-30T04:36:41	5.5	100
147292	2025-11-30T04:46:41	5.2	100
147293	2025-11-30T04:56:41	5.3	100
147294	2025-11-30T05:06:41	5.2	100
147295	2025-11-30T05:16:41	5.2	100
147296	2025-11-30T05:26:41	5.1	100
147297	2025-11-30T05:36:41	5.2	100
147298	2025-11-30T05:46:41	5.3	100
147299	2025-11-30T05:56:41	5.4	100
147300	2025-11-30T06:06:41	5.5	100
147301	2025-11-30T06:16:41	5.6	100
147302	2025-11-30T06:26:41	5.4	100
147303	2025-11-30T06:36:41	5.5	100
147304	2025-11-30T06:46:41	5.3	100
147305	2025-11-30T06:56:41	5.5	100
147306	2025-11-30T07:06:41	5.6	100
147307	2025-11-30T07:16:41	5.8	100
147308	2025-11-30T07:26:41	5.8	100
147309	2025-11-30T07:36:41	6	100
147310	2025-11-30T07:46:41	6	100
147311	2025-11-30T07:56:41	6.3	100
147312	2025-11-30T08:06:41	6.4	100
147313	2025-11-30T08:16:41	6.5	100
147314	2025-11-30T08:26:41	6.7	100
147315	2025-11-30T08:36:41	6.7	100
147316	2025-11-30T08:46:41	6.6	100
147317	2025-11-30T08:56:41	6.3	100
147318	2025-11-30T09:06:41	6.5	100
147319	2025-11-30T09:16:41	6.4	100
147320	2025-11-30T09:26:41	6.6	100
147321	2025-11-30T09:36:41	6.6	100
147322	2025-11-30T09:46:41	6.8	100
147323	2025-11-30T09:56:41	6.9	100
147324	2025-11-30T10:06:41	7	100
147325	2025-11-30T10:16:41	7	100
147326	2025-11-30T10:26:41	7.1	100
147327	2025-11-30T10:36:41	7	100
147328	2025-11-30T10:46:41	7.1	100
147329	2025-11-30T10:56:41	7.1	100
147330	2025-11-30T11:06:41	7.2	100
147331	2025-11-30T11:16:41	7.2	100
147332	2025-11-30T11:26:41	7.2	100
147333	2025-11-30T11:36:41	7.1	100
147334	2025-11-30T11:46:41	7.1	100
147335	2025-11-30T11:56:41	7.1	100
147336	2025-11-30T12:06:41	7.1	100
147337	2025-11-30T12:16:41	7.3	100
147338	2025-11-30T12:26:41	7.3	100
147339	2025-11-30T12:36:41	7.3	100
147340	2025-11-30T12:46:41	7.4	100
147341	2025-11-30T12:56:41	7.3	100
147342	2025-11-30T13:06:41	7.4	98
147343	2025-11-30T13:16:41	7.4	98
147344	2025-11-30T13:26:41	7.3	98
147345	2025-11-30T13:36:41	7.2	98
147346	2025-11-30T13:46:41	7.2	98
147347	2025-11-30T13:56:41	7	98
147348	2025-11-30T14:06:41	7.1	98
147349	2025-11-30T14:16:41	7	98
147350	2025-11-30T14:26:41	6.9	98
147351	2025-11-30T14:36:41	6.9	98
147352	2025-11-30T14:46:41	7	98
147353	2025-11-30T14:56:41	6.9	98
147354	2025-11-30T15:06:41	6.8	98
147355	2025-11-30T15:16:41	6.6	98
147356	2025-11-30T15:26:41	6.7	98
147357	2025-11-30T15:36:41	6.6	98
147358	2025-11-30T15:46:41	6.5	98
147359	2025-11-30T15:56:41	6.4	98
147360	2025-11-30T16:06:41	6.5	98
147361	2025-11-30T16:16:41	6.3	98
147362	2025-11-30T16:26:41	6.2	98
147363	2025-11-30T16:36:41	6.2	98
147364	2025-11-30T16:46:41	6.1	98
147365	2025-11-30T16:56:41	5.9	98
147366	2025-11-30T17:06:40	5.9	98
147367	2025-11-30T17:16:40	5.9	98
147368	2025-11-30T17:26:40	5.9	98
147369	2025-11-30T17:36:40	5.9	98
147370	2025-11-30T17:46:40	6	98
147371	2025-11-30T17:56:40	6	98
147372	2025-11-30T18:06:40	6	98
147373	2025-11-30T18:16:40	5.9	98
147374	2025-11-30T18:26:40	6	98
147375	2025-11-30T18:36:40	5.8	98
147376	2025-11-30T18:46:40	5.8	98
147377	2025-11-30T18:56:40	5.8	98
147378	2025-11-30T19:06:40	5.9	98
147379	2025-11-30T19:16:40	5.9	98
147380	2025-11-30T19:26:40	5.9	98
147381	2025-11-30T19:36:40	6	98
147382	2025-11-30T19:46:40	6.1	98
147383	2025-11-30T19:56:40	6.1	98
147384	2025-11-30T20:06:40	6	98.5
147385	2025-11-30T20:16:40	5.8	98.5
147386	2025-11-30T20:26:40	5.9	99
147387	2025-11-30T20:36:40	6	100
147388	2025-11-30T20:46:40	5.8	100
147389	2025-11-30T20:56:40	5.7	100
147390	2025-11-30T21:06:40	5.6	100
147391	2025-11-30T21:16:40	5.6	100
147392	2025-11-30T21:26:40	5.6	100
147393	2025-11-30T21:36:40	5.4	100
147394	2025-11-30T21:46:40	5.3	100
147395	2025-11-30T21:56:40	5.3	100
147396	2025-11-30T22:06:40	5.5	100
147397	2025-11-30T22:16:40	5.3	100
147398	2025-11-30T22:26:40	5.4	100
147399	2025-11-30T22:36:40	5.2	100
147400	2025-11-30T22:46:40	5.3	100
147401	2025-11-30T22:56:40	4.8	100
147402	2025-11-30T23:06:40	4.3	100
147403	2025-11-30T23:16:40	4.2	100
147404	2025-11-30T23:26:40	3.9	100
147405	2025-11-30T23:36:40	3.8	100
147406	2025-11-30T23:46:40	3.6	100
147407	2025-11-30T23:56:40	3.6	100
147408	2025-12-01T00:06:40	3.3	100
147409	2025-12-01T00:16:40	3.3	100
147410	2025-12-01T00:26:40	3	100
147411	2025-12-01T00:36:40	2.9	100
147412	2025-12-01T00:46:40	2.8	100
147413	2025-12-01T00:56:40	2.5	100
147414	2025-12-01T01:06:40	2.6	100
147415	2025-12-01T01:16:40	2.4	100
147416	2025-12-01T01:26:40	2.2	100
147417	2025-12-01T01:36:40	2	100
147418	2025-12-01T01:46:40	1.9	100
147419	2025-12-01T01:56:40	1.9	100
147420	2025-12-01T02:06:40	1.6	100
147421	2025-12-01T02:16:40	1.6	100
147422	2025-12-01T02:26:40	1.4	100
147423	2025-12-01T02:36:40	1.3	100
147424	2025-12-01T02:46:40	1.1	100
147425	2025-12-01T02:56:40	0.9	100
147426	2025-12-01T03:06:40	0.8	100
147427	2025-12-01T03:16:40	0.6	100
147428	2025-12-01T03:26:40	0.4	100
147429	2025-12-01T03:36:40	0.1	100
147430	2025-12-01T03:46:40	0	100
147431	2025-12-01T03:56:40	-0.1	100
147432	2025-12-01T04:06:40	-0.1	100
147433	2025-12-01T04:16:40	-0.2	100
147434	2025-12-01T04:26:40	-0.3	100
147435	2025-12-01T04:36:40	-0.4	100
147436	2025-12-01T04:46:40	-0.6	100
147437	2025-12-01T04:56:40	-0.6	100
147438	2025-12-01T05:06:40	-0.7	100
147439	2025-12-01T05:16:40	-0.8	100
147440	2025-12-01T05:26:40	-0.8	100
147441	2025-12-01T05:36:40	-0.9	100
147442	2025-12-01T05:46:40	-1	100
147443	2025-12-01T05:56:40	-1	100
147444	2025-12-01T06:06:40	-1.3	100
147445	2025-12-01T06:16:40	-1.2	100
147446	2025-12-01T06:26:40	-1.3	100
147447	2025-12-01T06:36:40	-1.3	100
147448	2025-12-01T06:46:40	-1.4	100
147449	2025-12-01T06:56:40	-1.4	100
147450	2025-12-01T07:06:40	-1.4	100
147451	2025-12-01T07:16:40	-1.3	100
147452	2025-12-01T07:26:40	-1.3	100
147453	2025-12-01T07:36:40	-1.2	100
147454	2025-12-01T07:46:40	-1.2	100
147455	2025-12-01T07:56:40	-0.3	100
147456	2025-12-01T08:06:40	-0.1	100
147457	2025-12-01T08:16:40	-0.6	100
147458	2025-12-01T08:26:40	-0.6	100
147459	2025-12-01T08:36:40	-0.5	100
147460	2025-12-01T08:46:40	-0.3	100
147461	2025-12-01T08:56:40	-0.1	100
147462	2025-12-01T09:06:40	0	100
147463	2025-12-01T09:16:40	0	100
147464	2025-12-01T09:26:40	0.2	100
147465	2025-12-01T09:36:40	0.5	100
147466	2025-12-01T09:46:40	0.9	100
147467	2025-12-01T09:56:40	1.1	100
147468	2025-12-01T10:06:40	1.2	100
147469	2025-12-01T10:16:40	1.4	100
147470	2025-12-01T10:26:40	1.9	100
147471	2025-12-01T10:36:40	2.2	100
147472	2025-12-01T10:46:40	2.5	100
147473	2025-12-01T10:56:40	3.2	100
147474	2025-12-01T11:06:40	3.9	100
147475	2025-12-01T11:16:40	4.3	100
147476	2025-12-01T11:26:40	4.9	100
147477	2025-12-01T11:36:40	5.7	100
147478	2025-12-01T11:46:40	6.5	100
147479	2025-12-01T11:56:40	7.8	100
147480	2025-12-01T12:06:40	8.5	100
147481	2025-12-01T12:16:40	9.5	100
147482	2025-12-01T12:26:40	11.3	100
147483	2025-12-01T12:36:40	11.6	100
147484	2025-12-01T12:46:40	13.1	100
147485	2025-12-01T12:56:40	13.9	100
147486	2025-12-01T13:06:40	14.4	100
147487	2025-12-01T13:16:40	14.8	100
147488	2025-12-01T13:26:40	15.2	100
147489	2025-12-01T13:36:40	14.8	100
147490	2025-12-01T13:46:40	15.1	100
147491	2025-12-01T13:56:40	15.1	100
147492	2025-12-01T14:06:40	15.2	100
147493	2025-12-01T14:16:40	14.3	100
147494	2025-12-01T14:26:40	13.9	69.5
147495	2025-12-01T14:36:40	12.3	67
147496	2025-12-01T14:46:40	11.5	70
147497	2025-12-01T14:56:40	10.4	71
147498	2025-12-01T15:06:40	9.2	75
147499	2025-12-01T15:16:40	8.8	85
147500	2025-12-01T15:26:40	8.1	84.5
147501	2025-12-01T15:36:40	7.2	87
147502	2025-12-01T15:46:40	6.7	88
147503	2025-12-01T15:56:40	6.3	88.5
147504	2025-12-01T16:06:40	5.8	89.5
147505	2025-12-01T16:16:40	5.4	91
147506	2025-12-01T16:26:40	5	92.5
147507	2025-12-01T16:36:40	4.7	93.5
147508	2025-12-01T16:46:40	4.5	94
147509	2025-12-01T16:56:40	4.2	95
147510	2025-12-01T17:06:40	3.9	96
147511	2025-12-01T17:16:40	3.7	96
147512	2025-12-01T17:26:40	3.4	96.5
147513	2025-12-01T17:36:40	3.2	97
147514	2025-12-01T17:46:40	3	97
147515	2025-12-01T17:56:40	2.8	95.5
147516	2025-12-01T18:06:40	2.6	96
147517	2025-12-01T18:16:40	2.3	96.5
147518	2025-12-01T18:26:40	2.1	97.5
147519	2025-12-01T18:36:40	1.9	97.5
147520	2025-12-01T18:46:40	1.7	97.5
147521	2025-12-01T18:56:40	1.6	98
147522	2025-12-01T19:06:40	1.5	98.5
147523	2025-12-01T19:16:40	1.3	99
147524	2025-12-01T19:26:40	1.2	99.5
147525	2025-12-01T19:36:40	1	99.5
147526	2025-12-01T19:46:40	0.8	99
147527	2025-12-01T19:56:40	0.7	100
147528	2025-12-01T20:06:40	0.7	100
147529	2025-12-01T20:16:40	0.5	100
147530	2025-12-01T20:26:40	0.4	99.5
147531	2025-12-01T20:36:40	0.4	100
147532	2025-12-01T20:46:40	0.3	100
147533	2025-12-01T20:56:40	0.1	100
147534	2025-12-01T21:06:40	0.1	100
147535	2025-12-01T21:16:40	0.1	100
147536	2025-12-01T21:26:40	0	100
147537	2025-12-01T21:36:40	0	100
147538	2025-12-01T21:46:40	0	100
147539	2025-12-01T21:56:40	-0.2	100
147540	2025-12-01T22:06:40	-0.3	100
147541	2025-12-01T22:16:40	-0.3	100
147542	2025-12-01T22:26:40	-0.5	100
147543	2025-12-01T22:36:40	-0.5	100
147544	2025-12-01T22:46:40	-0.6	100
147545	2025-12-01T22:56:40	-0.7	100
147546	2025-12-01T23:06:40	-0.8	100
147547	2025-12-01T23:16:40	-0.8	100
147548	2025-12-01T23:26:40	-0.8	100
147549	2025-12-01T23:36:40	-1	100
147550	2025-12-01T23:46:40	-1.2	100
147551	2025-12-01T23:56:40	-1.1	100
147552	2025-12-02T00:06:40	-1.1	100
147553	2025-12-02T00:16:40	-1.2	100
147554	2025-12-02T00:26:40	-1.4	100
147555	2025-12-02T00:36:40	-1.5	100
147556	2025-12-02T00:46:40	-1.6	100
147557	2025-12-02T00:56:40	-1.6	100
147558	2025-12-02T01:06:40	-1.7	100
147559	2025-12-02T01:16:40	-1.8	100
147560	2025-12-02T01:26:40	-1.7	100
147561	2025-12-02T01:36:40	-1.8	100
147562	2025-12-02T01:46:40	-1.8	100
147563	2025-12-02T01:56:40	-1.9	100
147564	2025-12-02T02:06:40	-1.8	100
147565	2025-12-02T02:16:40	-2	100
147566	2025-12-02T02:26:40	-2.1	100
147567	2025-12-02T02:36:40	-2.2	100
147568	2025-12-02T02:46:40	-2.2	100
147569	2025-12-02T02:56:40	-2.3	100
147570	2025-12-02T03:06:40	-2.3	100
147571	2025-12-02T03:16:40	-2.2	100
147572	2025-12-02T03:26:40	-2.2	100
147573	2025-12-02T03:36:40	-2	100
147574	2025-12-02T03:46:40	-1.8	100
147575	2025-12-02T03:56:40	-1.7	100
147576	2025-12-02T04:06:40	-1.5	100
147577	2025-12-02T04:16:40	-1.5	100
147578	2025-12-02T04:26:40	-1.7	100
147579	2025-12-02T04:36:40	-1.4	100
147580	2025-12-02T04:46:40	-1.7	100
147581	2025-12-02T04:56:40	-1.8	100
147582	2025-12-02T05:06:40	-2.1	100
147583	2025-12-02T05:16:40	-2.2	100
147584	2025-12-02T05:26:40	-2.4	100
147585	2025-12-02T05:36:40	-2.4	100
147586	2025-12-02T05:46:40	-2.5	100
147587	2025-12-02T05:56:40	-2.4	100
147588	2025-12-02T06:06:40	-2.5	100
147589	2025-12-02T06:16:40	-2.6	100
147590	2025-12-02T06:26:40	-2.6	100
147591	2025-12-02T06:36:40	-2.5	100
147592	2025-12-02T06:46:40	-2.5	100
147593	2025-12-02T06:56:40	-2.5	100
147594	2025-12-02T07:06:40	-2.6	100
147595	2025-12-02T07:16:40	-2.5	100
147596	2025-12-02T07:26:40	-2.5	100
147597	2025-12-02T07:36:40	-2.4	100
147598	2025-12-02T07:46:40	-2.3	100
147599	2025-12-02T07:56:40	-2.2	100
147600	2025-12-02T08:06:40	-2	100
147601	2025-12-02T08:16:40	-1.9	100
147602	2025-12-02T08:26:40	-1.7	100
147603	2025-12-02T08:36:40	-1.6	100
147604	2025-12-02T08:46:40	-1.4	100
147605	2025-12-02T08:56:40	-1.2	100
147606	2025-12-02T09:06:40	-1	100
147607	2025-12-02T09:16:40	-0.7	100
147608	2025-12-02T09:26:40	-0.2	100
147609	2025-12-02T09:36:40	0.3	100
147610	2025-12-02T09:46:40	1.1	100
147611	2025-12-02T09:56:40	1.7	100
147612	2025-12-02T10:06:40	2.1	100
147613	2025-12-02T10:16:40	2.2	100
147614	2025-12-02T10:26:40	2.7	100
147615	2025-12-02T10:36:40	3.1	100
147616	2025-12-02T10:46:40	3.8	100
147617	2025-12-02T10:56:40	4.2	97
147618	2025-12-02T11:06:40	5	95.5
147619	2025-12-02T11:16:40	5	92.5
147620	2025-12-02T11:26:40	5.6	94
147621	2025-12-02T11:36:40	7.2	87.5
147622	2025-12-02T11:46:40	9	83.5
147623	2025-12-02T11:56:40	10.8	79
147624	2025-12-02T12:06:40	12.2	80.5
147625	2025-12-02T12:16:40	13.7	72
147626	2025-12-02T12:26:40	13.9	67.5
147627	2025-12-02T12:36:40	14.3	63.5
147628	2025-12-02T12:46:40	13.6	66
147629	2025-12-02T12:56:40	14.8	63.5
147630	2025-12-02T13:06:40	14.9	69
147631	2025-12-02T13:16:40	16.4	64.5
147632	2025-12-02T13:26:40	14.6	67.5
147633	2025-12-02T13:36:40	15.5	67.5
147634	2025-12-02T13:46:40	14.6	66.5
147635	2025-12-02T13:56:40	13	72.5
147636	2025-12-02T14:06:40	12.3	73.5
147637	2025-12-02T14:16:40	11.9	76.5
147638	2025-12-02T14:26:40	11.3	80
147639	2025-12-02T14:36:40	10.8	80
147640	2025-12-02T14:46:40	10.4	81.5
147641	2025-12-02T14:56:39	10.1	82.5
147642	2025-12-02T15:06:39	9.9	84.5
147643	2025-12-02T15:16:39	9.5	85
147644	2025-12-02T15:26:39	9.2	84.5
147645	2025-12-02T15:36:39	9	87.5
147646	2025-12-02T15:46:39	8.9	87
147647	2025-12-02T15:56:39	8.5	86.5
147648	2025-12-02T16:06:39	8.4	87.5
147649	2025-12-02T16:16:39	8.2	87.5
147650	2025-12-02T16:26:39	8	89
147651	2025-12-02T16:36:39	7.8	89
147652	2025-12-02T16:46:39	7.5	90.5
147653	2025-12-02T16:56:39	7.3	91.5
147654	2025-12-02T17:06:39	7	92.5
147655	2025-12-02T17:16:39	6.6	93.5
147656	2025-12-02T17:26:39	6.3	93
147657	2025-12-02T17:36:39	6	94.5
147658	2025-12-02T17:46:39	5.8	93.5
147659	2025-12-02T17:56:39	5.5	95
147660	2025-12-02T18:06:39	5.5	96
147661	2025-12-02T18:16:39	5.4	93
147662	2025-12-02T18:26:39	5.4	92.5
147663	2025-12-02T18:36:39	5.5	94
147664	2025-12-02T18:46:39	5.3	94.5
147665	2025-12-02T18:56:39	5	95
147666	2025-12-02T19:06:39	4.9	95.5
147667	2025-12-02T19:16:39	4.8	96
147668	2025-12-02T19:26:39	4.5	97
147669	2025-12-02T19:36:39	4.2	97
147670	2025-12-02T19:46:39	3.9	96
147671	2025-12-02T19:56:39	3.6	97.5
147672	2025-12-02T20:06:39	3.5	97.5
147673	2025-12-02T20:16:39	3.2	97.5
147674	2025-12-02T20:26:39	3.1	97.5
147675	2025-12-02T20:36:39	3	97.5
147676	2025-12-02T20:46:39	3.3	97
147677	2025-12-02T20:56:39	3.5	95
147678	2025-12-02T21:06:39	3.9	95.5
147679	2025-12-02T21:16:39	4	95.5
147680	2025-12-02T21:26:39	4	96.5
147681	2025-12-02T21:36:39	4	95
147682	2025-12-02T21:46:39	4.1	95.5
147683	2025-12-02T21:56:39	3.8	96
147684	2025-12-02T22:06:39	3.7	97.5
147685	2025-12-02T22:16:39	3.4	97.5
147686	2025-12-02T22:26:39	3.3	98.5
147687	2025-12-02T22:36:39	3	99
147688	2025-12-02T22:46:39	3.1	98.5
147689	2025-12-02T22:56:39	3.2	98
147690	2025-12-02T23:06:39	3.1	97
147691	2025-12-02T23:16:39	3.2	97
147692	2025-12-02T23:26:39	2.9	97.5
147693	2025-12-02T23:36:39	2.9	99
147694	2025-12-02T23:46:39	2.4	100
147695	2025-12-02T23:56:39	2.2	100
147696	2025-12-03T00:06:39	2	100
147697	2025-12-03T00:16:39	2	100
147698	2025-12-03T00:26:39	1.8	100
147699	2025-12-03T00:36:39	1.6	100
147700	2025-12-03T00:46:39	1.4	100
147701	2025-12-03T00:56:39	1.4	100
147702	2025-12-03T01:06:39	1.2	100
147703	2025-12-03T01:16:39	1.2	100
147704	2025-12-03T01:26:39	1.1	100
147705	2025-12-03T01:36:39	1	100
147706	2025-12-03T01:46:39	0.9	100
147707	2025-12-03T01:56:39	0.8	100
147708	2025-12-03T02:06:39	0.7	100
147709	2025-12-03T02:16:39	0.7	100
147710	2025-12-03T02:26:39	0.7	100
147711	2025-12-03T02:36:39	0.6	100
147712	2025-12-03T02:46:39	0.4	100
147713	2025-12-03T02:56:39	0.4	100
147714	2025-12-03T03:06:39	0.3	100
147715	2025-12-03T03:16:39	0.2	100
147716	2025-12-03T03:26:39	0.2	100
147717	2025-12-03T03:36:39	0.2	100
147718	2025-12-03T03:46:39	0	100
147719	2025-12-03T03:56:39	0	100
147720	2025-12-03T04:06:39	0	100
147721	2025-12-03T04:16:39	0.1	100
147722	2025-12-03T04:26:39	0.6	100
147723	2025-12-03T04:36:39	0.8	100
147724	2025-12-03T04:46:39	0.8	100
147725	2025-12-03T04:56:39	0.9	100
147726	2025-12-03T05:06:39	0.9	100
147727	2025-12-03T05:16:39	1.1	100
147728	2025-12-03T05:26:39	1	100
147729	2025-12-03T05:36:39	1.2	100
147730	2025-12-03T05:46:39	1.2	99.5
147731	2025-12-03T05:56:39	1.2	100
147732	2025-12-03T06:06:39	1.2	100
147733	2025-12-03T06:16:39	1.2	100
147734	2025-12-03T06:26:39	1.1	100
147735	2025-12-03T06:36:39	1	100
147736	2025-12-03T06:46:39	0.6	100
147737	2025-12-03T06:56:39	0.4	100
147738	2025-12-03T07:06:39	0.3	100
147739	2025-12-03T07:16:39	0.3	100
147740	2025-12-03T07:26:39	0.4	100
147741	2025-12-03T07:36:39	0.5	100
147742	2025-12-03T07:46:39	0.8	100
147743	2025-12-03T07:56:39	1.1	100
147744	2025-12-03T08:06:39	1.3	100
147745	2025-12-03T08:16:39	1.6	100
147746	2025-12-03T08:26:39	1.7	100
147747	2025-12-03T08:36:39	1.8	99.5
147748	2025-12-03T08:46:39	2	98.5
147749	2025-12-03T08:56:39	2.1	98.5
147750	2025-12-03T09:06:39	2.3	98
147751	2025-12-03T09:16:39	2.4	97
147752	2025-12-03T09:26:39	2.8	95.5
147753	2025-12-03T09:36:39	2.9	95
147754	2025-12-03T09:46:39	3.1	94
147755	2025-12-03T09:56:39	3.3	94.5
147756	2025-12-03T10:06:39	3.7	95.5
147757	2025-12-03T10:16:39	3.8	93
147758	2025-12-03T10:36:39	4	91.5
147759	2025-12-03T10:46:39	4.2	91
147760	2025-12-03T10:56:39	4.6	90
147761	2025-12-03T11:06:39	5	88.5
147762	2025-12-03T11:16:39	5.2	89.5
147763	2025-12-03T11:26:39	5.2	90
147764	2025-12-03T11:36:39	6.4	86
147765	2025-12-03T11:46:39	7.1	84.5
147766	2025-12-03T11:56:39	9.7	74
147767	2025-12-03T12:06:39	9.2	72.5
147768	2025-12-03T12:16:39	8.6	75
147769	2025-12-03T12:26:39	9.3	74.5
147770	2025-12-03T12:36:39	11.6	67
147771	2025-12-03T12:46:39	13.1	65.5
147772	2025-12-03T12:56:39	14.4	60
147773	2025-12-03T13:06:39	14.8	57.5
147774	2025-12-03T13:16:39	15.7	57.5
147775	2025-12-03T13:26:39	16.3	53.5
147776	2025-12-03T13:36:39	16.9	54
147777	2025-12-03T13:46:39	17.2	53
147778	2025-12-03T13:56:39	17.2	50
147779	2025-12-03T14:06:39	15.9	53.5
147780	2025-12-03T14:16:39	16.5	52.5
147781	2025-12-03T14:26:39	16.1	52.5
147782	2025-12-03T14:36:39	14.7	56.5
147783	2025-12-03T14:46:39	14.1	58
147784	2025-12-03T14:56:39	11	66.5
147785	2025-12-03T15:06:39	9.9	69.5
147786	2025-12-03T15:16:39	9	72.5
147787	2025-12-03T15:26:39	8.4	75
147788	2025-12-03T15:36:39	7.9	77.5
147789	2025-12-03T15:46:39	7.4	79.5
147790	2025-12-03T15:56:39	7	81
147791	2025-12-03T16:06:39	6.6	82.5
147792	2025-12-03T16:16:39	6.2	83
147793	2025-12-03T16:26:39	6	83
147794	2025-12-03T16:36:39	5.5	82.5
147795	2025-12-03T16:46:39	5.2	84.5
147796	2025-12-03T16:56:39	4.8	85
147797	2025-12-03T17:06:39	4.5	85
147798	2025-12-03T17:16:39	4.2	86
147799	2025-12-03T17:26:39	4	86.5
147800	2025-12-03T17:36:39	3.8	88
147801	2025-12-03T17:46:39	3.6	87
147802	2025-12-03T17:56:39	3.4	87.5
147803	2025-12-03T18:06:39	3.1	87.5
147804	2025-12-03T18:16:39	3	89
147805	2025-12-03T18:26:39	2.7	88.5
147806	2025-12-03T18:36:39	2.6	90
147807	2025-12-03T18:46:39	2.5	89.5
147808	2025-12-03T18:56:39	2.4	90
147809	2025-12-03T19:06:39	2.4	90.5
147810	2025-12-03T19:16:39	2.3	89.5
147811	2025-12-03T19:26:39	2.6	90.5
147812	2025-12-03T19:36:39	2.6	90
147813	2025-12-03T19:46:39	2.6	89.5
147814	2025-12-03T19:56:39	2.4	89
147815	2025-12-03T20:06:39	2.4	89.5
147816	2025-12-03T20:16:39	2.3	91
147817	2025-12-03T20:26:39	2.4	91.5
147818	2025-12-03T20:36:39	2.2	92
147819	2025-12-03T20:46:39	2.2	92
147820	2025-12-03T20:56:39	2.3	92.5
147821	2025-12-03T21:06:39	2.2	92.5
147822	2025-12-03T21:16:39	2.2	93
147823	2025-12-03T21:26:39	2.3	93.5
147824	2025-12-03T21:36:39	2.4	93.5
147825	2025-12-03T21:46:39	2.3	93
147826	2025-12-03T21:56:39	2.6	93.5
147827	2025-12-03T22:06:39	2.3	93.5
147828	2025-12-03T22:16:39	2.4	94
147829	2025-12-03T22:26:39	2.5	93.5
147830	2025-12-03T22:36:57	2.7	93.5
147831	2025-12-03T22:46:39	2.8	93.5
147832	2025-12-03T22:56:39	2.8	93.5
147833	2025-12-03T23:06:38	2.8	94
147834	2025-12-03T23:16:38	2.8	94
147835	2025-12-03T23:26:38	2.8	94
147836	2025-12-03T23:36:38	2.8	94
147837	2025-12-03T23:46:38	2.8	94.5
147838	2025-12-03T23:56:38	2.8	94.5
147839	2025-12-04T00:06:38	2.9	95
147840	2025-12-04T00:16:38	2.9	94.5
147841	2025-12-04T00:26:38	2.9	95
147842	2025-12-04T00:36:38	2.9	95
147843	2025-12-04T00:46:38	2.9	94.5
147844	2025-12-04T00:56:38	2.9	95
147845	2025-12-04T01:06:38	2.9	94.5
147846	2025-12-04T01:16:38	2.9	95
147847	2025-12-04T01:26:38	2.9	95.5
147848	2025-12-04T01:36:38	2.9	95
147849	2025-12-04T01:46:38	2.9	95.5
147850	2025-12-04T01:56:38	2.9	95.5
147851	2025-12-04T02:06:38	2.9	95.5
147852	2025-12-04T02:16:38	2.8	96
147853	2025-12-04T02:26:38	2.9	96
147854	2025-12-04T02:36:38	2.9	95.5
147855	2025-12-04T02:46:38	2.9	96
147856	2025-12-04T02:56:38	2.8	95.5
147857	2025-12-04T03:06:38	2.9	96.5
147858	2025-12-04T03:16:38	2.9	96.5
147859	2025-12-04T03:26:38	3	96
147860	2025-12-04T03:36:38	2.9	96
147861	2025-12-04T03:46:38	2.9	96
147862	2025-12-04T03:56:38	3	96.5
147863	2025-12-04T04:06:38	2.9	96.5
147864	2025-12-04T04:16:38	3	96.5
147865	2025-12-04T04:26:38	3.1	96.5
147866	2025-12-04T04:36:38	3	96.5
147867	2025-12-04T04:46:38	3	96.5
147868	2025-12-04T04:56:38	2.9	97
147869	2025-12-04T05:06:38	2.9	96.5
147870	2025-12-04T05:16:38	2.9	97
147871	2025-12-04T05:26:38	3	97
147872	2025-12-04T05:36:38	3.1	96.5
147873	2025-12-04T05:46:38	3	96.5
147874	2025-12-04T05:56:38	2.9	96.5
147875	2025-12-04T06:06:38	2.9	97.5
147876	2025-12-04T06:16:38	2.9	97
147877	2025-12-04T06:26:38	2.9	97.5
147878	2025-12-04T06:36:38	2.8	98
147879	2025-12-04T06:46:38	2.7	98
147880	2025-12-04T06:56:38	2.7	98
147881	2025-12-04T07:06:38	2.6	98.5
147882	2025-12-04T07:16:38	2.5	99
147883	2025-12-04T07:26:38	2.4	99.5
147884	2025-12-04T07:36:38	2.5	98.5
147885	2025-12-04T07:46:38	2.8	98
147886	2025-12-04T07:56:38	3.1	97
147887	2025-12-04T08:06:38	3.1	97
147888	2025-12-04T08:16:38	3.2	96.5
147889	2025-12-04T08:26:38	3.5	97
147890	2025-12-04T08:36:38	3.6	96.5
147891	2025-12-04T08:46:38	3.9	96
147892	2025-12-04T08:56:38	4	95
147893	2025-12-04T09:06:38	4.3	93.5
147894	2025-12-04T09:16:38	4.6	91.5
147895	2025-12-04T09:26:38	4.9	90.5
147896	2025-12-04T09:36:38	5.4	88.5
147897	2025-12-04T09:46:38	5.6	88
147898	2025-12-04T09:56:38	5.8	87
147899	2025-12-04T10:06:38	5.8	88
147900	2025-12-04T10:16:38	5.6	88.5
147901	2025-12-04T10:26:38	5.7	87.5
147902	2025-12-04T10:36:38	6	87
147903	2025-12-04T10:46:38	6.5	85
147904	2025-12-04T10:56:38	6.5	84.5
147905	2025-12-04T11:06:38	6.6	84
147906	2025-12-04T11:16:38	6.7	82.5
147907	2025-12-04T11:26:38	6.6	83
147908	2025-12-04T11:36:38	6.8	84
147909	2025-12-04T11:46:38	7	84.5
147910	2025-12-04T11:56:38	7.1	85
147911	2025-12-04T12:06:38	7.1	84.5
147912	2025-12-04T12:16:38	7.1	84.5
147913	2025-12-04T12:26:38	7.4	84.5
147914	2025-12-04T12:36:38	7.6	84.5
147915	2025-12-04T12:46:38	7.5	84.5
147916	2025-12-04T12:56:38	7.5	84
147917	2025-12-04T13:06:38	7.5	85
147918	2025-12-04T13:16:38	7.5	85.5
147919	2025-12-04T13:26:38	7.7	85
147920	2025-12-04T13:36:38	7.7	84
147921	2025-12-04T13:46:38	7.6	84.5
147922	2025-12-04T13:56:38	7.6	85.5
147923	2025-12-04T14:06:38	7.7	85
147924	2025-12-04T14:16:38	8.3	84.5
147925	2025-12-04T14:26:38	7.7	84.5
147926	2025-12-04T14:36:38	7.3	85
147927	2025-12-04T14:46:38	7.6	84
147928	2025-12-04T14:56:38	7	86
147929	2025-12-04T15:06:38	6.5	87.5
147930	2025-12-04T15:16:38	6.2	88.5
147931	2025-12-04T15:26:38	5.7	90
147932	2025-12-04T15:36:38	5.2	91
147933	2025-12-04T15:46:38	4.9	92
147934	2025-12-04T15:56:38	4.4	93.5
147935	2025-12-04T16:06:38	4.2	93.5
147936	2025-12-04T16:16:38	4.1	94
147937	2025-12-04T16:26:38	4	94.5
147938	2025-12-04T16:36:38	3.7	95
147939	2025-12-04T16:46:38	3.5	95.5
147940	2025-12-04T16:56:38	3.3	96.5
147941	2025-12-04T17:06:38	3.3	96.5
147942	2025-12-04T17:16:38	3.1	96.5
147943	2025-12-04T17:26:38	3	97
147944	2025-12-04T17:36:38	2.7	97.5
147945	2025-12-04T17:46:38	2.3	98
147946	2025-12-04T17:56:38	2.3	98.5
147947	2025-12-04T18:06:38	2.1	98.5
147948	2025-12-04T18:16:38	1.9	99
147949	2025-12-04T18:26:38	1.9	99
147950	2025-12-04T18:36:38	1.8	99
147951	2025-12-04T18:46:38	1.6	99
147952	2025-12-04T18:56:38	1.4	99.5
147953	2025-12-04T19:06:38	1.4	99.5
147954	2025-12-04T19:16:38	1.4	99.5
147955	2025-12-04T19:26:38	1.9	97.5
147956	2025-12-04T19:36:38	2	96.5
147957	2025-12-04T19:46:38	2.1	96.5
147958	2025-12-04T19:56:38	2.2	96
147959	2025-12-04T20:06:38	1.6	97
147960	2025-12-04T20:16:38	1.3	99
147961	2025-12-04T20:26:38	1.2	99.5
147962	2025-12-04T20:36:38	1	99.5
147963	2025-12-04T20:46:38	0.8	99.5
147964	2025-12-04T20:56:38	0.9	100
147965	2025-12-04T21:06:38	0.7	99.5
147966	2025-12-04T21:16:38	0.7	100
147967	2025-12-04T21:26:38	0.6	100
147968	2025-12-04T21:36:38	0.4	100
147969	2025-12-04T21:46:38	0.3	100
147970	2025-12-04T21:56:38	0.1	100
147971	2025-12-04T22:06:38	0.1	100
147972	2025-12-04T22:16:38	0.1	100
147973	2025-12-04T22:26:38	0.2	100
147974	2025-12-04T22:36:38	0.1	100
147975	2025-12-04T22:46:38	0.2	100
147976	2025-12-04T22:56:38	0.2	99.5
147977	2025-12-04T23:06:38	0.2	100
147978	2025-12-04T23:16:38	0.3	99
147979	2025-12-04T23:26:38	0.3	98.5
147980	2025-12-04T23:36:38	0.2	98.5
147981	2025-12-04T23:46:38	0.1	99.5
147982	2025-12-04T23:56:38	0.1	100
147983	2025-12-05T00:06:38	0.3	100
147984	2025-12-05T00:16:38	0.4	100
147985	2025-12-05T00:26:38	0.6	100
147986	2025-12-05T00:36:38	0.7	100
147987	2025-12-05T00:46:38	0.7	100
147988	2025-12-05T00:56:38	1	100
147989	2025-12-05T01:06:38	1	100
147990	2025-12-05T01:16:38	1.1	100
147991	2025-12-05T01:26:38	1.1	100
147992	2025-12-05T01:36:38	1.3	100
147993	2025-12-05T01:46:38	1.3	100
147994	2025-12-05T01:56:38	1.3	100
147995	2025-12-05T02:06:38	1.5	100
147996	2025-12-05T02:16:38	1.4	100
147997	2025-12-05T02:26:38	1.5	100
147998	2025-12-05T02:36:38	1.5	100
147999	2025-12-05T02:46:38	1.5	100
148000	2025-12-05T02:56:38	1.6	100
148001	2025-12-05T03:06:38	1.5	100
148002	2025-12-05T03:16:38	1.6	100
148003	2025-12-05T03:26:38	1.4	100
148004	2025-12-05T03:36:38	1.6	100
148005	2025-12-05T03:46:38	1.5	100
148006	2025-12-05T03:56:38	1.6	100
148007	2025-12-05T04:06:38	1.6	100
148008	2025-12-05T04:16:38	1.9	100
148009	2025-12-05T04:26:38	1.8	100
148010	2025-12-05T04:36:38	1.8	100
148011	2025-12-05T04:46:38	1.9	100
148012	2025-12-05T04:56:38	2	100
148013	2025-12-05T05:06:38	2.1	100
148014	2025-12-05T05:16:38	2.1	100
148015	2025-12-05T05:26:38	2.1	100
148016	2025-12-05T05:36:38	2.1	100
148017	2025-12-05T05:46:38	2.1	100
148018	2025-12-05T05:56:38	2	100
148019	2025-12-05T06:06:38	1.9	100
148020	2025-12-05T06:16:38	2	100
148021	2025-12-05T06:26:38	2.1	100
148022	2025-12-05T06:36:38	2.2	100
148023	2025-12-05T06:46:38	2.2	100
148024	2025-12-05T06:56:38	2.3	100
148025	2025-12-05T07:06:38	2.4	100
148026	2025-12-05T07:16:38	2.4	100
148027	2025-12-05T07:26:38	2.5	100
148028	2025-12-05T07:36:38	2.5	100
148029	2025-12-05T07:46:38	2.5	100
148030	2025-12-05T07:56:38	2.7	100
148031	2025-12-05T08:06:38	2.7	100
148032	2025-12-05T08:16:38	2.8	100
148033	2025-12-05T08:26:38	2.9	100
148034	2025-12-05T08:36:38	3	100
148035	2025-12-05T08:46:38	3	100
148036	2025-12-05T08:56:38	3	100
148037	2025-12-05T09:06:38	3.1	100
148038	2025-12-05T09:16:38	3.1	100
148039	2025-12-05T09:26:38	3.2	100
148040	2025-12-05T09:36:38	3.3	100
148041	2025-12-05T09:46:38	3.4	100
148042	2025-12-05T09:56:38	3.5	100
148043	2025-12-05T10:06:38	3.7	100
148044	2025-12-05T10:16:38	3.8	100
148045	2025-12-05T10:26:38	3.9	100
148046	2025-12-05T10:36:38	4	100
148047	2025-12-05T10:46:38	4.2	100
148048	2025-12-05T10:56:38	4.1	100
148049	2025-12-05T11:06:38	4.5	99
148050	2025-12-05T11:16:38	4.6	98.5
148051	2025-12-05T11:26:38	4.7	98.5
148052	2025-12-05T11:36:38	5	98.5
148053	2025-12-05T11:46:38	5	99
148054	2025-12-05T11:56:38	5.1	98.5
148055	2025-12-05T12:06:38	5	99
148056	2025-12-05T12:16:38	5.2	98.5
148057	2025-12-05T12:26:38	5.4	98.5
148058	2025-12-05T12:36:38	5.5	98.5
148059	2025-12-05T12:46:38	5.6	98
148060	2025-12-05T12:56:38	5.5	98
148061	2025-12-05T13:06:37	5.6	98.5
148062	2025-12-05T13:16:37	5.8	98
148063	2025-12-05T13:26:37	5.9	97
148064	2025-12-05T13:36:37	5.9	97
148065	2025-12-05T13:46:37	5.9	97.5
148066	2025-12-05T13:56:37	6.1	96.5
148067	2025-12-05T14:06:37	6	97
148068	2025-12-05T14:16:37	5.9	97.5
148069	2025-12-05T14:26:37	6	97.5
148070	2025-12-05T14:36:37	5.9	97.5
148071	2025-12-05T14:46:37	5.8	98
148072	2025-12-05T14:56:37	5.5	99.5
148073	2025-12-05T15:06:37	5.4	99.5
148074	2025-12-05T15:16:37	5.4	100
148075	2025-12-05T15:26:37	5.2	100
148076	2025-12-05T15:36:37	4.5	100
148077	2025-12-05T15:46:37	4.5	100
148078	2025-12-05T15:56:37	4.9	100
148079	2025-12-05T16:06:37	5	100
148080	2025-12-05T16:16:37	5.1	100
148081	2025-12-05T16:26:37	5	100
148082	2025-12-05T16:36:37	4.9	100
148083	2025-12-05T16:46:37	4.7	100
148084	2025-12-05T16:56:37	4.2	100
148085	2025-12-05T17:06:37	3.6	100
148086	2025-12-05T17:16:37	3.5	100
148087	2025-12-05T17:26:37	3.2	100
148088	2025-12-05T17:36:37	3	100
148089	2025-12-05T17:46:37	3.3	100
148090	2025-12-05T17:56:37	3.6	100
148091	2025-12-05T18:06:37	3.5	100
148092	2025-12-05T18:16:37	3.5	100
148093	2025-12-05T18:26:37	3.5	100
148094	2025-12-05T18:36:37	3.5	100
148095	2025-12-05T18:46:37	3	100
148096	2025-12-05T18:56:37	2.4	100
148097	2025-12-05T19:06:37	2.3	100
148098	2025-12-05T19:16:37	2	100
148099	2025-12-05T19:26:37	1.9	100
148100	2025-12-05T19:36:37	1.7	100
148101	2025-12-05T19:46:37	1.5	100
148102	2025-12-05T19:56:37	1.3	100
148103	2025-12-05T20:06:37	1.3	100
148104	2025-12-05T20:16:37	1	100
148105	2025-12-05T20:26:37	0.9	100
148106	2025-12-05T20:36:37	0.9	100
148107	2025-12-05T20:46:37	0.6	100
148108	2025-12-05T20:56:37	0.5	100
148109	2025-12-05T21:06:37	0.5	100
148110	2025-12-05T21:16:37	0.4	100
148111	2025-12-05T21:26:37	0.2	100
148112	2025-12-05T21:36:37	0.1	100
148113	2025-12-05T21:46:37	0	100
148114	2025-12-05T21:56:37	0	100
148115	2025-12-05T22:06:37	0	100
148116	2025-12-05T22:16:37	-0.2	100
148117	2025-12-05T22:26:37	-0.2	100
148118	2025-12-05T22:36:37	-0.4	100
148119	2025-12-05T22:46:37	-0.4	100
148120	2025-12-05T22:56:37	-0.5	100
148121	2025-12-05T23:06:37	-0.6	100
148122	2025-12-05T23:16:37	-0.6	100
148123	2025-12-05T23:26:37	-0.8	100
148124	2025-12-05T23:36:37	-0.8	100
148125	2025-12-05T23:46:37	-1	100
148126	2025-12-05T23:56:37	-1	100
148127	2025-12-06T00:06:55	-1	100
148128	2025-12-06T00:16:37	-1.1	100
148129	2025-12-06T00:26:37	-1	100
148130	2025-12-06T00:36:37	-1.3	100
148131	2025-12-06T00:46:37	-1.1	100
148132	2025-12-06T00:56:37	-1.2	100
148133	2025-12-06T01:06:57	-1.3	100
148134	2025-12-06T01:16:37	-1.3	100
148135	2025-12-06T01:26:37	-1.3	100
148136	2025-12-06T01:36:37	-1.3	100
148137	2025-12-06T01:46:37	-1.3	100
148138	2025-12-06T01:56:37	-1.1	100
148139	2025-12-06T02:06:37	-1	100
148140	2025-12-06T02:16:37	-1.1	100
148141	2025-12-06T02:26:37	-1.1	100
148142	2025-12-06T02:36:37	-1.2	100
148143	2025-12-06T02:46:37	-1	100
148144	2025-12-06T02:56:37	-0.9	100
148145	2025-12-06T03:06:37	-0.7	100
148146	2025-12-06T03:16:37	-0.6	100
148147	2025-12-06T03:26:37	-0.6	100
148148	2025-12-06T03:36:37	-0.4	100
148149	2025-12-06T03:46:37	-0.2	100
148150	2025-12-06T03:56:37	0	100
148151	2025-12-06T04:06:37	-0.1	100
148152	2025-12-06T04:16:37	-0.1	100
148153	2025-12-06T04:26:37	0	100
148154	2025-12-06T04:36:37	0.1	100
148155	2025-12-06T04:46:37	0	100
148156	2025-12-06T04:56:37	-0.1	100
148157	2025-12-06T05:06:37	-0.2	100
148158	2025-12-06T05:16:37	0	100
148159	2025-12-06T05:26:37	0	100
148160	2025-12-06T05:36:37	0.2	100
148161	2025-12-06T05:46:37	0.4	100
148162	2025-12-06T05:56:37	0.4	100
148163	2025-12-06T06:06:37	0.4	100
148164	2025-12-06T06:16:37	0.3	100
148165	2025-12-06T06:26:37	0.7	100
148166	2025-12-06T06:36:37	0.8	100
148167	2025-12-06T06:46:38	0.8	100
148168	2025-12-06T06:56:37	1	100
148169	2025-12-06T07:06:37	1	100
148170	2025-12-06T07:16:37	1.2	100
148171	2025-12-06T07:26:37	1.1	100
148172	2025-12-06T07:36:37	1.4	100
148173	2025-12-06T07:46:37	1.4	100
148174	2025-12-06T07:56:37	1.6	100
148175	2025-12-06T08:06:37	1.7	100
148176	2025-12-06T08:16:37	1.8	100
148177	2025-12-06T08:26:37	1.9	100
148178	2025-12-06T08:36:37	2.1	100
148179	2025-12-06T08:46:37	2.5	100
148180	2025-12-06T08:56:37	2.8	100
148181	2025-12-06T09:06:37	3.2	100
148182	2025-12-06T09:16:37	3.3	100
148183	2025-12-06T09:26:37	3.3	100
148184	2025-12-06T09:36:37	3.6	100
148185	2025-12-06T09:46:37	3.8	100
148186	2025-12-06T09:56:37	3.9	100
148187	2025-12-06T10:06:37	4.3	100
148188	2025-12-06T10:16:37	4.8	100
148189	2025-12-06T10:26:37	4.9	99.5
148190	2025-12-06T10:36:37	4.8	98.5
148191	2025-12-06T10:46:37	4.9	98
148192	2025-12-06T10:56:37	4.9	98
148193	2025-12-06T11:06:37	5.1	99.5
148194	2025-12-06T11:16:37	5.4	98
148195	2025-12-06T11:26:37	5.7	97.5
148196	2025-12-06T11:36:37	6	97
148197	2025-12-06T11:46:37	6.1	97.5
148198	2025-12-06T11:56:37	6.2	98.5
148199	2025-12-06T12:06:37	6.7	98.5
148200	2025-12-06T12:16:37	7	97
148201	2025-12-06T12:26:37	7.1	97
148202	2025-12-06T12:36:37	6.9	97.5
148203	2025-12-06T12:46:37	7.1	97.5
148204	2025-12-06T12:56:37	7	100
148205	2025-12-06T13:06:37	7.1	100
148206	2025-12-06T13:16:37	7.3	100
148207	2025-12-06T13:26:37	7.5	100
148208	2025-12-06T13:36:37	7.8	100
148209	2025-12-06T13:46:37	8	100
148210	2025-12-06T13:56:37	7.8	100
148211	2025-12-06T14:06:37	8	100
148212	2025-12-06T14:16:37	8.1	100
148213	2025-12-06T14:26:37	8.2	100
148214	2025-12-06T14:36:37	8.3	100
148215	2025-12-06T14:46:37	8.4	99.5
148216	2025-12-06T14:56:37	8.5	99
148217	2025-12-06T15:06:37	8.4	98
148218	2025-12-06T15:16:37	8.9	95.5
148219	2025-12-06T15:26:37	9.1	94
148220	2025-12-06T15:36:37	9.3	91.5
148221	2025-12-06T15:46:37	9.6	89.5
148222	2025-12-06T15:56:37	9.4	95.5
148223	2025-12-06T16:06:37	9.6	93
148224	2025-12-06T16:16:37	9.1	97.5
148225	2025-12-06T16:26:37	9.4	91
148226	2025-12-06T16:36:37	9.5	91.5
148227	2025-12-06T16:46:37	8.8	99.5
148228	2025-12-06T16:56:37	8.7	100
148229	2025-12-06T17:06:37	8.5	100
148230	2025-12-06T17:16:37	9	100
148231	2025-12-06T17:26:37	9.5	95
148232	2025-12-06T17:36:37	9.5	95
148233	2025-12-06T17:46:37	9.6	95
148234	2025-12-06T17:56:37	9.4	95.5
148235	2025-12-06T18:06:37	9.1	95
148236	2025-12-06T18:16:37	9	94.5
148237	2025-12-06T18:26:37	9.1	93.5
148238	2025-12-06T18:36:37	9.5	91.5
148239	2025-12-06T18:46:37	9.5	91
148240	2025-12-06T18:56:37	9.7	89.5
148241	2025-12-06T19:06:37	9.6	89.5
148242	2025-12-06T19:16:37	9.8	88.5
148243	2025-12-06T19:26:37	9.9	87.5
148244	2025-12-06T19:36:37	10.1	87
148245	2025-12-06T19:46:37	10.1	87
148246	2025-12-06T19:56:37	10	87.5
148247	2025-12-06T20:06:37	10.2	87
148248	2025-12-06T20:16:56	10.2	87.5
148249	2025-12-06T20:26:37	9.7	90.5
148250	2025-12-06T20:36:37	9.2	100
148251	2025-12-06T20:46:37	8.8	100
148252	2025-12-06T20:56:37	8.9	100
148253	2025-12-06T21:06:37	9.1	100
148254	2025-12-06T21:16:37	9.2	100
148255	2025-12-06T21:26:37	9.2	100
148256	2025-12-06T21:36:37	9.2	100
148257	2025-12-06T21:46:37	8.7	100
148258	2025-12-06T21:56:37	8.5	100
148259	2025-12-06T22:06:37	8.4	100
148260	2025-12-06T22:16:37	8.5	100
148261	2025-12-06T22:26:36	8.4	100
148262	2025-12-06T22:36:36	8.4	100
148263	2025-12-06T22:46:36	8.5	100
148264	2025-12-06T22:56:36	8.5	100
148265	2025-12-06T23:06:36	8.5	100
148266	2025-12-06T23:16:36	8.3	100
148267	2025-12-06T23:26:36	8.3	100
148268	2025-12-06T23:36:36	8.3	100
148269	2025-12-06T23:46:36	8.2	100
148270	2025-12-06T23:56:36	8.2	100
148271	2025-12-07T00:06:36	8.3	100
148272	2025-12-07T00:16:36	8.4	100
148273	2025-12-07T00:26:36	8.5	100
148274	2025-12-07T00:36:36	8.5	100
148275	2025-12-07T00:46:36	8.6	100
148276	2025-12-07T00:56:36	8.6	100
148277	2025-12-07T01:06:36	8.7	100
148278	2025-12-07T01:16:36	8.6	100
148279	2025-12-07T01:26:36	8.6	100
148280	2025-12-07T01:36:36	8.6	99.5
148281	2025-12-07T01:46:36	8.7	99
148282	2025-12-07T01:56:36	8.7	98
148283	2025-12-07T02:06:36	8.6	97.5
148284	2025-12-07T02:16:36	8.6	97
148285	2025-12-07T02:26:36	8.6	97
148286	2025-12-07T02:36:36	8.7	97
148287	2025-12-07T02:46:36	8.7	97
148288	2025-12-07T02:56:36	8.7	97
148289	2025-12-07T03:06:36	8.7	97
148290	2025-12-07T03:16:36	8.6	97
148291	2025-12-07T03:26:36	8.6	97
148292	2025-12-07T03:36:36	8.6	97
148293	2025-12-07T03:46:36	8.7	97
148294	2025-12-07T03:56:36	8.7	97
148295	2025-12-07T04:06:36	8.6	97
148296	2025-12-07T04:16:36	8.7	97
148297	2025-12-07T04:26:36	8.7	97
148298	2025-12-07T04:36:36	8.6	97
148299	2025-12-07T04:46:36	8.6	97
148300	2025-12-07T04:56:36	8.7	97
148301	2025-12-07T05:06:36	8.7	97
148302	2025-12-07T05:16:36	8.7	97
148303	2025-12-07T05:26:36	8.7	97
148304	2025-12-07T05:36:36	8.6	97
148305	2025-12-07T05:46:36	8.5	97
148306	2025-12-07T05:56:36	8.5	97
148307	2025-12-07T06:06:36	8.7	97
148308	2025-12-07T06:16:36	9	97
148309	2025-12-07T06:26:36	9.2	97
148310	2025-12-07T06:36:36	9.2	97
148311	2025-12-07T06:46:36	9.4	97
148312	2025-12-07T06:56:36	9.4	97
148313	2025-12-07T07:06:36	9.6	97
148314	2025-12-07T07:16:36	9.6	97
148315	2025-12-07T07:26:36	9.6	97
148316	2025-12-07T07:36:36	9.6	97
148317	2025-12-07T07:46:36	9.8	97
148318	2025-12-07T07:56:36	9.8	97
148319	2025-12-07T08:06:36	9.8	97
148320	2025-12-07T08:16:36	9.8	97
148321	2025-12-07T08:26:36	10	97
148322	2025-12-07T08:36:36	10.2	97
148323	2025-12-07T08:46:36	10.2	97
148324	2025-12-07T08:56:36	10.5	97
148325	2025-12-07T09:06:36	10.4	97
148326	2025-12-07T09:16:36	10.6	97
148327	2025-12-07T09:26:36	10.7	97.5
148328	2025-12-07T09:36:36	11	97.5
148329	2025-12-07T09:46:36	11.2	97
148330	2025-12-07T09:56:36	11.3	97
148331	2025-12-07T10:06:36	11.5	97
148332	2025-12-07T10:16:36	11.5	97
148333	2025-12-07T10:26:36	11.5	97.5
148334	2025-12-07T10:36:36	11.6	97.5
148335	2025-12-07T10:46:36	11.6	97.5
148336	2025-12-07T10:56:36	11.8	97.5
148337	2025-12-07T11:06:36	11.8	97.5
148338	2025-12-07T11:16:36	11.9	97.5
148339	2025-12-07T11:26:36	11.8	97.5
148340	2025-12-07T11:36:36	11.8	97
148341	2025-12-07T11:46:36	11.9	97
148342	2025-12-07T11:56:36	11.9	97.5
148343	2025-12-07T12:06:36	12	97
148344	2025-12-07T12:16:36	12.1	97.5
148345	2025-12-07T12:26:36	12.5	97
148346	2025-12-07T12:36:36	12.4	97.5
148347	2025-12-07T12:46:36	12.5	97.5
148348	2025-12-07T12:56:36	12.5	97.5
148349	2025-12-07T13:06:36	12.6	97.5
148350	2025-12-07T13:16:36	12.4	97.5
148351	2025-12-07T13:26:36	12	97
148352	2025-12-07T13:36:36	11.8	97.5
148353	2025-12-07T13:46:36	11.7	97.5
148354	2025-12-07T13:56:36	11.6	97.5
148355	2025-12-07T14:06:36	11.5	97.5
148356	2025-12-07T14:16:36	11.8	97.5
148357	2025-12-07T14:26:36	11.6	97.5
148358	2025-12-07T14:36:36	11.5	97
148359	2025-12-07T14:46:36	11.5	97.5
148360	2025-12-07T14:56:36	11.4	97.5
148361	2025-12-07T15:06:35	11.3	97.5
148362	2025-12-07T15:16:35	11.3	97.5
148363	2025-12-07T15:26:35	11.1	97.5
148364	2025-12-07T15:36:35	11.1	97.5
148365	2025-12-07T15:46:35	11.1	97.5
148366	2025-12-07T15:56:35	11	97.5
148367	2025-12-07T16:06:35	10.8	97.5
148368	2025-12-07T16:16:35	10.9	97
148369	2025-12-07T16:26:35	10.8	97.5
148370	2025-12-07T16:36:35	10.8	97.5
148371	2025-12-07T16:46:35	10.8	97.5
148372	2025-12-07T16:56:35	10.7	97.5
148373	2025-12-07T17:06:35	10.8	97.5
148374	2025-12-07T17:16:35	10.8	97.5
148375	2025-12-07T17:26:35	10.7	97.5
148376	2025-12-07T17:36:35	10.8	97.5
148377	2025-12-07T17:46:35	10.8	97.5
148378	2025-12-07T17:56:35	10.7	97.5
148379	2025-12-07T18:06:35	10.8	97.5
148380	2025-12-07T18:16:35	10.8	97.5
148381	2025-12-07T18:26:35	10.9	97.5
148382	2025-12-07T18:36:35	11	97
148383	2025-12-07T18:46:35	11.1	97.5
148384	2025-12-07T18:56:35	11.3	97.5
148385	2025-12-07T19:06:35	11.2	97.5
148386	2025-12-07T19:16:35	11.4	97.5
148387	2025-12-07T19:26:35	11.6	97.5
148388	2025-12-07T19:36:35	11.7	97.5
148389	2025-12-07T19:46:35	11.9	97.5
148390	2025-12-07T19:56:35	11.9	97.5
148391	2025-12-07T20:06:35	12	97.5
148392	2025-12-07T20:16:35	12	97.5
148393	2025-12-07T20:26:35	12	97.5
148394	2025-12-07T20:36:35	12.2	97.5
148395	2025-12-07T20:46:35	12.1	97.5
148396	2025-12-07T20:56:35	12	97
148397	2025-12-07T21:06:35	12.2	97.5
148398	2025-12-07T21:16:35	12.1	97.5
148399	2025-12-07T21:26:35	12.2	97.5
148400	2025-12-07T21:36:35	12.2	97.5
148401	2025-12-07T21:46:35	12.2	97.5
148402	2025-12-07T21:56:35	12.3	97.5
148403	2025-12-07T22:06:35	12.4	97.5
148404	2025-12-07T22:16:35	12.6	97.5
148405	2025-12-07T22:26:35	12.5	97.5
148406	2025-12-07T22:36:35	12.5	97.5
148407	2025-12-07T22:46:35	12.5	97.5
148408	2025-12-07T22:56:35	12.7	97.5
148409	2025-12-07T23:06:35	12.7	97.5
148410	2025-12-07T23:16:35	12.8	97.5
148411	2025-12-07T23:26:35	12.9	97.5
148412	2025-12-07T23:36:35	13.1	97.5
148413	2025-12-07T23:46:35	13	97.5
148414	2025-12-07T23:56:35	13	97.5
148415	2025-12-08T00:06:35	13	97.5
148416	2025-12-08T00:16:35	13	97.5
148417	2025-12-08T00:26:35	13	97.5
148418	2025-12-08T00:36:35	13.1	97.5
148419	2025-12-08T00:46:35	13.3	97.5
148420	2025-12-08T00:56:35	13.2	97.5
148421	2025-12-08T01:06:54	13.1	97.5
148422	2025-12-08T01:16:35	13.2	97.5
148423	2025-12-08T01:26:35	13.3	98
148424	2025-12-08T01:36:35	13.3	98
148425	2025-12-08T01:46:35	13.2	98
148426	2025-12-08T01:56:35	13.2	98
148427	2025-12-08T02:06:35	13.3	98
148428	2025-12-08T02:16:35	13.4	98
148429	2025-12-08T02:26:35	13.5	98
148430	2025-12-08T02:36:35	13.6	98
148431	2025-12-08T02:46:35	13.6	98
148432	2025-12-08T02:56:35	13.5	98
148433	2025-12-08T03:06:35	13.5	98
148434	2025-12-08T03:16:35	13.6	98
148435	2025-12-08T03:26:35	13.7	98
148436	2025-12-08T03:36:35	13.8	98
148437	2025-12-08T03:46:35	13.7	98
148438	2025-12-08T03:56:35	13.8	98
148439	2025-12-08T04:06:35	13.9	98
148440	2025-12-08T04:16:35	13.9	98
148441	2025-12-08T04:26:35	13.9	98
148442	2025-12-08T04:36:35	13.5	98
148443	2025-12-08T04:46:35	12.7	98
148444	2025-12-08T04:56:35	12.7	98
148445	2025-12-08T05:06:35	12.7	98
148446	2025-12-08T05:16:34	12.8	98
148447	2025-12-08T05:26:34	12.7	98
148448	2025-12-08T05:36:34	12.6	98
148449	2025-12-08T05:46:34	12.4	98
148450	2025-12-08T05:56:34	12.5	98
148451	2025-12-08T06:06:34	12.4	98
148452	2025-12-08T06:16:34	12.5	98
148453	2025-12-08T06:26:34	12.8	98
148454	2025-12-08T06:36:34	12.9	98
148455	2025-12-08T06:46:34	13	98
148456	2025-12-08T06:56:34	13	98
148457	2025-12-08T07:06:34	13.1	98
148458	2025-12-08T07:16:34	13.2	98
148459	2025-12-08T07:26:34	13.3	98
148460	2025-12-08T07:36:34	13.4	98
148461	2025-12-08T07:46:34	13.4	98
148462	2025-12-08T07:56:34	13.4	98
148463	2025-12-08T08:06:34	13.5	98
148464	2025-12-08T08:16:34	13.4	98
148465	2025-12-08T08:26:34	13.6	98
148466	2025-12-08T08:36:34	13.6	98
148467	2025-12-08T08:46:34	13.8	98
148468	2025-12-08T08:56:34	13.8	98
148469	2025-12-08T09:06:34	14	98
148470	2025-12-08T09:16:34	14	98
148471	2025-12-08T09:26:34	14.1	98
148472	2025-12-08T09:36:34	14.2	98
148473	2025-12-08T09:46:34	14.4	98
148474	2025-12-08T09:56:34	14.6	100
148475	2025-12-08T10:06:34	14.5	100
148476	2025-12-08T10:16:34	14.6	100
148477	2025-12-08T10:26:34	14.8	100
148478	2025-12-08T10:36:34	14.9	100
148479	2025-12-08T10:46:34	14.8	100
148480	2025-12-08T10:56:34	14.8	100
148481	2025-12-08T11:06:34	14.8	100
148482	2025-12-08T11:16:34	14.8	100
148483	2025-12-08T11:26:34	14.9	100
148484	2025-12-08T11:36:34	15.2	100
148485	2025-12-08T11:46:34	15.2	100
148486	2025-12-08T11:56:34	15.1	98.5
148487	2025-12-08T12:06:34	15.3	90.5
148488	2025-12-08T12:16:34	15.3	89
148489	2025-12-08T12:26:34	15.5	88.5
148490	2025-12-08T12:36:34	15.7	88
148491	2025-12-08T12:46:34	16	86.5
148492	2025-12-08T12:56:34	16.1	86
148493	2025-12-08T13:06:34	16.1	85
148494	2025-12-08T13:16:34	16.1	85
148495	2025-12-08T13:26:34	16.1	85
148496	2025-12-08T13:36:34	15.8	85.5
148497	2025-12-08T13:46:34	15.6	86.5
148498	2025-12-08T13:56:34	15.7	87
148499	2025-12-08T14:06:34	15.6	87.5
148500	2025-12-08T14:16:34	15.5	88
148501	2025-12-08T14:26:34	15.2	89
148502	2025-12-08T14:36:34	15.3	89
148503	2025-12-08T14:46:34	15.1	90
148504	2025-12-08T14:56:34	14.9	89.5
148505	2025-12-08T15:06:34	14.9	89.5
148506	2025-12-08T15:16:34	15	89.5
148507	2025-12-08T15:26:34	14.6	92.5
148508	2025-12-08T15:36:34	14.4	92
148509	2025-12-08T15:46:34	14.4	91.5
148510	2025-12-08T15:56:34	14.3	92
148511	2025-12-08T16:06:34	14.4	92
148512	2025-12-08T16:16:34	14.4	92.5
148513	2025-12-08T16:26:34	14.3	92.5
148514	2025-12-08T16:36:34	14.4	91.5
148515	2025-12-08T16:46:34	14	92.5
148516	2025-12-08T16:56:34	13.5	94
148517	2025-12-08T17:06:34	13.4	94
148518	2025-12-08T17:16:34	13.5	94
148519	2025-12-08T17:26:34	13.7	93
148520	2025-12-08T17:36:34	13.7	92
148521	2025-12-08T17:46:34	13.9	91.5
148522	2025-12-08T17:56:34	13.9	91
148523	2025-12-08T18:06:34	13.8	91
148524	2025-12-08T18:16:34	13.7	91.5
148525	2025-12-08T18:26:33	13.4	92
148526	2025-12-08T18:36:33	13.4	92.5
148527	2025-12-08T18:46:33	13.2	92.5
148528	2025-12-08T18:56:33	13.2	93
148529	2025-12-08T19:06:33	12.8	93.5
148530	2025-12-08T19:16:33	12.9	93.5
148531	2025-12-08T19:26:33	12.8	93.5
148532	2025-12-08T19:36:33	12.8	93.5
148533	2025-12-08T19:46:33	12.8	93.5
148534	2025-12-08T19:56:33	12.7	93.5
148535	2025-12-08T20:06:33	12.6	94
148536	2025-12-08T20:16:33	12.3	94.5
148537	2025-12-08T20:26:33	12.2	95.5
148538	2025-12-08T20:36:33	12.1	95.5
148539	2025-12-08T20:46:33	11.7	96
148540	2025-12-08T20:56:33	11.3	97.5
148541	2025-12-08T21:06:33	10.9	96.5
148542	2025-12-08T21:16:33	10.7	98
148543	2025-12-08T21:26:33	10.5	98
148544	2025-12-08T21:36:33	10.4	97.5
148545	2025-12-08T21:46:33	10.1	98.5
148546	2025-12-08T21:56:33	9.8	98.5
148547	2025-12-08T22:06:33	9.9	99.5
148548	2025-12-08T22:16:33	9.8	99
148549	2025-12-08T22:26:33	9.8	99.5
148550	2025-12-08T22:36:33	9.6	99.5
148551	2025-12-08T22:46:33	9.6	100
148552	2025-12-08T22:56:33	9.6	99.5
148553	2025-12-08T23:06:33	9.5	100
148554	2025-12-08T23:16:33	9.3	99.5
148555	2025-12-08T23:26:33	9.2	100
148556	2025-12-08T23:36:33	9.1	100
148557	2025-12-08T23:46:33	9.2	99.5
148558	2025-12-08T23:56:33	9.4	99
148559	2025-12-09T00:06:33	9.5	98.5
148560	2025-12-09T00:16:33	9.4	100
148561	2025-12-09T00:26:33	9.1	100
148562	2025-12-09T00:36:33	9	100
148563	2025-12-09T00:46:33	8.8	100
148564	2025-12-09T00:56:33	8.7	100
148565	2025-12-09T01:06:33	8.5	100
148566	2025-12-09T01:16:33	8.4	100
148567	2025-12-09T01:26:33	8.2	100
148568	2025-12-09T01:36:33	8.3	100
148569	2025-12-09T01:46:33	8	100
148570	2025-12-09T01:56:33	8	100
148571	2025-12-09T02:06:33	7.9	100
148572	2025-12-09T02:16:33	7.8	100
148573	2025-12-09T02:26:33	7.8	100
148574	2025-12-09T02:36:33	7.9	100
148575	2025-12-09T02:46:33	7.8	100
148576	2025-12-09T02:56:33	7.8	100
148577	2025-12-09T03:06:33	7.8	100
148578	2025-12-09T03:16:33	7.6	100
148579	2025-12-09T03:26:33	7.6	100
148580	2025-12-09T03:36:33	7.4	100
148581	2025-12-09T03:46:33	7.1	100
148582	2025-12-09T03:56:33	7	100
148583	2025-12-09T04:06:33	6.9	100
148584	2025-12-09T04:16:33	6.7	100
148585	2025-12-09T04:26:33	6.6	100
148586	2025-12-09T04:36:33	6.7	100
148587	2025-12-09T04:46:33	6.4	100
148588	2025-12-09T04:56:33	6.2	100
148589	2025-12-09T05:06:33	6.1	100
148590	2025-12-09T05:16:33	6	100
148591	2025-12-09T05:26:33	5.9	100
148592	2025-12-09T05:36:33	5.7	100
148593	2025-12-09T05:46:33	5.6	100
148594	2025-12-09T05:56:33	5.6	100
148595	2025-12-09T06:06:33	5.5	100
148596	2025-12-09T06:16:33	5.5	100
148597	2025-12-09T06:26:33	5.5	100
148598	2025-12-09T06:36:33	5.6	100
148599	2025-12-09T06:46:33	5.4	100
148600	2025-12-09T06:56:33	5.2	100
148601	2025-12-09T07:06:33	5.1	100
148602	2025-12-09T07:16:33	5.1	100
148603	2025-12-09T07:26:33	5.1	100
148604	2025-12-09T07:36:33	5	100
148605	2025-12-09T07:46:33	5.1	100
148606	2025-12-09T07:56:33	5.2	100
148607	2025-12-09T08:06:33	5.3	100
148608	2025-12-09T08:16:33	5.3	100
148609	2025-12-09T08:26:33	5.5	100
148610	2025-12-09T08:36:33	5.6	100
148611	2025-12-09T08:46:33	5.7	100
148612	2025-12-09T08:56:33	6	100
148613	2025-12-09T09:06:33	6.3	100
148614	2025-12-09T09:16:33	6.7	100
148615	2025-12-09T09:26:33	6.8	100
148616	2025-12-09T09:36:33	7.1	100
148617	2025-12-09T09:46:33	7.4	100
148618	2025-12-09T09:56:33	7.6	100
148619	2025-12-09T10:06:33	8	100
148620	2025-12-09T10:16:33	8.4	100
148621	2025-12-09T10:26:33	8.7	100
148622	2025-12-09T11:06:33	10.9	97.5
148623	2025-12-09T11:16:33	11.2	95.5
148624	2025-12-09T11:26:33	11.7	94
148625	2025-12-09T11:36:33	12.5	93
148626	2025-12-09T11:46:33	13.9	87.5
148627	2025-12-09T11:56:33	15.3	84
148628	2025-12-09T12:06:33	16.3	81
148629	2025-12-09T12:16:33	17.4	76
148630	2025-12-09T12:26:33	18.3	74
148631	2025-12-09T12:36:32	19.6	69.5
148632	2025-12-09T12:46:32	20.7	67.5
148633	2025-12-09T12:56:32	21.2	64.5
148634	2025-12-09T13:06:32	21.7	62
148635	2025-12-09T13:16:32	21.4	62
148636	2025-12-09T13:26:32	22.4	61
148637	2025-12-09T13:36:32	22.3	61
148638	2025-12-09T13:46:32	21.9	60
148639	2025-12-09T13:56:32	21.3	61.5
148640	2025-12-09T14:06:32	21.6	61
148641	2025-12-09T14:16:32	21.3	63.5
148642	2025-12-09T14:26:32	20.5	64
148643	2025-12-09T14:36:32	19.6	67
148644	2025-12-09T14:46:32	18.2	70.5
148645	2025-12-09T14:56:32	17.1	73.5
148646	2025-12-09T15:06:32	16.4	77.5
148647	2025-12-09T15:16:32	15.4	79
148648	2025-12-09T15:26:32	14.7	80.5
148649	2025-12-09T15:36:32	14.2	82
148650	2025-12-09T15:46:32	13.6	81.5
148651	2025-12-09T15:56:32	13.1	83
148652	2025-12-09T16:06:32	12.7	83.5
148653	2025-12-09T16:16:32	12.4	83.5
148654	2025-12-09T16:26:32	11.9	84.5
148655	2025-12-09T16:36:32	11.7	85
148656	2025-12-09T16:46:32	11.4	85.5
148657	2025-12-09T16:56:32	11.1	85.5
148658	2025-12-09T17:06:32	10.9	86.5
148659	2025-12-09T17:16:32	10.5	86
148660	2025-12-09T17:26:32	10.3	87
148661	2025-12-09T17:36:32	10	88
148662	2025-12-09T17:46:32	9.8	88
148663	2025-12-09T17:56:32	9.6	88.5
148664	2025-12-09T18:06:32	9.4	88.5
148665	2025-12-09T18:16:32	9.1	89.5
148666	2025-12-09T18:26:32	8.9	89.5
148667	2025-12-09T18:36:32	8.7	89.5
148668	2025-12-09T18:46:32	8.4	90
148669	2025-12-09T18:56:32	8.3	90.5
148670	2025-12-09T19:06:32	8.1	90
148671	2025-12-09T19:16:32	7.9	90.5
148672	2025-12-09T19:26:32	7.8	91
148673	2025-12-09T19:36:32	7.6	91.5
148674	2025-12-09T19:46:32	7.4	91.5
148675	2025-12-09T19:56:32	7.2	93
148676	2025-12-09T20:06:32	7.1	91.5
148677	2025-12-09T20:16:32	6.9	90.5
148678	2025-12-09T20:26:32	6.8	93
148679	2025-12-09T20:36:32	6.5	93.5
148680	2025-12-09T20:46:32	6.3	93.5
148681	2025-12-09T20:56:32	6.1	93
148682	2025-12-09T21:06:32	6.2	94.5
148683	2025-12-09T21:16:32	6.1	95
148684	2025-12-09T21:26:32	6	93.5
148685	2025-12-09T21:36:32	5.8	94
148686	2025-12-09T21:46:32	5.6	94.5
148687	2025-12-09T21:56:32	5.4	95
148688	2025-12-09T22:06:32	5.4	95.5
148689	2025-12-09T22:16:32	5.3	95
148690	2025-12-09T22:26:32	5.2	95.5
148691	2025-12-09T22:36:32	4.9	95
148692	2025-12-09T22:46:32	4.9	95.5
148693	2025-12-09T22:56:32	4.8	95.5
148694	2025-12-09T23:06:32	4.7	96
148695	2025-12-09T23:16:32	4.5	96
148696	2025-12-09T23:26:32	4.5	96
148697	2025-12-09T23:36:32	4.4	96.5
148698	2025-12-09T23:46:32	4.4	96.5
148699	2025-12-09T23:56:32	4.3	97
148700	2025-12-10T00:06:32	4.2	96.5
148701	2025-12-10T00:16:32	4.1	96.5
148702	2025-12-10T00:26:32	4.1	97
148703	2025-12-10T00:36:32	4	97.5
148704	2025-12-10T00:46:32	3.9	98
148705	2025-12-10T00:56:32	4	98
148706	2025-12-10T01:06:32	3.9	98.5
148707	2025-12-10T01:16:32	3.8	98
148708	2025-12-10T01:26:32	3.7	98
148709	2025-12-10T01:36:32	3.7	98.5
148710	2025-12-10T01:46:32	3.6	98
148711	2025-12-10T01:56:32	3.7	98.5
148712	2025-12-10T02:06:32	3.5	98.5
148713	2025-12-10T02:16:32	3.6	98
148714	2025-12-10T02:26:32	3.8	98
148715	2025-12-10T02:36:32	3.9	98
148716	2025-12-10T02:46:32	3.7	98.5
148717	2025-12-10T02:56:32	3.7	98.5
148718	2025-12-10T03:06:32	3.7	99
148719	2025-12-10T03:16:32	3.7	99
148720	2025-12-10T03:26:32	4.1	99
148721	2025-12-10T03:36:32	4.3	97.5
148722	2025-12-10T03:46:32	4.1	98
148723	2025-12-10T03:56:32	4.2	98.5
148724	2025-12-10T04:06:32	4.1	99
148725	2025-12-10T04:16:32	4.1	99
148726	2025-12-10T04:26:32	3.9	99.5
148727	2025-12-10T04:36:32	3.8	100
148728	2025-12-10T04:46:32	3.8	100
148729	2025-12-10T04:56:32	4.1	100
148730	2025-12-10T05:06:32	4.1	100
148731	2025-12-10T05:16:32	4	100
148732	2025-12-10T05:26:32	4.2	100
148733	2025-12-10T05:36:32	4.5	100
148734	2025-12-10T05:46:32	4.5	100
148735	2025-12-10T05:56:32	4.5	100
148736	2025-12-10T06:06:32	4.7	100
148737	2025-12-10T06:16:32	4.7	100
148738	2025-12-10T06:26:32	4.9	100
148739	2025-12-10T06:36:32	4.8	100
148740	2025-12-10T06:46:32	4.7	100
148741	2025-12-10T06:56:32	4.8	100
148742	2025-12-10T07:06:32	4.8	100
148743	2025-12-10T07:16:32	5.1	100
148744	2025-12-10T07:26:32	5.3	100
148745	2025-12-10T07:36:32	5.3	100
148746	2025-12-10T07:46:32	5.5	100
148747	2025-12-10T07:56:32	5.8	100
148748	2025-12-10T08:06:32	5.9	100
148749	2025-12-10T08:16:32	6.2	100
148750	2025-12-10T08:26:32	6.3	100
148751	2025-12-10T08:36:32	6.6	100
148752	2025-12-10T08:46:32	6.8	100
148753	2025-12-10T08:56:32	7	100
148754	2025-12-10T09:06:32	7	100
148755	2025-12-10T09:16:32	7.3	100
148756	2025-12-10T09:26:32	7.4	100
148757	2025-12-10T09:36:31	7.6	100
148758	2025-12-10T09:46:31	8.2	98.5
148759	2025-12-10T09:56:31	8.3	100
148760	2025-12-10T10:06:31	8.4	100
148761	2025-12-10T10:16:31	8.6	99
148762	2025-12-10T10:26:31	8.8	96.5
148763	2025-12-10T10:36:31	9.2	95.5
148764	2025-12-10T10:46:31	9.3	94.5
148765	2025-12-10T10:56:31	9.3	94.5
148766	2025-12-10T11:06:31	9.4	96
148767	2025-12-10T11:16:31	9.5	95.5
148768	2025-12-10T11:26:31	9.6	95.5
148769	2025-12-10T11:36:31	9.6	95
148770	2025-12-10T11:46:31	9.8	94.5
148771	2025-12-10T11:56:31	9.9	94
148772	2025-12-10T12:06:31	9.8	95.5
148773	2025-12-10T12:16:31	9.8	97
148774	2025-12-10T12:26:31	9.6	99
148775	2025-12-10T12:36:31	9.5	100
148776	2025-12-10T12:46:31	9.5	100
148777	2025-12-10T12:56:31	9.4	100
148778	2025-12-10T13:06:31	9.3	100
148779	2025-12-10T13:16:31	9.5	100
148780	2025-12-10T13:26:31	9.5	100
148781	2025-12-10T13:36:31	9.5	100
148782	2025-12-10T13:46:31	9.6	100
148783	2025-12-10T13:56:31	9.7	100
148784	2025-12-10T14:06:31	9.8	100
148785	2025-12-10T14:16:31	9.9	100
148786	2025-12-10T14:26:31	10.1	100
148787	2025-12-10T14:36:31	10.2	100
148788	2025-12-10T14:46:31	10.2	100
148789	2025-12-10T14:56:31	10.2	100
148790	2025-12-10T15:06:31	10.2	100
148791	2025-12-10T15:16:31	10.3	100
148792	2025-12-10T15:26:31	10.3	100
148793	2025-12-10T15:36:31	10.3	100
148794	2025-12-10T15:46:31	10.3	100
148795	2025-12-10T15:56:31	10.2	100
148796	2025-12-10T16:06:31	10.3	100
148797	2025-12-10T16:16:31	10.3	100
148798	2025-12-10T16:26:31	10.3	100
148799	2025-12-10T16:36:31	10.3	100
148800	2025-12-10T16:46:31	10.3	100
148801	2025-12-10T16:56:31	10.3	100
148802	2025-12-10T17:06:31	10.2	100
148803	2025-12-10T17:16:31	10.2	100
148804	2025-12-10T17:26:31	10.1	100
148805	2025-12-10T17:36:31	10.2	100
148806	2025-12-10T17:46:31	10.2	100
148807	2025-12-10T17:56:31	10.1	100
148808	2025-12-10T18:06:31	10.2	100
148809	2025-12-10T18:16:31	10.2	100
148810	2025-12-10T18:26:31	10.2	100
148811	2025-12-10T18:36:31	10.2	100
148812	2025-12-10T18:46:31	10.2	100
148813	2025-12-10T18:56:31	10.3	100
148814	2025-12-10T19:06:31	10.2	100
148815	2025-12-10T19:16:31	10.2	100
148816	2025-12-10T19:26:31	10.3	100
148817	2025-12-10T19:36:31	10.4	100
148818	2025-12-10T19:46:31	10.2	100
148819	2025-12-10T19:56:31	10.3	100
148820	2025-12-10T20:06:31	10.3	100
148821	2025-12-10T20:16:31	10.2	100
148822	2025-12-10T20:26:31	10.1	100
148823	2025-12-10T20:36:31	10.1	100
148824	2025-12-10T20:46:31	10.1	100
148825	2025-12-10T20:56:31	10.1	100
148826	2025-12-10T21:06:31	10.1	100
148827	2025-12-10T21:16:31	10	100
148828	2025-12-10T21:26:31	10.1	100
148829	2025-12-10T21:36:31	10	100
148830	2025-12-10T21:46:31	9.9	100
148831	2025-12-10T21:56:31	10	100
148832	2025-12-10T22:06:31	9.9	100
148833	2025-12-10T22:16:31	10	100
148834	2025-12-10T22:26:31	9.9	100
148835	2025-12-10T22:36:31	9.7	100
148836	2025-12-10T22:46:31	9.8	100
148837	2025-12-10T22:56:31	9.8	100
148838	2025-12-10T23:06:31	9.6	100
148839	2025-12-10T23:16:31	9.6	100
148840	2025-12-10T23:26:31	9.4	100
148841	2025-12-10T23:36:31	9.6	100
148842	2025-12-10T23:46:31	9.6	100
148843	2025-12-10T23:56:31	9.7	100
148844	2025-12-11T00:06:31	9.5	100
148845	2025-12-11T00:16:31	9.6	100
148846	2025-12-11T00:26:31	9.5	100
148847	2025-12-11T00:36:31	9.6	100
148848	2025-12-11T00:46:31	9.7	100
148849	2025-12-11T00:56:31	9.7	100
148850	2025-12-11T01:06:31	9.6	100
148851	2025-12-11T01:16:31	9.7	100
148852	2025-12-11T01:26:31	9.6	100
148853	2025-12-11T01:36:31	9.6	100
148854	2025-12-11T01:46:31	9.7	100
148855	2025-12-11T01:56:31	9.6	100
148856	2025-12-11T02:06:30	9.7	100
148857	2025-12-11T02:16:30	9.6	100
148858	2025-12-11T02:26:30	9.8	100
148859	2025-12-11T02:36:30	9.7	100
148860	2025-12-11T02:46:30	9.7	100
148861	2025-12-11T02:56:30	9.8	100
148862	2025-12-11T03:06:30	9.7	100
148863	2025-12-11T03:16:30	9.6	100
148864	2025-12-11T03:26:30	9.7	100
148865	2025-12-11T03:36:30	9.6	100
148866	2025-12-11T03:46:30	9.6	100
148867	2025-12-11T03:56:30	9.6	100
148868	2025-12-11T04:06:30	9.6	100
148869	2025-12-11T04:16:30	9.7	100
148870	2025-12-11T04:26:30	9.6	100
148871	2025-12-11T04:36:30	9.6	100
148872	2025-12-11T04:46:30	9.7	100
148873	2025-12-11T04:56:30	9.7	100
148874	2025-12-11T05:06:30	9.6	100
148875	2025-12-11T05:16:30	9.7	100
148876	2025-12-11T05:26:30	9.5	100
148877	2025-12-11T05:36:30	9.4	100
148878	2025-12-11T05:46:30	9.4	100
148879	2025-12-11T05:56:30	9.5	100
148880	2025-12-11T06:06:30	9.4	100
148881	2025-12-11T06:16:30	9.4	100
148882	2025-12-11T06:26:30	9.3	100
148883	2025-12-11T06:36:30	9.4	100
148884	2025-12-11T06:46:30	9.2	100
148885	2025-12-11T06:56:30	9.2	100
148886	2025-12-11T07:06:30	9.2	100
148887	2025-12-11T07:16:30	8.8	100
148888	2025-12-11T07:26:30	8.4	100
148889	2025-12-11T07:36:30	8.2	100
148890	2025-12-11T07:46:30	8	100
148891	2025-12-11T07:56:30	7.8	100
148892	2025-12-11T08:06:30	7.7	100
148893	2025-12-11T08:16:30	7.7	100
148894	2025-12-11T08:26:30	7.6	100
148895	2025-12-11T08:36:30	7.8	100
148896	2025-12-11T08:46:30	8.1	100
148897	2025-12-11T08:56:30	8.7	100
148898	2025-12-11T09:06:30	8.9	100
148899	2025-12-11T09:16:30	9	100
148900	2025-12-11T09:26:30	9.2	100
148901	2025-12-11T09:36:30	9.3	100
148902	2025-12-11T09:46:30	9.4	100
148903	2025-12-11T09:56:30	9.5	100
148904	2025-12-11T10:06:30	9.7	100
148905	2025-12-11T10:16:30	9.9	100
148906	2025-12-11T10:26:30	10.6	100
148907	2025-12-11T10:36:30	10.8	100
148908	2025-12-11T10:46:30	11.2	100
148909	2025-12-11T10:56:30	11.6	100
148910	2025-12-11T11:06:30	11.8	100
148911	2025-12-11T11:16:30	11.9	100
148912	2025-12-11T11:26:30	12	100
148913	2025-12-11T11:36:30	12	100
148914	2025-12-11T11:46:30	12.3	100
148915	2025-12-11T11:56:30	12.4	100
148916	2025-12-11T12:06:30	12.5	100
148917	2025-12-11T12:16:30	12.7	100
148918	2025-12-11T12:26:30	12.7	100
148919	2025-12-11T12:36:30	12.9	100
148920	2025-12-11T12:46:30	12.8	100
148921	2025-12-11T12:56:30	12.8	100
148922	2025-12-11T13:06:30	13.3	100
148923	2025-12-11T13:16:30	15.1	100
148924	2025-12-11T13:26:30	14.7	100
148925	2025-12-11T13:36:30	13.9	100
148926	2025-12-11T13:46:52	13.3	100
148927	2025-12-11T13:56:30	13.1	100
148928	2025-12-11T14:06:30	12.8	100
148929	2025-12-11T14:16:30	12.5	100
148930	2025-12-11T14:26:30	12.7	99
148931	2025-12-11T14:36:30	13.7	96.5
148932	2025-12-11T14:46:30	12.9	95
148933	2025-12-11T14:56:30	12	99.5
148934	2025-12-11T15:06:30	11.3	99.5
148935	2025-12-11T15:16:30	10.7	100
148936	2025-12-11T15:26:30	10.4	100
148937	2025-12-11T15:36:30	10.1	100
148938	2025-12-11T15:46:30	9.7	100
148939	2025-12-11T15:56:30	9.4	100
148940	2025-12-11T16:06:30	9.1	100
148941	2025-12-11T16:16:30	8.8	100
148942	2025-12-11T16:26:30	8.8	100
148943	2025-12-11T16:36:30	8.6	100
148944	2025-12-11T16:46:30	8.4	100
148945	2025-12-11T16:56:30	8.1	100
148946	2025-12-11T17:06:30	8.1	100
148947	2025-12-11T17:16:30	8.1	100
148948	2025-12-11T17:26:30	7.7	100
148949	2025-12-11T17:36:30	7.5	100
148950	2025-12-11T17:46:30	7.5	100
148951	2025-12-11T17:56:30	7.4	100
148952	2025-12-11T18:06:30	7.2	100
148953	2025-12-11T18:16:30	7.1	100
148954	2025-12-11T18:26:30	7.1	100
148955	2025-12-11T18:36:30	6.8	100
148956	2025-12-11T18:46:30	6.8	100
148957	2025-12-11T18:56:30	6.6	100
148958	2025-12-11T19:06:29	6.5	100
148959	2025-12-11T19:16:29	6.1	100
148960	2025-12-11T19:26:29	6	100
148961	2025-12-11T19:36:29	5.7	100
148962	2025-12-11T19:46:29	5.6	100
148963	2025-12-11T19:56:29	5.4	100
148964	2025-12-11T20:06:29	5.3	100
148965	2025-12-11T20:16:29	5.2	100
148966	2025-12-11T20:26:29	4.9	100
148967	2025-12-11T20:36:29	5	100
148968	2025-12-11T20:46:29	4.7	100
148969	2025-12-11T20:56:29	4.5	100
148970	2025-12-11T21:06:29	4.6	100
148971	2025-12-11T21:16:29	4.6	100
148972	2025-12-11T21:26:29	4.6	100
148973	2025-12-11T21:36:29	4.5	100
148974	2025-12-11T21:46:29	4.3	100
148975	2025-12-11T21:56:29	4.2	100
148976	2025-12-11T22:06:29	3.9	100
148977	2025-12-11T22:16:29	3.9	100
148978	2025-12-11T22:26:29	3.8	100
148979	2025-12-11T22:36:29	3.9	100
148980	2025-12-11T22:46:29	3.9	100
148981	2025-12-11T22:56:29	4	100
148982	2025-12-11T23:06:29	4.4	100
148983	2025-12-11T23:16:29	4.8	100
148984	2025-12-11T23:26:29	4.9	100
148985	2025-12-11T23:36:29	5.1	100
148986	2025-12-11T23:46:29	5.3	100
148987	2025-12-11T23:56:29	5.4	100
148988	2025-12-12T00:06:29	5.6	100
148989	2025-12-12T00:16:29	5.5	100
148990	2025-12-12T00:26:29	5.6	100
148991	2025-12-12T00:36:29	5.5	100
148992	2025-12-12T00:46:29	5.5	100
148993	2025-12-12T00:56:29	5.4	100
148994	2025-12-12T01:06:29	5.4	100
148995	2025-12-12T01:16:29	5.1	100
148996	2025-12-12T01:26:29	4.8	100
148997	2025-12-12T01:36:29	4.6	100
148998	2025-12-12T01:46:29	4.6	100
148999	2025-12-12T01:56:29	4.5	100
149000	2025-12-12T02:06:29	4.5	100
149001	2025-12-12T02:16:29	4.4	100
149002	2025-12-12T02:26:29	4.4	100
149003	2025-12-12T02:36:29	4.5	100
149004	2025-12-12T02:46:29	4.5	100
149005	2025-12-12T02:56:29	4.5	100
149006	2025-12-12T03:06:29	4.5	100
149007	2025-12-12T03:16:29	4.5	100
149008	2025-12-12T03:26:29	4.4	100
149009	2025-12-12T03:36:29	4.6	100
149010	2025-12-12T03:46:29	4.5	100
149011	2025-12-12T03:56:29	4.4	100
149012	2025-12-12T04:06:29	4.3	100
149013	2025-12-12T04:16:29	4.3	100
149014	2025-12-12T04:26:29	4.2	100
149015	2025-12-12T04:36:29	4.2	100
149016	2025-12-12T04:46:29	4	100
149017	2025-12-12T04:56:29	3.9	100
149018	2025-12-12T05:06:29	4	100
149019	2025-12-12T05:16:29	3.7	100
149020	2025-12-12T05:26:29	3.9	100
149021	2025-12-12T05:36:29	3.9	100
149022	2025-12-12T05:46:29	3.8	100
149023	2025-12-12T05:56:29	3.8	100
149024	2025-12-12T06:06:29	3.7	100
149025	2025-12-12T06:16:29	3.6	100
149026	2025-12-12T06:26:29	3.6	100
149027	2025-12-12T06:36:29	3.5	100
149028	2025-12-12T06:46:29	3.4	100
149029	2025-12-12T06:56:29	3.3	100
149030	2025-12-12T07:06:29	3.3	100
149031	2025-12-12T07:16:29	3.2	100
149032	2025-12-12T07:26:29	3.2	100
149033	2025-12-12T07:36:29	3.3	100
149034	2025-12-12T07:46:29	3.5	100
149035	2025-12-12T07:56:29	3.5	100
149036	2025-12-12T08:06:29	3.5	100
149037	2025-12-12T08:16:29	3.5	100
149038	2025-12-12T08:26:29	3.5	100
149039	2025-12-12T08:36:29	3.6	100
149040	2025-12-12T08:46:29	3.9	100
149041	2025-12-12T08:56:29	4	100
149042	2025-12-12T09:06:29	4.4	100
149043	2025-12-12T09:16:29	4.6	100
149044	2025-12-12T09:26:29	4.9	100
149045	2025-12-12T09:36:29	5.3	100
149046	2025-12-12T09:46:29	5.6	100
149047	2025-12-12T09:56:29	5.9	100
149048	2025-12-12T10:06:29	6.1	100
149049	2025-12-12T10:16:29	6.4	100
149050	2025-12-12T10:26:29	6.6	100
149051	2025-12-12T10:36:29	6.8	100
149052	2025-12-12T10:46:29	7.1	100
149053	2025-12-12T10:56:29	7.4	100
149054	2025-12-12T11:06:29	7.8	100
149055	2025-12-12T11:16:29	7.9	100
149056	2025-12-12T11:26:29	8.2	100
149057	2025-12-12T11:36:29	8.8	100
149058	2025-12-12T11:46:29	9.7	100
149059	2025-12-12T11:56:29	10.7	100
149060	2025-12-12T12:06:29	12	98.5
149061	2025-12-12T12:16:29	12.9	97
149062	2025-12-12T12:26:29	13.7	95
149063	2025-12-12T12:36:29	14	93.5
149064	2025-12-12T12:46:29	15.1	92.5
149065	2025-12-12T12:56:29	15.3	89.5
149066	2025-12-12T13:06:29	15.7	83
149067	2025-12-12T13:16:29	16.3	82
149068	2025-12-12T13:26:29	16.2	83.5
149069	2025-12-12T13:36:29	16.5	82
149070	2025-12-12T13:46:29	16.5	82.5
149071	2025-12-12T13:56:29	16.9	81
149072	2025-12-12T14:06:29	17.6	78
149073	2025-12-12T14:16:29	17.5	72
149074	2025-12-12T14:26:29	17.3	72
149075	2025-12-12T14:36:29	15.7	75
149076	2025-12-12T14:46:29	14.5	79.5
149077	2025-12-12T14:56:29	13.2	82.5
149078	2025-12-12T15:06:29	12.7	85
149079	2025-12-12T15:16:29	12.1	88.5
149080	2025-12-12T15:26:29	11.4	89.5
149081	2025-12-12T15:36:29	10.8	90.5
149082	2025-12-12T15:46:29	10.4	90.5
149083	2025-12-12T15:56:29	10	92
149084	2025-12-12T16:06:29	9.7	93
149085	2025-12-12T16:16:50	9.3	94
149086	2025-12-12T16:26:29	9	94.5
149087	2025-12-12T16:36:29	8.8	94.5
149088	2025-12-12T16:46:29	8.5	94.5
149089	2025-12-12T16:56:29	8.3	95.5
149090	2025-12-12T17:06:29	8.1	96.5
149091	2025-12-12T17:16:29	7.9	97
149092	2025-12-12T17:26:29	7.8	98
149093	2025-12-12T17:36:29	7.4	94.5
149094	2025-12-12T17:46:28	7.3	95
149095	2025-12-12T17:56:28	7.1	96
149096	2025-12-12T18:06:28	6.9	97.5
149097	2025-12-12T18:16:28	6.5	96.5
149098	2025-12-12T18:26:28	6.7	96
149099	2025-12-12T18:36:28	6.9	95.5
149100	2025-12-12T18:46:28	6.5	97.5
149101	2025-12-12T18:56:28	6.4	98
149102	2025-12-12T19:06:28	6.2	97
149103	2025-12-12T19:16:28	6.2	98
149104	2025-12-12T19:26:28	6.3	98
149105	2025-12-12T19:36:28	6	98
149106	2025-12-12T19:46:28	6.1	99.5
149107	2025-12-12T19:56:28	6	99.5
149108	2025-12-12T20:06:28	6.2	99.5
149109	2025-12-12T21:28:47	6.2	100
149110	2025-12-12T21:28:47	6.3	100
149111	2025-12-12T21:28:48	6.2	100
149112	2025-12-12T21:28:48	6.3	100
149113	2025-12-12T21:28:48	6.3	100
149114	2025-12-12T21:28:48	6.1	100
149115	2025-12-12T21:28:49	6.2	100
149116	2025-12-12T21:28:49	6.2	100
149117	2025-12-12T21:36:28	6.3	100
149118	2025-12-12T21:46:28	6.3	100
149119	2025-12-12T21:56:28	6.2	100
149120	2025-12-12T22:06:28	6.2	100
149121	2025-12-12T22:16:28	6.1	100
149122	2025-12-12T22:46:28	6.3	100
149123	2025-12-12T22:56:28	6.4	100
149124	2025-12-12T23:06:28	6.4	100
149125	2025-12-12T23:16:28	6.4	100
149126	2025-12-12T23:26:28	6.4	100
149127	2025-12-12T23:36:28	6.2	100
149128	2025-12-12T23:46:28	6.2	100
149129	2025-12-12T23:56:28	6.2	100
149130	2025-12-13T00:06:28	6.2	100
149131	2025-12-13T00:16:28	6.2	100
149132	2025-12-13T00:26:28	6.2	100
149133	2025-12-13T00:36:28	6.2	100
149134	2025-12-13T00:46:28	6.1	100
149135	2025-12-13T00:56:28	6.1	100
149136	2025-12-13T01:06:28	6.1	100
149137	2025-12-13T01:16:28	6	100
149138	2025-12-13T01:26:28	6.1	100
149139	2025-12-13T01:36:28	6.2	100
149140	2025-12-13T01:46:28	6.3	100
149141	2025-12-13T01:56:28	6.2	100
149142	2025-12-13T02:06:28	6.2	100
149143	2025-12-13T02:16:28	6.1	100
149144	2025-12-13T02:26:28	6	100
149145	2025-12-13T02:36:28	6	100
149146	2025-12-13T02:46:28	6.1	100
149147	2025-12-13T02:56:28	5.9	100
149148	2025-12-13T03:06:28	6	100
149149	2025-12-13T03:16:28	5.9	100
149150	2025-12-13T03:26:49	5.9	100
149151	2025-12-13T03:36:28	5.9	100
149152	2025-12-13T03:46:28	5.8	100
149153	2025-12-13T03:56:28	5.9	100
149154	2025-12-13T04:06:28	5.9	100
149155	2025-12-13T04:16:28	5.9	100
149156	2025-12-13T04:26:28	5.9	100
149157	2025-12-13T04:36:28	5.9	100
149158	2025-12-13T04:46:28	5.9	100
149159	2025-12-13T04:56:28	5.8	100
149160	2025-12-13T05:06:28	5.7	100
149161	2025-12-13T05:16:28	5.7	100
149162	2025-12-13T05:26:28	5.9	100
149163	2025-12-13T05:36:28	5.9	100
149164	2025-12-13T05:46:28	5.9	100
149165	2025-12-13T05:56:28	6	100
149166	2025-12-13T06:06:28	6	100
149167	2025-12-13T06:16:28	5.9	100
149168	2025-12-13T06:26:28	6	100
149169	2025-12-13T06:36:28	5.9	100
149170	2025-12-13T06:46:28	6	100
149171	2025-12-13T06:56:28	6	100
149172	2025-12-13T07:06:28	6	100
149173	2025-12-13T07:16:28	5.9	100
149174	2025-12-13T07:26:28	5.9	100
149175	2025-12-13T07:36:28	5.9	100
149176	2025-12-13T07:46:28	6	100
149177	2025-12-13T07:56:28	6	100
149178	2025-12-13T08:06:28	6	100
149179	2025-12-13T08:16:28	6.1	100
149180	2025-12-13T08:26:28	6.1	100
149181	2025-12-13T08:36:28	6.1	100
149182	2025-12-13T08:46:28	6	100
149183	2025-12-13T08:56:28	6.2	100
149184	2025-12-13T09:06:28	6.1	100
149185	2025-12-13T09:16:28	6.2	100
149186	2025-12-13T09:26:28	6.2	100
149187	2025-12-13T09:36:28	6.1	100
149188	2025-12-13T09:46:28	6.2	100
149189	2025-12-13T09:56:28	6.2	100
149190	2025-12-13T10:06:28	6.2	100
149191	2025-12-13T10:16:28	6.3	100
149192	2025-12-13T10:26:28	6.3	100
149193	2025-12-13T10:36:28	6.4	100
149194	2025-12-13T10:46:28	6.4	100
149195	2025-12-13T10:56:28	6.4	100
149196	2025-12-13T11:06:28	6.6	100
149197	2025-12-13T11:16:28	6.5	100
149198	2025-12-13T11:26:28	6.6	100
149199	2025-12-13T11:36:28	6.7	100
149200	2025-12-13T11:46:28	6.7	100
149201	2025-12-13T11:56:28	6.7	100
149202	2025-12-13T12:06:28	6.8	100
149203	2025-12-13T12:16:28	6.8	100
149204	2025-12-13T12:26:28	7	100
149205	2025-12-13T12:36:28	7.1	100
149206	2025-12-13T12:46:28	7.3	100
149207	2025-12-13T12:56:28	7.3	100
149208	2025-12-13T13:06:28	7.3	100
149209	2025-12-13T13:16:28	7.1	100
149210	2025-12-13T13:26:28	7.1	100
149211	2025-12-13T13:36:28	7.2	100
149212	2025-12-13T13:46:28	7.1	100
149213	2025-12-13T13:56:28	7.1	100
149214	2025-12-13T14:06:28	7.1	100
149215	2025-12-13T14:16:28	7.1	100
149216	2025-12-13T14:26:28	7	100
149217	2025-12-13T14:36:28	7.1	100
149218	2025-12-13T14:46:28	7	100
149219	2025-12-13T14:56:28	7.2	100
149220	2025-12-13T15:06:28	7.1	100
149221	2025-12-13T15:16:28	7	100
149222	2025-12-13T15:26:28	7	100
149223	2025-12-13T15:36:28	6.9	100
149224	2025-12-13T15:46:28	6.9	100
149225	2025-12-13T15:56:28	6.9	100
149226	2025-12-13T16:06:28	6.9	100
149227	2025-12-13T16:16:28	7	100
149228	2025-12-13T16:26:28	6.9	100
149229	2025-12-13T16:36:27	7	100
149230	2025-12-13T16:46:28	7	100
149231	2025-12-13T16:56:27	6.9	100
149232	2025-12-13T17:06:27	6.9	100
149233	2025-12-13T17:16:27	6.8	100
149234	2025-12-13T17:26:27	6.9	100
149235	2025-12-13T17:36:27	6.8	100
149236	2025-12-13T17:46:27	6.8	100
149237	2025-12-13T17:56:27	6.8	100
149238	2025-12-13T18:06:27	6.7	100
149239	2025-12-13T18:16:27	6.7	100
149240	2025-12-13T18:26:27	6.6	100
149241	2025-12-13T18:36:27	6.6	100
149242	2025-12-13T18:46:27	6.6	100
149243	2025-12-13T18:56:27	6.4	100
149244	2025-12-13T19:06:27	6.6	100
149245	2025-12-13T19:16:27	6.5	100
149246	2025-12-13T19:26:27	6.7	100
149247	2025-12-13T19:36:27	6.7	100
149248	2025-12-13T19:46:27	6.8	100
149249	2025-12-13T19:56:27	6.7	100
149250	2025-12-13T20:06:27	6.8	100
149251	2025-12-13T20:16:27	6.8	100
149252	2025-12-13T20:26:27	6.9	100
149253	2025-12-13T20:36:27	6.8	100
149254	2025-12-13T20:46:27	6.9	100
149255	2025-12-13T20:56:27	6.7	100
149256	2025-12-13T21:06:27	6.9	100
149257	2025-12-13T21:16:27	6.9	100
149258	2025-12-13T21:26:27	6.9	100
149259	2025-12-13T21:36:27	6.8	100
149260	2025-12-13T21:46:27	6.8	100
149261	2025-12-13T21:56:27	6.8	100
149262	2025-12-13T22:06:27	6.9	100
149263	2025-12-13T22:16:27	6.7	100
149264	2025-12-13T22:26:27	6.8	100
149265	2025-12-13T22:36:27	6.8	100
149266	2025-12-13T22:46:27	6.8	100
149267	2025-12-13T22:56:27	6.8	100
149268	2025-12-13T23:06:27	6.8	100
149269	2025-12-13T23:16:27	6.8	100
149270	2025-12-13T23:26:27	6.8	100
149271	2025-12-13T23:36:27	7	100
149272	2025-12-13T23:46:27	6.9	100
149273	2025-12-13T23:56:27	6.9	100
149274	2025-12-14T00:06:27	6.8	100
149275	2025-12-14T00:16:27	6.9	100
149276	2025-12-14T00:26:27	6.8	100
149277	2025-12-14T00:36:27	6.9	100
149278	2025-12-14T00:46:27	6.9	100
149279	2025-12-14T00:56:27	6.8	100
149280	2025-12-14T01:06:27	6.9	100
149281	2025-12-14T01:16:27	6.8	100
149282	2025-12-14T01:26:27	6.9	100
149283	2025-12-14T01:36:27	6.8	100
149284	2025-12-14T01:46:27	6.7	100
149285	2025-12-14T01:56:27	6.7	100
149286	2025-12-14T02:06:27	6.7	100
149287	2025-12-14T02:16:27	6.8	100
149288	2025-12-14T02:26:27	6.8	100
149289	2025-12-14T02:36:27	6.8	100
149290	2025-12-14T02:46:27	6.9	100
149291	2025-12-14T02:56:27	6.9	100
149292	2025-12-14T03:06:27	6.8	100
149293	2025-12-14T03:16:27	6.9	100
149294	2025-12-14T03:26:27	6.8	100
149295	2025-12-14T03:36:27	6.8	100
149296	2025-12-14T03:46:27	6.7	100
149297	2025-12-14T03:56:27	6.7	100
149298	2025-12-14T04:06:27	6.7	100
149299	2025-12-14T04:16:27	6.7	100
149300	2025-12-14T04:26:27	6.7	100
149301	2025-12-14T04:36:27	6.6	100
149302	2025-12-14T04:46:27	6.7	100
149303	2025-12-14T04:56:27	6.6	100
149304	2025-12-14T05:06:27	6.6	100
149305	2025-12-14T05:16:27	6.6	100
149306	2025-12-14T05:26:27	6.7	100
149307	2025-12-14T05:36:27	6.7	100
149308	2025-12-14T05:46:27	6.8	100
149309	2025-12-14T05:56:27	6.8	100
149310	2025-12-14T06:06:27	6.8	100
149311	2025-12-14T06:16:27	6.7	100
149312	2025-12-14T06:26:27	6.8	100
149313	2025-12-14T06:36:27	6.8	100
149314	2025-12-14T06:46:27	6.8	100
149315	2025-12-14T06:56:27	6.7	100
149316	2025-12-14T07:06:27	6.8	100
149317	2025-12-14T07:16:27	6.8	100
149318	2025-12-14T07:26:27	6.8	100
149319	2025-12-14T07:36:27	6.7	100
149320	2025-12-14T07:46:27	6.8	100
149321	2025-12-14T07:56:27	6.9	100
149322	2025-12-14T08:06:27	6.8	100
149323	2025-12-14T08:16:27	6.9	100
149324	2025-12-14T08:26:27	7	100
149325	2025-12-14T08:36:27	6.9	100
149326	2025-12-14T08:46:27	6.9	100
149327	2025-12-14T08:56:27	6.9	100
149328	2025-12-14T09:06:27	6.9	100
149329	2025-12-14T09:16:27	6.9	100
149330	2025-12-14T09:26:27	7	100
149331	2025-12-14T09:36:27	6.9	100
149332	2025-12-14T09:46:27	7.2	100
149333	2025-12-14T09:56:27	7	100
149334	2025-12-14T10:06:27	7	100
149335	2025-12-14T10:16:27	7.1	100
149336	2025-12-14T10:26:27	7.2	100
149337	2025-12-14T10:36:27	7.3	100
149338	2025-12-14T10:46:27	7.4	100
149339	2025-12-14T10:56:27	7.4	99
149340	2025-12-14T11:06:27	7.4	100
149341	2025-12-14T11:16:27	7.4	99.5
149342	2025-12-14T11:26:27	7.3	100
149343	2025-12-14T11:36:27	7.3	100
149344	2025-12-14T11:46:27	7.2	98
149345	2025-12-14T11:56:27	7.2	99
149346	2025-12-14T12:06:27	7.2	99
149347	2025-12-14T12:16:27	6.9	98.5
149348	2025-12-14T12:26:27	7	98.5
149349	2025-12-14T12:36:27	7	98.5
149350	2025-12-14T12:46:27	7.1	99
149351	2025-12-14T12:56:27	7.1	98.5
149352	2025-12-14T13:06:27	7.2	98
149353	2025-12-14T13:16:27	7.2	98
149354	2025-12-14T13:26:27	7	98
149355	2025-12-14T13:36:27	7.1	99
149356	2025-12-14T13:46:27	7.2	99
149357	2025-12-14T13:56:27	7.1	99.5
149358	2025-12-14T14:06:27	7.1	99
149359	2025-12-14T14:16:26	7	99.5
149360	2025-12-14T14:26:26	7.1	99.5
149361	2025-12-14T14:36:26	6.8	100
149362	2025-12-14T14:46:26	6.9	100
149363	2025-12-14T14:56:26	6.8	100
149364	2025-12-14T15:06:26	6.7	100
149365	2025-12-14T15:16:26	6.8	100
149366	2025-12-14T15:26:26	6.7	100
149367	2025-12-14T15:36:26	6.6	100
149368	2025-12-14T15:46:26	6.6	100
149369	2025-12-14T15:56:26	6.6	100
149370	2025-12-14T16:06:26	6.6	100
149371	2025-12-14T16:16:26	6.5	100
149372	2025-12-14T16:26:26	6.4	100
149373	2025-12-14T16:36:26	6.5	100
149374	2025-12-14T16:46:26	6.5	100
149375	2025-12-14T16:56:26	6.6	100
149376	2025-12-14T17:06:26	6.5	100
149377	2025-12-14T17:16:26	6.6	100
149378	2025-12-14T17:26:26	6.4	100
149379	2025-12-14T17:36:26	6.4	100
149380	2025-12-14T17:46:26	6.5	100
149381	2025-12-14T17:56:26	6.3	100
149382	2025-12-14T18:06:26	6.3	100
149383	2025-12-14T18:16:26	6.2	100
149384	2025-12-14T18:26:26	6.2	100
149385	2025-12-14T18:36:26	6.3	100
149386	2025-12-14T18:46:26	6.1	100
149387	2025-12-14T18:56:26	6.1	100
149388	2025-12-14T19:06:26	6.2	100
149389	2025-12-14T19:16:26	6.1	100
149390	2025-12-14T19:26:26	6.1	100
149391	2025-12-14T19:36:26	6	100
149392	2025-12-14T19:46:26	6.1	100
149393	2025-12-14T19:56:26	6	100
149394	2025-12-14T20:06:26	6.2	100
149395	2025-12-14T20:16:26	6.1	100
149396	2025-12-14T20:26:26	6.2	100
149397	2025-12-14T20:36:26	6	100
149398	2025-12-14T20:46:26	6	100
149399	2025-12-14T20:56:26	5.8	100
149400	2025-12-14T21:06:26	5.8	100
149401	2025-12-14T21:16:26	5.6	100
149402	2025-12-14T21:26:26	5.7	100
149403	2025-12-14T21:36:26	5.8	100
149404	2025-12-14T21:46:26	5.7	100
149405	2025-12-14T21:56:26	5.5	100
149406	2025-12-14T22:06:26	5.5	100
149407	2025-12-14T22:16:26	5.6	100
149408	2025-12-14T22:26:26	5.4	100
149409	2025-12-14T22:36:26	5.4	100
149410	2025-12-14T22:46:26	5.4	100
149411	2025-12-14T22:56:26	5.3	100
149412	2025-12-14T23:06:26	5.1	100
149413	2025-12-14T23:16:26	5.1	100
149414	2025-12-14T23:26:26	5.1	100
149415	2025-12-14T23:36:26	5.1	100
149416	2025-12-14T23:46:26	5.3	100
149417	2025-12-14T23:56:26	5.2	100
149418	2025-12-15T00:06:26	5.2	100
149419	2025-12-15T00:16:26	5.2	100
149420	2025-12-15T00:26:26	5.2	100
149421	2025-12-15T00:36:26	5.2	100
149422	2025-12-15T00:46:26	5.3	100
149423	2025-12-15T00:56:26	5.2	100
149424	2025-12-15T01:06:26	5.3	100
149425	2025-12-15T01:16:26	5.2	100
149426	2025-12-15T01:26:26	5.1	100
149427	2025-12-15T01:36:26	5.1	100
149428	2025-12-15T01:46:26	5.2	100
149429	2025-12-15T01:56:26	5.1	100
149430	2025-12-15T02:06:26	5.2	100
149431	2025-12-15T02:16:26	5.1	100
149432	2025-12-15T02:26:26	5	100
149433	2025-12-15T02:36:26	5.1	100
149434	2025-12-15T02:46:26	4.8	100
149435	2025-12-15T02:56:26	4.9	100
149436	2025-12-15T03:06:26	4.9	100
149437	2025-12-15T03:16:26	4.8	100
149438	2025-12-15T03:26:26	5	100
149439	2025-12-15T03:36:26	4.9	100
149440	2025-12-15T03:46:26	4.9	100
149441	2025-12-15T03:56:26	5	100
149442	2025-12-15T04:06:26	5.1	100
149443	2025-12-15T04:16:26	5	100
149444	2025-12-15T04:26:26	4.9	100
149445	2025-12-15T04:36:26	4.9	100
149446	2025-12-15T04:46:26	4.9	100
149447	2025-12-15T04:56:26	4.9	100
149448	2025-12-15T05:06:26	4.9	100
149449	2025-12-15T05:16:26	4.8	99.5
149450	2025-12-15T05:26:26	4.7	98.5
149451	2025-12-15T05:36:26	4.9	99
149452	2025-12-15T05:46:26	4.8	99.5
149453	2025-12-15T05:56:26	4.7	98.5
149454	2025-12-15T06:06:26	4.7	98.5
149455	2025-12-15T06:16:26	4.6	99
149456	2025-12-15T06:26:26	4.6	98.5
149457	2025-12-15T06:36:26	4.6	99
149458	2025-12-15T06:46:26	4.5	98.5
149459	2025-12-15T06:56:26	4.5	98.5
149460	2025-12-15T07:06:26	4.4	97.5
149461	2025-12-15T07:16:26	4.5	98
149462	2025-12-15T07:26:26	4.4	98.5
149463	2025-12-15T07:36:26	4.5	98
149464	2025-12-15T07:46:26	4.4	97.5
149465	2025-12-15T07:56:26	4.4	97.5
149466	2025-12-15T08:06:26	4.5	97
149467	2025-12-15T08:16:26	4.6	97
149468	2025-12-15T08:26:26	4.5	96
149469	2025-12-15T08:36:26	4.5	95.5
149470	2025-12-15T08:46:26	4.6	96.5
149471	2025-12-15T08:56:26	4.8	97
149472	2025-12-15T09:06:26	4.8	97
149473	2025-12-15T09:16:26	4.9	97.5
149474	2025-12-15T09:26:26	4.9	98
149475	2025-12-15T09:36:26	4.9	98.5
149476	2025-12-15T09:46:26	5.1	98.5
149477	2025-12-15T09:56:26	5.1	98.5
149478	2025-12-15T10:06:26	5.3	98
149479	2025-12-15T10:16:26	5.4	97.5
149480	2025-12-15T10:26:26	5.8	96.5
149481	2025-12-15T10:36:26	6.2	94.5
149482	2025-12-15T10:46:26	6.3	93.5
149483	2025-12-15T10:56:26	6.2	92.5
149484	2025-12-15T11:06:26	6.3	93
149485	2025-12-15T11:16:26	6.2	93
149486	2025-12-15T11:26:26	6.3	93.5
149487	2025-12-15T11:36:26	6.9	93
149488	2025-12-15T11:46:26	8.8	86.5
149489	2025-12-15T11:56:26	10.6	80.5
149490	2025-12-15T12:06:26	12	78
149491	2025-12-15T12:16:26	13	73
149492	2025-12-15T12:26:26	13.8	67.5
149493	2025-12-15T12:36:26	13.9	65
149494	2025-12-15T12:46:26	14.9	64
149495	2025-12-15T12:56:26	16.3	61.5
149496	2025-12-15T13:06:26	16.7	61
149497	2025-12-15T13:16:26	17	57.5
149498	2025-12-15T13:26:26	16.9	56.5
149499	2025-12-15T13:36:26	17.3	58
149500	2025-12-15T13:46:25	18.5	54.5
149501	2025-12-15T13:56:25	15.7	59
149502	2025-12-15T14:06:25	13.5	66
149503	2025-12-15T14:16:25	12.2	69
149504	2025-12-15T14:26:25	11.6	73
149505	2025-12-15T14:36:25	11.8	72.5
149506	2025-12-15T14:46:25	11.1	74
149507	2025-12-15T14:56:25	10.3	76
149508	2025-12-15T15:06:25	9.4	78
149509	2025-12-15T15:16:25	8.7	82
149510	2025-12-15T15:26:25	8.5	81.5
149511	2025-12-15T15:36:25	7.9	83.5
149512	2025-12-15T15:46:25	7.6	83.5
149513	2025-12-15T15:56:25	7.2	86.5
149514	2025-12-15T16:06:25	7.3	87
149515	2025-12-15T16:16:25	7	87
149516	2025-12-15T16:26:25	6.7	88.5
149517	2025-12-15T16:36:25	6.5	88.5
149518	2025-12-15T16:46:25	6.2	89
149519	2025-12-15T16:56:25	6.1	89
149520	2025-12-15T17:06:25	5.8	89
149521	2025-12-15T17:16:25	5.3	89.5
149522	2025-12-15T17:26:25	5	90.5
149523	2025-12-15T17:36:25	5.1	91
149524	2025-12-15T17:46:25	4.7	93
149525	2025-12-15T17:56:25	5	94
149526	2025-12-15T18:06:25	5.3	94
149527	2025-12-15T18:16:25	5.1	94.5
149528	2025-12-15T18:26:25	4.7	95.5
149529	2025-12-15T18:36:25	4.6	95.5
149530	2025-12-15T18:46:25	4.9	97
149531	2025-12-15T18:56:25	4.9	96.5
149532	2025-12-15T19:06:25	5.1	97
149533	2025-12-15T19:16:25	5.1	95.5
149534	2025-12-15T19:26:25	4.9	96.5
149535	2025-12-15T19:36:25	5.2	96.5
149536	2025-12-15T19:46:25	5.1	97
149537	2025-12-15T19:56:25	4.9	96
149538	2025-12-15T20:06:25	5	96
149539	2025-12-15T20:16:25	4.8	96
149540	2025-12-15T20:26:25	4.8	96
149541	2025-12-15T20:36:25	4.6	96
149542	2025-12-15T20:46:25	4.5	96.5
149543	2025-12-15T20:56:25	4.6	96.5
149544	2025-12-15T21:06:25	4.4	97
149545	2025-12-15T21:16:25	4.1	97.5
149546	2025-12-15T21:26:25	4	97.5
149547	2025-12-15T21:36:25	4	98.5
149548	2025-12-15T21:46:25	3.9	98
149549	2025-12-15T21:56:25	3.4	97.5
149550	2025-12-15T22:06:25	3	97.5
149551	2025-12-15T22:16:25	2.6	98.5
149552	2025-12-15T22:26:25	2.8	98
149553	2025-12-15T22:36:25	2.7	98
149554	2025-12-15T22:46:25	2.9	99
149555	2025-12-15T22:56:25	3	99.5
149556	2025-12-15T23:06:25	2.9	99
149557	2025-12-15T23:16:25	2.9	99
149558	2025-12-15T23:26:25	2.7	98
149559	2025-12-15T23:36:25	2.7	98.5
149560	2025-12-15T23:46:25	2.7	99
149561	2025-12-15T23:56:25	2.6	98.5
149562	2025-12-16T00:06:25	2.8	99
149563	2025-12-16T00:16:25	2.8	98.5
149564	2025-12-16T00:26:25	2.9	99
149565	2025-12-16T00:36:25	2.9	97.5
149566	2025-12-16T00:46:25	2.5	98
149567	2025-12-16T00:56:25	2.2	99
149568	2025-12-16T01:06:25	2.1	99
149569	2025-12-16T01:16:25	1.9	100
149570	2025-12-16T01:26:25	2.1	100
149571	2025-12-16T01:36:25	2	99
149572	2025-12-16T01:46:25	2	99.5
149573	2025-12-16T01:56:25	2.1	100
149574	2025-12-16T02:06:25	2.3	100
149575	2025-12-16T02:16:25	2.3	100
149576	2025-12-16T02:26:25	2.1	99.5
149577	2025-12-16T02:36:25	2.1	99.5
149578	2025-12-16T02:46:25	2.2	99.5
149579	2025-12-16T02:56:25	2.3	99.5
149580	2025-12-16T03:06:25	2.1	99
149581	2025-12-16T03:16:25	2	99
149582	2025-12-16T03:26:25	1.8	99
149583	2025-12-16T03:36:25	1.7	99
149584	2025-12-16T03:46:25	1.7	99.5
149585	2025-12-16T03:56:25	1.4	99
149586	2025-12-16T04:06:25	1.5	99
149587	2025-12-16T04:16:25	1.7	98.5
149588	2025-12-16T04:26:25	1.6	98
149589	2025-12-16T04:36:25	1.6	99
149590	2025-12-16T04:46:25	1.5	98
149591	2025-12-16T04:56:25	1.5	98.5
149592	2025-12-16T05:06:25	1.7	99
149593	2025-12-16T05:16:25	1.8	99.5
149594	2025-12-16T05:26:25	1.6	98.5
149595	2025-12-16T05:36:25	1.6	99
149596	2025-12-16T05:46:25	1.6	99.5
149597	2025-12-16T05:56:25	1.5	99.5
149598	2025-12-16T06:06:25	1.6	100
149599	2025-12-16T06:16:25	1.5	99.5
149600	2025-12-16T06:26:25	1.4	100
149601	2025-12-16T06:36:25	1.4	100
149602	2025-12-16T06:46:25	1.5	100
149603	2025-12-16T06:56:25	1.5	100
149604	2025-12-16T07:06:25	1.4	100
149605	2025-12-16T07:16:25	1.4	100
149606	2025-12-16T07:26:25	1.4	100
149607	2025-12-16T07:36:25	1.4	100
149608	2025-12-16T07:46:25	1.5	100
149609	2025-12-16T07:56:25	1.3	100
149610	2025-12-16T08:06:25	1.3	99.5
149611	2025-12-16T08:16:25	1	99.5
149612	2025-12-16T08:26:25	1.1	100
149613	2025-12-16T08:36:25	1.2	99.5
149614	2025-12-16T08:46:25	1.3	99.5
149615	2025-12-16T08:56:25	1.3	99
149616	2025-12-16T09:06:25	1.4	98
149617	2025-12-16T09:16:25	1.4	99
149618	2025-12-16T09:26:25	1.3	99.5
149619	2025-12-16T09:36:25	1.3	100
149620	2025-12-16T09:46:25	1.6	100
149621	2025-12-16T09:56:25	1.9	100
149622	2025-12-16T10:06:25	2.1	100
149623	2025-12-16T10:16:25	2.2	98.5
149624	2025-12-16T10:26:25	2.4	98.5
149625	2025-12-16T10:36:25	2.6	97.5
149626	2025-12-16T10:46:25	2.7	96.5
149627	2025-12-16T10:56:25	2.7	95.5
149628	2025-12-16T11:06:25	2.7	95.5
149629	2025-12-16T11:16:25	3.1	95.5
149630	2025-12-16T11:26:25	3.3	96
149631	2025-12-16T11:36:25	3.3	95
149632	2025-12-16T11:46:25	3.6	94.5
149633	2025-12-16T11:56:25	3.6	94
149634	2025-12-16T12:06:25	3.7	94.5
149635	2025-12-16T12:16:25	3.7	94.5
149636	2025-12-16T12:26:25	3.8	94
149637	2025-12-16T12:36:25	3.8	93.5
149638	2025-12-16T12:46:25	3.9	93.5
149639	2025-12-16T12:56:25	3.9	93
149640	2025-12-16T13:06:25	4	94
149641	2025-12-16T13:16:25	3.9	93.5
149642	2025-12-16T13:26:25	3.9	94.5
149643	2025-12-16T13:36:25	3.8	94.5
149644	2025-12-16T13:46:25	3.6	94
149645	2025-12-16T13:56:25	3.6	94.5
149646	2025-12-16T14:06:25	3.3	94
149647	2025-12-16T14:16:25	3.1	95
149648	2025-12-16T14:26:25	2.9	95
149649	2025-12-16T14:36:25	2.9	96
149650	2025-12-16T14:46:25	2.8	96.5
149651	2025-12-16T14:56:25	2.7	96.5
149652	2025-12-16T15:06:25	2.5	97.5
149653	2025-12-16T15:16:25	2.3	98
149654	2025-12-16T15:26:25	2.1	98.5
149655	2025-12-16T15:36:25	1.9	99
149656	2025-12-16T15:46:25	1.9	99.5
149657	2025-12-16T15:56:25	1.6	100
149658	2025-12-16T16:06:25	1.5	100
149659	2025-12-16T16:16:25	1.5	100
149660	2025-12-16T16:26:25	1.6	100
149661	2025-12-16T16:36:25	1.4	100
149662	2025-12-16T16:46:25	1.3	100
149663	2025-12-16T16:56:25	1	100
149664	2025-12-16T17:06:25	1.2	100
149665	2025-12-16T17:16:25	1.4	100
149666	2025-12-16T17:26:25	1.2	100
149667	2025-12-16T17:36:25	1.1	100
149668	2025-12-16T17:46:25	1	100
149669	2025-12-16T17:56:25	0.9	100
149670	2025-12-16T18:06:25	0.7	100
149671	2025-12-16T18:16:25	0.7	100
149672	2025-12-16T18:26:25	0.6	100
149673	2025-12-16T18:36:25	0.6	100
149674	2025-12-16T18:46:25	0.7	100
149675	2025-12-16T18:56:25	1.1	100
149676	2025-12-16T19:06:25	1.2	100
149677	2025-12-16T19:16:25	1.4	100
149678	2025-12-16T19:26:25	1.5	100
149679	2025-12-16T19:36:25	1.5	100
149680	2025-12-16T19:46:25	1.6	100
149681	2025-12-16T19:56:25	1.8	100
149682	2025-12-16T20:06:25	1.8	100
149683	2025-12-16T20:16:25	1.9	100
149684	2025-12-16T20:26:25	2	100
149685	2025-12-16T20:36:25	2	100
149686	2025-12-16T20:46:25	2.1	100
149687	2025-12-16T20:56:25	2	100
149688	2025-12-16T21:06:25	2.1	100
149689	2025-12-16T21:16:25	2	100
149690	2025-12-16T21:26:25	2	100
149691	2025-12-16T21:36:25	1.9	100
149692	2025-12-16T21:46:25	2	100
149693	2025-12-16T21:56:25	2.1	100
149694	2025-12-16T22:06:25	2.1	100
149695	2025-12-16T22:16:25	2.2	100
149696	2025-12-16T22:26:25	2.1	100
149697	2025-12-16T22:36:25	2.1	100
149698	2025-12-16T22:46:25	2.1	100
149699	2025-12-16T22:56:25	2.2	100
149700	2025-12-16T23:06:25	2.1	100
149701	2025-12-16T23:16:25	2.1	100
149702	2025-12-16T23:26:25	2	100
149703	2025-12-16T23:36:25	2	100
149704	2025-12-16T23:46:25	2	100
149705	2025-12-16T23:56:25	2	100
149706	2025-12-17T00:06:25	2	100
149707	2025-12-17T00:16:25	2.1	100
149708	2025-12-17T00:26:25	2.2	100
149709	2025-12-17T00:36:25	2.1	100
149710	2025-12-17T00:46:25	2	100
149711	2025-12-17T00:56:25	2.2	100
149712	2025-12-17T01:06:25	2.1	100
149713	2025-12-17T01:16:25	2	100
149714	2025-12-17T01:26:25	2.3	100
149715	2025-12-17T01:36:25	2.2	100
149716	2025-12-17T01:46:25	2.2	100
149717	2025-12-17T01:56:25	2.2	100
149718	2025-12-17T02:06:25	2.2	100
149719	2025-12-17T02:16:25	2.2	100
149720	2025-12-17T02:26:25	2.1	100
149721	2025-12-17T02:36:25	2.1	100
149722	2025-12-17T02:46:25	2.1	100
149723	2025-12-17T02:56:25	2	100
149724	2025-12-17T03:06:25	2	100
149725	2025-12-17T03:16:25	2	100
149726	2025-12-17T03:26:25	1.9	100
149727	2025-12-17T03:36:25	1.9	100
149728	2025-12-17T03:46:25	1.9	100
149729	2025-12-17T03:56:25	1.8	100
149730	2025-12-17T04:06:25	2	100
149731	2025-12-17T04:16:25	2	100
149732	2025-12-17T04:26:25	1.9	100
149733	2025-12-17T04:36:25	1.9	99.5
149734	2025-12-17T04:46:25	1.8	100
149735	2025-12-17T04:56:42	1.8	100
149736	2025-12-17T05:06:25	1.9	100
149737	2025-12-17T05:16:25	1.9	100
149738	2025-12-17T05:26:25	2	100
149739	2025-12-17T05:36:25	2	100
149740	2025-12-17T05:46:25	2	100
149741	2025-12-17T05:56:25	2.1	100
149742	2025-12-17T06:06:24	1.9	100
149743	2025-12-17T06:16:24	1.9	100
149744	2025-12-17T06:26:25	1.9	100
149745	2025-12-17T06:36:24	1.9	100
149746	2025-12-17T06:46:24	1.7	100
149747	2025-12-17T06:56:24	1.7	100
149748	2025-12-17T07:06:24	1.7	100
149749	2025-12-17T07:16:24	1.6	100
149750	2025-12-17T07:26:24	1.8	100
149751	2025-12-17T07:36:24	1.6	100
149752	2025-12-17T07:46:24	1.8	100
149753	2025-12-17T07:56:24	1.8	100
149754	2025-12-17T08:06:24	1.7	100
149755	2025-12-17T08:16:24	1.6	99.5
149756	2025-12-17T08:26:24	1.5	100
149757	2025-12-17T08:36:24	1.6	100
149758	2025-12-17T08:46:24	1.8	100
149759	2025-12-17T08:56:24	1.9	100
149760	2025-12-17T09:06:24	2	100
149761	2025-12-17T09:16:24	1.9	99.5
149762	2025-12-17T09:26:24	2	99.5
149763	2025-12-17T09:36:24	2.1	98.5
149764	2025-12-17T09:46:24	2.3	99.5
149765	2025-12-17T09:56:24	2.6	98
149766	2025-12-17T10:06:24	3.2	97.5
149767	2025-12-17T10:16:24	3.3	96.5
149768	2025-12-17T10:26:24	3.3	96
149769	2025-12-17T10:36:24	3.3	96.5
149770	2025-12-17T10:46:24	3.6	95.5
149771	2025-12-17T10:56:24	3.6	94
149772	2025-12-17T11:06:24	4.1	93.5
149773	2025-12-17T11:16:24	4.7	93
149774	2025-12-17T11:26:24	5.2	92
149775	2025-12-17T11:36:24	6.6	89.5
149776	2025-12-17T11:46:24	8.2	83
149777	2025-12-17T11:56:24	9.8	80
149778	2025-12-17T12:06:24	10.5	76
149779	2025-12-17T12:16:24	9.7	78.5
149780	2025-12-17T12:26:24	8.7	81.5
149781	2025-12-17T12:36:24	8.4	83
149782	2025-12-17T12:46:24	8.1	84.5
149783	2025-12-17T12:56:24	7.9	86.5
149784	2025-12-17T13:06:24	7.9	86.5
149785	2025-12-17T13:16:24	7.8	87.5
149786	2025-12-17T13:26:24	7.7	88
149787	2025-12-17T13:36:24	7.8	88.5
149788	2025-12-17T13:46:24	7.9	88.5
149789	2025-12-17T13:56:24	7.8	89
149790	2025-12-17T14:06:24	7.9	89.5
149791	2025-12-17T14:16:24	7.9	87
149792	2025-12-17T14:26:24	8	88
149793	2025-12-17T14:36:24	10.1	81
149794	2025-12-17T14:46:24	9.7	82.5
149795	2025-12-17T14:56:24	8	87
149796	2025-12-17T15:06:24	7.1	90.5
149797	2025-12-17T15:16:24	6.5	93.5
149798	2025-12-17T15:26:24	6.2	95
149799	2025-12-17T15:36:24	6.5	94
149800	2025-12-17T15:46:24	6.1	95
149801	2025-12-17T15:56:24	5.6	96
149802	2025-12-17T16:06:24	5.2	97
149803	2025-12-17T16:16:24	5	98.5
149804	2025-12-17T16:26:24	4.9	98
149805	2025-12-17T16:36:24	5	98
149806	2025-12-17T16:46:24	5.3	97
149807	2025-12-17T16:56:24	5.3	96.5
149808	2025-12-17T17:06:24	5.4	96
149809	2025-12-17T17:16:24	5.5	96
149810	2025-12-17T17:26:24	5.5	96
149811	2025-12-17T17:36:24	5.6	96
149812	2025-12-17T17:46:24	5.7	96
149813	2025-12-17T17:56:24	5.5	95.5
149814	2025-12-17T18:06:24	5.6	96
149815	2025-12-17T18:16:24	5.5	96.5
149816	2025-12-17T18:26:24	5.3	97.5
149817	2025-12-17T18:36:24	5	98
149818	2025-12-17T18:46:24	5	98
149819	2025-12-17T18:56:24	4.7	98.5
149820	2025-12-17T19:06:24	4.6	99.5
149821	2025-12-17T19:16:24	4.5	97
149822	2025-12-17T19:26:24	4.9	98
149823	2025-12-17T19:36:24	5	97.5
149824	2025-12-17T19:46:24	5	98
149825	2025-12-17T19:56:24	4.7	98.5
149826	2025-12-17T20:06:24	4.1	100
149827	2025-12-17T20:16:24	3.9	100
149828	2025-12-17T20:26:24	3.6	100
149829	2025-12-17T20:36:24	3.4	100
149830	2025-12-17T20:46:24	3.5	100
149831	2025-12-17T20:56:24	3.1	100
149832	2025-12-17T21:06:24	3	100
149833	2025-12-17T21:16:24	2.9	100
149834	2025-12-17T21:26:24	2.9	100
149835	2025-12-17T21:36:24	3.2	100
149836	2025-12-17T21:46:24	3.4	100
149837	2025-12-17T21:56:24	3.5	100
149838	2025-12-17T22:06:24	3.6	100
149839	2025-12-17T22:16:24	3.6	99.5
149840	2025-12-17T22:26:24	3.8	99.5
149841	2025-12-17T22:36:24	3.8	99.5
149842	2025-12-17T22:46:24	3.6	99.5
149843	2025-12-17T22:56:24	3.6	99.5
149844	2025-12-17T23:06:24	3.4	100
149845	2025-12-17T23:16:24	3.1	100
149846	2025-12-17T23:26:24	3	100
149847	2025-12-17T23:36:24	2.7	100
149848	2025-12-17T23:46:24	2.6	100
149849	2025-12-17T23:56:24	2.3	100
149850	2025-12-18T00:06:24	2.3	100
149851	2025-12-18T00:16:24	2.2	100
149852	2025-12-18T00:26:44	1.9	100
149853	2025-12-18T00:36:24	2.1	100
149854	2025-12-18T00:46:24	1.9	100
149855	2025-12-18T01:06:24	1.9	100
149856	2025-12-18T01:16:24	2	100
149857	2025-12-18T01:26:24	1.9	100
149858	2025-12-18T01:36:24	1.9	100
149859	2025-12-18T01:46:24	1.7	100
149860	2025-12-18T01:56:24	1.5	100
149861	2025-12-18T02:06:24	1.4	100
149862	2025-12-18T02:16:24	1.3	100
149863	2025-12-18T02:26:24	1.3	100
149864	2025-12-18T02:36:24	1.1	100
149865	2025-12-18T02:46:24	1	100
149866	2025-12-18T02:56:41	0.9	100
149867	2025-12-18T03:06:24	0.9	100
149868	2025-12-18T03:16:24	0.9	100
149869	2025-12-18T03:26:24	0.8	100
149870	2025-12-18T03:36:24	0.7	100
149871	2025-12-18T03:46:24	0.6	100
149872	2025-12-18T03:56:24	0.6	100
149873	2025-12-18T04:06:24	0.6	100
149874	2025-12-18T04:16:24	0.5	100
149875	2025-12-18T04:26:24	0.3	100
149876	2025-12-18T04:36:24	0.4	100
149877	2025-12-18T04:46:24	0.4	100
149878	2025-12-18T04:56:24	0.3	100
149879	2025-12-18T05:06:24	0.2	100
149880	2025-12-18T05:16:24	0.3	100
149881	2025-12-18T05:26:24	0.3	100
149882	2025-12-18T05:36:24	0.3	100
149883	2025-12-18T05:46:24	0.3	100
149884	2025-12-18T05:56:24	0.2	100
149885	2025-12-18T06:06:24	0.2	100
149886	2025-12-18T06:16:24	0.1	100
149887	2025-12-18T06:26:24	0.1	100
149888	2025-12-18T06:36:24	0	100
149889	2025-12-18T06:46:24	0	100
149890	2025-12-18T06:56:24	0	100
149891	2025-12-18T07:06:24	0.2	100
149892	2025-12-18T07:16:24	0.1	100
149893	2025-12-18T07:26:24	0.1	100
149894	2025-12-18T07:36:24	0.2	100
149895	2025-12-18T07:46:24	0.2	100
149896	2025-12-18T07:56:24	0.3	100
149897	2025-12-18T08:06:24	0.5	100
149898	2025-12-18T08:16:24	0.6	100
149899	2025-12-18T08:26:24	0.9	100
149900	2025-12-18T08:36:24	1	100
149901	2025-12-18T08:46:24	1.2	100
149902	2025-12-18T08:56:24	1.7	100
149903	2025-12-18T09:06:24	2	100
149904	2025-12-18T09:16:24	2.4	100
149905	2025-12-18T09:26:24	2.5	100
149906	2025-12-18T09:36:24	2.8	100
149907	2025-12-18T09:46:24	3	100
149908	2025-12-18T09:56:24	3.2	100
149909	2025-12-18T10:06:24	3.7	100
149910	2025-12-18T10:16:24	4	100
149911	2025-12-18T10:26:24	4.5	100
149912	2025-12-18T10:36:24	4.8	100
149913	2025-12-18T10:46:24	5.1	100
149914	2025-12-18T10:56:24	5.2	100
149915	2025-12-18T11:06:24	5.5	100
149916	2025-12-18T11:16:24	5.6	100
149917	2025-12-18T11:26:24	5.6	100
149918	2025-12-18T11:36:24	6.1	100
149919	2025-12-18T11:46:24	8.1	97.5
149920	2025-12-18T11:56:24	10.6	88
149921	2025-12-18T12:06:24	11.4	84.5
149922	2025-12-18T12:16:24	12.4	82
149923	2025-12-18T12:26:24	14.8	74.5
149924	2025-12-18T12:36:24	15.4	70.5
149925	2025-12-18T12:46:24	15.4	67.5
149926	2025-12-18T12:56:24	15.5	69
149927	2025-12-18T13:06:24	17.3	65.5
149928	2025-12-18T13:16:24	17.4	64.5
149929	2025-12-18T13:26:24	16.4	67.5
149930	2025-12-18T13:36:24	16.3	68
149931	2025-12-18T13:46:24	16.6	68
149932	2025-12-18T13:56:24	16.7	67.5
149933	2025-12-18T14:06:24	18.6	63.5
149934	2025-12-18T14:16:24	18.8	60
149935	2025-12-18T14:26:24	18.6	61
149936	2025-12-18T14:36:23	18.2	63
149937	2025-12-18T14:46:23	16	69
149938	2025-12-18T14:56:23	14	74.5
149939	2025-12-18T15:06:23	12.9	79
149940	2025-12-18T15:16:23	12.1	81
149941	2025-12-18T15:26:23	11.3	83.5
149942	2025-12-18T15:36:23	10.6	84.5
149943	2025-12-18T15:46:23	10.1	85.5
149944	2025-12-18T15:56:23	9.7	86.5
149945	2025-12-18T16:06:23	9.2	87
149946	2025-12-18T16:16:23	8.9	88.5
149947	2025-12-18T16:26:23	8.6	88
149948	2025-12-18T16:36:23	8.4	88.5
149949	2025-12-18T16:46:23	7.9	89
149950	2025-12-18T16:56:23	7.8	89.5
149951	2025-12-18T17:06:23	7.4	89.5
149952	2025-12-18T17:16:23	7.1	90.5
149953	2025-12-18T17:26:23	6.9	90
149954	2025-12-18T17:36:23	6.5	90.5
149955	2025-12-18T17:46:23	6.3	91.5
149956	2025-12-18T17:56:23	6.1	91
149957	2025-12-18T18:06:23	6	92
149958	2025-12-18T18:16:23	5.7	92
149959	2025-12-18T18:26:23	5.6	92.5
149960	2025-12-18T18:36:23	5.4	92.5
149961	2025-12-18T18:46:23	5.2	92.5
149962	2025-12-18T18:56:23	5	91.5
149963	2025-12-18T19:06:23	5	93
149964	2025-12-18T19:16:23	4.9	93
149965	2025-12-18T19:26:23	4.6	93
149966	2025-12-18T19:36:23	4.4	92.5
149967	2025-12-18T19:46:23	4.4	93.5
149968	2025-12-18T19:56:23	4.3	94.5
149969	2025-12-18T20:06:23	4.1	95.5
149970	2025-12-18T20:16:23	3.9	94.5
149971	2025-12-18T20:26:23	3.8	96
149972	2025-12-18T20:36:23	3.6	95.5
149973	2025-12-18T20:46:23	3.6	95
149974	2025-12-18T20:56:23	3.5	95.5
149975	2025-12-18T21:06:23	3.3	96
149976	2025-12-18T21:16:23	3.2	96
149977	2025-12-18T21:26:23	3.1	95.5
149978	2025-12-18T21:36:23	3	96
149979	2025-12-18T21:46:23	3	96.5
149980	2025-12-18T21:56:23	2.9	96.5
149981	2025-12-18T22:06:23	2.7	97
149982	2025-12-18T22:16:23	2.7	97
149983	2025-12-18T22:26:23	2.6	97.5
149984	2025-12-18T22:36:23	2.6	98
149985	2025-12-18T22:46:23	2.5	98
149986	2025-12-18T22:56:23	2.4	98
149987	2025-12-18T23:06:23	2.3	98
149988	2025-12-18T23:16:23	2.2	98.5
149989	2025-12-18T23:26:23	2.1	98.5
149990	2025-12-18T23:36:23	2	98.5
149991	2025-12-18T23:46:23	2	99
149992	2025-12-18T23:56:23	1.8	98.5
149993	2025-12-19T00:06:23	1.8	98.5
149994	2025-12-19T00:16:23	1.8	99
149995	2025-12-19T00:26:23	1.7	98
149996	2025-12-19T00:36:23	1.7	98.5
149997	2025-12-19T00:46:23	1.6	99
149998	2025-12-19T00:56:23	1.5	99
149999	2025-12-19T01:06:23	1.5	99
150000	2025-12-19T01:16:23	1.3	99
150001	2025-12-19T01:26:23	1.4	99.5
150002	2025-12-19T01:36:23	1.4	99.5
150003	2025-12-19T01:46:23	1.5	99.5
150004	2025-12-19T01:56:23	1.5	99
150005	2025-12-19T02:06:23	1.6	99
150006	2025-12-19T02:16:23	1.7	99
150007	2025-12-19T02:26:23	1.8	98.5
150008	2025-12-19T02:36:23	1.7	99
150009	2025-12-19T02:46:23	1.7	99.5
150010	2025-12-19T02:56:23	1.7	99.5
150011	2025-12-19T03:06:23	2.1	99.5
150012	2025-12-19T03:16:23	2.3	98.5
150013	2025-12-19T03:26:23	2.3	98.5
150014	2025-12-19T03:36:23	2.5	98
150015	2025-12-19T03:46:23	2.6	98
150016	2025-12-19T03:56:23	2.7	98.5
150017	2025-12-19T04:06:23	2.6	98.5
150018	2025-12-19T04:16:23	2.7	98.5
150019	2025-12-19T04:26:23	2.7	99
150020	2025-12-19T04:36:23	2.6	99
150021	2025-12-19T04:46:23	2.7	99
150022	2025-12-19T04:56:23	2.8	99.5
150023	2025-12-19T05:06:23	2.8	99
150024	2025-12-19T05:16:23	2.9	99
150025	2025-12-19T05:26:23	2.9	99
150026	2025-12-19T05:36:23	2.9	99.5
150027	2025-12-19T05:46:23	3	99.5
150028	2025-12-19T05:56:23	3.1	99.5
150029	2025-12-19T06:06:23	3.1	99.5
150030	2025-12-19T06:16:23	3.1	100
150031	2025-12-19T06:26:23	3.1	100
150032	2025-12-19T06:36:23	3.3	100
150033	2025-12-19T06:46:23	3.3	100
150034	2025-12-19T06:56:23	3.4	100
150035	2025-12-19T07:06:23	3.5	100
150036	2025-12-19T07:16:23	3.6	100
150037	2025-12-19T07:26:23	3.5	100
150038	2025-12-19T07:36:23	3.6	100
150039	2025-12-19T07:46:23	3.7	100
150040	2025-12-19T07:56:23	3.8	100
150041	2025-12-19T08:06:23	4	100
150042	2025-12-19T08:16:23	4	100
150043	2025-12-19T08:26:23	4.1	100
150044	2025-12-19T08:36:23	4.5	100
150045	2025-12-19T08:46:23	4.6	100
150046	2025-12-19T08:56:23	4.9	100
150047	2025-12-19T09:06:23	5.2	100
150048	2025-12-19T09:16:23	5.3	100
150049	2025-12-19T09:26:23	5.5	100
150050	2025-12-19T09:36:23	5.8	100
150051	2025-12-19T09:46:23	6	100
150052	2025-12-19T09:56:23	6.2	100
150053	2025-12-19T10:06:23	6.5	100
150054	2025-12-19T10:16:23	6.6	100
150055	2025-12-19T10:26:23	6.8	100
150056	2025-12-19T10:36:23	6.9	100
150057	2025-12-19T10:46:23	7.2	100
150058	2025-12-19T10:56:23	7.2	100
150059	2025-12-19T11:06:23	7.4	99.5
150060	2025-12-19T11:16:23	7.5	98.5
150061	2025-12-19T11:26:23	7.5	97.5
150062	2025-12-19T11:36:23	7.7	97
150063	2025-12-19T11:46:23	7.7	97.5
150064	2025-12-19T11:56:23	7.9	96.5
150065	2025-12-19T12:06:23	8.2	96
150066	2025-12-19T12:16:23	8.1	96.5
150067	2025-12-19T12:26:23	8.3	96.5
150068	2025-12-19T12:36:23	8.4	95
150069	2025-12-19T12:46:23	8.4	96.5
150070	2025-12-19T12:56:23	8.4	96.5
150071	2025-12-19T13:06:23	8.4	95.5
150072	2025-12-19T13:16:23	8.5	95
150073	2025-12-19T13:26:23	8.4	95
150074	2025-12-19T13:36:23	8.4	96
150075	2025-12-19T13:46:23	8.3	96.5
150076	2025-12-19T13:56:23	8.2	96.5
150077	2025-12-19T14:06:23	8.2	96.5
150078	2025-12-19T14:16:23	8.3	97.5
150079	2025-12-19T14:26:23	8.1	98
150080	2025-12-19T14:36:23	8.2	98.5
150081	2025-12-19T14:46:23	8	99
150082	2025-12-19T14:56:23	7.8	99.5
150083	2025-12-19T15:06:23	7.6	100
150084	2025-12-19T15:16:23	7.7	100
150085	2025-12-19T15:26:23	7.5	100
150086	2025-12-19T15:36:23	7.4	100
150087	2025-12-19T15:46:23	7.3	100
150088	2025-12-19T15:56:23	7.1	100
150089	2025-12-19T16:06:23	7	100
150090	2025-12-19T16:16:23	7.1	100
150091	2025-12-19T16:26:23	7	100
150092	2025-12-19T16:36:23	7.2	100
150093	2025-12-19T16:46:23	7.2	100
150094	2025-12-19T16:56:23	7.4	100
150095	2025-12-19T17:06:23	7.4	99.5
150096	2025-12-19T17:16:23	7.5	99.5
150097	2025-12-19T17:26:22	7.4	100
150098	2025-12-19T17:36:22	7.4	100
150099	2025-12-19T17:46:22	7.3	100
150100	2025-12-19T17:56:22	7.4	100
150101	2025-12-19T18:06:22	7.4	100
150102	2025-12-19T18:16:22	7.5	100
150103	2025-12-19T18:26:22	7.6	99.5
150104	2025-12-19T18:36:22	7.5	99.5
150105	2025-12-19T18:46:22	7.7	99
150106	2025-12-19T18:56:22	7.5	99
150107	2025-12-19T19:06:22	7.4	99.5
150108	2025-12-19T19:16:22	7.2	100
150109	2025-12-19T19:26:22	7	100
150110	2025-12-19T19:36:22	6.8	100
150111	2025-12-19T19:46:22	6.8	100
150112	2025-12-19T19:56:22	6.8	100
150113	2025-12-19T20:06:22	6.9	100
150114	2025-12-19T20:16:22	6.9	100
150115	2025-12-19T20:26:22	6.9	100
150116	2025-12-19T20:36:22	7.2	100
150117	2025-12-19T20:46:22	7.1	100
150118	2025-12-19T20:56:22	7.3	100
150119	2025-12-19T21:06:22	7.3	99.5
150120	2025-12-19T21:16:22	7.3	99.5
150121	2025-12-19T21:26:22	7.3	100
150122	2025-12-19T21:36:22	7.2	100
150123	2025-12-19T21:46:22	7.2	100
150124	2025-12-19T21:56:22	7.3	100
150125	2025-12-19T22:06:22	7.3	100
150126	2025-12-19T22:16:22	7.3	100
150127	2025-12-19T22:26:22	7.1	100
150128	2025-12-19T22:36:22	6.9	100
150129	2025-12-19T22:46:22	6.8	100
150130	2025-12-19T22:56:22	6.9	100
150131	2025-12-19T23:06:22	6.6	100
150132	2025-12-19T23:16:22	6.8	100
150133	2025-12-19T23:26:22	7	100
150134	2025-12-19T23:36:22	6.7	100
150135	2025-12-19T23:46:22	6.5	100
150136	2025-12-19T23:56:22	6.5	100
150137	2025-12-20T00:06:22	6.4	100
150138	2025-12-20T00:16:22	6.4	100
150139	2025-12-20T00:26:22	6.2	100
150140	2025-12-20T00:36:22	6	100
150141	2025-12-20T00:46:22	6.2	100
150142	2025-12-20T00:56:22	6.3	100
150143	2025-12-20T01:06:22	6.2	100
150144	2025-12-20T01:16:22	6.2	100
150145	2025-12-20T01:26:22	6.3	100
150146	2025-12-20T01:36:22	6.3	100
150147	2025-12-20T01:46:22	6.2	100
150148	2025-12-20T01:56:22	6.1	100
150149	2025-12-20T02:06:22	6.1	100
150150	2025-12-20T02:16:22	6	100
150151	2025-12-20T02:26:22	6.1	100
150152	2025-12-20T02:36:22	6.3	100
150153	2025-12-20T02:46:22	6.3	100
150154	2025-12-20T02:56:22	6.3	100
150155	2025-12-20T03:06:22	6.2	100
150156	2025-12-20T03:16:22	6.3	100
150157	2025-12-20T03:26:22	6.3	100
150158	2025-12-20T03:36:22	6.4	100
150159	2025-12-20T03:46:22	6.5	100
150160	2025-12-20T03:56:22	6.7	100
150161	2025-12-20T04:06:22	6.8	100
150162	2025-12-20T04:16:22	6.9	100
150163	2025-12-20T04:26:22	6.9	100
150164	2025-12-20T04:36:22	7	100
150165	2025-12-20T04:46:22	7.1	100
150166	2025-12-20T04:56:22	7.1	100
150167	2025-12-20T05:06:22	7.2	100
150168	2025-12-20T05:16:22	7.2	100
150169	2025-12-20T05:26:22	7.3	100
150170	2025-12-20T05:36:22	7.5	100
150171	2025-12-20T05:46:22	7.6	100
150172	2025-12-20T05:56:22	7.7	100
150173	2025-12-20T06:06:22	7.8	100
150174	2025-12-20T06:16:22	7.8	100
150175	2025-12-20T06:26:22	7.8	100
150176	2025-12-20T06:36:22	7.9	100
150177	2025-12-20T06:46:22	7.7	100
150178	2025-12-20T06:56:22	7.8	100
150179	2025-12-20T07:06:22	7.9	100
150180	2025-12-20T07:16:22	7.8	100
150181	2025-12-20T07:26:22	7.8	100
150182	2025-12-20T07:36:22	7.7	100
150183	2025-12-20T07:46:22	7.6	100
150184	2025-12-20T07:56:22	7.7	100
150185	2025-12-20T08:06:22	7.8	100
150186	2025-12-20T08:16:22	7.8	100
150187	2025-12-20T08:26:22	7.8	100
150188	2025-12-20T08:36:22	7.9	100
150189	2025-12-20T08:46:22	8.1	100
150190	2025-12-20T08:56:22	8.3	100
150191	2025-12-20T09:06:22	8.4	100
150192	2025-12-20T09:16:22	8.5	100
150193	2025-12-20T09:26:22	8.6	100
150194	2025-12-20T09:36:22	8.7	100
150195	2025-12-20T09:46:22	8.7	100
150196	2025-12-20T09:56:22	8.7	100
150197	2025-12-20T10:06:22	8.9	100
150198	2025-12-20T10:16:22	9	100
150199	2025-12-20T10:26:22	9.1	99.5
150200	2025-12-20T10:36:22	8.9	99.5
150201	2025-12-20T10:46:22	8.9	100
150202	2025-12-20T10:56:22	8.8	99.5
150203	2025-12-20T11:06:22	9.2	99.5
150204	2025-12-20T11:16:22	9.8	97
150205	2025-12-20T11:26:22	10	96.5
150206	2025-12-20T11:36:22	10.1	95
150207	2025-12-20T11:46:22	10.3	95
150208	2025-12-20T11:56:22	10.3	95
150209	2025-12-20T12:06:22	10.7	94
150210	2025-12-20T12:16:22	11.1	93.5
150211	2025-12-20T12:26:22	11.2	91.5
150212	2025-12-20T12:36:22	11.3	92
150213	2025-12-20T12:46:22	11.8	91
150214	2025-12-20T12:56:22	12.1	89
150215	2025-12-20T13:06:22	14.7	81
150216	2025-12-20T13:16:22	15.6	75.5
150217	2025-12-20T13:26:21	15.7	77
150218	2025-12-20T13:36:21	17.3	71
150219	2025-12-20T13:46:21	16.7	69.5
150220	2025-12-20T13:56:21	16.2	72
150221	2025-12-20T14:06:21	14.2	76
150222	2025-12-20T14:16:21	13.6	79.5
150223	2025-12-20T14:26:21	13.3	80.5
150224	2025-12-20T14:36:21	13.1	82.5
150225	2025-12-20T14:46:21	12.5	85.5
150226	2025-12-20T14:56:21	11.9	89
150227	2025-12-20T15:06:21	11.5	90
150228	2025-12-20T15:16:21	11.1	90.5
150229	2025-12-20T15:26:21	10.7	92
150230	2025-12-20T15:36:21	10.5	92.5
150231	2025-12-20T15:46:21	10.2	93
150232	2025-12-20T15:56:21	9.7	94
150233	2025-12-20T16:06:21	9.7	93.5
150234	2025-12-20T16:16:21	9.8	94
150235	2025-12-20T16:26:21	9.7	93
150236	2025-12-20T16:36:21	9.8	93
150237	2025-12-20T16:46:21	9.6	92
150238	2025-12-20T16:56:21	9.3	93
150239	2025-12-20T17:06:21	9.3	93.5
150240	2025-12-20T17:16:21	9.2	95
150241	2025-12-20T17:26:21	9.1	94.5
150242	2025-12-20T17:36:21	9.1	95
150243	2025-12-20T17:46:21	8.8	95
150244	2025-12-20T17:56:21	8.9	96
150245	2025-12-20T18:06:21	8.9	95.5
150246	2025-12-20T18:16:21	8.7	95.5
150247	2025-12-20T18:26:21	8.8	96
150248	2025-12-20T18:36:21	8.6	96.5
150249	2025-12-20T18:46:21	8.4	96
150250	2025-12-20T18:56:21	8.3	96
150251	2025-12-20T19:06:21	8.1	97
150252	2025-12-20T19:16:21	8	97
150253	2025-12-20T19:26:21	7.9	97
150254	2025-12-20T19:36:21	8	97
150255	2025-12-20T19:46:21	8	97.5
150256	2025-12-20T19:56:21	8	98
150257	2025-12-20T20:06:21	8	98.5
150258	2025-12-20T20:16:21	7.9	98
150259	2025-12-20T20:26:21	8	98.5
150260	2025-12-20T20:36:21	7.9	98
150261	2025-12-20T20:46:21	7.7	99
150262	2025-12-20T20:56:21	7.9	99
150263	2025-12-20T21:06:21	7.8	99
150264	2025-12-20T21:16:21	7.8	99
150265	2025-12-20T21:26:21	7.6	99
150266	2025-12-20T21:36:21	7.5	99.5
150267	2025-12-20T21:46:21	7.3	100
150268	2025-12-20T21:56:21	7.1	100
150269	2025-12-20T22:06:21	7.3	100
150270	2025-12-20T22:16:21	7.3	100
150271	2025-12-20T22:26:21	7.4	99.5
150272	2025-12-20T22:36:21	7.3	99
150273	2025-12-20T22:46:21	7.1	99
150274	2025-12-20T22:56:21	6.7	99.5
150275	2025-12-20T23:06:21	6.4	100
150276	2025-12-20T23:16:21	6	100
150277	2025-12-20T23:26:21	5.8	100
150278	2025-12-20T23:36:21	5.8	100
150279	2025-12-20T23:46:21	5.8	100
150280	2025-12-20T23:56:21	5.7	100
150281	2025-12-21T00:06:21	5.6	100
150282	2025-12-21T00:16:21	5.4	100
150283	2025-12-21T00:26:21	5.2	100
150284	2025-12-21T00:36:21	5.1	100
150285	2025-12-21T00:46:21	5	100
150286	2025-12-21T00:56:21	5.1	100
150287	2025-12-21T01:06:21	5.1	100
150288	2025-12-21T01:16:21	5.3	100
150289	2025-12-21T01:26:21	5.2	100
150290	2025-12-21T01:36:21	5.2	100
150291	2025-12-21T01:46:21	5.2	100
150292	2025-12-21T01:56:21	5.4	100
150293	2025-12-21T02:06:21	5.3	100
150294	2025-12-21T02:16:21	5.3	100
150295	2025-12-21T02:26:21	5.3	100
150296	2025-12-21T02:36:21	5.2	100
150297	2025-12-21T02:46:21	5.1	100
150298	2025-12-21T02:56:21	4.8	100
150299	2025-12-21T03:06:21	4.5	100
150300	2025-12-21T03:16:21	4.4	100
150301	2025-12-21T03:26:21	4.1	100
150302	2025-12-21T03:36:21	4	100
150303	2025-12-21T03:46:21	3.7	100
150304	2025-12-21T03:56:21	3.6	100
150305	2025-12-21T04:06:21	3.5	100
150306	2025-12-21T04:16:21	3.8	100
150307	2025-12-21T04:26:21	3.8	100
150308	2025-12-21T04:36:21	3.8	100
150309	2025-12-21T04:46:21	4.1	100
150310	2025-12-21T04:56:21	4	100
150311	2025-12-21T05:06:21	4.2	100
150312	2025-12-21T05:16:21	4.2	100
150313	2025-12-21T05:26:21	4.4	100
150314	2025-12-21T05:36:21	4.2	100
150315	2025-12-21T05:46:21	4.1	100
150316	2025-12-21T05:56:21	3.9	100
150317	2025-12-21T06:06:21	3.9	100
150318	2025-12-21T06:16:21	3.9	100
150319	2025-12-21T06:26:21	3.7	100
150320	2025-12-21T06:36:21	3.6	100
150321	2025-12-21T06:46:21	3.6	100
150322	2025-12-21T06:56:21	3.4	100
150323	2025-12-21T07:06:21	3.4	100
150324	2025-12-21T07:16:21	3.3	100
150325	2025-12-21T07:26:21	3.5	100
150326	2025-12-21T07:36:21	3.6	100
150327	2025-12-21T07:46:21	3.7	100
150328	2025-12-21T07:56:21	3.7	100
150329	2025-12-21T08:16:21	4.1	97.5
150330	2025-12-21T08:26:21	4.2	97
150331	2025-12-21T08:36:21	4.4	96.5
150332	2025-12-21T08:46:21	4.5	96
150333	2025-12-21T08:56:21	4.6	95.5
150334	2025-12-21T09:06:21	4.7	95
150335	2025-12-21T09:26:21	5.2	93
150336	2025-12-21T09:36:21	5.5	91.5
150337	2025-12-21T09:46:21	5.8	91
150338	2025-12-21T09:56:21	6	90
150339	2025-12-21T10:06:21	6.2	89.5
150340	2025-12-21T10:16:21	6.3	89.5
150341	2025-12-21T10:26:21	6.5	89
150342	2025-12-21T10:36:21	6.6	89
150343	2025-12-21T10:46:21	6.8	89
150344	2025-12-21T10:56:21	7.1	87.5
150345	2025-12-21T11:06:21	7.4	87
150346	2025-12-21T11:16:21	7.9	84.5
150347	2025-12-21T11:26:21	8.1	85
150348	2025-12-21T11:36:20	8.6	83
150349	2025-12-21T11:46:20	10	78.5
150350	2025-12-21T11:56:20	11.2	73.5
150351	2025-12-21T12:06:20	12.1	70.5
150352	2025-12-21T12:16:20	13	67.5
150353	2025-12-21T12:26:20	13.7	65
150354	2025-12-21T12:36:20	14.6	62.5
150355	2025-12-21T12:46:20	15.7	60
150356	2025-12-21T12:56:20	16	58.5
150357	2025-12-21T13:06:20	16.4	56.5
150358	2025-12-21T13:16:20	17.5	52
150359	2025-12-21T13:26:20	17.9	52
150360	2025-12-21T13:36:20	17.9	52
150361	2025-12-21T13:46:20	18.2	50.5
150362	2025-12-21T13:56:20	18.6	51
150363	2025-12-21T14:06:20	18.2	49
150364	2025-12-21T14:16:20	17.9	49
150365	2025-12-21T14:26:20	17.6	50
150366	2025-12-21T14:36:20	17.4	52
150367	2025-12-21T14:46:20	14.7	57.5
150368	2025-12-21T14:56:20	13	62.5
150369	2025-12-21T15:06:20	11.9	65
150370	2025-12-21T15:16:20	10.9	68
150371	2025-12-21T15:26:20	10.2	70
150372	2025-12-21T15:36:20	9.7	72.5
150373	2025-12-21T15:46:20	9	73
150374	2025-12-21T15:56:20	8.6	74.5
150375	2025-12-21T16:06:20	8.3	75.5
150376	2025-12-21T16:16:20	7.8	76
150377	2025-12-21T16:26:20	7.5	77.5
150378	2025-12-21T16:36:20	7.1	78
150379	2025-12-21T16:46:20	6.8	78
150380	2025-12-21T16:56:20	6.5	78.5
150381	2025-12-21T17:06:20	6.3	80.5
150382	2025-12-21T17:16:20	6	80
150383	2025-12-21T17:26:20	5.9	81
150384	2025-12-21T17:36:20	5.7	81.5
150385	2025-12-21T17:46:20	5.5	81.5
150386	2025-12-21T17:56:20	5.3	82
150387	2025-12-21T18:06:20	5.1	82.5
150388	2025-12-21T18:16:20	5	82.5
150389	2025-12-21T18:26:20	4.8	82.5
150390	2025-12-21T18:36:20	4.6	83
150391	2025-12-21T18:46:20	4.4	83
150392	2025-12-21T18:56:20	4.3	83
150393	2025-12-21T19:06:20	4.1	83
150394	2025-12-21T19:16:20	3.9	83.5
150395	2025-12-21T19:26:20	3.7	84
150396	2025-12-21T19:36:20	3.6	85
150397	2025-12-21T19:46:20	3.4	85.5
150398	2025-12-21T19:56:20	3.3	85.5
150399	2025-12-21T20:06:20	3.1	86
150400	2025-12-21T20:16:20	3.1	87
150401	2025-12-21T20:26:20	2.9	86.5
150402	2025-12-21T20:36:20	2.9	87
150403	2025-12-21T20:46:20	2.7	87
150404	2025-12-21T20:56:20	2.6	88
150405	2025-12-21T21:06:20	2.3	89
150406	2025-12-21T21:16:20	2.2	89.5
150407	2025-12-21T21:26:20	2	90
150408	2025-12-21T21:36:20	1.8	91
150409	2025-12-21T21:46:20	1.8	92.5
150410	2025-12-21T21:56:20	1.6	92
150411	2025-12-21T22:06:20	1.4	92.5
150412	2025-12-21T22:16:20	1.4	92.5
150413	2025-12-21T22:26:20	1.2	92.5
150414	2025-12-21T22:36:20	1.2	92.5
150415	2025-12-21T22:46:20	1	93
150416	2025-12-21T22:56:20	0.9	93.5
150417	2025-12-21T23:06:20	0.8	93.5
150418	2025-12-21T23:16:20	0.6	94
150419	2025-12-21T23:26:20	0.4	93.5
150420	2025-12-21T23:36:20	0.4	94
150421	2025-12-21T23:46:20	0.2	94
150422	2025-12-21T23:56:20	0.1	94.5
150423	2025-12-22T00:06:20	0	95.5
150424	2025-12-22T00:16:20	0	95
150425	2025-12-22T00:26:20	0	95
150426	2025-12-22T00:36:20	0.5	94
150427	2025-12-22T00:46:20	0.6	93
150428	2025-12-22T00:56:20	0.4	93.5
150429	2025-12-22T01:06:20	0.2	94.5
150430	2025-12-22T01:16:20	0	95
150431	2025-12-22T01:26:20	0.2	96
150432	2025-12-22T01:36:20	0.3	95
150433	2025-12-22T01:46:20	0.1	95
150434	2025-12-22T01:56:20	-0.1	96
150435	2025-12-22T02:06:20	-0.1	96
150436	2025-12-22T02:16:20	0	95.5
150437	2025-12-22T02:26:20	-0.1	95.5
150438	2025-12-22T02:36:20	0	95
150439	2025-12-22T02:46:20	0.2	94.5
150440	2025-12-22T02:56:20	0.2	94.5
150441	2025-12-22T03:06:20	0	95
150442	2025-12-22T03:16:20	-0.1	96
150443	2025-12-22T03:26:20	-0.3	96.5
150444	2025-12-22T03:36:20	-0.5	97
150445	2025-12-22T03:46:20	-0.5	97.5
150446	2025-12-22T03:56:20	-0.7	97.5
150447	2025-12-22T04:06:20	-0.8	98
150448	2025-12-22T04:16:42	-0.8	98
150449	2025-12-22T04:26:20	-0.9	98.5
150450	2025-12-22T04:36:20	-0.9	98.5
150451	2025-12-22T04:46:20	-0.9	98.5
150452	2025-12-22T04:56:20	-1	98.5
150453	2025-12-22T05:06:20	-0.9	99
150454	2025-12-22T05:16:20	-0.9	98.5
150455	2025-12-22T05:26:20	-0.9	98.5
150456	2025-12-22T05:36:20	-0.9	98.5
150457	2025-12-22T05:46:20	-1	98.5
150458	2025-12-22T05:56:20	-0.9	98.5
150459	2025-12-22T06:06:20	-1	98.5
150460	2025-12-22T06:16:20	-1	98.5
150461	2025-12-22T06:26:20	-1.2	98.5
150462	2025-12-22T06:36:20	-1.1	98.5
150463	2025-12-22T06:46:20	-1.1	98.5
150464	2025-12-22T06:56:20	-1	98.5
150465	2025-12-22T07:06:20	-1	98
150466	2025-12-22T07:16:20	-1	98.5
150467	2025-12-22T07:26:20	-0.9	98.5
150468	2025-12-22T07:36:20	-0.5	98.5
150469	2025-12-22T07:46:20	-0.1	98
150470	2025-12-22T07:56:20	0.1	97.5
150471	2025-12-22T08:06:20	0.3	97.5
150472	2025-12-22T08:16:20	0.4	97.5
150473	2025-12-22T08:26:20	0.5	97.5
150474	2025-12-22T08:36:20	0.8	97.5
150475	2025-12-22T08:46:20	1	97
150476	2025-12-22T08:56:20	1.3	97
150477	2025-12-22T09:06:20	1.4	97
150478	2025-12-22T09:16:20	1.7	96
150479	2025-12-22T09:26:20	1.9	95.5
150480	2025-12-22T09:36:20	2	95
150481	2025-12-22T09:46:20	2.2	94.5
150482	2025-12-22T09:56:20	2.3	94
150483	2025-12-22T10:06:20	2.5	93.5
150484	2025-12-22T10:16:20	2.8	92.5
150485	2025-12-22T10:26:20	2.9	91.5
150486	2025-12-22T10:36:20	3.2	90.5
150487	2025-12-22T10:46:20	3.4	90
150488	2025-12-22T10:56:20	3.7	88.5
150489	2025-12-22T11:06:20	4	88
150490	2025-12-22T11:16:20	4.4	86.5
150491	2025-12-22T11:26:20	4.8	84.5
150492	2025-12-22T11:36:20	5.4	84
150493	2025-12-22T11:46:20	5.6	82.5
150494	2025-12-22T11:56:20	6	81
150495	2025-12-22T12:06:20	5.8	80.5
150496	2025-12-22T12:16:20	5.3	81.5
150497	2025-12-22T12:26:20	5.1	82.5
150498	2025-12-22T12:36:20	5.1	82.5
150499	2025-12-22T12:46:20	4.9	83
150500	2025-12-22T12:56:20	4.9	83.5
150501	2025-12-22T13:06:20	4.9	84
150502	2025-12-22T13:16:20	4.9	83.5
150503	2025-12-22T13:26:20	4.9	83.5
150504	2025-12-22T13:36:20	4.9	83.5
150505	2025-12-22T13:46:20	4.7	84
150506	2025-12-22T13:56:20	4.7	84
150507	2025-12-22T14:06:20	4.5	84
150508	2025-12-22T14:16:20	4.4	84.5
150509	2025-12-22T14:26:20	4.4	85
150510	2025-12-22T14:36:20	4.4	85
150511	2025-12-22T14:46:20	4.4	85.5
150512	2025-12-22T14:56:20	4.3	86
150513	2025-12-22T15:06:20	4.2	86
150514	2025-12-22T15:16:20	4	86.5
150515	2025-12-22T15:26:38	3.9	87
150516	2025-12-22T15:36:20	3.8	87
150517	2025-12-22T15:46:20	3.8	88
150518	2025-12-22T15:56:20	3.8	87.5
150519	2025-12-22T16:06:20	3.8	88
150520	2025-12-22T16:16:20	3.6	88
150521	2025-12-22T16:26:20	3.7	88
150522	2025-12-22T16:36:20	3.7	88.5
150523	2025-12-22T16:46:20	3.6	88.5
150524	2025-12-22T16:56:20	3.6	88.5
150525	2025-12-22T17:06:20	3.6	88.5
150526	2025-12-22T17:16:20	3.7	88.5
150527	2025-12-22T17:26:20	3.7	88
150528	2025-12-22T17:36:20	3.7	88.5
150529	2025-12-22T17:46:20	3.7	88.5
150530	2025-12-22T17:56:20	3.6	88.5
150531	2025-12-22T18:06:20	3.6	88.5
150532	2025-12-22T18:16:20	3.6	89
150533	2025-12-22T18:26:20	3.5	89
150534	2025-12-22T18:36:20	3.6	89
150535	2025-12-22T18:46:20	3.6	89
150536	2025-12-22T18:56:20	3.5	89
150537	2025-12-22T19:06:20	3.6	89
150538	2025-12-22T19:16:20	3.6	89
150539	2025-12-22T19:26:20	3.6	88.5
150540	2025-12-22T19:36:20	3.6	89
150541	2025-12-22T19:46:20	3.6	89
150542	2025-12-22T19:56:20	3.6	89
150543	2025-12-22T20:06:20	3.6	89.5
150544	2025-12-22T20:16:20	3.5	89.5
150545	2025-12-22T20:26:20	3.5	89
150546	2025-12-22T20:36:20	3.5	89
150547	2025-12-22T20:46:20	3.4	89
150548	2025-12-22T20:56:20	3.4	89.5
150549	2025-12-22T21:06:20	3.5	89
150550	2025-12-22T21:16:20	3.4	89
150551	2025-12-22T21:26:20	3.4	89.5
150552	2025-12-22T21:36:20	3.3	89
150553	2025-12-22T21:46:20	3.4	89
150554	2025-12-22T21:56:20	3.4	89.5
150555	2025-12-22T22:06:20	3.4	89.5
150556	2025-12-22T22:16:20	3.3	89.5
150557	2025-12-22T22:26:20	3.2	90
150558	2025-12-22T22:36:20	3	90
150559	2025-12-22T22:46:20	3.2	90
150560	2025-12-22T22:56:19	3.2	90.5
150561	2025-12-22T23:06:19	3.3	90
150562	2025-12-22T23:16:19	3.3	90
150563	2025-12-22T23:26:19	3.3	89.5
150564	2025-12-22T23:36:19	3.2	90
150565	2025-12-22T23:46:19	3.2	89.5
150566	2025-12-22T23:56:19	3.2	89.5
150567	2025-12-23T00:06:19	3.2	89.5
150568	2025-12-23T00:16:19	3.2	89.5
150569	2025-12-23T00:26:19	3.2	89.5
150570	2025-12-23T00:36:19	3.2	90
150571	2025-12-23T00:46:19	3.2	89.5
150572	2025-12-23T00:56:19	3.1	89
150573	2025-12-23T01:06:19	3.1	88.5
150574	2025-12-23T01:16:19	3.1	88.5
150575	2025-12-23T01:26:19	3.1	88.5
150576	2025-12-23T01:36:19	3.2	89
150577	2025-12-23T01:46:19	3.1	88.5
150578	2025-12-23T01:56:19	3.2	88.5
150579	2025-12-23T02:06:19	3.2	88.5
150580	2025-12-23T02:16:19	3.1	88.5
150581	2025-12-23T02:26:19	3.2	88.5
150582	2025-12-23T02:36:19	3.2	88.5
150583	2025-12-23T02:46:19	3.1	89
150584	2025-12-23T02:56:19	3.1	88.5
150585	2025-12-23T03:06:19	3.1	89
150586	2025-12-23T03:16:19	3.2	89
150587	2025-12-23T03:26:19	3.1	89
150588	2025-12-23T03:36:19	3.1	88.5
150589	2025-12-23T03:46:19	3.2	88.5
150590	2025-12-23T03:56:19	3.2	88.5
150591	2025-12-23T04:06:19	3.2	88.5
150592	2025-12-23T04:16:19	3.2	88.5
150593	2025-12-23T04:26:19	3.2	88.5
150594	2025-12-23T04:36:19	3.2	89
150595	2025-12-23T04:46:19	3.2	89
150596	2025-12-23T04:56:19	3.3	89
150597	2025-12-23T05:06:19	3.3	89
150598	2025-12-23T05:16:19	3.3	89.5
150599	2025-12-23T05:26:19	3.3	89
150600	2025-12-23T05:36:19	3.2	89
150601	2025-12-23T05:46:19	3.2	89
150602	2025-12-23T05:56:19	3.2	89
150603	2025-12-23T06:06:19	3.2	88.5
150604	2025-12-23T06:16:19	3.2	88.5
150605	2025-12-23T06:26:19	3.2	88
150606	2025-12-23T06:36:19	3.1	88
150607	2025-12-23T06:46:19	3.2	88
150608	2025-12-23T06:56:19	3.2	88.5
150609	2025-12-23T07:06:19	3.2	88.5
150610	2025-12-23T07:16:19	3.2	88.5
150611	2025-12-23T07:26:19	3.2	89
150612	2025-12-23T07:36:19	3.2	88.5
150613	2025-12-23T07:46:19	3.3	88
150614	2025-12-23T07:56:19	3.3	88
150615	2025-12-23T08:06:19	3.3	88
150616	2025-12-23T08:16:19	3.4	88
150617	2025-12-23T08:26:19	3.4	88
150618	2025-12-23T08:36:19	3.4	88.5
150619	2025-12-23T08:46:19	3.3	88
150620	2025-12-23T08:56:19	3.5	87.5
150621	2025-12-23T09:06:19	3.6	87
150622	2025-12-23T09:16:19	3.6	87.5
150623	2025-12-23T09:26:19	3.7	87
150624	2025-12-23T09:36:19	3.6	87
150625	2025-12-23T09:46:19	3.7	87.5
150626	2025-12-23T09:56:19	3.7	87
150627	2025-12-23T10:06:19	3.9	87
150628	2025-12-23T10:16:19	4	87
150629	2025-12-23T10:26:19	3.9	86.5
150630	2025-12-23T10:36:19	4.1	86
150631	2025-12-23T10:46:19	4.1	86.5
150632	2025-12-23T10:56:19	4.1	86
150633	2025-12-23T11:06:19	4.2	86
150634	2025-12-23T11:16:19	4.2	85.5
150635	2025-12-23T11:26:19	4.1	85.5
150636	2025-12-23T11:36:19	4.2	85.5
150637	2025-12-23T11:46:19	4.2	85.5
150638	2025-12-23T11:56:19	4.4	85.5
150639	2025-12-23T12:06:19	4.3	85
150640	2025-12-23T12:16:19	4.3	84.5
150641	2025-12-23T12:26:19	4.4	83.5
150642	2025-12-23T12:36:19	4.4	84
150643	2025-12-23T12:46:19	4.4	83.5
150644	2025-12-23T12:56:19	4.4	84.5
150645	2025-12-23T13:06:19	4.4	84.5
150646	2025-12-23T13:16:19	4.4	84
150647	2025-12-23T13:26:19	4.4	84.5
150648	2025-12-23T13:36:19	4.4	84.5
150649	2025-12-23T13:46:19	4.5	85
150650	2025-12-23T13:56:19	4.3	85
150651	2025-12-23T14:06:19	4.3	85
150652	2025-12-23T14:16:19	4.3	85
150653	2025-12-23T14:26:19	4.4	85
150654	2025-12-23T14:36:19	4.3	85
150655	2025-12-23T14:46:19	4.4	84.5
150656	2025-12-23T14:56:19	4.4	84.5
150657	2025-12-23T15:06:19	4.4	84
150658	2025-12-23T15:16:19	4.4	84
150659	2025-12-23T15:26:19	4.4	84
150660	2025-12-23T15:36:19	4.4	84
150661	2025-12-23T15:46:19	4.4	84.5
150662	2025-12-23T15:56:19	4.4	84.5
150663	2025-12-23T16:06:19	4.3	84
150664	2025-12-23T16:16:19	4.3	84
150665	2025-12-23T16:26:19	4.3	84
150666	2025-12-23T16:36:19	4.3	84
150667	2025-12-23T16:46:19	4.4	84
150668	2025-12-23T16:56:19	4.4	84.5
150669	2025-12-23T17:06:19	4.4	84.5
150670	2025-12-23T17:16:19	4.5	84
150671	2025-12-23T17:26:19	4.3	84
150672	2025-12-23T17:36:19	4.3	83.5
150673	2025-12-23T17:46:19	4.4	84
150674	2025-12-23T17:56:19	4.4	84
150675	2025-12-23T18:06:19	4.4	82.5
150676	2025-12-23T18:16:19	4.4	82
150677	2025-12-23T18:26:19	4.5	82.5
150678	2025-12-23T18:36:19	4.5	82
150679	2025-12-23T18:46:19	4.6	82
150680	2025-12-23T18:56:19	4.5	82.5
150681	2025-12-23T19:06:19	4.4	83
150682	2025-12-23T19:16:19	4.5	82.5
150683	2025-12-23T19:26:19	4.5	82.5
150684	2025-12-23T19:36:19	4.5	82
150685	2025-12-23T19:46:19	4.5	82
150686	2025-12-23T19:56:19	4.5	81.5
150687	2025-12-23T20:06:19	4.5	80.5
150688	2025-12-23T20:16:19	4.6	81
150689	2025-12-23T20:26:19	4.6	81
150690	2025-12-23T20:36:19	4.6	80.5
150691	2025-12-23T20:46:19	4.6	80.5
150692	2025-12-23T20:56:19	4.7	81
150693	2025-12-23T21:06:19	4.8	81
150694	2025-12-23T21:16:19	4.6	81
150695	2025-12-23T21:26:19	4.6	80.5
150696	2025-12-23T21:36:19	4.7	81
150697	2025-12-23T21:46:19	4.8	80.5
150698	2025-12-23T21:56:19	4.7	81
150699	2025-12-23T22:06:19	4.6	80.5
150700	2025-12-23T22:16:19	4.7	81
150701	2025-12-23T22:26:19	4.8	80.5
150702	2025-12-23T22:36:19	4.7	80
150703	2025-12-23T22:46:19	4.7	80
150704	2025-12-23T22:56:19	4.8	80
150705	2025-12-23T23:06:19	4.8	80
150706	2025-12-23T23:16:19	4.7	81
150707	2025-12-23T23:26:19	4.6	82.5
150708	2025-12-23T23:36:19	4.7	84
150709	2025-12-23T23:46:19	4.6	85.5
150710	2025-12-23T23:56:19	4.5	86.5
150711	2025-12-24T00:06:19	4.5	87.5
150712	2025-12-24T00:16:19	4.5	88
150713	2025-12-24T00:26:19	4.5	88.5
150714	2025-12-24T00:36:19	4.4	88.5
150715	2025-12-24T00:46:19	4.4	89
150716	2025-12-24T00:56:19	4.3	89.5
150717	2025-12-24T01:06:19	4.2	89.5
150718	2025-12-24T01:16:19	4.2	89
150719	2025-12-24T01:26:19	4.2	88.5
150720	2025-12-24T01:36:19	4.1	88.5
150721	2025-12-24T01:46:19	4.1	89
150722	2025-12-24T01:56:19	4	89.5
150723	2025-12-24T02:06:19	3.9	90.5
150724	2025-12-24T02:16:19	3.9	90
150725	2025-12-24T02:26:19	3.8	89.5
150726	2025-12-24T02:36:19	3.7	90
150727	2025-12-24T02:46:19	3.8	89
150728	2025-12-24T02:56:19	3.7	87.5
150729	2025-12-24T03:06:19	3.6	87
150730	2025-12-24T03:16:19	3.6	86.5
150731	2025-12-24T03:26:19	3.6	86.5
150732	2025-12-24T03:36:19	3.6	85.5
150733	2025-12-24T03:46:19	3.6	85
150734	2025-12-24T03:56:19	3.5	85
150735	2025-12-24T04:06:19	3.4	84
150736	2025-12-24T04:16:19	3.4	84
150737	2025-12-24T04:26:19	3.3	83.5
150738	2025-12-24T04:36:19	3.3	84
150739	2025-12-24T04:46:19	3.2	83.5
150740	2025-12-24T04:56:19	3.2	83
150741	2025-12-24T05:06:19	3.2	82
150742	2025-12-24T05:16:19	3.2	81.5
150743	2025-12-24T05:26:19	3	81
150744	2025-12-24T05:36:19	2.9	80.5
150745	2025-12-24T05:46:19	2.9	80
150746	2025-12-24T05:56:19	2.9	80.5
150747	2025-12-24T06:06:19	2.8	81.5
150748	2025-12-24T06:16:19	2.8	81
150749	2025-12-24T06:26:19	2.8	80.5
150750	2025-12-24T06:36:19	2.7	80
150751	2025-12-24T06:46:19	2.7	80
150752	2025-12-24T06:56:19	2.6	79.5
150753	2025-12-24T07:06:19	2.6	79
150754	2025-12-24T07:16:19	2.7	78.5
150755	2025-12-24T07:26:19	2.6	78.5
150756	2025-12-24T07:36:19	2.7	78.5
150757	2025-12-24T07:46:19	2.7	78.5
150758	2025-12-24T07:56:18	2.6	78
150759	2025-12-24T08:06:19	2.6	79
150760	2025-12-24T08:16:18	2.6	81
150761	2025-12-24T08:26:18	2.6	78
150762	2025-12-24T08:36:18	2.5	77.5
150763	2025-12-24T08:46:18	2.7	77.5
150764	2025-12-24T08:56:18	2.7	78
150765	2025-12-24T09:06:18	2.8	77.5
150766	2025-12-24T09:16:18	2.8	78
150767	2025-12-24T09:26:18	2.8	78.5
150768	2025-12-24T09:36:18	2.9	78.5
150769	2025-12-24T09:46:18	2.8	78.5
150770	2025-12-24T09:56:18	2.9	79.5
150771	2025-12-24T10:06:18	2.9	79
150772	2025-12-24T10:16:18	2.9	79
150773	2025-12-24T10:26:18	3	77.5
150774	2025-12-24T10:36:18	3	78
150775	2025-12-24T10:46:18	3.1	78
150776	2025-12-24T10:56:18	3.2	76.5
150777	2025-12-24T11:06:18	3.3	75.5
150778	2025-12-24T11:16:18	3.3	75
150779	2025-12-24T11:26:18	3.2	74.5
150780	2025-12-24T11:36:18	3.2	74.5
150781	2025-12-24T11:46:18	3.2	75
150782	2025-12-24T11:56:18	3.1	75
150783	2025-12-24T12:06:18	3.2	75.5
150784	2025-12-24T12:16:18	3.1	74
150785	2025-12-24T12:26:18	3.2	73.5
150786	2025-12-24T12:36:18	3	73
150787	2025-12-24T12:46:18	3.1	73
150788	2025-12-24T12:56:18	3.1	73.5
150789	2025-12-24T13:06:18	3.2	74
150790	2025-12-24T13:16:18	3	82
150791	2025-12-24T13:26:18	3	79.5
150792	2025-12-24T13:36:18	3.1	83
150793	2025-12-24T13:46:18	2.9	82.5
150794	2025-12-24T13:56:18	2.7	83
150795	2025-12-24T14:06:18	2.7	82
150796	2025-12-24T14:16:18	2.6	81
150797	2025-12-24T14:26:18	2.7	80
150798	2025-12-24T14:36:18	2.6	78
150799	2025-12-24T14:46:18	2.5	77.5
150800	2025-12-24T14:56:37	2.5	76.5
150801	2025-12-24T15:06:18	2.4	75.5
150802	2025-12-24T15:16:18	2.4	75.5
150803	2025-12-24T15:26:18	2.4	75
150804	2025-12-24T15:36:18	2.3	75
150805	2025-12-24T15:46:18	2.1	74.5
150806	2025-12-24T15:56:18	2.1	75
150807	2025-12-24T16:06:18	2.1	74.5
150808	2025-12-24T16:16:18	2	74.5
150809	2025-12-24T16:26:18	2	75
150810	2025-12-24T16:36:18	1.9	75
150811	2025-12-24T16:46:18	1.9	74.5
150812	2025-12-24T16:56:18	1.9	74
150813	2025-12-24T17:06:18	1.9	74.5
150814	2025-12-24T17:16:18	1.9	74.5
150815	2025-12-24T17:26:18	1.8	74
150816	2025-12-24T17:36:18	1.8	74
150817	2025-12-24T17:46:18	1.8	74
150818	2025-12-24T17:56:18	1.7	73.5
150819	2025-12-24T18:06:18	1.8	74
150820	2025-12-24T18:16:18	1.7	74
150821	2025-12-24T18:26:18	1.6	74.5
150822	2025-12-24T18:36:18	1.6	74
150823	2025-12-24T18:46:18	1.6	74.5
150824	2025-12-24T18:56:18	1.5	74.5
150825	2025-12-24T19:06:18	1.5	75
150826	2025-12-24T19:16:18	1.5	75
150827	2025-12-24T19:26:18	1.5	75
150828	2025-12-24T19:36:18	1.4	75
150829	2025-12-24T19:46:18	1.6	74.5
150830	2025-12-24T19:56:18	1.5	73.5
150831	2025-12-24T20:06:18	1.5	73.5
150832	2025-12-24T20:16:18	1.7	74
150833	2025-12-24T20:26:18	1.6	74
150834	2025-12-24T20:36:18	1.6	74
150835	2025-12-24T20:46:18	1.5	74.5
150836	2025-12-24T20:56:18	1.5	74
150837	2025-12-24T21:06:18	1.5	74.5
150838	2025-12-24T21:16:18	1.5	74.5
150839	2025-12-24T21:26:18	1.4	75
150840	2025-12-24T21:36:18	1.5	75
150841	2025-12-24T21:46:18	1.5	75
150842	2025-12-24T21:56:18	1.5	75.5
150843	2025-12-24T22:06:18	1.4	75
150844	2025-12-24T22:16:18	1.4	75.5
150845	2025-12-24T22:26:18	1.5	75
150846	2025-12-24T22:36:18	1.5	75
150847	2025-12-24T22:46:18	1.4	75
150848	2025-12-24T22:56:18	1.4	75
150849	2025-12-24T23:06:18	1.4	75.5
150850	2025-12-24T23:16:18	1.4	75
150851	2025-12-24T23:26:18	1.4	75.5
150852	2025-12-24T23:36:18	1.4	76
150853	2025-12-24T23:46:18	1.4	75
150854	2025-12-24T23:56:18	1.4	75.5
150855	2025-12-25T00:06:18	1.3	75.5
150856	2025-12-25T00:16:18	1.2	75
150857	2025-12-25T00:26:18	1.3	75.5
150858	2025-12-25T00:36:18	1.1	75
150859	2025-12-25T00:46:18	1.2	75.5
150860	2025-12-25T00:56:18	1.2	75
150861	2025-12-25T01:06:18	1.1	75.5
150862	2025-12-25T01:16:18	1.1	76
150863	2025-12-25T01:26:18	1.1	75.5
150864	2025-12-25T01:36:18	1	76
150865	2025-12-25T01:46:18	1	76
150866	2025-12-25T01:56:18	0.9	76
150867	2025-12-25T02:06:18	1	76
150868	2025-12-25T02:16:18	0.9	76.5
150869	2025-12-25T02:26:18	1	76.5
150870	2025-12-25T02:36:18	0.9	76.5
150871	2025-12-25T02:46:18	0.9	76.5
150872	2025-12-25T02:56:18	0.8	77
150873	2025-12-25T03:06:18	0.9	77.5
150874	2025-12-25T03:16:18	0.9	77
150875	2025-12-25T03:26:18	0.9	77
150876	2025-12-25T03:36:18	0.9	77
150877	2025-12-25T03:46:18	0.8	77
150878	2025-12-25T03:56:18	0.8	77.5
150879	2025-12-25T04:06:18	0.7	77.5
150880	2025-12-25T04:16:18	0.7	77
150881	2025-12-25T04:26:18	0.7	77.5
150882	2025-12-25T04:36:18	0.7	77.5
150883	2025-12-25T04:46:18	0.7	77.5
150884	2025-12-25T04:56:18	0.7	77.5
150885	2025-12-25T05:06:18	0.6	78
150886	2025-12-25T05:16:18	0.6	78
150887	2025-12-25T05:26:18	0.6	78
150888	2025-12-25T05:36:18	0.5	78.5
150889	2025-12-25T05:46:18	0.4	78.5
150890	2025-12-25T05:56:18	0.5	78.5
150891	2025-12-25T06:06:18	0.4	79
150892	2025-12-25T06:16:18	0.4	79
150893	2025-12-25T06:26:18	0.4	79
150894	2025-12-25T06:36:18	0.3	79
150895	2025-12-25T06:46:18	0.3	79
150896	2025-12-25T06:56:18	0.3	79
150897	2025-12-25T07:06:18	0.3	79
150898	2025-12-25T07:16:18	0.3	79
150899	2025-12-25T07:26:18	0.3	79.5
150900	2025-12-25T07:36:18	0.2	79.5
150901	2025-12-25T07:46:18	0.3	79.5
150902	2025-12-25T07:56:18	0.2	79.5
150903	2025-12-25T08:06:18	0.2	79.5
150904	2025-12-25T08:16:18	0.2	79.5
150905	2025-12-25T08:26:18	0.3	79
150906	2025-12-25T08:36:18	0.4	79
150907	2025-12-25T08:46:18	0.4	79
150908	2025-12-25T08:56:18	0.5	79
150909	2025-12-25T09:06:18	0.6	79
150910	2025-12-25T09:16:18	0.7	78.5
150911	2025-12-25T09:26:18	0.8	78
150912	2025-12-25T09:36:18	1	78
150913	2025-12-25T09:46:18	1	77.5
150914	2025-12-25T09:56:18	1.1	77.5
150915	2025-12-25T10:06:18	1.2	77.5
150916	2025-12-25T10:16:18	1.3	76.5
150917	2025-12-25T10:26:18	1.4	76
150918	2025-12-25T10:36:18	1.5	76.5
150919	2025-12-25T10:46:18	1.6	76
150920	2025-12-25T10:56:18	1.7	75.5
150921	2025-12-25T11:06:18	1.9	75.5
150922	2025-12-25T11:16:18	1.9	75
150923	2025-12-25T11:26:18	2	75.5
150924	2025-12-25T11:36:18	2.1	75
150925	2025-12-25T11:46:18	2.4	75
150926	2025-12-25T11:56:18	2.5	74.5
150927	2025-12-25T12:06:18	2.7	74.5
150928	2025-12-25T12:16:18	3	73.5
150929	2025-12-25T12:26:18	2.9	73.5
150930	2025-12-25T12:36:18	3.2	74.5
150931	2025-12-25T12:46:18	3.2	74
150932	2025-12-25T12:56:18	3.3	73.5
150933	2025-12-25T13:06:18	3.6	73
150934	2025-12-25T13:16:18	4.2	71
150935	2025-12-25T13:26:18	5.3	68.5
150936	2025-12-25T13:36:18	5.4	67
150937	2025-12-25T13:46:18	5.6	67.5
150938	2025-12-25T13:56:18	6.7	64.5
150939	2025-12-25T14:06:18	6.2	66
150940	2025-12-25T14:16:18	6.3	65
150941	2025-12-25T14:26:18	8.2	61
150942	2025-12-25T14:36:18	8.3	60
150943	2025-12-25T14:46:18	5.9	66.5
150944	2025-12-25T14:56:18	4.8	69.5
150945	2025-12-25T15:06:18	3.9	72.5
150946	2025-12-25T15:16:18	3.3	74
150947	2025-12-25T15:26:18	2.9	76
150948	2025-12-25T15:36:18	2.5	77.5
150949	2025-12-25T15:46:18	2.1	79
150950	2025-12-25T15:56:18	1.9	80
150951	2025-12-25T16:06:18	1.6	81
150952	2025-12-25T16:16:18	1.3	82.5
150953	2025-12-25T16:26:18	0.9	83.5
150954	2025-12-25T16:36:18	0.8	84.5
150955	2025-12-25T16:46:18	0.6	85
150956	2025-12-25T16:56:18	0.5	86
150957	2025-12-25T17:06:18	0.3	86.5
150958	2025-12-25T17:16:18	0.2	87
150959	2025-12-25T17:26:18	0.1	87.5
150960	2025-12-25T17:36:18	0.1	88
150961	2025-12-25T17:46:18	0	88.5
150962	2025-12-25T17:56:18	-0.1	88.5
150963	2025-12-25T18:06:18	-0.1	88.5
150964	2025-12-25T18:16:18	-0.2	89
150965	2025-12-25T18:26:18	-0.2	89
150966	2025-12-25T18:36:18	-0.3	89
150967	2025-12-25T18:46:18	-0.3	89.5
150968	2025-12-25T18:56:18	-0.5	89.5
150969	2025-12-25T19:06:18	-0.6	90
150970	2025-12-25T19:16:18	-0.6	90.5
150971	2025-12-25T19:26:18	-0.7	90.5
150972	2025-12-25T19:36:18	-0.6	91
150973	2025-12-25T19:46:18	-0.9	91
150974	2025-12-25T19:56:18	-1	92
150975	2025-12-25T20:06:18	-1.1	92.5
150976	2025-12-25T20:16:18	-1.2	92.5
150977	2025-12-25T20:26:18	-1.1	93
150978	2025-12-25T20:36:18	-1.2	93
150979	2025-12-25T20:46:18	-1.3	93.5
150980	2025-12-25T20:56:18	-1.4	94
150981	2025-12-25T21:06:18	-1.6	94.5
150982	2025-12-25T21:16:18	-1.4	94.5
150983	2025-12-25T21:26:18	-1.4	94
150984	2025-12-25T21:36:18	-1.5	94.5
150985	2025-12-25T21:46:18	-1.4	94.5
150986	2025-12-25T21:56:18	-1.4	94
150987	2025-12-25T22:06:18	-1.5	93.5
150988	2025-12-25T22:16:18	-1.5	94
150989	2025-12-25T22:26:18	-1.5	93.5
150990	2025-12-25T22:36:18	-1.6	94
150991	2025-12-25T22:46:18	-1.7	94.5
150992	2025-12-25T22:56:18	-1.7	94
150993	2025-12-25T23:06:18	-1.6	94
150994	2025-12-25T23:16:18	-1.6	94
150995	2025-12-25T23:26:18	-1.7	94
150996	2025-12-25T23:36:18	-1.9	95
150997	2025-12-25T23:46:18	-1.7	95
150998	2025-12-25T23:56:18	-1.8	94.5
150999	2025-12-26T00:06:18	-1.9	95
151000	2025-12-26T00:16:18	-2	95.5
151001	2025-12-26T00:26:18	-2.1	96
151002	2025-12-26T00:36:18	-2.2	96.5
151003	2025-12-26T00:46:18	-2.1	96
151004	2025-12-26T00:56:18	-1.9	96
151005	2025-12-26T01:06:18	-1.8	95
151006	2025-12-26T01:16:18	-1.8	95
151007	2025-12-26T01:26:18	-1.6	95
151008	2025-12-26T01:36:18	-1.5	94
151009	2025-12-26T01:46:18	-1.3	94
151010	2025-12-26T01:56:18	-1.4	93.5
151011	2025-12-26T02:06:18	-1.6	94
151012	2025-12-26T02:16:18	-1.7	95
151013	2025-12-26T02:26:18	-1.9	95
151014	2025-12-26T02:36:18	-2	95.5
151015	2025-12-26T02:46:18	-2.2	96.5
151016	2025-12-26T02:56:18	-2.2	97
151017	2025-12-26T03:06:18	-2.2	97
151018	2025-12-26T03:16:18	-2.3	97.5
151019	2025-12-26T03:26:18	-2.3	98
151020	2025-12-26T03:36:18	-2.2	98
151021	2025-12-26T03:46:18	-2.1	97.5
151022	2025-12-26T03:56:18	-1.9	96.5
151023	2025-12-26T04:06:18	-1.8	96
151024	2025-12-26T04:16:18	-1.7	95.5
151025	2025-12-26T04:26:18	-1.7	95.5
151026	2025-12-26T04:36:18	-1.7	95
151027	2025-12-26T04:46:18	-1.8	96
151028	2025-12-26T04:56:18	-1.8	96.5
151029	2025-12-26T05:06:18	-1.8	97
151030	2025-12-26T05:16:18	-1.9	96.5
151031	2025-12-26T05:26:18	-2	97
151032	2025-12-26T05:36:18	-2.1	97
151033	2025-12-26T05:46:18	-2.1	97
151034	2025-12-26T05:56:18	-2.2	98
151035	2025-12-26T06:06:18	-2.4	98.5
151036	2025-12-26T06:16:18	-2.4	98.5
151037	2025-12-26T06:26:18	-2.4	98.5
151038	2025-12-26T06:36:18	-2.5	99
151039	2025-12-26T06:46:18	-2.5	99.5
151040	2025-12-26T06:56:18	-2.5	99.5
151041	2025-12-26T07:06:18	-2.6	99.5
151042	2025-12-26T07:16:18	-2.4	99.5
151043	2025-12-26T07:26:18	-2.3	99
151044	2025-12-26T07:36:18	-2.2	98.5
151045	2025-12-26T07:46:18	-2	98
151046	2025-12-26T07:56:18	-2	97.5
151047	2025-12-26T08:06:18	-2	97.5
151048	2025-12-26T08:16:18	-1.8	97.5
151049	2025-12-26T08:26:18	-1.6	97
151050	2025-12-26T08:36:18	-1.6	97
151051	2025-12-26T08:46:18	-1.5	97
151052	2025-12-26T08:56:18	-1.2	96.5
151053	2025-12-26T09:06:18	-1	95.5
151054	2025-12-26T09:16:18	-1.1	95.5
151055	2025-12-26T09:26:18	-0.8	95
151056	2025-12-26T09:36:18	-0.7	94.5
151057	2025-12-26T09:46:18	-0.7	94.5
151058	2025-12-26T09:56:18	-0.4	93.5
151059	2025-12-26T10:06:18	-0.2	92.5
151060	2025-12-26T10:16:18	-0.1	92.5
151061	2025-12-26T10:26:18	0	92.5
151062	2025-12-26T10:36:18	0.4	91.5
151063	2025-12-26T10:46:18	0.5	91
151064	2025-12-26T10:56:18	0.8	90.5
151065	2025-12-26T11:06:18	1.1	89.5
151066	2025-12-26T11:16:18	2.1	86.5
151067	2025-12-26T11:26:18	2.1	86
151068	2025-12-26T11:36:18	2.4	85
151069	2025-12-26T11:46:18	3.8	82
151070	2025-12-26T11:56:18	5.6	75
151071	2025-12-26T12:06:18	7.1	70
151072	2025-12-26T12:16:18	8.4	65.5
151073	2025-12-26T12:26:18	9.2	63.5
151074	2025-12-26T12:36:18	9.8	61
151075	2025-12-26T12:46:18	10.7	58.5
151076	2025-12-26T12:56:18	11.6	56
151077	2025-12-26T13:06:18	12.5	54
151078	2025-12-26T13:16:18	13	52
151079	2025-12-26T13:26:18	13.4	51.5
151080	2025-12-26T13:36:18	13.7	50
151081	2025-12-26T13:46:18	14.1	48.5
151082	2025-12-26T13:56:18	13.7	48.5
151083	2025-12-26T14:06:18	13.9	48
151084	2025-12-26T14:16:18	13.2	49.5
151085	2025-12-26T14:26:18	12.9	50.5
151086	2025-12-26T14:36:18	12.6	51.5
151087	2025-12-26T14:46:18	10.2	57
151088	2025-12-26T14:56:18	8.4	61.5
151089	2025-12-26T15:06:18	7.2	65.5
151090	2025-12-26T15:16:18	6.4	68.5
151091	2025-12-26T15:26:18	5.8	70
151092	2025-12-26T15:36:18	5.3	73
151093	2025-12-26T15:46:18	4.8	74.5
151094	2025-12-26T15:56:18	4.4	76.5
151095	2025-12-26T16:06:18	4.2	77
151096	2025-12-26T16:16:18	4.1	78
151097	2025-12-26T16:26:18	3.8	79
151098	2025-12-26T16:36:18	3.5	80
151099	2025-12-26T16:46:18	3.1	81
151100	2025-12-26T16:56:18	2.8	82.5
151101	2025-12-26T17:06:18	2.7	83
151102	2025-12-26T17:16:18	2.4	83.5
151103	2025-12-26T17:26:18	2.2	84.5
151104	2025-12-26T17:36:18	2	85.5
151105	2025-12-26T17:46:18	1.8	86
151106	2025-12-26T17:56:18	1.7	86.5
151107	2025-12-26T18:06:18	1.5	87.5
151108	2025-12-26T18:16:18	1.3	88
151109	2025-12-26T18:26:18	1.2	88.5
151110	2025-12-26T18:36:18	0.9	89
151111	2025-12-26T18:46:18	0.8	90
151112	2025-12-26T18:56:18	0.8	90.5
151113	2025-12-26T19:06:18	0.7	91
151114	2025-12-26T19:16:18	0.6	91.5
151115	2025-12-26T19:26:18	0.5	91.5
151116	2025-12-26T19:36:18	0.4	91.5
151117	2025-12-26T19:46:18	0.3	92
151118	2025-12-26T19:56:18	0.3	92
151119	2025-12-26T20:06:18	0.1	92
151120	2025-12-26T20:16:18	0.2	92.5
151121	2025-12-26T20:26:18	0	93
151122	2025-12-26T20:36:18	0	93.5
151123	2025-12-26T20:46:18	0	93.5
151124	2025-12-26T20:56:18	0	93.5
151125	2025-12-26T21:06:18	-0.2	94
151126	2025-12-26T21:16:18	-0.5	95
151127	2025-12-26T21:26:18	-0.5	95.5
151128	2025-12-26T21:36:18	-0.7	95.5
151129	2025-12-26T21:46:18	-0.6	96
151130	2025-12-26T21:56:18	-0.8	96.5
151131	2025-12-26T22:06:18	-0.9	96.5
151132	2025-12-26T22:16:18	-1.1	97
151133	2025-12-26T22:26:18	-1	97.5
151134	2025-12-26T22:36:18	-1.1	97.5
151135	2025-12-26T22:46:18	-1	97.5
151136	2025-12-26T22:56:18	-1	97.5
151137	2025-12-26T23:06:18	-1.2	98
151138	2025-12-26T23:16:18	-1.3	98
151139	2025-12-26T23:26:18	-1.3	98.5
151140	2025-12-26T23:36:18	-1.3	98
151141	2025-12-26T23:46:18	-1.2	98
151142	2025-12-26T23:56:18	-1.3	98.5
151143	2025-12-27T00:06:18	-1.3	98
151144	2025-12-27T00:16:18	-1.3	98
151145	2025-12-27T00:26:18	-1.4	98.5
151146	2025-12-27T00:36:18	-1.6	99
151147	2025-12-27T00:46:18	-1.6	99
151148	2025-12-27T00:56:18	-1.5	99.5
151149	2025-12-27T01:06:18	-1.4	99.5
151150	2025-12-27T01:16:18	-1.4	99.5
151151	2025-12-27T01:26:18	-1.4	99
151152	2025-12-27T01:36:18	-1.5	99
151153	2025-12-27T01:46:18	-1.7	99
151154	2025-12-27T01:56:18	-1.7	99.5
151155	2025-12-27T02:06:18	-1.9	100
151156	2025-12-27T02:16:18	-2	100
151157	2025-12-27T02:26:18	-1.8	100
151158	2025-12-27T02:36:18	-1.7	100
151159	2025-12-27T02:46:18	-1.8	100
151160	2025-12-27T02:56:18	-1.8	100
151161	2025-12-27T03:06:18	-1.8	100
151162	2025-12-27T03:16:18	-1.8	100
151163	2025-12-27T03:26:18	-1.7	100
151164	2025-12-27T03:36:18	-1.7	99.5
151165	2025-12-27T03:46:18	-1.7	99.5
151166	2025-12-27T03:56:18	-1.7	99
151167	2025-12-27T04:06:18	-1.7	99
151168	2025-12-27T04:16:18	-1.6	99
151169	2025-12-27T04:26:18	-1.7	98.5
151170	2025-12-27T04:36:18	-1.6	99
151171	2025-12-27T04:46:18	-1.5	98
151172	2025-12-27T04:56:18	-1.6	98
151173	2025-12-27T05:06:18	-1.5	98
151174	2025-12-27T05:16:18	-1.4	97.5
151175	2025-12-27T05:26:18	-1.4	97
151176	2025-12-27T05:36:18	-1.3	96.5
151177	2025-12-27T05:46:18	-1.3	96.5
151178	2025-12-27T05:56:18	-1.4	96
151179	2025-12-27T06:06:18	-1.6	97
151180	2025-12-27T06:16:18	-1.6	97
151181	2025-12-27T06:26:18	-1.7	97
151182	2025-12-27T06:36:18	-1.9	98
151183	2025-12-27T06:46:18	-2.3	99
151184	2025-12-27T06:56:18	-2.4	99.5
151185	2025-12-27T07:06:18	-2.5	100
151186	2025-12-27T07:16:18	-2.6	100
151187	2025-12-27T07:26:18	-2.7	100
151188	2025-12-27T07:36:18	-2.7	100
151189	2025-12-27T07:46:18	-2.6	100
151190	2025-12-27T07:56:18	-2.6	100
151191	2025-12-27T08:06:18	-2.8	100
151192	2025-12-27T08:16:18	-2.8	100
151193	2025-12-27T08:26:18	-2.6	100
151194	2025-12-27T08:36:18	-2.6	100
151195	2025-12-27T08:46:18	-2.4	100
151196	2025-12-27T08:56:18	-2.3	100
151197	2025-12-27T09:06:18	-2.1	100
151198	2025-12-27T09:16:18	-1.9	100
151199	2025-12-27T09:26:18	-1.5	100
151200	2025-12-27T09:36:18	-1.4	99.5
151201	2025-12-27T09:46:18	-1	99
151202	2025-12-27T09:56:18	-0.6	97.5
151203	2025-12-27T10:06:18	-0.5	96.5
151204	2025-12-27T10:16:18	-0.3	95
151205	2025-12-27T10:26:18	0	94
151206	2025-12-27T10:36:18	0.2	93
151207	2025-12-27T10:46:18	0.5	92
151208	2025-12-27T10:56:18	0.7	91
151209	2025-12-27T11:06:18	1.1	91.5
151210	2025-12-27T11:16:18	2.1	88
151211	2025-12-27T11:26:18	2.2	86.5
151212	2025-12-27T11:36:18	2.5	86.5
151213	2025-12-27T11:46:18	3.7	82.5
151214	2025-12-27T11:56:18	5.6	75.5
151215	2025-12-27T12:06:18	6.9	72
151216	2025-12-27T12:16:18	8.6	68
151217	2025-12-27T12:26:18	10.1	62.5
151218	2025-12-27T12:36:18	11.6	57.5
151219	2025-12-27T12:46:18	12.4	54.5
151220	2025-12-27T12:56:18	13	52.5
151221	2025-12-27T13:06:18	13.9	50.5
151222	2025-12-27T13:16:18	14	50
151223	2025-12-27T13:26:18	15.4	47
151224	2025-12-27T13:36:18	15.2	45.5
151225	2025-12-27T13:46:18	15.2	45.5
151226	2025-12-27T13:56:17	15.9	45
151227	2025-12-27T14:06:17	15.6	43.5
151228	2025-12-27T14:16:17	15.6	43
151229	2025-12-27T14:26:17	16.2	42.5
151230	2025-12-27T14:36:17	15.7	43
151231	2025-12-27T14:46:17	13.4	47
151232	2025-12-27T14:56:17	11.4	51
151233	2025-12-27T15:06:17	9.8	56.5
151234	2025-12-27T15:16:17	8.8	59
151235	2025-12-27T15:26:17	8.2	62
151236	2025-12-27T15:36:17	7.6	64.5
151237	2025-12-27T15:46:17	7.1	66.5
151238	2025-12-27T15:56:17	6.5	67.5
151239	2025-12-27T16:06:17	5.6	70.5
151240	2025-12-27T16:16:17	5.3	71
151241	2025-12-27T16:26:17	5	72
151242	2025-12-27T16:36:17	4.6	72.5
151243	2025-12-27T16:46:17	4.1	74
151244	2025-12-27T16:56:17	3.9	75
151245	2025-12-27T17:06:17	3.6	75.5
151246	2025-12-27T17:16:17	3.2	76
151247	2025-12-27T17:26:17	3	77
151248	2025-12-27T17:36:17	2.6	77.5
151249	2025-12-27T17:46:17	2.6	78.5
151250	2025-12-27T17:56:17	2.2	79
151251	2025-12-27T18:06:17	1.9	81
151252	2025-12-27T18:16:17	1.8	81
151253	2025-12-27T18:26:17	1.5	82
151254	2025-12-27T18:36:17	1.4	81.5
151255	2025-12-27T18:46:17	1.1	83
151256	2025-12-27T18:56:17	1	84
151257	2025-12-27T19:06:17	0.8	84
151258	2025-12-27T19:16:17	0.7	84.5
151259	2025-12-27T19:26:17	0.5	85.5
151260	2025-12-27T19:36:17	0.4	85.5
151261	2025-12-27T19:46:17	0.3	86.5
151262	2025-12-27T19:56:17	0.1	86
151263	2025-12-27T20:06:17	0	87
151264	2025-12-27T20:16:17	-0.1	87.5
151265	2025-12-27T20:26:17	-0.1	88
151266	2025-12-27T20:36:17	-0.3	88.5
151267	2025-12-27T20:46:17	-0.3	87.5
151268	2025-12-27T20:56:17	-0.5	89.5
151269	2025-12-27T21:06:17	-0.6	89
151270	2025-12-27T21:16:17	-0.7	89.5
151271	2025-12-27T21:26:17	-0.8	90
151272	2025-12-27T21:36:17	-0.9	90
151273	2025-12-27T21:46:17	-0.9	90.5
151274	2025-12-27T21:56:17	-1.1	90.5
151275	2025-12-27T22:06:17	-1.2	90
151276	2025-12-27T22:16:17	-1.4	91.5
151277	2025-12-27T22:26:17	-1.5	92
151278	2025-12-27T22:36:17	-1.6	92.5
151279	2025-12-27T22:46:17	-1.7	93
151280	2025-12-27T22:56:17	-1.7	93.5
151281	2025-12-27T23:06:17	-1.9	93.5
151282	2025-12-27T23:16:17	-1.9	93.5
151283	2025-12-27T23:26:17	-2	93.5
151284	2025-12-27T23:36:17	-1.9	94
151285	2025-12-27T23:46:17	-2.2	94
151286	2025-12-27T23:56:17	-2.3	94
151287	2025-12-28T00:06:17	-2.2	94.5
151288	2025-12-28T00:16:17	-2.3	94.5
151289	2025-12-28T00:26:17	-2.4	94.5
151290	2025-12-28T00:36:17	-2.5	95.5
151291	2025-12-28T00:46:17	-2.6	96.5
151292	2025-12-28T00:56:17	-2.6	96.5
151293	2025-12-28T01:06:17	-2.6	97
151294	2025-12-28T01:16:17	-2.6	96.5
151295	2025-12-28T01:26:17	-2.8	96.5
151296	2025-12-28T01:36:17	-3	96.5
151297	2025-12-28T01:46:17	-3.2	97
151298	2025-12-28T01:56:17	-3.2	97.5
151299	2025-12-28T02:06:17	-3.3	97.5
151300	2025-12-28T02:16:17	-3.3	98.5
151301	2025-12-28T02:26:17	-3.2	99
151302	2025-12-28T02:36:17	-3.2	99.5
151303	2025-12-28T02:46:17	-3.1	99.5
151304	2025-12-28T02:56:17	-3.1	99.5
151305	2025-12-28T03:06:17	-3.1	99.5
151306	2025-12-28T03:16:17	-3.1	100
151307	2025-12-28T03:26:17	-2.7	100
151308	2025-12-28T03:36:17	-2.7	100
151309	2025-12-28T03:46:17	-2.5	100
151310	2025-12-28T03:56:17	-2.5	100
151311	2025-12-28T04:06:17	-2.6	100
151312	2025-12-28T04:16:17	-2.9	100
151313	2025-12-28T04:26:17	-3.1	100
151314	2025-12-28T04:36:17	-3.3	100
151315	2025-12-28T04:46:17	-3.3	100
151316	2025-12-28T04:56:17	-3.4	100
151317	2025-12-28T05:06:17	-3.4	100
151318	2025-12-28T05:16:17	-3.3	100
151319	2025-12-28T05:26:17	-3.4	100
151320	2025-12-28T05:36:17	-3.3	100
151321	2025-12-28T05:46:17	-3.3	100
151322	2025-12-28T05:56:17	-3.5	100
151323	2025-12-28T06:06:17	-3.5	100
151324	2025-12-28T06:16:17	-3.4	100
151325	2025-12-28T06:26:17	-3.5	100
151326	2025-12-28T06:36:17	-3.5	100
151327	2025-12-28T06:46:17	-3.4	100
151328	2025-12-28T06:56:17	-3.5	100
151329	2025-12-28T07:06:17	-3.6	100
151330	2025-12-28T07:16:17	-3.5	100
151331	2025-12-28T07:26:17	-3.6	100
151332	2025-12-28T07:36:17	-3.8	100
151333	2025-12-28T07:46:17	-3.6	100
151334	2025-12-28T07:56:17	-3.6	100
151335	2025-12-28T08:06:17	-3.5	100
151336	2025-12-28T08:16:17	-3.3	100
151337	2025-12-28T08:26:17	-2.8	100
151338	2025-12-28T08:36:17	-2.6	100
151339	2025-12-28T08:46:17	-2.5	100
151340	2025-12-28T08:56:17	-2.3	100
151341	2025-12-28T09:06:17	-2.1	100
151342	2025-12-28T09:16:17	-1.9	100
151343	2025-12-28T09:26:17	-1.8	100
151344	2025-12-28T09:36:17	-1.6	100
151345	2025-12-28T09:46:17	-1.3	100
151346	2025-12-28T09:56:17	-1.2	99.5
151347	2025-12-28T10:06:17	-1	99
151348	2025-12-28T10:16:17	-0.8	99
151349	2025-12-28T10:26:17	-0.6	98.5
151350	2025-12-28T10:36:17	-0.4	98
151351	2025-12-28T10:46:17	0	97.5
151352	2025-12-28T10:56:17	0.1	96.5
151353	2025-12-28T11:06:17	0.5	95
151354	2025-12-28T11:16:17	1.6	91.5
151355	2025-12-28T11:26:17	1.8	91
151356	2025-12-28T11:36:17	2	90
151357	2025-12-28T11:46:17	3.2	85.5
151358	2025-12-28T11:56:17	5.2	77.5
151359	2025-12-28T12:06:17	6.6	72
151360	2025-12-28T12:16:17	7.9	67
151361	2025-12-28T12:26:17	8.8	64
151362	2025-12-28T12:36:17	9.7	60.5
151363	2025-12-28T12:46:17	10.5	58
151364	2025-12-28T12:56:17	11.2	55.5
151365	2025-12-28T13:06:17	11.9	53.5
151366	2025-12-28T13:16:17	12.2	52.5
151367	2025-12-28T13:26:17	12.7	51.5
151368	2025-12-28T13:36:17	13.4	50
151369	2025-12-28T13:46:17	13.7	48.5
151370	2025-12-28T13:56:17	13.8	48.5
151371	2025-12-28T14:06:17	13.8	47.5
151372	2025-12-28T14:16:17	13.8	48
151373	2025-12-28T14:26:17	13.8	48.5
151374	2025-12-28T14:36:17	13.5	48
151375	2025-12-28T14:46:17	11.2	53.5
151376	2025-12-28T14:56:17	9	58.5
151377	2025-12-28T15:06:17	7.4	64.5
151378	2025-12-28T15:16:17	6.5	67.5
151379	2025-12-28T15:26:17	5.9	70
151380	2025-12-28T15:36:17	5.3	72
151381	2025-12-28T15:46:17	4.7	74
151382	2025-12-28T15:56:17	4.2	76
151383	2025-12-28T16:06:17	3.9	77
151384	2025-12-28T16:16:17	3.7	78
151385	2025-12-28T16:26:17	3.3	79.5
151386	2025-12-28T16:36:17	3	80.5
151387	2025-12-28T16:46:17	2.8	81
151388	2025-12-28T16:56:17	2.5	82
151389	2025-12-28T17:06:17	2.3	83
151390	2025-12-28T17:16:17	2	83.5
151391	2025-12-28T17:26:17	1.8	84.5
151392	2025-12-28T17:36:17	1.5	85
151393	2025-12-28T17:46:17	1.2	86
151394	2025-12-28T17:56:17	1	86.5
151395	2025-12-28T18:06:17	0.8	87
151396	2025-12-28T18:16:17	0.6	87.5
151397	2025-12-28T18:26:17	0.4	87.5
151398	2025-12-28T18:36:17	0.2	88
151399	2025-12-28T18:46:17	0.1	88.5
151400	2025-12-28T18:56:17	0	89.5
151401	2025-12-28T19:06:17	0	89.5
151402	2025-12-28T19:16:17	-0.1	89
151403	2025-12-28T19:26:17	-0.2	88.5
151404	2025-12-28T19:36:17	-0.5	88.5
151405	2025-12-28T19:46:17	-0.8	88.5
151406	2025-12-28T19:56:17	-0.9	89
151407	2025-12-28T20:06:17	-1	89.5
151408	2025-12-28T20:16:17	-1.1	90
151409	2025-12-28T20:26:17	-1.2	90
151410	2025-12-28T20:36:17	-1	89.5
151411	2025-12-28T20:46:17	-1.3	89
151412	2025-12-28T20:56:17	-1.3	90
151413	2025-12-28T21:06:17	-1.5	90
151414	2025-12-28T21:16:17	-1.5	90.5
151415	2025-12-28T21:26:17	-1.5	90.5
151416	2025-12-28T21:36:17	-1.6	90.5
151417	2025-12-28T21:46:17	-1.7	90.5
151418	2025-12-28T21:56:17	-1.9	91
151419	2025-12-28T22:06:17	-2	91.5
151420	2025-12-28T22:16:17	-2.2	92
151421	2025-12-28T22:26:17	-2.3	92.5
151422	2025-12-28T22:36:17	-2.3	93
151423	2025-12-28T22:46:17	-2.5	93
151424	2025-12-28T22:56:17	-2.5	93
151425	2025-12-28T23:06:17	-2.6	93
151426	2025-12-28T23:16:17	-2.6	93
151427	2025-12-28T23:26:17	-2.8	93.5
151428	2025-12-28T23:36:17	-2.9	94
151429	2025-12-28T23:46:17	-3	94.5
151430	2025-12-28T23:56:17	-3	94.5
151431	2025-12-29T00:06:17	-3.1	94.5
151432	2025-12-29T00:16:17	-3.1	95
151433	2025-12-29T00:26:17	-3.1	95.5
151434	2025-12-29T00:36:17	-3.2	95.5
151435	2025-12-29T00:46:17	-3.3	96
151436	2025-12-29T00:56:17	-3.1	95.5
151437	2025-12-29T01:06:17	-3.2	95.5
151438	2025-12-29T01:16:17	-3.1	95.5
151439	2025-12-29T01:26:17	-3	95
151440	2025-12-29T01:36:17	-3	95
151441	2025-12-29T01:46:17	-3.1	95.5
151442	2025-12-29T01:56:17	-3.2	95.5
151443	2025-12-29T02:06:17	-3.2	96
151444	2025-12-29T02:16:17	-3.4	96
151445	2025-12-29T02:26:17	-3.5	96.5
151446	2025-12-29T02:36:17	-3.7	97.5
151447	2025-12-29T02:46:17	-3.8	98
151448	2025-12-29T02:56:17	-3.8	98
151449	2025-12-29T03:06:17	-3.7	98
151450	2025-12-29T03:16:17	-3.9	98
151451	2025-12-29T03:26:17	-3.9	98.5
151452	2025-12-29T03:36:17	-4.2	99
151453	2025-12-29T03:46:17	-4.2	99
151454	2025-12-29T03:56:17	-4.2	99
151455	2025-12-29T04:06:17	-4.4	99
151456	2025-12-29T04:16:17	-4.4	99.5
151457	2025-12-29T04:26:17	-4.4	100
151458	2025-12-29T04:36:17	-4.4	99.5
151459	2025-12-29T04:46:17	-4.6	99.5
151460	2025-12-29T04:56:17	-4.7	99.5
151461	2025-12-29T05:06:17	-4.8	100
151462	2025-12-29T05:16:17	-4.8	99.5
151463	2025-12-29T05:26:17	-5	99
151464	2025-12-29T05:36:17	-5	99
151465	2025-12-29T05:46:17	-5.1	98.5
151466	2025-12-29T05:56:17	-5.1	99
151467	2025-12-29T06:06:17	-5	100
151468	2025-12-29T06:16:17	-5.2	99.5
151469	2025-12-29T06:26:17	-5.3	99.5
151470	2025-12-29T06:36:17	-5.2	100
151471	2025-12-29T06:46:17	-5.2	100
151472	2025-12-29T06:56:17	-5.2	100
151473	2025-12-29T07:06:17	-5.4	100
151474	2025-12-29T07:16:17	-5.3	100
151475	2025-12-29T07:26:17	-5.6	100
151476	2025-12-29T07:36:17	-5.6	100
151477	2025-12-29T07:46:17	-5.6	100
151478	2025-12-29T07:56:17	-5.6	100
151479	2025-12-29T08:06:17	-5.7	100
151480	2025-12-29T08:16:17	-5.5	100
151481	2025-12-29T08:26:17	-5.2	100
151482	2025-12-29T08:36:17	-5	100
151483	2025-12-29T08:46:17	-4.6	100
151484	2025-12-29T08:56:17	-4.1	100
151485	2025-12-29T09:06:17	-3.8	100
151486	2025-12-29T09:16:17	-3.6	100
151487	2025-12-29T09:26:17	-3.5	100
151488	2025-12-29T09:36:17	-3.4	100
151489	2025-12-29T09:46:17	-3	100
151490	2025-12-29T09:56:17	-3	99
151491	2025-12-29T10:06:17	-2.6	98
151492	2025-12-29T10:16:17	-2.7	97
151493	2025-12-29T10:26:17	-2.5	96.5
151494	2025-12-29T10:36:17	-2.5	96
151495	2025-12-29T10:46:17	-2.3	96
151496	2025-12-29T10:56:17	-2.1	95.5
151497	2025-12-29T11:06:17	-2	95
151498	2025-12-29T11:16:17	-2	94
151499	2025-12-29T11:26:17	-1.8	94
151500	2025-12-29T11:36:17	-1.6	93
151501	2025-12-29T11:46:17	-1.1	92.5
151502	2025-12-29T11:56:17	-0.8	91
151503	2025-12-29T12:06:17	0.5	85.5
151504	2025-12-29T12:16:17	-0.1	87.5
151505	2025-12-29T12:26:17	2.3	82.5
151506	2025-12-29T12:36:17	3.8	76.5
151507	2025-12-29T12:46:17	5.7	70.5
151508	2025-12-29T12:56:17	7	66.5
151509	2025-12-29T13:06:17	7.7	63
151510	2025-12-29T13:16:17	8.8	60
151511	2025-12-29T13:26:17	9.3	57
151512	2025-12-29T13:36:17	9.6	57
151513	2025-12-29T13:46:17	8.7	57.5
151514	2025-12-29T13:56:17	8.8	58
151515	2025-12-29T14:06:17	8.1	59
151516	2025-12-29T14:16:17	8.1	59.5
151517	2025-12-29T14:26:17	8.9	58.5
151518	2025-12-29T14:36:17	8.5	58
151519	2025-12-29T14:46:17	6.5	63
151520	2025-12-29T14:56:17	4.7	67.5
151521	2025-12-29T15:06:17	3.2	73
151522	2025-12-29T15:16:17	2	77
151523	2025-12-29T15:26:17	1.9	78.5
151524	2025-12-29T15:36:17	2	78.5
151525	2025-12-29T15:46:17	2.1	78.5
151526	2025-12-29T15:56:17	2	78.5
151527	2025-12-29T16:06:17	1.3	80
151528	2025-12-29T16:16:17	1.4	80.5
151529	2025-12-29T16:26:17	1.4	81
151530	2025-12-29T16:36:17	1.3	81
151531	2025-12-29T16:46:17	1.2	81.5
151532	2025-12-29T16:56:17	0.9	82
151533	2025-12-29T17:06:17	0.8	83
151534	2025-12-29T17:16:17	0.9	83
151535	2025-12-29T17:26:17	0.8	83
151536	2025-12-29T17:36:17	0.8	84
151537	2025-12-29T17:46:17	0.7	83.5
151538	2025-12-29T17:56:17	0.7	84
151539	2025-12-29T18:06:17	0.7	84.5
151540	2025-12-29T18:16:17	0.5	85
151541	2025-12-29T18:26:17	0.6	85
151542	2025-12-29T18:36:17	0.5	85
151543	2025-12-29T18:46:17	0.5	85.5
151544	2025-12-29T18:56:17	0.5	86
151545	2025-12-29T19:06:17	0.5	85.5
151546	2025-12-29T19:16:17	0.5	86
151547	2025-12-29T19:26:17	0.4	86.5
151548	2025-12-29T19:36:17	0.4	87
151549	2025-12-29T19:46:17	0.4	86.5
151550	2025-12-29T19:56:17	0.3	87
151551	2025-12-29T20:06:17	-0.1	89
151552	2025-12-29T20:16:17	-0.1	89.5
151553	2025-12-29T20:26:17	-0.1	89.5
151554	2025-12-29T20:36:17	-0.2	90
151555	2025-12-29T20:46:17	-0.3	90
151556	2025-12-29T20:56:17	-0.2	90
151557	2025-12-29T21:06:17	-0.3	90.5
151558	2025-12-29T21:16:17	-0.2	90
151559	2025-12-29T21:26:17	-0.3	90.5
151560	2025-12-29T21:36:17	-0.3	90.5
151561	2025-12-29T21:46:17	-0.9	92
151562	2025-12-29T21:56:17	-1.2	94
151563	2025-12-29T22:06:17	-1.5	94.5
151564	2025-12-29T22:16:17	-1.9	95.5
151565	2025-12-29T22:26:17	-1.7	95.5
151566	2025-12-29T22:36:17	-1.4	94.5
151567	2025-12-29T22:46:17	-1.7	94.5
151568	2025-12-29T22:56:17	-2	95.5
151569	2025-12-29T23:06:17	-2	96
151570	2025-12-29T23:16:17	-1.6	94.5
151571	2025-12-29T23:26:17	-1.5	94
151572	2025-12-29T23:36:17	-1.5	93.5
151573	2025-12-29T23:46:17	-1.6	94
151574	2025-12-29T23:56:17	-1.7	94.5
151575	2025-12-30T00:06:17	-1.6	94
151576	2025-12-30T00:16:17	-1.7	94.5
151577	2025-12-30T00:26:17	-1.6	94.5
151578	2025-12-30T00:36:17	-1.7	95
151579	2025-12-30T00:46:17	-1.8	95.5
151580	2025-12-30T00:56:17	-1.6	95.5
151581	2025-12-30T01:06:17	-1.5	96.5
151582	2025-12-30T01:16:17	-1.6	96.5
151583	2025-12-30T01:26:17	-1.5	97
151584	2025-12-30T01:36:17	-1.5	97
151585	2025-12-30T01:46:17	-1.6	98.5
151586	2025-12-30T01:56:17	-1.5	97.5
151587	2025-12-30T02:06:17	-1.5	97.5
151588	2025-12-30T02:16:17	-1.2	97.5
151589	2025-12-30T02:26:17	-1.2	97.5
151590	2025-12-30T02:36:17	-1.3	97
151591	2025-12-30T02:46:17	-1.1	97.5
151592	2025-12-30T02:56:17	-1.2	97
151593	2025-12-30T03:06:17	-1.2	97
151594	2025-12-30T03:16:17	-1.1	97.5
151595	2025-12-30T03:26:17	-0.9	98
151596	2025-12-30T03:36:17	-0.9	97
151597	2025-12-30T03:46:17	-0.9	98
151598	2025-12-30T03:56:17	-0.8	98.5
151599	2025-12-30T04:06:17	-0.7	97.5
151600	2025-12-30T04:16:17	-0.8	97
151601	2025-12-30T04:26:17	-0.8	97
151602	2025-12-30T04:36:17	-0.7	97.5
151603	2025-12-30T04:46:17	-0.6	98.5
151604	2025-12-30T04:56:17	-0.6	98
151605	2025-12-30T05:06:17	-0.6	98
151606	2025-12-30T05:16:17	-0.5	98
151607	2025-12-30T05:26:17	-0.5	97.5
151608	2025-12-30T05:36:17	-0.4	97.5
151609	2025-12-30T05:46:17	-0.4	97
151610	2025-12-30T05:56:17	-0.5	96
151611	2025-12-30T06:06:17	-0.5	97
151612	2025-12-30T06:16:17	-0.4	97.5
151613	2025-12-30T06:26:17	-0.4	97
151614	2025-12-30T06:36:17	-0.5	97.5
151615	2025-12-30T06:46:17	-0.5	97.5
151616	2025-12-30T06:56:17	-0.8	98
151617	2025-12-30T07:06:17	-1.1	99
151618	2025-12-30T07:26:17	-1.1	100
151619	2025-12-30T07:36:17	-1.1	99.5
151620	2025-12-30T07:46:17	-1	100
151621	2025-12-30T07:56:17	-0.7	99.5
151622	2025-12-30T08:06:17	-0.6	99
151623	2025-12-30T08:16:17	-0.7	98.5
151624	2025-12-30T08:26:17	-1	99.5
151625	2025-12-30T08:36:17	-1.3	100
151626	2025-12-30T08:46:17	-1.3	100
151627	2025-12-30T08:56:17	-1.3	100
151628	2025-12-30T09:06:17	-1.3	100
151629	2025-12-30T09:16:17	-1.3	100
151630	2025-12-30T09:26:17	-1.2	100
151631	2025-12-30T09:36:17	-1.2	100
151632	2025-12-30T09:46:17	-1	100
151633	2025-12-30T09:56:17	-1	100
151634	2025-12-30T10:06:17	-0.8	100
151635	2025-12-30T10:16:17	-0.6	100
151636	2025-12-30T10:26:17	-0.5	100
151637	2025-12-30T10:36:17	-0.4	100
151638	2025-12-30T10:46:17	-0.2	100
151639	2025-12-30T10:56:17	0	100
151640	2025-12-30T11:06:17	0.3	99.5
151641	2025-12-30T11:16:17	1.2	98
151642	2025-12-30T11:26:17	1.6	95.5
151643	2025-12-30T11:36:17	2	94
151644	2025-12-30T11:46:17	3.1	92
151645	2025-12-30T11:56:17	5.3	83.5
151646	2025-12-30T12:06:17	7.2	75
151647	2025-12-30T12:16:17	8.5	70
151648	2025-12-30T12:26:17	9.4	62.5
151649	2025-12-30T12:36:17	10.7	59.5
151650	2025-12-30T12:46:17	11.6	53.5
151651	2025-12-30T12:56:17	12.1	50
151652	2025-12-30T13:06:17	13.1	48.5
151653	2025-12-30T13:16:17	13.5	46
151654	2025-12-30T13:26:17	14.3	43
151655	2025-12-30T13:36:17	14.6	41
151656	2025-12-30T13:46:17	13.8	38.5
151657	2025-12-30T13:56:17	14	36
151658	2025-12-30T14:06:17	14.6	37
151659	2025-12-30T14:16:17	14.2	36
151660	2025-12-30T14:26:17	11.2	41
151661	2025-12-30T14:36:17	9.3	46
151662	2025-12-30T14:46:17	8.3	47
151663	2025-12-30T14:56:17	7.8	49.5
151664	2025-12-30T15:06:17	6.7	54
151665	2025-12-30T15:16:17	5.9	56
151666	2025-12-30T15:26:17	5.4	59
151667	2025-12-30T15:36:17	4.8	61
151668	2025-12-30T15:46:17	4.2	65.5
151669	2025-12-30T15:56:17	3.7	68.5
151670	2025-12-30T16:06:17	3.3	69.5
151671	2025-12-30T16:16:17	2.9	71
151672	2025-12-30T16:26:17	2.6	72
151673	2025-12-30T16:36:17	2.3	73
151674	2025-12-30T16:46:17	2.1	73
151675	2025-12-30T16:56:17	1.7	74
151676	2025-12-30T17:06:17	1.4	74.5
151677	2025-12-30T17:16:17	1.1	75
151678	2025-12-30T17:26:17	0.9	76
151679	2025-12-30T17:36:17	0.8	76.5
151680	2025-12-30T17:46:17	0.6	77
151681	2025-12-30T17:56:17	0.2	78
151682	2025-12-30T18:06:17	0	79.5
151683	2025-12-30T18:16:17	-0.2	80
151684	2025-12-30T18:26:17	-0.4	80.5
151685	2025-12-30T18:36:17	-0.6	81
151686	2025-12-30T18:46:17	-0.8	82
151687	2025-12-30T18:56:17	-0.9	82
151688	2025-12-30T19:06:17	-1.1	82
151689	2025-12-30T19:16:17	-1.3	83
151690	2025-12-30T19:26:17	-1.6	83
151691	2025-12-30T19:36:17	-1.6	83.5
151692	2025-12-30T19:46:17	-1.9	84
151693	2025-12-30T19:56:17	-2	84.5
151694	2025-12-30T20:06:17	-2.2	85.5
151695	2025-12-30T20:16:17	-2.3	85.5
151696	2025-12-30T20:26:17	-2.5	85.5
151697	2025-12-30T20:36:17	-2.7	86.5
151698	2025-12-30T20:46:17	-2.9	87
151699	2025-12-30T20:56:17	-3.1	87.5
151700	2025-12-30T21:06:17	-3.1	88
151701	2025-12-30T21:16:17	-3.2	88
151702	2025-12-30T21:26:17	-3.4	88.5
151703	2025-12-30T21:36:17	-3.6	89
151704	2025-12-30T21:46:17	-3.7	88.5
151705	2025-12-30T21:56:17	-3.9	89
151706	2025-12-30T22:06:17	-3.9	90
151707	2025-12-30T22:16:17	-4.1	90
151708	2025-12-30T22:26:17	-4.2	90
151709	2025-12-30T22:36:17	-4.3	90
151710	2025-12-30T22:46:17	-4.4	90.5
151711	2025-12-30T22:56:17	-4.5	90.5
151712	2025-12-30T23:06:17	-4.6	91
151713	2025-12-30T23:16:17	-4.7	91.5
151714	2025-12-30T23:26:17	-4.8	91.5
151715	2025-12-30T23:36:17	-5	91.5
151716	2025-12-30T23:46:17	-5.2	91.5
151717	2025-12-30T23:56:17	-5.3	92.5
151718	2025-12-31T00:06:17	-5.3	92.5
151719	2025-12-31T00:16:17	-5.4	92.5
151720	2025-12-31T00:26:17	-5.6	92
151721	2025-12-31T00:36:17	-5.6	92.5
151722	2025-12-31T00:46:17	-5.7	92.5
151723	2025-12-31T00:56:17	-5.9	92.5
151724	2025-12-31T01:06:17	-5.8	93
151725	2025-12-31T01:16:17	-6	93
151726	2025-12-31T01:26:17	-6.2	93.5
151727	2025-12-31T01:36:17	-6.2	93.5
151728	2025-12-31T01:46:17	-6.2	93.5
151729	2025-12-31T01:56:17	-6.4	93.5
151730	2025-12-31T02:06:17	-6.5	94
151731	2025-12-31T02:16:17	-6.6	93.5
151732	2025-12-31T02:26:17	-6.7	94
151733	2025-12-31T02:36:17	-6.7	94.5
151734	2025-12-31T02:46:17	-6.8	94
151735	2025-12-31T02:56:17	-6.7	94
151736	2025-12-31T03:06:17	-6.8	94
151737	2025-12-31T03:16:17	-6.9	94
151738	2025-12-31T03:26:17	-7	94.5
151739	2025-12-31T03:36:17	-7.1	94.5
151740	2025-12-31T03:46:17	-7.2	94.5
151741	2025-12-31T03:56:17	-7.3	94.5
151742	2025-12-31T04:06:17	-7.3	95
151743	2025-12-31T04:16:17	-7.4	95
151744	2025-12-31T04:26:17	-7.5	94.5
151745	2025-12-31T04:36:17	-7.5	95
151746	2025-12-31T04:46:17	-7.5	95
151747	2025-12-31T04:56:17	-7.6	95
151748	2025-12-31T05:06:17	-7.6	95.5
151749	2025-12-31T05:16:17	-7.5	96
151750	2025-12-31T05:26:17	-7.7	96
151751	2025-12-31T05:36:17	-7.8	95.5
151752	2025-12-31T05:46:17	-7.9	96
151753	2025-12-31T05:56:17	-7.9	95.5
151754	2025-12-31T06:06:17	-7.9	96
151755	2025-12-31T06:16:17	-7.9	96
151756	2025-12-31T06:26:17	-8	96
151757	2025-12-31T06:36:17	-7.9	96.5
151758	2025-12-31T06:46:17	-7.6	96.5
151759	2025-12-31T06:56:17	-7.6	96.5
151760	2025-12-31T07:06:17	-7.2	95.5
151761	2025-12-31T07:16:17	-6.9	94.5
151762	2025-12-31T07:26:17	-6.4	94
151763	2025-12-31T07:36:17	-6	93.5
151764	2025-12-31T07:46:17	-5.8	93.5
151765	2025-12-31T07:56:17	-5.5	93.5
151766	2025-12-31T08:06:17	-5.3	93
151767	2025-12-31T08:16:17	-5.3	93.5
151768	2025-12-31T08:26:17	-4.9	93.5
151769	2025-12-31T08:36:17	-4.5	93
151770	2025-12-31T08:46:17	-4.1	92.5
151771	2025-12-31T08:56:17	-4	92
151772	2025-12-31T09:06:17	-3.6	88
151773	2025-12-31T09:16:17	-3.3	87.5
151774	2025-12-31T09:26:17	-2.9	87.5
151775	2025-12-31T09:36:17	-2.7	86.5
151776	2025-12-31T09:46:17	-2.4	87.5
151777	2025-12-31T09:56:17	-2	87
151778	2025-12-31T10:06:17	-1.7	83.5
151779	2025-12-31T10:16:17	-1	82
151780	2025-12-31T10:26:17	-0.9	80
151781	2025-12-31T10:36:17	-0.8	79
151782	2025-12-31T10:46:17	-0.5	80
151783	2025-12-31T10:56:17	-0.1	77.5
151784	2025-12-31T11:06:17	0.2	76.5
151785	2025-12-31T11:16:17	0.4	73.5
151786	2025-12-31T11:26:17	0.2	74
151787	2025-12-31T11:36:17	0	74.5
151788	2025-12-31T11:46:17	0.6	75.5
151789	2025-12-31T11:56:17	1.9	70.5
151790	2025-12-31T12:06:17	3	67
151791	2025-12-31T12:16:17	3.8	62.5
151792	2025-12-31T12:26:17	4.1	61
151793	2025-12-31T12:36:17	4.8	59
151794	2025-12-31T12:46:17	5.3	57
151795	2025-12-31T12:56:17	6	54.5
151796	2025-12-31T13:06:17	6.3	53.5
151797	2025-12-31T13:16:17	6.7	52
151798	2025-12-31T13:26:17	7.3	50.5
151799	2025-12-31T13:36:17	7.3	49
151800	2025-12-31T13:46:17	7.3	48
151801	2025-12-31T13:56:17	7.3	48.5
151802	2025-12-31T14:06:17	7.9	47.5
151803	2025-12-31T14:16:17	8.1	47
151804	2025-12-31T14:26:17	7.5	48
151805	2025-12-31T14:36:17	7.4	48.5
151806	2025-12-31T14:46:17	6.6	49.5
151807	2025-12-31T14:56:17	4.9	53
151808	2025-12-31T15:06:17	3.9	57
151809	2025-12-31T15:16:17	3.6	58
151810	2025-12-31T15:26:17	3.2	59
151811	2025-12-31T15:36:17	3	60.5
151812	2025-12-31T15:46:17	2.5	62
151813	2025-12-31T15:56:17	2.4	62.5
151814	2025-12-31T16:06:17	2.4	64
151815	2025-12-31T16:16:17	2.2	64
151816	2025-12-31T16:26:17	2.1	64.5
151817	2025-12-31T16:36:17	2	64.5
151818	2025-12-31T16:46:17	1.9	65.5
151819	2025-12-31T16:56:17	1.9	66
151820	2025-12-31T17:06:17	1.8	66.5
151821	2025-12-31T17:16:17	1.7	66
151822	2025-12-31T17:26:17	1.6	67
151823	2025-12-31T17:36:17	1.6	67.5
151824	2025-12-31T17:46:17	1.4	68.5
151825	2025-12-31T17:56:17	1	71.5
151826	2025-12-31T18:06:17	0.8	74
151827	2025-12-31T18:16:17	0.5	75.5
151828	2025-12-31T18:26:17	0.2	76.5
151829	2025-12-31T18:36:17	0.2	78
151830	2025-12-31T18:46:17	0.1	78.5
151831	2025-12-31T18:56:17	0.1	79.5
151832	2025-12-31T19:06:17	0	80.5
151833	2025-12-31T19:16:17	-0.3	81
151834	2025-12-31T19:26:17	-0.5	81.5
151835	2025-12-31T19:36:17	-0.7	82
151836	2025-12-31T19:46:17	-0.5	81
151837	2025-12-31T19:56:17	-0.6	80.5
151838	2025-12-31T20:06:17	-0.9	82
151839	2025-12-31T20:16:17	-1.1	83.5
151840	2025-12-31T20:26:17	-1	84
151841	2025-12-31T20:36:17	-0.6	83.5
151842	2025-12-31T20:46:17	-0.2	83
151843	2025-12-31T20:56:17	0	83
151844	2025-12-31T21:06:17	0	82.5
151845	2025-12-31T21:16:17	0	82.5
151846	2025-12-31T21:26:17	0	80
151847	2025-12-31T21:36:17	0	76
151848	2025-12-31T21:46:17	-0.1	75.5
151849	2025-12-31T21:56:17	-0.2	76
151850	2025-12-31T22:06:17	-0.5	76
151851	2025-12-31T22:16:17	-0.4	76
151852	2025-12-31T22:26:17	-0.4	75.5
151853	2025-12-31T22:36:17	-0.4	75.5
151854	2025-12-31T22:46:17	-0.4	75.5
151855	2025-12-31T22:56:17	-0.4	76
151856	2025-12-31T23:06:17	-0.4	77
151857	2025-12-31T23:16:17	-0.4	77.5
151858	2025-12-31T23:26:17	-0.4	78
151859	2025-12-31T23:36:17	-0.5	78
151860	2025-12-31T23:46:17	-0.4	78.5
151861	2025-12-31T23:56:17	-0.2	78.5
151862	2026-01-01T00:06:17	-0.1	78.5
151863	2026-01-01T00:16:17	-0.1	78.5
151864	2026-01-01T00:26:17	0	78
151865	2026-01-01T00:36:17	0	78
151866	2026-01-01T00:46:17	0	77.5
151867	2026-01-01T00:56:17	0	77
151868	2026-01-01T01:06:17	0.1	77.5
151869	2026-01-01T01:16:17	0	77.5
151870	2026-01-01T01:26:17	0	77
151871	2026-01-01T01:36:17	-0.1	76.5
151872	2026-01-01T01:46:17	0	75
151873	2026-01-01T01:56:17	0	73
151874	2026-01-01T02:06:17	0	72
151875	2026-01-01T02:16:17	-0.1	73
151876	2026-01-01T02:26:17	-0.1	73
151877	2026-01-01T02:36:17	-0.2	73.5
151878	2026-01-01T02:46:17	-0.2	74
151879	2026-01-01T02:56:17	-0.3	74.5
151880	2026-01-01T03:06:17	-0.4	74
151881	2026-01-01T03:16:17	-0.5	72.5
151882	2026-01-01T03:26:17	-0.8	73
151883	2026-01-01T03:36:17	-1.1	74.5
151884	2026-01-01T03:46:17	-1.6	75.5
151885	2026-01-01T03:56:17	-1.9	76
151886	2026-01-01T04:06:17	-1.9	76
151887	2026-01-01T04:16:17	-2.1	76.5
151888	2026-01-01T04:26:17	-2.2	75.5
151889	2026-01-01T04:36:17	-2.1	76
151890	2026-01-01T04:46:17	-2.3	76.5
151891	2026-01-01T04:56:17	-2.5	78
151892	2026-01-01T05:06:17	-2.7	79
151893	2026-01-01T05:16:17	-2.5	78
151894	2026-01-01T05:26:17	-2.5	78.5
151895	2026-01-01T05:36:17	-2.7	79
151896	2026-01-01T05:46:17	-2.6	78
151897	2026-01-01T05:56:39	-2.4	77.5
151898	2026-01-01T06:06:17	-2.2	76.5
151899	2026-01-01T06:16:17	-2.2	77
151900	2026-01-01T06:26:17	-2.2	77
151901	2026-01-01T06:36:17	-2.2	77
151902	2026-01-01T06:46:17	-2.1	78
151903	2026-01-01T06:56:17	-2	80
151904	2026-01-01T07:06:17	-2.1	81
151905	2026-01-01T07:16:17	-2.1	80.5
151906	2026-01-01T07:26:17	-2.3	78.5
151907	2026-01-01T07:36:17	-2.6	78.5
151908	2026-01-01T07:46:17	-2.4	77.5
151909	2026-01-01T07:56:17	-2.2	78.5
151910	2026-01-01T08:06:17	-2.1	78.5
151911	2026-01-01T08:16:17	-2	76.5
151912	2026-01-01T08:26:17	-1.7	73
151913	2026-01-01T08:36:17	-1.6	71.5
151914	2026-01-01T08:46:17	-1.3	70.5
151915	2026-01-01T08:56:17	-1.1	69.5
151916	2026-01-01T09:06:17	-1	68.5
151917	2026-01-01T09:16:17	-0.7	67.5
151918	2026-01-01T09:26:17	-0.5	67
151919	2026-01-01T09:36:17	-0.4	67
151920	2026-01-01T09:46:17	-0.3	66
151921	2026-01-01T09:56:17	0	63.5
151922	2026-01-01T10:06:17	-0.1	65
151923	2026-01-01T10:16:17	-0.2	66
151924	2026-01-01T10:26:17	-0.1	67.5
151925	2026-01-01T10:36:17	-0.1	68.5
151926	2026-01-01T10:46:17	-0.2	67.5
151927	2026-01-01T10:56:17	0	67.5
151928	2026-01-01T11:06:17	0	68
151929	2026-01-01T11:16:17	0	68.5
151930	2026-01-01T11:26:17	0	68.5
151931	2026-01-01T11:36:17	0.2	69
151932	2026-01-01T11:46:17	0.5	68.5
151933	2026-01-01T11:56:17	1.5	66
151934	2026-01-01T12:06:17	2.5	65
151935	2026-01-01T12:16:17	2.2	67.5
151936	2026-01-01T12:26:17	2.4	67.5
151937	2026-01-01T12:36:17	2.2	69
151938	2026-01-01T12:46:17	1.7	71.5
151939	2026-01-01T12:56:17	1.3	73
151940	2026-01-01T13:06:17	1.5	73
151941	2026-01-01T13:16:17	1.3	73.5
151942	2026-01-01T13:26:17	1.1	75
151943	2026-01-01T13:36:17	1.1	75.5
151944	2026-01-01T13:46:17	0.9	76
151945	2026-01-01T13:56:17	1	77
151946	2026-01-01T14:06:17	1	77.5
151947	2026-01-01T14:16:17	1	78
151948	2026-01-01T14:26:17	1.6	75.5
151949	2026-01-01T14:36:17	1.6	76
151950	2026-01-01T14:41:11	1.5	76.5
151951	2026-01-01T14:51:11	1.2	77.5
151952	2026-01-01T15:01:11	1	78
151953	2026-01-01T15:11:11	1	78.5
151954	2026-01-01T15:21:11	0.8	78
151955	2026-01-01T15:31:11	0.8	78
151956	2026-01-01T15:41:11	0.7	77.5
151957	2026-01-01T15:51:11	0.7	77.5
151958	2026-01-01T16:01:11	0.7	77
151959	2026-01-01T16:11:11	0.7	76
151960	2026-01-01T16:21:11	0.4	76
151961	2026-01-01T16:31:11	0.5	76.5
151962	2026-01-01T16:41:11	0.6	75.5
151963	2026-01-01T16:51:11	0.6	74.5
151964	2026-01-01T17:01:11	0.5	74
151965	2026-01-01T17:11:11	0.7	72
151966	2026-01-01T17:21:11	1.1	69
151967	2026-01-01T17:31:11	1.4	66.5
151968	2026-01-01T17:41:11	1.7	65
151969	2026-01-01T17:51:11	1.8	63.5
151970	2026-01-01T18:01:11	1.9	62
151971	2026-01-01T18:11:11	2	61.5
151972	2026-01-01T18:21:11	2.1	60.5
151973	2026-01-01T18:31:11	2.2	59.5
151974	2026-01-01T18:41:11	2.3	58.5
151975	2026-01-01T18:51:11	2.5	58.5
151976	2026-01-01T19:01:11	2.5	58.5
151977	2026-01-01T19:11:11	2.5	59.5
151978	2026-01-01T19:21:11	2.6	59.5
151979	2026-01-01T19:31:11	2.6	59
151980	2026-01-01T19:41:11	2.6	59
151981	2026-01-01T19:51:11	2.6	60
151982	2026-01-01T20:01:11	2.6	61.5
151983	2026-01-01T20:11:11	2.7	63.5
151984	2026-01-01T20:21:11	2.7	63.5
151985	2026-01-01T20:31:11	2.6	64.5
151986	2026-01-01T20:41:11	2.6	63.5
151987	2026-01-01T20:51:11	2.7	64.5
151988	2026-01-01T21:01:11	2.7	64.5
151989	2026-01-01T21:11:11	2.8	65
151990	2026-01-01T21:21:11	2.9	64
151991	2026-01-01T21:31:11	2.9	63.5
151992	2026-01-01T21:41:11	2.9	62.5
151993	2026-01-01T21:51:11	2.9	63
151994	2026-01-01T22:01:11	2.9	63.5
151995	2026-01-01T22:11:11	3	64.5
151996	2026-01-01T22:21:11	2.9	65
151997	2026-01-01T22:31:11	2.9	65.5
151998	2026-01-01T22:41:11	2.8	66.5
151999	2026-01-01T22:51:11	2.7	67
152000	2026-01-01T23:01:11	2.4	72.5
152001	2026-01-01T23:11:11	2.5	71
152002	2026-01-01T23:21:11	2.4	73.5
152003	2026-01-01T23:31:11	2.2	78.5
152004	2026-01-01T23:41:11	1.8	89.5
152005	2026-01-01T23:51:11	1.6	83.5
152006	2026-01-02T00:01:11	1.4	84.5
152007	2026-01-02T00:11:11	1.1	89.5
152008	2026-01-02T00:21:11	0.7	94
152009	2026-01-02T00:31:11	0.5	93
152010	2026-01-02T00:41:11	0.3	94.5
152011	2026-01-02T00:51:11	0.2	96
152012	2026-01-02T01:01:11	0.1	96.5
152013	2026-01-02T01:11:11	0.1	97
152014	2026-01-02T01:21:11	0.1	96.5
152015	2026-01-02T01:31:11	0.1	97
152016	2026-01-02T01:41:11	0.2	97.5
152017	2026-01-02T01:51:11	0.3	97.5
152018	2026-01-02T02:01:11	0.4	97
152019	2026-01-02T02:11:11	0.4	95.5
152020	2026-01-02T02:21:11	0.6	94
152021	2026-01-02T02:31:11	0.6	88
152022	2026-01-02T02:41:11	0.8	87.5
152023	2026-01-02T02:51:11	0.9	89.5
152024	2026-01-02T03:01:11	1	90.5
152025	2026-01-02T03:11:11	1	90.5
152026	2026-01-02T03:21:11	1	91
152027	2026-01-02T03:31:11	1	92.5
152028	2026-01-02T03:41:11	0.9	94
152029	2026-01-02T03:51:11	0.6	97
152030	2026-01-02T04:01:11	0.4	99.5
152031	2026-01-02T04:11:11	0.5	99.5
152032	2026-01-02T04:21:11	0.5	98
152033	2026-01-02T04:31:11	0.6	97
152034	2026-01-02T04:41:11	0.5	96
152035	2026-01-02T04:51:11	0.6	94
152036	2026-01-02T05:01:11	0.8	93.5
152037	2026-01-02T05:11:11	0.9	93.5
152038	2026-01-02T05:21:11	1	93
152039	2026-01-02T05:31:11	1.1	92
152040	2026-01-02T05:41:11	1.1	92
152041	2026-01-02T05:51:11	1	93
152042	2026-01-02T06:01:11	0.8	96.5
152043	2026-01-02T06:11:11	0.6	98.5
152044	2026-01-02T06:21:11	0.5	99
152045	2026-01-02T06:31:11	0.6	98.5
152046	2026-01-02T06:41:11	0.5	98
152047	2026-01-02T06:51:11	0.6	96
152048	2026-01-02T07:01:11	0.5	96
152049	2026-01-02T07:11:11	0.6	95.5
152050	2026-01-02T07:21:11	0.8	95.5
152051	2026-01-02T07:31:11	0.7	95.5
152052	2026-01-02T07:41:11	0.8	94.5
152053	2026-01-02T07:51:11	0.8	94
152054	2026-01-02T08:01:11	0.8	94.5
152055	2026-01-02T08:11:11	0.8	94
152056	2026-01-02T08:21:11	0.9	93.5
152057	2026-01-02T08:31:11	1.2	92.5
152058	2026-01-02T08:41:11	1.1	92.5
152059	2026-01-02T08:51:11	1.2	92.5
152060	2026-01-02T09:01:11	1.2	92.5
152061	2026-01-02T09:11:11	1.4	93
152062	2026-01-02T09:21:11	1.4	93.5
152063	2026-01-02T09:31:11	1.4	92.5
152064	2026-01-02T09:41:11	1.7	91.5
152065	2026-01-02T09:51:11	1.9	90.5
152066	2026-01-02T10:01:11	1.9	90
152067	2026-01-02T10:11:11	2	89.5
152068	2026-01-02T10:21:11	2.1	88.5
152069	2026-01-02T10:31:11	2.1	87.5
152070	2026-01-02T10:41:11	2.2	87
152071	2026-01-02T10:51:11	2.3	86.5
152072	2026-01-02T11:01:11	2.3	86
152073	2026-01-02T11:11:11	2.4	86
152074	2026-01-02T11:21:11	2.3	86
152075	2026-01-02T11:31:11	2.4	85.5
152076	2026-01-02T11:41:11	2.4	85
152077	2026-01-02T11:51:11	2.5	85
152078	2026-01-02T12:01:11	2.5	84
152079	2026-01-02T12:11:11	2.6	83
152080	2026-01-02T12:21:11	2.6	82.5
152081	2026-01-02T12:31:11	2.6	82
152082	2026-01-02T12:41:11	2.7	81.5
152083	2026-01-02T12:51:11	2.8	81.5
152084	2026-01-02T13:01:11	2.7	81.5
152085	2026-01-02T13:11:11	2.7	82
152086	2026-01-02T13:21:11	2.7	81.5
152087	2026-01-02T13:31:11	2.6	85
152088	2026-01-02T13:41:11	2.6	86
152089	2026-01-02T13:51:11	2.5	84
152090	2026-01-02T14:01:11	2.5	84
152091	2026-01-02T14:11:11	2.7	82.5
152092	2026-01-02T14:21:11	3.9	79
152093	2026-01-02T14:31:11	3.7	79
152094	2026-01-02T14:41:11	4.9	74
152095	2026-01-02T14:51:11	3.4	78.5
152096	2026-01-02T15:01:11	3	79.5
152097	2026-01-02T15:11:11	2.9	80
152098	2026-01-02T15:21:11	2.7	82.5
152099	2026-01-02T15:31:11	1.9	90.5
152100	2026-01-02T15:41:11	1.3	96.5
152101	2026-01-02T15:51:11	0.7	99.5
152102	2026-01-02T16:01:11	0.3	100
152103	2026-01-02T16:11:11	0.2	100
152104	2026-01-02T16:21:11	0	100
152105	2026-01-02T16:31:11	0	100
152106	2026-01-02T16:41:11	0	100
152107	2026-01-02T16:51:11	0	100
152108	2026-01-02T17:01:11	0	100
152109	2026-01-02T17:11:11	0.1	100
152110	2026-01-02T17:21:11	0	100
152111	2026-01-02T17:31:11	0.1	100
152112	2026-01-02T17:41:11	0.1	100
152113	2026-01-02T17:51:11	0.1	100
152114	2026-01-02T18:01:11	0.3	100
152115	2026-01-02T18:11:11	0.3	100
152116	2026-01-02T18:21:11	0.3	100
152117	2026-01-02T18:31:11	0.5	100
152118	2026-01-02T18:41:11	0.4	100
152119	2026-01-02T18:51:11	0.5	100
152120	2026-01-02T19:01:11	0.4	100
152121	2026-01-02T19:11:11	0.5	100
152122	2026-01-02T19:21:11	0.5	100
152123	2026-01-02T19:31:11	0.5	100
152124	2026-01-02T19:41:11	0.4	100
152125	2026-01-02T19:51:11	0.3	100
152126	2026-01-02T20:01:11	0.2	100
152127	2026-01-02T20:11:11	0.1	100
152128	2026-01-02T20:21:11	0.1	100
152129	2026-01-02T20:31:11	0	100
152130	2026-01-02T20:41:11	0	100
152131	2026-01-02T20:51:11	-0.1	100
152132	2026-01-02T21:01:11	-0.2	100
152133	2026-01-02T21:11:11	0	99.5
152134	2026-01-02T21:21:11	0	97.5
152135	2026-01-02T21:31:11	0	96.5
152136	2026-01-02T21:41:11	0	96.5
152137	2026-01-02T21:51:11	0.1	96
152138	2026-01-02T22:01:11	0	96.5
152139	2026-01-02T22:11:11	0.1	96
152140	2026-01-02T22:21:11	0	96
152141	2026-01-02T22:31:11	0	96
152142	2026-01-02T22:41:11	0	96.5
152143	2026-01-02T22:51:11	0	96
152144	2026-01-02T23:01:11	-0.1	96.5
152145	2026-01-02T23:11:11	-0.3	96
152146	2026-01-02T23:21:11	-0.3	95
152147	2026-01-02T23:31:11	-0.4	94.5
152148	2026-01-02T23:41:11	-0.6	94.5
152149	2026-01-02T23:51:11	-0.6	93.5
152150	2026-01-03T00:01:11	-0.9	94
152151	2026-01-03T00:11:11	-0.9	94.5
152152	2026-01-03T00:21:11	-0.7	94.5
152153	2026-01-03T00:31:11	-0.5	93.5
152154	2026-01-03T00:41:11	-0.4	93
152155	2026-01-03T00:51:11	-0.4	92.5
152156	2026-01-03T01:01:11	-0.3	93
152157	2026-01-03T01:11:11	-0.4	93
152158	2026-01-03T01:21:11	-0.3	92.5
152159	2026-01-03T01:31:11	-0.3	91.5
152160	2026-01-03T01:41:11	-0.2	91
152161	2026-01-03T01:51:11	-0.1	90
152162	2026-01-03T02:01:11	-0.2	90
152163	2026-01-03T02:11:11	-0.2	88.5
152164	2026-01-03T02:21:11	-0.2	89
152165	2026-01-03T02:31:11	-0.2	89.5
152166	2026-01-03T02:41:11	-0.2	88.5
152167	2026-01-03T02:51:11	-0.1	89
152168	2026-01-03T03:01:11	-0.1	89
152169	2026-01-03T03:11:11	-0.2	88.5
152170	2026-01-03T03:21:11	-0.2	89
152171	2026-01-03T03:31:11	-0.2	89
152172	2026-01-03T03:41:11	-0.2	89
152173	2026-01-03T03:51:11	-0.2	89.5
152174	2026-01-03T04:01:11	-0.3	89
152175	2026-01-03T04:11:11	-0.1	89
152176	2026-01-03T04:21:11	-0.3	88
152177	2026-01-03T04:31:11	-0.3	87.5
152178	2026-01-03T04:41:11	-0.3	87.5
152179	2026-01-03T04:51:11	-0.3	87.5
152180	2026-01-03T05:01:11	-0.3	87
152181	2026-01-03T05:11:11	-0.3	86.5
152182	2026-01-03T05:21:11	-0.3	86.5
152183	2026-01-03T05:31:28	-0.3	86.5
152184	2026-01-03T05:41:11	-0.4	86.5
152185	2026-01-03T05:51:11	-0.4	86
152186	2026-01-03T06:01:11	-0.4	86
152187	2026-01-03T06:11:11	-0.4	86
152188	2026-01-03T06:21:11	-0.5	86.5
152189	2026-01-03T06:31:11	-0.6	87
152190	2026-01-03T06:41:11	-0.6	86.5
152191	2026-01-03T06:51:11	-0.6	86.5
152192	2026-01-03T07:01:11	-0.7	87
152193	2026-01-03T07:11:11	-0.8	87.5
152194	2026-01-03T07:21:11	-0.9	87
152195	2026-01-03T07:31:11	-0.8	86.5
152196	2026-01-03T07:41:11	-0.9	86.5
152197	2026-01-03T07:51:11	-0.9	85.5
152198	2026-01-03T08:01:11	-1	86
152199	2026-01-03T08:11:11	-1.1	85.5
152200	2026-01-03T08:21:11	-1.2	86
152201	2026-01-03T08:31:11	-1.2	86
152202	2026-01-03T08:41:11	-1.1	86
152203	2026-01-03T08:51:11	-1.1	85.5
152204	2026-01-03T09:01:11	-0.8	84.5
152205	2026-01-03T09:11:11	-1	85
152206	2026-01-03T09:21:11	-1.1	85.5
152207	2026-01-03T09:31:11	-1.2	86
152208	2026-01-03T09:41:11	-1.2	85.5
152209	2026-01-03T09:51:11	-1	85.5
152210	2026-01-03T10:01:11	-1	85
152211	2026-01-03T10:11:11	-0.8	84.5
152212	2026-01-03T10:21:11	-0.4	83
152213	2026-01-03T10:31:11	-0.5	82
152214	2026-01-03T10:41:11	-0.5	81.5
152215	2026-01-03T10:51:11	-0.1	80.5
152216	2026-01-03T11:01:11	0.1	79.5
152217	2026-01-03T11:11:11	0	79.5
152218	2026-01-03T11:21:11	0.2	78.5
152219	2026-01-03T11:31:11	0.6	76
152220	2026-01-03T11:41:11	0.8	76
152221	2026-01-03T11:51:11	1.6	72.5
152222	2026-01-03T12:01:11	2.1	70.5
152223	2026-01-03T12:11:11	1.5	71.5
152224	2026-01-03T12:21:11	1.7	72
152225	2026-01-03T12:31:11	1.6	72
152226	2026-01-03T12:41:11	1.2	73.5
152227	2026-01-03T12:51:11	0.8	79.5
152228	2026-01-03T13:01:11	0	95.5
152229	2026-01-03T13:11:11	-0.1	95.5
152230	2026-01-03T13:21:11	-0.2	94
152231	2026-01-03T13:31:11	-0.4	94
152232	2026-01-03T13:41:11	-0.4	95.5
152233	2026-01-03T13:51:11	-0.4	97.5
152234	2026-01-03T14:01:11	-0.6	97.5
152235	2026-01-03T14:11:11	-0.6	97.5
152236	2026-01-03T14:21:11	-0.7	98
152237	2026-01-03T14:31:11	-0.6	98.5
152238	2026-01-03T14:41:11	-0.5	98.5
152239	2026-01-03T14:51:11	-0.5	98
152240	2026-01-03T15:01:11	-0.6	98
152241	2026-01-03T15:11:11	-0.6	98
152242	2026-01-03T15:21:11	-0.5	98
152243	2026-01-03T15:31:31	-0.5	97.5
152244	2026-01-03T15:41:11	-0.5	97.5
152245	2026-01-03T15:51:11	-0.5	97.5
152246	2026-01-03T16:01:11	-0.5	97
152247	2026-01-03T16:11:11	-0.5	97
152248	2026-01-03T16:21:11	-0.4	96
152249	2026-01-03T16:31:11	-0.4	96
152250	2026-01-03T16:41:11	-0.3	94.5
152251	2026-01-03T16:51:11	-0.4	94
152252	2026-01-03T17:01:11	-0.3	95
152253	2026-01-03T17:11:11	-0.5	94.5
152254	2026-01-03T17:21:11	-0.4	93.5
152255	2026-01-03T17:31:11	-0.5	93.5
152256	2026-01-03T17:41:11	-0.6	93.5
152257	2026-01-03T17:51:11	-0.9	94
152258	2026-01-03T18:01:11	-0.7	93.5
152259	2026-01-03T18:11:11	-0.7	94
152260	2026-01-03T18:21:11	-0.8	95
152261	2026-01-03T18:31:11	-0.7	95.5
152262	2026-01-03T18:41:11	-0.7	95.5
152263	2026-01-03T18:51:11	-0.7	95
152264	2026-01-03T19:01:11	-0.8	95
152265	2026-01-03T19:11:11	-0.9	94.5
152266	2026-01-03T19:21:11	-0.9	94.5
152267	2026-01-03T19:31:11	-0.9	93.5
152268	2026-01-03T19:41:11	-1	93.5
152269	2026-01-03T19:51:11	-1.2	93
152270	2026-01-03T20:01:11	-1.2	93.5
152271	2026-01-03T20:11:11	-1.2	93
152272	2026-01-03T20:21:11	-1.1	92.5
152273	2026-01-03T20:31:11	-1	92
152274	2026-01-03T20:41:11	-1.2	92.5
152275	2026-01-03T20:51:11	-1.2	92.5
152276	2026-01-03T21:01:11	-1.4	92
152277	2026-01-03T21:11:11	-1.8	93
152278	2026-01-03T21:21:11	-1.7	92
152279	2026-01-03T21:31:11	-1.7	91.5
152280	2026-01-03T21:41:11	-1.5	91
152281	2026-01-03T21:51:11	-1.2	89.5
152282	2026-01-03T22:01:11	-1.1	89
152283	2026-01-03T22:11:11	-0.9	87.5
152284	2026-01-03T22:21:11	-1	87
152285	2026-01-03T22:31:11	-1	86.5
152286	2026-01-03T22:41:11	-0.8	86.5
152287	2026-01-03T22:51:11	-1	88.5
152288	2026-01-03T23:01:11	-1	87
152289	2026-01-03T23:11:11	-1.1	88
152290	2026-01-03T23:21:11	-1.2	87
152291	2026-01-03T23:31:11	-1.2	87.5
152292	2026-01-03T23:41:11	-1.1	87
152293	2026-01-03T23:51:11	-1.3	87.5
152294	2026-01-04T00:01:11	-1	86.5
152295	2026-01-04T00:11:11	-1.1	88.5
152296	2026-01-04T00:21:11	-1	89
152297	2026-01-04T00:31:11	-1	88.5
152298	2026-01-04T00:41:11	-1.1	88
152299	2026-01-04T00:51:11	-1.1	87.5
152300	2026-01-04T01:01:11	-1.1	87.5
152301	2026-01-04T01:11:11	-1.3	87
152302	2026-01-04T01:21:11	-1.3	87
152303	2026-01-04T01:31:11	-1.2	87
152304	2026-01-04T01:41:11	-1.2	87
152305	2026-01-04T01:51:11	-1	86.5
152306	2026-01-04T02:01:11	-0.9	86
152307	2026-01-04T02:11:11	-0.9	86.5
152308	2026-01-04T02:21:11	-0.8	85.5
152309	2026-01-04T02:31:11	-0.8	85.5
152310	2026-01-04T02:41:11	-0.9	86
152311	2026-01-04T02:51:11	-0.7	86
152312	2026-01-04T03:01:11	-0.8	86
152313	2026-01-04T03:11:11	-0.7	86
152314	2026-01-04T03:21:11	-0.8	86
152315	2026-01-04T03:31:11	-0.7	86
152316	2026-01-04T03:41:11	-0.8	86
152317	2026-01-04T03:51:11	-0.8	85.5
152318	2026-01-04T04:01:11	-0.8	86
152319	2026-01-04T04:11:11	-0.8	86
152320	2026-01-04T04:21:11	-1	86
152321	2026-01-04T04:31:11	-0.9	86
152322	2026-01-04T04:41:11	-1.1	85
152323	2026-01-04T04:51:11	-1.2	85
152324	2026-01-04T05:01:11	-1.2	84.5
152325	2026-01-04T05:11:11	-1.1	84.5
152326	2026-01-04T05:21:11	-1.1	84.5
152327	2026-01-04T05:31:11	-1.1	84.5
152328	2026-01-04T05:41:11	-0.9	84
152329	2026-01-04T05:51:11	-1.1	84.5
152330	2026-01-04T06:01:11	-1	85
152331	2026-01-04T06:11:11	-1.1	85
152332	2026-01-04T06:21:11	-1.2	85
152333	2026-01-04T06:31:11	-1.1	85.5
152334	2026-01-04T06:41:11	-1.1	85.5
152335	2026-01-04T06:51:11	-1.1	86
152336	2026-01-04T07:01:11	-1.1	86.5
152337	2026-01-04T07:11:11	-1	86
152338	2026-01-04T07:21:11	-1	86.5
152339	2026-01-04T07:31:11	-0.8	86.5
152340	2026-01-04T07:41:11	-0.9	86.5
152341	2026-01-04T07:51:11	-0.9	86.5
152342	2026-01-04T08:01:11	-0.9	85.5
152343	2026-01-04T08:11:11	-0.8	86
152344	2026-01-04T08:21:11	-0.7	85.5
152345	2026-01-04T08:31:11	-0.6	85
152346	2026-01-04T08:41:11	-0.6	85
152347	2026-01-04T08:51:11	-0.5	85
152348	2026-01-04T09:01:11	-0.4	85
152349	2026-01-04T09:11:11	-0.3	85
152350	2026-01-04T09:21:11	-0.2	85
152351	2026-01-04T09:31:11	-0.3	85.5
152352	2026-01-04T09:41:11	-0.1	85.5
152353	2026-01-04T09:51:11	0	85
152354	2026-01-04T10:01:11	0.1	84
152355	2026-01-04T10:11:11	0.1	84
152356	2026-01-04T10:21:11	0.3	83.5
152357	2026-01-04T10:31:11	0.3	83
152358	2026-01-04T10:41:11	0.7	82
152359	2026-01-04T10:51:11	0.6	82
152360	2026-01-04T11:01:11	0.7	81
152361	2026-01-04T11:11:11	0.8	81
152362	2026-01-04T11:21:11	1	81.5
152363	2026-01-04T11:31:11	1	80.5
152364	2026-01-04T11:41:11	1	80.5
152365	2026-01-04T11:51:11	1.1	80.5
152366	2026-01-04T12:01:11	1.2	81
152367	2026-01-04T12:11:11	1.4	80
152368	2026-01-04T12:21:11	1.5	79.5
152369	2026-01-04T12:31:11	2.1	79
152370	2026-01-04T12:41:11	1.7	80
152371	2026-01-04T12:51:11	1.6	80.5
152372	2026-01-04T13:01:11	2.2	78
152373	2026-01-04T13:11:11	2.2	83
152374	2026-01-04T13:21:11	2.4	81.5
152375	2026-01-04T13:31:11	1.9	81.5
152376	2026-01-04T13:41:11	2.4	79
152377	2026-01-04T13:51:11	1.6	82
152378	2026-01-04T14:01:11	1.5	79
152379	2026-01-04T14:11:11	1.5	78.5
152380	2026-01-04T14:21:11	1.4	79.5
152381	2026-01-04T14:31:11	1.2	79.5
152382	2026-01-04T14:41:11	2	78
152383	2026-01-04T14:51:11	1.8	75.5
152384	2026-01-04T15:01:11	0.9	79.5
152385	2026-01-04T15:11:11	0.8	80
152386	2026-01-04T15:21:30	0.5	80
152387	2026-01-04T15:31:11	0.3	80
152388	2026-01-04T15:41:11	0	81.5
152389	2026-01-04T15:51:11	-0.1	82
152390	2026-01-04T16:01:11	-0.5	83
152391	2026-01-04T16:11:11	-0.9	86
152392	2026-01-04T16:21:11	-0.9	87
152393	2026-01-04T16:31:11	-0.9	86.5
152394	2026-01-04T16:41:11	-1.3	89
152395	2026-01-04T16:51:11	-1.4	89.5
152396	2026-01-04T17:01:11	-1.8	91
152397	2026-01-04T17:11:11	-1.9	89
152398	2026-01-04T17:21:11	-1.8	89
152399	2026-01-04T17:31:11	-2.3	90.5
152400	2026-01-04T17:41:11	-2.6	92
152401	2026-01-04T17:51:11	-3	93.5
152402	2026-01-04T18:01:11	-3	94
152403	2026-01-04T18:11:11	-3.1	94.5
152404	2026-01-04T18:21:11	-2.9	92.5
152405	2026-01-04T18:31:11	-3.1	92
152406	2026-01-04T18:41:11	-3.3	93.5
152407	2026-01-04T18:51:11	-3.4	93.5
152408	2026-01-04T19:01:11	-3.7	93.5
152409	2026-01-04T19:11:11	-3.7	94.5
152410	2026-01-04T19:21:11	-3.9	94
152411	2026-01-04T19:31:11	-4	94.5
152412	2026-01-04T19:41:11	-4.2	94.5
152413	2026-01-04T19:51:11	-4.4	95
152414	2026-01-04T20:01:11	-4.5	95
152415	2026-01-04T20:11:11	-4.4	95
152416	2026-01-04T20:21:11	-4.4	94
152417	2026-01-04T20:31:11	-4.8	94
152418	2026-01-04T20:41:11	-4.9	94.5
152419	2026-01-04T20:51:11	-5	95.5
152420	2026-01-04T21:01:11	-5	96
152421	2026-01-04T21:11:11	-5.1	96
152422	2026-01-04T21:21:11	-5.3	96
152423	2026-01-04T21:31:11	-5.3	96
152424	2026-01-04T21:41:11	-5.5	96
152425	2026-01-04T21:51:11	-5.6	96
152426	2026-01-04T22:01:11	-5.7	96
152427	2026-01-04T22:11:11	-5.7	96
152428	2026-01-04T22:21:11	-5.8	96.5
152429	2026-01-04T22:31:11	-5.9	96
152430	2026-01-04T22:41:11	-6	96
152431	2026-01-04T22:51:11	-6	96
152432	2026-01-04T23:01:11	-6	96
152433	2026-01-04T23:11:11	-6	96.5
152434	2026-01-04T23:21:11	-5.5	95.5
152435	2026-01-04T23:31:11	-5.3	94
152436	2026-01-04T23:41:11	-4.9	93
152437	2026-01-04T23:51:11	-4.7	93.5
152438	2026-01-05T00:01:11	-4.7	94
152439	2026-01-05T00:11:11	-4.7	94.5
152440	2026-01-05T00:21:11	-4.6	94.5
152441	2026-01-05T00:31:11	-4.8	95
152442	2026-01-05T00:41:11	-5.3	96
152443	2026-01-05T00:51:11	-5.3	98
152444	2026-01-05T01:01:11	-4.7	96.5
152445	2026-01-05T01:11:11	-4.6	95
152446	2026-01-05T01:21:11	-4.6	95.5
152447	2026-01-05T01:31:11	-4.4	95.5
152448	2026-01-05T01:41:11	-4.5	95.5
152449	2026-01-05T01:51:11	-4.4	95
152450	2026-01-05T02:01:11	-4.4	95
152451	2026-01-05T02:11:11	-4.7	95.5
152452	2026-01-05T02:21:11	-4.6	96
152453	2026-01-05T02:31:11	-4.3	95.5
152454	2026-01-05T02:41:11	-4.2	95
152455	2026-01-05T02:51:11	-4	94
152456	2026-01-05T03:01:11	-3.9	93.5
152457	2026-01-05T03:11:11	-3.6	92.5
152458	2026-01-05T03:21:11	-3.7	92
152459	2026-01-05T03:31:11	-3.6	92
152460	2026-01-05T03:41:11	-3.8	92
152461	2026-01-05T03:51:11	-3.9	92.5
152462	2026-01-05T04:01:11	-4.2	93.5
152463	2026-01-05T04:11:11	-4.4	94
152464	2026-01-05T04:21:11	-4.4	94
152465	2026-01-05T04:31:11	-4.5	94.5
152466	2026-01-05T04:41:11	-4.8	96
152467	2026-01-05T04:51:11	-5	97
152468	2026-01-05T05:01:11	-5.4	98
152469	2026-01-05T05:11:11	-5.5	98.5
152470	2026-01-05T05:21:11	-5.5	99
152471	2026-01-05T05:31:11	-5.6	99.5
152472	2026-01-05T05:41:11	-5.1	99
152473	2026-01-05T05:51:11	-4.8	97.5
152474	2026-01-05T06:01:11	-5	97
152475	2026-01-05T06:11:11	-5.1	97.5
152476	2026-01-05T06:21:11	-5	97.5
152477	2026-01-05T06:31:11	-5.1	97.5
152478	2026-01-05T06:41:11	-5	98
152479	2026-01-05T06:51:11	-5.1	98.5
152480	2026-01-05T07:01:11	-5.1	98.5
152481	2026-01-05T07:11:11	-5.1	98.5
152482	2026-01-05T07:21:11	-5.1	98.5
152483	2026-01-05T07:31:11	-5.1	98
152484	2026-01-05T07:41:11	-5	98
152485	2026-01-05T07:51:11	-5.3	97.5
152486	2026-01-05T08:01:11	-5.4	98
152487	2026-01-05T08:11:11	-5.2	98.5
152488	2026-01-05T08:21:11	-5.4	97.5
152489	2026-01-05T08:31:11	-5.4	97
152490	2026-01-05T08:41:11	-5.3	97
152491	2026-01-05T08:51:11	-5.1	95.5
152492	2026-01-05T09:01:11	-5.2	95.5
152493	2026-01-05T09:11:11	-5.1	96
152494	2026-01-05T09:21:11	-5	95.5
152495	2026-01-05T09:31:11	-4.7	95
152496	2026-01-05T09:41:11	-4.5	94
152497	2026-01-05T09:51:11	-4.5	93.5
152498	2026-01-05T10:01:11	-4.5	93.5
152499	2026-01-05T10:11:11	-4.5	94
152500	2026-01-05T10:21:11	-4.4	94
152501	2026-01-05T10:31:11	-4	93
152502	2026-01-05T10:41:11	-3.7	93
152503	2026-01-05T10:51:11	-3.9	92.5
152504	2026-01-05T11:01:11	-3.7	92.5
152505	2026-01-05T11:11:11	-3.4	91
152506	2026-01-05T11:21:11	-2.1	88.5
152507	2026-01-05T11:31:11	-1.8	87
152508	2026-01-05T11:41:11	-2.2	86.5
152509	2026-01-05T11:51:11	-1.3	83.5
152510	2026-01-05T12:01:11	-1.1	80.5
152511	2026-01-05T12:11:11	0	78.5
152512	2026-01-05T12:21:11	0.7	75
152513	2026-01-05T12:31:11	1.3	73
152514	2026-01-05T12:41:11	2.5	69.5
152515	2026-01-05T12:51:11	2.8	68.5
152516	2026-01-05T13:01:11	3.7	66
152517	2026-01-05T13:11:11	4.2	64.5
152518	2026-01-05T13:21:11	4.7	61.5
152519	2026-01-05T13:31:11	4.8	61.5
152520	2026-01-05T13:41:11	5	59.5
152521	2026-01-05T13:51:11	5.2	58.5
152522	2026-01-05T14:01:11	5.3	58.5
152523	2026-01-05T14:11:11	5.8	57.5
152524	2026-01-05T14:21:11	6.4	56
152525	2026-01-05T14:31:11	6.5	56
152526	2026-01-05T14:41:11	6.1	55.5
152527	2026-01-05T14:51:11	6.6	57.5
152528	2026-01-05T15:01:11	4.3	60
152529	2026-01-05T15:11:11	2.3	67.5
152530	2026-01-05T15:21:11	1.6	71
152531	2026-01-05T15:31:11	0.7	71.5
152532	2026-01-05T15:41:11	0.2	74.5
152533	2026-01-05T15:51:11	0	77
152534	2026-01-05T16:01:11	-0.5	79
152535	2026-01-05T16:11:11	-0.9	78.5
152536	2026-01-05T16:21:11	-1.4	76.5
152537	2026-01-05T16:31:11	-1.5	78.5
152538	2026-01-05T16:41:11	-2	79.5
152539	2026-01-05T16:51:11	-2.3	80.5
152540	2026-01-05T17:01:11	-2.4	80.5
152541	2026-01-05T17:11:11	-2.8	80
152542	2026-01-05T17:21:11	-3	81.5
152543	2026-01-05T17:31:11	-3.3	81
152544	2026-01-05T17:41:11	-3.5	81
152545	2026-01-05T17:51:11	-3.8	81.5
152546	2026-01-05T18:01:11	-4.1	83
152547	2026-01-05T18:11:11	-4.3	84
152548	2026-01-05T18:21:11	-4.5	85
152549	2026-01-05T18:31:11	-4.8	85.5
152550	2026-01-05T18:41:11	-4.8	87
152551	2026-01-05T18:51:11	-5	87
152552	2026-01-05T19:01:11	-5.1	87.5
152553	2026-01-05T19:11:11	-5.2	86.5
152554	2026-01-05T19:21:11	-5.3	86.5
152555	2026-01-05T19:31:11	-5.5	87.5
152556	2026-01-05T19:41:11	-5.4	87
152557	2026-01-05T19:51:11	-5.6	87.5
152558	2026-01-05T20:01:11	-5.9	88
152559	2026-01-05T20:11:11	-5.8	88.5
152560	2026-01-05T20:31:11	-6.2	87
152561	2026-01-05T20:41:11	-6.3	86.5
152562	2026-01-05T20:51:11	-6.3	87.5
152563	2026-01-05T21:01:11	-6.4	87
152564	2026-01-05T21:11:11	-6.5	88
152565	2026-01-05T21:21:11	-6.6	88.5
152566	2026-01-05T21:31:11	-6.3	88
152567	2026-01-05T21:41:11	-6.1	87
152568	2026-01-05T21:51:11	-5.9	87
152569	2026-01-05T22:01:11	-6	88
152570	2026-01-05T22:11:11	-5.9	88
152571	2026-01-05T22:21:11	-5.7	88.5
152572	2026-01-05T22:31:11	-5.8	88.5
152573	2026-01-05T22:41:11	-5.7	88.5
152574	2026-01-05T22:51:11	-5.7	89
152575	2026-01-05T23:01:11	-5.7	89
152576	2026-01-05T23:11:11	-5.7	89
152577	2026-01-05T23:21:11	-5.6	89.5
152578	2026-01-05T23:31:11	-5.5	89
152579	2026-01-05T23:41:11	-5.5	88.5
152580	2026-01-05T23:51:11	-5.5	89.5
152581	2026-01-06T00:01:11	-5.4	89.5
152582	2026-01-06T00:11:11	-5.2	90
152583	2026-01-06T00:21:11	-4.9	89.5
152584	2026-01-06T00:31:11	-5	89
152585	2026-01-06T00:41:11	-5	88.5
152586	2026-01-06T00:51:11	-4.8	88
152587	2026-01-06T01:01:11	-4.8	88
152588	2026-01-06T01:11:11	-4.6	88.5
152589	2026-01-06T01:21:11	-4.6	89
152590	2026-01-06T01:31:11	-4.5	89.5
152591	2026-01-06T01:41:11	-4.2	90
152592	2026-01-06T01:51:11	-4.2	89.5
152593	2026-01-06T02:01:11	-4.2	89
152594	2026-01-06T02:11:11	-4.1	87.5
152595	2026-01-06T02:21:11	-4	88
152596	2026-01-06T02:31:11	-4	87.5
152597	2026-01-06T02:41:11	-3.9	88.5
152598	2026-01-06T02:51:11	-3.8	87
152599	2026-01-06T03:01:11	-3.6	86.5
152600	2026-01-06T03:11:11	-3.6	85.5
152601	2026-01-06T03:21:11	-3.6	85.5
152602	2026-01-06T03:31:11	-3.6	86
152603	2026-01-06T03:41:11	-3.5	86
152604	2026-01-06T03:51:11	-3.7	90.5
152605	2026-01-06T04:01:11	-3.7	92.5
152606	2026-01-06T04:11:11	-3.9	93
152607	2026-01-06T04:21:11	-3.8	94
152608	2026-01-06T04:31:11	-3.8	94.5
152609	2026-01-06T04:41:11	-3.8	94.5
152610	2026-01-06T04:51:11	-3.8	95
152611	2026-01-06T05:01:11	-3.7	95.5
152612	2026-01-06T05:11:11	-3.9	96
152613	2026-01-06T05:21:11	-3.9	96.5
152614	2026-01-06T05:31:11	-3.9	97
152615	2026-01-06T05:41:11	-4	97
152616	2026-01-06T05:51:11	-4	97.5
152617	2026-01-06T06:01:11	-4	98.5
152618	2026-01-06T06:11:11	-4	99
152619	2026-01-06T06:21:11	-3.9	99.5
152620	2026-01-06T06:31:11	-3.8	99.5
152621	2026-01-06T06:41:11	-3.8	99.5
152622	2026-01-06T06:51:11	-3.8	99.5
152623	2026-01-06T07:01:11	-3.7	99.5
152624	2026-01-06T07:11:11	-3.8	99.5
152625	2026-01-06T07:21:11	-3.7	99.5
152626	2026-01-06T07:31:11	-3.8	99
152627	2026-01-06T07:41:11	-3.6	99
152628	2026-01-06T07:51:11	-3.7	99
152629	2026-01-06T08:01:11	-3.6	98.5
152630	2026-01-06T08:11:11	-3.7	98.5
152631	2026-01-06T08:21:11	-3.6	98
152632	2026-01-06T08:31:11	-3.6	98
152633	2026-01-06T08:41:11	-3.5	98
152634	2026-01-06T08:51:11	-3.4	97.5
152635	2026-01-06T09:01:11	-3.3	96.5
152636	2026-01-06T09:11:11	-3.2	96
152637	2026-01-06T09:21:11	-2.9	96
152638	2026-01-06T09:31:11	-2.6	94.5
152639	2026-01-06T09:41:11	-2.6	94.5
152640	2026-01-06T09:51:11	-2.6	94
152641	2026-01-06T10:01:11	-2.4	94.5
152642	2026-01-06T10:11:11	-2.3	94.5
152643	2026-01-06T10:21:11	-2.2	94
152644	2026-01-06T10:31:11	-2.2	93
152645	2026-01-06T10:41:11	-2.2	92.5
152646	2026-01-06T10:51:11	-2	92.5
152647	2026-01-06T11:01:11	-1.9	91.5
152648	2026-01-06T11:11:11	-2	92
152649	2026-01-06T11:21:11	-1.6	91
152650	2026-01-06T11:31:11	-1.4	89.5
152651	2026-01-06T11:41:11	-1.6	90
152652	2026-01-06T11:51:11	-1.4	90
152653	2026-01-06T12:01:11	-1.6	90.5
152654	2026-01-06T12:11:11	-1.6	90
152655	2026-01-06T12:21:11	-1.7	90.5
152656	2026-01-06T12:31:11	-1.5	89.5
152657	2026-01-06T12:41:11	-1.5	89.5
152658	2026-01-06T12:51:11	-1.6	89.5
152659	2026-01-06T13:01:11	-1.6	90
152660	2026-01-06T13:11:11	-1.7	90
152661	2026-01-06T13:21:11	-1.6	89
152662	2026-01-06T13:31:11	-1.6	90
152663	2026-01-06T13:41:11	-1.6	90.5
152664	2026-01-06T13:51:11	-1.5	90.5
152665	2026-01-06T14:01:11	-1.6	91.5
152666	2026-01-06T14:11:11	-1.6	91.5
152667	2026-01-06T14:21:11	-1.7	92
152668	2026-01-06T14:31:11	-1.6	92
152669	2026-01-06T14:41:11	-1.6	92
152670	2026-01-06T14:51:11	-1.7	91.5
152671	2026-01-06T15:01:11	-1.7	92
152672	2026-01-06T15:11:11	-1.7	92
152673	2026-01-06T15:21:11	-1.7	91.5
152674	2026-01-06T15:31:11	-1.8	92.5
152675	2026-01-06T15:41:12	-1.8	91.5
152676	2026-01-06T15:51:11	-1.8	92.5
152677	2026-01-06T16:01:12	-1.9	91.5
152678	2026-01-06T16:11:12	-1.9	91.5
152679	2026-01-06T16:21:11	-2	91.5
152680	2026-01-06T16:31:11	-1.9	92
152681	2026-01-06T16:41:12	-1.9	92.5
152682	2026-01-06T16:51:12	-2	92.5
152683	2026-01-06T17:01:12	-2	92.5
152684	2026-01-06T17:11:12	-1.9	92.5
152685	2026-01-06T17:21:11	-2	92.5
152686	2026-01-06T17:31:12	-1.9	92.5
152687	2026-01-06T17:41:12	-1.9	92.5
152688	2026-01-06T17:51:12	-1.9	93
152689	2026-01-06T18:01:12	-1.9	93
152690	2026-01-06T18:11:12	-1.9	92.5
152691	2026-01-06T18:21:12	-2	93
152692	2026-01-06T18:31:12	-2	93.5
152693	2026-01-06T18:41:12	-2	95
152694	2026-01-06T18:51:12	-2	93.5
152695	2026-01-06T19:01:12	-1.9	93
152696	2026-01-06T19:11:12	-2.1	93
152697	2026-01-06T19:21:12	-2	93
152698	2026-01-06T19:31:12	-1.9	93
152699	2026-01-06T19:41:12	-1.9	93
152700	2026-01-06T19:51:12	-1.9	92.5
152701	2026-01-06T20:01:12	-2	92
152702	2026-01-06T20:11:12	-1.9	92.5
152703	2026-01-06T20:21:12	-2.1	93.5
152704	2026-01-06T20:31:12	-2	92.5
152705	2026-01-06T20:41:12	-2	92
152706	2026-01-06T20:51:12	-2	92
152707	2026-01-06T21:01:12	-2	92
152708	2026-01-06T21:11:12	-2	92
152709	2026-01-06T21:21:12	-2.1	92.5
152710	2026-01-06T21:31:12	-2.1	93.5
152711	2026-01-06T21:41:12	-2.1	94
152712	2026-01-06T21:51:12	-2	94.5
152713	2026-01-06T22:01:12	-2.1	93.5
152714	2026-01-06T22:11:12	-2.2	93
152715	2026-01-06T22:21:12	-2	92.5
152716	2026-01-06T22:31:12	-2.2	92
152717	2026-01-06T22:41:12	-2.3	92
152718	2026-01-06T22:51:12	-2.5	92.5
152719	2026-01-06T23:01:12	-2.7	92.5
152720	2026-01-06T23:11:12	-2.5	92
152721	2026-01-06T23:21:12	-2.5	92.5
152722	2026-01-06T23:31:12	-2.6	92.5
152723	2026-01-06T23:41:12	-2.5	93.5
152724	2026-01-06T23:51:12	-2.5	93
152725	2026-01-07T00:01:12	-2.5	94.5
152726	2026-01-07T00:11:12	-2.7	95
152727	2026-01-07T00:21:12	-2.8	95
152728	2026-01-07T00:31:12	-2.7	95
152729	2026-01-07T00:41:12	-2.9	95.5
152730	2026-01-07T00:51:12	-3.4	96.5
152731	2026-01-07T01:01:12	-3.6	97.5
152732	2026-01-07T01:11:12	-3.2	97
152733	2026-01-07T01:21:12	-3.1	96
152734	2026-01-07T01:31:12	-3.2	95.5
152735	2026-01-07T01:41:12	-3.5	96
152736	2026-01-07T01:51:12	-4.4	97.5
152737	2026-01-07T02:01:12	-4.8	98.5
152738	2026-01-07T02:11:12	-4.8	99.5
152739	2026-01-07T02:21:12	-5.2	99.5
152740	2026-01-07T02:31:12	-5.3	99.5
152741	2026-01-07T02:41:12	-5.5	98.5
152742	2026-01-07T02:51:12	-5.7	98
152743	2026-01-07T03:01:12	-5.6	97.5
152744	2026-01-07T03:11:12	-5.7	97
152745	2026-01-07T03:21:12	-5.7	97
152746	2026-01-07T03:31:12	-5.7	96.5
152747	2026-01-07T03:41:12	-5.6	96
152748	2026-01-07T03:51:12	-5.6	95
152749	2026-01-07T04:01:12	-5.5	95.5
152750	2026-01-07T04:11:12	-5.5	94.5
152751	2026-01-07T04:21:12	-5.6	95
152752	2026-01-07T04:31:12	-5.6	95.5
152753	2026-01-07T04:41:12	-5.5	95
152754	2026-01-07T04:51:12	-5.6	95.5
152755	2026-01-07T05:01:12	-5.9	96
152756	2026-01-07T05:11:12	-6	96
152757	2026-01-07T05:21:12	-5.9	96.5
152758	2026-01-07T05:31:12	-5.9	96
152759	2026-01-07T05:41:12	-6.2	96.5
152760	2026-01-07T05:51:12	-6.3	97
152761	2026-01-07T06:01:12	-6.7	97.5
152762	2026-01-07T06:11:12	-6.9	97
152763	2026-01-07T06:21:12	-6.9	98
152764	2026-01-07T06:31:12	-6.8	98
152765	2026-01-07T06:41:12	-6.7	96.5
152766	2026-01-07T06:51:12	-6.9	97
152767	2026-01-07T07:01:12	-7.1	97
152768	2026-01-07T07:11:12	-7.4	97.5
152769	2026-01-07T07:21:12	-7.7	98
152770	2026-01-07T07:31:12	-7.7	98.5
152771	2026-01-07T07:41:12	-7.8	98.5
152772	2026-01-07T07:51:12	-7.7	98.5
152773	2026-01-07T08:01:12	-7.8	98
152774	2026-01-07T08:11:12	-7.6	98
152775	2026-01-07T08:21:12	-7.5	98
152776	2026-01-07T08:31:12	-7.4	98
152777	2026-01-07T08:41:12	-7.3	98
152778	2026-01-07T08:51:12	-7.3	98
152779	2026-01-07T09:01:12	-7.2	98
152780	2026-01-07T09:11:12	-6.9	98
152781	2026-01-07T09:21:12	-6.8	98.5
152782	2026-01-07T09:31:12	-6.6	98.5
152783	2026-01-07T09:41:12	-6.5	98.5
152784	2026-01-07T09:51:12	-6.1	98.5
152785	2026-01-07T10:01:12	-5.9	98
152786	2026-01-07T10:11:12	-5.4	97
152787	2026-01-07T10:21:12	-5.3	95.5
152788	2026-01-07T10:31:12	-5.1	94.5
152789	2026-01-07T10:41:12	-4.7	92.5
152790	2026-01-07T10:51:12	-4.5	93
152791	2026-01-07T11:01:12	-3.8	90
152792	2026-01-07T11:11:12	-3.4	88
152793	2026-01-07T11:21:12	-2.4	85.5
152794	2026-01-07T11:31:12	-2.4	84
152795	2026-01-07T11:41:12	-2.2	85.5
152796	2026-01-07T11:51:12	-0.8	82
152797	2026-01-07T12:01:12	0.7	73
152798	2026-01-07T12:11:12	1.8	68
152799	2026-01-07T12:21:12	2.7	65.5
152800	2026-01-07T12:31:12	3.5	62
152801	2026-01-07T12:41:12	5	58
152802	2026-01-07T12:51:12	6.4	56.5
152803	2026-01-07T13:01:12	5.1	56
152804	2026-01-07T13:11:12	7	51.5
152805	2026-01-07T13:21:12	9	50
152806	2026-01-07T13:31:12	10.3	47.5
152807	2026-01-07T13:41:12	11.5	44.5
152808	2026-01-07T13:51:12	11.4	44.5
152809	2026-01-07T14:01:12	11.6	42.5
152810	2026-01-07T14:11:12	7.3	49
152811	2026-01-07T14:21:12	6	54.5
152812	2026-01-07T14:31:12	5.4	56.5
152813	2026-01-07T14:41:12	4.8	58.5
152814	2026-01-07T14:51:12	4.2	60
152815	2026-01-07T15:01:12	3.9	62
152816	2026-01-07T15:11:12	3.5	64
152817	2026-01-07T15:21:12	3.3	64
152818	2026-01-07T15:31:12	2.8	64.5
152819	2026-01-07T15:41:12	2.7	66
152820	2026-01-07T15:51:12	2.6	68.5
152821	2026-01-07T16:01:12	2.4	68.5
152822	2026-01-07T16:11:12	2	69
152823	2026-01-07T16:21:12	2	69.5
152824	2026-01-07T16:31:12	1.9	71
152825	2026-01-07T16:41:12	1.8	72
152826	2026-01-07T16:51:12	1.4	72
152827	2026-01-07T17:01:12	1.4	72
152828	2026-01-07T17:11:12	1.1	72.5
152829	2026-01-07T17:21:12	1.2	73.5
152830	2026-01-07T17:31:12	0.9	69
152831	2026-01-07T17:41:12	0.7	68.5
152832	2026-01-07T17:51:12	0.5	69
152833	2026-01-07T18:01:12	0.2	68.5
152834	2026-01-07T18:11:12	0	73
152835	2026-01-07T18:21:12	-0.4	77.5
152836	2026-01-07T18:31:12	-0.6	79.5
152837	2026-01-07T18:41:12	-0.7	81.5
152838	2026-01-07T18:51:12	-0.8	83.5
152839	2026-01-07T19:01:12	-1	85.5
152840	2026-01-07T19:11:12	-1	86
152841	2026-01-07T19:21:12	-1.1	86.5
152842	2026-01-07T19:31:12	-1.2	89
152843	2026-01-07T19:41:12	-1.2	90
152844	2026-01-07T19:51:12	-1.2	89.5
152845	2026-01-07T20:01:12	-1.1	89.5
152846	2026-01-07T20:11:12	-1	89
152847	2026-01-07T20:21:12	-0.9	89
152848	2026-01-07T20:31:12	-0.9	88
152849	2026-01-07T20:41:12	-0.8	87
152850	2026-01-07T20:51:12	-0.7	86.5
152851	2026-01-07T21:01:12	-0.7	86
152852	2026-01-07T21:11:12	-0.7	85
152853	2026-01-07T21:21:12	-0.6	85
152854	2026-01-07T21:31:12	-0.6	84.5
152855	2026-01-07T21:41:12	-0.5	84.5
152856	2026-01-07T21:51:12	-0.5	86.5
152857	2026-01-07T22:01:12	-0.7	86.5
152858	2026-01-07T22:11:12	-0.7	86
152859	2026-01-07T22:21:12	-0.6	85.5
152860	2026-01-07T22:31:12	-0.5	87
152861	2026-01-07T22:41:12	-0.5	84.5
152862	2026-01-07T22:51:12	-0.4	84
152863	2026-01-07T23:01:12	-0.4	83
152864	2026-01-07T23:11:12	-0.2	83
152865	2026-01-07T23:21:12	-0.3	83
152866	2026-01-07T23:31:12	-0.2	82.5
152867	2026-01-07T23:41:12	-0.1	82.5
152868	2026-01-07T23:51:12	-0.1	83
152869	2026-01-08T00:01:12	0	82.5
152870	2026-01-08T00:11:12	0	83
152871	2026-01-08T00:21:12	0	83.5
152872	2026-01-08T00:31:12	0	84
152873	2026-01-08T00:41:12	-0.2	88.5
152874	2026-01-08T00:51:12	-0.2	87.5
152875	2026-01-08T01:01:12	-0.4	92.5
152876	2026-01-08T01:11:12	-0.5	94.5
152877	2026-01-08T01:21:12	-0.6	94.5
152878	2026-01-08T01:31:12	-0.5	94.5
152879	2026-01-08T01:41:12	-0.5	94
152880	2026-01-08T01:51:12	-0.6	93.5
152881	2026-01-08T02:01:12	-0.5	92.5
152882	2026-01-08T02:11:12	-0.5	90.5
152883	2026-01-08T02:21:12	-0.2	89
152884	2026-01-08T02:31:12	0	88.5
152885	2026-01-08T02:41:12	0	89
152886	2026-01-08T02:51:12	0	90
152887	2026-01-08T03:01:12	0.3	89.5
152888	2026-01-08T03:11:12	0.2	91
152889	2026-01-08T03:21:12	0.1	92.5
152890	2026-01-08T03:31:12	0.1	92
152891	2026-01-08T03:41:12	0.2	92
152892	2026-01-08T03:51:12	0.3	92
152893	2026-01-08T04:01:12	0.2	92
152894	2026-01-08T04:11:12	0.2	92
152895	2026-01-08T04:21:12	0.4	90.5
152896	2026-01-08T04:31:12	0.4	89.5
152897	2026-01-08T04:41:12	0.7	88.5
152898	2026-01-08T04:51:12	0.8	87.5
152899	2026-01-08T05:01:12	1	86.5
152900	2026-01-08T05:11:12	1	86.5
152901	2026-01-08T05:21:12	1.1	86
152902	2026-01-08T05:31:12	1.1	86
152903	2026-01-08T05:41:12	1	85.5
152904	2026-01-08T05:51:12	1.1	85.5
152905	2026-01-08T06:01:12	1.2	85.5
152906	2026-01-08T06:11:12	1.2	85
152907	2026-01-08T06:21:12	1.2	84.5
152908	2026-01-08T06:31:12	1.1	85
152909	2026-01-08T06:41:12	1.2	86
152910	2026-01-08T06:51:12	1.2	85.5
152911	2026-01-08T07:01:12	1.3	85.5
152912	2026-01-08T07:11:12	1.1	85.5
152913	2026-01-08T07:21:12	1.1	86.5
152914	2026-01-08T07:31:12	1	87.5
152915	2026-01-08T07:41:12	1.1	86.5
152916	2026-01-08T07:51:12	1.3	86.5
152917	2026-01-08T08:01:12	1.4	87
152918	2026-01-08T08:11:12	1.5	87.5
152919	2026-01-08T08:21:12	1.6	86.5
152920	2026-01-08T08:31:12	1.8	86
152921	2026-01-08T08:41:12	2	85.5
152922	2026-01-08T08:51:12	2.3	85.5
152923	2026-01-08T09:01:12	2.4	85.5
152924	2026-01-08T09:11:12	2.5	85
152925	2026-01-08T09:21:12	2.6	85
152926	2026-01-08T09:31:12	2.8	85
152927	2026-01-08T09:41:12	2.9	85
152928	2026-01-08T09:51:12	3.1	84.5
152929	2026-01-08T10:01:12	3	84.5
152930	2026-01-08T10:11:12	3.2	85
152931	2026-01-08T10:21:12	3.3	85
152932	2026-01-08T10:31:12	3.2	85.5
152933	2026-01-08T10:41:12	3.2	85.5
152934	2026-01-08T10:51:12	3.3	87.5
152935	2026-01-08T11:01:12	3.1	89
152936	2026-01-08T11:11:12	3	89
152937	2026-01-08T11:21:12	3.2	90
152938	2026-01-08T11:31:12	3.6	90
152939	2026-01-08T11:41:12	3.9	88
152940	2026-01-08T11:51:12	4.2	86
152941	2026-01-08T12:01:12	4	85.5
152942	2026-01-08T12:11:12	4.1	86
152943	2026-01-08T12:21:12	4	87
152944	2026-01-08T12:31:12	4	87
152945	2026-01-08T12:41:12	4	87.5
152946	2026-01-08T12:51:12	4.1	88
152947	2026-01-08T13:01:12	4	88
152948	2026-01-08T13:11:12	4	88.5
152949	2026-01-08T13:21:12	4.1	88.5
152950	2026-01-08T13:31:12	4.3	88.5
152951	2026-01-08T13:41:12	4.4	88.5
152952	2026-01-08T13:51:12	4.3	88.5
152953	2026-01-08T14:01:12	4.3	88.5
152954	2026-01-08T14:11:12	4.5	88
152955	2026-01-08T14:21:12	4.3	88.5
152956	2026-01-08T14:31:12	4.2	89
152957	2026-01-08T14:41:12	4.1	90.5
152958	2026-01-08T14:51:11	4.1	91.5
152959	2026-01-08T15:01:11	3.9	93
152960	2026-01-08T15:11:11	3.8	93.5
152961	2026-01-08T15:21:11	3.7	94.5
152962	2026-01-08T15:31:11	3.7	95.5
152963	2026-01-08T15:41:11	3.5	95.5
152964	2026-01-08T15:51:11	3.5	96
152965	2026-01-08T16:01:11	3.4	96.5
152966	2026-01-08T16:11:11	3.2	97
152967	2026-01-08T16:21:11	3.3	97
152968	2026-01-08T16:31:11	3.2	97.5
152969	2026-01-08T16:41:11	3.2	97.5
152970	2026-01-08T16:51:11	3.2	98
152971	2026-01-08T17:01:11	3.3	97
152972	2026-01-08T17:11:11	3.2	97
152973	2026-01-08T17:21:11	3.1	97
152974	2026-01-08T17:31:11	3.2	97
152975	2026-01-08T17:41:11	3	97
152976	2026-01-08T17:51:11	3.1	97
152977	2026-01-08T18:01:11	3.1	97
152978	2026-01-08T18:11:11	3.1	97
152979	2026-01-08T18:21:11	3.1	97
152980	2026-01-08T18:31:11	3.1	97
152981	2026-01-08T18:41:11	3	97.5
152982	2026-01-08T18:51:11	3	97.5
152983	2026-01-08T19:01:11	3.1	97.5
152984	2026-01-08T19:11:11	3	98
152985	2026-01-08T19:21:11	3.1	98.5
152986	2026-01-08T19:31:11	3	98.5
152987	2026-01-08T19:41:11	3	98
152988	2026-01-08T19:51:11	2.9	98
152989	2026-01-08T20:01:11	3	98.5
152990	2026-01-08T20:11:11	3	98.5
152991	2026-01-08T20:21:11	3.1	98.5
152992	2026-01-08T20:31:11	3	99.5
152993	2026-01-08T20:41:11	3	100
152994	2026-01-08T20:51:11	3	100
152995	2026-01-08T21:01:11	3.1	100
152996	2026-01-08T21:11:11	3.1	100
152997	2026-01-08T21:21:11	3.1	100
152998	2026-01-08T21:31:11	3.2	100
152999	2026-01-08T21:41:11	3.1	100
153000	2026-01-08T21:51:11	3.2	100
153001	2026-01-08T22:01:11	3.2	100
153002	2026-01-08T22:11:11	3.2	100
153003	2026-01-08T22:21:11	3.3	100
153004	2026-01-08T22:31:11	3.2	100
153005	2026-01-08T22:41:11	3.3	100
153006	2026-01-08T23:01:11	3.4	100
153007	2026-01-08T23:11:11	3.3	100
153008	2026-01-08T23:21:11	3.5	100
153009	2026-01-08T23:31:11	3.5	100
153010	2026-01-08T23:41:11	3.6	100
153011	2026-01-08T23:51:11	4.3	100
153012	2026-01-09T00:01:11	5.3	100
153013	2026-01-09T00:11:11	5.8	100
153014	2026-01-09T00:21:11	6	100
153015	2026-01-09T00:31:11	6.2	100
153016	2026-01-09T00:41:11	6.4	100
153017	2026-01-09T00:51:11	6.6	100
153018	2026-01-09T01:01:11	6.9	100
153019	2026-01-09T01:11:11	7.1	100
153020	2026-01-09T01:21:11	7.5	100
153021	2026-01-09T01:31:11	7.9	100
153022	2026-01-09T01:41:11	7.8	100
153023	2026-01-09T01:51:11	8.1	100
153024	2026-01-09T02:01:11	8.4	100
153025	2026-01-09T02:11:11	8.7	100
153026	2026-01-09T02:21:11	8.3	100
153027	2026-01-09T02:31:11	8.1	100
153028	2026-01-09T02:41:11	8.6	100
153029	2026-01-09T02:51:11	8.6	100
153030	2026-01-09T03:01:11	8.7	100
153031	2026-01-09T03:11:11	7.8	100
153032	2026-01-09T03:21:11	7.6	100
153033	2026-01-09T03:31:11	7.7	100
153034	2026-01-09T03:41:11	7.8	100
153035	2026-01-09T03:51:11	7.9	100
153036	2026-01-09T04:01:11	7.7	100
153037	2026-01-09T04:11:11	7.6	100
153038	2026-01-09T04:21:11	7.6	100
153039	2026-01-09T04:31:11	7.7	100
153040	2026-01-09T04:41:11	7.9	100
153041	2026-01-09T04:51:11	7.9	100
153042	2026-01-09T05:01:11	8.2	100
153043	2026-01-09T05:11:11	8.4	100
153044	2026-01-09T05:21:11	8.4	100
153045	2026-01-09T05:31:11	8.5	100
153046	2026-01-09T05:41:11	7.5	100
153047	2026-01-09T05:51:11	6.9	98.5
153048	2026-01-09T06:01:11	7.5	98
153049	2026-01-09T06:11:11	7.7	97
153050	2026-01-09T06:21:11	6.9	97
153051	2026-01-09T06:31:11	6.2	96.5
153052	2026-01-09T06:41:11	6.1	96.5
153053	2026-01-09T06:51:11	6.4	96.5
153054	2026-01-09T07:01:11	6.5	96.5
153055	2026-01-09T07:11:11	6.7	96.5
153056	2026-01-09T07:21:11	6.8	97
153057	2026-01-09T07:31:11	6.9	97
153058	2026-01-09T07:41:11	7.1	97
153059	2026-01-09T07:51:11	7.3	97
153060	2026-01-09T08:01:11	7.5	97
153061	2026-01-09T08:11:11	7.6	97
153062	2026-01-09T08:21:11	7.4	97
153063	2026-01-09T08:31:11	7.4	97
153064	2026-01-09T08:41:11	7.5	97
153065	2026-01-09T08:51:11	7.9	97
153066	2026-01-09T09:01:11	8	97
153067	2026-01-09T09:11:11	8.3	97
153068	2026-01-09T09:21:11	8.4	97
153069	2026-01-09T09:31:11	8.6	100
153070	2026-01-09T09:41:11	8.2	100
153071	2026-01-09T09:51:11	8.2	100
153072	2026-01-09T10:01:11	8.5	100
153073	2026-01-09T10:11:11	8.5	100
153074	2026-01-09T10:21:11	8.7	88.5
153075	2026-01-09T10:31:11	8.8	76
153076	2026-01-09T10:41:11	8.8	74
153077	2026-01-09T10:51:11	8.9	72.5
153078	2026-01-09T11:01:11	9.1	72.5
153079	2026-01-09T11:11:11	9.3	69.5
153080	2026-01-09T11:21:11	9.3	71
153081	2026-01-09T11:31:11	9.5	70
153082	2026-01-09T11:41:11	9.7	68
153083	2026-01-09T11:51:11	10.2	68
153084	2026-01-09T12:01:11	10.5	67.5
153085	2026-01-09T12:11:11	10.1	67
153086	2026-01-09T12:21:11	9.6	68
153087	2026-01-09T12:31:11	9.2	68
153088	2026-01-09T12:41:11	9.2	68
153089	2026-01-09T12:51:11	9	68
153090	2026-01-09T13:11:11	8.8	69
153091	2026-01-09T13:21:11	8.7	69
153092	2026-01-09T13:31:11	8.5	70
153093	2026-01-09T13:41:11	8.5	69.5
153094	2026-01-09T13:51:11	8.4	69.5
153095	2026-01-09T14:01:11	8.4	70.5
153096	2026-01-09T14:11:11	8.2	71.5
153097	2026-01-09T14:21:11	8.2	72.5
153098	2026-01-09T14:31:10	8	73
153099	2026-01-09T14:41:10	7.9	73.5
153100	2026-01-09T14:51:10	7.6	79.5
153101	2026-01-09T15:01:10	6.9	80.5
153102	2026-01-09T15:11:10	7.6	74
153103	2026-01-09T15:21:10	7.4	74.5
153104	2026-01-09T15:31:10	7.4	74
153105	2026-01-09T15:41:10	7.4	75.5
153106	2026-01-09T15:51:10	7.1	77
153107	2026-01-09T16:01:10	7	77
153108	2026-01-09T16:11:10	6.7	81
153109	2026-01-09T16:21:10	6.1	85
153110	2026-01-09T16:31:10	5.9	90
153111	2026-01-09T16:41:10	5.3	95
153112	2026-01-09T16:51:10	5.2	95
153113	2026-01-09T17:01:10	5.4	93.5
153114	2026-01-09T17:11:10	5.7	86.5
153115	2026-01-09T17:21:10	5.7	90.5
153116	2026-01-09T17:31:10	4.9	100
153117	2026-01-09T17:41:10	4.6	100
153118	2026-01-09T17:51:10	4.4	100
153119	2026-01-09T18:01:10	4.3	100
153120	2026-01-09T18:11:10	4.2	100
153121	2026-01-09T18:21:10	4.2	100
153122	2026-01-09T18:31:10	4.2	100
153123	2026-01-09T18:41:10	4.1	100
153124	2026-01-09T18:51:10	4.1	100
153125	2026-01-09T19:01:10	4.2	100
153126	2026-01-09T19:11:10	4.2	100
153127	2026-01-09T19:21:10	4.2	100
153128	2026-01-09T19:31:10	4.2	100
153129	2026-01-09T19:41:10	4.1	100
153130	2026-01-09T19:51:10	4.1	100
153131	2026-01-09T20:01:10	3.9	100
153132	2026-01-09T20:11:10	4	100
153133	2026-01-09T20:21:10	3.7	100
153134	2026-01-09T20:31:10	3.7	100
153135	2026-01-09T20:41:10	3.7	100
153136	2026-01-09T20:51:10	3.5	100
153137	2026-01-09T21:01:10	3.7	100
153138	2026-01-09T21:11:10	3.6	100
153139	2026-01-09T21:21:10	3.5	100
153140	2026-01-09T21:31:10	3.5	100
153141	2026-01-09T21:41:10	3.4	100
153142	2026-01-09T21:51:10	3.4	100
153143	2026-01-09T22:01:10	3.3	100
153144	2026-01-09T22:11:10	3.3	100
153145	2026-01-09T22:21:10	3.3	100
153146	2026-01-09T22:31:10	3.2	100
153147	2026-01-09T22:41:10	3	100
153148	2026-01-09T22:51:10	3	100
153149	2026-01-09T23:01:10	2.9	100
153150	2026-01-09T23:11:30	2.8	100
153151	2026-01-09T23:21:10	2.6	100
153152	2026-01-09T23:31:10	2.7	100
153153	2026-01-09T23:41:10	2.6	100
153154	2026-01-09T23:51:10	2.6	100
153155	2026-01-10T00:01:10	2.7	100
153156	2026-01-10T00:11:10	2.7	100
153157	2026-01-10T00:21:10	2.7	100
153158	2026-01-10T00:31:10	2.8	100
153159	2026-01-10T00:41:10	2.9	99.5
153160	2026-01-10T00:51:10	2.9	98.5
153161	2026-01-10T01:01:10	2.8	98
153162	2026-01-10T01:11:29	2.8	97
153163	2026-01-10T01:21:10	2.8	97
153164	2026-01-10T01:31:10	2.8	97
153165	2026-01-10T01:41:10	2.8	97
153166	2026-01-10T01:51:10	2.8	97
153167	2026-01-10T02:01:10	2.8	97
153168	2026-01-10T02:11:10	2.7	97
153169	2026-01-10T02:21:10	2.7	97
153170	2026-01-10T02:31:10	2.7	97
153171	2026-01-10T02:41:10	2.6	97
153172	2026-01-10T02:51:10	2.5	97
153173	2026-01-10T03:01:10	2.6	97.5
153174	2026-01-10T03:11:10	2.7	97.5
153175	2026-01-10T03:21:10	2.6	97.5
153176	2026-01-10T03:31:10	2.5	97.5
153177	2026-01-10T03:41:10	2.5	97.5
153178	2026-01-10T03:51:10	2.4	97.5
153179	2026-01-10T04:01:10	2.4	97.5
153180	2026-01-10T04:11:10	2.3	97.5
153181	2026-01-10T04:21:10	2.3	97.5
153182	2026-01-10T04:31:10	2.2	97.5
153183	2026-01-10T04:41:10	2.2	97.5
153184	2026-01-10T04:51:10	2.1	97.5
153185	2026-01-10T05:01:10	2.2	97.5
153186	2026-01-10T05:11:10	2.1	97.5
153187	2026-01-10T05:21:10	2.1	97.5
153188	2026-01-10T05:31:10	2	97.5
153189	2026-01-10T05:41:10	1.9	97.5
153190	2026-01-10T05:51:10	2	97.5
153191	2026-01-10T06:01:10	1.9	97.5
153192	2026-01-10T06:11:10	1.9	97.5
153193	2026-01-10T06:21:10	2	97.5
153194	2026-01-10T06:31:10	1.9	97.5
153195	2026-01-10T06:41:10	1.8	98
153196	2026-01-10T06:51:10	1.8	98
153197	2026-01-10T07:01:10	1.7	97.5
153198	2026-01-10T07:11:10	1.8	98
153199	2026-01-10T07:21:10	1.6	98
153200	2026-01-10T07:31:10	1.6	98
153201	2026-01-10T07:41:10	1.5	98
153202	2026-01-10T07:51:10	1.4	98
153203	2026-01-10T08:01:10	1.5	98
153204	2026-01-10T08:11:10	1.5	98
153205	2026-01-10T08:21:10	1.6	98
153206	2026-01-10T08:31:10	1.6	98
153207	2026-01-10T08:41:10	1.6	98
153208	2026-01-10T08:51:10	1.5	98
153209	2026-01-10T09:01:10	1.5	98
153210	2026-01-10T09:11:10	1.5	98
153211	2026-01-10T09:21:10	1.6	98
153212	2026-01-10T09:31:10	1.7	98
153213	2026-01-10T09:41:10	1.8	98
153214	2026-01-10T09:51:10	1.7	98
153215	2026-01-10T10:01:10	1.7	98
153216	2026-01-10T10:11:10	1.6	98.5
153217	2026-01-10T10:21:10	1.6	98
153218	2026-01-10T10:31:10	1.5	98
153219	2026-01-10T10:41:10	1.5	98
153220	2026-01-10T10:51:10	1.3	98
153221	2026-01-10T11:01:10	1.5	98
153222	2026-01-10T11:11:10	1.4	98
153223	2026-01-10T11:21:10	1.3	98
153224	2026-01-10T11:31:10	1.3	98
153225	2026-01-10T11:41:10	1	98
153226	2026-01-10T11:51:10	0.8	98.5
153227	2026-01-10T12:01:10	0.7	98
153228	2026-01-10T12:11:10	0.6	98.5
153229	2026-01-10T12:21:10	0.8	98.5
153230	2026-01-10T12:31:10	0.7	98
153231	2026-01-10T12:41:10	0.6	98.5
153232	2026-01-10T12:51:10	0.6	98.5
153233	2026-01-10T13:01:10	0.6	98.5
153234	2026-01-10T13:11:10	0.5	98.5
153235	2026-01-10T13:21:10	0.6	98.5
153236	2026-01-10T13:31:10	0.5	98.5
153237	2026-01-10T13:41:10	0.5	98
153238	2026-01-10T13:51:10	0.6	98.5
153239	2026-01-10T14:01:10	0.7	98.5
153240	2026-01-10T14:11:10	0.9	98.5
153241	2026-01-10T14:21:10	0.9	98.5
153242	2026-01-10T14:31:10	0.9	98.5
153243	2026-01-10T14:41:10	0.8	98.5
153244	2026-01-10T14:51:10	0.8	98.5
153245	2026-01-10T15:01:10	0.7	98.5
153246	2026-01-10T15:11:10	0.7	98.5
153247	2026-01-10T15:21:10	0.5	98.5
153248	2026-01-10T15:31:10	0.5	98.5
153249	2026-01-10T15:41:10	0.5	98.5
153250	2026-01-10T15:51:10	0.5	98.5
153251	2026-01-10T16:01:10	0.6	98.5
153252	2026-01-10T16:11:10	0.5	98.5
153253	2026-01-10T16:21:10	0.4	98.5
153254	2026-01-10T16:31:10	0.5	98
153255	2026-01-10T16:41:10	0.6	98.5
153256	2026-01-10T16:51:10	0.6	98
153257	2026-01-10T17:01:10	0.5	98
153258	2026-01-10T17:11:10	0.5	98.5
153259	2026-01-10T17:21:10	0.4	98.5
153260	2026-01-10T17:31:10	0.4	98
153261	2026-01-10T17:41:10	0.5	98.5
153262	2026-01-10T17:51:10	0.5	98.5
153263	2026-01-10T18:01:10	0.5	98
153264	2026-01-10T18:11:10	0.3	98.5
153265	2026-01-10T18:21:10	0.3	98
153266	2026-01-10T18:31:10	0	98.5
153267	2026-01-10T18:41:10	0	98.5
153268	2026-01-10T18:51:10	0	98.5
153269	2026-01-10T19:01:10	0.1	98
153270	2026-01-10T19:11:10	0	98
153271	2026-01-10T19:21:10	0	98.5
153272	2026-01-10T19:31:10	0.1	98
153273	2026-01-10T19:41:10	0	98
153274	2026-01-10T19:51:10	0	98
153275	2026-01-10T20:01:10	-0.2	98
153276	2026-01-10T20:11:10	-0.1	98
153277	2026-01-10T20:21:10	-0.2	98
153278	2026-01-10T20:31:10	-0.2	98.5
153279	2026-01-10T20:41:10	-0.3	98.5
153280	2026-01-10T20:51:10	-0.2	98.5
153281	2026-01-10T21:01:10	-0.3	98
153282	2026-01-10T21:11:10	-0.3	98.5
153283	2026-01-10T21:21:10	-0.3	98.5
153284	2026-01-10T21:31:10	-0.3	98.5
153285	2026-01-10T21:41:10	-0.3	98.5
153286	2026-01-10T21:51:10	-0.3	98.5
153287	2026-01-10T22:01:10	-0.5	98.5
153288	2026-01-10T22:11:10	-0.4	98.5
153289	2026-01-10T22:21:10	-0.5	98
153290	2026-01-10T22:31:10	-0.5	98.5
153291	2026-01-10T22:41:10	-0.5	98
153292	2026-01-10T22:51:10	-0.6	98
153293	2026-01-10T23:01:10	-0.6	98.5
153294	2026-01-10T23:11:10	-0.1	98.5
153295	2026-01-10T23:21:10	0	100
153296	2026-01-10T23:31:10	0	100
153297	2026-01-10T23:41:10	-0.1	100
153298	2026-01-10T23:51:10	-0.1	100
153299	2026-01-11T00:01:10	-0.3	100
153300	2026-01-11T00:11:10	-0.6	100
153301	2026-01-11T00:21:10	-0.7	100
153302	2026-01-11T00:31:10	-0.7	100
153303	2026-01-11T00:41:10	-0.8	100
153304	2026-01-11T00:51:10	-0.7	100
153305	2026-01-11T01:01:10	-0.7	100
153306	2026-01-11T01:11:10	-0.7	100
153307	2026-01-11T01:21:10	-0.7	100
153308	2026-01-11T01:31:10	-0.7	100
153309	2026-01-11T01:41:10	-0.6	100
153310	2026-01-11T01:51:10	-0.5	100
153311	2026-01-11T02:01:10	-0.6	100
153312	2026-01-11T02:11:10	-0.6	100
153313	2026-01-11T02:21:10	-0.5	100
153314	2026-01-11T02:31:10	-0.6	100
153315	2026-01-11T02:41:10	-0.6	100
153316	2026-01-11T02:51:10	-0.7	100
153317	2026-01-11T03:01:10	-0.6	100
153318	2026-01-11T03:11:10	-0.7	100
153319	2026-01-11T03:21:10	-0.6	100
153320	2026-01-11T03:31:10	-0.5	100
153321	2026-01-11T03:41:10	-0.5	100
153322	2026-01-11T03:51:10	-0.6	100
153323	2026-01-11T04:01:10	-0.6	100
153324	2026-01-11T04:11:10	-0.7	100
153325	2026-01-11T04:21:10	-0.6	100
153326	2026-01-11T04:31:10	-0.6	100
153327	2026-01-11T04:41:10	-0.6	100
153328	2026-01-11T04:51:10	-0.6	100
153329	2026-01-11T05:01:10	-0.5	100
153330	2026-01-11T05:11:10	-0.6	100
153331	2026-01-11T05:21:10	-0.7	100
153332	2026-01-11T05:31:10	-0.6	100
153333	2026-01-11T05:41:10	-0.6	100
153334	2026-01-11T05:51:10	-0.5	100
153335	2026-01-11T06:01:10	-0.6	100
153336	2026-01-11T06:11:10	-0.6	100
153337	2026-01-11T06:21:10	-0.7	100
153338	2026-01-11T06:31:10	-0.7	100
153339	2026-01-11T06:41:10	-0.6	100
153340	2026-01-11T06:51:10	-0.7	100
153341	2026-01-11T07:01:10	-0.7	100
153342	2026-01-11T07:11:10	-0.6	100
153343	2026-01-11T07:21:10	-0.6	100
153344	2026-01-11T07:31:10	-0.6	100
153345	2026-01-11T07:41:10	-0.5	100
153346	2026-01-11T07:51:10	-0.4	100
153347	2026-01-11T08:01:10	-0.4	100
153348	2026-01-11T08:11:10	-0.3	100
153349	2026-01-11T08:21:10	-0.3	100
153350	2026-01-11T08:31:10	-0.2	100
153351	2026-01-11T08:41:10	-0.2	100
153352	2026-01-11T08:51:10	-0.2	100
153353	2026-01-11T09:01:10	0	100
153354	2026-01-11T09:11:10	-0.1	100
153355	2026-01-11T09:21:10	0	100
153356	2026-01-11T09:31:10	0	100
153357	2026-01-11T09:41:10	0	98.5
153358	2026-01-11T09:51:10	0	99
153359	2026-01-11T10:01:10	0	99
153360	2026-01-11T10:11:10	0.1	99
153361	2026-01-11T10:21:10	0.3	99
153362	2026-01-11T10:31:10	0.7	99
153363	2026-01-11T10:41:10	1.3	98.5
153364	2026-01-11T10:51:10	1.6	98.5
153365	2026-01-11T11:01:10	1.3	98.5
153366	2026-01-11T11:11:10	1.4	98.5
153367	2026-01-11T11:21:10	1.5	98.5
153368	2026-01-11T11:31:10	1.6	98.5
153369	2026-01-11T11:41:10	1.5	98.5
153370	2026-01-11T11:51:10	1.7	98.5
153371	2026-01-11T12:01:10	1.7	98.5
153372	2026-01-11T12:11:10	2	98.5
153373	2026-01-11T12:21:10	2	98.5
153374	2026-01-11T12:31:10	2.2	98.5
153375	2026-01-11T12:41:10	2.1	98.5
153376	2026-01-11T12:51:10	2.1	98.5
153377	2026-01-11T13:01:10	1.9	98.5
153378	2026-01-11T13:11:10	2	98.5
153379	2026-01-11T13:21:10	1.9	98.5
153380	2026-01-11T13:31:10	1.8	98.5
153381	2026-01-11T13:41:10	1.7	98.5
153382	2026-01-11T13:51:10	1.7	98.5
153383	2026-01-11T14:01:10	1.7	98.5
153384	2026-01-11T14:11:10	1.7	98.5
153385	2026-01-11T14:21:10	1.7	98.5
153386	2026-01-11T14:31:10	1.5	98.5
153387	2026-01-11T14:41:10	1.5	98.5
153388	2026-01-11T14:51:10	1.4	98.5
153389	2026-01-11T15:01:10	1.2	98.5
153390	2026-01-11T15:11:10	1.2	98.5
153391	2026-01-11T15:21:10	0.9	98.5
153392	2026-01-11T15:31:10	0.8	98.5
153393	2026-01-11T15:41:10	0.8	98.5
153394	2026-01-11T15:51:10	0.8	98.5
153395	2026-01-11T16:01:10	0.7	98.5
153396	2026-01-11T16:11:10	0.7	98.5
153397	2026-01-11T16:21:10	0.7	98.5
153398	2026-01-11T16:31:10	0.6	98.5
153399	2026-01-11T16:41:10	0.7	98.5
153400	2026-01-11T16:51:10	0.7	98.5
153401	2026-01-11T17:01:10	0.7	98.5
153402	2026-01-11T17:11:10	0.7	98.5
153403	2026-01-11T17:21:10	0.6	98.5
153404	2026-01-11T17:31:10	0.6	98.5
153405	2026-01-11T17:41:10	0.5	98.5
153406	2026-01-11T17:51:10	0.4	98.5
153407	2026-01-11T18:01:10	0.3	98.5
153408	2026-01-11T18:11:10	0	98.5
153409	2026-01-11T18:21:10	-0.3	98.5
153410	2026-01-11T18:31:10	0	98.5
153411	2026-01-11T18:41:10	0	98.5
153412	2026-01-11T18:51:10	0	98.5
153413	2026-01-11T19:01:10	0	98.5
153414	2026-01-11T19:11:10	-0.1	98.5
153415	2026-01-11T19:21:10	-0.3	98.5
153416	2026-01-11T19:31:10	-0.5	98.5
153417	2026-01-11T19:41:10	-0.5	98.5
153418	2026-01-11T19:51:10	-0.6	98.5
153419	2026-01-11T20:01:10	-1	98.5
153420	2026-01-11T20:11:10	-1.4	98.5
153421	2026-01-11T20:21:10	-1.6	98.5
153422	2026-01-11T20:31:10	-1.8	98.5
153423	2026-01-11T20:41:10	-2.1	98.5
153424	2026-01-11T20:51:10	-2	98.5
153425	2026-01-11T21:01:10	-2.2	98.5
153426	2026-01-11T21:11:10	-0.1	100
153427	2026-01-11T21:21:10	-1.8	100
153428	2026-01-11T21:31:10	-2.1	100
153429	2026-01-11T21:41:10	-2.2	100
153430	2026-01-11T21:51:10	-2.2	100
153431	2026-01-11T22:01:10	-2.4	100
153432	2026-01-11T22:11:10	-2.3	100
153433	2026-01-11T22:21:10	-2.3	100
153434	2026-01-11T22:31:10	-2.3	100
153435	2026-01-11T22:41:10	-2.5	100
153436	2026-01-11T22:51:10	-2.5	100
153437	2026-01-11T23:01:10	-2.4	100
153438	2026-01-11T23:11:10	-1.9	100
153439	2026-01-11T23:21:10	-1.9	100
153440	2026-01-11T23:31:10	-1.8	100
153441	2026-01-11T23:41:10	-1.4	100
153442	2026-01-11T23:51:10	-1.5	100
153443	2026-01-12T00:01:10	-1.4	100
153444	2026-01-12T00:11:10	-1.4	100
153445	2026-01-12T00:21:10	-1.4	100
153446	2026-01-12T00:31:10	-1.4	100
153447	2026-01-12T00:41:10	-1.3	100
153448	2026-01-12T00:51:10	-1.2	100
153449	2026-01-12T01:01:10	-1.1	100
153450	2026-01-12T01:11:10	-1	100
153451	2026-01-12T01:21:10	-0.9	100
153452	2026-01-12T01:31:10	-1	100
153453	2026-01-12T01:41:10	-1	100
153454	2026-01-12T01:51:10	-0.9	100
153455	2026-01-12T02:01:10	-0.8	100
153456	2026-01-12T02:11:10	-0.8	100
153457	2026-01-12T02:21:10	-0.8	100
153458	2026-01-12T02:31:10	-0.8	100
153459	2026-01-12T02:41:10	-0.8	100
153460	2026-01-12T02:51:10	-0.8	100
153461	2026-01-12T03:01:10	-0.7	100
153462	2026-01-12T03:11:10	-0.7	100
153463	2026-01-12T03:21:10	-0.7	100
153464	2026-01-12T03:31:10	-0.5	100
153465	2026-01-12T03:41:10	-0.5	100
153466	2026-01-12T03:51:10	-0.6	100
153467	2026-01-12T04:01:10	-0.5	100
153468	2026-01-12T04:11:10	-0.4	100
153469	2026-01-12T04:21:10	-0.4	100
153470	2026-01-12T04:31:10	-0.4	100
153471	2026-01-12T04:41:10	-0.5	100
153472	2026-01-12T04:51:10	-0.3	100
153473	2026-01-12T05:01:10	-0.4	100
153474	2026-01-12T05:11:10	-0.4	100
153475	2026-01-12T05:21:10	-0.2	100
153476	2026-01-12T05:31:10	-0.1	100
153477	2026-01-12T05:41:10	-0.1	100
153478	2026-01-12T05:51:10	0	100
153479	2026-01-12T06:01:10	0	100
153480	2026-01-12T06:11:10	0	100
153481	2026-01-12T06:21:10	-0.1	100
153482	2026-01-12T06:31:10	-0.1	100
153483	2026-01-12T06:41:10	-0.1	100
153484	2026-01-12T06:51:10	0	100
153485	2026-01-12T07:01:10	-0.1	100
153486	2026-01-12T07:11:10	0	100
153487	2026-01-12T07:21:10	0	100
153488	2026-01-12T07:31:10	-0.1	100
153489	2026-01-12T07:41:10	0	99.5
153490	2026-01-12T07:51:10	0	98.5
153491	2026-01-12T08:01:10	0	98.5
153492	2026-01-12T08:11:10	0	98
153493	2026-01-12T08:21:10	0	98.5
153494	2026-01-12T08:31:10	0.2	99
153495	2026-01-12T08:41:10	0.7	98.5
153496	2026-01-12T08:51:10	1	98.5
153497	2026-01-12T09:01:10	1.2	98.5
153498	2026-01-12T09:11:10	1.4	98.5
153499	2026-01-12T09:21:10	1.3	98
153500	2026-01-12T09:31:10	1.6	98.5
153501	2026-01-12T09:41:10	1.6	98.5
153502	2026-01-12T09:51:10	2	98.5
153503	2026-01-12T10:01:10	2.3	98.5
153504	2026-01-12T10:11:10	2.4	98.5
153505	2026-01-12T10:21:10	2.5	98.5
153506	2026-01-12T10:31:10	2.9	98.5
153507	2026-01-12T10:41:10	3	98.5
153508	2026-01-12T10:51:10	3	98.5
153509	2026-01-12T11:01:10	3.3	98.5
153510	2026-01-12T11:11:10	3.4	98.5
153511	2026-01-12T11:21:10	3.6	98.5
153512	2026-01-12T11:31:10	3.5	98.5
153513	2026-01-12T11:41:10	4	98.5
153514	2026-01-12T11:51:10	4.2	98.5
153515	2026-01-12T12:01:10	4.3	98.5
153516	2026-01-12T12:11:10	4.7	98.5
153517	2026-01-12T12:21:10	5	98.5
153518	2026-01-12T12:31:10	5.3	98.5
153519	2026-01-12T12:41:10	5.7	98.5
153520	2026-01-12T12:51:10	6.1	98.5
153521	2026-01-12T13:01:10	6.3	98.5
153522	2026-01-12T13:11:10	6.4	98.5
153523	2026-01-12T13:21:10	6.4	98.5
153524	2026-01-12T13:31:10	6.5	98.5
153525	2026-01-12T13:41:10	6.5	98.5
153526	2026-01-12T13:51:10	6.6	98.5
153527	2026-01-12T14:01:10	6.4	98.5
153528	2026-01-12T14:11:10	6.4	98.5
153529	2026-01-12T14:21:09	6.5	98.5
153530	2026-01-12T14:31:09	6.7	98.5
153531	2026-01-12T14:41:09	6.8	98.5
153532	2026-01-12T14:51:09	7.1	98.5
153533	2026-01-12T15:01:10	7.3	98.5
153534	2026-01-12T15:11:09	7.4	98.5
153535	2026-01-12T15:21:09	7.6	98.5
153536	2026-01-12T15:31:09	7.7	98.5
153537	2026-01-12T15:41:09	7.7	98.5
153538	2026-01-12T15:51:09	7.7	98.5
153539	2026-01-12T16:01:09	7.9	98.5
153540	2026-01-12T16:11:09	8.1	98.5
153541	2026-01-12T16:21:09	8.1	98.5
153542	2026-01-12T16:31:09	8	98.5
153543	2026-01-12T16:41:09	7.9	98.5
153544	2026-01-12T16:51:09	7.9	98.5
153545	2026-01-12T17:01:09	8.2	98.5
153546	2026-01-12T17:11:09	8.2	98.5
153547	2026-01-12T17:21:09	8	98.5
153548	2026-01-12T17:31:09	7.7	98.5
153549	2026-01-12T17:41:09	7.6	98.5
153550	2026-01-12T17:51:09	7.5	98.5
153551	2026-01-12T18:01:09	7.3	98.5
153552	2026-01-12T18:11:09	7	98.5
153553	2026-01-12T18:21:09	6.9	98.5
153554	2026-01-12T18:31:09	6.8	98.5
153555	2026-01-12T18:41:09	6.5	98.5
153556	2026-01-12T18:51:09	6.3	98.5
153557	2026-01-12T19:01:09	6.2	98
153558	2026-01-12T19:11:09	6	98
153559	2026-01-12T19:21:09	6	98
153560	2026-01-12T19:31:09	5.9	98.5
153561	2026-01-12T19:41:09	5.7	98
153562	2026-01-12T19:51:09	5.7	98
153563	2026-01-12T20:01:09	5.9	98.5
153564	2026-01-12T20:11:09	6	98.5
153565	2026-01-12T20:21:09	5.9	98
153566	2026-01-12T20:31:09	5.7	98.5
153567	2026-01-12T20:41:09	5.8	98.5
153568	2026-01-12T20:51:09	5.7	98.5
153569	2026-01-12T21:01:09	6.4	98
153570	2026-01-12T21:11:09	6.8	98.5
153571	2026-01-12T21:21:09	7	98.5
153572	2026-01-12T21:31:09	7	98.5
153573	2026-01-12T21:41:09	7.2	98.5
153574	2026-01-12T21:51:09	7.1	98.5
153575	2026-01-12T22:01:09	7.2	98.5
153576	2026-01-12T22:11:09	7	98.5
153577	2026-01-12T22:21:09	6.9	98.5
153578	2026-01-12T22:31:09	6.7	98.5
153579	2026-01-12T22:41:09	6.5	98.5
153580	2026-01-12T22:51:09	6.4	98.5
153581	2026-01-12T23:01:09	6.6	98.5
153582	2026-01-12T23:11:09	6.8	98.5
153583	2026-01-12T23:21:09	6.9	98.5
153584	2026-01-12T23:31:09	7.4	98.5
153585	2026-01-12T23:41:09	7.3	98.5
153586	2026-01-12T23:51:09	7.7	98.5
153587	2026-01-13T00:01:09	8.1	98.5
153588	2026-01-13T00:11:09	8.1	98.5
153589	2026-01-13T00:21:09	8	98.5
153590	2026-01-13T00:31:09	8.4	98.5
153591	2026-01-13T00:41:09	8.3	98.5
153592	2026-01-13T00:51:09	8.3	98.5
153593	2026-01-13T01:01:09	8.5	98.5
153594	2026-01-13T01:11:09	8.5	98.5
153595	2026-01-13T01:21:09	8.4	98.5
153596	2026-01-13T01:31:09	8.3	98.5
153597	2026-01-13T01:51:09	8.4	98
153598	2026-01-13T02:01:09	8.5	98
153599	2026-01-13T02:11:09	8.5	98
153600	2026-01-13T02:21:09	8.3	98
153601	2026-01-13T02:31:09	8.4	98.5
153602	2026-01-13T02:41:09	8.4	98
153603	2026-01-13T02:51:09	8.3	98
153604	2026-01-13T03:01:09	8.4	98
153605	2026-01-13T03:11:09	8.4	98
153606	2026-01-13T03:21:09	8.3	98
153607	2026-01-13T03:31:09	8.3	98
153608	2026-01-13T03:41:09	8.2	98
153609	2026-01-13T03:51:09	8.2	98
153610	2026-01-13T04:01:09	8	98
153611	2026-01-13T04:11:09	8	98
153612	2026-01-13T04:21:09	7.9	98
153613	2026-01-13T04:31:09	8	98
153614	2026-01-13T04:41:09	8.2	98
153615	2026-01-13T04:51:09	8.2	98
153616	2026-01-13T05:01:09	8.2	98
153617	2026-01-13T05:11:09	8	98
153618	2026-01-13T05:21:09	7.9	98
153619	2026-01-13T05:31:09	7.9	98
153620	2026-01-13T05:41:09	8	98
153621	2026-01-13T05:51:09	7.9	98
153622	2026-01-13T06:01:09	7.8	98
153623	2026-01-13T06:11:09	7.8	98
153624	2026-01-13T06:21:09	7.5	100
153625	2026-01-13T06:31:09	7.3	100
153626	2026-01-13T06:41:09	7.3	100
153627	2026-01-13T06:51:09	7.2	100
153628	2026-01-13T07:01:09	7.3	100
153629	2026-01-13T07:11:09	7.3	100
153630	2026-01-13T07:21:09	7.2	100
153631	2026-01-13T07:31:09	7.3	100
153632	2026-01-13T07:41:09	7.4	100
153633	2026-01-13T07:51:09	7.3	100
153634	2026-01-13T08:01:09	7.4	100
153635	2026-01-13T08:11:09	7.6	100
153636	2026-01-13T08:21:09	7.6	100
153637	2026-01-13T08:31:09	7.6	100
153638	2026-01-13T08:41:09	7.8	100
153639	2026-01-13T08:51:09	7.9	100
153640	2026-01-13T09:01:09	8.1	100
153641	2026-01-13T09:11:09	8.2	100
153642	2026-01-13T09:21:09	8.2	100
153643	2026-01-13T09:31:09	8.4	100
153644	2026-01-13T09:41:09	8.5	100
153645	2026-01-13T09:51:09	8.6	100
153646	2026-01-13T10:01:09	8.7	100
153647	2026-01-13T10:11:09	8.7	100
153648	2026-01-13T10:21:09	8.8	100
153649	2026-01-13T10:31:09	8.9	100
153650	2026-01-13T10:41:09	9.1	100
153651	2026-01-13T10:51:09	9.2	100
153652	2026-01-13T11:01:08	9.2	100
153653	2026-01-13T11:11:08	9.3	100
153654	2026-01-13T11:21:08	9.2	100
153655	2026-01-13T11:31:08	9.3	100
153656	2026-01-13T11:41:08	9.4	100
153657	2026-01-13T11:51:08	9.9	100
153658	2026-01-13T12:01:08	10.3	100
153659	2026-01-13T12:11:08	10.3	100
153660	2026-01-13T12:21:08	10.5	100
153661	2026-01-13T12:31:08	10.9	100
153662	2026-01-13T12:41:08	10.7	100
153663	2026-01-13T12:51:08	10.9	100
153664	2026-01-13T13:01:08	11.1	100
153665	2026-01-13T13:11:08	11.2	100
153666	2026-01-13T13:21:08	11.5	100
153667	2026-01-13T13:31:08	11.6	100
153668	2026-01-13T13:41:08	13.2	100
153669	2026-01-13T13:51:08	16.5	100
153670	2026-01-13T14:01:08	17.7	99
153671	2026-01-13T14:11:08	18.9	94
153672	2026-01-13T14:21:08	16.7	93
153673	2026-01-13T14:31:08	15.8	90
153674	2026-01-13T14:41:08	17.2	86.5
153675	2026-01-13T14:51:08	17	87.5
153676	2026-01-13T15:01:08	16.3	85.5
153677	2026-01-13T15:11:08	14.7	91
153678	2026-01-13T15:21:08	13.8	93
153679	2026-01-13T15:31:08	13	94
153680	2026-01-13T15:41:08	12.3	95
153681	2026-01-13T15:51:08	11.7	96
153682	2026-01-13T16:01:08	11.1	96
153683	2026-01-13T16:11:08	10.6	98
153684	2026-01-13T16:21:08	10.1	98
153685	2026-01-13T16:31:28	9.8	99.5
153686	2026-01-13T16:41:08	9.4	99.5
153687	2026-01-13T16:51:08	9	98.5
153688	2026-01-13T17:01:08	8.8	98.5
153689	2026-01-13T17:11:08	8.5	99.5
153690	2026-01-13T17:21:08	8.3	99
153691	2026-01-13T17:31:08	8.1	100
153692	2026-01-13T17:41:08	8.1	99.5
153693	2026-01-13T17:51:08	8.1	100
153694	2026-01-13T18:01:08	8	100
153695	2026-01-13T18:11:08	7.8	100
153696	2026-01-13T18:21:08	7.5	100
153697	2026-01-13T18:31:08	7.4	100
153698	2026-01-13T18:41:08	7.3	100
153699	2026-01-13T18:51:08	7.1	100
153700	2026-01-13T19:01:08	7	100
153701	2026-01-13T19:11:08	7	100
153702	2026-01-13T19:21:08	6.8	100
153703	2026-01-13T19:31:08	6.6	100
153704	2026-01-13T19:41:08	6.6	100
153705	2026-01-13T19:51:08	6.5	100
153706	2026-01-13T20:01:08	6.4	100
153707	2026-01-13T20:11:08	6.3	100
153708	2026-01-13T20:21:08	6.3	100
153709	2026-01-13T20:31:08	6.2	100
153710	2026-01-13T20:41:08	6	100
153711	2026-01-13T20:51:08	5.9	100
153712	2026-01-13T21:01:08	5.7	100
153713	2026-01-13T21:11:08	5.5	100
153714	2026-01-13T21:21:08	5.3	100
153715	2026-01-13T21:31:08	5.2	100
153716	2026-01-13T21:41:08	5.1	100
153717	2026-01-13T21:51:08	4.9	100
153718	2026-01-13T22:01:08	4.7	100
153719	2026-01-13T22:11:08	4.7	100
153720	2026-01-13T22:21:08	4.7	100
153721	2026-01-13T22:31:08	4.5	100
153722	2026-01-13T22:41:08	4.5	100
153723	2026-01-13T22:51:08	4.4	100
153724	2026-01-13T23:01:08	4.3	100
153725	2026-01-13T23:11:08	4.4	100
153726	2026-01-13T23:21:08	4.1	100
153727	2026-01-13T23:31:08	4	100
153728	2026-01-13T23:41:08	3.8	100
153729	2026-01-13T23:51:08	3.7	100
153730	2026-01-14T00:01:08	3.6	100
153731	2026-01-14T00:11:08	3.6	100
153732	2026-01-14T00:21:08	3.5	100
153733	2026-01-14T00:41:08	3.3	100
153734	2026-01-14T00:51:08	3.2	100
153735	2026-01-14T01:01:08	3.3	100
153736	2026-01-14T01:11:08	3.2	100
153737	2026-01-14T01:21:08	3	100
153738	2026-01-14T01:31:08	2.9	100
153739	2026-01-14T01:41:08	3	100
153740	2026-01-14T01:51:08	3	100
153741	2026-01-14T02:01:08	3	100
153742	2026-01-14T02:11:08	2.8	100
153743	2026-01-14T02:21:08	2.7	100
153744	2026-01-14T02:31:08	2.5	100
153745	2026-01-14T02:41:08	2.5	100
153746	2026-01-14T02:51:08	2.6	100
153747	2026-01-14T03:01:08	2.6	100
153748	2026-01-14T03:11:08	3	100
153749	2026-01-14T03:21:08	3.5	100
153750	2026-01-14T03:31:08	4.1	100
153751	2026-01-14T03:41:08	4.3	100
153752	2026-01-14T03:51:08	5	100
153753	2026-01-14T04:01:08	5	100
153754	2026-01-14T04:11:08	5.4	100
153755	2026-01-14T04:21:08	5.9	99.5
153756	2026-01-14T04:31:08	5.6	100
153757	2026-01-14T04:41:08	5.6	100
153758	2026-01-14T04:51:08	6.1	99
153759	2026-01-14T05:01:08	6.1	99
153760	2026-01-14T05:11:08	6.5	98.5
153761	2026-01-14T05:21:08	6.4	98.5
153762	2026-01-14T05:31:08	6.7	98.5
153763	2026-01-14T05:41:08	6.7	98
153764	2026-01-14T05:51:08	7.5	95.5
153765	2026-01-14T06:01:08	7.9	94
153766	2026-01-14T06:11:08	8.5	92.5
153767	2026-01-14T06:21:08	8.9	90.5
153768	2026-01-14T06:31:08	9	89.5
153769	2026-01-14T06:41:08	9.1	89
153770	2026-01-14T06:51:08	9.1	87.5
153771	2026-01-14T07:01:08	9.3	86.5
153772	2026-01-14T07:11:08	9.5	84.5
153773	2026-01-14T07:21:08	9.4	85
153774	2026-01-14T07:31:08	9.4	84
153775	2026-01-14T07:41:08	9.3	84
153776	2026-01-14T07:51:08	9.3	84
153777	2026-01-14T08:01:08	9	88.5
153778	2026-01-14T08:11:08	8.9	88
153779	2026-01-14T08:21:07	9	87.5
153780	2026-01-14T08:31:08	9	88.5
153781	2026-01-14T08:41:07	9.1	87.5
153782	2026-01-14T08:51:07	9.4	84.5
153783	2026-01-14T09:01:07	9.7	83
153784	2026-01-14T09:11:07	9.9	82.5
153785	2026-01-14T09:21:07	10.2	81
153786	2026-01-14T09:31:07	10.7	80.5
153787	2026-01-14T09:41:07	11.1	79
153788	2026-01-14T09:51:07	11.1	78
153789	2026-01-14T10:01:07	11.4	77
153790	2026-01-14T10:11:07	11.7	77
153791	2026-01-14T10:21:07	12	76
153792	2026-01-14T10:31:07	12.1	74.5
153793	2026-01-14T10:41:07	12.3	74
153794	2026-01-14T10:51:07	12.4	73.5
153795	2026-01-14T11:01:07	12.4	74.5
153796	2026-01-14T11:11:07	12.5	74
153797	2026-01-14T11:21:07	12.4	73.5
153798	2026-01-14T11:31:07	12.5	73.5
153799	2026-01-14T11:41:07	12.6	73
153800	2026-01-14T11:51:07	12.6	72.5
153801	2026-01-14T12:01:07	12.7	72.5
153802	2026-01-14T12:11:07	12.6	73
153803	2026-01-14T12:21:07	12.7	72.5
153804	2026-01-14T12:31:07	12.5	73
153805	2026-01-14T12:41:07	12.5	73
153806	2026-01-14T12:51:07	12.5	74
153807	2026-01-14T13:01:07	12.4	73.5
153808	2026-01-14T13:11:07	12.3	74
153809	2026-01-14T13:21:07	12.3	74.5
153810	2026-01-14T13:31:07	12.1	75.5
153811	2026-01-14T13:41:07	12.2	75
153812	2026-01-14T13:51:07	12.2	75
153813	2026-01-14T14:01:07	12	75.5
153814	2026-01-14T14:11:07	12	76
153815	2026-01-14T14:21:07	11.8	76.5
153816	2026-01-14T14:31:07	11.7	77
153817	2026-01-14T14:41:07	11.8	77
153818	2026-01-14T14:51:07	11.7	77
153819	2026-01-14T15:01:07	11.6	77.5
153820	2026-01-14T15:11:07	11.6	77.5
153821	2026-01-14T15:21:07	11.6	78.5
153822	2026-01-14T15:31:07	11.4	78
153823	2026-01-14T15:41:07	11.3	78.5
153824	2026-01-14T15:51:07	11.3	79
153825	2026-01-14T16:01:07	11.3	79
153826	2026-01-14T16:11:07	11.2	78.5
153827	2026-01-14T16:21:07	11.2	79
153828	2026-01-14T16:31:07	11.1	79.5
153829	2026-01-14T16:41:07	10.9	81.5
153830	2026-01-14T16:51:07	10.8	82.5
153831	2026-01-14T17:01:07	10.6	84
153832	2026-01-14T17:11:07	10.6	84
153833	2026-01-14T17:21:07	10.5	84
153834	2026-01-14T17:31:07	10.5	86
153835	2026-01-14T17:41:07	10.3	86
153836	2026-01-14T17:51:07	10.2	87.5
153837	2026-01-14T18:01:07	10.1	87.5
153838	2026-01-14T18:11:07	10	88.5
153839	2026-01-14T18:21:07	9.9	89
153840	2026-01-14T18:31:07	9.9	88.5
153841	2026-01-14T18:41:07	9.8	89.5
153842	2026-01-14T18:51:07	9.7	90
153843	2026-01-14T19:01:07	9.6	90
153844	2026-01-14T19:11:07	9.6	91
153845	2026-01-14T19:21:07	9.6	91
153846	2026-01-14T19:31:07	9.4	91.5
153847	2026-01-14T19:41:07	9.3	91.5
153848	2026-01-14T19:51:07	9.3	92
153849	2026-01-14T20:01:07	9.2	92.5
153850	2026-01-14T20:11:07	9.2	91.5
153851	2026-01-14T20:21:07	9.2	92
153852	2026-01-14T20:31:07	9.1	93
153853	2026-01-14T20:41:07	9	92
153854	2026-01-14T20:51:07	9	92.5
153855	2026-01-14T21:01:07	9	92.5
153856	2026-01-14T21:11:07	8.8	92.5
153857	2026-01-14T21:21:07	8.9	93.5
153858	2026-01-14T21:31:07	8.4	95
153859	2026-01-14T21:41:07	8	96.5
153860	2026-01-14T21:51:07	8.3	96
153861	2026-01-14T22:01:07	8.3	95.5
153862	2026-01-14T22:11:07	8.3	94
153863	2026-01-14T22:21:07	8.1	94.5
153864	2026-01-14T22:31:07	8.2	95.5
153865	2026-01-14T22:41:07	8	95.5
153866	2026-01-14T22:51:07	8.1	96
153867	2026-01-14T23:01:07	7.9	96.5
153868	2026-01-14T23:11:07	7.9	96.5
153869	2026-01-14T23:21:07	7.9	96
153870	2026-01-14T23:31:07	7.9	96
153871	2026-01-14T23:41:07	7.9	96
153872	2026-01-14T23:51:07	8	96.5
153873	2026-01-15T00:01:07	7.9	94.5
153874	2026-01-15T00:11:07	8	93
153875	2026-01-15T00:21:07	8	95
153876	2026-01-15T00:31:07	8	95
153877	2026-01-15T00:41:07	8	95.5
153878	2026-01-15T00:51:07	7.9	93.5
153879	2026-01-15T01:01:07	8.1	94
153880	2026-01-15T01:11:07	7.8	95.5
153881	2026-01-15T01:21:06	7.8	95
153882	2026-01-15T01:31:06	7.7	95.5
153883	2026-01-15T01:41:06	7.8	95
153884	2026-01-15T01:51:06	7.8	93.5
153885	2026-01-15T02:01:06	7.9	93
153886	2026-01-15T02:11:06	7.9	93
153887	2026-01-15T02:21:06	7.9	95
153888	2026-01-15T02:31:06	7.8	96
153889	2026-01-15T02:41:06	7.8	97.5
153890	2026-01-15T02:51:06	7.8	98
153891	2026-01-15T03:01:06	7.7	98
153892	2026-01-15T03:11:28	7.5	99
153893	2026-01-15T03:21:06	7.3	99.5
153894	2026-01-15T03:31:06	7.4	99.5
153895	2026-01-15T03:41:06	7.4	99
153896	2026-01-15T03:51:06	7.4	99.5
153897	2026-01-15T04:01:06	7.5	100
153898	2026-01-15T04:11:06	7.5	100
153899	2026-01-15T04:21:06	7.5	99.5
153900	2026-01-15T04:31:06	7.5	100
153901	2026-01-15T04:41:06	7.5	100
153902	2026-01-15T04:51:06	7.5	100
153903	2026-01-15T05:01:06	7.5	100
153904	2026-01-15T05:11:06	7.4	99.5
153905	2026-01-15T05:21:06	7.4	100
153906	2026-01-15T05:31:06	7.5	100
153907	2026-01-15T05:41:06	7.5	100
153908	2026-01-15T05:51:06	7.4	100
153909	2026-01-15T06:01:06	7.4	100
153910	2026-01-15T06:11:06	7.4	100
153911	2026-01-15T06:21:06	7.3	100
153912	2026-01-15T06:31:06	7.4	100
153913	2026-01-15T06:41:06	7.3	100
153914	2026-01-15T06:51:06	7.3	100
153915	2026-01-15T07:01:06	7.4	100
153916	2026-01-15T07:11:06	7.4	100
153917	2026-01-15T07:21:06	7.3	100
153918	2026-01-15T07:31:06	7.3	100
153919	2026-01-15T07:41:25	7.3	100
153920	2026-01-15T07:51:06	7.3	100
153921	2026-01-15T08:01:06	7.4	100
153922	2026-01-15T08:11:06	7.4	100
153923	2026-01-15T08:21:06	7.7	100
153924	2026-01-15T08:31:06	8	100
153925	2026-01-15T08:41:06	8.3	100
153926	2026-01-15T08:51:06	8.5	100
153927	2026-01-15T09:01:06	8.5	100
153928	2026-01-15T09:11:06	8.5	100
153929	2026-01-15T09:21:06	8.9	100
153930	2026-01-15T09:31:06	9.3	100
153931	2026-01-15T09:41:06	9.4	100
153932	2026-01-15T09:51:06	9.5	100
153933	2026-01-15T10:01:06	9.4	100
153934	2026-01-15T10:11:06	9.6	98.5
153935	2026-01-15T10:21:06	9.7	96.5
153936	2026-01-15T10:31:06	10	94
153937	2026-01-15T10:41:06	10.2	92.5
153938	2026-01-15T10:51:06	10.4	91
153939	2026-01-15T11:01:06	10.8	89.5
153940	2026-01-15T11:11:06	11	89
153941	2026-01-15T11:21:06	11.7	87
153942	2026-01-15T11:31:06	11.9	84
153943	2026-01-15T11:41:06	12	82.5
153944	2026-01-15T11:51:06	12.4	81
153945	2026-01-15T12:01:06	13.5	77
153946	2026-01-15T12:11:06	15.3	72
153947	2026-01-15T12:21:06	16.3	68.5
153948	2026-01-15T12:31:06	17.1	63.5
153949	2026-01-15T12:41:06	18.3	62.5
153950	2026-01-15T12:51:06	18.7	59
153951	2026-01-15T13:01:06	19.3	58.5
153952	2026-01-15T13:11:06	20	55.5
153953	2026-01-15T13:21:06	20.9	52
153954	2026-01-15T13:31:06	21.6	49.5
153955	2026-01-15T13:41:06	21.5	51
153956	2026-01-15T13:51:06	21.2	50.5
153957	2026-01-15T14:01:06	21.4	48
153958	2026-01-15T14:11:06	21.3	48
153959	2026-01-15T14:21:06	21.7	47.5
153960	2026-01-15T14:31:06	21.6	47.5
153961	2026-01-15T14:41:06	21.4	48
153962	2026-01-15T14:51:06	22.1	50
153963	2026-01-15T15:01:06	22.1	48.5
153964	2026-01-15T15:11:06	22.2	49
153965	2026-01-15T15:21:06	21.6	51.5
153966	2026-01-15T15:31:06	19.2	57
153967	2026-01-15T15:41:06	17.4	64.5
153968	2026-01-15T15:51:06	16.2	67
153969	2026-01-15T16:01:06	15.5	70
153970	2026-01-15T16:11:06	14.6	70.5
153971	2026-01-15T16:21:06	14	73.5
153972	2026-01-15T16:31:06	13.4	74
153973	2026-01-15T16:41:06	13	74.5
153974	2026-01-15T16:51:06	12.6	75
153975	2026-01-15T17:01:06	12.1	75.5
153976	2026-01-15T17:11:06	11.6	77.5
153977	2026-01-15T17:21:06	11.4	77
153978	2026-01-15T17:31:06	11.1	78
153979	2026-01-15T17:41:06	10.8	78.5
153980	2026-01-15T17:51:06	10.4	78.5
153981	2026-01-15T18:01:05	10.1	80
153982	2026-01-15T18:11:05	9.8	82
153983	2026-01-15T18:21:06	9.6	80.5
153984	2026-01-15T18:31:05	9.3	82
153985	2026-01-15T18:41:06	9.1	82
153986	2026-01-15T18:51:05	8.9	83
153987	2026-01-15T19:01:05	8.8	83
153988	2026-01-15T19:11:05	8.6	83.5
153989	2026-01-15T19:21:05	8.4	84
153990	2026-01-15T19:31:05	8.3	83.5
153991	2026-01-15T19:41:05	8.1	84
153992	2026-01-15T19:51:05	7.9	85.5
153993	2026-01-15T20:01:05	7.8	86.5
153994	2026-01-15T20:11:05	7.6	87
153995	2026-01-15T20:21:05	7.4	86.5
153996	2026-01-15T20:31:05	7.3	86.5
153997	2026-01-15T20:41:05	7	87
153998	2026-01-15T20:51:05	6.9	88
153999	2026-01-15T21:01:05	6.8	88.5
154000	2026-01-15T21:11:05	6.7	88
154001	2026-01-15T21:21:05	6.4	88.5
154002	2026-01-15T21:31:05	6.4	88.5
154003	2026-01-15T21:41:05	6.3	88.5
154004	2026-01-15T21:51:05	6.1	89
154005	2026-01-15T22:01:05	6.1	90
154006	2026-01-15T22:11:05	6	89.5
154007	2026-01-15T22:21:05	5.9	90
154008	2026-01-15T22:31:05	5.9	90
154009	2026-01-15T22:41:05	5.7	90.5
154010	2026-01-15T22:51:05	5.7	90.5
154011	2026-01-15T23:01:05	5.6	91
154012	2026-01-15T23:11:05	5.5	91.5
154013	2026-01-15T23:21:05	5.4	91
154014	2026-01-15T23:31:05	5.4	90.5
154015	2026-01-15T23:41:05	5.2	91.5
154016	2026-01-15T23:51:05	5.2	91.5
154017	2026-01-16T00:01:05	4.9	92
154018	2026-01-16T00:11:05	4.8	92.5
154019	2026-01-16T00:21:05	4.7	92.5
154020	2026-01-16T00:31:05	4.5	93
154021	2026-01-16T00:41:05	4.5	93
154022	2026-01-16T00:51:05	4.4	92.5
154023	2026-01-16T01:01:05	4.2	93.5
154024	2026-01-16T01:11:05	4.1	94
154025	2026-01-16T01:21:05	4	94
154026	2026-01-16T01:31:05	3.9	94
154027	2026-01-16T01:41:05	3.9	94
154028	2026-01-16T01:51:05	3.8	94.5
154029	2026-01-16T02:01:05	3.8	94.5
154030	2026-01-16T02:11:05	3.8	95
154031	2026-01-16T02:21:05	3.7	95
154032	2026-01-16T02:31:05	3.5	95
154033	2026-01-16T02:41:05	3.4	95
154034	2026-01-16T02:51:05	3.3	95
154035	2026-01-16T03:01:05	3.3	94.5
154036	2026-01-16T03:11:05	3.1	95
154037	2026-01-16T03:21:05	2.9	95.5
154038	2026-01-16T03:31:05	2.9	96
154039	2026-01-16T03:41:05	2.8	96
154040	2026-01-16T03:51:05	2.6	96.5
154041	2026-01-16T04:01:05	2.7	96
154042	2026-01-16T04:11:05	2.5	96
154043	2026-01-16T04:21:05	2.4	95
154044	2026-01-16T04:31:05	2.3	96
154045	2026-01-16T04:41:05	2.2	96.5
154046	2026-01-16T04:51:05	2.2	96.5
154047	2026-01-16T05:01:05	2.1	97
154048	2026-01-16T05:11:05	2.1	97
154049	2026-01-16T05:21:05	2	97
154050	2026-01-16T05:31:05	1.9	97
154051	2026-01-16T05:41:05	1.7	97
154052	2026-01-16T05:51:05	1.8	97.5
154053	2026-01-16T06:01:05	1.7	97.5
154054	2026-01-16T06:11:05	1.7	98
154055	2026-01-16T06:21:05	1.6	97.5
154056	2026-01-16T06:31:05	1.5	98
154057	2026-01-16T06:41:05	1.4	98
154058	2026-01-16T06:51:05	1.3	98
154059	2026-01-16T07:01:05	1.3	98.5
154060	2026-01-16T07:11:05	1.2	98.5
154061	2026-01-16T07:21:05	1.1	99
154062	2026-01-16T07:31:05	1.2	99
154063	2026-01-16T07:41:05	1.2	98.5
154064	2026-01-16T07:51:05	1.3	98.5
154065	2026-01-16T08:01:05	1.3	99
154066	2026-01-16T08:11:05	1.5	99
154067	2026-01-16T08:21:05	1.6	99
154068	2026-01-16T08:31:05	1.9	99
154069	2026-01-16T08:41:05	2	99.5
154070	2026-01-16T08:51:05	2.3	99
154071	2026-01-16T09:01:05	2.3	99.5
154072	2026-01-16T09:11:05	2.7	100
154073	2026-01-16T09:21:05	2.9	100
154074	2026-01-16T09:31:05	3.4	100
154075	2026-01-16T09:41:05	4.1	100
154076	2026-01-16T09:51:05	4.5	100
154077	2026-01-16T10:01:05	4.6	100
154078	2026-01-16T10:11:05	4.8	100
154079	2026-01-16T10:21:05	5	99.5
154080	2026-01-16T10:31:05	5.3	99
154081	2026-01-16T10:41:05	5.7	97.5
154082	2026-01-16T10:51:05	6.2	96.5
154083	2026-01-16T11:01:05	6.6	94.5
154084	2026-01-16T11:11:05	7	93
154085	2026-01-16T11:21:05	7.5	91.5
154086	2026-01-16T11:31:05	8.1	89.5
154087	2026-01-16T11:41:05	8.6	88.5
154088	2026-01-16T11:51:05	9.4	86
154089	2026-01-16T12:01:05	11.6	80
154090	2026-01-16T12:11:05	13.4	74
154091	2026-01-16T12:21:05	15.1	70.5
154092	2026-01-16T12:31:05	16.7	65.5
154093	2026-01-16T12:41:05	18	61.5
154094	2026-01-16T12:51:05	19.4	59.5
154095	2026-01-16T13:01:05	20.4	56
154096	2026-01-16T13:11:05	21.4	53
154097	2026-01-16T13:21:05	21.9	50.5
154098	2026-01-16T13:31:05	22.9	47.5
154099	2026-01-16T13:41:05	23.6	47
154100	2026-01-16T13:51:05	24	45.5
154101	2026-01-16T14:01:05	24.5	42
154102	2026-01-16T14:11:05	24.8	42.5
154103	2026-01-16T14:21:05	25.2	43
154104	2026-01-16T14:31:05	25.2	41
154105	2026-01-16T14:41:05	24.7	42
154106	2026-01-16T14:51:05	24.2	42.5
154107	2026-01-16T15:01:05	22.7	43.5
154108	2026-01-16T15:11:05	20.9	47
154109	2026-01-16T15:21:05	20.3	49
154110	2026-01-16T15:31:05	18.6	56.5
154111	2026-01-16T15:41:05	16.5	61
154112	2026-01-16T15:51:05	15.6	64
154113	2026-01-16T16:01:05	14.4	65.5
154114	2026-01-16T16:11:05	14	67.5
154115	2026-01-16T16:21:05	13.4	70
154116	2026-01-16T16:31:05	12.8	70.5
154117	2026-01-16T16:41:05	12.2	71.5
154118	2026-01-16T16:51:05	11.8	72.5
154119	2026-01-16T17:01:04	11.4	74.5
154120	2026-01-16T17:11:04	11.1	73.5
154121	2026-01-16T17:21:04	10.7	73.5
154122	2026-01-16T17:31:04	10.3	74.5
154123	2026-01-16T17:41:04	9.9	76
154124	2026-01-16T17:51:04	9.6	78.5
154125	2026-01-16T18:01:04	9.3	78
154126	2026-01-16T18:11:04	9	79.5
154127	2026-01-16T18:21:04	8.7	80
154128	2026-01-16T18:31:04	8.5	80.5
154129	2026-01-16T18:41:04	8.2	81.5
154130	2026-01-16T18:51:04	8.2	81
154131	2026-01-16T19:01:04	8	80
154132	2026-01-16T19:11:04	7.8	81
154133	2026-01-16T19:21:04	7.6	82
154134	2026-01-16T19:31:04	7.5	82
154135	2026-01-16T19:41:04	7.4	83.5
154136	2026-01-16T19:51:04	7.1	82
154137	2026-01-16T20:01:04	6.7	84
154138	2026-01-16T20:11:04	6.5	84
154139	2026-01-16T20:21:04	6.4	85
154140	2026-01-16T20:31:04	6.4	85.5
154141	2026-01-16T20:41:04	6.3	84.5
154142	2026-01-16T20:51:04	6.2	85
154143	2026-01-16T21:01:04	6	86.5
154144	2026-01-16T21:11:04	5.7	87
154145	2026-01-16T21:21:04	5.5	86.5
154146	2026-01-16T21:31:04	5.4	87.5
154147	2026-01-16T21:41:04	5.1	88
154148	2026-01-16T21:51:04	5.1	88
154149	2026-01-16T22:01:04	4.8	87
154150	2026-01-16T22:11:04	4.7	88
154151	2026-01-16T22:21:04	4.6	89
154152	2026-01-16T22:31:04	4.9	87
154153	2026-01-16T22:41:04	4.7	88
154154	2026-01-16T22:51:04	4.5	89
154155	2026-01-16T23:01:04	4.5	89
154156	2026-01-16T23:11:04	4.4	90
154157	2026-01-16T23:21:04	4.2	90
154158	2026-01-16T23:31:04	4.1	90
154159	2026-01-16T23:41:04	3.9	89.5
154160	2026-01-16T23:51:04	3.9	92
154161	2026-01-17T00:01:04	3.9	93
154162	2026-01-17T00:11:04	3.9	92.5
154163	2026-01-17T00:21:04	3.9	92
154164	2026-01-17T00:31:04	3.9	92.5
154165	2026-01-17T00:41:04	4	92.5
154166	2026-01-17T00:51:04	3.9	93
154167	2026-01-17T01:01:04	3.8	92.5
154168	2026-01-17T01:11:04	3.8	93
154169	2026-01-17T01:21:04	3.6	93.5
154170	2026-01-17T01:31:04	3.4	94
154171	2026-01-17T01:41:04	3.3	94
154172	2026-01-17T01:51:04	3.3	94
154173	2026-01-17T02:01:04	3.2	94
154174	2026-01-17T02:11:04	3.2	94
154175	2026-01-17T02:21:04	3.3	93.5
154176	2026-01-17T02:31:04	3.2	94
154177	2026-01-17T02:41:04	3.1	94
154178	2026-01-17T02:51:04	3.1	94
154179	2026-01-17T03:01:04	3.2	94
154180	2026-01-17T03:11:04	3.3	93.5
154181	2026-01-17T03:21:04	3.3	93
154182	2026-01-17T03:31:04	3.1	93.5
154183	2026-01-17T03:51:04	3	94.5
154184	2026-01-17T04:01:04	3	94
154185	2026-01-17T04:11:04	3	94
154186	2026-01-17T04:21:04	2.9	94.5
154187	2026-01-17T04:31:04	2.9	95
154188	2026-01-17T04:41:04	2.8	95
154189	2026-01-17T04:51:04	2.6	95
154190	2026-01-17T05:01:04	2.5	95.5
154191	2026-01-17T05:11:04	2.5	95.5
154192	2026-01-17T05:21:04	2.5	95.5
154193	2026-01-17T05:31:04	2.6	95
154194	2026-01-17T05:41:04	2.5	95
154195	2026-01-17T05:51:04	2.6	95.5
154196	2026-01-17T06:01:04	2.4	95
154197	2026-01-17T06:11:04	2.4	95.5
154198	2026-01-17T06:21:04	2.3	95
154199	2026-01-17T06:31:04	2	96
154200	2026-01-17T06:41:04	1.6	97
154201	2026-01-17T06:51:04	1.5	97.5
154202	2026-01-17T07:01:04	1.5	97.5
154203	2026-01-17T07:11:04	1.3	98
154204	2026-01-17T07:21:04	1.2	98.5
154205	2026-01-17T07:31:04	1.1	99
154206	2026-01-17T07:41:04	1.3	99.5
154207	2026-01-17T07:51:04	1.2	98.5
154208	2026-01-17T08:01:04	1.3	98.5
154209	2026-01-17T08:11:04	1.4	99
154210	2026-01-17T08:21:04	1.8	99.5
154211	2026-01-17T08:31:04	1.6	99
154212	2026-01-17T08:41:04	1.7	99
154213	2026-01-17T08:51:04	1.7	99.5
154214	2026-01-17T09:01:04	2	99
154215	2026-01-17T09:11:04	2.4	97
154216	2026-01-17T09:21:04	2.8	95
154217	2026-01-17T09:31:04	3	93.5
154218	2026-01-17T09:41:04	3.2	92.5
154219	2026-01-17T09:51:04	3.4	92
154220	2026-01-17T10:01:04	3.7	91.5
154221	2026-01-17T10:11:04	3.9	90
154222	2026-01-17T10:21:04	4.3	89.5
154223	2026-01-17T10:31:04	4.6	88
154224	2026-01-17T10:41:04	4.8	87
154225	2026-01-17T10:51:04	4.8	87.5
154226	2026-01-17T11:01:04	5.2	86
154227	2026-01-17T11:11:04	5.4	84.5
154228	2026-01-17T11:21:04	5.6	83.5
154229	2026-01-17T11:31:04	5.9	83
154230	2026-01-17T11:41:04	6.3	82
154231	2026-01-17T11:51:04	6.5	80.5
154232	2026-01-17T12:01:04	6.6	80
154233	2026-01-17T12:11:04	7	79
154234	2026-01-17T12:21:04	7.7	77.5
154235	2026-01-17T12:31:04	7.7	76
154236	2026-01-17T12:41:04	7.5	76
154237	2026-01-17T12:51:04	7.6	77
154238	2026-01-17T13:11:04	7.5	76.5
154239	2026-01-17T13:21:04	7.3	76.5
154240	2026-01-17T13:31:04	7.3	77.5
154241	2026-01-17T13:41:04	7.4	76.5
154242	2026-01-17T13:51:04	7.9	75.5
154243	2026-01-17T14:01:04	7.9	75.5
154244	2026-01-17T14:11:04	7.4	77
154245	2026-01-17T14:21:04	7.4	77
154246	2026-01-17T14:31:04	7.1	76.5
154247	2026-01-17T14:41:04	6.8	78
154248	2026-01-17T14:51:04	6.3	79.5
154249	2026-01-17T15:01:04	6	79.5
154250	2026-01-17T15:11:04	6	80.5
154251	2026-01-17T15:21:04	5.6	81.5
154252	2026-01-17T15:31:04	5.3	82.5
154253	2026-01-17T15:41:04	4.9	83.5
154254	2026-01-17T15:51:04	4.5	84
154255	2026-01-17T16:01:04	4.2	85
154256	2026-01-17T16:11:04	3.8	86.5
154257	2026-01-17T16:21:04	3.6	87
154258	2026-01-17T16:31:04	3.4	88
154259	2026-01-17T16:41:04	3.2	88
154260	2026-01-17T16:51:04	3.1	89
154261	2026-01-17T17:01:04	2.9	89
154262	2026-01-17T17:11:04	2.6	89.5
154263	2026-01-17T17:21:04	2.5	90
154264	2026-01-17T17:31:04	2.3	90.5
154265	2026-01-17T17:41:04	2.2	91
154266	2026-01-17T17:51:04	2	91.5
154267	2026-01-17T18:01:04	2	92
154268	2026-01-17T18:11:04	1.9	92.5
154269	2026-01-17T18:21:04	1.8	92
154270	2026-01-17T18:31:04	1.7	92.5
154271	2026-01-17T18:41:04	1.7	93
154272	2026-01-17T18:51:04	1.5	93
154273	2026-01-17T19:01:04	1.4	93
154274	2026-01-17T19:11:04	1.4	93.5
154275	2026-01-17T19:21:04	1.4	93.5
154276	2026-01-17T19:31:04	1.4	93.5
154277	2026-01-17T19:41:04	1.3	93.5
154278	2026-01-17T19:51:04	1.2	94
154279	2026-01-17T20:01:04	1.1	94
154280	2026-01-17T20:11:04	0.9	94.5
154281	2026-01-17T20:21:04	0.9	94
154282	2026-01-17T20:31:04	0.8	94
154283	2026-01-17T20:41:04	0.7	94.5
154284	2026-01-17T20:51:04	0.7	95
154285	2026-01-17T21:01:04	0.7	94.5
154286	2026-01-17T21:11:04	0.6	95
154287	2026-01-17T21:21:04	0.6	95
154288	2026-01-17T21:31:04	0.5	95.5
154289	2026-01-17T21:41:04	0.5	95.5
154290	2026-01-17T21:51:04	0.3	95.5
154291	2026-01-17T22:01:04	0.3	96
154292	2026-01-17T22:11:04	0.3	96
154293	2026-01-17T22:21:04	0.3	95.5
154294	2026-01-17T22:31:04	0.3	96
154295	2026-01-17T22:41:04	0.3	96
154296	2026-01-17T22:51:04	0.3	96
154297	2026-01-17T23:01:04	0.2	96
154298	2026-01-17T23:11:04	0.1	96.5
154299	2026-01-17T23:21:04	0.1	96.5
154300	2026-01-17T23:31:04	0.2	96
154301	2026-01-17T23:41:04	0	96.5
154302	2026-01-17T23:51:04	0.1	96.5
154303	2026-01-18T00:01:04	0.2	96
154304	2026-01-18T00:11:04	0.2	96
154305	2026-01-18T00:21:04	0.2	95.5
154306	2026-01-18T00:31:04	0.1	96
154307	2026-01-18T00:41:04	0	96
154308	2026-01-18T00:51:04	0.1	96
154309	2026-01-18T01:01:04	0.1	95.5
154310	2026-01-18T01:11:04	0.1	96
154311	2026-01-18T01:21:04	0	96.5
154312	2026-01-18T01:31:04	0	96.5
154313	2026-01-18T01:41:04	0	96.5
154314	2026-01-18T01:51:04	0	96.5
154315	2026-01-18T02:01:04	0.1	96.5
154316	2026-01-18T02:11:04	0.2	96
154317	2026-01-18T02:21:04	0.1	95.5
154318	2026-01-18T02:31:04	0.1	95.5
154319	2026-01-18T02:41:04	0.3	95.5
154320	2026-01-18T02:51:04	0.3	95
154321	2026-01-18T03:01:04	0.2	95.5
154322	2026-01-18T03:11:04	0.2	95.5
154323	2026-01-18T03:21:04	0.1	95.5
154324	2026-01-18T03:31:04	0.2	95.5
154325	2026-01-18T03:41:04	0.1	95.5
154326	2026-01-18T03:51:04	0.2	95.5
154327	2026-01-18T04:01:04	0.3	95
154328	2026-01-18T04:11:04	0.2	95.5
154329	2026-01-18T04:21:04	0.5	95
154330	2026-01-18T04:31:04	0.5	94.5
154331	2026-01-18T04:41:04	0.7	93.5
154332	2026-01-18T04:51:04	0.8	93.5
154333	2026-01-18T05:01:04	0.8	93
154334	2026-01-18T05:11:04	0.8	92.5
154335	2026-01-18T05:21:04	0.9	92
154336	2026-01-18T05:31:04	1	92
154337	2026-01-18T05:41:04	1	92
154338	2026-01-18T05:51:04	1.1	92
154339	2026-01-18T06:01:04	0.9	92
154340	2026-01-18T06:11:04	1.1	92
154341	2026-01-18T06:21:04	1	92
154342	2026-01-18T06:31:04	1	92
154343	2026-01-18T06:41:04	1	92
154344	2026-01-18T06:51:04	0.9	92
154345	2026-01-18T07:01:04	1	92
154346	2026-01-18T07:11:04	1	92
154347	2026-01-18T07:21:04	0.9	92
154348	2026-01-18T07:31:04	1.1	92
154349	2026-01-18T07:41:04	1.1	91.5
154350	2026-01-18T07:51:04	1.3	91.5
154351	2026-01-18T08:01:04	1.2	91.5
154352	2026-01-18T08:11:04	1.1	91.5
154353	2026-01-18T08:21:04	1.2	91.5
154354	2026-01-18T08:31:04	1.1	91.5
154355	2026-01-18T08:41:04	1.3	91
154356	2026-01-18T08:51:04	1.3	91
154357	2026-01-18T09:01:04	1.5	90.5
154358	2026-01-18T09:11:04	1.5	90
154359	2026-01-18T09:21:04	1.9	89
154360	2026-01-18T09:31:04	2.4	88
154361	2026-01-18T09:41:04	2.8	87
154362	2026-01-18T09:51:04	3.1	87
154363	2026-01-18T10:01:04	3.2	86
154364	2026-01-18T10:11:04	3.4	86
154365	2026-01-18T10:21:04	3.6	85
154366	2026-01-18T10:31:04	3.9	84
154367	2026-01-18T10:41:04	4	83.5
154368	2026-01-18T10:51:04	4.4	82
154369	2026-01-18T11:01:04	4.6	81.5
154370	2026-01-18T11:11:04	5.1	80
154371	2026-01-18T11:21:03	5.3	79
154372	2026-01-18T11:31:04	6.2	78.5
154373	2026-01-18T11:41:03	6.9	75.5
154374	2026-01-18T11:51:03	7.4	74.5
154375	2026-01-18T12:01:03	8.7	70
154376	2026-01-18T12:11:03	9.8	67
154377	2026-01-18T12:21:03	10.7	63
154378	2026-01-18T12:31:03	11.7	59.5
154379	2026-01-18T12:41:03	11.9	59
154380	2026-01-18T12:51:03	12.8	56.5
154381	2026-01-18T13:01:03	13.4	55
154382	2026-01-18T13:11:03	14.1	53
154383	2026-01-18T13:21:03	15	50.5
154384	2026-01-18T13:31:03	15.3	49.5
154385	2026-01-18T13:41:03	15.6	48
154386	2026-01-18T13:51:03	15.4	48
154387	2026-01-18T14:01:03	15.9	47
154388	2026-01-18T14:11:03	16.2	48.5
154389	2026-01-18T14:21:03	15.8	50
154390	2026-01-18T14:31:03	15.5	49
154391	2026-01-18T14:41:03	15.1	50.5
154392	2026-01-18T14:51:03	14.5	51.5
154393	2026-01-18T15:01:03	13.7	53.5
154394	2026-01-18T15:11:03	12.7	55.5
154395	2026-01-18T15:21:03	11.6	57.5
154396	2026-01-18T15:31:03	10.1	61.5
154397	2026-01-18T15:41:03	8.2	67
154398	2026-01-18T15:51:03	7.4	70
154399	2026-01-18T16:01:03	6.7	72
154400	2026-01-18T16:11:03	6.3	73
154401	2026-01-18T16:21:03	6	75
154402	2026-01-18T16:31:03	5.6	76
154403	2026-01-18T16:41:03	5.3	77.5
154404	2026-01-18T16:51:03	4.9	78.5
154405	2026-01-18T17:01:03	4.7	78.5
154406	2026-01-18T17:11:03	4.5	79
154407	2026-01-18T17:21:03	4.3	79.5
154408	2026-01-18T17:31:03	4	80
154409	2026-01-18T17:41:03	3.9	81.5
154410	2026-01-18T17:51:03	3.7	80
154411	2026-01-18T18:01:03	3.3	81
154412	2026-01-18T18:11:03	2.7	82.5
154413	2026-01-18T18:21:03	2.6	83.5
154414	2026-01-18T18:31:03	2.5	84
154415	2026-01-18T18:41:03	2.3	84
154416	2026-01-18T18:51:03	2	84
154417	2026-01-18T19:01:03	1.7	84.5
154418	2026-01-18T19:11:03	1.6	86
154419	2026-01-18T19:21:23	1.4	86.5
154420	2026-01-18T19:31:03	1.2	86.5
154421	2026-01-18T19:41:03	1.2	87
154422	2026-01-18T19:51:03	1.4	86.5
154423	2026-01-18T20:01:03	1.8	85.5
154424	2026-01-18T20:11:03	2.1	85
154425	2026-01-18T20:21:03	2.1	84.5
154426	2026-01-18T20:31:03	2.3	84.5
154427	2026-01-18T20:41:03	2.4	84.5
154428	2026-01-18T20:51:03	2.4	85
154429	2026-01-18T21:01:03	2.3	85.5
154430	2026-01-18T21:11:03	2.3	85.5
154431	2026-01-18T21:21:03	2.3	86.5
154432	2026-01-18T21:31:03	2.4	86.5
154433	2026-01-18T21:41:03	2.5	87
154434	2026-01-18T21:51:03	2.6	87
154435	2026-01-18T22:01:03	2.5	87.5
154436	2026-01-18T22:11:03	2.5	87.5
154437	2026-01-18T22:21:03	2.5	87.5
154438	2026-01-18T22:31:03	2.6	88
154439	2026-01-18T22:41:03	2.6	88.5
154440	2026-01-18T22:51:03	2.6	88.5
154441	2026-01-18T23:01:03	2.6	88.5
154442	2026-01-18T23:11:03	2.5	89
154443	2026-01-18T23:21:03	2.6	89
154444	2026-01-18T23:31:03	2.7	88.5
154445	2026-01-18T23:41:03	2.7	88.5
154446	2026-01-18T23:51:03	2.6	88.5
154447	2026-01-19T00:01:03	2.7	89
154448	2026-01-19T00:11:03	2.6	88.5
154449	2026-01-19T00:21:03	2.6	88.5
154450	2026-01-19T00:31:03	2.6	88.5
154451	2026-01-19T00:41:03	2.5	89
154452	2026-01-19T00:51:03	2.6	89
154453	2026-01-19T01:01:03	2.5	89
154454	2026-01-19T01:11:03	2.5	89
154455	2026-01-19T01:21:03	2.4	89
154456	2026-01-19T01:31:03	2.4	89
154457	2026-01-19T01:41:03	2.6	89
154458	2026-01-19T01:51:03	2.4	89
154459	2026-01-19T02:01:03	2.4	89.5
154460	2026-01-19T02:11:03	2.4	88.5
154461	2026-01-19T02:21:03	2.4	89
154462	2026-01-19T02:31:03	2.3	89
154463	2026-01-19T02:41:03	2.4	89
154464	2026-01-19T02:51:03	2.3	89
154465	2026-01-19T03:01:03	2.2	89
154466	2026-01-19T03:11:03	2.2	89
154467	2026-01-19T03:21:03	2.2	89.5
154468	2026-01-19T03:31:03	2.2	89
154469	2026-01-19T03:41:03	2.2	89
154470	2026-01-19T03:51:03	2.2	88.5
154471	2026-01-19T04:01:03	2.2	89
154472	2026-01-19T04:11:03	2.1	89
154473	2026-01-19T04:21:03	2	89
154474	2026-01-19T04:31:03	1.9	89
154475	2026-01-19T04:41:03	1.9	89
154476	2026-01-19T04:51:03	1.8	89.5
154477	2026-01-19T05:01:03	1.8	89.5
154478	2026-01-19T05:11:03	1.9	90
154479	2026-01-19T05:21:03	1.8	89
154480	2026-01-19T05:31:03	1.6	89.5
154481	2026-01-19T05:41:03	1.6	90
154482	2026-01-19T05:51:03	1.6	90
154483	2026-01-19T06:01:03	1.6	90
154484	2026-01-19T06:11:03	1.6	90.5
154485	2026-01-19T06:21:03	1.8	90
154486	2026-01-19T06:31:03	1.7	90.5
154487	2026-01-19T06:41:03	1.6	90
154488	2026-01-19T06:51:03	1.6	90
154489	2026-01-19T07:01:03	1.7	90
154490	2026-01-19T07:11:03	1.7	90
154491	2026-01-19T07:21:03	1.6	90
154492	2026-01-19T07:31:03	1.7	90
154493	2026-01-19T07:41:03	1.8	90.5
154494	2026-01-19T07:51:03	1.8	90.5
154495	2026-01-19T08:01:03	1.9	90.5
154496	2026-01-19T08:11:03	1.9	90
154497	2026-01-19T08:21:03	2.1	90
154498	2026-01-19T08:31:03	2.1	90.5
154499	2026-01-19T08:41:03	2.1	90
154500	2026-01-19T08:51:03	2.2	91
154501	2026-01-19T09:01:03	2.2	90.5
154502	2026-01-19T09:11:03	2.2	90.5
154503	2026-01-19T09:21:03	2.2	91
154504	2026-01-19T09:31:03	2.3	90
154505	2026-01-19T09:41:03	2.5	90
154506	2026-01-19T09:51:03	2.3	89
154507	2026-01-19T10:01:03	2.6	89
154508	2026-01-19T10:11:03	2.6	89.5
154509	2026-01-19T10:21:03	2.6	89
154510	2026-01-19T10:31:03	2.8	88.5
154511	2026-01-19T10:41:03	2.8	88.5
154512	2026-01-19T10:51:03	2.9	87.5
154513	2026-01-19T11:01:03	2.9	88
154514	2026-01-19T11:11:03	2.8	87.5
154515	2026-01-19T11:21:03	2.9	87.5
154516	2026-01-19T11:31:03	3.1	87.5
154517	2026-01-19T11:41:03	3	86.5
154518	2026-01-19T11:51:03	3	86.5
154519	2026-01-19T12:01:03	3.2	86.5
154520	2026-01-19T12:11:03	3.2	86
154521	2026-01-19T12:21:03	3.5	85.5
154522	2026-01-19T12:31:03	3.6	85
154523	2026-01-19T12:41:03	3.6	84
154524	2026-01-19T12:51:03	3.6	84
154525	2026-01-19T13:01:03	3.4	84
154526	2026-01-19T13:11:03	3.7	83.5
154527	2026-01-19T13:21:03	3.7	83.5
154528	2026-01-19T13:31:03	3.7	83.5
154529	2026-01-19T13:41:03	3.6	84
154530	2026-01-19T13:51:03	3.5	84.5
154531	2026-01-19T14:01:03	3.6	84.5
154532	2026-01-19T14:11:03	3.5	84.5
154533	2026-01-19T14:21:03	3.5	84
154534	2026-01-19T14:31:03	3.5	85
154535	2026-01-19T14:41:03	3.6	85
154536	2026-01-19T14:51:03	3.3	85.5
154537	2026-01-19T15:01:03	3.2	86.5
154538	2026-01-19T15:11:03	3.2	86.5
154539	2026-01-19T15:21:03	3.1	87.5
154540	2026-01-19T15:31:03	2.9	88
154541	2026-01-19T15:41:03	2.9	88
154542	2026-01-19T15:51:03	2.9	88.5
154543	2026-01-19T16:01:03	2.8	89
154544	2026-01-19T16:11:03	2.6	89.5
154545	2026-01-19T16:21:03	2.7	90
154546	2026-01-19T16:31:03	2.6	90
154547	2026-01-19T16:41:03	2.7	90.5
154548	2026-01-19T16:51:03	2.7	91
154549	2026-01-19T17:01:03	2.8	91
154550	2026-01-19T17:11:03	2.7	91
154551	2026-01-19T17:21:03	2.7	91
154552	2026-01-19T17:31:03	2.8	91
154553	2026-01-19T17:41:03	2.5	90.5
154554	2026-01-19T17:51:03	2.4	91
154555	2026-01-19T18:01:03	2.5	91
154556	2026-01-19T18:11:03	2.4	91.5
154557	2026-01-19T18:21:03	2.5	91.5
154558	2026-01-19T18:31:03	2.4	91
154559	2026-01-19T18:41:03	2.4	91.5
154560	2026-01-19T18:51:03	2.4	91.5
154561	2026-01-19T19:01:03	2.4	92
154562	2026-01-19T19:11:03	2.3	91.5
154563	2026-01-19T19:21:03	2.3	92
154564	2026-01-19T19:31:03	2.2	92
154565	2026-01-19T19:41:03	2.2	92.5
154566	2026-01-19T19:51:03	2.2	92
154567	2026-01-19T20:01:03	2.2	92
154568	2026-01-19T20:11:03	2.2	92
154569	2026-01-19T20:21:03	2.1	92.5
154570	2026-01-19T20:31:03	2	92
154571	2026-01-19T20:41:03	2	92.5
154572	2026-01-19T20:51:03	1.9	92.5
154573	2026-01-19T21:01:03	1.9	93
154574	2026-01-19T21:11:03	2	92.5
154575	2026-01-19T21:21:03	1.8	92
154576	2026-01-19T21:31:03	1.7	92.5
154577	2026-01-19T21:41:03	1.6	93
154578	2026-01-19T21:51:03	1.7	93.5
154579	2026-01-19T22:01:03	1.6	93
154580	2026-01-19T22:11:03	1.7	93.5
154581	2026-01-19T22:21:03	1.7	93.5
154582	2026-01-19T22:31:03	1.7	93.5
154583	2026-01-19T22:41:03	1.7	93.5
154584	2026-01-19T22:51:03	1.7	93.5
154585	2026-01-19T23:01:03	1.7	93.5
154586	2026-01-19T23:11:03	1.6	93.5
154587	2026-01-19T23:21:03	1.6	93.5
154588	2026-01-19T23:31:03	1.6	94
154589	2026-01-19T23:41:03	1.6	94
154590	2026-01-19T23:51:03	1.6	94.5
154591	2026-01-20T00:01:03	1.7	94
154592	2026-01-20T00:11:03	1.5	93.5
154593	2026-01-20T00:21:03	1.6	93.5
154594	2026-01-20T00:31:03	1.4	94
154595	2026-01-20T00:41:03	1.5	93.5
154596	2026-01-20T00:51:03	1.5	93.5
154597	2026-01-20T01:01:03	1.4	93
154598	2026-01-20T01:11:03	1.5	93.5
154599	2026-01-20T01:21:03	1.5	93.5
154600	2026-01-20T01:31:03	1.4	94
154601	2026-01-20T01:41:03	1.4	94
154602	2026-01-20T01:51:03	1.3	93.5
154603	2026-01-20T02:01:03	1.3	94
154604	2026-01-20T02:11:03	1.1	93.5
154605	2026-01-20T02:21:03	1.1	94
154606	2026-01-20T02:31:03	1.2	94
154607	2026-01-20T02:41:03	1.1	94.5
154608	2026-01-20T02:51:03	1.2	94.5
154609	2026-01-20T03:01:03	1.1	94.5
154610	2026-01-20T03:11:03	1.1	94.5
154611	2026-01-20T03:21:03	1.1	95
154612	2026-01-20T03:31:02	1	94.5
154613	2026-01-20T03:41:02	0.9	94
154614	2026-01-20T03:51:03	1	94.5
154615	2026-01-20T04:01:02	1	94.5
154616	2026-01-20T04:11:02	1	94.5
154617	2026-01-20T04:21:02	1	94.5
154618	2026-01-20T04:31:02	1	94.5
154619	2026-01-20T04:41:03	1	94.5
154620	2026-01-20T04:51:02	0.9	94
154621	2026-01-20T05:01:02	1.1	94.5
154622	2026-01-20T05:11:02	0.9	94.5
154623	2026-01-20T05:21:02	1	94
154624	2026-01-20T05:31:02	0.9	94
154625	2026-01-20T05:41:02	0.9	94.5
154626	2026-01-20T05:51:02	0.8	95
154627	2026-01-20T06:01:02	0.8	95.5
154628	2026-01-20T06:11:02	0.8	95.5
154629	2026-01-20T06:21:02	0.8	95.5
154630	2026-01-20T06:31:02	0.8	96
154631	2026-01-20T06:41:02	0.8	96
154632	2026-01-20T06:51:02	0.7	95.5
154633	2026-01-20T07:01:02	0.8	96.5
154634	2026-01-20T07:11:02	0.6	97
154635	2026-01-20T07:21:02	0.7	97
154636	2026-01-20T07:31:02	0.6	97
154637	2026-01-20T07:41:02	0.8	97.5
154638	2026-01-20T07:51:02	0.7	97
154639	2026-01-20T08:01:02	0.7	97
154640	2026-01-20T08:11:02	0.7	97
154641	2026-01-20T08:21:02	0.6	97
154642	2026-01-20T08:31:02	0.6	96.5
154643	2026-01-20T08:41:02	0.7	96.5
154644	2026-01-20T08:51:02	0.8	96
154645	2026-01-20T09:01:02	0.7	96
154646	2026-01-20T09:11:02	0.9	96
154647	2026-01-20T09:21:02	1	95
154648	2026-01-20T09:31:02	1	94.5
154649	2026-01-20T09:41:02	1.2	94
154650	2026-01-20T09:51:02	1.2	93.5
154651	2026-01-20T10:01:02	1.5	93.5
154652	2026-01-20T10:11:02	1.4	92.5
154653	2026-01-20T10:21:02	1.3	92.5
154654	2026-01-20T10:31:02	1.5	93
154655	2026-01-20T10:41:02	1.5	92.5
154656	2026-01-20T10:51:02	1.8	92.5
154657	2026-01-20T11:01:02	1.9	92.5
154658	2026-01-20T11:11:02	1.9	92.5
154659	2026-01-20T11:21:02	1.9	93
154660	2026-01-20T11:31:02	2	92
154661	2026-01-20T11:41:02	2.2	91.5
154662	2026-01-20T11:51:02	2.3	90
154663	2026-01-20T12:01:02	2.4	90.5
154664	2026-01-20T12:11:02	2.3	90
154665	2026-01-20T12:21:02	2.4	89.5
154666	2026-01-20T12:31:02	2.5	90
154667	2026-01-20T12:41:02	2.5	89.5
154668	2026-01-20T12:51:02	2.5	89.5
154669	2026-01-20T13:01:02	2.4	89.5
154670	2026-01-20T13:11:02	2.3	90.5
154671	2026-01-20T13:21:02	2.4	90.5
154672	2026-01-20T13:31:02	2.1	90
154673	2026-01-20T13:41:02	2.2	91
154674	2026-01-20T13:51:02	2.1	91.5
154675	2026-01-20T14:01:02	2	91.5
154676	2026-01-20T14:11:02	2	91.5
154677	2026-01-20T14:21:02	2	92
154678	2026-01-20T14:31:02	2.1	91.5
154679	2026-01-20T14:41:02	2.1	92
154680	2026-01-20T14:51:02	2	91.5
154681	2026-01-20T15:01:02	1.8	92
154682	2026-01-20T15:11:02	1.7	92.5
154683	2026-01-20T15:21:02	1.7	93
154684	2026-01-20T15:31:02	1.6	93
154685	2026-01-20T15:41:02	1.6	93.5
154686	2026-01-20T15:51:02	1.6	93.5
154687	2026-01-20T16:01:02	1.4	94
154688	2026-01-20T16:11:02	1.4	94
154689	2026-01-20T16:21:02	1.5	94.5
154690	2026-01-20T16:41:02	1.4	94.5
154691	2026-01-20T16:51:02	1.4	94.5
154692	2026-01-20T17:01:02	1.3	94.5
154693	2026-01-20T17:11:02	1.2	95
154694	2026-01-20T17:21:02	1.4	95.5
154695	2026-01-20T17:31:02	1.4	95
154696	2026-01-20T17:41:02	1.3	95
154697	2026-01-20T17:51:02	1.3	95
154698	2026-01-20T18:01:02	1.5	95
154699	2026-01-20T18:11:02	1.4	94.5
154700	2026-01-20T18:21:02	1.3	94.5
154701	2026-01-20T18:31:02	1.3	94
154702	2026-01-20T18:41:02	1.2	94.5
154703	2026-01-20T18:51:02	1.2	94
154704	2026-01-20T19:01:02	1	94.5
154705	2026-01-20T19:11:02	1	94.5
154706	2026-01-20T19:21:02	1.1	94.5
154707	2026-01-20T19:31:02	1	94
154708	2026-01-20T19:41:02	1	94.5
154709	2026-01-20T19:51:02	1	94
154710	2026-01-20T20:01:02	1	94
154711	2026-01-20T20:11:02	1	94
154712	2026-01-20T20:21:02	0.9	94
154713	2026-01-20T20:31:02	0.8	94.5
154714	2026-01-20T20:41:02	0.8	94.5
154715	2026-01-20T20:51:02	0.9	94.5
154716	2026-01-20T21:01:02	0.8	94.5
154717	2026-01-20T21:11:02	0.8	94
154718	2026-01-20T21:21:02	0.7	94
154719	2026-01-20T21:31:02	0.7	94.5
154720	2026-01-20T21:41:02	0.7	94
154721	2026-01-20T21:51:02	0.4	94
154722	2026-01-20T22:01:02	0.5	95.5
154723	2026-01-20T22:11:02	0.3	95
154724	2026-01-20T22:21:02	0.4	95.5
154725	2026-01-20T22:31:02	0.4	95.5
154726	2026-01-20T22:41:02	0.5	96
154727	2026-01-20T22:51:02	0.6	96
154728	2026-01-20T23:01:02	0.7	96
154729	2026-01-20T23:11:02	0.7	96
154730	2026-01-20T23:21:02	0.6	96
154731	2026-01-20T23:31:02	0.7	96
154732	2026-01-20T23:41:02	0.6	96
154733	2026-01-20T23:51:02	0.6	96
154734	2026-01-21T00:01:02	0.6	95.5
154735	2026-01-21T00:11:02	0.4	95
154736	2026-01-21T00:21:02	0.5	95
154737	2026-01-21T00:31:02	0.4	95
154738	2026-01-21T00:41:02	0.5	95
154739	2026-01-21T00:51:02	0.4	95
154740	2026-01-21T01:01:02	0.5	95
154741	2026-01-21T01:11:02	0.4	95
154742	2026-01-21T01:21:02	0.4	95.5
154743	2026-01-21T01:31:02	0.1	96
154744	2026-01-21T01:41:02	0.2	96
154745	2026-01-21T01:51:02	0.2	96
154746	2026-01-21T02:01:02	0	97
154747	2026-01-21T02:11:02	0.1	97.5
154748	2026-01-21T02:21:02	0.1	97.5
154749	2026-01-21T02:31:02	0.2	98
154750	2026-01-21T02:41:02	0.2	98
154751	2026-01-21T02:51:02	0.2	98.5
154752	2026-01-21T03:01:02	0.3	98
154753	2026-01-21T03:11:02	0.2	98.5
154754	2026-01-21T03:21:02	0.3	98.5
154755	2026-01-21T03:31:02	0.3	98.5
154756	2026-01-21T03:41:02	0.2	98.5
154757	2026-01-21T03:51:02	0.4	98.5
154758	2026-01-21T04:01:02	0.3	98.5
154759	2026-01-21T04:11:02	0.3	97.5
154760	2026-01-21T04:21:02	0.2	96.5
154761	2026-01-21T04:31:02	0.3	97
154762	2026-01-21T04:41:02	0.3	96.5
154763	2026-01-21T04:51:02	0.2	96
154764	2026-01-21T05:01:02	0.3	96.5
154765	2026-01-21T05:11:02	0.1	97
154766	2026-01-21T05:21:02	0.1	97.5
154767	2026-01-21T05:31:02	0.1	98.5
154768	2026-01-21T05:41:02	0.1	98.5
154769	2026-01-21T05:51:02	0.1	99
154770	2026-01-21T06:01:02	0.2	99
154771	2026-01-21T06:11:02	0	99
154772	2026-01-21T06:21:02	0.1	99
154773	2026-01-21T06:31:02	0.1	99.5
154774	2026-01-21T06:41:02	0.1	99.5
154775	2026-01-21T06:51:02	0.2	99.5
154776	2026-01-21T07:01:02	0.2	99
154777	2026-01-21T07:11:02	0.2	98
154778	2026-01-21T07:21:02	0.2	96.5
154779	2026-01-21T07:31:02	0	96.5
154780	2026-01-21T07:41:02	0.1	96
154781	2026-01-21T07:51:02	0.2	95.5
154782	2026-01-21T08:01:02	0.1	95
154783	2026-01-21T08:11:02	0.1	95.5
154784	2026-01-21T08:21:02	0.2	95.5
154785	2026-01-21T08:31:02	0.2	95
154786	2026-01-21T08:41:02	0.3	95
154787	2026-01-21T08:51:02	0.5	95
154788	2026-01-21T09:01:02	0.5	94.5
154789	2026-01-21T09:11:02	0.4	94
154790	2026-01-21T09:21:02	0.4	94
154791	2026-01-21T09:31:02	0.6	93.5
154792	2026-01-21T09:41:02	0.8	92.5
154793	2026-01-21T09:51:02	0.8	92.5
154794	2026-01-21T10:01:02	1	92.5
154795	2026-01-21T10:11:02	1	92
154796	2026-01-21T10:21:02	1.1	92
154797	2026-01-21T10:31:02	1.4	90.5
154798	2026-01-21T10:41:02	1.3	90
154799	2026-01-21T10:51:02	1.5	90
154800	2026-01-21T11:01:02	1.8	89
154801	2026-01-21T11:11:02	1.7	89
154802	2026-01-21T11:21:02	1.8	88.5
154803	2026-01-21T11:31:02	2	88.5
154804	2026-01-21T11:41:02	2.1	88
154805	2026-01-21T11:51:02	2.3	87.5
154806	2026-01-21T12:01:02	2.5	87
154807	2026-01-21T12:11:02	2.6	87.5
154808	2026-01-21T12:21:02	2.5	87
154809	2026-01-21T12:31:02	2.5	87
154810	2026-01-21T12:41:02	2.6	86.5
154811	2026-01-21T13:11:02	6.8	74
154812	2026-01-21T13:21:02	5.3	77.5
154813	2026-01-21T13:31:02	4	81.5
154814	2026-01-21T13:41:02	4.6	80.5
154815	2026-01-21T13:51:02	5	80
154816	2026-01-21T14:01:02	5.4	78.5
154817	2026-01-21T14:11:02	5.8	78
154818	2026-01-21T14:21:02	5.3	79
154819	2026-01-21T14:31:02	5.1	79.5
154820	2026-01-21T14:41:02	5.1	80
154821	2026-01-21T14:51:02	4.7	81
154822	2026-01-21T15:01:02	4.3	82.5
154823	2026-01-21T15:11:02	4	84
154824	2026-01-21T15:21:02	3.6	84.5
154825	2026-01-21T15:31:02	2.9	86
154826	2026-01-21T15:41:02	2.6	87.5
154827	2026-01-21T15:51:02	2.2	89
154828	2026-01-21T16:01:02	1.9	90
154829	2026-01-21T16:11:02	1.5	91
154830	2026-01-21T16:21:02	1.1	91.5
154831	2026-01-21T16:31:02	1	92.5
154832	2026-01-21T16:41:02	0.8	92.5
154833	2026-01-21T16:51:02	0.5	93
154834	2026-01-21T17:01:02	0.3	93.5
154835	2026-01-21T17:11:02	0.2	94.5
154836	2026-01-21T17:21:02	0.1	95
154837	2026-01-21T17:31:02	0	95.5
154838	2026-01-21T17:41:02	-0.2	95.5
154839	2026-01-21T17:51:02	-0.3	95.5
154840	2026-01-21T18:01:02	-0.3	95.5
154841	2026-01-21T18:11:02	-0.6	96.5
154842	2026-01-21T18:21:02	-0.7	97.5
154843	2026-01-21T18:31:02	-0.8	98
154844	2026-01-21T18:41:02	-0.9	98.5
154845	2026-01-21T18:51:02	-1	99
154846	2026-01-21T19:01:02	-0.5	98.5
154847	2026-01-21T19:11:02	-0.4	97.5
154848	2026-01-21T19:21:02	-0.3	97.5
154849	2026-01-21T19:31:02	-0.1	97.5
154850	2026-01-21T19:41:02	-0.2	97.5
154851	2026-01-21T19:51:02	-0.2	98.5
154852	2026-01-21T20:01:02	-0.2	99
154853	2026-01-21T20:11:02	-0.2	99
154854	2026-01-21T20:21:02	-0.5	99
154855	2026-01-21T20:31:02	-0.1	99.5
154856	2026-01-21T20:41:02	-0.1	100
154857	2026-01-21T20:51:02	-0.2	99.5
154858	2026-01-21T21:01:02	-0.3	100
154859	2026-01-21T21:11:02	-0.3	99
154860	2026-01-21T21:21:02	-0.4	99
154861	2026-01-21T21:31:02	-0.5	99.5
154862	2026-01-21T21:41:02	-0.6	100
154863	2026-01-21T21:51:02	-0.4	99.5
154864	2026-01-21T22:01:02	-0.4	99.5
154865	2026-01-21T22:11:02	-0.5	99.5
154866	2026-01-21T22:21:02	-0.5	99.5
154867	2026-01-21T22:31:02	-0.5	99
154868	2026-01-21T22:41:02	-0.4	99.5
154869	2026-01-21T22:51:02	-0.3	99
154870	2026-01-21T23:01:02	-0.3	99
154871	2026-01-21T23:11:02	-0.4	98.5
154872	2026-01-21T23:21:02	-0.3	98.5
154873	2026-01-21T23:31:02	-0.4	97.5
154874	2026-01-21T23:41:02	-0.5	97
154875	2026-01-21T23:51:02	-0.5	97.5
154876	2026-01-22T00:01:02	-0.6	97
154877	2026-01-22T00:11:02	-0.5	97
154878	2026-01-22T00:21:02	-0.7	97
154879	2026-01-22T00:31:02	-0.6	96.5
154880	2026-01-22T00:41:02	-0.6	96.5
154881	2026-01-22T00:51:02	-0.5	97
154882	2026-01-22T01:01:02	-0.5	97.5
154883	2026-01-22T01:11:02	-0.7	98.5
154884	2026-01-22T01:21:02	-0.8	98.5
154885	2026-01-22T01:31:02	-0.8	99.5
154886	2026-01-22T01:41:02	-0.8	99
154887	2026-01-22T01:51:02	-0.9	100
154888	2026-01-22T02:01:02	-1	100
154889	2026-01-22T02:11:02	-0.8	100
154890	2026-01-22T02:21:02	-1	100
154891	2026-01-22T02:31:02	-0.8	100
154892	2026-01-22T02:41:02	-0.8	99.5
154893	2026-01-22T02:51:02	-1	99.5
154894	2026-01-22T03:01:02	-1.1	100
154895	2026-01-22T03:11:02	-1.1	100
154896	2026-01-22T03:21:02	-1	100
154897	2026-01-22T03:31:02	-1.1	99.5
154898	2026-01-22T03:41:02	-1.1	99.5
154899	2026-01-22T03:51:02	-1.1	99.5
154900	2026-01-22T04:01:02	-0.8	99.5
154901	2026-01-22T04:11:02	-0.8	99
154902	2026-01-22T04:21:02	-0.8	99
154903	2026-01-22T04:31:02	-0.6	98.5
154904	2026-01-22T04:41:02	-0.6	98.5
154905	2026-01-22T04:51:02	-0.7	98
154906	2026-01-22T05:01:02	-0.6	98
154907	2026-01-22T05:11:02	-0.6	98
154908	2026-01-22T05:21:02	-0.5	98
154909	2026-01-22T05:31:02	-0.5	97.5
154910	2026-01-22T05:41:02	-0.6	97.5
154911	2026-01-22T05:51:02	-0.5	97
154912	2026-01-22T06:01:02	-0.5	97
154913	2026-01-22T06:11:02	-0.6	96.5
154914	2026-01-22T06:21:02	-0.6	96.5
154915	2026-01-22T06:31:02	-0.6	96.5
154916	2026-01-22T06:41:02	-0.6	96.5
154917	2026-01-22T06:51:02	-0.6	96.5
154918	2026-01-22T07:01:02	-0.5	96
154919	2026-01-22T07:11:02	-0.5	95.5
154920	2026-01-22T07:21:02	-0.5	95
154921	2026-01-22T07:31:02	-0.5	95
154922	2026-01-22T07:41:02	-0.7	95
154923	2026-01-22T07:51:02	-0.7	94.5
154924	2026-01-22T08:01:02	-0.5	94.5
154925	2026-01-22T08:11:02	-0.5	94.5
154926	2026-01-22T08:21:02	-0.5	93.5
154927	2026-01-22T08:31:02	-0.2	92.5
154928	2026-01-22T08:41:02	-0.2	93
154929	2026-01-22T08:51:02	0	92.5
154930	2026-01-22T09:01:02	0	91.5
154931	2026-01-22T09:11:02	-0.1	90.5
154932	2026-01-22T09:21:02	-0.2	91
154933	2026-01-22T09:31:02	-0.2	91.5
154934	2026-01-22T09:41:02	0	90.5
154935	2026-01-22T09:51:02	-0.2	91
154936	2026-01-22T10:01:02	-0.1	92
154937	2026-01-22T10:11:02	-0.1	91.5
154938	2026-01-22T10:21:02	-0.4	92.5
154939	2026-01-22T10:31:02	-0.2	93
154940	2026-01-22T10:41:02	-0.1	93
154941	2026-01-22T10:51:02	-0.2	93.5
154942	2026-01-22T11:01:02	-0.2	93.5
154943	2026-01-22T11:11:02	0	92.5
154944	2026-01-22T11:21:02	0	92.5
154945	2026-01-22T11:31:02	0.2	92
154946	2026-01-22T11:41:02	0.5	91.5
154947	2026-01-22T11:51:02	0.7	91
154948	2026-01-22T12:01:02	0.7	90
154949	2026-01-22T12:11:02	0.6	90.5
154950	2026-01-22T12:21:02	0.7	91
154951	2026-01-22T12:31:02	0.8	91
154952	2026-01-22T12:41:02	0.6	91.5
154953	2026-01-22T12:51:02	0.4	92
154954	2026-01-22T13:01:02	0.5	92
154955	2026-01-22T13:11:02	0.8	92
154956	2026-01-22T13:21:02	0.8	91.5
154957	2026-01-22T13:31:02	1	91
154958	2026-01-22T13:41:02	1.2	91
154959	2026-01-22T13:51:02	1	90.5
154960	2026-01-22T14:01:02	1	90.5
154961	2026-01-22T14:11:02	0.9	91.5
154962	2026-01-22T14:21:02	1	91.5
154963	2026-01-22T14:31:02	0.8	91.5
154964	2026-01-22T14:41:02	1	92
154965	2026-01-22T14:51:02	0.7	92.5
154966	2026-01-22T15:01:02	0.7	93.5
154967	2026-01-22T15:11:02	0.6	93.5
154968	2026-01-22T15:21:02	0.5	94
154969	2026-01-22T15:31:02	0.4	94
154970	2026-01-22T15:41:02	0.2	94.5
154971	2026-01-22T15:51:02	0.2	94.5
154972	2026-01-22T16:01:02	0.2	95.5
154973	2026-01-22T16:11:02	0.2	95.5
154974	2026-01-22T16:21:02	0	95.5
154975	2026-01-22T16:31:02	0	96
154976	2026-01-22T16:41:02	-0.3	97
154977	2026-01-22T16:51:02	-0.4	97.5
154978	2026-01-22T17:01:19	-0.5	98
154979	2026-01-22T17:11:02	-0.6	98.5
154980	2026-01-22T17:21:02	-0.8	99
154981	2026-01-22T17:31:02	-0.9	99.5
154982	2026-01-22T17:41:02	-0.8	100
154983	2026-01-22T17:51:02	-0.7	100
154984	2026-01-22T18:01:02	-0.6	99.5
154985	2026-01-22T18:11:02	-0.5	99
154986	2026-01-22T18:21:02	-0.5	98.5
154987	2026-01-22T18:31:02	-0.5	98.5
154988	2026-01-22T18:41:02	-0.4	98.5
154989	2026-01-22T18:51:02	-0.3	98
154990	2026-01-22T19:01:02	-0.3	98
154991	2026-01-22T19:11:02	-0.1	98.5
154992	2026-01-22T19:21:02	-0.1	98.5
154993	2026-01-22T19:31:02	-0.2	98.5
154994	2026-01-22T19:41:02	-0.1	98.5
154995	2026-01-22T19:51:02	-0.1	98.5
154996	2026-01-22T20:01:02	-0.1	98.5
154997	2026-01-22T20:11:02	-0.1	98
154998	2026-01-22T20:21:02	-0.2	98.5
154999	2026-01-22T20:31:02	-0.1	98.5
155000	2026-01-22T20:41:02	0	98
155001	2026-01-22T20:51:02	0	98
155002	2026-01-22T21:01:02	0	97.5
155003	2026-01-22T21:11:02	0	98
155004	2026-01-22T21:21:02	0.1	97.5
155005	2026-01-22T21:31:02	0	97.5
155006	2026-01-22T21:41:02	0.1	97.5
155007	2026-01-22T21:51:02	0.1	97.5
155008	2026-01-22T22:01:02	0.2	96.5
155009	2026-01-22T22:11:02	0.2	96.5
155010	2026-01-22T22:21:02	0.3	96.5
155011	2026-01-22T22:31:02	0.4	96.5
155012	2026-01-22T22:41:02	0.3	96
155013	2026-01-22T22:51:02	0.5	96
155014	2026-01-22T23:01:02	0.4	96
155015	2026-01-22T23:11:02	0.5	96.5
155016	2026-01-22T23:21:02	0.5	96.5
155017	2026-01-22T23:31:02	0.4	96.5
155018	2026-01-22T23:41:02	0.4	96.5
155019	2026-01-22T23:51:02	0.4	96
155020	2026-01-23T00:01:02	0.5	96.5
155021	2026-01-23T00:11:02	0.5	96.5
155022	2026-01-23T00:21:02	0.5	96
155023	2026-01-23T00:31:02	0.5	96.5
155024	2026-01-23T00:41:02	0.6	96
155025	2026-01-23T00:51:02	0.4	96.5
155026	2026-01-23T01:01:02	0.4	97
155027	2026-01-23T01:11:02	0.3	97
155028	2026-01-23T01:21:02	0.4	97
155029	2026-01-23T01:31:02	0.3	97
155030	2026-01-23T01:41:02	0.4	97
155031	2026-01-23T01:51:02	0.3	97.5
155032	2026-01-23T02:01:02	0.1	97.5
155033	2026-01-23T02:11:02	-0.1	99
155034	2026-01-23T02:21:02	-0.3	99.5
155035	2026-01-23T02:31:02	-0.3	100
155036	2026-01-23T02:41:02	-0.2	100
155037	2026-01-23T02:51:02	-0.2	100
155038	2026-01-23T03:01:02	-0.1	100
155039	2026-01-23T03:11:02	0	99.5
155040	2026-01-23T03:21:02	0.1	99
155041	2026-01-23T03:31:02	0	99
155042	2026-01-23T03:41:02	0	99
155043	2026-01-23T03:51:02	-0.1	99.5
155044	2026-01-23T04:01:02	-0.1	99
155045	2026-01-23T04:11:02	-0.2	98.5
155046	2026-01-23T04:21:02	-0.3	98
155047	2026-01-23T04:31:02	-0.3	98
155048	2026-01-23T04:41:02	-0.5	97
155049	2026-01-23T04:51:02	-0.8	98
155050	2026-01-23T05:01:02	-0.8	98.5
155051	2026-01-23T05:11:02	-1	98
155052	2026-01-23T05:21:02	-1.2	98
155053	2026-01-23T05:31:02	-1.3	98
155054	2026-01-23T05:41:02	-1.4	99
155055	2026-01-23T05:51:02	-1.4	98.5
155056	2026-01-23T06:01:02	-1.7	98.5
155057	2026-01-23T06:11:02	-1.8	99
155058	2026-01-23T06:21:02	-1.9	99
155059	2026-01-23T06:31:02	-2	99
155060	2026-01-23T06:41:02	-2	98.5
155061	2026-01-23T06:51:02	-2.1	98.5
155062	2026-01-23T07:01:02	-2.2	98.5
155063	2026-01-23T07:11:02	-2.1	98.5
155064	2026-01-23T07:21:02	-2.3	98.5
155065	2026-01-23T07:31:02	-2.3	99
155066	2026-01-23T07:41:02	-2.3	99.5
155067	2026-01-23T07:51:02	-2.3	99
155068	2026-01-23T08:01:02	-2.3	99
155069	2026-01-23T08:11:02	-2.3	99.5
155070	2026-01-23T08:21:02	-2.2	99.5
155071	2026-01-23T08:31:02	-1.9	99
155072	2026-01-23T08:41:02	-1.9	99
155073	2026-01-23T08:51:02	-1.7	99
155074	2026-01-23T09:01:02	-1.5	99
155075	2026-01-23T09:11:02	-1.3	98
155076	2026-01-23T09:21:02	-1	96.5
155077	2026-01-23T09:31:02	-0.8	97
155078	2026-01-23T09:41:02	-0.6	96.5
155079	2026-01-23T09:51:02	-0.4	95.5
155080	2026-01-23T10:01:02	-0.2	95
155081	2026-01-23T10:11:02	0	94
155082	2026-01-23T10:21:02	0.1	93
155083	2026-01-23T10:31:02	0.2	91.5
155084	2026-01-23T10:41:02	0.4	92
155085	2026-01-23T10:51:02	0.7	91
155086	2026-01-23T11:01:02	1.1	89.5
155087	2026-01-23T11:11:02	1.5	88
155088	2026-01-23T11:21:02	2	86.5
155089	2026-01-23T11:31:02	2.3	85.5
155090	2026-01-23T11:41:02	2.6	85.5
155091	2026-01-23T11:51:02	3	83
155092	2026-01-23T12:01:02	3.9	81
155093	2026-01-23T12:11:02	4.6	80
155094	2026-01-23T12:21:02	4.9	77
155095	2026-01-23T12:31:02	4.5	78
155096	2026-01-23T12:41:02	4.5	78
155097	2026-01-23T12:51:02	4.4	79
155098	2026-01-23T13:01:02	4.5	78.5
155099	2026-01-23T13:11:02	5.7	76.5
155100	2026-01-23T13:21:02	6.9	72
155101	2026-01-23T13:31:02	7.2	71
155102	2026-01-23T13:41:02	8.4	64.5
155103	2026-01-23T13:51:02	7.1	68
155104	2026-01-23T14:01:02	6.4	71
155105	2026-01-23T14:11:02	5.7	71.5
155106	2026-01-23T14:21:02	5.6	72
155107	2026-01-23T14:31:02	6.2	71
155108	2026-01-23T14:41:02	9.4	63.5
155109	2026-01-23T14:51:02	9.5	60
155110	2026-01-23T15:01:02	7.4	65.5
155111	2026-01-23T15:11:02	6.1	70
155112	2026-01-23T15:21:02	5.2	73
155113	2026-01-23T15:31:02	4.6	75.5
155114	2026-01-23T15:41:02	4.4	76
155115	2026-01-23T15:51:02	4.2	77.5
155116	2026-01-23T16:01:02	4	79
155117	2026-01-23T16:11:02	3.7	82
155118	2026-01-23T16:21:02	3.5	83.5
155119	2026-01-23T16:31:02	3.5	83.5
155120	2026-01-23T16:41:02	3.4	84.5
155121	2026-01-23T16:51:02	3.3	85.5
155122	2026-01-23T17:01:02	3.3	85.5
155123	2026-01-23T17:11:02	3.3	86
155124	2026-01-23T17:21:02	3.2	86
155125	2026-01-23T17:31:02	3.2	85.5
155126	2026-01-23T17:41:02	2.9	86.5
155127	2026-01-23T17:51:02	2.5	88
155128	2026-01-23T18:01:02	2.1	89
155129	2026-01-23T18:11:02	1.7	90.5
155130	2026-01-23T18:21:02	1.4	91
155131	2026-01-23T18:31:02	1.1	91.5
155132	2026-01-23T18:41:02	0.9	91.5
155133	2026-01-23T18:51:02	0.9	92
155134	2026-01-23T19:01:02	0.8	91.5
155135	2026-01-23T19:11:02	0.7	91.5
155136	2026-01-23T19:21:02	0.7	92.5
155137	2026-01-23T19:31:02	0.6	93
155138	2026-01-23T19:41:02	0.4	93.5
155139	2026-01-23T19:51:02	0.5	93.5
155140	2026-01-23T20:01:02	0.5	94
155141	2026-01-23T20:11:02	0.5	93.5
155142	2026-01-23T20:21:02	0.3	94
155143	2026-01-23T20:31:02	0	94.5
155144	2026-01-23T20:41:02	0	94.5
155145	2026-01-23T20:51:02	-0.2	94.5
155146	2026-01-23T21:01:02	-0.2	95
155147	2026-01-23T21:11:02	-0.1	95
155148	2026-01-23T21:21:02	0	94.5
155149	2026-01-23T21:31:02	0	94.5
155150	2026-01-23T21:41:02	0.1	94
155151	2026-01-23T21:51:02	0.1	94
155152	2026-01-23T22:01:02	0	94
155153	2026-01-23T22:11:02	-0.2	94.5
155154	2026-01-23T22:21:02	-0.4	95.5
155155	2026-01-23T22:31:02	-0.5	96
155156	2026-01-23T22:41:02	-0.8	96
155157	2026-01-23T22:51:02	-0.9	96.5
155158	2026-01-23T23:01:02	-1	97.5
155159	2026-01-23T23:11:02	-1.2	97.5
155160	2026-01-23T23:21:02	-1.3	97
155161	2026-01-23T23:31:02	-1.4	97.5
155162	2026-01-23T23:41:02	-1.1	99.5
155163	2026-01-23T23:51:02	-1.2	100
155164	2026-01-24T00:01:02	-1.3	100
155165	2026-01-24T00:11:02	-1.4	100
155166	2026-01-24T00:21:02	-1.4	100
155167	2026-01-24T00:31:02	-1.5	100
155168	2026-01-24T00:41:02	-1.4	100
155169	2026-01-24T00:51:02	-1	100
155170	2026-01-24T01:01:02	-0.9	100
155171	2026-01-24T01:11:02	-0.8	100
155172	2026-01-24T01:21:02	-0.7	100
155173	2026-01-24T01:31:02	-0.7	100
155174	2026-01-24T01:41:02	-0.6	99.5
155175	2026-01-24T01:51:02	-0.6	99.5
155176	2026-01-24T02:01:02	-0.8	99.5
155177	2026-01-24T02:11:02	-0.8	100
155178	2026-01-24T02:21:02	-0.4	99.5
155179	2026-01-24T02:31:02	-0.4	99
155180	2026-01-24T02:41:02	-0.3	99
155181	2026-01-24T02:51:02	-0.1	98.5
155182	2026-01-24T03:01:02	0	98.5
155183	2026-01-24T03:11:02	0	98.5
155184	2026-01-24T03:21:02	0	98
155185	2026-01-24T03:31:02	0.1	98
155186	2026-01-24T03:41:02	0	98
155187	2026-01-24T03:51:02	0.2	98
155188	2026-01-24T04:01:02	0.2	97.5
155189	2026-01-24T04:11:02	0.3	97.5
155190	2026-01-24T04:21:02	0.4	97.5
155191	2026-01-24T04:31:02	0.5	97.5
155192	2026-01-24T04:41:02	0.5	98
155193	2026-01-24T04:51:02	0.5	97.5
155194	2026-01-24T05:01:02	0.5	97.5
155195	2026-01-24T05:11:02	0.5	97
155196	2026-01-24T05:21:02	0.6	97
155197	2026-01-24T05:31:02	0.6	97
155198	2026-01-24T05:41:02	0.6	97.5
155199	2026-01-24T05:51:02	0.6	97.5
155200	2026-01-24T06:01:02	0.6	97.5
155201	2026-01-24T06:11:02	0.5	97.5
155202	2026-01-24T06:21:02	0.5	97
155203	2026-01-24T06:31:02	0.3	97
155204	2026-01-24T06:41:02	0.3	97
155205	2026-01-24T06:51:02	0.4	97.5
155206	2026-01-24T07:01:02	0.2	97
155207	2026-01-24T07:11:02	-0.1	97.5
155208	2026-01-24T07:21:02	0	98
155209	2026-01-24T07:31:02	0.3	97
155210	2026-01-24T07:41:02	0.5	97
155211	2026-01-24T07:51:02	0.6	96.5
155212	2026-01-24T08:01:02	0.9	95.5
155213	2026-01-24T08:11:02	1.1	95
155214	2026-01-24T08:21:02	1.1	94.5
155215	2026-01-24T08:31:02	1.4	94
155216	2026-01-24T08:41:02	1.5	93
155217	2026-01-24T08:51:02	1.4	92
155218	2026-01-24T09:01:02	1.5	92.5
155219	2026-01-24T09:11:02	1.7	91
155220	2026-01-24T09:21:02	1.7	90
155221	2026-01-24T09:31:02	1.6	89
155222	2026-01-24T09:41:02	1.2	90.5
155223	2026-01-24T09:51:02	1.5	90
155224	2026-01-24T10:01:02	1.5	89.5
155225	2026-01-24T10:11:02	1.5	89.5
155226	2026-01-24T10:21:02	1.4	90
155227	2026-01-24T10:31:02	1.6	89.5
155228	2026-01-24T10:41:02	1.8	89.5
155229	2026-01-24T10:51:02	2.3	88
155230	2026-01-24T11:01:02	2.6	87
155231	2026-01-24T11:11:02	2.8	85.5
155232	2026-01-24T11:21:02	3	83.5
155233	2026-01-24T11:31:02	3.6	79
155234	2026-01-24T11:41:02	3.6	76.5
155235	2026-01-24T11:51:02	4.1	74.5
155236	2026-01-24T12:01:02	5.9	69
155237	2026-01-24T12:11:02	7.6	64
155238	2026-01-24T12:21:02	8.8	60.5
155239	2026-01-24T12:31:02	9.9	55
155240	2026-01-24T12:41:02	11	52.5
155241	2026-01-24T12:51:02	12	49.5
155242	2026-01-24T13:01:02	12.7	47
155243	2026-01-24T13:11:02	13.3	45
155244	2026-01-24T13:21:02	12.3	45.5
155245	2026-01-24T13:31:02	11.4	47.5
155246	2026-01-24T13:41:02	10.2	48.5
155247	2026-01-24T13:51:02	8.8	52.5
155248	2026-01-24T14:01:02	8.2	54.5
155249	2026-01-24T14:11:01	7.9	57
155250	2026-01-24T14:21:02	8.2	57
155251	2026-01-24T14:31:01	8.3	57
155252	2026-01-24T14:41:01	7.2	59.5
155253	2026-01-24T14:51:01	6.5	61.5
155254	2026-01-24T15:01:01	5.8	63.5
155255	2026-01-24T15:11:01	7.1	61.5
155256	2026-01-24T15:21:01	8	58.5
155257	2026-01-24T15:31:01	7	60.5
155258	2026-01-24T15:41:01	6.1	62
155259	2026-01-24T15:51:01	5	66
155260	2026-01-24T16:01:01	3.8	68.5
155261	2026-01-24T16:11:01	3.2	71
155262	2026-01-24T16:21:01	2.7	73
155263	2026-01-24T16:31:01	2.4	74
155264	2026-01-24T16:41:01	2	76
155265	2026-01-24T16:51:01	1.8	76.5
155266	2026-01-24T17:01:01	1.6	77.5
155267	2026-01-24T17:11:01	1.3	79
155268	2026-01-24T17:21:01	1	79.5
155269	2026-01-24T17:31:01	0.9	80.5
155270	2026-01-24T17:41:01	0.7	81
155271	2026-01-24T17:51:01	0.5	81
155272	2026-01-24T18:01:01	0.3	82
155273	2026-01-24T18:11:01	0.1	83
155274	2026-01-24T18:21:01	0	83
155275	2026-01-24T18:31:01	0	83
155276	2026-01-24T18:41:01	-0.1	83.5
155277	2026-01-24T18:51:01	-0.2	84
155278	2026-01-24T19:01:01	-0.3	84.5
155279	2026-01-24T19:11:01	-0.3	85
155280	2026-01-24T19:21:01	-0.6	85.5
155281	2026-01-24T19:31:01	-0.6	86
155282	2026-01-24T19:41:01	-0.8	87
155283	2026-01-24T19:51:01	-0.8	87.5
155284	2026-01-24T20:01:01	-1	87.5
155285	2026-01-24T20:11:01	-1.1	88.5
155286	2026-01-24T20:21:01	-1.3	89
155287	2026-01-24T20:31:01	-1.4	89
155288	2026-01-24T20:41:01	-1.6	89.5
155289	2026-01-24T20:51:01	-1.7	90.5
155290	2026-01-24T21:01:01	-1.7	91
155291	2026-01-24T21:11:01	-1.9	91.5
155292	2026-01-24T21:21:01	-2	92
155293	2026-01-24T21:31:01	-1.8	92.5
155294	2026-01-24T21:41:01	-2	93
155295	2026-01-24T21:51:01	-2.1	93
155296	2026-01-24T22:01:01	-2.1	93
155297	2026-01-24T22:11:01	-2	93
155298	2026-01-24T22:21:01	-2	93
155299	2026-01-24T22:31:01	-2	93.5
155300	2026-01-24T22:41:01	-2	93.5
155301	2026-01-24T22:51:01	-1.9	93.5
155302	2026-01-24T23:01:01	-1.9	93.5
155303	2026-01-24T23:11:01	-1.8	93
155304	2026-01-24T23:21:01	-1.9	93.5
155305	2026-01-24T23:31:01	-1.9	94
155306	2026-01-24T23:41:01	-1.9	94
155307	2026-01-24T23:51:01	-1.8	94
155308	2026-01-25T00:01:01	-1.7	94
155309	2026-01-25T00:11:01	-1.7	94
155310	2026-01-25T00:21:01	-1.7	94
155311	2026-01-25T00:31:01	-1.9	94.5
155312	2026-01-25T00:41:01	-2	95
155313	2026-01-25T00:51:01	-2.1	95.5
155314	2026-01-25T01:01:01	-2.1	95.5
155315	2026-01-25T01:11:01	-2	95
155316	2026-01-25T01:21:01	-2.1	95
155317	2026-01-25T01:31:01	-2	95
155318	2026-01-25T01:41:01	-2	95
155319	2026-01-25T01:51:01	-2.1	95
155320	2026-01-25T02:01:01	-2.2	95
155321	2026-01-25T02:11:01	-2	95
155322	2026-01-25T02:21:01	-2.1	95
155323	2026-01-25T02:31:01	-1.9	94.5
155324	2026-01-25T02:41:01	-1.9	94.5
155325	2026-01-25T02:51:01	-1.8	94.5
155326	2026-01-25T03:01:01	-1.8	94.5
155327	2026-01-25T03:11:01	-1.9	94
155328	2026-01-25T03:21:01	-1.7	94.5
155329	2026-01-25T03:31:01	-1.5	93.5
155330	2026-01-25T03:41:01	-1.3	93
155331	2026-01-25T03:51:01	-1.2	93
155332	2026-01-25T04:01:01	-1.1	92.5
155333	2026-01-25T04:11:01	-1.1	92.5
155334	2026-01-25T04:21:01	-1	92.5
155335	2026-01-25T04:31:01	-0.9	92.5
155336	2026-01-25T04:41:01	-0.8	93
155337	2026-01-25T04:51:01	-0.8	92.5
155338	2026-01-25T05:01:01	-0.6	92.5
155339	2026-01-25T05:11:01	-0.6	92
155340	2026-01-25T05:21:01	-0.6	92
155341	2026-01-25T05:31:01	-0.4	92.5
155342	2026-01-25T05:41:01	-0.5	92
155343	2026-01-25T05:51:01	-0.4	92
155344	2026-01-25T06:01:01	-0.3	91.5
155345	2026-01-25T06:11:01	-0.4	91.5
155346	2026-01-25T06:21:01	-0.3	91.5
155347	2026-01-25T06:31:01	-0.3	91.5
155348	2026-01-25T06:41:01	-0.2	91.5
155349	2026-01-25T06:51:01	-0.3	91.5
155350	2026-01-25T07:01:01	-0.2	91.5
155351	2026-01-25T07:11:01	-0.2	91
155352	2026-01-25T07:21:01	-0.2	90.5
155353	2026-01-25T07:31:01	-0.2	91
155354	2026-01-25T07:41:01	-0.1	90.5
155355	2026-01-25T07:51:01	-0.1	90
155356	2026-01-25T08:01:01	0	90
155357	2026-01-25T08:11:01	0	89.5
155358	2026-01-25T08:21:01	0	89.5
155359	2026-01-25T08:31:01	0.1	89
155360	2026-01-25T08:41:01	0.2	89
155361	2026-01-25T08:51:01	0.3	88.5
155362	2026-01-25T09:01:01	0.4	88
155363	2026-01-25T09:11:01	0.4	87.5
155364	2026-01-25T09:21:01	0.5	87.5
155365	2026-01-25T09:31:01	0.7	87
155366	2026-01-25T09:41:01	0.8	86
155367	2026-01-25T09:51:01	0.8	86
155368	2026-01-25T10:01:01	0.9	86
155369	2026-01-25T10:11:01	1.1	86
155370	2026-01-25T10:21:01	1	85.5
155371	2026-01-25T10:31:01	1.2	85.5
155372	2026-01-25T10:41:01	1.3	84.5
155373	2026-01-25T10:51:01	1.2	85
155374	2026-01-25T11:01:01	1.1	85.5
155375	2026-01-25T11:11:01	1.3	84.5
155376	2026-01-25T11:21:01	1.5	84.5
155377	2026-01-25T11:31:01	1.8	84
155378	2026-01-25T11:41:01	2	82.5
155379	2026-01-25T11:51:01	2	82.5
155380	2026-01-25T12:01:01	2	83.5
155381	2026-01-25T12:11:01	1.8	83.5
155382	2026-01-25T12:21:01	1.8	83.5
155383	2026-01-25T12:31:01	2	83.5
155384	2026-01-25T12:41:01	2	83
155385	2026-01-25T12:51:01	2	83.5
155386	2026-01-25T13:01:01	1.9	84
155387	2026-01-25T13:11:01	2	84.5
155388	2026-01-25T13:21:01	1.8	84.5
155389	2026-01-25T13:31:01	1.9	84
155390	2026-01-25T13:41:01	2	84.5
155391	2026-01-25T13:51:01	1.9	84
155392	2026-01-25T14:01:01	2.1	84.5
155393	2026-01-25T14:11:01	2.2	84
155394	2026-01-25T14:21:01	2.2	84.5
155395	2026-01-25T14:31:01	2.1	84.5
155396	2026-01-25T14:41:01	2	85
155397	2026-01-25T14:51:01	1.9	85.5
155398	2026-01-25T15:01:01	1.8	86.5
155399	2026-01-25T15:11:01	1.8	87
155400	2026-01-25T15:21:01	1.8	87
155401	2026-01-25T15:31:01	1.7	87
155402	2026-01-25T15:41:01	1.7	88
155403	2026-01-25T15:51:01	1.6	88.5
155404	2026-01-25T16:01:01	1.5	89
155405	2026-01-25T16:11:01	1.5	89.5
155406	2026-01-25T16:21:01	1.4	90
155407	2026-01-25T16:31:01	1.4	90.5
155408	2026-01-25T16:41:01	1.4	90.5
155409	2026-01-25T16:51:01	1.3	90.5
155410	2026-01-25T17:01:01	1.3	90.5
155411	2026-01-25T17:11:01	1.3	91
155412	2026-01-25T17:21:01	1.3	91.5
155413	2026-01-25T17:31:01	1.4	91.5
155414	2026-01-25T17:41:01	1.2	92
155415	2026-01-25T17:51:01	1.2	91.5
155416	2026-01-25T18:01:01	1.3	91.5
155417	2026-01-25T18:11:01	1.2	91.5
155418	2026-01-25T18:21:01	1.2	91.5
155419	2026-01-25T18:31:01	1.2	92
155420	2026-01-25T18:41:01	1.3	91.5
155421	2026-01-25T18:51:01	1.3	91.5
155422	2026-01-25T19:01:01	1.3	91.5
155423	2026-01-25T19:11:01	1.1	91
155424	2026-01-25T19:21:01	1.3	91
155425	2026-01-25T19:31:01	1.3	90.5
155426	2026-01-25T19:41:01	1.2	91
155427	2026-01-25T19:51:01	1.2	90.5
155428	2026-01-25T20:01:01	1.2	91
155429	2026-01-25T20:11:01	1.2	92
155430	2026-01-25T20:21:01	1.2	91
155431	2026-01-25T20:31:01	1.1	90.5
155432	2026-01-25T20:41:01	1.1	90
155433	2026-01-25T20:51:01	1	89.5
155434	2026-01-25T21:01:01	1.1	89.5
155435	2026-01-25T21:11:01	1.1	89.5
155436	2026-01-25T21:21:01	1.1	90
155437	2026-01-25T21:31:01	0.9	89.5
155438	2026-01-25T21:41:01	1	89.5
155439	2026-01-25T21:51:01	1	89.5
155440	2026-01-25T22:01:01	1	90
155441	2026-01-25T22:11:01	1	90
155442	2026-01-25T22:21:01	1	89.5
155443	2026-01-25T22:31:01	1	89.5
155444	2026-01-25T22:41:01	0.9	89.5
155445	2026-01-25T22:51:01	0.9	89.5
155446	2026-01-25T23:01:01	0.7	89.5
155447	2026-01-25T23:11:01	0.7	90
155448	2026-01-25T23:21:01	0.7	90.5
155449	2026-01-25T23:31:01	0.7	90.5
155450	2026-01-25T23:41:01	0.7	90.5
155451	2026-01-25T23:51:01	0.7	89.5
155452	2026-01-26T00:01:01	0.6	90
155453	2026-01-26T00:11:01	0.6	90.5
155454	2026-01-26T00:21:01	0.6	90.5
155455	2026-01-26T00:31:01	0.6	91
155456	2026-01-26T00:41:01	0.6	91
155457	2026-01-26T00:51:01	0.5	91
155458	2026-01-26T01:01:01	0.6	91
155459	2026-01-26T01:11:01	0.6	91
155460	2026-01-26T01:21:01	0.6	91.5
155461	2026-01-26T01:31:01	0.6	91.5
155462	2026-01-26T01:41:01	0.6	91.5
155463	2026-01-26T01:51:01	0.7	92.5
155464	2026-01-26T02:01:01	0.5	93
155465	2026-01-26T02:11:01	0.6	93
155466	2026-01-26T02:21:01	0.6	94
155467	2026-01-26T02:31:01	0.6	94
155468	2026-01-26T02:41:01	0.6	94
155469	2026-01-26T02:51:01	0.6	94.5
155470	2026-01-26T03:01:01	0.8	95
155471	2026-01-26T03:11:01	0.7	95.5
155472	2026-01-26T03:21:01	0.7	95.5
155473	2026-01-26T03:31:01	0.7	95.5
155474	2026-01-26T03:41:01	0.8	96
155475	2026-01-26T03:51:02	0.8	96
155476	2026-01-26T04:01:01	0.8	96.5
155477	2026-01-26T04:11:01	0.8	96.5
155478	2026-01-26T04:21:01	1	97
155479	2026-01-26T04:31:01	1	97.5
155480	2026-01-26T04:41:01	1.1	98
155481	2026-01-26T04:51:01	1.1	98
155482	2026-01-26T05:01:01	1.3	98
155483	2026-01-26T05:11:01	1.4	98
155484	2026-01-26T05:21:01	1.5	97.5
155485	2026-01-26T05:31:01	1.6	97.5
155486	2026-01-26T05:41:01	1.9	97
155487	2026-01-26T05:51:01	2	97
155488	2026-01-26T06:01:01	2.1	97
155489	2026-01-26T06:11:01	2.1	97
155490	2026-01-26T06:21:01	2.2	97
155491	2026-01-26T06:31:01	2.3	96.5
155492	2026-01-26T06:41:01	2.5	96.5
155493	2026-01-26T06:51:01	2.4	96.5
155494	2026-01-26T07:01:01	2.4	97
155495	2026-01-26T07:11:01	2.4	97
155496	2026-01-26T07:21:01	2.4	97
155497	2026-01-26T07:31:01	2.4	97
155498	2026-01-26T07:41:01	2.5	97.5
155499	2026-01-26T07:51:01	2.6	97.5
155500	2026-01-26T08:01:01	2.8	97.5
155501	2026-01-26T08:11:01	2.8	97.5
155502	2026-01-26T08:21:01	3	97
155503	2026-01-26T08:31:01	3.1	97
155504	2026-01-26T08:41:01	3.2	96.5
155505	2026-01-26T08:51:01	3.3	96.5
155506	2026-01-26T09:01:01	3.4	96.5
155507	2026-01-26T09:11:01	3.4	96
155508	2026-01-26T09:21:01	3.5	96
155509	2026-01-26T09:31:01	3.7	96
155510	2026-01-26T09:41:01	3.8	95.5
155511	2026-01-26T09:51:01	3.9	95
155512	2026-01-26T10:01:01	4	95
155513	2026-01-26T10:11:01	4.1	95
155514	2026-01-26T10:21:01	4	94.5
155515	2026-01-26T10:31:01	4.4	94
155516	2026-01-26T10:41:01	4.5	93.5
155517	2026-01-26T10:51:01	4.7	93
155518	2026-01-26T11:01:01	5	92
155519	2026-01-26T11:11:01	5.5	90.5
155520	2026-01-26T11:21:01	5.7	90
155521	2026-01-26T11:31:01	6.2	87
155522	2026-01-26T11:41:01	7	84
155523	2026-01-26T11:51:01	7.4	81
155524	2026-01-26T12:01:01	7.3	81
155525	2026-01-26T12:11:01	7.4	80.5
155526	2026-01-26T12:21:01	7.7	81
155527	2026-01-26T12:31:01	7.1	83
155528	2026-01-26T12:41:01	7.4	82.5
155529	2026-01-26T12:51:01	7.1	83.5
155530	2026-01-26T13:01:01	7.1	84.5
155531	2026-01-26T13:11:01	7.1	85
155532	2026-01-26T13:21:01	7	85
155533	2026-01-26T13:31:01	6.9	86
155534	2026-01-26T13:41:01	6.9	86.5
155535	2026-01-26T13:51:01	6.9	87
155536	2026-01-26T14:01:01	6.8	87.5
155537	2026-01-26T14:11:01	6.8	88.5
155538	2026-01-26T14:21:01	6.8	89
155539	2026-01-26T14:31:01	6.8	89
155540	2026-01-26T14:41:01	6.8	89
155541	2026-01-26T14:51:01	6.8	88.5
155542	2026-01-26T15:01:01	6.8	87.5
155543	2026-01-26T15:11:01	7.2	86
155544	2026-01-26T15:21:01	6.9	86
155545	2026-01-26T15:31:01	7	86
155546	2026-01-26T15:41:01	6.8	85
155547	2026-01-26T15:51:01	6.6	85
155548	2026-01-26T16:01:01	6.6	85.5
155549	2026-01-26T16:11:01	6.4	85.5
155550	2026-01-26T16:21:01	6.5	86
155551	2026-01-26T16:31:01	6.4	86.5
155552	2026-01-26T16:41:01	6.4	86.5
155553	2026-01-26T16:51:01	6.3	86.5
155554	2026-01-26T17:01:01	6.3	87
155555	2026-01-26T17:11:01	6.2	87
155556	2026-01-26T17:21:01	6.2	89
155557	2026-01-26T17:31:01	6.1	89.5
155558	2026-01-26T17:41:01	6	90
155559	2026-01-26T17:51:01	6.1	89
155560	2026-01-26T18:01:01	6	89
155561	2026-01-26T18:11:01	6	89
155562	2026-01-26T18:21:01	6	88.5
155563	2026-01-26T18:31:01	6	89
155564	2026-01-26T18:41:01	6	89
155565	2026-01-26T18:51:01	5.9	88.5
155566	2026-01-26T19:01:01	5.9	88.5
155567	2026-01-26T19:11:01	5.8	88.5
155568	2026-01-26T19:21:01	5.8	89.5
155569	2026-01-26T19:31:01	5.8	91
155570	2026-01-26T19:41:01	5.6	92.5
155571	2026-01-26T19:51:01	5.1	100
155572	2026-01-26T20:01:01	5	100
155573	2026-01-26T20:11:01	5.1	100
155574	2026-01-26T20:21:01	5	100
155575	2026-01-26T20:31:01	4.9	99
155576	2026-01-26T20:41:01	4.9	98.5
155577	2026-01-26T20:51:01	5.1	98
155578	2026-01-26T21:01:01	5	97.5
155579	2026-01-26T21:11:01	5	97.5
155580	2026-01-26T21:21:01	5	97.5
155581	2026-01-26T21:31:01	5	97
155582	2026-01-26T21:41:01	4.9	97
155583	2026-01-26T21:51:01	4.9	97
155584	2026-01-26T22:01:01	5	96.5
155585	2026-01-26T22:11:01	5	97
155586	2026-01-26T22:21:01	5.1	96
155587	2026-01-26T22:31:01	5.1	96
155588	2026-01-26T22:41:01	4.9	96.5
155589	2026-01-26T22:51:01	5	96.5
155590	2026-01-26T23:01:01	5	97
155591	2026-01-26T23:11:01	4.9	98
155592	2026-01-26T23:21:01	4.8	98.5
155593	2026-01-26T23:31:01	4.7	99
155594	2026-01-26T23:41:01	4.6	99.5
155595	2026-01-26T23:51:01	4.6	99.5
155596	2026-01-27T00:01:01	4.6	99.5
155597	2026-01-27T00:11:01	4.5	99.5
155598	2026-01-27T00:21:01	4.7	99.5
155599	2026-01-27T00:31:01	4.6	99.5
155600	2026-01-27T00:41:01	4.6	99.5
155601	2026-01-27T00:51:01	4.6	100
155602	2026-01-27T01:01:01	4.5	99.5
155603	2026-01-27T01:11:01	4.4	99.5
155604	2026-01-27T01:21:01	4.4	99
155605	2026-01-27T01:31:00	4.4	99
155606	2026-01-27T01:41:00	4.4	99
155607	2026-01-27T01:51:00	4.4	99
155608	2026-01-27T02:01:00	4.3	99.5
155609	2026-01-27T02:11:00	4.3	99
155610	2026-01-27T02:21:00	3.7	99.5
155611	2026-01-27T02:31:00	3.1	100
155612	2026-01-27T02:41:00	2.7	100
155613	2026-01-27T02:51:00	2.5	100
155614	2026-01-27T03:01:00	2.1	100
155615	2026-01-27T03:11:00	1.9	100
155616	2026-01-27T03:21:00	1.8	100
155617	2026-01-27T03:31:00	1.6	100
155618	2026-01-27T03:41:00	1.4	100
155619	2026-01-27T03:51:00	1.3	100
155620	2026-01-27T04:01:00	1.1	100
155621	2026-01-27T04:11:00	1	100
155622	2026-01-27T04:21:00	0.8	100
155623	2026-01-27T04:31:00	0.7	100
155624	2026-01-27T04:41:00	0.5	100
155625	2026-01-27T04:51:00	0.4	100
155626	2026-01-27T05:01:00	0.2	100
155627	2026-01-27T05:11:00	0	100
155628	2026-01-27T05:21:00	0	100
155629	2026-01-27T05:31:00	-0.1	100
155630	2026-01-27T05:41:00	-0.2	100
155631	2026-01-27T05:51:01	-0.2	100
155632	2026-01-27T06:01:00	-0.1	100
155633	2026-01-27T06:11:00	0	100
155634	2026-01-27T06:21:00	-0.2	100
155635	2026-01-27T06:31:00	-0.5	100
155636	2026-01-27T06:41:00	-0.7	100
155637	2026-01-27T06:51:00	-0.8	100
155638	2026-01-27T07:01:00	-0.9	100
155639	2026-01-27T07:11:00	-1.1	100
155640	2026-01-27T07:21:00	-1.2	100
155641	2026-01-27T07:31:00	-1.1	100
155642	2026-01-27T07:41:00	-1.2	100
155643	2026-01-27T07:51:00	-1.1	100
155644	2026-01-27T08:01:00	-1.2	100
155645	2026-01-27T08:11:00	-0.9	100
155646	2026-01-27T08:21:00	-0.8	100
155647	2026-01-27T08:31:00	-0.6	100
155648	2026-01-27T08:41:00	-0.2	100
155649	2026-01-27T08:51:00	0	100
155650	2026-01-27T09:01:00	0.1	100
155651	2026-01-27T09:11:00	0.3	100
155652	2026-01-27T09:21:00	0.7	100
155653	2026-01-27T09:31:00	1.2	100
155654	2026-01-27T09:41:00	1.7	100
155655	2026-01-27T09:51:00	2.2	99
155656	2026-01-27T10:01:00	2.3	98.5
155657	2026-01-27T10:11:00	2.7	98.5
155658	2026-01-27T10:21:00	3	98.5
155659	2026-01-27T10:31:00	3.4	98
155660	2026-01-27T10:41:00	3.8	96
155661	2026-01-27T10:51:00	4	96
155662	2026-01-27T11:01:00	4.5	94
155663	2026-01-27T11:11:00	5.3	91
155664	2026-01-27T11:21:00	5.9	89.5
155665	2026-01-27T11:31:00	6.4	86.5
155666	2026-01-27T11:41:00	6.7	86
155667	2026-01-27T11:51:00	7.2	81
155668	2026-01-27T12:01:00	7.8	81
155669	2026-01-27T12:11:00	8.3	80.5
155670	2026-01-27T12:21:00	8.6	77
155671	2026-01-27T12:31:00	9.2	76.5
155672	2026-01-27T12:41:00	9.2	77
155673	2026-01-27T12:51:00	9.6	74.5
155674	2026-01-27T13:01:00	9.5	77
155675	2026-01-27T13:11:00	9.4	76
155676	2026-01-27T13:21:00	9.3	75
155677	2026-01-27T13:31:00	9.2	73.5
155678	2026-01-27T13:41:00	8.8	74.5
155679	2026-01-27T13:51:00	8.6	74.5
155680	2026-01-27T14:01:00	8.6	75
155681	2026-01-27T14:11:00	8.1	75.5
155682	2026-01-27T14:21:00	7.8	77
155683	2026-01-27T14:31:00	7.6	78.5
155684	2026-01-27T14:41:00	7.6	78
155685	2026-01-27T14:51:00	6.9	79.5
155686	2026-01-27T15:01:00	6.7	82.5
155687	2026-01-27T15:11:00	6.4	86.5
155688	2026-01-27T15:21:00	6.3	91
155689	2026-01-27T15:31:00	6	92.5
155690	2026-01-27T15:41:00	5.7	93.5
155691	2026-01-27T15:51:00	5.8	96
155692	2026-01-27T16:01:00	5.9	96
155693	2026-01-27T16:11:00	5.9	96
155694	2026-01-27T16:21:00	5.8	97
155695	2026-01-27T16:31:00	5.9	98
155696	2026-01-27T16:41:00	5.8	97
155697	2026-01-27T16:51:00	5.7	95.5
155698	2026-01-27T17:01:00	5.5	95.5
155699	2026-01-27T17:11:00	5.4	96
155700	2026-01-27T17:21:00	5.4	96
155701	2026-01-27T17:31:00	5.4	96
155702	2026-01-27T17:41:00	5.4	97.5
155703	2026-01-27T17:51:00	5.5	97
155704	2026-01-27T18:01:00	5.4	97.5
155705	2026-01-27T18:11:00	5.5	98
155706	2026-01-27T18:21:00	5.6	98
155707	2026-01-27T18:31:00	5.4	98
155708	2026-01-27T18:41:00	5.6	99
155709	2026-01-27T18:51:00	5.5	99
155710	2026-01-27T19:01:00	5.4	98.5
155711	2026-01-27T19:11:00	5.4	99.5
155712	2026-01-27T19:21:00	5.2	99
155713	2026-01-27T19:31:00	5.1	100
155714	2026-01-27T19:41:00	4.9	100
155715	2026-01-27T19:51:00	4.9	100
155716	2026-01-27T20:01:00	4.8	100
155717	2026-01-27T20:21:00	4.6	100
155718	2026-01-27T20:31:00	4.7	100
155719	2026-01-27T20:41:00	4.7	100
155720	2026-01-27T20:51:00	4.6	100
155721	2026-01-27T21:01:00	4.6	100
155722	2026-01-27T21:11:00	4.5	100
155723	2026-01-27T21:21:00	4.8	100
155724	2026-01-27T21:31:00	4.8	100
155725	2026-01-27T21:41:00	4.8	100
155726	2026-01-27T21:51:00	4.9	100
155727	2026-01-27T22:01:00	4.8	100
155728	2026-01-27T22:11:00	4.9	100
155729	2026-01-27T22:21:00	5	100
155730	2026-01-27T22:31:00	5	100
155731	2026-01-27T22:41:00	4.7	100
155732	2026-01-27T22:51:00	4.8	100
155733	2026-01-27T23:01:00	4.8	100
155734	2026-01-27T23:11:00	4.9	100
155735	2026-01-27T23:21:00	4.8	100
155736	2026-01-27T23:31:00	4.7	100
155737	2026-01-27T23:41:00	4.8	100
155738	2026-01-27T23:51:00	4.8	100
155739	2026-01-28T00:01:00	4.8	100
155740	2026-01-28T00:11:00	4.9	100
155741	2026-01-28T00:21:00	4.8	100
155742	2026-01-28T00:31:00	4.8	100
155743	2026-01-28T00:41:00	4.8	100
155744	2026-01-28T00:51:00	4.9	100
155745	2026-01-28T01:01:00	4.9	100
155746	2026-01-28T01:11:00	4.9	100
155747	2026-01-28T01:21:00	4.9	100
155748	2026-01-28T01:31:00	4.8	100
155749	2026-01-28T01:41:00	4.8	100
155750	2026-01-28T01:51:00	4.8	100
155751	2026-01-28T02:01:00	4.9	100
155752	2026-01-28T02:11:00	4.8	100
155753	2026-01-28T02:21:00	4.9	100
155754	2026-01-28T02:31:00	4.8	100
155755	2026-01-28T02:41:00	4.9	100
155756	2026-01-28T02:51:00	4.9	100
155757	2026-01-28T03:01:00	5	100
155758	2026-01-28T03:11:00	4.9	100
155759	2026-01-28T03:21:00	4.9	100
155760	2026-01-28T03:31:00	4.9	100
155761	2026-01-28T03:41:00	4.9	100
155762	2026-01-28T03:51:00	5	100
155763	2026-01-28T04:01:00	5	100
155764	2026-01-28T04:11:00	5	100
155765	2026-01-28T04:21:00	5	100
155766	2026-01-28T04:31:00	5.1	100
155767	2026-01-28T04:41:00	5	100
155768	2026-01-28T04:51:00	5	100
155769	2026-01-28T05:01:00	5	100
155770	2026-01-28T05:11:00	5.2	100
155771	2026-01-28T05:21:00	5	100
155772	2026-01-28T05:31:00	5	100
155773	2026-01-28T05:41:00	4.9	100
155774	2026-01-28T05:51:00	5	100
155775	2026-01-28T06:01:00	4.9	100
155776	2026-01-28T06:11:00	4.8	100
155777	2026-01-28T06:21:00	4.8	100
155778	2026-01-28T06:31:00	4.7	100
155779	2026-01-28T06:41:00	4.6	100
155780	2026-01-28T06:51:00	4.6	100
155781	2026-01-28T07:01:00	4.8	100
155782	2026-01-28T07:11:00	4.6	100
155783	2026-01-28T07:21:00	4.7	100
155784	2026-01-28T07:31:00	4.7	100
155785	2026-01-28T07:41:00	4.7	100
155786	2026-01-28T07:51:00	4.7	100
155787	2026-01-28T08:01:00	4.8	100
155788	2026-01-28T08:11:00	4.8	100
155789	2026-01-28T08:21:00	4.9	100
155790	2026-01-28T08:31:00	5.1	100
155791	2026-01-28T08:41:00	5.2	100
155792	2026-01-28T08:51:00	5.1	100
155793	2026-01-28T09:01:00	5.3	100
155794	2026-01-28T09:11:00	5.3	100
155795	2026-01-28T09:21:00	5.3	100
155796	2026-01-28T09:31:00	5.5	100
155797	2026-01-28T09:41:00	5.5	100
155798	2026-01-28T09:51:00	5.7	100
155799	2026-01-28T10:01:00	5.8	99.5
155800	2026-01-28T10:11:00	5.8	99.5
155801	2026-01-28T10:21:00	5.8	99
155802	2026-01-28T10:31:00	5.8	98.5
155803	2026-01-28T10:41:00	5.9	98
155804	2026-01-28T10:51:00	6	97
155805	2026-01-28T11:01:00	5.6	98
155806	2026-01-28T11:11:00	5.4	98.5
155807	2026-01-28T11:20:59	5.4	98.5
155808	2026-01-28T11:30:59	5.3	99
155809	2026-01-28T11:40:59	5.5	99
155810	2026-01-28T11:51:00	5.4	99
155811	2026-01-28T12:00:59	5.6	98.5
155812	2026-01-28T12:10:59	5.7	98.5
155813	2026-01-28T12:20:59	5.9	97.5
155814	2026-01-28T12:30:59	5.9	97
155815	2026-01-28T12:40:59	5.9	97
155816	2026-01-28T12:50:59	5.6	97
155817	2026-01-28T13:00:59	5.6	97.5
155818	2026-01-28T13:10:59	5.6	98
155819	2026-01-28T13:20:59	5.5	98.5
155820	2026-01-28T13:30:59	5.4	98
155821	2026-01-28T13:40:59	5.5	98
155822	2026-01-28T13:50:59	5.4	98.5
155823	2026-01-28T14:00:59	5.6	98
155824	2026-01-28T14:10:59	5.5	97.5
155825	2026-01-28T14:20:59	5.4	98
155826	2026-01-28T14:30:59	5.6	97.5
155827	2026-01-28T14:40:59	5.5	98
155828	2026-01-28T14:50:59	5.5	98
155829	2026-01-28T15:00:59	5.4	98.5
155830	2026-01-28T15:10:59	5.4	98.5
155831	2026-01-28T15:20:59	5.3	99
155832	2026-01-28T15:30:59	5.3	99
155833	2026-01-28T15:40:59	5.2	99.5
155834	2026-01-28T15:50:59	5	99.5
155835	2026-01-28T16:00:59	4.9	100
155836	2026-01-28T16:10:59	4.9	100
155837	2026-01-28T16:20:59	4.9	100
155838	2026-01-28T16:30:59	4.8	100
155839	2026-01-28T16:40:59	4.9	100
155840	2026-01-28T16:50:59	4.8	100
155841	2026-01-28T17:00:59	4.8	100
155842	2026-01-28T17:10:59	4.8	100
155843	2026-01-28T17:20:59	4.7	100
155844	2026-01-28T17:30:59	4.8	100
155845	2026-01-28T17:40:59	4.6	100
155846	2026-01-28T17:50:59	4.8	100
155847	2026-01-28T18:00:59	4.6	100
155848	2026-01-28T18:10:59	4.6	100
155849	2026-01-28T18:20:59	4.6	100
155850	2026-01-28T18:30:59	4.7	100
155851	2026-01-28T18:40:59	4.6	100
155852	2026-01-28T18:50:59	4.6	100
155853	2026-01-28T19:00:59	4.6	100
155854	2026-01-28T19:10:59	4.6	100
155855	2026-01-28T19:20:59	4.7	100
155856	2026-01-28T19:30:59	4.6	100
155857	2026-01-28T19:40:59	4.6	100
155858	2026-01-28T19:50:59	4.5	100
155859	2026-01-28T20:00:59	4.4	100
155860	2026-01-28T20:10:59	4.4	100
155861	2026-01-28T20:20:59	4.5	100
155862	2026-01-28T20:30:59	4.3	100
155863	2026-01-28T20:40:59	4.3	100
155864	2026-01-28T20:50:59	4.4	100
155865	2026-01-28T21:00:59	4.4	100
155866	2026-01-28T21:10:59	4.3	100
155867	2026-01-28T21:20:59	4.3	100
155868	2026-01-28T21:30:59	4.2	100
155869	2026-01-28T21:40:59	4.2	100
155870	2026-01-28T21:50:59	4.2	100
155871	2026-01-28T22:00:59	4.3	100
155872	2026-01-28T22:10:59	4.2	100
155873	2026-01-28T22:20:59	4.3	100
155874	2026-01-28T22:30:59	4.1	100
155875	2026-01-28T22:41:17	4.2	100
155876	2026-01-28T22:50:59	4.2	100
155877	2026-01-28T23:00:59	4.1	99.5
155878	2026-01-28T23:10:59	4	99
155879	2026-01-28T23:20:59	4	99
155880	2026-01-28T23:30:59	4	99
155881	2026-01-28T23:40:59	4	99
155882	2026-01-28T23:50:59	3.9	99
155883	2026-01-29T00:00:59	3.9	98.5
155884	2026-01-29T00:10:59	3.9	98.5
155885	2026-01-29T00:20:59	3.8	99.5
155886	2026-01-29T00:30:59	3.8	99.5
155887	2026-01-29T00:40:59	3.7	99.5
155888	2026-01-29T00:50:59	3.7	100
155889	2026-01-29T01:00:59	3.6	100
155890	2026-01-29T01:10:59	3.6	100
155891	2026-01-29T01:20:59	3.6	100
155892	2026-01-29T01:30:59	3.6	100
155893	2026-01-29T01:40:59	3.5	100
155894	2026-01-29T01:50:59	3.6	100
155895	2026-01-29T02:00:59	3.6	100
155896	2026-01-29T02:10:59	3.6	100
155897	2026-01-29T02:20:59	3.6	100
155898	2026-01-29T02:30:59	3.7	100
155899	2026-01-29T02:40:59	3.6	99.5
155900	2026-01-29T02:50:59	3.6	100
155901	2026-01-29T03:00:59	3.5	100
155902	2026-01-29T03:10:59	3.4	100
155903	2026-01-29T03:20:59	3.3	100
155904	2026-01-29T03:30:59	3.3	100
155905	2026-01-29T03:40:59	3	100
155906	2026-01-29T03:50:59	2.9	100
155907	2026-01-29T04:00:59	2.9	100
155908	2026-01-29T04:10:59	2.8	100
155909	2026-01-29T04:20:59	2.7	100
155910	2026-01-29T04:30:59	2.6	100
155911	2026-01-29T04:40:59	2.6	100
155912	2026-01-29T04:50:59	2.6	100
155913	2026-01-29T05:00:59	2.5	100
155914	2026-01-29T05:10:59	2.3	100
155915	2026-01-29T05:20:59	2.5	100
155916	2026-01-29T05:30:59	2.6	100
155917	2026-01-29T05:40:59	2.5	100
155918	2026-01-29T05:50:59	2.6	100
155919	2026-01-29T06:00:59	2.7	100
155920	2026-01-29T06:10:59	2.5	100
155921	2026-01-29T06:20:59	2.6	100
155922	2026-01-29T06:30:59	2.5	100
155923	2026-01-29T06:40:59	2.6	100
155924	2026-01-29T06:50:59	2.4	100
155925	2026-01-29T07:00:59	2.5	100
155926	2026-01-29T07:10:59	2.4	100
155927	2026-01-29T07:20:59	2.3	100
155928	2026-01-29T07:30:59	2.5	100
155929	2026-01-29T07:40:59	2.4	100
155930	2026-01-29T07:50:59	2.3	100
155931	2026-01-29T08:00:59	2.4	100
155932	2026-01-29T08:10:59	2.6	100
155933	2026-01-29T08:20:59	2.6	100
155934	2026-01-29T08:30:59	2.6	100
155935	2026-01-29T08:40:59	2.7	100
155936	2026-01-29T08:50:59	2.8	100
155937	2026-01-29T09:00:59	3	100
155938	2026-01-29T09:10:59	3	100
155939	2026-01-29T09:20:59	3	100
155940	2026-01-29T09:30:59	3.1	100
155941	2026-01-29T09:40:59	3	100
155942	2026-01-29T09:50:59	3.2	100
155943	2026-01-29T10:00:59	3.3	100
155944	2026-01-29T10:10:59	3.5	100
155945	2026-01-29T10:20:59	3.5	100
155946	2026-01-29T10:30:59	3.6	100
155947	2026-01-29T10:40:59	3.7	100
155948	2026-01-29T10:50:59	3.7	100
155949	2026-01-29T11:00:59	3.8	100
155950	2026-01-29T11:10:59	3.9	100
155951	2026-01-29T11:20:59	3.9	100
155952	2026-01-29T11:30:59	3.9	100
155953	2026-01-29T11:40:59	3.9	100
155954	2026-01-29T11:50:59	3.9	100
155955	2026-01-29T12:00:59	4	100
155956	2026-01-29T12:10:59	4	100
155957	2026-01-29T12:20:59	3.9	100
155958	2026-01-29T12:30:59	4	100
155959	2026-01-29T12:40:59	4	100
155960	2026-01-29T12:50:59	4	100
155961	2026-01-29T13:00:59	4	100
155962	2026-01-29T13:10:59	4.1	100
155963	2026-01-29T13:20:59	4.2	100
155964	2026-01-29T13:30:59	4	100
155965	2026-01-29T13:40:59	4.2	100
155966	2026-01-29T13:50:59	4.3	100
155967	2026-01-29T14:00:59	4.2	100
155968	2026-01-29T14:10:59	4.2	100
155969	2026-01-29T14:20:59	4.3	100
155970	2026-01-29T14:30:59	4.1	100
155971	2026-01-29T14:40:59	4.2	100
155972	2026-01-29T14:50:59	4.1	100
155973	2026-01-29T15:00:59	4.2	100
155974	2026-01-29T15:10:59	4.1	100
155975	2026-01-29T15:20:59	4.2	100
155976	2026-01-29T15:30:59	4.2	100
155977	2026-01-29T15:40:59	4.1	100
155978	2026-01-29T15:50:59	4.2	100
155979	2026-01-29T16:00:59	4	100
155980	2026-01-29T16:10:59	4	100
155981	2026-01-29T16:20:59	3.9	100
155982	2026-01-29T16:30:59	3.9	100
155983	2026-01-29T16:40:59	3.9	100
155984	2026-01-29T16:50:59	3.9	100
155985	2026-01-29T17:00:59	3.8	100
155986	2026-01-29T17:10:59	3.8	100
155987	2026-01-29T17:20:59	3.7	100
155988	2026-01-29T17:30:59	3.6	100
155989	2026-01-29T17:40:59	3.7	100
155990	2026-01-29T17:50:59	3.7	100
155991	2026-01-29T18:00:59	3.6	100
155992	2026-01-29T18:10:59	3.5	100
155993	2026-01-29T18:20:59	3.6	100
155994	2026-01-29T18:30:59	3.5	100
155995	2026-01-29T18:40:59	3.5	100
155996	2026-01-29T18:50:59	3.5	100
155997	2026-01-29T19:00:59	3.4	100
155998	2026-01-29T19:10:59	3.4	100
155999	2026-01-29T19:20:59	3.3	100
156000	2026-01-29T19:30:59	3.3	100
156001	2026-01-29T19:40:59	3.2	100
156002	2026-01-29T19:50:59	3.1	100
156003	2026-01-29T20:00:59	3	100
156004	2026-01-29T20:10:59	2.7	100
156005	2026-01-29T20:20:59	2.7	100
156006	2026-01-29T20:30:59	2.4	100
156007	2026-01-29T20:40:59	1.9	100
156008	2026-01-29T20:50:59	1.8	100
156009	2026-01-29T21:00:59	1.8	100
156010	2026-01-29T21:10:59	1.4	100
156011	2026-01-29T21:20:59	1.2	100
156012	2026-01-29T21:30:59	1.1	100
156013	2026-01-29T21:40:59	1	100
156014	2026-01-29T21:50:59	0.8	100
156015	2026-01-29T22:00:59	0.8	100
156016	2026-01-29T22:10:59	0.9	100
156017	2026-01-29T22:20:59	1.1	100
156018	2026-01-29T22:30:59	1.2	100
156019	2026-01-29T22:40:59	1.5	100
156020	2026-01-29T22:50:59	1.5	100
156021	2026-01-29T23:00:59	1.5	100
156022	2026-01-29T23:10:59	1.5	100
156023	2026-01-29T23:20:58	1.6	100
156024	2026-01-29T23:30:58	1.6	100
156025	2026-01-29T23:40:58	1.2	100
156026	2026-01-29T23:50:59	1.4	100
156027	2026-01-30T00:00:58	1.5	100
156028	2026-01-30T00:10:59	1.6	100
156029	2026-01-30T00:20:59	1.6	100
156030	2026-01-30T00:30:58	1.6	100
156031	2026-01-30T00:40:58	1.5	100
156032	2026-01-30T00:50:58	1.3	100
156033	2026-01-30T01:00:59	1.2	100
156034	2026-01-30T01:10:58	0.6	100
156035	2026-01-30T01:20:58	0.5	100
156036	2026-01-30T01:30:58	0.1	100
156037	2026-01-30T01:40:58	0	100
156038	2026-01-30T01:50:58	-0.1	100
156039	2026-01-30T02:10:58	0.1	100
156040	2026-01-30T02:20:58	0	100
156041	2026-01-30T02:30:58	0.1	100
156042	2026-01-30T02:40:58	0.2	100
156043	2026-01-30T02:50:58	0.1	100
156044	2026-01-30T03:00:58	0.2	100
156045	2026-01-30T03:10:58	0	100
156046	2026-01-30T03:20:58	0	100
156047	2026-01-30T03:30:58	0	100
156048	2026-01-30T03:40:58	-0.1	100
156049	2026-01-30T03:50:58	0	100
156050	2026-01-30T04:00:58	0	100
156051	2026-01-30T04:10:58	-0.1	100
156052	2026-01-30T04:20:58	-0.2	100
156053	2026-01-30T04:30:58	-0.3	100
156054	2026-01-30T04:40:58	0	100
156055	2026-01-30T04:50:58	0	100
156056	2026-01-30T05:00:58	0	100
156057	2026-01-30T05:10:58	0	100
156058	2026-01-30T05:20:58	0	100
156059	2026-01-30T05:30:58	-0.2	100
156060	2026-01-30T05:40:58	-0.2	100
156061	2026-01-30T05:50:58	-0.3	100
156062	2026-01-30T06:00:58	-0.3	100
156063	2026-01-30T06:10:58	-0.2	100
156064	2026-01-30T06:20:58	-0.1	100
156065	2026-01-30T06:30:58	-0.3	100
156066	2026-01-30T06:40:58	-0.2	100
156067	2026-01-30T06:50:58	-0.1	100
156068	2026-01-30T07:00:58	0	100
156069	2026-01-30T07:10:58	0	100
156070	2026-01-30T07:20:58	-0.1	100
156071	2026-01-30T07:31:18	0	100
156072	2026-01-30T07:40:58	0	100
156073	2026-01-30T07:50:58	0	100
156074	2026-01-30T08:00:58	0	100
156075	2026-01-30T08:10:58	0	100
156076	2026-01-30T08:20:58	0.1	100
156077	2026-01-30T08:30:58	-0.1	100
156078	2026-01-30T08:40:58	-0.2	100
156079	2026-01-30T08:50:58	0	100
156080	2026-01-30T09:00:58	0.2	100
156081	2026-01-30T09:10:58	0.3	100
156082	2026-01-30T09:20:58	0.7	100
156083	2026-01-30T09:30:58	1.2	100
156084	2026-01-30T09:40:58	1.3	100
156085	2026-01-30T09:50:58	1.5	100
156086	2026-01-30T10:00:58	1.7	100
156087	2026-01-30T10:10:58	1.8	100
156088	2026-01-30T10:20:58	1.7	100
156089	2026-01-30T10:30:58	2.1	100
156090	2026-01-30T10:40:58	2.1	100
156091	2026-01-30T10:50:58	1.7	99.5
156092	2026-01-30T11:00:58	1.7	100
156093	2026-01-30T11:10:58	1.8	100
156094	2026-01-30T11:20:58	2.4	100
156095	2026-01-30T11:30:58	2.8	100
156096	2026-01-30T11:40:58	3.4	98.5
156097	2026-01-30T11:50:58	3	97.5
156098	2026-01-30T12:00:58	3.2	97.5
156099	2026-01-30T12:10:58	3	98.5
156100	2026-01-30T12:20:58	3.2	99
156101	2026-01-30T12:30:58	3.3	98.5
156102	2026-01-30T12:40:58	3.7	98.5
156103	2026-01-30T12:50:58	3.8	98
156104	2026-01-30T13:00:58	4	98
156105	2026-01-30T13:10:58	4	97.5
156106	2026-01-30T13:20:58	3.8	96
156107	2026-01-30T13:30:58	4.2	96.5
156108	2026-01-30T13:40:58	4.1	95
156109	2026-01-30T13:50:58	4	96.5
156110	2026-01-30T14:00:58	3.9	97
156111	2026-01-30T14:10:58	3.8	97
156112	2026-01-30T14:20:58	3.6	97.5
156113	2026-01-30T14:30:58	3.7	98
156114	2026-01-30T14:40:58	3.7	99
156115	2026-01-30T14:50:58	3.6	99.5
156116	2026-01-30T15:00:58	3.7	100
156117	2026-01-30T15:10:58	3.4	99.5
156118	2026-01-30T15:30:58	3.4	100
156119	2026-01-30T15:40:58	3.3	100
156120	2026-01-30T15:50:58	3.4	100
156121	2026-01-30T16:00:58	3.3	100
156122	2026-01-30T16:10:59	3.3	100
156123	2026-01-30T16:20:58	3.3	100
156124	2026-01-30T16:30:58	3.3	100
156125	2026-01-30T16:40:58	3.3	100
156126	2026-01-30T16:50:58	3.2	100
156127	2026-01-30T17:00:58	3.3	100
156128	2026-01-30T17:10:58	3.2	100
156129	2026-01-30T17:20:58	3.3	100
156130	2026-01-30T17:30:58	3.2	100
156131	2026-01-30T17:40:58	3.3	100
156132	2026-01-30T17:50:58	3.2	100
156133	2026-01-30T18:00:58	3.1	100
156134	2026-01-30T18:10:58	3.2	100
156135	2026-01-30T18:20:58	3.2	100
156136	2026-01-30T18:30:58	3	100
156137	2026-01-30T18:40:58	3	100
156138	2026-01-30T18:50:58	3.1	100
156139	2026-01-30T19:00:58	3.1	100
156140	2026-01-30T19:10:58	3.2	100
156141	2026-01-30T19:20:58	3.2	100
156142	2026-01-30T19:30:58	3.3	100
156143	2026-01-30T19:40:58	3.3	100
156144	2026-01-30T19:50:58	3.4	100
156145	2026-01-30T20:00:58	3.3	100
156146	2026-01-30T20:10:58	3.4	100
156147	2026-01-30T20:20:58	3.7	100
156148	2026-01-30T20:30:58	3.7	100
156149	2026-01-30T20:40:58	3.8	100
156150	2026-01-30T20:50:58	3.5	100
156151	2026-01-30T21:00:58	3.6	100
156152	2026-01-30T21:10:58	3.5	100
156153	2026-01-30T21:20:58	3.5	100
156154	2026-01-30T21:30:59	3.4	100
156155	2026-01-30T21:40:58	3.4	100
156156	2026-01-30T21:50:58	3.5	100
156157	2026-01-30T22:00:58	3.5	100
156158	2026-01-30T22:10:58	3.2	100
156159	2026-01-30T22:20:58	3.1	100
156160	2026-01-30T22:30:58	3.3	100
156161	2026-01-30T22:40:58	3.3	100
156162	2026-01-30T22:50:58	3.3	100
156163	2026-01-30T23:00:58	3.3	100
156164	2026-01-30T23:10:58	3.4	100
156165	2026-01-30T23:20:58	3.5	100
156166	2026-01-30T23:30:58	3.5	100
156167	2026-01-30T23:40:58	3.3	100
156168	2026-01-30T23:50:58	2.9	100
156169	2026-01-31T00:00:58	2.7	100
156170	2026-01-31T00:10:58	2.8	100
156171	2026-01-31T00:20:58	2.8	100
156172	2026-01-31T00:30:58	2.6	100
156173	2026-01-31T00:40:58	2.4	100
156174	2026-01-31T00:50:58	2.3	100
156175	2026-01-31T01:00:58	1.8	100
156176	2026-01-31T01:10:58	1.7	100
156177	2026-01-31T01:20:58	1.6	100
156178	2026-01-31T01:30:58	1.5	100
156179	2026-01-31T01:40:58	1.5	100
156180	2026-01-31T01:50:58	1.5	100
156181	2026-01-31T02:00:58	1.7	100
156182	2026-01-31T02:10:58	1.7	100
156183	2026-01-31T02:20:58	1.7	100
156184	2026-01-31T02:30:58	1.5	100
156185	2026-01-31T02:40:58	1.3	100
156186	2026-01-31T02:50:58	1.1	100
156187	2026-01-31T03:00:58	1	100
156188	2026-01-31T03:10:58	0.7	100
156189	2026-01-31T03:20:58	1	100
156190	2026-01-31T03:30:58	1.2	100
156191	2026-01-31T03:40:58	0.8	100
156192	2026-01-31T03:50:58	0.8	100
156193	2026-01-31T04:00:58	0.8	100
156194	2026-01-31T04:10:58	0.9	100
156195	2026-01-31T04:20:58	1	100
156196	2026-01-31T04:30:58	0.9	100
156197	2026-01-31T04:40:58	1.1	100
156198	2026-01-31T04:50:58	0.9	100
156199	2026-01-31T05:00:58	1.1	100
156200	2026-01-31T05:10:58	1.1	100
156201	2026-01-31T05:20:58	1.2	100
156202	2026-01-31T05:30:58	1.2	100
156203	2026-01-31T05:40:58	1.1	100
156204	2026-01-31T05:50:58	1	100
156205	2026-01-31T06:00:58	0.8	100
156206	2026-01-31T06:10:58	0.8	100
156207	2026-01-31T06:20:58	1	100
156208	2026-01-31T06:30:58	1.1	100
156209	2026-01-31T06:40:58	1	100
156210	2026-01-31T06:50:58	0.9	100
156211	2026-01-31T07:00:58	0.9	100
156212	2026-01-31T07:10:58	1	100
156213	2026-01-31T07:20:58	1.2	100
156214	2026-01-31T07:30:58	1.2	100
156215	2026-01-31T07:40:58	1.5	100
156216	2026-01-31T07:50:58	1.6	100
156217	2026-01-31T08:00:58	1.7	100
156218	2026-01-31T08:10:58	1.9	100
156219	2026-01-31T08:20:58	2	100
156220	2026-01-31T08:30:58	2.2	100
156221	2026-01-31T08:40:58	2.2	100
156222	2026-01-31T08:50:58	2.2	100
156223	2026-01-31T09:00:58	2.3	100
156224	2026-01-31T09:10:58	2.7	100
156225	2026-01-31T09:20:58	3	100
156226	2026-01-31T09:30:58	3.2	100
156227	2026-01-31T09:40:58	3.5	100
156228	2026-01-31T09:50:58	3.6	100
156229	2026-01-31T10:00:58	3.4	100
156230	2026-01-31T10:10:58	3.4	100
156231	2026-01-31T10:20:58	3.6	100
156232	2026-01-31T10:30:58	3.6	100
156233	2026-01-31T10:40:58	3.6	100
156234	2026-01-31T10:50:58	3.9	100
156235	2026-01-31T11:00:58	4.1	100
156236	2026-01-31T11:10:58	4.6	100
156237	2026-01-31T11:20:58	4.9	100
156238	2026-01-31T11:30:58	5.7	100
156239	2026-01-31T11:40:58	6	100
156240	2026-01-31T11:50:58	6.6	98
156241	2026-01-31T12:00:58	9	92.5
156242	2026-01-31T12:10:58	11.7	82.5
156243	2026-01-31T12:20:58	11.7	78.5
156244	2026-01-31T12:30:58	10.5	83
156245	2026-01-31T12:40:58	10.1	83
156246	2026-01-31T12:50:58	10.2	84
156247	2026-01-31T13:00:58	10	82.5
156248	2026-01-31T13:10:58	9.6	84
156249	2026-01-31T13:20:58	9.8	82
156250	2026-01-31T13:30:58	9.5	83
156251	2026-01-31T13:40:58	10.1	83
156252	2026-01-31T13:50:58	11.6	78.5
156253	2026-01-31T14:00:58	15.7	67.5
156254	2026-01-31T14:10:58	18.4	61
156255	2026-01-31T14:20:58	17.5	59.5
156256	2026-01-31T14:30:58	17.6	57.5
156257	2026-01-31T14:40:58	17.7	59
156258	2026-01-31T14:50:58	17.5	57.5
156259	2026-01-31T15:00:58	17.2	56.5
156260	2026-01-31T15:10:58	16.3	58
156261	2026-01-31T15:20:58	14.6	63.5
156262	2026-01-31T15:30:58	13.6	66
156263	2026-01-31T15:40:58	12	70.5
156264	2026-01-31T15:50:58	10.4	76.5
156265	2026-01-31T16:00:58	9.6	79
156266	2026-01-31T16:10:58	9.1	80.5
156267	2026-01-31T16:20:58	8.6	82
156268	2026-01-31T16:30:58	8.2	83
156269	2026-01-31T16:40:58	7.7	85
156270	2026-01-31T16:50:58	7.7	85.5
156271	2026-01-31T17:00:58	7.3	85
156272	2026-01-31T17:10:58	6.9	86
156273	2026-01-31T17:20:58	6.7	87
156274	2026-01-31T17:30:58	6.5	87
156275	2026-01-31T17:40:58	6.3	88.5
156276	2026-01-31T17:50:58	6.1	89.5
156277	2026-01-31T18:00:58	5.9	89
156278	2026-01-31T18:10:57	5.6	90
156279	2026-01-31T18:20:57	5.4	89.5
156280	2026-01-31T18:30:57	5.4	90.5
156281	2026-01-31T18:40:57	5.2	90
156282	2026-01-31T18:50:57	5.2	90.5
156283	2026-01-31T19:00:57	4.9	91
156284	2026-01-31T19:10:57	4.7	92
156285	2026-01-31T19:20:57	4.3	94
156286	2026-01-31T19:30:57	4.1	94.5
156287	2026-01-31T19:40:57	3.9	95.5
156288	2026-01-31T19:50:57	3.7	95.5
156289	2026-01-31T20:00:57	3.6	96.5
156290	2026-01-31T20:10:57	3.4	96.5
156291	2026-01-31T20:20:57	3.3	93.5
156292	2026-01-31T20:30:57	3.3	95
156293	2026-01-31T20:40:57	3.5	94.5
156294	2026-01-31T20:50:57	3.7	95
156295	2026-01-31T21:00:57	3.8	95
156296	2026-01-31T21:10:57	3.9	95.5
156297	2026-01-31T21:20:58	3.9	94.5
156298	2026-01-31T21:30:57	3.8	95
156299	2026-01-31T21:40:57	4	95
156300	2026-01-31T21:50:57	3.9	95.5
156301	2026-01-31T22:00:57	3.9	96
156302	2026-01-31T22:10:57	3.9	96
156303	2026-01-31T22:20:57	3.9	96.5
156304	2026-01-31T22:30:58	3.7	96.5
156305	2026-01-31T22:40:57	3.8	96
156306	2026-01-31T22:50:57	3.9	96.5
156307	2026-01-31T23:00:57	3.8	96.5
156308	2026-01-31T23:10:57	3.7	97
156309	2026-01-31T23:20:57	3.7	97.5
156310	2026-01-31T23:30:57	3.6	96.5
156311	2026-01-31T23:40:57	3.3	97.5
156312	2026-01-31T23:50:57	3.2	97.5
156313	2026-02-01T00:00:57	3.2	98
156314	2026-02-01T00:10:57	3.3	98
156315	2026-02-01T00:20:57	3.5	98
156316	2026-02-01T00:30:57	3.6	97
156317	2026-02-01T00:40:57	3.5	97.5
156318	2026-02-01T00:50:57	3.5	96.5
156319	2026-02-01T01:00:57	3.4	96.5
156320	2026-02-01T01:10:57	3.4	97
156321	2026-02-01T01:20:57	3.4	97
156322	2026-02-01T01:30:57	3.5	97.5
156323	2026-02-01T01:40:57	3.6	97
156324	2026-02-01T01:50:57	3.5	96.5
156325	2026-02-01T02:00:57	3.5	97
156326	2026-02-01T02:10:57	3.5	97
156327	2026-02-01T02:20:57	3.4	97
156328	2026-02-01T02:30:57	3.4	97
156329	2026-02-01T02:40:57	3.5	97.5
156330	2026-02-01T02:50:57	3.5	97
156331	2026-02-01T03:00:57	3.4	97
156332	2026-02-01T03:10:57	3.4	97
156333	2026-02-01T03:20:57	3.3	97
156334	2026-02-01T03:30:57	3.4	97
156335	2026-02-01T03:40:57	3.5	97.5
156336	2026-02-01T03:50:57	3.5	97.5
156337	2026-02-01T04:00:57	3.4	97
156338	2026-02-01T04:10:57	3.4	97.5
156339	2026-02-01T04:20:57	3.5	98
156340	2026-02-01T04:30:57	3.6	98
156341	2026-02-01T04:40:57	3.6	97.5
156342	2026-02-01T04:50:57	3.6	98
156343	2026-02-01T05:00:57	3.6	98
156344	2026-02-01T05:10:57	3.6	98.5
156345	2026-02-01T05:20:57	3.6	98
156346	2026-02-01T05:30:57	3.4	99
156347	2026-02-01T05:40:57	3.5	98.5
156348	2026-02-01T05:50:57	3.5	98
156349	2026-02-01T06:00:57	3.5	98.5
156350	2026-02-01T06:10:57	3.6	99
156351	2026-02-01T06:20:57	3.6	99
156352	2026-02-01T06:30:57	3.7	99
156353	2026-02-01T06:40:57	3.6	98.5
156354	2026-02-01T06:50:57	3.7	98.5
156355	2026-02-01T07:00:57	3.7	99
156356	2026-02-01T07:10:57	3.7	99
156357	2026-02-01T07:20:57	3.6	99.5
156358	2026-02-01T07:30:57	3.8	99
156359	2026-02-01T07:40:57	3.8	99
156360	2026-02-01T07:50:57	3.9	98.5
156361	2026-02-01T08:00:57	3.8	98.5
156362	2026-02-01T08:10:57	3.7	99.5
156363	2026-02-01T08:20:57	3.9	99.5
156364	2026-02-01T08:30:57	4.1	99.5
156365	2026-02-01T08:40:57	4.5	98.5
156366	2026-02-01T08:50:57	5.1	97.5
156367	2026-02-01T09:00:57	5.4	96.5
156368	2026-02-01T09:10:57	5.4	95.5
156369	2026-02-01T09:20:57	5.4	96
156370	2026-02-01T09:30:57	5.6	95
156371	2026-02-01T09:40:57	6	93
156372	2026-02-01T09:50:57	6.4	92
156373	2026-02-01T10:00:57	6.6	91
156374	2026-02-01T10:10:57	6.7	89.5
156375	2026-02-01T10:20:57	6.8	89.5
156376	2026-02-01T10:30:57	7	89
156377	2026-02-01T10:40:57	7.2	90
156378	2026-02-01T10:50:57	7.4	90.5
156379	2026-02-01T11:00:57	7.6	89
156380	2026-02-01T11:10:57	7.5	89
156381	2026-02-01T11:20:57	7.4	87.5
156382	2026-02-01T11:30:57	7.4	88.5
156383	2026-02-01T11:40:57	7.7	88.5
156384	2026-02-01T11:50:57	7.6	87
156385	2026-02-01T12:00:57	7.8	87.5
156386	2026-02-01T12:10:57	7.9	87
156387	2026-02-01T12:20:57	8.1	86
156388	2026-02-01T12:30:57	8.3	85
156389	2026-02-01T12:40:57	8.5	84.5
156390	2026-02-01T12:50:57	8.6	84
156391	2026-02-01T13:00:57	8.8	83.5
156392	2026-02-01T13:10:57	8.8	83
156393	2026-02-01T13:20:57	8.9	83
156394	2026-02-01T13:30:57	9.2	85
156395	2026-02-01T13:40:57	9.7	82.5
156396	2026-02-01T13:50:57	10.1	81
156397	2026-02-01T14:00:57	10.3	79.5
156398	2026-02-01T14:10:57	11.3	77
156399	2026-02-01T14:20:57	12.3	74.5
156400	2026-02-01T14:30:57	11.6	76
156401	2026-02-01T14:40:57	11.1	77.5
156402	2026-02-01T14:50:57	10.8	79
156403	2026-02-01T15:00:57	11.1	78.5
156404	2026-02-01T15:10:57	10.5	80.5
156405	2026-02-01T15:20:57	9.9	83
156406	2026-02-01T15:30:57	9.8	82.5
156407	2026-02-01T15:40:57	9.3	83.5
156408	2026-02-01T15:50:57	9.6	82.5
156409	2026-02-01T16:00:57	9	84
156410	2026-02-01T16:10:57	8.5	84.5
156411	2026-02-01T16:20:57	8.3	85.5
156412	2026-02-01T16:30:57	8.1	87
156413	2026-02-01T16:40:57	7.9	87
156414	2026-02-01T16:50:57	7.8	87
156415	2026-02-01T17:00:57	7.7	89
156416	2026-02-01T17:10:57	7.5	89
156417	2026-02-01T17:20:57	7.3	90
156418	2026-02-01T17:30:57	7.4	90
156419	2026-02-01T17:40:57	7.2	92
156420	2026-02-01T17:50:57	7.1	92
156421	2026-02-01T18:00:57	7	92
156422	2026-02-01T18:10:57	6.8	92.5
156423	2026-02-01T18:20:57	6.2	93.5
156424	2026-02-01T18:30:57	5.8	95.5
156425	2026-02-01T18:40:57	5.5	97
156426	2026-02-01T18:50:57	5.2	97
156427	2026-02-01T19:00:57	5	97.5
156428	2026-02-01T19:10:57	4.9	97.5
156429	2026-02-01T19:20:57	4.7	98
156430	2026-02-01T19:30:57	4.5	97.5
156431	2026-02-01T19:40:57	4.5	97
156432	2026-02-01T19:50:57	4.4	97
156433	2026-02-01T20:00:57	4.3	97
156434	2026-02-01T20:10:57	4.3	96.5
156435	2026-02-01T20:20:57	3.9	97
156436	2026-02-01T20:30:57	3.7	97.5
156437	2026-02-01T20:40:57	3.6	98
156438	2026-02-01T20:50:57	3.3	98.5
156439	2026-02-01T21:01:16	3.4	98
156440	2026-02-01T21:10:57	3.2	97
156441	2026-02-01T21:20:57	2.8	97.5
156442	2026-02-01T21:30:57	2.6	98
156443	2026-02-01T21:40:57	2.3	99
156444	2026-02-01T21:50:57	2.2	99
156445	2026-02-01T22:00:56	2.1	99
156446	2026-02-01T22:10:56	1.9	99
156447	2026-02-01T22:20:56	1.8	99.5
156448	2026-02-01T22:30:57	1.8	99
156449	2026-02-01T22:40:56	1.7	98.5
156450	2026-02-01T22:50:56	1.5	97
156451	2026-02-01T23:00:56	2.1	97.5
156452	2026-02-01T23:10:56	2.2	97
156453	2026-02-01T23:20:56	2.2	96.5
156454	2026-02-01T23:30:56	2.5	96
156455	2026-02-01T23:40:56	2.5	95
156456	2026-02-01T23:50:56	2.6	94.5
156457	2026-02-02T00:00:56	2.6	95
156458	2026-02-02T00:10:56	2.8	94
156459	2026-02-02T00:20:56	2.7	93.5
156460	2026-02-02T00:30:56	2.4	94
156461	2026-02-02T00:40:56	2.3	95.5
156462	2026-02-02T00:50:56	2.3	96
156463	2026-02-02T01:00:56	2.5	96
156464	2026-02-02T01:10:56	2.6	95.5
156465	2026-02-02T01:20:56	2.6	95.5
156466	2026-02-02T01:30:56	2.7	95.5
156467	2026-02-02T01:40:56	2.8	95.5
156468	2026-02-02T01:50:56	2.8	95.5
156469	2026-02-02T02:00:56	2.7	96
156470	2026-02-02T02:10:56	2.8	96
156471	2026-02-02T02:20:56	2.9	96
156472	2026-02-02T02:30:56	2.9	95.5
156473	2026-02-02T02:40:56	2.9	96
156474	2026-02-02T02:50:56	2.9	96
156475	2026-02-02T03:00:56	3	96
156476	2026-02-02T03:10:56	3	96
156477	2026-02-02T03:20:56	2.9	99.5
156478	2026-02-02T03:30:56	3	99.5
156479	2026-02-02T03:40:56	3	99
156480	2026-02-02T03:50:56	3	99.5
156481	2026-02-02T04:00:56	3	99
156482	2026-02-02T04:10:56	2.9	100
156483	2026-02-02T04:20:56	2.9	100
156484	2026-02-02T04:30:56	3.1	100
156485	2026-02-02T04:40:56	3.2	100
156486	2026-02-02T04:50:56	3.1	100
156487	2026-02-02T05:00:56	3.3	100
156488	2026-02-02T05:10:56	3.1	100
156489	2026-02-02T05:20:56	3	100
156490	2026-02-02T05:30:56	3	100
156491	2026-02-02T05:40:56	3.2	100
156492	2026-02-02T05:50:56	3.2	100
156493	2026-02-02T06:00:56	3.2	99.5
156494	2026-02-02T06:10:56	3.1	100
156495	2026-02-02T06:20:56	3.2	100
156496	2026-02-02T06:30:56	3.2	100
156497	2026-02-02T06:40:56	3.3	100
156498	2026-02-02T06:50:56	3.4	100
156499	2026-02-02T07:00:56	3.5	100
156500	2026-02-02T07:10:56	3.5	100
156501	2026-02-02T07:20:56	3.4	100
156502	2026-02-02T07:30:56	3.5	100
156503	2026-02-02T07:40:56	3.5	100
156504	2026-02-02T07:50:56	3.5	100
156505	2026-02-02T08:00:56	3.5	100
156506	2026-02-02T08:10:56	3.4	100
156507	2026-02-02T08:20:56	3.5	100
156508	2026-02-02T08:30:56	3.6	100
156509	2026-02-02T08:40:56	3.9	100
156510	2026-02-02T08:50:56	4	100
156511	2026-02-02T09:00:56	4.6	100
156512	2026-02-02T09:10:56	4.6	100
156513	2026-02-02T09:20:56	4.7	100
156514	2026-02-02T09:30:56	4.7	100
156515	2026-02-02T09:40:56	5.1	100
156516	2026-02-02T09:51:13	5.3	100
156517	2026-02-02T10:00:56	5.3	100
156518	2026-02-02T10:10:56	5.3	100
156519	2026-02-02T10:20:56	6.2	100
156520	2026-02-02T10:30:56	6.7	100
156521	2026-02-02T10:40:56	6.8	100
156522	2026-02-02T10:50:56	6.9	100
156523	2026-02-02T11:00:56	7	100
156524	2026-02-02T11:10:56	7.1	99.5
156525	2026-02-02T11:21:17	6.9	98.5
156526	2026-02-02T11:30:56	7.1	97.5
156527	2026-02-02T11:40:56	7.1	96
156528	2026-02-02T11:50:56	7.1	95
156529	2026-02-02T12:00:56	7.2	94.5
156530	2026-02-02T12:10:56	7.4	96.5
156531	2026-02-02T12:20:56	7.7	93
156532	2026-02-02T12:30:56	7.8	92.5
156533	2026-02-02T12:40:56	7.3	93
156534	2026-02-02T12:50:56	7.3	92.5
156535	2026-02-02T13:00:56	7.4	94
156536	2026-02-02T13:10:56	8.1	91
156537	2026-02-02T13:20:56	7.8	91
156538	2026-02-02T13:30:56	7.7	91
156539	2026-02-02T13:40:56	7.7	91.5
156540	2026-02-02T13:50:56	7.9	91
156541	2026-02-02T14:00:56	8.1	89
156542	2026-02-02T14:10:56	8.7	87.5
156543	2026-02-02T14:20:56	13	76.5
156544	2026-02-02T14:30:56	11	77
156545	2026-02-02T14:40:56	9.7	81.5
156546	2026-02-02T14:50:56	9.5	83.5
156547	2026-02-02T15:00:56	9.2	84
156548	2026-02-02T15:10:56	12	76.5
156549	2026-02-02T15:20:56	13.7	71.5
156550	2026-02-02T15:30:56	12.1	71.5
156551	2026-02-02T15:40:56	9.3	78
156552	2026-02-02T15:50:56	7.5	84.5
156553	2026-02-02T16:00:56	7.6	84
156554	2026-02-02T16:10:56	6	87.5
156555	2026-02-02T16:20:56	5.5	90.5
156556	2026-02-02T16:30:56	4.9	91
156557	2026-02-02T16:40:56	4.6	92.5
156558	2026-02-02T16:50:56	4.5	92.5
156559	2026-02-02T17:00:56	4.2	93
156560	2026-02-02T17:10:56	3.9	94
156561	2026-02-02T17:20:56	3.8	94
156562	2026-02-02T17:30:56	3.5	95
156563	2026-02-02T17:40:56	3.4	96.5
156564	2026-02-02T17:50:56	3.3	97
156565	2026-02-02T18:00:56	3.1	97
156566	2026-02-02T18:10:56	3.1	98
156567	2026-02-02T18:20:56	3.1	97.5
156568	2026-02-02T18:30:56	3	98.5
156569	2026-02-02T18:40:56	3.1	99
156570	2026-02-02T18:50:56	3.2	99
156571	2026-02-02T19:00:56	3.1	98
156572	2026-02-02T19:10:56	3	97.5
156573	2026-02-02T19:20:56	2.9	97.5
156574	2026-02-02T19:30:56	2.7	98.5
156575	2026-02-02T19:40:56	2.6	99
156576	2026-02-02T19:50:56	2.6	98.5
156577	2026-02-02T20:00:56	2.6	99
156578	2026-02-02T20:10:56	2.5	98
156579	2026-02-02T20:20:56	2.3	98.5
156580	2026-02-02T20:30:56	2.4	98
156581	2026-02-02T20:40:56	2.2	97.5
156582	2026-02-02T20:50:56	2.2	97.5
156583	2026-02-02T21:00:56	2.1	97.5
156584	2026-02-02T21:10:56	2.2	97
156585	2026-02-02T21:20:56	2.2	97.5
156586	2026-02-02T21:30:56	2.2	97
156587	2026-02-02T21:40:56	2.1	97
156588	2026-02-02T21:50:56	2	97
156589	2026-02-02T22:00:56	1.9	97.5
156590	2026-02-02T22:10:56	2	97
156591	2026-02-02T22:20:56	1.9	97
156592	2026-02-02T22:30:56	2.1	96
156593	2026-02-02T22:40:56	2.2	95.5
156594	2026-02-02T22:50:56	2.3	95
156595	2026-02-02T23:00:56	2.3	95
156596	2026-02-02T23:10:56	2.5	95
156597	2026-02-02T23:20:56	2.4	94
156598	2026-02-02T23:30:56	2.6	94
156599	2026-02-02T23:40:56	2.6	94.5
156600	2026-02-02T23:50:56	2.7	94.5
156601	2026-02-03T00:00:56	2.7	94.5
156602	2026-02-03T00:10:56	2.6	94.5
156603	2026-02-03T00:20:56	2.8	95
156604	2026-02-03T00:30:56	2.7	94.5
156605	2026-02-03T00:40:56	2.8	93
156606	2026-02-03T00:50:56	2.8	94.5
156607	2026-02-03T01:00:56	2.5	95
156608	2026-02-03T01:10:56	2.4	95
156609	2026-02-03T01:20:56	2	96
156610	2026-02-03T01:30:56	1.9	96
156611	2026-02-03T01:40:56	2	96.5
156612	2026-02-03T01:50:56	2.2	96
156613	2026-02-03T02:00:56	2.3	94.5
156614	2026-02-03T02:10:56	2.3	93.5
156615	2026-02-03T02:20:56	2.3	92.5
156616	2026-02-03T02:30:56	2.3	92
156617	2026-02-03T02:40:56	2.3	92
156618	2026-02-03T02:50:56	2.4	91.5
156619	2026-02-03T03:00:56	2.3	90.5
156620	2026-02-03T03:10:56	2.5	90.5
156621	2026-02-03T03:20:56	2.5	90.5
156622	2026-02-03T03:30:56	2.5	90.5
156623	2026-02-03T03:40:56	2.6	91
156624	2026-02-03T03:50:56	2.6	91
156625	2026-02-03T04:00:56	2.5	91
156626	2026-02-03T04:10:56	2.4	90.5
156627	2026-02-03T04:20:56	2.3	90.5
156628	2026-02-03T04:30:56	2.3	91
156629	2026-02-03T04:40:56	2.2	91.5
156630	2026-02-03T04:50:56	2.3	90.5
156631	2026-02-03T05:00:56	2.2	90.5
156632	2026-02-03T05:10:56	2.1	90
156633	2026-02-03T05:20:56	2.2	90
156634	2026-02-03T05:30:56	2.1	89.5
156635	2026-02-03T05:40:56	2	89
156636	2026-02-03T05:50:56	1.8	90
156637	2026-02-03T06:00:56	1.9	89
156638	2026-02-03T06:10:56	1.7	89.5
156639	2026-02-03T06:20:56	1.8	89
156640	2026-02-03T06:30:56	1.7	89.5
156641	2026-02-03T06:40:56	1.7	89.5
156642	2026-02-03T06:50:56	1.7	89
156643	2026-02-03T07:00:56	1.6	89
156644	2026-02-03T07:10:56	1.6	88.5
156645	2026-02-03T07:20:56	1.7	88
156646	2026-02-03T07:30:56	1.7	88
156647	2026-02-03T07:40:56	1.8	88
156648	2026-02-03T07:50:56	1.9	88
156649	2026-02-03T08:00:56	1.9	87.5
156650	2026-02-03T08:10:56	2	87.5
156651	2026-02-03T08:20:56	2.2	87
156652	2026-02-03T08:30:56	2.4	87.5
156653	2026-02-03T08:40:56	2.6	88.5
156654	2026-02-03T08:50:56	2.7	88
156655	2026-02-03T09:00:56	2.8	87.5
156656	2026-02-03T09:10:56	2.9	87.5
156657	2026-02-03T09:20:56	3	89.5
156658	2026-02-03T09:30:56	2.9	89
156659	2026-02-03T09:40:56	3.3	89.5
156660	2026-02-03T09:50:56	3.3	89.5
156661	2026-02-03T10:00:56	3.4	91.5
156662	2026-02-03T10:10:56	3.4	93.5
156663	2026-02-03T10:20:56	3.2	94
156664	2026-02-03T10:30:56	3	96.5
156665	2026-02-03T10:40:56	2.9	98
156666	2026-02-03T10:50:56	3.1	98.5
156667	2026-02-03T11:00:56	2.5	100
156668	2026-02-03T11:10:56	2.5	100
156669	2026-02-03T11:20:56	2.6	100
156670	2026-02-03T11:30:56	2.7	100
156671	2026-02-03T11:40:56	2.7	100
156672	2026-02-03T11:50:56	2.6	100
156673	2026-02-03T12:00:55	2.6	100
156674	2026-02-03T12:10:55	2.7	100
156675	2026-02-03T12:20:55	2.9	100
156676	2026-02-03T12:30:55	2.9	100
156677	2026-02-03T12:40:55	3	100
156678	2026-02-03T12:50:56	3.2	100
156679	2026-02-03T13:00:55	3.2	100
156680	2026-02-03T13:10:55	3.1	100
156681	2026-02-03T13:20:55	3.1	100
156682	2026-02-03T13:30:55	3.3	100
156683	2026-02-03T13:40:55	3.3	100
156684	2026-02-03T13:50:55	3.1	100
156685	2026-02-03T14:00:55	3	100
156686	2026-02-03T14:10:55	2.9	100
156687	2026-02-03T14:20:55	3	100
156688	2026-02-03T14:30:55	3	100
156689	2026-02-03T14:40:55	3.2	100
156690	2026-02-03T14:50:55	3.3	100
156691	2026-02-03T15:00:55	3.4	100
156692	2026-02-03T15:10:55	3.3	100
156693	2026-02-03T15:20:55	3.4	100
156694	2026-02-03T15:30:55	3.3	100
156695	2026-02-03T15:40:55	3.1	100
156696	2026-02-03T15:50:55	3.1	100
156697	2026-02-03T16:00:55	3.1	100
156698	2026-02-03T16:10:55	3	100
156699	2026-02-03T16:20:55	2.8	100
156700	2026-02-03T16:30:55	2.6	100
156701	2026-02-03T16:40:55	2.5	100
156702	2026-02-03T16:50:55	2.4	100
156703	2026-02-03T17:00:55	2.3	100
156704	2026-02-03T17:10:55	2.2	100
156705	2026-02-03T17:20:55	2	100
156706	2026-02-03T17:30:55	1.9	100
156707	2026-02-03T17:40:55	1.8	100
156708	2026-02-03T17:50:55	1.6	100
156709	2026-02-03T18:00:55	1.5	100
156710	2026-02-03T18:10:55	1.2	100
156711	2026-02-03T18:20:55	1.2	100
156712	2026-02-03T18:30:55	1.2	100
156713	2026-02-03T18:40:55	1.1	100
156714	2026-02-03T18:50:55	1.1	100
156715	2026-02-03T19:00:55	1.2	100
156716	2026-02-03T19:10:55	0.9	100
156717	2026-02-03T19:20:55	0.9	100
156718	2026-02-03T19:30:55	0.8	100
156719	2026-02-03T19:40:55	0.6	100
156720	2026-02-03T19:50:55	0.5	100
156721	2026-02-03T20:00:55	0.5	100
156722	2026-02-03T20:10:55	0.3	100
156723	2026-02-03T20:20:55	0.2	100
156724	2026-02-03T20:30:55	0.3	100
156725	2026-02-03T20:40:55	0.2	100
156726	2026-02-03T20:50:55	0.3	100
156727	2026-02-03T21:00:55	0.4	100
156728	2026-02-03T21:10:55	0.4	100
156729	2026-02-03T21:20:55	0.3	100
156730	2026-02-03T21:30:55	0.4	100
156731	2026-02-03T21:40:55	0.4	100
156732	2026-02-03T21:50:55	0.4	100
156733	2026-02-03T22:00:55	0.4	100
156734	2026-02-03T22:10:55	0.1	100
156735	2026-02-03T22:20:55	0.1	100
156736	2026-02-03T22:30:55	0	100
156737	2026-02-03T22:40:55	0.1	100
156738	2026-02-03T22:50:55	0	100
156739	2026-02-03T23:00:55	0	100
156740	2026-02-03T23:10:55	0	100
156741	2026-02-03T23:20:55	0	100
156742	2026-02-03T23:30:55	0	100
156743	2026-02-03T23:40:55	0	100
156744	2026-02-03T23:50:55	0	100
156745	2026-02-04T00:00:55	0	100
156746	2026-02-04T00:10:55	0	100
156747	2026-02-04T00:20:55	-0.1	100
156748	2026-02-04T00:30:55	-0.2	100
156749	2026-02-04T00:40:55	-0.2	100
156750	2026-02-04T00:50:55	-0.2	100
156751	2026-02-04T01:00:55	-0.1	100
156752	2026-02-04T01:10:55	-0.2	100
156753	2026-02-04T01:20:55	-0.1	100
156754	2026-02-04T01:30:55	-0.2	100
156755	2026-02-04T01:40:55	-0.3	100
156756	2026-02-04T01:50:55	-0.3	100
156757	2026-02-04T02:00:55	-0.2	100
156758	2026-02-04T02:10:55	-0.3	100
156759	2026-02-04T02:20:55	-0.4	100
156760	2026-02-04T02:30:55	-0.6	100
156761	2026-02-04T02:40:55	-0.6	100
156762	2026-02-04T02:50:55	-0.6	100
156763	2026-02-04T03:00:55	-0.5	100
156764	2026-02-04T03:10:55	-0.5	100
156765	2026-02-04T03:20:55	-0.4	100
156766	2026-02-04T03:30:55	-0.4	100
156767	2026-02-04T03:40:55	-0.7	100
156768	2026-02-04T03:50:55	-1	100
156769	2026-02-04T04:00:55	-0.8	100
156770	2026-02-04T04:10:55	-0.7	100
156771	2026-02-04T04:20:55	-0.7	100
156772	2026-02-04T04:30:55	-0.8	100
156773	2026-02-04T04:40:55	-0.8	100
156774	2026-02-04T04:50:55	-0.8	100
156775	2026-02-04T05:00:55	-0.8	100
156776	2026-02-04T05:10:55	-0.9	100
156777	2026-02-04T05:20:55	-0.8	100
156778	2026-02-04T05:30:55	-0.7	100
156779	2026-02-04T05:40:55	-0.6	100
156780	2026-02-04T05:50:55	-0.6	100
156781	2026-02-04T06:00:55	-0.5	100
156782	2026-02-04T06:10:55	-0.6	100
156783	2026-02-04T06:20:55	-0.6	100
156784	2026-02-04T06:30:55	-0.7	100
156785	2026-02-04T06:40:55	-0.8	100
156786	2026-02-04T06:50:55	-0.8	100
156787	2026-02-04T07:00:55	-1	100
156788	2026-02-04T07:10:55	-1.1	100
156789	2026-02-04T07:20:55	-1.1	100
156790	2026-02-04T07:30:55	-1.1	100
156791	2026-02-04T07:40:55	-0.8	100
156792	2026-02-04T07:50:55	-0.7	100
156793	2026-02-04T08:00:55	-0.7	100
156794	2026-02-04T08:10:55	-0.5	100
156795	2026-02-04T08:20:55	-0.3	100
156796	2026-02-04T08:30:55	-0.3	100
156797	2026-02-04T08:40:55	-0.2	100
156798	2026-02-04T08:50:55	-0.1	100
156799	2026-02-04T09:00:55	0	100
156800	2026-02-04T09:10:55	0	100
156801	2026-02-04T09:20:55	0.3	100
156802	2026-02-04T09:30:55	0.7	100
156803	2026-02-04T09:40:55	1.1	100
156804	2026-02-04T09:50:55	1.2	100
156805	2026-02-04T10:00:55	1.4	100
156806	2026-02-04T10:10:55	1.7	100
156807	2026-02-04T10:20:55	1.8	100
156808	2026-02-04T10:30:55	2.3	100
156809	2026-02-04T10:40:55	2.5	100
156810	2026-02-04T10:50:55	2.6	100
156811	2026-02-04T11:00:55	2.9	100
156812	2026-02-04T11:10:55	3.2	100
156813	2026-02-04T11:20:55	3.6	100
156814	2026-02-04T11:30:55	4	100
156815	2026-02-04T11:40:55	4.3	100
156816	2026-02-04T11:50:55	4.8	100
156817	2026-02-04T12:00:55	5.2	100
156818	2026-02-04T12:10:55	5.4	100
156819	2026-02-04T12:20:55	5.6	100
156820	2026-02-04T12:30:55	6.2	100
156821	2026-02-04T12:40:55	6.4	100
156822	2026-02-04T12:50:55	6.4	100
156823	2026-02-04T13:00:55	6.3	100
156824	2026-02-04T13:10:55	6.1	100
156825	2026-02-04T13:20:55	6	100
156826	2026-02-04T13:30:55	5.8	100
156827	2026-02-04T13:40:55	5.7	100
156828	2026-02-04T13:50:55	5.6	100
156829	2026-02-04T14:00:55	5.4	100
156830	2026-02-04T14:10:55	5.4	100
156831	2026-02-04T14:20:55	5.3	100
156832	2026-02-04T14:30:55	5.2	100
156833	2026-02-04T14:40:55	5.1	100
156834	2026-02-04T14:50:55	5.1	100
156835	2026-02-04T15:00:55	4.8	100
156836	2026-02-04T15:10:55	4.7	100
156837	2026-02-04T15:20:55	4.7	100
156838	2026-02-04T15:30:55	4.6	100
156839	2026-02-04T15:40:55	4.6	100
156840	2026-02-04T15:50:55	5	100
156841	2026-02-04T16:00:55	4.9	100
156842	2026-02-04T16:10:55	4.4	100
156843	2026-02-04T16:20:55	4	100
156844	2026-02-04T16:30:55	3.8	100
156845	2026-02-04T16:40:55	3.6	100
156846	2026-02-04T16:50:55	3.5	100
156847	2026-02-04T17:00:55	3.3	100
156848	2026-02-04T17:10:55	3.4	100
156849	2026-02-04T17:20:55	3.1	100
156850	2026-02-04T17:30:55	2.9	100
156851	2026-02-04T17:40:55	2.8	100
156852	2026-02-04T17:50:55	2.6	100
156853	2026-02-04T18:00:55	2.4	100
156854	2026-02-04T18:10:55	2.2	100
156855	2026-02-04T18:20:55	2.2	100
156856	2026-02-04T18:30:55	2.3	100
156857	2026-02-04T18:40:55	2.1	100
156858	2026-02-04T18:50:55	1.9	100
156859	2026-02-04T19:00:55	1.8	100
156860	2026-02-04T19:10:55	1.7	100
156861	2026-02-04T19:20:55	1.7	100
156862	2026-02-04T19:30:55	1.6	100
156863	2026-02-04T19:40:55	1.6	100
156864	2026-02-04T19:50:55	1.6	100
156865	2026-02-04T20:00:55	1.6	100
156866	2026-02-04T20:10:55	1.6	100
156867	2026-02-04T20:20:55	1.6	100
156868	2026-02-04T20:30:55	1.5	100
156869	2026-02-04T20:40:55	1.3	100
156870	2026-02-04T20:50:55	1.3	100
156871	2026-02-04T21:00:55	1.1	100
156872	2026-02-04T21:10:55	1.1	100
156873	2026-02-04T21:20:55	0.9	100
156874	2026-02-04T21:30:55	0.9	100
156875	2026-02-04T21:40:55	0.8	100
156876	2026-02-04T21:50:55	0.6	100
156877	2026-02-04T22:00:55	0.3	100
156878	2026-02-04T22:10:55	0.1	100
156879	2026-02-04T22:20:55	0	100
156880	2026-02-04T22:30:55	0	100
156881	2026-02-04T22:40:55	0.2	100
156882	2026-02-04T22:50:55	0.5	100
156883	2026-02-04T23:00:55	0.7	100
156884	2026-02-04T23:10:55	0.7	100
156885	2026-02-04T23:20:55	0.4	100
156886	2026-02-04T23:30:55	0.4	100
156887	2026-02-04T23:40:55	0.7	100
156888	2026-02-04T23:50:55	0.8	100
156889	2026-02-05T00:00:55	0.8	100
156890	2026-02-05T00:10:55	0.9	100
156891	2026-02-05T00:20:55	1.1	100
156892	2026-02-05T00:30:55	1.2	100
156893	2026-02-05T00:40:55	1.4	100
156894	2026-02-05T00:50:55	1.3	100
156895	2026-02-05T01:00:55	1.4	100
156896	2026-02-05T01:20:55	1.4	100
156897	2026-02-05T01:30:55	1.6	100
156898	2026-02-05T01:40:55	1.5	100
156899	2026-02-05T01:50:55	1.6	100
156900	2026-02-05T02:00:55	1.6	100
156901	2026-02-05T02:10:55	1.7	100
156902	2026-02-05T02:20:55	1.7	100
156903	2026-02-05T02:30:55	1.8	100
156904	2026-02-05T02:40:55	1.8	100
156905	2026-02-05T02:50:55	1.8	100
156906	2026-02-05T03:00:55	1.7	100
156907	2026-02-05T03:10:55	1.9	100
156908	2026-02-05T03:20:55	1.9	100
156909	2026-02-05T03:30:55	1.9	100
156910	2026-02-05T03:40:55	1.9	100
156911	2026-02-05T03:50:55	1.9	100
156912	2026-02-05T04:00:55	2.1	100
156913	2026-02-05T04:10:55	2.1	100
156914	2026-02-05T04:20:55	2.2	100
156915	2026-02-05T04:30:55	2.1	100
156916	2026-02-05T04:40:55	2.1	100
156917	2026-02-05T04:50:55	2.2	100
156918	2026-02-05T05:00:55	2.2	100
156919	2026-02-05T05:10:55	2.2	100
156920	2026-02-05T05:20:55	2.3	100
156921	2026-02-05T05:30:55	2.3	100
156922	2026-02-05T05:40:55	2.2	100
156923	2026-02-05T05:50:55	2.2	100
156924	2026-02-05T06:00:55	2.3	100
156925	2026-02-05T06:10:55	2.3	100
156926	2026-02-05T06:20:55	2.3	100
156927	2026-02-05T06:30:55	2.3	100
156928	2026-02-05T06:40:55	2.4	100
156929	2026-02-05T06:50:55	2.3	100
156930	2026-02-05T07:00:55	2.3	100
156931	2026-02-05T07:10:55	2.4	100
156932	2026-02-05T07:20:55	2.4	100
156933	2026-02-05T07:30:55	2.5	100
156934	2026-02-05T07:40:55	2.5	100
156935	2026-02-05T07:50:55	2.5	99.5
156936	2026-02-05T08:00:55	2.6	98.5
156937	2026-02-05T08:10:55	2.7	97.5
156938	2026-02-05T08:20:55	2.9	97
156939	2026-02-05T08:30:55	3	96.5
156940	2026-02-05T08:40:55	3.1	96
156941	2026-02-05T08:50:55	3.2	96
156942	2026-02-05T09:00:55	3.3	96
156943	2026-02-05T09:10:55	3.3	95
156944	2026-02-05T09:20:55	3.5	95
156945	2026-02-05T09:30:55	3.5	94
156946	2026-02-05T09:50:55	4.1	93
156947	2026-02-05T10:00:55	4.5	91
156948	2026-02-05T10:10:55	4.9	91
156949	2026-02-05T10:20:55	4.9	90.5
156950	2026-02-05T10:30:55	4.9	88
156951	2026-02-05T10:40:55	5.3	88
156952	2026-02-05T10:50:55	5.4	88
156953	2026-02-05T11:00:55	5.7	86.5
156954	2026-02-05T11:10:55	5.9	87
156955	2026-02-05T11:20:55	6.3	85.5
156956	2026-02-05T11:30:55	6.6	85.5
156957	2026-02-05T11:40:55	7.1	82
156958	2026-02-05T11:50:55	7.1	81
156959	2026-02-05T12:00:55	7.3	80.5
156960	2026-02-05T12:10:55	8	78.5
156961	2026-02-05T12:20:55	9.7	73.5
156962	2026-02-05T12:30:55	10.4	70.5
156963	2026-02-05T12:40:55	12.2	65
156964	2026-02-05T12:50:55	12.4	63
156965	2026-02-05T13:00:55	13	61.5
156966	2026-02-05T13:10:55	14.6	60.5
156967	2026-02-05T13:20:55	15.7	55.5
156968	2026-02-05T13:30:55	16.7	53
156969	2026-02-05T13:40:55	17.6	50.5
156970	2026-02-05T13:50:55	18.2	48
156971	2026-02-05T14:00:55	17.3	50
156972	2026-02-05T14:10:55	18.4	48
156973	2026-02-05T14:20:55	19.8	47.5
156974	2026-02-05T14:30:55	19.9	45
156975	2026-02-05T14:40:55	17.5	50
156976	2026-02-05T14:50:55	17.8	50
156977	2026-02-05T15:00:55	19.1	47
156978	2026-02-05T15:10:54	18.8	46.5
156979	2026-02-05T15:20:54	18.3	48.5
156980	2026-02-05T15:30:54	17.1	50.5
156981	2026-02-05T15:40:54	15.2	54
156982	2026-02-05T15:50:54	12.9	59.5
156983	2026-02-05T16:00:54	12.3	61.5
156984	2026-02-05T16:10:54	10.6	67
156985	2026-02-05T16:20:54	9.7	69.5
156986	2026-02-05T16:30:54	9	72.5
156987	2026-02-05T16:40:54	8.3	74.5
156988	2026-02-05T16:50:54	7.8	76.5
156989	2026-02-05T17:00:54	7.3	77.5
156990	2026-02-05T17:10:54	7	79
156991	2026-02-05T17:20:54	6.7	80
156992	2026-02-05T17:30:54	6.3	80.5
156993	2026-02-05T17:40:54	6	82
156994	2026-02-05T17:50:54	5.8	82.5
156995	2026-02-05T18:00:54	5.6	84.5
156996	2026-02-05T18:10:54	5.4	85
156997	2026-02-05T18:20:54	5.2	86
156998	2026-02-05T18:30:54	5	87
156999	2026-02-05T18:40:54	4.8	87.5
157000	2026-02-05T18:50:54	4.6	88
157001	2026-02-05T19:00:54	4.3	88.5
157002	2026-02-05T19:10:54	4.3	89
157003	2026-02-05T19:20:54	3.9	89.5
157004	2026-02-05T19:30:54	4	90
157005	2026-02-05T19:40:54	3.8	90
157006	2026-02-05T19:50:54	3.8	90
157007	2026-02-05T20:00:54	3.7	90
157008	2026-02-05T20:10:54	3.6	90.5
157009	2026-02-05T20:20:54	3.4	91
157010	2026-02-05T20:30:54	3.2	91
157011	2026-02-05T20:40:54	3	91
157012	2026-02-05T20:50:54	2.9	91.5
157013	2026-02-05T21:00:54	2.6	92
157014	2026-02-05T21:10:54	2.5	92.5
157015	2026-02-05T21:20:54	2.3	92.5
157016	2026-02-05T21:30:54	2.2	92.5
157017	2026-02-05T21:40:54	2.1	92.5
157018	2026-02-05T21:50:54	2	93
157019	2026-02-05T22:00:54	1.9	93
157020	2026-02-05T22:10:54	1.8	93
157021	2026-02-05T22:20:54	1.9	93
157022	2026-02-05T22:30:54	1.8	93.5
157023	2026-02-05T22:40:54	1.7	93.5
157024	2026-02-05T22:50:54	1.6	93.5
157025	2026-02-05T23:00:54	1.5	94
157026	2026-02-05T23:10:54	1.5	93.5
157027	2026-02-05T23:20:54	1.4	93.5
157028	2026-02-05T23:30:54	1.2	93.5
157029	2026-02-05T23:40:54	1.2	94
157030	2026-02-05T23:50:54	1.1	94.5
157031	2026-02-06T00:00:54	1.1	94.5
157032	2026-02-06T00:10:54	1.1	95
157033	2026-02-06T00:20:54	1	94.5
157034	2026-02-06T00:30:54	1.1	94.5
157035	2026-02-06T00:40:54	1.1	94.5
157036	2026-02-06T00:50:54	1.1	94.5
157037	2026-02-06T01:00:54	1.1	94.5
157038	2026-02-06T01:10:54	1	94.5
157039	2026-02-06T01:20:54	1	94.5
157040	2026-02-06T01:30:54	1.1	94.5
157041	2026-02-06T01:40:54	1.1	94
157042	2026-02-06T01:50:54	1.1	93.5
157043	2026-02-06T02:00:54	1.1	94
157044	2026-02-06T02:10:54	1.1	94.5
157045	2026-02-06T02:20:54	1.2	94
157046	2026-02-06T02:30:54	1.1	94
157047	2026-02-06T02:40:54	1.1	94.5
157048	2026-02-06T02:50:54	1.1	94.5
157049	2026-02-06T03:00:54	1	94
157050	2026-02-06T03:10:54	1.1	94.5
157051	2026-02-06T03:20:54	1.2	94.5
157052	2026-02-06T03:30:54	1.2	94.5
157053	2026-02-06T03:40:54	1.1	94.5
157054	2026-02-06T03:50:54	1.2	94.5
157055	2026-02-06T04:00:54	1.1	94.5
157056	2026-02-06T04:10:54	1.2	94.5
157057	2026-02-06T04:20:54	1.3	94.5
157058	2026-02-06T04:30:54	1.2	94.5
157059	2026-02-06T04:40:54	1.2	94.5
157060	2026-02-06T04:50:54	1.2	94.5
157061	2026-02-06T05:00:54	1.3	94.5
157062	2026-02-06T05:10:54	1.4	94.5
157063	2026-02-06T05:20:54	1.2	94
157064	2026-02-06T05:30:54	1.2	94.5
157065	2026-02-06T05:40:54	1.2	94.5
157066	2026-02-06T05:50:54	1.3	94.5
157067	2026-02-06T06:00:54	1.5	94.5
157068	2026-02-06T06:10:54	1.4	94
157069	2026-02-06T06:20:54	1.4	94
157070	2026-02-06T06:30:54	1.4	94.5
157071	2026-02-06T06:40:54	1.4	94.5
157072	2026-02-06T06:50:54	1.3	95
157073	2026-02-06T07:00:54	1.4	95.5
157074	2026-02-06T07:10:54	1.5	95.5
157075	2026-02-06T07:21:12	1.6	95.5
157076	2026-02-06T07:30:54	1.8	96
157077	2026-02-06T07:40:54	1.7	96.5
157078	2026-02-06T07:50:54	1.9	97
157079	2026-02-06T08:00:54	2	97
157080	2026-02-06T08:10:54	2.2	97.5
157081	2026-02-06T08:20:54	2.1	97.5
157082	2026-02-06T08:30:54	2.4	97
157083	2026-02-06T08:40:54	2.4	96.5
157084	2026-02-06T08:50:54	2.5	96
157085	2026-02-06T09:00:54	2.7	96
157086	2026-02-06T09:10:54	2.8	95.5
157087	2026-02-06T09:20:54	3	95
157088	2026-02-06T09:30:54	3	95
157089	2026-02-06T09:40:54	3.3	95
157090	2026-02-06T09:50:54	3.4	93.5
157091	2026-02-06T10:00:54	3.5	93
157092	2026-02-06T10:10:54	3.5	93
157093	2026-02-06T10:20:54	3.7	92
157094	2026-02-06T10:30:54	3.6	91
157095	2026-02-06T10:40:54	3.8	92
157096	2026-02-06T10:50:54	4.1	92
157097	2026-02-06T11:00:54	4.3	92.5
157098	2026-02-06T11:10:54	4.3	92.5
157099	2026-02-06T11:20:54	4.5	92.5
157100	2026-02-06T11:30:54	4.8	92.5
157101	2026-02-06T11:40:54	5.2	90
157102	2026-02-06T11:50:54	5.1	90.5
157103	2026-02-06T12:00:54	5.2	92.5
157104	2026-02-06T12:10:54	5.7	91.5
157105	2026-02-06T12:20:54	6.1	90
157106	2026-02-06T12:30:54	6.1	87
157107	2026-02-06T12:40:54	6.1	89.5
157108	2026-02-06T12:50:54	5.7	90
157109	2026-02-06T13:00:54	5.6	92
157110	2026-02-06T13:10:54	6.3	92.5
157111	2026-02-06T13:20:54	6.5	91.5
157112	2026-02-06T13:30:54	6.6	91.5
157113	2026-02-06T13:40:54	6.6	91
157114	2026-02-06T13:50:54	6.7	91.5
157115	2026-02-06T14:00:54	6.4	92
157116	2026-02-06T14:10:54	6.2	92.5
157117	2026-02-06T14:20:54	6.6	90.5
157118	2026-02-06T14:30:54	6.9	88.5
157119	2026-02-06T14:40:54	6.9	91
157120	2026-02-06T14:50:54	6.8	92
157121	2026-02-06T15:00:54	6.5	91.5
157122	2026-02-06T15:10:54	6.6	92
157123	2026-02-06T15:20:54	6.3	92.5
157124	2026-02-06T15:30:54	6.2	94
157125	2026-02-06T15:40:54	6.1	94.5
157126	2026-02-06T15:50:54	6	96
157127	2026-02-06T16:00:54	5.9	96
157128	2026-02-06T16:10:54	6	96.5
157129	2026-02-06T16:20:54	5.9	96
157130	2026-02-06T16:30:54	5.6	96.5
157131	2026-02-06T16:40:54	5.4	97.5
157132	2026-02-06T16:50:54	5.3	98
157133	2026-02-06T17:00:54	5.1	98
157134	2026-02-06T17:10:54	4.9	98.5
157135	2026-02-06T17:20:54	4.9	99
157136	2026-02-06T17:30:54	4.8	100
157137	2026-02-06T17:40:54	4.7	100
157138	2026-02-06T17:50:54	4.7	100
157139	2026-02-06T18:00:54	4.6	100
157140	2026-02-06T18:10:54	4.7	100
157141	2026-02-06T18:20:54	4.8	100
157142	2026-02-06T18:30:54	4.9	99.5
157143	2026-02-06T18:40:54	4.9	99
157144	2026-02-06T18:50:54	4.9	99
157145	2026-02-06T19:00:54	4.8	99
157146	2026-02-06T19:10:54	4.9	99.5
157147	2026-02-06T19:20:54	4.9	99.5
157148	2026-02-06T19:30:54	4.9	100
157149	2026-02-06T19:40:54	4.9	100
157150	2026-02-06T19:50:54	5	100
157151	2026-02-06T20:00:54	5	100
157152	2026-02-06T20:10:54	4.9	100
157153	2026-02-06T20:20:54	4.9	100
157154	2026-02-06T20:30:54	5.1	100
157155	2026-02-06T20:40:54	5.1	100
157156	2026-02-06T20:50:54	5.1	100
157157	2026-02-06T21:00:54	5.1	100
157158	2026-02-06T21:10:54	5.2	100
157159	2026-02-06T21:20:54	5	100
157160	2026-02-06T21:30:54	5.2	100
157161	2026-02-06T21:40:54	5.3	100
157162	2026-02-06T21:50:54	5.4	100
157163	2026-02-06T22:00:54	5.4	100
157164	2026-02-06T22:10:54	5.7	100
157165	2026-02-06T22:20:54	6	100
157166	2026-02-06T22:30:54	6.4	100
157167	2026-02-06T22:40:54	6.9	100
157168	2026-02-06T22:50:54	7.1	100
157169	2026-02-06T23:00:54	7.1	100
157170	2026-02-06T23:10:54	7.3	100
157171	2026-02-06T23:20:54	7.3	100
157172	2026-02-06T23:30:54	7.4	100
157173	2026-02-06T23:40:53	7.5	100
157174	2026-02-06T23:50:53	7.4	100
157175	2026-02-07T00:00:53	7.3	100
157176	2026-02-07T00:10:53	7.4	100
157177	2026-02-07T00:20:53	7.4	100
157178	2026-02-07T00:30:53	7.2	100
157179	2026-02-07T00:40:53	7.4	100
157180	2026-02-07T00:50:53	7.4	100
157181	2026-02-07T01:00:53	7.5	100
157182	2026-02-07T01:10:53	7.4	100
157183	2026-02-07T01:20:53	7.4	100
157184	2026-02-07T01:30:53	7.4	100
157185	2026-02-07T01:40:53	7.3	100
157186	2026-02-07T01:50:53	7.3	100
157187	2026-02-07T02:00:53	7.4	100
157188	2026-02-07T02:10:53	7.4	100
157189	2026-02-07T02:20:53	7.3	100
157190	2026-02-07T02:30:53	7.3	100
157191	2026-02-07T02:40:53	7.3	100
157192	2026-02-07T02:50:53	7.3	99
157193	2026-02-07T03:00:53	7.2	98
157194	2026-02-07T03:10:53	7.2	97.5
157195	2026-02-07T03:20:53	7.1	97.5
157196	2026-02-07T03:30:53	7.1	97.5
157197	2026-02-07T03:40:53	7	97.5
157198	2026-02-07T03:50:53	7.1	97.5
157199	2026-02-07T04:00:53	7.2	97.5
157200	2026-02-07T04:10:53	7.2	97.5
157201	2026-02-07T04:20:53	7.2	97.5
157202	2026-02-07T04:30:53	7.2	97.5
157203	2026-02-07T04:40:53	7.3	97.5
157204	2026-02-07T04:50:53	7.3	97.5
157205	2026-02-07T05:00:53	7.3	97.5
157206	2026-02-07T05:10:53	7.2	97.5
157207	2026-02-07T05:20:53	7.2	97.5
157208	2026-02-07T05:30:53	7.2	97.5
157209	2026-02-07T05:40:53	7.1	97.5
157210	2026-02-07T05:50:53	7.1	97.5
157211	2026-02-07T06:00:53	7.1	97.5
157212	2026-02-07T06:10:53	7.1	97.5
157213	2026-02-07T06:20:53	6.9	97.5
157214	2026-02-07T06:30:53	6.8	97.5
157215	2026-02-07T06:40:53	6.7	97.5
157216	2026-02-07T06:50:53	6.8	97.5
157217	2026-02-07T07:00:53	6.8	97.5
157218	2026-02-07T07:10:53	6.7	97.5
157219	2026-02-07T07:20:53	6.8	97.5
157220	2026-02-07T07:30:53	6.9	97
157221	2026-02-07T07:40:53	7.1	97
157222	2026-02-07T07:50:53	7.2	97
157223	2026-02-07T08:00:53	7.1	97
157224	2026-02-07T08:10:53	6.9	97
157225	2026-02-07T08:20:53	7.1	97
157226	2026-02-07T08:30:53	7.2	97
157227	2026-02-07T08:40:53	7.2	97.5
157228	2026-02-07T08:50:53	7.4	97.5
157229	2026-02-07T09:00:53	7.8	97.5
157230	2026-02-07T09:10:53	8	97.5
157231	2026-02-07T09:20:53	8.2	97.5
157232	2026-02-07T09:30:53	8.7	97.5
157233	2026-02-07T09:40:53	9.1	97.5
157234	2026-02-07T09:50:53	8.9	97.5
157235	2026-02-07T10:00:53	8.8	97.5
157236	2026-02-07T10:10:53	8.8	97.5
157237	2026-02-07T10:20:53	8.9	97.5
157238	2026-02-07T10:30:53	9.1	97.5
157239	2026-02-07T10:40:53	9.6	97.5
157240	2026-02-07T10:50:53	9.8	97.5
157241	2026-02-07T11:00:53	10.3	97.5
157242	2026-02-07T11:10:53	10.5	97.5
157243	2026-02-07T11:20:53	10.8	97.5
157244	2026-02-07T11:30:53	11	97.5
157245	2026-02-07T11:40:53	11.5	97.5
157246	2026-02-07T11:50:53	12	97.5
157247	2026-02-07T12:00:53	14.1	97.5
157248	2026-02-07T12:10:53	16.5	97.5
157249	2026-02-07T12:20:53	16.3	97.5
157250	2026-02-07T12:30:53	16.1	97.5
157251	2026-02-07T12:40:53	19.5	97.5
157252	2026-02-07T12:50:53	20.2	98
157253	2026-02-07T13:00:53	21.4	98
157254	2026-02-07T13:10:53	18.6	97.5
157255	2026-02-07T13:20:53	22.9	98
157256	2026-02-07T13:30:53	20	98
157257	2026-02-07T13:40:53	17	98
157258	2026-02-07T13:50:53	22.4	98
157259	2026-02-07T14:00:53	24.8	98
157260	2026-02-07T14:10:53	20.8	98
157261	2026-02-07T14:20:53	18.9	100
157262	2026-02-07T14:30:53	17.5	100
157263	2026-02-07T14:40:53	16.6	100
157264	2026-02-07T14:50:53	16.6	100
157265	2026-02-07T15:00:53	17.3	100
157266	2026-02-07T15:10:53	19.2	100
157267	2026-02-07T15:20:53	20.8	100
157268	2026-02-07T15:30:53	20.8	68
157269	2026-02-07T15:40:53	20.6	62
157270	2026-02-07T15:50:53	19.8	61
157271	2026-02-07T16:00:53	18.7	63.5
157272	2026-02-07T16:10:53	17.2	68.5
157273	2026-02-07T16:20:53	15.1	71.5
157274	2026-02-07T16:30:53	13.9	76.5
157275	2026-02-07T16:40:52	13.1	78
157276	2026-02-07T16:50:53	12.5	80.5
157277	2026-02-07T17:00:52	12	82
157278	2026-02-07T18:53:16	11	83.5
157279	2026-02-07T18:53:17	11.5	83
157280	2026-02-07T18:53:19	10.2	85.5
157281	2026-02-07T18:53:20	10.6	84
157282	2026-02-07T18:53:20	8.3	89
157283	2026-02-07T18:53:22	8.7	89
157284	2026-02-07T18:53:22	10.1	86.5
157285	2026-02-07T18:53:23	9.5	88
157286	2026-02-07T18:53:23	9.8	86.5
157287	2026-02-07T18:53:23	9.2	89
157288	2026-02-07T18:53:23	9	89
157289	2026-02-07T19:00:52	8.2	89.5
157290	2026-02-07T19:10:52	8	90
157291	2026-02-07T19:20:52	7.9	90.5
157292	2026-02-07T19:30:52	7.6	91.5
157293	2026-02-07T19:40:52	7.4	92.5
157294	2026-02-07T19:50:52	7.2	93
157295	2026-02-07T20:00:52	6.9	93.5
157296	2026-02-07T20:10:52	6.8	94
157297	2026-02-07T20:20:52	6.7	93.5
157298	2026-02-07T20:30:52	6.4	94
157299	2026-02-07T20:40:52	6.3	94.5
157300	2026-02-07T20:50:52	6.2	95.5
157301	2026-02-07T21:00:52	6.4	96
157302	2026-02-07T21:10:52	6.3	96.5
157303	2026-02-07T21:20:52	6.2	97
157304	2026-02-07T21:30:52	6.5	96
157305	2026-02-07T21:40:52	6.2	96.5
157306	2026-02-07T21:50:52	6	97
157307	2026-02-07T22:00:52	5.7	97
157308	2026-02-07T22:10:52	5.6	97
157309	2026-02-07T22:20:52	5.2	97.5
157310	2026-02-07T22:30:52	4.9	96.5
157311	2026-02-07T22:40:52	4.8	97
157312	2026-02-07T22:50:52	4.6	96.5
157313	2026-02-07T23:00:52	4.3	97.5
157314	2026-02-07T23:10:52	4.2	97
157315	2026-02-07T23:20:52	4.1	97
157316	2026-02-07T23:30:52	3.9	96.5
157317	2026-02-07T23:40:52	3.8	96.5
157318	2026-02-07T23:50:52	3.5	97
157319	2026-02-08T00:00:52	3.5	97
157320	2026-02-08T00:10:52	3.2	97
157321	2026-02-08T00:20:52	3	97
157322	2026-02-08T00:30:52	2.9	97.5
157323	2026-02-08T00:40:52	2.8	98
157324	2026-02-08T00:50:52	2.6	97.5
157325	2026-02-08T01:00:52	2.6	97
157326	2026-02-08T01:10:52	2.4	95
157327	2026-02-08T01:20:52	2.3	96
157328	2026-02-08T01:30:52	2	97
157329	2026-02-08T01:40:52	2	96.5
157330	2026-02-08T01:50:52	1.8	97
157331	2026-02-08T02:00:52	1.7	97
157332	2026-02-08T02:10:52	1.6	97.5
157333	2026-02-08T02:20:52	1.5	98
157334	2026-02-08T02:30:52	1.9	96.5
157335	2026-02-08T02:40:52	2.2	96
157336	2026-02-08T02:50:52	2.1	95.5
157337	2026-02-08T03:00:52	2	95
157338	2026-02-08T03:20:52	2.3	95
157339	2026-02-08T03:30:52	2	96.5
157340	2026-02-08T03:40:52	2.4	96.5
157341	2026-02-08T03:50:52	2.6	95
157342	2026-02-08T04:00:52	2.5	96
157343	2026-02-08T04:10:52	2.5	98
157344	2026-02-08T04:20:52	2.6	98.5
157345	2026-02-08T04:30:52	2.6	98.5
157346	2026-02-08T04:40:52	2.6	98.5
157347	2026-02-08T04:50:52	2.6	99
157348	2026-02-08T05:00:52	2.6	99.5
157349	2026-02-08T05:10:52	2.5	99.5
157350	2026-02-08T05:20:52	2.5	99
157351	2026-02-08T05:30:52	2.6	98.5
157352	2026-02-08T05:40:52	2.6	99
157353	2026-02-08T05:50:52	2.6	99
157354	2026-02-08T06:00:52	2.6	99.5
157355	2026-02-08T06:10:52	2.4	98.5
157356	2026-02-08T06:20:52	2.3	98.5
157357	2026-02-08T06:30:52	2.3	99
157358	2026-02-08T06:40:52	2.4	99
157359	2026-02-08T06:50:52	2.4	98.5
157360	2026-02-08T07:00:52	2.5	98.5
157361	2026-02-08T07:10:52	2.4	97.5
157362	2026-02-08T07:20:52	2.2	97.5
157363	2026-02-08T07:30:52	2	98
157364	2026-02-08T07:40:52	1.7	99
157365	2026-02-08T07:50:52	2.1	99
157366	2026-02-08T08:00:52	2.3	98
157367	2026-02-08T08:10:52	2.7	97.5
157368	2026-02-08T08:20:52	2.5	97
157369	2026-02-08T08:30:52	2.9	97
157370	2026-02-08T08:40:52	2.9	96.5
157371	2026-02-08T08:50:52	3	96
157372	2026-02-08T09:00:52	2.9	96.5
157373	2026-02-08T09:10:52	2.9	96.5
157374	2026-02-08T09:20:52	3.2	97
157375	2026-02-08T09:30:52	3.7	95.5
157376	2026-02-08T09:40:52	3.8	95.5
157377	2026-02-08T09:50:52	4	95
157378	2026-02-08T10:00:52	4.7	94.5
157379	2026-02-08T10:10:52	5.7	91.5
157380	2026-02-08T10:20:52	6.3	90
157381	2026-02-08T10:30:52	6.9	88.5
157382	2026-02-08T10:40:52	7.4	88
157383	2026-02-08T10:50:52	7.5	87
157384	2026-02-08T11:00:52	7.4	87
157385	2026-02-08T11:10:52	7.8	86.5
157386	2026-02-08T11:20:52	7.5	88
157387	2026-02-08T11:30:52	8.1	86
157388	2026-02-08T11:40:52	8	88.5
157389	2026-02-08T11:50:52	8.1	88
157390	2026-02-08T12:00:52	10.2	82.5
157391	2026-02-08T12:10:52	12.2	75.5
157392	2026-02-08T12:20:52	13.7	69.5
157393	2026-02-08T12:30:52	14.8	66.5
157394	2026-02-08T12:40:52	15.5	63.5
157395	2026-02-08T12:50:52	16.4	59.5
157396	2026-02-08T13:00:52	17.8	56
157397	2026-02-08T13:10:52	18.7	54
157398	2026-02-08T13:20:52	19.4	51.5
157399	2026-02-08T13:30:52	20	51
157400	2026-02-08T13:40:52	21.7	47.5
157401	2026-02-08T13:50:52	21.9	46
157402	2026-02-08T14:00:52	22.6	44
157403	2026-02-08T14:10:52	22.1	44.5
157404	2026-02-08T14:20:52	22.7	44
157405	2026-02-08T14:30:52	22.7	43
157406	2026-02-08T14:40:52	22.3	44
157407	2026-02-08T14:50:52	22.9	44
157408	2026-02-08T15:00:52	23.4	44
157409	2026-02-08T15:10:52	22.7	44
157410	2026-02-08T15:20:52	22.4	44
157411	2026-02-08T15:30:52	22	45
157412	2026-02-08T15:40:52	21.2	46
157413	2026-02-08T15:50:51	19.9	48
157414	2026-02-08T16:00:51	18.7	51.5
157415	2026-02-08T16:10:51	17.5	55
157416	2026-02-08T16:20:51	15.2	59.5
157417	2026-02-08T16:30:51	13	64.5
157418	2026-02-08T16:40:51	12	67.5
157419	2026-02-08T16:50:51	11.3	69.5
157420	2026-02-08T17:00:51	10.9	73
157421	2026-02-08T17:10:51	10.2	75
157422	2026-02-08T17:20:51	10.2	75
157423	2026-02-08T17:30:51	10.2	75
157424	2026-02-08T17:40:51	10.1	75.5
157425	2026-02-08T17:50:51	9.7	76
157426	2026-02-08T18:00:51	9.4	77
157427	2026-02-08T18:10:51	9.3	77.5
157428	2026-02-08T18:20:51	9.3	77.5
157429	2026-02-08T18:30:51	8.9	78.5
157430	2026-02-08T18:40:51	8.8	79
157431	2026-02-08T18:50:51	8.7	79
157432	2026-02-08T19:00:51	8.5	79
157433	2026-02-08T19:10:51	8.5	79.5
157434	2026-02-08T19:20:51	8.5	79.5
157435	2026-02-08T19:30:51	8.3	80
157436	2026-02-08T19:40:51	8.3	81
157437	2026-02-08T19:50:51	8.3	81.5
157438	2026-02-08T20:00:51	8.1	81.5
157439	2026-02-08T20:10:51	8	82
157440	2026-02-08T20:20:51	7.6	83
157441	2026-02-08T20:30:51	6.6	86.5
157442	2026-02-08T20:40:51	6.1	88
157443	2026-02-08T20:50:51	6.6	87.5
157444	2026-02-08T21:00:51	6.8	86.5
157445	2026-02-08T21:10:51	6.9	86
157446	2026-02-08T21:20:51	7	85.5
157447	2026-02-08T21:30:51	7	85
157448	2026-02-08T21:40:51	6.7	86.5
157449	2026-02-08T21:50:51	6.4	87.5
157450	2026-02-08T22:00:51	6.1	88.5
157451	2026-02-08T22:10:51	5.9	89
157452	2026-02-08T22:20:51	5.5	90.5
157453	2026-02-08T22:30:51	5.3	91
157454	2026-02-08T22:40:51	4.9	91
157455	2026-02-08T22:50:51	4.8	92
157456	2026-02-08T23:00:51	4.9	92.5
157457	2026-02-08T23:10:51	5.1	91.5
157458	2026-02-08T23:20:51	5.1	90
157459	2026-02-08T23:30:51	5	89.5
157460	2026-02-08T23:40:51	4.8	91
157461	2026-02-08T23:50:51	4.3	92.5
157462	2026-02-09T00:00:51	4.4	93.5
157463	2026-02-09T00:10:51	4.4	93.5
157464	2026-02-09T00:20:51	4.6	93
157465	2026-02-09T00:30:51	4.5	93
157466	2026-02-09T00:40:51	4.5	93
157467	2026-02-09T00:50:51	4.5	93.5
157468	2026-02-09T01:00:51	4.3	94
157469	2026-02-09T01:10:51	4.3	94
157470	2026-02-09T01:20:51	4.1	94.5
157471	2026-02-09T01:30:51	4.3	94
157472	2026-02-09T01:40:51	4.3	94
157473	2026-02-09T01:50:51	4.1	93.5
157474	2026-02-09T02:00:51	4.1	93.5
157475	2026-02-09T02:10:51	4.2	93.5
157476	2026-02-09T02:20:51	4.2	93.5
157477	2026-02-09T02:30:51	4.2	93.5
157478	2026-02-09T02:40:51	4.2	94
157479	2026-02-09T02:50:51	4	94
157480	2026-02-09T03:00:51	4	94.5
157481	2026-02-09T03:10:51	4	94.5
157482	2026-02-09T03:20:51	4	94.5
157483	2026-02-09T03:30:51	3.9	94.5
157484	2026-02-09T03:40:51	4	94.5
157485	2026-02-09T03:50:51	4	94.5
157486	2026-02-09T04:00:51	4	94.5
157487	2026-02-09T04:10:51	4	94.5
157488	2026-02-09T04:20:51	4	94.5
157489	2026-02-09T04:30:51	4.1	95
157490	2026-02-09T04:40:51	4.2	94.5
157491	2026-02-09T04:50:51	4.1	95
157492	2026-02-09T05:00:51	4.1	95
157493	2026-02-09T05:10:51	4	95
157494	2026-02-09T05:20:51	4.2	95
157495	2026-02-09T05:30:51	4.2	95
157496	2026-02-09T05:40:51	4.2	95
157497	2026-02-09T05:50:51	4.2	95
157498	2026-02-09T06:00:51	4.2	95
157499	2026-02-09T06:10:51	4.2	95
157500	2026-02-09T06:20:51	4.1	94.5
157501	2026-02-09T06:30:51	4.2	95
157502	2026-02-09T06:40:51	4.1	95
157503	2026-02-09T06:50:51	4.1	95
157504	2026-02-09T07:00:51	4.1	95
157505	2026-02-09T07:10:51	4.2	94.5
157506	2026-02-09T07:20:51	4.3	95
157507	2026-02-09T07:30:51	4.3	95
157508	2026-02-09T07:40:51	4.4	95
157509	2026-02-09T07:50:51	4.6	94.5
157510	2026-02-09T08:00:51	4.8	94.5
157511	2026-02-09T08:10:51	5.1	93
157512	2026-02-09T08:20:51	5.3	92.5
157513	2026-02-09T08:30:51	5.6	92
157514	2026-02-09T08:40:51	5.7	92.5
157515	2026-02-09T08:50:51	5.7	92.5
157516	2026-02-09T09:00:51	5.7	92
157517	2026-02-09T09:10:51	6	91.5
157518	2026-02-09T09:20:51	5.8	90.5
157519	2026-02-09T09:30:51	5.7	90.5
157520	2026-02-09T09:40:51	5.8	90
157521	2026-02-09T09:50:51	6	90.5
157522	2026-02-09T10:00:51	6.3	90
157523	2026-02-09T10:10:51	6.4	89.5
157524	2026-02-09T10:20:51	6.6	88.5
157525	2026-02-09T10:30:51	6.8	87.5
157526	2026-02-09T10:40:51	7.2	88
157527	2026-02-09T10:50:51	7.7	86.5
157528	2026-02-09T11:00:51	7.9	85
157529	2026-02-09T11:10:51	8	82.5
157530	2026-02-09T11:20:51	8.1	82.5
157531	2026-02-09T11:30:51	8.5	81
157532	2026-02-09T11:40:51	8.4	79.5
157533	2026-02-09T11:50:51	8.3	78.5
157534	2026-02-09T12:00:51	8.5	80.5
157535	2026-02-09T12:10:51	8.6	81
157536	2026-02-09T12:20:51	8.7	80.5
157537	2026-02-09T12:30:51	8.8	79
157538	2026-02-09T12:40:51	8.8	78
157539	2026-02-09T12:50:51	9.1	77.5
157540	2026-02-09T13:00:51	9.1	76
157541	2026-02-09T13:10:51	9.3	76
157542	2026-02-09T13:20:51	9.3	74.5
157543	2026-02-09T13:30:51	9.5	74.5
157544	2026-02-09T13:40:51	9.4	74
157545	2026-02-09T13:50:51	9.3	73.5
157546	2026-02-09T14:00:51	9.1	74.5
157547	2026-02-09T14:10:51	8.9	73.5
157548	2026-02-09T14:20:51	8.8	75
157549	2026-02-09T14:30:51	8.8	75.5
157550	2026-02-09T14:40:51	9.3	75
157551	2026-02-09T14:50:51	13.2	66.5
157552	2026-02-09T15:00:51	13.6	61.5
157553	2026-02-09T15:10:50	14.8	58.5
157554	2026-02-09T15:20:50	16.6	54
157555	2026-02-09T15:30:50	16.6	53
157556	2026-02-09T15:40:50	15.7	54
157557	2026-02-09T15:50:50	13.2	60
157558	2026-02-09T16:00:50	13.1	62
157559	2026-02-09T16:10:51	11.1	67.5
157560	2026-02-09T16:20:50	9.7	71
157561	2026-02-09T16:30:50	8.6	74
157562	2026-02-09T16:40:50	7.9	76.5
157563	2026-02-09T16:50:50	7.4	78.5
157564	2026-02-09T17:00:50	6.9	80
157565	2026-02-09T17:10:50	6.5	81
157566	2026-02-09T17:20:50	6.2	82
157567	2026-02-09T17:30:50	6	83
157568	2026-02-09T17:40:50	5.9	84
157569	2026-02-09T17:50:50	5.4	84.5
157570	2026-02-09T18:00:50	5.2	86
157571	2026-02-09T18:10:50	5	86.5
157572	2026-02-09T18:20:50	4.9	87
157573	2026-02-09T18:30:50	4.8	87
157574	2026-02-09T18:40:50	4.7	87
157575	2026-02-09T18:50:50	4.5	87.5
157576	2026-02-09T19:00:50	4.6	87.5
157577	2026-02-09T19:10:50	4.2	88.5
157578	2026-02-09T19:20:50	3.9	90
157579	2026-02-09T19:30:50	3.8	91
157580	2026-02-09T19:40:50	3.6	91
157581	2026-02-09T19:50:50	3.4	91.5
157582	2026-02-09T20:00:50	3.2	91.5
157583	2026-02-09T20:10:50	3.1	91.5
157584	2026-02-09T20:20:50	2.9	92
157585	2026-02-09T20:30:50	2.8	92.5
157586	2026-02-09T20:40:50	2.7	93
157587	2026-02-09T20:50:50	2.5	93.5
157588	2026-02-09T21:00:50	2.5	92.5
157589	2026-02-09T21:10:50	2.2	92.5
157590	2026-02-09T21:20:50	2	93.5
157591	2026-02-09T21:30:50	2	94
157592	2026-02-09T21:40:50	1.7	94
157593	2026-02-09T21:50:50	1.6	93.5
157594	2026-02-09T22:00:50	1.3	94
157595	2026-02-09T22:10:50	1.4	94.5
157596	2026-02-09T22:20:50	1.2	94.5
157597	2026-02-09T22:30:50	0.9	94
157598	2026-02-09T22:40:50	0.9	94.5
157599	2026-02-09T22:50:50	0.7	95
157600	2026-02-09T23:00:50	0.7	95
157601	2026-02-09T23:10:50	0.6	94.5
157602	2026-02-09T23:20:50	0.5	94.5
157603	2026-02-09T23:30:50	0.3	94.5
157604	2026-02-09T23:40:50	0.4	96
157605	2026-02-09T23:50:50	0.2	95.5
157606	2026-02-10T00:00:50	0.4	95
157607	2026-02-10T00:10:50	0.6	94.5
157608	2026-02-10T00:20:50	0.9	94
157609	2026-02-10T00:30:50	1.1	93.5
157610	2026-02-10T00:40:50	1.2	93.5
157611	2026-02-10T00:50:50	1.2	93.5
157612	2026-02-10T01:00:50	1.4	93.5
157613	2026-02-10T01:10:50	1.4	94
157614	2026-02-10T01:20:50	1.4	94
157615	2026-02-10T01:30:50	1.4	94
157616	2026-02-10T01:40:50	1.5	94
157617	2026-02-10T01:50:50	1.4	94.5
157618	2026-02-10T02:00:50	1.4	95.5
157619	2026-02-10T02:10:50	1.3	95
157620	2026-02-10T02:20:50	1.2	95
157621	2026-02-10T02:30:50	1	96
157622	2026-02-10T02:40:50	1	96.5
157623	2026-02-10T02:50:50	0.9	96.5
157624	2026-02-10T03:00:50	0.7	97.5
157625	2026-02-10T03:10:50	0.4	98.5
157626	2026-02-10T03:20:50	0.4	99
157627	2026-02-10T03:30:50	0.4	99
157628	2026-02-10T03:40:50	0.4	98.5
157629	2026-02-10T03:50:50	0.2	98.5
157630	2026-02-10T04:00:50	0.1	99
157631	2026-02-10T04:10:50	0.1	99.5
157632	2026-02-10T04:20:50	0.1	99
157633	2026-02-10T04:30:50	0.1	99
157634	2026-02-10T04:40:50	0.2	98
157635	2026-02-10T04:50:50	0.3	97.5
157636	2026-02-10T05:00:50	0.5	97.5
157637	2026-02-10T05:10:50	0.5	98
157638	2026-02-10T05:20:50	0.8	97.5
157639	2026-02-10T05:30:50	0.9	97
157640	2026-02-10T05:40:50	1.1	96.5
157641	2026-02-10T05:50:50	1	97
157642	2026-02-10T06:00:50	1	97.5
157643	2026-02-10T06:10:50	1.1	97
157644	2026-02-10T06:20:50	1.3	97
157645	2026-02-10T06:30:50	1.1	97
157646	2026-02-10T06:40:50	1	98
157647	2026-02-10T06:50:50	1	98.5
157648	2026-02-10T07:00:50	1	98.5
157649	2026-02-10T07:10:50	1.1	98
157650	2026-02-10T07:20:50	1.1	98
157651	2026-02-10T07:30:50	1.5	98
157652	2026-02-10T07:40:50	1.8	98
157653	2026-02-10T07:50:50	1.8	97.5
157654	2026-02-10T08:00:50	2.1	98
157655	2026-02-10T08:10:50	2.4	98
157656	2026-02-10T08:20:50	2.7	97.5
157657	2026-02-10T08:30:50	2.9	97
157658	2026-02-10T08:40:50	3	97
157659	2026-02-10T08:50:50	3.1	97
157660	2026-02-10T09:00:50	3.4	97
157661	2026-02-10T09:10:50	3.5	96
157662	2026-02-10T09:20:50	3.6	95
157663	2026-02-10T09:30:50	3.8	94.5
157664	2026-02-10T09:40:50	4	94.5
157665	2026-02-10T09:50:50	4.1	94.5
157666	2026-02-10T10:00:50	4.7	94.5
157667	2026-02-10T10:10:50	5.5	94
157668	2026-02-10T10:20:50	6.1	91
157669	2026-02-10T10:30:50	6.4	91
157670	2026-02-10T10:40:50	6.6	91.5
157671	2026-02-10T10:50:50	7.1	89.5
157672	2026-02-10T11:00:50	7.4	89.5
157673	2026-02-10T11:10:50	7.3	88
157674	2026-02-10T11:20:50	7.4	89
157675	2026-02-10T11:30:50	7.7	88
157676	2026-02-10T11:40:50	7.8	87.5
157677	2026-02-10T11:50:50	8	86.5
157678	2026-02-10T12:00:50	8.4	86
157679	2026-02-10T12:10:50	8.4	85
157680	2026-02-10T12:20:50	8.3	86.5
157681	2026-02-10T12:30:50	8.6	86
157682	2026-02-10T12:40:50	9.1	84
157683	2026-02-10T12:50:50	9.2	84
157684	2026-02-10T13:00:50	9.6	82
157685	2026-02-10T13:10:50	9.4	83.5
157686	2026-02-10T13:20:50	9.6	85.5
157687	2026-02-10T13:30:50	10.3	83.5
157688	2026-02-10T13:40:50	10.3	85
157689	2026-02-10T13:50:50	10.5	84.5
157690	2026-02-10T14:00:50	10.3	85
157691	2026-02-10T14:10:50	10.3	85.5
157692	2026-02-10T14:20:50	10.2	85
157693	2026-02-10T14:30:50	10.4	83.5
157694	2026-02-10T14:40:50	10.5	83.5
157695	2026-02-10T14:50:50	10.5	83.5
157696	2026-02-10T15:00:50	10.8	83.5
157697	2026-02-10T15:10:50	12.4	79
157698	2026-02-10T15:20:50	12	77.5
157699	2026-02-10T15:30:50	11.7	79.5
157700	2026-02-10T15:40:50	11.1	81.5
157701	2026-02-10T15:50:50	10.9	82.5
157702	2026-02-10T16:00:50	11.1	82
157703	2026-02-10T16:10:50	10.7	83.5
157704	2026-02-10T16:20:50	10.4	84.5
157705	2026-02-10T16:30:50	10.4	85
157706	2026-02-10T16:40:50	10.3	85.5
157707	2026-02-10T16:50:50	10.2	86
157708	2026-02-10T17:00:50	10	89
157709	2026-02-10T17:10:50	9.8	90
157710	2026-02-10T17:20:50	9.6	91
157711	2026-02-10T17:30:50	9.6	91
157712	2026-02-10T17:40:50	9.5	91.5
157713	2026-02-10T17:50:50	9.4	92.5
157714	2026-02-10T18:00:50	9.3	93
157715	2026-02-10T18:10:50	9.2	93.5
157716	2026-02-10T18:20:50	8.8	94
157717	2026-02-10T18:30:50	8.7	95.5
157718	2026-02-10T18:40:50	8.8	95
157719	2026-02-10T18:50:50	8.8	95
157720	2026-02-10T19:00:50	8.6	95
157721	2026-02-10T19:10:50	8.5	95
157722	2026-02-10T19:20:50	8.4	95.5
157723	2026-02-10T19:30:50	8.4	95
157724	2026-02-10T19:40:50	8.4	95.5
157725	2026-02-10T19:50:50	8.5	95.5
157726	2026-02-10T20:00:50	8.5	97
157727	2026-02-10T20:10:50	8.5	96.5
157728	2026-02-10T20:20:50	8.5	97
157729	2026-02-10T20:30:50	8.5	96.5
157730	2026-02-10T20:40:50	8.4	97
157731	2026-02-10T20:50:50	8.5	97
157732	2026-02-10T21:00:50	8.3	97.5
157733	2026-02-10T21:10:49	8.3	97.5
157734	2026-02-10T21:20:49	8.2	98
157735	2026-02-10T21:30:49	8	98
157736	2026-02-10T21:40:50	7.6	99
157737	2026-02-10T21:50:49	7.5	99.5
157738	2026-02-10T22:00:49	7.6	99
157739	2026-02-10T22:10:49	7.3	99
157740	2026-02-10T22:20:49	7.1	99
157741	2026-02-10T22:30:49	7.3	99
157742	2026-02-10T22:40:49	7.4	98
157743	2026-02-10T22:50:49	7.4	98
157744	2026-02-10T23:00:49	7.4	97
157745	2026-02-10T23:10:49	7.6	97.5
157746	2026-02-10T23:20:49	7.6	97
157747	2026-02-10T23:30:49	7.7	97
157748	2026-02-10T23:40:49	7.8	99
157749	2026-02-10T23:50:49	7.6	100
157750	2026-02-11T00:00:49	7.6	100
157751	2026-02-11T00:10:49	7.5	100
157752	2026-02-11T00:20:49	7.6	100
157753	2026-02-11T00:30:49	7.6	100
157754	2026-02-11T00:40:49	7.6	100
157755	2026-02-11T00:50:49	7.7	100
157756	2026-02-11T01:00:49	7.7	100
157757	2026-02-11T01:10:49	7.9	100
157758	2026-02-11T01:20:49	8.2	100
157759	2026-02-11T01:30:49	8.3	100
157760	2026-02-11T01:40:49	8.4	100
157761	2026-02-11T01:50:49	8.4	100
157762	2026-02-11T02:00:49	8.5	100
157763	2026-02-11T02:10:49	8.5	100
157764	2026-02-11T02:20:49	8.6	100
157765	2026-02-11T02:30:49	8.8	100
157766	2026-02-11T02:40:49	9.1	100
157767	2026-02-11T02:50:49	9.2	100
157768	2026-02-11T03:00:49	9.5	100
157769	2026-02-11T03:10:49	9.8	100
157770	2026-02-11T03:20:49	9.9	100
157771	2026-02-11T03:30:49	10	100
157772	2026-02-11T03:40:49	10.1	100
157773	2026-02-11T03:50:49	10	100
157774	2026-02-11T04:00:49	10	100
157775	2026-02-11T04:10:49	10.1	100
157776	2026-02-11T04:20:49	10.1	100
157777	2026-02-11T04:30:49	10.2	100
157778	2026-02-11T04:40:49	9.9	100
157779	2026-02-11T04:50:49	9.7	100
157780	2026-02-11T05:00:49	9.7	100
157781	2026-02-11T05:10:49	9.9	100
157782	2026-02-11T05:20:49	10.1	100
157783	2026-02-11T05:30:49	10.3	100
157784	2026-02-11T05:40:49	10.6	100
157785	2026-02-11T05:50:49	10.6	100
157786	2026-02-11T06:00:49	9.6	100
157787	2026-02-11T06:10:49	9.5	100
157788	2026-02-11T06:20:49	9.4	100
157789	2026-02-11T06:30:49	9.4	100
157790	2026-02-11T06:40:49	9.4	100
157791	2026-02-11T06:50:49	9.4	99
157792	2026-02-11T07:00:49	9.3	98
157793	2026-02-11T07:10:49	9.4	97.5
157794	2026-02-11T07:20:49	9.3	97.5
157795	2026-02-11T07:30:49	9.6	97.5
157796	2026-02-11T07:40:49	9.7	97.5
157797	2026-02-11T07:50:49	9.7	97.5
157798	2026-02-11T08:00:49	9.6	97.5
157799	2026-02-11T08:10:49	9.8	97.5
157800	2026-02-11T08:20:49	10	97.5
157801	2026-02-11T08:30:49	10.1	98
157802	2026-02-11T08:40:49	10	97.5
157803	2026-02-11T08:50:49	10	97.5
157804	2026-02-11T09:00:49	10.1	97.5
157805	2026-02-11T09:10:49	10.4	97.5
157806	2026-02-11T09:20:49	10.4	97.5
157807	2026-02-11T09:30:49	10.7	97.5
157808	2026-02-11T09:40:49	10.9	97.5
157809	2026-02-11T09:50:49	11.1	97.5
157810	2026-02-11T10:00:49	11.2	97.5
157811	2026-02-11T10:10:49	11.3	97.5
157812	2026-02-11T10:20:49	11.4	98
157813	2026-02-11T10:30:49	11.5	97.5
157814	2026-02-11T10:40:49	11.3	97.5
157815	2026-02-11T10:50:49	11.4	97.5
157816	2026-02-11T11:00:49	11.5	97.5
157817	2026-02-11T11:10:49	10.8	97.5
157818	2026-02-11T11:20:49	10.6	97.5
157819	2026-02-11T11:30:49	10.5	97.5
157820	2026-02-11T11:40:49	10.3	97.5
157821	2026-02-11T11:50:49	10.3	97.5
157822	2026-02-11T12:00:49	10.3	98
157823	2026-02-11T12:10:49	10.4	97.5
157824	2026-02-11T12:20:49	10.3	97.5
157825	2026-02-11T12:30:49	10.6	97.5
157826	2026-02-11T12:40:49	10.7	98
157827	2026-02-11T12:50:49	10.4	97.5
157828	2026-02-11T13:00:49	10.1	97.5
157829	2026-02-11T13:10:49	10	98
157830	2026-02-11T13:20:49	9.9	98
157831	2026-02-11T13:30:49	9.8	98.5
157832	2026-02-11T13:40:49	9.8	98.5
157833	2026-02-11T13:50:49	9.6	98.5
157834	2026-02-11T14:00:49	10.8	98.5
157835	2026-02-11T14:10:49	10.7	98.5
157836	2026-02-11T14:20:49	12.4	98.5
157837	2026-02-11T14:30:49	12.4	98.5
157838	2026-02-11T14:40:49	11.5	98.5
157839	2026-02-11T14:50:48	11.2	98.5
157840	2026-02-11T15:00:49	10.5	98.5
157841	2026-02-11T15:10:48	10.3	98.5
157842	2026-02-11T15:20:48	10.4	98.5
157843	2026-02-11T15:30:48	10.4	98.5
157844	2026-02-11T15:40:48	10.3	98.5
157845	2026-02-11T15:50:48	10	98.5
157846	2026-02-11T16:00:48	10.1	98.5
157847	2026-02-11T16:10:48	9.9	98.5
157848	2026-02-11T16:20:48	9.9	98.5
157849	2026-02-11T16:30:48	10	98.5
157850	2026-02-11T16:40:48	10	98.5
157851	2026-02-11T16:50:48	9.9	98.5
157852	2026-02-11T17:00:48	9.7	98.5
157853	2026-02-11T17:10:48	9.6	98.5
157854	2026-02-11T17:20:48	9.5	98.5
157855	2026-02-11T17:30:48	9.5	98.5
157856	2026-02-11T17:40:48	9.6	98.5
157857	2026-02-11T17:50:48	9.6	98.5
157858	2026-02-11T18:00:48	9.4	98.5
157859	2026-02-11T18:10:48	9.7	98.5
157860	2026-02-11T18:20:48	9.5	98.5
157861	2026-02-11T18:30:48	9.3	99
157862	2026-02-11T18:40:48	9.3	98.5
157863	2026-02-11T18:50:48	9.2	98.5
157864	2026-02-11T19:00:48	9.1	98.5
157865	2026-02-11T19:10:48	9	99
157866	2026-02-11T19:20:48	8.9	98.5
157867	2026-02-11T19:30:48	8.9	98.5
157868	2026-02-11T19:40:48	8.8	98.5
157869	2026-02-11T19:50:48	8.8	99
157870	2026-02-11T20:00:48	8.8	98.5
157871	2026-02-11T20:10:48	8.7	99
157872	2026-02-11T20:20:48	8.7	99
157873	2026-02-11T20:30:48	8.6	99
157874	2026-02-11T20:40:48	8.7	98.5
157875	2026-02-11T20:50:48	8.4	98.5
157876	2026-02-11T21:00:48	8.4	98.5
157877	2026-02-11T21:10:48	8.2	98.5
157878	2026-02-11T21:20:48	8	98.5
157879	2026-02-11T21:30:48	7.8	98.5
157880	2026-02-11T21:40:48	7.9	99
157881	2026-02-11T21:50:48	8	98.5
157882	2026-02-11T22:00:48	7.9	98.5
157883	2026-02-11T22:10:48	8.1	99
157884	2026-02-11T22:20:48	8	99
157885	2026-02-11T22:30:48	8.2	99
157886	2026-02-11T22:40:48	8	98.5
157887	2026-02-11T22:50:48	7.8	99
157888	2026-02-11T23:00:48	7.7	98.5
157889	2026-02-11T23:10:48	7.5	98.5
157890	2026-02-11T23:20:48	7.5	98.5
157891	2026-02-11T23:30:48	7.6	99
157892	2026-02-11T23:40:48	7.5	98.5
157893	2026-02-11T23:50:48	7.5	98.5
157894	2026-02-12T00:00:48	7.6	98.5
157895	2026-02-12T00:10:48	7.5	98.5
157896	2026-02-12T00:20:48	7.4	98.5
157897	2026-02-12T00:30:48	7.5	98.5
157898	2026-02-12T00:40:48	7.4	98.5
157899	2026-02-12T00:50:48	7.5	98.5
157900	2026-02-12T01:00:48	7.6	98.5
157901	2026-02-12T01:10:48	7.5	98.5
157902	2026-02-12T01:20:48	7.5	98.5
157903	2026-02-12T01:30:48	7.6	98.5
157904	2026-02-12T01:40:48	7.6	98.5
157905	2026-02-12T01:50:48	7.7	98.5
157906	2026-02-12T02:00:48	7.6	98.5
157907	2026-02-12T02:10:48	7.7	98.5
157908	2026-02-12T02:20:48	7.7	98.5
157909	2026-02-12T02:30:48	7.9	98.5
157910	2026-02-12T02:40:48	8.1	98.5
157911	2026-02-12T02:50:48	8.4	98.5
157912	2026-02-12T03:00:48	8.8	98.5
157913	2026-02-12T03:10:48	9.1	98.5
157914	2026-02-12T03:20:48	9.2	98.5
157915	2026-02-12T03:30:48	9.2	98.5
157916	2026-02-12T03:40:48	9.2	98.5
157917	2026-02-12T03:50:48	8.8	98.5
157918	2026-02-12T04:00:48	8.8	98.5
157919	2026-02-12T04:10:48	9	98.5
157920	2026-02-12T04:20:48	9.4	98.5
157921	2026-02-12T04:30:48	9.4	98.5
157922	2026-02-12T04:40:48	9.4	98.5
157923	2026-02-12T04:50:48	9.5	98.5
157924	2026-02-12T05:00:48	9.5	98.5
157925	2026-02-12T05:10:48	9.5	98.5
157926	2026-02-12T05:20:48	9.4	98.5
157927	2026-02-12T05:30:48	9.5	98.5
157928	2026-02-12T05:40:48	9.5	98.5
157929	2026-02-12T05:50:48	9.7	98.5
157930	2026-02-12T06:00:48	9.6	98.5
157931	2026-02-12T06:10:48	9.6	98.5
157932	2026-02-12T06:20:48	9.3	98.5
157933	2026-02-12T06:30:48	8.7	98.5
157934	2026-02-12T06:40:48	8.7	98.5
157935	2026-02-12T06:50:48	8.7	98.5
157936	2026-02-12T07:00:48	8.6	98.5
157937	2026-02-12T07:10:48	8.7	98.5
157938	2026-02-12T07:20:48	8.7	98.5
157939	2026-02-12T07:30:48	8.6	98.5
157940	2026-02-12T07:40:48	8.7	98.5
157941	2026-02-12T07:50:48	8.7	98.5
157942	2026-02-12T08:00:48	8.6	98.5
157943	2026-02-12T08:10:48	8.6	98.5
157944	2026-02-12T08:20:48	8.7	98.5
157945	2026-02-12T08:30:48	8.7	98.5
157946	2026-02-12T08:40:48	9.1	98.5
157947	2026-02-12T08:50:47	9.2	98.5
157948	2026-02-12T09:00:47	9.3	98.5
157949	2026-02-12T09:10:47	9.8	99
157950	2026-02-12T09:20:47	9.6	99
157951	2026-02-12T09:30:47	9.5	99
157952	2026-02-12T09:40:47	9.6	99
157953	2026-02-12T09:50:47	9.6	99
157954	2026-02-12T10:00:47	9.3	99
157955	2026-02-12T10:10:47	9	98.5
157956	2026-02-12T10:20:47	9	99
157957	2026-02-12T10:30:47	8.6	99
157958	2026-02-12T10:40:47	8.7	98.5
157959	2026-02-12T10:50:47	8.7	99
157960	2026-02-12T11:00:47	8.7	99
157961	2026-02-12T11:10:47	8.7	99
157962	2026-02-12T11:20:47	8.6	98.5
157963	2026-02-12T11:30:47	8.5	99
157964	2026-02-12T11:40:47	8.5	98.5
157965	2026-02-12T11:50:47	8.6	99
157966	2026-02-12T12:00:47	8.5	99
157967	2026-02-12T12:10:47	8.4	99
157968	2026-02-12T12:20:47	8.4	99
157969	2026-02-12T12:30:47	8.4	99
157970	2026-02-12T12:40:47	8.4	99
157971	2026-02-12T12:50:47	8.6	99
157972	2026-02-12T13:00:47	8.7	99
157973	2026-02-12T13:10:47	9.1	99
157974	2026-02-12T13:20:47	9.6	99
157975	2026-02-12T13:30:47	10	99
157976	2026-02-12T13:40:47	10.6	99
157977	2026-02-12T13:50:47	10.7	99
157978	2026-02-12T14:00:47	10	99
157979	2026-02-12T14:10:47	10.2	99
157980	2026-02-12T14:20:47	10.3	99
157981	2026-02-12T14:30:47	9.5	99
157982	2026-02-12T14:40:47	9	99
157983	2026-02-12T14:50:47	8.6	99
157984	2026-02-12T15:00:47	8.6	99
157985	2026-02-12T15:10:47	8.3	99
157986	2026-02-12T15:20:47	8.8	99
157987	2026-02-12T15:30:47	8.6	99
157988	2026-02-12T15:40:47	8.6	99
157989	2026-02-12T15:50:47	8.6	99
157990	2026-02-12T16:00:47	8.5	99
157991	2026-02-12T16:10:47	8.5	99
157992	2026-02-12T16:20:47	8.5	99
157993	2026-02-12T16:30:47	8.3	99
157994	2026-02-12T16:40:47	8.2	99
157995	2026-02-12T16:50:47	8.2	99
157996	2026-02-12T17:00:47	8.2	99
157997	2026-02-12T17:10:47	8.2	99
157998	2026-02-12T17:20:47	8.3	99
157999	2026-02-12T17:30:47	8.3	99
158000	2026-02-12T17:40:47	8.2	99
158001	2026-02-12T17:50:47	8.1	99
158002	2026-02-12T18:00:47	8.2	99
158003	2026-02-12T18:10:47	8.1	99
158004	2026-02-12T18:20:47	8.1	99
158005	2026-02-12T18:30:47	8.1	99
158006	2026-02-12T18:40:47	8.2	99
158007	2026-02-12T18:50:47	8.3	99
158008	2026-02-12T19:00:47	8.4	99
158009	2026-02-12T19:10:47	8.4	99
158010	2026-02-12T19:20:47	8	99
158011	2026-02-12T19:30:47	7.9	99
158012	2026-02-12T19:40:47	7.7	99
158013	2026-02-12T19:50:47	7.7	99
158014	2026-02-12T20:00:47	7.7	99
158015	2026-02-12T20:10:47	7.7	99
158016	2026-02-12T20:20:47	7.7	99
158017	2026-02-12T20:30:47	7.7	99
158018	2026-02-12T20:40:47	7.6	99
158019	2026-02-12T20:50:47	7.6	99
158020	2026-02-12T21:00:47	7.6	99
158021	2026-02-12T21:10:47	7.6	99
158022	2026-02-12T21:20:47	7.3	99
158023	2026-02-12T21:30:47	7.1	99
158024	2026-02-12T21:40:47	7.1	99
158025	2026-02-12T21:50:47	7.1	99
158026	2026-02-12T22:00:47	7	99
158027	2026-02-12T22:10:47	7.2	99
158028	2026-02-12T22:20:47	7	99
158029	2026-02-12T22:30:47	7	99
158030	2026-02-12T22:40:47	7.1	99
158031	2026-02-12T22:50:47	7.2	99
158032	2026-02-12T23:00:47	7.2	99
158033	2026-02-12T23:10:47	7.3	99
158034	2026-02-12T23:20:47	7.5	99
158035	2026-02-12T23:30:47	7.6	99
158036	2026-02-12T23:40:47	7.5	99
158037	2026-02-12T23:50:47	7.5	99
158038	2026-02-13T00:00:47	7.5	99
158039	2026-02-13T00:10:47	7.5	99
158040	2026-02-13T00:20:47	7.4	99
158041	2026-02-13T00:30:47	7.4	99
158042	2026-02-13T00:40:47	7.5	99
158043	2026-02-13T00:50:47	7.5	99
158044	2026-02-13T01:00:47	7.6	99
158045	2026-02-13T01:10:47	7.5	99
158046	2026-02-13T01:20:47	7.5	99
158047	2026-02-13T01:30:47	7.5	99
158048	2026-02-13T01:40:47	7.5	99
158049	2026-02-13T01:50:47	7.6	99
158050	2026-02-13T02:00:47	7.6	99
158051	2026-02-13T02:10:47	7.5	99
158052	2026-02-13T02:20:47	7.6	99
158053	2026-02-13T02:30:47	7.5	99
158054	2026-02-13T02:40:47	7.6	99
158055	2026-02-13T02:50:47	7.5	99
158056	2026-02-13T03:00:47	7.5	99
158057	2026-02-13T03:10:47	7.4	99
158058	2026-02-13T03:20:47	6.9	98.5
158059	2026-02-13T03:30:47	7	99
158060	2026-02-13T03:40:47	7.2	99
158061	2026-02-13T03:50:47	7.4	99
158062	2026-02-13T04:00:47	7.4	99
158063	2026-02-13T04:10:47	7.4	98.5
158064	2026-02-13T04:20:47	7.5	99
158065	2026-02-13T04:30:47	7.5	98.5
158066	2026-02-13T04:40:47	7.5	99
158067	2026-02-13T04:50:47	7.6	99
158068	2026-02-13T05:00:47	7.5	99
158069	2026-02-13T05:10:47	7.5	98.5
158070	2026-02-13T05:20:46	7.3	98.5
158071	2026-02-13T05:30:46	7.4	98.5
158072	2026-02-13T05:40:46	7.4	99
158073	2026-02-13T05:50:46	7.3	99
158074	2026-02-13T06:00:46	7.3	99
158075	2026-02-13T06:10:47	7.3	98.5
158076	2026-02-13T06:20:46	7.4	98.5
158077	2026-02-13T06:30:46	7.2	98.5
158078	2026-02-13T06:40:46	6.9	100
158079	2026-02-13T06:50:46	6.5	100
158080	2026-02-13T07:00:46	6.4	100
158081	2026-02-13T07:10:46	6.5	100
158082	2026-02-13T07:20:46	6.5	100
158083	2026-02-13T07:30:46	6.6	100
158084	2026-02-13T07:40:46	6.7	100
158085	2026-02-13T07:50:46	6.9	100
158086	2026-02-13T08:00:46	6.7	100
158087	2026-02-13T08:10:46	7	100
158088	2026-02-13T08:20:46	7	100
158089	2026-02-13T08:30:46	7.3	100
158090	2026-02-13T08:40:46	7.4	100
158091	2026-02-13T08:50:46	7.4	100
158092	2026-02-13T09:00:46	7.5	100
158093	2026-02-13T09:10:46	7.7	100
158094	2026-02-13T09:20:46	8	100
158095	2026-02-13T09:30:46	8.3	100
158096	2026-02-13T09:40:46	8.5	100
158097	2026-02-13T09:50:46	8.8	100
158098	2026-02-13T10:00:46	9	100
158099	2026-02-13T10:10:46	9.1	95.5
158100	2026-02-13T10:20:46	9.2	92
158101	2026-02-13T10:30:46	9.4	88.5
158102	2026-02-13T10:40:46	9.6	86
158103	2026-02-13T10:50:46	9.8	86
158104	2026-02-13T11:00:46	9.9	85.5
158105	2026-02-13T11:10:46	10.1	82.5
158106	2026-02-13T11:20:46	10.3	82
158107	2026-02-13T11:30:46	10.4	83
158108	2026-02-13T11:40:46	10.6	83
158109	2026-02-13T11:50:46	10.7	80.5
158110	2026-02-13T12:00:46	10.9	80.5
158111	2026-02-13T12:10:46	11	78.5
158112	2026-02-13T12:20:46	11.5	78.5
158113	2026-02-13T12:30:46	12.2	74.5
158114	2026-02-13T12:40:46	12.6	72.5
158115	2026-02-13T12:50:46	12.9	70.5
158116	2026-02-13T13:00:46	12.5	69.5
158117	2026-02-13T13:10:46	12.3	72.5
158118	2026-02-13T13:20:46	12.1	71.5
158119	2026-02-13T13:30:46	11.8	71
158120	2026-02-13T13:40:46	11.8	73
158121	2026-02-13T13:50:46	11.9	72
158122	2026-02-13T14:00:46	11.8	72.5
158123	2026-02-13T14:10:46	11.6	73.5
158124	2026-02-13T14:20:46	11.4	74
158125	2026-02-13T14:30:46	11.1	74
158126	2026-02-13T14:40:46	11	74.5
158127	2026-02-13T14:50:46	10.9	78.5
158128	2026-02-13T15:00:46	10.7	79
158129	2026-02-13T15:10:46	10.5	78.5
158130	2026-02-13T15:20:46	10.4	78
158131	2026-02-13T15:30:46	10.3	82
158132	2026-02-13T15:40:46	10.2	84
158133	2026-02-13T15:50:46	10.1	87
158134	2026-02-13T16:00:46	9.9	90
158135	2026-02-13T16:10:46	9.8	94
158136	2026-02-13T16:20:46	9.6	94.5
158137	2026-02-13T16:30:46	9.6	96.5
158138	2026-02-13T16:40:46	9.5	96.5
158139	2026-02-13T16:50:46	9.4	97.5
158140	2026-02-13T17:00:46	9.2	97.5
158141	2026-02-13T17:10:46	9.1	97
158142	2026-02-13T17:20:46	8.9	96
158143	2026-02-13T17:30:46	8.9	98.5
158144	2026-02-13T17:40:46	8.8	99.5
158145	2026-02-13T17:50:46	8.7	99.5
158146	2026-02-13T18:00:46	8.7	99
158147	2026-02-13T18:10:46	8.7	97.5
158148	2026-02-13T18:20:46	8.4	96.5
158149	2026-02-13T18:30:46	8.4	96.5
158150	2026-02-13T18:40:46	8.3	96.5
158151	2026-02-13T18:50:46	8.2	97
158152	2026-02-13T19:00:46	8.1	95.5
158153	2026-02-13T19:10:46	8	96.5
158154	2026-02-13T19:20:46	7.9	96.5
158155	2026-02-13T19:30:46	7.8	96
158156	2026-02-13T19:40:46	7.7	97
158157	2026-02-13T19:50:46	7.6	96
158158	2026-02-13T20:00:46	7.4	98
158159	2026-02-13T20:10:46	7.1	99.5
158160	2026-02-13T20:20:46	7	100
158161	2026-02-13T20:30:46	7.1	99.5
158162	2026-02-13T20:40:46	7.1	99
158163	2026-02-13T20:50:46	7.1	99.5
158164	2026-02-13T21:00:46	7.1	99.5
158165	2026-02-13T21:10:46	7.1	100
158166	2026-02-13T21:20:46	7	100
158167	2026-02-13T21:30:46	7	100
158168	2026-02-13T21:40:46	7	100
158169	2026-02-13T21:50:46	7.1	99.5
158170	2026-02-13T22:00:46	7	99.5
158171	2026-02-13T22:10:46	7	99
158172	2026-02-13T22:20:46	7.1	99
158173	2026-02-13T22:30:46	7.1	99.5
158174	2026-02-13T22:40:46	7.1	98.5
158175	2026-02-13T22:50:46	7.1	99
158176	2026-02-13T23:00:46	7.1	99.5
158177	2026-02-13T23:10:46	7.1	99.5
158178	2026-02-13T23:20:46	7.1	99
158179	2026-02-13T23:30:45	7	99
158180	2026-02-13T23:40:45	7.1	98.5
158181	2026-02-13T23:50:45	7.1	99.5
158182	2026-02-14T00:00:45	7.1	99
158183	2026-02-14T00:10:45	7	99.5
158184	2026-02-14T00:20:45	7	99.5
158185	2026-02-14T00:30:45	7	100
158186	2026-02-14T00:40:45	7	98.5
158187	2026-02-14T00:50:45	7	99
158188	2026-02-14T01:00:45	6.9	99
158189	2026-02-14T01:10:45	7	100
158190	2026-02-14T01:20:45	6.9	100
158191	2026-02-14T01:30:45	6.8	100
158192	2026-02-14T01:40:45	6.9	100
158193	2026-02-14T01:50:45	6.8	100
158194	2026-02-14T02:00:45	6.8	100
158195	2026-02-14T02:10:45	6.7	100
158196	2026-02-14T02:20:45	6.6	100
158197	2026-02-14T02:30:45	6.5	100
158198	2026-02-14T02:40:45	6.6	100
158199	2026-02-14T02:50:45	6.5	100
158200	2026-02-14T03:00:45	6.4	100
158201	2026-02-14T03:10:45	6.4	100
158202	2026-02-14T03:20:45	6.3	100
158203	2026-02-14T03:30:45	6.2	100
158204	2026-02-14T03:40:45	6.2	100
158205	2026-02-14T03:50:45	6.2	100
158206	2026-02-14T04:00:45	6.2	100
158207	2026-02-14T04:10:45	6.2	100
158208	2026-02-14T04:20:45	6.1	100
158209	2026-02-14T04:30:45	6	100
158210	2026-02-14T04:40:45	6	100
158211	2026-02-14T04:50:45	6.1	100
158212	2026-02-14T05:00:45	5.9	100
158213	2026-02-14T05:10:45	6	100
158214	2026-02-14T05:20:45	6	100
158215	2026-02-14T05:30:45	5.9	100
158216	2026-02-14T05:40:45	6	100
158217	2026-02-14T05:50:45	6	100
158218	2026-02-14T06:00:45	6	100
158219	2026-02-14T06:10:45	6.1	100
158220	2026-02-14T06:20:45	5.9	100
158221	2026-02-14T06:30:45	6	100
158222	2026-02-14T06:40:45	6	100
158223	2026-02-14T06:50:45	5.9	100
158224	2026-02-14T07:00:45	5.7	100
158225	2026-02-14T07:10:45	5.7	100
158226	2026-02-14T07:20:45	5.6	100
158227	2026-02-14T07:30:45	5.6	100
158228	2026-02-14T07:40:45	5.4	100
158229	2026-02-14T07:50:45	5.5	100
158230	2026-02-14T08:00:45	5.4	100
158231	2026-02-14T08:10:45	5.3	100
158232	2026-02-14T08:20:45	5.3	100
158233	2026-02-14T08:30:45	5.3	100
158234	2026-02-14T08:40:45	5.2	100
158235	2026-02-14T08:50:45	5.3	100
158236	2026-02-14T09:00:45	5.2	100
158237	2026-02-14T09:10:45	5.1	100
158238	2026-02-14T09:20:45	5.2	100
158239	2026-02-14T09:30:45	5.1	100
158240	2026-02-14T09:40:45	5.2	100
158241	2026-02-14T09:50:45	5.1	100
158242	2026-02-14T10:00:45	5.2	100
158243	2026-02-14T10:10:45	5.1	100
158244	2026-02-14T10:20:45	5.1	99.5
158245	2026-02-14T10:30:45	5	99.5
158246	2026-02-14T10:40:45	5.1	99.5
158247	2026-02-14T10:50:45	4.9	98.5
158248	2026-02-14T11:00:45	4.9	99.5
158249	2026-02-14T11:10:45	4.9	99
158250	2026-02-14T11:20:45	4.8	98.5
158251	2026-02-14T11:30:45	4.8	98
158252	2026-02-14T11:40:45	4.6	98
158253	2026-02-14T11:50:45	4.6	96.5
158254	2026-02-14T12:00:45	4.5	97
158255	2026-02-14T12:10:45	4.5	97
158256	2026-02-14T12:20:45	4.5	97.5
158257	2026-02-14T12:30:45	4.5	97.5
158258	2026-02-14T12:40:45	4.4	96.5
158259	2026-02-14T12:50:45	4.3	96.5
158260	2026-02-14T13:00:45	4.4	97.5
158261	2026-02-14T13:10:45	4.4	97
158262	2026-02-14T13:20:45	4.3	97
158263	2026-02-14T13:30:45	4.2	100
158264	2026-02-14T13:40:45	4.1	98.5
158265	2026-02-14T13:50:45	4	99.5
158266	2026-02-14T14:00:45	3.9	100
158267	2026-02-14T14:10:45	3.9	100
158268	2026-02-14T14:20:45	3.9	100
158269	2026-02-14T14:30:45	3.7	100
158270	2026-02-14T14:40:45	3.8	100
158271	2026-02-14T14:50:45	3.6	100
158272	2026-02-14T15:00:45	3.5	100
158273	2026-02-14T15:10:45	3.5	100
158274	2026-02-14T15:20:45	3.5	100
158275	2026-02-14T15:30:45	3.4	100
158276	2026-02-14T15:40:45	3.4	100
158277	2026-02-14T15:50:45	3.2	100
158278	2026-02-14T16:00:45	3.3	100
158279	2026-02-14T16:10:45	3.1	100
158280	2026-02-14T16:20:45	3	100
158281	2026-02-14T16:30:45	2.9	100
158282	2026-02-14T16:40:45	2.9	100
158283	2026-02-14T16:50:45	2.9	100
158284	2026-02-14T17:00:45	2.9	100
158285	2026-02-14T17:10:45	2.8	100
158286	2026-02-14T17:20:45	2.8	100
158287	2026-02-14T17:30:45	2.7	100
158288	2026-02-14T17:40:45	2.5	100
158289	2026-02-14T17:50:45	2.6	100
158290	2026-02-14T18:00:45	2.6	100
158291	2026-02-14T18:10:45	2.4	100
158292	2026-02-14T18:20:45	2.5	100
158293	2026-02-14T18:30:45	2.5	100
158294	2026-02-14T18:40:45	2.5	100
158295	2026-02-14T18:50:45	2.5	100
158296	2026-02-14T19:00:45	2.5	100
158297	2026-02-14T19:10:45	2.4	100
158298	2026-02-14T19:20:45	2.4	100
158299	2026-02-14T19:30:45	2.4	100
158300	2026-02-14T19:40:45	2.4	100
158301	2026-02-14T19:50:45	2.4	100
158302	2026-02-14T20:00:45	2.4	100
158303	2026-02-14T20:10:45	2.5	100
158304	2026-02-14T20:20:45	2.5	100
158305	2026-02-14T20:30:45	2.4	100
158306	2026-02-14T20:40:45	2.4	100
158307	2026-02-14T20:50:45	2.4	100
158308	2026-02-14T21:00:45	2.3	100
158309	2026-02-14T21:10:45	2.4	100
158310	2026-02-14T21:20:45	2.4	100
158311	2026-02-14T21:30:45	2.3	100
158312	2026-02-14T21:40:45	2.3	100
158313	2026-02-14T21:50:45	2.3	100
158314	2026-02-14T22:00:45	2.2	100
158315	2026-02-14T22:10:45	2.3	100
158316	2026-02-14T22:20:45	2.4	100
158317	2026-02-14T22:30:45	2.2	99.5
158318	2026-02-14T22:40:45	2.1	97.5
158319	2026-02-14T22:50:45	2.2	98.5
158320	2026-02-14T23:00:45	2.2	99
158321	2026-02-14T23:10:45	2	98
158322	2026-02-14T23:20:45	2.1	98
158323	2026-02-14T23:30:45	2.2	98
158324	2026-02-14T23:40:45	2	97.5
158325	2026-02-14T23:50:45	2	98
158326	2026-02-15T00:00:45	2.1	97.5
158327	2026-02-15T00:10:45	2	97.5
158328	2026-02-15T00:20:45	1.9	98
158329	2026-02-15T00:30:45	1.9	98
158330	2026-02-15T00:40:45	1.9	99
158331	2026-02-15T00:50:45	2	99.5
158332	2026-02-15T01:00:45	1.9	98.5
158333	2026-02-15T01:10:45	1.9	99
158334	2026-02-15T01:20:45	1.8	100
158335	2026-02-15T01:30:45	2.1	100
158336	2026-02-15T01:40:45	2	100
158337	2026-02-15T01:50:45	1.9	100
158338	2026-02-15T02:00:45	1.9	100
158339	2026-02-15T02:10:45	2	98
158340	2026-02-15T02:20:45	1.9	99.5
158341	2026-02-15T02:30:45	1.9	100
158342	2026-02-15T02:40:45	1.8	100
158343	2026-02-15T02:50:45	1.9	100
158344	2026-02-15T03:00:45	1.9	100
158345	2026-02-15T03:10:45	1.8	100
158346	2026-02-15T03:20:45	1.9	100
158347	2026-02-15T03:30:45	1.9	100
158348	2026-02-15T03:40:45	1.8	100
158349	2026-02-15T03:50:45	1.8	100
158350	2026-02-15T04:00:45	1.8	99.5
158351	2026-02-15T04:10:45	1.9	100
158352	2026-02-15T04:20:45	1.9	100
158353	2026-02-15T04:30:45	1.9	100
158354	2026-02-15T04:40:45	1.9	100
158355	2026-02-15T04:50:45	1.9	100
158356	2026-02-15T05:00:45	1.8	100
158357	2026-02-15T05:10:45	1.8	100
158358	2026-02-15T05:20:45	1.8	100
158359	2026-02-15T05:30:45	1.8	100
158360	2026-02-15T05:40:45	1.8	100
158361	2026-02-15T05:50:45	1.6	100
158362	2026-02-15T06:00:45	1.7	100
158363	2026-02-15T06:10:45	1.7	100
158364	2026-02-15T06:20:45	1.8	100
158365	2026-02-15T06:30:45	1.6	100
158366	2026-02-15T06:40:45	1.6	100
158367	2026-02-15T06:50:45	1.7	100
158368	2026-02-15T07:00:45	1.6	100
158369	2026-02-15T07:10:45	1.7	100
158370	2026-02-15T07:20:45	1.8	100
158371	2026-02-15T07:30:45	1.9	100
158372	2026-02-15T07:40:45	1.9	100
158373	2026-02-15T07:50:45	2	99.5
158374	2026-02-15T08:00:45	2.2	99
158375	2026-02-15T08:10:45	2.3	97.5
158376	2026-02-15T08:20:45	2.4	97.5
158377	2026-02-15T08:30:45	2.5	96
158378	2026-02-15T08:40:45	2.7	96
158379	2026-02-15T08:50:45	2.9	96
158380	2026-02-15T09:00:45	2.9	95.5
158381	2026-02-15T09:10:45	3	94.5
158382	2026-02-15T09:20:45	3.1	93.5
158383	2026-02-15T09:30:45	3.3	95
158384	2026-02-15T09:40:45	3.4	96
158385	2026-02-15T09:50:45	3.7	95.5
158386	2026-02-15T10:00:45	3.8	94.5
158387	2026-02-15T10:10:45	4.2	95
158388	2026-02-15T10:20:45	4.7	91.5
158389	2026-02-15T10:30:45	4.7	91
158390	2026-02-15T10:40:44	5	91.5
158391	2026-02-15T10:50:44	5.5	91.5
158392	2026-02-15T11:00:44	6	88
158393	2026-02-15T11:10:44	6.1	88
158394	2026-02-15T11:20:44	6.5	86.5
158395	2026-02-15T11:30:44	6.5	85
158396	2026-02-15T11:40:44	6.5	85.5
158397	2026-02-15T11:50:44	6.8	84.5
158398	2026-02-15T12:00:45	6.8	79
158399	2026-02-15T12:10:44	6.9	76.5
158400	2026-02-15T12:20:44	7.3	79
158401	2026-02-15T12:30:44	7.2	77.5
158402	2026-02-15T12:40:44	7.9	80
158403	2026-02-15T12:50:44	7.5	76
158404	2026-02-15T13:00:44	7.6	77.5
158405	2026-02-15T13:10:44	6.8	73.5
158406	2026-02-15T13:20:44	6.6	75
158407	2026-02-15T13:30:44	7.1	77
158408	2026-02-15T13:40:44	7.6	78
158409	2026-02-15T13:50:44	7.2	73.5
158410	2026-02-15T14:00:44	6.8	74.5
158411	2026-02-15T14:10:44	7	76.5
158412	2026-02-15T14:20:44	6.8	77.5
158413	2026-02-15T14:30:44	6.5	80
158414	2026-02-15T14:40:44	6.4	79
158415	2026-02-15T14:50:44	6.2	79
158416	2026-02-15T15:00:44	6.4	77.5
158417	2026-02-15T15:10:44	6.2	79.5
158418	2026-02-15T15:20:44	8.2	75.5
158419	2026-02-15T15:30:44	9.5	71.5
158420	2026-02-15T15:40:44	7	78
158421	2026-02-15T15:50:44	5.7	81
158422	2026-02-15T16:00:44	5.1	85
158423	2026-02-15T16:10:44	4.8	85.5
158424	2026-02-15T16:20:44	4.7	87
158425	2026-02-15T16:30:44	4.5	86.5
158426	2026-02-15T16:40:44	4.4	86.5
158427	2026-02-15T16:50:44	4.2	86
158428	2026-02-15T17:00:44	4.1	87
158429	2026-02-15T17:10:44	4.1	87
158430	2026-02-15T17:20:44	3.9	87.5
158431	2026-02-15T17:30:44	4	86.5
158432	2026-02-15T17:40:44	4	85.5
158433	2026-02-15T17:50:44	4	86.5
158434	2026-02-15T18:00:44	3.9	86
158435	2026-02-15T18:10:44	4	85.5
158436	2026-02-15T18:20:44	4.1	85
158437	2026-02-15T18:30:44	4	84
158438	2026-02-15T18:40:44	4	91
158439	2026-02-15T18:50:44	3.2	100
158440	2026-02-15T19:00:44	3	100
158441	2026-02-15T19:10:44	3	100
158442	2026-02-15T19:20:44	3.1	100
158443	2026-02-15T19:30:44	3	100
158444	2026-02-15T19:40:44	2.9	100
158445	2026-02-15T19:50:44	2.8	100
158446	2026-02-15T20:00:44	2.9	100
158447	2026-02-15T20:10:44	2.9	100
158448	2026-02-15T20:20:44	2.8	100
158449	2026-02-15T20:30:44	2.9	100
158450	2026-02-15T20:40:44	2.8	100
158451	2026-02-15T20:50:44	2.8	100
158452	2026-02-15T21:00:44	2.9	100
158453	2026-02-15T21:10:44	2.9	100
158454	2026-02-15T21:20:44	2.9	100
158455	2026-02-15T21:30:44	2.7	100
158456	2026-02-15T21:40:44	2.6	100
158457	2026-02-15T21:50:44	2.4	100
158458	2026-02-15T22:00:44	2.6	100
158459	2026-02-15T22:10:44	2.7	100
158460	2026-02-15T22:20:44	2.9	100
158461	2026-02-15T22:30:44	2.6	100
158462	2026-02-15T22:40:44	2.8	100
158463	2026-02-15T22:50:44	2.8	100
158464	2026-02-15T23:00:44	2.7	100
158465	2026-02-15T23:10:44	2.9	100
158466	2026-02-15T23:20:44	2.9	100
158467	2026-02-15T23:30:44	4.2	100
158468	2026-02-15T23:40:44	4.7	100
158469	2026-02-15T23:50:44	4.8	100
158470	2026-02-16T00:00:44	5	100
158471	2026-02-16T00:10:44	5.2	100
158472	2026-02-16T00:20:44	5.2	100
158473	2026-02-16T00:30:44	5.3	100
158474	2026-02-16T00:40:44	5.4	100
158475	2026-02-16T00:50:44	5.5	100
158476	2026-02-16T01:00:44	5.6	100
158477	2026-02-16T01:10:44	5.9	100
158478	2026-02-16T01:20:44	5.9	100
158479	2026-02-16T01:30:44	6.1	100
158480	2026-02-16T01:40:44	6.4	100
158481	2026-02-16T01:50:44	6.5	100
158482	2026-02-16T02:00:44	6.6	100
158483	2026-02-16T02:10:44	6.6	100
158484	2026-02-16T02:20:44	6.4	100
158485	2026-02-16T02:30:44	6.3	100
158486	2026-02-16T02:40:44	6.4	100
158487	2026-02-16T02:50:44	6.2	100
158488	2026-02-16T03:00:44	6.3	100
158489	2026-02-16T03:10:44	6.2	100
158490	2026-02-16T03:20:44	6.1	100
158491	2026-02-16T03:30:44	6	100
158492	2026-02-16T03:40:44	6.1	100
158493	2026-02-16T03:50:44	5.9	98.5
158494	2026-02-16T04:00:44	5.7	98.5
158495	2026-02-16T04:10:44	5.8	98.5
158496	2026-02-16T04:20:44	5.8	98.5
158497	2026-02-16T04:30:44	5.7	98.5
158498	2026-02-16T04:40:44	5.8	98.5
158499	2026-02-16T04:50:44	5.7	98.5
158500	2026-02-16T05:00:44	5.6	98
158501	2026-02-16T05:10:44	5.6	98
158502	2026-02-16T05:20:44	5.5	98
158503	2026-02-16T05:30:44	5.5	98.5
158504	2026-02-16T05:40:44	5.5	98.5
158505	2026-02-16T05:50:44	5.6	98.5
158506	2026-02-16T06:00:44	5.5	98.5
158507	2026-02-16T06:10:44	5.4	98.5
158508	2026-02-16T06:20:44	5.5	98.5
158509	2026-02-16T06:30:44	5.6	98.5
158510	2026-02-16T06:40:44	5.7	98.5
158511	2026-02-16T06:50:44	5.7	98.5
158512	2026-02-16T07:00:44	5.7	98.5
158513	2026-02-16T07:10:44	5.8	98.5
158514	2026-02-16T07:20:44	6	98.5
158515	2026-02-16T07:31:06	6.2	98.5
158516	2026-02-16T07:40:44	6.2	98.5
158517	2026-02-16T07:50:44	6.2	98.5
158518	2026-02-16T08:00:44	5.8	98.5
158519	2026-02-16T08:10:44	5.7	98.5
158520	2026-02-16T08:20:44	5.7	98.5
158521	2026-02-16T08:30:44	5.8	98.5
158522	2026-02-16T08:40:44	5.9	98.5
158523	2026-02-16T08:50:44	6.3	98.5
158524	2026-02-16T09:00:44	6.3	98.5
158525	2026-02-16T09:10:44	5.9	98.5
158526	2026-02-16T09:20:44	6	98.5
158527	2026-02-16T09:30:44	5.9	98.5
158528	2026-02-16T09:40:44	5.8	98.5
158529	2026-02-16T09:50:44	5.8	98.5
158530	2026-02-16T10:00:44	6.2	98.5
158531	2026-02-16T10:10:44	6.7	98.5
158532	2026-02-16T10:20:58	6.9	98
158533	2026-02-16T10:30:44	6.8	98
158534	2026-02-16T10:40:44	6.4	98
158535	2026-02-16T10:50:44	6.5	98
158536	2026-02-16T11:00:44	7.2	98.5
158537	2026-02-16T11:10:44	7.5	98
158538	2026-02-16T11:20:44	8	98.5
158539	2026-02-16T11:30:44	8.3	98.5
158540	2026-02-16T11:40:44	7.7	98
158541	2026-02-16T11:50:44	6.8	98
158542	2026-02-16T12:00:44	6.8	98
158543	2026-02-16T12:10:44	7.1	98
158544	2026-02-16T12:20:44	7.6	98
158545	2026-02-16T12:30:44	7.7	98.5
158546	2026-02-16T12:40:44	7.7	98
158547	2026-02-16T12:50:44	6.7	98
158548	2026-02-16T13:00:44	8.2	98
158549	2026-02-16T13:10:44	8.7	98
158550	2026-02-16T13:20:44	8	98
158551	2026-02-16T13:30:43	7.7	98.5
158552	2026-02-16T13:40:43	7.6	98.5
158553	2026-02-16T13:50:43	8	98
158554	2026-02-16T14:00:43	7.6	98.5
158555	2026-02-16T14:10:43	7.2	98
158556	2026-02-16T14:20:43	6.4	98
158557	2026-02-16T14:30:43	6.4	98.5
158558	2026-02-16T14:40:43	6.2	98.5
158559	2026-02-16T14:50:43	6.1	98.5
158560	2026-02-16T15:00:43	6.2	98.5
158561	2026-02-16T15:10:43	6.2	98.5
158562	2026-02-16T15:20:43	6	98
158563	2026-02-16T15:30:43	6.1	98.5
158564	2026-02-16T15:40:43	5.9	98.5
158565	2026-02-16T15:50:43	5.7	98
158566	2026-02-16T16:00:44	5.8	98.5
158567	2026-02-16T16:10:43	6.2	98.5
158568	2026-02-16T16:20:43	7.9	98.5
158569	2026-02-16T16:30:43	7	98.5
158570	2026-02-16T16:40:43	5.4	98.5
158571	2026-02-16T16:50:43	5.3	98.5
158572	2026-02-16T17:00:43	5.2	98.5
158573	2026-02-16T17:10:43	5.2	98.5
158574	2026-02-16T17:20:43	5.1	98.5
158575	2026-02-16T17:30:43	5	98
158576	2026-02-16T17:40:43	4.9	98
158577	2026-02-16T17:50:43	5	98.5
158578	2026-02-16T18:00:43	4.9	98
158579	2026-02-16T18:10:43	5	98.5
158580	2026-02-16T18:20:43	4.9	98.5
158581	2026-02-16T18:30:43	4.9	98
158582	2026-02-16T18:40:43	5	98
158583	2026-02-16T18:50:43	4.7	98
158584	2026-02-16T19:00:43	4.7	98
158585	2026-02-16T19:10:43	4.9	98
158586	2026-02-16T19:20:43	5	98
158587	2026-02-16T19:30:43	5	98
158588	2026-02-16T19:40:43	5.3	98
158589	2026-02-16T19:50:43	5.4	98
158590	2026-02-16T20:00:43	5.5	98
158591	2026-02-16T20:10:43	5.6	98.5
158592	2026-02-16T20:20:43	5.6	98
158593	2026-02-16T20:30:43	5.7	98
158594	2026-02-16T20:40:43	5.7	98.5
158595	2026-02-16T20:51:01	5.5	98
158596	2026-02-16T21:00:43	5.4	98
158597	2026-02-16T21:10:43	4.6	98
158598	2026-02-16T21:20:43	4.5	98
158599	2026-02-16T21:30:43	4.5	98
158600	2026-02-16T21:40:43	4.4	98
158601	2026-02-16T21:50:43	4.6	98
158602	2026-02-16T22:00:43	4.8	98
158603	2026-02-16T22:10:43	4.9	98
158604	2026-02-16T22:21:01	5.1	98
158605	2026-02-16T22:30:43	5.1	98
158606	2026-02-16T22:40:43	5.1	98
158607	2026-02-16T22:50:43	5.1	98
158608	2026-02-16T23:00:43	5.1	98
158609	2026-02-16T23:10:43	5	98
158610	2026-02-16T23:20:43	4.9	98
158611	2026-02-16T23:30:43	4.6	98
158612	2026-02-16T23:40:43	4.6	98
158613	2026-02-16T23:50:43	4.6	98
158614	2026-02-17T00:00:43	4.6	98
158615	2026-02-17T00:10:43	4.7	98
158616	2026-02-17T00:20:43	4.5	98
158617	2026-02-17T00:30:43	4.5	98
158618	2026-02-17T00:40:43	4.2	98
158619	2026-02-17T00:50:43	4.4	98
158620	2026-02-17T01:00:43	4.7	98
158621	2026-02-17T01:10:43	4.5	98
158622	2026-02-17T01:20:43	4.5	98
158623	2026-02-17T01:30:43	4.6	98
158624	2026-02-17T01:40:43	4.4	98
158625	2026-02-17T01:50:43	4.3	98
158626	2026-02-17T02:00:43	4.4	98
158627	2026-02-17T02:10:43	4.4	98
158628	2026-02-17T02:20:43	4.4	98
158629	2026-02-17T02:30:43	4.5	98
158630	2026-02-17T02:40:43	4.5	98
158631	2026-02-17T02:50:43	4.5	98
158632	2026-02-17T03:00:43	4.3	98
158633	2026-02-17T03:10:43	4.4	98
158634	2026-02-17T03:20:43	4.3	98
158635	2026-02-17T03:30:43	4.4	98
158636	2026-02-17T03:40:43	4.3	98
158637	2026-02-17T03:50:43	4.3	98
158638	2026-02-17T04:00:43	4.4	98
158639	2026-02-17T04:10:43	3.9	98
158640	2026-02-17T04:20:43	3.9	98
158641	2026-02-17T04:30:43	3.8	98
158642	2026-02-17T04:40:43	3.8	98
158643	2026-02-17T04:50:43	3.7	98
158644	2026-02-17T05:00:43	3.6	98
158645	2026-02-17T05:10:43	3.7	98
158646	2026-02-17T05:20:43	3.7	98
158647	2026-02-17T05:30:43	3.7	98
158648	2026-02-17T05:40:43	3.8	98
158649	2026-02-17T05:50:43	3.7	98
158650	2026-02-17T06:00:43	3.7	98
158651	2026-02-17T06:10:43	3.7	98
158652	2026-02-17T06:20:43	3.7	98
158653	2026-02-17T06:30:43	3.5	98
158654	2026-02-17T06:40:43	3.8	98
158655	2026-02-17T06:50:43	3.9	98
158656	2026-02-17T07:00:43	3.9	98
158657	2026-02-17T07:10:43	4	98
158658	2026-02-17T07:20:43	4	98
158659	2026-02-17T07:30:43	4.1	98
158660	2026-02-17T07:40:43	4.1	98
158661	2026-02-17T07:50:43	4.2	98
158662	2026-02-17T08:00:43	4.3	98.5
158663	2026-02-17T08:10:43	4.3	98
158664	2026-02-17T08:20:43	4.5	98.5
158665	2026-02-17T08:30:43	4.6	98.5
158666	2026-02-17T08:40:43	4.8	98.5
158667	2026-02-17T08:50:43	5	98.5
158668	2026-02-17T09:00:43	5.3	98.5
158669	2026-02-17T09:10:43	5.6	98.5
158670	2026-02-17T09:20:43	5.5	98.5
158671	2026-02-17T09:30:43	5.5	98.5
158672	2026-02-17T09:40:43	5.6	98.5
158673	2026-02-17T09:50:43	5.6	98.5
158674	2026-02-17T10:00:43	6	98.5
158675	2026-02-17T10:10:43	5.9	98.5
158676	2026-02-17T10:20:43	5.8	98.5
158677	2026-02-17T10:30:43	6.4	98.5
158678	2026-02-17T10:40:43	6.6	98.5
158679	2026-02-17T10:50:43	6.7	98.5
158680	2026-02-17T11:00:43	6.7	98.5
158681	2026-02-17T11:10:43	7	98.5
158682	2026-02-17T11:20:43	7.2	98.5
158683	2026-02-17T11:30:43	7.3	98.5
158684	2026-02-17T11:40:43	6.6	98.5
158685	2026-02-17T11:50:43	5.5	98.5
158686	2026-02-17T12:00:43	4.4	98.5
158687	2026-02-17T12:10:43	4.3	98.5
158688	2026-02-17T12:20:43	4.3	98.5
158689	2026-02-17T12:30:43	4.6	98.5
158690	2026-02-17T12:40:43	5.1	98.5
158691	2026-02-17T12:50:43	4.9	98.5
158692	2026-02-17T13:00:43	5.3	98.5
158693	2026-02-17T13:10:43	5.2	98.5
158694	2026-02-17T13:20:43	5.9	98.5
158695	2026-02-17T13:30:43	5.6	98.5
158696	2026-02-17T13:40:43	6.1	98.5
158697	2026-02-17T13:50:43	7.4	98.5
158698	2026-02-17T14:00:43	10.3	98.5
158699	2026-02-17T14:10:43	10.1	99
158700	2026-02-17T14:20:43	8.5	98.5
158701	2026-02-17T14:30:43	7.5	98.5
158702	2026-02-17T14:40:43	6.5	98.5
158703	2026-02-17T14:50:43	5.2	98.5
158704	2026-02-17T15:00:43	4.9	98.5
158705	2026-02-17T15:10:43	5.7	98.5
158706	2026-02-17T15:20:43	5.7	98.5
158707	2026-02-17T15:30:43	5.5	98.5
158708	2026-02-17T15:40:43	5.4	98.5
158709	2026-02-17T15:50:43	5.4	98.5
158710	2026-02-17T16:00:43	5.3	98.5
158711	2026-02-17T16:10:43	5.4	98.5
158712	2026-02-17T16:20:43	5.2	98.5
158713	2026-02-17T16:30:43	5.3	98.5
158714	2026-02-17T16:40:43	5	98.5
158715	2026-02-17T16:50:43	5.1	98.5
158716	2026-02-17T17:00:42	5	98.5
158717	2026-02-17T17:10:42	4.9	98.5
158718	2026-02-17T17:20:42	4.7	98.5
158719	2026-02-17T17:30:42	4.5	98.5
158720	2026-02-17T17:40:42	4.3	98.5
158721	2026-02-17T17:50:42	4.2	98.5
158722	2026-02-17T18:00:42	4.2	98.5
158723	2026-02-17T18:10:42	4.3	98.5
158724	2026-02-17T18:20:42	4.3	98.5
158725	2026-02-17T18:30:42	4.1	98.5
158726	2026-02-17T18:40:42	4	98.5
158727	2026-02-17T18:50:42	3.9	98.5
158728	2026-02-17T19:00:42	3.7	98.5
158729	2026-02-17T19:10:42	3.6	98.5
158730	2026-02-17T19:20:42	3.5	98.5
158731	2026-02-17T19:30:42	3.2	98.5
158732	2026-02-17T19:40:42	3.1	98.5
158733	2026-02-17T19:50:42	3	98.5
158734	2026-02-17T20:00:42	2.9	98.5
158735	2026-02-17T20:10:42	2.7	98.5
158736	2026-02-17T20:20:42	2.9	98.5
158737	2026-02-17T20:30:42	2.9	98.5
158738	2026-02-17T20:40:42	2.9	98.5
158739	2026-02-17T20:50:42	3	98.5
158740	2026-02-17T21:00:42	3	98.5
158741	2026-02-17T21:10:42	3	98.5
158742	2026-02-17T21:20:42	2.9	98.5
158743	2026-02-17T21:30:42	3.1	98.5
158744	2026-02-17T21:40:42	3	98.5
158745	2026-02-17T21:50:42	2.9	98.5
158746	2026-02-17T22:00:42	2.9	98.5
158747	2026-02-17T22:10:42	2.8	98.5
158748	2026-02-17T22:20:42	2.7	98.5
158749	2026-02-17T22:30:42	2.6	98
158750	2026-02-17T22:40:42	2.3	98.5
158751	2026-02-17T22:50:42	2	98.5
158752	2026-02-17T23:00:42	2.1	98.5
158753	2026-02-17T23:10:42	2	98.5
158754	2026-02-17T23:30:42	1.7	100
158755	2026-02-17T23:40:42	1.6	100
158756	2026-02-17T23:50:42	1.5	100
158757	2026-02-18T00:00:42	1.5	100
158758	2026-02-18T00:10:42	1.2	100
158759	2026-02-18T00:20:42	1.1	100
158760	2026-02-18T00:30:42	0.8	100
158761	2026-02-18T00:40:42	1	100
158762	2026-02-18T00:50:42	0.9	100
158763	2026-02-18T01:00:42	0.9	100
158764	2026-02-18T01:10:42	0.8	100
158765	2026-02-18T01:20:42	0.8	100
158766	2026-02-18T01:30:42	0.7	100
158767	2026-02-18T01:40:42	0.7	100
158768	2026-02-18T01:50:42	0.7	100
158769	2026-02-18T02:00:42	0.5	100
158770	2026-02-18T02:10:42	0.6	100
158771	2026-02-18T02:20:42	0.3	100
158772	2026-02-18T02:30:42	0.3	100
158773	2026-02-18T02:40:42	0.3	100
158774	2026-02-18T02:50:42	0.3	100
158775	2026-02-18T03:00:42	0.1	100
158776	2026-02-18T03:10:42	0.1	100
158777	2026-02-18T03:20:42	0.2	100
158778	2026-02-18T03:30:42	0.1	100
158779	2026-02-18T03:40:42	0.1	100
158780	2026-02-18T03:50:42	-0.1	100
158781	2026-02-18T04:00:42	-0.2	100
158782	2026-02-18T04:10:42	-0.3	100
158783	2026-02-18T04:20:42	-0.6	100
158784	2026-02-18T04:30:42	-0.6	100
158785	2026-02-18T04:40:42	-0.7	100
158786	2026-02-18T04:50:42	-0.6	100
158787	2026-02-18T05:00:42	-0.6	100
158788	2026-02-18T05:10:42	-0.6	100
158789	2026-02-18T05:20:42	-0.5	100
158790	2026-02-18T05:30:42	-0.5	100
158791	2026-02-18T05:40:42	-0.6	100
158792	2026-02-18T05:50:42	-0.7	100
158793	2026-02-18T06:00:42	-0.8	100
158794	2026-02-18T06:10:42	-0.8	100
158795	2026-02-18T06:20:42	-1	100
158796	2026-02-18T06:30:42	-1	100
158797	2026-02-18T06:40:42	-0.9	100
158798	2026-02-18T06:50:42	-0.8	100
158799	2026-02-18T07:00:42	-0.5	100
158800	2026-02-18T07:10:42	-0.5	100
158801	2026-02-18T07:20:42	-0.3	100
158802	2026-02-18T07:30:42	-0.1	100
158803	2026-02-18T07:40:43	0	100
158804	2026-02-18T07:50:43	0.2	100
158805	2026-02-18T08:00:42	0.5	100
158806	2026-02-18T08:10:42	0.6	100
158807	2026-02-18T08:20:42	1	100
158808	2026-02-18T08:30:42	1.3	100
158809	2026-02-18T08:40:42	1.7	100
158810	2026-02-18T08:50:42	2.1	100
158811	2026-02-18T09:00:42	2.3	100
158812	2026-02-18T09:10:42	2.4	100
158813	2026-02-18T09:20:42	2.8	100
158814	2026-02-18T09:30:42	3.2	100
158815	2026-02-18T09:40:42	3.4	100
158816	2026-02-18T09:50:42	3.8	100
158817	2026-02-18T10:00:42	3.9	100
158818	2026-02-18T10:10:42	4.2	100
158819	2026-02-18T10:20:42	4.6	100
158820	2026-02-18T10:30:42	4.9	100
158821	2026-02-18T10:40:42	5.1	100
158822	2026-02-18T10:50:42	5.2	100
158823	2026-02-18T11:00:42	5.4	100
158824	2026-02-18T11:10:42	5.6	97.5
158825	2026-02-18T11:20:42	5.9	96
158826	2026-02-18T11:30:42	6.3	92
158827	2026-02-18T11:40:42	6.7	90
158828	2026-02-18T11:50:42	7.1	86.5
158829	2026-02-18T12:00:42	7.5	87.5
158830	2026-02-18T12:10:42	7.9	83.5
158831	2026-02-18T12:20:42	8.4	76
158832	2026-02-18T12:30:42	8.4	75
158833	2026-02-18T12:40:42	7.9	70.5
158834	2026-02-18T12:50:42	7.6	74
158835	2026-02-18T13:00:42	7.4	75.5
158836	2026-02-18T13:10:42	7.2	71
158837	2026-02-18T13:20:42	7.1	77
158838	2026-02-18T13:30:42	7	74
158839	2026-02-18T13:40:42	6.9	71
158840	2026-02-18T13:50:42	6.9	73.5
158841	2026-02-18T14:00:42	6.8	75
158842	2026-02-18T14:10:42	6.9	76.5
158843	2026-02-18T14:20:42	6.9	78
158844	2026-02-18T14:30:42	6.5	78
158845	2026-02-18T14:40:42	6.5	81
158846	2026-02-18T14:50:42	6.3	84
158847	2026-02-18T15:00:42	6.2	85
158848	2026-02-18T15:10:42	6.1	85.5
158849	2026-02-18T15:20:42	6	86
158850	2026-02-18T15:30:42	5.9	86.5
158851	2026-02-18T15:40:42	5.7	87
158852	2026-02-18T15:50:42	5.5	88.5
158853	2026-02-18T16:00:42	5.3	88.5
158854	2026-02-18T16:10:42	5.1	90.5
158855	2026-02-18T16:20:42	4.9	92.5
158856	2026-02-18T16:30:42	4.7	90
158857	2026-02-18T16:40:42	4.6	91
158858	2026-02-18T16:50:42	4.5	91
158859	2026-02-18T17:00:42	4.4	91
158860	2026-02-18T17:10:42	4.3	91.5
158861	2026-02-18T17:20:42	4.2	92
158862	2026-02-18T17:30:42	4.1	91.5
158863	2026-02-18T17:40:42	4.1	92
158864	2026-02-18T17:50:42	4.2	92
158865	2026-02-18T18:00:42	4.1	93.5
158866	2026-02-18T18:10:42	4	95
158867	2026-02-18T18:20:42	4	94.5
158868	2026-02-18T18:30:42	4	95
158869	2026-02-18T18:40:42	4	94.5
158870	2026-02-18T18:50:42	4.1	95
158871	2026-02-18T19:00:42	4.1	94
158872	2026-02-18T19:10:42	4	94.5
158873	2026-02-18T19:20:42	4	94.5
158874	2026-02-18T19:30:42	4.2	94.5
158875	2026-02-18T19:40:42	4	94
158876	2026-02-18T19:50:42	4.1	93.5
158877	2026-02-18T20:00:42	4	95
158878	2026-02-18T20:10:42	4.2	94.5
158879	2026-02-18T20:20:42	4.1	95.5
158880	2026-02-18T20:30:42	4	96
158881	2026-02-18T20:40:42	4	96.5
158882	2026-02-18T20:50:42	3.9	98.5
158883	2026-02-18T21:00:42	3.7	100
158884	2026-02-18T21:10:42	3.7	100
158885	2026-02-18T21:20:42	3.7	100
158886	2026-02-18T21:30:42	3.7	100
158887	2026-02-18T21:40:42	3.8	100
158888	2026-02-18T21:50:42	3.7	100
158889	2026-02-18T22:00:42	3.9	100
158890	2026-02-18T22:10:42	3.8	100
158891	2026-02-18T22:20:42	3.7	100
158892	2026-02-18T22:30:42	3.7	100
158893	2026-02-18T22:40:42	3.7	100
158894	2026-02-18T22:50:42	3.6	100
158895	2026-02-18T23:00:42	3.6	100
158896	2026-02-18T23:10:42	3.7	100
158897	2026-02-18T23:20:42	3.8	100
158898	2026-02-18T23:30:42	3.7	100
158899	2026-02-18T23:40:42	3.7	100
158900	2026-02-18T23:50:42	3.7	100
158901	2026-02-19T00:00:42	3.8	100
158902	2026-02-19T00:10:42	3.9	100
158903	2026-02-19T00:20:42	3.9	100
158904	2026-02-19T00:30:42	4	100
158905	2026-02-19T00:40:42	4.1	100
158906	2026-02-19T00:50:42	4.1	100
158907	2026-02-19T01:00:42	4	100
158908	2026-02-19T01:10:42	3.9	100
158909	2026-02-19T01:20:42	4	100
158910	2026-02-19T01:30:42	4.1	100
158911	2026-02-19T01:40:42	4.1	100
158912	2026-02-19T01:50:42	4.1	100
158913	2026-02-19T02:00:42	4.1	100
158914	2026-02-19T02:10:42	4.1	100
158915	2026-02-19T02:20:42	4.1	100
158916	2026-02-19T02:30:42	4.1	100
158917	2026-02-19T02:40:42	4	100
158918	2026-02-19T02:50:42	4.1	100
158919	2026-02-19T03:00:42	4.1	100
158920	2026-02-19T03:10:42	4.1	100
158921	2026-02-19T03:20:42	4	100
158922	2026-02-19T03:30:42	4	100
158923	2026-02-19T03:40:42	4	100
158924	2026-02-19T03:45:49	4	100
158925	2026-02-19T03:55:49	4	100
158926	2026-02-19T04:05:49	3.9	100
158927	2026-02-19T04:15:49	4	100
158928	2026-02-19T04:25:49	3.9	100
158929	2026-02-19T04:35:49	3.8	100
158930	2026-02-19T04:45:49	3.8	100
158931	2026-02-19T04:55:49	3.9	100
158932	2026-02-19T05:05:49	4	100
158933	2026-02-19T05:15:49	3.9	100
158934	2026-02-19T05:25:49	3.9	100
158935	2026-02-19T05:35:49	3.9	100
158936	2026-02-19T05:45:49	3.9	100
158937	2026-02-19T05:55:49	3.9	100
158938	2026-02-19T06:05:49	3.8	100
158939	2026-02-19T06:15:49	3.9	100
158940	2026-02-19T06:25:49	3.6	100
158941	2026-02-19T06:35:49	3.6	100
158942	2026-02-19T06:45:49	3.6	100
158943	2026-02-19T06:55:49	3.6	100
158944	2026-02-19T07:05:49	3.7	100
158945	2026-02-19T07:15:49	4	100
158946	2026-02-19T07:25:49	3.9	100
158947	2026-02-19T07:35:49	4	100
158948	2026-02-19T07:45:49	4.2	100
158949	2026-02-19T07:55:49	4.4	100
158950	2026-02-19T08:05:49	4.5	100
158951	2026-02-19T08:15:49	4.5	100
158952	2026-02-19T08:25:49	4.8	100
158953	2026-02-19T08:35:48	5.2	100
158954	2026-02-19T08:45:48	5.4	100
158955	2026-02-19T08:55:48	5.7	100
158956	2026-02-19T09:05:48	5.8	100
158957	2026-02-19T09:15:48	5.9	100
158958	2026-02-19T09:25:48	6	100
158959	2026-02-19T09:35:48	6.1	100
158960	2026-02-19T09:45:48	6.5	100
158961	2026-02-19T09:55:48	6.6	100
158962	2026-02-19T10:05:48	6.8	100
158963	2026-02-19T10:15:48	7.2	98.5
158964	2026-02-19T10:25:48	7.5	98
158965	2026-02-19T10:35:48	7.8	98.5
158966	2026-02-19T10:45:48	8	97
158967	2026-02-19T10:55:48	8	95.5
158968	2026-02-19T11:05:48	8.2	95
158969	2026-02-19T11:15:48	8.2	94.5
158970	2026-02-19T11:25:48	8.5	95
158971	2026-02-19T11:35:48	8.5	93
158972	2026-02-19T11:45:48	8.3	93
158973	2026-02-19T11:55:48	8.3	93
158974	2026-02-19T12:05:48	8.3	92.5
158975	2026-02-19T12:15:48	9	91.5
158976	2026-02-19T12:25:48	9.7	88
158977	2026-02-19T12:35:48	10.7	87
158978	2026-02-19T12:45:48	11.2	84
158979	2026-02-19T12:55:48	10.7	84.5
158980	2026-02-19T13:05:48	10.4	85
158981	2026-02-19T13:15:48	10.4	85.5
158982	2026-02-19T13:25:48	11.1	84.5
158983	2026-02-19T13:35:48	11.4	82.5
158984	2026-02-19T13:45:48	11.1	82.5
158985	2026-02-19T13:55:48	10.8	83.5
158986	2026-02-19T14:05:48	10.2	84.5
158987	2026-02-19T14:15:48	9.9	85.5
158988	2026-02-19T14:25:48	9.5	86.5
158989	2026-02-19T14:35:48	9.1	87.5
158990	2026-02-19T14:45:48	8.7	89
158991	2026-02-19T14:55:48	8.3	91.5
158992	2026-02-19T15:05:48	8.1	96.5
158993	2026-02-19T15:15:48	8	95.5
158994	2026-02-19T15:25:48	7.9	97.5
158995	2026-02-19T15:35:48	7.9	97
158996	2026-02-19T15:45:48	7.8	96.5
158997	2026-02-19T15:55:48	7.7	94.5
158998	2026-02-19T16:05:48	7.6	94
158999	2026-02-19T16:15:48	7.4	94.5
159000	2026-02-19T16:25:48	7.2	94
159001	2026-02-19T16:35:48	7	94.5
159002	2026-02-19T16:45:48	6.9	94.5
159003	2026-02-19T16:55:48	6.7	95
159004	2026-02-19T17:05:48	6.4	96.5
159005	2026-02-19T17:15:48	6.3	97
159006	2026-02-19T17:25:48	6.1	96.5
159007	2026-02-19T17:35:48	6	96
159008	2026-02-19T17:45:48	5.9	96
159009	2026-02-19T17:55:48	5.8	95.5
159010	2026-02-19T18:05:48	5.8	96.5
159011	2026-02-19T18:15:48	5.8	95.5
159012	2026-02-19T18:25:48	5.5	95.5
159013	2026-02-19T18:35:48	5.5	96
159014	2026-02-19T18:45:48	5.5	96.5
159015	2026-02-19T18:55:48	5.3	96.5
159016	2026-02-19T19:05:48	5.4	96
159017	2026-02-19T19:15:48	5.2	95.5
159018	2026-02-19T19:25:48	5.2	95.5
159019	2026-02-19T19:35:48	5.1	97
159020	2026-02-19T19:45:48	5	95.5
159021	2026-02-19T19:55:48	4.9	96
159022	2026-02-19T20:05:48	4.9	96.5
159023	2026-02-19T20:15:48	5	95.5
159024	2026-02-19T20:25:48	4.8	95.5
159025	2026-02-19T20:35:48	4.9	96.5
159026	2026-02-19T20:45:48	4.8	96
159027	2026-02-19T20:55:48	4.8	95
159028	2026-02-19T21:05:48	4.6	95
159029	2026-02-19T21:15:48	4.5	95
159030	2026-02-19T21:25:48	4.4	94.5
159031	2026-02-19T21:35:48	4.2	95
159032	2026-02-19T21:45:48	4.1	95
159033	2026-02-19T21:55:48	4.1	95.5
159034	2026-02-19T22:05:48	4	95.5
159035	2026-02-19T22:15:48	3.9	96
159036	2026-02-19T22:25:48	3.8	96
159037	2026-02-19T22:35:48	3.7	96.5
159038	2026-02-19T22:45:48	3.6	97.5
159039	2026-02-19T22:55:48	3.6	98
159040	2026-02-19T23:05:48	3.5	97.5
159041	2026-02-19T23:15:48	3.6	98
159042	2026-02-19T23:25:48	3.5	98
159043	2026-02-19T23:35:48	3.5	98.5
159044	2026-02-19T23:45:48	3.5	99
159045	2026-02-19T23:55:48	3.4	99
159046	2026-02-20T00:05:48	3.1	99
159047	2026-02-20T00:15:48	2.9	99.5
159048	2026-02-20T00:25:48	3.1	99
159049	2026-02-20T00:35:48	3.3	98.5
159050	2026-02-20T00:45:48	3.3	97
159051	2026-02-20T00:55:48	3.2	97
159052	2026-02-20T01:05:48	3.3	97
159053	2026-02-20T01:15:48	3.3	97
159054	2026-02-20T01:25:48	3.2	96.5
159055	2026-02-20T01:35:48	3.2	96
159056	2026-02-20T01:45:48	3.2	96
159057	2026-02-20T01:55:48	3.1	96.5
159058	2026-02-20T02:06:07	3.2	96.5
159059	2026-02-20T02:15:48	3.2	96.5
159060	2026-02-20T02:25:48	3.2	96.5
159061	2026-02-20T02:35:48	3.1	96.5
159062	2026-02-20T02:45:48	3.1	97
159063	2026-02-20T02:55:48	2.9	97.5
159064	2026-02-20T03:05:48	2.7	97.5
159065	2026-02-20T03:15:48	2.2	98.5
159066	2026-02-20T03:25:48	2	100
159067	2026-02-20T03:35:48	2.1	99.5
159068	2026-02-20T03:45:48	2	99.5
159069	2026-02-20T03:55:48	2.3	99
159070	2026-02-20T04:05:48	2.4	98
159071	2026-02-20T04:15:48	2.6	98
159072	2026-02-20T04:25:48	2.6	97.5
159073	2026-02-20T04:35:48	2.7	97
159074	2026-02-20T04:45:48	2.7	96.5
159075	2026-02-20T04:55:48	2.7	96.5
159076	2026-02-20T05:05:48	2.7	97
159077	2026-02-20T05:15:48	2.8	96.5
159078	2026-02-20T05:25:48	2.8	96.5
159079	2026-02-20T05:35:48	2.8	96.5
159080	2026-02-20T05:45:48	2.8	96
159081	2026-02-20T05:55:48	2.8	96
159082	2026-02-20T06:05:48	2.8	95
159083	2026-02-20T06:15:48	2.8	95.5
159084	2026-02-20T06:25:48	2.8	95.5
159085	2026-02-20T06:35:48	2.9	96
159086	2026-02-20T06:45:48	2.9	97
159087	2026-02-20T06:55:48	2.9	96.5
159088	2026-02-20T07:05:48	2.9	96
159089	2026-02-20T07:15:48	3.1	96
159090	2026-02-20T07:25:48	3.2	95
159091	2026-02-20T07:35:48	3.4	94.5
159092	2026-02-20T07:45:48	3.4	94.5
159093	2026-02-20T07:55:48	3.5	93
159094	2026-02-20T08:05:48	3.6	94.5
159095	2026-02-20T08:15:48	3.7	94
159096	2026-02-20T08:25:48	3.9	94
159097	2026-02-20T08:35:48	4	94.5
159098	2026-02-20T08:45:48	3.9	92
159099	2026-02-20T08:55:48	4	91.5
159100	2026-02-20T09:05:48	4	90.5
159101	2026-02-20T09:15:48	4.2	90.5
159102	2026-02-20T09:25:48	4.3	89.5
159103	2026-02-20T09:35:48	4.5	90
159104	2026-02-20T09:45:48	4.6	89
159105	2026-02-20T09:55:48	4.8	88.5
159106	2026-02-20T10:05:48	4.9	88.5
159107	2026-02-20T10:15:48	5	88
159108	2026-02-20T10:25:48	5	88.5
159109	2026-02-20T10:35:48	4.9	89
159110	2026-02-20T10:45:48	4.9	88.5
159111	2026-02-20T10:55:48	5.1	88
159112	2026-02-20T11:05:48	5.1	88.5
159113	2026-02-20T11:15:48	5.3	88
159114	2026-02-20T11:25:48	5.6	87.5
159115	2026-02-20T11:35:48	5.8	87.5
159116	2026-02-20T11:45:48	5.7	87
159117	2026-02-20T11:55:48	5.8	88
159118	2026-02-20T12:05:48	5.5	88
159119	2026-02-20T12:15:48	5.9	85.5
159120	2026-02-20T12:25:47	6	88
159121	2026-02-20T12:35:47	6.1	86.5
159122	2026-02-20T12:45:47	6.3	86
159123	2026-02-20T12:55:47	6	86.5
159124	2026-02-20T13:05:47	6	87
159125	2026-02-20T13:15:47	6	87.5
159126	2026-02-20T13:25:47	6.5	86
159127	2026-02-20T13:35:47	6.4	87
159128	2026-02-20T13:45:47	6.2	88.5
159129	2026-02-20T13:55:47	6.3	88
159130	2026-02-20T14:05:47	6.5	87.5
159131	2026-02-20T14:15:47	6.5	87.5
159132	2026-02-20T14:25:47	6.4	89.5
159133	2026-02-20T14:35:47	6.3	89
159134	2026-02-20T14:45:47	5.9	99
159135	2026-02-20T14:55:47	5.9	94
159136	2026-02-20T15:05:47	6	93.5
159137	2026-02-20T15:15:47	5.9	93
159138	2026-02-20T15:25:47	5.8	94
159139	2026-02-20T15:35:47	6	93.5
159140	2026-02-20T15:45:47	6.1	93.5
159141	2026-02-20T15:55:47	6.2	93.5
159142	2026-02-20T16:05:47	6.2	93.5
159143	2026-02-20T16:15:47	6.2	93.5
159144	2026-02-20T16:25:47	6.2	93.5
159145	2026-02-20T16:35:47	6	94
159146	2026-02-20T16:45:47	6	94
159147	2026-02-20T16:55:47	6.2	94
159148	2026-02-20T17:05:47	6	94.5
159149	2026-02-20T17:15:47	6.1	95.5
159150	2026-02-20T17:25:47	6	97
159151	2026-02-20T17:35:47	5.6	100
159152	2026-02-20T17:45:47	5.6	100
159153	2026-02-20T17:55:47	5.5	100
159154	2026-02-20T18:05:47	5.6	100
159155	2026-02-20T18:15:47	5.6	100
159156	2026-02-20T18:25:47	5.6	100
159157	2026-02-20T18:35:47	5.7	100
159158	2026-02-20T18:45:47	5.8	99.5
159159	2026-02-20T18:55:47	5.9	99
159160	2026-02-20T19:05:47	5.9	98.5
159161	2026-02-20T19:15:47	6.1	98
159162	2026-02-20T19:25:47	6	97
159163	2026-02-20T19:35:47	6.2	96
159164	2026-02-20T19:45:47	6.2	95.5
159165	2026-02-20T19:55:47	6.2	95.5
159166	2026-02-20T20:05:47	6.4	95
159167	2026-02-20T20:15:47	6.2	95
159168	2026-02-20T20:25:47	6.2	95.5
159169	2026-02-20T20:35:47	6.1	97
159170	2026-02-20T20:45:47	6	100
159171	2026-02-20T20:55:47	5.7	100
159172	2026-02-20T21:05:47	5.6	100
159173	2026-02-20T21:15:47	5.5	100
159174	2026-02-20T21:25:47	5.5	100
159175	2026-02-20T21:35:47	5.4	100
159176	2026-02-20T21:45:47	5.4	100
159177	2026-02-20T21:55:47	5.3	100
159178	2026-02-20T22:05:47	5.4	100
159179	2026-02-20T22:15:47	5.6	100
159180	2026-02-20T22:25:47	5.6	100
159181	2026-02-20T22:35:47	5.7	100
159182	2026-02-20T22:45:47	5.9	100
159183	2026-02-20T22:55:47	5.6	100
159184	2026-02-20T23:05:47	5.3	100
159185	2026-02-20T23:15:47	5.5	100
159186	2026-02-20T23:25:47	5.7	100
159187	2026-02-20T23:35:47	5.9	100
159188	2026-02-20T23:45:47	6	100
159189	2026-02-20T23:55:47	6.4	100
159190	2026-02-21T00:05:47	6.3	100
159191	2026-02-21T00:15:47	6.4	100
159192	2026-02-21T00:25:47	6.1	100
159193	2026-02-21T00:35:47	6.6	100
159194	2026-02-21T00:45:47	6.7	97.5
159195	2026-02-21T00:55:47	6.8	94.5
159196	2026-02-21T01:05:47	6.8	94
159197	2026-02-21T01:15:47	6.8	94
159198	2026-02-21T01:25:47	6.3	99.5
159199	2026-02-21T01:35:47	5.9	100
159200	2026-02-21T01:45:47	6	100
159201	2026-02-21T01:55:47	6.1	100
159202	2026-02-21T02:05:47	6.1	100
159203	2026-02-21T02:15:47	6.2	100
159204	2026-02-21T02:25:47	6.5	97.5
159205	2026-02-21T02:35:47	6.6	96
159206	2026-02-21T02:45:47	6.7	95.5
159207	2026-02-21T02:55:47	6.1	100
159208	2026-02-21T03:05:47	6.2	100
159209	2026-02-21T03:15:47	6.3	100
159210	2026-02-21T03:25:47	6.3	100
159211	2026-02-21T03:35:47	6.3	100
159212	2026-02-21T03:45:47	6.3	100
159213	2026-02-21T03:55:47	6.3	100
159214	2026-02-21T04:05:47	6.3	100
159215	2026-02-21T04:15:47	6.3	100
159216	2026-02-21T04:25:47	6.7	100
159217	2026-02-21T04:35:47	7.1	100
159218	2026-02-21T04:45:47	7.2	100
159219	2026-02-21T04:55:47	7.4	100
159220	2026-02-21T05:05:47	7.4	100
159221	2026-02-21T05:15:47	7.5	100
159222	2026-02-21T05:25:47	7.6	100
159223	2026-02-21T05:35:47	7.6	100
159224	2026-02-21T05:45:47	7.7	100
159225	2026-02-21T05:55:47	7.7	99.5
159226	2026-02-21T06:05:47	7.8	96.5
159227	2026-02-21T06:15:47	7.9	95.5
159228	2026-02-21T06:25:47	8	95.5
159229	2026-02-21T06:35:47	7.5	97.5
159230	2026-02-21T06:45:47	7.3	100
159231	2026-02-21T06:55:47	7.1	100
159232	2026-02-21T07:05:47	7.4	100
159233	2026-02-21T07:15:47	7.1	100
159234	2026-02-21T07:25:47	7.1	100
159235	2026-02-21T07:35:47	7.2	100
159236	2026-02-21T07:45:47	7.2	100
159237	2026-02-21T07:55:47	7.3	100
159238	2026-02-21T08:05:47	7.2	100
159239	2026-02-21T08:15:47	7.2	100
159240	2026-02-21T08:25:47	7.3	100
159241	2026-02-21T08:35:47	7.3	100
159242	2026-02-21T08:45:47	7.3	100
159243	2026-02-21T08:55:47	7.4	100
159244	2026-02-21T09:05:47	7.3	100
159245	2026-02-21T09:15:47	7.3	100
159246	2026-02-21T09:25:47	7.4	100
159247	2026-02-21T09:35:47	7.5	100
159248	2026-02-21T09:45:47	7.6	100
159249	2026-02-21T09:55:47	7.5	100
159250	2026-02-21T10:05:47	7.7	100
159251	2026-02-21T10:15:47	7.7	100
159252	2026-02-21T10:25:47	7.7	100
159253	2026-02-21T10:35:47	8	100
159254	2026-02-21T10:45:47	7.8	100
159255	2026-02-21T10:55:47	7.9	100
159256	2026-02-21T11:05:47	7.9	100
159257	2026-02-21T11:15:47	8	100
159258	2026-02-21T11:25:47	8	100
159259	2026-02-21T11:35:47	8	100
159260	2026-02-21T11:45:47	8.2	100
159261	2026-02-21T11:55:47	8.2	100
159262	2026-02-21T12:05:46	8.2	100
159263	2026-02-21T12:15:46	8.3	100
159264	2026-02-21T12:25:46	8.4	100
159265	2026-02-21T12:35:46	8.5	100
159266	2026-02-21T12:45:46	8.7	100
159267	2026-02-21T12:55:46	8.6	100
159268	2026-02-21T13:05:46	8.6	100
159269	2026-02-21T13:15:46	8.6	100
159270	2026-02-21T13:25:46	8.7	100
159271	2026-02-21T13:35:46	8.8	100
159272	2026-02-21T13:45:46	8.7	100
159273	2026-02-21T13:55:46	8.8	100
159274	2026-02-21T14:05:46	8.8	100
159275	2026-02-21T14:15:46	8.8	100
159276	2026-02-21T14:25:46	8.8	100
159277	2026-02-21T14:35:46	8.8	100
159278	2026-02-21T14:45:46	8.9	100
159279	2026-02-21T14:55:46	8.9	100
159280	2026-02-21T15:05:46	8.9	100
159281	2026-02-21T15:15:46	9	100
159282	2026-02-21T15:25:46	9	100
159283	2026-02-21T15:35:46	9	100
159284	2026-02-21T15:45:46	9	100
159285	2026-02-21T15:55:46	9	100
159286	2026-02-21T16:05:46	8.9	100
159287	2026-02-21T16:15:46	9	100
159288	2026-02-21T16:25:46	9.2	100
159289	2026-02-21T16:35:46	9.2	100
159290	2026-02-21T16:45:46	9.3	100
159291	2026-02-21T16:55:46	9.3	100
159292	2026-02-21T17:05:46	9.3	100
159293	2026-02-21T17:15:46	9.4	100
159294	2026-02-21T17:25:46	9.3	100
159295	2026-02-21T17:35:46	9.6	100
159296	2026-02-21T17:45:46	9.6	100
159297	2026-02-21T17:55:46	9.6	100
159298	2026-02-21T18:05:46	9.5	100
159299	2026-02-21T18:15:46	9.5	100
159300	2026-02-21T18:25:46	9.6	100
159301	2026-02-21T18:35:46	9.5	100
159302	2026-02-21T18:45:46	9.6	100
159303	2026-02-21T18:55:46	9.6	100
159304	2026-02-21T19:05:46	9.6	100
159305	2026-02-21T19:15:46	9.7	100
159306	2026-02-21T19:25:46	9.7	100
159307	2026-02-21T19:35:46	9.7	100
159308	2026-02-21T19:45:46	9.6	100
159309	2026-02-21T19:55:46	9.6	100
159310	2026-02-21T20:05:46	9.5	100
159311	2026-02-21T21:59:47	9.6	100
159312	2026-02-21T21:59:47	9.7	100
159313	2026-02-21T21:59:48	9.8	100
159314	2026-02-21T21:59:49	9.8	100
159315	2026-02-21T21:59:50	10	100
159316	2026-02-21T21:59:50	9.9	100
159317	2026-02-21T21:59:50	10.5	100
159318	2026-02-21T21:59:50	10.2	100
159319	2026-02-21T21:59:50	10.2	100
159320	2026-02-21T21:59:50	10.4	100
159321	2026-02-21T21:59:50	9.9	100
159322	2026-02-21T22:05:46	10.4	100
159323	2026-02-21T22:45:46	10.4	100
159324	2026-02-21T22:55:46	10.4	100
159325	2026-02-21T23:05:46	10.5	100
159326	2026-02-21T23:15:46	10.8	99.5
159327	2026-02-21T23:25:46	10.9	91
159328	2026-02-21T23:35:46	10.8	90.5
159329	2026-02-21T23:45:46	10.9	88.5
159330	2026-02-21T23:55:46	10.9	88
159331	2026-02-22T00:05:46	10.8	88
159332	2026-02-22T00:15:46	10.7	88.5
159333	2026-02-22T00:25:46	10.9	88
159334	2026-02-22T00:35:46	10.7	88.5
159335	2026-02-22T00:45:46	10.8	89
159336	2026-02-22T00:55:46	10.7	90
159337	2026-02-22T01:05:46	10.6	89.5
159338	2026-02-22T01:16:05	10.6	89
159339	2026-02-22T01:25:46	10.7	88
159340	2026-02-22T01:35:46	10.7	88.5
159341	2026-02-22T01:45:46	10.5	89.5
159342	2026-02-22T01:55:46	10.5	90
159343	2026-02-22T02:05:46	9.6	100
159344	2026-02-22T02:15:46	9.3	100
159345	2026-02-22T02:25:46	9.1	100
159346	2026-02-22T02:35:46	9	100
159347	2026-02-22T02:45:46	8.9	100
159348	2026-02-22T02:55:46	8.9	100
159349	2026-02-22T03:05:46	8.9	100
159350	2026-02-22T03:15:46	8.9	100
159351	2026-02-22T03:25:46	9	100
159352	2026-02-22T03:35:46	9	100
159353	2026-02-22T03:45:46	9	100
159354	2026-02-22T03:55:46	9	100
159355	2026-02-22T04:05:46	9	100
159356	2026-02-22T04:15:46	8.9	100
159357	2026-02-22T04:25:46	8.9	100
159358	2026-02-22T04:35:46	9	100
159359	2026-02-22T04:45:46	9	100
159360	2026-02-22T04:55:46	9.1	100
159361	2026-02-22T05:05:46	9.1	100
159362	2026-02-22T05:15:46	9.2	100
159363	2026-02-22T05:25:46	9.1	100
159364	2026-02-22T05:35:46	9.2	100
159365	2026-02-22T05:45:46	9.1	100
159366	2026-02-22T05:55:46	9.1	100
159367	2026-02-22T06:05:46	9.1	100
159368	2026-02-22T06:15:45	9.1	100
159369	2026-02-22T06:25:45	9.1	100
159370	2026-02-22T06:35:45	9.1	100
159371	2026-02-22T06:45:45	9.1	100
159372	2026-02-22T06:55:45	9.1	100
159373	2026-02-22T07:05:45	9.1	100
159374	2026-02-22T07:15:45	9.1	100
159375	2026-02-22T07:25:45	9.2	100
159376	2026-02-22T07:35:45	9.2	100
159377	2026-02-22T07:45:45	9.2	100
159378	2026-02-22T07:55:45	9.3	100
159379	2026-02-22T08:05:45	9.5	100
159380	2026-02-22T08:15:45	9.7	100
159381	2026-02-22T08:25:45	9.9	100
159382	2026-02-22T08:35:45	9.9	100
159383	2026-02-22T08:45:45	10.2	100
159384	2026-02-22T08:55:45	10	100
159385	2026-02-22T09:05:45	10.3	100
159386	2026-02-22T09:15:45	10.2	100
159387	2026-02-22T09:25:45	10.3	100
159388	2026-02-22T09:35:45	10.3	100
159389	2026-02-22T09:45:45	10.4	100
159390	2026-02-22T09:55:45	10.4	100
159391	2026-02-22T10:05:45	10.5	100
159392	2026-02-22T10:15:45	10.3	100
159393	2026-02-22T10:25:45	10.3	100
159394	2026-02-22T10:35:45	10.6	100
159395	2026-02-22T10:45:45	10.7	100
159396	2026-02-22T10:55:45	10.2	100
159397	2026-02-22T11:05:45	10	100
159398	2026-02-22T11:15:45	9.8	100
159399	2026-02-22T11:25:45	9.7	100
159400	2026-02-22T11:35:45	9.8	100
159401	2026-02-22T11:45:45	9.7	100
159402	2026-02-22T11:55:45	9.9	100
159403	2026-02-22T12:05:45	10.2	100
159404	2026-02-22T12:15:45	10.4	100
159405	2026-02-22T12:25:45	10.6	100
159406	2026-02-22T12:35:45	10.6	100
159407	2026-02-22T12:45:45	11	100
159408	2026-02-22T12:55:45	11	100
159409	2026-02-22T13:05:45	11	100
159410	2026-02-22T13:15:45	11.1	100
159411	2026-02-22T13:25:45	11.2	100
159412	2026-02-22T13:35:45	11.3	100
159413	2026-02-22T13:45:45	11.6	100
159414	2026-02-22T13:55:45	11.7	100
159415	2026-02-22T14:05:45	11.7	100
159416	2026-02-22T14:15:45	11.7	100
159417	2026-02-22T14:25:45	11.9	100
159418	2026-02-22T14:35:45	11.9	93.5
159419	2026-02-22T14:45:45	11.8	92
159420	2026-02-22T14:55:45	11.8	92
159421	2026-02-22T15:05:45	11.9	91.5
159422	2026-02-22T15:15:45	11.8	90.5
159423	2026-02-22T15:25:45	11.7	94.5
159424	2026-02-22T15:35:45	11.7	93.5
159425	2026-02-22T15:45:45	11.6	92
159426	2026-02-22T15:55:45	11.7	91.5
159427	2026-02-22T16:05:45	11.8	91.5
159428	2026-02-22T16:15:45	11.7	91
159429	2026-02-22T16:25:45	11.8	91
159430	2026-02-22T16:35:45	11.7	90.5
159431	2026-02-22T16:45:45	11.7	91
159432	2026-02-22T16:55:45	11.6	91
159433	2026-02-22T17:05:45	11.6	91
159434	2026-02-22T17:15:45	11.6	91
159435	2026-02-22T17:25:45	11.6	91
159436	2026-02-22T17:35:45	11.5	91.5
159437	2026-02-22T17:45:45	11.5	92.5
159438	2026-02-22T17:56:07	11.5	91
159439	2026-02-22T18:05:45	11.5	91
159440	2026-02-22T18:15:45	11.6	91
159441	2026-02-22T18:25:45	11.5	90.5
159442	2026-02-22T18:35:45	11.6	90.5
159443	2026-02-22T18:45:45	11.7	90
159444	2026-02-22T18:55:45	11.6	90.5
159445	2026-02-22T19:05:45	11.6	90
159446	2026-02-22T19:15:45	11.6	90.5
159447	2026-02-22T19:25:45	11.5	91
159448	2026-02-22T19:35:45	10.6	100
159449	2026-02-22T19:46:02	10.4	100
159450	2026-02-22T19:55:45	10.3	100
159451	2026-02-22T20:05:45	10.1	100
159452	2026-02-22T20:15:45	10.1	100
159453	2026-02-22T20:25:45	10.1	100
159454	2026-02-22T20:35:45	10	100
159455	2026-02-22T20:45:45	10	100
159456	2026-02-22T20:55:45	9.9	100
159457	2026-02-22T21:05:45	9.9	100
159458	2026-02-22T21:15:45	9.9	100
159459	2026-02-22T21:25:45	9.9	100
159460	2026-02-22T21:35:45	10	100
159461	2026-02-22T21:45:45	9.9	100
159462	2026-02-22T21:55:45	9.8	100
159463	2026-02-22T22:05:45	9.9	100
159464	2026-02-22T22:15:45	9.8	100
159465	2026-02-22T22:25:45	9.8	100
159466	2026-02-22T22:35:44	9.9	100
159467	2026-02-22T22:45:45	9.7	100
159468	2026-02-22T22:55:44	9.8	100
159469	2026-02-22T23:05:44	9.8	99
159470	2026-02-22T23:15:44	9.9	99
159471	2026-02-22T23:25:44	10	99
159472	2026-02-22T23:35:44	10	98.5
159473	2026-02-22T23:45:44	10	98.5
159474	2026-02-22T23:55:44	9.9	98.5
159475	2026-02-23T00:05:44	9.9	98.5
159476	2026-02-23T00:15:44	9.9	98.5
159477	2026-02-23T00:25:44	9.9	98.5
159478	2026-02-23T00:35:44	9.8	99
159479	2026-02-23T00:45:44	9.7	98.5
159480	2026-02-23T00:55:44	9.7	98.5
159481	2026-02-23T01:05:44	9.7	98.5
159482	2026-02-23T01:15:44	9.8	99
159483	2026-02-23T01:25:44	9.9	99
159484	2026-02-23T01:35:44	9.9	98.5
159485	2026-02-23T01:45:44	9.9	98.5
159486	2026-02-23T01:55:44	9.7	98.5
159487	2026-02-23T02:05:44	9.5	98.5
159488	2026-02-23T02:15:44	9.4	99
159489	2026-02-23T02:25:44	9.3	98.5
159490	2026-02-23T02:35:44	9.3	98.5
159491	2026-02-23T02:45:44	9.3	98.5
159492	2026-02-23T02:55:44	9.3	98.5
159493	2026-02-23T03:05:44	9.3	99
159494	2026-02-23T03:15:44	9.5	98.5
159495	2026-02-23T03:25:44	9.3	98.5
159496	2026-02-23T03:35:44	9.3	98.5
159497	2026-02-23T03:45:44	9.2	98.5
159498	2026-02-23T03:55:44	9.1	98.5
159499	2026-02-23T04:05:44	9	98.5
159500	2026-02-23T04:15:44	9.1	99
159501	2026-02-23T04:25:44	9.2	99
159502	2026-02-23T04:35:44	9.1	99.5
159503	2026-02-23T04:45:44	8.9	99.5
159504	2026-02-23T04:55:44	9.1	99.5
159505	2026-02-23T05:05:44	9	99
159506	2026-02-23T05:15:44	8.9	99
159507	2026-02-23T05:25:44	9	99.5
159508	2026-02-23T05:35:44	8.9	99.5
159509	2026-02-23T05:45:44	8.9	99.5
159510	2026-02-23T05:55:44	8.9	99
159511	2026-02-23T06:05:44	8.9	99.5
159512	2026-02-23T06:15:44	9	99.5
159513	2026-02-23T06:25:44	8.9	99
159514	2026-02-23T06:35:44	9	99.5
159515	2026-02-23T06:45:44	9	99.5
159516	2026-02-23T06:55:44	9.1	99.5
159517	2026-02-23T07:05:44	9.1	99.5
159518	2026-02-23T07:15:44	9.1	99.5
159519	2026-02-23T07:25:44	9	99.5
159520	2026-02-23T07:35:44	9	99.5
159521	2026-02-23T07:45:44	9.1	99.5
159522	2026-02-23T07:55:44	9.2	99.5
159523	2026-02-23T08:05:44	9.2	99.5
159524	2026-02-23T08:15:44	9.1	99.5
159525	2026-02-23T08:25:44	9.2	99.5
159526	2026-02-23T08:35:44	9.4	99.5
159527	2026-02-23T08:45:44	9.6	99.5
159528	2026-02-23T08:55:44	9.6	99.5
159529	2026-02-23T09:05:44	9.7	99.5
159530	2026-02-23T09:15:44	9.8	99.5
159531	2026-02-23T09:25:44	10	99.5
159532	2026-02-23T09:35:44	10.2	99.5
159533	2026-02-23T09:45:44	10.5	99.5
159534	2026-02-23T09:55:44	10.7	99.5
159535	2026-02-23T10:05:44	10.8	100
159536	2026-02-23T10:15:44	11	100
159537	2026-02-23T10:25:44	11.2	100
159538	2026-02-23T10:35:44	11.3	99.5
159539	2026-02-23T10:45:44	11.4	100
159540	2026-02-23T10:55:44	11.8	100
159541	2026-02-23T11:05:44	12.2	100
159542	2026-02-23T11:15:44	12.3	100
159543	2026-02-23T11:25:44	12.4	100
159544	2026-02-23T11:35:44	12.3	99.5
159545	2026-02-23T11:45:44	11.2	99.5
159546	2026-02-23T11:55:44	11.7	99.5
159547	2026-02-23T12:05:44	12.1	99.5
159548	2026-02-23T12:15:44	12.5	99.5
159549	2026-02-23T12:25:44	13.2	99.5
159550	2026-02-23T12:35:44	14	99.5
159551	2026-02-23T12:45:44	13.3	99.5
159552	2026-02-23T12:55:44	12.9	99.5
159553	2026-02-23T13:05:44	13.1	99.5
159554	2026-02-23T13:15:44	13.7	99.5
159555	2026-02-23T13:25:44	13.9	99.5
159556	2026-02-23T13:35:44	15.1	99.5
159557	2026-02-23T13:45:44	15.5	99.5
159558	2026-02-23T13:55:44	16.7	99.5
159559	2026-02-23T14:05:44	16.2	99
159560	2026-02-23T14:15:43	14.4	100
159561	2026-02-23T14:25:43	14.1	100
159562	2026-02-23T14:35:43	13.7	100
159563	2026-02-23T14:45:43	14.2	100
159564	2026-02-23T14:55:43	13.7	100
159565	2026-02-23T15:05:43	13.4	97
159566	2026-02-23T15:15:43	13.3	79
159567	2026-02-23T15:25:43	13	76
159568	2026-02-23T15:35:43	12.9	76.5
159569	2026-02-23T15:45:43	12.7	76.5
159570	2026-02-23T15:55:43	12.6	77.5
159571	2026-02-23T16:05:43	12.5	77.5
159572	2026-02-23T16:15:43	11	100
159573	2026-02-23T16:25:43	10.4	100
159574	2026-02-23T16:35:43	10.2	100
159575	2026-02-23T16:45:43	10.3	100
159576	2026-02-23T16:55:43	10.6	96
159577	2026-02-23T17:05:43	10.7	93.5
159578	2026-02-23T17:15:43	10.9	92.5
159579	2026-02-23T17:25:43	10.9	92
159580	2026-02-23T17:35:43	10.8	91
159581	2026-02-23T17:45:43	10.9	90.5
159582	2026-02-23T17:55:43	10.8	90
159583	2026-02-23T18:05:43	10.9	90
159584	2026-02-23T18:15:43	10.9	90
159585	2026-02-23T18:25:43	11.1	90
159586	2026-02-23T18:35:43	11.2	90.5
159587	2026-02-23T18:45:43	11.1	91
159588	2026-02-23T18:55:43	11.1	92
159589	2026-02-23T19:05:43	11	93
159590	2026-02-23T19:15:43	11.1	93
159591	2026-02-23T19:25:43	11.1	94
159592	2026-02-23T19:35:43	10.9	96
159593	2026-02-23T19:45:43	10.2	100
159594	2026-02-23T19:55:43	10	100
159595	2026-02-23T20:05:43	10.1	100
159596	2026-02-23T20:15:43	9.8	100
159597	2026-02-23T20:25:43	9.7	100
159598	2026-02-23T20:35:43	9.8	100
159599	2026-02-23T20:45:43	9.8	100
159600	2026-02-23T20:55:43	9.9	100
159601	2026-02-23T21:05:43	10	100
159602	2026-02-23T21:15:43	9.8	100
159603	2026-02-23T21:25:43	9.8	100
159604	2026-02-23T21:35:43	9.9	100
159605	2026-02-23T21:45:43	9.9	100
159606	2026-02-23T21:55:43	9.9	100
159607	2026-02-23T22:05:43	9.9	100
159608	2026-02-23T22:15:43	9.8	100
159609	2026-02-23T22:25:43	9.9	100
159610	2026-02-23T22:35:43	9.5	100
159611	2026-02-23T22:45:43	9.4	100
159612	2026-02-23T22:55:43	9.5	100
159613	2026-02-23T23:05:43	9.6	100
159614	2026-02-23T23:15:43	9.4	100
159615	2026-02-23T23:25:43	9.3	100
159616	2026-02-23T23:35:43	9.3	100
159617	2026-02-23T23:45:43	9.3	100
159618	2026-02-23T23:55:43	9.3	100
159619	2026-02-24T00:05:43	9.3	100
159620	2026-02-24T00:15:43	9.3	100
159621	2026-02-24T00:25:43	9.4	100
159622	2026-02-24T00:35:43	9.2	100
159623	2026-02-24T00:45:43	9.3	100
159624	2026-02-24T00:55:43	9.4	100
159625	2026-02-24T01:05:43	9.4	100
159626	2026-02-24T01:15:43	9.4	100
159627	2026-02-24T01:25:43	9.5	100
159628	2026-02-24T01:35:43	9.5	100
159629	2026-02-24T01:45:43	9.6	100
159630	2026-02-24T01:55:43	9.6	100
159631	2026-02-24T02:05:43	9.6	100
159632	2026-02-24T02:15:43	9.8	100
159633	2026-02-24T02:25:43	9.6	100
159634	2026-02-24T02:35:43	9.7	100
159635	2026-02-24T02:45:43	9.7	100
159636	2026-02-24T02:55:43	9.8	100
159637	2026-02-24T03:05:43	9.7	100
159638	2026-02-24T03:15:43	9.9	100
159639	2026-02-24T03:25:43	9.8	100
159640	2026-02-24T03:35:43	9.9	100
159641	2026-02-24T03:45:43	9.8	100
159642	2026-02-24T03:55:43	9.9	99.5
159643	2026-02-24T04:05:43	9.9	99
159644	2026-02-24T04:15:43	9.9	99
159645	2026-02-24T04:25:43	10	99
159646	2026-02-24T04:35:43	10	99
159647	2026-02-24T04:45:43	10	99
159648	2026-02-24T04:55:43	10	99
159649	2026-02-24T05:05:43	10	99
159650	2026-02-24T05:15:43	10	99
159651	2026-02-24T05:25:43	10.1	99.5
159652	2026-02-24T05:35:43	10	99
159653	2026-02-24T05:45:43	10.1	99.5
159654	2026-02-24T05:55:43	10	99
159655	2026-02-24T06:05:43	10.1	99
159656	2026-02-24T06:15:43	10	99
159657	2026-02-24T06:25:43	10.1	99
159658	2026-02-24T06:35:43	10.1	99
159659	2026-02-24T06:45:43	10.1	99
159660	2026-02-24T06:55:42	10.3	99
159661	2026-02-24T07:05:42	10.3	99
159662	2026-02-24T07:15:42	10.4	99
159663	2026-02-24T07:25:42	10.4	99
159664	2026-02-24T07:35:42	10.4	99
159665	2026-02-24T07:45:42	10.5	99.5
159666	2026-02-24T07:55:42	10.5	99.5
159667	2026-02-24T08:05:42	10.5	99.5
159668	2026-02-24T08:15:42	10.5	99.5
159669	2026-02-24T08:25:42	10.6	99.5
159670	2026-02-24T08:35:42	10.6	99.5
159671	2026-02-24T08:45:42	10.6	99.5
159672	2026-02-24T08:55:42	10.8	99.5
159673	2026-02-24T09:05:42	10.8	99.5
159674	2026-02-24T09:15:42	10.8	99.5
159675	2026-02-24T09:25:42	10.9	99.5
159676	2026-02-24T09:35:42	10.9	99.5
159677	2026-02-24T09:45:42	11	99.5
159678	2026-02-24T09:55:42	11	99.5
159679	2026-02-24T10:05:42	10.9	99.5
159680	2026-02-24T10:15:42	11	99.5
159681	2026-02-24T10:25:42	11.1	99.5
159682	2026-02-24T10:35:42	11.2	99.5
159683	2026-02-24T10:45:42	11.2	99.5
159684	2026-02-24T10:55:42	11.3	99.5
159685	2026-02-24T11:05:42	11.3	100
159686	2026-02-24T11:15:42	11.3	99.5
159687	2026-02-24T11:25:42	11.4	99.5
159688	2026-02-24T11:35:42	11.4	100
159689	2026-02-24T11:45:42	11.6	100
159690	2026-02-24T11:55:42	11.8	100
159691	2026-02-24T12:05:42	11.8	100
159692	2026-02-24T12:15:42	11.6	99.5
159693	2026-02-24T12:25:42	11.8	99.5
159694	2026-02-24T12:35:42	12	100
159695	2026-02-24T12:45:42	12	100
159696	2026-02-24T12:55:42	12	100
159697	2026-02-24T13:05:42	12.1	100
159698	2026-02-24T13:15:42	12.1	100
159699	2026-02-24T13:25:42	12.2	100
159700	2026-02-24T13:35:42	12.2	100
159701	2026-02-24T13:45:42	12.2	99.5
159702	2026-02-24T13:55:42	12.3	100
159703	2026-02-24T14:05:42	12.3	100
159704	2026-02-24T14:15:42	12.2	100
159705	2026-02-24T14:25:42	12.3	99.5
159706	2026-02-24T14:35:42	12.4	99.5
159707	2026-02-24T14:45:42	12.4	99.5
159708	2026-02-24T14:55:42	12.5	99.5
159709	2026-02-24T15:05:42	12.4	99.5
159710	2026-02-24T15:15:42	12.4	99.5
159711	2026-02-24T15:25:42	12.5	99.5
159712	2026-02-24T15:35:42	12.5	99.5
159713	2026-02-24T15:45:42	12.5	99.5
159714	2026-02-24T15:55:42	12.4	99.5
159715	2026-02-24T16:05:42	12.5	99.5
159716	2026-02-24T16:15:42	12.3	99.5
159717	2026-02-24T16:25:42	12.3	99.5
159718	2026-02-24T16:35:42	12.3	99.5
159719	2026-02-24T16:45:42	12.2	99.5
159720	2026-02-24T16:55:42	12.2	99.5
159721	2026-02-24T17:05:42	12.1	99.5
159722	2026-02-24T17:15:42	12	99.5
159723	2026-02-24T17:25:42	12	99.5
159724	2026-02-24T17:35:42	11.9	99.5
159725	2026-02-24T17:45:42	11.9	99.5
159726	2026-02-24T17:55:42	11.8	99
159727	2026-02-24T18:05:42	11.8	99.5
159728	2026-02-24T18:15:42	11.7	99
159729	2026-02-24T18:25:42	11.7	99.5
159730	2026-02-24T18:35:42	11.6	99
159731	2026-02-24T18:45:42	11.6	99
159732	2026-02-24T18:55:42	11.5	99
159733	2026-02-24T19:05:42	11.5	99
159734	2026-02-24T19:15:42	11.4	99
159735	2026-02-24T19:25:42	11.4	99
159736	2026-02-24T19:35:42	11.1	99
159737	2026-02-24T19:45:42	10.7	99
159738	2026-02-24T19:55:42	10.5	99
159739	2026-02-24T20:05:42	10.1	99
159740	2026-02-24T20:15:42	9.8	99
159741	2026-02-24T20:25:42	9.6	99
159742	2026-02-24T20:35:42	9.4	99
159743	2026-02-24T20:45:42	9.3	99
159744	2026-02-24T20:55:42	9.1	99
159745	2026-02-24T21:05:42	8.9	99
159746	2026-02-24T21:15:42	8.8	99
159747	2026-02-24T21:25:42	8.7	99
159748	2026-02-24T21:35:42	8.5	99
159749	2026-02-24T21:45:42	8.3	99
159750	2026-02-24T21:55:42	8.3	99
159751	2026-02-24T22:05:42	8.1	99
159752	2026-02-24T22:15:42	8.1	99
159753	2026-02-24T22:25:42	7.9	99
159754	2026-02-24T22:35:42	7.8	99
159755	2026-02-24T22:45:42	7.5	99
159756	2026-02-24T22:55:42	7.4	99
159757	2026-02-24T23:05:42	7.4	99
159758	2026-02-24T23:15:42	7.2	99
159759	2026-02-24T23:25:42	7.2	99
159760	2026-02-24T23:35:42	7.1	99
159761	2026-02-24T23:45:42	6.7	99
159762	2026-02-24T23:55:42	6.7	99
159763	2026-02-25T00:05:41	6.5	99
159764	2026-02-25T00:15:42	6.5	99
159765	2026-02-25T00:25:42	6.5	99
159766	2026-02-25T00:35:42	6.4	99
159767	2026-02-25T00:45:42	6.6	99
159768	2026-02-25T00:55:42	6.4	99
159769	2026-02-25T01:05:41	6.2	99
159770	2026-02-25T01:15:41	6.1	99
159771	2026-02-25T01:25:41	6	99
159772	2026-02-25T01:35:41	5.9	99
159773	2026-02-25T01:45:41	5.8	99
159774	2026-02-25T01:55:41	5.7	99
159775	2026-02-25T02:05:41	5.4	99
159776	2026-02-25T02:15:41	5.2	99
159777	2026-02-25T02:25:41	5.1	99
159778	2026-02-25T02:35:42	4.9	99
159779	2026-02-25T02:45:41	5	99
159780	2026-02-25T02:55:41	4.9	99
159781	2026-02-25T03:05:41	4.9	99
159782	2026-02-25T03:15:41	5.1	99
159783	2026-02-25T03:25:41	5.3	99
159784	2026-02-25T03:35:41	5.1	99
159785	2026-02-25T03:45:41	5.1	99
159786	2026-02-25T03:55:42	5	99
159787	2026-02-25T04:05:41	4.9	99
159788	2026-02-25T04:15:41	4.8	99
159789	2026-02-25T04:25:41	4.7	99
159790	2026-02-25T04:35:41	4.3	99
159791	2026-02-25T04:45:41	4.1	99
159792	2026-02-25T04:55:41	4	99
159793	2026-02-25T05:05:41	4	99
159794	2026-02-25T05:15:41	4.2	99
159795	2026-02-25T05:25:41	4.3	99
159796	2026-02-25T05:35:41	4.5	99
159797	2026-02-25T05:45:41	4.4	99
159798	2026-02-25T05:55:41	4.2	99
159799	2026-02-25T06:05:41	4.2	99
159800	2026-02-25T06:15:41	4	99
159801	2026-02-25T06:25:41	3.8	99
159802	2026-02-25T06:35:41	3.7	99
159803	2026-02-25T06:45:41	3.6	99
159804	2026-02-25T06:55:41	3.8	99
159805	2026-02-25T07:05:41	4.1	99
159806	2026-02-25T07:15:41	4.4	99
159807	2026-02-25T07:25:41	4.6	99
159808	2026-02-25T07:35:41	4.8	99
159809	2026-02-25T07:45:41	4.8	99
159810	2026-02-25T07:55:41	4.9	99
159811	2026-02-25T08:05:41	4.9	99
159812	2026-02-25T08:15:41	5.2	99
159813	2026-02-25T08:25:41	5.2	99
159814	2026-02-25T08:35:41	5.9	99.5
159815	2026-02-25T08:45:41	6.2	99.5
159816	2026-02-25T08:55:41	6.5	99
159817	2026-02-25T09:05:41	6.5	99
159818	2026-02-25T09:15:41	6.7	99
159819	2026-02-25T09:25:41	7.1	99.5
159820	2026-02-25T09:35:41	7.2	99
159821	2026-02-25T09:45:41	7.6	99.5
159822	2026-02-25T09:55:41	8	99.5
159823	2026-02-25T10:05:41	8.2	99
159824	2026-02-25T10:15:41	8.4	99.5
159825	2026-02-25T10:25:41	8.7	99.5
159826	2026-02-25T10:35:41	9	99.5
159827	2026-02-25T10:45:41	9.2	99.5
159828	2026-02-25T10:55:41	9.6	99
159829	2026-02-25T11:05:41	10	99
159830	2026-02-25T11:15:41	10.2	99.5
159831	2026-02-25T11:25:41	10.5	99.5
159832	2026-02-25T11:35:41	11.3	99.5
159833	2026-02-25T11:45:41	10.9	99.5
159834	2026-02-25T11:55:41	12.4	99.5
159835	2026-02-25T12:05:41	11.9	99.5
159836	2026-02-25T12:15:41	12.2	99
159837	2026-02-25T12:25:41	12.7	99.5
159838	2026-02-25T12:35:41	16	99.5
159839	2026-02-25T12:45:41	18.1	99.5
159840	2026-02-25T12:55:41	19.7	99.5
159841	2026-02-25T13:05:41	22.2	99.5
159842	2026-02-25T13:15:41	23.5	99.5
159843	2026-02-25T13:25:41	25.2	99.5
159844	2026-02-25T13:35:41	25.7	99
159845	2026-02-25T13:45:41	26	99.5
159846	2026-02-25T13:55:41	26.4	99
159847	2026-02-25T14:05:41	27.3	99.5
159848	2026-02-25T14:15:41	28.8	99.5
159849	2026-02-25T14:25:41	29.4	99.5
159850	2026-02-25T14:35:41	29.2	99
159851	2026-02-25T14:45:41	25.9	99
159852	2026-02-25T14:55:41	25.9	99
159853	2026-02-25T15:05:41	26.1	100
159854	2026-02-25T15:15:41	26.9	84.5
159855	2026-02-25T15:25:41	27.2	59
159856	2026-02-25T15:35:41	27.4	55.5
159857	2026-02-25T15:45:41	27.1	57
159858	2026-02-25T15:55:41	25	58.5
159859	2026-02-25T16:05:41	23.4	59
159860	2026-02-25T16:15:41	21	65.5
159861	2026-02-25T16:25:41	20.5	65
159862	2026-02-25T16:35:41	17.8	73.5
159863	2026-02-25T16:45:41	16.5	81
159864	2026-02-25T16:55:41	16.1	84.5
159865	2026-02-25T17:05:41	15.7	88.5
159866	2026-02-25T17:15:40	15	89
159867	2026-02-25T17:25:40	14.6	91
159868	2026-02-25T17:35:40	14	92
159869	2026-02-25T17:45:40	13.7	90.5
159870	2026-02-25T17:55:40	13.1	93
159871	2026-02-25T18:05:40	12.8	93.5
159872	2026-02-25T18:15:40	12.5	92
159873	2026-02-25T18:25:40	12.2	93.5
159874	2026-02-25T18:35:40	11.8	95
159875	2026-02-25T18:45:40	11.5	95.5
159876	2026-02-25T18:55:40	11.2	95.5
159877	2026-02-25T19:05:40	10.9	97
159878	2026-02-25T19:15:40	10.7	97
159879	2026-02-25T19:25:40	10.4	96.5
159880	2026-02-25T19:35:40	10	96
159881	2026-02-25T19:45:40	9.8	95.5
159882	2026-02-25T19:55:40	9.5	96.5
159883	2026-02-25T20:05:40	9.4	96.5
159884	2026-02-25T20:15:40	9.3	98
159885	2026-02-25T20:25:40	9.3	99.5
159886	2026-02-25T20:35:40	9.3	100
159887	2026-02-25T20:45:40	9.4	100
159888	2026-02-25T20:55:40	9.4	100
159889	2026-02-25T21:05:40	9.3	100
159890	2026-02-25T21:15:40	9.4	100
159891	2026-02-25T21:25:40	9.3	100
159892	2026-02-25T21:35:40	9.4	100
159893	2026-02-25T21:45:40	9.2	100
159894	2026-02-25T21:55:40	9.3	100
159895	2026-02-25T22:05:40	9.3	100
159896	2026-02-25T22:15:40	9.2	100
159897	2026-02-25T22:25:40	9.2	100
159898	2026-02-25T22:35:40	9.2	100
159899	2026-02-25T22:45:40	9.3	100
159900	2026-02-25T22:55:40	9.2	100
159901	2026-02-25T23:05:40	9.1	100
159902	2026-02-25T23:15:40	9.3	100
159903	2026-02-25T23:25:40	9.1	100
159904	2026-02-25T23:35:40	9	100
159905	2026-02-25T23:45:40	9	100
159906	2026-02-25T23:55:40	8.8	100
159907	2026-02-26T00:05:40	8.8	100
159908	2026-02-26T00:15:58	8.8	100
159909	2026-02-26T00:25:40	8.8	100
159910	2026-02-26T00:35:40	8.8	100
159911	2026-02-26T00:45:40	8.8	100
159912	2026-02-26T00:55:40	8.6	100
159913	2026-02-26T01:05:40	8.6	100
159914	2026-02-26T01:15:40	8.5	100
159915	2026-02-26T01:25:40	8.5	100
159916	2026-02-26T01:35:40	8.2	100
159917	2026-02-26T01:45:40	8.4	100
159918	2026-02-26T01:55:40	8.3	100
159919	2026-02-26T02:05:40	8.4	100
159920	2026-02-26T02:15:40	8.4	100
159921	2026-02-26T02:25:40	8	100
159922	2026-02-26T02:35:40	8	100
159923	2026-02-26T02:45:40	7.8	100
159924	2026-02-26T02:55:40	7.7	100
159925	2026-02-26T03:05:40	7.6	100
159926	2026-02-26T03:15:40	7.6	100
159927	2026-02-26T03:25:40	7.6	100
159928	2026-02-26T03:35:40	7.5	100
159929	2026-02-26T03:45:40	7.5	100
159930	2026-02-26T03:55:40	7.5	100
159931	2026-02-26T04:05:40	7.6	100
159932	2026-02-26T04:15:40	7.6	100
159933	2026-02-26T04:25:40	7.7	100
159934	2026-02-26T04:35:40	7.5	100
159935	2026-02-26T04:45:40	7.5	100
159936	2026-02-26T04:55:40	7.5	100
159937	2026-02-26T05:05:40	7.6	100
159938	2026-02-26T05:15:40	7.6	100
159939	2026-02-26T05:25:40	7.3	100
159940	2026-02-26T05:35:40	7.1	100
159941	2026-02-26T05:45:40	7.1	100
159942	2026-02-26T05:55:40	6.9	100
159943	2026-02-26T06:05:40	7.1	100
159944	2026-02-26T06:15:40	7.1	100
159945	2026-02-26T06:25:40	7.2	100
159946	2026-02-26T06:35:40	7.2	100
159947	2026-02-26T06:45:40	7.3	100
159948	2026-02-26T06:55:40	7.3	100
159949	2026-02-26T07:05:40	7.4	100
159950	2026-02-26T07:15:40	7.4	100
159951	2026-02-26T07:25:40	7.5	100
159952	2026-02-26T07:35:40	7.7	100
159953	2026-02-26T07:45:40	7.8	100
159954	2026-02-26T07:55:40	7.8	100
159955	2026-02-26T08:05:40	7.7	100
159956	2026-02-26T08:15:40	7.8	100
159957	2026-02-26T08:25:40	7.8	100
159958	2026-02-26T08:35:40	7.8	100
159959	2026-02-26T08:45:40	8.1	100
159960	2026-02-26T08:55:40	8	100
159961	2026-02-26T09:05:40	8.2	100
159962	2026-02-26T09:15:40	8.4	100
159963	2026-02-26T09:25:40	8.5	100
159964	2026-02-26T09:35:40	8.7	99.5
159965	2026-02-26T09:45:40	8.7	100
159966	2026-02-26T09:55:40	8.9	99
159967	2026-02-26T10:05:40	9.3	98.5
159968	2026-02-26T10:15:40	9.8	98
159969	2026-02-26T10:25:40	9.9	97
159970	2026-02-26T10:35:40	9.9	96.5
159971	2026-02-26T10:45:40	10	95.5
159972	2026-02-26T10:55:40	10.6	95.5
159973	2026-02-26T11:05:40	11.2	94.5
159974	2026-02-26T11:15:40	11	94
159975	2026-02-26T11:25:40	10.7	95
159976	2026-02-26T11:35:40	10.7	95.5
159977	2026-02-26T11:45:39	10.6	96
159978	2026-02-26T12:05:39	11.3	93.5
159979	2026-02-26T12:25:39	14.6	85
159980	2026-02-26T12:35:39	16.9	78.5
159981	2026-02-26T12:45:39	18.5	72.5
159982	2026-02-26T12:55:39	19.8	67
159983	2026-02-26T13:05:39	20.7	62.5
159984	2026-02-26T13:15:39	21.9	62.5
159985	2026-02-26T13:25:39	22.4	59.5
159986	2026-02-26T13:35:39	22.7	57
159987	2026-02-26T13:55:39	23.3	55
159988	2026-02-26T14:05:39	24	52
159989	2026-02-26T14:15:39	24.4	52
159990	2026-02-26T14:25:39	24.9	52
159991	2026-02-26T14:35:39	25.8	51.5
159992	2026-02-26T14:45:39	25.4	49.5
159993	2026-02-26T14:55:39	26.1	49
159994	2026-02-26T15:05:39	26.6	49
159995	2026-02-26T15:15:39	26	49.5
159996	2026-02-26T15:25:39	26.3	50.5
159997	2026-02-26T15:35:39	26.8	50
159998	2026-02-26T15:45:39	25.8	49
159999	2026-02-26T15:55:39	25.1	51.5
160000	2026-02-26T16:05:39	24.5	52
160001	2026-02-26T16:15:39	23.7	53
160002	2026-02-26T16:25:39	22.8	58
160003	2026-02-26T16:35:39	21.1	61.5
160004	2026-02-26T16:45:39	19.8	67.5
160005	2026-02-26T16:55:39	18.6	75.5
160006	2026-02-26T17:05:39	17.8	78.5
160007	2026-02-26T17:15:39	17.2	79
160008	2026-02-26T17:25:39	16.6	80.5
160009	2026-02-26T17:35:39	16	82.5
160010	2026-02-26T17:45:39	15.5	84.5
160011	2026-02-26T17:55:39	15.2	84.5
160012	2026-02-26T18:05:39	14.8	84.5
160013	2026-02-26T18:15:39	14.4	86.5
160014	2026-02-26T18:25:39	14.1	87.5
160015	2026-02-26T18:35:39	13.8	87
160016	2026-02-26T18:45:39	13.5	87.5
160017	2026-02-26T18:55:39	13.2	88.5
160018	2026-02-26T19:05:39	12.9	89.5
160019	2026-02-26T19:15:39	12.6	87
160020	2026-02-26T19:25:39	12.4	90.5
160021	2026-02-26T19:35:39	12.2	89.5
160022	2026-02-26T19:45:39	12	91.5
160023	2026-02-26T19:55:39	11.7	91.5
160024	2026-02-26T20:05:39	11.5	91.5
160025	2026-02-26T20:15:39	11.3	92
160026	2026-02-26T20:25:39	11	92.5
160027	2026-02-26T20:35:39	10.8	93.5
160028	2026-02-26T20:45:39	10.6	93.5
160029	2026-02-26T20:55:39	10.3	93.5
160030	2026-02-26T21:05:39	10.2	94.5
160031	2026-02-26T21:15:39	10.1	95
160032	2026-02-26T21:25:39	9.9	94.5
160033	2026-02-26T21:35:39	9.6	95
160034	2026-02-26T21:45:39	9.5	95.5
160035	2026-02-26T21:55:39	9.4	94.5
160036	2026-02-26T22:05:39	9.3	95.5
160037	2026-02-26T22:15:39	9	96.5
160038	2026-02-26T22:25:39	9.1	96
160039	2026-02-26T22:35:39	8.9	96.5
160040	2026-02-26T22:45:39	8.6	96.5
160041	2026-02-26T22:55:39	8.5	97.5
160042	2026-02-26T23:05:39	8.4	97.5
160043	2026-02-26T23:15:39	8.2	97.5
160044	2026-02-26T23:25:39	8.1	98
160045	2026-02-26T23:35:39	8	98.5
160046	2026-02-26T23:45:39	7.9	98.5
160047	2026-02-26T23:55:39	7.7	99
160048	2026-02-27T00:05:39	7.6	99
160049	2026-02-27T00:15:39	7.3	99
160050	2026-02-27T00:25:39	7.3	99.5
160051	2026-02-27T00:35:39	7.2	99
160052	2026-02-27T00:45:39	7.1	99.5
160053	2026-02-27T00:55:39	6.9	99.5
160054	2026-02-27T01:05:39	6.7	99
160055	2026-02-27T01:15:39	6.8	99.5
160056	2026-02-27T01:25:39	6.6	100
160057	2026-02-27T01:35:39	6.3	100
160058	2026-02-27T01:45:38	6.2	100
160059	2026-02-27T01:55:38	6	100
160060	2026-02-27T02:05:38	6	100
160061	2026-02-27T02:15:38	5.8	100
160062	2026-02-27T02:25:39	5.8	100
160063	2026-02-27T02:35:38	5.6	100
160064	2026-02-27T02:45:38	5.6	100
160065	2026-02-27T02:55:38	5.4	100
160066	2026-02-27T03:05:38	5.3	100
160067	2026-02-27T03:15:38	5.3	100
160068	2026-02-27T03:25:38	5.2	100
160069	2026-02-27T03:35:38	5.1	100
160070	2026-02-27T03:45:38	5.1	100
160071	2026-02-27T03:55:38	4.9	100
160072	2026-02-27T04:05:38	4.8	100
160073	2026-02-27T04:15:38	4.9	100
160074	2026-02-27T04:25:38	4.7	100
160075	2026-02-27T04:35:38	4.7	100
160076	2026-02-27T04:45:38	4.5	100
160077	2026-02-27T04:55:38	4.2	100
160078	2026-02-27T05:05:38	4.3	100
160079	2026-02-27T05:15:38	4.2	100
160080	2026-02-27T05:25:38	4.1	100
160081	2026-02-27T05:35:38	4	100
160082	2026-02-27T05:45:38	3.9	100
160083	2026-02-27T05:55:38	3.9	100
160084	2026-02-27T06:05:38	3.8	100
160085	2026-02-27T06:15:38	3.8	100
160086	2026-02-27T06:25:38	3.7	100
160087	2026-02-27T06:35:38	3.8	100
160088	2026-02-27T06:45:38	3.8	100
160089	2026-02-27T06:55:38	3.9	100
160090	2026-02-27T07:05:38	4	100
160091	2026-02-27T07:15:38	4.1	100
160092	2026-02-27T07:25:38	4.4	100
160093	2026-02-27T07:35:38	4.6	100
160094	2026-02-27T07:45:38	4.8	100
160095	2026-02-27T07:55:38	5.1	100
160096	2026-02-27T08:05:38	5.5	100
160097	2026-02-27T08:15:38	5.8	100
160098	2026-02-27T08:25:38	6	100
160099	2026-02-27T08:35:38	6.3	100
160100	2026-02-27T08:45:38	7	100
160101	2026-02-27T08:55:38	7.2	100
160102	2026-02-27T09:05:38	7.7	100
160103	2026-02-27T09:15:38	8.1	100
160104	2026-02-27T09:25:38	8.4	100
160105	2026-02-27T09:35:38	8.6	100
160106	2026-02-27T09:45:38	8.7	100
160107	2026-02-27T09:55:38	9.1	98.5
160108	2026-02-27T10:05:38	9.5	98
160109	2026-02-27T10:15:38	10	95
160110	2026-02-27T10:25:38	10.3	94.5
160111	2026-02-27T10:35:38	10.4	95
160112	2026-02-27T10:45:38	10.9	93
160113	2026-02-27T10:55:38	11.5	90.5
160114	2026-02-27T11:05:38	11.7	90.5
160115	2026-02-27T11:15:38	12.1	88.5
160116	2026-02-27T11:25:38	12.3	88
160117	2026-02-27T11:35:38	12.9	85
160118	2026-02-27T11:45:38	13.4	83.5
160119	2026-02-27T11:55:38	14.2	79.5
160120	2026-02-27T12:05:38	14.9	77
160121	2026-02-27T12:15:38	15.7	73.5
160122	2026-02-27T12:25:38	19.1	62.5
160123	2026-02-27T12:35:38	21	52.5
160124	2026-02-27T12:45:38	22.3	48
160125	2026-02-27T12:55:38	23.5	47
160126	2026-02-27T13:05:38	24.9	43
160127	2026-02-27T13:15:38	26	46
160128	2026-02-27T13:25:38	27.1	40
160129	2026-02-27T13:35:38	28.5	40
160130	2026-02-27T13:45:38	30.4	40
160131	2026-02-27T13:55:38	30.6	36
160132	2026-02-27T14:05:38	31.9	35
160133	2026-02-27T14:15:38	33	32
160134	2026-02-27T14:25:38	32.9	34
160135	2026-02-27T14:35:38	32.9	32
160136	2026-02-27T14:45:38	32.3	31
160137	2026-02-27T14:55:38	33.9	35.5
160138	2026-02-27T15:05:38	33.4	33.5
160139	2026-02-27T15:15:38	34.6	34.5
160140	2026-02-27T15:25:38	34.6	32.5
160141	2026-02-27T15:35:38	34.2	33
160142	2026-02-27T15:45:38	33.3	33.5
160143	2026-02-27T15:55:38	33	34.5
160144	2026-02-27T16:05:38	30.7	32
160145	2026-02-27T16:15:38	29.2	33.5
160146	2026-02-27T16:25:38	28.6	38
160147	2026-02-27T16:35:38	26.8	39.5
160148	2026-02-27T16:45:38	24.9	51.5
160149	2026-02-27T16:55:38	22.9	56.5
160150	2026-02-27T17:05:38	21.7	59.5
160151	2026-02-27T17:15:38	20.6	60.5
160152	2026-02-27T17:25:38	19.9	62.5
160153	2026-02-27T17:35:38	19.1	62.5
160154	2026-02-27T17:45:38	18.6	65.5
160155	2026-02-27T17:55:38	18.1	65
160156	2026-02-27T18:05:38	17.6	66
160157	2026-02-27T18:15:38	17.3	67
160158	2026-02-27T18:25:37	16.9	66.5
160159	2026-02-27T18:35:37	16.1	70
160160	2026-02-27T18:45:37	16	70
160161	2026-02-27T18:55:37	15.4	71
160162	2026-02-27T19:05:37	15.1	73
160163	2026-02-27T19:15:37	14.8	73.5
160164	2026-02-27T19:25:37	14.4	75
160165	2026-02-27T19:35:37	14	75.5
160166	2026-02-27T19:45:37	13.8	76
160167	2026-02-27T19:55:37	13.5	77
160168	2026-02-27T20:05:37	13.1	76.5
160169	2026-02-27T20:15:37	12.9	79
160170	2026-02-27T20:25:37	12.7	80
160171	2026-02-27T20:35:37	12.4	79
160172	2026-02-27T20:45:37	12.2	79
160173	2026-02-27T20:55:37	11.9	81
160174	2026-02-27T21:05:37	11.7	81.5
160175	2026-02-27T21:15:37	11.4	81
160176	2026-02-27T21:25:37	11.3	82
160177	2026-02-27T21:35:37	11.1	81
160178	2026-02-27T21:45:37	10.8	82
160179	2026-02-27T21:55:37	10.5	82.5
160180	2026-02-27T22:05:37	10.5	83.5
160181	2026-02-27T22:15:37	10.1	83
160182	2026-02-27T22:25:37	10.1	84.5
160183	2026-02-27T22:35:37	10	84.5
160184	2026-02-27T22:45:37	9.8	85
160185	2026-02-27T22:55:37	9.6	85.5
160186	2026-02-27T23:05:37	9.3	85.5
160187	2026-02-27T23:15:37	9.1	86
160188	2026-02-27T23:25:37	9	87
160189	2026-02-27T23:35:37	8.7	86.5
160190	2026-02-27T23:45:37	8.6	87.5
160191	2026-02-27T23:55:37	8.5	87.5
160192	2026-02-28T00:05:37	8.4	88
160193	2026-02-28T00:15:37	8.3	87.5
160194	2026-02-28T00:25:37	8.2	88
160195	2026-02-28T00:35:37	8.1	88.5
160196	2026-02-28T00:45:37	7.9	89
160197	2026-02-28T00:55:37	7.8	89
160198	2026-02-28T01:05:37	7.6	89
160199	2026-02-28T01:15:37	7.4	89.5
160200	2026-02-28T01:25:37	7.4	90
160201	2026-02-28T01:35:37	7.2	90
160202	2026-02-28T01:45:37	7.1	90.5
160203	2026-02-28T01:55:37	6.9	90
160204	2026-02-28T02:05:37	6.9	91.5
160205	2026-02-28T02:15:37	6.8	92
160206	2026-02-28T02:25:37	6.7	92
160207	2026-02-28T02:35:37	6.6	92.5
160208	2026-02-28T02:45:37	6.5	93
160209	2026-02-28T02:55:37	6.4	93
160210	2026-02-28T03:05:37	6.3	93.5
160211	2026-02-28T03:15:37	6.2	93.5
160212	2026-02-28T03:25:37	6.2	93.5
160213	2026-02-28T03:35:37	6.6	91.5
160214	2026-02-28T03:45:37	7.3	88
160215	2026-02-28T03:55:37	7.1	89
160216	2026-02-28T04:05:37	7.3	89
160217	2026-02-28T04:15:37	8.1	86.5
160218	2026-02-28T04:25:37	8.7	84.5
160219	2026-02-28T04:35:37	9.1	83
160220	2026-02-28T04:45:37	9.1	82.5
160221	2026-02-28T04:55:37	8.6	85
160222	2026-02-28T05:05:37	8.3	86.5
160223	2026-02-28T05:15:37	7.9	87
160224	2026-02-28T05:25:37	7.9	86.5
160225	2026-02-28T05:35:37	7.8	88
160226	2026-02-28T05:45:37	7.6	87.5
160227	2026-02-28T05:55:37	7.9	87.5
160228	2026-02-28T06:05:37	7.8	89
160229	2026-02-28T06:15:37	7.5	89.5
160230	2026-02-28T06:25:37	7.7	89.5
160231	2026-02-28T06:35:37	7.9	88.5
160232	2026-02-28T06:45:37	8.2	88
160233	2026-02-28T06:55:37	8.3	88.5
160234	2026-02-28T07:05:37	8.8	88.5
160235	2026-02-28T07:15:37	9.2	87.5
160236	2026-02-28T07:25:37	9.5	86.5
160237	2026-02-28T07:35:37	9.5	88
160238	2026-02-28T07:45:37	9.9	86.5
160239	2026-02-28T07:55:37	10.5	84.5
160240	2026-02-28T08:05:37	11	83
160241	2026-02-28T08:15:37	11.1	82.5
160242	2026-02-28T08:25:37	11.4	82
160243	2026-02-28T08:35:37	11.3	82.5
160244	2026-02-28T08:45:37	11.3	83
160245	2026-02-28T08:55:37	11.9	81
160246	2026-02-28T09:05:37	12.3	80.5
160247	2026-02-28T09:15:37	12.8	77.5
160248	2026-02-28T09:25:37	13.2	77
160249	2026-02-28T09:35:37	13.7	74.5
160250	2026-02-28T09:45:37	13.9	72.5
160251	2026-02-28T09:55:37	14	72.5
160252	2026-02-28T10:05:37	14.1	71
160253	2026-02-28T10:15:37	14.2	71
160254	2026-02-28T10:25:37	14.4	69
160255	2026-02-28T10:35:37	14.6	68
160256	2026-02-28T10:45:37	14.6	66.5
160257	2026-02-28T10:55:37	14.8	67
160258	2026-02-28T11:05:37	14.8	66.5
160259	2026-02-28T11:15:36	14.8	67
160260	2026-02-28T11:25:36	15.1	66.5
160261	2026-02-28T11:35:36	15	66.5
160262	2026-02-28T11:45:36	15.2	68
160263	2026-02-28T11:55:36	15.4	67.5
160264	2026-02-28T12:05:36	15.7	65.5
160265	2026-02-28T12:15:36	16	64.5
160266	2026-02-28T12:25:36	16.9	59.5
160267	2026-02-28T12:35:36	17.6	54.5
160268	2026-02-28T12:45:36	16.4	56.5
160269	2026-02-28T12:55:36	16.3	57
160270	2026-02-28T13:05:36	15.7	57.5
160271	2026-02-28T13:15:36	15.6	59
160272	2026-02-28T13:25:36	15.1	60
160273	2026-02-28T13:35:36	14.8	61
160274	2026-02-28T13:45:36	14.8	62.5
160275	2026-02-28T13:55:36	14.8	61
160276	2026-02-28T14:05:36	14.7	61
160277	2026-02-28T14:15:36	14.4	60.5
160278	2026-02-28T14:25:36	14.1	62
160279	2026-02-28T14:35:36	13.9	63
160280	2026-02-28T14:45:36	13.8	63
160281	2026-02-28T14:55:36	13.8	64
160282	2026-02-28T15:05:36	13.7	63.5
160283	2026-02-28T15:15:36	13.6	64
160284	2026-02-28T15:25:36	13.5	64
160285	2026-02-28T15:35:36	13.4	64.5
160286	2026-02-28T15:45:36	13.3	66
160287	2026-02-28T15:55:36	13.1	66.5
160288	2026-02-28T16:05:36	12.9	66.5
160289	2026-02-28T16:15:36	12.8	66.5
160290	2026-02-28T16:25:36	12.7	66
160291	2026-02-28T16:35:36	12.7	66
160292	2026-02-28T16:45:36	12.3	66.5
160293	2026-02-28T16:55:36	12.1	66.5
160294	2026-02-28T17:05:36	12	66.5
160295	2026-02-28T17:15:36	11.8	67.5
160296	2026-02-28T17:25:36	11.7	68
160297	2026-02-28T17:35:36	11.8	68
160298	2026-02-28T17:45:36	11.8	68.5
160299	2026-02-28T17:55:36	11.6	70.5
160300	2026-02-28T18:05:36	11.7	72.5
160301	2026-02-28T18:15:36	11.5	75.5
160302	2026-02-28T18:25:36	11.3	78.5
160303	2026-02-28T18:35:36	10.4	92.5
160304	2026-02-28T18:45:36	10.1	89
160305	2026-02-28T18:55:36	9.6	94
160306	2026-02-28T19:05:36	9.4	95.5
160307	2026-02-28T19:15:36	9.6	98
160308	2026-02-28T19:25:36	9.6	96.5
160309	2026-02-28T19:35:36	9.5	95.5
160310	2026-02-28T19:45:36	9.6	96.5
160311	2026-02-28T19:55:36	9.5	93
160312	2026-02-28T20:05:36	9.4	92
160313	2026-02-28T20:15:36	9.2	91.5
160314	2026-02-28T20:25:36	8.9	91
160315	2026-02-28T20:35:36	8.9	89.5
160316	2026-02-28T20:45:36	9.1	88.5
160317	2026-02-28T20:55:36	8.9	90
160318	2026-02-28T21:05:36	8.6	90
160319	2026-02-28T21:15:36	8.4	93
160320	2026-02-28T21:25:36	8.1	95
160321	2026-02-28T21:35:36	8	95.5
160322	2026-02-28T21:45:36	8	95.5
160323	2026-02-28T21:55:36	7.8	96
160324	2026-02-28T22:05:36	7.7	95
160325	2026-02-28T22:15:36	7.5	96
160326	2026-02-28T22:25:36	7.5	95.5
160327	2026-02-28T22:35:36	7.2	95.5
160328	2026-02-28T22:45:36	7.2	96.5
160329	2026-02-28T22:55:36	6.9	96.5
160330	2026-02-28T23:05:36	6.7	97.5
160331	2026-02-28T23:15:36	6.5	98
160332	2026-02-28T23:25:36	6.4	98.5
160333	2026-02-28T23:35:36	6.4	98
160334	2026-02-28T23:45:36	6.3	98
160335	2026-02-28T23:55:36	6.1	98.5
160336	2026-03-01T00:05:36	6.1	98.5
160337	2026-03-01T00:15:36	6.1	98
160338	2026-03-01T00:25:36	6.3	98
160339	2026-03-01T00:35:36	6.1	98
160340	2026-03-01T00:45:36	6	98
160341	2026-03-01T00:55:36	5.9	98
160342	2026-03-01T01:05:36	5.9	98
160343	2026-03-01T01:15:36	5.8	98.5
160344	2026-03-01T01:25:36	5.7	98.5
160345	2026-03-01T01:35:36	5.6	99
160346	2026-03-01T01:45:36	5.4	99.5
160347	2026-03-01T01:55:36	5.2	99.5
160348	2026-03-01T02:05:36	5.3	100
160349	2026-03-01T02:15:36	5.6	100
160350	2026-03-01T02:25:36	5.8	98.5
160351	2026-03-01T02:35:36	5.4	98.5
160352	2026-03-01T02:45:36	5.4	99
160353	2026-03-01T02:55:36	5.3	99
160354	2026-03-01T03:05:36	5.4	99.5
160355	2026-03-01T03:15:36	5.4	99.5
160356	2026-03-01T03:25:36	5.3	99.5
160357	2026-03-01T03:35:36	4.9	100
160358	2026-03-01T03:45:36	5	100
160359	2026-03-01T03:55:36	4.8	100
160360	2026-03-01T04:05:36	4.8	100
160361	2026-03-01T04:15:36	4.6	100
160362	2026-03-01T04:25:36	4.4	100
160363	2026-03-01T04:35:36	4.3	100
160364	2026-03-01T04:45:36	4.3	100
160365	2026-03-01T04:55:36	4	100
160366	2026-03-01T05:05:36	4	100
160367	2026-03-01T05:15:36	3.9	100
160368	2026-03-01T05:25:35	4	100
160369	2026-03-01T05:35:36	3.8	100
160370	2026-03-01T05:45:35	3.7	100
160371	2026-03-01T05:55:35	3.5	100
160372	2026-03-01T06:05:35	3.3	100
160373	2026-03-01T06:15:35	3.3	100
160374	2026-03-01T06:25:35	3.2	100
160375	2026-03-01T06:35:35	3.2	100
160376	2026-03-01T06:45:35	3.2	100
160377	2026-03-01T06:55:35	3.4	100
160378	2026-03-01T07:05:35	3.4	100
160379	2026-03-01T07:15:35	3.4	100
160380	2026-03-01T07:25:35	3.4	100
160381	2026-03-01T07:35:35	3.4	100
160382	2026-03-01T07:45:35	3.6	100
160383	2026-03-01T07:55:35	3.5	100
160384	2026-03-01T08:05:35	3.6	100
160385	2026-03-01T08:15:35	3.9	100
160386	2026-03-01T08:25:35	4.3	100
160387	2026-03-01T08:35:35	4.8	100
160388	2026-03-01T08:45:35	5.3	100
160389	2026-03-01T08:55:35	5.5	100
160390	2026-03-01T09:05:35	5.9	100
160391	2026-03-01T09:15:35	6.4	100
160392	2026-03-01T09:25:35	6.3	100
160393	2026-03-01T09:35:35	6.4	100
160394	2026-03-01T09:45:35	6.8	100
160395	2026-03-01T09:55:35	7	100
160396	2026-03-01T10:05:35	7.4	100
160397	2026-03-01T10:15:35	7.5	100
160398	2026-03-01T10:25:35	8	99
160399	2026-03-01T10:35:35	8.4	97.5
160400	2026-03-01T10:45:35	8.9	95
160401	2026-03-01T10:55:35	9.8	90.5
160402	2026-03-01T11:05:35	10.4	85.5
160403	2026-03-01T11:15:35	10.5	80
160404	2026-03-01T11:25:35	10.7	78.5
160405	2026-03-01T11:35:35	10.8	78.5
160406	2026-03-01T11:45:35	11.2	73
160407	2026-03-01T11:55:35	11.6	74
160408	2026-03-01T12:05:35	12	72
160409	2026-03-01T12:15:35	13.5	68.5
160410	2026-03-01T12:25:35	16.5	57.5
160411	2026-03-01T12:35:35	15.1	57.5
160412	2026-03-01T12:45:35	17	55
160413	2026-03-01T12:55:35	18.5	48.5
160414	2026-03-01T13:05:35	20.9	44.5
160415	2026-03-01T13:15:35	22.1	43
160416	2026-03-01T13:25:35	23.6	38
160417	2026-03-01T13:35:35	24.1	38.5
160418	2026-03-01T13:45:35	24.8	36.5
160419	2026-03-01T13:55:35	25.7	34.5
160420	2026-03-01T14:05:35	25.2	34.5
160421	2026-03-01T14:15:35	26.8	32
160422	2026-03-01T14:25:35	26.7	31
160423	2026-03-01T14:35:35	27.3	31.5
160424	2026-03-01T14:45:35	28.7	32.5
160425	2026-03-01T14:55:35	29.3	29
160426	2026-03-01T15:05:35	28.7	30
160427	2026-03-01T15:15:35	28.1	29
160428	2026-03-01T15:25:35	29.4	28.5
160429	2026-03-01T15:35:35	28	30.5
160430	2026-03-01T15:45:35	27.7	29.5
160431	2026-03-01T15:55:35	24.3	32.5
160432	2026-03-01T16:05:35	26.8	32
160433	2026-03-01T16:25:35	25.1	33
160434	2026-03-01T16:35:35	24.8	37.5
160435	2026-03-01T16:45:35	23.1	40.5
160436	2026-03-01T16:55:35	20.5	46
160437	2026-03-01T17:05:35	19	49.5
160438	2026-03-01T17:15:35	18	51.5
160439	2026-03-01T17:25:35	17.1	54.5
160440	2026-03-01T17:35:35	16.3	56.5
160441	2026-03-01T17:45:35	15.8	59
160442	2026-03-01T17:55:35	15.2	61
160443	2026-03-01T18:05:35	14.6	62
160444	2026-03-01T18:15:35	14	64
160445	2026-03-01T18:25:35	13.6	65.5
160446	2026-03-01T18:35:35	13.1	66.5
160447	2026-03-01T18:45:35	12.6	67.5
160448	2026-03-01T18:55:35	12.3	68
160449	2026-03-01T19:05:35	12	70
160450	2026-03-01T19:15:35	11.6	70.5
160451	2026-03-01T19:25:35	11.5	70.5
160452	2026-03-01T19:35:35	11.5	71
160453	2026-03-01T19:45:35	11.1	72
160454	2026-03-01T19:55:35	10.8	73.5
160455	2026-03-01T20:05:35	10.6	74.5
160456	2026-03-01T20:15:35	10.3	73.5
160457	2026-03-01T20:25:35	10.1	74
160458	2026-03-01T20:35:35	9.9	75.5
160459	2026-03-01T20:45:35	9.6	76.5
160460	2026-03-01T20:55:35	9.1	78
160461	2026-03-01T21:05:35	8.9	78.5
160462	2026-03-01T21:15:35	8.7	78.5
160463	2026-03-01T21:25:35	8.5	79
160464	2026-03-01T21:35:35	8.1	80.5
160465	2026-03-01T21:45:35	7.9	81
160466	2026-03-01T21:55:34	7.7	81.5
160467	2026-03-01T22:05:34	7.4	83
160468	2026-03-01T22:15:34	7.3	82.5
160469	2026-03-01T22:25:35	7.1	83
160470	2026-03-01T22:35:34	6.9	84
160471	2026-03-01T22:45:34	6.7	83.5
160472	2026-03-01T22:55:34	6.4	84.5
160473	2026-03-01T23:05:34	6.2	85
160474	2026-03-01T23:15:34	6.1	85.5
160475	2026-03-01T23:25:34	5.9	85.5
160476	2026-03-01T23:35:34	5.7	86
160477	2026-03-01T23:45:34	5.6	86.5
160478	2026-03-01T23:55:34	5.5	87
160479	2026-03-02T00:05:34	5.2	88
160480	2026-03-02T00:15:34	5.1	88
160481	2026-03-02T00:25:34	5	88
160482	2026-03-02T00:35:34	4.8	89
160483	2026-03-02T00:45:34	4.6	89
160484	2026-03-02T00:55:34	4.5	89
160485	2026-03-02T01:05:35	4.3	89.5
160486	2026-03-02T01:15:34	4.2	90
160487	2026-03-02T01:25:34	4.1	91
160488	2026-03-02T01:35:34	4	91
160489	2026-03-02T01:45:34	3.9	91.5
160490	2026-03-02T01:55:34	3.8	91.5
160491	2026-03-02T02:05:34	3.7	92.5
160492	2026-03-02T02:15:34	3.7	93
160493	2026-03-02T02:25:34	3.4	92.5
160494	2026-03-02T02:35:34	3.3	93
160495	2026-03-02T02:45:34	3.2	93
160496	2026-03-02T02:55:34	3	93
160497	2026-03-02T03:05:34	3.1	93.5
160498	2026-03-02T03:15:34	2.9	94
160499	2026-03-02T03:25:34	2.7	94
160500	2026-03-02T03:35:34	2.6	94.5
160501	2026-03-02T03:45:34	2.5	94.5
160502	2026-03-02T03:55:34	2.4	94.5
160503	2026-03-02T04:05:34	2.2	94.5
160504	2026-03-02T04:15:34	2.2	94.5
160505	2026-03-02T04:25:34	2.1	95
160506	2026-03-02T04:35:34	2	95
160507	2026-03-02T04:45:34	1.9	95.5
160508	2026-03-02T04:55:34	1.8	96.5
160509	2026-03-02T05:05:34	1.7	96
160510	2026-03-02T05:15:34	1.7	95
160511	2026-03-02T05:25:34	1.8	95
160512	2026-03-02T05:35:34	1.6	95.5
160513	2026-03-02T05:45:34	1.4	96.5
160514	2026-03-02T05:55:34	1.2	97
160515	2026-03-02T06:05:34	1	97.5
160516	2026-03-02T06:15:34	1.1	98.5
160517	2026-03-02T06:25:34	1.1	98.5
160518	2026-03-02T06:35:34	0.9	98.5
160519	2026-03-02T06:45:34	1	98.5
160520	2026-03-02T06:55:34	1.2	99
160521	2026-03-02T07:05:34	1.3	98.5
160522	2026-03-02T07:15:34	1.5	98.5
160523	2026-03-02T07:25:34	1.7	99
160524	2026-03-02T07:35:34	1.9	99.5
160525	2026-03-02T07:45:34	1.9	99.5
160526	2026-03-02T07:55:34	2.1	100
160527	2026-03-02T08:05:34	2.4	100
160528	2026-03-02T08:15:34	2.7	100
160529	2026-03-02T08:25:34	3.1	100
160530	2026-03-02T08:35:34	3.3	99
160531	2026-03-02T08:45:34	3.7	99
160532	2026-03-02T08:55:34	4	98
160533	2026-03-02T09:05:34	4.3	97
160534	2026-03-02T09:15:34	4.5	96.5
160535	2026-03-02T09:25:34	4.6	96.5
160536	2026-03-02T09:35:34	5.2	95
160537	2026-03-02T09:45:34	5.5	94
160538	2026-03-02T09:55:34	5.7	92.5
160539	2026-03-02T10:05:34	6	91
160540	2026-03-02T10:15:34	6.4	89
160541	2026-03-02T10:25:34	6.6	90
160542	2026-03-02T10:35:34	6.9	88.5
160543	2026-03-02T10:45:34	7.3	88
160544	2026-03-02T10:55:34	7.6	86.5
160545	2026-03-02T11:05:34	8	85.5
160546	2026-03-02T11:15:34	8.2	84
160547	2026-03-02T11:25:34	8.8	80.5
160548	2026-03-02T11:35:34	9.1	79.5
160549	2026-03-02T11:45:34	9.3	79.5
160550	2026-03-02T11:55:34	10.1	75.5
160551	2026-03-02T12:05:34	10.5	74.5
160552	2026-03-02T12:15:34	11.6	72
160553	2026-03-02T12:25:34	16.4	60.5
160554	2026-03-02T12:35:34	19.9	53
160555	2026-03-02T12:45:34	22.2	46.5
160556	2026-03-02T12:55:34	23.7	40.5
160557	2026-03-02T13:05:34	25.4	37
160558	2026-03-02T13:15:34	26.9	37
160559	2026-03-02T13:25:34	28	34
160560	2026-03-02T13:35:34	28.6	34
160561	2026-03-02T13:45:34	28.9	32
160562	2026-03-02T13:55:34	29.8	30
160563	2026-03-02T14:05:34	31.5	29.5
160564	2026-03-02T14:15:34	30.4	29.5
160565	2026-03-02T14:25:34	31.5	27.5
160566	2026-03-02T14:35:34	32.8	28
160567	2026-03-02T14:45:34	33	27
160568	2026-03-02T14:55:34	32.8	27
160569	2026-03-02T15:05:34	33.7	28
160570	2026-03-02T15:15:34	34.3	25
160571	2026-03-02T15:25:34	33.6	26.5
160572	2026-03-02T15:35:34	32.8	27.5
160573	2026-03-02T15:45:34	32.6	28
160574	2026-03-02T15:55:34	32.2	27.5
160575	2026-03-02T16:05:34	31.8	27
160576	2026-03-02T16:15:34	30.7	29.5
160577	2026-03-02T16:25:34	29	31.5
160578	2026-03-02T16:35:34	26.5	32.5
160579	2026-03-02T16:45:34	25	35
160580	2026-03-02T16:55:34	22.6	39.5
160581	2026-03-02T17:05:34	20.6	44
160582	2026-03-02T17:15:34	19.4	46
160583	2026-03-02T17:25:34	18.6	49
160584	2026-03-02T17:35:34	17.7	53.5
160585	2026-03-02T17:45:34	17.1	55.5
160586	2026-03-02T17:55:34	16.4	57
160587	2026-03-02T18:05:34	15.6	58.5
160588	2026-03-02T18:15:33	15.2	60.5
160589	2026-03-02T18:25:33	14.6	61
160590	2026-03-02T18:35:33	14	63
160591	2026-03-02T18:45:34	13.5	64
160592	2026-03-02T18:55:34	13.1	64.5
160593	2026-03-02T19:05:33	12.9	65
160594	2026-03-02T19:15:33	12.6	66
160595	2026-03-02T19:25:33	12.2	67.5
160596	2026-03-02T19:35:33	11.8	68.5
160597	2026-03-02T19:45:33	11.6	68
160598	2026-03-02T19:55:33	11.3	69
160599	2026-03-02T20:05:33	11	70.5
160600	2026-03-02T20:15:33	10.7	70
160601	2026-03-02T20:25:33	10.4	70.5
160602	2026-03-02T20:35:33	10.3	71.5
160603	2026-03-02T20:45:33	10.1	72
160604	2026-03-02T20:55:33	9.7	74
160605	2026-03-02T21:05:33	9.4	75
160606	2026-03-02T21:15:33	9.1	75.5
160607	2026-03-02T21:25:33	8.9	76.5
160608	2026-03-02T21:35:33	8.7	76.5
160609	2026-03-02T21:45:33	8.4	77
160610	2026-03-02T21:55:33	8.2	78
160611	2026-03-02T22:05:33	8.1	78
160612	2026-03-02T22:15:33	8	79
160613	2026-03-02T22:25:33	7.6	78.5
160614	2026-03-02T22:35:33	7.4	79.5
160615	2026-03-02T22:45:33	7.1	80
160616	2026-03-02T22:55:33	7	81
160617	2026-03-02T23:05:33	6.8	81.5
160618	2026-03-02T23:15:33	6.5	81
160619	2026-03-02T23:25:33	6.3	82
160620	2026-03-02T23:35:33	6.2	82.5
160621	2026-03-02T23:45:33	6	83
160622	2026-03-02T23:55:33	5.8	83
160623	2026-03-03T00:05:51	5.7	83.5
160624	2026-03-03T00:15:33	5.4	84.5
160625	2026-03-03T00:25:33	5.3	85.5
160626	2026-03-03T00:35:33	5.1	85
160627	2026-03-03T00:45:33	5	85.5
160628	2026-03-03T00:55:33	4.9	86
160629	2026-03-03T01:05:33	4.7	86.5
160630	2026-03-03T01:15:33	4.6	87
160631	2026-03-03T01:25:33	4.2	87
160632	2026-03-03T01:35:33	4.2	87.5
160633	2026-03-03T01:45:33	4.1	87.5
160634	2026-03-03T01:55:33	4	88
160635	2026-03-03T02:05:33	3.8	88
160636	2026-03-03T02:15:51	3.6	88.5
160637	2026-03-03T02:25:33	3.6	89.5
160638	2026-03-03T02:35:33	3.5	89.5
160639	2026-03-03T02:45:33	3.4	89.5
160640	2026-03-03T02:55:33	3.2	90
160641	2026-03-03T03:05:33	3.1	90.5
160642	2026-03-03T03:15:33	3	90.5
160643	2026-03-03T03:25:33	3	90
160644	2026-03-03T03:35:33	2.8	91
160645	2026-03-03T03:45:33	2.7	91
160646	2026-03-03T03:55:33	2.6	91
160647	2026-03-03T04:05:33	2.6	91
160648	2026-03-03T04:15:33	2.4	91.5
160649	2026-03-03T04:25:33	2.4	91.5
160650	2026-03-03T04:35:33	2.2	92
160651	2026-03-03T04:45:33	2.2	92
160652	2026-03-03T04:55:33	2.1	92.5
160653	2026-03-03T05:05:33	1.9	92.5
160654	2026-03-03T05:15:33	1.9	93
160655	2026-03-03T05:25:33	1.8	93.5
160656	2026-03-03T05:35:33	1.7	94
160657	2026-03-03T05:45:33	1.8	94
160658	2026-03-03T05:55:33	1.6	94.5
160659	2026-03-03T06:05:33	1.6	94.5
160660	2026-03-03T06:15:33	1.5	94.5
160661	2026-03-03T06:25:33	1.5	94.5
160662	2026-03-03T06:35:33	1.5	95
160663	2026-03-03T06:45:33	1.6	94.5
160664	2026-03-03T06:55:33	1.8	94.5
160665	2026-03-03T07:05:33	1.9	95
160666	2026-03-03T07:15:33	2.2	95
160667	2026-03-03T07:25:33	2.3	95
160668	2026-03-03T07:35:33	2.6	95.5
160669	2026-03-03T07:45:33	2.7	96
160670	2026-03-03T07:55:33	3.1	96.5
160671	2026-03-03T08:05:33	3.4	96.5
160672	2026-03-03T08:15:33	3.7	97.5
160673	2026-03-03T08:25:33	4	97.5
160674	2026-03-03T08:35:33	4.5	97
160675	2026-03-03T08:45:33	4.8	96.5
160676	2026-03-03T08:55:33	5.1	95.5
160677	2026-03-03T09:05:33	5.5	94
160678	2026-03-03T09:15:33	5.9	91.5
160679	2026-03-03T09:25:33	6.2	92
160680	2026-03-03T09:35:33	6.5	92
160681	2026-03-03T09:45:33	6.8	91
160682	2026-03-03T09:55:33	7	89.5
160683	2026-03-03T10:05:33	7.4	89
160684	2026-03-03T10:15:33	7.8	87
160685	2026-03-03T10:25:33	8.6	84
160686	2026-03-03T10:35:33	8.9	82.5
160687	2026-03-03T10:45:33	9.2	82.5
160688	2026-03-03T10:55:33	9.3	84
160689	2026-03-03T11:05:33	9.6	83
160690	2026-03-03T11:15:33	9.9	82.5
160691	2026-03-03T11:25:33	10.1	82
160692	2026-03-03T11:35:33	10.5	80
160693	2026-03-03T11:45:33	11.4	76.5
160694	2026-03-03T11:55:33	11.6	74.5
160695	2026-03-03T12:05:33	12.3	74.5
160696	2026-03-03T12:15:33	13.5	70.5
160697	2026-03-03T12:25:33	17.7	57.5
160698	2026-03-03T12:35:33	21	48.5
160699	2026-03-03T12:45:33	21.8	44
160700	2026-03-03T12:55:33	23.8	41.5
160701	2026-03-03T13:05:33	25.5	39.5
160702	2026-03-03T13:15:33	26.3	37.5
160703	2026-03-03T13:25:33	25.9	37
160704	2026-03-03T13:35:33	28.1	36.5
160705	2026-03-03T13:45:33	28.7	32.5
160706	2026-03-03T13:55:33	27.9	33
160707	2026-03-03T14:05:33	28.5	34
160708	2026-03-03T14:15:33	29.4	32.5
160709	2026-03-03T14:25:33	29.3	32.5
160710	2026-03-03T14:35:33	31.2	32
160711	2026-03-03T14:45:33	31.6	30.5
160712	2026-03-03T14:55:32	30.1	30.5
160713	2026-03-03T15:05:32	31.3	30.5
160714	2026-03-03T15:15:32	29.7	30
160715	2026-03-03T15:25:33	29.5	31
160716	2026-03-03T15:35:32	29.7	31
160717	2026-03-03T15:45:32	30.2	32
160718	2026-03-03T15:55:32	29.7	31.5
160719	2026-03-03T16:05:32	29.2	32
160720	2026-03-03T16:15:32	28.1	34
160721	2026-03-03T16:25:32	26.6	36
160722	2026-03-03T16:35:32	24.3	39.5
160723	2026-03-03T16:45:32	22.5	43.5
160724	2026-03-03T16:55:32	21	46
160725	2026-03-03T17:05:32	19.7	48.5
160726	2026-03-03T17:15:32	18.7	51.5
160727	2026-03-03T17:25:32	17.9	53.5
160728	2026-03-03T17:35:32	17.4	58
160729	2026-03-03T17:45:32	16.8	60.5
160730	2026-03-03T17:55:32	16.3	61.5
160731	2026-03-03T18:05:32	15.6	63
160732	2026-03-03T18:15:32	15	63.5
160733	2026-03-03T18:25:32	14.5	64.5
160734	2026-03-03T18:35:32	14.2	66
160735	2026-03-03T18:45:32	13.7	67.5
160736	2026-03-03T18:55:32	13.2	68
160737	2026-03-03T19:05:32	12.8	69
160738	2026-03-03T19:15:32	12.6	70
160739	2026-03-03T19:25:32	12.3	71
160740	2026-03-03T19:35:32	11.9	72
160741	2026-03-03T19:45:32	11.7	72
160742	2026-03-03T19:55:32	11.6	73
160743	2026-03-03T20:05:32	11.4	73.5
160744	2026-03-03T20:15:32	11.2	73
160745	2026-03-03T20:25:32	11	74
160746	2026-03-03T20:35:32	10.6	75
160747	2026-03-03T20:45:32	10.5	75.5
160748	2026-03-03T20:55:32	10.2	76.5
160749	2026-03-03T21:05:32	10.1	77
160750	2026-03-03T21:15:32	9.9	78
160751	2026-03-03T21:25:32	9.6	78.5
160752	2026-03-03T21:35:32	9.3	78.5
160753	2026-03-03T21:45:32	9	79
160754	2026-03-03T21:55:32	8.7	80
160755	2026-03-03T22:05:32	8.5	81.5
160756	2026-03-03T22:15:32	8.4	81.5
160757	2026-03-03T22:25:32	8.1	82
160758	2026-03-03T22:35:32	8	82
160759	2026-03-03T22:45:32	7.8	82.5
160760	2026-03-03T22:55:32	7.7	83.5
160761	2026-03-03T23:05:32	7.5	83.5
160762	2026-03-03T23:15:32	7.1	84.5
160763	2026-03-03T23:25:32	7.3	84.5
160764	2026-03-03T23:35:32	7.1	85
160765	2026-03-03T23:45:32	6.9	85.5
160766	2026-03-03T23:55:32	6.7	85.5
160767	2026-03-04T00:05:32	6.7	86
160768	2026-03-04T00:15:32	6.6	86.5
160769	2026-03-04T00:25:32	6.3	86.5
160770	2026-03-04T00:35:32	6.2	86.5
160771	2026-03-04T00:45:32	6	86.5
160772	2026-03-04T00:55:32	5.8	87
160773	2026-03-04T01:05:32	5.6	88
160774	2026-03-04T01:15:32	5.5	88
160775	2026-03-04T01:25:32	5.2	88
160776	2026-03-04T01:35:32	5.1	89
160777	2026-03-04T01:45:32	5	88.5
160778	2026-03-04T01:55:32	4.8	89.5
160779	2026-03-04T02:05:32	4.6	89.5
160780	2026-03-04T02:15:32	4.4	90.5
160781	2026-03-04T02:25:32	4.3	90.5
160782	2026-03-04T02:35:32	4.3	90.5
160783	2026-03-04T02:45:32	4.2	90.5
160784	2026-03-04T02:55:32	4.1	90
160785	2026-03-04T03:05:32	3.9	90.5
160786	2026-03-04T03:15:32	3.7	91.5
160787	2026-03-04T03:25:32	3.8	91.5
160788	2026-03-04T03:35:32	3.6	91.5
160789	2026-03-04T03:45:32	3.5	92
160790	2026-03-04T03:55:32	3.3	92
160791	2026-03-04T04:05:32	3.1	93
160792	2026-03-04T04:15:32	3	93
160793	2026-03-04T04:25:32	3	94
160794	2026-03-04T04:35:32	3	93.5
160795	2026-03-04T04:45:32	2.8	93
160796	2026-03-04T04:55:32	2.8	93
160797	2026-03-04T05:05:32	2.7	93.5
160798	2026-03-04T05:15:32	2.6	94
160799	2026-03-04T05:25:32	2.4	94
160800	2026-03-04T05:35:32	2.3	94.5
160801	2026-03-04T05:45:32	2.2	94.5
160802	2026-03-04T05:55:32	2.1	94.5
160803	2026-03-04T06:05:32	2.2	95
160804	2026-03-04T06:15:32	2	95
160805	2026-03-04T06:25:32	2.2	95
160806	2026-03-04T06:35:32	2.1	94.5
160807	2026-03-04T06:45:32	2.3	95
160808	2026-03-04T06:55:32	2.4	95.5
160809	2026-03-04T07:05:32	2.4	95
160810	2026-03-04T07:15:32	2.4	95.5
160811	2026-03-04T07:25:32	2.7	96
160812	2026-03-04T07:35:32	2.8	96
160813	2026-03-04T07:45:32	3.1	96.5
160814	2026-03-04T07:55:32	3.3	97
160815	2026-03-04T08:05:32	3.5	97.5
160816	2026-03-04T08:15:32	3.7	98
160817	2026-03-04T08:25:32	4.2	98
160818	2026-03-04T08:35:32	4.6	98
160819	2026-03-04T08:45:32	5.1	96.5
160820	2026-03-04T08:55:32	5.3	95.5
160821	2026-03-04T09:05:32	5.6	95.5
160822	2026-03-04T09:15:32	5.9	94
160823	2026-03-04T09:25:32	6.4	93
160824	2026-03-04T09:35:32	7	91.5
160825	2026-03-04T09:45:32	7.3	92.5
160826	2026-03-04T09:55:32	7.9	91
160827	2026-03-04T10:05:32	8.4	89.5
160828	2026-03-04T10:15:32	8.9	88.5
160829	2026-03-04T10:25:32	9.3	86
160830	2026-03-04T10:35:32	9.9	84.5
160831	2026-03-04T10:45:32	10.5	81
160832	2026-03-04T10:55:31	10.8	81
160833	2026-03-04T11:05:31	11	75.5
160834	2026-03-04T11:15:31	11.6	75
160835	2026-03-04T11:25:31	11.9	72
160836	2026-03-04T11:35:31	12.1	69
160837	2026-03-04T11:45:31	12.5	67.5
160838	2026-03-04T11:55:31	12.9	66.5
160839	2026-03-04T12:05:31	13.4	64
160840	2026-03-04T12:15:31	14.7	60
160841	2026-03-04T12:25:31	19.2	50.5
160842	2026-03-04T12:35:31	22.1	44
160843	2026-03-04T12:45:31	24	41.5
160844	2026-03-04T12:55:31	25.6	37.5
160845	2026-03-04T13:05:31	26.6	38
160846	2026-03-04T13:15:31	28.2	36
160847	2026-03-04T13:25:31	28.9	35
160848	2026-03-04T13:35:31	30.1	30.5
160849	2026-03-04T13:45:31	30.4	30.5
160850	2026-03-04T13:55:31	30.9	31
160851	2026-03-04T14:05:31	31.4	30
160852	2026-03-04T14:15:31	31.4	28.5
160853	2026-03-04T14:25:31	31.3	28
160854	2026-03-04T14:35:31	32.1	28.5
160855	2026-03-04T14:45:31	32.3	28
160856	2026-03-04T14:55:31	32.2	27.5
160857	2026-03-04T15:05:31	31.9	27
160858	2026-03-04T15:15:31	32.2	28
160859	2026-03-04T15:25:31	31.7	26.5
160860	2026-03-04T15:35:31	31.5	27
160861	2026-03-04T15:45:31	30.9	26.5
160862	2026-03-04T15:55:31	30.6	27
160863	2026-03-04T16:05:31	29.9	28
160864	2026-03-04T16:15:31	28.7	29.5
160865	2026-03-04T16:25:31	27.5	31.5
160866	2026-03-04T16:35:31	24.9	34
160867	2026-03-04T16:45:31	23.4	38
160868	2026-03-04T16:55:31	21.8	41
160869	2026-03-04T17:05:31	20.1	45
160870	2026-03-04T17:15:31	19	47.5
160871	2026-03-04T17:25:31	18.1	49.5
160872	2026-03-04T17:35:31	17.5	50.5
160873	2026-03-04T17:45:31	16.8	53
160874	2026-03-04T17:55:31	16.3	54.5
160875	2026-03-04T18:05:31	15.8	57
160876	2026-03-04T18:15:31	15.5	58.5
160877	2026-03-04T18:25:31	15.2	59.5
160878	2026-03-04T18:35:31	14.8	61.5
160879	2026-03-04T18:45:31	14.3	63
160880	2026-03-04T18:55:31	14	64
160881	2026-03-04T19:05:31	13.2	64.5
160882	2026-03-04T19:15:31	12.9	66
160883	2026-03-04T19:25:31	12.5	67.5
160884	2026-03-04T19:35:31	12.2	69
160885	2026-03-04T19:45:31	11.8	69.5
160886	2026-03-04T19:55:31	11.5	70.5
160887	2026-03-04T20:05:31	11.1	71.5
160888	2026-03-04T20:15:31	10.9	72.5
160889	2026-03-04T20:25:31	10.6	73
160890	2026-03-04T20:35:31	10.4	74
160891	2026-03-04T20:45:31	10.3	75
160892	2026-03-04T20:55:31	9.8	75.5
160893	2026-03-04T21:05:31	9.6	76
160894	2026-03-04T21:15:31	9.4	76.5
160895	2026-03-04T21:25:31	9	76
160896	2026-03-04T21:35:31	8.9	76.5
160897	2026-03-04T21:45:31	8.7	77
160898	2026-03-04T21:55:31	8.4	76
160899	2026-03-04T22:05:31	8.3	75.5
160900	2026-03-04T22:15:31	8.2	75.5
160901	2026-03-04T22:25:31	8.2	75.5
160902	2026-03-04T22:35:31	7.8	75.5
160903	2026-03-04T22:45:31	7.7	76.5
160904	2026-03-04T22:55:31	7.4	78
160905	2026-03-04T23:05:31	7.1	78
160906	2026-03-04T23:15:31	7	78.5
160907	2026-03-04T23:25:31	6.9	78.5
160908	2026-03-04T23:35:31	6.7	78
160909	2026-03-04T23:45:31	6.7	78.5
160910	2026-03-04T23:55:31	6.3	79
160911	2026-03-05T00:05:31	6	80
160912	2026-03-05T00:15:31	6	79.5
160913	2026-03-05T00:25:30	6.1	80
160914	2026-03-05T00:35:30	5.8	81
160915	2026-03-05T00:45:31	5.6	80.5
160916	2026-03-05T00:55:30	5.4	81.5
160917	2026-03-05T01:05:31	5.4	80.5
160918	2026-03-05T01:15:30	5	82
160919	2026-03-05T01:25:30	4.7	83
160920	2026-03-05T01:35:30	4.7	83
160921	2026-03-05T01:45:30	4.6	84
160922	2026-03-05T01:55:30	4.5	84.5
160923	2026-03-05T02:05:30	4.5	84
160924	2026-03-05T02:15:30	4.5	84.5
160925	2026-03-05T02:25:30	4.6	84.5
160926	2026-03-05T02:35:30	4.6	84.5
160927	2026-03-05T02:45:30	4.3	84.5
160928	2026-03-05T02:55:30	4.3	85
160929	2026-03-05T03:05:30	4.4	84
160930	2026-03-05T03:15:30	4.3	84.5
160931	2026-03-05T03:25:30	4.2	85
160932	2026-03-05T03:35:30	4	86
160933	2026-03-05T03:45:30	3.8	86
160934	2026-03-05T03:55:30	4	85
160935	2026-03-05T04:05:30	3.6	84.5
160936	2026-03-05T04:15:30	3.5	85.5
160937	2026-03-05T04:25:30	3.2	87
160938	2026-03-05T04:35:30	2.9	88
160939	2026-03-05T04:45:30	2.6	89.5
160940	2026-03-05T04:55:30	2.4	90
160941	2026-03-05T05:05:30	2.2	90
160942	2026-03-05T05:15:30	2.2	91
160943	2026-03-05T05:25:30	2.2	89.5
160944	2026-03-05T05:35:30	1.8	91
160945	2026-03-05T05:45:30	1.8	92
160946	2026-03-05T05:55:30	1.6	92
160947	2026-03-05T06:05:30	1.5	92.5
160948	2026-03-05T06:15:30	1.5	92.5
160949	2026-03-05T06:25:30	1.4	93
160950	2026-03-05T06:35:30	1.5	92.5
160951	2026-03-05T06:45:30	1.4	93
160952	2026-03-05T06:55:30	1.6	92.5
160953	2026-03-05T07:05:30	1.7	92
160954	2026-03-05T07:15:30	2	91.5
160955	2026-03-05T07:25:30	2.4	92.5
160956	2026-03-05T07:35:30	2.6	92.5
160957	2026-03-05T07:45:30	2.8	92.5
160958	2026-03-05T07:55:30	2.9	93
160959	2026-03-05T08:05:30	3.1	91
160960	2026-03-05T08:15:30	3.5	88.5
160961	2026-03-05T08:25:30	3.8	88.5
160962	2026-03-05T08:35:30	4.1	89
160963	2026-03-05T08:45:30	4.3	87.5
160964	2026-03-05T08:55:30	4.4	88
160965	2026-03-05T09:05:30	5	87.5
160966	2026-03-05T09:15:30	5.3	96.5
160967	2026-03-05T09:25:30	5.1	100
160968	2026-03-05T09:35:30	5.2	100
160969	2026-03-05T09:45:30	5.4	100
160970	2026-03-05T09:55:30	5.7	100
160971	2026-03-05T10:05:30	5.9	100
160972	2026-03-05T10:15:30	6.4	100
160973	2026-03-05T10:25:30	6.9	100
160974	2026-03-05T10:35:30	7.3	98.5
160975	2026-03-05T10:45:30	7.7	96
160976	2026-03-05T10:55:30	8.3	92.5
160977	2026-03-05T11:05:30	9	88
160978	2026-03-05T11:15:30	9.7	83
160979	2026-03-05T11:25:30	10.7	79
160980	2026-03-05T11:35:30	10.9	80.5
160981	2026-03-05T11:45:30	11.3	81
160982	2026-03-05T11:55:30	11.9	78.5
160983	2026-03-05T12:05:30	12.6	76
160984	2026-03-05T12:15:30	14	69.5
160985	2026-03-05T12:25:30	18.3	61.5
160986	2026-03-05T12:35:30	20.9	51.5
160987	2026-03-05T12:45:30	22.1	47
160988	2026-03-05T12:55:30	23.7	44
160989	2026-03-05T13:05:30	24.5	40.5
160990	2026-03-05T13:15:30	25.5	40
160991	2026-03-05T13:25:30	26.1	38.5
160992	2026-03-05T13:35:30	26.8	36
160993	2026-03-05T13:45:30	27.6	35.5
160994	2026-03-05T13:55:30	28.6	35.5
160995	2026-03-05T14:05:30	30.3	32.5
160996	2026-03-05T14:15:30	31.2	32
160997	2026-03-05T14:25:30	31.8	30.5
160998	2026-03-05T14:35:30	31.5	30.5
160999	2026-03-05T14:45:30	31.9	29.5
161000	2026-03-05T14:55:30	31.8	29.5
161001	2026-03-05T15:05:30	30.8	29
161002	2026-03-05T15:15:30	30.7	30
161003	2026-03-05T15:25:30	30.6	29.5
161004	2026-03-05T15:35:30	30	31
161005	2026-03-05T15:45:30	29.5	31.5
161006	2026-03-05T15:55:30	28.6	30.5
161007	2026-03-05T16:05:30	26.6	32
161008	2026-03-05T16:15:30	24.9	34
161009	2026-03-05T16:25:30	23.2	37
161010	2026-03-05T16:35:30	21.9	38.5
161011	2026-03-05T16:45:30	20.6	41
161012	2026-03-05T16:55:30	19.5	42
161013	2026-03-05T17:05:30	18.5	43.5
161014	2026-03-05T17:15:30	17.7	45
161015	2026-03-05T17:25:30	17.1	44.5
161016	2026-03-05T17:35:30	16.7	43.5
161017	2026-03-05T17:45:30	16.2	43
161018	2026-03-05T17:55:30	15.8	44
161019	2026-03-05T18:05:30	15.4	45
161020	2026-03-05T18:15:30	15.2	46
161021	2026-03-05T18:25:30	14.9	47
161022	2026-03-05T18:35:30	14.6	47
161023	2026-03-05T18:45:30	14.4	49
161024	2026-03-05T18:55:29	14.1	49.5
161025	2026-03-05T19:05:29	13.8	50.5
161026	2026-03-05T19:15:29	13.5	53.5
161027	2026-03-05T19:25:29	13	54
161028	2026-03-05T19:35:29	12.9	54.5
161029	2026-03-05T19:45:29	12.6	56.5
161030	2026-03-05T19:55:29	12.2	57.5
161031	2026-03-05T20:05:29	12	58
161032	2026-03-05T20:15:29	12	57.5
161033	2026-03-05T20:25:29	11.8	57.5
161034	2026-03-05T20:35:29	11.5	61
161035	2026-03-05T20:45:29	11.2	62.5
161036	2026-03-05T20:55:29	11.2	62
161037	2026-03-05T21:05:29	10.8	63.5
161038	2026-03-05T21:15:29	10.6	66.5
161039	2026-03-05T21:25:29	10.4	68
161040	2026-03-05T21:35:29	10.1	69
161041	2026-03-05T21:45:29	9.8	70.5
161042	2026-03-05T21:55:29	9.5	70
161043	2026-03-05T22:05:29	9.3	71
161044	2026-03-05T22:15:29	9.2	72
161045	2026-03-05T22:25:29	9.1	72
161046	2026-03-05T22:35:29	8.8	72.5
161047	2026-03-05T22:45:29	8.5	74
161048	2026-03-05T22:55:29	8.3	74.5
161049	2026-03-05T23:05:29	8.2	75
161050	2026-03-05T23:15:29	8.1	76
161051	2026-03-05T23:25:29	7.9	76
161052	2026-03-05T23:35:29	7.7	76.5
161053	2026-03-05T23:45:29	7.4	77
161054	2026-03-05T23:55:29	7.4	77.5
161055	2026-03-06T00:05:29	7.3	78.5
161056	2026-03-06T00:15:29	7.1	78.5
161057	2026-03-06T00:25:29	6.8	78.5
161058	2026-03-06T00:35:29	6.8	79.5
161059	2026-03-06T00:45:29	6.6	80
161060	2026-03-06T00:55:29	6.6	80.5
161061	2026-03-06T01:05:29	6.4	81.5
161062	2026-03-06T01:15:29	6.2	81
161063	2026-03-06T01:25:29	6	81.5
161064	2026-03-06T01:35:29	5.9	82
161065	2026-03-06T01:45:29	5.9	82.5
161066	2026-03-06T01:55:29	5.7	83.5
161067	2026-03-06T02:05:29	5.5	83
161068	2026-03-06T02:15:29	5.5	83.5
161069	2026-03-06T02:25:29	5.4	84.5
161070	2026-03-06T02:35:29	5.2	84.5
161071	2026-03-06T02:45:29	5.1	85
161072	2026-03-06T02:55:29	5.1	85
161073	2026-03-06T03:05:29	4.8	85.5
161074	2026-03-06T03:15:29	4.8	86
161075	2026-03-06T03:25:29	4.7	86
161076	2026-03-06T03:35:29	4.6	86
161077	2026-03-06T03:45:29	4.4	86.5
161078	2026-03-06T03:55:29	4.4	87
161079	2026-03-06T04:05:29	4.2	87.5
161080	2026-03-06T04:15:29	4.2	88
161081	2026-03-06T04:25:29	4.1	88
161082	2026-03-06T04:35:29	3.9	88
161083	2026-03-06T04:45:29	4	88.5
161084	2026-03-06T04:55:29	3.8	88.5
161085	2026-03-06T05:05:29	3.6	89
161086	2026-03-06T05:15:29	3.7	89
161087	2026-03-06T05:25:29	3.6	89.5
161088	2026-03-06T05:35:29	3.5	89.5
161089	2026-03-06T05:45:29	3.4	89.5
161090	2026-03-06T05:55:29	3.3	90.5
161091	2026-03-06T06:05:29	3.3	91
161092	2026-03-06T06:15:29	3.3	91.5
161093	2026-03-06T06:25:29	3.2	91
161094	2026-03-06T06:35:29	3.4	91
161095	2026-03-06T06:45:29	3.5	91
161096	2026-03-06T06:55:29	3.7	91
161097	2026-03-06T07:05:29	3.8	91
161098	2026-03-06T07:15:29	3.9	91
161099	2026-03-06T07:25:29	4.1	90.5
161100	2026-03-06T07:35:29	4.5	90.5
161101	2026-03-06T07:45:29	4.6	90
161102	2026-03-06T07:55:29	5	90.5
161103	2026-03-06T08:05:29	5.3	90.5
161104	2026-03-06T08:15:29	5.8	89
161105	2026-03-06T08:25:29	6.1	87.5
161106	2026-03-06T08:35:29	6.4	87
161107	2026-03-06T08:45:29	6.7	86
161108	2026-03-06T08:55:29	7.2	85
161109	2026-03-06T09:05:29	7.6	83.5
161110	2026-03-06T09:15:29	7.8	82.5
161111	2026-03-06T09:25:29	8.2	80.5
161112	2026-03-06T09:35:29	8.5	80
161113	2026-03-06T09:45:29	8.9	78.5
161114	2026-03-06T09:55:29	9.2	78.5
161115	2026-03-06T10:05:29	9.5	76.5
161116	2026-03-06T10:15:29	10	76.5
161117	2026-03-06T10:25:29	10.3	76.5
161118	2026-03-06T10:35:29	10.7	75
161119	2026-03-06T10:45:29	11	74.5
161120	2026-03-06T10:55:29	11.5	73.5
161121	2026-03-06T11:05:29	12	72.5
161122	2026-03-06T11:15:29	12.6	71.5
161123	2026-03-06T11:25:29	12.9	70
161124	2026-03-06T11:35:29	13.2	68.5
161125	2026-03-06T11:45:29	13.8	67
161126	2026-03-06T11:55:29	14.3	65
161127	2026-03-06T12:05:29	15	64
161128	2026-03-06T12:15:29	16.1	62.5
161129	2026-03-06T12:25:29	18.8	55
161130	2026-03-06T12:35:29	21	51.5
161131	2026-03-06T12:45:29	22.5	44.5
161132	2026-03-06T12:55:29	24	44.5
161133	2026-03-06T13:05:29	23.6	42
161134	2026-03-06T13:15:29	24.9	40
161135	2026-03-06T13:25:29	24.7	39
161136	2026-03-06T13:35:29	24.7	38
161137	2026-03-06T13:45:29	25.2	38
161138	2026-03-06T13:55:29	27	37.5
161139	2026-03-06T14:05:28	26.7	37.5
161140	2026-03-06T14:15:28	25.4	38
161141	2026-03-06T14:25:28	25.3	39.5
161142	2026-03-06T14:35:28	26.5	38
161143	2026-03-06T14:45:28	26.9	35.5
161144	2026-03-06T14:55:28	26.7	36.5
161145	2026-03-06T15:05:28	26.4	34.5
161146	2026-03-06T15:15:28	25.4	36.5
161147	2026-03-06T15:25:28	24.9	40
161148	2026-03-06T15:35:28	23.3	40.5
161149	2026-03-06T15:45:28	22.3	44
161150	2026-03-06T15:55:28	21.3	47.5
161151	2026-03-06T16:05:28	20.7	48.5
161152	2026-03-06T16:15:28	19.6	50
161153	2026-03-06T16:25:28	18.8	52
161154	2026-03-06T16:35:28	18.1	54
161155	2026-03-06T16:45:28	17.4	56.5
161156	2026-03-06T16:55:28	16.9	59
161157	2026-03-06T17:05:28	16.2	60
161158	2026-03-06T17:15:28	15.7	63
161159	2026-03-06T17:25:28	15.3	64.5
161160	2026-03-06T17:35:28	14.8	65
161161	2026-03-06T17:45:28	14.5	66
161162	2026-03-06T17:55:28	14.2	67
161163	2026-03-06T18:05:28	13.8	66.5
161164	2026-03-06T18:15:28	13.4	68
161165	2026-03-06T18:25:28	13.4	69
161166	2026-03-06T18:35:28	13.1	70
161167	2026-03-06T18:45:28	12.8	70.5
161168	2026-03-06T18:55:28	12.6	71.5
161169	2026-03-06T19:05:28	12.2	72
161170	2026-03-06T19:15:28	12	73
161171	2026-03-06T19:25:28	11.6	73.5
161172	2026-03-06T19:35:28	11.5	75
161173	2026-03-06T19:45:28	11.2	75.5
161174	2026-03-06T19:55:28	11	76
161175	2026-03-06T20:05:28	10.7	77.5
161176	2026-03-06T20:15:28	10.6	77.5
161177	2026-03-06T20:25:28	10.4	78
161178	2026-03-06T20:35:28	10.4	78.5
161179	2026-03-06T20:45:28	10	79.5
161180	2026-03-06T20:55:28	9.9	80
161181	2026-03-06T21:05:28	9.9	80.5
161182	2026-03-06T21:15:28	9.7	81
161183	2026-03-06T21:25:28	9.6	81.5
161184	2026-03-06T21:35:28	9.6	81.5
161185	2026-03-06T21:45:28	9.4	82
161186	2026-03-06T21:55:28	9.2	82.5
161187	2026-03-06T22:05:28	9.2	82.5
161188	2026-03-06T22:15:28	8.9	83.5
161189	2026-03-06T22:25:28	8.8	83.5
161190	2026-03-06T22:35:28	8.6	84
161191	2026-03-06T22:45:28	8.4	84.5
161192	2026-03-06T22:55:28	8.2	85
161193	2026-03-06T23:05:28	8.1	85.5
161194	2026-03-06T23:15:28	8	85.5
161195	2026-03-06T23:25:28	7.9	86
161196	2026-03-06T23:35:28	7.9	86
161197	2026-03-06T23:45:28	7.8	86
161198	2026-03-06T23:55:28	7.7	86.5
161199	2026-03-07T00:05:28	7.5	86.5
161200	2026-03-07T00:15:28	7.5	87
161201	2026-03-07T00:25:28	7.5	87.5
161202	2026-03-07T00:35:28	7.3	88
161203	2026-03-07T00:45:28	7.1	88
161204	2026-03-07T00:55:28	7	88.5
161205	2026-03-07T01:05:28	6.7	87.5
161206	2026-03-07T01:15:28	6.4	88
161207	2026-03-07T01:25:28	6.3	89
161208	2026-03-07T01:35:28	6.2	90
161209	2026-03-07T01:45:28	6	90
161210	2026-03-07T01:55:28	6	90.5
161211	2026-03-07T02:05:28	5.8	90.5
161212	2026-03-07T02:15:28	5.7	91
161213	2026-03-07T02:25:28	5.4	90.5
161214	2026-03-07T02:35:28	5.5	91.5
161215	2026-03-07T02:45:28	5.4	91.5
161216	2026-03-07T02:55:28	5.3	91.5
161217	2026-03-07T03:05:28	5.1	91.5
161218	2026-03-07T03:15:28	5.1	92.5
161219	2026-03-07T03:25:28	5.1	92
161220	2026-03-07T03:35:28	4.9	92
161221	2026-03-07T03:45:28	4.9	93
161222	2026-03-07T03:55:28	4.9	93.5
161223	2026-03-07T04:05:28	4.9	94
161224	2026-03-07T04:15:28	4.7	93.5
161225	2026-03-07T04:25:28	4.6	94
161226	2026-03-07T04:35:28	4.4	94
161227	2026-03-07T04:45:28	4.3	94.5
161228	2026-03-07T04:55:28	4.2	94.5
161229	2026-03-07T05:05:28	4	94.5
161230	2026-03-07T05:15:28	4	95
161231	2026-03-07T05:25:28	4	94
161232	2026-03-07T05:35:28	3.8	95
161233	2026-03-07T05:45:28	3.6	95.5
161234	2026-03-07T05:55:28	3.6	96
161235	2026-03-07T06:05:28	3.4	95
161236	2026-03-07T06:15:28	3.4	95.5
161237	2026-03-07T06:25:28	3.3	95.5
161238	2026-03-07T06:35:28	3.4	95.5
161239	2026-03-07T06:45:28	3.5	95
161240	2026-03-07T06:55:28	3.5	95
161241	2026-03-07T07:05:28	3.7	95.5
161242	2026-03-07T07:15:28	3.7	96
161243	2026-03-07T07:25:28	3.9	97
161244	2026-03-07T07:35:28	4.2	97.5
161245	2026-03-07T07:45:28	4.4	97.5
161246	2026-03-07T07:55:28	4.6	97
161247	2026-03-07T08:05:28	4.8	97
161248	2026-03-07T08:15:28	5.1	96.5
161249	2026-03-07T08:25:27	5.3	97
161250	2026-03-07T08:35:27	5.5	97
161251	2026-03-07T08:45:27	5.7	97
161252	2026-03-07T08:55:27	5.9	96.5
161253	2026-03-07T09:05:27	6.1	95.5
161254	2026-03-07T09:15:27	6.2	100
161255	2026-03-07T09:25:27	6.5	100
161256	2026-03-07T09:35:27	6.8	100
161257	2026-03-07T09:45:27	7.1	100
161258	2026-03-07T09:55:27	8	100
161259	2026-03-07T10:05:27	8.2	100
161260	2026-03-07T10:15:27	8.2	100
161261	2026-03-07T10:25:27	8.5	100
161262	2026-03-07T10:35:27	8.8	100
161263	2026-03-07T10:45:27	9.2	97
161264	2026-03-07T10:55:27	9.6	96
161265	2026-03-07T11:05:27	10.1	94.5
161266	2026-03-07T11:15:27	10.5	93.5
161267	2026-03-07T11:25:27	11.1	90
161268	2026-03-07T11:35:27	11.4	87.5
161269	2026-03-07T11:45:27	12.1	83
161270	2026-03-07T11:55:27	12.7	86
161271	2026-03-07T12:05:27	14.5	82.5
161272	2026-03-07T12:15:27	15.8	76
161273	2026-03-07T12:25:27	17.1	68.5
161274	2026-03-07T12:35:27	18.4	68.5
161275	2026-03-07T12:45:27	19.6	68
161276	2026-03-07T12:55:27	20.8	57.5
161277	2026-03-07T13:05:27	21.6	55.5
161278	2026-03-07T13:15:27	21.8	52
161279	2026-03-07T13:25:27	22.6	49.5
161280	2026-03-07T13:35:27	22.6	49.5
161281	2026-03-07T13:45:27	24	47.5
161282	2026-03-07T13:55:27	24.6	46
161283	2026-03-07T14:05:27	25.5	41.5
161284	2026-03-07T14:15:27	25.6	41.5
161285	2026-03-07T14:25:27	25.9	42.5
161286	2026-03-07T14:35:27	26.2	42
161287	2026-03-07T14:45:27	26.5	37.5
161288	2026-03-07T14:55:27	26.8	38.5
161289	2026-03-07T15:05:27	26.8	39.5
161290	2026-03-07T15:15:27	26.8	38
161291	2026-03-07T15:25:27	26.9	39
161292	2026-03-07T15:35:27	26.9	40.5
161293	2026-03-07T15:45:27	26.6	38.5
161294	2026-03-07T15:55:27	25.8	40
161295	2026-03-07T16:05:27	25.6	40
161296	2026-03-07T16:15:27	24.5	42.5
161297	2026-03-07T16:25:27	24.2	44
161298	2026-03-07T16:35:27	23.5	45.5
161299	2026-03-07T16:45:27	22.7	46.5
161300	2026-03-07T16:55:27	21.7	49.5
161301	2026-03-07T17:05:27	20.7	51.5
161302	2026-03-07T17:15:27	19.9	52.5
161303	2026-03-07T17:25:27	19.2	53
161304	2026-03-07T17:35:27	18.6	58.5
161305	2026-03-07T17:45:27	18.1	58.5
161306	2026-03-07T17:55:27	17.6	58.5
161307	2026-03-07T18:05:27	17	60.5
161308	2026-03-07T18:15:27	16.6	59
161309	2026-03-07T18:25:27	16.3	59
161310	2026-03-07T18:35:27	15.8	58.5
161311	2026-03-07T18:45:27	15.5	63
161312	2026-03-07T18:55:27	15.1	64
161313	2026-03-07T19:05:27	14.7	63.5
161314	2026-03-07T19:15:27	14.3	65
161315	2026-03-07T19:25:27	13.9	66.5
161316	2026-03-07T19:35:27	13.5	67
161317	2026-03-07T19:45:27	13.1	68.5
161318	2026-03-07T19:55:27	12.8	68.5
161319	2026-03-07T20:05:27	12.5	68.5
161320	2026-03-07T20:15:27	12.2	71
161321	2026-03-07T20:25:27	12	71
161322	2026-03-07T20:35:27	11.9	71
161323	2026-03-07T20:45:27	11.7	71
161324	2026-03-07T20:55:27	11.3	71
161325	2026-03-07T21:05:27	10.7	72
161326	2026-03-07T21:15:27	10.4	72.5
161327	2026-03-07T21:25:27	10.3	73
161328	2026-03-07T21:35:27	10.2	73.5
161329	2026-03-07T21:45:27	9.9	75
161330	2026-03-07T21:55:27	9.8	75
161331	2026-03-07T22:05:27	9.9	74
161332	2026-03-07T22:15:27	9.8	74
161333	2026-03-07T22:25:26	9.6	74.5
161334	2026-03-07T22:35:26	9.6	74.5
161335	2026-03-07T22:45:26	9.3	76
161336	2026-03-07T22:55:26	9.1	77
161337	2026-03-07T23:05:26	9	78
161338	2026-03-07T23:15:26	8.8	79
161339	2026-03-07T23:25:26	8.6	79
161340	2026-03-07T23:35:26	8.2	79.5
161341	2026-03-07T23:45:26	8	81
161342	2026-03-07T23:55:26	7.7	81.5
161343	2026-03-08T00:05:26	7.4	82
161344	2026-03-08T00:15:26	7.4	82.5
161345	2026-03-08T00:25:26	7.1	83
161346	2026-03-08T00:35:26	6.9	83.5
161347	2026-03-08T00:45:26	6.7	83.5
161348	2026-03-08T00:55:27	6.5	83.5
161349	2026-03-08T01:05:26	6.3	83.5
161350	2026-03-08T01:15:26	6	84.5
161351	2026-03-08T01:25:26	5.8	85.5
161352	2026-03-08T01:35:26	5.6	86
161353	2026-03-08T01:45:26	5.3	86.5
161354	2026-03-08T01:55:26	5.3	87
161355	2026-03-08T02:05:26	5.1	87
161356	2026-03-08T02:15:26	5	87
161357	2026-03-08T02:25:26	4.8	87.5
161358	2026-03-08T02:35:26	4.6	88
161359	2026-03-08T02:45:26	4.6	87.5
161360	2026-03-08T02:55:26	4.4	88
161361	2026-03-08T03:05:26	4.3	88.5
161362	2026-03-08T03:15:26	4.2	88.5
161363	2026-03-08T03:25:26	4	89
161364	2026-03-08T03:35:26	3.9	89.5
161365	2026-03-08T03:45:26	3.7	89.5
161366	2026-03-08T03:55:26	3.7	90
161367	2026-03-08T04:05:26	3.6	90
161368	2026-03-08T04:15:26	3.4	90.5
161369	2026-03-08T04:25:26	3.3	90.5
161370	2026-03-08T04:35:26	3.1	91
161371	2026-03-08T04:45:26	3	90.5
161372	2026-03-08T04:55:26	2.8	91
161373	2026-03-08T05:05:26	2.8	92
161374	2026-03-08T05:15:26	2.7	91.5
161375	2026-03-08T05:25:26	2.6	92
161376	2026-03-08T05:35:26	2.6	92.5
161377	2026-03-08T05:45:26	2.3	92.5
161378	2026-03-08T05:55:26	2.4	93.5
161379	2026-03-08T06:05:26	2.3	93
161380	2026-03-08T06:15:26	2.1	93
161381	2026-03-08T06:25:26	2.1	93.5
161382	2026-03-08T06:35:26	2.2	94
161383	2026-03-08T06:45:26	2.2	94
161384	2026-03-08T06:55:26	2.3	94
161385	2026-03-08T07:05:26	2.5	94.5
161386	2026-03-08T07:15:26	2.9	95.5
161387	2026-03-08T07:25:26	3	95.5
161388	2026-03-08T07:35:26	3.2	95.5
161389	2026-03-08T07:45:26	3.5	96.5
161390	2026-03-08T07:55:26	4	97
161391	2026-03-08T08:05:26	4.3	97
161392	2026-03-08T08:15:26	4.7	97.5
161393	2026-03-08T08:25:26	5.1	94.5
161394	2026-03-08T08:35:26	5.4	93.5
161395	2026-03-08T08:45:26	5.8	93
161396	2026-03-08T08:55:26	6.5	89.5
161397	2026-03-08T09:05:26	6.8	88
161398	2026-03-08T09:15:26	7	87.5
161399	2026-03-08T09:25:26	7.5	85.5
161400	2026-03-08T09:35:26	7.6	86.5
161401	2026-03-08T09:45:26	8	85
161402	2026-03-08T09:55:26	8.2	85
161403	2026-03-08T10:05:26	8.6	84.5
161404	2026-03-08T10:15:26	9	83
161405	2026-03-08T10:25:26	9.3	82
161406	2026-03-08T10:35:26	9.6	81.5
161407	2026-03-08T10:45:26	10.1	79.5
161408	2026-03-08T10:55:26	10.5	79
161409	2026-03-08T11:05:26	10.9	79
161410	2026-03-08T11:15:26	11.6	76.5
161411	2026-03-08T11:25:26	11.9	74.5
161412	2026-03-08T11:35:26	12.6	74.5
161413	2026-03-08T11:45:26	13	70.5
161414	2026-03-08T11:55:26	13.9	70
161415	2026-03-08T12:05:26	15.3	66
161416	2026-03-08T12:15:26	16.5	62
161417	2026-03-08T12:25:26	17.2	60
161418	2026-03-08T12:35:26	18.5	56
161419	2026-03-08T12:45:26	19.1	53.5
161420	2026-03-08T12:55:26	20.5	52.5
161421	2026-03-08T13:05:26	21.6	48
161422	2026-03-08T13:15:26	21.2	48
161423	2026-03-08T13:25:26	21.3	47.5
161424	2026-03-08T13:35:26	21.9	46.5
161425	2026-03-08T13:45:26	23.3	46.5
161426	2026-03-08T13:55:26	22.9	43.5
161427	2026-03-08T14:05:26	23.9	44
161428	2026-03-08T14:15:26	24.1	41.5
161429	2026-03-08T14:25:26	24.6	42
161430	2026-03-08T14:35:26	25.5	39.5
161431	2026-03-08T14:45:26	26.2	39.5
161432	2026-03-08T14:55:26	26.8	38.5
161433	2026-03-08T15:05:26	26.7	39.5
161434	2026-03-08T15:15:26	26.9	39.5
161435	2026-03-08T15:25:26	27.5	38
161436	2026-03-08T15:35:26	27.6	35.5
161437	2026-03-08T15:45:26	26.8	38.5
161438	2026-03-08T15:55:26	27.1	37
161439	2026-03-08T16:05:26	26.7	37
161440	2026-03-08T16:15:26	26.1	39
161441	2026-03-08T16:25:25	25.3	39.5
161442	2026-03-08T16:35:25	24.3	40.5
161443	2026-03-08T16:45:25	23.2	43
161444	2026-03-08T16:55:25	22.3	45.5
161445	2026-03-08T17:05:25	21.5	47.5
161446	2026-03-08T17:15:25	20.5	48
161447	2026-03-08T17:25:25	19.9	51
161448	2026-03-08T17:35:25	19.1	53
161449	2026-03-08T17:45:25	18.4	54
161450	2026-03-08T17:55:25	17.9	56
161451	2026-03-08T18:05:25	17.5	57
161452	2026-03-08T18:15:25	16.9	59
161453	2026-03-08T18:25:25	16.5	60
161454	2026-03-08T18:35:25	16.2	59
161455	2026-03-08T18:45:25	15.9	60.5
161456	2026-03-08T18:55:25	15.3	59.5
161457	2026-03-08T19:05:25	15	60.5
161458	2026-03-08T20:42:35	13.3	65
161459	2026-03-08T20:42:36	13.2	66.5
161460	2026-03-08T20:42:36	12.9	67
161461	2026-03-08T20:42:36	14.7	61.5
161462	2026-03-08T20:42:37	12.7	68.5
161463	2026-03-08T20:42:37	14.3	63
161464	2026-03-08T20:42:37	14.1	63.5
161465	2026-03-08T20:42:37	13.5	65
161466	2026-03-08T20:42:37	13	66
161467	2026-03-08T20:45:25	12.5	69.5
161468	2026-03-08T20:55:25	12.3	70.5
161469	2026-03-08T21:05:25	12.1	70
161470	2026-03-08T21:15:25	12	70
161471	2026-03-08T21:25:25	11.5	71
161472	2026-03-08T21:35:25	11.4	72
161473	2026-03-08T21:45:25	11.1	72
161474	2026-03-08T21:55:25	10.9	73.5
161475	2026-03-08T22:05:25	10.5	74
161476	2026-03-08T22:15:25	10.2	75
161477	2026-03-08T22:25:25	10.1	75.5
161478	2026-03-08T22:35:25	9.8	76
161479	2026-03-08T22:45:25	9.6	76.5
161480	2026-03-08T22:55:25	9.6	76.5
161481	2026-03-08T23:05:25	9.3	77.5
161482	2026-03-08T23:15:25	9.1	78
161483	2026-03-08T23:25:25	8.9	78
161484	2026-03-08T23:35:25	8.8	78.5
161485	2026-03-08T23:45:25	8.6	79
161486	2026-03-08T23:55:25	8.4	79
161487	2026-03-09T00:05:25	8.3	79.5
161488	2026-03-09T00:15:25	8.2	79.5
161489	2026-03-09T00:25:25	8	80
161490	2026-03-09T00:35:25	8	80.5
161491	2026-03-09T00:45:25	7.9	80.5
161492	2026-03-09T00:55:25	7.7	81
161493	2026-03-09T01:15:25	7.3	82
161494	2026-03-09T01:25:25	7.1	82.5
161495	2026-03-09T01:35:25	7	83
161496	2026-03-09T01:45:25	6.8	84
161497	2026-03-09T01:55:25	6.8	84
161498	2026-03-09T02:05:25	6.7	83.5
161499	2026-03-09T02:15:25	6.6	84
161500	2026-03-09T02:25:25	6.4	84.5
161501	2026-03-09T02:35:25	6.4	84.5
161502	2026-03-09T02:45:41	6.1	85
161503	2026-03-09T02:55:25	6.1	85
161504	2026-03-09T03:05:25	6	85.5
161505	2026-03-09T03:15:25	5.9	86
161506	2026-03-09T03:25:25	5.8	85.5
161507	2026-03-09T03:35:25	5.8	86
161508	2026-03-09T03:45:25	5.7	86.5
161509	2026-03-09T03:55:25	5.4	86.5
161510	2026-03-09T04:15:25	5.3	87
161511	2026-03-09T04:25:25	5.2	87
161512	2026-03-09T04:35:25	5.3	87.5
161513	2026-03-09T04:45:25	5.2	87
161514	2026-03-09T04:55:25	5.1	87
161515	2026-03-09T05:05:25	5.2	87
161516	2026-03-09T05:15:25	5.1	87.5
161517	2026-03-09T05:25:25	4.9	88
161518	2026-03-09T05:35:25	4.7	88.5
161519	2026-03-09T05:45:25	4.6	89
161520	2026-03-09T05:55:25	4.4	89.5
161521	2026-03-09T06:05:25	4.3	90
161522	2026-03-09T06:15:25	4.4	90
161523	2026-03-09T06:25:25	4.6	90
161524	2026-03-09T06:35:25	4.6	90
161525	2026-03-09T06:45:25	4.8	90.5
161526	2026-03-09T06:55:25	4.8	90.5
161527	2026-03-09T07:05:25	5.1	90
161528	2026-03-09T07:15:25	5.3	90.5
161529	2026-03-09T07:25:25	5.5	91
161530	2026-03-09T07:35:25	5.7	90.5
161531	2026-03-09T07:45:25	5.9	91
161532	2026-03-09T07:55:25	6.4	92
161533	2026-03-09T08:05:25	6.6	91.5
161534	2026-03-09T08:15:25	7.1	90
161535	2026-03-09T08:25:25	7.8	87
161536	2026-03-09T08:35:25	8.3	86.5
161537	2026-03-09T08:45:25	8.7	86.5
161538	2026-03-09T08:55:25	9.2	86
161539	2026-03-09T09:05:25	9.6	86
161540	2026-03-09T09:15:25	10	85
161541	2026-03-09T09:25:25	10.3	83.5
161542	2026-03-09T09:35:25	10.8	82
161543	2026-03-09T09:45:25	11.1	81
161544	2026-03-09T09:55:25	11.7	79
161545	2026-03-09T10:05:25	11.9	79
161546	2026-03-09T10:15:24	12.1	77
161547	2026-03-09T10:25:24	12.5	76
161548	2026-03-09T10:35:24	12.9	75
161549	2026-03-09T10:45:24	13	74
161550	2026-03-09T10:55:24	13.5	74
161551	2026-03-09T11:05:24	13.9	73
161552	2026-03-09T11:15:24	14.2	72.5
161553	2026-03-09T11:25:24	14.5	71
161554	2026-03-09T11:35:24	14.9	70.5
161555	2026-03-09T11:45:24	15.3	69.5
161556	2026-03-09T11:55:24	15.7	67
161557	2026-03-09T12:05:24	16.2	66
161558	2026-03-09T12:15:24	16.6	65.5
161559	2026-03-09T12:25:24	17.6	63
161560	2026-03-09T12:35:24	19.3	58.5
161561	2026-03-09T12:45:24	20	55
161562	2026-03-09T12:55:24	21.1	54
161563	2026-03-09T13:05:24	21.8	51
161564	2026-03-09T13:15:24	22.2	48.5
161565	2026-03-09T13:25:24	22.6	48
161566	2026-03-09T13:35:24	23.1	47.5
161567	2026-03-09T13:45:24	23.9	45.5
161568	2026-03-09T13:55:24	24.6	43.5
161569	2026-03-09T14:05:24	24	45
161570	2026-03-09T14:15:24	25.1	43
161571	2026-03-09T14:25:24	25.3	41
161572	2026-03-09T14:35:24	25.5	40.5
161573	2026-03-09T14:45:24	26.3	38
161574	2026-03-09T14:55:24	26.6	36.5
161575	2026-03-09T15:05:24	25.8	39.5
161576	2026-03-09T15:15:24	25	38.5
161577	2026-03-09T15:25:24	23.5	41
161578	2026-03-09T15:35:24	23.2	43
161579	2026-03-09T15:45:24	22.5	44
161580	2026-03-09T15:55:24	21.5	48.5
161581	2026-03-09T16:05:24	21	49.5
161582	2026-03-09T16:15:24	20.9	52.5
161583	2026-03-09T16:25:24	20.7	53.5
161584	2026-03-09T16:35:24	20.2	55
161585	2026-03-09T16:45:24	19.9	56.5
161586	2026-03-09T16:55:24	19.6	59
161587	2026-03-09T17:05:24	19.1	60.5
161588	2026-03-09T17:15:24	18.8	61.5
161589	2026-03-09T17:25:24	18.4	61
161590	2026-03-09T17:35:24	18	61.5
161591	2026-03-09T17:45:24	17.8	62
161592	2026-03-09T17:55:24	17.5	63.5
161593	2026-03-09T18:05:24	17.2	65
161594	2026-03-09T18:15:24	17	66.5
161595	2026-03-09T18:25:24	16.8	67
161596	2026-03-09T18:35:24	16.5	67.5
161597	2026-03-09T18:45:24	16.1	67.5
161598	2026-03-09T18:55:24	16.1	67
161599	2026-03-09T19:05:24	16	68.5
161600	2026-03-09T19:15:24	15.7	69.5
161601	2026-03-09T19:25:24	15.4	69.5
161602	2026-03-09T19:35:24	14.9	70.5
161603	2026-03-09T19:45:24	14.7	72
161604	2026-03-09T19:55:24	14.3	72.5
161605	2026-03-09T20:05:24	13.9	74
161606	2026-03-09T20:15:24	13.9	73.5
161607	2026-03-09T20:25:24	13.6	73
161608	2026-03-09T20:35:24	13.1	73.5
161609	2026-03-09T20:45:24	12.8	76
161610	2026-03-09T20:55:24	12.4	76
161611	2026-03-09T21:05:24	12.3	77
161612	2026-03-09T21:15:24	12.1	77
161613	2026-03-09T21:25:24	11.9	77.5
161614	2026-03-09T21:35:24	11.7	78
161615	2026-03-09T21:45:24	11.4	78.5
161616	2026-03-09T21:55:24	11.3	78.5
161617	2026-03-09T22:05:23	11.1	78.5
161618	2026-03-09T22:15:23	10.9	79.5
161619	2026-03-09T22:25:23	10.8	79.5
161620	2026-03-09T22:35:23	10.6	80
161621	2026-03-09T22:45:23	10.5	80.5
161622	2026-03-09T22:55:23	10.2	80.5
161623	2026-03-09T23:05:23	10	81
161624	2026-03-09T23:15:23	9.7	81.5
161625	2026-03-09T23:25:23	9.6	82
161626	2026-03-09T23:35:23	9.4	83
161627	2026-03-09T23:45:23	9.4	81
161628	2026-03-09T23:55:23	9.1	82.5
161629	2026-03-10T00:05:23	8.8	82.5
161630	2026-03-10T00:15:23	8.8	83.5
161631	2026-03-10T00:25:23	8.7	83.5
161632	2026-03-10T00:35:23	8.5	84
161633	2026-03-10T00:45:23	8.3	84
161634	2026-03-10T00:55:23	8.2	84
161635	2026-03-10T01:15:23	8.1	85
161636	2026-03-10T01:25:23	7.8	85.5
161637	2026-03-10T01:35:23	7.8	85.5
161638	2026-03-10T01:45:23	7.5	85.5
161639	2026-03-10T01:55:23	7.5	85.5
161640	2026-03-10T02:05:23	7.4	86.5
161641	2026-03-10T02:15:23	7.3	86.5
161642	2026-03-10T02:25:23	7.2	86.5
161643	2026-03-10T02:35:23	7.3	86
161644	2026-03-10T02:45:23	7.6	86
161645	2026-03-10T02:55:23	7.5	85.5
161646	2026-03-10T03:05:23	7.6	85
161647	2026-03-10T03:15:23	7.4	85.5
161648	2026-03-10T03:25:23	7.2	87.5
161649	2026-03-10T03:35:23	7.1	88.5
161650	2026-03-10T03:45:23	7	88.5
161651	2026-03-10T03:55:23	6.8	88.5
161652	2026-03-10T04:05:23	6.3	91
161653	2026-03-10T04:15:23	6.5	92.5
161654	2026-03-10T04:25:23	6.6	91
161655	2026-03-10T04:35:23	6.5	91.5
161656	2026-03-10T04:45:23	6.3	92
161657	2026-03-10T04:55:23	6.1	92
161658	2026-03-10T05:05:23	5.8	92
161659	2026-03-10T05:15:45	5.6	92
161660	2026-03-10T05:25:23	5.6	92.5
161661	2026-03-10T05:35:23	5.7	93.5
161662	2026-03-10T05:45:23	5.6	93
161663	2026-03-10T05:55:23	5.5	92.5
161664	2026-03-10T06:05:23	5.7	91
161665	2026-03-10T06:15:23	5.7	91
161666	2026-03-10T06:25:23	5.5	91.5
161667	2026-03-10T06:35:23	5.5	93
161668	2026-03-10T06:45:23	5.7	94
161669	2026-03-10T06:55:23	5.9	94
161670	2026-03-10T07:05:23	6.2	94.5
161671	2026-03-10T07:15:23	6.4	94.5
161672	2026-03-10T07:25:23	6.8	93.5
161673	2026-03-10T07:35:23	7.4	93.5
161674	2026-03-10T07:45:38	7.7	93.5
161675	2026-03-10T07:55:23	7.9	93
161676	2026-03-10T08:05:23	8.3	92.5
161677	2026-03-10T08:15:23	8.7	90
161678	2026-03-10T08:25:23	9.4	87
161679	2026-03-10T08:35:23	9.8	87
161680	2026-03-10T08:45:23	10.5	80.5
161681	2026-03-10T08:55:23	10.8	79.5
161682	2026-03-10T09:05:23	11.1	79
161683	2026-03-10T09:15:23	11.3	78
161684	2026-03-10T09:25:23	11.6	77.5
161685	2026-03-10T09:35:23	11.9	77.5
161686	2026-03-10T09:45:23	12.3	76.5
161687	2026-03-10T09:55:23	12.5	75.5
161688	2026-03-10T10:05:23	12.7	75
161689	2026-03-10T10:15:23	13	74.5
161690	2026-03-10T10:25:23	13.4	73
161691	2026-03-10T10:35:23	13.7	72.5
161692	2026-03-10T10:45:23	13.9	70.5
161693	2026-03-10T10:55:23	14.4	69.5
161694	2026-03-10T11:05:23	14.7	68
161695	2026-03-10T11:15:23	14.9	66.5
161696	2026-03-10T11:25:23	15.2	65.5
161697	2026-03-10T11:35:23	15.6	65
161698	2026-03-10T11:45:23	15.8	65
161699	2026-03-10T11:55:23	16	64
161700	2026-03-10T12:05:23	16.5	63
161701	2026-03-10T12:15:23	16.9	62.5
161702	2026-03-10T12:25:23	17.2	60.5
161703	2026-03-10T12:35:23	17.8	59
161704	2026-03-10T12:45:23	18.6	58.5
161705	2026-03-10T12:55:23	18.5	57.5
161706	2026-03-10T13:05:23	19.7	54
161707	2026-03-10T13:15:23	20.5	53
161708	2026-03-10T13:25:23	20.2	52
161709	2026-03-10T13:35:23	20	52.5
161710	2026-03-10T13:45:23	19.8	53
161711	2026-03-10T13:55:23	20.5	52.5
161712	2026-03-10T14:05:23	20.5	52.5
161713	2026-03-10T14:15:23	20.9	53
161714	2026-03-10T14:45:22	20.2	52.5
161715	2026-03-10T14:55:22	20.4	51.5
161716	2026-03-10T15:05:22	20.9	51
161717	2026-03-10T15:15:22	19.8	52.5
161718	2026-03-10T15:25:22	18.9	54.5
161719	2026-03-10T15:35:22	18.5	55
161720	2026-03-10T15:45:22	18.9	55
161721	2026-03-10T15:55:22	18.8	55
161722	2026-03-10T16:05:22	18.3	57
161723	2026-03-10T16:15:22	17.7	58
161724	2026-03-10T16:25:22	17.2	59.5
161725	2026-03-10T16:35:22	17.2	60
161726	2026-03-10T16:45:22	16.9	60.5
161727	2026-03-10T16:55:22	16.6	62
161728	2026-03-10T17:05:22	16.5	62
161729	2026-03-10T17:15:22	16.3	63.5
161730	2026-03-10T17:25:22	16	64
161731	2026-03-10T17:35:22	15.8	64.5
161732	2026-03-10T17:45:22	15.7	64.5
161733	2026-03-10T17:55:22	15.4	65
161734	2026-03-10T18:05:22	15.1	65.5
161735	2026-03-10T18:15:22	14.8	65.5
161736	2026-03-10T18:25:22	14.7	66.5
161737	2026-03-10T18:35:22	14.7	66.5
161738	2026-03-10T18:45:22	14.6	68
161739	2026-03-10T18:55:22	14.6	68
161740	2026-03-10T19:05:22	14.5	68
161741	2026-03-10T19:15:22	14.4	68.5
161742	2026-03-10T19:25:22	14.3	69
161743	2026-03-10T19:35:40	14.3	70
161744	2026-03-10T19:45:22	13	95
161745	2026-03-10T19:55:22	11.7	100
161746	2026-03-10T20:05:22	12.1	100
161747	2026-03-10T20:15:22	12.2	100
161748	2026-03-10T20:25:22	11.8	100
161749	2026-03-10T20:35:22	12	100
161750	2026-03-10T20:45:22	12	100
161751	2026-03-10T20:55:22	11.8	100
161752	2026-03-10T21:05:22	11.6	100
161753	2026-03-10T21:15:22	11.6	100
161754	2026-03-10T21:25:22	11.5	100
161755	2026-03-10T21:35:22	11.5	100
161756	2026-03-10T21:45:22	11.4	100
161757	2026-03-10T21:55:22	11.3	100
161758	2026-03-10T22:05:22	11	100
161759	2026-03-10T22:15:22	11.1	100
161760	2026-03-10T22:25:22	10.8	100
161761	2026-03-10T22:35:22	10.6	100
161762	2026-03-10T22:45:22	10.6	100
161763	2026-03-10T22:55:22	10.6	100
161764	2026-03-10T23:05:22	10.4	100
161765	2026-03-10T23:15:22	10.6	100
161766	2026-03-10T23:25:22	10.6	100
161767	2026-03-10T23:35:22	10.6	100
161768	2026-03-10T23:45:22	10.5	100
161769	2026-03-10T23:55:22	10.4	100
161770	2026-03-11T00:05:22	10	100
161771	2026-03-11T00:15:22	9.6	100
161772	2026-03-11T00:25:22	9.4	100
161773	2026-03-11T00:35:22	9.1	100
161774	2026-03-11T00:45:22	8.8	100
161775	2026-03-11T00:55:22	8.6	100
161776	2026-03-11T01:15:22	8.4	100
161777	2026-03-11T01:25:22	8.3	100
161778	2026-03-11T01:35:22	8.1	100
161779	2026-03-11T01:45:22	7.9	100
161780	2026-03-11T01:55:22	7.7	100
161781	2026-03-11T02:05:22	7.7	100
161782	2026-03-11T02:15:22	7.6	100
161783	2026-03-11T02:25:22	7.6	100
161784	2026-03-11T02:35:22	7.7	100
161785	2026-03-11T02:45:22	7.7	100
161786	2026-03-11T02:55:22	7.6	100
161787	2026-03-11T03:05:22	7.7	100
161788	2026-03-11T03:15:22	7.6	100
161789	2026-03-11T03:25:22	7.6	100
161790	2026-03-11T03:35:22	7.5	100
161791	2026-03-11T03:45:22	7.6	100
161792	2026-03-11T03:55:22	7.7	100
161793	2026-03-11T04:05:22	7.7	100
161794	2026-03-11T04:15:22	7.9	100
161795	2026-03-11T04:25:22	8	100
161796	2026-03-11T04:35:22	7.8	100
161797	2026-03-11T04:45:22	7.5	100
161798	2026-03-11T04:55:22	7.4	100
161799	2026-03-11T05:05:22	7.5	100
161800	2026-03-11T05:15:22	7.3	100
161801	2026-03-11T05:25:22	7.3	100
161802	2026-03-11T05:35:21	7.4	100
161803	2026-03-11T05:45:21	7.7	100
161804	2026-03-11T05:55:21	7.5	100
161805	2026-03-11T06:05:21	7.5	100
161806	2026-03-11T06:15:21	7.5	100
161807	2026-03-11T06:25:21	7.7	100
161808	2026-03-11T06:35:21	7.9	100
161809	2026-03-11T06:45:21	8.1	100
161810	2026-03-11T06:55:21	8.2	100
161811	2026-03-11T07:05:21	8.5	100
161812	2026-03-11T07:15:21	8.7	100
161813	2026-03-11T07:25:21	9	100
161814	2026-03-11T07:35:21	9.2	100
161815	2026-03-11T07:45:21	9.3	100
161816	2026-03-11T07:55:21	9.6	100
161817	2026-03-11T08:05:21	9.9	100
161818	2026-03-11T08:15:21	9.9	100
161819	2026-03-11T08:25:21	10.3	100
161820	2026-03-11T08:35:21	10.6	100
161821	2026-03-11T08:45:21	10.8	100
161822	2026-03-11T08:55:21	11	100
161823	2026-03-11T09:05:21	11	100
161824	2026-03-11T09:15:21	11.3	100
161825	2026-03-11T09:25:21	11.3	100
161826	2026-03-11T09:35:21	11.6	100
161827	2026-03-11T09:45:21	12	100
161828	2026-03-11T09:55:21	12.5	100
161829	2026-03-11T10:05:21	12.7	100
161830	2026-03-11T10:15:21	13	99.5
161831	2026-03-11T10:25:21	13.1	88.5
161832	2026-03-11T10:35:21	13.4	82.5
161833	2026-03-11T10:45:21	13.7	77
161834	2026-03-11T10:55:21	14.2	73.5
161835	2026-03-11T11:05:21	14.6	72
161836	2026-03-11T11:15:21	14.9	71
161837	2026-03-11T11:25:21	15.2	69
161838	2026-03-11T11:35:21	15.3	68
161839	2026-03-11T11:45:21	15.5	67.5
161840	2026-03-11T11:55:21	15.6	66
161841	2026-03-11T12:05:21	15.8	66
161842	2026-03-11T12:15:21	16.1	65.5
161843	2026-03-11T12:25:21	15.9	66
161844	2026-03-11T12:35:21	15.9	64.5
161845	2026-03-11T12:45:21	15.9	64.5
161846	2026-03-11T12:55:21	16	64
161847	2026-03-11T13:05:21	16.3	62.5
161848	2026-03-11T13:15:21	16.6	62.5
161849	2026-03-11T13:25:21	16.6	61.5
161850	2026-03-11T13:35:21	16.4	61.5
161851	2026-03-11T13:45:21	16.2	62.5
161852	2026-03-11T13:55:21	16.4	61.5
161853	2026-03-11T14:05:21	16	63
161854	2026-03-11T14:15:21	15.4	75.5
161855	2026-03-11T14:25:21	14.1	84
161856	2026-03-11T14:35:21	14.4	74
161857	2026-03-11T14:45:21	14.7	71
161858	2026-03-11T14:55:21	13.6	83
161859	2026-03-11T15:05:21	12.8	91.5
161860	2026-03-11T15:15:21	12.6	88.5
161861	2026-03-11T15:25:21	11.8	100
161862	2026-03-11T15:35:21	11.9	100
161863	2026-03-11T15:45:21	11.7	100
161864	2026-03-11T15:55:21	11.5	100
161865	2026-03-11T16:05:21	11.1	100
161866	2026-03-11T16:15:21	11.2	100
161867	2026-03-11T16:25:21	11.1	100
161868	2026-03-11T16:35:21	11.2	100
161869	2026-03-11T16:45:21	11.2	100
161870	2026-03-11T16:55:21	10.9	100
161871	2026-03-11T17:05:21	10.4	100
161872	2026-03-11T17:15:21	10.5	100
161873	2026-03-11T17:25:21	10.3	100
161874	2026-03-11T17:35:21	10.1	100
161875	2026-03-11T17:45:21	10.2	100
161876	2026-03-11T17:55:21	10.1	100
161877	2026-03-11T18:05:21	10	100
161878	2026-03-11T18:15:21	10.1	100
161879	2026-03-11T18:25:21	10	100
161880	2026-03-11T18:35:21	9.9	100
161881	2026-03-11T18:45:21	9.8	100
161882	2026-03-11T18:55:21	9.6	100
161883	2026-03-11T19:05:21	9.5	99.5
161884	2026-03-11T19:15:21	9.6	98.5
161885	2026-03-11T19:25:21	9.7	97.5
161886	2026-03-11T19:35:21	9.8	97
161887	2026-03-11T19:55:21	9.6	96.5
161888	2026-03-11T20:05:21	9.7	97
161889	2026-03-11T20:15:21	9.7	97
161890	2026-03-11T20:25:21	9.8	97
161891	2026-03-11T20:35:21	9.7	97
161892	2026-03-11T20:45:20	9.6	97
161893	2026-03-11T20:55:21	9.6	97
161894	2026-03-11T21:05:21	9.6	97
161895	2026-03-11T21:15:20	9.5	97
161896	2026-03-11T21:25:20	9.4	97
161897	2026-03-11T21:35:20	9.3	97
161898	2026-03-11T21:45:20	9.3	97
161899	2026-03-11T21:55:20	9.4	97
161900	2026-03-11T22:05:20	9.3	97
161901	2026-03-11T22:15:20	9.4	97
161902	2026-03-11T22:25:20	9.3	97
161903	2026-03-11T22:35:20	9.3	97
161904	2026-03-11T22:45:20	9.3	97.5
161905	2026-03-11T22:55:20	9.4	97.5
161906	2026-03-11T23:05:20	9.3	97
161907	2026-03-11T23:15:20	9.4	97.5
161908	2026-03-11T23:25:20	9.3	97
161909	2026-03-11T23:35:20	9.2	97.5
161910	2026-03-11T23:45:20	9.3	97.5
161911	2026-03-11T23:55:20	9.2	97
161912	2026-03-12T00:05:20	9.3	97.5
161913	2026-03-12T00:15:20	9.2	97.5
161914	2026-03-12T00:25:20	9.2	97.5
161915	2026-03-12T00:35:38	9	97.5
161916	2026-03-12T00:45:20	8.8	97.5
161917	2026-03-12T00:55:20	8.7	97.5
161918	2026-03-12T01:05:20	8.7	97.5
161919	2026-03-12T01:15:20	8.6	97.5
161920	2026-03-12T01:25:20	8.6	97.5
161921	2026-03-12T01:35:20	8.7	97.5
161922	2026-03-12T01:45:20	8.4	97.5
161923	2026-03-12T01:55:20	8.4	97.5
161924	2026-03-12T02:05:20	8.2	97.5
161925	2026-03-12T02:15:20	8	97.5
161926	2026-03-12T02:25:20	8	97.5
161927	2026-03-12T02:35:20	8.1	97.5
161928	2026-03-12T02:45:20	7.9	97.5
161929	2026-03-12T02:55:20	7.8	97.5
161930	2026-03-12T03:05:20	7.7	97.5
161931	2026-03-12T03:15:20	7.5	97.5
161932	2026-03-12T03:25:20	7.5	97.5
161933	2026-03-12T03:35:20	7.6	97.5
161934	2026-03-12T03:45:20	7.5	97.5
161935	2026-03-12T03:55:20	7.5	97.5
161936	2026-03-12T04:05:20	7.6	97.5
161937	2026-03-12T04:15:20	7.7	97.5
161938	2026-03-12T04:25:20	7.7	97.5
161939	2026-03-12T04:35:20	7.6	97.5
161940	2026-03-12T04:45:20	7.5	97.5
161941	2026-03-12T04:55:20	7.4	97.5
161942	2026-03-12T05:05:20	7.4	97.5
161943	2026-03-12T05:15:20	7.3	97.5
161944	2026-03-12T05:25:20	7.2	97.5
161945	2026-03-12T05:35:20	7.1	97.5
161946	2026-03-12T05:45:20	7.1	97.5
161947	2026-03-12T05:55:20	7.1	97.5
161948	2026-03-12T06:05:20	6.9	97.5
161949	2026-03-12T06:15:20	6.8	97.5
161950	2026-03-12T06:25:20	6.8	97.5
161951	2026-03-12T06:35:20	7	97.5
161952	2026-03-12T06:45:20	7	97.5
161953	2026-03-12T06:55:20	6.9	97.5
161954	2026-03-12T07:05:20	7	97.5
161955	2026-03-12T07:15:20	7.1	97.5
161956	2026-03-12T07:25:20	7.1	97.5
161957	2026-03-12T07:35:20	7.2	97.5
161958	2026-03-12T07:45:20	7.2	97.5
161959	2026-03-12T07:55:20	7.2	97.5
161960	2026-03-12T08:05:20	7.2	97.5
161961	2026-03-12T08:15:20	7.1	97.5
161962	2026-03-12T08:25:20	7.5	97.5
161963	2026-03-12T08:35:20	7.8	97.5
161964	2026-03-12T08:45:20	8.5	98
161965	2026-03-12T08:55:20	8.7	97.5
161966	2026-03-12T09:05:20	8.9	97.5
161967	2026-03-12T09:15:20	8.8	98
161968	2026-03-12T09:25:20	8.5	97.5
161969	2026-03-12T09:35:20	8.6	97.5
161970	2026-03-12T09:45:20	8.8	98
161971	2026-03-12T09:55:20	8.8	97.5
161972	2026-03-12T10:05:20	9.5	98
161973	2026-03-12T10:15:20	10	98
161974	2026-03-12T10:25:20	10	97.5
161975	2026-03-12T10:35:20	10.3	98
161976	2026-03-12T10:45:20	10.6	97.5
161977	2026-03-12T10:55:20	10.8	98
161978	2026-03-12T11:05:20	11.3	98
161979	2026-03-12T11:15:20	11	98
161980	2026-03-12T11:25:20	11.1	98
161981	2026-03-12T11:35:20	11.1	98
161982	2026-03-12T11:45:20	11.5	98
161983	2026-03-12T11:55:20	12.1	98
161984	2026-03-12T12:05:20	12.6	98
161985	2026-03-12T12:15:20	12.2	98
161986	2026-03-12T12:25:20	13.6	98
161987	2026-03-12T12:35:20	13.3	98
161988	2026-03-12T12:45:20	14.7	98.5
161989	2026-03-12T12:55:20	15.8	100
161990	2026-03-12T13:05:20	15.9	100
161991	2026-03-12T13:25:20	17.8	100
161992	2026-03-12T13:35:20	17.8	93
161993	2026-03-12T13:45:41	18.6	55
161994	2026-03-12T13:55:20	18.9	46.5
161995	2026-03-12T14:05:19	19.2	47
161996	2026-03-12T14:15:19	19	44.5
161997	2026-03-12T14:25:19	19.5	42.5
161998	2026-03-12T14:35:19	19.3	43.5
161999	2026-03-12T14:45:19	19.6	41.5
162000	2026-03-12T14:55:20	20.4	42
162001	2026-03-12T15:05:19	19.6	40.5
162002	2026-03-12T15:15:19	19.8	40
162003	2026-03-12T15:25:19	20.1	39
162004	2026-03-12T15:35:38	19.6	40
162005	2026-03-12T15:45:19	19.8	39.5
162006	2026-03-12T15:55:19	19.4	41.5
162007	2026-03-12T16:05:19	19.1	41.5
162008	2026-03-12T16:15:19	19.7	41
162009	2026-03-12T16:35:19	17.4	45
162010	2026-03-12T16:45:19	16.4	47
162011	2026-03-12T16:55:19	16.3	49.5
162012	2026-03-12T17:05:19	15.7	50
162013	2026-03-12T17:15:19	15	56.5
162014	2026-03-12T17:25:19	14.5	60
162015	2026-03-12T17:35:19	13.9	63.5
162016	2026-03-12T17:45:19	13.3	67
162017	2026-03-12T17:55:19	12.9	67
162018	2026-03-12T18:05:19	12.5	68.5
162019	2026-03-12T18:15:19	12.1	70.5
162020	2026-03-12T18:25:19	11.7	70.5
162021	2026-03-12T18:35:19	11.3	72.5
162022	2026-03-12T18:45:19	10.9	73.5
162023	2026-03-12T18:55:19	10.6	74.5
162024	2026-03-12T19:05:19	10.3	76.5
162025	2026-03-12T19:15:19	10.1	77
162026	2026-03-12T19:25:19	9.9	79
162027	2026-03-12T19:35:19	9.5	79.5
162028	2026-03-12T19:45:19	9.4	80
162029	2026-03-12T19:55:19	9.2	80
162030	2026-03-12T20:05:19	8.9	81
162031	2026-03-12T20:15:19	8.7	81
162032	2026-03-12T20:25:19	8.4	81.5
162033	2026-03-12T20:35:19	8.2	81.5
162034	2026-03-12T20:45:19	7.9	81.5
162035	2026-03-12T20:55:19	7.7	82.5
162036	2026-03-12T21:05:19	7.6	82
162037	2026-03-12T21:15:19	7.5	81.5
162038	2026-03-12T21:25:19	7.5	81
162039	2026-03-12T21:35:19	7.3	80.5
162040	2026-03-12T21:45:19	7	82.5
162041	2026-03-12T21:55:19	6.7	84
162042	2026-03-12T22:05:19	6.5	84.5
162043	2026-03-12T22:15:19	6.2	85
162044	2026-03-12T22:25:19	6.1	85.5
162045	2026-03-12T22:35:19	5.9	86.5
162046	2026-03-12T22:45:19	5.9	86.5
162047	2026-03-12T22:55:19	5.7	87
162048	2026-03-12T23:05:19	5.5	87.5
162049	2026-03-12T23:15:19	5.4	87
162050	2026-03-12T23:25:19	5.3	88
162051	2026-03-12T23:35:19	5.1	89
162052	2026-03-12T23:45:19	4.9	89
162053	2026-03-12T23:55:19	4.8	89.5
162054	2026-03-13T00:05:19	4.5	89.5
162055	2026-03-13T00:15:19	4.6	90
162056	2026-03-13T00:25:19	4.4	90.5
162057	2026-03-13T00:45:19	4.1	91
162058	2026-03-13T00:55:19	4	91.5
162059	2026-03-13T01:15:19	3.9	91
162060	2026-03-13T01:25:19	3.8	92.5
162061	2026-03-13T01:35:19	3.6	92
162062	2026-03-13T01:45:19	3.5	92
162063	2026-03-13T01:55:19	3.4	92.5
162064	2026-03-13T02:05:19	3.2	93.5
162065	2026-03-13T02:15:19	3.3	93
162066	2026-03-13T02:25:19	3.2	93
162067	2026-03-13T02:35:19	3.1	93.5
162068	2026-03-13T02:45:19	3	94
162069	2026-03-13T02:55:19	2.9	94
162070	2026-03-13T03:05:19	2.7	94.5
162071	2026-03-13T03:15:19	2.6	94.5
162072	2026-03-13T03:25:19	2.5	94.5
162073	2026-03-13T03:35:19	2.5	95
162074	2026-03-13T03:45:19	2.4	95.5
162075	2026-03-13T03:55:19	2.3	95.5
162076	2026-03-13T04:05:19	2.1	95.5
162077	2026-03-13T04:15:19	2.2	95.5
162078	2026-03-13T04:25:19	2.1	95.5
162079	2026-03-13T04:35:19	2.1	96
162080	2026-03-13T04:45:19	2	96
162081	2026-03-13T04:55:19	2	96
162082	2026-03-13T05:05:19	2	96.5
162083	2026-03-13T05:15:19	1.8	97
162084	2026-03-13T05:25:19	1.8	97
162085	2026-03-13T05:35:19	1.8	97.5
162086	2026-03-13T05:45:19	1.9	97
162087	2026-03-13T05:55:19	1.8	97.5
162088	2026-03-13T06:05:19	1.8	98
162089	2026-03-13T06:15:19	1.9	98
162090	2026-03-13T06:25:19	1.9	98
162091	2026-03-13T06:35:19	2.1	98
162092	2026-03-13T06:45:19	2.3	98
162093	2026-03-13T06:55:19	2.5	99
162094	2026-03-13T07:05:19	2.9	99.5
162095	2026-03-13T07:15:19	3.2	99.5
162096	2026-03-13T07:25:19	4	98
162097	2026-03-13T07:35:19	4.4	96
162098	2026-03-13T07:45:19	4.8	96.5
162099	2026-03-13T07:55:19	5.3	95.5
162100	2026-03-13T08:05:19	5.6	94
162101	2026-03-13T08:15:19	6.1	91
162102	2026-03-13T08:25:19	7.4	84.5
162103	2026-03-13T08:35:19	8	82
162104	2026-03-13T08:45:19	8.6	80
162105	2026-03-13T08:55:19	9.5	77.5
162106	2026-03-13T09:05:19	10	73.5
162107	2026-03-13T09:15:19	10.9	71.5
162108	2026-03-13T09:25:19	11.5	69.5
162109	2026-03-13T09:35:19	12	66.5
162110	2026-03-13T09:45:19	12.2	65
162111	2026-03-13T09:55:19	12.3	65
162112	2026-03-13T10:05:19	12.6	63.5
162113	2026-03-13T10:15:19	13	61
162114	2026-03-13T10:25:19	13.3	61
162115	2026-03-13T10:35:19	13.8	60
162116	2026-03-13T10:45:18	14.4	58.5
162117	2026-03-13T10:55:18	14.5	57.5
162118	2026-03-13T11:05:18	14.6	58
162119	2026-03-13T11:15:18	14.8	57
162120	2026-03-13T11:25:18	15	58
162121	2026-03-13T11:35:18	15	57.5
162122	2026-03-13T11:45:18	15.2	57
162123	2026-03-13T11:55:36	15.1	57
162124	2026-03-13T12:05:18	15.4	55.5
162125	2026-03-13T12:15:18	15.4	56.5
162126	2026-03-13T12:25:18	15.5	55.5
162127	2026-03-13T12:35:18	15.7	55.5
162128	2026-03-13T12:45:18	15.8	55
162129	2026-03-13T12:55:18	16	54.5
162130	2026-03-13T13:05:18	16.3	55
162131	2026-03-13T13:15:18	16.6	54
162132	2026-03-13T13:25:18	16.5	54
162133	2026-03-13T13:35:18	16.7	53.5
162134	2026-03-13T13:45:18	16.8	53.5
162135	2026-03-13T13:55:18	16.7	55
162136	2026-03-13T14:05:18	16.7	54.5
162137	2026-03-13T14:15:18	16.6	55
162138	2026-03-13T14:25:18	16.7	54.5
162139	2026-03-13T14:35:18	17.4	54
162140	2026-03-13T14:45:18	17.5	53
162141	2026-03-13T14:55:18	17.4	53.5
162142	2026-03-13T15:05:18	17.7	53
162143	2026-03-13T15:15:18	17.8	53
162144	2026-03-13T15:25:18	17.7	52.5
162145	2026-03-13T15:35:18	17.4	53
162146	2026-03-13T15:45:18	17	53
162147	2026-03-13T15:55:18	16.5	54.5
162148	2026-03-13T16:05:18	16.3	55.5
162149	2026-03-13T16:15:18	16.1	56.5
162150	2026-03-13T16:25:18	15.9	57
162151	2026-03-13T16:35:18	15.8	57.5
162152	2026-03-13T16:45:18	15.6	58
162153	2026-03-13T16:55:18	15.6	58.5
162154	2026-03-13T17:05:18	15.6	58
162155	2026-03-13T17:15:18	15.4	59
162156	2026-03-13T17:25:18	15.4	58
162157	2026-03-13T17:35:18	15.2	59
162158	2026-03-13T17:45:18	15	60
162159	2026-03-13T17:55:18	14.7	59.5
162160	2026-03-13T18:05:18	14.5	61
162161	2026-03-13T18:15:18	14.4	61.5
162162	2026-03-13T18:25:18	14.1	64
162163	2026-03-13T18:35:18	14	63.5
162164	2026-03-13T18:45:18	13.9	69
162165	2026-03-13T18:55:18	13.4	73.5
162166	2026-03-13T19:05:18	13.2	74.5
162167	2026-03-13T19:15:18	13	75
162168	2026-03-13T19:25:18	12.8	74.5
162169	2026-03-13T19:35:18	12.9	75.5
162170	2026-03-13T19:45:18	12.7	74.5
162171	2026-03-13T19:55:18	12.7	75.5
162172	2026-03-13T20:05:18	12.6	76
162173	2026-03-13T20:15:18	12.7	76.5
162174	2026-03-13T20:35:18	12.4	74.5
162175	2026-03-13T20:45:18	12.3	76.5
162176	2026-03-13T20:55:18	12.3	77
162177	2026-03-13T21:05:18	12.2	75.5
162178	2026-03-13T21:15:18	12.4	74.5
162179	2026-03-13T21:25:18	12.4	73.5
162180	2026-03-13T21:35:18	12.6	73.5
162181	2026-03-13T21:45:18	12.1	80.5
162182	2026-03-13T21:55:18	12.1	77.5
162183	2026-03-13T22:05:18	12.3	75.5
162184	2026-03-13T22:15:18	11.4	91.5
162185	2026-03-13T22:25:18	11.2	88
162186	2026-03-13T22:35:18	11.2	95.5
162187	2026-03-13T22:45:18	11.3	95.5
162188	2026-03-13T22:55:18	11.2	97
162189	2026-03-13T23:05:18	11.2	89
162190	2026-03-13T23:15:18	11.2	83.5
162191	2026-03-13T23:25:18	11.5	83
162192	2026-03-13T23:35:18	11.6	77.5
162193	2026-03-13T23:45:18	11.2	85.5
162194	2026-03-13T23:55:17	10.8	86
162195	2026-03-14T00:05:17	10.2	95.5
162196	2026-03-14T00:15:17	10	99.5
162197	2026-03-14T00:25:17	10	98
162198	2026-03-14T00:35:17	9.9	99
162199	2026-03-14T00:45:17	9.7	100
162200	2026-03-14T00:55:17	9.2	100
162201	2026-03-14T01:15:17	8.4	100
162202	2026-03-14T01:25:17	8.6	100
162203	2026-03-14T01:35:17	8.7	100
162204	2026-03-14T01:45:17	8.7	100
162205	2026-03-14T01:55:17	8.7	100
162206	2026-03-14T02:05:17	8.9	100
162207	2026-03-14T02:15:17	8.8	100
162208	2026-03-14T02:25:17	8.9	100
162209	2026-03-14T02:35:17	8.9	100
162210	2026-03-14T02:45:17	8.7	100
162211	2026-03-14T02:55:17	8.5	100
162212	2026-03-14T03:05:17	8.3	100
162213	2026-03-14T03:15:17	8.2	100
162214	2026-03-14T03:25:17	8	100
162215	2026-03-14T03:35:17	7.7	100
162216	2026-03-14T03:45:17	7.7	100
162217	2026-03-14T03:55:17	7.5	100
162218	2026-03-14T04:05:17	7.4	100
162219	2026-03-14T04:15:17	7.4	100
162220	2026-03-14T04:25:17	7.3	100
162221	2026-03-14T04:35:17	7.3	100
162222	2026-03-14T04:45:17	7.3	100
162223	2026-03-14T04:55:17	7.1	100
162224	2026-03-14T05:05:17	6.9	100
162225	2026-03-14T05:15:17	6.9	100
162226	2026-03-14T05:25:17	6.9	100
162227	2026-03-14T05:35:17	6.7	100
162228	2026-03-14T05:45:17	6.7	100
162229	2026-03-14T05:55:17	6.7	100
162230	2026-03-14T06:05:17	6.5	100
162231	2026-03-14T06:15:17	6.4	100
162232	2026-03-14T06:25:17	6.3	100
162233	2026-03-14T06:35:17	6.3	100
162234	2026-03-14T06:45:17	6.3	100
162235	2026-03-14T06:55:17	6.1	100
162236	2026-03-14T07:05:17	6.4	100
162237	2026-03-14T07:15:17	6.4	100
162238	2026-03-14T07:25:17	6.4	100
162239	2026-03-14T07:35:17	6.5	100
162240	2026-03-14T07:45:17	6.4	100
162241	2026-03-14T07:55:17	6.4	100
162242	2026-03-14T08:05:17	6.4	100
162243	2026-03-14T08:15:17	6.5	100
162244	2026-03-14T08:25:17	6.3	99.5
162245	2026-03-14T08:35:17	6.1	98.5
162246	2026-03-14T08:45:17	5.8	97.5
162247	2026-03-14T08:55:17	5.6	97.5
162248	2026-03-14T09:05:17	5.7	97.5
162249	2026-03-14T09:15:17	5.7	97.5
162250	2026-03-14T09:25:17	5.6	97.5
162251	2026-03-14T09:35:17	5.7	97.5
162252	2026-03-14T09:45:17	5.8	97.5
162253	2026-03-14T09:55:17	6	97.5
162254	2026-03-14T10:05:17	6	97.5
162255	2026-03-14T10:15:17	6	97.5
162256	2026-03-14T10:25:17	5.9	97.5
162257	2026-03-14T10:35:17	5.9	97.5
162258	2026-03-14T10:45:17	5.9	97.5
162259	2026-03-14T10:55:17	5.5	97.5
162260	2026-03-14T11:05:17	5.4	97.5
162261	2026-03-14T11:15:17	5.4	97.5
162262	2026-03-14T11:25:17	5.7	97.5
162263	2026-03-14T11:35:17	6	97.5
162264	2026-03-14T11:45:17	6.1	97.5
162265	2026-03-14T11:55:17	6.1	97.5
162266	2026-03-14T12:05:17	6.2	97.5
162267	2026-03-14T12:15:17	6.4	97.5
162268	2026-03-14T12:25:17	6.9	97.5
162269	2026-03-14T12:35:17	7.2	97.5
162270	2026-03-14T12:45:17	7.1	97.5
162271	2026-03-14T12:55:17	7	97.5
162272	2026-03-14T13:05:17	7.1	97.5
162273	2026-03-14T13:15:17	7.1	97.5
162274	2026-03-14T13:25:17	7.1	97.5
162275	2026-03-14T13:35:17	7.6	97.5
162276	2026-03-14T13:45:17	8.2	98
162277	2026-03-14T13:55:17	8	98
162278	2026-03-14T14:05:17	7.7	98
162279	2026-03-14T14:15:17	7.7	98
162280	2026-03-14T14:35:17	7.5	98
162281	2026-03-14T14:45:17	7.3	98
162282	2026-03-14T14:55:17	7.3	98
162283	2026-03-14T15:05:17	7.2	98
162284	2026-03-14T15:15:17	7.2	98
162285	2026-03-14T15:25:17	7	98
162286	2026-03-14T15:35:17	7	98
162287	2026-03-14T15:45:17	7.1	98
162288	2026-03-14T15:55:17	7.1	98
162289	2026-03-14T16:05:17	7	98
162290	2026-03-14T16:15:17	6.8	98
162291	2026-03-14T16:25:17	6.7	98
162292	2026-03-14T16:35:17	6.6	98
162293	2026-03-14T16:45:17	6.6	98
162294	2026-03-14T16:55:17	6.4	98
162295	2026-03-14T17:05:17	6.3	98
162296	2026-03-14T17:15:17	6.1	98
162297	2026-03-14T17:25:17	6	98
162298	2026-03-14T17:35:17	5.9	98
162299	2026-03-14T17:45:17	5.8	98
162300	2026-03-14T17:55:17	5.6	98
162301	2026-03-14T18:05:17	5.6	98
162302	2026-03-14T18:15:17	5.7	98
162303	2026-03-14T18:25:17	5.5	98
162304	2026-03-14T18:35:17	5.5	98
162305	2026-03-14T18:45:17	5.4	98
162306	2026-03-14T18:55:17	5.4	98
162307	2026-03-14T19:05:17	5.2	98
162308	2026-03-14T19:15:17	5.1	98
162309	2026-03-14T19:25:17	5.1	98
162310	2026-03-14T19:35:17	5	98
162311	2026-03-14T19:45:17	5	100
162312	2026-03-14T19:55:17	5	100
162313	2026-03-14T20:05:17	4.9	100
162314	2026-03-14T20:15:17	4.9	100
162315	2026-03-14T20:25:17	5	100
162316	2026-03-14T20:35:17	4.9	100
162317	2026-03-14T20:45:17	4.8	100
162318	2026-03-14T20:55:17	4.8	100
162319	2026-03-14T21:05:17	4.8	100
162320	2026-03-14T21:15:17	4.8	100
162321	2026-03-14T21:25:17	4.8	100
162322	2026-03-14T21:35:17	4.8	100
162323	2026-03-14T21:45:17	4.7	100
162324	2026-03-14T21:55:17	4.7	100
162325	2026-03-14T22:05:17	4.7	100
162326	2026-03-14T22:15:17	4.7	100
162327	2026-03-14T22:25:17	4.6	100
162328	2026-03-14T22:35:17	4.7	100
162329	2026-03-14T22:45:17	4.7	100
162330	2026-03-14T22:55:17	4.7	100
162331	2026-03-14T23:05:17	4.7	100
162332	2026-03-14T23:15:16	4.6	100
162333	2026-03-14T23:25:16	4.4	100
162334	2026-03-14T23:35:16	4.5	100
162335	2026-03-14T23:45:16	4.4	100
162336	2026-03-14T23:55:16	4.3	100
162337	2026-03-15T00:05:17	4.3	100
162338	2026-03-15T00:15:16	4.3	100
162339	2026-03-15T00:25:16	4.3	100
162340	2026-03-15T00:35:16	4.3	100
162341	2026-03-15T00:45:16	4.3	100
162342	2026-03-15T00:55:16	4.2	100
162343	2026-03-15T01:05:16	4.2	100
162344	2026-03-15T01:15:16	4.2	100
162345	2026-03-15T01:25:16	4.3	100
162346	2026-03-15T01:35:16	4.4	100
162347	2026-03-15T01:45:17	4.4	100
162348	2026-03-15T01:55:16	4.4	100
162349	2026-03-15T02:05:16	4.5	100
162350	2026-03-15T02:15:16	4.5	100
162351	2026-03-15T02:25:16	4.5	100
162352	2026-03-15T02:35:17	4.5	100
162353	2026-03-15T02:45:16	4.5	100
162354	2026-03-15T02:55:16	4.6	100
162355	2026-03-15T03:05:16	4.6	100
162356	2026-03-15T03:15:16	4.5	100
162357	2026-03-15T03:25:16	4.6	100
162358	2026-03-15T03:35:16	4.5	100
162359	2026-03-15T03:45:16	4.5	100
162360	2026-03-15T03:55:16	4.5	100
162361	2026-03-15T04:05:16	4.4	100
162362	2026-03-15T04:15:16	4.5	100
162363	2026-03-15T04:25:16	4.4	100
162364	2026-03-15T04:35:16	4.4	100
162365	2026-03-15T04:45:16	4.4	100
162366	2026-03-15T04:55:16	4.4	99.5
162367	2026-03-15T05:05:16	4.5	99
162368	2026-03-15T05:15:16	4.5	97.5
162369	2026-03-15T05:25:16	4.5	97.5
162370	2026-03-15T05:35:16	4.6	96.5
162371	2026-03-15T05:45:16	4.6	97
162372	2026-03-15T05:55:16	4.4	97
162373	2026-03-15T06:05:16	4.5	97.5
162374	2026-03-15T06:15:16	4.6	97.5
162375	2026-03-15T06:25:16	4.7	96.5
162376	2026-03-15T06:35:16	4.9	97
162377	2026-03-15T06:45:16	5	96
162378	2026-03-15T06:55:16	5.3	95
162379	2026-03-15T07:05:16	5.5	92
162380	2026-03-15T07:15:16	5.9	92.5
162381	2026-03-15T07:25:16	6.2	92.5
162382	2026-03-15T07:35:16	6.5	91
162383	2026-03-15T07:45:16	6.4	90
162384	2026-03-15T07:55:16	6.4	90
162385	2026-03-15T08:05:16	6.5	89
162386	2026-03-15T08:15:16	6.7	85.5
162387	2026-03-15T08:25:16	6.9	85
162388	2026-03-15T08:35:16	7.3	86
162389	2026-03-15T08:45:16	7.8	85.5
162390	2026-03-15T08:55:16	8.2	81
162391	2026-03-15T09:05:16	8.5	80
162392	2026-03-15T09:15:16	8.6	80
162393	2026-03-15T09:25:16	8.4	81.5
162394	2026-03-15T09:35:16	8.4	81
162395	2026-03-15T09:45:16	8.5	80
162396	2026-03-15T09:55:16	9.1	76.5
162397	2026-03-15T10:05:16	9.3	77.5
162398	2026-03-15T10:15:16	9.9	74
162399	2026-03-15T10:25:16	9.4	74.5
162400	2026-03-15T10:35:16	9.7	75.5
162401	2026-03-15T10:45:16	9.6	74.5
162402	2026-03-15T10:55:16	9.2	75
162403	2026-03-15T11:05:16	9.7	74.5
162404	2026-03-15T11:15:16	10.3	73.5
162405	2026-03-15T11:25:16	10.7	75
162406	2026-03-15T11:35:16	11	73.5
162407	2026-03-15T11:45:16	10.7	70
162408	2026-03-15T11:55:16	10.8	71.5
162409	2026-03-15T12:05:16	10.7	72.5
162410	2026-03-15T12:15:16	10.8	70.5
162411	2026-03-15T12:25:16	10.8	69
162412	2026-03-15T12:35:16	10.6	69
162413	2026-03-15T12:45:16	10.4	70
162414	2026-03-15T12:55:16	10.6	70.5
162415	2026-03-15T13:05:16	10.8	71
162416	2026-03-15T13:15:16	10.7	66.5
162417	2026-03-15T13:25:16	10.9	66.5
162418	2026-03-15T13:35:16	10.5	65.5
162419	2026-03-15T13:45:16	10.7	69.5
162420	2026-03-15T13:55:16	10.8	63.5
162421	2026-03-15T14:05:16	10.5	69
162422	2026-03-15T14:15:16	10.4	67.5
162423	2026-03-15T14:25:16	10.2	66.5
162424	2026-03-15T14:35:16	10	69.5
162425	2026-03-15T14:45:16	10	72
162426	2026-03-15T14:55:16	10.1	72
162427	2026-03-15T15:05:16	10.2	68
162428	2026-03-15T15:15:16	10.2	70
162429	2026-03-15T15:25:16	10.3	71
162430	2026-03-15T15:35:16	10.1	67
162431	2026-03-15T15:45:16	10	69
162432	2026-03-15T15:55:16	9.8	70.5
162433	2026-03-15T16:05:16	9.8	70.5
162434	2026-03-15T16:15:16	9.7	73
162435	2026-03-15T16:25:16	9.4	71.5
162436	2026-03-15T16:35:16	9.3	72.5
162437	2026-03-15T16:45:16	9.2	73.5
162438	2026-03-15T16:55:16	9	72
162439	2026-03-15T17:05:16	8.8	73
162440	2026-03-15T17:15:16	8.6	72.5
162441	2026-03-15T17:25:16	8.5	75.5
162442	2026-03-15T17:35:16	8.5	77
162443	2026-03-15T17:45:16	8.4	79.5
162444	2026-03-15T17:55:16	8	77.5
162445	2026-03-15T18:05:16	8.1	78.5
162446	2026-03-15T18:15:16	7.9	82.5
162447	2026-03-15T18:25:16	7.8	84.5
162448	2026-03-15T18:35:16	7.6	84.5
162449	2026-03-15T18:45:16	7.3	86
162450	2026-03-15T18:55:16	7.1	86
162451	2026-03-15T19:05:16	6.6	85.5
162452	2026-03-15T19:15:16	6.4	86.5
162453	2026-03-15T19:25:15	6.4	87.5
162454	2026-03-15T19:35:15	6.4	88.5
162455	2026-03-15T19:45:15	6.6	89
162456	2026-03-15T19:55:15	6.5	87.5
162457	2026-03-15T20:05:15	6.2	88
162458	2026-03-15T20:15:15	5.9	88.5
162459	2026-03-15T20:25:15	6	88
162460	2026-03-15T20:35:15	6	89
162461	2026-03-15T20:45:15	6.1	88
162462	2026-03-15T20:55:15	5.8	90.5
162463	2026-03-15T21:05:15	5.4	92
162464	2026-03-15T21:15:15	5	92.5
162465	2026-03-15T21:25:15	5	90.5
162466	2026-03-15T21:35:15	4.6	92.5
162467	2026-03-15T21:45:15	4.3	93
162468	2026-03-15T21:55:15	4.1	92.5
162469	2026-03-15T22:05:15	3.9	93
162470	2026-03-15T22:15:15	3.8	93
162471	2026-03-15T22:25:15	3.6	93
162472	2026-03-15T22:35:15	3.7	92
162473	2026-03-15T22:45:15	3.4	93.5
162474	2026-03-15T22:55:15	3.5	93.5
162475	2026-03-15T23:05:15	3.7	93
162476	2026-03-15T23:15:15	3.2	94
162477	2026-03-15T23:25:15	3	94
162478	2026-03-15T23:35:15	2.8	94.5
162479	2026-03-15T23:45:15	2.7	94.5
162480	2026-03-15T23:55:15	2.6	95
162481	2026-03-16T00:05:15	2.6	95
162482	2026-03-16T00:15:15	2.8	92.5
162483	2026-03-16T00:25:15	3.3	89.5
162484	2026-03-16T00:35:15	3.5	88.5
162485	2026-03-16T00:45:15	4	86.5
162486	2026-03-16T00:55:15	4	86.5
162487	2026-03-16T01:15:15	4.2	84.5
162488	2026-03-16T01:25:15	4	83.5
162489	2026-03-16T01:35:15	3.7	85
162490	2026-03-16T01:45:15	3.6	86.5
162491	2026-03-16T01:55:15	3.5	86
162492	2026-03-16T02:05:15	3.4	85.5
162493	2026-03-16T02:15:15	3.4	85.5
162494	2026-03-16T02:25:15	3.7	85
162495	2026-03-16T02:35:15	3.8	84
162496	2026-03-16T02:45:15	4.3	83
162497	2026-03-16T02:55:15	4.5	83
162498	2026-03-16T03:05:15	4.6	82.5
162499	2026-03-16T03:15:15	4.8	83
162500	2026-03-16T03:25:15	4.8	83
162501	2026-03-16T03:35:15	5	82.5
162502	2026-03-16T03:45:15	5.3	81
162503	2026-03-16T03:55:15	5.6	79.5
162504	2026-03-16T04:05:15	5.9	76.5
162505	2026-03-16T04:15:15	6.1	75
162506	2026-03-16T04:25:15	6.4	72.5
162507	2026-03-16T04:35:15	6.6	70.5
162508	2026-03-16T04:45:15	6.8	70
162509	2026-03-16T04:55:15	6.9	69
162510	2026-03-16T05:05:15	6.9	69
162511	2026-03-16T05:15:15	7	70
162512	2026-03-16T05:25:15	7	71
162513	2026-03-16T05:35:15	6.8	73.5
162514	2026-03-16T05:45:15	6.5	80.5
162515	2026-03-16T05:55:15	6.5	78
162516	2026-03-16T06:05:15	6.6	76.5
162517	2026-03-16T06:15:15	6.6	76
162518	2026-03-16T06:25:15	6.6	76
162519	2026-03-16T06:35:15	6.7	75.5
162520	2026-03-16T06:45:15	6.7	75.5
162521	2026-03-16T06:55:15	6.8	75.5
162522	2026-03-16T07:05:15	6.7	76
162523	2026-03-16T07:15:15	6.7	76
162524	2026-03-16T07:25:15	6.9	76
162525	2026-03-16T07:35:15	7.1	76.5
162526	2026-03-16T07:45:15	7.1	77
162527	2026-03-16T07:55:15	7.3	76.5
162528	2026-03-16T08:05:15	7.3	76.5
162529	2026-03-16T08:15:15	7.4	76.5
162530	2026-03-16T08:25:15	7.6	76.5
162531	2026-03-16T08:35:15	8	76
162532	2026-03-16T08:45:15	7.1	86.5
162533	2026-03-16T08:55:15	7.3	80.5
162534	2026-03-16T09:05:15	7.8	78.5
162535	2026-03-16T09:15:15	8.2	76.5
162536	2026-03-16T09:25:15	8.3	76.5
162537	2026-03-16T09:35:15	8.6	75
162538	2026-03-16T09:45:15	9	73.5
162539	2026-03-16T09:55:15	8.9	74.5
162540	2026-03-16T10:05:15	8.8	75
162541	2026-03-16T10:15:15	8.8	75
162542	2026-03-16T10:25:15	9.4	73.5
162543	2026-03-16T10:35:15	9.7	72.5
162544	2026-03-16T10:45:15	9.7	72.5
162545	2026-03-16T10:55:15	9.6	73
162546	2026-03-16T11:05:15	10	72
162547	2026-03-16T11:15:15	10.2	71.5
162548	2026-03-16T11:25:15	10.8	70.5
162549	2026-03-16T11:35:15	10.9	70.5
162550	2026-03-16T11:45:15	10.5	70
162551	2026-03-16T11:55:15	10.3	72
162552	2026-03-16T12:05:15	10.2	71.5
162553	2026-03-16T12:15:15	10.4	71.5
162554	2026-03-16T12:25:15	10.3	71
162555	2026-03-16T12:35:15	9.4	81.5
162556	2026-03-16T12:45:15	7.8	99.5
162557	2026-03-16T12:55:15	7.4	100
162558	2026-03-16T13:05:15	8.7	100
162559	2026-03-16T13:15:15	8.7	100
162560	2026-03-16T13:25:15	7.8	100
162561	2026-03-16T13:35:15	7.5	100
162562	2026-03-16T13:45:15	7.9	100
162563	2026-03-16T13:55:15	8.2	100
162564	2026-03-16T14:05:15	8.8	100
162565	2026-03-16T14:15:15	8.6	100
162566	2026-03-16T14:25:15	8.5	100
162567	2026-03-16T14:35:15	8.1	100
162568	2026-03-16T14:45:15	9.5	100
162569	2026-03-16T14:55:15	10	100
162570	2026-03-16T15:05:15	10	100
162571	2026-03-16T15:15:15	10.2	100
162572	2026-03-16T15:25:15	10.3	100
162573	2026-03-16T15:35:15	9.6	100
162574	2026-03-16T15:45:15	9.3	100
162575	2026-03-16T15:55:15	9.5	100
162576	2026-03-16T16:05:15	9.5	100
162577	2026-03-16T16:15:15	10	100
162578	2026-03-16T16:25:15	9.4	100
162579	2026-03-16T16:35:15	9.2	100
162580	2026-03-16T16:45:15	9.1	100
162581	2026-03-16T16:55:15	8.9	100
162582	2026-03-16T17:05:15	8.8	100
162583	2026-03-16T17:15:15	8.7	100
162584	2026-03-16T17:25:15	8.8	100
162585	2026-03-16T17:35:15	8.1	100
162586	2026-03-16T17:45:14	8	100
162587	2026-03-16T17:55:14	7.7	100
162588	2026-03-16T18:05:14	7.6	100
162589	2026-03-16T18:15:14	7.3	100
162590	2026-03-16T18:25:14	7.3	100
162591	2026-03-16T18:35:14	7.3	100
162592	2026-03-16T18:45:14	7.4	100
162593	2026-03-16T18:55:14	7.1	100
162594	2026-03-16T19:05:14	7.1	100
162595	2026-03-16T19:15:14	7.1	100
162596	2026-03-16T19:25:14	6.9	100
162597	2026-03-16T19:35:14	6.9	100
162598	2026-03-16T19:45:14	6.7	100
162599	2026-03-16T19:55:14	6.6	100
162600	2026-03-16T20:05:14	6.4	100
162601	2026-03-16T20:15:14	6.2	100
162602	2026-03-16T20:25:14	6.2	100
162603	2026-03-16T20:35:14	6.3	100
162604	2026-03-16T20:45:14	6.4	100
162605	2026-03-16T20:55:14	6.4	100
162606	2026-03-16T21:05:14	6.5	100
162607	2026-03-16T21:15:14	6.6	100
162608	2026-03-16T21:25:14	6.8	100
162609	2026-03-16T21:35:14	6.9	100
162610	2026-03-16T21:45:14	6.9	100
162611	2026-03-16T21:55:14	7	100
162612	2026-03-16T22:05:14	7	100
162613	2026-03-16T22:15:14	7.1	100
162614	2026-03-16T22:25:14	7.2	100
162615	2026-03-16T22:35:14	7.1	100
162616	2026-03-16T22:45:14	7.1	100
162617	2026-03-16T22:55:14	7.1	100
162618	2026-03-16T23:05:14	7.2	100
162619	2026-03-16T23:15:14	7.3	100
162620	2026-03-16T23:25:14	7.2	100
162621	2026-03-16T23:35:14	7.3	100
162622	2026-03-16T23:45:14	7.3	100
162623	2026-03-16T23:55:14	7.3	100
162624	2026-03-17T00:05:14	7.3	100
162625	2026-03-17T00:15:14	7.3	100
162626	2026-03-17T00:25:14	7.3	100
162627	2026-03-17T00:35:14	7.5	100
162628	2026-03-17T00:45:14	7.5	100
162629	2026-03-17T00:55:14	7.6	100
162630	2026-03-17T01:05:14	7.5	100
162631	2026-03-17T01:15:14	7.4	100
162632	2026-03-17T01:25:14	7.4	100
162633	2026-03-17T01:35:14	7.4	100
162634	2026-03-17T01:45:14	7.3	100
162635	2026-03-17T01:55:14	7	100
162636	2026-03-17T02:05:14	6.8	100
162637	2026-03-17T02:15:14	6.7	100
162638	2026-03-17T02:25:14	6.7	100
162639	2026-03-17T02:35:14	6.7	100
162640	2026-03-17T02:45:14	6.8	100
162641	2026-03-17T02:55:14	6.8	100
162642	2026-03-17T03:05:14	6.8	100
162643	2026-03-17T03:15:14	6.9	100
162644	2026-03-17T03:25:14	6.9	100
162645	2026-03-17T03:35:14	6.9	100
162646	2026-03-17T03:45:14	6.9	100
162647	2026-03-17T03:55:14	6.8	100
162648	2026-03-17T04:05:14	7	100
162649	2026-03-17T04:15:14	7	100
162650	2026-03-17T04:25:14	6.9	100
162651	2026-03-17T04:35:14	6.9	100
162652	2026-03-17T04:45:14	7	100
162653	2026-03-17T04:55:14	6.9	100
162654	2026-03-17T05:05:14	6.9	100
162655	2026-03-17T05:15:14	7	100
162656	2026-03-17T05:25:14	7	100
162657	2026-03-17T05:35:14	6.9	100
162658	2026-03-17T05:45:14	6.9	100
162659	2026-03-17T05:55:14	6.9	100
162660	2026-03-17T06:05:14	6.9	100
162661	2026-03-17T06:15:14	6.9	100
162662	2026-03-17T06:25:14	7.1	100
162663	2026-03-17T06:35:14	7.1	100
162664	2026-03-17T06:45:14	7.4	100
162665	2026-03-17T06:55:14	7.5	100
162666	2026-03-17T07:05:14	7.5	100
162667	2026-03-17T07:15:14	7.7	100
162668	2026-03-17T07:25:14	7.8	100
162669	2026-03-17T07:35:14	8.1	100
162670	2026-03-17T07:45:14	8.3	100
162671	2026-03-17T07:55:14	8.7	100
162672	2026-03-17T08:05:14	8.8	100
162673	2026-03-17T08:15:14	9	100
162674	2026-03-17T08:25:14	9.4	100
162675	2026-03-17T08:35:14	9.6	100
162676	2026-03-17T08:45:14	9.8	100
162677	2026-03-17T08:55:14	10	100
162678	2026-03-17T09:05:14	10.2	100
162679	2026-03-17T09:15:14	10.5	98
162680	2026-03-17T09:25:14	10.5	91.5
162681	2026-03-17T09:35:14	10.6	86.5
162682	2026-03-17T09:45:14	10.7	84
162683	2026-03-17T09:55:14	11.1	83.5
162684	2026-03-17T10:05:14	11.4	82
162685	2026-03-17T10:15:14	11.9	80.5
162686	2026-03-17T10:25:14	12.4	79
162687	2026-03-17T10:35:14	12.4	78.5
162688	2026-03-17T10:45:14	12.6	76
162689	2026-03-17T10:55:14	13	75
162690	2026-03-17T11:05:14	13.1	75
162691	2026-03-17T11:15:14	13.6	74
162692	2026-03-17T11:25:14	13.7	69.5
162693	2026-03-17T11:35:14	13.6	68.5
162694	2026-03-17T11:45:14	14	69.5
162695	2026-03-17T11:55:14	14.3	66
162696	2026-03-17T12:05:14	15.6	67.5
162697	2026-03-17T12:15:14	16.1	66.5
162698	2026-03-17T12:25:14	16.2	63
162699	2026-03-17T12:35:13	16.3	62.5
162700	2026-03-17T13:05:13	17.2	58.5
162701	2026-03-17T13:15:13	18.3	54.5
162702	2026-03-17T13:25:13	16.8	59
162703	2026-03-17T13:35:13	16.6	60
162704	2026-03-17T13:45:13	16.1	61.5
162705	2026-03-17T13:55:13	16.5	59
162706	2026-03-17T14:05:13	16.3	60
162707	2026-03-17T14:15:13	17.1	57.5
162708	2026-03-17T14:25:13	16.7	58.5
162709	2026-03-17T14:35:13	16.4	59
162710	2026-03-17T14:45:13	16.4	60
162711	2026-03-17T14:55:13	15.8	63
162712	2026-03-17T15:05:13	15.8	60.5
162713	2026-03-17T15:15:13	15.4	62
162714	2026-03-17T15:25:13	15.2	63
162715	2026-03-17T15:35:13	15	64.5
162716	2026-03-17T15:45:13	14.8	65.5
162717	2026-03-17T15:55:13	14.6	66.5
162718	2026-03-17T16:05:13	14.4	67
162719	2026-03-17T16:15:13	14.4	69.5
162720	2026-03-17T16:25:13	14.2	68.5
162721	2026-03-17T16:35:13	13.8	68.5
162722	2026-03-17T16:45:13	13.7	69.5
162723	2026-03-17T16:55:13	13.5	70
162724	2026-03-17T17:05:13	13.3	71
162725	2026-03-17T17:15:13	13.1	73
162726	2026-03-17T17:25:13	13	72
162727	2026-03-17T17:35:13	12.8	74.5
162728	2026-03-17T17:45:13	12.7	74
162729	2026-03-17T17:55:13	12.4	74
162730	2026-03-17T18:05:13	12.4	74
162731	2026-03-17T18:15:13	12.2	72
162732	2026-03-17T18:25:13	12.1	71.5
162733	2026-03-17T18:35:13	11.9	73.5
162734	2026-03-17T18:45:13	11.8	74.5
162735	2026-03-17T18:55:13	11.6	74.5
162736	2026-03-17T19:05:13	11.5	75
162737	2026-03-17T19:15:13	11.4	74.5
162738	2026-03-17T19:25:13	11.2	75.5
162739	2026-03-17T19:45:13	10.3	78
162740	2026-03-17T19:55:13	10.3	79.5
162741	2026-03-17T20:05:13	10	79.5
162742	2026-03-17T20:15:13	9.8	80.5
162743	2026-03-17T20:25:13	9.8	80.5
162744	2026-03-17T20:35:13	9.8	81.5
162745	2026-03-17T20:45:13	9.8	80.5
162746	2026-03-17T20:55:13	9.8	80.5
162747	2026-03-17T21:05:13	9.9	80.5
162748	2026-03-17T21:15:13	9.7	80.5
162749	2026-03-17T21:25:13	9.5	80.5
162750	2026-03-17T21:45:13	9	82
162751	2026-03-17T21:55:13	8.7	81.5
162752	2026-03-17T22:05:13	8.4	81
162753	2026-03-17T22:15:13	8.3	82
162754	2026-03-17T22:25:13	8.2	82
162755	2026-03-17T22:35:13	8.1	82.5
162756	2026-03-17T22:45:13	7.9	82
162757	2026-03-17T22:55:13	7.8	83
162758	2026-03-17T23:05:13	7.6	83
162759	2026-03-17T23:15:13	7.3	84
162760	2026-03-17T23:25:13	7.2	84.5
162761	2026-03-17T23:35:13	7.1	85
162762	2026-03-17T23:45:13	6.8	85.5
162763	2026-03-17T23:55:13	6.8	86
162764	2026-03-18T00:05:13	6.7	87
162765	2026-03-18T00:15:13	6.5	87
162766	2026-03-18T00:25:13	6.4	87
162767	2026-03-18T00:35:13	6.2	88
162768	2026-03-18T00:45:13	6	89.5
162769	2026-03-18T00:55:13	5.8	90
162770	2026-03-18T01:05:13	5.8	90
162771	2026-03-18T01:15:13	5.8	88.5
162772	2026-03-18T01:25:13	5.8	87.5
162773	2026-03-18T01:35:13	5.7	86.5
162774	2026-03-18T01:45:13	5.7	86.5
162775	2026-03-18T01:55:13	5.6	86.5
162776	2026-03-18T02:05:13	5.4	88
162777	2026-03-18T02:15:13	5.1	89
162778	2026-03-18T02:25:13	4.9	89
162779	2026-03-18T02:35:13	4.9	90
162780	2026-03-18T02:45:13	4.8	89
162781	2026-03-18T02:55:13	4.7	88.5
162782	2026-03-18T03:05:13	4.5	89
162783	2026-03-18T03:15:13	4.4	90
162784	2026-03-18T03:25:13	4.3	90.5
162785	2026-03-18T03:35:13	4.1	91
162786	2026-03-18T03:45:13	4.1	90.5
162787	2026-03-18T03:55:13	4	90
162788	2026-03-18T04:05:13	4	90
162789	2026-03-18T04:15:13	3.8	90
162790	2026-03-18T04:25:13	3.7	90.5
162791	2026-03-18T04:35:13	3.7	90
162792	2026-03-18T04:45:13	3.5	90.5
162793	2026-03-18T04:55:13	3.2	91
162794	2026-03-18T05:05:13	3.1	90.5
162795	2026-03-18T05:15:13	3	91
162796	2026-03-18T05:25:13	3	91
162797	2026-03-18T05:35:13	2.9	91
162798	2026-03-18T05:45:13	2.9	91
162799	2026-03-18T05:55:13	2.8	91
162800	2026-03-18T06:05:13	2.9	91
162801	2026-03-18T06:15:13	2.9	90
162802	2026-03-18T06:25:12	3	89
162803	2026-03-18T06:35:12	3.2	88.5
162804	2026-03-18T06:45:12	3.3	88.5
162805	2026-03-18T06:55:12	3.4	89
162806	2026-03-18T07:05:12	3.6	88
162807	2026-03-18T07:15:12	3.8	86.5
162808	2026-03-18T07:25:12	4.1	86.5
162809	2026-03-18T07:35:12	4.2	84.5
162810	2026-03-18T07:45:12	4.7	83
162811	2026-03-18T07:55:12	4.9	80.5
162812	2026-03-18T08:05:12	5	79.5
162813	2026-03-18T08:15:12	5.3	77.5
162814	2026-03-18T08:25:12	5.6	76.5
162815	2026-03-18T08:35:12	5.9	76
162816	2026-03-18T08:45:12	6.1	75.5
162817	2026-03-18T08:55:12	6.5	73.5
162818	2026-03-18T09:05:12	6.8	73.5
162819	2026-03-18T09:15:12	6.9	73
162820	2026-03-18T09:25:12	7.3	71.5
162821	2026-03-18T09:35:12	7.6	70
162822	2026-03-18T09:45:12	7.8	71
162823	2026-03-18T09:55:12	8.1	70.5
162824	2026-03-18T10:05:12	8.4	69.5
162825	2026-03-18T10:15:12	8.6	70
162826	2026-03-18T10:25:12	8.8	69.5
162827	2026-03-18T10:35:12	9.1	69.5
162828	2026-03-18T10:45:12	9.3	68
162829	2026-03-18T10:55:12	9.5	68
162830	2026-03-18T11:05:12	9.9	67.5
162831	2026-03-18T11:15:12	10.1	67
162832	2026-03-18T11:25:12	10.5	66
162833	2026-03-18T11:35:12	10.7	65
162834	2026-03-18T11:45:12	11.1	63.5
162835	2026-03-18T11:55:12	11.5	62.5
162836	2026-03-18T12:05:12	12	61
162837	2026-03-18T12:15:12	12.5	61.5
162838	2026-03-18T12:25:12	14.2	55
162839	2026-03-18T12:35:12	15.9	51.5
162840	2026-03-18T12:45:12	17.1	48.5
162841	2026-03-18T12:55:12	17.9	46.5
162842	2026-03-18T13:05:12	18.9	45
162843	2026-03-18T13:15:12	19.1	43
162844	2026-03-18T13:25:12	19.9	43.5
162845	2026-03-18T13:35:12	20.6	41.5
162846	2026-03-18T13:45:12	21.1	41
162847	2026-03-18T13:55:12	21.8	38
162848	2026-03-18T14:05:12	21.6	39
162849	2026-03-18T14:15:12	22.8	38
162850	2026-03-18T14:25:12	23.1	38
162851	2026-03-18T14:35:12	22.8	36
162852	2026-03-18T14:45:12	23	37
162853	2026-03-18T14:55:12	23.3	38.5
162854	2026-03-18T15:05:12	23.7	37.5
162855	2026-03-18T15:15:12	23.6	36.5
162856	2026-03-18T15:25:12	23.2	36.5
162857	2026-03-18T15:35:12	23.6	38
162858	2026-03-18T15:45:12	23.4	37
162859	2026-03-18T15:55:12	23	37
162860	2026-03-18T16:05:12	22.3	37
162861	2026-03-18T16:15:12	21.7	40
162862	2026-03-18T16:25:12	21.2	39.5
162863	2026-03-18T16:35:12	20.5	40
162864	2026-03-18T16:45:12	19.9	44
162865	2026-03-18T16:55:12	18.9	43.5
162866	2026-03-18T17:05:12	18.2	46
162867	2026-03-18T17:15:12	17.5	48
162868	2026-03-18T17:25:12	16.3	50
162869	2026-03-18T17:35:12	15.6	52
162870	2026-03-18T17:45:12	14.9	54
162871	2026-03-18T17:55:12	14.5	56
162872	2026-03-18T18:05:12	13.9	58.5
162873	2026-03-18T18:15:12	13.5	59
162874	2026-03-18T18:25:12	13.4	62.5
162875	2026-03-18T18:35:12	12.9	63.5
162876	2026-03-18T18:45:12	12.5	64
162877	2026-03-18T18:55:12	12.3	65
162878	2026-03-18T19:05:12	11.9	66.5
162879	2026-03-18T19:15:12	11.7	67
162880	2026-03-18T19:25:12	11.4	66.5
162881	2026-03-18T19:35:12	11.2	68.5
162882	2026-03-18T19:45:12	10.9	69
162883	2026-03-18T19:55:12	10.7	69.5
162884	2026-03-18T20:05:12	10.5	70.5
162885	2026-03-18T20:15:12	10.4	70.5
162886	2026-03-18T20:25:12	10.1	70.5
162887	2026-03-18T20:35:12	10	72
162888	2026-03-18T20:45:12	9.8	72
162889	2026-03-18T20:55:12	9.6	71.5
162890	2026-03-18T21:05:12	9.7	70.5
162891	2026-03-18T21:15:12	9.4	71.5
162892	2026-03-18T21:25:11	9.3	73.5
162893	2026-03-18T21:35:11	9.1	74
162894	2026-03-18T21:45:11	8.9	74.5
162895	2026-03-18T21:55:11	8.6	75.5
162896	2026-03-18T22:05:11	8.4	76
162897	2026-03-18T22:15:11	8.3	76
162898	2026-03-18T22:25:11	8.2	76.5
162899	2026-03-18T22:35:11	8.1	76.5
162900	2026-03-18T22:45:11	7.9	76
162901	2026-03-18T22:55:11	7.9	76
162902	2026-03-18T23:05:11	7.7	77
162903	2026-03-18T23:15:11	7.6	78
162904	2026-03-18T23:25:11	7.5	79
162905	2026-03-18T23:35:11	7.3	80
162906	2026-03-18T23:45:11	7.2	80
162907	2026-03-18T23:55:11	7.1	80
162908	2026-03-19T00:05:11	7.2	79.5
162909	2026-03-19T00:15:11	7.1	80
162910	2026-03-19T00:25:11	7.1	80.5
162911	2026-03-19T00:35:11	6.8	80.5
162912	2026-03-19T00:45:11	6.7	81.5
162913	2026-03-19T00:55:11	6.7	83
162914	2026-03-19T01:05:11	6.6	82
162915	2026-03-19T01:15:11	6.6	82.5
162916	2026-03-19T01:25:11	6.2	83
162917	2026-03-19T01:35:11	6.2	83.5
162918	2026-03-19T01:45:11	6.1	83.5
162919	2026-03-19T01:55:11	6	84
162920	2026-03-19T02:05:11	5.9	85.5
162921	2026-03-19T02:15:11	5.8	85
162922	2026-03-19T02:25:11	5.6	85.5
162923	2026-03-19T02:35:11	5.5	85.5
162924	2026-03-19T02:45:11	5.4	86
162925	2026-03-19T02:55:11	5.3	86
162926	2026-03-19T03:05:11	5.4	86.5
162927	2026-03-19T03:15:11	5.7	84
162928	2026-03-19T03:25:11	5.5	84
162929	2026-03-19T03:35:11	5.3	84.5
162930	2026-03-19T03:45:11	5.2	85
162931	2026-03-19T03:55:11	5	85.5
162932	2026-03-19T04:05:11	4.8	86
162933	2026-03-19T04:15:29	4.5	87.5
162934	2026-03-19T04:25:11	4.3	87.5
162935	2026-03-19T04:35:11	4.4	88.5
162936	2026-03-19T04:45:11	4.3	88
162937	2026-03-19T04:55:11	4.2	88.5
162938	2026-03-19T05:05:11	4.1	88.5
162939	2026-03-19T05:15:11	4	89
162940	2026-03-19T05:25:11	3.8	89
162941	2026-03-19T05:35:11	3.8	89.5
162942	2026-03-19T05:45:11	3.6	90
162943	2026-03-19T05:55:11	3.4	90
162944	2026-03-19T06:05:11	3.5	90.5
162945	2026-03-19T06:15:11	3.6	90
162946	2026-03-19T06:25:11	3.7	90
162947	2026-03-19T06:35:11	3.9	90
162948	2026-03-19T06:45:11	4.2	89
162949	2026-03-19T06:55:11	4.4	88.5
162950	2026-03-19T07:05:11	4.6	88
162951	2026-03-19T07:15:11	4.8	87.5
162952	2026-03-19T07:25:11	5.2	86.5
162953	2026-03-19T07:35:11	5.4	86
162954	2026-03-19T07:45:11	5.7	84
162955	2026-03-19T07:55:11	6	83
162956	2026-03-19T08:05:11	6.2	82.5
162957	2026-03-19T08:15:11	6.6	81.5
162958	2026-03-19T08:25:11	6.7	80.5
162959	2026-03-19T08:35:11	7.1	80
162960	2026-03-19T08:45:11	7.3	80
162961	2026-03-19T08:55:11	7.6	78.5
162962	2026-03-19T09:05:11	7.9	77.5
162963	2026-03-19T09:15:11	8.2	77.5
162964	2026-03-19T09:25:11	8.6	72.5
162965	2026-03-19T09:35:11	9	72
162966	2026-03-19T09:45:11	9.1	70.5
162967	2026-03-19T09:55:11	9.6	70
162968	2026-03-19T10:05:11	9.9	67.5
162969	2026-03-19T10:15:11	10	68.5
162970	2026-03-19T10:25:11	10.5	65.5
162971	2026-03-19T10:35:11	10.8	65
162972	2026-03-19T10:45:11	11	63.5
162973	2026-03-19T10:55:11	11.6	61.5
162974	2026-03-19T11:05:11	11.7	60
162975	2026-03-19T11:15:11	11.9	60
162976	2026-03-19T11:25:11	12.5	60.5
162977	2026-03-19T11:35:11	12.6	61.5
162978	2026-03-19T11:45:11	13.1	60
162979	2026-03-19T11:55:11	13.4	58
162980	2026-03-19T12:05:11	13.9	58.5
162981	2026-03-19T12:15:11	14.4	55
162982	2026-03-19T12:25:11	16.4	52
162983	2026-03-19T12:35:11	18.4	47.5
162984	2026-03-19T12:45:11	19.5	44.5
162985	2026-03-19T12:55:11	21.1	40.5
162986	2026-03-19T13:05:11	21.4	40
162987	2026-03-19T13:15:11	22.5	38.5
162988	2026-03-19T13:25:11	23.1	35
162989	2026-03-19T13:35:11	23.2	31.5
162990	2026-03-19T13:45:11	23.8	32.5
162991	2026-03-19T13:55:11	24	32
162992	2026-03-19T14:05:11	24.2	28.5
162993	2026-03-19T14:15:11	24.9	27.5
162994	2026-03-19T14:25:11	24.7	26
162995	2026-03-19T14:35:11	25.7	25.5
162996	2026-03-19T14:45:11	26.5	25
162997	2026-03-19T14:55:11	26.8	25
162998	2026-03-19T15:05:11	26.6	26
162999	2026-03-19T15:15:11	26	26.5
163000	2026-03-19T15:25:11	26.4	26
163001	2026-03-19T15:35:11	26.6	25.5
163002	2026-03-19T15:45:11	26.3	24.5
163003	2026-03-19T15:55:10	26.6	25.5
163004	2026-03-19T16:05:10	25.7	27
163005	2026-03-19T16:15:10	25.9	26.5
163006	2026-03-19T16:25:10	25.6	26.5
163007	2026-03-19T16:35:10	24.7	29
163008	2026-03-19T16:45:10	23.7	29.5
163009	2026-03-19T16:55:10	22.6	29.5
163010	2026-03-19T17:05:10	21.7	34
163011	2026-03-19T17:15:10	20.4	35
163012	2026-03-19T17:25:10	19.2	35.5
163013	2026-03-19T17:35:10	18.1	38.5
163014	2026-03-19T17:45:10	17.2	42
163015	2026-03-19T17:55:10	16.5	43.5
163016	2026-03-19T18:05:10	15.9	46
163017	2026-03-19T18:15:10	15.3	48
163018	2026-03-19T18:25:10	14.7	49.5
163019	2026-03-19T18:35:10	14.3	48.5
163020	2026-03-19T18:45:10	14	50
163021	2026-03-19T18:55:10	13.7	51
163022	2026-03-19T19:05:10	13.2	52.5
163023	2026-03-19T19:15:10	12.9	53.5
163024	2026-03-19T19:25:10	12.5	54.5
163025	2026-03-19T19:35:10	12.2	54.5
163026	2026-03-19T19:45:10	11.6	56.5
163027	2026-03-19T19:55:10	11.2	56.5
163028	2026-03-19T20:05:10	11	59.5
163029	2026-03-19T20:15:10	10.9	60.5
163030	2026-03-19T20:25:10	10.6	60.5
163031	2026-03-19T20:35:10	10.4	62.5
163032	2026-03-19T20:45:10	10	64
163033	2026-03-19T20:55:10	9.7	62.5
163034	2026-03-19T21:05:10	9.5	63
163035	2026-03-19T21:15:10	9.3	64.5
163036	2026-03-19T21:25:10	9	65.5
163037	2026-03-19T21:35:10	8.8	65.5
163038	2026-03-19T21:45:10	8.6	66
163039	2026-03-19T21:55:10	8.3	66
163040	2026-03-19T22:05:10	8	66
163041	2026-03-19T22:15:10	7.6	67
163042	2026-03-19T22:25:10	7.3	68
163043	2026-03-19T22:35:10	7	69
163044	2026-03-19T22:45:10	6.8	69
163045	2026-03-19T22:55:10	6.7	70.5
163046	2026-03-19T23:05:10	6.9	70
163047	2026-03-19T23:15:10	6.6	70.5
163048	2026-03-19T23:25:10	6.6	71
163049	2026-03-19T23:35:10	6.1	71.5
163050	2026-03-19T23:45:10	5.9	72.5
163051	2026-03-19T23:55:10	5.9	73
163052	2026-03-20T00:05:10	5.9	73.5
163053	2026-03-20T00:15:10	5.7	72.5
163054	2026-03-20T00:25:10	5.5	73.5
163055	2026-03-20T00:35:10	5.1	74
163056	2026-03-20T00:45:10	4.9	74.5
163057	2026-03-20T00:55:10	5	74
163058	2026-03-20T01:05:10	4.8	76
163059	2026-03-20T01:15:10	4.7	76
163060	2026-03-20T01:25:10	4.7	76
163061	2026-03-20T01:35:10	4.4	76
163062	2026-03-20T01:45:10	4.3	76.5
163063	2026-03-20T01:55:10	4.3	77
163064	2026-03-20T02:05:10	4.1	77
163065	2026-03-20T02:15:10	4	78
163066	2026-03-20T02:25:10	4.1	78.5
163067	2026-03-20T02:35:20	3.8	78
163068	2026-03-20T02:45:10	3.7	78.5
163069	2026-03-20T02:55:10	3.7	78.5
163070	2026-03-20T03:05:10	3.5	79.5
163071	2026-03-20T03:15:10	3.6	79
163072	2026-03-20T03:25:10	3.5	79.5
163073	2026-03-20T03:35:10	3.5	80
163074	2026-03-20T03:45:10	3.3	79.5
163075	2026-03-20T03:55:29	3.1	81
163076	2026-03-20T04:05:10	3.1	81.5
163077	2026-03-20T04:15:10	2.9	80
163078	2026-03-20T04:25:10	2.8	81
163079	2026-03-20T04:35:10	2.8	81.5
163080	2026-03-20T04:45:10	2.7	81.5
163081	2026-03-20T04:55:10	2.8	81.5
163082	2026-03-20T05:05:10	2.5	83
163083	2026-03-20T05:15:10	2.3	83.5
163084	2026-03-20T05:25:10	2.1	83.5
163085	2026-03-20T05:35:10	2.1	84.5
163086	2026-03-20T05:45:10	2.1	85
163087	2026-03-20T05:55:10	2.1	83.5
163088	2026-03-20T06:05:10	2.2	84.5
163089	2026-03-20T06:15:10	2.2	84.5
163090	2026-03-20T06:25:10	2.4	85
163091	2026-03-20T06:35:10	2.6	84.5
163092	2026-03-20T06:45:10	2.6	84.5
163093	2026-03-20T06:55:10	2.8	85
163094	2026-03-20T07:05:10	3.1	83
163095	2026-03-20T07:15:10	3.4	83.5
163096	2026-03-20T07:25:10	3.7	82.5
163097	2026-03-20T07:35:10	4	82
163098	2026-03-20T07:45:10	4.2	81.5
163099	2026-03-20T07:55:10	4.7	79.5
163100	2026-03-20T08:05:10	5.2	78
163101	2026-03-20T08:15:10	5.8	75
163102	2026-03-20T08:25:10	6.2	75
163103	2026-03-20T08:35:10	6.4	74.5
163104	2026-03-20T08:45:10	6.9	74
163105	2026-03-20T08:55:10	7.1	73
163106	2026-03-20T09:05:10	7.7	72
163107	2026-03-20T09:15:10	7.9	71
163108	2026-03-20T09:25:10	8.3	70
163109	2026-03-20T09:35:10	8.7	69
163110	2026-03-20T09:45:10	8.8	69.5
163111	2026-03-20T09:55:10	9.2	68.5
163112	2026-03-20T10:05:10	9.5	67.5
163113	2026-03-20T10:15:10	9.7	66.5
163114	2026-03-20T10:25:10	10	66.5
163115	2026-03-20T10:35:10	10.2	67.5
163116	2026-03-20T10:45:10	10.9	65
163117	2026-03-20T10:55:10	11	64
163118	2026-03-20T11:05:10	11.5	60.5
163119	2026-03-20T11:15:10	11.9	58
163120	2026-03-20T11:25:10	12.2	57
163121	2026-03-20T11:35:09	12.3	57.5
163122	2026-03-20T11:45:10	12.8	56.5
163123	2026-03-20T11:55:09	13.2	56.5
163124	2026-03-20T12:05:09	13.6	52
163125	2026-03-20T12:15:09	14.3	50
163126	2026-03-20T12:25:09	16.3	48.5
163127	2026-03-20T12:35:09	18.3	41
163128	2026-03-20T12:45:09	20.3	38.5
163129	2026-03-20T12:55:09	21.4	38
163130	2026-03-20T13:05:09	22.6	35
163131	2026-03-20T13:15:09	23.2	34
163132	2026-03-20T13:25:09	23.9	32.5
163133	2026-03-20T13:35:09	24.3	30
163134	2026-03-20T13:45:09	25.2	29.5
163135	2026-03-20T13:55:09	25.7	31
163136	2026-03-20T14:05:09	26.5	29.5
163137	2026-03-20T14:15:09	26.9	25.5
163138	2026-03-20T14:25:09	27.8	25.5
163139	2026-03-20T14:35:09	28.2	24.5
163140	2026-03-20T14:45:09	28.7	24
163141	2026-03-20T14:55:09	29.2	25
163142	2026-03-20T15:05:09	28.9	23.5
163143	2026-03-20T15:15:09	29.2	24
163144	2026-03-20T15:25:09	28.7	23.5
163145	2026-03-20T15:35:09	28.8	24.5
163146	2026-03-20T15:45:09	29.2	25.5
163147	2026-03-20T15:55:09	28.4	25.5
163148	2026-03-20T16:15:09	27.2	28
163149	2026-03-20T16:25:09	26.8	27
163150	2026-03-20T16:35:09	26.5	29
163151	2026-03-20T16:45:09	25	28
163152	2026-03-20T16:55:09	23.9	29
163153	2026-03-20T17:05:09	22.7	29
163154	2026-03-20T17:15:09	21.6	31
163155	2026-03-20T17:25:09	20.7	35
163156	2026-03-20T17:35:09	19.6	37
163157	2026-03-20T17:45:09	18.6	39.5
163158	2026-03-20T17:55:09	17.7	41.5
163159	2026-03-20T18:05:09	17	46
163160	2026-03-20T18:15:09	16.4	47
163161	2026-03-20T18:25:09	15.9	50
163162	2026-03-20T18:35:09	15.4	51
163163	2026-03-20T18:45:09	14.8	50
163164	2026-03-20T18:55:09	14.5	52
163165	2026-03-20T19:05:09	14	52
163166	2026-03-20T19:15:09	13.6	52.5
163167	2026-03-20T19:25:09	13.4	53
163168	2026-03-20T19:35:26	13	53.5
163169	2026-03-20T19:45:09	12.8	54
163170	2026-03-20T19:55:09	12.4	53.5
163171	2026-03-20T20:05:09	12.1	56
163172	2026-03-20T20:15:09	11.6	55
163173	2026-03-20T20:25:09	11.1	57.5
163174	2026-03-20T20:35:09	11	58.5
163175	2026-03-20T20:45:09	10.6	59
163176	2026-03-20T20:55:09	10.5	61
163177	2026-03-20T21:05:09	10.2	61
163178	2026-03-20T21:15:09	9.9	61
163179	2026-03-20T21:25:09	9.7	62
163180	2026-03-20T21:35:09	9.6	63
163181	2026-03-20T21:45:09	9.3	63.5
163182	2026-03-20T21:55:09	8.9	64.5
163183	2026-03-20T22:05:09	8.9	65
163184	2026-03-20T22:15:09	8.7	65.5
163185	2026-03-20T22:25:09	8.5	66
163186	2026-03-20T22:35:09	8.5	66
163187	2026-03-20T22:45:09	8.3	67
163188	2026-03-20T22:55:09	8	68
163189	2026-03-20T23:05:09	7.8	68.5
163190	2026-03-20T23:15:09	7.4	69
163191	2026-03-20T23:25:09	7.4	70
163192	2026-03-20T23:35:09	7.3	69.5
163193	2026-03-20T23:45:09	7.3	70
163194	2026-03-20T23:55:08	7.1	70
163195	2026-03-21T00:05:08	7.1	70.5
163196	2026-03-21T00:15:08	7.1	71
163197	2026-03-21T00:25:08	6.9	72.5
163198	2026-03-21T00:35:08	6.9	71
163199	2026-03-21T00:45:08	6.8	71
163200	2026-03-21T00:55:08	6.8	72
163201	2026-03-21T01:05:08	6.9	71.5
163202	2026-03-21T01:15:08	7	72
163203	2026-03-21T01:25:08	6.8	72
163204	2026-03-21T01:35:08	6.6	72
163205	2026-03-21T01:45:08	6.4	73.5
163206	2026-03-21T01:55:08	6.4	74.5
163207	2026-03-21T02:05:08	6.5	74
163208	2026-03-21T02:15:08	6.3	75
163209	2026-03-21T02:25:08	6.1	75.5
163210	2026-03-21T02:35:08	5.9	76.5
163211	2026-03-21T02:45:08	5.8	77
163212	2026-03-21T02:55:08	5.4	77.5
163213	2026-03-21T03:05:08	5.3	77.5
163214	2026-03-21T03:15:08	5.2	78
163215	2026-03-21T03:25:08	5.2	78.5
163216	2026-03-21T03:35:08	5.2	78.5
163217	2026-03-21T03:45:08	5.4	79
163218	2026-03-21T03:55:08	5.6	78.5
163219	2026-03-21T04:05:27	5.6	78
163220	2026-03-21T04:15:08	5.4	78.5
163221	2026-03-21T04:25:08	5.4	78.5
163222	2026-03-21T04:35:08	5.2	78.5
163223	2026-03-21T04:45:08	5.1	79
163224	2026-03-21T04:55:08	5.3	79.5
163225	2026-03-21T05:05:08	5.2	79.5
163226	2026-03-21T05:15:08	5.1	79
163227	2026-03-21T05:25:08	4.9	80
163228	2026-03-21T05:35:08	4.8	80
163229	2026-03-21T05:45:08	4.7	80
163230	2026-03-21T05:55:08	4.6	80.5
163231	2026-03-21T06:05:08	4.7	80
163232	2026-03-21T06:15:08	4.8	80
163233	2026-03-21T06:25:08	4.9	80
163234	2026-03-21T06:35:08	5	80
163235	2026-03-21T06:45:08	5.1	79.5
163236	2026-03-21T06:55:08	5.3	79.5
163237	2026-03-21T07:05:08	5.6	78.5
163238	2026-03-21T07:15:08	6.1	77.5
163239	2026-03-21T07:25:08	6.7	76
163240	2026-03-21T07:35:08	7.1	77
163241	2026-03-21T07:45:08	7.6	77.5
163242	2026-03-21T07:55:08	8.2	77.5
163243	2026-03-21T08:05:08	8.4	76
163244	2026-03-21T08:15:08	8.3	77
163245	2026-03-21T08:25:08	8.3	77.5
163246	2026-03-21T08:35:08	8.6	76
163247	2026-03-21T08:45:08	9	75
163248	2026-03-21T08:55:08	9.4	75
163249	2026-03-21T09:05:08	9.5	74.5
163250	2026-03-21T09:15:08	9.8	74
163251	2026-03-21T09:25:08	10.2	72
163252	2026-03-21T09:35:08	10.5	72.5
163253	2026-03-21T09:45:08	10.6	72
163254	2026-03-21T09:55:08	10.8	71
163255	2026-03-21T10:05:08	11	71.5
163256	2026-03-21T10:15:08	11.1	71.5
163257	2026-03-21T10:25:08	11.3	70
163258	2026-03-21T10:35:08	11.6	71
163259	2026-03-21T10:45:08	11.9	68
163260	2026-03-21T10:55:08	12.4	68
163261	2026-03-21T11:05:08	12.6	67
163262	2026-03-21T11:15:08	12.9	63.5
163263	2026-03-21T11:25:08	13.2	62.5
163264	2026-03-21T11:35:08	13.4	61.5
163265	2026-03-21T11:45:08	13.8	60
163266	2026-03-21T11:55:08	14.2	59
163267	2026-03-21T12:05:08	14.7	55.5
163268	2026-03-21T12:15:08	15.1	55.5
163269	2026-03-21T12:25:08	16.9	51.5
163270	2026-03-21T12:35:08	18.9	47.5
163271	2026-03-21T12:45:08	20.2	43
163272	2026-03-21T12:55:08	20.7	42.5
163273	2026-03-21T13:05:08	22.4	39
163274	2026-03-21T13:15:08	23.2	36.5
163275	2026-03-21T13:25:08	24	34
163276	2026-03-21T13:35:08	24.6	35
163277	2026-03-21T13:45:08	25.7	32.5
163278	2026-03-21T13:55:25	25.3	32.5
163279	2026-03-21T14:05:08	24.2	37
163280	2026-03-21T14:15:08	22.3	39.5
163281	2026-03-21T14:25:08	21.2	40.5
163282	2026-03-21T14:35:08	20.9	43
163283	2026-03-21T14:45:08	20.8	41.5
163284	2026-03-21T14:55:08	20.7	40.5
163285	2026-03-21T15:05:08	21.1	40.5
163286	2026-03-21T15:15:08	20.8	39
163287	2026-03-21T15:25:08	20.3	43
163288	2026-03-21T15:35:08	20.5	41.5
163289	2026-03-21T15:45:08	20.2	41.5
163290	2026-03-21T15:55:08	20	44
163291	2026-03-21T16:05:08	19.4	43.5
163292	2026-03-21T16:15:07	18.8	45.5
163293	2026-03-21T16:25:07	17.9	45
163294	2026-03-21T16:35:08	17.3	47
163295	2026-03-21T16:45:07	16.9	49.5
163296	2026-03-21T16:55:07	16.4	50
163297	2026-03-21T17:05:07	16.1	51.5
163298	2026-03-21T17:15:07	15.5	52.5
163299	2026-03-21T17:25:07	15.1	53.5
163300	2026-03-21T17:35:07	14.5	60
163301	2026-03-21T17:45:07	14.1	65.5
163302	2026-03-21T17:55:07	14.1	73.5
163303	2026-03-21T18:05:07	13.8	74
163304	2026-03-21T18:15:07	13.3	73
163305	2026-03-21T18:25:07	13.2	74.5
163306	2026-03-21T18:35:07	13.1	76.5
163307	2026-03-21T18:45:07	12.9	76.5
163308	2026-03-21T18:55:07	12.7	76
163309	2026-03-21T19:05:07	12.1	75.5
163310	2026-03-21T19:15:07	12.1	76.5
163311	2026-03-21T19:25:07	11.9	74.5
163312	2026-03-21T19:35:07	11.5	74.5
163313	2026-03-21T19:45:07	11.4	76.5
163314	2026-03-21T19:55:07	11.2	77
163315	2026-03-21T20:05:07	11	78.5
163316	2026-03-21T20:15:07	10.8	78.5
163317	2026-03-21T20:25:07	10.7	79
163318	2026-03-21T20:35:07	10.8	79
163319	2026-03-21T20:45:07	10.8	79
163320	2026-03-21T20:55:07	10.9	80
163321	2026-03-21T21:05:07	10.7	80.5
163322	2026-03-21T21:15:07	10.7	82.5
163323	2026-03-21T21:25:07	10.6	81.5
163324	2026-03-21T21:35:07	10.5	81.5
163325	2026-03-21T21:45:07	10.2	82
163326	2026-03-21T21:55:07	10.1	82.5
163327	2026-03-21T22:05:07	10	83
163328	2026-03-21T22:15:07	9.7	82
163329	2026-03-21T22:25:07	9.8	83.5
163330	2026-03-21T22:35:07	9.7	83
163331	2026-03-21T22:45:07	9.7	83.5
163332	2026-03-21T22:55:07	9.8	84
163333	2026-03-21T23:05:07	9.6	84
163334	2026-03-21T23:15:07	9.5	84.5
163335	2026-03-21T23:25:07	9.4	84.5
163336	2026-03-21T23:35:07	9	85
163337	2026-03-21T23:45:07	8.8	86.5
163338	2026-03-21T23:55:07	8.8	86.5
163339	2026-03-22T00:05:07	8.5	87
163340	2026-03-22T00:15:07	8.1	88
163341	2026-03-22T00:25:07	8	88.5
163342	2026-03-22T00:35:07	7.9	88.5
163343	2026-03-22T00:45:07	7.7	89.5
163344	2026-03-22T00:55:07	7.7	89.5
163345	2026-03-22T01:05:07	7.6	89.5
163346	2026-03-22T01:15:07	7.5	89
163347	2026-03-22T01:25:07	7.3	89
163348	2026-03-22T01:35:07	7.2	89.5
163349	2026-03-22T01:45:07	7.1	90
163350	2026-03-22T01:55:07	6.9	90.5
163351	2026-03-22T02:05:07	6.7	91
163352	2026-03-22T02:15:07	6.7	91.5
163353	2026-03-22T02:25:07	6.5	92
163354	2026-03-22T02:35:07	6.2	92
163355	2026-03-22T02:45:07	6.1	93
163356	2026-03-22T02:55:07	6	93.5
163357	2026-03-22T03:05:07	5.9	93.5
163358	2026-03-22T03:15:07	5.7	93.5
163359	2026-03-22T03:25:07	5.5	93.5
163360	2026-03-22T03:35:07	5.5	94.5
163361	2026-03-22T03:45:07	5.3	95
163362	2026-03-22T03:55:07	5.1	95
163363	2026-03-22T04:05:07	5	95
163364	2026-03-22T04:15:07	4.9	95
163365	2026-03-22T04:25:07	4.8	95
163366	2026-03-22T04:35:07	4.7	95.5
163367	2026-03-22T04:45:07	4.6	95
163368	2026-03-22T04:55:07	4.6	95
163369	2026-03-22T05:05:07	5	94
163370	2026-03-22T05:15:07	5.3	92.5
163371	2026-03-22T05:25:07	5.6	92
163372	2026-03-22T05:35:07	5.7	91.5
163373	2026-03-22T05:45:07	5.9	91.5
163374	2026-03-22T05:55:07	6.1	91
163375	2026-03-22T06:05:07	6.2	90
163376	2026-03-22T06:25:07	6.3	89
163377	2026-03-22T06:35:07	6.3	89.5
163378	2026-03-22T06:45:07	6.7	88.5
163379	2026-03-22T06:55:07	6.9	87
163380	2026-03-22T07:05:07	7	86
163381	2026-03-22T07:15:07	7.3	85
163382	2026-03-22T07:25:07	7.5	84.5
163383	2026-03-22T07:35:07	7.9	84
163384	2026-03-22T07:45:07	7.9	82
163385	2026-03-22T07:55:07	8.1	82
163386	2026-03-22T08:05:07	8.2	81
163387	2026-03-22T08:15:07	8.6	79
163388	2026-03-22T08:25:07	9	78.5
163389	2026-03-22T08:35:07	9.1	76.5
163390	2026-03-22T08:45:07	9.3	75
163391	2026-03-22T08:55:07	9.5	75
163392	2026-03-22T09:05:07	9.5	73.5
163393	2026-03-22T09:15:07	9.6	72.5
163394	2026-03-22T09:25:07	9.6	72.5
163395	2026-03-22T09:35:07	9.6	74
163396	2026-03-22T09:45:07	9.7	73
163397	2026-03-22T09:55:07	10.2	72.5
163398	2026-03-22T10:05:07	10.4	71
163399	2026-03-22T10:15:06	10.8	69.5
163400	2026-03-22T10:25:06	11.2	68.5
163401	2026-03-22T10:35:06	11.4	67
163402	2026-03-22T10:45:06	11.1	69.5
163403	2026-03-22T10:55:06	11	70.5
163404	2026-03-22T11:05:06	10.9	69.5
163405	2026-03-22T11:15:06	11	69.5
163406	2026-03-22T11:25:06	11.3	69
163407	2026-03-22T11:35:06	11.4	68
163408	2026-03-22T11:45:06	11.8	68
163409	2026-03-22T11:55:06	12.3	66.5
163410	2026-03-22T12:05:06	12.8	64.5
163411	2026-03-22T12:15:06	13.3	62.5
163412	2026-03-22T12:25:06	15.6	58.5
163413	2026-03-22T12:35:06	17.5	53
163414	2026-03-22T12:45:06	18.7	49
163415	2026-03-22T12:55:06	19.9	46
163416	2026-03-22T13:05:06	20.6	44.5
163417	2026-03-22T13:15:06	21.9	42
163418	2026-03-22T13:25:06	22.6	39.5
163419	2026-03-22T13:35:06	23.6	37.5
163420	2026-03-22T13:45:06	24	38
163421	2026-03-22T13:55:06	24.8	36.5
163422	2026-03-22T14:05:06	25	35
163423	2026-03-22T14:15:06	25.8	34.5
163424	2026-03-22T14:25:06	26.2	34.5
163425	2026-03-22T14:35:06	26.2	33.5
163426	2026-03-22T14:45:06	26.9	32
163427	2026-03-22T14:55:06	27.4	32
163428	2026-03-22T15:05:06	27.8	31
163429	2026-03-22T15:15:06	28	30
163430	2026-03-22T15:25:06	27.1	32
163431	2026-03-22T15:35:06	27.9	30.5
163432	2026-03-22T15:45:06	28.1	30.5
163433	2026-03-22T15:55:06	27.7	32.5
163434	2026-03-22T16:05:06	27.2	30.5
163435	2026-03-22T16:15:06	26.2	31.5
163436	2026-03-22T16:25:06	26	33
163437	2026-03-22T16:35:06	25.5	35
163438	2026-03-22T16:45:06	23.7	35
163439	2026-03-22T16:55:06	23	36
163440	2026-03-22T17:05:06	21.8	38
163441	2026-03-22T17:15:06	20.8	41
163442	2026-03-22T17:25:06	19.5	42
163443	2026-03-22T17:35:06	18.6	44
163444	2026-03-22T17:45:06	17.8	47.5
163445	2026-03-22T17:55:06	17	51.5
163446	2026-03-22T18:05:06	16.4	55
163447	2026-03-22T18:15:06	15.8	56.5
163448	2026-03-22T18:25:06	15.2	58.5
163449	2026-03-22T18:35:06	14.8	59
163450	2026-03-22T18:45:06	14.3	59.5
163451	2026-03-22T18:55:06	13.8	61.5
163452	2026-03-22T19:05:06	13.4	62.5
163453	2026-03-22T19:15:06	12.9	63.5
163454	2026-03-22T19:25:06	12.5	65
163455	2026-03-22T19:35:06	12.2	65.5
163456	2026-03-22T19:45:06	11.9	66
163457	2026-03-22T19:55:06	11.5	67.5
163458	2026-03-22T20:05:06	11.1	67
163459	2026-03-22T20:15:06	10.8	67.5
163460	2026-03-22T20:25:06	10.6	68
163461	2026-03-22T20:35:06	10.1	69
163462	2026-03-22T20:45:06	10	69.5
163463	2026-03-22T20:55:06	9.9	69.5
163464	2026-03-22T21:05:06	9.6	71.5
163465	2026-03-22T21:15:06	9.1	72.5
163466	2026-03-22T21:25:06	8.9	73
163467	2026-03-22T21:35:06	8.9	73.5
163468	2026-03-22T21:45:06	8.6	73
163469	2026-03-22T21:55:06	8	75.5
163470	2026-03-22T22:05:06	7.8	75
163471	2026-03-22T22:15:06	7.6	76.5
163472	2026-03-22T22:25:06	7.4	77
163473	2026-03-22T22:35:05	7.2	76
163474	2026-03-22T22:45:05	7.1	77.5
163475	2026-03-22T22:55:06	6.9	78
163476	2026-03-22T23:05:05	6.7	79
163477	2026-03-22T23:15:05	6.6	79
163478	2026-03-22T23:25:05	6.4	79.5
163479	2026-03-22T23:35:05	6.2	80
163480	2026-03-22T23:45:05	6.2	80
163481	2026-03-22T23:55:05	5.9	80.5
163482	2026-03-23T00:05:05	5.8	80
163483	2026-03-23T00:15:05	5.6	81
163484	2026-03-23T00:25:05	5.3	82
163485	2026-03-23T00:35:05	5.1	81.5
163486	2026-03-23T00:45:05	5	82
163487	2026-03-23T00:55:05	4.8	82.5
163488	2026-03-23T01:05:05	4.9	81.5
163489	2026-03-23T01:15:05	4.7	81.5
163490	2026-03-23T01:25:05	4.4	82.5
163491	2026-03-23T01:35:05	4.4	83
163492	2026-03-23T01:45:05	4.1	83.5
163493	2026-03-23T01:55:05	3.8	84
163494	2026-03-23T02:05:05	3.9	85
163495	2026-03-23T02:15:05	3.6	85
163496	2026-03-23T02:25:05	3.5	85
163497	2026-03-23T02:35:05	3.4	85
163498	2026-03-23T02:45:05	3.3	85.5
163499	2026-03-23T02:55:05	3.1	85.5
163500	2026-03-23T03:05:05	3	86
163501	2026-03-23T03:15:05	3	85.5
163502	2026-03-23T03:25:05	2.8	86
163503	2026-03-23T03:35:05	2.8	86
163504	2026-03-23T03:45:05	2.6	86
163505	2026-03-23T03:55:05	2.8	86.5
163506	2026-03-23T04:05:05	2.4	86
163507	2026-03-23T04:15:05	2.4	87
163508	2026-03-23T04:25:05	2.2	87
163509	2026-03-23T04:35:05	2.2	87
163510	2026-03-23T04:45:05	2	87.5
163511	2026-03-23T04:55:05	2.1	87.5
163512	2026-03-23T05:05:05	1.9	88.5
163513	2026-03-23T05:15:05	2.3	87
163514	2026-03-23T05:25:05	2.5	86.5
163515	2026-03-23T05:35:05	2.6	87
163516	2026-03-23T05:45:05	2.9	87.5
163517	2026-03-23T05:55:05	3	87.5
163518	2026-03-23T06:05:05	3.2	87
163519	2026-03-23T06:15:05	3.4	87
163520	2026-03-23T06:25:05	3.6	87
163521	2026-03-23T06:35:05	3.9	87.5
163522	2026-03-23T06:45:05	4.1	87.5
163523	2026-03-23T06:55:05	4.3	87
163524	2026-03-23T07:05:05	4.5	87
163525	2026-03-23T07:15:05	4.9	86.5
163526	2026-03-23T07:25:05	5.1	86
163527	2026-03-23T07:35:05	5.4	84.5
163528	2026-03-23T07:45:05	5.9	83
163529	2026-03-23T07:55:05	6.3	82
163530	2026-03-23T08:05:05	6.4	82
163531	2026-03-23T08:15:05	7	81
163532	2026-03-23T08:25:05	7.5	80
163533	2026-03-23T08:35:05	7.7	79
163534	2026-03-23T08:45:05	8.2	78
163535	2026-03-23T08:55:05	8.4	78.5
163536	2026-03-23T09:05:05	8.8	77.5
163537	2026-03-23T09:15:05	9.1	78
163538	2026-03-23T09:25:05	9.3	74
163539	2026-03-23T09:35:05	9.5	74.5
163540	2026-03-23T09:45:05	9.6	73.5
163541	2026-03-23T09:55:05	9.3	73.5
163542	2026-03-23T10:05:05	9.2	74
163543	2026-03-23T10:15:05	9.9	72.5
163544	2026-03-23T10:25:05	10	72.5
163545	2026-03-23T10:35:05	10.5	72.5
163546	2026-03-23T10:45:05	10.8	69.5
163547	2026-03-23T10:55:05	10.8	69
163548	2026-03-23T11:05:05	10.7	70
163549	2026-03-23T11:15:05	10.9	68
163550	2026-03-23T11:25:05	11.2	71
163551	2026-03-23T11:35:05	11.4	68.5
163552	2026-03-23T11:45:05	11.7	67
163553	2026-03-23T11:55:05	12.5	59
163554	2026-03-23T12:05:05	12.9	57
163555	2026-03-23T12:15:05	13.5	56.5
163556	2026-03-23T12:25:05	15.6	52.5
163557	2026-03-23T12:35:05	17.9	47
163558	2026-03-23T12:45:05	19.7	42.5
163559	2026-03-23T12:55:05	20.8	41.5
163560	2026-03-23T13:05:05	21.4	40
163561	2026-03-23T13:15:05	21.9	38
163562	2026-03-23T13:25:05	23	39
163563	2026-03-23T13:35:05	24.2	36
163564	2026-03-23T13:45:05	25.1	32.5
163565	2026-03-23T13:55:05	26.1	30.5
163566	2026-03-23T14:05:05	26.2	30
163567	2026-03-23T14:15:05	26.7	28.5
163568	2026-03-23T14:25:05	25.2	29.5
163569	2026-03-23T14:35:05	27.2	28.5
163570	2026-03-23T14:45:05	24.1	29
163571	2026-03-23T14:55:05	25.9	30
163572	2026-03-23T15:05:05	27.2	27.5
163573	2026-03-23T15:15:05	25.7	28.5
163574	2026-03-23T15:25:05	26	28.5
163575	2026-03-23T15:35:05	25	28
163576	2026-03-23T15:45:05	25.4	28.5
163577	2026-03-23T15:55:05	26.2	27
163578	2026-03-23T16:05:05	26.4	26.5
163579	2026-03-23T16:15:05	25.6	28
163580	2026-03-23T16:25:05	24.1	32.5
163581	2026-03-23T16:35:05	24.2	33
163582	2026-03-23T16:45:05	22.8	34
163583	2026-03-23T16:55:04	22.6	34.5
163584	2026-03-23T17:05:04	22.3	37
163585	2026-03-23T17:15:04	21.2	38
163586	2026-03-23T17:25:04	20	38.5
163587	2026-03-23T17:35:04	19	41
163588	2026-03-23T17:45:04	18	44
163589	2026-03-23T17:55:04	17.1	47.5
163590	2026-03-23T18:05:04	16.4	50
163591	2026-03-23T18:15:04	15.8	51.5
163592	2026-03-23T18:25:04	15.2	55
163593	2026-03-23T18:35:04	14.7	56.5
163594	2026-03-23T18:45:04	14.3	57
163595	2026-03-23T18:55:04	13.7	58
163596	2026-03-23T19:05:20	13.5	58.5
163597	2026-03-23T19:15:04	13.1	57
163598	2026-03-23T19:25:04	12.7	60.5
163599	2026-03-23T19:35:04	12.3	60.5
163600	2026-03-23T19:45:04	12.1	61
163601	2026-03-23T19:55:04	11.9	63.5
163602	2026-03-23T20:05:04	11.6	62.5
163603	2026-03-23T20:15:04	11.2	64
163604	2026-03-23T20:25:04	10.7	66
163605	2026-03-23T20:35:04	10.4	67
163606	2026-03-23T20:45:04	10.2	67
163607	2026-03-23T20:55:04	9.9	68
163608	2026-03-23T21:05:04	9.6	68
163609	2026-03-23T21:15:04	9.4	69
163610	2026-03-23T21:25:04	9.2	70.5
163611	2026-03-23T21:35:04	8.9	71.5
163612	2026-03-23T21:45:04	8.7	72
163613	2026-03-23T21:55:04	8.4	71.5
163614	2026-03-23T22:05:04	8.3	72
163615	2026-03-23T22:15:04	7.9	73.5
163616	2026-03-23T22:25:04	7.8	74.5
163617	2026-03-23T22:35:04	7.6	75
163618	2026-03-23T22:45:04	7.4	75
163619	2026-03-23T22:55:04	7.4	74.5
163620	2026-03-23T23:05:04	7.2	75
163621	2026-03-23T23:15:04	6.8	76.5
163622	2026-03-23T23:25:04	6.7	76.5
163623	2026-03-23T23:35:04	6.5	77.5
163624	2026-03-23T23:45:04	6.2	78.5
163625	2026-03-23T23:55:04	6.2	77.5
163626	2026-03-24T00:05:04	5.9	78
163627	2026-03-24T00:15:04	5.6	79
163628	2026-03-24T00:25:04	5.5	79
163629	2026-03-24T00:35:04	5.4	79.5
163630	2026-03-24T00:45:04	5.2	80
163631	2026-03-24T00:55:04	5.1	80.5
163632	2026-03-24T01:05:04	4.9	80
163633	2026-03-24T01:15:04	4.9	80.5
163634	2026-03-24T01:25:04	4.6	81
163635	2026-03-24T01:35:04	4.4	81
163636	2026-03-24T01:45:04	4.2	82
163637	2026-03-24T01:55:04	4.1	82
163638	2026-03-24T02:05:04	4	83
163639	2026-03-24T02:15:04	3.9	83
163640	2026-03-24T02:25:04	3.9	83.5
163641	2026-03-24T02:35:04	3.7	83.5
163642	2026-03-24T02:45:04	3.6	83.5
163643	2026-03-24T02:55:04	3.6	84
163644	2026-03-24T03:05:04	3.5	84
163645	2026-03-24T03:15:04	3.4	84.5
163646	2026-03-24T03:25:04	3.1	85
163647	2026-03-24T03:35:04	3.1	86
163648	2026-03-24T03:45:04	3.1	85.5
163649	2026-03-24T03:55:04	2.9	85.5
163650	2026-03-24T04:05:04	2.8	86
163651	2026-03-24T04:15:04	2.9	86
163652	2026-03-24T04:25:04	2.6	86.5
163653	2026-03-24T04:35:04	2.6	86
163654	2026-03-24T04:45:04	2.6	85.5
163655	2026-03-24T04:55:04	2.5	86.5
163656	2026-03-24T05:05:04	2.4	87
163657	2026-03-24T05:15:04	2.1	88
163658	2026-03-24T05:25:04	2	87.5
163659	2026-03-24T05:35:04	1.9	88
163660	2026-03-24T05:45:04	2	88
163661	2026-03-24T05:55:04	1.9	88
163662	2026-03-24T06:05:04	2	88.5
163663	2026-03-24T06:15:04	2.4	89.5
163664	2026-03-24T06:25:04	2.5	88.5
163665	2026-03-24T06:35:04	2.8	88.5
163666	2026-03-24T06:45:04	2.9	88.5
163667	2026-03-24T06:55:04	3.3	88
163668	2026-03-24T07:05:04	3.6	88
163669	2026-03-24T07:15:04	4.3	86
163670	2026-03-24T07:25:04	4.8	84.5
163671	2026-03-24T07:35:04	5.5	82
163672	2026-03-24T07:45:04	5.9	79.5
163673	2026-03-24T07:55:04	6.3	79.5
163674	2026-03-24T08:05:04	6.5	79
163675	2026-03-24T08:15:04	6.7	79
163676	2026-03-24T08:25:04	7	77.5
163677	2026-03-24T08:35:04	7.4	76.5
163678	2026-03-24T08:45:04	8.2	72
163679	2026-03-24T08:55:04	8.5	70
163680	2026-03-24T09:05:04	8.9	69
163681	2026-03-24T09:15:04	9.6	67
163682	2026-03-24T09:35:04	10.1	64
163683	2026-03-24T09:45:04	10.3	64
163684	2026-03-24T09:55:04	10.8	61
163685	2026-03-24T10:05:04	11.4	58.5
163686	2026-03-24T10:15:04	11.8	57
163687	2026-03-24T10:25:04	11.9	57.5
163688	2026-03-24T10:35:04	12.3	57.5
163689	2026-03-24T10:45:04	12.8	56
163690	2026-03-24T10:55:04	13	56.5
163691	2026-03-24T11:05:04	13.2	56
163692	2026-03-24T11:15:04	13.6	53
163693	2026-03-24T11:25:04	14.1	53.5
163694	2026-03-24T11:35:04	14.5	51
163695	2026-03-24T11:45:04	15.4	48.5
163696	2026-03-24T11:55:04	16.5	47
163697	2026-03-24T12:05:04	17	43.5
163698	2026-03-24T12:15:04	17.5	41.5
163699	2026-03-24T12:25:04	17.3	40
163700	2026-03-24T12:35:04	17.8	41.5
163701	2026-03-24T12:45:03	17.7	38.5
163702	2026-03-24T12:55:03	18.1	36
163703	2026-03-24T13:05:03	17.8	36.5
163704	2026-03-24T13:15:03	18.4	35.5
163705	2026-03-24T13:25:03	18.3	36
163706	2026-03-24T13:35:03	18	35
163707	2026-03-24T13:45:03	20.4	33
163708	2026-03-24T13:55:03	21.5	32.5
163709	2026-03-24T14:05:03	21.1	33
163710	2026-03-24T14:15:03	20.1	35
163711	2026-03-24T14:25:03	20.4	35.5
163712	2026-03-24T14:35:03	19.5	37
163713	2026-03-24T14:45:03	18.5	38.5
163714	2026-03-24T14:55:03	18.7	38.5
163715	2026-03-24T15:05:03	20.1	37
163716	2026-03-24T15:15:03	21	36
163717	2026-03-24T15:25:03	22	35.5
163718	2026-03-24T15:35:03	20.5	36.5
163719	2026-03-24T15:45:03	19.1	39.5
163720	2026-03-24T15:55:03	18.6	40.5
163721	2026-03-24T16:05:03	18	41.5
163722	2026-03-24T16:15:03	17.8	42
163723	2026-03-24T16:25:03	18	42
163724	2026-03-24T16:35:03	18.1	42
163725	2026-03-24T16:45:03	18.3	42
163726	2026-03-24T16:55:03	17.7	43.5
163727	2026-03-24T17:05:03	17.1	44
163728	2026-03-24T17:15:03	16.7	45.5
163729	2026-03-24T17:25:03	16.3	46.5
163730	2026-03-24T17:35:03	16	51
163731	2026-03-24T17:45:03	15.5	55.5
163732	2026-03-24T17:55:03	15.1	57
163733	2026-03-24T18:05:03	14.8	57.5
163734	2026-03-24T18:15:03	14.3	58.5
163735	2026-03-24T18:25:03	13.8	59.5
163736	2026-03-24T18:35:03	13.6	61.5
163737	2026-03-24T18:45:03	13.4	63
163738	2026-03-24T18:55:03	13.1	64.5
163739	2026-03-24T19:05:03	12.8	64.5
163740	2026-03-24T19:15:03	12.5	66
163741	2026-03-24T19:25:03	12.2	66
163742	2026-03-24T19:35:03	12	66
163743	2026-03-24T19:45:03	11.7	67.5
163744	2026-03-24T19:55:03	11.6	69
163745	2026-03-24T20:05:03	11.4	69.5
163746	2026-03-24T20:15:03	11.2	71
163747	2026-03-24T20:25:03	11.1	70
163748	2026-03-24T20:35:03	10.9	70
163749	2026-03-24T20:45:03	10.8	70.5
163750	2026-03-24T20:55:03	10.9	69.5
163751	2026-03-24T21:05:03	11	67
163752	2026-03-24T21:15:03	10.8	65.5
163753	2026-03-24T21:25:03	10.9	61.5
163754	2026-03-24T21:35:03	11.3	59
163755	2026-03-24T21:45:03	11.4	58.5
163756	2026-03-24T21:55:03	11.5	58.5
163757	2026-03-24T22:05:03	11.2	60
163758	2026-03-24T22:15:03	11.1	60.5
163759	2026-03-24T22:25:03	10.9	61
163760	2026-03-24T22:35:03	10.9	61.5
163761	2026-03-24T22:45:03	10.8	62
163762	2026-03-24T22:55:03	10.6	61.5
163763	2026-03-24T23:05:03	10.8	60.5
163764	2026-03-24T23:15:03	10.7	60.5
163765	2026-03-24T23:25:03	10.9	60
163766	2026-03-24T23:35:03	11.2	58.5
163767	2026-03-24T23:45:03	11.7	56.5
163768	2026-03-24T23:55:03	11.9	57
163769	2026-03-25T00:05:03	12	56.5
163770	2026-03-25T00:15:03	12.3	55.5
163771	2026-03-25T00:25:03	12.5	55
163772	2026-03-25T00:35:03	12.5	55.5
163773	2026-03-25T00:45:03	12.1	56
163774	2026-03-25T00:55:03	12.3	56
163775	2026-03-25T01:15:02	12.4	56
163776	2026-03-25T01:25:02	11.8	56.5
163777	2026-03-25T01:35:02	11.6	57.5
163778	2026-03-25T01:45:02	11.5	58
163779	2026-03-25T01:55:02	11.1	59
163780	2026-03-25T02:05:02	11	59.5
163781	2026-03-25T02:15:02	11	60
163782	2026-03-25T02:25:02	11	60
163783	2026-03-25T02:35:02	10.8	61
163784	2026-03-25T02:45:02	10.8	61.5
163785	2026-03-25T02:55:02	11	62
163786	2026-03-25T03:05:02	10.8	63
163787	2026-03-25T03:15:02	10.7	63
163788	2026-03-25T03:25:02	10.9	62.5
163789	2026-03-25T03:35:02	11.2	62
163790	2026-03-25T03:45:02	11.4	61.5
163791	2026-03-25T03:55:02	11.7	60.5
163792	2026-03-25T04:05:02	11.9	60
163793	2026-03-25T04:15:02	11.9	59.5
163794	2026-03-25T04:25:02	12.1	59
163795	2026-03-25T04:35:02	12	59
163796	2026-03-25T04:45:02	12.2	59
163797	2026-03-25T04:55:02	12.3	59
163798	2026-03-25T05:05:02	12.1	59
163799	2026-03-25T05:15:02	12	59.5
163800	2026-03-25T05:25:02	12.1	59.5
163801	2026-03-25T05:35:02	12	60
163802	2026-03-25T05:45:02	11.8	60.5
163803	2026-03-25T05:55:02	11.9	61
163804	2026-03-25T06:05:02	11.6	62
163805	2026-03-25T06:15:02	11.6	62.5
163806	2026-03-25T06:25:02	11.9	61.5
163807	2026-03-25T06:35:02	12.2	60
163808	2026-03-25T06:45:02	12.3	59
163809	2026-03-25T06:55:02	12.6	58.5
163810	2026-03-25T07:05:02	13.1	57.5
163811	2026-03-25T07:15:02	13.2	57.5
163812	2026-03-25T07:25:02	13	56.5
163813	2026-03-25T07:35:02	11.8	81
163814	2026-03-25T07:45:02	9.7	82.5
163815	2026-03-25T07:55:02	10.2	73
163816	2026-03-25T08:05:02	10.5	71.5
163817	2026-03-25T08:15:02	8.9	97
163818	2026-03-25T08:25:02	8.4	100
163819	2026-03-25T08:35:02	8.3	100
163820	2026-03-25T08:45:02	8.2	100
163821	2026-03-25T08:55:02	8.2	100
163822	2026-03-25T09:05:02	8	100
163823	2026-03-25T09:15:02	8.1	100
163824	2026-03-25T09:25:02	8	100
163825	2026-03-25T09:35:02	8	100
163826	2026-03-25T09:45:02	7.8	100
163827	2026-03-25T09:55:02	8	100
163828	2026-03-25T10:05:02	8	100
163829	2026-03-25T10:15:02	7.8	100
163830	2026-03-25T10:25:02	8	100
163831	2026-03-25T10:35:02	7.5	100
163832	2026-03-25T10:45:02	7.1	97.5
163833	2026-03-25T10:55:02	6.9	97
163834	2026-03-25T11:05:02	6.8	96.5
163835	2026-03-25T11:15:02	6.9	96.5
163836	2026-03-25T11:25:02	6.9	96.5
163837	2026-03-25T11:35:02	6.9	96.5
163838	2026-03-25T11:45:02	6.8	97
163839	2026-03-25T11:55:02	6.8	96.5
163840	2026-03-25T12:05:02	6.9	97
163841	2026-03-25T12:15:02	7.2	97
163842	2026-03-25T12:25:02	7.4	97
163843	2026-03-25T12:35:02	7.3	97
163844	2026-03-25T12:45:02	7.5	97
163845	2026-03-25T12:55:02	7.6	97
163846	2026-03-25T13:05:02	7.6	97
163847	2026-03-25T13:15:02	7.6	97
163848	2026-03-25T13:25:02	6.7	97
163849	2026-03-25T13:35:02	6.3	97
163850	2026-03-25T13:45:02	7	97.5
163851	2026-03-25T13:55:02	7.9	97.5
163852	2026-03-25T14:05:02	9.1	97.5
163853	2026-03-25T14:15:02	9.6	97.5
163854	2026-03-25T14:25:02	8.5	97.5
163855	2026-03-25T14:35:02	8.4	97.5
163856	2026-03-25T14:45:02	8.6	97.5
163857	2026-03-25T14:55:02	8.6	97.5
163858	2026-03-25T15:05:02	8.2	97.5
163859	2026-03-25T15:15:02	8.3	97.5
163860	2026-03-25T15:25:02	8	97.5
163861	2026-03-25T15:35:02	7.7	97.5
163862	2026-03-25T15:45:02	7.3	97.5
163863	2026-03-25T15:55:02	7.2	97.5
163864	2026-03-25T16:05:02	7	97.5
163865	2026-03-25T16:15:02	2.6	97.5
163866	2026-03-25T16:25:02	4.1	97.5
163867	2026-03-25T16:35:02	4.4	97.5
163868	2026-03-25T16:45:02	4.6	98
163869	2026-03-25T16:55:02	4.7	97.5
163870	2026-03-25T17:05:02	4.8	98
163871	2026-03-25T17:15:02	4.8	98
163872	2026-03-25T17:25:02	4.9	98
163873	2026-03-25T17:35:02	4.8	97.5
163874	2026-03-25T17:45:02	4.8	98
163875	2026-03-25T17:55:02	4.8	98
163876	2026-03-25T18:05:02	4.9	98
163877	2026-03-25T18:15:02	4.8	98
163878	2026-03-25T18:25:02	4.8	98
163879	2026-03-25T18:35:02	4.8	98
163880	2026-03-25T18:45:02	4.9	98
163881	2026-03-25T18:55:02	4.9	98
163882	2026-03-25T19:05:02	4.8	98
163883	2026-03-25T19:15:02	4.6	98
163884	2026-03-25T19:25:02	4.5	98
163885	2026-03-25T19:35:01	4.5	98
163886	2026-03-25T19:45:02	4.4	98
163887	2026-03-25T19:55:02	4.5	98
163888	2026-03-25T20:05:02	4.4	98
163889	2026-03-25T20:15:02	4.1	98
163890	2026-03-25T20:25:02	3.9	98
163891	2026-03-25T20:35:02	4.1	98
163892	2026-03-25T20:45:02	4	98
163893	2026-03-25T20:55:01	3.9	98
163894	2026-03-25T21:05:02	3.8	98
163895	2026-03-25T21:15:01	3.9	98
163896	2026-03-25T21:25:01	4	98
163897	2026-03-25T21:35:01	4	98
163898	2026-03-25T21:45:01	4.2	98
163899	2026-03-25T21:55:01	4.1	98
163900	2026-03-25T22:05:01	4.1	98
163901	2026-03-25T22:15:01	4	98
163902	2026-03-25T22:25:01	4.2	98
163903	2026-03-25T22:35:01	4.2	98
163904	2026-03-25T22:45:01	4.3	98
163905	2026-03-25T22:55:01	4.3	98
163906	2026-03-25T23:05:01	4.3	98
163907	2026-03-25T23:15:01	4.2	98
163908	2026-03-25T23:25:01	4.1	98
163909	2026-03-25T23:35:01	4.2	98
163910	2026-03-25T23:45:01	4.3	98
163911	2026-03-25T23:55:01	4.3	98
163912	2026-03-26T00:05:01	4.2	98
163913	2026-03-26T00:15:01	4.2	98
163914	2026-03-26T00:25:01	4.1	98
163915	2026-03-26T00:35:01	4.2	98
163916	2026-03-26T00:45:01	4.2	98
163917	2026-03-26T00:55:01	4.2	98
163918	2026-03-26T01:05:01	4.2	98
163919	2026-03-26T01:15:01	4.1	98
163920	2026-03-26T01:25:01	4	98
163921	2026-03-26T01:35:01	4	98
163922	2026-03-26T01:45:01	3.9	98
163923	2026-03-26T01:55:01	3.9	98
163924	2026-03-26T02:05:01	3.9	98
163925	2026-03-26T02:15:01	3.9	98
163926	2026-03-26T02:25:01	3.8	98
163927	2026-03-26T02:35:01	3.7	98
163928	2026-03-26T02:45:01	3.7	98
163929	2026-03-26T02:55:01	3.8	98
163930	2026-03-26T03:05:01	3.6	98
163931	2026-03-26T03:15:01	3.6	98
163932	2026-03-26T03:25:01	3.5	98
163933	2026-03-26T03:35:01	3.4	98
163934	2026-03-26T03:45:01	3.3	98
163935	2026-03-26T03:55:01	3.3	98
163936	2026-03-26T04:05:01	3.4	98
163937	2026-03-26T04:15:01	3.2	98
163938	2026-03-26T04:25:01	3.4	98
163939	2026-03-26T04:35:01	3.3	98
163940	2026-03-26T04:45:01	3.2	98
163941	2026-03-26T04:55:01	3.2	98
163942	2026-03-26T05:05:01	3.3	98
163943	2026-03-26T05:15:01	3.3	98
163944	2026-03-26T05:25:01	3.2	98
163945	2026-03-26T05:35:01	3.2	98
163946	2026-03-26T05:45:01	3.3	98
163947	2026-03-26T05:55:01	3.3	98
163948	2026-03-26T06:05:01	3.3	98
163949	2026-03-26T06:15:01	3.5	98
163950	2026-03-26T06:25:01	3.4	98
163951	2026-03-26T06:35:01	3.6	98
163952	2026-03-26T06:45:01	3.6	98
163953	2026-03-26T06:55:01	3.5	98
163954	2026-03-26T07:05:01	3.6	98
163955	2026-03-26T07:15:01	3.6	98
163956	2026-03-26T07:25:01	3.8	98
163957	2026-03-26T07:35:01	3.7	98
163958	2026-03-26T07:45:01	3.9	98
163959	2026-03-26T07:55:01	4.1	98
163960	2026-03-26T08:05:01	4.3	98.5
163961	2026-03-26T08:15:01	4.4	98
163962	2026-03-26T08:25:01	4.3	98
163963	2026-03-26T08:35:01	4.4	98
163964	2026-03-26T08:45:01	4.3	98.5
163965	2026-03-26T08:55:01	4.4	98
163966	2026-03-26T09:05:01	4.8	98
163967	2026-03-26T09:15:01	4.9	98
163968	2026-03-26T09:25:01	5.3	98.5
163969	2026-03-26T09:35:01	5	98
163970	2026-03-26T09:45:01	5.2	98.5
163971	2026-03-26T09:55:01	5	98
163972	2026-03-26T10:05:01	5.4	98.5
163973	2026-03-26T10:15:01	5.7	98.5
163974	2026-03-26T10:25:01	6	98.5
163975	2026-03-26T10:35:01	6.5	98.5
163976	2026-03-26T10:45:01	6.3	98.5
163977	2026-03-26T10:55:01	6.3	98.5
163978	2026-03-26T11:05:01	6.5	98.5
163979	2026-03-26T11:15:01	7.3	98.5
163980	2026-03-26T11:25:01	7.6	98.5
163981	2026-03-26T11:35:01	7.4	98.5
163982	2026-03-26T11:45:01	7.8	98.5
163983	2026-03-26T11:55:01	8.4	98.5
163984	2026-03-26T12:05:01	8.9	98.5
163985	2026-03-26T12:15:01	8.7	98.5
163986	2026-03-26T12:25:01	10.1	98.5
163987	2026-03-26T12:35:01	9.4	98.5
163988	2026-03-26T12:45:01	12.5	98.5
163989	2026-03-26T12:55:01	14.7	100
163990	2026-03-26T13:05:01	14.7	100
163991	2026-03-26T13:15:01	10.7	97.5
163992	2026-03-26T13:25:01	13.6	100
163993	2026-03-26T13:35:01	14.6	100
163994	2026-03-26T13:45:01	15.1	99
163995	2026-03-26T13:55:01	12.8	66.5
163996	2026-03-26T14:05:01	15.5	41.5
163997	2026-03-26T14:15:01	13.4	40.5
163998	2026-03-26T14:25:01	13.5	40
163999	2026-03-26T14:35:01	11.8	42.5
164000	2026-03-26T14:45:01	11.9	54.5
164001	2026-03-26T14:55:01	12.1	54.5
164002	2026-03-26T15:05:01	15.7	46.5
164003	2026-03-26T15:15:01	14.8	42.5
164004	2026-03-26T15:25:01	11.1	53.5
164005	2026-03-26T15:35:01	9.8	60
164006	2026-03-26T15:45:01	8.8	93
164007	2026-03-26T15:55:01	12.2	85.5
164008	2026-03-26T16:05:01	14.4	65
164009	2026-03-26T16:15:01	14.6	59
164010	2026-03-26T16:25:01	16.2	57
164011	2026-03-26T16:35:01	15.3	57
164012	2026-03-26T16:45:01	15.6	55
164013	2026-03-26T16:55:01	14.7	49
164014	2026-03-26T17:05:01	13.4	53
164015	2026-03-26T17:15:01	12	54.5
164016	2026-03-26T17:25:01	11.2	70
164017	2026-03-26T17:35:01	10.6	65.5
164018	2026-03-26T17:45:01	9.5	58
164019	2026-03-26T17:55:01	8.5	58.5
164020	2026-03-26T18:05:01	8.3	59.5
164021	2026-03-26T18:15:01	7.9	63.5
164022	2026-03-26T18:25:01	7.5	64.5
164023	2026-03-26T18:35:00	7.4	68.5
164024	2026-03-26T18:45:01	7.1	71.5
164025	2026-03-26T18:55:01	6.9	76.5
164026	2026-03-26T19:05:00	6.6	77.5
164027	2026-03-26T19:15:00	6.4	76.5
164028	2026-03-26T19:25:00	6.1	78
164029	2026-03-26T19:35:00	5.8	81
164030	2026-03-26T19:45:00	5.5	82.5
164031	2026-03-26T19:55:00	5.2	83.5
164032	2026-03-26T20:05:00	5.1	83
164033	2026-03-26T20:15:00	5	82
164034	2026-03-26T20:25:00	4.7	83.5
164035	2026-03-26T20:35:00	4.4	85
164036	2026-03-26T20:45:00	4.7	83
164037	2026-03-26T20:55:00	4.7	82.5
164038	2026-03-26T21:05:00	4.7	83.5
164039	2026-03-26T21:15:00	4.4	82.5
164040	2026-03-26T21:25:00	4.3	87
164041	2026-03-26T21:35:00	4.3	87
164042	2026-03-26T21:45:00	4.5	87
164043	2026-03-26T21:55:00	4.2	87
164044	2026-03-26T22:05:00	4.3	86
164045	2026-03-26T22:15:00	4.2	86.5
164046	2026-03-26T22:25:00	4.1	86.5
164047	2026-03-26T22:35:00	4	84.5
164048	2026-03-26T22:45:00	3.7	85.5
164049	2026-03-26T22:55:00	3.5	89
164050	2026-03-26T23:05:00	3.7	86
164051	2026-03-26T23:15:00	3.6	86
164052	2026-03-26T23:25:00	3.4	88
164053	2026-03-26T23:35:00	3.3	89.5
164054	2026-03-26T23:45:00	2.9	90.5
164055	2026-03-26T23:55:00	2.6	92
164056	2026-03-27T00:05:00	2.4	92
164057	2026-03-27T00:15:00	2.2	91.5
164058	2026-03-27T00:25:00	2.1	91.5
164059	2026-03-27T00:35:00	1.8	92
164060	2026-03-27T00:45:00	1.8	91.5
164061	2026-03-27T00:55:00	1.5	92
164062	2026-03-27T01:05:00	1.3	92.5
164063	2026-03-27T01:15:00	1	92.5
164064	2026-03-27T01:25:00	1.1	93.5
164065	2026-03-27T01:35:00	1	94
164066	2026-03-27T01:45:00	0.7	94
164067	2026-03-27T01:55:00	0.6	94.5
164068	2026-03-27T02:05:00	0.4	94.5
164069	2026-03-27T02:15:00	0.4	94.5
164070	2026-03-27T02:25:00	0.3	95.5
164071	2026-03-27T02:35:00	0.1	95.5
164072	2026-03-27T02:45:00	0	95.5
164073	2026-03-27T02:55:00	0	96
164074	2026-03-27T03:05:00	0	96
164075	2026-03-27T03:15:00	0	96.5
164076	2026-03-27T03:25:00	0	96.5
164077	2026-03-27T03:35:00	-0.2	96.5
164078	2026-03-27T03:45:00	-0.1	97
164079	2026-03-27T03:55:00	-0.1	96
164080	2026-03-27T04:05:00	-0.3	96.5
164081	2026-03-27T04:15:00	-0.6	97
164082	2026-03-27T04:25:00	-0.8	97.5
164083	2026-03-27T04:35:00	-0.7	97.5
164084	2026-03-27T04:45:00	-1	97.5
164085	2026-03-27T04:55:00	-1	98
164086	2026-03-27T05:05:00	-1.1	98
164087	2026-03-27T05:15:00	-1	98.5
164088	2026-03-27T05:25:00	-1.1	98
164089	2026-03-27T05:35:00	-0.8	98
164090	2026-03-27T05:45:00	-0.6	97.5
164091	2026-03-27T05:55:00	-0.8	97.5
164092	2026-03-27T06:05:00	-0.8	98.5
164093	2026-03-27T06:15:01	-0.6	98
164094	2026-03-27T06:25:00	-0.5	98.5
164095	2026-03-27T06:35:00	-0.4	98.5
164096	2026-03-27T06:45:00	-0.3	98.5
164097	2026-03-27T06:55:00	0	98
164098	2026-03-27T07:05:00	0	98
164099	2026-03-27T07:15:00	0.2	97.5
164100	2026-03-27T07:25:00	0.6	96
164101	2026-03-27T07:35:00	0.8	94.5
164102	2026-03-27T07:45:00	1.2	94
164103	2026-03-27T07:55:00	2	90
164104	2026-03-27T08:05:00	1.9	89.5
164105	2026-03-27T08:15:00	1.8	90
164106	2026-03-27T08:25:00	1.8	92
164107	2026-03-27T08:35:00	2	88
164108	2026-03-27T08:45:00	2.4	88.5
164109	2026-03-27T08:55:00	3	87.5
164110	2026-03-27T09:05:00	3.6	82.5
164111	2026-03-27T09:15:00	4.2	77.5
164112	2026-03-27T09:25:00	4.6	74
164113	2026-03-27T09:35:00	4.5	74.5
164114	2026-03-27T09:45:00	4.6	72
164115	2026-03-27T09:55:00	5.1	70.5
164116	2026-03-27T10:05:00	6	68
164117	2026-03-27T10:15:00	6.1	68.5
164118	2026-03-27T10:25:00	6.3	67.5
164119	2026-03-27T10:35:00	6.8	64.5
164120	2026-03-27T10:45:00	6.7	66
164121	2026-03-27T10:55:00	7.6	59.5
164122	2026-03-27T11:05:00	8	59
164123	2026-03-27T11:15:00	8.2	60.5
164124	2026-03-27T11:25:00	8.3	60
164125	2026-03-27T11:35:00	8.6	57
164126	2026-03-27T11:45:00	7.3	59.5
164127	2026-03-27T11:55:00	7.9	60
164128	2026-03-27T12:05:00	9.1	57.5
164129	2026-03-27T12:15:00	8.6	56
164130	2026-03-27T12:25:00	10.3	53
164131	2026-03-27T12:35:00	12	47.5
164132	2026-03-27T12:45:00	14.5	47
164133	2026-03-27T12:55:00	16.5	39
164134	2026-03-27T13:05:00	17.1	35.5
164135	2026-03-27T13:15:00	15.3	37
164136	2026-03-27T13:25:00	16.5	38.5
164137	2026-03-27T13:35:00	18.9	34
164138	2026-03-27T13:45:00	20.3	34
164139	2026-03-27T13:55:00	21.3	33.5
164140	2026-03-27T14:05:00	21.4	30.5
164141	2026-03-27T14:15:00	17.9	36
164142	2026-03-27T14:25:00	18.2	35.5
164143	2026-03-27T14:35:00	17.7	32
164144	2026-03-27T14:45:00	16.6	35
164145	2026-03-27T14:55:00	15.6	36
164146	2026-03-27T15:05:00	19.4	32
164147	2026-03-27T15:15:00	19.9	28.5
164148	2026-03-27T15:25:00	20.2	26.5
164149	2026-03-27T15:35:00	21.7	29
164150	2026-03-27T15:45:00	21.9	27.5
164151	2026-03-27T15:55:00	21.7	31.5
164152	2026-03-27T16:05:00	20.6	30.5
164153	2026-03-27T16:15:00	20.2	29
164154	2026-03-27T16:25:00	19.3	28
164155	2026-03-27T16:35:00	19.4	29.5
164156	2026-03-27T16:45:00	19.3	29.5
164157	2026-03-27T16:55:00	17.9	30.5
164158	2026-03-27T17:05:00	16.9	33
164159	2026-03-27T17:15:00	16.1	30
164160	2026-03-27T17:25:00	15.1	36.5
164161	2026-03-27T17:35:00	14.2	37
164162	2026-03-27T17:45:00	13.3	37.5
164163	2026-03-27T17:55:00	12.7	44.5
164164	2026-03-27T18:05:00	11.9	49
164165	2026-03-27T18:15:00	11.3	48.5
164166	2026-03-27T18:25:00	10.6	50.5
164167	2026-03-27T18:35:00	10.1	52
164168	2026-03-27T18:45:00	9.6	53
164169	2026-03-27T18:55:00	9	56.5
164170	2026-03-27T19:05:00	8.6	56.5
164171	2026-03-27T19:14:59	8.2	58.5
164172	2026-03-27T19:25:00	7.8	61.5
164173	2026-03-27T19:35:00	7.4	62.5
164174	2026-03-27T19:44:59	7.1	62
164175	2026-03-27T19:54:59	6.4	64
164176	2026-03-27T20:05:00	6.2	64
164177	2026-03-27T20:14:59	6	65
164178	2026-03-27T20:24:59	5.8	65
164179	2026-03-27T20:34:59	5.3	67
164180	2026-03-27T20:44:59	5.3	66.5
164181	2026-03-27T20:54:59	4.9	68
164182	2026-03-27T21:04:59	4.7	69
164183	2026-03-27T21:14:59	4.5	70.5
164184	2026-03-27T21:24:59	4.3	71
164185	2026-03-27T21:34:59	4	72
164186	2026-03-27T21:44:59	3.8	72.5
164187	2026-03-27T21:54:59	3.5	73.5
164188	2026-03-27T22:04:59	3.4	75
164189	2026-03-27T22:14:59	3.2	74.5
164190	2026-03-27T22:24:59	3.1	74
164191	2026-03-27T22:34:59	2.8	75.5
164192	2026-03-27T22:44:59	2.5	76.5
164193	2026-03-27T22:54:59	2.4	78.5
164194	2026-03-27T23:04:59	2.2	78
164195	2026-03-27T23:14:59	2.1	79.5
164196	2026-03-27T23:24:59	1.9	78
164197	2026-03-27T23:34:59	1.8	79
164198	2026-03-27T23:44:59	1.7	79
164199	2026-03-27T23:54:59	1.5	79.5
164200	2026-03-28T00:04:59	1.3	81
164201	2026-03-28T00:14:59	1.2	81.5
164202	2026-03-28T00:24:59	1	81.5
164203	2026-03-28T00:34:59	1.1	80.5
164204	2026-03-28T00:44:59	0.8	82
164205	2026-03-28T00:54:59	0.8	83
164206	2026-03-28T01:04:59	0.6	83
164207	2026-03-28T01:14:59	0.5	83.5
164208	2026-03-28T01:24:59	0.4	84
164209	2026-03-28T01:34:59	0.3	84
164210	2026-03-28T01:44:59	0.1	84
164211	2026-03-28T01:54:59	0.2	84.5
164212	2026-03-28T02:04:59	0	85.5
164213	2026-03-28T02:14:59	-0.1	85.5
164214	2026-03-28T02:24:59	0	86
164215	2026-03-28T02:34:59	-0.3	86
164216	2026-03-28T02:44:59	-0.3	86.5
164217	2026-03-28T02:54:59	-0.2	86.5
164218	2026-03-28T03:04:59	-0.2	87
164219	2026-03-28T03:14:59	-0.5	87.5
164220	2026-03-28T03:24:59	-0.6	87.5
164221	2026-03-28T03:34:59	-0.6	87.5
164222	2026-03-28T03:44:59	-0.7	88
164223	2026-03-28T03:54:59	-0.8	88.5
164224	2026-03-28T04:04:59	-0.8	88.5
164225	2026-03-28T04:14:59	-0.8	88.5
164226	2026-03-28T04:24:59	-0.8	88.5
164227	2026-03-28T04:34:59	-0.9	89
164228	2026-03-28T04:44:59	-0.7	88.5
164229	2026-03-28T04:54:59	-0.5	88.5
164230	2026-03-28T05:04:59	-0.6	88.5
164231	2026-03-28T05:14:59	-0.3	88
164232	2026-03-28T05:24:59	-0.3	87.5
164233	2026-03-28T05:34:59	-0.2	87
164234	2026-03-28T05:44:59	0	87.5
164235	2026-03-28T05:54:59	0.1	88
164236	2026-03-28T06:04:59	0.3	87
164237	2026-03-28T06:14:59	0.4	87
164238	2026-03-28T06:24:59	0.8	87.5
164239	2026-03-28T06:34:59	1.2	86.5
164240	2026-03-28T06:44:59	1.4	86
164241	2026-03-28T06:54:59	1.4	85
164242	2026-03-28T07:04:59	1.9	85
164243	2026-03-28T07:14:59	2.2	82.5
164244	2026-03-28T07:24:59	2.5	79.5
164245	2026-03-28T07:34:59	2.9	79
164246	2026-03-28T07:44:59	3.1	79
164247	2026-03-28T07:54:59	3.3	79.5
164248	2026-03-28T08:04:59	3.8	80
164249	2026-03-28T08:14:59	3.6	74.5
164250	2026-03-28T08:24:59	3.8	74.5
164251	2026-03-28T08:34:59	4.1	76
164252	2026-03-28T08:45:00	4.4	74.5
164253	2026-03-28T08:54:59	4.4	72
164254	2026-03-28T09:04:59	4.7	71
164255	2026-03-28T09:14:59	5	71
164256	2026-03-28T09:24:59	5.1	69
164257	2026-03-28T09:34:59	5.5	68
164258	2026-03-28T09:44:59	5.7	67.5
164259	2026-03-28T09:54:59	5.9	66
164260	2026-03-28T10:04:59	6	66
164261	2026-03-28T10:14:59	6	64.5
164262	2026-03-28T10:24:59	6.3	65.5
164263	2026-03-28T10:34:59	6.4	59.5
164264	2026-03-28T10:44:59	6.7	60
164265	2026-03-28T10:54:59	6.7	58.5
164266	2026-03-28T11:04:59	6.8	58.5
164267	2026-03-28T11:14:59	6.9	58
164268	2026-03-28T11:24:59	6.9	59
164269	2026-03-28T11:34:59	6.9	61.5
164270	2026-03-28T11:44:59	7.1	61.5
164271	2026-03-28T11:54:59	7	61
164272	2026-03-28T12:04:59	6.8	62
164273	2026-03-28T12:14:59	6.9	61.5
164274	2026-03-28T12:24:59	6.9	61.5
164275	2026-03-28T12:34:59	6.8	61.5
164276	2026-03-28T12:44:59	6.9	61
164277	2026-03-28T12:54:59	6.8	61
164278	2026-03-28T13:04:59	6.6	63.5
164279	2026-03-28T13:14:59	6.1	69.5
164280	2026-03-28T13:24:59	5.2	90
164281	2026-03-28T13:34:59	4.6	96
164282	2026-03-28T13:44:59	4	100
164283	2026-03-28T13:54:59	3.6	100
164284	2026-03-28T14:04:59	3.6	100
164285	2026-03-28T14:14:59	3.5	100
164286	2026-03-28T14:24:59	3.7	100
164287	2026-03-28T14:34:59	3.7	100
164288	2026-03-28T14:44:59	3.7	100
164289	2026-03-28T14:54:59	3.6	100
164290	2026-03-28T15:04:59	3.4	100
164291	2026-03-28T15:14:59	3.3	100
164292	2026-03-28T15:24:59	3.3	100
164293	2026-03-28T15:34:59	3.2	100
164294	2026-03-28T15:44:59	3.2	100
164295	2026-03-28T15:54:59	3.2	100
164296	2026-03-28T16:04:59	3	100
164297	2026-03-28T16:14:59	3	100
164298	2026-03-28T16:24:59	3.1	100
164299	2026-03-28T16:34:59	2.8	100
164300	2026-03-28T16:44:59	2.9	100
164301	2026-03-28T16:54:59	2.8	100
164302	2026-03-28T17:04:59	2.9	100
164303	2026-03-28T17:14:59	2.9	100
164304	2026-03-28T17:24:59	2.8	100
164305	2026-03-28T17:34:59	2.9	100
164306	2026-03-28T17:44:59	3	100
164307	2026-03-28T17:54:59	2.9	100
164308	2026-03-28T18:04:59	2.9	100
164309	2026-03-28T18:14:59	3	100
164310	2026-03-28T18:24:59	3	100
164311	2026-03-28T18:34:59	3.1	100
164312	2026-03-28T18:44:59	3.1	100
164313	2026-03-28T18:54:59	3.1	100
164314	2026-03-28T19:04:59	3.2	100
164315	2026-03-28T19:14:59	3.3	100
164316	2026-03-28T19:24:59	3.4	100
164317	2026-03-28T19:34:59	3.4	100
164318	2026-03-28T19:44:59	3.4	100
164319	2026-03-28T19:54:59	3.3	100
164320	2026-03-28T20:04:59	3.3	100
164321	2026-03-28T20:14:59	3.3	100
164322	2026-03-28T20:24:59	3.4	100
164323	2026-03-28T20:34:59	3.4	100
164324	2026-03-28T20:44:59	3.4	100
164325	2026-03-28T20:54:59	3.5	100
164326	2026-03-28T21:04:59	3.5	100
164327	2026-03-28T21:14:59	3.5	100
164328	2026-03-28T21:24:59	3.4	100
164329	2026-03-28T21:34:59	3.5	100
164330	2026-03-28T21:44:59	3.5	100
164331	2026-03-28T21:54:59	3.6	100
164332	2026-03-28T22:04:59	3.5	100
164333	2026-03-28T22:14:59	3.6	100
164334	2026-03-28T22:24:59	3.5	100
164335	2026-03-28T22:34:59	3.7	100
164336	2026-03-28T22:44:59	3.7	100
164337	2026-03-28T22:54:59	3.7	100
164338	2026-03-28T23:04:59	3.8	100
164339	2026-03-28T23:14:59	3.7	100
164340	2026-03-28T23:24:59	3.8	100
164341	2026-03-28T23:34:59	3.8	100
164342	2026-03-28T23:44:59	3.9	100
164343	2026-03-28T23:54:59	3.9	100
164344	2026-03-29T00:04:59	3.9	100
164345	2026-03-29T00:14:59	3.9	100
164346	2026-03-29T00:24:59	3.9	100
164347	2026-03-29T00:34:59	3.8	100
164348	2026-03-29T00:44:59	3.9	100
164349	2026-03-29T00:54:59	3.8	100
164350	2026-03-29T01:04:59	3.7	100
164351	2026-03-29T01:14:59	3.6	100
164352	2026-03-29T01:24:59	3.8	100
164353	2026-03-29T01:34:59	3.8	100
164354	2026-03-29T01:44:59	3.8	100
164355	2026-03-29T01:54:59	3.7	100
164356	2026-03-29T02:04:59	3.8	100
164357	2026-03-29T02:14:59	3.7	100
164358	2026-03-29T02:24:59	3.7	100
164359	2026-03-29T02:34:59	3.6	100
164360	2026-03-29T02:44:59	3.4	100
164361	2026-03-29T02:54:59	3.2	100
164362	2026-03-29T03:04:59	2.7	100
164363	2026-03-29T03:14:59	2.4	100
164364	2026-03-29T03:24:59	2.2	100
164365	2026-03-29T03:34:59	2	100
164366	2026-03-29T03:44:59	2	100
164367	2026-03-29T03:54:59	1.8	100
164368	2026-03-29T04:04:59	1.5	100
164369	2026-03-29T04:14:59	1.5	100
164370	2026-03-29T04:24:59	1.3	100
164371	2026-03-29T04:34:59	1.3	100
164372	2026-03-29T04:44:59	1.1	100
164373	2026-03-29T04:54:59	0.9	100
164374	2026-03-29T05:04:59	1	100
164375	2026-03-29T05:14:59	0.8	100
164376	2026-03-29T05:24:59	0.7	100
164377	2026-03-29T05:34:59	0.5	100
164378	2026-03-29T05:44:59	0.4	100
164379	2026-03-29T05:54:59	0.5	100
164380	2026-03-29T06:04:59	0.6	100
164381	2026-03-29T06:14:59	0.7	100
164382	2026-03-29T06:24:59	1	100
164383	2026-03-29T06:34:59	1.4	100
164384	2026-03-29T06:44:59	1.9	100
164385	2026-03-29T06:54:59	2.1	100
164386	2026-03-29T07:04:59	2.3	100
164387	2026-03-29T07:14:59	2.5	100
164388	2026-03-29T07:24:59	2.7	100
164389	2026-03-29T07:34:59	2.8	100
164390	2026-03-29T07:44:59	3	100
164391	2026-03-29T07:54:59	3.5	100
164392	2026-03-29T08:04:59	3.8	100
164393	2026-03-29T08:14:59	4.2	100
164394	2026-03-29T08:24:59	4.5	100
164395	2026-03-29T08:34:59	4.6	100
164396	2026-03-29T08:44:59	4.3	100
164397	2026-03-29T08:54:59	4.4	100
164398	2026-03-29T09:04:59	4.6	100
164399	2026-03-29T09:14:59	5.1	100
164400	2026-03-29T09:24:59	5.1	100
164401	2026-03-29T09:34:59	5.4	100
164402	2026-03-29T09:44:59	6.2	100
164403	2026-03-29T09:54:58	6	100
164404	2026-03-29T10:04:58	6.8	100
164405	2026-03-29T10:14:58	6.8	100
164406	2026-03-29T10:24:58	7	100
164407	2026-03-29T10:34:58	7.6	100
164408	2026-03-29T10:44:58	7.7	100
164409	2026-03-29T10:54:58	7.9	100
164410	2026-03-29T11:04:58	8.5	100
164411	2026-03-29T11:14:58	8.9	100
164412	2026-03-29T11:24:58	8.5	100
164413	2026-03-29T11:34:58	8.4	100
164414	2026-03-29T11:44:58	8.1	100
164415	2026-03-29T11:54:58	8	100
164416	2026-03-29T12:04:58	8.4	100
164417	2026-03-29T12:14:58	9.3	100
164418	2026-03-29T12:24:58	9.3	100
164419	2026-03-29T12:34:58	8.7	100
164420	2026-03-29T12:44:58	8.6	100
164421	2026-03-29T12:54:58	8.6	100
164422	2026-03-29T13:04:58	8.5	100
164423	2026-03-29T13:14:58	8.6	100
164424	2026-03-29T13:24:58	8.7	100
164425	2026-03-29T13:34:58	8.9	100
164426	2026-03-29T13:45:19	9.3	100
164427	2026-03-29T13:54:58	9.3	100
164428	2026-03-29T14:04:58	9.7	100
164429	2026-03-29T14:14:58	9.4	100
164430	2026-03-29T16:30:05	10.2	100
164431	2026-03-29T16:30:06	9.4	100
164432	2026-03-29T16:30:06	10.5	100
164433	2026-03-29T16:30:06	9.4	100
164434	2026-03-29T16:30:07	10.1	100
164435	2026-03-29T16:30:07	9.2	100
164436	2026-03-29T16:30:07	9.4	100
164437	2026-03-29T16:30:08	9.4	100
164438	2026-03-29T16:30:08	9.2	100
164439	2026-03-29T16:30:08	9.6	100
164440	2026-03-29T16:30:08	9.1	100
164441	2026-03-29T16:30:09	10	100
164442	2026-03-29T16:30:09	9.4	100
164443	2026-03-29T16:34:58	8.7	100
164444	2026-03-29T16:44:58	8.5	100
164445	2026-03-29T16:54:58	8.4	100
164446	2026-03-29T17:04:58	8.2	100
164447	2026-03-29T17:14:58	8.2	100
164448	2026-03-29T17:24:58	7.9	100
164449	2026-03-29T17:34:58	7.5	100
164450	2026-03-29T17:44:58	7.3	100
164451	2026-03-29T17:54:58	7.1	100
164452	2026-03-29T18:04:58	6.8	100
164453	2026-03-29T18:34:58	6.4	100
164454	2026-03-29T18:44:58	6.2	100
164455	2026-03-29T18:54:58	6.1	100
164456	2026-03-29T19:04:58	6	100
164457	2026-03-29T19:14:58	5.8	100
164458	2026-03-29T19:24:58	5.8	100
164459	2026-03-29T19:34:58	5.9	100
164460	2026-03-29T19:44:58	5.9	100
164461	2026-03-29T19:54:58	5.8	100
164462	2026-03-29T20:04:58	5.8	100
164463	2026-03-29T20:14:58	5.7	100
164464	2026-03-29T20:24:58	5.7	100
164465	2026-03-29T20:34:58	5.7	100
164466	2026-03-29T20:44:58	5.8	100
164467	2026-03-29T20:54:58	5.6	100
164468	2026-03-29T21:04:58	5.8	100
164469	2026-03-29T21:14:58	5.7	100
164470	2026-03-29T21:24:58	5.8	100
164471	2026-03-29T21:34:58	5.7	100
164472	2026-03-29T21:44:58	5.8	100
164473	2026-03-29T21:54:58	5.9	100
164474	2026-03-29T22:04:58	6	100
164475	2026-03-29T22:14:58	6	100
164476	2026-03-29T22:24:58	6	100
164477	2026-03-29T22:34:58	6.1	100
164478	2026-03-29T22:44:58	6	100
164479	2026-03-29T22:54:58	6	96
164480	2026-03-29T23:04:58	6.1	87.5
164481	2026-03-29T23:14:58	6	80
164482	2026-03-29T23:24:58	5.9	79
164483	2026-03-29T23:34:58	6.1	76.5
164484	2026-03-29T23:44:58	6.2	75.5
164485	2026-03-29T23:54:58	6.1	74.5
164486	2026-03-30T00:04:58	6.2	74
164487	2026-03-30T00:14:58	6.3	72.5
164488	2026-03-30T00:24:58	6.4	71
164489	2026-03-30T00:34:58	6.6	70.5
164490	2026-03-30T00:44:58	6.6	69.5
164491	2026-03-30T00:54:58	6.6	70
164492	2026-03-30T01:04:58	6.7	69
164493	2026-03-30T01:14:58	6.8	68
164494	2026-03-30T01:24:58	6.8	67
164495	2026-03-30T01:34:58	6.8	66.5
164496	2026-03-30T01:44:58	6.8	68
164497	2026-03-30T01:54:58	6.6	69.5
164498	2026-03-30T02:04:58	6.4	71
164499	2026-03-30T02:14:58	6	77
164500	2026-03-30T02:24:58	5.7	78
164501	2026-03-30T02:35:15	5.6	76
164502	2026-03-30T02:44:58	6	73
164503	2026-03-30T02:54:58	6	76
164504	2026-03-30T03:04:58	5.8	76
164505	2026-03-30T03:14:58	5.7	78
164506	2026-03-30T03:24:58	5.1	91
164507	2026-03-30T03:34:58	4.5	97
164508	2026-03-30T03:44:58	4.1	100
164509	2026-03-30T03:54:58	3.9	100
164510	2026-03-30T04:04:58	3.9	100
164511	2026-03-30T04:14:58	3.7	100
164512	2026-03-30T04:24:58	3.6	100
164513	2026-03-30T04:34:58	3.6	100
164514	2026-03-30T04:44:58	3.6	100
164515	2026-03-30T04:54:58	3.7	100
164516	2026-03-30T05:04:58	3.8	100
164517	2026-03-30T05:14:58	3.6	100
164518	2026-03-30T05:24:58	3.9	100
164519	2026-03-30T05:34:58	3.9	100
164520	2026-03-30T05:44:58	4.1	100
164521	2026-03-30T05:54:58	4.3	100
164522	2026-03-30T06:04:58	4.5	100
164523	2026-03-30T06:14:58	4.7	100
164524	2026-03-30T06:24:58	4.8	100
164525	2026-03-30T06:34:58	4.9	100
164526	2026-03-30T06:44:58	5	100
164527	2026-03-30T06:54:58	4.4	100
164528	2026-03-30T07:04:58	4.3	100
164529	2026-03-30T07:14:58	4.4	100
164530	2026-03-30T07:24:58	4.3	100
164531	2026-03-30T07:34:58	4.3	100
164532	2026-03-30T07:44:58	4.8	100
164533	2026-03-30T07:54:58	4.9	100
164534	2026-03-30T08:04:58	4.8	100
164535	2026-03-30T08:14:57	4.6	100
164536	2026-03-30T08:24:57	4.7	100
164537	2026-03-30T08:34:57	5.6	100
164538	2026-03-30T08:44:57	5.8	100
164539	2026-03-30T08:54:57	5.9	100
164540	2026-03-30T09:04:57	6.1	100
164541	2026-03-30T09:14:57	6.4	100
164542	2026-03-30T09:24:57	6.4	100
164543	2026-03-30T09:44:57	6.9	100
164544	2026-03-30T09:54:57	7	100
164545	2026-03-30T10:04:57	6.8	100
164546	2026-03-30T10:14:57	7.1	100
164547	2026-03-30T10:24:57	7.2	100
164548	2026-03-30T10:34:57	6.8	100
164549	2026-03-30T10:44:57	6.3	100
164550	2026-03-30T10:54:57	5.6	100
164551	2026-03-30T11:04:57	5.2	100
164552	2026-03-30T11:14:57	5.4	100
164553	2026-03-30T11:24:57	5.8	100
164554	2026-03-30T11:34:57	6.7	100
164555	2026-03-30T11:44:57	7.3	100
164556	2026-03-30T11:54:57	7.7	100
164557	2026-03-30T12:04:57	6.9	100
164558	2026-03-30T12:14:57	7.1	100
164559	2026-03-30T12:24:57	7.4	100
164560	2026-03-30T12:34:57	7	100
164561	2026-03-30T12:44:57	6.7	100
164562	2026-03-30T12:54:57	7.1	100
164563	2026-03-30T13:04:57	9.1	100
164564	2026-03-30T13:14:57	10.5	100
164565	2026-03-30T13:24:57	9.5	100
164566	2026-03-30T13:34:57	8.8	100
164567	2026-03-30T13:44:57	9.8	100
164568	2026-03-30T13:54:57	9.8	100
164569	2026-03-30T14:04:57	10.2	100
164570	2026-03-30T14:14:57	11.2	100
164571	2026-03-30T14:24:57	10.3	100
164572	2026-03-30T14:34:57	8.9	100
164573	2026-03-30T14:44:57	7.6	100
164574	2026-03-30T14:54:57	7.4	100
164575	2026-03-30T15:04:57	7.3	100
164576	2026-03-30T15:14:57	7.8	100
164577	2026-03-30T15:24:57	8.1	100
164578	2026-03-30T15:34:57	8	100
164579	2026-03-30T15:44:57	7.8	100
164580	2026-03-30T15:54:57	9	100
164581	2026-03-30T16:04:57	11.1	100
164582	2026-03-30T16:14:57	10.8	100
164583	2026-03-30T16:24:57	10.7	100
164584	2026-03-30T16:34:57	8.9	100
164585	2026-03-30T16:44:57	8.6	100
164586	2026-03-30T16:54:57	8.1	100
164587	2026-03-30T17:04:57	9.1	100
164588	2026-03-30T17:14:57	9.1	100
164589	2026-03-30T17:24:57	8.4	100
164590	2026-03-30T17:34:57	7.5	100
164591	2026-03-30T17:44:57	6.9	100
164592	2026-03-30T17:54:57	6.5	100
164593	2026-03-30T18:04:57	6.1	100
164594	2026-03-30T18:14:57	6	100
164595	2026-03-30T18:24:57	6	100
164596	2026-03-30T18:34:57	5.7	100
164597	2026-03-30T18:44:57	5.8	100
164598	2026-03-30T18:54:57	5.9	100
164599	2026-03-30T19:04:57	5.8	100
164600	2026-03-30T19:14:57	5.9	100
164601	2026-03-30T19:24:57	5.7	100
164602	2026-03-30T19:34:57	5.6	100
164603	2026-03-30T19:44:57	5.6	100
164604	2026-03-30T19:54:57	5.5	100
164605	2026-03-30T20:04:57	5.6	100
164606	2026-03-30T20:14:57	5.5	100
164607	2026-03-30T20:24:57	5.6	100
164608	2026-03-30T20:34:57	5.5	100
164609	2026-03-30T20:44:57	5.7	100
164610	2026-03-30T20:54:57	5.4	100
164611	2026-03-30T21:04:57	5.1	100
164612	2026-03-30T21:14:57	4.9	100
164613	2026-03-30T21:24:57	5	100
164614	2026-03-30T21:34:57	5.1	100
164615	2026-03-30T21:44:57	5.2	100
164616	2026-03-30T21:54:57	5	100
164617	2026-03-30T22:04:57	5	100
164618	2026-03-30T22:14:57	5	100
164619	2026-03-30T22:24:57	5	100
164620	2026-03-30T22:34:57	4.9	100
164621	2026-03-30T22:44:57	4.7	100
164622	2026-03-30T22:54:57	5	100
164623	2026-03-30T23:04:57	4.8	100
164624	2026-03-30T23:14:57	4.7	100
164625	2026-03-30T23:24:57	4.9	100
164626	2026-03-30T23:34:57	4.8	100
164627	2026-03-30T23:44:57	4.8	100
164628	2026-03-30T23:54:57	4.7	100
164629	2026-03-31T00:04:57	4.6	100
164630	2026-03-31T00:14:57	4.7	100
164631	2026-03-31T00:24:57	4.7	100
164632	2026-03-31T00:34:57	4.6	100
164633	2026-03-31T00:54:57	4	100
164634	2026-03-31T01:04:57	3.9	100
164635	2026-03-31T01:14:57	3.8	100
164636	2026-03-31T01:24:57	3.6	100
164637	2026-03-31T01:34:57	3.9	100
164638	2026-03-31T01:44:57	4.1	100
164639	2026-03-31T01:54:57	4.2	100
164640	2026-03-31T02:04:57	4.2	100
164641	2026-03-31T02:14:57	4.4	100
164642	2026-03-31T02:24:57	4	100
164643	2026-03-31T02:34:57	3.7	100
164644	2026-03-31T02:44:57	3.7	100
164645	2026-03-31T02:54:57	4	100
164646	2026-03-31T03:04:57	4.1	100
164647	2026-03-31T03:14:57	4.1	100
164648	2026-03-31T03:24:57	4.3	100
164649	2026-03-31T03:34:57	4.2	100
164650	2026-03-31T03:44:57	4.1	100
164651	2026-03-31T03:54:57	4.1	100
164652	2026-03-31T04:04:57	4.2	100
164653	2026-03-31T04:14:57	4.1	100
164654	2026-03-31T04:24:57	4.2	100
164655	2026-03-31T04:34:57	4.2	100
164656	2026-03-31T04:44:57	4.2	99.5
164657	2026-03-31T04:54:57	4.1	99.5
164658	2026-03-31T05:04:57	4.2	100
164659	2026-03-31T05:14:57	4.2	100
164660	2026-03-31T05:24:57	4.2	98
164661	2026-03-31T05:34:57	4.2	98.5
164662	2026-03-31T05:44:57	4.3	100
164663	2026-03-31T05:54:57	4.4	100
164664	2026-03-31T06:04:57	4.4	99
164665	2026-03-31T06:14:57	4.6	99
164666	2026-03-31T06:24:57	4.6	99
164667	2026-03-31T06:34:57	4.8	97.5
164668	2026-03-31T06:44:57	4.9	94.5
164669	2026-03-31T06:54:57	4.8	93
164670	2026-03-31T07:04:57	4.7	92
164671	2026-03-31T07:14:57	4.9	92
164672	2026-03-31T07:24:57	5.2	91.5
164673	2026-03-31T07:34:56	5.2	92.5
164674	2026-03-31T07:44:56	5.3	90
164675	2026-03-31T07:54:56	5.4	89.5
164676	2026-03-31T08:04:56	5.5	89.5
164677	2026-03-31T08:14:56	5.8	88.5
164678	2026-03-31T08:24:56	5.8	88
164679	2026-03-31T08:34:56	6.1	85.5
164680	2026-03-31T08:44:56	6.3	86
164681	2026-03-31T08:54:56	6.6	84.5
164682	2026-03-31T09:04:56	6.6	85.5
164683	2026-03-31T09:14:56	6.8	83.5
164684	2026-03-31T09:24:56	6.9	83.5
164685	2026-03-31T09:34:56	6.7	84.5
164686	2026-03-31T09:44:56	7	84.5
164687	2026-03-31T09:54:56	6.9	85
164688	2026-03-31T10:04:56	7	83.5
164689	2026-03-31T10:14:56	7.2	82.5
164690	2026-03-31T10:24:56	7.5	84
164691	2026-03-31T10:44:56	8.3	81
164692	2026-03-31T10:54:56	8.3	80
164693	2026-03-31T11:04:56	8.6	80
164694	2026-03-31T11:24:56	8.1	81
164695	2026-03-31T11:34:56	8.3	81
164696	2026-03-31T11:44:56	8.5	79.5
164697	2026-03-31T11:54:56	9.1	77.5
164698	2026-03-31T12:05:02	9.6	76.5
164699	2026-03-31T12:14:56	9.6	73.5
164700	2026-03-31T12:24:56	11.2	70
164701	2026-03-31T12:34:56	12	67
164702	2026-03-31T12:44:56	12	64
164703	2026-03-31T12:54:56	11.3	67.5
164704	2026-03-31T13:04:56	12.8	61.5
164705	2026-03-31T13:14:56	13.4	61
164706	2026-03-31T13:24:56	13	62.5
164707	2026-03-31T13:34:56	12.9	57.5
164708	2026-03-31T13:44:56	13.2	56.5
164709	2026-03-31T13:54:56	13.5	58.5
164710	2026-03-31T14:04:56	12.3	60.5
164711	2026-03-31T14:14:56	11.6	59.5
164712	2026-03-31T14:24:56	10.9	61
164713	2026-03-31T14:34:56	10.1	65.5
164714	2026-03-31T14:44:56	10.2	64.5
164715	2026-03-31T14:54:56	11.1	65
164716	2026-03-31T15:04:56	10.7	66
164717	2026-03-31T15:14:56	10.2	67
164718	2026-03-31T15:24:56	9.8	68.5
164719	2026-03-31T15:34:56	12	64
164720	2026-03-31T15:44:56	14	61
164721	2026-03-31T15:54:56	14.2	59.5
164722	2026-03-31T16:04:56	15.2	56.5
164723	2026-03-31T16:14:56	15.3	54.5
164724	2026-03-31T16:24:56	15.8	53
164725	2026-03-31T16:34:56	14.2	56
164726	2026-03-31T16:44:56	12.3	63.5
164727	2026-03-31T16:54:56	10.9	66
164728	2026-03-31T17:04:56	10.4	69.5
164729	2026-03-31T17:14:56	9.7	68
164730	2026-03-31T17:24:56	9.5	70.5
164731	2026-03-31T17:34:56	8.8	72.5
164732	2026-03-31T17:44:56	8.4	74
164733	2026-03-31T17:54:56	8	76
164734	2026-03-31T18:04:56	8.2	80
164735	2026-03-31T18:14:56	7.9	82
164736	2026-03-31T18:24:56	7.8	80.5
164737	2026-03-31T18:34:56	7.6	80.5
164738	2026-03-31T18:44:56	7.7	82
164739	2026-03-31T18:54:56	7.7	81.5
164740	2026-03-31T19:04:56	7.5	82.5
164741	2026-03-31T19:14:56	7.2	82.5
164742	2026-03-31T19:24:56	7.1	82.5
164743	2026-03-31T19:34:56	6.7	84.5
164744	2026-03-31T19:44:56	6.5	87
164745	2026-03-31T19:54:56	6.4	86
164746	2026-03-31T20:04:56	6.5	86.5
164747	2026-03-31T20:14:56	6.4	84.5
164748	2026-03-31T20:24:56	6.2	85
164749	2026-03-31T20:34:56	6.4	86
164750	2026-03-31T20:44:56	6.4	86
164751	2026-03-31T20:54:56	6.4	86
164752	2026-03-31T21:04:56	6.5	86.5
164753	2026-03-31T21:14:56	6.5	87.5
164754	2026-03-31T21:24:56	6.6	86
164755	2026-03-31T21:34:56	6.3	86.5
164756	2026-03-31T21:44:56	6.4	87
164757	2026-03-31T21:54:56	6.4	89.5
164758	2026-03-31T22:04:56	6.4	90
164759	2026-03-31T22:14:56	6.3	89
164760	2026-03-31T22:24:56	6.2	90.5
164761	2026-03-31T22:34:56	6.3	89
164762	2026-03-31T22:44:56	6.2	90.5
164763	2026-03-31T22:54:56	6.3	91
164764	2026-03-31T23:04:56	6.4	90.5
164765	2026-03-31T23:14:56	6.2	90
164766	2026-03-31T23:24:56	6.1	88.5
164767	2026-03-31T23:34:56	5.9	88.5
164768	2026-03-31T23:44:56	5.7	88.5
164769	2026-03-31T23:54:56	5.5	88.5
164770	2026-04-01T00:04:56	5.3	91
164771	2026-04-01T00:14:56	4.9	93
164772	2026-04-01T00:24:56	4.6	94.5
164773	2026-04-01T00:34:56	4.4	95
164774	2026-04-01T00:44:56	4.5	95.5
164775	2026-04-01T00:54:56	4.8	95
164776	2026-04-01T01:04:56	4.9	94.5
164777	2026-04-01T01:14:56	4.9	93.5
164778	2026-04-01T01:24:56	4.8	92
164779	2026-04-01T01:34:56	4.7	94
164780	2026-04-01T01:44:56	4.9	93.5
164781	2026-04-01T01:54:56	4.7	92.5
164782	2026-04-01T02:04:56	4.5	93.5
164783	2026-04-01T02:14:56	4.1	95
164784	2026-04-01T02:24:56	3.9	96
164785	2026-04-01T02:34:56	4	96
164786	2026-04-01T02:44:56	3.9	95.5
164787	2026-04-01T02:54:56	3.8	96
164788	2026-04-01T03:04:56	3.5	96
164789	2026-04-01T03:14:56	3.2	97
164790	2026-04-01T03:24:56	3.2	96.5
164791	2026-04-01T03:34:56	3.1	97
164792	2026-04-01T03:44:56	2.8	97
164793	2026-04-01T03:54:56	2.7	97
164794	2026-04-01T04:04:56	2.7	96.5
164795	2026-04-01T04:15:12	2.6	96
164796	2026-04-01T04:24:55	2.4	96.5
164797	2026-04-01T04:34:56	2.3	96.5
164798	2026-04-01T04:44:55	2.1	97
164799	2026-04-01T04:54:55	2	97.5
164800	2026-04-01T05:04:55	1.9	97
164801	2026-04-01T05:14:55	1.8	97
164802	2026-04-01T05:24:55	2	97.5
164803	2026-04-01T05:34:55	2.4	97
164804	2026-04-01T05:44:55	2.7	96.5
164805	2026-04-01T05:54:55	2.9	96
164806	2026-04-01T06:04:55	3.1	95.5
164807	2026-04-01T06:14:55	3.3	95
164808	2026-04-01T06:24:55	3.6	96
164809	2026-04-01T06:34:55	3.8	95.5
164810	2026-04-01T06:44:55	4	95.5
164811	2026-04-01T06:54:55	4.5	95.5
164812	2026-04-01T07:04:55	4.5	94.5
164813	2026-04-01T07:14:55	4.7	94
164814	2026-04-01T07:24:55	4.9	93.5
164815	2026-04-01T07:34:55	4.9	94
164816	2026-04-01T07:44:55	5	94
164817	2026-04-01T07:54:55	4.8	94
164818	2026-04-01T08:04:55	5	94
164819	2026-04-01T08:14:55	5.1	94
164820	2026-04-01T08:24:55	5.5	92.5
164821	2026-04-01T08:34:55	5.5	92
164822	2026-04-01T08:44:55	5.6	92
164823	2026-04-01T08:54:55	6	90
164824	2026-04-01T09:04:55	6.4	88
164825	2026-04-01T09:14:55	6.7	85.5
164826	2026-04-01T09:24:55	7.1	84.5
164827	2026-04-01T09:34:55	7.1	83
164828	2026-04-01T09:44:55	7.6	82.5
164829	2026-04-01T09:54:55	8.3	80.5
164830	2026-04-01T10:04:55	9.2	75
164831	2026-04-01T10:14:55	9.6	72
164832	2026-04-01T10:24:55	9.9	73
164833	2026-04-01T10:34:55	10.6	70.5
164834	2026-04-01T10:44:55	10.6	66.5
164835	2026-04-01T10:54:55	10.8	68.5
164836	2026-04-01T11:04:55	10.5	66
164837	2026-04-01T11:14:55	10.8	68.5
164838	2026-04-01T11:24:55	11.4	66.5
164839	2026-04-01T11:34:55	11.3	66
164840	2026-04-01T11:44:55	11.3	62.5
164841	2026-04-01T11:54:55	11.8	59
164842	2026-04-01T12:04:55	12	62
164843	2026-04-01T12:14:55	12.7	57.5
164844	2026-04-01T12:24:55	15.4	54.5
164845	2026-04-01T12:34:55	15.5	49
164846	2026-04-01T12:44:55	14.6	51.5
164847	2026-04-01T12:54:55	17.9	49
164848	2026-04-01T13:04:55	18.9	46.5
164849	2026-04-01T13:14:55	18.7	43.5
164850	2026-04-01T13:24:55	17.4	48
164851	2026-04-01T13:34:55	16.9	48
164852	2026-04-01T13:44:55	17.2	45
164853	2026-04-01T13:54:55	15.9	46.5
164854	2026-04-01T14:04:55	15.5	49
164855	2026-04-01T14:14:55	15.5	51.5
164856	2026-04-01T14:24:55	16.5	47
164857	2026-04-01T14:34:55	15.8	48.5
164858	2026-04-01T14:44:55	15.1	50.5
164859	2026-04-01T14:54:55	14.4	49.5
164860	2026-04-01T15:04:55	17.7	45.5
164861	2026-04-01T15:14:55	16.4	48
164862	2026-04-01T15:24:55	15.4	48.5
164863	2026-04-01T15:34:55	15.5	49
164864	2026-04-01T15:44:55	15.2	47
164865	2026-04-01T15:54:55	14.4	49
164866	2026-04-01T16:04:55	14	50
164867	2026-04-01T16:14:55	13.7	51
164868	2026-04-01T16:24:55	15.8	48
164869	2026-04-01T16:34:55	17	47
164870	2026-04-01T16:44:55	17.8	43.5
164871	2026-04-01T16:54:55	17.8	44
164872	2026-04-01T17:04:55	17.4	43
164873	2026-04-01T17:14:55	16.5	46
164874	2026-04-01T17:24:55	15.6	46
164875	2026-04-01T17:34:55	14.1	51.5
164876	2026-04-01T17:44:55	13	56.5
164877	2026-04-01T17:54:55	12.5	57
164878	2026-04-01T18:04:55	11.7	57
164879	2026-04-01T18:14:55	11.4	59.5
164880	2026-04-01T18:24:55	10.7	63.5
164881	2026-04-01T18:34:55	10.5	66
164882	2026-04-01T18:44:55	10	68.5
164883	2026-04-01T18:54:55	9.6	69
164884	2026-04-01T19:04:55	9.3	67
164885	2026-04-01T19:14:55	8.8	70.5
164886	2026-04-01T19:24:55	8.5	69.5
164887	2026-04-01T19:34:55	8.1	70.5
164888	2026-04-01T19:44:55	7.8	71.5
164889	2026-04-01T19:54:55	7.7	73
164890	2026-04-01T20:04:55	7.5	74
164891	2026-04-01T20:14:55	7.4	73.5
164892	2026-04-01T20:24:55	7.1	73
164893	2026-04-01T20:34:55	6.9	74.5
164894	2026-04-01T20:44:54	6.9	74.5
164895	2026-04-01T20:54:54	6.6	74
164896	2026-04-01T21:04:54	6.4	77
164897	2026-04-01T21:14:54	6.2	76
164898	2026-04-01T21:24:54	6	78.5
164899	2026-04-01T21:34:54	5.9	78
164900	2026-04-01T21:44:54	5.6	78
164901	2026-04-01T21:54:54	5.4	80.5
164902	2026-04-01T22:04:54	5.3	79
164903	2026-04-01T22:14:54	5.2	79
164904	2026-04-01T22:24:54	5.1	78.5
164905	2026-04-01T22:34:54	5	79.5
164906	2026-04-01T22:44:54	4.7	79.5
164907	2026-04-01T22:54:54	4.4	80
164908	2026-04-01T23:04:54	4.3	79.5
164909	2026-04-01T23:14:54	4.2	80
164910	2026-04-01T23:24:54	3.9	80.5
164911	2026-04-01T23:34:54	3.9	80
164912	2026-04-01T23:44:54	3.8	81
164913	2026-04-01T23:54:54	3.8	81
164914	2026-04-02T00:04:54	3.6	81.5
164915	2026-04-02T00:14:54	3.4	81.5
164916	2026-04-02T00:24:54	3.2	82
164917	2026-04-02T00:34:54	3.2	82.5
164918	2026-04-02T00:44:54	3	83.5
164919	2026-04-02T00:54:54	3	85
164920	2026-04-02T01:04:54	2.9	85
164921	2026-04-02T01:14:54	2.7	85.5
164922	2026-04-02T01:24:54	2.5	86
164923	2026-04-02T01:34:54	2.4	86.5
164924	2026-04-02T01:44:54	2.2	85.5
164925	2026-04-02T01:54:54	2.2	87
164926	2026-04-02T02:04:54	1.9	87
164927	2026-04-02T02:14:54	1.9	88
164928	2026-04-02T02:24:54	1.8	88
164929	2026-04-02T02:34:54	1.8	88
164930	2026-04-02T02:44:54	1.8	88.5
164931	2026-04-02T02:54:54	1.6	88.5
164932	2026-04-02T03:04:54	1.6	89
164933	2026-04-02T03:14:54	1.3	89.5
164934	2026-04-02T03:24:54	1.2	90.5
164935	2026-04-02T03:34:54	0.9	90.5
164936	2026-04-02T03:44:54	0.9	90.5
164937	2026-04-02T03:54:54	1	90
164938	2026-04-02T04:04:54	0.9	91.5
164939	2026-04-02T04:14:54	0.8	92
164940	2026-04-02T04:24:54	0.7	92.5
164941	2026-04-02T04:34:54	0.6	92
164942	2026-04-02T04:44:54	0.6	92
164943	2026-04-02T04:54:54	0.6	92
164944	2026-04-02T05:04:54	0.4	92.5
164945	2026-04-02T05:14:54	0.3	93
164946	2026-04-02T05:24:54	0.3	93.5
164947	2026-04-02T05:34:54	0.4	93
164948	2026-04-02T05:44:54	0.4	93.5
164949	2026-04-02T05:54:54	0.5	93.5
164950	2026-04-02T06:04:54	0.7	93.5
164951	2026-04-02T06:14:54	0.9	93.5
164952	2026-04-02T06:24:54	0.9	93.5
164953	2026-04-02T06:34:54	1	93.5
164954	2026-04-02T06:44:54	1.1	93.5
164955	2026-04-02T06:54:54	1.5	92.5
164956	2026-04-02T07:04:54	1.7	92.5
164957	2026-04-02T07:14:54	1.9	92.5
164958	2026-04-02T07:24:54	2.3	91.5
164959	2026-04-02T07:34:54	2.7	89.5
164960	2026-04-02T07:44:54	3.2	88
164961	2026-04-02T07:54:54	3.4	86.5
164962	2026-04-02T08:04:54	3.6	86
164963	2026-04-02T08:14:54	3.9	87.5
164964	2026-04-02T08:24:54	4.1	86
164965	2026-04-02T08:34:54	4.7	83
164966	2026-04-02T08:44:54	5.1	82.5
164967	2026-04-02T08:54:54	5.2	82
164968	2026-04-02T09:04:54	5.7	79.5
164969	2026-04-02T09:14:54	5.9	78.5
164970	2026-04-02T09:24:54	6.5	76.5
164971	2026-04-02T09:34:54	6.8	73.5
164972	2026-04-02T09:44:54	7	73.5
164973	2026-04-02T09:54:54	7.1	71.5
164974	2026-04-02T10:04:54	7.4	68.5
164975	2026-04-02T10:14:54	8.1	67
164976	2026-04-02T10:24:54	8.1	66.5
164977	2026-04-02T10:34:54	8.2	66.5
164978	2026-04-02T10:44:54	8.3	65
164979	2026-04-02T10:54:54	8.5	65
164980	2026-04-02T11:04:54	8.6	66.5
164981	2026-04-02T11:14:54	9.2	66.5
164982	2026-04-02T11:24:54	9.3	64
164983	2026-04-02T11:34:54	9.6	63
164984	2026-04-02T11:44:54	10	59.5
164985	2026-04-02T11:54:54	10.5	61
164986	2026-04-02T12:04:54	11	56
164987	2026-04-02T12:14:54	11.9	53
164988	2026-04-02T12:24:54	14.8	47.5
164989	2026-04-02T12:34:54	17.2	42
164990	2026-04-02T12:44:54	18.6	40
164991	2026-04-02T12:54:54	19.6	36.5
164992	2026-04-02T13:04:54	20.9	37
164993	2026-04-02T13:14:54	21.2	34
164994	2026-04-02T13:24:54	22.4	34.5
164995	2026-04-02T13:34:54	23.1	34
164996	2026-04-02T13:44:54	23.6	32
164997	2026-04-02T13:54:54	24.8	30.5
164998	2026-04-02T14:04:54	24.4	30
164999	2026-04-02T14:14:54	25.5	29.5
165000	2026-04-02T14:24:54	26	29.5
165001	2026-04-02T14:34:54	26.6	27
165002	2026-04-02T14:44:54	25.8	27
165003	2026-04-02T14:54:54	26.8	28.5
165004	2026-04-02T15:04:54	26.7	28
165005	2026-04-02T15:14:54	27.3	27
165006	2026-04-02T15:24:54	27.9	27.5
165007	2026-04-02T15:34:54	28.2	28
165008	2026-04-02T15:44:54	28.2	28
165009	2026-04-02T15:54:54	27.6	28
165010	2026-04-02T16:04:54	27.6	27.5
165011	2026-04-02T16:14:54	28.3	26.5
165012	2026-04-02T16:24:54	28	27.5
165013	2026-04-02T16:34:54	27.1	27.5
165014	2026-04-02T16:44:54	25.7	28
165015	2026-04-02T16:54:54	24.6	29
165016	2026-04-02T17:04:54	25	29
165017	2026-04-02T17:14:54	23.2	31.5
165018	2026-04-02T17:24:54	21.8	34
165019	2026-04-02T17:34:54	19.6	37
165020	2026-04-02T17:44:54	18.6	42
165021	2026-04-02T17:54:53	18.9	45
165022	2026-04-02T18:04:53	18.5	47
165023	2026-04-02T18:14:53	17.9	50
165024	2026-04-02T18:24:53	17.3	48.5
165025	2026-04-02T18:34:53	16.5	48
165026	2026-04-02T18:44:53	16.1	50.5
165027	2026-04-02T18:54:53	15.5	52
165028	2026-04-02T19:04:53	14.9	52.5
165029	2026-04-02T19:14:53	14.6	52
165030	2026-04-02T19:24:53	14.1	55
165031	2026-04-02T19:34:53	13.6	55
165032	2026-04-02T19:44:53	13.5	56
165033	2026-04-02T19:54:53	13.1	57.5
165034	2026-04-02T20:04:53	12.7	58.5
165035	2026-04-02T20:14:53	12.3	60.5
165036	2026-04-02T20:24:53	11.9	62
165037	2026-04-02T20:34:53	11.4	63
165038	2026-04-02T20:44:53	11.2	65
165039	2026-04-02T20:54:53	10.9	66
165040	2026-04-02T21:04:53	10.7	67
165041	2026-04-02T21:14:53	10.4	66
165042	2026-04-02T21:24:53	9.8	68.5
165043	2026-04-02T21:34:53	9.9	67
165044	2026-04-02T21:44:53	10	66.5
165045	2026-04-02T21:54:53	9.8	66.5
165046	2026-04-02T22:04:53	9.7	67
165047	2026-04-02T22:14:53	9.6	67.5
165048	2026-04-02T22:24:53	9.7	69
165049	2026-04-02T22:34:53	9.5	68
165050	2026-04-02T22:44:53	9.3	70
165051	2026-04-02T22:54:53	9.4	71
165052	2026-04-02T23:04:53	9.4	70
165053	2026-04-02T23:14:53	8.9	70
165054	2026-04-02T23:24:53	9.2	70.5
165055	2026-04-02T23:34:53	9.1	72
165056	2026-04-02T23:44:53	9	73
165057	2026-04-02T23:54:53	8.9	73
165058	2026-04-03T00:04:53	8.8	74
165059	2026-04-03T00:14:53	8.8	73.5
165060	2026-04-03T00:24:53	8.6	75
165061	2026-04-03T00:34:53	8.6	75.5
165062	2026-04-03T00:44:53	8.5	75.5
165063	2026-04-03T00:54:53	8.2	76
165064	2026-04-03T01:04:53	7.8	78
165065	2026-04-03T01:14:53	7.5	80
165066	2026-04-03T01:24:53	7.2	80
165067	2026-04-03T01:34:53	6.9	81
165068	2026-04-03T01:44:53	6.8	82
165069	2026-04-03T01:54:53	6.5	81.5
165070	2026-04-03T02:04:53	6.3	82
165071	2026-04-03T02:14:53	6	82
165072	2026-04-03T02:24:53	5.9	82.5
165073	2026-04-03T02:34:53	5.9	82.5
165074	2026-04-03T02:44:53	5.6	83
165075	2026-04-03T02:54:53	5.4	83
165076	2026-04-03T03:04:53	5.2	83
165077	2026-04-03T03:14:53	5.1	83.5
165078	2026-04-03T03:24:53	4.9	83.5
165079	2026-04-03T03:34:53	5.1	83.5
165080	2026-04-03T03:44:53	4.8	84
165081	2026-04-03T03:54:53	4.8	84.5
165082	2026-04-03T04:04:53	4.7	84.5
165083	2026-04-03T04:14:53	4.8	84
165084	2026-04-03T04:24:53	5.1	84.5
165085	2026-04-03T04:34:53	5	84.5
165086	2026-04-03T04:44:53	4.9	85
165087	2026-04-03T04:54:53	5.1	86
165088	2026-04-03T05:04:53	5.3	85
165089	2026-04-03T05:14:53	5.4	85.5
165090	2026-04-03T05:24:53	5.6	85.5
165091	2026-04-03T05:34:53	5.9	86.5
165092	2026-04-03T05:44:53	6.1	88
165093	2026-04-03T05:54:53	6.7	90
165094	2026-04-03T06:04:53	7.3	88.5
165095	2026-04-03T06:14:53	7.5	88
165096	2026-04-03T06:24:53	7.6	87.5
165097	2026-04-03T06:34:53	7.8	87.5
165098	2026-04-03T06:44:53	8	86
165099	2026-04-03T06:54:53	8.1	84.5
165100	2026-04-03T07:04:53	8.2	84
165101	2026-04-03T07:14:53	8.2	84
165102	2026-04-03T07:24:53	8.3	83.5
165103	2026-04-03T07:34:53	8.4	83.5
165104	2026-04-03T07:44:53	8.5	83
165105	2026-04-03T07:54:53	8.7	83
165106	2026-04-03T08:04:53	8.8	82
165107	2026-04-03T08:14:53	9.1	81.5
165108	2026-04-03T08:24:53	9.2	81.5
165109	2026-04-03T08:34:53	9.1	81
165110	2026-04-03T08:44:53	9.1	80.5
165111	2026-04-03T08:54:53	9.2	79.5
165112	2026-04-03T09:04:53	9.2	78
165113	2026-04-03T09:14:53	9.3	77.5
165114	2026-04-03T09:24:53	9.6	76
165115	2026-04-03T09:34:53	10	74.5
165116	2026-04-03T09:44:53	9.9	75
165117	2026-04-03T09:54:53	9.9	74.5
165118	2026-04-03T10:04:53	10.1	76.5
165119	2026-04-03T10:14:53	10.7	75.5
165120	2026-04-03T10:24:53	11.5	73.5
165121	2026-04-03T10:34:53	12.1	70
165122	2026-04-03T10:44:53	12.4	69.5
165123	2026-04-03T10:54:53	12.4	69
165124	2026-04-03T11:04:53	12.7	68.5
165125	2026-04-03T11:14:53	12.8	67.5
165126	2026-04-03T11:24:53	13.6	62.5
165127	2026-04-03T11:34:53	14.1	61.5
165128	2026-04-03T11:44:52	14.2	59
165129	2026-04-03T11:54:52	14	59
165130	2026-04-03T12:04:52	14	59
165131	2026-04-03T12:14:52	14	59
165132	2026-04-03T12:24:52	14.7	56.5
165133	2026-04-03T12:34:52	14.9	56.5
165134	2026-04-03T12:44:52	14.9	55.5
165135	2026-04-03T12:54:52	16	52.5
165136	2026-04-03T13:04:52	16.9	50
165137	2026-04-03T13:14:52	17.9	46
165138	2026-04-03T13:24:52	18.5	45
165139	2026-04-03T13:34:52	17.8	44.5
165140	2026-04-03T13:44:52	19.1	44
165141	2026-04-03T13:54:52	18.1	44
165142	2026-04-03T14:04:52	17.6	45
165143	2026-04-03T14:14:52	17.2	45
165144	2026-04-03T14:24:52	18.3	44
165145	2026-04-03T14:34:52	17.3	45
165146	2026-04-03T14:44:52	16.8	46.5
165147	2026-04-03T14:54:52	16.5	46.5
165148	2026-04-03T15:04:52	16.4	46.5
165149	2026-04-03T15:14:52	15.8	48.5
165150	2026-04-03T15:24:52	15.5	50.5
165151	2026-04-03T15:34:52	15.5	51.5
165152	2026-04-03T15:44:52	15.4	52
165153	2026-04-03T15:54:52	15.3	52.5
165154	2026-04-03T16:04:52	15.3	52
165155	2026-04-03T16:14:52	15.3	52.5
165156	2026-04-03T16:24:52	15.1	52.5
165157	2026-04-03T16:34:52	15	53
165158	2026-04-03T16:44:52	14.9	53.5
165159	2026-04-03T16:54:52	14.8	52.5
165160	2026-04-03T17:04:52	14.6	53
165161	2026-04-03T17:14:52	15.2	52.5
165162	2026-04-03T17:24:52	14.9	53.5
165163	2026-04-03T17:34:52	14.4	55
165164	2026-04-03T17:44:52	13.9	56.5
165165	2026-04-03T17:54:52	13.6	57
165166	2026-04-03T18:04:52	13.2	57.5
165167	2026-04-03T18:14:52	13.1	60
165168	2026-04-03T18:24:52	12.9	61.5
165169	2026-04-03T18:34:52	12.8	62
165170	2026-04-03T18:44:52	12.6	60.5
165171	2026-04-03T18:54:52	12.7	61.5
165172	2026-04-03T19:04:52	12.7	62
165173	2026-04-03T19:14:52	12.7	63.5
165174	2026-04-03T19:24:52	12.6	63
165175	2026-04-03T19:34:52	12.6	63.5
165176	2026-04-03T19:44:52	12.5	62.5
165177	2026-04-03T19:54:52	12.5	63.5
165178	2026-04-03T20:04:52	12.5	62.5
165179	2026-04-03T20:14:52	12.6	62
165180	2026-04-03T20:24:52	12.7	62
165181	2026-04-03T20:34:52	12.6	61.5
165182	2026-04-03T20:44:52	12.6	61.5
165183	2026-04-03T20:54:52	12.5	61
165184	2026-04-03T21:04:52	12.6	61
165185	2026-04-03T21:14:52	12.5	60.5
165186	2026-04-03T21:24:52	12.6	60.5
165187	2026-04-03T21:34:52	12.6	60.5
165188	2026-04-03T21:44:52	12.5	60
165189	2026-04-03T21:54:52	12.4	64.5
165190	2026-04-03T22:04:52	12.3	61
165191	2026-04-03T22:14:52	12.4	60
165192	2026-04-03T22:24:52	12.5	62
165193	2026-04-03T22:34:52	12.4	59.5
165194	2026-04-03T22:44:52	12.5	59
165195	2026-04-03T22:54:52	12.7	56.5
165196	2026-04-03T23:04:52	12.9	58
165197	2026-04-03T23:14:52	12.9	59.5
165198	2026-04-03T23:24:52	12.8	60.5
165199	2026-04-03T23:34:52	12.8	61
165200	2026-04-03T23:44:52	12.6	61.5
165201	2026-04-03T23:54:52	12.6	62
165202	2026-04-04T00:04:52	12.5	62
165203	2026-04-04T00:14:52	12.5	62.5
165204	2026-04-04T00:24:52	12.5	64.5
165205	2026-04-04T00:34:52	12.5	64.5
165206	2026-04-04T00:44:51	12.3	64.5
165207	2026-04-04T00:54:51	12.4	66
165208	2026-04-04T01:04:51	12.4	67
165209	2026-04-04T01:14:51	12.3	69
165210	2026-04-04T01:24:51	12.4	71
165211	2026-04-04T01:34:51	12.2	70.5
165212	2026-04-04T01:44:51	12.2	70
165213	2026-04-04T01:54:51	12.1	69.5
165214	2026-04-04T02:04:51	12	70
165215	2026-04-04T02:14:51	11.7	71
165216	2026-04-04T02:24:51	10.8	82
165217	2026-04-04T02:34:51	10.3	89
165218	2026-04-04T02:44:51	10.3	80
165219	2026-04-04T02:54:51	10.5	76.5
165220	2026-04-04T03:04:51	10.8	76
165221	2026-04-04T03:14:51	10.9	78
165222	2026-04-04T03:24:51	10.9	78.5
165223	2026-04-04T03:34:51	10.8	80
165224	2026-04-04T03:44:51	10.7	81.5
165225	2026-04-04T03:54:51	10.7	82
165226	2026-04-04T04:14:51	10.6	86
165227	2026-04-04T04:24:51	10.4	87
165228	2026-04-04T04:34:51	10.6	87.5
165229	2026-04-04T04:44:51	10.4	89.5
165230	2026-04-04T04:54:51	10.2	91.5
165231	2026-04-04T05:04:51	9.8	96.5
165232	2026-04-04T05:14:51	9.9	95
165233	2026-04-04T05:24:51	10.1	94.5
165234	2026-04-04T05:34:51	10.2	94.5
165235	2026-04-04T05:44:51	10.3	92.5
165236	2026-04-04T05:54:51	10.5	92
165237	2026-04-04T06:04:51	10.7	91.5
165238	2026-04-04T06:14:51	10.7	91
165239	2026-04-04T06:24:51	10.9	91
165240	2026-04-04T06:34:51	10.9	94
165241	2026-04-04T06:44:51	10.7	94.5
165242	2026-04-04T06:54:51	10.6	96
165243	2026-04-04T07:04:51	10.8	95
165244	2026-04-04T07:14:51	11	93.5
165245	2026-04-04T07:24:51	11.3	90.5
165246	2026-04-04T07:34:51	11.6	89
165247	2026-04-04T07:44:51	11.8	87.5
165248	2026-04-04T07:54:51	11.9	86.5
165249	2026-04-04T08:04:51	12.3	86
165250	2026-04-04T08:14:51	12.6	85
165251	2026-04-04T08:24:51	12.9	84
165252	2026-04-04T08:34:51	13.1	83.5
165253	2026-04-04T08:44:51	13.3	83
165254	2026-04-04T08:54:51	13.4	82.5
165255	2026-04-04T09:04:51	13.4	82.5
165256	2026-04-04T09:14:51	13.3	84
165257	2026-04-04T09:24:51	13	83.5
165258	2026-04-04T09:34:51	13.2	85
165259	2026-04-04T09:44:51	13.1	85
165260	2026-04-04T09:54:51	13.7	81
165261	2026-04-04T10:04:51	14.1	79.5
165262	2026-04-04T10:14:51	14.5	78.5
165263	2026-04-04T10:24:51	14.8	77.5
165264	2026-04-04T10:34:51	14.7	78
165265	2026-04-04T10:44:51	14.6	79
165266	2026-04-04T10:54:51	14.9	79
165267	2026-04-04T11:04:51	14.9	77.5
165268	2026-04-04T11:14:51	14.7	86
165269	2026-04-04T11:24:51	14.2	80.5
165270	2026-04-04T11:34:51	14.7	80
165271	2026-04-04T11:44:51	15.1	77.5
165272	2026-04-04T11:54:51	15.2	77.5
165273	2026-04-04T12:04:51	15	79
165274	2026-04-04T12:14:51	15.6	77.5
165275	2026-04-04T12:24:51	15.6	77
165276	2026-04-04T12:34:51	15.3	78
165277	2026-04-04T12:44:51	15.3	79
165278	2026-04-04T12:54:51	15.4	78
165279	2026-04-04T13:04:51	15.1	78.5
165280	2026-04-04T13:14:51	15.1	80.5
165281	2026-04-04T13:24:51	14.9	80
165282	2026-04-04T13:34:51	14.7	82
165283	2026-04-04T13:44:51	13.6	94.5
165284	2026-04-04T13:54:51	13.9	93
165285	2026-04-04T14:04:51	14.8	88.5
165286	2026-04-04T14:14:51	15.5	82.5
165287	2026-04-04T14:24:51	15.8	80
165288	2026-04-04T14:34:50	15.3	81.5
165289	2026-04-04T14:44:50	14.9	86.5
165290	2026-04-04T14:54:50	14.4	90.5
165291	2026-04-04T15:04:50	15.3	84.5
165292	2026-04-04T15:14:50	15.6	83
165293	2026-04-04T15:24:50	15.8	81
165294	2026-04-04T15:34:50	16	81
165295	2026-04-04T15:44:50	15.6	82
165296	2026-04-04T15:54:50	15.4	82
165297	2026-04-04T16:04:50	15.5	82.5
165298	2026-04-04T16:14:50	15.4	82.5
165299	2026-04-04T16:24:50	15.5	81.5
165300	2026-04-04T16:34:50	15.4	81.5
165301	2026-04-04T16:44:50	15.2	82
165302	2026-04-04T16:54:50	15.3	82.5
165303	2026-04-04T17:04:50	15.2	83.5
165304	2026-04-04T17:14:50	15.1	83
165305	2026-04-04T17:24:50	15.1	83
165306	2026-04-04T17:34:50	14.9	83
165307	2026-04-04T17:44:50	14.8	83.5
165308	2026-04-04T17:54:50	14.7	84
165309	2026-04-04T18:04:50	14.6	86
165310	2026-04-04T18:14:50	14.3	87
165311	2026-04-04T18:24:50	13.7	89
165312	2026-04-04T18:34:50	13.3	90.5
165313	2026-04-04T18:44:50	13.1	90
165314	2026-04-04T18:54:50	12.9	89.5
165315	2026-04-04T19:04:50	12.8	89
165316	2026-04-04T19:14:50	12.5	89
165317	2026-04-04T19:24:50	12.2	88.5
165318	2026-04-04T19:34:50	12.1	89
165319	2026-04-04T19:44:50	11.8	89.5
165320	2026-04-04T19:54:50	11.5	90
165321	2026-04-04T20:04:50	11.4	89
165322	2026-04-04T20:14:50	11.1	89.5
165323	2026-04-04T20:24:50	11	90.5
165324	2026-04-04T20:34:50	10.7	90
165325	2026-04-04T20:44:50	10.6	90
165326	2026-04-04T20:54:50	10.5	90
165327	2026-04-04T21:04:50	10.4	90.5
165328	2026-04-04T21:14:50	10.2	90
165329	2026-04-04T21:24:50	10	90
165330	2026-04-04T21:34:50	10	90
165331	2026-04-04T21:44:50	9.8	90.5
165332	2026-04-04T21:54:50	9.7	90
165333	2026-04-04T22:04:50	9.5	90.5
165334	2026-04-04T22:14:50	9.5	90.5
165335	2026-04-04T22:24:50	9.5	90.5
165336	2026-04-04T22:34:50	9.3	89.5
165337	2026-04-04T22:44:50	9.3	90
165338	2026-04-04T22:54:50	9.4	90
165339	2026-04-04T23:04:50	9.3	90.5
165340	2026-04-04T23:14:50	9.3	90
165341	2026-04-04T23:24:50	9.1	90.5
165342	2026-04-04T23:34:50	9	91
165343	2026-04-04T23:44:50	8.8	91.5
165344	2026-04-04T23:54:50	8.7	91.5
165345	2026-04-05T00:04:50	8.6	91.5
165346	2026-04-05T00:14:50	8.6	92.5
165347	2026-04-05T00:24:50	8.5	92.5
165348	2026-04-05T00:34:50	8.2	93
165349	2026-04-05T00:44:50	8.1	93
165350	2026-04-05T00:54:50	7.8	93.5
165351	2026-04-05T01:04:50	7.7	93
165352	2026-04-05T01:14:50	7.6	93.5
165353	2026-04-05T01:24:50	7.6	93
165354	2026-04-05T01:34:50	7.5	92
165355	2026-04-05T01:44:50	7.3	93
165356	2026-04-05T01:54:50	7.2	93
165357	2026-04-05T02:04:50	7.1	93
165358	2026-04-05T02:14:50	7	92.5
165359	2026-04-05T02:24:50	7	93
165360	2026-04-05T02:34:50	6.9	93
165361	2026-04-05T02:44:50	7	93
165362	2026-04-05T02:54:50	6.9	93
165363	2026-04-05T03:04:50	6.9	92.5
165364	2026-04-05T03:14:50	6.8	93
165365	2026-04-05T03:24:50	6.9	93
165366	2026-04-05T03:34:50	6.8	93
165367	2026-04-05T03:44:50	6.8	94
165368	2026-04-05T03:54:50	6.7	94
165369	2026-04-05T04:04:50	6.7	94.5
165370	2026-04-05T04:14:50	6.6	95
165371	2026-04-05T04:24:50	6.7	95
165372	2026-04-05T04:34:50	6.5	95.5
165373	2026-04-05T04:44:50	6.6	97
165374	2026-04-05T04:54:50	6.5	97
165375	2026-04-05T05:04:50	6.6	98
165376	2026-04-05T05:14:50	6.5	98
165377	2026-04-05T05:24:50	6.7	97.5
165378	2026-04-05T05:34:50	6.7	97.5
165379	2026-04-05T05:44:50	6.8	97
165380	2026-04-05T05:54:50	7	97
165381	2026-04-05T06:04:50	7.1	97
165382	2026-04-05T06:14:50	7.5	97.5
165383	2026-04-05T06:24:50	8	98.5
165384	2026-04-05T06:34:50	8.2	98.5
165385	2026-04-05T06:44:50	8.6	98.5
165386	2026-04-05T06:54:50	8.9	99
165387	2026-04-05T07:04:49	9.3	98
165388	2026-04-05T07:14:49	9.5	98
165389	2026-04-05T07:24:49	10	96.5
165390	2026-04-05T07:34:49	10.3	95
165391	2026-04-05T07:44:49	10.5	95
165392	2026-04-05T07:54:49	10.8	96
165393	2026-04-05T08:04:49	11.1	96
165394	2026-04-05T08:14:49	11.7	94
165395	2026-04-05T08:24:49	14.2	79
165396	2026-04-05T08:34:49	15.3	75
165397	2026-04-05T08:44:49	16	72
165398	2026-04-05T08:54:49	16.5	70.5
165399	2026-04-05T09:04:49	17	67.5
165400	2026-04-05T09:14:49	17.3	67.5
165401	2026-04-05T09:24:49	17.6	66
165402	2026-04-05T09:34:49	17.7	64
165403	2026-04-05T09:44:49	18.1	63
165404	2026-04-05T09:54:49	18.2	60.5
165405	2026-04-05T10:04:49	18.5	59
165406	2026-04-05T10:14:49	18.5	55
165407	2026-04-05T10:24:49	18.6	57.5
165408	2026-04-05T10:34:49	18.9	54
165409	2026-04-05T10:44:49	19.2	53
165410	2026-04-05T10:54:49	19.5	52
165411	2026-04-05T11:04:49	19.7	51.5
165412	2026-04-05T11:14:49	20	50
165413	2026-04-05T11:24:49	20.2	50.5
165414	2026-04-05T11:34:49	20.6	49.5
165415	2026-04-05T11:44:49	20.9	47.5
165416	2026-04-05T11:54:49	21.1	46.5
165417	2026-04-05T12:04:49	21.4	44
165418	2026-04-05T12:14:49	21.8	47
165419	2026-04-05T12:24:49	22.7	45.5
165420	2026-04-05T12:34:49	23.2	43.5
165421	2026-04-05T12:44:49	23.6	45
165422	2026-04-05T12:54:49	24.3	44
165423	2026-04-05T13:04:49	24.7	42
165424	2026-04-05T13:14:49	25.5	40.5
165425	2026-04-05T13:24:49	25.3	42
165426	2026-04-05T13:34:49	24.7	41.5
165427	2026-04-05T13:44:49	24.6	42
165428	2026-04-05T13:54:49	24.9	41
165429	2026-04-05T14:04:49	25	40.5
165430	2026-04-05T14:14:49	24.6	42
165431	2026-04-05T14:24:49	23.5	44
165432	2026-04-05T14:34:49	22.2	47.5
165433	2026-04-05T14:44:49	21.6	48.5
165434	2026-04-05T14:54:49	20.7	51
165435	2026-04-05T15:04:49	20.4	51.5
165436	2026-04-05T15:14:49	19.9	52.5
165437	2026-04-05T15:24:49	19.4	54
165438	2026-04-05T15:34:49	19.1	55.5
165439	2026-04-05T15:44:49	18.6	56.5
165440	2026-04-05T15:54:49	18.3	57
165441	2026-04-05T16:04:49	18	57
165442	2026-04-05T16:14:49	17.8	58
165443	2026-04-05T16:24:49	17.5	59
165444	2026-04-05T16:34:49	17.5	59
165445	2026-04-05T16:44:49	17.3	60
165446	2026-04-05T16:54:49	17.3	61
165447	2026-04-05T17:04:49	16.9	61.5
165448	2026-04-05T17:14:49	16.9	61.5
165449	2026-04-05T17:24:49	16.6	62
165450	2026-04-05T17:34:49	16.4	62.5
165451	2026-04-05T17:44:49	16.3	63
165452	2026-04-05T17:54:49	16.1	63
165453	2026-04-05T18:04:49	16	63.5
165454	2026-04-05T18:14:49	15.8	63.5
165455	2026-04-05T18:24:48	15.7	64
165456	2026-04-05T18:34:48	15.5	64.5
165457	2026-04-05T18:44:48	15.4	63.5
165458	2026-04-05T18:54:48	15.4	63.5
165459	2026-04-05T19:04:48	15.2	64
165460	2026-04-05T19:14:48	15.2	64.5
165461	2026-04-05T19:24:48	15.1	64.5
165462	2026-04-05T19:34:48	15	65.5
165463	2026-04-05T19:44:49	14.9	66
165464	2026-04-05T19:54:48	14.9	67
165465	2026-04-05T20:04:48	14.9	67
165466	2026-04-05T20:14:48	14.9	67.5
165467	2026-04-05T20:24:48	14.9	68
165468	2026-04-05T20:34:49	14.8	68.5
165469	2026-04-05T20:44:49	14.8	69
165470	2026-04-05T20:54:48	14.7	69
165471	2026-04-05T21:04:48	14.7	69.5
165472	2026-04-05T21:14:48	14.7	70
165473	2026-04-05T21:24:48	14.6	70
165474	2026-04-05T21:34:48	14.5	70
165475	2026-04-05T21:44:48	14.5	70.5
165476	2026-04-05T21:54:48	14.1	71
165477	2026-04-05T22:04:48	14	71.5
165478	2026-04-05T22:14:48	13.9	72.5
165479	2026-04-05T22:24:48	13.8	73
165480	2026-04-05T22:34:48	13.6	71
165481	2026-04-05T22:44:48	13.4	69.5
165482	2026-04-05T22:54:48	13.2	68
165483	2026-04-05T23:04:48	13	64.5
165484	2026-04-05T23:14:48	12.9	63
165485	2026-04-05T23:24:48	12.7	62.5
165486	2026-04-05T23:34:48	12.7	62
165487	2026-04-05T23:44:48	12.7	62
165488	2026-04-05T23:54:48	12.8	62
165489	2026-04-06T00:04:48	12.6	62
165490	2026-04-06T00:14:48	12.4	64
165491	2026-04-06T00:24:48	12	67.5
165492	2026-04-06T00:34:48	11.7	71
165493	2026-04-06T00:44:48	11.6	71.5
165494	2026-04-06T00:54:48	11.7	71.5
165495	2026-04-06T01:04:48	11.7	70.5
165496	2026-04-06T01:14:48	11.9	70.5
165497	2026-04-06T01:24:48	12	70.5
165498	2026-04-06T01:34:48	11.9	69.5
165499	2026-04-06T01:44:48	11.9	69
165500	2026-04-06T01:54:48	11.9	70.5
165501	2026-04-06T02:04:48	11.8	73
165502	2026-04-06T02:14:48	11.8	74
165503	2026-04-06T02:24:48	11.7	73
165504	2026-04-06T02:34:48	11.7	73
165505	2026-04-06T02:44:48	11.5	73.5
165506	2026-04-06T02:54:48	11.4	74.5
165507	2026-04-06T03:04:48	11.1	75.5
165508	2026-04-06T03:14:48	11.1	75
165509	2026-04-06T03:24:48	11	75
165510	2026-04-06T03:34:48	11	75.5
165511	2026-04-06T03:44:48	10.9	75
165512	2026-04-06T03:54:48	10.9	73.5
165513	2026-04-06T04:04:48	10.8	70
165514	2026-04-06T04:14:48	10.9	74
165515	2026-04-06T04:24:48	10.7	74
165516	2026-04-06T04:34:48	10.7	74
165517	2026-04-06T04:44:48	10.3	76.5
165518	2026-04-06T04:54:48	10.1	76.5
165519	2026-04-06T05:04:48	9.8	77
165520	2026-04-06T05:14:48	9.6	78.5
165521	2026-04-06T05:24:48	9.3	78.5
165522	2026-04-06T05:34:48	9.2	78.5
165523	2026-04-06T05:44:48	9.1	78
165524	2026-04-06T05:54:48	9	76.5
165525	2026-04-06T06:04:48	9	76
165526	2026-04-06T06:14:48	9.2	77
165527	2026-04-06T06:24:48	9.4	74.5
165528	2026-04-06T06:34:48	9.5	74
165529	2026-04-06T06:44:48	9.5	73
165530	2026-04-06T06:54:48	9.7	75.5
165531	2026-04-06T07:04:48	9.8	72.5
165532	2026-04-06T07:14:48	10.1	73
165533	2026-04-06T07:24:48	10.3	70
165534	2026-04-06T07:34:48	10.4	70.5
165535	2026-04-06T07:44:48	10.6	68.5
165536	2026-04-06T07:54:48	10.8	65.5
165537	2026-04-06T08:04:48	11	65.5
165538	2026-04-06T08:14:48	11.3	66
165539	2026-04-06T08:24:48	11.5	63
165540	2026-04-06T08:34:48	11.6	62
165541	2026-04-06T08:44:48	11.9	60
165542	2026-04-06T08:54:47	12.1	61
165543	2026-04-06T09:04:47	12.4	56.5
165544	2026-04-06T09:14:47	12.7	57
165545	2026-04-06T09:24:47	13	57
165546	2026-04-06T09:34:47	13.1	55.5
165547	2026-04-06T09:44:47	13.2	57
165548	2026-04-06T09:54:47	13.5	55.5
165549	2026-04-06T10:04:47	13.8	56.5
165550	2026-04-06T10:14:47	13.8	56.5
165551	2026-04-06T10:24:47	14	54.5
165552	2026-04-06T10:34:47	14.4	54
165553	2026-04-06T10:44:47	14.9	53.5
165554	2026-04-06T10:54:47	15	53.5
165555	2026-04-06T11:04:47	15.4	53
165556	2026-04-06T11:14:47	15.5	52.5
165557	2026-04-06T11:24:47	15.6	51.5
165558	2026-04-06T11:34:47	15.8	52
165559	2026-04-06T11:44:47	16.1	52.5
165560	2026-04-06T11:54:47	16.7	50.5
165561	2026-04-06T12:04:47	16.9	50.5
165562	2026-04-06T12:14:47	18.1	48.5
165563	2026-04-06T12:24:47	21	42.5
165564	2026-04-06T12:34:47	22.7	40
165565	2026-04-06T12:44:47	23.8	37.5
165566	2026-04-06T12:54:47	24.8	36
165567	2026-04-06T13:04:47	24.1	35.5
165568	2026-04-06T13:14:47	26.1	34
165569	2026-04-06T13:24:47	27.3	34
165570	2026-04-06T13:34:47	29.1	31.5
165571	2026-04-06T13:44:47	28.4	31.5
165572	2026-04-06T13:54:47	28	32
165573	2026-04-06T14:04:47	29.5	29.5
165574	2026-04-06T14:14:47	30.6	28.5
165575	2026-04-06T14:24:47	31	27.5
165576	2026-04-06T14:34:47	29.6	27.5
165577	2026-04-06T14:44:47	29.7	29.5
165578	2026-04-06T14:54:47	29.9	29.5
165579	2026-04-06T15:04:47	30.4	28
165580	2026-04-06T15:14:47	30.6	27.5
165581	2026-04-06T15:24:47	30.9	27.5
165582	2026-04-06T15:34:47	30.9	29
165583	2026-04-06T15:44:47	31.9	27
165584	2026-04-06T15:54:47	32.2	26
165585	2026-04-06T16:04:47	32.8	27
165586	2026-04-06T16:14:47	31.9	26.5
165587	2026-04-06T16:24:47	31.7	25.5
165588	2026-04-06T16:34:47	30.6	27.5
165589	2026-04-06T16:44:47	29.8	29
165590	2026-04-06T16:54:47	28.6	30
165591	2026-04-06T17:04:47	27.3	30.5
165592	2026-04-06T17:14:47	26.2	31.5
165593	2026-04-06T17:24:47	25.6	34
165594	2026-04-06T17:34:47	24.4	35
165595	2026-04-06T17:44:47	23.5	36.5
165596	2026-04-06T17:54:47	22.4	39.5
165597	2026-04-06T18:04:47	21.4	39.5
165598	2026-04-06T18:14:47	20.8	41
165599	2026-04-06T18:24:47	20.2	43
165600	2026-04-06T18:34:47	19.6	44
165601	2026-04-06T18:44:47	18.9	47
165602	2026-04-06T18:54:47	18.5	48
165603	2026-04-06T19:04:47	18.1	49.5
165604	2026-04-06T19:14:47	17.7	50
165605	2026-04-06T19:24:47	17.1	51.5
165606	2026-04-06T19:34:47	16.7	52
165607	2026-04-06T19:44:47	16.4	51.5
165608	2026-04-06T19:54:47	15.9	52
165609	2026-04-06T20:04:47	15.7	53
165610	2026-04-06T20:14:46	15.3	53.5
165611	2026-04-06T20:24:46	14.8	55
165612	2026-04-06T20:34:46	14.6	55.5
165613	2026-04-06T20:44:46	14.3	56.5
165614	2026-04-06T20:54:46	13.8	57
165615	2026-04-06T21:04:46	13.6	58
165616	2026-04-06T21:14:46	13.4	58.5
165617	2026-04-06T21:24:46	13.1	60
165618	2026-04-06T21:34:46	12.7	61
165619	2026-04-06T21:44:46	12.2	61.5
165620	2026-04-06T21:54:46	12.1	63
165621	2026-04-06T22:04:46	11.9	63.5
165622	2026-04-06T22:14:46	11.6	64.5
165623	2026-04-06T22:24:46	11.7	64
165624	2026-04-06T22:34:46	11.2	65.5
165625	2026-04-06T22:44:46	11.2	66
165626	2026-04-06T22:54:46	10.8	66
165627	2026-04-06T23:04:46	10.5	67.5
165628	2026-04-06T23:14:46	10.4	67.5
165629	2026-04-06T23:24:46	10.4	67
165630	2026-04-06T23:34:46	9.7	68.5
165631	2026-04-06T23:44:46	9.4	69.5
165632	2026-04-06T23:54:46	9.5	69.5
165633	2026-04-07T00:14:46	9.3	70.5
165634	2026-04-07T00:24:46	9	71.5
165635	2026-04-07T00:34:46	8.9	72
165636	2026-04-07T00:44:46	8.8	71.5
165637	2026-04-07T00:54:46	8.8	72
165638	2026-04-07T01:04:46	8.6	72
165639	2026-04-07T01:14:46	8.5	72.5
165640	2026-04-07T01:24:46	8.5	72
165641	2026-04-07T01:34:46	8.4	72.5
165642	2026-04-07T01:44:46	8.1	73
165643	2026-04-07T01:54:46	8.1	73.5
165644	2026-04-07T02:04:46	7.9	73.5
165645	2026-04-07T02:14:46	7.9	74.5
165646	2026-04-07T02:24:46	7.8	74.5
165647	2026-04-07T02:34:46	7.6	74.5
165648	2026-04-07T02:44:46	7.5	74.5
165649	2026-04-07T02:54:46	7.5	75
165650	2026-04-07T03:04:46	7.5	75.5
165651	2026-04-07T03:14:46	7.4	76
165652	2026-04-07T03:24:46	7.3	77
165653	2026-04-07T03:34:46	7.1	76.5
165654	2026-04-07T03:44:46	6.9	77
165655	2026-04-07T03:54:46	6.9	77.5
165656	2026-04-07T04:04:46	6.8	78.5
165657	2026-04-07T04:14:46	6.5	78
165658	2026-04-07T04:24:46	6.5	77.5
165659	2026-04-07T04:34:46	6.4	78.5
165660	2026-04-07T04:54:46	6.3	78.5
165661	2026-04-07T05:04:46	6.2	79.5
165662	2026-04-07T05:14:46	6.2	79.5
165663	2026-04-07T05:24:46	6.3	79
165664	2026-04-07T05:34:46	6.2	79.5
165665	2026-04-07T05:44:46	6.2	79.5
165666	2026-04-07T05:54:46	6.3	79.5
165667	2026-04-07T06:04:46	6.6	79.5
165668	2026-04-07T06:14:46	6.7	79.5
165669	2026-04-07T06:24:46	7	78
165670	2026-04-07T06:34:46	7.2	77
165671	2026-04-07T06:44:46	7.5	77
165672	2026-04-07T06:54:46	7.8	76
165673	2026-04-07T07:04:46	8	76
165674	2026-04-07T07:14:46	8.2	75.5
165675	2026-04-07T07:24:46	8.5	75
165676	2026-04-07T07:34:46	8.9	75.5
165677	2026-04-07T07:44:46	9.1	75
165678	2026-04-07T07:54:46	9.3	75
165679	2026-04-07T08:04:46	9.7	73
165680	2026-04-07T08:14:46	9.9	74
165681	2026-04-07T08:24:46	10.4	71
165682	2026-04-07T08:34:46	10.8	72
165683	2026-04-07T08:44:46	11.3	68
165684	2026-04-07T08:54:46	11.5	66
165685	2026-04-07T09:04:46	11.8	66
165686	2026-04-07T09:14:46	12.2	64.5
165687	2026-04-07T09:24:46	12.5	65.5
165688	2026-04-07T09:34:46	12.8	63.5
165689	2026-04-07T09:44:46	13.2	63.5
165690	2026-04-07T09:54:46	13.5	60.5
165691	2026-04-07T10:04:46	13.8	60
165692	2026-04-07T10:14:46	14	59.5
165693	2026-04-07T10:24:46	14.2	57
165694	2026-04-07T10:34:46	14.5	57
165695	2026-04-07T10:44:46	14.8	55.5
165696	2026-04-07T10:54:46	15	55.5
165697	2026-04-07T11:04:46	15.3	54.5
165698	2026-04-07T11:14:46	15.5	54
165699	2026-04-07T11:24:46	15.8	51.5
165700	2026-04-07T11:34:46	16.1	53
165701	2026-04-07T11:44:46	16.5	51
165702	2026-04-07T11:54:46	17.1	50
165703	2026-04-07T12:04:46	17.5	48.5
165704	2026-04-07T12:14:45	18.8	49.5
165705	2026-04-07T12:24:45	21.2	43
165706	2026-04-07T12:34:45	23	39
165707	2026-04-07T12:44:45	24.3	38.5
165708	2026-04-07T12:54:45	25.5	36.5
165709	2026-04-07T13:04:45	25.9	34
165710	2026-04-07T13:14:45	26.8	34.5
165711	2026-04-07T13:24:45	26.4	34
165712	2026-04-07T13:34:45	28	32
165713	2026-04-07T13:44:45	28.8	30
165714	2026-04-07T13:54:45	29.3	32
165715	2026-04-07T14:04:45	30.2	28.5
165716	2026-04-07T14:14:45	30.8	28
165717	2026-04-07T14:24:45	31.1	29
165718	2026-04-07T14:34:45	31.9	28.5
165719	2026-04-07T14:44:45	32	26.5
165720	2026-04-07T14:54:45	32.2	26
165721	2026-04-07T15:04:45	32.7	25.5
165722	2026-04-07T15:14:45	32.6	26
165723	2026-04-07T15:24:45	33	26
165724	2026-04-07T15:34:45	32.8	25
165725	2026-04-07T15:44:45	33	24.5
165726	2026-04-07T15:54:45	33.6	23
165727	2026-04-07T16:04:45	33.1	25
165728	2026-04-07T16:14:45	33.4	23
165729	2026-04-07T16:24:45	33.2	23
165730	2026-04-07T16:34:45	32.8	22.5
165731	2026-04-07T16:44:45	32.1	24
165732	2026-04-07T16:54:45	31.2	25
165733	2026-04-07T17:04:45	30.8	24.5
165734	2026-04-07T17:14:45	29	27
165735	2026-04-07T17:24:45	28.7	25.5
165736	2026-04-07T17:34:45	26.2	28
165737	2026-04-07T17:44:45	25	31
165738	2026-04-07T17:54:45	23.8	32.5
165739	2026-04-07T18:04:45	23.1	33.5
165740	2026-04-07T18:14:45	22.3	35.5
165741	2026-04-07T18:24:45	21.8	35
165742	2026-04-07T18:34:45	21.3	36
165743	2026-04-07T18:44:45	20.7	36
165744	2026-04-07T18:54:45	20.4	37.5
165745	2026-04-07T19:04:45	19.8	38.5
165746	2026-04-07T19:14:45	19	41.5
165747	2026-04-07T19:24:45	18.7	42.5
165748	2026-04-07T19:34:45	18.4	43.5
165749	2026-04-07T19:44:45	18	45
165750	2026-04-07T19:54:45	17.5	46
165751	2026-04-07T20:04:45	17.1	46.5
165752	2026-04-07T20:14:45	16.9	47
165753	2026-04-07T20:24:45	16.6	48.5
165754	2026-04-07T20:34:45	16.4	48.5
165755	2026-04-07T20:44:45	15.6	50
165756	2026-04-07T21:04:45	14.9	52
165757	2026-04-07T21:14:45	14.7	52
165758	2026-04-07T21:24:45	14.3	54.5
165759	2026-04-07T21:34:45	14.3	54.5
165760	2026-04-07T21:44:45	14	54
165761	2026-04-07T21:55:06	13.7	54
165762	2026-04-07T22:04:45	13.5	55.5
165763	2026-04-07T22:14:45	13.2	56.5
165764	2026-04-07T22:24:45	12.9	56
165765	2026-04-07T22:34:45	12.7	57.5
165766	2026-04-07T22:44:45	12.4	57.5
165767	2026-04-07T22:54:45	12.4	56.5
165768	2026-04-07T23:04:45	12.2	56.5
165769	2026-04-07T23:14:45	12	57.5
165770	2026-04-07T23:24:44	11.8	57.5
165771	2026-04-07T23:34:44	11.6	58.5
165772	2026-04-07T23:44:44	11.5	59
165773	2026-04-07T23:54:44	11.4	58.5
165774	2026-04-08T00:04:44	11.4	58.5
165775	2026-04-08T00:14:44	11.3	59
165776	2026-04-08T00:24:44	11.2	60
165777	2026-04-08T00:34:44	10.9	62
165778	2026-04-08T00:44:44	10.7	61
165779	2026-04-08T00:54:44	10.7	61.5
165780	2026-04-08T01:04:44	10.6	61
165781	2026-04-08T01:14:44	10.4	62
165782	2026-04-08T01:24:44	10.2	63
165783	2026-04-08T01:34:44	10	64
165784	2026-04-08T01:44:44	10.1	62.5
165785	2026-04-08T01:54:44	9.8	63
165786	2026-04-08T02:04:44	9.6	63.5
165787	2026-04-08T02:14:44	9.5	63.5
165788	2026-04-08T02:24:44	9.6	63.5
165789	2026-04-08T02:34:44	9.4	64
165790	2026-04-08T02:44:44	9.4	64.5
165791	2026-04-08T02:54:44	9.2	64.5
165792	2026-04-08T03:04:44	9.2	64.5
165793	2026-04-08T03:14:44	9.3	65
165794	2026-04-08T03:24:44	9.1	64.5
165795	2026-04-08T03:34:44	9.2	65.5
165796	2026-04-08T03:44:44	8.9	65.5
165797	2026-04-08T03:54:44	8.8	67
165798	2026-04-08T04:04:44	8.7	67.5
165799	2026-04-08T04:14:44	8.6	67.5
165800	2026-04-08T04:24:44	8.4	68
165801	2026-04-08T04:34:44	8.3	68
165802	2026-04-08T04:44:44	8.3	68
165803	2026-04-08T04:54:44	8.2	68.5
165804	2026-04-08T05:04:44	8.1	69
165805	2026-04-08T05:14:44	8.1	69
165806	2026-04-08T05:24:44	8.2	68
165807	2026-04-08T05:34:44	8.2	69.5
165808	2026-04-08T05:44:44	8.3	69
165809	2026-04-08T05:54:44	8.5	68
165810	2026-04-08T06:04:44	8.6	68
165811	2026-04-08T06:14:44	8.7	69
165812	2026-04-08T06:24:44	8.8	68
165813	2026-04-08T06:34:44	8.9	67
165814	2026-04-08T06:44:44	8.9	67
165815	2026-04-08T06:54:44	9.2	66.5
165816	2026-04-08T07:04:44	9.4	66
165817	2026-04-08T07:14:44	9.6	64.5
165818	2026-04-08T07:24:44	10.1	64.5
165819	2026-04-08T07:34:44	10.2	64
165820	2026-04-08T07:44:44	10.5	63
165821	2026-04-08T07:54:44	10.8	61.5
165822	2026-04-08T08:04:44	11.3	60.5
165823	2026-04-08T08:14:44	11.6	59
165824	2026-04-08T08:24:44	11.7	58
165825	2026-04-08T08:34:44	12	59.5
165826	2026-04-08T08:44:44	12.4	57.5
165827	2026-04-08T08:54:44	12.6	56
165828	2026-04-08T09:04:44	13.1	53.5
165829	2026-04-08T09:14:44	13	56.5
165830	2026-04-08T09:24:44	13.3	54
165831	2026-04-08T09:34:44	13.6	55
165832	2026-04-08T09:44:44	13.8	53
165833	2026-04-08T09:54:44	14.1	54.5
165834	2026-04-08T10:04:44	14.5	51.5
165835	2026-04-08T10:14:44	15	52.5
165836	2026-04-08T10:24:44	15.2	51
165837	2026-04-08T10:34:44	15.3	51
165838	2026-04-08T10:44:44	15.6	49.5
165839	2026-04-08T10:54:44	16.1	47
165840	2026-04-08T11:04:44	16.2	45.5
165841	2026-04-08T11:14:44	16.5	47
165842	2026-04-08T11:24:44	16.8	46.5
165843	2026-04-08T11:34:44	17.1	46
165844	2026-04-08T11:44:44	17.5	45
165845	2026-04-08T11:54:44	18.1	43
165846	2026-04-08T12:04:44	18.8	42.5
165847	2026-04-08T12:14:44	20.2	43
165848	2026-04-08T12:24:44	22.6	40
165849	2026-04-08T12:34:44	24.6	34
165850	2026-04-08T12:44:44	26.2	34
165851	2026-04-08T12:54:44	27.1	30.5
165852	2026-04-08T13:04:44	28.1	29.5
165853	2026-04-08T13:14:44	29.3	28.5
165854	2026-04-08T13:24:44	29.8	27.5
165855	2026-04-08T13:34:44	30.4	27
165856	2026-04-08T13:44:44	31.4	26.5
165857	2026-04-08T13:54:43	31	27
165858	2026-04-08T14:04:43	32.1	25.5
165859	2026-04-08T14:14:43	32.3	24.5
165860	2026-04-08T14:24:43	32.8	23.5
165861	2026-04-08T14:34:43	33	23.5
165862	2026-04-08T14:44:43	33.1	22
165863	2026-04-08T14:54:43	33	22.5
165864	2026-04-08T15:04:43	33.3	23.5
165865	2026-04-08T15:14:43	33.6	22.5
165866	2026-04-08T15:24:43	34	20.5
165867	2026-04-08T15:34:43	33.9	21
165868	2026-04-08T15:44:43	33.9	20.5
165869	2026-04-08T15:54:43	34.2	22
165870	2026-04-08T16:04:43	34	21.5
165871	2026-04-08T16:24:43	33.5	21
165872	2026-04-08T16:34:43	33.3	22
165873	2026-04-08T16:44:43	32.7	21.5
165874	2026-04-08T16:49:50	32.4	21.5
165875	2026-04-08T16:59:50	31.7	22
165876	2026-04-08T17:09:50	30.7	22.5
165877	2026-04-08T17:19:50	29.6	24
165878	2026-04-08T17:29:50	28.5	24.5
165879	2026-04-08T17:39:50	26.3	26.5
165880	2026-04-08T17:49:50	25.2	29
165881	2026-04-08T17:59:50	24.2	30
165882	2026-04-08T18:09:50	23.1	31
165883	2026-04-08T18:19:50	22.3	31.5
165884	2026-04-08T18:29:50	21.5	33
165885	2026-04-08T18:39:50	20.9	34
165886	2026-04-08T18:49:50	20.3	33
165887	2026-04-08T18:59:50	19.8	33
165888	2026-04-08T19:09:50	19.4	34.5
165889	2026-04-08T19:19:50	19	34.5
165890	2026-04-08T19:29:50	18.7	34.5
165891	2026-04-08T19:39:50	17.9	33.5
165892	2026-04-08T19:49:50	17.8	34
165893	2026-04-08T19:59:50	17.6	34.5
165894	2026-04-08T20:09:50	17.2	36.5
165895	2026-04-08T20:19:50	17	32.5
165896	2026-04-08T20:29:50	16.8	33
165897	2026-04-08T20:39:50	16.6	37.5
165898	2026-04-08T20:49:50	16.1	36
165899	2026-04-08T20:59:50	16	36
165900	2026-04-08T21:09:50	15.8	34
165901	2026-04-08T21:19:50	15.4	34.5
165902	2026-04-08T21:29:50	15.3	34.5
165903	2026-04-08T21:39:50	15.2	36
165904	2026-04-08T21:49:50	14.9	38
165905	2026-04-08T21:59:50	14.4	42
165906	2026-04-08T22:09:50	14	44
165907	2026-04-08T22:19:50	13.9	44
165908	2026-04-08T22:29:50	13.5	42
165909	2026-04-08T22:39:50	13.4	45.5
165910	2026-04-08T22:49:50	12.7	47
165911	2026-04-08T22:59:50	12.6	47.5
165912	2026-04-08T23:09:50	12.4	49
165913	2026-04-08T23:19:50	12.3	47.5
165914	2026-04-08T23:29:50	12.1	49.5
165915	2026-04-08T23:39:50	12	50.5
165916	2026-04-08T23:49:50	11.8	51
165917	2026-04-08T23:59:50	11.8	52.5
165918	2026-04-09T00:09:50	11.5	50
165919	2026-04-09T00:19:50	11.3	53.5
165920	2026-04-09T00:29:50	11.1	53.5
165921	2026-04-09T00:39:50	10.8	54.5
165922	2026-04-09T00:49:50	10.7	55
165923	2026-04-09T00:59:50	10.4	55.5
165924	2026-04-09T01:09:50	10.4	56.5
165925	2026-04-09T01:19:50	10	57.5
165926	2026-04-09T01:29:49	10	58
165927	2026-04-09T01:39:49	9.8	58
165928	2026-04-09T01:49:49	9.7	58
165929	2026-04-09T01:59:49	9.4	59.5
165930	2026-04-09T02:09:49	9.2	59.5
165931	2026-04-09T02:19:49	9.1	60.5
165932	2026-04-09T02:29:49	9	60.5
165933	2026-04-09T02:39:49	8.7	60.5
165934	2026-04-09T02:49:49	8.5	62
165935	2026-04-09T02:59:49	8.4	63
165936	2026-04-09T03:09:49	8	64
165937	2026-04-09T03:19:50	8	64
165938	2026-04-09T03:29:49	7.9	65.5
165939	2026-04-09T03:39:49	7.6	66
165940	2026-04-09T03:49:49	7.4	66.5
165941	2026-04-09T03:59:49	7.2	69
165942	2026-04-09T04:09:49	7.2	68
165943	2026-04-09T04:19:49	7.1	68
165944	2026-04-09T04:29:49	6.9	70
165945	2026-04-09T04:39:49	6.8	70.5
165946	2026-04-09T04:49:49	6.7	71
165947	2026-04-09T04:59:49	6.6	70.5
165948	2026-04-09T05:09:49	6.6	70.5
165949	2026-04-09T05:19:49	6.6	72
165950	2026-04-09T05:29:49	6.6	72.5
165951	2026-04-09T05:39:49	6.8	72.5
165952	2026-04-09T05:49:49	6.8	72.5
165953	2026-04-09T05:59:49	7	74
165954	2026-04-09T06:09:49	6.9	72
165955	2026-04-09T06:19:49	7.1	73
165956	2026-04-09T06:29:49	7.3	72
165957	2026-04-09T06:39:49	7.4	70.5
165958	2026-04-09T06:49:49	7.6	71
165959	2026-04-09T06:59:49	7.9	70
165960	2026-04-09T07:09:49	8.2	67.5
165961	2026-04-09T07:19:49	8.8	66
165962	2026-04-09T07:29:49	9.1	64.5
165963	2026-04-09T07:39:49	9.4	62.5
165964	2026-04-09T07:49:49	9.4	64.5
165965	2026-04-09T07:59:49	9.5	61.5
165966	2026-04-09T08:09:49	9.7	61.5
165967	2026-04-09T08:19:49	10	61
165968	2026-04-09T08:29:49	10.3	62.5
165969	2026-04-09T08:39:49	10.5	60
165970	2026-04-09T08:49:49	10.8	59
165971	2026-04-09T08:59:49	11.1	57
165972	2026-04-09T09:09:49	11.4	58.5
165973	2026-04-09T09:29:49	12.2	55
165974	2026-04-09T09:39:49	12.5	55
165975	2026-04-09T09:49:49	12.7	54.5
165976	2026-04-09T09:59:49	12.9	54
165977	2026-04-09T10:09:49	13.1	55.5
165978	2026-04-09T10:19:49	13.5	57
165979	2026-04-09T10:29:49	13.7	53.5
165980	2026-04-09T10:39:49	14.1	54
165981	2026-04-09T10:49:49	14.2	53.5
165982	2026-04-09T10:59:49	14.6	53.5
165983	2026-04-09T11:09:49	14.9	53
165984	2026-04-09T11:19:49	15.3	51
165985	2026-04-09T11:29:49	15.7	51
165986	2026-04-09T11:39:49	16.1	49.5
165987	2026-04-09T11:49:49	16.6	50.5
165988	2026-04-09T11:59:49	17.4	46
165989	2026-04-09T12:09:49	18.2	47
165990	2026-04-09T12:19:49	20.8	42
165991	2026-04-09T12:29:49	23	37.5
165992	2026-04-09T12:39:49	23.8	33.5
165993	2026-04-09T12:49:49	25.6	31
165994	2026-04-09T12:59:49	25.3	31
165995	2026-04-09T13:09:49	27.1	31.5
165996	2026-04-09T13:19:49	27.7	29.5
165997	2026-04-09T13:29:49	27.8	28
165998	2026-04-09T13:39:49	29.5	26
165999	2026-04-09T13:49:49	30.8	26.5
166000	2026-04-09T13:59:49	30.8	25.5
166001	2026-04-09T14:09:49	31.7	25.5
166002	2026-04-09T14:19:49	32.8	24.5
166003	2026-04-09T14:29:49	32.7	24.5
166004	2026-04-09T14:39:49	33.5	23.5
166005	2026-04-09T14:49:49	34	22
166006	2026-04-09T14:59:49	32.8	22
166007	2026-04-09T15:09:49	34.3	21.5
166008	2026-04-09T15:19:49	34.3	22
166009	2026-04-09T15:29:49	35	22
166010	2026-04-09T15:39:49	35.5	21
166011	2026-04-09T15:49:49	34.4	21.5
166012	2026-04-09T15:59:49	33.9	22.5
166013	2026-04-09T16:09:48	34.1	23
166014	2026-04-09T16:19:48	34.4	22.5
166015	2026-04-09T16:29:48	34.4	22
166016	2026-04-09T16:39:48	32.8	24
166017	2026-04-09T16:49:48	32.1	24
166018	2026-04-09T16:59:48	29.8	25
166019	2026-04-09T17:09:48	29.3	27
166020	2026-04-09T17:19:48	29	26.5
166021	2026-04-09T17:29:48	28.3	27.5
166022	2026-04-09T17:39:48	26.7	30
166023	2026-04-09T17:49:48	25.5	31
166024	2026-04-09T17:59:48	24.8	33.5
166025	2026-04-09T18:09:48	23.8	34
166026	2026-04-09T18:19:48	23	38
166027	2026-04-09T18:29:48	22.3	41
166028	2026-04-09T18:39:48	21.9	43.5
166029	2026-04-09T18:49:48	21.1	45
166030	2026-04-09T18:59:48	20.7	45.5
166031	2026-04-09T19:09:48	20.3	45
166032	2026-04-09T19:19:48	19.6	45
166033	2026-04-09T19:29:48	18.5	45
166034	2026-04-09T19:39:48	18.4	46.5
166035	2026-04-09T19:49:48	18.1	47.5
166036	2026-04-09T19:59:48	18.1	46.5
166037	2026-04-09T20:09:48	17.6	47
166038	2026-04-09T20:19:48	17.3	49.5
166039	2026-04-09T20:29:48	17.1	50.5
166040	2026-04-09T20:39:48	16.8	51
166041	2026-04-09T20:49:48	16.6	51.5
166042	2026-04-09T20:59:48	16.2	53.5
166043	2026-04-09T21:09:48	16.1	54
166044	2026-04-09T21:19:48	15.9	54
166045	2026-04-09T21:29:48	15.5	56
166046	2026-04-09T21:39:48	15.2	57.5
166047	2026-04-09T21:49:48	14.9	59
166048	2026-04-09T21:59:48	14.7	59
166049	2026-04-09T22:09:48	14.6	58
166050	2026-04-09T22:19:48	14.4	59.5
166051	2026-04-09T22:29:48	14.1	60.5
166052	2026-04-09T22:39:48	14	61.5
166053	2026-04-09T22:49:48	13.8	62.5
166054	2026-04-09T22:59:48	13.7	62
166055	2026-04-09T23:09:48	13.6	64.5
166056	2026-04-09T23:20:08	13.4	62
166057	2026-04-09T23:29:48	13.3	63.5
166058	2026-04-09T23:39:48	13.2	63.5
166059	2026-04-09T23:49:48	13.1	64.5
166060	2026-04-09T23:59:48	13	65.5
166061	2026-04-10T00:09:48	12.9	66
166062	2026-04-10T00:19:48	13	65
166063	2026-04-10T00:29:48	12.9	65
166064	2026-04-10T00:39:48	12.8	65
166065	2026-04-10T00:49:48	12.8	66
166066	2026-04-10T00:59:48	12.7	68
166067	2026-04-10T01:09:48	12.7	67.5
166068	2026-04-10T01:19:48	12.7	69
166069	2026-04-10T01:29:48	12.7	67
166070	2026-04-10T01:39:48	12.5	68.5
166071	2026-04-10T01:49:48	11.4	89.5
166072	2026-04-10T01:59:48	10.7	100
166073	2026-04-10T02:09:48	10.9	100
166074	2026-04-10T02:19:48	10.7	100
166075	2026-04-10T02:29:48	10.5	100
166076	2026-04-10T02:39:48	10.6	100
166077	2026-04-10T02:49:48	10.8	100
166078	2026-04-10T02:59:48	10.8	100
166079	2026-04-10T03:09:48	11	100
166080	2026-04-10T03:19:48	11	100
166081	2026-04-10T03:29:48	11.1	100
166082	2026-04-10T03:39:48	10.9	100
166083	2026-04-10T03:49:48	10.9	100
166084	2026-04-10T03:59:48	10.9	100
166085	2026-04-10T04:09:48	10.8	100
166086	2026-04-10T04:19:47	10.5	100
166087	2026-04-10T04:29:48	10.6	100
166088	2026-04-10T04:39:47	10.7	100
166089	2026-04-10T04:49:47	10.9	100
166090	2026-04-10T04:59:47	10.7	100
166091	2026-04-10T05:09:47	10.7	100
166092	2026-04-10T05:19:47	10.8	100
166093	2026-04-10T05:29:47	10.9	100
166094	2026-04-10T05:39:47	11	100
166095	2026-04-10T05:49:47	11.1	100
166096	2026-04-10T05:59:47	11.2	100
166097	2026-04-10T06:09:47	11.3	100
166098	2026-04-10T06:19:47	11.4	100
166099	2026-04-10T06:29:47	11.3	100
166100	2026-04-10T06:39:47	11.4	100
166101	2026-04-10T06:49:47	11.3	100
166102	2026-04-10T06:59:47	11.4	100
166103	2026-04-10T07:09:47	11.2	100
166104	2026-04-10T07:19:47	10.9	100
166105	2026-04-10T07:29:48	10.8	100
166106	2026-04-10T07:39:47	10.8	100
166107	2026-04-10T07:49:47	10.9	100
166108	2026-04-10T07:59:47	10.9	100
166109	2026-04-10T08:09:47	11	100
166110	2026-04-10T08:19:47	11.1	100
166111	2026-04-10T08:29:47	11	100
166112	2026-04-10T08:39:47	11	100
166113	2026-04-10T08:49:47	11.2	100
166114	2026-04-10T08:59:47	11.4	100
166115	2026-04-10T09:09:47	11.5	100
166116	2026-04-10T09:19:47	11.7	100
166117	2026-04-10T09:29:47	12.1	100
166118	2026-04-10T09:39:47	12.4	100
166119	2026-04-10T09:49:47	12.9	100
166120	2026-04-10T09:59:47	12.8	100
166121	2026-04-10T10:09:47	13.1	100
166122	2026-04-10T10:19:47	13	100
166123	2026-04-10T10:29:47	13.3	100
166124	2026-04-10T10:39:47	13.5	100
166125	2026-04-10T10:49:47	13.4	100
166126	2026-04-10T10:59:47	13.9	100
166127	2026-04-10T11:09:47	14	100
166128	2026-04-10T11:19:47	14.1	100
166129	2026-04-10T11:29:47	14.3	100
166130	2026-04-10T11:39:47	14.9	100
166131	2026-04-10T11:49:47	14.4	100
166132	2026-04-10T11:59:47	15.8	100
166133	2026-04-10T12:09:47	16	100
166134	2026-04-10T12:19:47	16.1	100
166135	2026-04-10T12:29:47	16.2	100
166136	2026-04-10T12:39:47	16.4	100
166137	2026-04-10T12:49:47	16.5	100
166138	2026-04-10T12:59:47	16.8	100
166139	2026-04-10T13:09:47	16	100
166140	2026-04-10T13:19:47	16.6	100
166141	2026-04-10T13:29:47	16.8	100
166142	2026-04-10T13:39:47	16.9	100
166143	2026-04-10T13:49:47	16.7	100
166144	2026-04-10T13:59:47	16.1	100
166145	2026-04-10T14:09:47	16.3	100
166146	2026-04-10T14:19:47	16.1	100
166147	2026-04-10T14:29:47	15.7	100
166148	2026-04-10T14:39:47	15.6	100
166149	2026-04-10T14:49:47	15.8	100
166150	2026-04-10T14:59:47	16.3	94.5
166151	2026-04-10T15:09:47	16.6	52
166152	2026-04-10T15:19:47	16.3	48
166153	2026-04-10T15:29:47	16.8	50
166154	2026-04-10T15:39:47	16.7	48
166155	2026-04-10T15:49:47	16.4	47.5
166156	2026-04-10T15:59:47	16.2	47.5
166157	2026-04-10T16:09:47	15.8	48
166158	2026-04-10T16:19:47	15.8	51
166159	2026-04-10T16:29:47	15.6	49
166160	2026-04-10T16:39:47	15.4	53
166161	2026-04-10T16:49:47	15.4	55
166162	2026-04-10T16:59:47	15.2	54.5
166163	2026-04-10T17:09:47	14.9	56.5
166164	2026-04-10T17:19:47	14.7	57
166165	2026-04-10T17:29:46	14.6	58
166166	2026-04-10T17:39:46	14.3	61.5
166167	2026-04-10T17:49:46	14	60
166168	2026-04-10T17:59:46	13.8	60
166169	2026-04-10T18:09:46	13.6	60.5
166170	2026-04-10T18:19:46	13.3	58.5
166171	2026-04-10T18:29:46	13.2	58
166172	2026-04-10T18:39:46	13	59.5
166173	2026-04-10T18:49:46	12.8	61
166174	2026-04-10T18:59:46	12.8	62
166175	2026-04-10T19:09:46	12.7	61
166176	2026-04-10T19:19:46	12.6	62
166177	2026-04-10T19:29:46	12.4	63
166178	2026-04-10T19:39:46	12.2	64.5
166179	2026-04-10T19:49:46	11.9	62
166180	2026-04-10T19:59:46	11.7	65.5
166181	2026-04-10T20:09:46	11.7	67
166182	2026-04-10T20:19:46	11.6	67
166183	2026-04-10T20:29:46	11.4	67.5
166184	2026-04-10T20:39:46	11.4	68
166185	2026-04-10T20:49:46	11.2	69
166186	2026-04-10T20:59:46	11.1	68
166187	2026-04-10T21:09:46	10.9	69.5
166188	2026-04-10T21:19:46	10.7	70.5
166189	2026-04-10T21:29:46	10.5	71.5
166190	2026-04-10T21:39:46	10.4	72.5
166191	2026-04-10T21:49:46	10.3	73.5
166192	2026-04-10T21:59:46	10	74
166193	2026-04-10T22:09:46	10	73
166194	2026-04-10T22:19:46	10.2	73
166195	2026-04-10T22:29:46	9.9	73
166196	2026-04-10T22:39:46	9.7	74.5
166197	2026-04-10T22:49:46	9.8	73.5
166198	2026-04-10T22:59:46	9.7	73
166199	2026-04-10T23:09:46	9.7	72.5
166200	2026-04-10T23:19:46	9.8	73
166201	2026-04-10T23:29:46	9.5	72
166202	2026-04-10T23:39:46	9.5	72.5
166203	2026-04-10T23:49:46	9.2	72.5
166204	2026-04-10T23:59:46	9	73.5
166205	2026-04-11T00:09:46	8.7	75
166206	2026-04-11T00:19:46	8.4	76
166207	2026-04-11T00:29:46	8.4	76
166208	2026-04-11T00:39:46	8.4	76.5
166209	2026-04-11T00:49:46	8.1	78.5
166210	2026-04-11T00:59:46	7.9	80
166211	2026-04-11T01:09:46	7.8	80.5
166212	2026-04-11T01:19:46	7.8	80.5
166213	2026-04-11T01:29:46	7.7	82
166214	2026-04-11T01:39:46	7.4	82
166215	2026-04-11T01:49:46	7.4	82.5
166216	2026-04-11T01:59:46	7.2	83.5
166217	2026-04-11T02:09:46	7.3	83.5
166218	2026-04-11T02:19:46	7.1	84
166219	2026-04-11T02:29:46	6.9	84.5
166220	2026-04-11T02:39:46	6.9	84.5
166221	2026-04-11T02:49:46	6.9	84.5
166222	2026-04-11T02:59:46	6.8	85
166223	2026-04-11T03:09:46	6.7	85.5
166224	2026-04-11T03:19:46	6.5	86.5
166225	2026-04-11T03:29:46	6.3	87
166226	2026-04-11T03:39:46	6.5	86.5
166227	2026-04-11T03:49:46	6.4	85.5
166228	2026-04-11T03:59:46	6.1	87
166229	2026-04-11T04:09:46	6.1	87
166230	2026-04-11T04:19:46	6	86.5
166231	2026-04-11T04:29:46	5.7	87.5
166232	2026-04-11T04:39:46	5.6	88.5
166233	2026-04-11T04:49:46	5.7	89
166234	2026-04-11T04:59:46	5.7	89
166235	2026-04-11T05:09:46	5.8	88.5
166236	2026-04-11T05:19:46	5.8	88.5
166237	2026-04-11T05:29:46	5.8	89
166238	2026-04-11T05:39:46	6	88.5
166239	2026-04-11T05:49:46	6.4	88
166240	2026-04-11T05:59:46	6.4	88.5
166241	2026-04-11T06:09:46	6.4	88.5
166242	2026-04-11T06:19:46	6.6	88.5
166243	2026-04-11T06:29:46	6.8	88.5
166244	2026-04-11T06:39:46	7.2	87.5
166245	2026-04-11T06:49:46	7.6	87
166246	2026-04-11T06:59:46	7.9	86.5
166247	2026-04-11T07:09:46	8.2	86
166248	2026-04-11T07:19:46	8.4	85
166249	2026-04-11T07:29:46	8.5	85
166250	2026-04-11T07:39:46	8.6	86
166251	2026-04-11T07:49:46	8.7	86
166252	2026-04-11T07:59:46	9	86.5
166253	2026-04-11T08:09:46	9.2	86.5
166254	2026-04-11T08:19:46	9.5	86
166255	2026-04-11T08:29:46	10	85.5
166256	2026-04-11T08:39:46	10.3	83.5
166257	2026-04-11T08:49:46	10.6	85
166258	2026-04-11T08:59:46	10.9	84.5
166259	2026-04-11T09:09:46	11.3	85
166260	2026-04-11T09:19:46	12	84
166261	2026-04-11T09:29:46	12.2	82.5
166262	2026-04-11T09:39:46	12.8	80.5
166263	2026-04-11T09:49:46	13.2	80
166264	2026-04-11T09:59:46	13.8	80
166265	2026-04-11T10:09:46	14.1	77.5
166266	2026-04-11T10:19:46	14.5	77.5
166267	2026-04-11T10:29:46	15.1	76
166268	2026-04-11T10:39:45	15.3	76
166269	2026-04-11T10:49:45	15.5	75
166270	2026-04-11T10:59:45	15.9	72
166271	2026-04-11T11:09:45	16.3	73
166272	2026-04-11T11:19:45	16.6	70
166273	2026-04-11T11:29:45	17.1	70.5
166274	2026-04-11T11:39:45	17.5	69.5
166275	2026-04-11T11:49:45	18	69
166276	2026-04-11T11:59:45	18.6	68
166277	2026-04-11T12:09:45	19.5	64
166278	2026-04-11T12:19:45	22	58
166279	2026-04-11T12:29:45	24.4	52.5
166280	2026-04-11T12:39:45	26.2	48
166281	2026-04-11T12:49:45	26.9	44.5
166282	2026-04-11T12:59:45	27.9	44.5
166283	2026-04-11T13:09:45	28.5	42
166284	2026-04-11T13:19:45	29.1	41.5
166285	2026-04-11T13:29:45	29.9	40
166286	2026-04-11T13:39:45	31.1	38
166287	2026-04-11T13:49:45	30.2	38.5
166288	2026-04-11T13:59:45	31.6	37.5
166289	2026-04-11T14:09:45	30.4	37
166290	2026-04-11T14:19:45	29.5	40
166291	2026-04-11T14:29:45	28.7	41
166292	2026-04-11T14:39:45	28.5	40
166293	2026-04-11T14:49:45	27.7	43.5
166294	2026-04-11T14:59:45	27.3	44.5
166295	2026-04-11T15:09:45	27	45.5
166296	2026-04-11T15:19:45	26.6	46
166297	2026-04-11T15:29:45	26.7	45.5
166298	2026-04-11T15:39:45	26.9	45.5
166299	2026-04-11T15:49:45	25.8	46.5
166300	2026-04-11T15:59:45	25.2	48
166301	2026-04-11T16:09:45	24.4	49.5
166302	2026-04-11T16:19:45	23.8	52
166303	2026-04-11T16:29:45	23.1	53.5
166304	2026-04-11T16:39:45	22.8	53.5
166305	2026-04-11T16:49:45	22.5	54
166306	2026-04-11T16:59:45	22.3	53.5
166307	2026-04-11T17:09:45	21.9	53.5
166308	2026-04-11T17:19:45	21.5	54
166309	2026-04-11T17:29:45	19.4	80.5
166310	2026-04-11T17:39:45	18.9	70.5
166311	2026-04-11T17:49:45	19	69.5
166312	2026-04-11T17:59:45	19.3	72
166313	2026-04-11T18:09:45	19.3	72
166314	2026-04-11T18:19:45	19.1	69.5
166315	2026-04-11T18:29:45	18.8	70.5
166316	2026-04-11T18:39:45	18.7	71
166317	2026-04-11T18:49:45	18.9	71.5
166318	2026-04-11T18:59:45	18.7	73.5
166319	2026-04-11T19:09:45	18.6	74
166320	2026-04-11T19:19:45	18.5	74
166321	2026-04-11T19:29:45	18.3	75
166322	2026-04-11T19:39:45	18.1	76.5
166323	2026-04-11T19:49:45	18.1	76.5
166324	2026-04-11T19:59:45	18	76.5
166325	2026-04-11T20:09:45	17.7	77
166326	2026-04-11T20:19:45	17.5	77
166327	2026-04-11T20:29:45	17.4	77.5
166328	2026-04-11T20:39:45	17.3	78
166329	2026-04-11T20:49:45	17	79
166330	2026-04-11T20:59:45	16.8	80.5
166331	2026-04-11T21:09:44	16.7	82.5
166332	2026-04-11T21:19:44	15.7	90.5
166333	2026-04-11T21:29:45	15.2	98.5
166334	2026-04-11T21:39:44	14.9	100
166335	2026-04-11T21:49:44	14.8	100
166336	2026-04-11T21:59:44	14.6	100
166337	2026-04-11T22:09:44	14.5	99.5
166338	2026-04-11T22:19:44	14.5	99
166339	2026-04-11T22:29:44	14.6	99
166340	2026-04-11T22:39:44	14.4	98.5
166341	2026-04-11T22:49:44	14.4	100
166342	2026-04-11T22:59:44	14.1	100
166343	2026-04-11T23:09:44	14.1	100
166344	2026-04-11T23:19:44	13.8	100
166345	2026-04-11T23:29:44	13.7	100
166346	2026-04-11T23:39:44	13.7	100
166347	2026-04-11T23:49:44	13.5	100
166348	2026-04-11T23:59:44	13.4	100
166349	2026-04-12T00:09:44	13.3	100
166350	2026-04-12T00:19:44	13.2	100
166351	2026-04-12T00:29:44	13	100
166352	2026-04-12T00:39:44	12.9	100
166353	2026-04-12T00:49:44	12.7	100
166354	2026-04-12T00:59:44	12.6	100
166355	2026-04-12T01:09:44	12.6	100
166356	2026-04-12T01:19:44	12.5	100
166357	2026-04-12T01:29:44	12.3	100
166358	2026-04-12T01:39:44	12.1	100
166359	2026-04-12T01:49:44	11.7	100
166360	2026-04-12T01:59:44	11.2	100
166361	2026-04-12T02:09:44	11	100
166362	2026-04-12T02:19:44	10.7	100
166363	2026-04-12T02:29:44	10.5	100
166364	2026-04-12T02:39:44	10.1	100
166365	2026-04-12T02:49:44	9.9	100
166366	2026-04-12T02:59:44	9.8	100
166367	2026-04-12T03:09:44	9.6	100
166368	2026-04-12T03:19:44	9.6	100
166369	2026-04-12T03:29:44	9.6	100
166370	2026-04-12T03:39:44	9.4	100
166371	2026-04-12T03:49:44	9.2	100
166372	2026-04-12T03:59:44	9.2	100
166373	2026-04-12T04:09:44	9.2	100
166374	2026-04-12T04:19:44	9.3	100
166375	2026-04-12T04:29:44	9.4	100
166376	2026-04-12T04:39:44	9.4	100
166377	2026-04-12T04:49:44	9.4	100
166378	2026-04-12T04:59:44	9.4	100
166379	2026-04-12T05:09:44	9.4	100
166380	2026-04-12T05:19:44	9.3	100
166381	2026-04-12T05:29:44	9.3	100
166382	2026-04-12T05:39:44	9.4	100
166383	2026-04-12T05:49:44	9.4	100
166384	2026-04-12T05:59:44	9.3	100
166385	2026-04-12T06:09:44	9.3	100
166386	2026-04-12T06:19:44	9.4	100
166387	2026-04-12T06:29:44	9.5	100
166388	2026-04-12T06:39:44	9.5	100
166389	2026-04-12T06:49:44	9.5	100
166390	2026-04-12T06:59:44	9.6	100
166391	2026-04-12T07:09:44	9.4	100
166392	2026-04-12T07:19:44	9.8	100
166393	2026-04-12T07:29:44	9.9	100
166394	2026-04-12T07:39:44	9.8	100
166395	2026-04-12T07:49:44	9.7	100
166396	2026-04-12T07:59:44	9.7	100
166397	2026-04-12T08:09:44	9.8	100
166398	2026-04-12T08:19:44	9.9	100
166399	2026-04-12T08:29:44	9.9	100
166400	2026-04-12T08:39:44	10.2	100
166401	2026-04-12T08:59:44	10.1	100
166402	2026-04-12T09:09:44	10.2	100
166403	2026-04-12T09:19:44	10.6	100
166404	2026-04-12T09:29:44	10.9	100
166405	2026-04-12T09:39:44	11	100
166406	2026-04-12T09:49:44	10.9	100
166407	2026-04-12T10:00:02	10.8	100
166408	2026-04-12T10:09:44	11.2	100
166409	2026-04-12T10:19:44	10.8	100
166410	2026-04-12T10:29:44	11.1	100
166411	2026-04-12T10:39:44	10.8	100
166412	2026-04-12T10:49:44	10.7	100
166413	2026-04-12T10:59:44	10.9	100
166414	2026-04-12T11:09:44	11	100
166415	2026-04-12T11:19:44	11	100
166416	2026-04-12T11:29:44	11.3	100
166417	2026-04-12T11:39:44	11.6	100
166418	2026-04-12T11:49:44	11.8	100
166419	2026-04-12T11:59:44	12.2	100
166420	2026-04-12T12:09:43	12.3	100
166421	2026-04-12T12:19:44	12.4	100
166422	2026-04-12T12:29:43	12.1	100
166423	2026-04-12T12:39:43	11.7	100
166424	2026-04-12T12:49:43	12.2	100
166425	2026-04-12T12:59:43	12.4	100
166426	2026-04-12T13:09:43	12.4	100
166427	2026-04-12T13:19:43	12.5	100
166428	2026-04-12T13:29:43	12.3	100
166429	2026-04-12T13:39:43	12.2	100
166430	2026-04-12T13:49:43	12.1	100
166431	2026-04-12T13:59:43	12	100
166432	2026-04-12T14:09:43	11.9	98.5
166433	2026-04-12T14:19:43	12	92
166434	2026-04-12T14:29:43	12.1	90.5
166435	2026-04-12T14:39:43	11.8	88
166436	2026-04-12T14:49:43	11.8	88
166437	2026-04-12T14:59:43	11.8	87.5
166438	2026-04-12T15:09:43	11.5	84
166439	2026-04-12T15:19:43	11.6	86.5
166440	2026-04-12T15:29:43	11.5	90.5
166441	2026-04-12T15:39:43	11.3	87
166442	2026-04-12T15:49:43	11.1	84.5
166443	2026-04-12T15:59:43	10.8	86
166444	2026-04-12T16:09:43	10.8	88.5
166445	2026-04-12T16:19:43	10.6	89
166446	2026-04-12T16:29:43	10.5	88
166447	2026-04-12T16:39:43	10.5	90.5
166448	2026-04-12T16:49:43	10.3	87.5
166449	2026-04-12T16:59:43	10.3	90
166450	2026-04-12T17:09:43	10.2	91.5
166451	2026-04-12T17:19:43	10.1	90
166452	2026-04-12T17:29:43	9.7	92.5
166453	2026-04-12T17:39:43	9.5	90.5
166454	2026-04-12T17:49:43	9.4	91
166455	2026-04-12T17:59:43	9.3	93
166456	2026-04-12T18:09:43	9.3	95
166457	2026-04-12T18:19:43	9.2	95.5
166458	2026-04-12T18:29:43	9.1	95.5
166459	2026-04-12T18:39:43	9.1	97.5
166460	2026-04-12T18:49:43	9.2	98.5
166461	2026-04-12T18:59:43	9.1	98.5
166462	2026-04-12T19:09:43	8.9	95.5
166463	2026-04-12T19:19:43	8.8	96
166464	2026-04-12T19:29:43	8.9	97.5
166465	2026-04-12T19:39:43	8.8	96.5
166466	2026-04-12T19:49:43	8.8	97
166467	2026-04-12T19:59:43	8.7	96.5
166468	2026-04-12T20:09:43	8.6	96
166469	2026-04-12T20:19:43	8.7	96.5
166470	2026-04-12T20:29:43	8.5	96.5
166471	2026-04-12T20:39:43	8.6	97.5
166472	2026-04-12T20:49:43	8.5	97
166473	2026-04-12T20:59:43	8.5	97
166474	2026-04-12T21:09:43	8.4	97
166475	2026-04-12T21:19:43	8.6	98.5
166476	2026-04-12T21:29:43	8.5	97.5
166477	2026-04-12T21:39:43	8.5	96.5
166478	2026-04-12T21:49:43	8.5	96
166479	2026-04-12T21:59:43	8.5	97
166480	2026-04-12T22:09:43	8.6	96.5
166481	2026-04-12T22:19:43	8.4	96.5
166482	2026-04-12T22:29:43	8.4	96.5
166483	2026-04-12T22:39:43	8.5	97
166484	2026-04-12T22:49:43	8.4	97.5
166485	2026-04-12T22:59:43	8.5	97.5
166486	2026-04-12T23:09:43	8.6	97.5
166487	2026-04-12T23:19:43	8.3	97
166488	2026-04-12T23:29:43	8.5	96.5
166489	2026-04-12T23:39:43	8.4	96.5
166490	2026-04-12T23:49:43	8.5	97
166491	2026-04-12T23:59:43	8.4	98
166492	2026-04-13T00:09:43	8.4	97.5
166493	2026-04-13T00:19:43	8.3	97.5
166494	2026-04-13T00:29:43	8.3	98
166495	2026-04-13T00:39:43	8.4	98
166496	2026-04-13T00:49:43	8.3	98
166497	2026-04-13T00:59:43	8.3	98.5
166498	2026-04-13T01:09:43	8.2	98.5
166499	2026-04-13T01:19:43	8.3	99.5
166500	2026-04-13T01:29:43	8.3	99.5
166501	2026-04-13T01:39:43	8.3	100
166502	2026-04-13T01:49:43	8.3	100
166503	2026-04-13T01:59:43	8.4	100
166504	2026-04-13T02:09:43	8.4	100
166505	2026-04-13T02:19:43	8.5	100
166506	2026-04-13T02:29:43	8.5	100
166507	2026-04-13T02:39:43	8.3	100
166508	2026-04-13T02:49:43	8.4	100
166509	2026-04-13T02:59:43	8.4	100
166510	2026-04-13T03:09:43	8.4	100
166511	2026-04-13T03:19:43	8.4	100
166512	2026-04-13T03:29:43	8.4	99.5
166513	2026-04-13T03:39:43	8.4	99.5
166514	2026-04-13T03:49:43	8.4	99.5
166515	2026-04-13T03:59:43	8.4	100
166516	2026-04-13T04:09:43	8.3	100
166517	2026-04-13T04:19:43	8.4	100
166518	2026-04-13T04:29:43	8.6	100
166519	2026-04-13T04:39:42	8.5	100
166520	2026-04-13T04:49:42	8.5	100
166521	2026-04-13T04:59:42	8.3	100
166522	2026-04-13T05:09:42	8.5	100
166523	2026-04-13T05:19:42	8.4	100
166524	2026-04-13T05:29:42	8.4	100
166525	2026-04-13T05:39:42	8.5	100
166526	2026-04-13T05:49:42	8.5	100
166527	2026-04-13T05:59:42	8.5	100
166528	2026-04-13T06:09:42	8.5	100
166529	2026-04-13T06:19:42	8.4	100
166530	2026-04-13T06:29:42	8.5	100
166531	2026-04-13T06:39:42	8.5	100
166532	2026-04-13T06:49:42	8.6	100
166533	2026-04-13T06:59:42	8.6	100
166534	2026-04-13T07:09:42	8.6	100
166535	2026-04-13T07:19:42	8.7	100
166536	2026-04-13T07:29:42	8.8	100
166537	2026-04-13T07:39:42	8.8	100
166538	2026-04-13T07:49:42	8.8	100
166539	2026-04-13T07:59:42	9	100
166540	2026-04-13T08:09:42	9	99.5
166541	2026-04-13T08:19:42	9.1	100
166542	2026-04-13T08:29:42	9.2	100
166543	2026-04-13T08:39:42	9.3	99.5
166544	2026-04-13T08:49:42	9.3	100
166545	2026-04-13T08:59:42	9.5	100
166546	2026-04-13T09:09:42	9.6	100
166547	2026-04-13T09:19:42	9.4	100
166548	2026-04-13T09:29:42	9.6	100
166549	2026-04-13T09:39:42	9.9	100
166550	2026-04-13T09:49:42	10.1	100
166551	2026-04-13T09:59:42	10.2	100
166552	2026-04-13T10:09:42	10.3	99.5
166553	2026-04-13T10:19:42	10.4	99.5
166554	2026-04-13T10:29:42	10.7	98
166555	2026-04-13T10:39:42	10.8	96.5
166556	2026-04-13T10:49:42	10.6	96
166557	2026-04-13T10:59:42	11	96
166558	2026-04-13T11:09:42	11.1	95
166559	2026-04-13T11:19:42	11.2	94.5
166560	2026-04-13T11:29:42	11.1	95.5
166561	2026-04-13T11:49:42	11.4	96
166562	2026-04-13T11:59:42	11.7	94.5
166563	2026-04-13T12:09:42	11.7	95
166564	2026-04-13T12:19:42	11.7	93
166565	2026-04-13T12:29:42	11.8	93.5
166566	2026-04-13T12:39:42	11.6	91
166567	2026-04-13T12:49:42	11.5	93
166568	2026-04-13T12:59:42	11.3	92.5
166569	2026-04-13T13:09:42	11.4	91
166570	2026-04-13T13:19:42	11.3	90.5
166571	2026-04-13T13:29:42	11.2	92
166572	2026-04-13T13:39:42	11.2	91.5
166573	2026-04-13T13:49:42	11.2	90.5
166574	2026-04-13T13:59:42	11.1	91
166575	2026-04-13T14:09:42	11.1	91.5
166576	2026-04-13T14:19:42	11.1	91.5
166577	2026-04-13T14:29:42	10.8	96
166578	2026-04-13T14:39:42	10.7	96.5
166579	2026-04-13T14:49:42	10.7	96
166580	2026-04-13T14:59:42	10.5	94.5
166581	2026-04-13T15:09:42	10.5	96.5
166582	2026-04-13T15:19:42	10.4	98
166583	2026-04-13T15:29:42	10.2	98.5
166584	2026-04-13T15:39:42	10.4	100
166585	2026-04-13T15:49:42	10.4	100
166586	2026-04-13T15:59:42	10.5	100
166587	2026-04-13T16:09:42	10.5	99.5
166588	2026-04-13T16:19:42	10.4	99
166589	2026-04-13T16:29:42	10.5	99.5
166590	2026-04-13T16:39:42	10.2	99.5
166591	2026-04-13T16:49:42	10.2	99.5
166592	2026-04-13T16:59:42	10.2	100
166593	2026-04-13T17:09:42	10.2	100
166594	2026-04-13T17:19:42	9.9	100
166595	2026-04-13T17:29:42	9.8	100
166596	2026-04-13T17:39:42	9.7	100
166597	2026-04-13T17:49:42	9.7	100
166598	2026-04-13T17:59:42	9.7	100
166599	2026-04-13T18:09:42	9.6	100
166600	2026-04-13T18:19:42	9.5	100
166601	2026-04-13T18:29:42	9.5	100
166602	2026-04-13T18:39:42	9.4	100
166603	2026-04-13T18:49:42	9.5	100
166604	2026-04-13T18:59:42	9.4	100
166605	2026-04-13T19:09:42	9.5	100
166606	2026-04-13T19:19:42	9.4	100
166607	2026-04-13T19:29:42	9.2	100
166608	2026-04-13T19:39:42	9.3	100
166609	2026-04-13T19:49:42	9.4	100
166610	2026-04-13T19:59:42	9.4	100
166611	2026-04-13T20:09:42	9.5	100
166612	2026-04-13T20:19:42	9.4	100
166613	2026-04-13T20:29:42	9.3	100
166614	2026-04-13T20:39:42	9.4	100
166615	2026-04-13T20:49:41	9.3	100
166616	2026-04-13T20:59:41	9.3	100
166617	2026-04-13T21:09:41	9.2	100
166618	2026-04-13T21:19:41	9.2	100
166619	2026-04-13T21:29:41	9.2	100
166620	2026-04-13T21:39:41	9.1	100
166621	2026-04-13T21:49:41	9.1	100
166622	2026-04-13T21:59:41	9.1	100
166623	2026-04-13T22:09:41	9	100
166624	2026-04-13T22:19:41	9	100
166625	2026-04-13T22:29:41	9	100
166626	2026-04-13T22:39:41	8.9	100
166627	2026-04-13T22:49:41	9	100
166628	2026-04-13T22:59:41	8.9	100
166629	2026-04-13T23:09:41	8.8	100
166630	2026-04-13T23:19:41	8.9	100
166631	2026-04-13T23:29:41	8.9	100
166632	2026-04-13T23:39:41	8.8	100
166633	2026-04-13T23:49:41	8.8	100
166634	2026-04-13T23:59:41	8.7	100
166635	2026-04-14T00:09:41	8.7	100
166636	2026-04-14T00:19:41	8.7	100
166637	2026-04-14T00:29:41	8.6	100
166638	2026-04-14T00:39:41	8.6	100
166639	2026-04-14T00:49:41	8.6	100
166640	2026-04-14T00:59:41	8.3	100
166641	2026-04-14T01:09:41	8.2	100
166642	2026-04-14T01:19:41	8.3	100
166643	2026-04-14T01:29:41	8.4	100
166644	2026-04-14T01:39:41	8.2	100
166645	2026-04-14T01:49:41	8.3	100
166646	2026-04-14T01:59:41	8.3	100
166647	2026-04-14T02:09:41	8.2	100
166648	2026-04-14T02:19:41	8.2	100
166649	2026-04-14T02:29:41	8.2	100
166650	2026-04-14T02:39:41	8.1	100
166651	2026-04-14T02:49:41	8.2	100
166652	2026-04-14T02:59:41	8.1	100
166653	2026-04-14T03:09:41	8.1	100
166654	2026-04-14T03:19:41	8.1	100
166655	2026-04-14T03:29:41	8	100
166656	2026-04-14T03:39:41	8	100
166657	2026-04-14T03:49:41	8	100
166658	2026-04-14T03:59:41	8	100
166659	2026-04-14T04:09:41	8	100
166660	2026-04-14T04:19:41	8	100
166661	2026-04-14T04:29:41	8	100
166662	2026-04-14T04:39:41	8	100
166663	2026-04-14T04:49:41	8	100
166664	2026-04-14T04:59:41	8	100
166665	2026-04-14T05:09:41	7.9	100
166666	2026-04-14T05:19:41	8	100
166667	2026-04-14T05:29:41	8	100
166668	2026-04-14T05:39:41	8	100
166669	2026-04-14T05:49:41	8.2	100
166670	2026-04-14T05:59:41	8.2	100
166671	2026-04-14T06:09:41	8.1	100
166672	2026-04-14T06:19:41	8.2	100
166673	2026-04-14T06:29:41	8.4	100
166674	2026-04-14T06:39:41	8.3	100
166675	2026-04-14T06:49:41	8.4	100
166676	2026-04-14T06:59:41	8.5	100
166677	2026-04-14T07:09:41	8.5	100
166678	2026-04-14T07:19:41	8.5	100
166679	2026-04-14T07:29:41	8.7	99.5
166680	2026-04-14T07:39:41	8.9	99
166681	2026-04-14T07:49:41	8.8	99
166682	2026-04-14T07:59:41	9.1	98.5
166683	2026-04-14T08:09:41	9.2	98.5
166684	2026-04-14T08:19:41	9.4	98
166685	2026-04-14T08:29:41	9.5	97
166686	2026-04-14T08:39:41	9.8	96.5
166687	2026-04-14T08:49:41	10	95.5
166688	2026-04-14T08:59:41	10.3	95.5
166689	2026-04-14T09:09:41	10.4	92.5
166690	2026-04-14T09:19:41	10.3	92.5
166691	2026-04-14T09:29:41	10.2	93
166692	2026-04-14T09:39:41	10.4	93
166693	2026-04-14T09:49:41	10.6	93.5
166694	2026-04-14T09:59:41	10.6	88
166695	2026-04-14T10:09:41	10.8	87
166696	2026-04-14T10:19:41	11.1	86.5
166697	2026-04-14T10:29:41	11.1	86.5
166698	2026-04-14T10:39:41	11.1	90
166699	2026-04-14T10:49:41	10.8	86.5
166700	2026-04-14T10:59:41	11	85
166701	2026-04-14T11:09:41	11.6	86.5
166702	2026-04-14T11:19:41	12.4	83
166703	2026-04-14T11:29:41	13.2	80.5
166704	2026-04-14T11:39:41	14.1	77.5
166705	2026-04-14T11:49:41	14.7	72.5
166706	2026-04-14T11:59:41	15.3	71
166707	2026-04-14T12:09:41	14.8	73
166708	2026-04-14T12:19:41	14.4	70.5
166709	2026-04-14T12:29:41	14.7	76
166710	2026-04-14T12:39:41	14.8	73.5
166711	2026-04-14T12:49:41	14.7	71
166712	2026-04-14T12:59:41	15.6	69
166713	2026-04-14T13:09:41	15.7	65.5
166714	2026-04-14T13:19:41	15.9	66
166715	2026-04-14T13:29:40	15.5	67.5
166716	2026-04-14T13:39:40	15	66
166717	2026-04-14T13:49:40	15.5	65.5
166718	2026-04-14T13:59:40	16.6	62
166719	2026-04-14T14:09:40	15.8	65.5
166720	2026-04-14T14:19:40	16.6	64.5
166721	2026-04-14T14:29:40	16.1	63
166722	2026-04-14T14:39:40	16.6	63
166723	2026-04-14T14:49:40	16.9	61
166724	2026-04-14T14:59:40	16.7	62.5
166725	2026-04-14T15:09:40	17.1	60.5
166726	2026-04-14T15:19:40	16.4	61.5
166727	2026-04-14T15:29:40	15.7	62.5
166728	2026-04-14T15:39:40	15.6	65.5
166729	2026-04-14T15:49:40	15.7	66.5
166730	2026-04-14T15:59:40	15.7	66
166731	2026-04-14T16:09:40	19	58.5
166732	2026-04-14T16:19:40	21	53.5
166733	2026-04-14T16:29:40	20.8	50.5
166734	2026-04-14T16:39:40	19	55.5
166735	2026-04-14T16:49:40	17.9	57
166736	2026-04-14T16:59:40	16.7	60.5
166737	2026-04-14T17:09:40	16.1	63
166738	2026-04-14T17:19:40	16	68
166739	2026-04-14T17:29:40	15.6	69
166740	2026-04-14T17:39:40	15.2	70.5
166741	2026-04-14T17:49:40	14.5	74
166742	2026-04-14T17:59:40	13.9	75.5
166743	2026-04-14T18:09:40	13.4	76.5
166744	2026-04-14T18:19:40	12.9	77.5
166745	2026-04-14T18:29:40	12.7	78.5
166746	2026-04-14T18:39:40	12.1	80
166747	2026-04-14T18:49:40	12	79.5
166748	2026-04-14T18:59:40	11.7	81.5
166749	2026-04-14T19:09:40	11.5	81
166750	2026-04-14T19:19:40	11.4	81.5
166751	2026-04-14T19:29:40	11.4	82.5
166752	2026-04-14T19:39:40	11.7	82
166753	2026-04-14T19:49:40	11.6	83.5
166754	2026-04-14T19:59:40	11.6	83
166755	2026-04-14T20:09:40	11.2	84
166756	2026-04-14T20:19:40	11.3	82
166757	2026-04-14T20:29:40	11.2	83
166758	2026-04-14T20:39:40	11	85
166759	2026-04-14T20:49:40	10.8	86
166760	2026-04-14T20:59:40	10.7	87.5
166761	2026-04-14T21:09:40	10.7	88.5
166762	2026-04-14T21:19:40	10.6	89
166763	2026-04-14T21:29:40	10.3	89.5
166764	2026-04-14T21:39:40	9.9	91
166765	2026-04-14T21:49:40	9.7	91
166766	2026-04-14T21:59:40	9.9	91
166767	2026-04-14T22:09:40	9.9	91.5
166768	2026-04-14T22:19:40	10	91
166769	2026-04-14T22:29:40	10	90.5
166770	2026-04-14T22:39:40	9.7	91.5
166771	2026-04-14T22:49:40	9.5	92
166772	2026-04-14T22:59:40	9.2	92.5
166773	2026-04-14T23:09:40	8.9	93.5
166774	2026-04-14T23:19:40	8.7	94
166775	2026-04-14T23:29:40	8.6	94.5
166776	2026-04-14T23:39:40	8.5	94
166777	2026-04-14T23:49:40	8.2	95
166778	2026-04-14T23:59:40	8	95.5
166779	2026-04-15T00:09:40	7.9	95.5
166780	2026-04-15T00:19:40	7.7	95.5
166781	2026-04-15T00:29:40	7.5	96
166782	2026-04-15T00:39:40	7.5	95.5
166783	2026-04-15T00:49:40	7.3	95
166784	2026-04-15T00:59:40	7.2	95
166785	2026-04-15T01:09:40	7	96
166786	2026-04-15T01:19:40	7	95.5
166787	2026-04-15T01:29:40	6.9	95.5
166788	2026-04-15T01:39:40	6.8	96
166789	2026-04-15T01:49:40	6.9	96
166790	2026-04-15T01:59:40	6.9	95
166791	2026-04-15T02:09:40	7	95
166792	2026-04-15T02:19:40	7	96
166793	2026-04-15T02:29:40	7	96
166794	2026-04-15T02:39:40	6.8	96
166795	2026-04-15T02:49:40	6.7	96
166796	2026-04-15T02:59:40	6.5	96
166797	2026-04-15T03:09:40	6.5	96
166798	2026-04-15T03:19:40	6.3	95.5
166799	2026-04-15T03:29:40	6.2	95.5
166800	2026-04-15T03:39:40	6	96
166801	2026-04-15T03:49:40	6	96
166802	2026-04-15T03:59:40	5.8	96
166803	2026-04-15T04:09:40	5.7	96.5
166804	2026-04-15T04:19:40	5.6	97
166805	2026-04-15T04:29:39	5.5	97
166806	2026-04-15T04:39:40	5.5	97.5
166807	2026-04-15T04:49:39	5.4	97
166808	2026-04-15T04:59:39	5.4	96.5
166809	2026-04-15T05:09:39	5.4	96
166810	2026-04-15T05:19:39	5.4	96.5
166811	2026-04-15T05:29:39	5.6	96.5
166812	2026-04-15T05:39:39	5.6	97.5
166813	2026-04-15T05:49:39	5.7	97.5
166814	2026-04-15T05:59:39	5.8	98
166815	2026-04-15T06:09:39	6.1	97.5
166816	2026-04-15T06:19:39	6.1	97.5
166817	2026-04-15T06:29:39	6.4	98
166818	2026-04-15T06:39:39	6.6	98.5
166819	2026-04-15T06:49:39	6.9	97
166820	2026-04-15T06:59:39	7.2	97.5
166821	2026-04-15T07:09:39	7.6	98
166822	2026-04-15T07:19:39	8	98
166823	2026-04-15T07:29:39	8.2	97
166824	2026-04-15T07:39:39	8.7	96
166825	2026-04-15T07:49:39	9	94.5
166826	2026-04-15T07:59:39	9.5	93
166827	2026-04-15T08:09:39	9.8	92.5
166828	2026-04-15T08:19:39	10	91
166829	2026-04-15T08:29:39	10.3	90.5
166830	2026-04-15T08:39:39	10.5	89.5
166831	2026-04-15T08:49:39	10.9	87.5
166832	2026-04-15T08:59:39	11.1	86.5
166833	2026-04-15T09:09:39	11.5	85.5
166834	2026-04-15T09:19:39	11.9	86
166835	2026-04-15T09:29:39	12	82
166836	2026-04-15T09:39:39	12.4	79.5
166837	2026-04-15T09:49:39	12.4	79.5
166838	2026-04-15T09:59:39	12.7	77.5
166839	2026-04-15T10:09:39	13.4	75.5
166840	2026-04-15T10:19:39	14	72
166841	2026-04-15T10:29:39	14.2	73
166842	2026-04-15T10:39:39	14.5	69
166843	2026-04-15T10:49:39	14.8	69.5
166844	2026-04-15T10:59:39	15.4	67.5
166845	2026-04-15T11:09:39	16.1	65
166846	2026-04-15T11:19:39	16.1	67.5
166847	2026-04-15T11:29:39	15.8	62.5
166848	2026-04-15T11:39:39	15.6	66
166849	2026-04-15T11:49:39	16.4	66
166850	2026-04-15T11:59:39	16.9	65
166851	2026-04-15T12:09:39	17.4	64
166852	2026-04-15T12:19:39	18.3	62.5
166853	2026-04-15T12:29:39	18.7	57
166854	2026-04-15T12:39:39	19.2	58.5
166855	2026-04-15T12:49:39	19.3	55
166856	2026-04-15T12:59:39	19.5	56.5
166857	2026-04-15T13:09:39	19.7	55
166858	2026-04-15T13:19:39	20	53
166859	2026-04-15T13:29:39	20	56
166860	2026-04-15T13:39:39	20	56.5
166861	2026-04-15T13:49:39	19.9	58
166862	2026-04-15T13:59:39	19.8	58
166863	2026-04-15T14:09:39	19.8	57
166864	2026-04-15T14:19:39	19.6	57.5
166865	2026-04-15T14:29:39	19.5	57.5
166866	2026-04-15T14:39:39	19.8	56.5
166867	2026-04-15T14:49:39	20.1	54.5
166868	2026-04-15T14:59:39	19.9	55
166869	2026-04-15T15:09:39	19.9	56
166870	2026-04-15T15:19:39	19.5	57
166871	2026-04-15T15:29:39	19.4	57
166872	2026-04-15T15:39:39	19.3	58.5
166873	2026-04-15T15:49:39	19.2	57
166874	2026-04-15T15:59:39	21.6	55.5
166875	2026-04-15T16:09:39	24.2	48
166876	2026-04-15T16:19:39	22.2	50.5
166877	2026-04-15T16:29:39	21.7	55
166878	2026-04-15T16:39:39	22.4	52
166879	2026-04-15T16:49:39	22.2	51
166880	2026-04-15T16:59:39	22.4	52.5
166881	2026-04-15T17:09:39	21.8	52.5
166882	2026-04-15T17:19:39	20.7	55
166883	2026-04-15T17:29:39	19.9	57.5
166884	2026-04-15T17:39:39	19.4	60
166885	2026-04-15T17:49:39	19.1	62
166886	2026-04-15T17:59:38	18.6	62
166887	2026-04-15T18:09:38	18.1	63.5
166888	2026-04-15T18:19:38	17.6	66.5
166889	2026-04-15T18:29:38	17.3	68.5
166890	2026-04-15T18:39:38	17.1	71
166891	2026-04-15T18:49:38	16.6	71
166892	2026-04-15T18:59:38	16.3	72
166893	2026-04-15T19:09:38	16.1	72
166894	2026-04-15T19:19:38	15.6	75.5
166895	2026-04-15T19:29:38	15	76.5
166896	2026-04-15T19:39:38	14.7	77.5
166897	2026-04-15T19:49:38	14.4	77.5
166898	2026-04-15T19:59:38	14	78
166899	2026-04-15T20:09:38	14	79
166900	2026-04-15T20:19:38	13.8	80
166901	2026-04-15T20:29:38	13.5	81.5
166902	2026-04-15T20:39:38	13.2	82
166903	2026-04-15T20:49:38	13.1	83
166904	2026-04-15T20:59:38	12.8	83.5
166905	2026-04-15T21:09:38	12.6	84
166906	2026-04-15T21:19:38	12.5	84.5
166907	2026-04-15T21:29:38	12.2	85.5
166908	2026-04-15T21:39:38	12	84.5
166909	2026-04-15T21:49:38	12	85
166910	2026-04-15T21:59:38	11.9	84.5
166911	2026-04-15T22:09:38	11.6	85.5
166912	2026-04-15T22:19:38	11.5	86
166913	2026-04-15T22:29:38	11.3	86.5
166914	2026-04-15T22:39:38	11.1	87
166915	2026-04-15T22:49:38	10.9	87
166916	2026-04-15T22:59:38	10.7	87
166917	2026-04-15T23:09:38	10.5	88
166918	2026-04-15T23:19:38	10.3	88.5
166919	2026-04-15T23:29:38	10.1	89
166920	2026-04-15T23:39:38	9.9	89
166921	2026-04-15T23:49:38	9.8	89
166922	2026-04-15T23:59:38	9.7	89.5
166923	2026-04-16T00:09:38	9.7	90
166924	2026-04-16T00:19:38	9.4	89.5
166925	2026-04-16T00:29:38	9.3	90
166926	2026-04-16T00:39:38	9.2	89.5
166927	2026-04-16T00:49:38	8.9	90
166928	2026-04-16T00:59:38	8.9	90.5
166929	2026-04-16T01:09:38	8.8	90
166930	2026-04-16T01:19:38	8.7	90.5
166931	2026-04-16T01:29:38	8.6	90.5
166932	2026-04-16T01:39:38	8.6	90.5
166933	2026-04-16T01:49:38	8.4	90.5
166934	2026-04-16T01:59:38	8.4	90.5
166935	2026-04-16T02:09:38	8.2	91
166936	2026-04-16T02:19:38	8	91.5
166937	2026-04-16T02:29:38	7.9	91.5
166938	2026-04-16T02:39:38	8.1	91.5
166939	2026-04-16T02:49:38	7.9	92
166940	2026-04-16T02:59:38	7.8	92
166941	2026-04-16T03:09:38	7.6	92
166942	2026-04-16T03:19:38	7.4	92.5
166943	2026-04-16T03:29:38	7.4	93
166944	2026-04-16T03:39:38	7.4	93
166945	2026-04-16T03:49:38	7.4	93.5
166946	2026-04-16T03:59:38	7.7	93
166947	2026-04-16T04:09:38	7.7	92
166948	2026-04-16T04:19:38	7.8	92.5
166949	2026-04-16T04:29:38	7.9	92.5
166950	2026-04-16T04:39:38	8.2	92.5
166951	2026-04-16T04:49:38	8.3	92.5
166952	2026-04-16T04:59:38	8.5	93
166953	2026-04-16T05:09:38	8.6	93
166954	2026-04-16T05:19:38	8.8	93.5
166955	2026-04-16T05:29:38	9.1	93
166956	2026-04-16T05:39:38	9.2	93
166957	2026-04-16T05:49:38	9.4	93.5
166958	2026-04-16T06:29:38	10.4	91
166959	2026-04-16T06:39:38	10.7	90
166960	2026-04-16T06:49:38	10.7	90
166961	2026-04-16T06:59:38	10.8	90.5
166962	2026-04-16T07:09:38	10.9	91
166963	2026-04-16T07:19:38	11.2	90.5
166964	2026-04-16T07:29:38	11.6	88.5
166965	2026-04-16T07:39:38	12	87
166966	2026-04-16T07:49:38	12.4	87
166967	2026-04-16T07:59:38	12.8	86.5
166968	2026-04-16T08:09:38	13.1	83.5
166969	2026-04-16T08:19:38	13.1	84.5
166970	2026-04-16T08:29:38	12.6	87
166971	2026-04-16T08:39:38	12.8	87
166972	2026-04-16T08:49:38	12.9	86
166973	2026-04-16T08:59:38	13.5	82
166974	2026-04-16T09:09:38	14.2	79
166975	2026-04-16T09:19:37	14.5	78
166976	2026-04-16T09:29:37	14.9	74.5
166977	2026-04-16T09:39:37	15	75
166978	2026-04-16T09:49:37	15.1	75
166979	2026-04-16T09:59:37	15.5	71
166980	2026-04-16T10:09:37	15.9	71.5
166981	2026-04-16T10:19:37	16.1	73.5
166982	2026-04-16T10:29:37	16.4	69.5
166983	2026-04-16T10:39:37	16.6	69
166984	2026-04-16T10:49:37	16.9	67
166985	2026-04-16T10:59:37	17.3	67.5
166986	2026-04-16T11:09:37	17.7	68.5
166987	2026-04-16T11:19:37	18	65.5
166988	2026-04-16T11:29:37	18.3	64.5
166989	2026-04-16T11:39:37	18.5	63.5
166990	2026-04-16T11:49:37	19.1	61
166991	2026-04-16T11:59:37	19.6	61.5
166992	2026-04-16T12:09:37	20.2	57
166993	2026-04-16T12:19:37	22.1	53.5
166994	2026-04-16T12:29:37	23.7	50.5
166995	2026-04-16T12:39:37	24.8	48
166996	2026-04-16T12:49:37	24.6	45.5
166997	2026-04-16T12:59:37	25.4	46
166998	2026-04-16T13:09:37	26	43
166999	2026-04-16T13:19:37	25.6	44.5
167000	2026-04-16T13:29:37	26.6	42
167001	2026-04-16T13:39:37	27.2	40
167002	2026-04-16T13:49:37	27.2	42
167003	2026-04-16T13:59:37	25.9	45.5
167004	2026-04-16T14:09:37	25.3	46
167005	2026-04-16T14:19:37	24	49
167006	2026-04-16T14:29:37	23.5	48.5
167007	2026-04-16T14:39:37	23.2	47.5
167008	2026-04-16T14:49:37	24	46.5
167009	2026-04-16T14:59:37	24.3	45
167010	2026-04-16T15:09:37	24.6	42.5
167011	2026-04-16T15:19:37	25.1	44
167012	2026-04-16T15:29:37	24.8	42.5
167013	2026-04-16T15:39:37	24.3	46.5
167014	2026-04-16T15:49:37	24	46
167015	2026-04-16T15:59:37	25.1	47
167016	2026-04-16T16:09:37	25.1	47
167017	2026-04-16T16:19:37	26.4	43.5
167018	2026-04-16T16:29:37	26.2	44
167019	2026-04-16T16:39:37	26.6	43.5
167020	2026-04-16T16:49:37	27.8	42.5
167021	2026-04-16T16:59:37	28.6	39
167022	2026-04-16T17:09:37	28.4	41
167023	2026-04-16T17:19:37	28.6	39
167024	2026-04-16T17:29:37	27.5	41
167025	2026-04-16T17:39:37	25.1	45
167026	2026-04-16T17:49:37	23.7	49
167027	2026-04-16T17:59:37	22.9	54
167028	2026-04-16T18:09:37	22	58
167029	2026-04-16T18:19:37	21.1	59
167030	2026-04-16T18:29:37	20.5	60
167031	2026-04-16T18:39:37	19.9	60.5
167032	2026-04-16T18:49:37	19.3	63
167033	2026-04-16T18:59:37	19	65
167034	2026-04-16T19:09:37	18.6	62.5
167035	2026-04-16T19:19:37	18.1	64
167036	2026-04-16T19:29:37	17.9	66
167037	2026-04-16T19:39:36	17.4	68.5
167038	2026-04-16T19:49:37	17	70
167039	2026-04-16T19:59:37	16.7	70.5
167040	2026-04-16T20:09:36	16.4	71
167041	2026-04-16T20:19:37	16.2	72
167042	2026-04-16T20:29:36	16	73
167043	2026-04-16T20:39:36	15.6	73.5
167044	2026-04-16T20:49:36	15.4	74
167045	2026-04-16T20:59:36	15	74.5
167046	2026-04-16T21:09:36	14.9	74
167047	2026-04-16T21:19:37	14.7	75.5
167048	2026-04-16T21:29:37	14.4	76.5
167049	2026-04-16T21:39:36	14.2	76
167050	2026-04-16T21:49:36	13.9	76
167051	2026-04-16T21:59:36	13.7	78
167052	2026-04-16T22:09:36	13.6	77
167053	2026-04-16T22:19:36	13.3	78.5
167054	2026-04-16T22:29:36	13.2	79
167055	2026-04-16T22:39:36	12.9	79.5
167056	2026-04-16T22:49:36	12.7	80
167057	2026-04-16T22:59:36	12.5	80.5
167058	2026-04-16T23:09:36	12.3	80.5
167059	2026-04-16T23:19:36	12.1	81
167060	2026-04-16T23:29:36	12.2	81.5
167061	2026-04-16T23:39:36	11.9	81.5
167062	2026-04-16T23:49:36	11.8	82
167063	2026-04-16T23:59:36	11.6	83
167064	2026-04-17T00:09:36	11.4	83.5
167065	2026-04-17T00:19:36	11.3	84
167066	2026-04-17T00:29:36	11.1	84.5
167067	2026-04-17T00:39:36	11.1	84
167068	2026-04-17T00:49:36	11	84.5
167069	2026-04-17T00:59:36	10.6	85
167070	2026-04-17T01:09:36	10.6	85
167071	2026-04-17T01:19:36	10.5	85
167072	2026-04-17T01:29:36	10.4	86
167073	2026-04-17T01:39:36	10.5	86
167074	2026-04-17T01:49:36	10.3	85.5
167075	2026-04-17T01:59:36	10	86
167076	2026-04-17T02:09:36	9.9	86.5
167077	2026-04-17T02:19:36	9.8	87
167078	2026-04-17T02:29:36	9.7	87.5
167079	2026-04-17T02:39:36	9.6	87.5
167080	2026-04-17T02:49:36	9.5	88
167081	2026-04-17T02:59:36	9.3	88
167082	2026-04-17T03:09:36	9.2	88
167083	2026-04-17T03:19:36	9.1	88
167084	2026-04-17T03:29:36	8.9	88
167085	2026-04-17T03:39:36	9	89
167086	2026-04-17T03:49:36	8.8	89
167087	2026-04-17T03:59:36	8.7	89
167088	2026-04-17T04:09:36	8.6	89.5
167089	2026-04-17T04:19:36	8.6	90
167090	2026-04-17T04:29:36	8.5	90.5
167091	2026-04-17T04:39:36	8.4	90.5
167092	2026-04-17T04:49:36	8.5	90.5
167093	2026-04-17T04:59:36	8.4	91
167094	2026-04-17T05:09:36	8.6	91
167095	2026-04-17T05:19:36	8.5	90.5
167096	2026-04-17T05:29:36	8.6	91
167097	2026-04-17T05:39:36	8.8	91
167098	2026-04-17T05:49:36	8.9	91.5
167099	2026-04-17T05:59:36	9.3	92
167100	2026-04-17T06:09:36	9.6	92
167101	2026-04-17T06:19:36	9.9	93.5
167102	2026-04-17T06:29:36	9.9	93
167103	2026-04-17T06:39:36	10.2	93.5
167104	2026-04-17T06:49:36	10.5	92
167105	2026-04-17T06:59:36	10.8	91
167106	2026-04-17T07:09:36	11	90
167107	2026-04-17T07:29:36	11.6	89
167108	2026-04-17T07:39:36	11.8	88.5
167109	2026-04-17T07:49:36	12.3	87
167110	2026-04-17T07:59:36	12.6	87.5
167111	2026-04-17T08:09:36	12.9	86
167112	2026-04-17T08:19:36	13.1	84.5
167113	2026-04-17T08:29:36	13.6	84
167114	2026-04-17T08:39:36	13.7	83
167115	2026-04-17T08:49:36	13.9	81.5
167116	2026-04-17T08:59:36	14.3	81
167117	2026-04-17T09:09:36	14.5	81
167118	2026-04-17T09:19:36	15	80
167119	2026-04-17T09:29:36	15.3	79
167120	2026-04-17T09:39:36	15.6	78
167121	2026-04-17T09:49:36	15.9	76
167122	2026-04-17T09:59:36	16.3	76.5
167123	2026-04-17T10:09:36	16.5	73
167124	2026-04-17T10:19:35	17.2	70.5
167125	2026-04-17T10:29:35	17	70.5
167126	2026-04-17T10:39:35	17.8	67
167127	2026-04-17T10:49:35	17.8	66.5
167128	2026-04-17T10:59:35	18.3	65
167129	2026-04-17T11:09:35	19.3	63
167130	2026-04-17T11:19:35	19.7	61.5
167131	2026-04-17T11:29:35	20.1	56
167132	2026-04-17T11:39:35	20.9	54.5
167133	2026-04-17T11:49:35	21.2	50.5
167134	2026-04-17T11:59:35	21.7	53
167135	2026-04-17T12:09:35	21.2	52
167136	2026-04-17T12:19:35	21.3	51
167137	2026-04-17T12:29:35	25.2	44
167138	2026-04-17T12:39:35	25.9	43
167139	2026-04-17T12:49:35	27.2	42.5
167140	2026-04-17T12:59:35	29.2	37.5
167141	2026-04-17T13:09:35	30	36.5
167142	2026-04-17T13:19:35	31.2	32
167143	2026-04-17T13:29:35	30.4	34
167144	2026-04-17T13:39:35	32	33.5
167145	2026-04-17T13:49:35	32.2	32
167146	2026-04-17T13:59:35	33	31
167147	2026-04-17T14:09:35	34.7	30
167148	2026-04-17T14:19:35	35.4	28
167149	2026-04-17T14:29:35	34	30.5
167150	2026-04-17T14:39:35	33	31.5
167151	2026-04-17T14:49:35	35.3	29.5
167152	2026-04-17T14:59:35	32.6	29.5
167153	2026-04-17T15:09:35	35.1	28.5
167154	2026-04-17T15:19:35	35.2	28.5
167155	2026-04-17T15:29:35	37	27.5
167156	2026-04-17T15:39:35	36.2	26.5
167157	2026-04-17T15:49:35	34.8	26.5
167158	2026-04-17T15:59:35	32.4	30.5
167159	2026-04-17T16:09:35	31.4	31
167160	2026-04-17T16:19:35	30	31.5
167161	2026-04-17T16:29:35	30.4	31
167162	2026-04-17T16:39:35	31.3	31.5
167163	2026-04-17T16:49:35	31.9	33
167164	2026-04-17T16:59:35	31.1	32
167165	2026-04-17T17:09:35	29.9	33.5
167166	2026-04-17T17:19:35	28.8	36.5
167167	2026-04-17T17:29:35	28.6	37
167168	2026-04-17T17:39:35	27.8	44.5
167169	2026-04-17T17:49:35	27	48
167170	2026-04-17T17:59:35	26.1	50.5
167171	2026-04-17T18:09:35	25.3	53
167172	2026-04-17T18:19:35	24.4	55
167173	2026-04-17T18:29:35	23.8	55
167174	2026-04-17T18:39:35	23.1	56
167175	2026-04-17T18:49:35	22.4	57
167176	2026-04-17T18:59:35	22	55.5
167177	2026-04-17T19:09:35	21.8	56
167178	2026-04-17T19:19:35	21.7	56.5
167179	2026-04-17T19:29:35	21.5	57
167180	2026-04-17T19:39:35	21	56.5
167181	2026-04-17T19:49:35	20.7	55
167182	2026-04-17T19:59:35	20.1	57
167183	2026-04-17T20:09:35	19.9	57.5
167184	2026-04-17T20:19:35	19.5	60.5
167185	2026-04-17T20:29:35	19.3	61
167186	2026-04-17T20:39:35	18.9	63.5
167187	2026-04-17T20:49:35	18.7	63.5
167188	2026-04-17T20:59:34	18.6	64.5
167189	2026-04-17T21:09:34	18.3	65.5
167190	2026-04-17T21:19:34	18.1	66
167191	2026-04-17T21:29:34	17.7	68
167192	2026-04-17T21:39:34	17.4	67
167193	2026-04-17T21:49:34	17.1	68
167194	2026-04-17T21:59:34	17	68
167195	2026-04-17T22:09:34	16.6	69
167196	2026-04-17T22:19:34	16.5	69.5
167197	2026-04-17T22:29:34	16.2	69.5
167198	2026-04-17T22:39:34	15.8	71.5
167199	2026-04-17T22:49:34	15.6	72.5
167200	2026-04-17T22:59:34	15.4	73.5
167201	2026-04-17T23:09:34	15.2	73.5
167202	2026-04-17T23:19:34	15	74
167203	2026-04-17T23:29:34	14.7	75
167204	2026-04-17T23:39:34	14.6	75.5
167205	2026-04-17T23:49:34	14.4	76.5
167206	2026-04-17T23:59:34	14.1	77
167207	2026-04-18T00:09:34	14	77
167208	2026-04-18T00:19:34	13.7	78.5
167209	2026-04-18T00:29:34	13.7	78
167210	2026-04-18T00:39:34	13.5	77.5
167211	2026-04-18T00:49:34	13.1	78.5
167212	2026-04-18T00:59:34	13	79
167213	2026-04-18T01:09:34	12.7	80
167214	2026-04-18T01:19:34	12.7	80
167215	2026-04-18T01:29:34	12.8	80
167216	2026-04-18T01:39:34	12.8	80
167217	2026-04-18T01:49:34	12.6	80
167218	2026-04-18T01:59:34	12.5	80.5
167219	2026-04-18T02:09:34	12.3	81
167220	2026-04-18T02:19:34	12.4	81.5
167221	2026-04-18T02:29:34	12.2	82
167222	2026-04-18T02:39:34	12.1	82
167223	2026-04-18T02:49:34	12	82.5
167224	2026-04-18T02:59:34	11.8	83
167225	2026-04-18T03:09:34	11.7	83
167226	2026-04-18T03:19:34	11.5	83.5
167227	2026-04-18T03:29:34	11.5	84
167228	2026-04-18T03:39:34	11.5	83.5
167229	2026-04-18T03:49:34	11.6	83.5
167230	2026-04-18T03:59:34	11.4	84
167231	2026-04-18T04:09:34	11.1	85.5
167232	2026-04-18T04:19:34	11.1	86
167233	2026-04-18T04:29:34	11.2	85.5
167234	2026-04-18T04:49:34	11	86.5
167235	2026-04-18T04:59:34	11	86.5
167236	2026-04-18T05:09:34	11.1	86.5
167237	2026-04-18T05:19:34	11.1	86.5
167238	2026-04-18T05:29:34	11.2	86.5
167239	2026-04-18T05:39:34	11.4	86.5
167240	2026-04-18T05:49:34	11.4	87.5
167241	2026-04-18T05:59:34	11.6	87
167242	2026-04-18T06:09:34	12	86.5
167243	2026-04-18T06:19:34	12.2	86
167244	2026-04-18T06:29:34	12.4	85.5
167245	2026-04-18T06:39:34	12.5	85.5
167246	2026-04-18T06:49:34	12.7	84.5
167247	2026-04-18T06:59:34	12.9	83
167248	2026-04-18T07:09:34	13.4	80.5
167249	2026-04-18T07:19:34	13.8	80
167250	2026-04-18T07:29:34	14.1	76.5
167251	2026-04-18T07:39:34	14.1	76.5
167252	2026-04-18T07:49:34	14.3	76
167253	2026-04-18T07:59:34	14.7	76.5
167254	2026-04-18T08:09:34	15.1	75
167255	2026-04-18T08:19:34	15.2	75
167256	2026-04-18T08:29:34	15.5	73.5
167257	2026-04-18T08:39:34	15.6	74
167258	2026-04-18T08:49:34	15.8	72.5
167259	2026-04-18T08:59:34	16.3	70.5
167260	2026-04-18T09:09:34	16.5	69.5
167261	2026-04-18T09:19:34	16.8	69
167262	2026-04-18T09:29:34	17	70
167263	2026-04-18T09:39:34	17.3	68
167264	2026-04-18T09:49:34	17.3	69
167265	2026-04-18T09:59:33	17.6	68
167266	2026-04-18T10:09:33	17.8	67
167267	2026-04-18T10:19:33	18.1	65
167268	2026-04-18T10:29:33	18.3	65
167269	2026-04-18T10:39:33	18.7	63.5
167270	2026-04-18T10:49:33	18.9	63.5
167271	2026-04-18T10:59:33	19	64.5
167272	2026-04-18T11:09:33	19.3	63
167273	2026-04-18T11:19:33	19.7	63.5
167274	2026-04-18T11:29:33	20	58
167275	2026-04-18T11:39:33	20.3	58
167276	2026-04-18T11:49:33	20.6	57
167277	2026-04-18T11:59:33	21.6	54.5
167278	2026-04-18T12:09:33	22	52.5
167279	2026-04-18T12:19:33	25.1	48
167280	2026-04-18T12:29:33	27.1	41
167281	2026-04-18T12:39:33	27.9	38.5
167282	2026-04-18T12:49:33	29	37
167283	2026-04-18T12:59:33	29.3	35
167284	2026-04-18T13:09:33	29.4	35
167285	2026-04-18T13:19:33	30.2	33
167286	2026-04-18T13:29:33	30.8	34
167287	2026-04-18T13:39:33	29.9	35
167288	2026-04-18T13:49:33	28.7	37.5
167289	2026-04-18T13:59:33	28.6	36
167290	2026-04-18T14:09:33	28.9	37.5
167291	2026-04-18T14:19:33	27.8	35.5
167292	2026-04-18T14:29:33	29.2	33
167293	2026-04-18T14:49:33	28.2	37
167294	2026-04-18T14:59:33	27.2	39
167295	2026-04-18T15:09:33	27.2	40.5
167296	2026-04-18T15:19:33	27.3	39
167297	2026-04-18T15:29:33	27.3	39
167298	2026-04-18T15:39:33	28.6	37
167299	2026-04-18T15:49:33	29.2	37
167300	2026-04-18T15:59:33	29	36.5
167301	2026-04-18T16:09:33	30.5	34.5
167302	2026-04-18T16:19:33	30.7	34
167303	2026-04-18T16:29:33	30.7	34
167304	2026-04-18T16:39:33	29.4	36
167305	2026-04-18T16:49:33	29.1	36.5
167306	2026-04-18T16:59:33	27.2	41
167307	2026-04-18T17:09:33	26.7	42
167308	2026-04-18T17:19:33	26.5	43.5
167309	2026-04-18T17:29:33	25.9	44.5
167310	2026-04-18T17:39:33	25	47.5
167311	2026-04-18T17:49:33	24.8	49.5
167312	2026-04-18T17:59:33	24.6	50.5
167313	2026-04-18T18:09:33	24.3	52.5
167314	2026-04-18T18:19:33	23.8	55.5
167315	2026-04-18T18:29:33	23.2	58
167316	2026-04-18T18:39:33	22.6	60
167317	2026-04-18T18:49:33	22.2	61.5
167318	2026-04-18T18:59:33	21.7	61.5
167319	2026-04-18T19:09:33	21.4	62.5
167320	2026-04-18T19:19:33	21	63
167321	2026-04-18T19:29:33	20.8	63
167322	2026-04-18T19:39:33	20.4	65.5
167323	2026-04-18T19:49:33	20.2	65.5
167324	2026-04-18T19:59:33	19.9	66.5
167325	2026-04-18T20:09:33	19.7	66
167326	2026-04-18T20:19:33	19.5	68
167327	2026-04-18T20:29:33	19.1	69
167328	2026-04-18T20:39:32	18.8	70
167329	2026-04-18T20:49:32	18.6	71
167330	2026-04-18T20:59:32	18.3	72.5
167331	2026-04-18T21:09:32	18	72.5
167332	2026-04-18T21:19:32	17.8	73
167333	2026-04-18T21:29:32	17.4	73.5
167334	2026-04-18T21:39:32	17.2	74
167335	2026-04-18T21:49:32	16.9	75
167336	2026-04-18T21:59:32	16.6	74.5
167337	2026-04-18T22:09:32	16.5	74.5
167338	2026-04-18T22:19:32	16.3	74
167339	2026-04-18T22:29:32	16.5	73
167340	2026-04-18T22:39:32	16.3	72
167341	2026-04-18T22:49:32	16.6	72.5
167342	2026-04-18T22:59:32	16.3	73.5
167343	2026-04-18T23:09:32	16.2	74
167344	2026-04-18T23:19:32	16.1	74.5
167345	2026-04-18T23:29:32	15.9	76
167346	2026-04-18T23:39:32	15.7	76.5
167347	2026-04-18T23:49:32	15.5	77
167348	2026-04-18T23:59:32	15.5	77
167349	2026-04-19T00:09:32	15.3	78
167350	2026-04-19T00:19:32	15	78
167351	2026-04-19T00:29:32	15	78.5
167352	2026-04-19T00:39:32	14.8	79
167353	2026-04-19T00:49:32	14.7	79.5
167354	2026-04-19T00:59:32	14.5	80
167355	2026-04-19T01:09:32	14.3	80
167356	2026-04-19T01:19:32	14.1	81
167357	2026-04-19T01:29:32	13.9	81.5
167358	2026-04-19T01:39:32	13.8	81.5
167359	2026-04-19T01:49:32	13.6	82
167360	2026-04-19T01:59:32	13.5	82.5
167361	2026-04-19T02:09:32	13.2	83
167362	2026-04-19T02:19:32	13	83.5
167363	2026-04-19T02:29:32	12.9	84
167364	2026-04-19T02:39:32	12.9	83.5
167365	2026-04-19T02:49:32	12.7	84.5
167366	2026-04-19T02:59:32	12.7	84
167367	2026-04-19T03:09:32	12.5	84
167368	2026-04-19T03:19:32	12.4	84
167369	2026-04-19T03:29:32	12.5	83.5
167370	2026-04-19T03:39:32	12.5	82.5
167371	2026-04-19T03:49:32	12.5	83
167372	2026-04-19T03:59:32	12.4	84
167373	2026-04-19T04:09:32	12.4	84
167374	2026-04-19T04:19:32	12.1	85
167375	2026-04-19T04:29:32	11.9	85.5
167376	2026-04-19T04:39:32	12	85
167377	2026-04-19T04:49:32	12	86
167378	2026-04-19T04:59:32	12.1	86.5
167379	2026-04-19T05:09:32	12.3	86
167380	2026-04-19T05:19:32	12.5	86
167381	2026-04-19T05:29:32	12.6	86
167382	2026-04-19T05:39:32	12.6	86
167383	2026-04-19T05:49:32	12.7	86.5
167384	2026-04-19T05:59:32	12.5	87.5
167385	2026-04-19T06:09:32	12.5	89
167386	2026-04-19T06:19:32	12.8	89.5
167387	2026-04-19T06:29:32	13.4	91
167388	2026-04-19T06:39:32	13.3	89
167389	2026-04-19T06:49:32	13.1	88.5
167390	2026-04-19T06:59:32	13.1	87.5
167391	2026-04-19T07:09:32	13.3	89.5
167392	2026-04-19T07:19:32	13.8	88.5
167393	2026-04-19T07:29:32	13.4	89
167394	2026-04-19T07:39:32	13.6	90.5
167395	2026-04-19T07:49:32	14.2	89.5
167396	2026-04-19T07:59:32	14.6	89
167397	2026-04-19T08:09:32	14.6	85.5
167398	2026-04-19T08:19:32	15	85.5
167399	2026-04-19T08:29:32	15	83
167400	2026-04-19T08:39:32	14.8	83
167401	2026-04-19T08:49:32	14.7	84.5
167402	2026-04-19T08:59:32	14.7	84.5
167403	2026-04-19T09:09:31	14.3	85
167404	2026-04-19T09:19:31	14.1	86.5
167405	2026-04-19T09:29:31	14.9	85.5
167406	2026-04-19T09:39:31	15	84.5
167407	2026-04-19T09:49:31	15.8	80.5
167408	2026-04-19T09:59:31	15.2	79
167409	2026-04-19T10:09:31	15.3	80.5
167410	2026-04-19T10:19:31	15.4	79.5
167411	2026-04-19T10:29:31	15.1	79
167412	2026-04-19T10:39:31	16.1	77.5
167413	2026-04-19T10:49:31	16.2	75.5
167414	2026-04-19T10:59:31	15.8	74.5
167415	2026-04-19T11:09:47	15.4	73.5
167416	2026-04-19T11:19:31	15.6	72.5
167417	2026-04-19T11:29:31	15.6	72
167418	2026-04-19T11:39:31	16.8	66.5
167419	2026-04-19T11:49:31	16.3	66
167420	2026-04-19T11:59:31	16.6	61.5
167421	2026-04-19T12:09:31	17.1	61
167422	2026-04-19T12:19:31	19.8	53.5
167423	2026-04-19T12:29:31	20.9	46
167424	2026-04-19T12:39:31	20	47
167425	2026-04-19T12:49:31	21.9	44.5
167426	2026-04-19T12:59:31	21.3	44.5
167427	2026-04-19T13:09:31	23.1	42.5
167428	2026-04-19T13:19:31	22.5	42
167429	2026-04-19T13:29:31	23.3	38.5
167430	2026-04-19T13:39:31	23.6	38
167431	2026-04-19T13:49:31	24.1	35.5
167432	2026-04-19T13:59:31	23.7	35
167433	2026-04-19T14:09:31	25	35
167434	2026-04-19T14:19:31	27.3	30
167435	2026-04-19T14:29:31	26.7	32.5
167436	2026-04-19T14:39:31	25.9	32.5
167437	2026-04-19T14:49:31	25.3	33.5
167438	2026-04-19T14:59:31	25.2	32
167439	2026-04-19T15:09:31	25.1	31.5
167440	2026-04-19T15:19:31	26.9	30
167441	2026-04-19T15:29:31	27.6	30.5
167442	2026-04-19T15:39:31	26.6	29.5
167443	2026-04-19T15:49:31	28.7	28.5
167444	2026-04-19T15:59:31	27.8	29
167445	2026-04-19T16:09:31	25.8	31
167446	2026-04-19T16:19:31	26.1	29
167447	2026-04-19T16:29:31	27	31
167448	2026-04-19T16:39:31	26.8	29
167449	2026-04-19T16:49:31	26.1	29.5
167450	2026-04-19T16:59:31	24.1	31.5
167451	2026-04-19T17:09:31	24.2	31.5
167452	2026-04-19T17:19:31	23.6	32.5
167453	2026-04-19T17:29:31	23.1	35
167454	2026-04-19T17:39:31	22.2	36.5
167455	2026-04-19T17:49:31	20.8	39
167456	2026-04-19T17:59:31	20.7	43
167457	2026-04-19T18:09:31	20.1	47
167458	2026-04-19T18:19:31	19.3	48.5
167459	2026-04-19T18:29:31	18.6	49.5
167460	2026-04-19T18:39:31	18.1	51
167461	2026-04-19T18:49:31	17.5	50
167462	2026-04-19T18:59:31	16.9	52
167463	2026-04-19T19:09:31	16.5	56
167464	2026-04-19T19:19:31	16.2	57
167465	2026-04-19T19:29:31	15.7	56.5
167466	2026-04-19T19:39:31	14.9	57.5
167467	2026-04-19T19:49:31	15	59
167468	2026-04-19T19:59:30	14.7	59.5
167469	2026-04-19T20:09:31	14.5	61
167470	2026-04-19T20:19:30	14.1	62.5
167471	2026-04-19T20:29:30	13.9	63
167472	2026-04-19T20:39:30	13.5	63.5
167473	2026-04-19T20:49:30	13.2	64.5
167474	2026-04-19T20:59:30	13	65
167475	2026-04-19T21:09:30	12.6	67
167476	2026-04-19T21:19:30	12.5	67.5
167477	2026-04-19T21:29:30	12.2	67.5
167478	2026-04-19T21:39:30	11.9	68.5
167479	2026-04-19T21:49:30	11.6	69.5
167480	2026-04-19T21:59:30	11.7	69.5
167481	2026-04-19T22:09:30	11.6	70.5
167482	2026-04-19T22:19:30	11.3	72
167483	2026-04-19T22:29:30	11.1	72
167484	2026-04-19T22:39:30	10.8	72.5
167485	2026-04-19T22:49:30	10.5	73.5
167486	2026-04-19T22:59:30	10.4	74
167487	2026-04-19T23:09:30	10.2	75
167488	2026-04-19T23:19:30	9.8	76
167489	2026-04-19T23:29:30	9.8	76
167490	2026-04-19T23:39:30	9.4	77
167491	2026-04-19T23:49:30	9.3	77
167492	2026-04-19T23:59:30	9.2	77
167493	2026-04-20T00:09:30	8.9	77
167494	2026-04-20T00:19:30	9	77
167495	2026-04-20T00:29:30	8.9	77
167496	2026-04-20T00:39:30	8.8	77.5
167497	2026-04-20T00:49:30	8.8	78
167498	2026-04-20T00:59:30	8.8	78
167499	2026-04-20T01:09:30	8.6	78.5
167500	2026-04-20T01:19:30	8.5	79.5
167501	2026-04-20T01:29:30	8.6	80
167502	2026-04-20T01:39:30	8.4	80.5
167503	2026-04-20T01:49:30	8.3	81
167504	2026-04-20T01:59:30	8.4	81
167505	2026-04-20T02:09:30	8.4	81
167506	2026-04-20T02:19:30	8.3	82
167507	2026-04-20T02:29:30	7.8	83
167508	2026-04-20T02:39:30	7.6	84
167509	2026-04-20T02:49:30	7.4	84.5
167510	2026-04-20T02:59:30	7.5	84
167511	2026-04-20T03:09:30	7.2	84
167512	2026-04-20T03:19:30	7.1	85
167513	2026-04-20T03:29:30	7	85.5
167514	2026-04-20T03:39:30	7.1	85
167515	2026-04-20T03:49:30	7.2	85
167516	2026-04-20T03:59:30	7.3	85
167517	2026-04-20T04:09:30	7.3	85.5
167518	2026-04-20T04:19:30	7.2	85.5
167519	2026-04-20T04:29:30	7.1	85.5
167520	2026-04-20T04:39:30	7	86
167521	2026-04-20T04:49:30	6.9	86.5
167522	2026-04-20T04:59:30	6.8	87.5
167523	2026-04-20T05:09:30	6.9	87.5
167524	2026-04-20T05:19:30	6.8	88
167525	2026-04-20T05:29:30	7	87.5
167526	2026-04-20T05:39:30	7.1	86.5
167527	2026-04-20T05:49:30	7.3	86.5
167528	2026-04-20T05:59:30	7.4	87.5
167529	2026-04-20T06:09:30	7.4	87
167530	2026-04-20T06:19:30	7.7	87.5
167531	2026-04-20T06:29:30	7.8	88.5
167532	2026-04-20T06:39:30	8.2	88.5
167533	2026-04-20T06:49:30	8.6	88
167534	2026-04-20T06:59:30	8.9	87
167535	2026-04-20T07:09:30	9.1	85
167536	2026-04-20T07:19:30	9.3	84.5
167537	2026-04-20T07:29:30	9.6	84.5
167538	2026-04-20T07:39:30	9.9	83
167539	2026-04-20T07:49:30	10.1	81
167540	2026-04-20T07:59:30	10.1	77.5
167541	2026-04-20T08:09:30	10.2	75
167542	2026-04-20T08:19:30	10.5	74
167543	2026-04-20T08:29:30	10.7	70.5
167544	2026-04-20T08:39:30	11	71.5
167545	2026-04-20T08:49:30	11.2	71
167546	2026-04-20T08:59:30	11.2	70.5
167547	2026-04-20T09:09:30	11.4	69.5
167548	2026-04-20T09:19:30	11.7	69
167549	2026-04-20T09:29:30	12	67
167550	2026-04-20T09:39:30	12.6	65.5
167551	2026-04-20T09:49:30	13.2	64
167552	2026-04-20T09:59:30	13.4	60.5
167553	2026-04-20T10:09:30	13.9	62.5
167554	2026-04-20T10:19:30	13.8	61.5
167555	2026-04-20T10:29:30	13.8	61
167556	2026-04-20T10:39:30	14.1	59.5
167557	2026-04-20T10:49:30	14.1	58.5
167558	2026-04-20T10:59:30	14.3	59
167559	2026-04-20T11:09:30	14.1	59.5
167560	2026-04-20T11:19:30	14.3	58.5
167561	2026-04-20T11:29:30	14.8	57.5
167562	2026-04-20T11:39:30	15.1	53.5
167563	2026-04-20T11:49:30	15.6	53
167564	2026-04-20T11:59:30	15.6	49
167565	2026-04-20T12:09:29	16.5	51
167566	2026-04-20T12:19:29	19.1	43.5
167567	2026-04-20T12:29:29	21.3	40
167568	2026-04-20T12:39:29	19.6	39
167569	2026-04-20T12:49:29	20.5	39
167570	2026-04-20T12:59:29	19.3	41
167571	2026-04-20T13:09:29	20.2	39
167572	2026-04-20T13:19:29	21.9	37.5
167573	2026-04-20T13:29:29	22.6	34.5
167574	2026-04-20T13:39:29	24.7	34.5
167575	2026-04-20T13:49:29	25.2	32.5
167576	2026-04-20T13:59:29	24.3	32
167577	2026-04-20T14:09:29	26.3	31
167578	2026-04-20T14:19:29	25.7	29
167579	2026-04-20T14:29:29	26.4	29
167580	2026-04-20T14:39:29	26.9	28
167581	2026-04-20T14:49:29	28.1	27
167582	2026-04-20T14:59:29	27.9	25.5
167583	2026-04-20T15:09:29	28.1	26
167584	2026-04-20T15:19:29	26.1	27.5
167585	2026-04-20T15:29:29	29.4	25.5
167586	2026-04-20T15:39:29	28.1	26
167587	2026-04-20T15:49:29	26.7	26
167588	2026-04-20T15:59:29	28.5	25
167589	2026-04-20T16:09:29	28.4	24.5
167590	2026-04-20T16:19:29	28.3	24.5
167591	2026-04-20T16:29:29	27.5	24.5
167592	2026-04-20T16:39:29	28.5	24.5
167593	2026-04-20T16:49:29	27.1	25
167594	2026-04-20T16:59:29	26.5	26.5
167595	2026-04-20T17:09:29	26	25
167596	2026-04-20T17:19:29	26.4	25.5
167597	2026-04-20T17:29:29	24.5	27.5
167598	2026-04-20T17:39:29	23	30
167599	2026-04-20T17:49:29	21	32.5
167600	2026-04-20T17:59:29	20.1	35
167601	2026-04-20T18:09:29	19.4	35.5
167602	2026-04-20T18:19:29	18.7	37.5
167603	2026-04-20T18:29:29	18	39.5
167604	2026-04-20T18:39:29	17.5	41.5
167605	2026-04-20T18:49:29	16.9	42.5
167606	2026-04-20T18:59:29	16.4	44.5
167607	2026-04-20T19:09:29	16	48
167608	2026-04-20T19:19:29	15.4	49.5
167609	2026-04-20T19:29:29	15	51
167610	2026-04-20T19:39:29	14.7	51
167611	2026-04-20T19:49:29	14.3	52.5
167612	2026-04-20T19:59:29	13.8	53
167613	2026-04-20T20:09:29	12.8	54
167614	2026-04-20T20:19:29	12.8	56
167615	2026-04-20T20:29:29	12.5	55
167616	2026-04-20T20:39:29	12	57
167617	2026-04-20T20:49:29	12	57
167618	2026-04-20T20:59:29	11.9	58
167619	2026-04-20T21:09:29	11.6	59.5
167620	2026-04-20T21:19:29	11.3	60
167621	2026-04-20T21:29:29	11.1	60
167622	2026-04-20T21:39:29	10.7	62.5
167623	2026-04-20T21:49:29	10.5	62.5
167624	2026-04-20T21:59:29	10.2	64
167625	2026-04-20T22:09:29	9.9	64.5
167626	2026-04-20T22:19:29	9.8	65
167627	2026-04-20T22:29:29	9.5	66
167628	2026-04-20T22:39:29	9.1	66.5
167629	2026-04-20T22:49:29	9.1	66.5
167630	2026-04-20T22:59:29	8.9	67
167631	2026-04-20T23:09:29	8.5	68
167632	2026-04-20T23:19:29	8.4	68
167633	2026-04-20T23:29:29	8.1	69
167634	2026-04-20T23:39:29	8	70
167635	2026-04-20T23:49:28	7.7	70.5
167636	2026-04-20T23:59:28	7.7	70.5
167637	2026-04-21T00:09:28	7.4	70.5
167638	2026-04-21T00:19:28	7	72
167639	2026-04-21T00:29:28	6.7	73.5
167640	2026-04-21T00:39:28	6.6	73.5
167641	2026-04-21T00:49:28	6.6	73.5
167642	2026-04-21T00:59:28	6.5	74
167643	2026-04-21T01:09:28	6.3	74
167644	2026-04-21T01:19:28	6.1	75
167645	2026-04-21T01:29:28	6.1	76
167646	2026-04-21T01:39:28	5.9	76.5
167647	2026-04-21T01:49:28	5.7	77
167648	2026-04-21T01:59:28	5.5	77.5
167649	2026-04-21T02:09:28	5.4	78
167650	2026-04-21T02:19:28	5.3	79
167651	2026-04-21T02:29:28	5.1	79
167652	2026-04-21T02:39:28	5.2	80
167653	2026-04-21T02:49:28	5	80.5
167654	2026-04-21T02:59:28	4.8	80.5
167655	2026-04-21T03:09:28	4.5	81
167656	2026-04-21T03:19:28	4.5	82
167657	2026-04-21T03:29:28	4.3	82.5
167658	2026-04-21T03:39:28	4.2	83
167659	2026-04-21T03:49:28	4	83.5
167660	2026-04-21T03:59:28	3.9	83.5
167661	2026-04-21T04:09:28	3.6	84.5
167662	2026-04-21T04:19:28	3.6	85
167663	2026-04-21T04:29:28	3.6	84.5
167664	2026-04-21T04:39:28	3.7	85
167665	2026-04-21T04:49:28	3.6	84.5
167666	2026-04-21T04:59:28	3.6	85
167667	2026-04-21T05:09:29	3.7	85
167668	2026-04-21T05:19:28	3.8	85.5
167669	2026-04-21T05:29:28	3.9	85
167670	2026-04-21T05:39:28	4	85.5
167671	2026-04-21T05:49:28	4.3	86
167672	2026-04-21T05:59:28	4.5	86
167673	2026-04-21T06:09:28	4.7	85
167674	2026-04-21T06:19:28	5.1	84
167675	2026-04-21T06:29:28	5.3	83
167676	2026-04-21T06:39:28	5.6	84.5
167677	2026-04-21T06:49:28	5.9	84
167678	2026-04-21T06:59:28	6.2	84
167679	2026-04-21T07:09:28	6.4	84
167680	2026-04-21T07:19:28	6.8	84
167681	2026-04-21T07:29:28	7.1	83.5
167682	2026-04-21T07:39:28	7.3	82
167683	2026-04-21T07:49:28	7.6	81
167684	2026-04-21T07:59:28	8	80
167685	2026-04-21T08:09:28	8.8	77.5
167686	2026-04-21T08:19:28	9.1	75
167687	2026-04-21T08:29:28	9.3	75.5
167688	2026-04-21T08:39:28	10	73.5
167689	2026-04-21T08:49:28	10.2	73
167690	2026-04-21T08:59:28	10.5	73
167691	2026-04-21T09:09:28	11	71.5
167692	2026-04-21T09:19:28	10.9	72.5
167693	2026-04-21T09:29:28	11.8	70
167694	2026-04-21T09:39:28	12.2	69
167695	2026-04-21T09:49:28	12.3	68.5
167696	2026-04-21T09:59:28	12.1	69
167697	2026-04-21T10:09:28	13	67
167698	2026-04-21T10:19:28	13.3	65
167699	2026-04-21T10:29:28	13.5	64
167700	2026-04-21T10:39:28	14.1	62
167701	2026-04-21T10:49:28	14.5	61
167702	2026-04-21T10:59:28	14.9	59.5
167703	2026-04-21T11:09:28	15.1	58
167704	2026-04-21T11:19:28	16.2	57.5
167705	2026-04-21T11:29:28	16.5	56
167706	2026-04-21T11:39:28	15.6	57
167707	2026-04-21T11:49:28	14.8	60
167708	2026-04-21T11:59:28	14.2	61.5
167709	2026-04-21T12:09:28	14.3	60
167710	2026-04-21T12:19:28	14.3	60.5
167711	2026-04-21T12:29:28	14.7	60.5
167712	2026-04-21T12:39:28	14.9	59.5
167713	2026-04-21T12:49:28	15	60
167714	2026-04-21T12:59:28	15	59.5
167715	2026-04-21T13:09:28	14.4	65.5
167716	2026-04-21T13:19:28	13.7	76
167717	2026-04-21T13:29:28	13.4	75.5
167718	2026-04-21T13:39:28	13.5	78
167719	2026-04-21T13:49:28	13.3	76
167720	2026-04-21T13:59:28	13.2	77.5
167721	2026-04-21T14:09:28	13.7	75.5
167722	2026-04-21T14:19:28	14	74.5
167723	2026-04-21T14:29:28	14.5	75.5
167724	2026-04-21T14:39:28	16	69.5
167725	2026-04-21T14:49:28	18.7	59
167726	2026-04-21T14:59:28	18.2	57.5
167727	2026-04-21T15:09:28	19	57.5
167728	2026-04-21T15:19:28	17.9	56.5
167729	2026-04-21T15:29:28	16.3	58.5
167730	2026-04-21T15:39:28	15.8	61.5
167731	2026-04-21T15:49:28	15.1	61.5
167732	2026-04-21T15:59:28	15.1	60.5
167733	2026-04-21T16:09:28	15.1	62.5
167734	2026-04-21T16:19:28	15	62
167735	2026-04-21T16:29:28	15	61.5
167736	2026-04-21T16:39:28	14.6	63
167737	2026-04-21T16:49:27	16.9	59
167738	2026-04-21T16:59:27	17.8	55
167739	2026-04-21T17:09:27	16.8	56.5
167740	2026-04-21T17:19:27	15.7	61
167741	2026-04-21T17:29:27	15	63
167742	2026-04-21T17:39:27	14.4	65.5
167743	2026-04-21T17:49:27	13.7	68
167744	2026-04-21T17:59:27	13.2	70
167745	2026-04-21T18:09:27	12.8	71
167746	2026-04-21T18:19:27	12.6	71.5
167747	2026-04-21T18:29:27	12.3	73
167748	2026-04-21T18:39:27	11.9	74
167749	2026-04-21T18:49:27	11.6	74
167750	2026-04-21T18:59:27	11.1	75
167751	2026-04-21T19:09:27	10.7	74.5
167752	2026-04-21T19:19:27	10.5	74
167753	2026-04-21T19:29:27	10.3	74
167754	2026-04-21T19:39:27	10	75
167755	2026-04-21T19:49:27	9.7	76
167756	2026-04-21T19:59:27	9.5	76.5
167757	2026-04-21T20:09:27	9.3	76.5
167758	2026-04-21T20:19:27	9.2	78.5
167759	2026-04-21T20:29:27	8.8	79.5
167760	2026-04-21T20:39:27	8.6	79.5
167761	2026-04-21T20:49:27	8.4	80
167762	2026-04-21T20:59:27	8.1	81
167763	2026-04-21T21:09:27	7.9	82
167764	2026-04-21T21:19:27	8	81.5
167765	2026-04-21T21:29:27	7.6	82.5
167766	2026-04-21T21:39:27	7.5	84
167767	2026-04-21T21:49:27	7.3	84.5
167768	2026-04-21T21:59:27	7.2	84.5
167769	2026-04-21T22:09:27	7	84
167770	2026-04-21T22:19:27	6.9	85.5
167771	2026-04-21T22:29:27	6.9	85.5
167772	2026-04-21T22:39:27	6.6	85.5
167773	2026-04-21T22:49:27	6.4	85.5
167774	2026-04-21T22:59:27	6.2	86
167775	2026-04-21T23:09:27	6.1	86.5
167776	2026-04-21T23:19:27	5.9	86.5
167777	2026-04-21T23:29:27	5.7	87
167778	2026-04-21T23:39:27	5.5	87
167779	2026-04-21T23:49:27	5.6	87.5
167780	2026-04-21T23:59:42	5.7	87.5
167781	2026-04-22T00:09:27	5.5	87.5
167782	2026-04-22T00:19:27	5.5	87.5
167783	2026-04-22T00:29:27	5.4	87
167784	2026-04-22T00:39:27	5.3	87.5
167785	2026-04-22T00:49:27	5.3	87.5
167786	2026-04-22T00:59:27	5.1	87.5
167787	2026-04-22T01:09:27	5	87.5
167788	2026-04-22T01:19:27	5.3	84.5
167789	2026-04-22T01:29:27	5.5	83
167790	2026-04-22T01:39:27	5.5	83
167791	2026-04-22T01:49:27	5.7	81.5
167792	2026-04-22T01:59:27	5.6	81.5
167793	2026-04-22T02:09:27	5.6	80.5
167794	2026-04-22T02:19:27	5.6	81
167795	2026-04-22T02:29:27	5.7	80.5
167796	2026-04-22T02:39:27	5.6	80.5
167797	2026-04-22T02:49:27	5.5	80
167798	2026-04-22T02:59:27	5.4	81
167799	2026-04-22T03:09:27	5.1	82
167800	2026-04-22T03:19:27	5.1	82
167801	2026-04-22T03:29:27	4.9	83.5
167802	2026-04-22T03:39:27	4.5	85.5
167803	2026-04-22T03:49:27	4.3	86.5
167804	2026-04-22T03:59:27	4.3	86.5
167805	2026-04-22T04:09:27	4.2	86.5
167806	2026-04-22T04:19:27	4.2	87
167807	2026-04-22T04:29:27	4.1	87
167808	2026-04-22T04:39:27	4	87
167809	2026-04-22T04:49:27	4.2	86.5
167810	2026-04-22T04:59:27	4.1	87.5
167811	2026-04-22T05:09:27	4.3	86
167812	2026-04-22T05:19:27	4.4	86
167813	2026-04-22T05:29:27	4.5	86.5
167814	2026-04-22T05:39:27	4.5	86.5
167815	2026-04-22T05:49:27	4.7	86.5
167816	2026-04-22T05:59:27	4.9	86
167817	2026-04-22T06:09:27	5.1	85.5
167818	2026-04-22T06:19:27	5.2	84.5
167819	2026-04-22T06:29:27	5.6	84
167820	2026-04-22T06:39:27	5.7	83.5
167821	2026-04-22T06:49:27	6.1	82
167822	2026-04-22T06:59:27	6.3	82
167823	2026-04-22T07:09:27	6.5	80.5
167824	2026-04-22T07:19:27	6.7	79
167825	2026-04-22T07:29:27	7	79.5
167826	2026-04-22T07:39:27	7.4	78
167827	2026-04-22T07:49:27	7.8	75
167828	2026-04-22T07:59:27	8.1	74.5
167829	2026-04-22T08:09:27	8.2	73
167830	2026-04-22T08:19:27	8.5	70.5
167831	2026-04-22T08:29:27	8.9	69.5
167832	2026-04-22T08:39:27	8.9	69
167833	2026-04-22T08:49:27	9.4	68
167834	2026-04-22T08:59:27	9.7	66.5
167835	2026-04-22T09:09:27	10	66.5
167836	2026-04-22T09:19:27	10.2	62
167837	2026-04-22T09:29:27	10.6	60.5
167838	2026-04-22T09:39:27	10.8	58.5
167839	2026-04-22T09:49:27	11.2	55.5
167840	2026-04-22T09:59:27	11.5	52
167841	2026-04-22T10:09:27	11.8	52.5
167842	2026-04-22T10:19:27	12	50
167843	2026-04-22T10:29:27	12.3	52.5
167844	2026-04-22T10:39:27	12.4	50.5
167845	2026-04-22T10:49:27	12.7	50
167846	2026-04-22T10:59:27	12.9	50.5
167847	2026-04-22T11:09:27	13.3	49.5
167848	2026-04-22T11:19:27	13.7	47.5
167849	2026-04-22T11:29:27	13.7	46.5
167850	2026-04-22T11:39:27	14.1	46.5
167851	2026-04-22T11:49:27	14.8	45
167852	2026-04-22T11:59:27	15.3	43
167853	2026-04-22T12:09:26	16.4	45
167854	2026-04-22T12:19:26	19.5	38.5
167855	2026-04-22T12:29:27	21	37
167856	2026-04-22T12:39:26	22.5	32.5
167857	2026-04-22T12:49:26	24	33.5
167858	2026-04-22T12:59:26	25	30.5
167859	2026-04-22T13:09:26	25.6	28.5
167860	2026-04-22T13:19:26	25.9	28
167861	2026-04-22T13:29:26	27	28
167862	2026-04-22T13:39:26	27.7	25.5
167863	2026-04-22T13:49:26	28.5	27.5
167864	2026-04-22T13:59:26	29.3	25.5
167865	2026-04-22T14:09:26	29.7	24
167866	2026-04-22T14:19:26	30.1	23.5
167867	2026-04-22T14:29:26	30.5	23
167868	2026-04-22T14:39:26	30.4	22
167869	2026-04-22T14:49:26	31.1	23.5
167870	2026-04-22T14:59:26	31	21.5
167871	2026-04-22T15:09:26	31.3	23
167872	2026-04-22T15:19:26	31.9	22
167873	2026-04-22T15:29:26	31.6	23
167874	2026-04-22T15:39:26	31.1	21.5
167875	2026-04-22T15:49:26	31.2	22
167876	2026-04-22T15:59:26	31.2	21.5
167877	2026-04-22T16:09:26	30.9	21.5
167878	2026-04-22T16:19:26	30.8	22.5
167879	2026-04-22T16:29:26	31.2	21
167880	2026-04-22T16:39:26	30	24.5
167881	2026-04-22T16:49:26	29.8	23.5
167882	2026-04-22T16:59:26	28	24.5
167883	2026-04-22T17:09:26	28.1	25
167884	2026-04-22T17:19:26	27.8	24.5
167885	2026-04-22T17:29:26	26.1	27
167886	2026-04-22T17:39:26	23.8	28.5
167887	2026-04-22T17:49:26	22.5	31
167888	2026-04-22T17:59:26	21.2	32.5
167889	2026-04-22T18:09:26	20.4	35
167890	2026-04-22T18:19:26	19.6	35.5
167891	2026-04-22T18:29:26	19	37
167892	2026-04-22T18:39:26	18.5	39.5
167893	2026-04-22T18:49:26	18.1	39.5
167894	2026-04-22T18:59:26	17.5	41
167895	2026-04-22T19:09:26	17.1	42.5
167896	2026-04-22T19:19:26	16.5	43
167897	2026-04-22T19:29:26	16.1	43.5
167898	2026-04-22T19:39:26	15.6	45
167899	2026-04-22T19:49:26	14.9	45
167900	2026-04-22T19:59:26	14.9	47
167901	2026-04-22T20:09:26	14.5	48.5
167902	2026-04-22T20:19:26	14.1	50.5
167903	2026-04-22T20:29:26	13.6	51.5
167904	2026-04-22T20:39:26	13.5	52.5
167905	2026-04-22T20:49:26	13.4	52
167906	2026-04-22T20:59:26	13.2	52
167907	2026-04-22T21:09:26	12.5	54.5
167908	2026-04-22T21:19:26	12.2	55
167909	2026-04-22T21:29:26	11.9	56
167910	2026-04-22T21:39:26	11.6	55.5
167911	2026-04-22T21:49:26	11.5	58
167912	2026-04-22T21:59:26	11.2	58
167913	2026-04-22T22:09:26	11.1	58
167914	2026-04-22T22:19:26	10.6	59
167915	2026-04-22T22:29:26	10	61.5
167916	2026-04-22T22:39:26	9.9	60.5
167917	2026-04-22T22:49:26	9.8	61.5
167918	2026-04-22T22:59:26	9.5	62
167919	2026-04-22T23:09:26	9.2	63
167920	2026-04-22T23:19:26	9.2	63
167921	2026-04-22T23:29:25	8.8	64.5
167922	2026-04-22T23:39:25	8.4	65
167923	2026-04-22T23:49:25	8.2	65.5
167924	2026-04-22T23:59:25	8.3	65.5
167925	2026-04-23T00:09:25	8.1	66
167926	2026-04-23T00:19:25	7.8	67
167927	2026-04-23T00:29:25	7.7	67.5
167928	2026-04-23T00:39:25	7.5	67.5
167929	2026-04-23T00:49:25	7.5	70
167930	2026-04-23T00:59:25	7.4	70.5
167931	2026-04-23T01:09:25	7.1	71
167932	2026-04-23T01:19:25	6.8	71
167933	2026-04-23T01:29:25	6.5	71.5
167934	2026-04-23T01:39:25	6.2	72
167935	2026-04-23T01:49:25	6.5	73
167936	2026-04-23T01:59:25	6.2	72
167937	2026-04-23T02:09:25	6.3	72
167938	2026-04-23T02:19:46	6	73.5
167939	2026-04-23T02:29:25	6	73
167940	2026-04-23T02:39:25	5.7	74.5
167941	2026-04-23T02:49:25	5.7	74
167942	2026-04-23T02:59:25	5.7	73.5
167943	2026-04-23T03:09:25	5.5	74.5
167944	2026-04-23T03:19:25	5.3	74.5
167945	2026-04-23T03:29:25	5.4	74.5
167946	2026-04-23T03:39:25	5.5	74
167947	2026-04-23T03:49:25	5.3	74.5
167948	2026-04-23T03:59:25	5.2	75
167949	2026-04-23T04:09:25	5	75.5
167950	2026-04-23T04:19:25	4.8	76.5
167951	2026-04-23T04:29:25	4.8	77.5
167952	2026-04-23T04:39:25	4.6	77.5
167953	2026-04-23T04:49:25	4.6	78.5
167954	2026-04-23T04:59:25	4.5	79
167955	2026-04-23T05:09:25	4.5	79.5
167956	2026-04-23T05:19:25	4.7	78.5
167957	2026-04-23T05:29:25	4.8	79
167958	2026-04-23T05:39:25	4.9	79.5
167959	2026-04-23T05:49:25	5	80
167960	2026-04-23T05:59:25	5.2	80.5
167961	2026-04-23T06:09:25	5.5	80
167962	2026-04-23T06:19:25	5.8	80
167963	2026-04-23T06:29:25	6	80
167964	2026-04-23T06:39:25	6.1	80.5
167965	2026-04-23T06:49:25	6.5	79.5
167966	2026-04-23T06:59:25	6.9	79
167967	2026-04-23T07:09:25	7.3	75.5
167968	2026-04-23T07:19:25	7.7	75.5
167969	2026-04-23T07:29:25	7.9	75.5
167970	2026-04-23T07:39:25	8.2	74.5
167971	2026-04-23T07:49:25	8.6	74
167972	2026-04-23T07:59:25	9.1	72
167973	2026-04-23T08:09:25	9.4	72
167974	2026-04-23T08:19:25	10	71.5
167975	2026-04-23T08:29:25	10	68.5
167976	2026-04-23T08:39:25	10.5	69.5
167977	2026-04-23T08:49:25	11.1	65.5
167978	2026-04-23T08:59:25	11.4	63.5
167979	2026-04-23T09:09:25	11.7	58.5
167980	2026-04-23T09:19:25	12	60.5
167981	2026-04-23T09:29:25	12.4	60
167982	2026-04-23T09:39:25	12.6	58
167983	2026-04-23T09:49:25	13	58
167984	2026-04-23T09:59:25	13.2	55
167985	2026-04-23T10:09:25	13.6	52.5
167986	2026-04-23T10:19:25	13.9	48
167987	2026-04-23T10:29:25	14.1	45
167988	2026-04-23T10:39:25	14.4	48
167989	2026-04-23T10:49:25	14.7	46.5
167990	2026-04-23T10:59:25	14.9	49
167991	2026-04-23T11:09:25	15.2	48
167992	2026-04-23T11:19:25	15.5	44
167993	2026-04-23T11:29:25	15.8	42.5
167994	2026-04-23T11:39:25	16.2	44.5
167995	2026-04-23T11:49:25	16.8	40.5
167996	2026-04-23T11:59:25	17.2	38.5
167997	2026-04-23T12:09:25	18.3	35.5
167998	2026-04-23T12:19:25	20.5	33.5
167999	2026-04-23T12:29:25	22.8	31.5
168000	2026-04-23T12:39:25	24.5	28.5
168001	2026-04-23T12:49:25	25.8	27
168002	2026-04-23T12:59:25	25.6	23.5
168003	2026-04-23T13:09:25	27.8	24
168004	2026-04-23T13:19:25	28.5	24.5
168005	2026-04-23T13:29:25	30.2	24.5
168006	2026-04-23T13:39:25	30.5	23.5
168007	2026-04-23T13:49:25	32.1	25.5
168008	2026-04-23T13:59:25	32	22.5
168009	2026-04-23T14:09:25	32.7	22.5
168010	2026-04-23T14:19:25	33.5	23
168011	2026-04-23T14:29:25	34.1	22.5
168012	2026-04-23T14:39:25	34.8	20.5
168013	2026-04-23T14:49:25	34.1	21.5
168014	2026-04-23T14:59:25	35.3	21.5
168015	2026-04-23T15:09:25	34.3	20.5
168016	2026-04-23T15:19:25	34.3	20
168017	2026-04-23T15:29:25	34.9	21
168018	2026-04-23T15:39:25	35.2	18.5
168019	2026-04-23T15:49:24	35.2	26.5
168020	2026-04-23T15:59:24	35.7	26
168021	2026-04-23T16:09:24	36.1	21.5
168022	2026-04-23T16:19:24	36	23
168023	2026-04-23T16:29:24	36.7	21
168024	2026-04-23T16:39:24	36.5	18
168025	2026-04-23T16:49:24	35.8	20.5
168026	2026-04-23T16:59:24	33.7	19.5
168027	2026-04-23T17:09:24	34.2	20.5
168028	2026-04-23T17:19:24	33.9	19
168029	2026-04-23T17:29:24	32.9	20
168030	2026-04-23T17:39:24	29.7	21
168031	2026-04-23T17:49:24	27.2	22.5
168032	2026-04-23T17:59:24	26.2	27
168033	2026-04-23T18:09:24	25.5	28
168034	2026-04-23T18:19:24	24.7	31.5
168035	2026-04-23T18:29:24	23.8	34.5
168036	2026-04-23T18:39:24	23.1	38
168037	2026-04-23T18:49:24	22.1	40.5
168038	2026-04-23T18:59:24	21.1	40.5
168039	2026-04-23T19:09:24	20.3	43
168040	2026-04-23T19:19:24	19.5	45
168041	2026-04-23T20:41:43	17.5	47.5
168042	2026-04-23T20:41:43	18	46
168043	2026-04-23T20:41:44	16.1	49
168044	2026-04-23T20:41:44	15.7	49
168045	2026-04-23T20:41:44	16.4	48.5
168046	2026-04-23T20:41:44	18.5	44
168047	2026-04-23T20:41:44	19.1	43.5
168048	2026-04-23T20:41:44	17.1	47.5
168049	2026-04-23T20:49:24	15.5	49.5
168050	2026-04-23T20:59:24	14.5	49.5
168051	2026-04-23T21:09:24	14.7	52.5
168052	2026-04-23T21:19:24	14.3	53.5
168053	2026-04-23T21:29:24	14.1	55
168054	2026-04-23T21:39:24	13.8	55.5
168055	2026-04-23T21:49:24	13.4	56.5
168056	2026-04-23T21:59:44	13	57
168057	2026-04-23T22:09:24	12.6	58
168058	2026-04-23T22:19:24	12.4	57.5
168059	2026-04-23T22:29:24	12.1	58.5
168060	2026-04-23T22:39:24	11.8	58.5
168061	2026-04-23T22:49:24	11.6	59
168062	2026-04-23T22:59:24	11.4	60
168063	2026-04-23T23:09:24	11.1	61
168064	2026-04-23T23:19:24	10.9	62
168065	2026-04-23T23:29:24	10.7	63
168066	2026-04-23T23:39:24	10.5	63.5
168067	2026-04-23T23:49:24	10.4	63.5
168068	2026-04-23T23:59:24	10.2	62.5
168069	2026-04-24T00:09:24	9.8	62.5
168070	2026-04-24T00:19:24	9.6	64.5
168071	2026-04-24T00:29:24	9.5	64.5
168072	2026-04-24T00:39:24	9.2	65.5
168073	2026-04-24T00:49:24	9	66
168074	2026-04-24T00:59:24	8.8	67
168075	2026-04-24T01:09:24	8.7	67.5
168076	2026-04-24T01:19:24	8.5	67.5
168077	2026-04-24T01:29:24	8.3	68
168078	2026-04-24T01:39:24	8.1	68.5
168079	2026-04-24T01:49:24	7.9	69.5
168080	2026-04-24T01:59:24	7.8	70
168081	2026-04-24T02:09:24	7.6	70
168082	2026-04-24T02:19:24	7.4	71
168083	2026-04-24T02:29:24	7.3	72
168084	2026-04-24T02:39:24	7	72
168085	2026-04-24T02:49:24	6.9	73
168086	2026-04-24T02:59:24	6.6	74
168087	2026-04-24T03:09:24	6.6	74
168088	2026-04-24T03:19:24	6.5	74.5
168089	2026-04-24T03:29:24	6.2	74.5
168090	2026-04-24T03:39:24	6.3	74.5
168091	2026-04-24T03:49:24	6	75.5
168092	2026-04-24T03:59:24	6	77
168093	2026-04-24T04:09:24	5.7	77
168094	2026-04-24T04:19:24	5.6	78
168095	2026-04-24T04:29:24	5.5	78
168096	2026-04-24T04:39:24	5.4	78.5
168097	2026-04-24T04:49:24	5.3	79
168098	2026-04-24T04:59:24	5.4	79
168099	2026-04-24T05:09:24	5.5	79.5
168100	2026-04-24T05:19:24	5.5	79.5
168101	2026-04-24T05:29:24	5.5	79.5
168102	2026-04-24T05:39:24	5.8	80
168103	2026-04-24T05:49:24	5.9	80.5
168104	2026-04-24T05:59:24	6.2	81
168105	2026-04-24T06:09:24	6.5	79
168106	2026-04-24T06:19:23	6.9	79
168107	2026-04-24T06:29:23	7.3	78
168108	2026-04-24T06:39:23	7.7	77.5
168109	2026-04-24T06:49:23	8.4	73.5
168110	2026-04-24T06:59:23	8.8	70.5
168111	2026-04-24T07:09:23	9.2	70.5
168112	2026-04-24T07:19:23	9.5	70.5
168113	2026-04-24T07:29:23	9.7	69.5
168114	2026-04-24T07:39:23	10	70
168115	2026-04-24T07:49:23	10.2	68.5
168116	2026-04-24T07:59:23	10.5	68.5
168117	2026-04-24T08:09:23	11	65
168118	2026-04-24T08:19:23	11.2	65
168119	2026-04-24T08:29:23	11.5	63.5
168120	2026-04-24T08:39:23	11.8	63
168121	2026-04-24T08:49:23	12.1	62
168122	2026-04-24T08:59:23	12.5	62
168123	2026-04-24T09:09:23	12.7	61
168124	2026-04-24T09:19:23	12.9	55.5
168125	2026-04-24T09:29:23	13.3	50
168126	2026-04-24T09:39:23	13.4	48.5
168127	2026-04-24T09:49:23	13.6	52.5
168128	2026-04-24T09:59:23	13.9	49.5
168129	2026-04-24T10:09:23	14.2	48.5
168130	2026-04-24T10:19:23	14.4	44
168131	2026-04-24T10:29:23	14.7	40.5
168132	2026-04-24T10:39:23	14.9	33.5
168133	2026-04-24T10:49:23	15.3	34.5
168134	2026-04-24T10:59:23	15.2	36.5
168135	2026-04-24T11:09:23	15.7	39
168136	2026-04-24T11:19:23	16.2	37.5
168137	2026-04-24T11:29:23	16.6	38
168138	2026-04-24T11:39:23	16.8	34.5
168139	2026-04-24T11:49:23	17.4	30
168140	2026-04-24T11:59:23	17.9	31
168141	2026-04-24T12:09:23	19	33.5
168142	2026-04-24T12:19:23	22.1	29
168143	2026-04-24T12:29:23	23.3	26.5
168144	2026-04-24T12:39:23	24.9	20.5
168145	2026-04-24T12:49:23	26.6	23
168146	2026-04-24T12:59:23	26.8	21.5
168147	2026-04-24T13:09:23	27.6	20
168148	2026-04-24T13:19:23	29.5	21
168149	2026-04-24T13:29:23	30.7	20
168150	2026-04-24T13:39:23	31.7	18.5
168151	2026-04-24T13:49:23	32.2	17.5
168152	2026-04-24T13:59:23	33.3	18
168153	2026-04-24T14:09:23	33.4	16.5
168154	2026-04-24T14:19:23	34.2	18
168155	2026-04-24T14:29:23	34.3	17
168156	2026-04-24T14:39:23	34.5	17.5
168157	2026-04-24T14:49:23	35.3	16.5
168158	2026-04-24T14:59:23	34.9	18
168159	2026-04-24T15:09:23	35.1	17.5
168160	2026-04-24T15:19:23	35.4	17.5
168161	2026-04-24T15:29:23	35.1	18
168162	2026-04-24T15:39:23	36.3	17.5
168163	2026-04-24T15:49:23	35.5	18
168164	2026-04-24T15:59:23	36.7	19
168165	2026-04-24T16:09:23	36.9	19.5
168166	2026-04-24T16:19:23	36.8	18.5
168167	2026-04-24T16:29:23	36.7	18.5
168168	2026-04-24T16:39:23	36	19.5
168169	2026-04-24T16:49:23	35.8	18
168170	2026-04-24T16:59:23	35	20.5
168171	2026-04-24T17:09:23	35.1	20
168172	2026-04-24T17:19:23	34.3	20
168173	2026-04-24T17:29:23	34	20.5
168174	2026-04-24T17:39:23	31.1	22
168175	2026-04-24T17:49:23	28.8	25
168176	2026-04-24T17:59:23	27	26
168177	2026-04-24T18:09:23	26.1	28
168178	2026-04-24T18:19:22	25.3	32
168179	2026-04-24T18:29:22	24.5	35.5
168180	2026-04-24T18:39:22	23.5	38
168181	2026-04-24T18:49:22	22.6	40
168182	2026-04-24T18:59:22	21.9	41.5
168183	2026-04-24T19:09:22	21.3	41.5
168184	2026-04-24T19:19:22	20.6	42.5
168185	2026-04-24T19:29:22	20	43.5
168186	2026-04-24T19:39:22	19.6	45
168187	2026-04-24T19:49:22	19	45.5
168188	2026-04-24T19:59:22	18.2	46
168189	2026-04-24T20:09:22	17.8	47
168190	2026-04-24T20:19:41	17.1	46.5
168191	2026-04-24T20:29:22	16.8	48
168192	2026-04-24T20:39:22	16.6	49.5
168193	2026-04-24T20:49:22	16.2	50.5
168194	2026-04-24T20:59:22	15.9	51
168195	2026-04-24T21:09:22	15.6	52.5
168196	2026-04-24T21:19:22	15	53
168197	2026-04-24T21:29:22	14.9	55.5
168198	2026-04-24T21:39:22	14.6	56
168199	2026-04-24T21:49:22	14.2	57
168200	2026-04-24T21:59:22	13.9	58
168201	2026-04-24T22:09:22	13.7	58
168202	2026-04-24T22:19:22	13.4	59
168203	2026-04-24T22:29:22	13.1	59.5
168204	2026-04-24T22:39:22	12.8	60
168205	2026-04-24T22:49:22	12.5	61
168206	2026-04-24T22:59:22	12.2	61.5
168207	2026-04-24T23:09:22	12	62.5
168208	2026-04-24T23:19:22	11.7	64
168209	2026-04-24T23:29:22	11.6	65
168210	2026-04-24T23:39:22	11.3	66
168211	2026-04-24T23:49:22	11.1	65.5
168212	2026-04-24T23:59:22	10.8	67
168213	2026-04-25T00:09:22	10.6	67
168214	2026-04-25T00:19:22	10.5	68
168215	2026-04-25T00:29:22	10.3	68
168216	2026-04-25T00:39:22	10	69.5
168217	2026-04-25T00:49:22	9.8	70
168218	2026-04-25T00:59:22	9.7	70.5
168219	2026-04-25T01:09:22	9.5	71
168220	2026-04-25T01:19:22	9.3	71.5
168221	2026-04-25T01:29:22	9.1	72.5
168222	2026-04-25T01:39:22	9	73.5
168223	2026-04-25T01:49:22	8.7	73.5
168224	2026-04-25T02:09:22	8.4	74.5
168225	2026-04-25T02:19:22	8.3	75.5
168226	2026-04-25T02:29:22	8.2	75.5
168227	2026-04-25T02:39:22	8	76.5
168228	2026-04-25T02:49:22	7.8	77
168229	2026-04-25T02:59:22	7.6	77.5
168230	2026-04-25T03:09:22	7.5	78
168231	2026-04-25T03:19:22	7.3	78.5
168232	2026-04-25T03:29:22	7.1	80
168233	2026-04-25T03:39:22	6.9	80.5
168234	2026-04-25T03:49:22	6.9	80
168235	2026-04-25T03:59:22	6.7	79.5
168236	2026-04-25T04:09:22	6.6	80.5
168237	2026-04-25T04:19:22	6.5	80.5
168238	2026-04-25T04:29:22	6.3	81
168239	2026-04-25T04:39:22	6.5	81
168240	2026-04-25T04:49:22	6.4	81.5
168241	2026-04-25T04:59:22	6.4	82
168242	2026-04-25T05:09:22	6.5	82.5
168243	2026-04-25T05:19:22	6.7	82.5
168244	2026-04-25T05:29:22	6.9	82.5
168245	2026-04-25T05:39:22	6.8	82.5
168246	2026-04-25T05:49:22	6.7	83.5
168247	2026-04-25T05:59:22	7.1	84
168248	2026-04-25T06:09:22	7.5	84.5
168249	2026-04-25T06:19:22	7.7	84
168250	2026-04-25T06:29:22	7.6	84
168251	2026-04-25T06:39:22	7.9	84.5
168252	2026-04-25T06:49:22	8.2	83.5
168253	2026-04-25T06:59:22	8.7	81.5
168254	2026-04-25T07:09:22	9.1	79.5
168255	2026-04-25T07:19:22	9.2	80
168256	2026-04-25T07:29:22	9.5	80
168257	2026-04-25T07:39:22	9.9	79.5
168258	2026-04-25T07:49:22	10.4	78.5
168259	2026-04-25T07:59:22	10.7	76
168260	2026-04-25T08:09:22	11	74.5
168261	2026-04-25T08:19:22	11.3	73.5
168262	2026-04-25T08:29:22	11.5	72
168263	2026-04-25T08:39:22	11.9	70.5
168264	2026-04-25T08:49:22	12.3	68
168265	2026-04-25T08:59:22	12.6	70
168266	2026-04-25T09:09:22	12.9	68
168267	2026-04-25T09:19:22	13.2	67.5
168268	2026-04-25T09:29:21	13.8	66
168269	2026-04-25T09:39:21	13.9	67.5
168270	2026-04-25T09:49:21	14.1	64.5
168271	2026-04-25T09:59:21	14.4	64
168272	2026-04-25T10:09:21	14.9	61
168273	2026-04-25T10:19:21	14.9	56
168274	2026-04-25T10:29:21	15.5	58
168275	2026-04-25T10:39:21	15.6	58
168276	2026-04-25T10:49:21	16	54.5
168277	2026-04-25T10:59:21	16.4	50.5
168278	2026-04-25T11:09:21	16.4	51
168279	2026-04-25T11:19:21	16.8	50
168280	2026-04-25T11:29:21	16.8	48.5
168281	2026-04-25T11:39:21	17.5	51
168282	2026-04-25T11:49:21	18	48.5
168283	2026-04-25T11:59:21	18.6	45
168284	2026-04-25T12:09:21	19.3	40.5
168285	2026-04-25T12:19:21	21.8	34.5
168286	2026-04-25T12:29:21	24.2	36
168287	2026-04-25T12:39:21	25.5	29.5
168288	2026-04-25T12:49:21	26.3	26.5
168289	2026-04-25T12:59:21	28.2	25.5
168290	2026-04-25T13:09:21	28.9	26
168291	2026-04-25T13:19:21	29	27
168292	2026-04-25T13:29:21	31	24.5
168293	2026-04-25T13:39:21	30.1	23.5
168294	2026-04-25T13:49:21	29.9	23.5
168295	2026-04-25T13:59:21	30.5	24.5
168296	2026-04-25T14:09:21	33.2	21
168297	2026-04-25T14:19:21	33.6	20
168298	2026-04-25T14:29:21	35.2	20
168299	2026-04-25T14:39:21	35.4	19.5
168300	2026-04-25T14:49:21	35.8	20
168301	2026-04-25T14:59:21	37.2	19.5
168302	2026-04-25T15:09:21	36	19.5
168303	2026-04-25T15:19:21	36.2	19.5
168304	2026-04-25T15:29:21	36.5	21.5
168305	2026-04-25T15:39:21	35.3	21.5
168306	2026-04-25T15:49:21	35.1	22
168307	2026-04-25T15:59:21	34.7	21.5
168308	2026-04-25T16:09:21	35.9	21.5
168309	2026-04-25T16:19:21	36.3	21.5
168310	2026-04-25T16:29:21	36.1	20.5
168311	2026-04-25T16:39:21	35.9	21.5
168312	2026-04-25T16:49:21	36.7	20.5
168313	2026-04-25T16:59:21	35.5	21.5
168314	2026-04-25T17:09:21	35.3	21.5
168315	2026-04-25T17:19:21	35.7	21.5
168316	2026-04-25T17:29:21	34	21.5
168317	2026-04-25T17:39:21	31.1	23.5
168318	2026-04-25T17:49:21	29	25.5
168319	2026-04-25T17:59:21	27.8	25.5
168320	2026-04-25T18:09:21	27.1	27
168321	2026-04-25T18:19:21	26	28.5
168322	2026-04-25T18:29:21	25.2	29.5
168323	2026-04-25T18:39:21	24.3	33.5
168324	2026-04-25T18:49:21	23.5	36
168325	2026-04-25T18:59:21	22.8	38.5
168326	2026-04-25T19:09:21	22.1	38
168327	2026-04-25T19:19:21	21.7	40.5
168328	2026-04-25T19:29:21	21	40
168329	2026-04-25T19:49:21	19.8	41.5
168330	2026-04-25T19:59:21	19.3	41.5
168331	2026-04-25T20:09:21	18.8	41.5
168332	2026-04-25T20:19:21	18.4	43
168333	2026-04-25T20:29:21	17.9	43.5
168334	2026-04-25T20:39:21	17.5	45.5
168335	2026-04-25T20:49:20	17.1	45.5
168336	2026-04-25T20:59:20	16.7	48
168337	2026-04-25T21:09:20	16.4	48
168338	2026-04-25T21:19:20	16.1	48.5
168339	2026-04-25T21:29:20	15.1	49.5
168340	2026-04-25T21:39:20	15.2	51
168341	2026-04-25T21:49:20	14.9	50.5
168342	2026-04-25T21:59:20	14.6	52.5
168343	2026-04-25T22:09:20	14.2	53.5
168344	2026-04-25T22:19:20	14.1	51.5
168345	2026-04-25T22:29:20	13.8	50.5
168346	2026-04-25T22:39:20	13.5	52
168347	2026-04-25T22:49:20	13.3	51.5
168348	2026-04-25T22:59:20	13	51.5
168349	2026-04-25T23:09:20	12.5	52.5
168350	2026-04-25T23:19:20	12.4	52.5
168351	2026-04-25T23:29:20	12.3	52.5
168352	2026-04-25T23:39:20	12	54.5
168353	2026-04-25T23:49:20	11.8	56.5
168354	2026-04-25T23:59:20	11.5	56
168355	2026-04-26T00:09:20	11.3	57
168356	2026-04-26T00:19:20	11.1	58.5
168357	2026-04-26T00:29:20	10.7	59
168358	2026-04-26T00:39:20	10.5	60.5
168359	2026-04-26T00:49:20	10.3	60
168360	2026-04-26T00:59:20	9.9	61
168361	2026-04-26T01:09:20	9.9	61
168362	2026-04-26T01:19:20	9.6	63
168363	2026-04-26T01:29:20	9.3	63.5
168364	2026-04-26T01:39:20	9.2	65
168365	2026-04-26T01:49:20	9.1	64
168366	2026-04-26T01:59:20	8.8	64.5
168367	2026-04-26T02:09:20	8.5	65.5
168368	2026-04-26T02:19:20	8.5	65
168369	2026-04-26T02:29:20	8.3	65
168370	2026-04-26T02:39:20	8	66
168371	2026-04-26T02:49:20	7.8	67
168372	2026-04-26T02:59:20	7.8	67
168373	2026-04-26T03:09:20	7.8	65.5
168374	2026-04-26T03:19:20	7.3	67.5
168375	2026-04-26T03:29:20	7.3	68
168376	2026-04-26T03:39:20	7	68
168377	2026-04-26T03:49:20	7	69
168378	2026-04-26T03:59:20	6.9	68
168379	2026-04-26T04:09:20	6.8	69
168380	2026-04-26T04:19:20	6.5	69.5
168381	2026-04-26T04:29:20	6.6	70.5
168382	2026-04-26T04:39:20	6.7	69
168383	2026-04-26T04:49:20	6.5	69.5
168384	2026-04-26T04:59:20	6.3	70
168385	2026-04-26T05:09:20	6.5	70.5
168386	2026-04-26T05:19:20	6.7	70
168387	2026-04-26T05:29:20	6.9	69.5
168388	2026-04-26T05:39:20	7	69.5
168389	2026-04-26T05:49:20	7.2	70
168390	2026-04-26T05:59:20	7.6	70
168391	2026-04-26T06:09:20	7.6	70
168392	2026-04-26T06:19:20	8	69
168393	2026-04-26T06:29:20	8.3	68.5
168394	2026-04-26T06:39:20	8.6	68
168395	2026-04-26T06:49:20	9.2	68.5
168396	2026-04-26T06:59:20	9.6	66
168397	2026-04-26T07:09:20	10.1	66.5
168398	2026-04-26T07:19:20	10.6	64
168399	2026-04-26T07:29:20	11	64
168400	2026-04-26T07:39:20	11.4	61.5
168401	2026-04-26T07:49:20	11.7	59
168402	2026-04-26T07:59:20	11.8	60
168403	2026-04-26T08:09:20	12.2	58.5
168404	2026-04-26T08:19:20	12.5	59
168405	2026-04-26T08:29:20	12.8	59
168406	2026-04-26T08:39:20	13.1	59
168407	2026-04-26T08:49:20	13.6	58
168408	2026-04-26T08:59:20	13.9	57.5
168409	2026-04-26T09:09:20	14.2	57
168410	2026-04-26T09:19:20	14.7	54.5
168411	2026-04-26T09:29:20	14.9	55.5
168412	2026-04-26T09:39:20	15.3	54.5
168413	2026-04-26T09:49:20	15.8	52
168414	2026-04-26T09:59:20	16.1	52.5
168415	2026-04-26T10:09:20	16.5	49
168416	2026-04-26T10:19:20	16.2	50
168417	2026-04-26T10:29:20	16.5	48.5
168418	2026-04-26T10:39:20	16.5	48.5
168419	2026-04-26T11:09:20	17.5	47
168420	2026-04-26T11:19:20	17.6	44.5
168421	2026-04-26T11:29:20	17.9	45
168422	2026-04-26T11:39:19	18	44
168423	2026-04-26T11:49:19	18.6	43
168424	2026-04-26T11:59:19	19	43
168425	2026-04-26T12:09:19	20	41
168426	2026-04-26T12:19:19	22.8	36.5
168427	2026-04-26T12:29:19	25	34
168428	2026-04-26T12:39:19	25.6	33
168429	2026-04-26T12:49:19	25.9	31.5
168430	2026-04-26T12:59:19	25.9	32.5
168431	2026-04-26T13:09:19	27.2	29
168432	2026-04-26T13:19:19	28.8	30
168433	2026-04-26T13:29:19	29.9	29
168434	2026-04-26T13:39:19	30.3	27
168435	2026-04-26T13:49:19	30.6	26
168436	2026-04-26T13:59:19	31.7	26
168437	2026-04-26T14:09:19	33.2	23.5
168438	2026-04-26T14:19:19	33.5	21.5
168439	2026-04-26T14:29:19	33.9	23.5
168440	2026-04-26T14:39:19	33.6	22.5
168441	2026-04-26T14:49:19	34.7	23.5
168442	2026-04-26T14:59:19	35.2	22.5
168443	2026-04-26T15:09:19	34.8	23
168444	2026-04-26T15:19:19	35.3	21.5
168445	2026-04-26T15:29:19	35.7	22
168446	2026-04-26T15:39:19	35.2	22
168447	2026-04-26T15:49:19	35.4	21.5
168448	2026-04-26T15:59:19	35.5	21.5
168449	2026-04-26T16:09:19	35.5	20.5
168450	2026-04-26T16:19:19	35.6	19.5
168451	2026-04-26T16:29:19	35.4	19.5
168452	2026-04-26T16:39:19	35.4	18
168453	2026-04-26T16:49:19	34.2	18.5
168454	2026-04-26T16:59:19	33.1	19.5
168455	2026-04-26T17:09:19	33.1	20
168456	2026-04-26T17:19:19	33.4	18
168457	2026-04-26T17:29:19	32.8	21
168458	2026-04-26T17:39:19	29.6	25
168459	2026-04-26T17:49:19	27.7	28.5
168460	2026-04-26T17:59:19	26	30.5
168461	2026-04-26T18:09:19	24.8	31.5
168462	2026-04-26T18:19:19	23.9	31.5
168463	2026-04-26T18:29:19	23.3	33.5
168464	2026-04-26T18:39:19	22.6	33.5
168465	2026-04-26T18:49:19	22	35
168466	2026-04-26T18:59:19	21.3	40
168467	2026-04-26T19:09:19	20.6	43
168468	2026-04-26T19:19:19	19.9	45
168469	2026-04-26T19:29:19	19.5	45
168470	2026-04-26T19:39:19	19	46.5
168471	2026-04-26T19:49:19	18.6	47.5
168472	2026-04-26T19:59:19	18.2	46.5
168473	2026-04-26T20:09:19	17.7	47
168474	2026-04-26T20:19:19	17.3	47.5
168475	2026-04-26T20:29:19	16.8	48.5
168476	2026-04-26T20:39:19	16.5	49.5
168477	2026-04-26T20:49:19	16.1	50
168478	2026-04-26T20:59:19	15.7	50.5
168479	2026-04-26T21:09:19	15.3	52.5
168480	2026-04-26T21:19:19	15	53
168481	2026-04-26T21:29:19	14.9	53.5
168482	2026-04-26T21:39:19	14.6	53
168483	2026-04-26T21:49:19	14.4	53.5
168484	2026-04-26T21:59:19	13.9	54.5
168485	2026-04-26T22:09:19	13.6	55
168486	2026-04-26T22:19:18	13.3	57
168487	2026-04-26T22:29:18	13.2	58
168488	2026-04-26T22:39:18	12.9	58.5
168489	2026-04-26T22:49:18	12.8	58.5
168490	2026-04-26T22:59:18	12.3	59
168491	2026-04-26T23:09:18	11.9	60.5
168492	2026-04-26T23:19:18	11.9	61
168493	2026-04-26T23:29:18	11.5	61.5
168494	2026-04-26T23:39:18	11.4	62
168495	2026-04-26T23:49:18	11.2	62.5
168496	2026-04-26T23:59:18	10.9	63
168497	2026-04-27T00:09:18	10.8	64
168498	2026-04-27T00:19:18	10.6	65
168499	2026-04-27T00:29:18	10.4	64.5
168500	2026-04-27T00:39:18	10	65
168501	2026-04-27T00:49:18	9.9	65.5
168502	2026-04-27T00:59:18	9.6	67
168503	2026-04-27T01:09:18	9.7	67.5
168504	2026-04-27T01:19:18	9.3	67
168505	2026-04-27T01:29:18	9.4	68
168506	2026-04-27T01:39:18	9.5	68
168507	2026-04-27T01:49:18	9.2	68.5
168508	2026-04-27T01:59:18	9.1	69
168509	2026-04-27T02:09:18	8.8	69.5
168510	2026-04-27T02:19:18	8.7	70.5
168511	2026-04-27T02:29:18	8.6	71
168512	2026-04-27T02:39:18	8.4	71
168513	2026-04-27T02:49:18	8.3	72
168514	2026-04-27T02:59:18	8.2	72.5
168515	2026-04-27T03:09:18	8	73
168516	2026-04-27T03:19:18	7.8	73
168517	2026-04-27T03:29:18	7.8	74.5
168518	2026-04-27T03:49:18	7.4	75
168519	2026-04-27T03:59:18	7.3	75.5
168520	2026-04-27T04:09:18	7.3	76.5
168521	2026-04-27T04:19:18	7.1	76.5
168522	2026-04-27T04:29:18	7.1	77.5
168523	2026-04-27T04:39:18	7.1	77
168524	2026-04-27T04:49:18	7	76.5
168525	2026-04-27T04:59:18	7.2	77
168526	2026-04-27T05:09:18	7.3	77
168527	2026-04-27T05:19:18	7.4	77
168528	2026-04-27T05:29:18	7.4	77
168529	2026-04-27T05:39:18	7.8	76.5
168530	2026-04-27T05:49:18	7.9	76.5
168531	2026-04-27T05:59:18	7.9	76.5
168532	2026-04-27T06:09:18	8.1	76.5
168533	2026-04-27T06:19:18	8.3	76
168534	2026-04-27T06:29:18	8.6	75
168535	2026-04-27T06:39:18	8.9	74
168536	2026-04-27T06:49:18	9.1	74
168537	2026-04-27T06:59:18	9.4	72.5
168538	2026-04-27T07:09:18	9.7	72.5
168539	2026-04-27T07:19:18	10.2	71.5
168540	2026-04-27T07:29:18	10.5	72
168541	2026-04-27T07:39:18	10.7	71.5
168542	2026-04-27T07:49:18	11.3	71
168543	2026-04-27T07:59:18	11.5	68.5
168544	2026-04-27T08:09:18	11.8	67.5
168545	2026-04-27T08:19:18	12.4	65.5
168546	2026-04-27T08:29:18	12.7	65.5
168547	2026-04-27T08:39:18	12.9	65
168548	2026-04-27T08:49:18	13.4	62.5
168549	2026-04-27T08:59:18	13.7	60.5
168550	2026-04-27T09:09:18	14	61
168551	2026-04-27T09:19:18	14.3	59
168552	2026-04-27T09:29:18	14.6	59.5
168553	2026-04-27T09:39:18	15	58.5
168554	2026-04-27T09:49:18	15.3	56
168555	2026-04-27T09:59:18	15.5	54
168556	2026-04-27T10:09:18	16	54
168557	2026-04-27T10:19:18	16.3	51
168558	2026-04-27T10:29:18	16.6	48
168559	2026-04-27T10:39:18	16.9	51.5
168560	2026-04-27T10:49:18	17.4	50
168561	2026-04-27T10:59:18	17.6	48
168562	2026-04-27T11:09:18	18	47
168563	2026-04-27T11:19:18	18.5	48
168564	2026-04-27T11:29:18	19.1	44
168565	2026-04-27T11:39:18	19.8	43
168566	2026-04-27T11:49:18	20.6	43
168567	2026-04-27T11:59:18	21.1	41.5
168568	2026-04-27T12:09:18	21.9	39
168569	2026-04-27T12:19:18	23.5	38
168570	2026-04-27T12:29:18	24.9	34.5
168571	2026-04-27T12:39:18	25.2	31.5
168572	2026-04-27T12:49:18	25.2	31.5
168573	2026-04-27T12:59:17	24.7	31
168574	2026-04-27T13:09:17	26.6	31
168575	2026-04-27T13:19:17	27.4	30
168576	2026-04-27T13:29:17	27.3	27.5
168577	2026-04-27T13:39:17	27.3	28
168578	2026-04-27T13:49:17	27.5	26.5
168579	2026-04-27T13:59:17	27.5	26
168580	2026-04-27T14:09:17	27.6	27.5
168581	2026-04-27T14:19:17	27.5	25
168582	2026-04-27T14:29:17	27.8	25.5
168583	2026-04-27T14:39:17	27.3	26
168584	2026-04-27T14:49:17	27.2	25
168585	2026-04-27T14:59:17	27.2	24
168586	2026-04-27T15:09:17	27.6	25.5
168587	2026-04-27T15:19:17	28.3	24.5
168588	2026-04-27T15:29:17	29.8	23.5
168589	2026-04-27T15:39:17	31.4	21
168590	2026-04-27T15:49:17	31.4	22
168591	2026-04-27T15:59:17	30.9	21.5
168592	2026-04-27T16:09:17	30.9	21.5
168593	2026-04-27T16:19:17	31.5	20
168594	2026-04-27T16:29:17	30.2	21.5
168595	2026-04-27T16:39:17	28	23
168596	2026-04-27T16:49:17	27.1	24.5
168597	2026-04-27T16:59:17	26.7	24.5
168598	2026-04-27T17:09:17	26.2	26.5
168599	2026-04-27T17:19:17	25.2	27.5
168600	2026-04-27T17:29:17	24.7	29.5
168601	2026-04-27T17:39:17	24	31
168602	2026-04-27T17:49:17	23.4	32
168603	2026-04-27T17:59:17	22.5	34
168604	2026-04-27T18:09:17	22.1	35
168605	2026-04-27T18:19:17	21.5	36
168606	2026-04-27T18:29:17	21	36.5
168607	2026-04-27T18:39:17	20.8	37
168608	2026-04-27T18:49:17	20.4	36.5
168609	2026-04-27T18:59:17	20.1	37
168610	2026-04-27T19:09:17	19.7	38
168611	2026-04-27T19:19:17	18.9	39
168612	2026-04-27T19:29:17	18.9	40
168613	2026-04-27T19:39:17	18.6	42.5
168614	2026-04-27T19:49:17	18.3	43.5
168615	2026-04-27T19:59:17	17.7	45.5
168616	2026-04-27T20:09:17	17.5	46
168617	2026-04-27T20:19:17	17.1	47
168618	2026-04-27T20:29:17	16.9	47
168619	2026-04-27T20:39:17	16.7	47.5
168620	2026-04-27T20:49:17	16.4	48
168621	2026-04-27T20:59:17	16.1	47
168622	2026-04-27T21:09:17	15.8	48
168623	2026-04-27T21:19:17	15.6	50
168624	2026-04-27T21:29:17	15.2	51
168625	2026-04-27T21:39:17	14.9	52
168626	2026-04-27T21:49:17	14.6	52
168627	2026-04-27T21:59:17	14.4	51
168628	2026-04-27T22:09:17	14	53
168629	2026-04-27T22:19:17	13.8	53
168630	2026-04-27T22:29:17	14	51.5
168631	2026-04-27T22:39:17	13.4	52.5
168632	2026-04-27T22:49:17	13.4	52.5
168633	2026-04-27T22:59:17	13.3	53
168634	2026-04-27T23:09:17	13.1	54.5
168635	2026-04-27T23:19:17	13.2	54.5
168636	2026-04-27T23:29:17	13	55
168637	2026-04-27T23:39:17	12.9	54.5
168638	2026-04-27T23:49:16	12.7	55.5
168639	2026-04-27T23:59:16	12.5	55.5
168640	2026-04-28T00:09:16	12.5	56
168641	2026-04-28T00:19:16	12.5	56.5
168642	2026-04-28T00:29:16	12.5	56
168643	2026-04-28T00:39:16	12.4	56
168644	2026-04-28T00:49:16	12.4	55
168645	2026-04-28T00:59:16	12.4	55
168646	2026-04-28T01:09:16	12.3	55.5
168647	2026-04-28T01:19:16	12.5	55.5
168648	2026-04-28T01:29:16	12.2	56.5
168649	2026-04-28T01:39:16	12.1	57.5
168650	2026-04-28T01:49:16	11.8	57
168651	2026-04-28T01:59:16	11.9	57
168652	2026-04-28T02:09:16	11.9	58
168653	2026-04-28T02:19:16	11.7	58
168654	2026-04-28T02:29:16	11.4	59
168655	2026-04-28T02:39:16	11.2	60
168656	2026-04-28T02:49:16	11.1	60
168657	2026-04-28T02:59:16	10.9	60.5
168658	2026-04-28T03:09:16	10.7	61
168659	2026-04-28T03:19:16	10.6	61.5
168660	2026-04-28T03:29:16	10.6	61.5
168661	2026-04-28T03:39:16	10.7	60.5
168662	2026-04-28T03:49:16	10.6	60.5
168663	2026-04-28T03:59:16	10.5	61.5
168664	2026-04-28T04:09:16	10.4	62.5
168665	2026-04-28T04:19:16	10.3	62.5
168666	2026-04-28T04:29:16	10.1	63
168667	2026-04-28T04:39:16	10.3	62.5
168668	2026-04-28T04:49:16	10.3	63
168669	2026-04-28T04:59:16	10.2	63.5
168670	2026-04-28T05:09:16	10.2	64
168671	2026-04-28T05:19:16	10.2	63.5
168672	2026-04-28T05:29:16	10.4	63.5
168673	2026-04-28T05:39:16	10.5	64
168674	2026-04-28T05:49:16	10.7	63
168675	2026-04-28T05:59:16	10.8	63
168676	2026-04-28T06:09:16	11	63
168677	2026-04-28T06:19:16	11.1	63
168678	2026-04-28T06:29:16	11.4	62.5
168679	2026-04-28T06:39:16	11.5	63
168680	2026-04-28T06:49:16	11.7	63
168681	2026-04-28T06:59:16	11.9	62
168682	2026-04-28T07:09:16	12.3	61.5
168683	2026-04-28T07:19:16	12.6	61.5
168684	2026-04-28T07:29:16	12.9	60
168685	2026-04-28T07:39:16	13	59.5
168686	2026-04-28T07:49:16	13.4	58
168687	2026-04-28T07:59:16	13.8	57.5
168688	2026-04-28T08:09:16	14	57.5
168689	2026-04-28T08:19:16	14.1	58
168690	2026-04-28T08:29:16	14.6	55.5
168691	2026-04-28T08:39:16	14.7	55.5
168692	2026-04-28T08:49:16	14.9	56
168693	2026-04-28T08:59:16	15.3	54
168694	2026-04-28T09:09:16	15.6	54.5
168695	2026-04-28T09:19:16	16	55.5
168696	2026-04-28T09:29:16	16.3	53
168697	2026-04-28T09:39:16	16.6	54
168698	2026-04-28T09:49:16	16.8	51
168699	2026-04-28T09:59:16	17.1	51
168700	2026-04-28T10:09:16	17.3	48.5
168701	2026-04-28T10:19:16	17.6	47
168702	2026-04-28T10:29:16	18	47.5
168703	2026-04-28T10:39:16	18.4	44.5
168704	2026-04-28T10:49:16	18.5	45.5
168705	2026-04-28T10:59:16	18.7	43.5
168706	2026-04-28T11:09:16	19	41
168707	2026-04-28T11:19:16	19.2	42.5
168708	2026-04-28T11:29:16	19.7	42
168709	2026-04-28T11:39:16	20.3	42
168710	2026-04-28T11:49:16	21.1	39.5
168711	2026-04-28T11:59:16	21.7	38
168712	2026-04-28T12:09:16	22.7	37
168713	2026-04-28T12:19:16	25.2	33
168714	2026-04-28T12:29:16	26.7	30.5
168715	2026-04-28T12:39:16	28.2	30
168716	2026-04-28T12:49:15	28.6	27.5
168717	2026-04-28T12:59:15	29.1	27
168718	2026-04-28T13:09:15	29.7	28
168719	2026-04-28T13:19:15	30.2	29
168720	2026-04-28T13:29:15	30.1	28
168721	2026-04-28T13:39:15	30.4	27.5
168722	2026-04-28T13:49:15	30.3	26
168723	2026-04-28T13:59:15	30.8	27
168724	2026-04-28T14:09:15	30.2	27.5
168725	2026-04-28T14:19:15	29	29
168726	2026-04-28T14:29:15	29	30.5
168727	2026-04-28T14:39:15	28.9	29.5
168728	2026-04-28T14:49:15	28.4	30.5
168729	2026-04-28T14:59:15	28.2	29
168730	2026-04-28T15:09:15	28.1	29.5
168731	2026-04-28T15:19:15	27.3	29
168732	2026-04-28T15:29:15	26.6	30
168733	2026-04-28T15:39:15	26.1	32.5
168734	2026-04-28T15:49:15	26.2	32.5
168735	2026-04-28T15:59:15	25.7	33.5
168736	2026-04-28T16:09:15	25.3	33.5
168737	2026-04-28T16:19:15	24.7	34.5
168738	2026-04-28T16:29:15	24.3	35
168739	2026-04-28T16:39:15	23.9	36
168740	2026-04-28T16:49:15	23.5	37
168741	2026-04-28T16:59:15	23.1	36.5
168742	2026-04-28T17:09:15	22.8	38
168743	2026-04-28T17:19:15	22.6	39.5
168744	2026-04-28T17:29:15	22.2	39.5
168745	2026-04-28T17:39:15	21.8	40
168746	2026-04-28T17:49:15	21.5	40
168747	2026-04-28T17:59:15	21.1	40.5
168748	2026-04-28T18:09:15	20.8	42
168749	2026-04-28T18:19:15	20.7	42
168750	2026-04-28T18:29:15	20.4	42
168751	2026-04-28T18:39:15	20	42.5
168752	2026-04-28T18:49:15	19.7	42.5
168753	2026-04-28T18:59:15	19.3	43.5
168754	2026-04-28T19:09:15	19	44
168755	2026-04-28T19:19:15	18.8	43.5
168756	2026-04-28T19:29:15	18.6	43.5
168757	2026-04-28T19:39:15	18.4	44
168758	2026-04-28T19:49:15	18.3	44.5
168759	2026-04-28T19:59:15	18	45
168760	2026-04-28T20:09:15	17.8	46
168761	2026-04-28T20:19:15	17.7	46.5
168762	2026-04-28T20:29:15	17.5	48
168763	2026-04-28T20:39:15	17.5	49
168764	2026-04-28T20:49:15	17.3	50.5
168765	2026-04-28T20:59:15	17.2	51.5
168766	2026-04-28T21:09:15	17	51.5
168767	2026-04-28T21:19:15	16.8	51.5
168768	2026-04-28T21:29:15	16.7	52.5
168769	2026-04-28T21:39:36	16.5	52
168770	2026-04-28T21:49:15	16.3	51.5
168771	2026-04-28T21:59:15	16.2	51.5
168772	2026-04-28T22:09:15	15.9	51.5
168773	2026-04-28T22:19:15	15.7	52.5
168774	2026-04-28T22:29:15	15.6	52
168775	2026-04-28T22:39:15	15.4	52.5
168776	2026-04-28T22:49:15	15.2	53
168777	2026-04-28T22:59:15	15	53
168778	2026-04-28T23:09:15	14.8	54
168779	2026-04-28T23:19:15	14.7	54.5
168780	2026-04-28T23:29:15	14.5	54.5
168781	2026-04-28T23:39:15	14.3	53.5
168782	2026-04-28T23:49:15	14.2	54
168783	2026-04-28T23:59:15	14	54.5
168784	2026-04-29T00:09:15	13.6	55
168785	2026-04-29T00:19:14	13.3	55
168786	2026-04-29T00:29:14	13.1	56
168787	2026-04-29T00:39:14	13	56
168788	2026-04-29T00:49:14	12.9	56
168789	2026-04-29T00:59:14	12.7	56.5
168790	2026-04-29T01:09:14	12.5	57.5
168791	2026-04-29T01:19:14	12.3	57
168792	2026-04-29T01:29:14	12.1	57.5
168793	2026-04-29T01:39:14	12	58
168794	2026-04-29T01:49:14	11.6	58
168795	2026-04-29T01:59:14	11.5	58.5
168796	2026-04-29T02:09:14	11.3	58
168797	2026-04-29T02:19:14	11.1	58.5
168798	2026-04-29T02:29:14	11.1	59
168799	2026-04-29T02:39:14	11	59
168800	2026-04-29T02:49:14	10.9	59.5
168801	2026-04-29T02:59:14	10.6	59
168802	2026-04-29T03:09:14	10.5	59
168803	2026-04-29T03:19:14	10.6	60.5
168804	2026-04-29T03:29:14	10.5	61
168805	2026-04-29T03:39:14	10.3	61
168806	2026-04-29T03:49:14	10.1	60
168807	2026-04-29T03:59:14	9.9	60.5
168808	2026-04-29T04:09:14	9.8	59.5
168809	2026-04-29T04:19:14	9.7	61
168810	2026-04-29T04:29:14	9.6	60.5
168811	2026-04-29T04:39:14	9.4	61.5
168812	2026-04-29T04:49:14	9.3	60.5
168813	2026-04-29T04:59:14	9.4	60.5
168814	2026-04-29T05:09:14	9.4	60
168815	2026-04-29T05:19:14	9.5	60.5
168816	2026-04-29T05:29:14	9.6	60.5
168817	2026-04-29T05:39:14	9.7	61
168818	2026-04-29T05:49:14	9.9	60
168819	2026-04-29T05:59:14	10.1	60
168820	2026-04-29T06:09:14	10.1	59
168821	2026-04-29T06:19:14	10.3	59.5
168822	2026-04-29T06:29:14	10.5	59.5
168823	2026-04-29T06:39:14	10.6	59
168824	2026-04-29T06:49:14	10.7	59
168825	2026-04-29T06:59:14	10.9	58
168826	2026-04-29T07:09:14	11.2	58.5
168827	2026-04-29T07:19:14	11.4	57
168828	2026-04-29T07:29:32	11.6	56
168829	2026-04-29T07:39:14	11.9	56.5
168830	2026-04-29T07:49:14	11.9	56
168831	2026-04-29T07:59:14	12.1	56.5
168832	2026-04-29T08:09:14	12.3	56
168833	2026-04-29T08:19:14	12.7	55.5
168834	2026-04-29T08:29:14	12.8	53
168835	2026-04-29T08:39:14	13.1	54.5
168836	2026-04-29T08:49:14	13.3	55
168837	2026-04-29T08:59:14	13.5	53
168838	2026-04-29T09:09:14	13.8	55
168839	2026-04-29T09:19:14	13.9	52.5
168840	2026-04-29T09:29:14	14.2	54
168841	2026-04-29T09:39:14	14.4	53.5
168842	2026-04-29T09:49:14	14.8	53
168843	2026-04-29T09:59:14	14.9	52
168844	2026-04-29T10:09:14	15.1	52
168845	2026-04-29T10:19:14	15.5	52.5
168846	2026-04-29T10:29:14	15.7	50.5
168847	2026-04-29T10:39:14	16.1	50.5
168848	2026-04-29T10:49:14	16.3	49.5
168849	2026-04-29T10:59:14	16.6	49
168850	2026-04-29T11:09:14	16.8	48
168851	2026-04-29T11:19:14	17.1	47
168852	2026-04-29T11:29:14	17.3	47
168853	2026-04-29T11:39:14	17.8	46
168854	2026-04-29T11:49:14	18.3	46
168855	2026-04-29T11:59:14	18.7	45
168856	2026-04-29T12:09:14	19.7	42
168857	2026-04-29T12:19:14	22.1	38.5
168858	2026-04-29T12:29:14	23.9	35
168859	2026-04-29T12:39:14	24.8	34.5
168860	2026-04-29T12:49:14	25.9	32
168861	2026-04-29T12:59:13	26.9	32
168862	2026-04-29T13:09:13	28.1	29.5
168863	2026-04-29T13:19:13	28.5	29
168864	2026-04-29T13:29:13	28.8	28
168865	2026-04-29T13:39:13	29.2	26.5
168866	2026-04-29T13:49:13	30.6	27
168867	2026-04-29T13:59:13	30.2	25
168868	2026-04-29T14:09:13	31.1	26.5
168869	2026-04-29T14:19:13	31	23.5
168870	2026-04-29T14:29:13	31.2	23.5
168871	2026-04-29T14:39:13	31.2	23.5
168872	2026-04-29T14:49:13	31.7	22
168873	2026-04-29T14:59:13	32	22
168874	2026-04-29T15:09:13	31.9	22
168875	2026-04-29T15:19:13	31.9	21
168876	2026-04-29T15:29:13	31.6	21
168877	2026-04-29T15:39:13	31.3	20.5
168878	2026-04-29T15:49:13	32.1	21.5
168879	2026-04-29T15:59:13	31.6	21.5
168880	2026-04-29T16:09:13	32.1	20
168881	2026-04-29T16:19:13	32	20.5
168882	2026-04-29T16:29:13	31.7	20.5
168883	2026-04-29T16:39:13	32.1	20.5
168884	2026-04-29T16:49:13	31.7	19.5
168885	2026-04-29T16:59:13	31.2	21
168886	2026-04-29T17:09:13	31.2	20
168887	2026-04-29T17:19:13	31.3	21.5
168888	2026-04-29T17:29:13	30.3	20
168889	2026-04-29T17:39:13	27.1	23.5
168890	2026-04-29T17:49:13	25.5	24.5
168891	2026-04-29T17:59:13	24.2	26.5
168892	2026-04-29T18:09:13	23.2	26.5
168893	2026-04-29T18:19:13	22.3	28
168894	2026-04-29T18:29:13	21.7	29.5
168895	2026-04-29T18:39:13	20.9	30.5
168896	2026-04-29T18:49:13	20.5	31
168897	2026-04-29T18:59:13	19.8	33
168898	2026-04-29T19:09:13	19.5	33
168899	2026-04-29T19:19:13	18.9	33.5
168900	2026-04-29T19:29:13	18.3	34.5
168901	2026-04-29T19:39:13	17.8	34.5
168902	2026-04-29T19:49:13	17.5	34.5
168903	2026-04-29T19:59:13	17.1	34.5
168904	2026-04-29T20:09:13	17	35.5
168905	2026-04-29T20:19:13	16.5	37.5
168906	2026-04-29T20:29:13	16.3	38
168907	2026-04-29T20:39:13	16	39.5
168908	2026-04-29T20:49:13	15.7	40
168909	2026-04-29T20:59:13	15.3	41
168910	2026-04-29T21:09:13	15	41.5
168911	2026-04-29T21:19:13	14.6	41.5
168912	2026-04-29T21:29:13	14.5	42
168913	2026-04-29T21:39:13	14.1	42.5
168914	2026-04-29T21:49:13	13.9	43.5
168915	2026-04-29T21:59:13	13.6	44
168916	2026-04-29T22:09:13	13.2	44
168917	2026-04-29T22:19:13	13.1	44.5
168918	2026-04-29T22:29:13	12.9	44.5
168919	2026-04-29T22:39:13	12.7	45
168920	2026-04-29T22:49:13	12.5	45.5
168921	2026-04-29T22:59:13	12.3	45
168922	2026-04-29T23:09:13	12.2	47.5
168923	2026-04-29T23:19:13	11.9	47
168924	2026-04-29T23:29:13	11.8	47
168925	2026-04-29T23:39:13	11.6	46.5
168926	2026-04-29T23:49:13	11.4	48.5
168927	2026-04-29T23:59:12	11.2	49
168928	2026-04-30T00:09:12	11.1	48
168929	2026-04-30T00:19:12	10.8	48
168930	2026-04-30T00:29:12	10.6	50
168931	2026-04-30T00:39:12	10.4	50.5
168932	2026-04-30T00:49:12	10.3	51.5
168933	2026-04-30T00:59:12	10.2	51
168934	2026-04-30T01:09:12	10.2	51.5
168935	2026-04-30T01:19:12	9.9	49.5
168936	2026-04-30T01:29:12	9.8	47.5
168937	2026-04-30T01:39:12	9.8	45.5
168938	2026-04-30T01:49:12	9.7	44.5
168939	2026-04-30T01:59:12	9.6	44
168940	2026-04-30T02:09:12	9.4	44
168941	2026-04-30T02:19:12	9.4	44
168942	2026-04-30T02:29:12	9.3	44.5
168943	2026-04-30T02:39:12	9.1	45
168944	2026-04-30T02:49:12	8.9	45.5
168945	2026-04-30T02:59:12	8.7	46
168946	2026-04-30T03:09:12	8.5	46
168947	2026-04-30T03:19:12	8.4	46.5
168948	2026-04-30T03:29:12	8.3	47
168949	2026-04-30T03:39:12	8.1	47.5
168950	2026-04-30T03:49:12	8	48
168951	2026-04-30T03:59:12	7.9	49.5
168952	2026-04-30T04:09:12	7.7	49
168953	2026-04-30T04:19:12	7.8	49.5
168954	2026-04-30T04:29:12	7.5	50.5
168955	2026-04-30T04:39:12	7.5	51
168956	2026-04-30T04:49:12	7.4	51.5
168957	2026-04-30T04:59:12	7.2	52
168958	2026-04-30T05:09:12	7.3	51.5
168959	2026-04-30T05:19:12	7.5	52.5
168960	2026-04-30T05:29:12	7.5	52.5
168961	2026-04-30T05:39:12	7.7	52
168962	2026-04-30T05:49:12	7.8	51.5
168963	2026-04-30T05:59:12	7.9	51
168964	2026-04-30T06:09:12	8.1	50.5
168965	2026-04-30T06:19:29	8.2	50
168966	2026-04-30T06:29:12	8.4	50.5
168967	2026-04-30T06:39:12	8.5	51
168968	2026-04-30T06:49:12	8.8	49.5
168969	2026-04-30T06:59:12	9	48.5
168970	2026-04-30T07:09:12	9.3	48
168971	2026-04-30T07:19:12	9.4	47.5
168972	2026-04-30T07:29:12	9.5	48
168973	2026-04-30T07:39:12	9.7	46
168974	2026-04-30T07:49:12	9.9	46.5
168975	2026-04-30T07:59:12	10.1	47
168976	2026-04-30T08:09:12	10.3	45.5
168977	2026-04-30T08:19:12	10.5	46.5
168978	2026-04-30T08:29:12	10.7	47
168979	2026-04-30T08:39:12	10.9	45.5
168980	2026-04-30T08:49:12	11.1	45
168981	2026-04-30T08:59:12	11.4	44.5
168982	2026-04-30T09:09:12	11.6	42.5
168983	2026-04-30T09:19:12	11.8	44
168984	2026-04-30T09:29:12	12.1	42.5
168985	2026-04-30T09:39:12	12.2	43
168986	2026-04-30T09:49:12	12.5	43.5
168987	2026-04-30T09:59:12	12.9	43
168988	2026-04-30T10:09:12	13.1	40.5
168989	2026-04-30T10:19:12	13.4	40
168990	2026-04-30T10:29:12	13.6	38.5
168991	2026-04-30T10:39:12	13.8	39
168992	2026-04-30T10:49:12	14.1	38
168993	2026-04-30T10:59:12	14.3	37
168994	2026-04-30T11:09:12	14.5	35.5
168995	2026-04-30T11:19:12	14.9	35
168996	2026-04-30T11:29:12	15.1	34
168997	2026-04-30T11:39:12	15.6	33
168998	2026-04-30T11:49:12	15.9	33
168999	2026-04-30T11:59:12	16.6	33
169000	2026-04-30T12:09:12	17.5	30.5
169001	2026-04-30T12:19:12	20.5	28.5
169002	2026-04-30T12:29:12	22.2	26.5
169003	2026-04-30T12:39:12	23.5	25.5
169004	2026-04-30T12:49:12	24.4	22.5
169005	2026-04-30T12:59:12	25.6	21.5
169006	2026-04-30T13:09:12	26.7	21.5
169007	2026-04-30T13:19:12	26.8	21
169008	2026-04-30T13:29:12	27.9	21
169009	2026-04-30T13:39:12	28.6	19
169010	2026-04-30T13:49:12	29.1	19.5
169011	2026-04-30T13:59:12	29.9	17.5
169012	2026-04-30T14:09:12	30.4	18
169013	2026-04-30T14:19:12	30.7	17
169014	2026-04-30T14:29:12	31.2	18
169015	2026-04-30T14:39:11	31.4	16.5
169016	2026-04-30T14:49:11	32.2	16.5
169017	2026-04-30T14:59:11	32	16
169018	2026-04-30T15:09:11	32.5	16
169019	2026-04-30T15:19:11	33	16
169020	2026-04-30T15:29:11	33.1	16
169021	2026-04-30T15:39:11	33.6	15
169022	2026-04-30T15:49:11	33.5	15.5
169023	2026-04-30T15:59:11	33.3	16
169024	2026-04-30T16:09:11	34	16
169025	2026-04-30T16:19:11	33.7	15.5
169026	2026-04-30T16:29:11	33.4	16.5
169027	2026-04-30T16:39:11	32.8	16.5
169028	2026-04-30T16:49:11	32.9	16.5
169029	2026-04-30T16:59:11	32.1	15.5
169030	2026-04-30T17:09:11	32.1	16.5
169031	2026-04-30T17:19:11	32.1	16
169032	2026-04-30T17:29:11	30.6	16
169033	2026-04-30T17:39:11	27	17.5
169034	2026-04-30T17:49:11	25.1	19.5
169035	2026-04-30T17:59:11	23.9	20
169036	2026-04-30T18:09:11	22.9	23.5
169037	2026-04-30T18:19:11	22.3	25
169038	2026-04-30T18:29:11	21.9	26.5
169039	2026-04-30T18:39:11	21.1	27
169040	2026-04-30T18:49:11	20.6	29
169041	2026-04-30T18:59:11	19.9	28.5
169042	2026-04-30T19:09:11	19.2	29.5
169043	2026-04-30T19:19:11	18.5	30
169044	2026-04-30T19:29:11	18.2	31
169045	2026-04-30T19:39:11	17.7	31.5
169046	2026-04-30T19:49:11	17.2	32
169047	2026-04-30T19:59:11	16.8	32.5
169048	2026-04-30T20:09:11	16.5	33.5
169049	2026-04-30T20:19:11	16.1	33
169050	2026-04-30T20:29:11	15.7	33.5
169051	2026-04-30T20:39:11	15.5	34
169052	2026-04-30T20:49:11	15.3	33.5
169053	2026-04-30T20:59:11	15	33.5
169054	2026-04-30T21:09:11	14.8	33.5
169055	2026-04-30T21:19:11	14.6	33.5
169056	2026-04-30T21:29:11	14.3	34
169057	2026-04-30T21:39:11	14.1	34
169058	2026-04-30T21:49:11	13.9	34.5
169059	2026-04-30T21:59:11	13.8	34.5
169060	2026-04-30T22:09:11	13.6	36
169061	2026-04-30T22:19:11	13.4	36.5
169062	2026-04-30T22:29:11	13.2	37
169063	2026-04-30T22:39:11	12.9	37.5
169064	2026-04-30T22:49:11	12.8	38
169065	2026-04-30T22:59:11	12.6	38.5
169066	2026-04-30T23:09:11	12.3	39
169067	2026-04-30T23:19:11	12.2	40.5
169068	2026-04-30T23:29:11	11.8	40.5
169069	2026-04-30T23:39:11	11.8	42.5
169070	2026-04-30T23:59:11	11.2	43.5
169071	2026-05-01T00:09:11	11.1	43.5
169072	2026-05-01T00:19:11	10.8	44.5
169073	2026-05-01T00:29:11	10.7	44.5
169074	2026-05-01T00:39:11	10.6	44.5
169075	2026-05-01T00:49:11	10.5	47
169076	2026-05-01T00:59:11	10	47
169077	2026-05-01T01:09:11	9.8	48.5
169078	2026-05-01T01:19:11	9.6	50
169079	2026-05-01T01:29:11	9.4	51
169080	2026-05-01T01:39:11	9.2	52
169081	2026-05-01T01:49:11	9	53
169082	2026-05-01T01:59:11	8.8	53.5
169083	2026-05-01T02:09:11	8.3	55
169084	2026-05-01T02:19:11	8.2	55
169085	2026-05-01T02:29:11	8.1	55
169086	2026-05-01T02:39:11	8	56
169087	2026-05-01T02:49:11	7.8	54.5
169088	2026-05-01T02:59:11	7.6	55.5
169089	2026-05-01T03:09:11	7.4	59
169090	2026-05-01T03:19:11	7.2	60
169091	2026-05-01T03:29:10	7	59.5
169092	2026-05-01T03:39:11	6.9	60.5
169093	2026-05-01T03:49:11	6.7	62
169094	2026-05-01T03:59:10	6.7	63
169095	2026-05-01T04:09:10	6.4	63
169096	2026-05-01T04:19:10	6.3	61.5
169097	2026-05-01T04:29:11	6.5	60.5
169098	2026-05-01T04:39:10	6.6	59.5
169099	2026-05-01T04:49:10	6.9	58.5
169100	2026-05-01T04:59:10	7	59
169101	2026-05-01T05:09:10	7.1	58.5
169102	2026-05-01T05:19:10	7.3	57.5
169103	2026-05-01T05:29:10	7.4	60
169104	2026-05-01T05:39:10	7.4	58.5
169105	2026-05-01T05:49:10	7.8	57.5
169106	2026-05-01T05:59:10	8	57.5
169107	2026-05-01T06:09:10	8.2	57.5
169108	2026-05-01T06:29:10	8.9	55
169109	2026-05-01T06:39:10	9.3	54.5
169110	2026-05-01T06:49:10	9.5	54
169111	2026-05-01T06:59:10	9.9	53.5
169112	2026-05-01T07:09:10	10.6	49
169113	2026-05-01T07:19:10	11.1	48
169114	2026-05-01T07:29:10	11.5	47
169115	2026-05-01T07:39:10	11.7	45.5
169116	2026-05-01T07:49:10	12.2	45
169117	2026-05-01T08:09:10	12.8	39.5
169118	2026-05-01T08:19:10	13.2	40
169119	2026-05-01T08:29:10	13.3	43.5
169120	2026-05-01T08:39:10	13.5	41.5
169121	2026-05-01T08:49:10	13.9	43
169122	2026-05-01T08:59:10	14.1	41
169123	2026-05-01T09:09:10	14.4	42
169124	2026-05-01T09:19:10	14.7	40.5
169125	2026-05-01T09:29:10	15	40
169126	2026-05-01T09:39:10	15.3	39
169127	2026-05-01T09:49:10	15.9	37.5
169128	2026-05-01T09:59:10	16.3	37
169129	2026-05-01T10:09:10	16.8	36
169130	2026-05-01T10:19:10	17.1	34.5
169131	2026-05-01T10:29:10	17.3	35.5
169132	2026-05-01T10:39:10	17.6	34.5
169133	2026-05-01T10:49:10	17.8	34
169134	2026-05-01T10:59:10	18.1	34.5
169135	2026-05-01T11:09:10	18.3	34.5
169136	2026-05-01T11:19:10	18.5	35
169137	2026-05-01T11:29:10	19	33
169138	2026-05-01T11:39:10	19.7	34.5
169139	2026-05-01T11:49:10	20.1	33
169140	2026-05-01T11:59:10	20.5	32.5
169141	2026-05-01T12:09:10	21.9	30.5
169142	2026-05-01T12:19:10	24.9	28.5
169143	2026-05-01T12:29:10	27	26
169144	2026-05-01T12:39:10	28.4	23
169145	2026-05-01T12:49:10	29.5	22.5
169146	2026-05-01T12:59:10	30.8	21.5
169147	2026-05-01T13:09:10	31.8	21
169148	2026-05-01T13:19:10	32.8	20.5
169149	2026-05-01T13:29:10	33.8	19.5
169150	2026-05-01T13:39:10	34.9	20
169151	2026-05-01T13:49:10	35.3	19.5
169152	2026-05-01T13:59:10	35.8	20
169153	2026-05-01T14:09:10	36.4	19.5
169154	2026-05-01T14:19:10	36.8	18.5
169155	2026-05-01T14:29:10	37.8	18.5
169156	2026-05-01T14:39:10	38.7	18.5
169157	2026-05-01T14:49:10	39	18
169158	2026-05-01T14:59:10	38.9	18
169159	2026-05-01T15:09:10	39.2	18
169160	2026-05-01T15:19:10	40	17
169161	2026-05-01T15:29:10	40.6	16.5
169162	2026-05-01T15:39:10	41.1	16.5
169163	2026-05-01T15:49:10	40.6	16
169164	2026-05-01T15:59:10	41	16
169165	2026-05-01T16:09:10	40.8	15.5
169166	2026-05-01T16:19:09	40.5	16
169167	2026-05-01T16:29:09	40.9	16.5
169168	2026-05-01T16:39:09	41.5	16.5
169169	2026-05-01T16:49:09	41.2	17.5
169170	2026-05-01T16:59:09	40.8	17
169171	2026-05-01T17:09:09	40.7	17.5
169172	2026-05-01T17:19:09	40.1	17.5
169173	2026-05-01T17:29:09	39	19
169174	2026-05-01T17:39:09	35.2	21.5
169175	2026-05-01T17:49:09	33	24
169176	2026-05-01T17:59:09	31.7	25.5
169177	2026-05-01T18:09:09	30.4	26
169178	2026-05-01T18:19:09	29.6	27.5
169179	2026-05-01T18:29:09	28.5	28.5
169180	2026-05-01T18:39:09	27.5	30.5
169181	2026-05-01T18:49:09	26.8	36.5
169182	2026-05-01T18:59:09	25.9	38
169183	2026-05-01T19:09:09	25.1	39.5
169184	2026-05-01T19:19:09	24.2	39.5
169185	2026-05-01T19:29:09	23.6	41
169186	2026-05-01T19:39:09	23	40
169187	2026-05-01T19:49:09	22.4	41
169188	2026-05-01T19:59:09	21.7	41
169189	2026-05-01T20:09:09	21.1	38
169190	2026-05-01T20:19:09	20.8	37.5
169191	2026-05-01T20:29:09	20.5	38
169192	2026-05-01T20:39:09	20.4	38.5
169193	2026-05-01T20:49:09	19.8	39
169194	2026-05-01T20:59:09	19.5	39.5
169195	2026-05-01T21:09:09	19.2	40
169196	2026-05-01T21:29:09	18.8	40.5
169197	2026-05-01T21:39:09	18.7	40.5
169198	2026-05-01T21:49:09	18.6	41.5
169199	2026-05-01T21:59:09	18.5	42
169200	2026-05-01T22:09:09	18.2	44
169201	2026-05-01T22:19:09	17.4	46
169202	2026-05-01T22:29:09	16.9	47.5
169203	2026-05-01T22:39:09	16.7	48.5
169204	2026-05-01T22:49:09	16.8	45
169205	2026-05-01T22:59:09	16.9	46
169206	2026-05-01T23:09:09	17	44
169207	2026-05-01T23:19:09	17	44.5
169208	2026-05-01T23:29:09	16.5	46
169209	2026-05-01T23:39:09	16.4	45
169210	2026-05-01T23:49:09	16.3	46.5
169211	2026-05-01T23:59:09	16	49.5
169212	2026-05-02T00:09:09	15.8	51
169213	2026-05-02T00:19:09	15.2	54
169214	2026-05-02T00:29:09	14.7	56.5
169215	2026-05-02T00:39:09	14.4	57
169216	2026-05-02T00:49:09	14	58.5
169217	2026-05-02T00:59:09	13.7	59
169218	2026-05-02T01:09:09	13.5	60
169219	2026-05-02T01:19:09	13.3	61
169220	2026-05-02T01:29:09	13	61
169221	2026-05-02T01:39:09	12.7	62.5
169222	2026-05-02T01:49:09	12.4	64.5
169223	2026-05-02T01:59:09	12.3	64.5
169224	2026-05-02T02:09:09	12.1	66
169225	2026-05-02T02:19:09	11.8	66.5
169226	2026-05-02T02:29:09	11.6	67
169227	2026-05-02T02:39:09	11.4	68
169228	2026-05-02T02:49:09	11.2	68
169229	2026-05-02T02:59:09	11	69
169230	2026-05-02T03:09:09	10.9	69.5
169231	2026-05-02T03:19:09	10.7	69.5
169232	2026-05-02T03:29:09	10.6	71
169233	2026-05-02T03:39:09	10.4	71.5
169234	2026-05-02T03:49:09	10.2	72
169235	2026-05-02T03:59:09	10.2	72.5
169236	2026-05-02T04:09:09	10	73
169237	2026-05-02T04:19:09	9.8	74.5
169238	2026-05-02T04:29:08	9.7	74.5
169239	2026-05-02T04:39:08	9.9	74.5
169240	2026-05-02T04:49:08	9.8	74.5
169241	2026-05-02T04:59:08	9.9	74.5
169242	2026-05-02T05:09:08	10.2	74.5
169243	2026-05-02T05:19:08	10.3	75
169244	2026-05-02T05:29:08	10.3	73.5
169245	2026-05-02T05:39:08	10.6	73.5
169246	2026-05-02T05:49:08	10.6	74
169247	2026-05-02T05:59:08	10.9	73
169248	2026-05-02T06:09:08	11.3	72
169249	2026-05-02T06:19:08	11.4	71
169250	2026-05-02T06:29:08	11.6	70
169251	2026-05-02T06:39:08	11.9	69
169252	2026-05-02T06:49:08	12.1	68.5
169253	2026-05-02T06:59:08	12.5	68
169254	2026-05-02T07:09:08	12.7	68.5
169255	2026-05-02T07:19:08	13.2	67.5
169256	2026-05-02T07:29:08	13.4	66.5
169257	2026-05-02T07:39:08	13.9	63.5
169258	2026-05-02T07:49:08	14.4	61.5
169259	2026-05-02T07:59:08	14.8	62.5
169260	2026-05-02T08:09:08	15.1	61.5
169261	2026-05-02T08:19:08	15.6	60
169262	2026-05-02T08:29:08	16	60
169263	2026-05-02T08:39:26	16.1	62
169264	2026-05-02T08:49:08	16.4	58
169265	2026-05-02T08:59:08	16.9	55.5
169266	2026-05-02T09:09:08	17.5	54.5
169267	2026-05-02T09:19:08	18	53
169268	2026-05-02T09:29:08	18.1	51.5
169269	2026-05-02T09:39:08	18.6	50.5
169270	2026-05-02T09:49:08	18.9	50.5
169271	2026-05-02T09:59:08	19.1	50.5
169272	2026-05-02T10:09:08	19.3	52
169273	2026-05-02T10:19:08	19.4	52.5
169274	2026-05-02T10:29:08	19.7	50
169275	2026-05-02T10:39:08	19.9	51
169276	2026-05-02T10:49:08	20.4	51
169277	2026-05-02T10:59:08	20.9	51
169278	2026-05-02T11:09:08	21.1	50.5
169279	2026-05-02T11:19:08	21.7	51
169280	2026-05-02T11:29:08	22.3	49
169281	2026-05-02T11:39:08	22.6	50
169282	2026-05-02T11:49:08	23.3	48
169283	2026-05-02T11:59:08	24.2	45.5
169284	2026-05-02T12:09:08	25.6	43
169285	2026-05-02T12:19:08	28.5	38.5
169286	2026-05-02T12:29:08	29.5	37
169287	2026-05-02T12:39:08	31.6	34.5
169288	2026-05-02T12:49:08	32.4	31.5
169289	2026-05-02T12:59:08	34.3	30
169290	2026-05-02T13:09:08	35	29.5
169291	2026-05-02T13:19:08	36	28
169292	2026-05-02T13:29:08	37.4	26.5
169293	2026-05-02T13:39:08	38.3	26
169294	2026-05-02T13:49:08	39.5	24.5
169295	2026-05-02T13:59:08	40.3	24
169296	2026-05-02T14:09:08	41.1	23.5
169297	2026-05-02T14:19:08	41.7	23
169298	2026-05-02T14:29:08	42.3	22
169299	2026-05-02T14:39:08	42.5	21
169300	2026-05-02T14:49:08	41.5	21.5
169301	2026-05-02T14:59:08	42.5	22
169302	2026-05-02T15:09:08	43	22.5
169303	2026-05-02T15:19:08	43.5	22
169304	2026-05-02T15:29:08	42.8	22
169305	2026-05-02T15:39:08	43.1	22
169306	2026-05-02T15:49:08	43	22
169307	2026-05-02T15:59:08	42.8	22.5
169308	2026-05-02T16:09:08	43.4	22.5
169309	2026-05-02T16:19:08	42.8	22
169310	2026-05-02T16:29:08	41.4	22.5
169311	2026-05-02T16:39:07	41.2	23
169312	2026-05-02T16:49:07	41.3	23
169313	2026-05-02T16:59:07	41.9	23
169314	2026-05-02T17:09:07	41.5	23
169315	2026-05-02T17:19:07	40.7	23
169316	2026-05-02T17:29:07	38.8	25
169317	2026-05-02T17:39:07	36.3	28
169318	2026-05-02T17:49:07	34.8	30.5
169319	2026-05-02T17:59:07	33.4	34
169320	2026-05-02T18:09:07	32.4	37
169321	2026-05-02T18:19:07	31.3	39.5
169322	2026-05-02T18:29:07	30.4	40
169323	2026-05-02T18:39:07	29.5	40.5
169324	2026-05-02T18:49:07	28.5	41.5
169325	2026-05-02T18:59:07	27.3	43
169326	2026-05-02T19:09:07	26.5	43
169327	2026-05-02T19:19:07	26.1	44
169328	2026-05-02T19:29:07	25.7	44.5
169329	2026-05-02T19:39:07	25.1	44.5
169330	2026-05-02T19:49:07	24.6	41.5
169331	2026-05-02T19:59:07	24.2	41.5
169332	2026-05-02T20:09:07	23.9	43
169333	2026-05-02T20:19:07	23.5	45
169334	2026-05-02T20:29:07	22.9	47.5
169335	2026-05-02T20:39:07	22.6	48.5
169336	2026-05-02T20:49:07	21.8	50
169337	2026-05-02T20:59:07	21.9	49
169338	2026-05-02T21:09:07	21.1	50.5
169339	2026-05-02T21:19:07	21.2	52.5
169340	2026-05-02T21:29:07	21	53
169341	2026-05-02T21:39:07	20.9	52.5
169342	2026-05-02T21:49:07	20.6	53.5
169343	2026-05-02T21:59:07	20.6	55.5
169344	2026-05-02T22:09:07	20.3	55.5
169345	2026-05-02T22:19:07	20.2	56
169346	2026-05-02T22:29:07	19.9	55
169347	2026-05-02T22:39:07	19.7	55
169348	2026-05-02T22:49:07	19.6	55
169349	2026-05-02T22:59:07	19.4	56.5
169350	2026-05-02T23:09:07	19.3	57
169351	2026-05-02T23:19:07	19.3	57
169352	2026-05-02T23:29:07	18.8	59
169353	2026-05-02T23:39:07	18.6	60
169354	2026-05-02T23:49:07	18.3	60.5
169355	2026-05-02T23:59:07	18	61
169356	2026-05-03T00:09:07	17.4	62.5
169357	2026-05-03T00:19:07	17.1	64
169358	2026-05-03T00:29:07	17.1	63.5
169359	2026-05-03T00:39:07	17.1	63.5
169360	2026-05-03T00:49:07	16.9	64
169361	2026-05-03T00:59:07	16.7	64.5
169362	2026-05-03T01:09:07	16.5	65.5
169363	2026-05-03T01:19:07	16.2	67
169364	2026-05-03T01:29:07	16	67
169365	2026-05-03T01:39:07	15.8	67.5
169366	2026-05-03T01:49:07	15.6	67.5
169367	2026-05-03T01:59:07	15.6	68
169368	2026-05-03T02:09:07	15.6	68
169369	2026-05-03T02:19:07	15.5	69
169370	2026-05-03T02:29:07	15.2	70.5
169371	2026-05-03T02:39:07	15	71
169372	2026-05-03T02:49:07	15	71
169373	2026-05-03T02:59:07	14.9	70.5
169374	2026-05-03T03:09:07	14.9	71
169375	2026-05-03T03:19:07	15	71
169376	2026-05-03T03:29:07	15.1	71.5
169377	2026-05-03T03:39:07	14.9	72.5
169378	2026-05-03T03:49:07	14.9	72
169379	2026-05-03T03:59:06	14.8	73
169380	2026-05-03T04:09:06	14.8	73.5
169381	2026-05-03T04:19:06	14.4	75.5
169382	2026-05-03T04:29:06	14.4	75
169383	2026-05-03T04:39:06	14.6	75
169384	2026-05-03T04:49:06	14.9	73.5
169385	2026-05-03T04:59:06	15.2	73
169386	2026-05-03T05:09:06	15.3	73.5
169387	2026-05-03T05:19:06	15.3	73
169388	2026-05-03T05:29:06	15.3	78.5
169389	2026-05-03T05:39:06	14.6	95.5
169390	2026-05-03T05:49:06	14.5	92.5
169391	2026-05-03T05:59:06	14.7	92.5
169392	2026-05-03T06:09:06	14.3	93.5
169393	2026-05-03T06:19:06	14.5	93.5
169394	2026-05-03T06:29:06	14.8	94
169395	2026-05-03T06:39:06	15.3	93
169396	2026-05-03T06:49:06	15.6	93.5
169397	2026-05-03T06:59:06	15.4	90
169398	2026-05-03T07:09:06	14.9	93
169399	2026-05-03T07:19:06	15.1	95.5
169400	2026-05-03T07:29:06	15.5	96
169401	2026-05-03T07:39:06	15.8	95
169402	2026-05-03T07:49:06	16.2	93.5
169403	2026-05-03T07:59:06	16	92
169404	2026-05-03T08:09:06	16.1	92.5
169405	2026-05-03T08:19:06	16.4	92
169406	2026-05-03T08:29:06	16.8	89.5
169407	2026-05-03T08:39:06	17.4	88
169408	2026-05-03T08:49:06	17.9	86.5
169409	2026-05-03T08:59:06	18.2	84
169410	2026-05-03T09:09:06	18.5	77.5
169411	2026-05-03T09:19:06	18.9	73.5
169412	2026-05-03T09:29:06	19.6	65.5
169413	2026-05-03T09:39:06	20.5	58
169414	2026-05-03T09:49:06	20.8	53.5
169415	2026-05-03T09:59:06	21	55.5
169416	2026-05-03T10:09:06	21.9	54.5
169417	2026-05-03T10:19:06	22.2	56.5
169418	2026-05-03T10:29:06	22.5	55.5
169419	2026-05-03T10:39:06	23.1	55.5
169420	2026-05-03T10:49:06	23.7	54
169421	2026-05-03T10:59:06	24.1	50
169422	2026-05-03T11:09:06	24.9	52.5
169423	2026-05-03T11:19:06	25.2	47.5
169424	2026-05-03T11:29:06	25	48.5
169425	2026-05-03T11:39:06	25.1	49
169426	2026-05-03T11:49:06	25.5	44.5
169427	2026-05-03T11:59:06	25.7	46
169428	2026-05-03T12:09:06	25.3	44.5
169429	2026-05-03T12:19:06	25.6	45
169430	2026-05-03T12:29:06	26.6	47.5
169431	2026-05-03T12:39:06	27.6	42.5
169432	2026-05-03T12:49:06	28.9	38.5
169433	2026-05-03T12:59:06	30	37
169434	2026-05-03T13:09:06	31.1	34
169435	2026-05-03T13:29:06	29.4	36
169436	2026-05-03T13:39:06	31.2	37
169437	2026-05-03T13:49:06	31.9	32.5
169438	2026-05-03T13:59:06	31.9	33
169439	2026-05-03T14:09:06	31.5	32.5
169440	2026-05-03T14:19:06	29.3	37
169441	2026-05-03T14:29:05	29.6	34.5
169442	2026-05-03T14:39:05	30.8	33
169443	2026-05-03T14:49:05	31.5	33
169444	2026-05-03T14:59:05	31.3	30.5
169445	2026-05-03T15:09:05	31.7	30.5
169446	2026-05-03T15:19:05	30.6	31
169447	2026-05-03T15:29:05	30	31.5
169448	2026-05-03T15:39:05	28.2	33.5
169449	2026-05-03T15:49:05	27.3	34
169450	2026-05-03T15:59:05	26.2	35
169451	2026-05-03T16:09:05	25.5	34
169452	2026-05-03T16:19:05	24.5	34.5
169453	2026-05-03T16:29:05	23.7	35
169454	2026-05-03T16:39:05	23.2	35.5
169455	2026-05-03T16:49:05	22.8	37
169456	2026-05-03T16:59:05	22.5	37.5
169457	2026-05-03T17:09:05	22.5	38.5
169458	2026-05-03T17:19:05	22.2	39
169459	2026-05-03T17:29:05	22	39.5
169460	2026-05-03T17:39:05	21.4	40
169461	2026-05-03T17:49:05	21.3	40
169462	2026-05-03T17:59:05	20.9	41
169463	2026-05-03T18:09:05	20.8	41.5
169464	2026-05-03T18:19:05	20.9	42.5
169465	2026-05-03T18:29:05	20.7	42.5
169466	2026-05-03T18:39:05	20.3	42.5
169467	2026-05-03T18:49:05	20	43.5
169468	2026-05-03T18:59:05	19.5	45
169469	2026-05-03T19:09:05	19.3	46
169470	2026-05-03T19:19:05	19.1	47
169471	2026-05-03T19:29:05	18.9	48.5
169472	2026-05-03T19:39:05	18.7	49.5
169473	2026-05-03T19:49:05	18.8	50
169474	2026-05-03T19:59:05	18.7	50
169475	2026-05-03T20:09:05	18.5	51
169476	2026-05-03T20:19:05	18.3	51.5
169477	2026-05-03T20:29:05	18.2	52.5
169478	2026-05-03T20:39:05	18.2	60.5
169479	2026-05-03T20:49:05	18	63.5
169480	2026-05-03T20:59:05	18.1	65.5
169481	2026-05-03T21:09:05	18	65
169482	2026-05-03T21:19:05	17.8	68
169483	2026-05-03T21:29:05	17.8	70
169484	2026-05-03T21:39:05	17.6	70
169485	2026-05-03T21:49:23	17.5	71
169486	2026-05-03T21:59:05	17.4	72.5
169487	2026-05-03T22:09:05	17.2	72.5
169488	2026-05-03T22:19:05	17	71
169489	2026-05-03T22:29:05	16.6	71.5
169490	2026-05-03T22:39:05	16.3	71.5
169491	2026-05-03T22:49:05	16.2	72
169492	2026-05-03T22:59:05	15.7	73.5
169493	2026-05-03T23:09:05	15.4	74.5
169494	2026-05-03T23:19:05	15.2	75.5
169495	2026-05-03T23:29:05	15.1	74
169496	2026-05-03T23:39:05	15.1	74
169497	2026-05-03T23:49:05	14.8	74.5
169498	2026-05-03T23:59:05	14.5	75
169499	2026-05-04T00:09:05	14.4	76.5
169500	2026-05-04T00:19:05	14.2	76
169501	2026-05-04T00:29:05	14	76.5
169502	2026-05-04T00:39:05	13.7	77.5
169503	2026-05-04T00:49:05	13.5	77.5
169504	2026-05-04T00:59:05	13.4	77
169505	2026-05-04T01:09:05	13.2	77
169506	2026-05-04T01:19:05	13	78.5
169507	2026-05-04T01:29:04	12.9	79
169508	2026-05-04T01:39:04	12.7	79.5
169509	2026-05-04T01:49:04	12.5	79
169510	2026-05-04T01:59:04	12.4	79.5
169511	2026-05-04T02:09:04	12.2	80.5
169512	2026-05-04T02:19:04	12.1	80.5
169513	2026-05-04T02:29:04	11.9	79.5
169514	2026-05-04T02:39:04	11.7	80.5
169515	2026-05-04T02:49:04	11.7	81
169516	2026-05-04T02:59:04	11.5	81.5
169517	2026-05-04T03:09:04	11.4	81.5
169518	2026-05-04T03:19:04	11.4	81.5
169519	2026-05-04T03:29:04	11.1	81.5
169520	2026-05-04T03:39:04	11.2	81.5
169521	2026-05-04T03:49:04	10.9	81.5
169522	2026-05-04T03:59:04	10.9	82.5
169523	2026-05-04T04:09:04	10.7	83
169524	2026-05-04T04:19:04	10.7	83
169525	2026-05-04T04:29:04	10.8	83
169526	2026-05-04T04:39:04	10.8	83
169527	2026-05-04T04:49:04	10.8	83
169528	2026-05-04T04:59:04	10.9	83.5
169529	2026-05-04T05:09:04	11.2	83.5
169530	2026-05-04T05:19:04	11.4	83
169531	2026-05-04T05:29:04	11.8	83
169532	2026-05-04T05:39:04	11.8	83
169533	2026-05-04T05:49:04	12.1	83
169534	2026-05-04T05:59:04	12.2	82
169535	2026-05-04T06:09:04	12.5	83
169536	2026-05-04T06:19:04	12.5	83
169537	2026-05-04T06:29:04	12.9	81
169538	2026-05-04T06:39:04	13.2	79.5
169539	2026-05-04T06:49:04	13.6	79
169540	2026-05-04T06:59:04	13.8	78
169541	2026-05-04T07:09:04	14.2	77
169542	2026-05-04T07:19:04	14.6	76.5
169543	2026-05-04T07:29:04	14.9	75
169544	2026-05-04T07:39:04	15.2	73
169545	2026-05-04T07:49:04	15.5	72.5
169546	2026-05-04T07:59:04	15.8	71.5
169547	2026-05-04T08:09:04	16.2	70
169548	2026-05-04T08:19:04	16.8	69.5
169549	2026-05-04T08:29:04	17.3	68
169550	2026-05-04T08:39:04	17.6	66.5
169551	2026-05-04T08:49:04	17.6	68
169552	2026-05-04T08:59:04	18.3	65.5
169553	2026-05-04T09:09:04	18.4	65
169554	2026-05-04T09:19:04	18.8	64
169555	2026-05-04T09:29:04	18.8	63
169556	2026-05-04T09:39:04	18.9	62.5
169557	2026-05-04T09:49:04	19.4	62.5
169558	2026-05-04T09:59:04	19.4	62.5
169559	2026-05-04T10:09:04	19.4	59.5
169560	2026-05-04T10:19:04	19.6	60
169561	2026-05-04T10:29:04	19.9	59
169562	2026-05-04T10:39:04	20.2	57.5
169563	2026-05-04T10:49:04	20.1	55.5
169564	2026-05-04T10:59:04	20.5	54.5
169565	2026-05-04T11:09:04	20.8	53
169566	2026-05-04T11:19:04	20.9	51
169567	2026-05-04T11:29:04	21.5	51.5
169568	2026-05-04T11:39:04	21.8	51
169569	2026-05-04T11:49:04	22.1	50.5
169570	2026-05-04T11:59:04	22.2	47
169571	2026-05-04T12:09:04	22.3	46
169572	2026-05-04T12:19:04	23.4	44.5
169573	2026-05-04T12:29:04	23.2	44.5
169574	2026-05-04T12:39:04	23.1	46.5
169575	2026-05-04T12:49:04	23.3	46.5
169576	2026-05-04T12:59:04	24.4	44.5
169577	2026-05-04T13:09:04	25.2	43
169578	2026-05-04T13:19:03	25.5	43.5
169579	2026-05-04T13:29:03	27.1	40
169580	2026-05-04T13:39:03	24.7	41.5
169581	2026-05-04T13:49:03	24.4	42.5
169582	2026-05-04T13:59:03	23.9	42.5
169583	2026-05-04T14:09:03	23.1	44.5
169584	2026-05-04T14:19:03	23	45.5
169585	2026-05-04T14:29:03	23.1	46
169586	2026-05-04T14:39:03	22.8	48
169587	2026-05-04T14:49:03	22.7	51
169588	2026-05-04T14:59:03	22.8	50
169589	2026-05-04T15:09:03	22.2	52
169590	2026-05-04T15:19:03	22.5	52.5
169591	2026-05-04T15:29:03	22.2	54
169592	2026-05-04T15:39:03	21.9	54
169593	2026-05-04T15:49:03	21.8	54
169594	2026-05-04T15:59:03	21.8	54
169595	2026-05-04T16:09:03	21.3	55
169596	2026-05-04T16:19:03	21.2	56.5
169597	2026-05-04T16:29:03	20.9	57.5
169598	2026-05-04T16:39:03	20.7	59.5
169599	2026-05-04T16:49:03	20.5	63
169600	2026-05-04T16:59:03	20.3	62.5
169601	2026-05-04T17:09:03	20.1	64
169602	2026-05-04T17:19:03	20.1	63
169603	2026-05-04T17:29:03	20	62
169604	2026-05-04T17:39:03	19.8	62
169605	2026-05-04T17:49:03	19.7	62
169606	2026-05-04T17:59:03	19.8	63.5
169607	2026-05-04T18:09:03	19.6	64
169608	2026-05-04T18:19:03	19.5	66
169609	2026-05-04T18:29:03	19.4	66
169610	2026-05-04T18:39:03	19.3	67.5
169611	2026-05-04T18:49:03	19.1	67
169612	2026-05-04T18:59:03	18.9	68.5
169613	2026-05-04T19:09:03	18.7	68
169614	2026-05-04T19:19:03	18.4	69
169615	2026-05-04T19:29:03	18.2	69.5
169616	2026-05-04T19:39:03	18.2	70
169617	2026-05-04T19:49:03	18.1	70
169618	2026-05-04T19:59:23	18	71
169619	2026-05-04T20:09:03	17.8	72.5
169620	2026-05-04T20:19:03	17.8	72.5
169621	2026-05-04T20:29:03	17.6	72
169622	2026-05-04T20:39:03	17.3	71.5
169623	2026-05-04T20:49:03	17.4	72
169624	2026-05-04T20:59:03	17.1	73
169625	2026-05-04T21:09:03	17.1	74.5
169626	2026-05-04T21:19:03	17.1	76
169627	2026-05-04T21:29:03	16.9	76.5
169628	2026-05-04T21:39:03	16.7	75
169629	2026-05-04T21:49:03	16.5	75
169630	2026-05-04T21:59:03	16.5	74.5
169631	2026-05-04T22:09:03	16.4	74.5
169632	2026-05-04T22:19:03	16.6	75
169633	2026-05-04T22:29:03	16.5	74.5
169634	2026-05-04T22:39:03	16.5	74
169635	2026-05-04T22:49:03	16.5	75
169636	2026-05-04T22:59:03	16.4	77
169637	2026-05-04T23:09:03	16.1	77.5
169638	2026-05-04T23:19:03	15.6	78.5
169639	2026-05-04T23:29:03	15.5	79
169640	2026-05-04T23:39:03	15.5	79
169641	2026-05-04T23:49:03	15.6	78.5
169642	2026-05-04T23:59:03	15.7	78
169643	2026-05-05T00:09:02	15.6	78.5
169644	2026-05-05T00:19:02	15.5	78.5
169645	2026-05-05T00:29:02	15.4	80
169646	2026-05-05T00:39:02	15.4	80
169647	2026-05-05T00:49:02	15.3	80.5
169648	2026-05-05T00:59:02	15.2	80.5
169649	2026-05-05T01:09:02	15.2	81
169650	2026-05-05T01:19:02	15	81.5
169651	2026-05-05T01:29:02	15.1	81.5
169652	2026-05-05T01:39:02	15	81.5
169653	2026-05-05T01:49:02	14.8	82
169654	2026-05-05T01:59:02	14.4	83.5
169655	2026-05-05T02:09:02	14.2	84.5
169656	2026-05-05T02:19:02	14.3	85
169657	2026-05-05T02:29:02	14.3	85
169658	2026-05-05T02:39:02	14	85.5
169659	2026-05-05T02:49:02	13.9	86
169660	2026-05-05T02:59:02	13.8	86
169661	2026-05-05T03:09:02	13.8	86
169662	2026-05-05T03:19:02	13.7	85
169663	2026-05-05T03:29:02	13.6	85.5
169664	2026-05-05T03:39:02	13.4	86
169665	2026-05-05T03:49:02	13.2	86
169666	2026-05-05T03:59:02	13.1	86.5
169667	2026-05-05T04:09:02	13.2	87
169668	2026-05-05T04:19:02	13.4	86
169669	2026-05-05T04:29:02	13.4	86
169670	2026-05-05T04:39:02	13.5	85.5
169671	2026-05-05T04:49:02	13.6	85.5
169672	2026-05-05T04:59:02	13.7	85
169673	2026-05-05T05:09:02	13.8	84.5
169674	2026-05-05T05:19:02	14	84
169675	2026-05-05T05:29:02	14.1	84.5
169676	2026-05-05T05:39:02	14.1	85
169677	2026-05-05T05:49:02	14.2	85
169678	2026-05-05T05:59:02	14.4	85.5
169679	2026-05-05T06:09:02	14.5	84.5
169680	2026-05-05T06:19:02	14.6	85.5
169681	2026-05-05T06:29:02	14.9	85
169682	2026-05-05T06:39:02	15.3	82.5
169683	2026-05-05T06:49:02	15.8	80
169684	2026-05-05T06:59:02	15.9	80
169685	2026-05-05T07:09:02	16.1	81
169686	2026-05-05T07:19:02	16.3	81
169687	2026-05-05T07:29:02	16.4	80
169688	2026-05-05T07:39:02	16.6	79
169689	2026-05-05T07:49:02	16.8	77.5
169690	2026-05-05T07:59:02	17.4	75
169691	2026-05-05T08:09:02	17.7	72.5
169692	2026-05-05T08:19:02	18	72.5
169693	2026-05-05T08:29:02	17.7	72.5
169694	2026-05-05T08:39:02	18	72.5
169695	2026-05-05T08:49:02	18.3	73
169696	2026-05-05T08:59:02	18.3	72.5
169697	2026-05-05T09:09:02	18.3	72.5
169698	2026-05-05T09:19:02	17.9	75.5
169699	2026-05-05T09:29:02	18	76
169700	2026-05-05T09:39:02	18.3	74.5
169701	2026-05-05T09:49:02	18.5	74
169702	2026-05-05T09:59:02	19.3	72
169703	2026-05-05T10:09:02	19.2	72
169704	2026-05-05T10:19:02	19.6	71.5
169705	2026-05-05T10:29:02	19.9	68.5
169706	2026-05-05T10:39:02	20	65
169707	2026-05-05T10:49:02	20.2	65.5
169708	2026-05-05T10:59:02	20.2	65
169709	2026-05-05T11:09:02	19.8	67.5
169710	2026-05-05T11:19:02	19.2	69
169711	2026-05-05T11:29:02	19.1	69.5
169712	2026-05-05T11:39:02	18.6	74
169713	2026-05-05T11:49:02	17.6	92.5
169714	2026-05-05T11:59:01	17.4	83
169715	2026-05-05T12:09:01	17.1	86
169716	2026-05-05T12:19:01	17	87
169717	2026-05-05T12:29:01	17.1	88
169718	2026-05-05T12:39:01	17.2	89.5
169719	2026-05-05T12:49:01	17	94.5
169720	2026-05-05T12:59:01	17.2	92.5
169721	2026-05-05T13:09:01	17.4	90.5
169722	2026-05-05T13:19:01	17.6	88.5
169723	2026-05-05T13:29:01	17.8	89
169724	2026-05-05T13:39:01	17.9	88
169725	2026-05-05T13:49:01	18.4	88
169726	2026-05-05T13:59:01	18.4	87
169727	2026-05-05T14:09:01	18.2	84.5
169728	2026-05-05T14:19:01	18.2	84.5
169729	2026-05-05T14:29:01	18.5	84.5
169730	2026-05-05T14:39:01	18.6	85
169731	2026-05-05T14:49:01	19.2	82.5
169732	2026-05-05T14:59:01	19.5	79
169733	2026-05-05T15:09:01	20.1	77
169734	2026-05-05T15:19:01	21	72.5
169735	2026-05-05T15:29:01	21.9	70.5
169736	2026-05-05T15:39:01	23.9	66.5
169737	2026-05-05T15:49:01	27.6	55
169738	2026-05-05T15:59:01	25.3	56.5
169739	2026-05-05T16:09:01	24.3	60.5
169740	2026-05-05T16:19:01	24	62
169741	2026-05-05T16:29:01	22.8	65.5
169742	2026-05-05T16:39:01	22.1	66.5
169743	2026-05-05T16:49:01	21.6	67.5
169744	2026-05-05T16:59:01	21.4	69
169745	2026-05-05T17:09:01	21.1	70
169746	2026-05-05T17:19:01	20.7	72.5
169747	2026-05-05T17:29:01	20.2	73
169748	2026-05-05T17:39:01	19.9	74.5
169749	2026-05-05T17:49:01	19.3	79
169750	2026-05-05T17:59:01	19.2	82
169751	2026-05-05T18:09:01	18.6	83.5
169752	2026-05-05T18:19:01	17.1	99.5
169753	2026-05-05T18:29:01	15.6	100
169754	2026-05-05T18:39:01	15.2	100
169755	2026-05-05T18:49:01	15	100
169756	2026-05-05T18:59:01	14.7	100
169757	2026-05-05T19:09:01	14.5	100
169758	2026-05-05T19:19:01	14.5	100
169759	2026-05-05T19:29:01	14.7	100
169760	2026-05-05T19:39:01	14.6	100
169761	2026-05-05T19:49:01	14.7	100
169762	2026-05-05T19:59:01	14.7	100
169763	2026-05-05T20:09:01	14.8	100
169764	2026-05-05T20:19:01	14.7	100
169765	2026-05-05T20:29:01	14.6	100
169766	2026-05-05T20:39:01	14.3	100
169767	2026-05-05T20:59:01	14	100
169768	2026-05-05T21:09:01	14	100
169769	2026-05-05T21:19:01	13.8	100
169770	2026-05-05T21:29:01	13.3	100
169771	2026-05-05T21:39:01	13.1	100
169772	2026-05-05T21:49:01	13	100
169773	2026-05-05T21:59:01	12.8	100
169774	2026-05-05T22:09:01	12.7	100
169775	2026-05-05T22:19:01	12.6	100
169776	2026-05-05T22:29:01	12.5	100
169777	2026-05-05T22:39:01	12.5	100
169778	2026-05-05T22:49:01	12.3	100
169779	2026-05-05T22:59:01	12.2	100
169780	2026-05-05T23:09:01	12.1	100
169781	2026-05-05T23:19:00	12.1	100
169782	2026-05-05T23:29:00	12.2	100
169783	2026-05-05T23:39:00	12.1	100
169784	2026-05-05T23:49:00	11.9	100
169785	2026-05-05T23:59:00	11.9	100
169786	2026-05-06T00:09:00	11.7	100
169787	2026-05-06T00:19:00	11.5	100
169788	2026-05-06T00:29:00	11.4	100
169789	2026-05-06T00:39:00	11.3	100
169790	2026-05-06T00:49:00	11.2	100
169791	2026-05-06T00:59:00	11.1	100
169792	2026-05-06T01:09:00	11.1	100
169793	2026-05-06T01:19:00	11	100
169794	2026-05-06T01:29:00	11.1	100
169795	2026-05-06T01:39:00	11.2	100
169796	2026-05-06T01:49:00	11	100
169797	2026-05-06T01:59:00	11	100
169798	2026-05-06T02:09:00	10.9	100
169799	2026-05-06T02:19:00	10.8	100
169800	2026-05-06T02:29:00	10.7	100
169801	2026-05-06T02:39:00	10.5	100
169802	2026-05-06T02:49:00	10.4	100
169803	2026-05-06T02:59:00	10.3	100
169804	2026-05-06T03:09:00	10.1	100
169805	2026-05-06T03:19:00	10	100
169806	2026-05-06T03:29:00	9.9	100
169807	2026-05-06T03:39:00	9.9	100
169808	2026-05-06T03:49:00	9.8	100
169809	2026-05-06T03:59:00	9.8	100
169810	2026-05-06T04:09:00	9.5	100
169811	2026-05-06T04:19:00	9.5	100
169812	2026-05-06T04:29:00	9.5	100
169813	2026-05-06T04:39:00	9.4	100
169814	2026-05-06T04:49:00	9.4	100
169815	2026-05-06T04:59:00	9.6	100
169816	2026-05-06T05:09:00	9.7	100
169817	2026-05-06T05:19:00	10	100
169818	2026-05-06T05:29:00	10.3	100
169819	2026-05-06T05:39:00	10.5	100
169820	2026-05-06T05:49:00	10.6	100
169821	2026-05-06T05:59:00	10.7	100
169822	2026-05-06T06:09:00	11	100
169823	2026-05-06T06:19:00	11.3	100
169824	2026-05-06T06:29:00	11.6	100
169825	2026-05-06T06:39:00	11.7	100
169826	2026-05-06T06:49:00	11.9	100
169827	2026-05-06T06:59:00	12.1	100
169828	2026-05-06T07:09:00	12.4	100
169829	2026-05-06T07:19:00	12.7	100
169830	2026-05-06T07:29:00	12.9	100
169831	2026-05-06T07:39:00	13.5	100
169832	2026-05-06T07:49:00	13.8	100
169833	2026-05-06T07:59:00	14.1	100
169834	2026-05-06T08:09:00	14.5	100
169835	2026-05-06T08:19:00	14.7	100
169836	2026-05-06T08:29:00	15	100
169837	2026-05-06T08:39:00	14.7	100
169838	2026-05-06T08:49:00	14.9	100
169839	2026-05-06T08:59:00	14.9	100
169840	2026-05-06T09:09:00	15.2	100
169841	2026-05-06T09:19:00	15.8	100
169842	2026-05-06T09:29:00	16	100
169843	2026-05-06T09:39:00	16.9	100
169844	2026-05-06T09:49:00	17.2	100
169845	2026-05-06T09:59:00	17	100
169846	2026-05-06T10:09:00	17.4	100
169847	2026-05-06T10:19:00	17.2	100
169848	2026-05-06T10:29:00	17.6	99
169849	2026-05-06T10:39:00	17.7	81
169850	2026-05-06T10:49:00	17.8	78.5
169851	2026-05-06T10:59:00	18.9	73
169852	2026-05-06T11:09:00	18.6	72.5
169853	2026-05-06T11:19:00	18.4	75
169854	2026-05-06T11:29:00	18.2	74.5
169855	2026-05-06T11:39:00	18.5	72.5
169856	2026-05-06T11:49:00	18.8	71
169857	2026-05-06T11:59:00	18.6	70.5
169858	2026-05-06T12:09:00	18.4	71
169859	2026-05-06T12:19:00	18.7	69
169860	2026-05-06T12:29:00	19.4	67.5
169861	2026-05-06T12:39:00	19.8	65
169862	2026-05-06T12:48:59	19.6	65
169863	2026-05-06T12:59:00	19	66
169864	2026-05-06T13:08:59	18.6	67.5
169865	2026-05-06T13:18:59	18.2	69
169866	2026-05-06T13:28:59	17.4	73.5
169867	2026-05-06T13:38:59	15.4	95
169868	2026-05-06T13:48:59	15.1	99.5
169869	2026-05-06T13:58:59	15.7	100
169870	2026-05-06T14:08:59	15.7	98
169871	2026-05-06T14:18:59	15.5	95.5
169872	2026-05-06T14:28:59	14.7	98.5
169873	2026-05-06T14:38:59	14	100
169874	2026-05-06T14:48:59	13.8	100
169875	2026-05-06T14:58:59	13.4	100
169876	2026-05-06T15:08:59	13.3	100
169877	2026-05-06T15:18:59	13.3	100
169878	2026-05-06T15:28:59	13.6	100
169879	2026-05-06T15:38:59	13.6	100
169880	2026-05-06T15:48:59	13.6	100
169881	2026-05-06T15:58:59	13.6	100
169882	2026-05-06T16:08:59	13.6	100
169883	2026-05-06T16:18:59	13.3	100
169884	2026-05-06T16:28:59	13.1	100
169885	2026-05-06T16:38:59	12.8	100
169886	2026-05-06T16:48:59	12.7	100
169887	2026-05-06T16:58:59	12.6	100
169888	2026-05-06T17:08:59	12.6	100
169889	2026-05-06T17:18:59	12.4	100
169890	2026-05-06T17:29:00	12.4	100
169891	2026-05-06T17:58:59	12.3	100
169892	2026-05-06T18:08:59	12.2	100
169893	2026-05-06T18:18:59	12	100
169894	2026-05-06T18:28:59	11.9	100
169895	2026-05-06T18:38:59	11.7	100
169896	2026-05-06T18:48:59	11.7	100
169897	2026-05-06T18:58:59	11.6	100
169898	2026-05-06T19:08:59	11.6	100
169899	2026-05-06T19:18:59	11.4	100
169900	2026-05-06T19:28:59	11.4	100
169901	2026-05-06T19:38:59	11.3	100
169902	2026-05-06T19:48:59	11.4	100
169903	2026-05-06T19:58:59	11.3	100
169904	2026-05-06T20:08:59	11.2	100
169905	2026-05-06T20:18:59	11.1	100
169906	2026-05-06T20:28:59	11	100
169907	2026-05-06T20:38:59	10.9	100
169908	2026-05-06T20:48:59	10.9	100
169909	2026-05-06T20:58:59	10.9	100
169910	2026-05-06T21:08:59	10.8	100
169911	2026-05-06T21:18:59	10.7	100
169912	2026-05-06T21:28:59	10.7	100
169913	2026-05-06T21:38:59	10.6	100
169914	2026-05-06T21:48:59	10.5	100
169915	2026-05-06T21:58:59	10.6	100
169916	2026-05-06T22:08:59	10.5	100
169917	2026-05-06T22:18:59	10.4	100
169918	2026-05-06T22:28:59	10.4	100
169919	2026-05-06T22:38:59	10.5	100
169920	2026-05-06T22:48:59	10.4	100
169921	2026-05-06T22:58:59	10.4	100
169922	2026-05-06T23:08:59	10.4	100
169923	2026-05-06T23:18:59	10.4	100
169924	2026-05-06T23:28:59	10.4	100
169925	2026-05-06T23:38:59	10.3	100
169926	2026-05-06T23:48:59	10.3	100
169927	2026-05-06T23:58:59	10.4	100
169928	2026-05-07T00:08:59	10.3	100
169929	2026-05-07T00:18:59	10.4	100
169930	2026-05-07T00:28:59	10.4	100
169931	2026-05-07T00:38:59	10.4	100
169932	2026-05-07T00:48:59	10.3	100
169933	2026-05-07T00:58:59	10.3	100
169934	2026-05-07T01:08:59	10.3	100
169935	2026-05-07T01:18:59	10.4	100
169936	2026-05-07T01:28:59	10.3	100
169937	2026-05-07T01:38:59	10.3	100
169938	2026-05-07T01:48:59	10.3	100
169939	2026-05-07T01:58:59	10.3	99
169940	2026-05-07T02:08:59	10.1	98.5
169941	2026-05-07T02:18:59	9.9	97.5
169942	2026-05-07T02:28:58	9.8	97.5
169943	2026-05-07T02:38:58	9.8	97.5
169944	2026-05-07T02:48:58	9.8	97
169945	2026-05-07T02:58:58	9.7	97
169946	2026-05-07T03:08:58	9.7	97.5
169947	2026-05-07T03:18:58	9.7	97.5
169948	2026-05-07T03:28:58	9.6	97
169949	2026-05-07T03:38:58	9.6	97.5
169950	2026-05-07T03:48:58	9.6	97.5
169951	2026-05-07T03:58:58	9.6	97.5
169952	2026-05-07T04:08:58	9.5	97.5
169953	2026-05-07T04:18:58	9.6	97.5
169954	2026-05-07T04:28:58	9.5	97.5
169955	2026-05-07T04:38:58	9.6	97.5
169956	2026-05-07T04:48:58	9.6	97.5
169957	2026-05-07T04:58:58	9.5	97.5
169958	2026-05-07T05:08:58	9.6	97.5
169959	2026-05-07T05:18:58	9.6	97.5
169960	2026-05-07T05:28:58	9.7	97.5
169961	2026-05-07T05:38:58	9.7	97.5
169962	2026-05-07T05:48:58	9.7	97.5
169963	2026-05-07T05:58:58	9.9	97.5
169964	2026-05-07T06:08:58	10	97.5
169965	2026-05-07T06:18:58	10.2	97.5
169966	2026-05-07T06:28:58	10.2	97.5
169967	2026-05-07T06:38:58	10.4	97.5
169968	2026-05-07T06:48:58	10.6	97.5
169969	2026-05-07T06:58:58	11	97.5
169970	2026-05-07T07:08:58	11	97.5
169971	2026-05-07T07:28:58	11.1	97.5
169972	2026-05-07T07:38:58	11.3	97.5
169973	2026-05-07T07:48:58	11.5	97.5
169974	2026-05-07T07:58:58	11.8	97.5
169975	2026-05-07T08:08:58	11.9	97.5
169976	2026-05-07T08:18:58	11.8	97.5
169977	2026-05-07T08:28:58	11.7	97.5
169978	2026-05-07T08:38:58	11.7	97.5
169979	2026-05-07T08:48:58	12.1	97.5
169980	2026-05-07T08:58:58	12.5	97.5
169981	2026-05-07T09:08:58	12.7	98
169982	2026-05-07T09:18:58	13.1	97.5
169983	2026-05-07T09:28:58	12.8	97.5
169984	2026-05-07T09:38:58	13.3	98
169985	2026-05-07T09:48:58	13.5	98
169986	2026-05-07T09:58:58	12.8	97.5
169987	2026-05-07T10:08:58	12.8	98
169988	2026-05-07T10:18:58	12.7	97.5
169989	2026-05-07T10:28:58	12.7	97.5
169990	2026-05-07T10:38:58	12.6	97.5
169991	2026-05-07T10:48:58	12.8	97.5
169992	2026-05-07T10:58:58	13.7	97.5
169993	2026-05-07T11:08:58	14.7	98
169994	2026-05-07T11:18:58	14.7	97.5
169995	2026-05-07T11:28:58	14	97.5
169996	2026-05-07T11:38:58	14	98
169997	2026-05-07T11:48:58	14.4	98
169998	2026-05-07T11:58:58	14	98
169999	2026-05-07T12:08:58	14	98
170000	2026-05-07T12:18:58	14.9	97.5
170001	2026-05-07T12:28:58	15.2	97.5
170002	2026-05-07T12:38:58	14.9	97.5
170003	2026-05-07T12:48:58	15.9	97.5
170004	2026-05-07T12:58:58	16.1	97.5
170005	2026-05-07T13:08:58	16.2	98.5
170006	2026-05-07T13:18:58	15.9	98
170007	2026-05-07T13:28:58	15.8	98
170008	2026-05-07T13:38:58	16.2	98
170009	2026-05-07T13:48:58	15.9	98.5
170010	2026-05-07T13:58:58	16.8	98
170011	2026-05-07T14:08:58	17.2	98
170012	2026-05-07T14:18:58	16.9	98.5
170013	2026-05-07T14:28:58	17.8	98
170014	2026-05-07T14:38:58	19.5	98
170015	2026-05-07T14:48:58	17.4	100
170016	2026-05-07T14:58:58	16.9	100
170017	2026-05-07T15:08:58	16.8	100
170018	2026-05-07T15:18:58	18.5	100
170019	2026-05-07T15:28:58	18.1	100
170020	2026-05-07T15:38:58	17.9	98
170021	2026-05-07T15:48:57	18.3	78.5
170022	2026-05-07T15:58:57	18.6	65
170023	2026-05-07T16:08:57	18.5	65
170024	2026-05-07T16:18:57	18.2	64.5
170025	2026-05-07T16:28:57	17.7	69
170026	2026-05-07T16:38:57	17.7	70.5
170027	2026-05-07T16:48:57	18.2	66.5
170028	2026-05-07T16:58:57	22	60.5
170029	2026-05-07T17:08:57	21.1	60
170030	2026-05-07T17:18:57	19.6	67
170031	2026-05-07T17:28:57	18.7	63
170032	2026-05-07T17:38:57	18.6	68.5
170033	2026-05-07T17:48:57	17.5	68.5
170034	2026-05-07T17:58:57	16.9	73
170035	2026-05-07T18:08:57	16.4	75.5
170036	2026-05-07T18:18:57	16	74
170037	2026-05-07T18:28:57	15.4	77.5
170038	2026-05-07T18:38:57	14.9	81.5
170039	2026-05-07T18:48:57	14.5	87
170040	2026-05-07T18:58:57	13.9	89
170041	2026-05-07T19:08:57	13.6	91
170042	2026-05-07T19:18:57	13.3	92
170043	2026-05-07T19:28:57	12.9	91
170044	2026-05-07T19:38:57	12.6	93
170045	2026-05-07T19:48:57	12.4	91.5
170046	2026-05-07T19:58:57	12	92.5
170047	2026-05-07T20:08:57	11.7	90.5
170048	2026-05-07T20:18:57	11.4	92.5
170049	2026-05-07T20:28:57	11.3	94
170050	2026-05-07T20:38:57	11.2	94
170051	2026-05-07T20:48:57	11.1	94
170052	2026-05-07T20:58:57	10.9	92.5
170053	2026-05-07T21:08:57	10.6	93
170054	2026-05-07T21:18:57	10.6	94
170055	2026-05-07T21:28:57	10.8	95
170056	2026-05-07T21:38:57	10.8	95
170057	2026-05-07T21:48:57	10.5	93.5
170058	2026-05-07T21:58:57	10.5	95
170059	2026-05-07T22:08:57	10.4	94.5
170060	2026-05-07T22:18:57	10.5	95
170061	2026-05-07T22:28:57	10.6	94.5
170062	2026-05-07T22:38:57	10.5	95.5
170063	2026-05-07T22:48:57	10.3	94
170064	2026-05-07T22:58:57	10.2	96
170065	2026-05-07T23:08:57	10	96
170066	2026-05-07T23:18:57	9.8	96.5
170067	2026-05-07T23:28:57	9.4	97
170068	2026-05-07T23:38:57	9.4	97.5
170069	2026-05-07T23:48:57	9.2	98.5
170070	2026-05-07T23:58:57	9.1	98
170071	2026-05-08T00:08:57	9	98
170072	2026-05-08T00:18:57	8.9	98
170073	2026-05-08T00:28:57	8.8	99.5
170074	2026-05-08T00:38:57	8.7	99.5
170075	2026-05-08T00:48:57	8.4	100
170076	2026-05-08T00:58:57	8.4	100
170077	2026-05-08T01:08:57	8.3	100
170078	2026-05-08T01:18:57	8.2	100
170079	2026-05-08T01:28:57	8.3	100
170080	2026-05-08T01:38:57	8	100
170081	2026-05-08T01:48:57	8	100
170082	2026-05-08T01:58:57	8	100
170083	2026-05-08T02:08:57	8	100
170084	2026-05-08T02:18:57	8	99.5
170085	2026-05-08T02:28:57	7.9	100
170086	2026-05-08T02:38:57	7.7	100
170087	2026-05-08T02:48:57	7.5	100
170088	2026-05-08T02:58:57	7.5	100
170089	2026-05-08T03:08:57	7.4	100
170090	2026-05-08T03:18:57	7.3	100
170091	2026-05-08T03:28:57	7.2	100
170092	2026-05-08T03:38:57	7.1	100
170093	2026-05-08T03:48:57	7.1	100
170094	2026-05-08T03:58:57	7.1	100
170095	2026-05-08T04:08:57	7	100
170096	2026-05-08T04:18:57	7	100
170097	2026-05-08T04:28:57	6.9	100
170098	2026-05-08T04:38:57	7.1	100
170099	2026-05-08T04:48:57	7.1	100
170100	2026-05-08T04:58:57	7.2	100
170101	2026-05-08T05:08:57	7.4	100
170102	2026-05-08T05:18:57	7.6	100
170103	2026-05-08T05:28:57	7.7	100
170104	2026-05-08T05:38:57	7.9	99.5
170105	2026-05-08T05:48:57	8.1	99
170106	2026-05-08T05:58:57	8.5	98.5
170107	2026-05-08T06:08:57	8.7	98.5
170108	2026-05-08T06:18:57	8.9	97
170109	2026-05-08T06:28:57	9.3	96
170110	2026-05-08T06:38:57	9.6	95.5
170111	2026-05-08T06:48:57	9.9	94.5
170112	2026-05-08T06:58:57	10.2	93.5
170113	2026-05-08T07:08:57	10.5	94
170114	2026-05-08T07:18:57	10.9	93
170115	2026-05-08T07:28:56	11.1	92
170116	2026-05-08T07:38:56	11.5	91.5
170117	2026-05-08T07:48:56	11.4	92
170118	2026-05-08T07:58:56	11.8	91
170119	2026-05-08T08:08:56	12.1	90
170120	2026-05-08T08:18:56	12.2	89
170121	2026-05-08T08:28:56	12.6	90
170122	2026-05-08T08:38:56	12.9	88
170123	2026-05-08T08:48:56	13.3	87.5
170124	2026-05-08T08:58:56	13.4	86.5
170125	2026-05-08T09:08:56	13.6	84
170126	2026-05-08T09:18:56	13.7	84
170127	2026-05-08T09:29:15	14.1	83
170128	2026-05-08T09:38:56	14.4	80.5
170129	2026-05-08T09:48:56	14.4	78.5
170130	2026-05-08T09:58:56	14.7	80
170131	2026-05-08T10:08:56	15	79.5
170132	2026-05-08T10:18:56	15.1	76.5
170133	2026-05-08T10:28:56	15.4	76
170134	2026-05-08T10:38:56	15.7	77
170135	2026-05-08T10:48:56	16.3	74
170136	2026-05-08T10:58:56	16.5	71.5
170137	2026-05-08T11:08:56	16.8	70.5
170138	2026-05-08T11:18:56	17.2	70
170139	2026-05-08T11:28:56	17.6	70.5
170140	2026-05-08T11:38:56	17.7	70
170141	2026-05-08T11:48:56	17.8	69
170142	2026-05-08T11:58:56	18.8	67
170143	2026-05-08T12:08:56	20.6	64
170144	2026-05-08T12:18:56	23.6	55
170145	2026-05-08T12:28:56	25.3	50.5
170146	2026-05-08T12:38:56	25.3	49.5
170147	2026-05-08T12:49:14	24.2	52
170148	2026-05-08T12:58:56	24.2	49.5
170149	2026-05-08T13:08:56	24.5	50
170150	2026-05-08T13:18:56	26.6	45.5
170151	2026-05-08T13:28:56	26.1	48
170152	2026-05-08T13:38:56	26.8	46
170153	2026-05-08T13:48:56	26.4	45
170154	2026-05-08T13:58:56	27.2	44.5
170155	2026-05-08T14:08:56	26.2	48
170156	2026-05-08T14:18:56	27	45
170157	2026-05-08T14:28:56	25.3	48.5
170158	2026-05-08T14:38:56	28.1	44.5
170159	2026-05-08T14:48:56	26.2	46.5
170160	2026-05-08T14:58:56	28.5	44
170161	2026-05-08T15:08:56	27.1	44.5
170162	2026-05-08T15:18:56	29.5	41
170163	2026-05-08T15:28:56	27.1	45.5
170164	2026-05-08T15:38:56	29.1	41
170165	2026-05-08T15:48:56	25.8	46
170166	2026-05-08T15:58:56	28.4	41.5
170167	2026-05-08T16:08:56	27.4	44
170168	2026-05-08T16:18:56	26.8	44.5
170169	2026-05-08T16:28:56	24.7	46
170170	2026-05-08T16:38:56	24.8	47
170171	2026-05-08T16:48:56	23.8	50
170172	2026-05-08T16:58:56	23.1	50
170173	2026-05-08T17:08:56	23.1	51.5
170174	2026-05-08T17:18:56	23.4	51.5
170175	2026-05-08T17:28:56	22	54
170176	2026-05-08T17:38:56	23.1	52.5
170177	2026-05-08T17:48:56	21.8	55
170178	2026-05-08T17:58:56	21.1	57
170179	2026-05-08T18:08:55	20.4	55.5
170180	2026-05-08T18:18:55	20.2	60
170181	2026-05-08T18:28:55	20.2	60
170182	2026-05-08T18:38:55	19.8	60
170183	2026-05-08T18:48:55	19.2	62.5
170184	2026-05-08T18:58:55	18.9	62.5
170185	2026-05-08T19:08:55	18.3	64.5
170186	2026-05-08T19:18:55	17.7	66
170187	2026-05-08T19:28:55	17.4	68.5
170188	2026-05-08T19:38:55	16.9	68.5
170189	2026-05-08T19:48:55	16.7	70
170190	2026-05-08T19:58:56	16.4	71.5
170191	2026-05-08T20:08:55	16.2	72.5
170192	2026-05-08T20:18:55	16	74
170193	2026-05-08T20:28:55	15.8	76
170194	2026-05-08T20:38:55	15.6	77
170195	2026-05-08T20:48:55	15.5	76.5
170196	2026-05-08T20:58:55	15.4	76.5
170197	2026-05-08T21:08:55	15.1	75.5
170198	2026-05-08T21:18:55	15	76
170199	2026-05-08T21:28:55	14.5	77
170200	2026-05-08T21:38:55	14.3	78
170201	2026-05-08T21:48:55	14.2	77.5
170202	2026-05-08T21:58:55	14.1	77.5
170203	2026-05-08T22:08:55	14.1	78
170204	2026-05-08T22:18:55	14.1	76.5
170205	2026-05-08T22:28:55	13.8	78
170206	2026-05-08T22:38:55	13.7	78
170207	2026-05-08T22:48:55	13.6	79
170208	2026-05-08T22:58:55	13.6	78.5
170209	2026-05-08T23:08:55	13.5	79.5
170210	2026-05-08T23:18:55	13.4	80.5
170211	2026-05-08T23:28:55	13.3	80
170212	2026-05-08T23:38:55	13.1	81
170213	2026-05-08T23:48:55	13	81
170214	2026-05-08T23:58:55	12.7	81
170215	2026-05-09T00:08:55	12.7	81
170216	2026-05-09T00:18:55	12.7	81
170217	2026-05-09T00:28:55	12.5	82
170218	2026-05-09T00:38:55	12.2	82.5
170219	2026-05-09T00:48:55	12	84
170220	2026-05-09T00:58:55	11.8	85
170221	2026-05-09T01:08:55	11.7	86
170222	2026-05-09T01:18:55	11.6	86
170223	2026-05-09T01:28:55	11.6	86.5
170224	2026-05-09T01:38:55	11.5	86
170225	2026-05-09T01:48:55	11.4	86.5
170226	2026-05-09T01:58:55	11	86
170227	2026-05-09T02:08:55	11	86
170228	2026-05-09T02:18:55	10.9	86.5
170229	2026-05-09T02:28:55	10.8	87
170230	2026-05-09T02:38:55	10.8	86.5
170231	2026-05-09T02:48:55	10.7	87.5
170232	2026-05-09T02:58:55	10.6	88
170233	2026-05-09T03:08:55	10.3	89
170234	2026-05-09T03:18:55	10.2	88.5
170235	2026-05-09T03:28:55	10.1	89
170236	2026-05-09T03:38:55	9.9	89.5
170237	2026-05-09T03:48:55	9.8	90
170238	2026-05-09T03:58:55	9.7	89.5
170239	2026-05-09T04:08:55	9.7	91
170240	2026-05-09T04:18:55	9.7	90.5
170241	2026-05-09T04:28:55	9.6	91
170242	2026-05-09T04:38:55	9.6	91
170243	2026-05-09T04:48:55	9.8	90.5
170244	2026-05-09T04:58:55	9.9	89.5
170245	2026-05-09T05:08:55	10.1	89.5
170246	2026-05-09T05:18:55	10.2	90
170247	2026-05-09T05:28:55	10.3	89
170248	2026-05-09T05:38:55	10.5	89
170249	2026-05-09T05:48:55	10.6	89
170250	2026-05-09T05:58:55	10.7	88.5
170251	2026-05-09T06:08:55	10.9	89.5
170252	2026-05-09T06:18:55	11.1	89
170253	2026-05-09T06:28:55	11.4	88
170254	2026-05-09T06:38:55	11.6	88
170255	2026-05-09T06:48:55	11.9	88
170256	2026-05-09T06:58:55	12	87.5
170257	2026-05-09T07:08:55	12.3	87.5
170258	2026-05-09T07:18:55	12.7	86.5
170259	2026-05-09T07:28:54	12.9	86
170260	2026-05-09T07:38:54	13.3	84
170261	2026-05-09T07:48:54	13.6	84.5
170262	2026-05-09T07:58:54	13.7	82.5
170263	2026-05-09T08:08:54	14.1	82.5
170264	2026-05-09T08:18:54	14.3	81.5
170265	2026-05-09T08:28:54	14.8	82.5
170266	2026-05-09T08:38:54	14.8	80.5
170267	2026-05-09T08:48:54	15.1	80.5
170268	2026-05-09T08:58:54	15.3	79
170269	2026-05-09T09:08:54	15.5	79.5
170270	2026-05-09T09:18:54	16	78
170271	2026-05-09T09:28:54	16.2	77
170272	2026-05-09T09:38:54	16.3	76.5
170273	2026-05-09T09:48:54	16.4	74
170274	2026-05-09T09:58:54	16.8	74.5
170275	2026-05-09T10:08:54	16.9	74.5
170276	2026-05-09T10:18:54	17.1	73.5
170277	2026-05-09T10:28:54	17.5	72.5
170278	2026-05-09T10:38:54	17.9	70.5
170279	2026-05-09T10:48:54	18.2	71.5
170280	2026-05-09T10:58:54	18.5	69
170281	2026-05-09T11:08:54	18.7	68
170282	2026-05-09T11:18:54	19.1	67.5
170283	2026-05-09T11:28:54	19.3	69
170284	2026-05-09T11:38:54	19.7	67
170285	2026-05-09T11:48:54	20.5	66
170286	2026-05-09T11:58:54	20.7	64
170287	2026-05-09T12:08:54	21.7	63
170288	2026-05-09T12:18:54	24.7	56
170289	2026-05-09T12:28:54	26.5	51
170290	2026-05-09T12:38:54	28.5	47
170291	2026-05-09T12:48:54	29.7	44
170292	2026-05-09T12:58:54	31.1	41
170293	2026-05-09T13:08:54	31.3	39.5
170294	2026-05-09T13:18:54	32.6	38.5
170295	2026-05-09T13:38:54	33.8	36.5
170296	2026-05-09T13:48:54	34.3	34.5
170297	2026-05-09T13:58:54	33	35.5
170298	2026-05-09T14:08:54	35.1	35.5
170299	2026-05-09T14:18:54	35.7	33
170300	2026-05-09T14:28:54	36.9	33
170301	2026-05-09T14:38:54	37.3	30.5
170302	2026-05-09T14:48:54	37.1	30
170303	2026-05-09T14:58:54	37.8	29
170304	2026-05-09T15:08:54	38.2	29.5
170305	2026-05-09T15:18:54	38.1	29
170306	2026-05-09T15:28:54	38.8	29.5
170307	2026-05-09T15:38:54	39.8	28
170308	2026-05-09T15:48:54	38.9	28
170309	2026-05-09T15:58:54	39.8	28.5
170310	2026-05-09T16:08:54	39.8	28.5
170311	2026-05-09T16:18:54	40.1	29
170312	2026-05-09T16:28:54	39.3	28.5
170313	2026-05-09T16:38:54	39.3	28
170314	2026-05-09T16:48:54	39.5	29
170315	2026-05-09T16:58:54	37.5	29.5
170316	2026-05-09T17:08:54	38.6	29.5
170317	2026-05-09T17:37:03	36.5	29.5
170318	2026-05-09T17:37:35	37.3	29.5
170319	2026-05-09T17:38:54	36.2	32
170320	2026-05-09T17:48:54	32.4	34.5
170321	2026-05-09T17:58:54	30.8	39
170322	2026-05-09T18:08:54	29.7	40.5
170323	2026-05-09T18:18:54	29	42.5
170324	2026-05-09T18:28:54	28.1	44.5
170325	2026-05-09T18:38:53	27.1	45.5
170326	2026-05-09T18:48:53	26.4	47.5
170327	2026-05-09T18:58:53	25.8	49
170328	2026-05-09T19:08:53	25.3	51
170329	2026-05-09T19:18:53	24.7	52.5
170330	2026-05-09T19:28:53	24	54
170331	2026-05-09T19:38:53	23.4	56.5
170332	2026-05-09T19:48:53	22.5	58
170333	2026-05-09T19:58:54	22.1	59.5
170334	2026-05-09T20:08:53	21.3	60.5
170335	2026-05-09T20:18:53	20.7	62.5
170336	2026-05-09T20:28:53	20.6	63.5
170337	2026-05-09T20:38:53	19.9	64.5
170338	2026-05-09T20:48:53	19.6	66.5
170339	2026-05-09T20:58:53	19.6	66
170340	2026-05-09T21:08:53	19.3	67
170341	2026-05-09T21:18:53	19.2	68
170342	2026-05-09T21:28:53	19	67.5
170343	2026-05-09T21:38:53	18.7	68.5
170344	2026-05-09T21:48:53	18.4	70
170345	2026-05-09T21:58:53	18.1	70.5
170346	2026-05-09T22:08:53	17.7	71
170347	2026-05-09T22:18:53	17.4	72
170348	2026-05-09T22:28:53	17.2	73.5
170349	2026-05-09T22:38:53	17.2	74
170350	2026-05-09T22:48:53	16.9	73.5
170351	2026-05-09T22:58:53	16.7	75
170352	2026-05-09T23:08:53	16.4	75.5
170353	2026-05-09T23:18:53	16.2	76.5
170354	2026-05-09T23:28:53	15.9	77.5
170355	2026-05-09T23:38:53	15.9	78
170356	2026-05-09T23:48:53	15.7	78.5
170357	2026-05-09T23:58:53	15.6	78.5
170358	2026-05-10T00:08:53	15.4	79
170359	2026-05-10T00:18:53	15.2	79.5
170360	2026-05-10T00:28:53	15	79.5
170361	2026-05-10T00:38:53	14.6	81
170362	2026-05-10T00:48:53	14.5	81
170363	2026-05-10T00:58:53	14.5	82
170364	2026-05-10T01:08:53	14.3	82
170365	2026-05-10T01:18:53	14.2	83
170366	2026-05-10T01:28:53	14	83.5
170367	2026-05-10T01:38:53	13.9	84
170368	2026-05-10T01:48:53	13.8	84
170369	2026-05-10T01:58:53	13.9	83.5
170370	2026-05-10T02:08:53	13.4	84
170371	2026-05-10T02:18:53	13.2	84
170372	2026-05-10T02:28:53	12.9	84.5
170373	2026-05-10T02:38:53	12.8	86
170374	2026-05-10T02:48:53	12.7	86
170375	2026-05-10T02:58:53	12.9	85.5
170376	2026-05-10T03:08:53	12.7	86
170377	2026-05-10T03:18:53	12.7	86
170378	2026-05-10T03:28:53	12.7	85.5
170379	2026-05-10T03:38:53	12.7	86
170380	2026-05-10T03:48:53	12.6	87
170381	2026-05-10T03:58:53	12.6	87
170382	2026-05-10T04:08:53	12.6	87
170383	2026-05-10T04:18:53	12.6	87
170384	2026-05-10T04:28:53	12.6	87.5
170385	2026-05-10T04:38:53	12.4	88
170386	2026-05-10T04:48:53	12.5	87.5
170387	2026-05-10T04:58:53	12.7	88.5
170388	2026-05-10T05:08:53	12.8	86.5
170389	2026-05-10T05:18:53	12.7	86.5
170390	2026-05-10T05:28:53	12.7	87
170391	2026-05-10T05:38:53	12.6	87.5
170392	2026-05-10T05:48:53	12.8	87
170393	2026-05-10T05:58:53	13.1	86.5
170394	2026-05-10T06:08:53	13.5	86
170395	2026-05-10T06:18:53	14	85
170396	2026-05-10T06:28:53	14.4	84.5
170397	2026-05-10T06:38:52	14.6	83.5
170398	2026-05-10T06:48:52	14.9	83.5
170399	2026-05-10T06:58:52	15.1	82.5
170400	2026-05-10T07:08:52	15.4	81.5
170401	2026-05-10T07:18:52	15.7	81.5
170402	2026-05-10T07:28:52	16.1	80
170403	2026-05-10T07:38:52	16.3	80
170404	2026-05-10T07:48:52	16.6	78
170405	2026-05-10T07:58:52	16.8	78.5
170406	2026-05-10T08:08:52	17	77.5
170407	2026-05-10T08:18:52	17.4	77
170408	2026-05-10T08:28:52	17.7	76
170409	2026-05-10T08:38:52	18.1	74
170410	2026-05-10T08:48:52	18.5	74
170411	2026-05-10T08:58:52	18.8	72.5
170412	2026-05-10T09:08:52	19.2	71
170413	2026-05-10T09:18:52	19.4	71
170414	2026-05-10T09:28:52	19.7	71
170415	2026-05-10T09:38:52	20	71.5
170416	2026-05-10T09:48:52	20.3	70.5
170417	2026-05-10T09:58:52	20.7	68
170418	2026-05-10T10:08:52	20.9	69.5
170419	2026-05-10T10:18:52	21.3	67
170420	2026-05-10T10:28:52	21.7	66.5
170421	2026-05-10T10:38:52	22.2	66.5
170422	2026-05-10T10:48:52	22.4	64
170423	2026-05-10T10:58:52	22.6	63.5
170424	2026-05-10T11:08:52	23	63
170425	2026-05-10T11:18:52	23.6	60
170426	2026-05-10T11:28:52	24.3	54.5
170427	2026-05-10T11:38:52	25	52.5
170428	2026-05-10T11:48:52	25.5	52
170429	2026-05-10T11:58:52	25.8	49
170430	2026-05-10T12:08:52	26.1	51
170431	2026-05-10T12:18:52	26.9	48.5
170432	2026-05-10T12:28:52	27.1	47
170433	2026-05-10T12:38:52	27.7	46.5
170434	2026-05-10T12:48:52	28.5	43.5
170435	2026-05-10T12:58:52	29.1	42.5
170436	2026-05-10T13:08:52	29.6	41.5
170437	2026-05-10T13:18:52	29.6	41
170438	2026-05-10T13:28:52	28.9	42
170439	2026-05-10T13:38:52	28.4	42
170440	2026-05-10T13:48:52	28.3	44
170441	2026-05-10T13:58:52	28.2	43.5
170442	2026-05-10T14:08:52	27.7	46.5
170443	2026-05-10T14:18:52	27.3	46.5
170444	2026-05-10T14:28:52	27.2	47.5
170445	2026-05-10T14:38:52	27.2	49
170446	2026-05-10T14:48:52	27.3	48.5
170447	2026-05-10T14:58:52	27.3	47
170448	2026-05-10T15:08:52	27.3	46
170449	2026-05-10T15:18:52	27.2	46.5
170450	2026-05-10T15:28:52	26.6	47
170451	2026-05-10T15:38:52	26	49.5
170452	2026-05-10T15:48:52	24.9	58.5
170453	2026-05-10T15:58:52	23.8	62.5
170454	2026-05-10T16:08:52	23.1	63.5
170455	2026-05-10T16:18:52	22.6	65.5
170456	2026-05-10T16:28:52	20.6	93.5
170457	2026-05-10T16:38:52	19	81.5
170458	2026-05-10T16:48:52	18.4	90.5
170459	2026-05-10T16:58:51	16.5	100
170460	2026-05-10T17:08:51	16.4	100
170461	2026-05-10T17:18:51	16.9	100
170462	2026-05-10T17:28:51	17	100
170463	2026-05-10T17:38:51	16.5	100
170464	2026-05-10T17:48:51	16	100
170465	2026-05-10T17:58:51	15.6	100
170466	2026-05-10T18:08:51	15.1	100
170467	2026-05-10T18:18:51	15	100
170468	2026-05-10T18:28:51	15.3	100
170469	2026-05-10T18:38:51	15.6	100
170470	2026-05-10T18:48:51	15.7	100
170471	2026-05-10T18:58:51	15.7	100
170472	2026-05-10T19:08:51	15.7	100
170473	2026-05-10T19:18:51	15.6	100
170474	2026-05-10T19:28:51	15.7	99
170475	2026-05-10T19:38:51	15.7	98
170476	2026-05-10T19:48:51	15.7	97
170477	2026-05-10T19:58:51	15.7	97
170478	2026-05-10T20:08:51	15.5	96.5
170479	2026-05-10T20:18:51	15.3	97
170480	2026-05-10T20:28:51	15.4	97
170481	2026-05-10T20:38:51	15.4	97
170482	2026-05-10T20:48:51	15.4	97
170483	2026-05-10T20:58:51	15.3	97
170484	2026-05-10T21:08:51	15.3	97
170485	2026-05-10T21:18:51	15.3	97
170486	2026-05-10T21:28:51	15.2	97
170487	2026-05-10T21:38:51	15.2	97
170488	2026-05-10T21:48:51	15	97
170489	2026-05-10T21:58:51	14.8	97
170490	2026-05-10T22:18:51	14.8	97
170491	2026-05-10T22:28:51	14.9	97
170492	2026-05-10T22:38:51	15	97
170493	2026-05-10T22:48:51	14.9	97.5
170494	2026-05-10T22:58:51	15	97
170495	2026-05-10T23:08:51	15	97
170496	2026-05-10T23:18:51	14.9	97.5
170497	2026-05-10T23:28:51	14.9	97.5
170498	2026-05-10T23:38:51	14.9	97.5
170499	2026-05-10T23:48:51	15	97.5
170500	2026-05-10T23:58:51	14.7	97.5
170501	2026-05-11T00:08:51	14.4	97.5
170502	2026-05-11T00:18:51	14.2	97.5
170503	2026-05-11T00:28:51	14.2	97.5
170504	2026-05-11T00:38:51	14.2	97.5
170505	2026-05-11T00:48:51	14.3	97.5
170506	2026-05-11T00:58:51	14.2	97.5
170507	2026-05-11T01:08:51	14.3	97.5
170508	2026-05-11T01:18:51	14.2	97.5
170509	2026-05-11T01:28:51	14.1	97.5
170510	2026-05-11T01:38:51	14.3	97.5
170511	2026-05-11T01:48:51	13.9	97.5
170512	2026-05-11T01:58:51	13.8	97.5
170513	2026-05-11T02:08:51	13.7	97.5
170514	2026-05-11T02:18:51	13.5	97.5
170515	2026-05-11T02:28:51	13.6	97.5
170516	2026-05-11T02:38:51	13.5	97.5
170517	2026-05-11T02:48:51	13.4	97.5
170518	2026-05-11T02:58:51	13.2	97.5
170519	2026-05-11T03:18:51	12.8	97.5
170520	2026-05-11T03:28:51	12.9	98
170521	2026-05-11T03:38:51	13	98
170522	2026-05-11T03:48:51	13.1	98
170523	2026-05-11T03:58:51	12.9	98
170524	2026-05-11T04:08:51	12.9	97.5
170525	2026-05-11T04:18:51	12.9	98
170526	2026-05-11T04:28:51	13	98
170527	2026-05-11T04:38:51	13.2	98
170528	2026-05-11T04:48:51	13.3	98
170529	2026-05-11T04:58:51	13.4	98
170530	2026-05-11T05:08:51	13.5	98
170531	2026-05-11T05:18:51	13.7	98
170532	2026-05-11T05:28:51	13.9	98
170533	2026-05-11T05:38:50	14	98
170534	2026-05-11T05:48:50	14	98
170535	2026-05-11T05:58:50	14.1	98
170536	2026-05-11T06:08:50	14.2	98
170537	2026-05-11T06:18:50	14.3	98
170538	2026-05-11T06:28:50	14.4	98
170539	2026-05-11T06:38:50	14.4	98
170540	2026-05-11T06:48:50	14.4	98
170541	2026-05-11T06:58:50	14.7	98
170542	2026-05-11T07:08:50	14.9	98
170543	2026-05-11T07:18:50	15	98
170544	2026-05-11T07:28:50	15.2	98
170545	2026-05-11T07:38:50	15.3	98
170546	2026-05-11T07:48:50	15.4	98
170547	2026-05-11T07:58:50	15.4	98
170548	2026-05-11T08:08:50	15.1	98
170549	2026-05-11T08:18:50	13.8	98
170550	2026-05-11T08:28:50	13.2	98
170551	2026-05-11T08:38:50	13	98.5
170552	2026-05-11T08:48:50	13.7	98.5
170553	2026-05-11T08:58:50	14.1	98.5
170554	2026-05-11T09:08:50	14.4	98.5
170555	2026-05-11T09:18:50	14.8	98.5
170556	2026-05-11T09:28:50	14.8	98.5
170557	2026-05-11T09:38:50	14.8	98.5
170558	2026-05-11T09:48:50	14.8	98.5
170559	2026-05-11T09:58:50	14.6	98.5
170560	2026-05-11T10:08:50	14.6	98.5
170561	2026-05-11T10:18:50	14.5	98.5
170562	2026-05-11T10:28:50	14.3	98.5
170563	2026-05-11T10:38:50	14.5	98.5
170564	2026-05-11T10:48:50	14.9	98.5
170565	2026-05-11T10:58:50	15.5	98.5
170566	2026-05-11T11:08:50	15.4	98.5
170567	2026-05-11T11:18:50	15.3	98.5
170568	2026-05-11T11:28:50	15.4	98.5
170569	2026-05-11T11:38:50	15.4	98.5
170570	2026-05-11T11:48:50	14.4	98.5
170571	2026-05-11T11:58:50	13.6	98.5
170572	2026-05-11T12:08:50	13.1	98.5
170573	2026-05-11T12:18:50	12.8	98.5
170574	2026-05-11T12:28:50	12.5	99
170575	2026-05-11T12:38:50	12.6	99
170576	2026-05-11T12:48:50	13.2	99
170577	2026-05-11T12:58:50	12.9	99
170578	2026-05-11T13:08:50	12.8	99
170579	2026-05-11T13:18:50	12.6	99
170580	2026-05-11T13:28:50	12.5	99
170581	2026-05-11T13:38:50	12.8	99
170582	2026-05-11T13:48:50	12.3	99
170583	2026-05-11T13:58:50	12.1	99
170584	2026-05-11T14:08:50	11.6	99
170585	2026-05-11T14:18:50	11.6	99
170586	2026-05-11T14:28:50	11.6	99
170587	2026-05-11T14:38:50	11.7	99
170588	2026-05-11T14:48:50	11.5	99
170589	2026-05-11T14:58:50	11.3	99
170590	2026-05-11T15:08:50	11.3	99
170591	2026-05-11T15:18:50	11.4	99
170592	2026-05-11T15:28:50	11.3	99
170593	2026-05-11T15:38:50	11.2	99
170594	2026-05-11T15:48:50	11.2	99
170595	2026-05-11T15:58:50	11.1	99
170596	2026-05-11T16:08:50	10.9	99
170597	2026-05-11T16:18:50	11	99
170598	2026-05-11T16:28:50	11.1	99
170599	2026-05-11T16:38:50	11	99
170600	2026-05-11T16:48:50	10.8	99
170601	2026-05-11T16:58:50	10.6	99
170602	2026-05-11T17:08:50	10.4	99
170603	2026-05-11T17:18:50	10.2	99
170604	2026-05-11T17:28:50	10.1	99
170605	2026-05-11T17:38:50	9.9	99
170606	2026-05-11T17:48:50	9.6	99
170607	2026-05-11T17:58:50	9.5	99
170608	2026-05-11T18:08:50	9.8	99
170609	2026-05-11T18:18:50	9.8	99
170610	2026-05-11T18:28:50	10.7	99
170611	2026-05-11T18:38:50	10.2	99
170612	2026-05-11T18:48:50	9.8	99
170613	2026-05-11T18:58:49	9.5	99
170614	2026-05-11T19:08:49	9.1	99
170615	2026-05-11T19:18:49	8.9	99
170616	2026-05-11T19:28:49	8.7	99
170617	2026-05-11T19:38:49	8.4	99
170618	2026-05-11T19:48:49	8.3	99
170619	2026-05-11T19:58:49	8.4	99
170620	2026-05-11T20:08:49	8.6	99
170621	2026-05-11T20:18:49	8.4	99
170622	2026-05-11T20:28:49	8.4	99
170623	2026-05-11T20:38:49	8.4	99
170624	2026-05-11T20:48:49	8.3	99
170625	2026-05-11T20:58:49	8.2	99
170626	2026-05-11T21:08:49	8.2	99
170627	2026-05-11T21:18:49	8.2	99
170628	2026-05-11T21:28:49	8.2	98.5
170629	2026-05-11T21:38:49	8.2	98.5
170630	2026-05-11T21:48:49	8	99
170631	2026-05-11T21:58:49	8	99
170632	2026-05-11T22:08:49	8	99
170633	2026-05-11T22:18:49	7.9	99
170634	2026-05-11T22:28:49	7.6	99
170635	2026-05-11T22:38:49	7.8	98.5
170636	2026-05-11T22:48:49	7.7	98.5
170637	2026-05-11T22:58:49	7.7	99
170638	2026-05-11T23:08:49	7.8	99
170639	2026-05-11T23:18:49	7.7	99
170640	2026-05-11T23:28:49	7.8	98.5
170641	2026-05-11T23:38:49	7.9	98.5
170642	2026-05-11T23:48:49	7.8	98.5
170643	2026-05-11T23:58:49	7.8	98.5
170644	2026-05-12T00:08:49	7.8	99
170645	2026-05-12T00:18:49	7.9	99
170646	2026-05-12T00:28:49	7.7	98.5
170647	2026-05-12T00:38:49	7.6	98.5
170648	2026-05-12T00:48:49	7.4	98.5
170649	2026-05-12T00:58:49	7.3	98.5
170650	2026-05-12T01:08:49	7.1	98.5
170651	2026-05-12T01:18:49	6.9	99
170652	2026-05-12T01:28:49	6.7	98.5
170653	2026-05-12T01:38:49	6.5	98.5
170654	2026-05-12T01:48:49	6.3	98.5
170655	2026-05-12T01:58:49	6	98.5
170656	2026-05-12T02:08:49	5.7	98.5
170657	2026-05-12T02:18:49	5.6	98.5
170658	2026-05-12T02:28:49	5.4	98.5
170659	2026-05-12T02:38:49	5.3	98.5
170660	2026-05-12T02:48:49	5.2	98.5
170661	2026-05-12T02:58:49	5	98.5
170662	2026-05-12T03:08:49	5.1	98.5
170663	2026-05-12T03:18:49	4.8	98.5
170664	2026-05-12T03:28:49	4.7	98.5
170665	2026-05-12T03:38:49	4.5	98.5
170666	2026-05-12T03:48:49	4.3	98.5
170667	2026-05-12T03:58:49	4.4	98.5
170668	2026-05-12T04:08:49	4.1	98.5
170669	2026-05-12T04:18:49	4	99
170670	2026-05-12T04:28:49	4.1	98.5
170671	2026-05-12T04:38:49	4.1	98.5
170672	2026-05-12T04:48:49	4.1	99
170673	2026-05-12T04:58:49	4.2	99
170674	2026-05-12T05:08:49	4.2	99
170675	2026-05-12T05:18:49	4.3	99
170676	2026-05-12T05:28:49	4.5	99
170677	2026-05-12T05:38:49	4.7	99
170678	2026-05-12T05:48:49	4.9	99
170679	2026-05-12T05:58:49	5	99
170680	2026-05-12T06:08:49	5.1	99
170681	2026-05-12T06:18:49	5.2	99
170682	2026-05-12T06:28:49	5.3	99
170683	2026-05-12T06:38:49	5.5	99
170684	2026-05-12T06:48:49	5.6	99
170685	2026-05-12T06:58:49	5.8	99
170686	2026-05-12T07:08:49	6.3	99
170687	2026-05-12T07:18:49	6	99
170688	2026-05-12T07:28:49	6.3	99
170689	2026-05-12T07:38:49	7	99
170690	2026-05-12T07:48:49	7	99
170691	2026-05-12T07:58:49	7.6	99
170692	2026-05-12T08:08:49	7.3	99
170693	2026-05-12T08:18:49	7.6	99
170694	2026-05-12T08:28:49	7.8	99
170695	2026-05-12T08:38:49	8.2	99
170696	2026-05-12T08:48:49	8.3	99
170697	2026-05-12T08:58:49	8.6	99
170698	2026-05-12T09:08:49	9.2	99
170699	2026-05-12T09:19:07	9.4	99
170700	2026-05-12T09:28:49	9	99
170701	2026-05-12T09:38:49	8.3	99
170702	2026-05-12T09:48:49	7.4	99
170703	2026-05-12T09:58:49	8.3	99
170704	2026-05-12T10:08:49	8.6	99
170705	2026-05-12T10:18:49	9	98.5
170706	2026-05-12T10:28:49	9.5	98.5
170707	2026-05-12T10:38:49	9.4	98.5
170708	2026-05-12T10:48:49	7.3	98.5
170709	2026-05-12T10:58:49	7.6	98.5
170710	2026-05-12T11:08:49	8.4	98.5
170711	2026-05-12T11:18:49	8.6	98.5
170712	2026-05-12T11:28:49	7.6	98.5
170713	2026-05-12T11:38:49	9	98.5
170714	2026-05-12T11:48:49	9.3	98.5
170715	2026-05-12T11:58:49	10	98.5
170716	2026-05-12T12:08:49	10.3	98.5
170717	2026-05-12T12:18:49	9.7	98.5
170718	2026-05-12T12:28:49	10.8	98.5
170719	2026-05-12T12:38:49	13.1	98.5
170720	2026-05-12T12:48:49	14.8	98.5
170721	2026-05-12T12:58:49	15	98.5
170722	2026-05-12T13:08:49	13.6	98.5
170723	2026-05-12T13:18:49	13.1	98.5
170724	2026-05-12T13:28:49	13.2	98.5
170725	2026-05-12T13:38:49	13.7	99
170726	2026-05-12T13:48:49	12.7	99
170727	2026-05-12T13:58:48	12.5	99
170728	2026-05-12T14:08:48	13.1	99
170729	2026-05-12T14:18:48	14	99
170730	2026-05-12T14:28:48	13.1	99
170731	2026-05-12T14:38:48	13.8	99
170732	2026-05-12T14:48:48	13.1	99
170733	2026-05-12T14:58:48	12.9	100
170734	2026-05-12T15:08:48	13.9	100
170735	2026-05-12T15:18:48	13.6	100
170736	2026-05-12T15:28:48	14.8	100
170737	2026-05-12T15:38:48	14	100
170738	2026-05-12T15:48:48	15.9	100
170739	2026-05-12T15:58:48	15.8	65.5
170740	2026-05-12T16:08:48	16.6	49
170741	2026-05-12T16:18:48	16.2	52.5
170742	2026-05-12T16:28:48	14.7	50.5
170743	2026-05-12T16:38:48	14.6	50
170744	2026-05-12T16:48:48	14.3	52
170745	2026-05-12T16:58:48	14.3	52
170746	2026-05-12T17:08:48	14.9	51.5
170747	2026-05-12T17:18:48	13.7	51
170748	2026-05-12T17:28:48	13.8	53.5
170749	2026-05-12T17:38:48	14.8	54.5
170750	2026-05-12T17:48:48	13.5	57
170751	2026-05-12T17:58:48	12.7	54.5
170752	2026-05-12T18:08:48	12.4	60.5
170753	2026-05-12T18:18:48	12.3	59
170754	2026-05-12T18:28:48	12.1	59
170755	2026-05-12T18:38:48	11.7	61.5
170756	2026-05-12T18:48:48	11.4	64.5
170757	2026-05-12T18:58:48	11.4	65
170758	2026-05-12T19:08:48	11.4	67.5
170759	2026-05-12T19:18:48	11.2	69
170760	2026-05-12T19:28:48	10.9	71
170761	2026-05-12T19:38:48	10.7	74
170762	2026-05-12T19:48:48	10.5	77
170763	2026-05-12T19:58:48	10.6	79.5
170764	2026-05-12T20:08:48	10.5	78
170765	2026-05-12T20:18:48	10.2	76
170766	2026-05-12T20:28:48	10	78
170767	2026-05-12T20:38:48	9.8	77
170768	2026-05-12T20:48:48	9.7	76.5
170769	2026-05-12T20:58:48	9.6	74.5
170770	2026-05-12T21:08:48	9.5	75.5
170771	2026-05-12T21:18:48	9.4	75
170772	2026-05-12T21:28:48	9.3	74.5
170773	2026-05-12T21:38:48	9.3	74
170774	2026-05-12T21:48:48	9.1	74
170775	2026-05-12T21:58:48	9.1	75.5
170776	2026-05-12T22:08:48	9	76.5
170777	2026-05-12T22:18:48	9	74
170778	2026-05-12T22:28:48	8.9	76
170779	2026-05-12T22:38:48	8.4	78
170780	2026-05-12T22:48:48	8.2	79.5
170781	2026-05-12T22:58:48	7.7	82
170782	2026-05-12T23:08:48	7.6	83
170783	2026-05-12T23:18:48	7.5	81.5
170784	2026-05-12T23:28:48	7.4	80.5
170785	2026-05-12T23:38:48	7.2	79.5
170786	2026-05-12T23:48:48	7.2	78.5
170787	2026-05-12T23:58:48	7.1	78.5
170788	2026-05-13T00:08:48	6.9	78
170789	2026-05-13T00:18:48	6.9	80
170790	2026-05-13T00:28:48	6.8	80
170791	2026-05-13T00:38:48	6.7	79.5
170792	2026-05-13T00:48:48	6.9	78.5
170793	2026-05-13T00:58:48	7	78.5
170794	2026-05-13T01:08:48	7.3	77
170795	2026-05-13T01:18:48	7.5	74
170796	2026-05-13T01:28:48	7.7	73.5
170797	2026-05-13T01:38:48	7.7	74
170798	2026-05-13T01:48:48	7.6	73.5
170799	2026-05-13T01:58:48	7.5	74.5
170800	2026-05-13T02:08:48	7.5	75
170801	2026-05-13T02:18:48	7.4	74.5
170802	2026-05-13T02:28:48	7.4	75
170803	2026-05-13T02:38:48	7.5	75.5
170804	2026-05-13T02:48:48	7.7	74
170805	2026-05-13T02:58:48	8	73
170806	2026-05-13T03:08:48	8	72
170807	2026-05-13T03:18:48	8.2	71.5
170808	2026-05-13T03:28:48	8.2	70
170809	2026-05-13T03:38:48	8.2	69.5
170810	2026-05-13T03:48:48	8.3	68.5
170811	2026-05-13T03:58:48	8.3	69.5
170812	2026-05-13T04:08:48	8.2	70.5
170813	2026-05-13T04:18:48	8.2	71
170814	2026-05-13T04:28:48	8	71.5
170815	2026-05-13T04:38:48	8.3	71.5
170816	2026-05-13T04:48:48	8.3	73.5
170817	2026-05-13T04:58:48	8.3	74.5
170818	2026-05-13T05:08:48	8.3	74.5
170819	2026-05-13T05:18:48	8.4	74
170820	2026-05-13T05:28:48	8.4	75
170821	2026-05-13T05:38:48	8.6	75.5
170822	2026-05-13T05:48:48	8.7	76
170823	2026-05-13T05:58:48	9	74.5
170824	2026-05-13T06:08:48	9.1	74
170825	2026-05-13T06:18:48	9.2	73.5
170826	2026-05-13T06:28:47	9.6	71.5
170827	2026-05-13T06:38:48	9.8	73.5
170828	2026-05-13T06:48:48	9.6	73
170829	2026-05-13T06:58:47	9.7	72
170830	2026-05-13T07:08:47	10	71
170831	2026-05-13T07:18:47	10.1	70.5
170832	2026-05-13T07:28:47	10.1	70.5
170833	2026-05-13T07:38:47	10.4	68
170834	2026-05-13T07:48:47	10.4	67
170835	2026-05-13T07:58:47	10.9	66
170836	2026-05-13T08:08:47	11.3	64
170837	2026-05-13T08:18:47	11.4	65.5
170838	2026-05-13T08:28:47	11.6	64
170839	2026-05-13T08:38:47	11.9	64.5
170840	2026-05-13T08:48:47	12.1	65
170841	2026-05-13T08:58:47	12.4	64
170842	2026-05-13T09:08:47	12.5	64.5
170843	2026-05-13T09:18:47	12.6	63
170844	2026-05-13T09:28:47	13.3	63
170845	2026-05-13T09:38:47	14	61.5
170846	2026-05-13T09:48:47	14.1	60
170847	2026-05-13T09:58:47	14.7	59
170848	2026-05-13T10:08:47	14.9	59.5
170849	2026-05-13T10:18:47	15	59
170850	2026-05-13T10:28:47	14.9	57.5
170851	2026-05-13T10:38:47	15	57.5
170852	2026-05-13T10:48:47	14.9	59
170853	2026-05-13T10:58:47	14.5	61
170854	2026-05-13T11:08:47	15	58
170855	2026-05-13T11:18:47	14.5	58
170856	2026-05-13T11:28:47	14.8	58
170857	2026-05-13T11:38:47	15.3	57
170858	2026-05-13T11:48:47	14.9	56.5
170859	2026-05-13T11:58:47	14.8	58.5
170860	2026-05-13T12:08:47	14.8	57.5
170861	2026-05-13T12:18:47	14.5	58.5
170862	2026-05-13T12:28:47	15.2	56.5
170863	2026-05-13T12:38:47	15	57.5
170864	2026-05-13T12:48:47	14.8	60
170865	2026-05-13T12:58:47	14.6	60
170866	2026-05-13T13:08:47	15.2	59
170867	2026-05-13T13:18:47	15.1	59
170868	2026-05-13T13:28:47	16.3	56
170869	2026-05-13T13:38:47	17.3	54.5
170870	2026-05-13T13:48:47	16.3	55.5
170871	2026-05-13T13:58:47	15.7	58
170872	2026-05-13T14:08:47	16.2	56.5
170873	2026-05-13T14:18:47	19	51
170874	2026-05-13T14:28:47	17.7	52.5
170875	2026-05-13T14:38:47	16.8	56
170876	2026-05-13T14:48:47	16.9	56.5
170877	2026-05-13T14:58:47	17.5	51
170878	2026-05-13T15:08:47	18.6	50
170879	2026-05-13T15:18:47	16.9	52
170880	2026-05-13T15:28:47	16	55.5
170881	2026-05-13T15:38:47	16	55
170882	2026-05-13T15:48:47	15.1	61
170883	2026-05-13T15:58:47	12	95.5
170884	2026-05-13T16:08:47	11	100
170885	2026-05-13T16:18:47	10.7	100
170886	2026-05-13T16:28:47	10.8	100
170887	2026-05-13T16:38:47	11.2	100
170888	2026-05-13T16:48:47	11.3	100
170889	2026-05-13T16:58:47	11.2	100
170890	2026-05-13T17:08:47	11.1	100
170891	2026-05-13T17:18:47	11	100
170892	2026-05-13T17:28:47	10.9	100
170893	2026-05-13T17:38:47	10.8	100
170894	2026-05-13T17:48:47	10.5	100
170895	2026-05-13T17:58:47	10.3	100
170896	2026-05-13T18:08:47	9.5	100
170897	2026-05-13T18:18:47	9.4	100
170898	2026-05-13T18:28:47	9.3	100
170899	2026-05-13T18:38:47	9.1	100
170900	2026-05-13T18:48:47	9.1	100
170901	2026-05-13T18:58:47	9	100
170902	2026-05-13T19:08:47	8.9	100
170903	2026-05-13T19:18:46	8.7	100
170904	2026-05-13T19:28:46	8.7	100
170905	2026-05-13T19:38:46	8.8	100
170906	2026-05-13T19:48:46	8.8	100
170907	2026-05-13T19:58:47	8.8	100
170908	2026-05-13T20:08:47	8.9	100
170909	2026-05-13T20:18:46	9	100
170910	2026-05-13T20:28:46	9.3	100
170911	2026-05-13T20:38:46	8.8	100
170912	2026-05-13T20:48:46	8.5	100
170913	2026-05-13T20:58:46	8	100
170914	2026-05-13T21:08:46	8	100
170915	2026-05-13T21:18:46	8	100
170916	2026-05-13T21:28:46	7.8	100
170917	2026-05-13T21:38:46	7.8	100
170918	2026-05-13T21:48:46	7.6	100
170919	2026-05-13T21:58:46	7.8	100
170920	2026-05-13T22:08:46	7.7	100
170921	2026-05-13T22:18:46	7.8	100
170922	2026-05-13T22:28:46	7.8	100
170923	2026-05-13T22:38:46	7.7	100
170924	2026-05-13T22:48:46	7.7	100
170925	2026-05-13T22:58:46	7.9	100
170926	2026-05-13T23:08:46	8	100
170927	2026-05-13T23:18:46	7.8	100
170928	2026-05-13T23:28:46	7.9	100
170929	2026-05-13T23:38:46	7.8	100
170930	2026-05-13T23:48:46	7.5	100
170931	2026-05-13T23:58:46	7.5	100
170932	2026-05-14T00:08:46	7.7	100
170933	2026-05-14T00:18:46	7.8	100
170934	2026-05-14T00:28:46	7.7	100
170935	2026-05-14T00:38:46	7.8	99
170936	2026-05-14T00:48:46	8	98.5
170937	2026-05-14T00:58:46	8	98
170938	2026-05-14T01:08:46	7.9	98
170939	2026-05-14T01:18:46	7.9	97.5
170940	2026-05-14T01:28:46	8	98
170941	2026-05-14T01:38:46	8.1	98
170942	2026-05-14T01:48:46	8.1	98
170943	2026-05-14T01:58:46	8	98
170944	2026-05-14T02:08:46	8.1	98
170945	2026-05-14T02:18:46	8	98
170946	2026-05-14T02:28:46	7.8	98
170947	2026-05-14T02:38:46	7.7	98
170948	2026-05-14T02:48:46	7.7	98
170949	2026-05-14T02:58:46	7.4	98
170950	2026-05-14T03:08:46	7.5	98
170951	2026-05-14T03:18:46	7.4	98
170952	2026-05-14T03:28:46	7.4	98
170953	2026-05-14T03:38:46	7.2	97.5
170954	2026-05-14T03:48:46	7.1	97.5
170955	2026-05-14T03:58:46	7.1	97.5
170956	2026-05-14T04:08:46	7.2	97.5
170957	2026-05-14T04:18:46	7.1	98
170958	2026-05-14T04:28:46	7.2	98
170959	2026-05-14T04:38:46	7.2	98
170960	2026-05-14T04:48:46	7.5	98
170961	2026-05-14T04:58:46	7.9	98
170962	2026-05-14T05:08:46	8.1	98
170963	2026-05-14T05:18:46	8.3	98
170964	2026-05-14T05:28:46	8.6	98
170965	2026-05-14T05:38:46	8.8	98.5
170966	2026-05-14T05:48:46	9	100
170967	2026-05-14T05:58:46	9.1	100
170968	2026-05-14T06:08:46	9.3	100
170969	2026-05-14T06:18:46	9.4	100
170970	2026-05-14T06:28:46	9.6	100
170971	2026-05-14T06:38:46	9.7	100
170972	2026-05-14T06:48:46	10	100
170973	2026-05-14T06:58:46	10.1	100
170974	2026-05-14T07:08:46	10.3	100
170975	2026-05-14T07:18:46	10.1	100
170976	2026-05-14T07:28:46	9.9	100
170977	2026-05-14T07:38:46	10.1	100
170978	2026-05-14T07:48:46	10.4	100
170979	2026-05-14T07:59:05	11.2	99
170980	2026-05-14T08:08:46	11.3	87
170981	2026-05-14T08:18:46	11.1	81.5
170982	2026-05-14T08:28:46	11.3	80
170983	2026-05-14T08:38:46	11.3	78
170984	2026-05-14T08:48:46	11.3	78
170985	2026-05-14T08:58:46	11.6	76.5
170986	2026-05-14T09:08:46	11.8	75.5
170987	2026-05-14T09:18:46	12.2	73
170988	2026-05-14T09:28:46	11.8	78.5
170989	2026-05-14T09:38:46	10.2	96
170990	2026-05-14T09:48:46	9.5	100
170991	2026-05-14T09:58:46	10.6	100
170992	2026-05-14T10:08:46	10.7	100
170993	2026-05-14T10:18:46	8.3	100
170994	2026-05-14T10:28:46	7.2	100
170995	2026-05-14T10:38:46	7.4	100
170996	2026-05-14T10:48:46	7.9	100
170997	2026-05-14T10:58:46	9.5	100
170998	2026-05-14T11:08:46	10.2	100
170999	2026-05-14T11:18:46	10.6	100
171000	2026-05-14T11:28:46	10.8	100
171001	2026-05-14T11:38:46	10.8	100
171002	2026-05-14T11:48:46	11.3	100
171003	2026-05-14T11:58:46	11.9	100
171004	2026-05-14T12:08:46	12.2	100
171005	2026-05-14T12:18:46	13.6	100
171006	2026-05-14T12:28:45	13.4	100
171007	2026-05-14T12:38:45	14.6	100
171008	2026-05-14T12:48:45	15.4	100
171009	2026-05-14T13:08:45	15.4	100
171010	2026-05-14T13:18:45	15.2	100
171011	2026-05-14T13:28:45	15.4	100
171012	2026-05-14T13:38:45	16	100
171013	2026-05-14T13:48:45	16.9	100
171014	2026-05-14T13:58:45	17.7	100
171015	2026-05-14T14:08:45	18.4	100
171016	2026-05-14T14:18:45	19.1	100
171017	2026-05-14T14:28:45	16.7	100
171018	2026-05-14T14:38:45	16.3	100
171019	2026-05-14T14:48:45	15	100
171020	2026-05-14T14:58:45	16.7	100
171021	2026-05-14T15:08:45	15.7	100
171022	2026-05-14T15:18:45	13.7	100
171023	2026-05-14T15:28:45	16.5	100
171024	2026-05-14T15:38:45	15.7	96.5
171025	2026-05-14T15:48:45	16.7	68.5
171026	2026-05-14T15:58:45	21.4	56
171027	2026-05-14T16:08:45	22.3	51.5
171028	2026-05-14T16:18:45	20.9	53
171029	2026-05-14T16:28:45	23.7	48.5
171030	2026-05-14T16:38:45	22	50
171031	2026-05-14T16:48:45	20.3	48
171032	2026-05-14T16:58:45	21.6	46
171033	2026-05-14T17:08:45	21.2	45.5
171034	2026-05-14T17:18:45	21.1	45
171035	2026-05-14T17:28:45	20.5	47.5
171036	2026-05-14T17:38:45	17.5	51.5
171037	2026-05-14T17:48:45	15.8	56
171038	2026-05-14T17:58:45	15	61
171039	2026-05-14T18:08:45	14.8	64
171040	2026-05-14T18:18:45	14	65.5
171041	2026-05-14T18:28:45	13.8	67
171042	2026-05-14T18:38:45	13.8	71.5
171043	2026-05-14T18:48:45	13.6	70
171044	2026-05-14T18:58:45	13.6	74.5
171045	2026-05-14T19:08:45	13.6	73
171046	2026-05-14T19:18:45	12.8	71
171047	2026-05-14T19:28:45	12.7	71.5
171048	2026-05-14T19:38:45	12.4	73.5
171049	2026-05-14T19:48:45	11.6	77
171050	2026-05-14T19:58:45	11.6	82
171051	2026-05-14T20:08:45	11.1	85.5
171052	2026-05-14T20:18:45	10.9	87
171053	2026-05-14T20:28:45	10.7	88.5
171054	2026-05-14T20:38:45	10.5	88
171055	2026-05-14T20:48:45	10.2	87.5
171056	2026-05-14T20:58:45	10.1	89
171057	2026-05-14T21:08:45	10.1	88.5
171058	2026-05-14T21:18:45	9.8	89.5
171059	2026-05-14T21:28:45	9.6	90.5
171060	2026-05-14T21:38:45	9.2	91.5
171061	2026-05-14T21:48:45	9.1	91
171062	2026-05-14T21:58:45	8.7	91
171063	2026-05-14T22:08:45	9	89.5
171064	2026-05-14T22:18:45	9.4	91
171065	2026-05-14T22:28:45	9.3	90
171066	2026-05-14T22:38:45	9.4	89.5
171067	2026-05-14T22:48:45	9.5	88.5
171068	2026-05-14T22:58:45	8.9	93.5
171069	2026-05-14T23:08:45	8.5	99
171070	2026-05-14T23:18:45	8.6	100
171071	2026-05-14T23:28:45	8.5	100
171072	2026-05-14T23:38:45	8.6	100
171073	2026-05-14T23:48:45	8.8	100
171074	2026-05-14T23:58:45	8.7	100
171075	2026-05-15T00:08:45	8.6	100
171076	2026-05-15T00:18:45	8.3	100
171077	2026-05-15T00:28:45	8.2	100
171078	2026-05-15T00:38:45	7.9	100
171079	2026-05-15T00:48:45	8	100
171080	2026-05-15T00:58:45	8.1	100
171081	2026-05-15T01:08:45	8.1	100
171082	2026-05-15T01:18:45	8.1	99.5
171083	2026-05-15T01:28:45	8	100
171084	2026-05-15T01:38:45	7.9	100
171085	2026-05-15T01:48:45	7.8	100
171086	2026-05-15T01:58:45	7.9	100
171087	2026-05-15T02:09:07	8	100
171088	2026-05-15T02:18:45	8.1	100
171089	2026-05-15T02:28:45	8.1	100
171090	2026-05-15T02:38:44	8	100
171091	2026-05-15T02:48:44	8.1	100
171092	2026-05-15T02:58:44	8	100
171093	2026-05-15T03:08:44	8.1	100
171094	2026-05-15T03:18:44	8	100
171095	2026-05-15T03:28:44	8	100
171096	2026-05-15T03:38:44	8.1	100
171097	2026-05-15T03:48:44	8	100
171098	2026-05-15T03:58:44	8	100
171099	2026-05-15T04:08:44	7.9	100
171100	2026-05-15T04:18:44	7.9	100
171101	2026-05-15T04:28:44	7.7	100
171102	2026-05-15T04:38:44	7.8	100
171103	2026-05-15T04:48:44	7.7	100
171104	2026-05-15T04:58:44	7.8	100
171105	2026-05-15T05:08:44	8	100
171106	2026-05-15T05:18:44	8.1	100
171107	2026-05-15T05:28:44	8.2	100
171108	2026-05-15T05:38:44	8.3	100
171109	2026-05-15T05:48:44	8.4	100
171110	2026-05-15T05:58:44	8.5	100
171111	2026-05-15T06:08:44	8.5	100
171112	2026-05-15T06:18:44	8.3	100
171113	2026-05-15T06:28:44	8.3	100
171114	2026-05-15T06:38:44	8.3	100
171115	2026-05-15T06:48:44	8.4	100
171116	2026-05-15T06:58:44	8.6	100
171117	2026-05-15T07:08:44	8.5	99.5
171118	2026-05-15T07:18:44	8.8	100
171119	2026-05-15T07:28:44	9	100
171120	2026-05-15T07:38:44	9.1	98.5
171121	2026-05-15T07:48:44	9.3	97.5
171122	2026-05-15T07:58:44	9.3	94.5
171123	2026-05-15T08:08:44	9.7	94
171124	2026-05-15T08:18:44	9.5	95
171125	2026-05-15T08:28:44	10.1	92.5
171126	2026-05-15T08:38:44	11.4	90
171127	2026-05-15T08:48:44	12	87.5
171128	2026-05-15T08:58:44	12.3	85.5
171129	2026-05-15T09:08:44	12.2	85.5
171130	2026-05-15T09:18:44	12.2	86.5
171131	2026-05-15T09:28:44	11.4	84.5
171132	2026-05-15T09:38:44	10.1	97.5
171133	2026-05-15T09:48:44	9.4	100
171134	2026-05-15T09:58:44	9.9	100
171135	2026-05-15T10:08:44	10.8	100
171136	2026-05-15T10:18:44	10.9	97.5
171137	2026-05-15T10:28:44	11.4	88.5
171138	2026-05-15T10:38:44	11.9	92
171139	2026-05-15T10:48:44	12.2	88
171140	2026-05-15T10:58:44	12.3	87
171141	2026-05-15T11:08:44	12.9	82.5
171142	2026-05-15T11:18:44	13.3	76
171143	2026-05-15T11:28:44	13.3	77.5
171144	2026-05-15T11:38:44	13.5	75.5
171145	2026-05-15T11:48:44	13.8	76.5
171146	2026-05-15T11:58:44	12.7	73.5
171147	2026-05-15T12:08:44	11.8	79
171148	2026-05-15T12:18:44	11	85.5
171149	2026-05-15T12:28:44	10.4	100
171150	2026-05-15T12:38:44	11	100
171151	2026-05-15T12:48:44	12.2	100
171152	2026-05-15T12:58:44	15	99
171153	2026-05-15T13:08:44	17.5	86
171154	2026-05-15T13:18:44	19.3	71
171155	2026-05-15T13:28:44	21.4	59.5
171156	2026-05-15T13:38:44	22.8	49.5
171157	2026-05-15T13:48:44	23.2	48
171158	2026-05-15T13:58:44	25	47.5
171159	2026-05-15T14:08:44	25.1	39.5
171160	2026-05-15T14:18:44	26.2	43.5
171161	2026-05-15T14:29:02	24.6	42
171162	2026-05-15T14:38:44	25.3	39.5
171163	2026-05-15T14:48:44	23.5	39.5
171164	2026-05-15T14:58:44	20.3	46.5
171165	2026-05-15T15:08:44	18.7	51.5
171166	2026-05-15T15:18:44	17.3	54
171167	2026-05-15T15:28:44	16.1	57.5
171168	2026-05-15T15:38:44	15.2	65
171169	2026-05-15T15:48:44	16.8	59
171170	2026-05-15T15:58:44	18.5	55
171171	2026-05-15T16:08:44	19.9	50.5
171172	2026-05-15T16:18:43	20.9	48
171173	2026-05-15T16:28:43	19.7	50.5
171174	2026-05-15T16:38:43	22	47
171175	2026-05-15T16:48:43	23.3	42
171176	2026-05-15T16:58:43	23.2	41
171177	2026-05-15T17:08:43	22.3	42.5
171178	2026-05-15T17:18:43	20.6	45.5
171179	2026-05-15T17:28:43	18	53.5
171180	2026-05-15T17:38:43	17.2	56.5
171181	2026-05-15T17:48:43	16.1	59.5
171182	2026-05-15T17:58:43	15.2	62
171183	2026-05-15T18:08:43	14.7	63.5
171184	2026-05-15T18:18:43	14	65
171185	2026-05-15T18:28:43	15	63.5
171186	2026-05-15T18:38:43	13.9	67
171187	2026-05-15T18:48:43	12.3	68
171188	2026-05-15T18:58:43	10.2	97.5
171189	2026-05-15T19:08:43	10.3	83
171190	2026-05-15T19:18:43	9.9	85.5
171191	2026-05-15T19:28:43	10	88.5
171192	2026-05-15T19:38:43	10.1	89.5
171193	2026-05-15T19:48:43	10	90.5
171194	2026-05-15T19:58:43	9.8	89.5
171195	2026-05-15T20:18:43	9.6	91.5
171196	2026-05-15T20:28:43	9.5	93
171197	2026-05-15T20:38:43	9.3	90
171198	2026-05-15T20:48:43	9.1	90
171199	2026-05-15T20:58:43	9.1	90
171200	2026-05-15T21:08:43	8.8	90.5
171201	2026-05-15T21:18:43	8.7	92.5
171202	2026-05-15T21:28:43	8.6	91
171203	2026-05-15T21:38:43	8.4	90
171204	2026-05-15T21:48:43	8.5	90
171205	2026-05-15T21:58:43	8.4	90
171206	2026-05-15T22:08:43	8.6	91
171207	2026-05-15T22:18:43	8.6	92
171208	2026-05-15T22:28:43	8.5	92
171209	2026-05-15T22:38:43	8.6	91
171210	2026-05-15T22:48:43	8.5	91
171211	2026-05-15T22:58:43	8.1	91.5
171212	2026-05-15T23:08:43	8.1	91.5
171213	2026-05-15T23:18:43	8	91.5
171214	2026-05-15T23:28:43	8.2	91.5
171215	2026-05-15T23:38:43	7.5	91.5
171216	2026-05-15T23:48:43	7.4	92.5
171217	2026-05-15T23:58:43	7.5	92.5
171218	2026-05-16T00:08:43	7.5	93
171219	2026-05-16T00:18:43	7.4	93.5
171220	2026-05-16T00:28:43	7.7	92
171221	2026-05-16T00:38:43	7.4	91.5
171222	2026-05-16T00:48:43	7.2	91.5
171223	2026-05-16T00:58:43	7.2	92
171224	2026-05-16T01:08:43	7.1	92
171225	2026-05-16T01:18:43	7.2	91.5
171226	2026-05-16T01:28:43	7.1	92
171227	2026-05-16T01:38:43	7.4	91.5
171228	2026-05-16T01:48:43	7.4	91.5
171229	2026-05-16T01:58:43	7.3	92
171230	2026-05-16T02:08:43	7.2	92.5
171231	2026-05-16T02:18:43	7.1	93
171232	2026-05-16T02:28:43	7	93
171233	2026-05-16T02:38:43	6.8	92.5
171234	2026-05-16T02:48:43	6.6	94
171235	2026-05-16T02:58:43	6.5	94.5
171236	2026-05-16T03:08:43	6.5	95
171237	2026-05-16T03:18:43	6.8	94.5
171238	2026-05-16T03:28:43	6.8	95
171239	2026-05-16T03:38:43	6.7	95.5
171240	2026-05-16T03:48:43	6.7	96
171241	2026-05-16T03:58:43	6.8	95
171242	2026-05-16T04:08:43	6.9	95.5
171243	2026-05-16T04:18:43	6.9	95
171244	2026-05-16T04:28:43	7.1	95
171245	2026-05-16T04:48:43	7.1	94.5
171246	2026-05-16T04:58:43	7.1	94
171247	2026-05-16T05:08:43	7.1	93.5
171248	2026-05-16T05:18:43	7.1	94
171249	2026-05-16T05:28:43	7.3	94
171250	2026-05-16T05:38:43	7.4	94
171251	2026-05-16T05:48:43	7.6	93.5
171252	2026-05-16T05:58:43	7.6	92.5
171253	2026-05-16T06:08:43	7.5	93
171254	2026-05-16T06:18:43	7.3	96
171255	2026-05-16T06:28:43	7	100
171256	2026-05-16T06:38:43	7.3	99.5
171257	2026-05-16T06:48:43	7.7	98
171258	2026-05-16T06:58:43	7.9	96.5
171259	2026-05-16T07:08:43	7.9	95
171260	2026-05-16T07:18:43	7.8	95
171261	2026-05-16T07:28:43	7.8	97
171262	2026-05-16T07:38:43	7.8	98
171263	2026-05-16T07:48:43	7.9	96.5
171264	2026-05-16T07:58:43	8.3	97.5
171265	2026-05-16T08:08:43	8.4	92.5
171266	2026-05-16T08:18:43	8.6	91
171267	2026-05-16T08:28:43	8.8	90
171268	2026-05-16T08:38:43	9.2	90.5
171269	2026-05-16T08:48:43	10	88.5
171270	2026-05-16T08:58:43	10.1	86
171271	2026-05-16T09:08:43	9.8	84.5
171272	2026-05-16T09:18:43	10.3	83
171273	2026-05-16T09:28:43	10.4	81
171274	2026-05-16T09:38:42	11.1	78
171275	2026-05-16T09:48:42	11.6	76.5
171276	2026-05-16T09:58:42	12	73.5
171277	2026-05-16T10:08:42	12	70
171278	2026-05-16T10:18:42	12.4	66.5
171279	2026-05-16T10:28:42	12.1	73.5
171280	2026-05-16T10:38:42	11.9	72
171281	2026-05-16T10:48:42	12.6	73.5
171282	2026-05-16T10:58:42	13	71.5
171283	2026-05-16T11:08:42	13.1	70
171284	2026-05-16T11:18:42	13.8	65.5
171285	2026-05-16T11:28:42	13.3	61.5
171286	2026-05-16T11:39:03	13.7	70
171287	2026-05-16T11:48:42	14.4	70
171288	2026-05-16T11:58:42	13.6	69.5
171289	2026-05-16T12:08:42	13.9	72.5
171290	2026-05-16T12:18:42	14.4	71.5
171291	2026-05-16T12:28:42	14.3	66.5
171292	2026-05-16T12:38:42	15.4	65
171293	2026-05-16T12:48:42	19.7	54.5
171294	2026-05-16T12:58:42	19.6	50
171295	2026-05-16T13:08:42	19.4	46
171296	2026-05-16T13:28:42	17.3	46
171297	2026-05-16T13:38:42	19.2	42.5
171298	2026-05-16T13:48:42	18	42.5
171299	2026-05-16T13:58:42	19.1	40.5
171300	2026-05-16T14:08:42	17.5	41.5
171301	2026-05-16T14:18:42	18.5	41
171302	2026-05-16T14:28:42	18.4	41.5
171303	2026-05-16T14:38:42	20.2	38
171304	2026-05-16T14:48:42	21.7	38
171305	2026-05-16T14:58:42	22.2	36
171306	2026-05-16T15:08:42	21.6	38.5
171307	2026-05-16T15:18:42	20.6	38
171308	2026-05-16T15:28:42	20.3	39.5
171309	2026-05-16T15:38:42	21.9	39
171310	2026-05-16T15:48:42	22.6	36
171311	2026-05-16T15:58:42	22.9	37
171312	2026-05-16T16:08:42	20.4	38
171313	2026-05-16T16:18:42	20	39.5
171314	2026-05-16T16:28:42	21.1	38.5
171315	2026-05-16T16:38:42	23.3	35
171316	2026-05-16T16:48:42	23.5	35
171317	2026-05-16T16:58:42	22.3	37.5
171318	2026-05-16T17:08:42	24	35
171319	2026-05-16T17:18:42	21.3	38.5
171320	2026-05-16T17:28:42	19.6	43
171321	2026-05-16T17:38:42	18.2	47
171322	2026-05-16T17:48:42	17.4	48.5
171323	2026-05-16T17:58:42	17.1	51
171324	2026-05-16T18:08:42	16.5	52.5
171325	2026-05-16T18:18:42	16.3	55.5
171326	2026-05-16T18:28:42	15.9	56.5
171327	2026-05-16T18:38:42	15.7	58
171328	2026-05-16T18:48:42	13.4	90.5
171329	2026-05-16T18:58:42	11	100
171330	2026-05-16T19:08:42	11	100
171331	2026-05-16T19:18:42	11.4	100
171332	2026-05-16T19:28:42	11.9	100
171333	2026-05-16T19:38:42	11.7	100
171334	2026-05-16T19:48:42	11.7	100
171335	2026-05-16T19:58:42	11.6	100
171336	2026-05-16T20:08:42	11.5	100
171337	2026-05-16T20:18:42	11.1	100
171338	2026-05-16T20:28:42	11	100
171339	2026-05-16T20:38:42	10.7	100
171340	2026-05-16T20:48:42	10.2	100
171341	2026-05-16T20:58:42	10.1	100
171342	2026-05-16T21:08:42	9.9	100
171343	2026-05-16T21:18:42	9.8	100
171344	2026-05-16T21:28:42	9.8	100
171345	2026-05-16T21:38:42	9.6	100
171346	2026-05-16T21:48:42	9.4	100
171347	2026-05-16T21:58:42	9	100
171348	2026-05-16T22:08:42	8.8	100
171349	2026-05-16T22:18:41	9	100
171350	2026-05-16T22:28:41	8.8	100
171351	2026-05-16T22:38:41	8.6	100
171352	2026-05-16T22:48:41	8.5	100
171353	2026-05-16T22:58:41	8.5	100
171354	2026-05-16T23:08:41	8.2	100
171355	2026-05-16T23:18:41	8	100
171356	2026-05-16T23:28:41	8.2	100
171357	2026-05-16T23:38:41	8.2	100
171358	2026-05-16T23:49:00	8.3	100
171359	2026-05-16T23:58:41	8.3	100
171360	2026-05-17T00:08:41	8	100
171361	2026-05-17T00:18:41	8	100
171362	2026-05-17T00:28:41	8	100
171363	2026-05-17T00:38:41	7.8	100
171364	2026-05-17T00:48:41	7.5	100
171365	2026-05-17T00:58:41	7.2	100
171366	2026-05-17T01:08:41	7.1	100
171367	2026-05-17T01:18:41	7	100
171368	2026-05-17T01:28:41	6.8	100
171369	2026-05-17T01:38:41	6.7	100
171370	2026-05-17T01:48:41	6.7	100
171371	2026-05-17T01:58:41	6.6	100
171372	2026-05-17T02:08:41	6.4	100
171373	2026-05-17T02:18:41	6.4	100
171374	2026-05-17T02:28:41	6.5	100
171375	2026-05-17T02:38:41	6.6	100
171376	2026-05-17T02:48:41	6.6	100
171377	2026-05-17T02:58:41	6.5	100
171378	2026-05-17T03:08:41	6.8	100
171379	2026-05-17T03:18:41	6.7	100
171380	2026-05-17T03:28:41	6.7	100
171381	2026-05-17T03:38:41	6.6	100
171382	2026-05-17T03:48:41	6.3	100
171383	2026-05-17T03:58:41	6.2	100
171384	2026-05-17T04:08:41	6	100
171385	2026-05-17T04:18:41	6.1	100
171386	2026-05-17T04:28:41	6	100
171387	2026-05-17T04:38:41	6	100
171388	2026-05-17T04:48:41	6.3	100
171389	2026-05-17T04:58:41	6.4	100
171390	2026-05-17T05:08:41	6.6	100
171391	2026-05-17T05:18:41	7	100
171392	2026-05-17T05:28:41	7.1	100
171393	2026-05-17T05:38:41	7.4	100
171394	2026-05-17T05:48:41	7.7	100
171395	2026-05-17T05:58:41	8	100
171396	2026-05-17T06:08:41	8.4	100
171397	2026-05-17T06:18:41	8.7	100
171398	2026-05-17T06:28:41	8.9	100
171399	2026-05-17T06:38:41	9.2	100
171400	2026-05-17T06:48:41	9.5	100
171401	2026-05-17T06:58:41	9.8	100
171402	2026-05-17T07:08:41	9.9	100
171403	2026-05-17T07:18:41	10.2	100
171404	2026-05-17T07:28:41	11	100
171405	2026-05-17T07:38:41	11.4	100
171406	2026-05-17T07:48:41	11.9	100
171407	2026-05-17T07:58:41	12.2	100
171408	2026-05-17T08:08:41	12.5	100
171409	2026-05-17T08:18:41	12.7	100
171410	2026-05-17T08:28:41	12.7	81.5
171411	2026-05-17T08:38:41	13	80.5
171412	2026-05-17T08:48:41	13.3	77
171413	2026-05-17T08:58:41	13.4	69.5
171414	2026-05-17T09:08:41	14	69
171415	2026-05-17T09:18:41	14.7	67.5
171416	2026-05-17T09:28:41	14.9	66.5
171417	2026-05-17T09:38:41	15.1	67
171418	2026-05-17T09:48:41	15.7	63.5
171419	2026-05-17T09:58:41	15.8	63.5
171420	2026-05-17T10:08:41	15.5	63.5
171421	2026-05-17T10:18:41	15.8	65.5
171422	2026-05-17T10:28:41	15.9	65
171423	2026-05-17T10:38:41	16.4	60
171424	2026-05-17T10:48:41	16.3	59.5
171425	2026-05-17T10:58:41	16.6	57
171426	2026-05-17T11:08:41	17	55
171427	2026-05-17T11:18:41	17	51
171428	2026-05-17T11:28:41	17.2	52
171429	2026-05-17T11:38:41	17.8	51.5
171430	2026-05-17T11:48:41	18.6	49.5
171431	2026-05-17T11:58:41	18.9	46
171432	2026-05-17T12:08:41	19.8	46.5
171433	2026-05-17T12:18:41	21.2	45.5
171434	2026-05-17T12:28:41	22.2	39
171435	2026-05-17T12:38:41	21.9	39.5
171436	2026-05-17T12:48:41	22.6	38
171437	2026-05-17T12:58:41	23.5	37.5
171438	2026-05-17T13:08:41	23.9	35.5
171439	2026-05-17T13:18:40	22.7	36.5
171440	2026-05-17T13:28:40	23.3	36
171441	2026-05-17T13:38:40	23.9	33
171442	2026-05-17T13:48:40	23.3	34.5
171443	2026-05-17T13:58:40	25.2	36.5
171444	2026-05-17T14:08:40	24.4	33.5
171445	2026-05-17T14:18:40	24.8	33.5
171446	2026-05-17T14:28:40	24.6	36
171447	2026-05-17T14:38:40	26	32.5
171448	2026-05-17T14:48:40	27.9	33.5
171449	2026-05-17T14:58:40	28.9	31.5
171450	2026-05-17T15:08:40	29.3	30.5
171451	2026-05-17T15:18:40	30.8	32
171452	2026-05-17T15:28:40	31.2	31
171453	2026-05-17T15:38:40	31.1	26.5
171454	2026-05-17T15:48:40	32.4	27.5
171455	2026-05-17T15:58:40	32.9	27
171456	2026-05-17T16:08:40	32.7	29
171457	2026-05-17T16:18:40	34.4	25
171458	2026-05-17T16:28:40	33.6	24.5
171459	2026-05-17T16:38:40	32.7	26.5
171460	2026-05-17T16:48:40	33.9	26
171461	2026-05-17T16:58:40	33.7	25
171462	2026-05-17T17:08:40	34	25.5
171463	2026-05-17T17:28:40	33.6	27.5
171464	2026-05-17T17:38:40	33.4	26.5
171465	2026-05-17T17:48:40	31.3	29.5
171466	2026-05-17T17:58:40	31.7	29.5
171467	2026-05-17T18:08:40	31.1	30.5
171468	2026-05-17T18:18:40	29.7	32
171469	2026-05-17T18:28:40	27.9	36
171470	2026-05-17T18:38:40	25.3	41
171471	2026-05-17T18:48:40	23.9	44
171472	2026-05-17T18:58:40	22.6	45.5
171473	2026-05-17T19:08:40	21.6	46.5
171474	2026-05-17T19:18:40	20.8	47
171475	2026-05-17T19:28:40	20.3	49.5
171476	2026-05-17T19:38:40	19.8	50.5
171477	2026-05-17T19:48:40	19	49.5
171478	2026-05-17T19:58:40	18.5	52
171479	2026-05-17T20:08:40	17.9	53
171480	2026-05-17T20:18:40	17.3	54.5
171481	2026-05-17T20:28:40	17	55
171482	2026-05-17T20:38:40	16.6	55
171483	2026-05-17T20:48:40	16.3	56
171484	2026-05-17T20:58:40	16	58
171485	2026-05-17T21:08:40	15.8	58
171486	2026-05-17T21:18:40	15.8	57.5
171487	2026-05-17T21:28:40	15.4	57.5
171488	2026-05-17T21:38:40	15.4	59
171489	2026-05-17T21:48:40	15.2	58.5
171490	2026-05-17T21:58:40	15.2	58
171491	2026-05-17T22:08:40	15.1	58
171492	2026-05-17T22:18:40	14.9	57.5
171493	2026-05-17T22:28:40	14.9	58
171494	2026-05-17T22:38:40	14.6	63.5
171495	2026-05-17T22:48:40	14.7	65.5
171496	2026-05-17T22:58:40	14.3	66
171497	2026-05-17T23:08:40	13.9	66
171498	2026-05-17T23:18:40	13.9	69
171499	2026-05-17T23:28:57	14.1	62
171500	2026-05-17T23:38:40	14.2	62
171501	2026-05-17T23:48:40	14.1	62
171502	2026-05-17T23:58:40	13.8	67
171503	2026-05-18T00:08:39	13.1	70.5
171504	2026-05-18T00:18:39	12.8	73
171505	2026-05-18T00:28:39	12.9	73.5
171506	2026-05-18T00:38:39	12.7	74.5
171507	2026-05-18T00:48:39	12.4	75.5
171508	2026-05-18T00:58:39	12.2	76
171509	2026-05-18T01:08:39	11.9	78
171510	2026-05-18T01:18:39	11.9	78
171511	2026-05-18T01:28:39	11.7	79
171512	2026-05-18T01:38:39	11.5	80.5
171513	2026-05-18T01:48:39	11.3	80.5
171514	2026-05-18T01:58:39	10.9	81
171515	2026-05-18T02:08:39	11.1	80.5
171516	2026-05-18T02:18:39	11.1	80.5
171517	2026-05-18T02:28:39	10.9	81
171518	2026-05-18T02:38:39	10.7	80.5
171519	2026-05-18T02:48:39	10.7	80.5
171520	2026-05-18T02:58:39	10.8	80.5
171521	2026-05-18T03:08:39	10.8	81
171522	2026-05-18T03:18:39	10.7	82
171523	2026-05-18T03:28:39	10.6	82.5
171524	2026-05-18T03:38:39	10.6	83
171525	2026-05-18T03:48:39	10.5	82.5
171526	2026-05-18T03:58:39	10.4	83
171527	2026-05-18T04:08:39	10.6	82.5
171528	2026-05-18T04:18:39	10.5	79.5
171529	2026-05-18T04:28:39	10.8	78
171530	2026-05-18T04:48:39	11.3	75.5
171531	2026-05-18T04:58:39	11.4	75.5
171532	2026-05-18T05:08:39	11.6	76
171533	2026-05-18T05:18:39	11.4	77.5
171534	2026-05-18T05:28:39	11.5	79
171535	2026-05-18T05:38:39	10.7	89.5
171536	2026-05-18T05:48:39	10.4	92
171537	2026-05-18T05:58:39	10.4	91.5
171538	2026-05-18T06:08:39	10.5	91
171539	2026-05-18T06:18:39	10.6	91.5
171540	2026-05-18T06:28:39	11	93.5
171541	2026-05-18T06:38:39	11.3	92
171542	2026-05-18T06:48:39	11.6	92
171543	2026-05-18T06:58:39	11.9	90
171544	2026-05-18T07:08:39	12.4	87
171545	2026-05-18T07:18:39	12.7	83
171546	2026-05-18T07:28:39	13.2	80.5
171547	2026-05-18T07:38:39	13.5	78
171548	2026-05-18T07:48:39	13.6	77.5
171549	2026-05-18T07:58:39	13.9	78
171550	2026-05-18T08:08:39	14.1	76.5
171551	2026-05-18T08:18:39	14.5	76
171552	2026-05-18T08:28:39	14.6	76.5
171553	2026-05-18T08:38:39	15	75
171554	2026-05-18T08:48:39	15.2	75
171555	2026-05-18T08:58:39	15.6	73.5
171556	2026-05-18T09:08:39	15.7	74
171557	2026-05-18T09:18:39	16	72.5
171558	2026-05-18T09:28:39	16.1	71
171559	2026-05-18T09:38:39	16.2	72
171560	2026-05-18T09:48:39	16.6	67.5
171561	2026-05-18T09:58:39	16.9	68.5
171562	2026-05-18T10:08:39	17.2	65.5
171563	2026-05-18T10:18:39	17.3	65
171564	2026-05-18T10:28:39	17.6	65
171565	2026-05-18T10:38:39	17.4	65
171566	2026-05-18T10:48:39	17.6	64.5
171567	2026-05-18T10:58:39	17.6	65
171568	2026-05-18T11:08:39	17.8	64
171569	2026-05-18T11:18:39	18.1	63.5
171570	2026-05-18T11:28:39	18	61
171571	2026-05-18T11:38:39	19	57.5
171572	2026-05-18T11:48:39	18.4	58
171573	2026-05-18T11:58:39	17.6	62
171574	2026-05-18T12:08:39	17.3	63
171575	2026-05-18T12:18:39	17.5	62
171576	2026-05-18T12:28:39	17.4	60.5
171577	2026-05-18T12:38:39	18	60.5
171578	2026-05-18T12:48:39	18.5	58
171579	2026-05-18T12:58:39	18.5	56.5
171580	2026-05-18T13:08:39	19	56.5
171581	2026-05-18T13:18:39	18.6	56
171582	2026-05-18T13:28:38	17.7	58.5
171583	2026-05-18T13:38:38	17.8	59
171584	2026-05-18T13:48:38	18.8	57
171585	2026-05-18T13:58:38	19.3	56.5
171586	2026-05-18T14:08:38	18.4	55.5
171587	2026-05-18T14:18:38	18	56.5
171588	2026-05-18T14:28:38	17.7	57.5
171589	2026-05-18T14:38:38	18.3	57
171590	2026-05-18T14:48:38	18.9	58
171591	2026-05-18T14:58:38	18.7	57.5
171592	2026-05-18T15:08:38	20.7	53.5
171593	2026-05-18T15:18:38	23.7	46.5
171594	2026-05-18T15:38:38	25.1	43
171595	2026-05-18T15:48:38	25.5	38.5
171596	2026-05-18T15:58:38	26.8	36.5
171597	2026-05-18T16:08:38	26.2	36.5
171598	2026-05-18T16:18:38	27	36
171599	2026-05-18T16:28:38	27.8	34
171600	2026-05-18T16:38:38	27.7	36
171601	2026-05-18T16:48:38	27.7	36
171602	2026-05-18T16:58:38	27.3	35.5
171603	2026-05-18T17:08:38	26.1	34.5
171604	2026-05-18T17:18:38	26.3	35.5
171605	2026-05-18T17:28:38	24.1	42
171606	2026-05-18T17:38:38	21.5	47.5
171607	2026-05-18T17:48:38	23.2	46.5
171608	2026-05-18T17:58:38	24.2	46
171609	2026-05-18T18:08:38	23.6	47.5
171610	2026-05-18T18:18:38	21.3	52.5
171611	2026-05-18T18:28:38	19.5	56.5
171612	2026-05-18T18:48:38	18.4	60
171613	2026-05-18T18:58:38	18.3	63.5
171614	2026-05-18T19:08:38	17.6	65.5
171615	2026-05-18T19:18:38	17.3	67
171616	2026-05-18T19:28:38	16.7	68.5
171617	2026-05-18T19:38:38	16.3	69.5
171618	2026-05-18T19:48:38	16.1	70.5
171619	2026-05-18T19:58:38	15.7	71
171620	2026-05-18T20:08:38	15.3	72
171621	2026-05-18T20:18:38	15	73
171622	2026-05-18T20:28:38	14.9	73.5
171623	2026-05-18T20:38:38	15	74
171624	2026-05-18T20:48:38	14.9	75
171625	2026-05-18T20:58:38	14.7	73.5
171626	2026-05-18T21:08:38	14.2	74.5
171627	2026-05-18T21:18:38	13.9	74.5
171628	2026-05-18T21:28:38	13.7	76
171629	2026-05-18T21:38:38	13.4	77
171630	2026-05-18T21:48:38	13.4	78
171631	2026-05-18T21:58:38	13	79.5
171632	2026-05-18T22:08:38	12.7	80.5
171633	2026-05-18T22:18:38	12.5	81
171634	2026-05-18T22:28:38	12.3	81.5
171635	2026-05-18T22:38:38	12.2	82.5
171636	2026-05-18T22:48:38	12.1	82.5
171637	2026-05-18T22:58:38	11.7	84
171638	2026-05-18T23:08:38	11.6	84
171639	2026-05-18T23:18:38	11.5	84
171640	2026-05-18T23:28:38	11.5	85
171641	2026-05-18T23:38:38	11.3	85.5
171642	2026-05-18T23:48:38	11.3	85
171643	2026-05-18T23:58:38	11.3	85
171644	2026-05-19T00:08:38	11.3	85.5
171645	2026-05-19T00:18:38	11.1	87
171646	2026-05-19T00:28:38	10.8	88
171647	2026-05-19T00:38:38	10.7	88
171648	2026-05-19T00:48:38	10.6	88.5
171649	2026-05-19T00:58:37	10.3	89
171650	2026-05-19T01:08:37	10.3	89
171651	2026-05-19T01:18:38	10	89.5
171652	2026-05-19T01:28:37	9.8	89.5
171653	2026-05-19T01:38:37	9.8	89.5
171654	2026-05-19T01:48:37	9.5	89.5
171655	2026-05-19T01:58:37	9.3	90
171656	2026-05-19T02:08:37	9.2	90
171657	2026-05-19T02:18:37	9.2	90.5
171658	2026-05-19T02:28:37	8.9	90.5
171659	2026-05-19T02:38:37	8.8	91
171660	2026-05-19T02:48:37	8.6	90.5
171661	2026-05-19T02:58:37	8.6	91
171662	2026-05-19T03:08:37	8.5	91
171663	2026-05-19T03:18:37	8.3	91.5
171664	2026-05-19T03:28:37	8.3	91.5
171665	2026-05-19T03:38:37	8.2	91.5
171666	2026-05-19T03:48:37	8.3	91
171667	2026-05-19T03:58:37	8.3	91.5
171668	2026-05-19T04:08:37	8.2	92
171669	2026-05-19T04:18:37	8.1	92.5
171670	2026-05-19T04:28:37	8.2	93.5
171671	2026-05-19T04:38:37	8.1	93.5
171672	2026-05-19T04:48:37	8.2	93.5
171673	2026-05-19T04:58:37	8.2	93.5
171674	2026-05-19T05:08:37	8.5	93.5
171675	2026-05-19T05:18:37	8.6	94
171676	2026-05-19T05:28:37	8.8	94.5
171677	2026-05-19T05:38:37	9.2	95
171678	2026-05-19T05:48:37	9.5	93.5
171679	2026-05-19T05:58:37	10.1	93
171680	2026-05-19T06:08:37	10.3	93
171681	2026-05-19T06:18:37	10.7	92.5
171682	2026-05-19T06:28:37	10.9	92
171683	2026-05-19T06:38:37	11.2	91
171684	2026-05-19T06:48:37	11.6	88
171685	2026-05-19T06:58:37	11.9	87.5
171686	2026-05-19T07:08:37	12.2	86.5
171687	2026-05-19T07:18:37	12.4	85.5
171688	2026-05-19T07:28:37	12.8	83.5
171689	2026-05-19T07:38:37	13.1	82.5
171690	2026-05-19T07:48:37	13.3	81
171691	2026-05-19T07:58:37	13.4	81.5
171692	2026-05-19T08:08:37	13.7	80
171693	2026-05-19T08:18:37	14	78
171694	2026-05-19T08:28:37	14.4	78
171695	2026-05-19T08:38:37	14.8	75.5
171696	2026-05-19T08:48:37	15.1	73
171697	2026-05-19T08:58:37	15.5	70.5
171698	2026-05-19T09:08:37	16	70
171699	2026-05-19T09:18:37	16.5	69
171700	2026-05-19T09:28:37	17.5	63.5
171701	2026-05-19T09:38:37	17.8	60.5
171702	2026-05-19T09:48:37	17.7	62.5
171703	2026-05-19T09:58:37	18.5	62
171704	2026-05-19T10:08:37	18.5	59.5
171705	2026-05-19T10:18:37	18.6	59.5
171706	2026-05-19T10:28:37	18.8	57.5
171707	2026-05-19T10:38:37	19.2	58
171708	2026-05-19T10:48:37	18.7	57
171709	2026-05-19T10:58:37	19.1	57.5
171710	2026-05-19T11:08:37	19.2	57.5
171711	2026-05-19T11:18:37	19.4	57.5
171712	2026-05-19T11:28:37	20.3	54.5
171713	2026-05-19T11:38:37	21.1	53
171714	2026-05-19T11:48:37	21	51
171715	2026-05-19T11:58:37	21.2	52
171716	2026-05-19T12:08:37	21.1	51
171717	2026-05-19T12:18:37	21.8	48
171718	2026-05-19T12:28:37	22.3	48
171719	2026-05-19T12:38:37	22.3	45.5
171720	2026-05-19T12:48:37	22.5	46.5
171721	2026-05-19T12:58:37	23.1	45
171722	2026-05-19T13:08:37	22.9	44.5
171723	2026-05-19T13:18:37	25	42
171724	2026-05-19T13:28:37	25.8	40
171725	2026-05-19T13:38:37	24.9	43
171726	2026-05-19T13:48:37	25.9	40.5
171727	2026-05-19T13:58:37	27.2	39.5
171728	2026-05-19T14:08:37	25.6	40.5
171729	2026-05-19T14:18:37	23.7	43
171730	2026-05-19T14:28:36	23.1	44
171731	2026-05-19T14:38:36	22.8	46
171732	2026-05-19T14:48:36	22.5	47
171733	2026-05-19T14:58:36	21.8	48.5
171734	2026-05-19T15:08:36	22.5	47.5
171735	2026-05-19T15:18:36	23.2	48
171736	2026-05-19T15:28:36	23.4	46
171737	2026-05-19T15:38:36	22.8	48.5
171738	2026-05-19T15:48:36	23.5	46.5
171739	2026-05-19T15:58:36	23.7	46
171740	2026-05-19T16:08:36	23.2	47.5
171741	2026-05-19T16:18:36	23.2	48
171742	2026-05-19T16:28:36	23.1	46.5
171743	2026-05-19T16:38:36	22.9	48.5
171744	2026-05-19T16:48:36	22.2	48.5
171745	2026-05-19T16:58:36	21.4	51
171746	2026-05-19T17:08:36	21.1	52
171747	2026-05-19T17:18:36	20.8	52.5
171748	2026-05-19T17:28:36	21.2	52
171749	2026-05-19T17:38:36	20.8	53.5
171750	2026-05-19T17:48:36	20.5	54.5
171751	2026-05-19T17:58:36	20.5	57
171752	2026-05-19T18:08:36	20.4	58
171753	2026-05-19T18:18:36	20.8	59
171754	2026-05-19T18:28:36	20.8	59.5
171755	2026-05-19T18:38:36	20.1	61
171756	2026-05-19T18:48:36	19.8	63.5
171757	2026-05-19T18:58:36	19.5	63.5
171758	2026-05-19T19:08:36	19.2	64.5
171759	2026-05-19T19:18:36	18.6	66.5
171760	2026-05-19T19:28:36	18.4	67.5
171761	2026-05-19T19:38:36	18.2	68.5
171762	2026-05-19T19:48:36	18.2	68.5
171763	2026-05-19T19:58:36	18	69.5
171764	2026-05-19T20:08:36	17.8	71
171765	2026-05-19T20:18:36	17.6	72
171766	2026-05-19T20:28:36	17.5	71.5
171767	2026-05-19T20:38:36	17.6	70.5
171768	2026-05-19T20:48:36	17.4	71
171769	2026-05-19T20:58:36	17.5	72
171770	2026-05-19T21:08:36	17.3	69.5
171771	2026-05-19T21:18:36	17.2	68
171772	2026-05-19T21:28:36	17.2	66.5
171773	2026-05-19T21:38:36	17	67
171774	2026-05-19T21:48:36	17	69.5
171775	2026-05-19T21:58:36	17	72.5
171776	2026-05-19T22:08:36	16.9	77.5
171777	2026-05-19T22:18:36	16.8	80
171778	2026-05-19T22:28:36	16.7	82.5
171779	2026-05-19T22:38:36	16.5	83
171780	2026-05-19T22:48:36	16.4	83
171781	2026-05-19T22:58:36	16.2	84
171782	2026-05-19T23:08:36	16.2	85.5
171783	2026-05-19T23:18:36	16.1	86.5
171784	2026-05-19T23:28:36	16	86.5
171785	2026-05-19T23:38:36	15.9	85.5
171786	2026-05-19T23:48:36	15.9	86.5
171787	2026-05-19T23:58:36	15.7	87
171788	2026-05-20T00:08:36	15.5	87.5
171789	2026-05-20T00:18:36	15.5	88
171790	2026-05-20T00:28:36	15.5	88
171791	2026-05-20T00:38:36	15.4	87.5
171792	2026-05-20T00:48:36	15.3	87
171793	2026-05-20T00:58:36	15.3	86.5
171794	2026-05-20T01:08:36	15.2	87
171795	2026-05-20T01:18:35	15.1	84.5
171796	2026-05-20T01:28:35	15.1	87
171797	2026-05-20T01:38:35	15	88
171798	2026-05-20T01:48:35	15.1	88.5
171799	2026-05-20T01:58:35	15.1	90
171800	2026-05-20T02:08:35	15	91
171801	2026-05-20T02:18:35	14.9	91
171802	2026-05-20T02:28:35	14.8	88
171803	2026-05-20T02:38:35	14.6	89.5
171804	2026-05-20T02:48:35	14.7	90
171805	2026-05-20T02:58:35	14.7	90.5
171806	2026-05-20T03:08:35	14.6	91
171807	2026-05-20T03:18:35	14.4	91.5
171808	2026-05-20T03:28:35	14.5	91.5
171809	2026-05-20T03:38:35	14.4	91.5
171810	2026-05-20T03:48:35	14.5	92
171811	2026-05-20T03:58:35	14.4	91.5
171812	2026-05-20T04:08:35	14	92.5
171813	2026-05-20T04:18:35	13.8	93
171814	2026-05-20T04:28:35	13.8	93.5
171815	2026-05-20T04:38:35	14	92.5
171816	2026-05-20T04:48:35	14.5	90.5
171817	2026-05-20T04:58:35	14.7	89.5
171818	2026-05-20T05:08:35	14.8	89.5
171819	2026-05-20T05:18:35	15.1	88.5
171820	2026-05-20T05:28:35	15.2	88
171821	2026-05-20T05:38:35	15.1	88
171822	2026-05-20T05:48:35	15.1	88.5
171823	2026-05-20T05:58:35	15.3	88
171824	2026-05-20T06:08:35	15.5	87.5
171825	2026-05-20T06:18:35	15.4	87.5
171826	2026-05-20T06:28:35	15.3	87.5
171827	2026-05-20T06:38:35	15.3	88
171828	2026-05-20T06:48:35	15	90
171829	2026-05-20T06:58:35	14.9	92.5
171830	2026-05-20T07:08:35	14.9	93.5
171831	2026-05-20T07:18:35	15.1	91.5
171832	2026-05-20T07:28:35	15.2	91
171833	2026-05-20T07:38:35	15.3	94
171834	2026-05-20T07:48:35	15.6	91
171835	2026-05-20T07:58:35	16.1	89.5
171836	2026-05-20T08:08:35	16.5	87
171837	2026-05-20T08:18:35	16.7	86
171838	2026-05-20T08:28:35	16.7	86
171839	2026-05-20T08:38:35	16.7	85
171840	2026-05-20T08:48:35	16.8	86
171841	2026-05-20T08:58:35	17.5	84.5
171842	2026-05-20T09:08:35	17.5	84.5
171843	2026-05-20T09:18:35	17.2	84
171844	2026-05-20T09:28:35	17.7	82
171845	2026-05-20T09:38:35	18.3	80.5
171846	2026-05-20T09:48:35	18.2	79
171847	2026-05-20T09:58:35	17.9	80.5
171848	2026-05-20T10:08:35	17.5	79.5
171849	2026-05-20T10:18:35	16.4	90
171850	2026-05-20T10:28:35	15.8	97
171851	2026-05-20T10:38:35	15.5	98.5
171852	2026-05-20T10:48:35	16.4	99.5
171853	2026-05-20T10:58:35	16.7	93.5
171854	2026-05-20T11:08:35	16.7	92.5
171855	2026-05-20T11:18:35	16.7	92
171856	2026-05-20T11:28:35	16.3	98.5
171857	2026-05-20T11:38:35	15.5	100
171858	2026-05-20T11:48:35	16	100
171859	2026-05-20T11:58:35	16.7	100
171860	2026-05-20T12:08:35	17.1	100
171861	2026-05-20T12:18:35	17.5	100
171862	2026-05-20T12:28:35	18.5	100
171863	2026-05-20T12:38:35	18.7	100
171864	2026-05-20T12:48:35	18.8	100
171865	2026-05-20T12:58:35	17.9	100
171866	2026-05-20T13:08:34	17.6	100
171867	2026-05-20T13:18:34	17.2	100
171868	2026-05-20T13:28:34	18.1	100
171869	2026-05-20T13:38:34	18.3	98.5
171870	2026-05-20T13:48:34	18.3	100
171871	2026-05-20T13:58:34	18.3	100
171872	2026-05-20T14:08:34	18.6	79
171873	2026-05-20T14:18:34	19	76
171874	2026-05-20T14:28:34	19.1	71.5
171875	2026-05-20T14:38:34	19.8	67
171876	2026-05-20T14:48:34	20.6	66.5
171877	2026-05-20T14:58:34	21.9	61.5
171878	2026-05-20T15:08:34	22.9	57.5
171879	2026-05-20T15:18:34	24.1	53.5
171880	2026-05-20T15:28:34	24.1	54.5
171881	2026-05-20T15:38:34	23.3	52.5
171882	2026-05-20T15:48:34	22.6	54
171883	2026-05-20T15:58:34	23.3	54.5
171884	2026-05-20T16:08:34	21.9	57
171885	2026-05-20T16:18:34	21.3	58
171886	2026-05-20T16:28:34	20.7	60
171887	2026-05-20T16:38:34	20.3	62
171888	2026-05-20T16:48:34	20.2	62.5
171889	2026-05-20T16:58:34	19.9	63
171890	2026-05-20T17:08:34	20	63.5
171891	2026-05-20T17:18:34	19.9	64.5
171892	2026-05-20T17:28:34	20.1	63.5
171893	2026-05-20T17:38:34	22.9	58
171894	2026-05-20T17:48:34	22.6	56.5
171895	2026-05-20T17:58:34	20.8	61.5
171896	2026-05-20T18:08:34	19.8	66
171897	2026-05-20T18:18:34	19.4	68.5
171898	2026-05-20T18:28:34	19.6	69.5
171899	2026-05-20T18:38:34	19.6	69.5
171900	2026-05-20T18:48:34	19.3	72.5
171901	2026-05-20T18:58:34	18.6	74.5
171902	2026-05-20T19:08:34	18.2	75
171903	2026-05-20T19:18:34	17.7	76
171904	2026-05-20T19:28:34	17.3	77
171905	2026-05-20T19:38:34	17	77.5
171906	2026-05-20T19:48:34	16.8	77.5
171907	2026-05-20T19:58:34	16.5	79
171908	2026-05-20T20:08:34	16.5	79
171909	2026-05-20T20:18:34	16.1	79.5
171910	2026-05-20T20:28:34	16	79.5
171911	2026-05-20T20:38:34	16	79.5
171912	2026-05-20T20:48:34	16.1	79.5
171913	2026-05-20T20:58:34	16	79
171914	2026-05-20T21:08:34	16.1	79
171915	2026-05-20T21:18:34	16.3	79
171916	2026-05-20T21:28:34	16	80
171917	2026-05-20T21:38:34	16	80.5
171918	2026-05-20T21:48:34	16	80.5
171919	2026-05-20T21:58:34	16	80.5
171920	2026-05-20T22:08:34	16	81
171921	2026-05-20T22:18:34	16	82
171922	2026-05-20T22:28:34	15.8	81
171923	2026-05-20T22:38:34	15.9	80
171924	2026-05-20T22:48:34	15.8	81
171925	2026-05-20T22:58:34	15.9	81
171926	2026-05-20T23:08:34	16	81.5
171927	2026-05-20T23:18:34	15.5	96.5
171928	2026-05-20T23:28:34	15.1	100
171929	2026-05-20T23:38:34	15.3	100
171930	2026-05-20T23:48:34	15.3	100
171931	2026-05-20T23:58:34	15.2	100
171932	2026-05-21T00:08:34	14.9	100
171933	2026-05-21T00:18:34	14.8	100
171934	2026-05-21T00:28:33	14.8	100
171935	2026-05-21T00:38:33	14.7	100
171936	2026-05-21T00:48:33	14.6	100
171937	2026-05-21T00:58:33	14.6	100
171938	2026-05-21T01:08:33	14.5	100
171939	2026-05-21T01:18:33	14.3	100
171940	2026-05-21T01:28:33	14.3	100
171941	2026-05-21T01:38:33	14.4	100
171942	2026-05-21T01:48:33	14.4	100
171943	2026-05-21T01:58:33	14.1	100
171944	2026-05-21T02:08:33	14	100
171945	2026-05-21T02:18:33	13.9	100
171946	2026-05-21T02:28:33	13.8	100
171947	2026-05-21T02:38:33	13.8	100
171948	2026-05-21T02:48:33	13.8	100
171949	2026-05-21T02:58:33	14	100
171950	2026-05-21T03:08:33	13.8	100
171951	2026-05-21T03:18:33	13.8	100
171952	2026-05-21T03:28:33	13.8	100
171953	2026-05-21T03:38:33	13.8	100
171954	2026-05-21T03:48:33	13.9	100
171955	2026-05-21T03:58:33	13.9	100
171956	2026-05-21T04:08:33	14	100
171957	2026-05-21T04:18:33	14	100
171958	2026-05-21T04:28:33	14.2	100
171959	2026-05-21T04:38:33	14.2	100
171960	2026-05-21T04:48:33	14.4	100
171961	2026-05-21T04:58:33	14.5	100
171962	2026-05-21T05:08:33	14.6	100
171963	2026-05-21T05:18:33	14.8	100
171964	2026-05-21T05:28:33	14.9	100
171965	2026-05-21T05:38:33	15.2	100
171966	2026-05-21T05:48:33	15.1	100
171967	2026-05-21T05:58:33	14.9	100
171968	2026-05-21T06:08:33	14.9	100
171969	2026-05-21T06:18:33	15.3	100
171970	2026-05-21T06:28:33	15.6	100
171971	2026-05-21T06:38:53	15.6	100
171972	2026-05-21T06:48:33	15.6	100
171973	2026-05-21T06:58:33	15.6	100
171974	2026-05-21T07:08:33	15.9	100
171975	2026-05-21T07:18:33	16.1	100
171976	2026-05-21T07:28:33	16.3	95
171977	2026-05-21T07:38:33	16.6	92.5
171978	2026-05-21T07:48:33	16.8	90
171979	2026-05-21T07:58:33	17.3	87
171980	2026-05-21T08:08:33	17.6	84.5
171981	2026-05-21T08:18:33	17.9	82.5
171982	2026-05-21T08:28:33	18.1	81
171983	2026-05-21T08:38:33	18	82
171984	2026-05-21T08:48:33	18.3	82.5
171985	2026-05-21T08:58:33	18.6	78.5
171986	2026-05-21T09:08:33	18.9	77
171987	2026-05-21T09:18:33	19	74
171988	2026-05-21T09:28:33	19.3	73.5
171989	2026-05-21T09:38:33	20	72
171990	2026-05-21T09:48:33	20.5	72
171991	2026-05-21T09:58:33	20.6	69
171992	2026-05-21T10:08:33	20.4	69.5
171993	2026-05-21T10:18:33	20.8	70
171994	2026-05-21T10:28:33	20.9	68.5
171995	2026-05-21T10:38:33	21.1	66.5
171996	2026-05-21T10:48:33	21	65.5
171997	2026-05-21T10:58:33	21.6	66
171998	2026-05-21T11:08:33	22	65.5
171999	2026-05-21T11:18:33	22.4	63.5
172000	2026-05-21T11:28:33	22.9	61
172001	2026-05-21T11:38:33	23.2	61
172002	2026-05-21T11:48:33	23.9	56.5
172003	2026-05-21T11:58:32	24.4	55
172004	2026-05-21T12:08:32	25.7	53.5
172005	2026-05-21T12:18:32	28	45
172006	2026-05-21T12:28:32	28.2	46.5
172007	2026-05-21T12:38:32	29.5	43
172008	2026-05-21T12:48:32	30.3	41.5
172009	2026-05-21T12:58:32	31.6	42
172010	2026-05-21T13:08:32	32.2	56
172011	2026-05-21T13:18:32	30.6	46
172012	2026-05-21T13:28:32	29.3	42.5
172013	2026-05-21T13:38:32	27.7	46.5
172014	2026-05-21T13:48:32	27.8	50
172015	2026-05-21T13:58:32	31.7	41.5
172016	2026-05-21T14:08:32	30.2	45.5
172017	2026-05-21T14:18:32	30.8	41.5
172018	2026-05-21T14:28:32	29.8	43
172019	2026-05-21T14:38:32	30	40
172020	2026-05-21T14:48:32	31.5	39
172021	2026-05-21T14:58:32	32.7	36.5
172022	2026-05-21T15:08:32	32.4	33.5
172023	2026-05-21T15:18:32	33.3	35.5
172024	2026-05-21T15:28:32	33.6	38.5
172025	2026-05-21T15:38:32	33.7	36
172026	2026-05-21T15:48:32	35.2	35.5
172027	2026-05-21T15:58:32	34.3	37
172028	2026-05-21T16:08:32	33.3	39
172029	2026-05-21T16:18:32	34.1	36.5
172030	2026-05-21T16:28:32	33.3	36.5
172031	2026-05-21T16:38:32	35.2	36.5
172032	2026-05-21T16:48:32	34.9	35
172033	2026-05-21T16:58:32	36.3	36
172034	2026-05-21T17:08:32	36.7	32.5
172035	2026-05-21T17:18:32	36.1	35
172036	2026-05-21T17:28:32	33.6	37.5
172037	2026-05-21T17:38:32	31.7	39.5
172038	2026-05-21T17:48:32	30.7	41
172039	2026-05-21T17:58:32	29.6	45.5
172040	2026-05-21T18:08:32	29.2	45.5
172041	2026-05-21T18:18:32	30.7	44
172042	2026-05-21T18:28:32	31	42.5
172043	2026-05-21T18:38:32	29.6	46
172044	2026-05-21T18:48:32	28.2	50.5
172045	2026-05-21T18:58:32	27.1	52.5
172046	2026-05-21T19:08:32	26.4	54.5
172047	2026-05-21T19:18:32	25.7	55.5
172048	2026-05-21T19:28:32	24.8	58
172049	2026-05-21T19:38:32	24.5	58.5
172050	2026-05-21T19:48:32	23.9	60.5
172051	2026-05-21T19:58:32	23.3	59.5
172052	2026-05-21T20:08:32	22.5	61
172053	2026-05-21T20:18:32	22	64
172054	2026-05-21T20:28:32	21.8	63.5
172055	2026-05-21T20:38:32	20.8	65
172056	2026-05-21T20:48:32	20.5	66.5
172057	2026-05-21T20:58:32	20.2	67
172058	2026-05-21T21:08:32	20	68
172059	2026-05-21T21:18:32	19.7	69
172060	2026-05-21T21:28:32	19.6	68.5
172061	2026-05-21T21:38:32	19.3	68
172062	2026-05-21T21:48:32	19	68.5
172063	2026-05-21T21:58:32	18.9	69
172064	2026-05-21T22:08:32	18.4	69
172065	2026-05-21T22:18:32	18.5	70
172066	2026-05-21T22:28:31	18.2	70
172067	2026-05-21T22:38:31	18	71
172068	2026-05-21T22:48:31	17.8	71.5
172069	2026-05-21T22:58:31	17.6	71.5
172070	2026-05-21T23:08:31	17.4	71.5
172071	2026-05-21T23:18:31	17.1	73
172072	2026-05-21T23:28:31	17.1	72.5
172073	2026-05-21T23:38:31	16.9	72.5
172074	2026-05-21T23:48:31	16.7	74
172075	2026-05-21T23:58:31	16.6	72.5
172076	2026-05-22T00:08:31	16.5	73
172077	2026-05-22T00:18:31	16.2	74
172078	2026-05-22T00:28:31	16.1	74.5
172079	2026-05-22T00:38:31	15.9	76
172080	2026-05-22T00:48:31	15.8	77
172081	2026-05-22T00:58:31	15.6	76.5
172082	2026-05-22T01:08:31	15.6	77.5
172083	2026-05-22T01:18:31	15.4	78
172084	2026-05-22T01:28:31	15.2	78
172085	2026-05-22T01:38:31	15	79
172086	2026-05-22T01:48:31	14.7	79.5
172087	2026-05-22T01:58:31	14.7	80
172088	2026-05-22T02:08:31	14.5	80.5
172089	2026-05-22T02:18:31	14.2	81
172090	2026-05-22T02:28:31	14.1	82
172091	2026-05-22T02:38:31	14.1	83
172092	2026-05-22T02:48:31	13.8	84
172093	2026-05-22T02:58:31	13.7	84.5
172094	2026-05-22T03:08:31	13.6	85
172095	2026-05-22T03:18:31	13.3	85
172096	2026-05-22T03:28:31	13.2	85
172097	2026-05-22T03:38:31	13.3	85.5
172098	2026-05-22T03:48:31	13.2	85.5
172099	2026-05-22T03:58:31	13.1	86
172100	2026-05-22T04:08:31	13.1	86.5
172101	2026-05-22T04:18:31	13.1	86.5
172102	2026-05-22T04:28:31	13	87
172103	2026-05-22T04:38:31	13	87.5
172104	2026-05-22T04:48:31	13	88
172105	2026-05-22T04:58:31	13.1	88.5
172106	2026-05-22T05:08:31	13.3	88
172107	2026-05-22T05:18:31	13.4	88
172108	2026-05-22T05:28:31	13.7	87
172109	2026-05-22T05:38:31	14	85
172110	2026-05-22T05:48:31	14.2	84
172111	2026-05-22T05:58:31	14.5	83.5
172112	2026-05-22T06:08:31	14.7	84.5
172113	2026-05-22T06:18:31	14.7	84
172114	2026-05-22T06:28:31	14.9	85
172115	2026-05-22T06:38:31	15.2	84
172116	2026-05-22T06:48:31	15.4	84.5
172117	2026-05-22T06:58:31	15.9	84
172118	2026-05-22T07:08:31	16.1	83.5
172119	2026-05-22T07:18:31	16.8	80.5
172120	2026-05-22T07:28:31	17.3	79
172121	2026-05-22T07:38:31	17.5	79.5
172122	2026-05-22T07:48:31	17.5	81.5
172123	2026-05-22T07:58:31	17.9	81
172124	2026-05-22T08:08:31	18	81
172125	2026-05-22T08:18:31	18.7	77
172126	2026-05-22T08:28:31	19.1	75
172127	2026-05-22T08:38:31	19.3	75
172128	2026-05-22T08:48:31	19.6	73.5
172129	2026-05-22T08:58:31	19.6	74
172130	2026-05-22T09:08:31	20.1	68
172131	2026-05-22T09:18:31	20.3	64
172132	2026-05-22T09:28:31	20.5	62.5
172133	2026-05-22T09:38:31	20.8	62
172134	2026-05-22T09:48:31	21	61.5
172135	2026-05-22T09:58:31	21.4	61.5
172136	2026-05-22T10:08:31	21.6	59
172137	2026-05-22T10:18:30	22	59.5
172138	2026-05-22T10:28:30	22	59.5
172139	2026-05-22T10:38:30	22.1	61.5
172140	2026-05-22T10:48:30	22.5	59.5
172141	2026-05-22T10:58:30	22.7	60.5
172142	2026-05-22T11:08:30	23.1	62.5
172143	2026-05-22T11:18:30	23.4	57
172144	2026-05-22T11:28:30	23.8	57.5
172145	2026-05-22T11:38:30	24.6	53.5
172146	2026-05-22T11:48:30	25.1	52.5
172147	2026-05-22T11:58:30	25.6	52
172148	2026-05-22T12:08:30	26.6	51
172149	2026-05-22T12:18:30	29.6	45
172150	2026-05-22T12:28:30	31.5	40.5
172151	2026-05-22T12:38:30	32.7	39.5
172152	2026-05-22T12:48:30	33.6	35
172153	2026-05-22T12:58:30	34.7	35.5
172154	2026-05-22T13:08:30	35.7	35.5
172155	2026-05-22T13:18:30	36	33
172156	2026-05-22T13:28:30	36.8	33.5
172157	2026-05-22T13:38:30	37.1	31
172158	2026-05-22T13:48:30	38.8	30.5
172159	2026-05-22T13:58:30	39.6	30
172160	2026-05-22T14:08:30	40	29
172161	2026-05-22T14:18:30	40.8	28
172162	2026-05-22T14:28:30	40.2	27.5
172163	2026-05-22T14:38:30	40.9	28
172164	2026-05-22T14:48:30	42.3	27
172165	2026-05-22T14:58:30	42.1	27
172166	2026-05-22T15:08:30	41.9	26.5
172167	2026-05-22T15:18:30	42.9	25
172168	2026-05-22T15:28:30	43.4	25.5
172169	2026-05-22T15:38:30	43.2	25
172170	2026-05-22T15:48:30	43.2	25
172171	2026-05-22T15:58:30	42.6	24.5
172172	2026-05-22T16:08:30	42.2	25.5
172173	2026-05-22T16:18:30	43.2	25.5
172174	2026-05-22T16:28:30	42.9	25
172175	2026-05-22T16:38:30	44	24.5
172176	2026-05-22T16:48:30	44.4	25.5
172177	2026-05-22T16:58:30	44.6	25.5
172178	2026-05-22T17:08:30	44.1	26
172179	2026-05-22T17:18:30	43.9	26.5
172180	2026-05-22T17:28:30	43.5	26
172181	2026-05-22T17:38:30	41.9	28.5
172182	2026-05-22T17:48:30	40.8	29.5
172183	2026-05-22T17:58:30	40.3	29
172184	2026-05-22T18:08:30	39.9	30
172185	2026-05-22T18:18:30	38.9	31.5
172186	2026-05-22T18:28:30	38.1	32
172187	2026-05-22T18:38:30	35.9	35
172188	2026-05-22T18:48:30	34	37
172189	2026-05-22T18:58:30	33	40
172190	2026-05-22T19:08:30	31.3	43
172191	2026-05-22T19:18:30	30.1	46
172192	2026-05-22T19:28:30	29.3	47.5
172193	2026-05-22T19:38:30	28.2	50.5
172194	2026-05-22T19:48:30	27.5	51.5
172195	2026-05-22T19:58:30	26.7	53.5
172196	2026-05-22T20:08:30	26.4	54
172197	2026-05-22T20:18:30	25.7	55
172198	2026-05-22T20:28:30	24.3	57.5
172199	2026-05-22T20:38:30	23.9	58
172200	2026-05-22T20:48:30	23.8	58.5
172201	2026-05-22T20:58:30	23.2	59.5
172202	2026-05-22T21:08:30	23.2	59.5
172203	2026-05-22T21:18:30	22.8	60.5
172204	2026-05-22T21:28:30	22.2	61.5
172205	2026-05-22T21:38:29	22.2	62.5
172206	2026-05-22T21:48:29	21.9	62
172207	2026-05-22T21:58:29	21.6	62.5
172208	2026-05-22T22:08:29	21.5	63.5
172209	2026-05-22T22:18:29	20.9	64.5
172210	2026-05-22T22:28:29	20.7	65
172211	2026-05-22T22:38:29	20.6	65
172212	2026-05-22T22:48:29	20.4	66
172213	2026-05-22T22:58:29	20.3	66.5
172214	2026-05-22T23:08:29	20.1	67
172215	2026-05-22T23:18:29	19.9	67
172216	2026-05-22T23:28:29	19.4	68.5
172217	2026-05-22T23:38:29	19.1	70
172218	2026-05-22T23:48:29	19	70.5
172219	2026-05-22T23:58:29	18.9	71
172220	2026-05-23T00:08:29	18.6	71.5
172221	2026-05-23T00:18:29	18.5	72
172222	2026-05-23T00:28:29	18.3	73.5
172223	2026-05-23T00:38:29	17.9	74.5
172224	2026-05-23T00:48:29	17.8	75
172225	2026-05-23T00:58:29	17.5	75.5
172226	2026-05-23T01:08:29	17.4	75
172227	2026-05-23T01:18:29	17.3	75.5
172228	2026-05-23T01:28:29	17.1	76.5
172229	2026-05-23T01:38:29	16.8	77.5
172230	2026-05-23T01:48:29	16.6	78
172231	2026-05-23T01:58:29	16.5	79
172232	2026-05-23T02:08:29	16.3	79
172233	2026-05-23T02:18:29	16.3	79
172234	2026-05-23T02:28:29	16.1	80
172235	2026-05-23T02:38:29	15.8	81
172236	2026-05-23T02:48:29	15.7	81.5
172237	2026-05-23T02:58:29	15.5	81.5
172238	2026-05-23T03:08:29	15.3	82
172239	2026-05-23T03:18:29	15.2	82.5
172240	2026-05-23T03:28:29	15	82.5
172241	2026-05-23T03:38:29	14.9	83.5
172242	2026-05-23T03:48:29	14.7	84
172243	2026-05-23T03:58:29	14.7	84
172244	2026-05-23T04:08:29	14.7	84
172245	2026-05-23T04:18:29	14.5	84.5
172246	2026-05-23T04:28:29	14.7	85
172247	2026-05-23T04:38:29	14.6	84
172248	2026-05-23T04:48:29	14.7	84.5
172249	2026-05-23T04:58:29	14.8	85
172250	2026-05-23T05:08:29	15.1	85
172251	2026-05-23T05:18:29	15.2	84.5
172252	2026-05-23T05:28:29	15.4	84.5
172253	2026-05-23T05:38:29	15.5	84
172254	2026-05-23T05:48:29	15.7	83.5
172255	2026-05-23T05:58:29	16	84.5
172256	2026-05-23T06:08:29	16	83.5
172257	2026-05-23T06:18:29	16.1	85
172258	2026-05-23T06:28:29	16.4	83.5
172259	2026-05-23T06:38:29	16.6	82.5
172260	2026-05-23T06:48:29	17	82
172261	2026-05-23T06:58:29	17.2	80.5
172262	2026-05-23T07:08:29	17.5	79.5
172263	2026-05-23T07:18:29	17.8	79
172264	2026-05-23T07:28:29	18.2	80
172265	2026-05-23T07:38:29	18.6	79
172266	2026-05-23T07:48:29	18.8	78.5
172267	2026-05-23T07:58:29	19.3	78
172268	2026-05-23T08:08:29	19.8	76
172269	2026-05-23T08:18:29	20	78.5
172270	2026-05-23T08:28:29	20.1	77.5
172271	2026-05-23T08:38:29	20.5	76
172272	2026-05-23T08:48:29	21.1	71.5
172273	2026-05-23T08:58:28	21.4	73
172274	2026-05-23T09:08:28	21.6	73.5
172275	2026-05-23T09:18:28	21.9	70.5
172276	2026-05-23T09:28:28	22.2	67.5
172277	2026-05-23T09:38:28	22.9	66.5
172278	2026-05-23T09:48:28	23.1	64
172279	2026-05-23T09:58:28	23.3	64
172280	2026-05-23T10:08:28	23.7	62.5
172281	2026-05-23T10:18:28	24	62.5
172282	2026-05-23T10:28:28	24.5	61
172283	2026-05-23T10:38:28	24.7	57.5
172284	2026-05-23T10:48:28	25.1	55.5
172285	2026-05-23T10:58:28	25.4	55.5
172286	2026-05-23T11:08:28	25.4	59.5
172287	2026-05-23T11:18:28	25.6	56.5
172288	2026-05-23T11:28:28	26	56.5
172289	2026-05-23T11:38:28	26.5	56.5
172290	2026-05-23T11:48:28	27.3	53
172291	2026-05-23T11:58:28	28.1	50
172292	2026-05-23T12:08:28	29.2	46
172293	2026-05-23T12:18:28	32	43.5
172294	2026-05-23T12:28:28	34.4	40
172295	2026-05-23T12:38:28	35.8	36.5
172296	2026-05-23T12:48:28	36.8	34
172297	2026-05-23T12:58:28	37.7	34.5
172298	2026-05-23T13:08:28	38.3	33.5
172299	2026-05-23T13:18:28	39.9	31
172300	2026-05-23T13:28:28	40.7	30.5
172301	2026-05-23T13:38:28	40.6	31
172302	2026-05-23T13:48:28	40.6	29.5
172303	2026-05-23T13:58:28	41.4	29
172304	2026-05-23T14:08:28	41.9	29.5
172305	2026-05-23T14:18:28	43.1	28
172306	2026-05-23T14:28:28	44	28
172307	2026-05-23T14:38:28	44.1	27.5
172308	2026-05-23T14:48:28	43.7	26
172309	2026-05-23T14:58:28	44.6	26.5
172310	2026-05-23T15:08:28	43.8	25.5
172311	2026-05-23T15:18:28	43.8	26.5
172312	2026-05-23T15:28:28	44	26
172313	2026-05-23T15:38:28	44.6	26
172314	2026-05-23T15:48:28	45.8	25.5
172315	2026-05-23T15:58:28	46.5	25
172316	2026-05-23T16:08:28	45.6	24.5
172317	2026-05-23T16:18:28	46.1	25.5
172318	2026-05-23T16:28:28	45.7	24
172319	2026-05-23T16:38:28	46.5	25
172320	2026-05-23T16:48:28	46.6	24
172321	2026-05-23T16:58:28	46.5	23
172322	2026-05-23T17:08:28	45.8	24.5
172323	2026-05-23T17:18:28	46.3	24
172324	2026-05-23T17:28:28	44.9	24.5
172325	2026-05-23T17:38:28	44.8	24.5
172326	2026-05-23T17:48:28	42.7	27
172327	2026-05-23T17:58:28	41.8	28.5
172328	2026-05-23T18:08:28	40.8	30
172329	2026-05-23T18:18:28	41.1	32
172330	2026-05-23T18:28:28	40.5	33
172331	2026-05-23T18:38:28	38.6	36.5
172332	2026-05-23T18:48:28	36.1	40.5
172333	2026-05-23T18:58:28	34.8	43.5
172334	2026-05-23T19:08:28	33.5	44
172335	2026-05-23T19:18:28	32.5	46
172336	2026-05-23T19:28:28	31.6	48
172337	2026-05-23T19:38:28	30.7	49.5
172338	2026-05-23T19:48:28	30.2	50
172339	2026-05-23T19:58:28	29.7	51.5
172340	2026-05-23T20:08:28	28.8	52.5
172341	2026-05-23T20:18:28	28	53.5
172342	2026-05-23T20:28:28	27.6	55
172343	2026-05-23T20:38:28	27.3	56
172344	2026-05-23T20:48:28	26.8	56
172345	2026-05-23T20:58:28	26.4	57
172346	2026-05-23T21:08:28	26.1	58
172347	2026-05-23T21:18:27	25.6	58.5
172348	2026-05-23T21:28:27	25.2	60
172349	2026-05-23T21:38:28	24.9	61.5
172350	2026-05-23T21:48:27	24.4	62
172351	2026-05-23T21:58:27	24.2	63.5
172352	2026-05-23T22:08:27	24	64
172353	2026-05-23T22:18:27	23.7	64.5
172354	2026-05-23T22:28:27	23.3	65.5
172355	2026-05-23T22:38:27	23.1	67
172356	2026-05-23T22:48:27	22.7	67.5
172357	2026-05-23T22:58:27	22.5	68.5
172358	2026-05-23T23:08:27	22.1	68
172359	2026-05-23T23:18:27	22	70.5
172360	2026-05-23T23:28:27	21.7	70
172361	2026-05-23T23:38:27	21.3	70.5
172362	2026-05-23T23:48:27	21	71.5
172363	2026-05-23T23:58:27	20.7	72
172364	2026-05-24T00:08:27	20.4	72
172365	2026-05-24T00:18:27	20.5	72.5
172366	2026-05-24T00:28:27	20.3	72
172367	2026-05-24T00:38:27	20	72.5
172368	2026-05-24T00:48:27	19.9	73
172369	2026-05-24T00:58:27	19.8	72.5
172370	2026-05-24T01:08:27	19.6	74
172371	2026-05-24T01:18:27	19.4	74.5
172372	2026-05-24T01:28:27	19.2	75
172373	2026-05-24T01:38:27	19	75.5
172374	2026-05-24T01:48:27	18.8	75.5
172375	2026-05-24T01:58:27	18.6	76
172376	2026-05-24T02:08:27	18.5	76.5
172377	2026-05-24T02:18:27	18.4	77
172378	2026-05-24T02:28:27	18.3	77.5
172379	2026-05-24T02:38:27	18.1	78
172380	2026-05-24T02:48:27	18	77.5
172381	2026-05-24T02:58:27	17.8	78.5
172382	2026-05-24T03:08:27	17.6	79
172383	2026-05-24T03:18:27	17.4	79.5
172384	2026-05-24T03:28:27	17.2	80.5
172385	2026-05-24T03:38:27	17.1	81
172386	2026-05-24T03:48:27	16.9	81.5
172387	2026-05-24T03:58:27	16.9	82.5
172388	2026-05-24T04:08:27	16.9	82.5
172389	2026-05-24T04:18:27	16.9	83
172390	2026-05-24T04:28:27	17.2	82.5
172391	2026-05-24T04:38:27	17.1	82.5
172392	2026-05-24T04:48:27	17.2	82.5
172393	2026-05-24T04:58:27	17.3	83
172394	2026-05-24T05:08:27	17.4	82.5
172395	2026-05-24T05:18:27	17.6	83
172396	2026-05-24T05:38:27	18	83.5
172397	2026-05-24T05:48:27	18.2	84
172398	2026-05-24T05:58:27	18.5	83.5
172399	2026-05-24T06:08:27	18.6	83.5
172400	2026-05-24T06:18:27	18.7	83.5
172401	2026-05-24T06:28:27	19	83.5
172402	2026-05-24T06:38:27	19.3	82
172403	2026-05-24T06:48:27	19.7	81
172404	2026-05-24T06:58:27	20.1	81
172405	2026-05-24T07:08:27	20.5	80
172406	2026-05-24T07:18:27	20.7	81.5
172407	2026-05-24T07:28:27	21	81
172408	2026-05-24T07:38:27	21.4	80
172409	2026-05-24T07:48:26	21.8	77
172410	2026-05-24T07:58:26	22	78
172411	2026-05-24T08:08:26	22.4	74.5
172412	2026-05-24T08:18:26	22.6	75
172413	2026-05-24T08:28:26	23	74.5
172414	2026-05-24T08:38:26	23.2	72.5
172415	2026-05-24T08:48:26	23.3	73
172416	2026-05-24T08:58:26	23.6	71
172417	2026-05-24T09:08:26	24.1	71
172418	2026-05-24T09:18:26	24.2	70.5
172419	2026-05-24T09:28:26	24.4	69.5
172420	2026-05-24T09:38:26	24.7	68.5
172421	2026-05-24T09:48:26	25.2	67
172422	2026-05-24T09:58:26	25.5	64.5
172423	2026-05-24T10:08:26	25.8	62
172424	2026-05-24T10:18:26	26.1	63
172425	2026-05-24T10:28:26	26.6	59.5
172426	2026-05-24T10:38:26	26.9	57.5
172427	2026-05-24T10:48:26	27.2	59
172428	2026-05-24T10:58:26	27.3	56.5
172429	2026-05-24T11:08:26	27.6	55.5
172430	2026-05-24T11:18:26	27.9	56
172431	2026-05-24T11:28:26	28.4	53.5
172432	2026-05-24T11:38:26	29	47.5
172433	2026-05-24T11:48:26	29.7	49.5
172434	2026-05-24T11:58:26	30.1	50
172435	2026-05-24T12:08:26	31.2	46.5
172436	2026-05-24T12:18:26	33.5	40.5
172437	2026-05-24T12:28:26	35	37.5
172438	2026-05-24T12:38:26	35.9	37
172439	2026-05-24T12:48:26	37	37.5
172440	2026-05-24T12:58:26	38.5	35.5
172441	2026-05-24T13:08:26	39.2	32.5
172442	2026-05-24T13:18:26	39.9	31.5
172443	2026-05-24T13:28:26	40.8	30
172444	2026-05-24T13:38:26	42	27.5
172445	2026-05-24T13:48:26	43.1	27
172446	2026-05-24T13:58:26	43.2	27.5
172447	2026-05-24T14:08:26	43.9	26.5
172448	2026-05-24T14:18:26	44.1	25.5
172449	2026-05-24T14:28:26	44.2	26
172450	2026-05-24T14:38:26	44	27.5
172451	2026-05-24T14:48:26	43.9	27.5
172452	2026-05-24T14:58:26	44.1	28
172453	2026-05-24T15:08:26	44.6	27.5
172454	2026-05-24T15:18:26	45.7	27.5
172455	2026-05-24T15:28:26	44.7	28
172456	2026-05-24T15:38:26	44.4	28
172457	2026-05-24T15:48:26	43.8	29.5
172458	2026-05-24T15:58:26	43.6	30.5
172459	2026-05-24T16:08:26	43.2	30
172460	2026-05-24T16:18:26	42.4	31
172461	2026-05-24T16:28:26	42.3	32.5
172462	2026-05-24T16:38:26	42.2	32.5
172463	2026-05-24T16:48:26	41.4	33.5
172464	2026-05-24T16:58:26	41.2	34.5
172465	2026-05-24T17:08:26	39.2	36.5
172466	2026-05-24T17:18:26	38.7	34.5
172467	2026-05-24T17:28:26	38	37
172468	2026-05-24T17:38:26	37.9	37.5
172469	2026-05-24T17:48:26	36.9	39.5
172470	2026-05-24T17:58:26	36.1	42.5
172471	2026-05-24T18:08:26	35.3	47.5
172472	2026-05-24T18:18:26	34.5	49
172473	2026-05-24T18:28:26	33.6	50
172474	2026-05-24T18:38:26	33	51.5
172475	2026-05-24T18:48:26	32.3	51
172476	2026-05-24T18:58:26	31.7	51
172477	2026-05-24T19:08:26	31	53
172478	2026-05-24T19:18:25	30.5	54.5
172479	2026-05-24T19:28:25	30	55.5
172480	2026-05-24T19:38:25	29.6	56.5
172481	2026-05-24T19:48:26	29.1	57
172482	2026-05-24T19:58:25	28.7	57.5
172483	2026-05-24T20:08:25	28.1	58
172484	2026-05-24T20:18:25	27.3	60
172485	2026-05-24T20:28:25	27.3	61
172486	2026-05-24T20:38:25	27.1	61.5
172487	2026-05-24T20:48:25	26.8	63
172488	2026-05-24T20:58:26	26.3	63.5
172489	2026-05-24T21:08:25	26.1	64.5
172490	2026-05-24T21:18:25	25.7	65
172491	2026-05-24T21:28:25	25.5	66
172492	2026-05-24T21:38:25	25.2	65
172493	2026-05-24T21:48:25	25	66
172494	2026-05-24T21:58:25	24.6	66.5
172495	2026-05-24T22:08:25	24.5	67
172496	2026-05-24T22:18:25	24.3	68
172497	2026-05-24T22:28:25	24.1	68
172498	2026-05-24T22:38:25	23.8	69
172499	2026-05-24T22:48:25	23.7	69.5
172500	2026-05-24T22:58:25	23.1	70.5
172501	2026-05-24T23:08:25	22.7	71
172502	2026-05-24T23:18:25	22.6	71.5
172503	2026-05-24T23:28:25	22.5	72
172504	2026-05-24T23:38:25	22.4	72.5
172505	2026-05-24T23:48:25	22.3	72.5
172506	2026-05-24T23:58:25	22.1	73
172507	2026-05-25T00:08:25	21.8	74
172508	2026-05-25T00:18:25	21.6	74.5
172509	2026-05-25T00:28:25	21.3	74.5
172510	2026-05-25T00:38:25	21.1	75.5
172511	2026-05-25T00:48:25	20.8	76
172512	2026-05-25T00:58:25	20.6	76.5
172513	2026-05-25T01:08:25	20.1	78
172514	2026-05-25T01:18:25	20	78.5
172515	2026-05-25T01:28:25	19.9	78.5
172516	2026-05-25T01:38:25	19.6	79
172517	2026-05-25T01:48:25	19.5	80
172518	2026-05-25T01:58:25	19.3	80.5
172519	2026-05-25T02:08:25	19.2	80.5
172520	2026-05-25T02:18:25	18.7	82
172521	2026-05-25T02:28:25	18.7	82.5
172522	2026-05-25T02:38:25	18.4	83
172523	2026-05-25T02:48:25	18.4	83
172524	2026-05-25T02:58:25	18.3	83
172525	2026-05-25T03:08:25	18.3	83
172526	2026-05-25T03:18:25	18.2	83.5
172527	2026-05-25T03:28:25	18.1	83.5
172528	2026-05-25T03:38:25	18.1	84
172529	2026-05-25T03:48:25	18	84
172530	2026-05-25T03:58:25	17.8	84.5
172531	2026-05-25T04:08:25	17.7	85
172532	2026-05-25T04:18:25	17.7	85.5
172533	2026-05-25T04:28:25	17.9	86
172534	2026-05-25T04:38:25	17.8	86.5
172535	2026-05-25T04:48:25	17.9	86
172536	2026-05-25T04:58:25	17.9	86.5
172537	2026-05-25T05:08:44	18.1	86
172538	2026-05-25T05:18:25	18.3	85.5
172539	2026-05-25T05:28:25	18.5	85.5
172540	2026-05-25T05:38:25	18.5	85
172541	2026-05-25T05:48:25	18.7	85
172542	2026-05-25T05:58:24	18.7	85
172543	2026-05-25T06:08:24	19.1	84.5
172544	2026-05-25T06:18:24	19.2	83.5
172545	2026-05-25T06:28:24	19.4	83
172546	2026-05-25T06:38:24	19.5	81.5
172547	2026-05-25T06:48:24	19.7	81.5
172548	2026-05-25T06:58:24	20	80.5
172549	2026-05-25T07:08:24	20.3	80
172550	2026-05-25T07:18:24	20.5	79.5
172551	2026-05-25T07:28:24	20.7	78.5
172552	2026-05-25T07:38:24	21	78
172553	2026-05-25T07:48:24	21.2	77
172554	2026-05-25T07:58:24	21.3	77.5
172555	2026-05-25T08:08:24	21.6	77
172556	2026-05-25T08:18:24	22	75.5
172557	2026-05-25T08:28:24	22	75.5
172558	2026-05-25T08:38:24	22.3	75
172559	2026-05-25T08:48:24	22.6	74.5
172560	2026-05-25T08:58:24	22.8	74.5
172561	2026-05-25T09:08:24	23	73.5
172562	2026-05-25T09:18:24	23.1	72
172563	2026-05-25T09:28:24	23.6	69.5
172564	2026-05-25T09:38:24	23.7	71.5
172565	2026-05-25T09:48:24	23.9	69.5
172566	2026-05-25T09:58:24	24.3	70
172567	2026-05-25T10:08:24	24.5	68.5
172568	2026-05-25T10:18:24	24.7	68
172569	2026-05-25T10:28:24	24.9	70.5
172570	2026-05-25T10:38:24	25.1	69.5
172571	2026-05-25T10:48:24	25.6	67.5
172572	2026-05-25T10:58:24	26	66.5
172573	2026-05-25T11:08:24	26.4	64.5
172574	2026-05-25T11:18:24	26.9	63.5
172575	2026-05-25T11:28:24	27.3	62.5
172576	2026-05-25T11:38:24	27.9	59
172577	2026-05-25T11:48:24	28.4	58
172578	2026-05-25T11:58:24	29	56
172579	2026-05-25T12:08:24	30.2	53.5
172580	2026-05-25T12:18:24	33	47.5
172581	2026-05-25T12:28:24	35	41.5
172582	2026-05-25T12:38:24	37	39
172583	2026-05-25T12:48:24	37.8	36.5
172584	2026-05-25T12:58:24	39.3	34
172585	2026-05-25T13:08:24	40.1	32.5
172586	2026-05-25T13:18:24	41.4	31
172587	2026-05-25T13:28:24	42.1	29.5
172588	2026-05-25T13:38:24	42.9	29
172589	2026-05-25T13:48:24	43.9	28.5
172590	2026-05-25T13:58:24	44.5	27
172591	2026-05-25T14:08:24	44.7	27.5
172592	2026-05-25T14:18:24	45.6	26
172593	2026-05-25T14:28:24	46	25.5
172594	2026-05-25T14:38:24	46.8	26
172595	2026-05-25T14:48:24	46.3	26
172596	2026-05-25T14:58:24	47.1	24.5
172597	2026-05-25T15:08:24	47.5	24.5
172598	2026-05-25T15:18:24	46.8	24
172599	2026-05-25T15:28:24	47.5	24
172600	2026-05-25T15:38:24	48.1	23.5
172601	2026-05-25T15:48:24	46.7	23.5
172602	2026-05-25T15:58:24	47.2	23.5
172603	2026-05-25T16:08:24	46.8	24.5
172604	2026-05-25T16:18:24	47.7	23.5
172605	2026-05-25T16:28:24	47.3	23.5
172606	2026-05-25T16:38:24	47.8	24.5
172607	2026-05-25T16:48:24	47.8	24.5
172608	2026-05-25T16:58:24	47.7	24.5
172609	2026-05-25T17:08:24	47.8	25
172610	2026-05-25T17:18:24	47.2	25
172611	2026-05-25T17:28:24	46.9	25
172612	2026-05-25T17:38:24	46.3	26
172613	2026-05-25T17:48:24	44.4	27
172614	2026-05-25T17:58:24	43.2	26
172615	2026-05-25T18:08:23	43	25
172616	2026-05-25T18:18:23	42.3	27.5
172617	2026-05-25T18:28:23	41.2	31
172618	2026-05-25T18:38:23	39.4	34
172619	2026-05-25T18:48:23	38.4	35
172620	2026-05-25T18:58:23	37.1	40.5
172621	2026-05-25T19:08:23	35.1	42
172622	2026-05-25T19:18:23	33.7	44.5
172623	2026-05-25T19:28:23	32.7	45.5
172624	2026-05-25T19:38:23	31.8	46.5
172625	2026-05-25T19:48:23	31.2	47.5
172626	2026-05-25T19:58:23	30.5	47.5
172627	2026-05-25T20:08:23	29.8	48
172628	2026-05-25T20:18:23	29.3	50
172629	2026-05-25T20:28:23	28.6	50
172630	2026-05-25T20:38:23	28.2	49.5
172631	2026-05-25T20:48:23	27.9	50
172632	2026-05-25T20:58:23	27.3	50
172633	2026-05-25T21:18:23	26.3	52
172634	2026-05-25T21:28:23	26.2	54
172635	2026-05-25T21:38:23	25.7	54.5
172636	2026-05-25T21:48:23	25.4	55.5
172637	2026-05-25T21:58:23	25	56
172638	2026-05-25T22:08:23	24.7	57
172639	2026-05-25T22:18:23	24.4	58.5
172640	2026-05-25T22:28:23	24.1	59
172641	2026-05-25T22:38:23	23.9	60
172642	2026-05-25T22:48:23	23.5	61
172643	2026-05-25T22:58:23	23.2	61
172644	2026-05-25T23:08:23	23	61
172645	2026-05-25T23:18:23	22.7	62
172646	2026-05-25T23:28:23	22.3	63.5
172647	2026-05-25T23:38:23	22.2	65
172648	2026-05-25T23:48:23	21.9	66
172649	2026-05-25T23:58:23	21.7	66.5
172650	2026-05-26T00:08:23	21.3	67.5
172651	2026-05-26T00:18:23	21.2	68
172652	2026-05-26T00:28:23	21	68
172653	2026-05-26T00:38:23	20.8	68
172654	2026-05-26T00:48:23	20.6	69
172655	2026-05-26T00:58:23	20.3	69.5
172656	2026-05-26T01:08:23	20.1	70.5
172657	2026-05-26T01:18:23	20.1	71
172658	2026-05-26T01:28:23	19.9	72
172659	2026-05-26T01:38:23	19.6	71.5
172660	2026-05-26T01:48:23	19.5	72
172661	2026-05-26T01:58:23	19.5	72
172662	2026-05-26T02:08:23	19.5	73
172663	2026-05-26T02:18:23	19.3	73
172664	2026-05-26T02:28:23	19.2	73.5
172665	2026-05-26T02:38:23	19.1	74
172666	2026-05-26T02:48:23	18.9	73.5
172667	2026-05-26T02:58:23	18.8	74
172668	2026-05-26T03:08:23	18.6	74.5
172669	2026-05-26T03:18:23	18.5	74.5
172670	2026-05-26T03:28:23	18.4	75.5
172671	2026-05-26T03:38:23	18.2	75.5
172672	2026-05-26T03:48:23	18.2	75.5
172673	2026-05-26T03:58:23	18.2	77.5
172674	2026-05-26T04:08:23	18.1	77.5
172675	2026-05-26T04:18:23	18.2	77.5
172676	2026-05-26T04:28:23	18.2	78
172677	2026-05-26T04:38:23	18.3	78.5
172678	2026-05-26T04:48:22	18.4	78.5
172679	2026-05-26T04:58:22	18.4	78.5
172680	2026-05-26T05:08:22	18.4	77.5
172681	2026-05-26T05:18:22	18.5	78.5
172682	2026-05-26T05:28:22	18.8	78.5
172683	2026-05-26T05:38:22	18.9	77.5
172684	2026-05-26T05:48:22	19	78
172685	2026-05-26T05:58:22	19.2	77
172686	2026-05-26T06:08:22	19.4	76.5
172687	2026-05-26T06:18:22	19.7	76.5
172688	2026-05-26T06:28:22	19.8	76
172689	2026-05-26T06:38:22	20	76.5
172690	2026-05-26T06:48:22	20.2	76
172691	2026-05-26T06:58:22	20.5	76
172692	2026-05-26T07:08:22	20.7	75.5
172693	2026-05-26T07:18:22	20.9	75.5
172694	2026-05-26T07:28:22	21.2	75.5
172695	2026-05-26T07:38:22	21.5	74.5
172696	2026-05-26T07:48:22	21.9	73
172697	2026-05-26T07:58:22	22	74
172698	2026-05-26T08:08:22	22.3	73
172699	2026-05-26T08:18:22	22.8	72
172700	2026-05-26T08:28:22	22.9	72.5
172701	2026-05-26T08:38:22	23.4	71
172702	2026-05-26T08:48:22	23.5	70.5
172703	2026-05-26T08:58:22	23.8	69
172704	2026-05-26T09:08:22	24.1	68.5
172705	2026-05-26T09:18:22	24.4	67.5
172706	2026-05-26T09:28:22	24.5	70.5
172707	2026-05-26T09:38:22	24.9	67.5
172708	2026-05-26T09:48:22	25.1	67.5
172709	2026-05-26T09:58:22	25.4	66.5
172710	2026-05-26T10:08:22	25.8	65.5
172711	2026-05-26T10:18:22	26.1	63.5
172712	2026-05-26T10:28:22	26.4	63
172713	2026-05-26T10:38:22	26.7	63.5
172714	2026-05-26T10:48:22	26.8	61
172715	2026-05-26T10:58:22	27.2	62
172716	2026-05-26T11:08:22	27.5	60.5
172717	2026-05-26T11:18:22	27.8	57
172718	2026-05-26T11:28:22	28.2	54
172719	2026-05-26T11:38:22	28.8	53
172720	2026-05-26T11:48:22	29.3	53
172721	2026-05-26T11:58:22	30.3	50
172722	2026-05-26T12:08:22	31.5	48.5
172723	2026-05-26T12:18:22	34.5	44
172724	2026-05-26T12:28:22	36.7	40.5
172725	2026-05-26T12:38:22	37.9	37.5
172726	2026-05-26T12:48:22	39.2	37
172727	2026-05-26T12:58:22	40.4	33.5
172728	2026-05-26T13:08:22	40.7	34
172729	2026-05-26T13:18:22	42.5	30.5
172730	2026-05-26T13:28:22	43.2	31
172731	2026-05-26T13:38:22	43.1	29
172732	2026-05-26T13:48:22	44	28.5
172733	2026-05-26T13:58:22	44.3	28
172734	2026-05-26T14:08:22	45.3	28.5
172735	2026-05-26T14:18:22	46.3	26.5
172736	2026-05-26T14:28:22	46.4	26.5
172737	2026-05-26T14:38:22	47.4	24.5
172738	2026-05-26T14:48:22	47.5	25
172739	2026-05-26T14:58:22	48.2	24.5
172740	2026-05-26T15:08:22	48.7	23.5
172741	2026-05-26T15:18:22	48.6	23.5
172742	2026-05-26T15:28:22	49.5	23
172743	2026-05-26T15:38:22	49.3	24
172744	2026-05-26T15:48:22	49.8	23
172745	2026-05-26T15:58:22	50.1	23.5
172746	2026-05-26T16:08:22	50.3	24
172747	2026-05-26T16:18:22	50.3	23
172748	2026-05-26T16:28:22	50	23
172749	2026-05-26T16:38:22	50	22.5
172750	2026-05-26T16:48:22	50	23
172751	2026-05-26T16:58:22	49.5	24
172752	2026-05-26T17:08:22	48.9	24.5
172753	2026-05-26T17:18:21	48.2	25.5
172754	2026-05-26T17:28:22	47.4	26.5
172755	2026-05-26T17:38:22	46.7	26.5
172756	2026-05-26T17:48:21	45.7	27.5
172757	2026-05-26T17:58:22	45.1	29
172758	2026-05-26T18:08:21	44.8	33.5
172759	2026-05-26T18:18:21	43.7	35.5
172760	2026-05-26T18:28:21	42.3	36.5
172761	2026-05-26T18:38:21	40.6	39
172762	2026-05-26T18:48:21	39.3	38
172763	2026-05-26T18:58:21	37.6	42
172764	2026-05-26T19:08:21	36	46.5
172765	2026-05-26T19:18:21	34.9	47
172766	2026-05-26T19:28:21	34	48
172767	2026-05-26T19:38:21	33.1	49.5
172768	2026-05-26T19:48:21	32.1	50
172769	2026-05-26T19:58:21	31.1	51
172770	2026-05-26T20:08:21	30	54
172771	2026-05-26T20:18:21	29.8	53
172772	2026-05-26T20:28:21	29.7	54
172773	2026-05-26T20:38:21	29.2	55.5
172774	2026-05-26T20:48:21	29.2	55
172775	2026-05-26T20:58:41	28.5	56.5
172776	2026-05-26T21:08:21	28.2	59
172777	2026-05-26T21:18:21	28.1	60
172778	2026-05-26T21:28:21	27.8	60
172779	2026-05-26T21:38:21	27.7	60
172780	2026-05-26T21:48:21	27.3	61.5
172781	2026-05-26T21:58:21	26.6	63.5
172782	2026-05-26T22:08:21	26.5	63.5
172783	2026-05-26T22:18:21	26.3	64
172784	2026-05-26T22:28:21	26	65
172785	2026-05-26T22:38:21	25.8	65.5
172786	2026-05-26T22:48:21	25.5	66
172787	2026-05-26T22:58:21	25.2	66.5
172788	2026-05-26T23:08:21	25	68
172789	2026-05-26T23:18:21	24.8	68
172790	2026-05-26T23:28:21	24.3	69
172791	2026-05-26T23:38:21	24.1	69.5
172792	2026-05-26T23:48:21	23.8	69.5
172793	2026-05-26T23:58:21	23.8	70
172794	2026-05-27T00:08:21	23.5	71
172795	2026-05-27T00:18:21	23.2	71.5
172796	2026-05-27T00:28:21	23	72
172797	2026-05-27T00:38:21	23	72.5
172798	2026-05-27T00:48:21	22.7	72
172799	2026-05-27T00:58:21	22.5	73
172800	2026-05-27T01:08:21	22.2	73.5
172801	2026-05-27T01:18:21	22.1	74
172802	2026-05-27T01:28:21	22	74
172803	2026-05-27T01:38:21	21.8	74.5
172804	2026-05-27T01:48:21	21.5	75
172805	2026-05-27T01:58:21	21.4	76
172806	2026-05-27T02:08:21	21.1	75.5
172807	2026-05-27T02:18:21	20.8	77
172808	2026-05-27T02:28:21	20.6	77.5
172809	2026-05-27T02:38:21	20.5	78
172810	2026-05-27T02:48:21	20.4	78.5
172811	2026-05-27T02:58:21	20.2	79
172812	2026-05-27T03:08:21	20	79.5
172813	2026-05-27T03:18:21	19.8	79.5
172814	2026-05-27T03:28:21	19.8	80
172815	2026-05-27T03:38:21	19.6	80
172816	2026-05-27T03:48:21	19.6	80
172817	2026-05-27T03:58:20	19.7	80
172818	2026-05-27T04:08:20	19.7	80
172819	2026-05-27T04:18:20	19.6	80.5
172820	2026-05-27T04:28:20	19.4	81
172821	2026-05-27T04:38:20	19.4	81
172822	2026-05-27T04:48:20	19.6	80.5
172823	2026-05-27T04:58:20	19.6	81
172824	2026-05-27T05:08:20	19.7	81
172825	2026-05-27T05:18:20	19.9	82
172826	2026-05-27T05:28:20	20	82.5
172827	2026-05-27T05:38:20	20.2	82.5
172828	2026-05-27T05:48:20	20.2	82
172829	2026-05-27T05:53:27	20.4	83.5
172830	2026-05-27T06:03:27	20.6	84
172831	2026-05-27T06:13:27	20.8	78
172832	2026-05-27T06:23:27	21.1	77.5
172833	2026-05-27T06:33:27	21.5	77.5
172834	2026-05-27T06:43:27	21.6	78
172835	2026-05-27T06:53:27	21.9	77.5
172836	2026-05-27T07:03:27	22.1	76.5
172837	2026-05-27T07:13:27	22.4	75.5
172838	2026-05-27T07:23:27	22.6	74.5
172839	2026-05-27T07:33:27	22.8	74.5
172840	2026-05-27T07:43:27	23	73.5
172841	2026-05-27T07:53:27	23.2	73
172842	2026-05-27T08:03:27	23.3	75
172843	2026-05-27T08:13:27	23.6	72
172844	2026-05-27T08:23:27	23.8	71
172845	2026-05-27T08:33:27	24	71
172846	2026-05-27T08:43:27	24.2	71
172847	2026-05-27T08:53:27	24.4	69
172848	2026-05-27T09:03:27	24.6	68
172849	2026-05-27T09:13:27	25	68.5
172850	2026-05-27T09:23:27	25.3	65.5
172851	2026-05-27T09:33:27	25.6	66
172852	2026-05-27T09:43:27	25.6	65
172853	2026-05-27T09:53:27	26.2	60
172854	2026-05-27T10:03:27	26.5	60.5
172855	2026-05-27T10:13:27	26.5	58
172856	2026-05-27T10:23:27	26.7	59.5
172857	2026-05-27T10:33:27	27.2	56.5
172858	2026-05-27T10:43:27	27.4	55
172859	2026-05-27T10:53:27	27.6	53.5
172860	2026-05-27T11:03:27	28.1	55.5
172861	2026-05-27T11:13:27	28.3	55
172862	2026-05-27T11:23:27	28.6	51.5
172863	2026-05-27T11:33:27	29.1	50.5
172864	2026-05-27T11:43:27	29.4	50.5
172865	2026-05-27T11:53:27	30.1	48.5
172866	2026-05-27T12:03:27	30.2	49.5
172867	2026-05-27T12:13:27	32.6	44.5
172868	2026-05-27T12:23:27	33.9	40.5
172869	2026-05-27T12:43:27	36.9	35.5
172870	2026-05-27T12:53:27	37.7	31.5
172871	2026-05-27T13:03:27	38.5	30.5
172872	2026-05-27T13:13:27	40.3	28
172873	2026-05-27T13:23:27	39.5	28
172874	2026-05-27T13:33:27	40.7	28
172875	2026-05-27T13:43:27	41.9	25.5
172876	2026-05-27T13:53:27	43	27.5
172877	2026-05-27T14:03:27	42.5	26.5
172878	2026-05-27T14:13:27	44.4	23.5
172879	2026-05-27T14:23:27	44.7	24
172880	2026-05-27T14:33:27	42.7	25.5
172881	2026-05-27T14:43:27	43.7	25
172882	2026-05-27T14:53:27	44.7	23
172883	2026-05-27T15:03:27	45.1	23.5
172884	2026-05-27T15:13:26	43.5	24
172885	2026-05-27T15:23:27	44.6	24
172886	2026-05-27T15:33:26	44.2	25
172887	2026-05-27T15:43:26	44.6	24
172888	2026-05-27T15:53:26	45.4	23
172889	2026-05-27T16:03:26	45.4	22
172890	2026-05-27T16:13:26	45.2	22.5
172891	2026-05-27T16:23:26	45	24.5
172892	2026-05-27T16:33:26	45	23.5
172893	2026-05-27T16:43:26	45	24
172894	2026-05-27T16:53:26	44.2	24
172895	2026-05-27T17:03:26	44.2	25.5
172896	2026-05-27T17:13:26	43.5	27
172897	2026-05-27T17:23:26	42.9	27.5
172898	2026-05-27T17:33:26	41.5	28.5
172899	2026-05-27T17:43:26	41.2	29.5
172900	2026-05-27T17:53:26	40.4	29.5
172901	2026-05-27T18:03:26	39.4	31
172902	2026-05-27T18:13:26	38.2	33
172903	2026-05-27T18:23:26	37.2	35
172904	2026-05-27T18:33:26	36.5	36
172905	2026-05-27T18:43:26	34.9	36.5
172906	2026-05-27T18:53:26	33.5	37.5
172907	2026-05-27T19:03:26	32.4	38.5
172908	2026-05-27T19:13:26	31.8	41
172909	2026-05-27T19:23:26	31.3	42.5
172910	2026-05-27T19:33:26	30.8	46
172911	2026-05-27T19:43:26	30.3	47
172912	2026-05-27T19:53:26	29.7	48.5
172913	2026-05-27T20:03:26	29.3	48
172914	2026-05-27T20:13:26	28.9	48.5
172915	2026-05-27T20:23:26	28.3	49.5
172916	2026-05-27T20:33:26	28.1	50.5
172917	2026-05-27T20:43:45	27.7	53
172918	2026-05-27T20:53:26	27.3	53.5
172919	2026-05-27T21:03:26	27	54.5
172920	2026-05-27T21:13:26	26.4	54.5
172921	2026-05-27T21:23:26	26.4	53.5
172922	2026-05-27T21:33:26	26.1	54
172923	2026-05-27T21:43:26	25.8	55
172924	2026-05-27T21:53:26	25.7	56.5
172925	2026-05-27T22:03:26	25.4	57.5
172926	2026-05-27T22:13:26	24.9	59
172927	2026-05-27T22:23:26	24.5	60.5
172928	2026-05-27T22:33:26	24.2	61
172929	2026-05-27T22:43:26	24	62
172930	2026-05-27T22:53:26	23.7	62.5
172931	2026-05-27T23:03:26	23.6	63
172932	2026-05-27T23:13:26	23.2	64.5
172933	2026-05-27T23:23:26	22.8	65.5
172934	2026-05-27T23:33:26	22.7	65.5
172935	2026-05-27T23:43:26	22.3	66.5
172936	2026-05-27T23:53:26	22.1	67
172937	2026-05-28T00:03:26	21.8	67.5
172938	2026-05-28T00:13:26	21.7	68
172939	2026-05-28T00:23:26	21.6	68.5
172940	2026-05-28T00:33:26	21	70
172941	2026-05-28T00:43:26	20.8	70
172942	2026-05-28T00:53:26	20.7	70.5
172943	2026-05-28T01:03:26	20.6	71
172944	2026-05-28T01:13:26	20.1	72
172945	2026-05-28T01:23:26	19.9	73
172946	2026-05-28T01:33:26	19.7	73.5
172947	2026-05-28T01:43:26	19.4	74
172948	2026-05-28T01:53:26	19.2	74
172949	2026-05-28T02:03:26	18.9	74
172950	2026-05-28T02:13:26	18.8	74.5
172951	2026-05-28T02:23:25	18.4	75.5
172952	2026-05-28T02:33:25	18.3	76
172953	2026-05-28T02:43:25	17.9	76.5
172954	2026-05-28T02:53:25	17.9	76.5
172955	2026-05-28T03:03:25	17.8	77
172956	2026-05-28T03:13:25	17.5	77
172957	2026-05-28T03:23:25	17.2	77.5
172958	2026-05-28T03:33:25	17.2	78
172959	2026-05-28T03:43:25	16.8	79
172960	2026-05-28T03:53:25	16.6	79.5
172961	2026-05-28T04:03:25	16.8	79.5
172962	2026-05-28T04:13:25	16.9	79
172963	2026-05-28T04:23:25	17.1	79
172964	2026-05-28T04:33:25	17	78.5
172965	2026-05-28T04:43:25	17.2	78
172966	2026-05-28T04:53:25	17.2	78
172967	2026-05-28T05:03:25	17.4	77.5
172968	2026-05-28T05:13:25	17.5	76.5
172969	2026-05-28T05:23:25	17.7	75.5
172970	2026-05-28T05:33:25	17.7	75
172971	2026-05-28T05:43:25	17.9	74
172972	2026-05-28T05:53:25	18.1	74
172973	2026-05-28T06:03:25	18.2	72.5
172974	2026-05-28T06:13:25	18.4	71.5
172975	2026-05-28T06:23:25	18.6	69
172976	2026-05-28T06:33:25	18.7	67
172977	2026-05-28T06:43:25	18.9	66
172978	2026-05-28T06:53:25	19.1	66.5
172979	2026-05-28T07:03:25	19.3	67
172980	2026-05-28T07:13:25	19.4	65
172981	2026-05-28T07:23:25	19.6	65
172982	2026-05-28T07:33:25	19.7	65
172983	2026-05-28T07:43:25	20	65.5
172984	2026-05-28T07:53:25	20.1	65
172985	2026-05-28T08:03:25	20.3	66
172986	2026-05-28T08:13:25	20.4	65.5
172987	2026-05-28T08:23:25	20.7	59.5
172988	2026-05-28T08:33:25	20.8	61.5
172989	2026-05-28T08:43:25	20.9	60
172990	2026-05-28T08:53:25	21.2	58.5
172991	2026-05-28T09:03:25	21.4	61
172992	2026-05-28T09:13:25	21.5	56.5
172993	2026-05-28T09:23:25	21.7	52.5
172994	2026-05-28T09:33:25	21.9	54.5
172995	2026-05-28T09:43:25	22.1	53
172996	2026-05-28T09:53:25	22.3	54
172997	2026-05-28T10:03:25	22.5	56.5
172998	2026-05-28T10:13:25	22.7	54
172999	2026-05-28T10:23:25	22.9	56
173000	2026-05-28T10:33:25	23.1	55
173001	2026-05-28T10:43:25	23.3	54
173002	2026-05-28T10:53:25	23.5	51
173003	2026-05-28T11:03:25	23.7	52
173004	2026-05-28T11:13:25	24.2	51
173005	2026-05-28T11:23:25	24.4	51
173006	2026-05-28T11:33:25	24.5	48.5
173007	2026-05-28T11:43:25	25.1	49.5
173008	2026-05-28T11:53:25	25.8	47.5
173009	2026-05-28T12:03:25	26.7	47.5
173010	2026-05-28T12:13:25	28.9	42.5
173011	2026-05-28T12:23:25	31.2	39
173012	2026-05-28T12:33:25	33.3	35
173013	2026-05-28T12:43:25	34.8	33.5
173014	2026-05-28T12:53:25	35.8	32.5
173015	2026-05-28T13:03:24	37.6	29.5
173016	2026-05-28T13:13:24	38.7	29
173017	2026-05-28T13:23:24	38.4	29
173018	2026-05-28T13:33:24	39.3	26.5
173019	2026-05-28T13:43:24	37.9	28
173020	2026-05-28T13:53:24	38.7	27.5
173021	2026-05-28T14:03:24	39.2	26.5
173022	2026-05-28T14:13:24	40.5	25.5
173023	2026-05-28T14:23:24	40.6	25
173024	2026-05-28T14:33:24	41.5	24.5
173025	2026-05-28T14:43:24	42.7	24
173026	2026-05-28T14:53:24	43	21.5
173027	2026-05-28T15:03:24	43.5	22.5
173028	2026-05-28T15:13:24	41.4	23
173029	2026-05-28T15:23:24	44.1	22
173030	2026-05-28T15:33:24	42.3	21.5
173031	2026-05-28T15:43:24	43.7	21
173032	2026-05-28T15:53:24	44.6	21
173033	2026-05-28T16:03:24	43.5	21.5
173034	2026-05-28T16:13:24	44.3	21
173035	2026-05-28T16:23:24	44.6	22
173036	2026-05-28T16:33:24	44.8	20.5
173037	2026-05-28T16:43:24	44.7	19.5
173038	2026-05-28T16:53:24	42.6	21
173039	2026-05-28T17:03:24	43.4	20
173040	2026-05-28T17:13:24	43.5	20
173041	2026-05-28T17:23:24	43	19.5
173042	2026-05-28T17:33:24	42.3	19.5
173043	2026-05-28T17:43:24	41.8	19.5
173044	2026-05-28T17:53:24	41.1	20
173045	2026-05-28T18:03:24	40.2	20.5
173046	2026-05-28T18:13:24	39.2	20.5
173047	2026-05-28T18:23:24	38.4	22
173048	2026-05-28T18:33:24	36.7	23.5
173049	2026-05-28T18:43:24	34.8	27
173050	2026-05-28T18:53:24	33.5	29
173051	2026-05-28T19:03:24	32.6	32
173052	2026-05-28T19:13:24	31.1	35.5
173053	2026-05-28T19:23:24	30.1	38
173054	2026-05-28T19:33:24	29.3	38
173055	2026-05-28T19:43:24	28.5	40
173056	2026-05-28T19:53:24	27.8	41
173057	2026-05-28T20:03:24	27.2	41
173058	2026-05-28T20:13:24	26.6	41.5
173059	2026-05-28T20:23:24	26	40.5
173060	2026-05-28T20:33:24	25.4	41.5
173061	2026-05-28T20:43:24	25	42
173062	2026-05-28T20:53:24	24.4	41.5
173063	2026-05-28T21:03:24	23.5	43.5
173064	2026-05-28T21:13:24	23.3	44.5
173065	2026-05-28T21:23:24	23.3	44
173066	2026-05-28T21:33:24	22.4	46
173067	2026-05-28T21:43:24	22.1	46.5
173068	2026-05-28T21:53:24	21.8	47
173069	2026-05-28T22:03:24	21.4	48
173070	2026-05-28T22:13:24	20.9	49
173071	2026-05-28T22:23:24	20.7	49
173072	2026-05-28T22:33:24	20.5	49.5
173073	2026-05-28T22:43:24	20	51
173074	2026-05-28T22:53:24	19.4	50.5
173075	2026-05-28T23:03:24	19.4	51.5
173076	2026-05-28T23:13:24	19.2	52.5
173077	2026-05-28T23:23:24	18.8	52.5
173078	2026-05-28T23:33:24	18.9	54
173079	2026-05-28T23:43:24	18.5	52.5
173080	2026-05-28T23:53:24	18.4	53
173081	2026-05-29T00:03:24	18.1	54
173082	2026-05-29T00:13:24	17.9	55.5
173083	2026-05-29T00:23:24	17.9	56
173084	2026-05-29T00:33:24	17.5	57
173085	2026-05-29T00:43:24	17	57.5
173086	2026-05-29T00:53:24	17.1	59
173087	2026-05-29T01:03:23	16.9	60
173088	2026-05-29T01:13:23	16.6	60
173089	2026-05-29T01:23:23	16.6	60.5
173090	2026-05-29T01:33:24	16.4	62
173091	2026-05-29T01:43:23	16.2	62.5
173092	2026-05-29T01:53:23	16	63.5
173093	2026-05-29T02:03:23	15.9	64
173094	2026-05-29T02:13:23	15.9	64.5
173095	2026-05-29T02:23:23	15.5	65
173096	2026-05-29T02:33:24	15.5	66.5
173097	2026-05-29T02:43:23	15.1	66
173098	2026-05-29T02:53:23	15.1	68
173099	2026-05-29T03:03:23	15	68.5
173100	2026-05-29T03:13:23	14.7	70
173101	2026-05-29T03:23:23	14.5	71
173102	2026-05-29T03:33:23	14.5	70.5
173103	2026-05-29T03:43:23	14.2	71.5
173104	2026-05-29T03:53:23	14.3	70.5
173105	2026-05-29T04:03:23	14.4	70.5
173106	2026-05-29T04:13:23	14.4	72.5
173107	2026-05-29T04:23:23	14.5	72.5
173108	2026-05-29T04:33:23	14.5	73.5
173109	2026-05-29T04:43:23	14.5	72.5
173110	2026-05-29T04:53:23	14.7	72.5
173111	2026-05-29T05:03:23	14.8	72
173112	2026-05-29T05:13:23	15	73
173113	2026-05-29T05:23:23	15	72.5
173114	2026-05-29T05:33:23	15.2	71.5
173115	2026-05-29T05:43:23	15.5	71.5
173116	2026-05-29T05:53:23	15.6	71.5
173117	2026-05-29T06:03:23	15.7	69.5
173118	2026-05-29T06:13:23	16	67
173119	2026-05-29T06:23:23	16.2	65.5
173120	2026-05-29T06:33:23	16.5	65.5
173121	2026-05-29T06:43:23	16.6	65
173122	2026-05-29T06:53:23	17	65
173123	2026-05-29T07:03:23	17.2	65.5
173124	2026-05-29T07:13:23	17.4	67
173125	2026-05-29T07:23:23	17.7	66.5
173126	2026-05-29T07:33:23	17.9	66
173127	2026-05-29T07:43:23	18.6	65.5
173128	2026-05-29T07:53:23	18.7	64
173129	2026-05-29T08:03:23	18.9	64
173130	2026-05-29T08:13:23	19.1	63
173131	2026-05-29T08:23:23	19.2	65
173132	2026-05-29T08:33:23	19.5	66
173133	2026-05-29T08:43:23	19.9	66.5
173134	2026-05-29T08:53:23	20.1	64
173135	2026-05-29T09:03:23	20.5	64.5
173136	2026-05-29T09:13:23	20.9	61
173137	2026-05-29T09:23:23	21.3	59
173138	2026-05-29T09:33:23	21.6	60
173139	2026-05-29T09:43:23	21.8	60.5
173140	2026-05-29T09:53:23	22.2	59
173141	2026-05-29T10:03:23	22.7	56.5
173142	2026-05-29T10:13:23	23	53.5
173143	2026-05-29T10:23:23	23.3	51.5
173144	2026-05-29T10:33:23	23.7	53.5
173145	2026-05-29T10:43:23	23.9	54
173146	2026-05-29T10:53:23	24.1	51.5
173147	2026-05-29T11:03:23	24.5	49.5
173148	2026-05-29T11:13:23	24.8	52.5
173149	2026-05-29T11:23:23	25.3	43.5
173150	2026-05-29T11:33:23	26.3	46
173151	2026-05-29T11:43:23	26.9	43.5
173152	2026-05-29T11:53:23	27.3	42.5
173153	2026-05-29T12:03:22	27.9	42.5
173154	2026-05-29T12:13:22	30.4	38.5
173155	2026-05-29T12:23:22	33	35
173156	2026-05-29T12:33:22	34.9	31.5
173157	2026-05-29T12:43:22	36.3	31
173158	2026-05-29T12:53:22	38	29.5
173159	2026-05-29T13:03:22	39.1	27.5
173160	2026-05-29T13:13:22	39.7	27.5
173161	2026-05-29T13:23:22	40.4	26.5
173162	2026-05-29T13:33:22	41.1	25
173163	2026-05-29T13:43:22	41.9	24.5
173164	2026-05-29T13:53:42	42.2	24.5
173165	2026-05-29T14:03:22	43.3	24
173166	2026-05-29T14:13:22	43.8	23.5
173167	2026-05-29T14:23:22	44.4	24
173168	2026-05-29T14:33:22	45.4	22.5
173169	2026-05-29T14:43:22	45.2	23
173170	2026-05-29T14:53:22	45.6	22.5
173171	2026-05-29T15:03:22	45.3	22.5
173172	2026-05-29T15:13:22	46.4	22
173173	2026-05-29T15:23:22	45.8	21
173174	2026-05-29T15:33:22	46.3	22
173175	2026-05-29T15:43:22	46.5	22
173176	2026-05-29T15:53:22	47.1	21.5
173177	2026-05-29T16:03:22	47.4	21.5
173178	2026-05-29T16:13:22	47.5	21.5
173179	2026-05-29T16:23:22	47.4	21
173180	2026-05-29T16:33:22	47.2	21.5
173181	2026-05-29T16:43:22	47.3	21
173182	2026-05-29T16:53:22	46.8	21.5
173183	2026-05-29T17:03:22	46.6	21.5
173184	2026-05-29T17:13:22	46.2	21.5
173185	2026-05-29T17:23:22	45.7	22
173186	2026-05-29T17:33:22	44.6	23
173187	2026-05-29T17:43:22	43.1	25
173188	2026-05-29T17:53:22	41.2	27
173189	2026-05-29T18:03:22	39.5	30.5
173190	2026-05-29T18:13:22	38.1	34.5
173191	2026-05-29T18:23:22	36.6	38.5
173192	2026-05-29T18:33:22	35.3	41.5
173193	2026-05-29T18:43:22	34.2	42
173194	2026-05-29T18:53:22	33.5	42.5
173195	2026-05-29T19:03:22	32.2	43
173196	2026-05-29T19:13:22	31.1	45
173197	2026-05-29T19:23:22	30.6	45.5
173198	2026-05-29T19:33:22	29.9	46.5
173199	2026-05-29T19:43:22	29.5	47.5
173200	2026-05-29T19:53:22	28.9	48
173201	2026-05-29T20:03:22	28.2	50
173202	2026-05-29T20:13:22	27.6	50
173203	2026-05-29T20:23:22	26.8	50.5
173204	2026-05-29T20:33:22	26.3	52.5
173205	2026-05-29T20:43:22	26.3	52.5
173206	2026-05-29T20:53:22	25.6	52.5
173207	2026-05-29T21:03:22	25.5	53
173208	2026-05-29T21:13:22	25.4	52.5
173209	2026-05-29T21:23:22	25.2	54
173210	2026-05-29T21:33:22	25.1	55
173211	2026-05-29T21:43:22	24.6	57
173212	2026-05-29T21:53:22	24.4	58
173213	2026-05-29T22:03:22	23.9	58.5
173214	2026-05-29T22:13:22	23.7	60
173215	2026-05-29T22:23:22	23.5	60.5
173216	2026-05-29T22:33:22	23.2	60.5
173217	2026-05-29T22:43:22	22.9	59.5
173218	2026-05-29T22:53:22	22.7	58.5
173219	2026-05-29T23:03:22	22.3	60.5
173220	2026-05-29T23:13:22	22.3	60.5
173221	2026-05-29T23:23:22	21.9	63
173222	2026-05-29T23:33:22	22	62
173223	2026-05-29T23:43:22	22	61.5
173224	2026-05-29T23:53:22	21.9	61.5
173225	2026-05-30T00:03:21	21.9	62.5
173226	2026-05-30T00:13:21	21.9	62.5
173227	2026-05-30T00:23:21	21.9	61.5
173228	2026-05-30T00:33:21	21.7	61
173229	2026-05-30T00:43:21	21.7	61.5
173230	2026-05-30T00:53:21	21.6	61
173231	2026-05-30T01:03:21	21.5	61
173232	2026-05-30T01:13:21	21.5	61.5
173233	2026-05-30T01:23:21	21.4	62.5
173234	2026-05-30T01:33:21	21.4	63
173235	2026-05-30T01:43:21	21.3	63
173236	2026-05-30T01:53:21	21.3	63
173237	2026-05-30T02:03:21	21.3	63
173238	2026-05-30T02:13:21	21.2	62.5
173239	2026-05-30T02:23:21	21.2	62.5
173240	2026-05-30T02:33:21	21.3	62.5
173241	2026-05-30T02:43:21	21.2	62.5
173242	2026-05-30T02:53:21	21.2	62.5
173243	2026-05-30T03:03:21	21.3	61.5
173244	2026-05-30T03:13:21	21.4	61.5
173245	2026-05-30T03:23:21	21	63.5
173246	2026-05-30T03:33:21	21.1	62.5
173247	2026-05-30T03:43:21	20.7	65.5
173248	2026-05-30T03:53:21	20.7	65
173249	2026-05-30T04:03:21	20.6	66
173250	2026-05-30T04:13:21	20.7	67
173251	2026-05-30T04:23:21	20.4	68.5
173252	2026-05-30T04:33:21	20.5	68.5
173253	2026-05-30T04:43:21	20.5	69
173254	2026-05-30T04:53:21	20.7	69
173255	2026-05-30T05:03:21	20.6	70
173256	2026-05-30T05:13:21	20.7	72.5
173257	2026-05-30T05:23:21	20.7	71.5
173258	2026-05-30T05:33:21	20.8	72
173259	2026-05-30T05:43:21	21.3	70
173260	2026-05-30T05:53:21	21.4	69
173261	2026-05-30T06:03:21	21.6	68.5
173262	2026-05-30T06:13:21	21.7	71
173263	2026-05-30T06:23:21	21.5	71.5
173264	2026-05-30T06:33:21	21.5	71
173265	2026-05-30T06:43:21	21.3	71
173266	2026-05-30T06:53:21	21.6	69
173267	2026-05-30T07:03:21	21.9	69.5
173268	2026-05-30T07:13:21	22.1	68
173269	2026-05-30T07:23:21	22.5	68
173270	2026-05-30T07:33:21	22.8	67.5
173271	2026-05-30T07:43:21	23	66
173272	2026-05-30T07:53:21	23.1	64
173273	2026-05-30T08:03:21	23.8	62
173274	2026-05-30T08:13:21	23.6	63
173275	2026-05-30T08:23:21	23.8	62
173276	2026-05-30T08:33:21	23.9	62.5
173277	2026-05-30T08:43:21	24.2	60
173278	2026-05-30T08:53:21	24.5	60.5
173279	2026-05-30T09:03:21	25	59
173280	2026-05-30T09:13:21	25.7	58.5
173281	2026-05-30T09:23:21	25.9	55.5
173282	2026-05-30T09:33:21	26.7	57.5
173283	2026-05-30T09:43:21	27	57
173284	2026-05-30T09:53:21	26.8	56.5
173285	2026-05-30T10:03:21	26.7	57.5
173286	2026-05-30T10:13:20	26.9	55
173287	2026-05-30T10:23:20	27.1	53.5
173288	2026-05-30T10:33:20	27.5	53.5
173289	2026-05-30T10:43:20	27.7	54
173290	2026-05-30T10:53:20	28	52.5
173291	2026-05-30T11:03:20	28.2	52
173292	2026-05-30T11:13:20	28.3	51
173293	2026-05-30T11:23:20	28.3	49
173294	2026-05-30T11:33:20	28.8	50
173295	2026-05-30T11:43:20	29	48
173296	2026-05-30T11:53:20	29.9	48.5
173297	2026-05-30T12:03:20	30.1	47.5
173298	2026-05-30T12:13:20	32.2	45
173299	2026-05-30T12:23:20	34.9	39.5
173300	2026-05-30T12:33:20	35.9	37.5
173301	2026-05-30T12:43:20	35.5	38
173302	2026-05-30T12:53:20	36.8	36.5
173303	2026-05-30T13:03:20	39.2	33
173304	2026-05-30T13:13:20	39.3	32.5
173305	2026-05-30T13:23:20	40.9	32
173306	2026-05-30T13:33:20	39.7	30.5
173307	2026-05-30T13:43:20	40.5	31
173308	2026-05-30T13:53:20	42.5	29.5
173309	2026-05-30T14:03:20	43.7	28
173310	2026-05-30T14:13:20	45	27.5
173311	2026-05-30T14:23:20	43.4	28
173312	2026-05-30T14:33:20	44	28.5
173313	2026-05-30T14:43:20	42.2	30
173314	2026-05-30T14:53:20	42.4	31
173315	2026-05-30T15:03:20	44.9	28
173316	2026-05-30T15:13:20	46	26.5
173317	2026-05-30T15:23:20	47.1	26.5
173318	2026-05-30T15:33:20	46.6	25.5
173319	2026-05-30T15:43:20	46.1	27
173320	2026-05-30T15:53:20	46	26.5
173321	2026-05-30T16:03:20	46.2	26.5
173322	2026-05-30T16:13:20	45.5	27
173323	2026-05-30T16:23:20	46.1	26
173324	2026-05-30T16:33:20	47	25.5
173325	2026-05-30T16:43:20	47.4	25.5
173326	2026-05-30T16:53:20	47	27
173327	2026-05-30T17:03:20	47.1	27
173328	2026-05-30T17:13:20	47.5	26.5
173329	2026-05-30T17:23:20	45.5	28
173330	2026-05-30T17:33:20	46.4	27
173331	2026-05-30T17:43:20	46.4	28
173332	2026-05-30T17:53:20	45.8	28.5
173333	2026-05-30T18:03:20	44.9	28.5
173334	2026-05-30T18:13:20	43.5	31.5
173335	2026-05-30T18:23:20	40.4	35
173336	2026-05-30T18:33:20	38.3	40
173337	2026-05-30T18:43:20	36.6	43
173338	2026-05-30T18:53:20	35.3	45.5
173339	2026-05-30T19:03:20	34.2	45.5
173340	2026-05-30T19:13:20	33.2	48
173341	2026-05-30T19:23:20	32.4	48
173342	2026-05-30T19:33:20	31.6	50
173343	2026-05-30T19:43:20	31.1	51
173344	2026-05-30T19:53:20	30.6	50
173345	2026-05-30T20:03:20	30.2	51.5
173346	2026-05-30T20:13:20	29.3	53.5
173347	2026-05-30T20:23:20	29	54
173348	2026-05-30T20:33:20	28.2	56
173349	2026-05-30T20:43:20	27.8	57.5
173350	2026-05-30T20:53:20	27.7	58
173351	2026-05-30T21:03:20	27.3	59
173352	2026-05-30T21:13:20	26.7	60
173353	2026-05-30T21:23:20	26.7	60.5
173354	2026-05-30T21:33:20	26.2	61
173355	2026-05-30T21:43:20	26.2	62
173356	2026-05-30T21:53:20	25.9	62
173357	2026-05-30T22:03:20	25.7	62.5
173358	2026-05-30T22:13:20	25.3	62.5
173359	2026-05-30T22:23:20	25.1	63.5
173360	2026-05-30T22:33:19	24.9	63.5
173361	2026-05-30T22:43:20	24.6	65
173362	2026-05-30T22:53:19	24.4	65.5
173363	2026-05-30T23:03:19	24.2	66
173364	2026-05-30T23:13:19	23.9	66
173365	2026-05-30T23:23:20	23.7	68
173366	2026-05-30T23:33:19	23.6	67.5
173367	2026-05-30T23:43:19	23.5	68.5
173368	2026-05-30T23:53:19	23.5	68.5
173369	2026-05-31T00:03:19	23.5	69
173370	2026-05-31T00:13:19	23.2	70
173371	2026-05-31T00:23:19	23.1	69.5
173372	2026-05-31T00:43:19	22.7	70
173373	2026-05-31T00:53:19	22.5	71.5
173374	2026-05-31T01:03:19	22.1	71.5
173375	2026-05-31T01:13:19	22	72
173376	2026-05-31T01:23:19	21.2	74.5
173377	2026-05-31T01:33:19	21.3	73.5
173378	2026-05-31T01:43:19	20.9	73
173379	2026-05-31T01:53:19	20.8	72.5
173380	2026-05-31T02:03:19	20.8	73
173381	2026-05-31T02:13:19	20.5	74
173382	2026-05-31T02:23:19	20.3	74
173383	2026-05-31T02:33:19	20.1	74
173384	2026-05-31T02:43:19	20.1	75
173385	2026-05-31T02:53:19	20	75
173386	2026-05-31T03:03:19	19.8	75.5
173387	2026-05-31T03:13:19	19.6	76.5
173388	2026-05-31T03:23:19	19.5	77.5
173389	2026-05-31T03:33:19	19.3	79.5
173390	2026-05-31T03:43:19	19.2	79
173391	2026-05-31T03:53:19	19.2	78.5
173392	2026-05-31T04:03:19	18.8	80
173393	2026-05-31T04:13:19	18.9	79.5
173394	2026-05-31T04:23:19	18.9	80
173395	2026-05-31T04:33:19	19	80
173396	2026-05-31T04:43:19	19.1	79.5
173397	2026-05-31T04:53:19	19.3	79
173398	2026-05-31T05:03:19	19.3	79
173399	2026-05-31T05:13:19	19.4	79.5
173400	2026-05-31T05:23:19	19.6	79.5
173401	2026-05-31T05:33:19	19.8	79
173402	2026-05-31T05:43:19	20	79.5
173403	2026-05-31T05:53:19	20.3	78.5
173404	2026-05-31T06:03:19	20.5	76
173405	2026-05-31T06:13:19	20.6	76.5
173406	2026-05-31T06:23:19	21.1	74
173407	2026-05-31T06:33:19	21.3	75
173408	2026-05-31T06:43:19	21.5	73.5
173409	2026-05-31T06:53:19	22	73
173410	2026-05-31T07:03:19	22.5	74
173411	2026-05-31T07:13:19	22.8	71
173412	2026-05-31T07:23:19	23.2	68
173413	2026-05-31T07:33:19	23.5	66.5
173414	2026-05-31T07:43:19	24.1	65.5
173415	2026-05-31T07:53:19	24.6	64
173416	2026-05-31T08:03:19	25.2	63
173417	2026-05-31T08:13:19	25.8	62
173418	2026-05-31T08:23:18	26	58.5
173419	2026-05-31T08:33:18	26.4	59
173420	2026-05-31T08:43:18	26.2	59
173421	2026-05-31T08:53:18	26.3	57.5
173422	2026-05-31T09:03:18	27.1	57
173423	2026-05-31T09:13:18	27.4	54.5
173424	2026-05-31T09:23:18	28	54
173425	2026-05-31T09:33:18	28.1	54
173426	2026-05-31T09:43:18	28.3	51
173427	2026-05-31T09:53:18	28.2	50.5
173428	2026-05-31T10:03:18	27.9	68
173429	2026-05-31T10:13:18	27.3	56.5
173430	2026-05-31T10:23:18	28.2	52.5
173431	2026-05-31T10:33:18	28.2	52.5
173432	2026-05-31T10:43:18	28.8	52
173433	2026-05-31T10:53:18	29	49
173434	2026-05-31T11:03:18	28.8	50
173435	2026-05-31T11:13:18	27.8	53
173436	2026-05-31T11:33:18	23.5	79.5
173437	2026-05-31T11:43:18	23.6	73.5
173438	2026-05-31T11:53:18	24.4	72.5
173439	2026-05-31T12:03:18	25.7	72
173440	2026-05-31T12:13:18	26.2	68.5
173441	2026-05-31T12:23:18	27.5	66
173442	2026-05-31T12:33:18	28.6	60.5
173443	2026-05-31T12:43:18	29.5	54.5
173444	2026-05-31T12:53:18	30.7	54.5
173445	2026-05-31T13:03:18	31.4	53
173446	2026-05-31T13:13:18	29.6	56.5
173447	2026-05-31T13:23:18	26.4	71
173448	2026-05-31T13:33:18	26.1	68
173449	2026-05-31T13:43:18	26.4	67.5
173450	2026-05-31T13:53:18	26.1	67.5
173451	2026-05-31T14:03:18	25.1	67.5
173452	2026-05-31T14:13:18	24.9	68.5
173453	2026-05-31T14:23:18	24.6	72
173454	2026-05-31T14:33:18	24.9	71.5
173455	2026-05-31T14:43:18	25.2	69.5
173456	2026-05-31T14:53:18	24.8	68.5
173457	2026-05-31T15:03:18	24.4	70.5
173458	2026-05-31T15:13:18	24.3	70.5
173459	2026-05-31T15:23:18	23.9	71
173460	2026-05-31T15:33:18	24.3	70.5
173461	2026-05-31T15:43:18	25.5	67.5
173462	2026-05-31T15:53:18	27	62.5
173463	2026-05-31T16:03:18	26.1	64
173464	2026-05-31T16:13:18	26.5	62.5
173465	2026-05-31T16:23:18	26.4	63.5
173466	2026-05-31T16:33:18	25.5	66
173467	2026-05-31T16:43:18	25.3	67.5
173468	2026-05-31T16:53:18	24.6	69
173469	2026-05-31T17:03:18	24.4	69
173470	2026-05-31T17:13:18	24	67.5
173471	2026-05-31T17:23:18	23.9	68
173472	2026-05-31T17:33:18	23.7	68
173473	2026-05-31T17:43:18	23.5	68.5
173474	2026-05-31T17:53:18	23.2	70.5
173475	2026-05-31T18:03:18	22.8	72
173476	2026-05-31T18:13:17	22.7	72.5
173477	2026-05-31T18:23:17	22.5	73
173478	2026-05-31T18:33:17	22.4	73.5
173479	2026-05-31T18:43:17	22.2	72.5
173480	2026-05-31T18:53:17	22.1	72
173481	2026-05-31T19:03:17	21.6	79
173482	2026-05-31T19:13:17	21.5	76.5
173483	2026-05-31T19:23:17	20.8	79
173484	2026-05-31T19:33:17	20.6	81.5
173485	2026-05-31T19:43:17	20.4	83
173486	2026-05-31T19:53:18	20.6	81.5
173487	2026-05-31T20:03:17	20.4	78.5
173488	2026-05-31T20:13:17	20.1	83
173489	2026-05-31T20:23:17	19.9	82
173490	2026-05-31T20:33:17	19.7	79.5
173491	2026-05-31T20:43:17	19.8	82
173492	2026-05-31T20:53:17	19.8	81
173493	2026-05-31T21:03:17	19.8	82.5
173494	2026-05-31T21:13:17	19.7	83
173495	2026-05-31T21:23:17	19.5	79.5
173496	2026-05-31T21:33:17	19.4	81
173497	2026-05-31T21:43:17	19.4	80.5
173498	2026-05-31T21:53:17	19.1	80
173499	2026-05-31T22:03:17	18.9	81
173500	2026-05-31T22:13:17	18.9	79.5
173501	2026-05-31T22:23:17	19	78
173502	2026-05-31T22:33:17	18.8	77.5
173503	2026-05-31T22:43:17	18.7	76.5
173504	2026-05-31T22:53:17	18.8	75.5
173505	2026-05-31T23:03:17	18.6	76
173506	2026-05-31T23:13:17	18.5	76
173507	2026-05-31T23:23:17	18.7	74.5
173508	2026-05-31T23:33:17	18.7	74
173509	2026-05-31T23:43:17	18.7	73
173510	2026-05-31T23:53:17	18.6	71
173511	2026-06-01T00:03:17	18.8	73
173512	2026-06-01T00:13:17	17.2	96.5
173513	2026-06-01T00:23:17	16.7	96.5
173514	2026-06-01T00:33:17	16.9	95
173515	2026-06-01T00:43:17	16.9	93.5
173516	2026-06-01T00:53:17	16.8	100
173517	2026-06-01T01:03:17	16.6	99.5
173518	2026-06-01T01:13:17	16.4	99.5
173519	2026-06-01T01:23:17	16.5	99.5
173520	2026-06-01T01:33:17	16.4	99.5
173521	2026-06-01T01:43:17	16.7	100
173522	2026-06-01T01:53:17	16.5	100
173523	2026-06-01T02:03:17	16.3	99.5
173524	2026-06-01T02:13:17	16	98
173525	2026-06-01T02:23:17	15.7	96.5
173526	2026-06-01T02:33:17	15.7	97
173527	2026-06-01T02:43:17	15.3	96
173528	2026-06-01T02:53:17	15.4	96.5
173529	2026-06-01T03:03:17	15.5	95.5
173530	2026-06-01T03:13:17	15.5	95.5
173531	2026-06-01T03:23:17	15.2	95.5
173532	2026-06-01T03:33:17	15.1	95.5
173533	2026-06-01T03:43:17	15.1	95.5
173534	2026-06-01T03:53:17	15	96.5
173535	2026-06-01T04:03:17	15.1	96
173536	2026-06-01T04:13:17	14.9	95.5
173537	2026-06-01T04:23:17	15	95
173538	2026-06-01T04:33:17	15.5	94
173539	2026-06-01T04:43:17	15.8	93
173540	2026-06-01T04:53:17	16	92.5
173541	2026-06-01T05:03:17	15.9	92
173542	2026-06-01T05:13:17	16	91.5
173543	2026-06-01T05:23:16	16.2	91
173544	2026-06-01T05:33:16	16.2	91
173545	2026-06-01T05:43:16	16.5	90
173546	2026-06-01T05:53:16	16.7	89.5
173547	2026-06-01T06:03:16	17	88.5
173548	2026-06-01T06:13:16	17	86.5
173549	2026-06-01T06:23:16	17.7	84.5
173550	2026-06-01T06:33:16	18.3	81.5
173551	2026-06-01T06:43:16	18.7	81
173552	2026-06-01T06:53:16	18.9	81
173553	2026-06-01T07:03:16	18.8	82
173554	2026-06-01T07:13:16	19	81
173555	2026-06-01T07:23:16	18.9	80
173556	2026-06-01T07:33:16	19	79.5
173557	2026-06-01T07:43:16	19	80
173558	2026-06-01T07:53:16	19	80.5
173559	2026-06-01T08:03:16	19.2	79
173560	2026-06-01T08:13:16	19.7	77
173561	2026-06-01T08:23:16	20	75
173562	2026-06-01T08:33:16	20.5	72.5
173563	2026-06-01T08:43:16	20.1	71
173564	2026-06-01T08:53:16	20.3	66.5
173565	2026-06-01T09:03:16	20.3	61.5
173566	2026-06-01T09:13:16	20.4	62.5
173567	2026-06-01T09:23:16	20.7	62.5
173568	2026-06-01T09:33:16	20.8	59
173569	2026-06-01T09:43:16	20.9	62.5
173570	2026-06-01T09:53:16	21.3	62
173571	2026-06-01T10:03:16	21.5	59.5
173572	2026-06-01T10:13:16	22.1	57.5
173573	2026-06-01T10:23:16	22.6	57.5
173574	2026-06-01T10:33:16	22.7	54.5
173575	2026-06-01T10:43:16	22.8	56.5
173576	2026-06-01T10:53:16	23.1	55
173577	2026-06-01T11:03:16	23.2	54.5
173578	2026-06-01T11:13:16	23.4	52.5
173579	2026-06-01T11:23:16	23.5	53
173580	2026-06-01T11:33:16	23.8	52.5
173581	2026-06-01T11:43:16	24.2	52.5
173582	2026-06-01T11:53:16	24.4	50.5
173583	2026-06-01T12:03:16	24.3	50.5
173584	2026-06-01T12:13:16	25.8	48.5
173585	2026-06-01T12:23:16	27.6	45
173586	2026-06-01T12:33:16	26.6	46
173587	2026-06-01T12:43:16	27.4	44.5
173588	2026-06-01T12:53:16	29.2	41.5
173589	2026-06-01T13:03:16	29.3	41.5
173590	2026-06-01T13:13:16	29.6	40.5
173591	2026-06-01T13:23:16	30.7	39.5
173592	2026-06-01T13:33:16	30.6	38.5
173593	2026-06-01T13:43:16	30.5	38.5
173594	2026-06-01T13:53:16	31.2	37
173595	2026-06-01T14:03:16	32.4	35.5
173596	2026-06-01T14:13:16	33.1	34.5
173597	2026-06-01T14:23:16	34.2	33
173598	2026-06-01T14:33:16	34.9	32
173599	2026-06-01T14:43:16	34.9	32.5
173600	2026-06-01T14:53:16	35.4	31.5
173601	2026-06-01T15:03:16	35.6	31
173602	2026-06-01T15:13:16	37	29.5
173603	2026-06-01T15:23:16	35.2	31
173604	2026-06-01T15:33:16	35.3	31.5
173605	2026-06-01T15:43:16	36.5	30.5
173606	2026-06-01T15:53:15	38	29
173607	2026-06-01T16:03:15	38.9	28
173608	2026-06-01T16:13:15	37.8	28
173609	2026-06-01T16:23:15	39.1	28
173610	2026-06-01T16:33:15	39.1	27
173611	2026-06-01T16:43:15	38.6	27.5
173612	2026-06-01T16:53:15	38.3	27.5
173613	2026-06-01T17:03:15	37.8	29
173614	2026-06-01T17:13:15	38.5	28.5
173615	2026-06-01T17:23:15	38.3	28.5
173616	2026-06-01T17:33:15	38.5	27.5
173617	2026-06-01T17:43:15	36.5	29
173618	2026-06-01T17:53:15	36.6	29
173619	2026-06-01T18:03:15	37.7	30
173620	2026-06-01T18:13:15	36.6	30.5
173621	2026-06-01T18:23:15	34.6	32.5
173622	2026-06-01T18:33:15	33.4	38.5
173623	2026-06-01T18:43:15	32.6	42
173624	2026-06-01T18:53:15	31.1	44.5
173625	2026-06-01T19:03:15	29.6	47.5
173626	2026-06-01T19:13:15	28.5	48
173627	2026-06-01T19:23:15	27.6	49.5
173628	2026-06-01T19:33:15	26.9	50
173629	2026-06-01T19:43:15	26.2	52
173630	2026-06-01T19:53:15	25.5	55.5
173631	2026-06-01T20:13:15	24.7	55.5
173632	2026-06-01T20:23:15	24.1	56
173633	2026-06-01T20:33:15	23.7	57.5
173634	2026-06-01T20:43:15	23	58
173635	2026-06-01T20:53:15	22.7	58.5
173636	2026-06-01T21:03:15	22.3	60
173637	2026-06-01T21:13:15	22.1	60.5
173638	2026-06-01T21:23:15	21.8	61.5
173639	2026-06-01T21:33:15	21.4	63.5
173640	2026-06-01T21:43:15	21.5	63.5
173641	2026-06-01T21:53:15	21	64.5
173642	2026-06-01T22:03:15	20.9	65
173643	2026-06-01T22:13:15	20.5	66
173644	2026-06-01T22:23:15	20.4	66.5
173645	2026-06-01T22:33:15	20.3	67
173646	2026-06-01T22:43:15	20	67.5
173647	2026-06-01T22:53:15	19.8	68.5
173648	2026-06-01T23:03:15	19.6	69
173649	2026-06-01T23:13:15	19.3	70
173650	2026-06-01T23:23:15	19.1	70.5
173651	2026-06-01T23:33:15	18.9	71.5
173652	2026-06-01T23:43:15	18.6	72.5
173653	2026-06-01T23:53:15	18.7	73.5
173654	2026-06-02T00:03:15	18.5	74.5
173655	2026-06-02T00:13:15	18.5	75.5
173656	2026-06-02T00:23:15	18.2	76
173657	2026-06-02T00:33:15	18.3	75.5
173658	2026-06-02T00:43:15	18	76
173659	2026-06-02T00:53:15	18	76
173660	2026-06-02T01:03:15	18	75
173661	2026-06-02T01:13:15	17.9	75.5
173662	2026-06-02T01:23:15	17.9	75
173663	2026-06-02T01:33:15	17.8	74.5
173664	2026-06-02T01:43:15	17.7	74
173665	2026-06-02T01:53:15	17	77
173666	2026-06-02T02:03:15	17	77
173667	2026-06-02T02:13:15	16.9	76
173668	2026-06-02T02:23:14	16.8	77.5
173669	2026-06-02T02:33:14	16.8	79.5
173670	2026-06-02T02:43:14	16.5	82
173671	2026-06-02T02:53:14	16.5	81.5
173672	2026-06-02T03:03:14	16.2	82
173673	2026-06-02T03:13:14	16.1	82.5
173674	2026-06-02T03:23:14	16.2	83
173675	2026-06-02T03:33:14	16.2	82.5
173676	2026-06-02T03:43:14	16.1	82.5
173677	2026-06-02T03:53:14	16.1	83
173678	2026-06-02T04:03:14	16.1	83.5
173679	2026-06-02T04:13:14	16	84
173680	2026-06-02T04:23:14	16.1	83.5
173681	2026-06-02T04:33:14	16.3	83.5
173682	2026-06-02T04:43:14	16.3	82.5
173683	2026-06-02T04:53:14	16.5	82.5
173684	2026-06-02T05:03:14	16.8	83
173685	2026-06-02T05:13:14	17	83
173686	2026-06-02T05:23:14	17	84
173687	2026-06-02T05:33:14	17.1	83
173688	2026-06-02T05:43:14	17.2	82
173689	2026-06-02T05:53:14	17.3	80.5
173690	2026-06-02T06:03:14	17.5	80
173691	2026-06-02T06:13:14	17.4	81.5
173692	2026-06-02T06:23:14	17.8	79.5
173693	2026-06-02T06:33:14	18.3	77.5
173694	2026-06-02T06:43:14	18.8	77
173695	2026-06-02T06:53:14	19.3	76.5
173696	2026-06-02T07:03:14	19.9	76
173697	2026-06-02T07:13:14	20.5	74
173698	2026-06-02T07:23:14	20.8	70
173699	2026-06-02T07:33:14	21	69
173700	2026-06-02T07:43:14	21.2	68.5
173701	2026-06-02T07:53:14	21.4	66.5
173702	2026-06-02T08:03:14	21.5	67
173703	2026-06-02T08:13:14	22	66.5
173704	2026-06-02T08:23:14	22	66
173705	2026-06-02T08:33:14	22.2	65
173706	2026-06-02T08:43:14	22.7	64.5
173707	2026-06-02T08:53:14	22.7	64.5
173708	2026-06-02T09:03:14	22.9	62.5
173709	2026-06-02T09:13:14	22.8	64.5
173710	2026-06-02T09:23:14	23	64
173711	2026-06-02T09:33:14	23.4	63
173712	2026-06-02T09:43:14	23.4	63
173713	2026-06-02T09:53:14	23.4	64
173714	2026-06-02T10:03:14	23.6	63
173715	2026-06-02T10:13:14	23.5	66.5
173716	2026-06-02T10:23:14	23.3	64
173717	2026-06-02T10:33:14	23.3	65
173718	2026-06-02T10:43:14	23.8	62.5
173719	2026-06-02T10:53:14	24.1	61.5
173720	2026-06-02T11:03:14	25	60
173721	2026-06-02T11:13:14	25	58.5
173722	2026-06-02T12:23:14	25.1	65.5
173723	2026-06-02T12:33:14	23.6	82.5
173724	2026-06-02T12:43:13	23.4	75.5
173725	2026-06-02T12:53:13	23	74
173726	2026-06-02T13:03:13	23.4	74.5
173727	2026-06-02T13:13:13	23.7	73
173728	2026-06-02T13:23:13	24.1	73
173729	2026-06-02T13:33:13	23.6	72
173730	2026-06-02T13:43:13	22.9	72
173731	2026-06-02T13:53:13	22.7	75.5
173732	2026-06-02T14:03:13	22	78.5
173733	2026-06-02T14:13:13	19.6	96
173734	2026-06-02T14:23:13	18.1	100
173735	2026-06-02T14:33:13	17.6	100
173736	2026-06-02T14:43:13	17.2	100
173737	2026-06-02T14:53:13	17.2	100
173738	2026-06-02T15:03:13	17.3	100
173739	2026-06-02T15:13:13	17.6	100
173740	2026-06-02T15:23:13	17.7	100
173741	2026-06-02T15:33:13	17.6	100
173742	2026-06-02T15:43:13	17.6	100
173743	2026-06-02T15:53:13	17.6	100
173744	2026-06-02T16:03:13	17.6	100
173745	2026-06-02T16:13:13	17.9	100
173746	2026-06-02T16:23:13	18	100
173747	2026-06-02T16:33:13	18.4	100
173748	2026-06-02T16:43:13	18.8	100
173749	2026-06-02T16:53:13	20.2	100
173750	2026-06-02T17:03:13	20.9	100
173751	2026-06-02T17:13:13	19.6	100
173752	2026-06-02T17:23:13	19.4	100
173753	2026-06-02T17:33:13	19.9	100
173754	2026-06-02T17:43:13	20	100
173755	2026-06-02T17:53:13	19.1	100
173756	2026-06-02T18:03:13	20	100
173757	2026-06-02T18:13:13	21.8	100
173758	2026-06-02T18:23:13	22.6	100
173759	2026-06-02T18:33:13	20.2	100
173760	2026-06-02T18:43:13	19.4	100
173761	2026-06-02T18:53:13	18.8	100
173762	2026-06-02T19:03:13	18.5	100
173763	2026-06-02T19:13:13	18.4	100
173764	2026-06-02T19:23:13	18.3	100
173765	2026-06-02T19:33:13	17.8	100
173766	2026-06-02T19:43:13	17.6	100
173767	2026-06-02T19:53:13	17.5	100
173768	2026-06-02T20:03:13	17.4	100
173769	2026-06-02T20:13:13	17.2	100
173770	2026-06-02T20:23:13	17.1	100
173771	2026-06-02T20:33:13	16.8	100
173772	2026-06-02T20:43:13	16.6	100
173773	2026-06-02T20:53:13	16.3	100
173774	2026-06-02T21:03:13	16.2	100
173775	2026-06-02T21:13:13	16	100
173776	2026-06-02T21:23:13	15.7	100
173777	2026-06-02T21:33:13	15.6	100
173778	2026-06-02T21:43:13	15.4	99
173779	2026-06-02T21:53:13	15.3	96.5
173780	2026-06-02T22:03:13	15.3	97
173781	2026-06-02T22:13:13	14.9	96
173782	2026-06-02T22:23:13	14.9	96
173783	2026-06-02T22:33:13	14.9	95.5
173784	2026-06-02T22:43:13	14.7	96
173785	2026-06-02T22:53:13	14.6	97.5
173786	2026-06-02T23:03:13	14.3	98
173787	2026-06-02T23:13:13	14.3	98
173788	2026-06-02T23:23:13	14.2	97
173789	2026-06-02T23:33:13	14.1	98
173790	2026-06-02T23:43:13	14.3	100
173791	2026-06-02T23:53:13	14.2	100
173792	2026-06-03T00:03:12	14.2	99.5
173793	2026-06-03T00:13:12	14.2	97.5
173794	2026-06-03T00:23:12	14.2	96
173795	2026-06-03T00:33:12	14	95.5
173796	2026-06-03T00:43:12	14	94
173797	2026-06-03T00:53:12	14	93
173798	2026-06-03T01:03:12	13.9	93
173799	2026-06-03T01:13:12	13.7	93.5
173800	2026-06-03T01:23:12	13.7	94
173801	2026-06-03T01:33:12	13.7	94.5
173802	2026-06-03T01:43:12	13.6	95
173803	2026-06-03T01:53:12	13.4	95.5
173804	2026-06-03T02:03:12	13.5	95
173805	2026-06-03T02:13:12	13.5	95
173806	2026-06-03T02:23:12	13.4	95.5
173807	2026-06-03T02:33:12	13.3	95.5
173808	2026-06-03T02:43:12	13.5	94.5
173809	2026-06-03T02:53:12	13.8	93.5
173810	2026-06-03T03:03:12	13.9	93
173811	2026-06-03T03:13:12	13.8	92.5
173812	2026-06-03T03:23:12	14	92.5
173813	2026-06-03T03:33:12	13.8	93.5
173814	2026-06-03T03:43:12	13.5	94.5
173815	2026-06-03T03:53:12	13.6	95.5
173816	2026-06-03T04:03:12	13.7	95
173817	2026-06-03T04:13:12	13.7	94.5
173818	2026-06-03T04:23:12	13.6	94.5
173819	2026-06-03T04:33:12	13.5	95
173820	2026-06-03T04:43:12	13.8	94.5
173821	2026-06-03T04:53:12	14.2	92.5
173822	2026-06-03T05:03:12	14.6	92.5
173823	2026-06-03T05:13:12	14.6	92
173824	2026-06-03T05:23:12	14.9	90
173825	2026-06-03T05:33:12	15	89
173826	2026-06-03T05:43:12	14.8	89
173827	2026-06-03T05:53:12	15	88.5
173828	2026-06-03T06:03:12	15.1	90.5
173829	2026-06-03T06:13:12	14.8	92
173830	2026-06-03T06:23:12	14.9	91
173831	2026-06-03T06:33:12	15.3	90
173832	2026-06-03T06:43:12	15.8	88
173833	2026-06-03T06:53:12	15.9	87
173834	2026-06-03T07:03:12	16.1	84.5
173835	2026-06-03T07:13:12	15.5	88.5
173836	2026-06-03T07:23:12	15.4	88
173837	2026-06-03T07:33:12	14.6	99.5
173838	2026-06-03T07:43:12	14.5	100
173839	2026-06-03T07:53:12	15	100
173840	2026-06-03T08:03:12	15.2	98
173841	2026-06-03T08:13:12	15.3	94.5
173842	2026-06-03T08:23:12	15.1	98
173843	2026-06-03T08:33:12	15.5	96
173844	2026-06-03T08:43:12	15.4	92
173845	2026-06-03T08:53:12	15.9	84
173846	2026-06-03T09:03:12	16	82.5
173847	2026-06-03T09:13:12	16.1	83
173848	2026-06-03T09:23:12	16.9	78
173849	2026-06-03T09:33:12	17	78
173850	2026-06-03T09:43:12	17	77.5
173851	2026-06-03T09:53:12	18.1	73.5
173852	2026-06-03T10:03:12	18.9	69.5
173853	2026-06-03T10:13:12	19	67
173854	2026-06-03T10:23:12	19.5	64
173855	2026-06-03T10:33:12	19.5	64
173856	2026-06-03T10:43:12	19.9	63.5
173857	2026-06-03T10:53:12	19.4	64
173858	2026-06-03T11:03:12	19.6	63.5
173859	2026-06-03T11:13:12	19.1	65
173860	2026-06-03T11:23:12	18.4	67
173861	2026-06-03T11:33:12	16.3	83.5
173862	2026-06-03T11:43:12	17.5	77.5
173863	2026-06-03T11:53:12	18.3	72
173864	2026-06-03T12:03:11	19.6	66
173865	2026-06-03T12:13:11	20.6	62.5
173866	2026-06-03T12:23:11	20.4	63.5
173867	2026-06-03T12:33:11	20.9	60
173868	2026-06-03T12:43:11	23.3	53
173869	2026-06-03T12:53:11	24.6	49
173870	2026-06-03T13:03:11	23.6	50
173871	2026-06-03T13:13:11	23.1	50.5
173872	2026-06-03T13:23:11	23.4	51.5
173873	2026-06-03T13:33:11	22.3	53
173874	2026-06-03T13:43:11	21.4	56
173875	2026-06-03T13:53:11	21.3	58
173876	2026-06-03T14:03:11	20.4	60.5
173877	2026-06-03T14:13:11	21.2	60
173878	2026-06-03T14:23:11	21.1	58
173879	2026-06-03T14:33:11	21	60
173880	2026-06-03T14:43:11	21.5	60
173881	2026-06-03T14:53:11	21	61
173882	2026-06-03T15:03:11	22.3	58
173883	2026-06-03T15:13:11	24.4	53
173884	2026-06-03T15:23:11	23.1	56.5
173885	2026-06-03T15:33:11	22.5	57
173886	2026-06-03T15:43:11	24.7	53
173887	2026-06-03T15:53:11	26.5	49
173888	2026-06-03T16:03:11	24.8	51
173889	2026-06-03T16:13:11	23.3	55.5
173890	2026-06-03T16:23:11	27.1	49
173891	2026-06-03T16:33:11	28.4	44
173892	2026-06-03T16:43:11	28.2	43.5
173893	2026-06-03T16:53:11	23.9	51
173894	2026-06-03T17:03:11	25.6	48
173895	2026-06-03T17:13:11	27.2	44.5
173896	2026-06-03T17:23:11	27.6	43.5
173897	2026-06-03T17:33:11	26.1	43.5
173898	2026-06-03T17:43:11	26.3	43.5
173899	2026-06-03T17:53:11	25.7	44
173900	2026-06-03T18:03:11	25.8	44.5
173901	2026-06-03T18:13:11	23.9	48
173902	2026-06-03T18:23:11	23.6	49
173903	2026-06-03T18:33:11	22.3	52.5
173904	2026-06-03T18:43:11	21.8	55.5
173905	2026-06-03T18:53:11	21.5	58.5
173906	2026-06-03T19:13:11	20.7	63.5
173907	2026-06-03T19:23:11	20.3	64
173908	2026-06-03T19:33:11	20.2	64
173909	2026-06-03T19:43:11	20.1	66.5
173910	2026-06-03T19:53:11	19.9	66
173911	2026-06-03T20:03:11	19.8	67.5
173912	2026-06-03T20:13:11	19.3	68.5
173913	2026-06-03T20:23:11	19	70
173914	2026-06-03T20:33:11	18.9	71
173915	2026-06-03T20:43:11	18.8	69
173916	2026-06-03T20:53:11	18.4	68
173917	2026-06-03T21:03:11	18.4	66
173918	2026-06-03T21:13:11	18.2	65.5
173919	2026-06-03T21:23:11	18.4	65.5
173920	2026-06-03T21:33:11	18.4	64.5
173921	2026-06-03T21:43:11	18.4	64.5
173922	2026-06-03T21:53:11	18.5	64
173923	2026-06-03T22:03:11	18.6	63.5
173924	2026-06-03T22:13:10	18.5	64.5
173925	2026-06-03T22:23:10	18.5	65
173926	2026-06-03T22:33:10	18.5	65
173927	2026-06-03T22:43:10	18.2	66
173928	2026-06-03T22:53:10	18.1	66.5
173929	2026-06-03T23:03:10	18.2	66
173930	2026-06-03T23:13:10	18.3	65.5
173931	2026-06-03T23:23:10	18.4	65.5
173932	2026-06-03T23:33:10	18.2	65.5
173933	2026-06-03T23:43:10	18.4	65.5
173934	2026-06-03T23:53:10	18.4	65.5
173935	2026-06-04T00:03:10	18.5	65.5
173936	2026-06-04T00:13:10	18.4	66
173937	2026-06-04T00:23:10	18.4	66
173938	2026-06-04T00:33:10	18.5	66
173939	2026-06-04T00:43:10	18.5	66
173940	2026-06-04T00:53:10	18.5	66
173941	2026-06-04T01:03:10	18.6	65.5
173942	2026-06-04T01:13:10	18.6	65.5
173943	2026-06-04T01:33:10	18.6	65.5
173944	2026-06-04T01:43:10	18.6	66
173945	2026-06-04T01:53:10	18.7	65.5
173946	2026-06-04T02:03:10	18.6	65.5
173947	2026-06-04T02:13:10	18.6	65.5
173948	2026-06-04T02:23:10	18.7	65
173949	2026-06-04T02:33:10	18.8	65
173950	2026-06-04T02:43:10	18.4	66
173951	2026-06-04T02:53:10	18.7	65
173952	2026-06-04T03:03:10	18.7	65.5
173953	2026-06-04T03:13:10	18.4	66
173954	2026-06-04T03:23:10	18.1	66.5
173955	2026-06-04T03:33:10	18.1	67
173956	2026-06-04T03:43:10	18.2	67
173957	2026-06-04T03:53:10	18.4	67.5
173958	2026-06-04T04:03:10	18.4	67.5
173959	2026-06-04T04:13:10	18.6	67
173960	2026-06-04T04:23:10	18.6	67
173961	2026-06-04T04:33:10	18.6	67
173962	2026-06-04T04:43:10	18.6	67.5
173963	2026-06-04T04:53:10	18.7	67.5
173964	2026-06-04T05:03:10	18.7	68
173965	2026-06-04T05:13:10	18.9	68.5
173966	2026-06-04T05:23:10	19	69
173967	2026-06-04T05:33:10	19.2	68.5
173968	2026-06-04T05:43:10	19.4	68
173969	2026-06-04T05:53:10	19.6	67.5
173970	2026-06-04T06:03:10	19.6	66.5
173971	2026-06-04T06:13:10	19.8	66.5
173972	2026-06-04T06:23:10	19.9	64.5
173973	2026-06-04T06:33:10	20	65.5
173974	2026-06-04T06:43:10	20	65.5
173975	2026-06-04T06:53:10	20.1	65.5
173976	2026-06-04T07:03:10	20.2	66
173977	2026-06-04T07:13:10	20.4	66
173978	2026-06-04T07:23:10	20.8	65.5
173979	2026-06-04T07:33:10	21.1	64.5
173980	2026-06-04T07:43:10	21.3	64
173981	2026-06-04T07:53:10	21.5	64
173982	2026-06-04T08:03:10	21.7	64
173983	2026-06-04T08:13:10	21.7	63.5
173984	2026-06-04T08:23:10	21.9	63
173985	2026-06-04T08:33:10	21.9	62.5
173986	2026-06-04T08:43:10	22.3	61.5
173987	2026-06-04T08:53:10	22.4	61.5
173988	2026-06-04T09:03:10	22.1	62
173989	2026-06-04T09:13:09	21.7	63
173990	2026-06-04T09:23:09	21.7	63
173991	2026-06-04T09:33:09	22.3	62.5
173992	2026-06-04T09:43:09	22.6	60.5
173993	2026-06-04T09:53:09	22.6	59.5
173994	2026-06-04T10:03:09	22.8	59
173995	2026-06-04T10:13:09	22.9	57.5
173996	2026-06-04T10:23:09	22.9	58.5
173997	2026-06-04T10:33:09	23	59
173998	2026-06-04T10:43:09	23.3	57
173999	2026-06-04T10:53:09	23.2	56.5
174000	2026-06-04T11:03:09	23.9	58
174001	2026-06-04T11:13:09	23.9	56
174002	2026-06-04T11:23:09	24	55
174003	2026-06-04T11:33:09	23.7	54
174004	2026-06-04T11:43:09	23.4	53
174005	2026-06-04T11:53:09	23.6	53.5
174006	2026-06-04T12:03:09	23.5	54.5
174007	2026-06-04T12:13:09	23.3	54
174008	2026-06-04T12:23:09	23.8	53.5
174009	2026-06-04T12:33:09	23.7	54
174010	2026-06-04T12:43:09	23.4	53
174011	2026-06-04T12:53:09	23.3	55.5
174012	2026-06-04T13:03:09	23	57
174013	2026-06-04T13:13:09	22.8	58
174014	2026-06-04T13:23:09	22.3	59.5
174015	2026-06-04T13:33:09	21.7	63
174016	2026-06-04T13:43:09	21.7	60.5
174017	2026-06-04T13:53:09	19.8	78.5
174018	2026-06-04T14:03:09	17.5	86
174019	2026-06-04T14:13:09	17.6	86
174020	2026-06-04T14:23:09	17.6	84
174021	2026-06-04T14:33:09	17.5	78
174022	2026-06-04T14:43:09	17.7	76.5
174023	2026-06-04T14:53:09	17.9	77
174024	2026-06-04T15:03:09	18	73
174025	2026-06-04T15:13:09	18.3	72
174026	2026-06-04T15:23:09	18.7	68
174027	2026-06-04T15:33:09	18.4	67
174028	2026-06-04T15:43:09	18.1	67
174029	2026-06-04T15:53:09	17.5	70
174030	2026-06-04T16:03:09	17.4	70.5
174031	2026-06-04T16:13:09	17.5	69
174032	2026-06-04T16:23:09	17.4	71
174033	2026-06-04T16:33:09	17.4	70
174034	2026-06-04T16:43:09	17.5	70
174035	2026-06-04T16:53:09	17.4	70.5
174036	2026-06-04T17:03:09	17.5	70.5
174037	2026-06-04T17:13:09	17.3	69.5
174038	2026-06-04T17:23:09	17.4	69
174039	2026-06-04T17:33:09	17.6	68
174040	2026-06-04T17:43:09	17.5	68.5
174041	2026-06-04T17:53:09	17.4	69.5
174042	2026-06-04T18:03:09	17.3	69.5
174043	2026-06-04T18:13:09	17.1	70
174044	2026-06-04T18:23:09	17.1	70.5
174045	2026-06-04T18:33:09	16.9	71
174046	2026-06-04T18:43:09	16.8	72
174047	2026-06-04T18:53:09	16.8	72.5
174048	2026-06-04T19:03:09	16.7	73.5
174049	2026-06-04T19:13:09	16.5	73.5
174050	2026-06-04T19:23:09	16.4	74
174051	2026-06-04T19:33:09	16.5	74.5
174052	2026-06-04T19:43:09	16.5	74
174053	2026-06-04T19:53:08	16.4	74.5
174054	2026-06-04T20:03:08	16.3	74.5
174055	2026-06-04T20:23:08	16.4	75.5
174056	2026-06-04T20:33:08	14.6	95
174057	2026-06-04T20:43:08	14	99.5
174058	2026-06-04T20:53:08	13.8	100
174059	2026-06-04T21:03:08	13.8	100
174060	2026-06-04T21:13:08	13.4	100
174061	2026-06-04T21:23:08	13.6	100
174062	2026-06-04T21:33:08	13.6	100
174063	2026-06-04T21:43:08	13.5	100
174064	2026-06-04T21:53:08	13.6	100
174065	2026-06-04T22:03:08	13.6	100
174066	2026-06-04T22:13:08	13.5	100
174067	2026-06-04T22:23:08	13.4	100
174068	2026-06-04T22:33:08	13.4	100
174069	2026-06-04T22:43:08	13.4	100
174070	2026-06-04T22:53:08	13.3	100
174071	2026-06-04T23:03:08	13.2	100
174072	2026-06-04T23:13:08	13.1	100
174073	2026-06-04T23:23:08	13.3	100
174074	2026-06-04T23:33:08	13.2	100
174075	2026-06-04T23:43:08	13.2	100
174076	2026-06-04T23:53:08	13.2	100
174077	2026-06-05T00:03:08	13	100
174078	2026-06-05T00:13:08	12.9	100
174079	2026-06-05T00:23:08	13.1	100
174080	2026-06-05T00:33:08	13	99
174081	2026-06-05T00:43:08	13.1	98
174082	2026-06-05T00:53:08	12.9	97
174083	2026-06-05T01:03:08	13	96.5
174084	2026-06-05T01:13:08	12.9	96.5
174085	2026-06-05T01:23:08	12.7	96.5
174086	2026-06-05T01:33:08	12.6	96.5
174087	2026-06-05T01:43:08	12.9	96.5
174088	2026-06-05T01:53:08	12.7	97
174089	2026-06-05T02:03:08	12.7	97
174090	2026-06-05T02:13:08	12.6	97
174091	2026-06-05T02:23:08	12.5	97
174092	2026-06-05T02:33:08	12.3	97
174093	2026-06-05T02:43:08	12.2	97
174094	2026-06-05T02:53:08	12.1	97
174095	2026-06-05T03:03:08	12	97
174096	2026-06-05T03:13:08	11.8	97
174097	2026-06-05T03:23:08	11.8	97
174098	2026-06-05T03:33:08	11.9	97
174099	2026-06-05T03:43:08	12.1	97
174100	2026-06-05T03:53:08	12.2	97
174101	2026-06-05T04:03:08	12.4	97
174102	2026-06-05T04:13:08	12.6	97
174103	2026-06-05T04:23:08	12.7	97
174104	2026-06-05T04:33:08	12.9	97
174105	2026-06-05T04:43:08	13.1	97
174106	2026-06-05T04:53:08	13.3	97
174107	2026-06-05T05:03:08	13.4	97
174108	2026-06-05T05:13:08	13.5	97
174109	2026-06-05T05:23:08	13.5	97
174110	2026-06-05T05:33:08	13.7	97
174111	2026-06-05T05:43:08	14	97
174112	2026-06-05T05:53:08	14	97
174113	2026-06-05T06:03:08	14	97
174114	2026-06-05T06:13:08	14.2	97.5
174115	2026-06-05T06:23:08	14.6	97.5
174116	2026-06-05T06:33:08	14.8	97.5
174117	2026-06-05T06:43:08	14.7	97
174118	2026-06-05T06:53:08	14.7	97.5
174119	2026-06-05T07:03:08	14.6	97.5
174120	2026-06-05T07:13:08	14.6	97.5
174121	2026-06-05T07:23:08	15.2	97.5
174122	2026-06-05T07:33:08	15.5	97.5
174123	2026-06-05T07:43:08	15.9	97.5
174124	2026-06-05T07:53:08	15.7	100
174125	2026-06-05T08:03:08	16.2	100
174126	2026-06-05T08:13:08	16.5	100
174127	2026-06-05T08:23:08	16	100
174128	2026-06-05T08:33:07	16	100
174129	2026-06-05T08:43:07	15.6	100
174130	2026-06-05T08:53:07	14.5	100
174131	2026-06-05T09:03:07	14.6	100
174132	2026-06-05T09:13:07	15.5	100
174133	2026-06-05T09:23:07	15.7	100
174134	2026-06-05T09:33:07	16.2	100
174135	2026-06-05T09:43:07	16.5	100
174136	2026-06-05T09:53:07	16.8	97
174137	2026-06-05T10:03:07	16.9	83.5
174138	2026-06-05T10:13:07	17.7	78.5
174139	2026-06-05T10:23:07	18	68
174140	2026-06-05T10:33:07	18.5	66
174141	2026-06-05T10:43:07	18.6	62
174142	2026-06-05T10:53:07	18.7	62
174143	2026-06-05T11:03:07	18.6	62.5
174144	2026-06-05T11:13:07	18.6	61
174145	2026-06-05T11:23:07	18.8	59.5
174146	2026-06-05T11:33:07	18.7	59
174147	2026-06-05T11:43:07	19.1	59.5
174148	2026-06-05T11:53:07	20.1	55
174149	2026-06-05T12:03:07	20.4	55.5
174150	2026-06-05T12:13:07	21.9	53.5
174151	2026-06-05T12:23:07	22.4	50
174152	2026-06-05T12:33:07	21.3	53.5
174153	2026-06-05T12:43:07	20.7	54
174154	2026-06-05T12:53:07	21.3	52
174155	2026-06-05T13:03:07	21.4	53
174156	2026-06-05T13:13:07	21.3	53
174157	2026-06-05T13:23:07	24.6	46.5
174158	2026-06-05T13:33:07	25.3	47
174159	2026-06-05T13:43:07	26.1	41.5
174160	2026-06-05T13:53:07	25.9	41
174161	2026-06-05T14:03:07	25	41.5
174162	2026-06-05T14:13:07	26.2	43.5
174163	2026-06-05T14:23:07	27.1	42.5
174164	2026-06-05T14:33:07	23.6	46
174165	2026-06-05T14:43:07	23.2	47
174166	2026-06-05T14:53:07	27.8	40.5
174167	2026-06-05T15:03:07	26.5	42
174168	2026-06-05T15:13:07	28.1	39
174169	2026-06-05T15:23:07	28.9	36
174170	2026-06-05T15:33:07	30.1	34.5
174171	2026-06-05T15:43:07	29.6	35.5
174172	2026-06-05T15:53:07	31	32
174173	2026-06-05T16:03:07	30.6	33
174174	2026-06-05T16:13:07	31.6	30.5
174175	2026-06-05T16:23:07	29.2	32
174176	2026-06-05T16:33:07	30.9	30.5
174177	2026-06-05T16:43:07	31.8	30
174178	2026-06-05T16:53:07	31.3	30.5
174179	2026-06-05T17:03:07	31.1	31.5
174180	2026-06-05T17:13:07	31.3	30
174181	2026-06-05T17:23:07	31.7	29
174182	2026-06-05T17:33:07	30.5	32.5
174183	2026-06-05T17:43:07	31.4	30
174184	2026-06-05T17:53:07	30.1	33
174185	2026-06-05T18:03:07	29.6	34
174186	2026-06-05T18:13:07	30.1	34.5
174187	2026-06-05T18:23:07	29.8	35
174188	2026-06-05T18:33:07	28	37
174189	2026-06-05T18:43:07	28.7	38
174190	2026-06-05T19:03:06	26.8	46
174191	2026-06-05T19:13:06	24.8	50
174192	2026-06-05T19:23:06	23.5	52
174193	2026-06-05T19:33:06	22.7	53
174194	2026-06-05T19:43:06	22	57
174195	2026-06-05T19:53:06	21.4	60.5
174196	2026-06-05T20:03:06	20.8	61.5
174197	2026-06-05T20:13:06	20.2	62
174198	2026-06-05T20:23:06	19.7	62.5
174199	2026-06-05T20:33:06	19.4	64.5
174200	2026-06-05T20:43:06	19.1	63.5
174201	2026-06-05T20:53:06	18.5	64.5
174202	2026-06-05T21:03:06	18.3	65.5
174203	2026-06-05T21:13:06	17.8	67
174204	2026-06-05T21:23:06	17.5	68
174205	2026-06-05T21:33:06	17.1	69.5
174206	2026-06-05T21:43:06	16.9	69
174207	2026-06-05T21:53:06	16.5	70
174208	2026-06-05T22:03:06	16.5	69.5
174209	2026-06-05T22:13:06	16	70.5
174210	2026-06-05T22:23:06	15.8	71.5
174211	2026-06-05T22:33:06	15.5	71
174212	2026-06-05T22:43:06	15.4	71
174213	2026-06-05T22:53:06	15.1	72.5
174214	2026-06-05T23:03:06	15.1	73
174215	2026-06-05T23:13:06	14.8	74.5
174216	2026-06-05T23:23:06	14.7	74.5
174217	2026-06-05T23:33:06	14.7	75
174218	2026-06-05T23:43:06	14.5	75
174219	2026-06-05T23:53:06	14.2	75.5
174220	2026-06-06T00:03:06	13.8	77
174221	2026-06-06T00:13:06	13.6	77.5
174222	2026-06-06T00:23:06	13.3	78
174223	2026-06-06T00:33:06	13.2	79
174224	2026-06-06T00:43:06	13.1	79.5
174225	2026-06-06T00:53:06	12.8	78
174226	2026-06-06T01:03:06	12.7	79.5
174227	2026-06-06T01:13:06	12.6	81
174228	2026-06-06T01:23:06	12.4	82
174229	2026-06-06T01:33:06	12.3	82.5
174230	2026-06-06T01:43:06	12.2	82.5
174231	2026-06-06T01:53:06	12.1	82
174232	2026-06-06T02:03:06	12	83
174233	2026-06-06T02:13:06	11.8	83.5
174234	2026-06-06T02:23:06	11.7	84
174235	2026-06-06T02:33:06	11.5	84
174236	2026-06-06T02:43:06	11.2	84
174237	2026-06-06T02:53:06	11	84.5
174238	2026-06-06T03:03:06	11.1	84
174239	2026-06-06T03:13:06	11	84
174240	2026-06-06T03:23:06	11.1	83.5
174241	2026-06-06T03:33:06	11.1	83.5
174242	2026-06-06T03:43:06	11.3	84
174243	2026-06-06T03:53:06	11.3	83.5
174244	2026-06-06T04:03:06	11.6	83.5
174245	2026-06-06T04:13:06	11.9	82.5
174246	2026-06-06T04:23:06	12	82.5
174247	2026-06-06T04:33:06	12.3	82.5
174248	2026-06-06T04:43:06	12.5	83.5
174249	2026-06-06T04:53:06	12.6	84.5
174250	2026-06-05T18:53:06	28.5	41.5
174251	2026-06-06T05:03:06	12.9	83.5
174252	2026-06-06T05:13:06	12.9	83.5
174253	2026-06-06T05:23:06	13.1	83.5
174254	2026-06-06T05:33:06	13.2	83
174255	2026-06-06T05:43:06	13.5	82
174256	2026-06-06T05:53:06	13.6	82
174257	2026-06-06T06:03:06	13.6	82
174258	2026-06-06T06:13:06	14	81
174259	2026-06-06T06:23:06	14.1	79
174260	2026-06-06T06:33:06	14.3	77
174261	2026-06-06T06:43:06	14.6	77
174262	2026-06-06T06:53:06	14.9	75.5
174263	2026-06-06T07:03:06	15.4	75
174264	2026-06-06T07:13:05	15.7	74.5
174265	2026-06-06T07:23:05	16.3	72
174266	2026-06-06T07:33:05	16.6	71.5
174267	2026-06-06T07:43:05	16.8	72.5
174268	2026-06-06T07:53:05	17	72
174269	2026-06-06T08:03:05	17.2	71
174270	2026-06-06T08:13:05	17.3	72
174271	2026-06-06T08:23:05	17.4	69.5
174272	2026-06-06T08:33:05	18	69
174273	2026-06-06T08:43:05	18.4	70.5
174274	2026-06-06T08:53:05	18.5	69.5
174275	2026-06-06T09:03:05	19	70
174276	2026-06-06T09:13:05	19.3	67.5
174277	2026-06-06T09:23:05	19.6	68
174278	2026-06-06T09:33:05	19.8	67.5
174279	2026-06-06T09:43:05	20	65.5
174280	2026-06-06T09:53:05	20.5	64
174281	2026-06-06T10:03:05	20.5	66
174282	2026-06-06T10:13:05	20.3	66
174283	2026-06-06T10:23:05	20.5	66
174284	2026-06-06T10:33:05	20.6	65
174285	2026-06-06T10:43:05	20.8	62.5
174286	2026-06-06T10:53:05	21.2	62.5
174287	2026-06-06T11:03:05	21.3	58.5
174288	2026-06-06T11:13:05	21.3	60.5
174289	2026-06-06T11:23:05	21.5	59.5
174290	2026-06-06T11:33:05	21.6	60
174291	2026-06-06T11:43:05	22.5	57.5
174292	2026-06-06T11:53:05	22.9	55.5
174293	2026-06-06T12:03:05	23	57
174294	2026-06-06T12:13:05	25.4	46
174295	2026-06-06T12:23:05	26.8	44
174296	2026-06-06T12:33:05	28.5	41
174297	2026-06-06T12:43:05	29.2	39
174298	2026-06-06T12:53:05	30.4	38.5
174299	2026-06-06T13:03:05	30.6	38.5
174300	2026-06-06T13:13:05	30.9	37.5
174301	2026-06-06T13:23:05	31.7	35.5
174302	2026-06-06T13:33:05	31.7	34.5
174303	2026-06-06T13:43:05	30.5	34.5
174304	2026-06-06T13:53:05	32.1	34
174305	2026-06-06T14:03:05	32.7	33
174306	2026-06-06T14:13:05	29.8	35.5
174307	2026-06-06T14:23:05	28.1	38
174308	2026-06-06T14:33:05	29	37.5
174309	2026-06-06T14:43:05	28.9	37.5
174310	2026-06-06T14:53:05	30.5	34.5
174311	2026-06-06T15:03:05	31	35
174312	2026-06-06T15:13:05	32.1	34
174313	2026-06-06T15:23:05	29.5	36.5
174314	2026-06-06T15:33:05	31.3	33
174315	2026-06-06T15:43:05	29.5	36
174316	2026-06-06T15:53:05	29.1	38
174317	2026-06-06T16:03:05	27.5	41
174318	2026-06-06T16:13:05	27.7	40
174319	2026-06-06T16:23:05	27.7	40.5
174320	2026-06-06T16:33:05	28.3	40.5
174321	2026-06-06T16:43:05	26.9	43.5
174322	2026-06-06T16:53:24	26.4	45.5
174323	2026-06-06T17:03:05	26.3	45.5
174324	2026-06-06T17:13:05	25.5	48
174325	2026-06-06T17:23:05	25.3	49.5
174326	2026-06-06T17:33:04	24.7	50
174327	2026-06-06T17:43:05	24.6	50.5
174328	2026-06-06T17:53:04	24.2	51.5
174329	2026-06-06T18:03:04	23.9	52
174330	2026-06-06T18:13:04	23.9	53.5
174331	2026-06-06T18:23:04	24.5	53
174332	2026-06-06T18:33:04	24.5	54.5
174333	2026-06-06T18:43:04	25	53.5
174334	2026-06-06T18:53:04	24.2	56
174335	2026-06-06T19:03:04	23.6	58
174336	2026-06-06T19:13:04	23.2	59.5
174337	2026-06-06T19:23:04	23	60
174338	2026-06-06T19:33:04	22.6	61
174339	2026-06-06T19:43:04	22.3	61.5
174340	2026-06-06T19:53:04	22.1	62.5
174341	2026-06-06T20:03:04	21.5	64
174342	2026-06-06T20:13:04	21.3	63.5
174343	2026-06-06T20:23:04	21.2	64
174344	2026-06-06T20:33:04	21	64
174345	2026-06-06T20:43:04	21	65
174346	2026-06-06T20:53:04	20.7	66
174347	2026-06-06T21:03:04	20.8	67
174348	2026-06-06T21:13:04	19.1	80.5
174349	2026-06-06T21:23:04	17.9	80
174350	2026-06-06T21:33:04	17.6	84
174351	2026-06-06T21:43:04	17.7	90.5
174352	2026-06-06T21:53:04	17.8	86.5
174353	2026-06-06T22:03:04	17.5	85
174354	2026-06-06T22:13:04	17.2	84.5
174355	2026-06-06T22:23:04	17.2	83
174356	2026-06-06T22:33:04	17.4	81
174357	2026-06-06T22:43:04	17.6	81
174358	2026-06-06T22:53:04	17.5	82.5
174359	2026-06-06T23:03:04	17.7	82.5
174360	2026-06-06T23:13:04	17.5	85
174361	2026-06-06T23:23:04	17.5	82.5
174362	2026-06-06T23:33:04	17.6	81
174363	2026-06-06T23:43:04	17.6	81
174364	2026-06-06T23:53:04	17.5	79
174365	2026-06-07T00:03:04	17.6	79.5
174366	2026-06-07T00:13:04	17.6	78.5
174367	2026-06-07T00:23:04	17.6	77
174368	2026-06-07T00:33:04	17.8	77
174369	2026-06-07T00:43:04	17.8	76.5
174370	2026-06-07T00:53:04	17.7	76
174371	2026-06-07T01:03:04	17.7	76.5
174372	2026-06-07T01:13:04	17.5	77
174373	2026-06-07T01:23:04	17.5	78
174374	2026-06-07T01:33:04	17.5	77.5
174375	2026-06-07T01:43:04	17.4	77
174376	2026-06-07T01:53:04	17.3	78.5
174377	2026-06-07T02:03:04	17	80
174378	2026-06-07T02:13:04	16.9	79.5
174379	2026-06-07T02:23:04	17.2	76.5
174380	2026-06-07T02:33:04	16.8	78.5
174381	2026-06-07T02:43:04	16.9	77.5
174382	2026-06-07T02:53:04	16.8	77
174383	2026-06-07T03:03:04	16.5	76
174384	2026-06-07T03:13:04	16.3	78
174385	2026-06-07T03:23:04	16.1	79
174386	2026-06-07T03:33:04	16	78.5
174387	2026-06-07T03:43:04	16	78
174388	2026-06-07T03:53:04	16.1	77
174389	2026-06-07T04:03:04	16.3	76
174390	2026-06-07T04:13:03	16.3	74.5
174391	2026-06-07T04:23:03	16.5	72.5
174392	2026-06-07T04:33:03	16.6	71.5
174393	2026-06-07T04:43:03	16.8	70.5
174394	2026-06-07T04:53:03	16.8	70
174395	2026-06-07T05:03:03	16.9	69
174396	2026-06-07T05:13:03	16.7	69
174397	2026-06-07T05:23:03	16.7	68.5
174398	2026-06-07T05:33:03	17	68.5
174399	2026-06-07T05:43:03	17.1	68
174400	2026-06-07T05:53:03	17.2	66.5
174401	2026-06-07T06:03:03	17.4	67.5
174402	2026-06-07T06:13:03	17.6	66.5
174403	2026-06-07T06:23:03	17.7	67.5
174404	2026-06-07T06:33:03	17.7	67
174405	2026-06-07T06:43:03	17.7	67
174406	2026-06-07T06:53:03	17.9	65.5
174407	2026-06-07T07:03:03	18.2	62.5
174408	2026-06-07T07:13:03	18.2	61.5
174409	2026-06-07T07:23:03	18.4	60
174410	2026-06-07T07:33:03	18.6	60.5
174411	2026-06-07T07:43:03	18.7	59.5
174412	2026-06-07T07:53:03	19	59.5
174413	2026-06-07T08:03:03	19.3	57.5
174414	2026-06-07T08:13:03	19.3	57.5
174415	2026-06-07T08:23:03	19.5	57.5
174416	2026-06-07T08:33:03	19.6	58.5
174417	2026-06-07T08:43:03	19.7	57.5
174418	2026-06-07T08:53:03	19.8	55.5
174419	2026-06-07T09:03:03	19.9	55.5
174420	2026-06-07T09:13:03	19.8	54
174421	2026-06-07T09:23:03	19.8	57
174422	2026-06-07T09:33:03	19.8	55.5
174423	2026-06-07T09:43:03	20	56.5
174424	2026-06-07T09:53:03	20	56.5
174425	2026-06-07T10:03:03	20.1	56
174426	2026-06-07T10:13:03	20	56.5
174427	2026-06-07T10:23:03	20.6	54.5
174428	2026-06-07T10:33:03	20.7	53.5
174429	2026-06-07T10:43:03	20.9	52.5
174430	2026-06-07T10:53:03	21.1	52.5
174431	2026-06-07T11:03:03	21.2	50.5
174432	2026-06-07T11:13:03	21.4	51.5
174433	2026-06-07T11:23:03	21.4	51.5
174434	2026-06-07T11:33:03	21.4	50
174435	2026-06-07T11:43:03	21.7	50
174436	2026-06-07T11:53:03	22	49
174437	2026-06-07T12:03:03	22.2	47.5
174438	2026-06-07T12:13:03	23.8	46.5
174439	2026-06-07T12:23:03	26.1	42
174440	2026-06-07T12:33:03	26.3	40.5
174441	2026-06-07T12:43:03	27.4	41
174442	2026-06-07T12:53:03	28.2	38.5
174443	2026-06-07T13:03:03	29.6	37
174444	2026-06-07T13:13:03	30	36.5
174445	2026-06-07T13:23:03	30.1	36
174446	2026-06-07T13:33:03	31.2	36
174447	2026-06-07T13:43:03	31.6	34
174448	2026-06-07T13:53:03	32.4	33.5
174449	2026-06-07T14:03:03	32.5	33
174450	2026-06-07T14:13:03	33.7	32
174451	2026-06-07T14:23:03	33.4	32
174452	2026-06-07T14:33:03	33.4	32
174453	2026-06-07T14:43:02	34.2	30.5
174454	2026-06-07T14:53:03	34.1	30
174455	2026-06-07T15:03:03	36.2	28.5
174456	2026-06-07T15:13:02	35.3	28
174457	2026-06-07T15:23:02	34.5	29.5
174458	2026-06-07T15:33:02	34	30.5
174459	2026-06-07T15:43:02	36	27.5
174460	2026-06-07T15:53:02	32.8	31
174461	2026-06-07T16:03:02	33.2	31.5
174462	2026-06-07T16:13:02	33.1	31.5
174463	2026-06-07T16:23:02	35.2	29.5
174464	2026-06-07T16:33:02	33.8	30
174465	2026-06-07T16:43:02	33.1	30.5
174466	2026-06-07T16:53:02	32.1	33
174467	2026-06-07T17:03:02	32.6	31.5
174468	2026-06-07T17:13:02	34	32
174469	2026-06-07T17:23:02	35.1	29.5
174470	2026-06-07T17:33:02	34.1	29.5
174471	2026-06-07T17:43:02	33.8	29.5
174472	2026-06-07T17:53:02	34.4	30
174473	2026-06-07T18:03:02	34.1	30
174474	2026-06-07T18:13:02	34.1	29
174475	2026-06-07T18:23:02	34.3	30.5
174476	2026-06-07T18:33:02	32.9	31
174477	2026-06-07T18:43:02	31.4	33
174478	2026-06-07T18:53:02	29.2	37
174479	2026-06-07T19:03:02	28.6	41.5
174480	2026-06-07T19:13:02	27.5	45
174481	2026-06-07T19:23:02	26.5	47
174482	2026-06-07T19:33:02	25.8	48.5
174483	2026-06-07T19:43:02	25	50
174484	2026-06-07T19:53:02	24.4	51.5
174485	2026-06-07T20:03:02	23.8	52
174486	2026-06-07T20:13:02	23.4	54
174487	2026-06-07T20:23:02	22.9	55.5
174488	2026-06-07T20:33:02	22.5	56.5
174489	2026-06-07T20:43:02	22	57
174490	2026-06-07T20:53:02	21.6	58
174491	2026-06-07T21:03:02	21.2	59
174492	2026-06-07T21:13:02	20.9	59.5
174493	2026-06-07T21:23:02	20.4	60.5
174494	2026-06-07T21:33:02	20.2	61.5
174495	2026-06-07T21:43:02	19.5	62.5
174496	2026-06-07T21:53:02	19.3	62
174497	2026-06-07T22:03:02	18.9	62.5
174498	2026-06-07T22:13:02	18.6	64
174499	2026-06-07T22:23:02	18.5	64.5
174500	2026-06-07T22:33:02	18.3	66
174501	2026-06-07T22:43:02	18	66.5
174502	2026-06-07T22:53:02	17.8	66.5
174503	2026-06-07T23:03:02	17.6	67
174504	2026-06-07T23:13:02	17.2	68.5
174505	2026-06-07T23:23:02	16.9	68.5
174506	2026-06-07T23:33:02	16.6	69.5
174507	2026-06-07T23:43:02	16.2	71
174508	2026-06-07T23:53:02	16.2	70.5
174509	2026-06-08T00:03:02	16	70.5
174510	2026-06-08T00:13:02	15.8	71.5
174511	2026-06-08T00:23:02	15.8	72
174512	2026-06-08T00:33:02	15.4	72.5
174513	2026-06-08T00:43:02	15.6	72
174514	2026-06-08T00:53:02	15.3	73
174515	2026-06-08T01:03:02	15.2	73.5
174516	2026-06-08T01:13:02	15	73.5
174517	2026-06-08T01:23:01	15.1	73
174518	2026-06-08T01:33:01	14.9	73
174519	2026-06-08T01:43:01	14.8	73.5
174520	2026-06-08T01:53:01	14.7	75.5
174521	2026-06-08T02:03:01	14.4	77.5
174522	2026-06-08T02:13:01	14.3	78.5
174523	2026-06-08T02:23:01	14.3	79
174524	2026-06-08T02:33:01	14	78.5
174525	2026-06-08T02:43:01	13.7	79.5
174526	2026-06-08T02:53:01	13.7	80.5
174527	2026-06-08T03:03:01	13.5	80.5
174528	2026-06-08T03:13:01	13.4	80.5
174529	2026-06-08T03:23:01	13.4	80.5
174530	2026-06-08T03:33:01	13.2	80
174531	2026-06-08T03:43:01	13.1	80
174532	2026-06-08T03:53:01	13.2	80
174533	2026-06-08T04:03:01	13.3	79.5
174534	2026-06-08T04:13:01	13.3	80
174535	2026-06-08T04:23:01	13.4	81.5
174536	2026-06-08T04:33:01	13.4	82
174537	2026-06-08T04:43:01	13.5	83
174538	2026-06-08T04:53:01	13.6	82.5
174539	2026-06-08T05:03:01	13.6	82
174540	2026-06-08T05:13:01	13.7	82.5
174541	2026-06-08T05:23:01	14	82
174542	2026-06-08T05:33:01	14.5	82
174543	2026-06-08T05:43:01	14.8	81.5
174544	2026-06-08T05:53:01	14.8	81
174545	2026-06-08T06:03:01	14.8	81
174546	2026-06-08T06:13:01	14.9	78.5
174547	2026-06-08T06:23:01	14.9	79.5
174548	2026-06-08T06:33:01	14.9	81
174549	2026-06-08T06:43:01	15.3	82
174550	2026-06-08T06:53:01	15.7	81
174551	2026-06-08T07:03:01	16.1	78.5
174552	2026-06-08T07:13:01	16.2	80
174553	2026-06-08T07:23:01	16.6	78.5
174554	2026-06-08T07:33:01	16.9	75.5
174555	2026-06-08T07:43:01	17.7	74.5
174556	2026-06-08T07:53:01	17.9	72.5
174557	2026-06-08T08:03:01	18.3	71
174558	2026-06-08T08:13:01	18.7	69.5
174559	2026-06-08T08:23:01	19.1	68
174560	2026-06-08T08:33:01	19.8	67
174561	2026-06-08T08:43:01	20.1	66
174562	2026-06-08T08:53:01	19.9	67.5
174563	2026-06-08T09:03:01	20.1	67.5
174564	2026-06-08T09:13:01	20.6	66.5
174565	2026-06-08T09:23:01	21.2	62.5
174566	2026-06-08T09:33:01	21.8	62
174567	2026-06-08T09:43:01	22.4	61
174568	2026-06-08T09:53:01	22.8	60
174569	2026-06-08T10:03:01	23.2	59
174570	2026-06-08T10:13:01	23.7	58.5
174571	2026-06-08T10:23:01	24.2	55.5
174572	2026-06-08T10:33:01	24.2	55
174573	2026-06-08T10:43:01	24.3	53
174574	2026-06-08T10:53:01	24.7	51.5
174575	2026-06-08T11:03:01	24.9	52
174576	2026-06-08T11:13:01	25.6	50
174577	2026-06-08T11:23:01	26.1	49
174578	2026-06-08T11:33:01	26.3	47.5
174579	2026-06-08T11:43:01	26.7	48
174580	2026-06-08T11:53:01	26.9	46.5
174581	2026-06-08T12:03:01	27	45.5
174582	2026-06-08T12:13:01	26.9	45.5
174583	2026-06-08T12:23:01	27.8	44
174584	2026-06-08T12:33:01	28.5	41.5
174585	2026-06-08T12:43:00	29.1	41
174586	2026-06-08T12:53:01	29.4	42
174587	2026-06-08T13:03:00	29	43
174588	2026-06-08T13:13:00	28.9	43
174589	2026-06-08T13:23:00	28.3	44.5
174590	2026-06-08T13:33:00	28.2	45.5
174591	2026-06-08T13:43:00	28.7	44.5
174592	2026-06-08T13:53:00	28	46
174593	2026-06-08T14:03:00	27.4	47
174594	2026-06-08T14:13:00	27.1	47.5
174595	2026-06-08T14:23:00	24.1	82.5
174596	2026-06-08T14:33:00	21.8	98.5
174597	2026-06-08T14:43:00	22.6	99
174598	2026-06-08T14:53:00	22.8	92.5
174599	2026-06-08T15:03:00	22.7	91
174600	2026-06-08T15:13:00	21.2	93.5
174601	2026-06-08T15:23:00	21.1	90
174602	2026-06-08T15:33:00	21.4	81.5
174603	2026-06-08T15:43:00	21.5	81
174604	2026-06-08T15:53:00	21.6	79.5
174605	2026-06-08T16:03:00	22.3	80.5
174606	2026-06-08T16:13:00	22.7	78
174607	2026-06-08T16:23:00	22.6	77
174608	2026-06-08T16:33:00	22.6	77
174609	2026-06-08T16:43:00	22.8	76
174610	2026-06-08T16:53:00	22.7	75
174611	2026-06-08T17:03:00	23.1	76
174612	2026-06-08T17:13:00	23.3	73.5
174613	2026-06-08T17:23:00	23.1	73
174614	2026-06-08T17:33:00	22.6	74.5
174615	2026-06-08T17:43:00	22.3	75.5
174616	2026-06-08T17:53:00	22.4	76.5
174617	2026-06-08T18:03:00	22.2	75.5
174618	2026-06-08T18:13:00	21.9	75.5
174619	2026-06-08T18:23:00	21.8	78.5
174620	2026-06-08T18:33:00	21.7	79
174621	2026-06-08T18:43:19	21.8	79
174622	2026-06-08T18:53:00	21.6	79
174623	2026-06-08T19:03:00	21.5	78
174624	2026-06-08T19:13:00	21.4	78.5
174625	2026-06-08T19:23:00	21.2	80
174626	2026-06-08T19:33:00	21	80
174627	2026-06-08T19:43:00	20.8	80
174628	2026-06-08T19:53:00	20.6	80.5
174629	2026-06-08T20:03:00	20.4	80.5
174630	2026-06-08T20:13:00	20.2	81.5
174631	2026-06-08T20:23:00	19.8	82
174632	2026-06-08T20:33:00	19.6	81
174633	2026-06-08T20:43:00	19.4	82
174634	2026-06-08T20:53:00	19.2	82.5
174635	2026-06-08T21:03:00	19.2	82
174636	2026-06-08T21:13:00	19.2	82.5
174637	2026-06-08T21:23:00	19.2	82.5
174638	2026-06-08T21:33:00	19	83
174639	2026-06-08T21:43:00	19	84
174640	2026-06-08T21:53:00	18.8	84.5
174641	2026-06-08T22:03:00	19	85.5
174642	2026-06-08T22:23:00	19.1	85.5
174643	2026-06-08T22:43:00	19.1	85.5
174644	2026-06-08T22:52:59	19.1	86
174645	2026-06-08T23:02:59	19.1	86.5
174646	2026-06-08T23:12:59	19	88
174647	2026-06-08T23:22:59	18.9	88
174648	2026-06-08T23:32:59	19	88
174649	2026-06-08T23:42:59	19	88
174650	2026-06-08T23:52:59	17.6	100
174651	2026-06-09T00:02:59	17.3	100
174652	2026-06-09T00:12:59	17.3	100
174653	2026-06-09T00:22:59	17.3	100
174654	2026-06-09T00:32:59	17.2	100
174655	2026-06-09T00:42:59	17.1	100
174656	2026-06-09T00:52:59	17.3	100
174657	2026-06-09T01:02:59	17.2	100
174658	2026-06-09T01:12:59	17	100
174659	2026-06-09T01:22:59	17.2	100
174660	2026-06-09T01:32:59	17.1	100
174661	2026-06-09T01:42:59	17.3	97.5
174662	2026-06-09T01:52:59	17.4	97
174663	2026-06-09T02:02:59	17.2	97.5
174664	2026-06-09T02:12:59	17.2	97.5
174665	2026-06-09T02:22:59	17.2	95
174666	2026-06-09T02:32:59	17.3	91.5
174667	2026-06-09T02:42:59	17.2	89
174668	2026-06-09T02:52:59	17.1	88.5
174669	2026-06-09T03:02:59	17.2	88.5
174670	2026-06-09T03:12:59	17.1	87.5
174671	2026-06-09T03:32:59	17.2	87
174672	2026-06-09T03:42:59	17	92
174673	2026-06-09T03:52:59	16	100
174674	2026-06-09T04:02:59	15.8	100
174675	2026-06-09T04:12:59	15.6	100
174676	2026-06-09T04:22:59	15.6	100
174677	2026-06-09T04:32:59	15.5	100
174678	2026-06-09T04:42:59	15.4	100
174679	2026-06-09T04:52:59	15.4	99
174680	2026-06-09T05:02:59	15.5	98
174681	2026-06-09T05:12:59	15.4	96.5
174682	2026-06-09T05:22:59	15.3	93.5
174683	2026-06-09T05:32:59	15.1	92.5
174684	2026-06-09T05:42:59	15	91.5
174685	2026-06-09T05:52:59	14.9	89.5
174686	2026-06-09T06:02:59	15.1	90.5
174687	2026-06-09T06:12:59	15.1	89.5
174688	2026-06-09T06:22:59	15	90
174689	2026-06-09T06:32:59	14.9	89
174690	2026-06-09T06:42:59	15	88
174691	2026-06-09T06:52:59	15.1	86.5
174692	2026-06-09T07:02:59	15.7	85
174693	2026-06-09T07:12:59	15.8	84
174694	2026-06-09T07:22:59	15.8	81.5
174695	2026-06-09T07:32:59	16.1	79.5
174696	2026-06-09T07:42:59	16.2	78.5
174697	2026-06-09T07:52:59	16.4	77
174698	2026-06-09T08:02:59	16.4	76.5
174699	2026-06-09T08:12:59	16.6	75
174700	2026-06-09T08:22:59	16.7	75
174701	2026-06-09T08:32:59	16.6	75.5
174702	2026-06-09T08:42:59	16.9	75
174703	2026-06-09T08:52:59	16.8	75
174704	2026-06-09T09:02:59	17.1	73.5
174705	2026-06-09T09:12:59	17.3	73.5
174706	2026-06-09T09:22:59	17.5	74
174707	2026-06-09T09:32:59	17.4	73.5
174708	2026-06-09T09:42:59	17.7	70.5
174709	2026-06-09T09:52:59	17.9	68
174710	2026-06-09T10:02:59	18.2	68
174711	2026-06-09T10:12:59	18.5	66
174712	2026-06-09T10:22:59	18.4	64.5
174713	2026-06-09T10:32:59	18.1	65.5
174714	2026-06-09T10:42:58	18.3	65
174715	2026-06-09T10:52:58	18.1	60.5
174716	2026-06-09T11:02:58	18.2	62
174717	2026-06-09T11:12:58	18.4	61
174718	2026-06-09T11:22:58	18.5	60.5
174719	2026-06-09T11:32:58	18.8	60
174720	2026-06-09T11:42:58	18.9	59.5
174721	2026-06-09T12:02:58	19.8	57
174722	2026-06-09T12:12:58	19.6	55.5
174723	2026-06-09T12:22:58	19.8	52.5
174724	2026-06-09T12:32:58	20.8	49.5
174725	2026-06-09T12:42:58	22.6	47
174726	2026-06-09T12:52:58	23	44.5
174727	2026-06-09T13:02:58	22.6	44.5
174728	2026-06-09T13:12:58	23.7	44
174729	2026-06-09T13:22:58	25	38.5
174730	2026-06-09T13:32:58	24.4	39.5
174731	2026-06-09T13:42:58	25.9	36
174732	2026-06-09T13:52:58	25.9	36
174733	2026-06-09T14:02:58	25.5	37.5
174734	2026-06-09T14:12:58	25.9	36.5
174735	2026-06-09T14:22:58	26.3	35.5
174736	2026-06-09T14:32:58	25.9	36
174737	2026-06-09T14:42:58	26	35.5
174738	2026-06-09T14:52:58	25.6	37
174739	2026-06-09T15:03:19	25	38.5
174740	2026-06-09T15:12:58	26.2	37
174741	2026-06-09T15:22:58	25.7	36
174742	2026-06-09T15:32:58	25.6	35
174743	2026-06-09T15:42:58	25.1	37
174744	2026-06-09T15:52:58	24.8	36
174745	2026-06-09T16:02:58	25.1	36.5
174746	2026-06-09T16:12:58	25.8	36.5
174747	2026-06-09T16:22:58	26.1	35.5
174748	2026-06-09T16:32:58	26.3	34.5
174749	2026-06-09T16:42:58	26	36.5
174750	2026-06-09T16:52:58	26.5	35
174751	2026-06-09T17:02:58	24.7	38
174752	2026-06-09T17:12:58	24.2	40
174753	2026-06-09T17:22:58	23.1	41
174754	2026-06-09T17:32:58	23.2	40.5
174755	2026-06-09T17:42:58	23.7	39.5
174756	2026-06-09T17:52:58	25.4	37.5
174757	2026-06-09T18:02:58	25.9	38
174758	2026-06-09T18:12:58	26	38
174759	2026-06-09T18:22:58	25.5	39
174760	2026-06-09T18:32:58	24.2	40.5
174761	2026-06-09T18:42:58	22.7	44
174762	2026-06-09T18:52:58	22	45.5
174763	2026-06-09T19:02:58	21.7	46.5
174764	2026-06-09T19:12:58	21.3	49
174765	2026-06-09T19:22:58	20.8	52
174766	2026-06-09T19:32:58	20.6	53
174767	2026-06-09T19:42:58	20.2	55
174768	2026-06-09T19:52:58	19.9	55.5
174769	2026-06-09T20:02:58	19.8	56
174770	2026-06-09T20:12:58	19.5	58
174771	2026-06-09T20:22:58	19.1	60.5
174772	2026-06-09T20:32:58	18.7	61.5
174773	2026-06-09T20:42:57	18.5	61.5
174774	2026-06-09T20:52:58	18.3	62
174775	2026-06-09T21:02:57	18	62.5
174776	2026-06-09T21:12:57	18	62.5
174777	2026-06-09T21:22:57	17.9	62.5
174778	2026-06-09T21:32:57	17.8	62.5
174779	2026-06-09T21:42:57	17.7	61.5
174780	2026-06-09T21:52:57	17.6	61.5
174781	2026-06-09T22:02:57	17.7	62.5
174782	2026-06-09T22:12:57	17.5	60.5
174783	2026-06-09T22:22:57	17.3	62.5
174784	2026-06-09T22:32:57	17.1	63.5
174785	2026-06-09T22:42:57	17	64
174786	2026-06-09T22:52:57	16.9	65.5
174787	2026-06-09T23:02:57	16.8	64.5
174788	2026-06-09T23:12:57	16.8	64.5
174789	2026-06-09T23:22:57	16.5	66.5
174790	2026-06-09T23:32:57	16.2	67.5
174791	2026-06-09T23:42:57	16.2	67.5
174792	2026-06-09T23:52:57	16	69.5
174793	2026-06-10T00:02:57	15.8	68.5
174794	2026-06-10T00:12:57	15.6	69
174795	2026-06-10T00:22:57	15.5	70.5
174796	2026-06-10T00:32:57	15.3	71
174797	2026-06-10T00:42:57	15.2	72
174798	2026-06-10T00:52:57	15.1	72
174799	2026-06-10T01:02:57	15.1	72.5
174800	2026-06-10T01:12:57	15	73
174801	2026-06-10T01:22:57	14.9	71
174802	2026-06-10T01:32:57	14.8	70
174803	2026-06-10T01:42:57	14.7	71
174804	2026-06-10T01:52:57	14.6	72
174805	2026-06-10T02:02:57	14.5	72
174806	2026-06-10T02:12:57	14.4	72
174807	2026-06-10T02:22:57	14.3	73
174808	2026-06-10T02:32:57	14.1	73.5
174809	2026-06-10T02:42:57	13.9	74.5
174810	2026-06-10T02:52:57	13.8	75
174811	2026-06-10T03:02:57	13.7	74.5
174812	2026-06-10T03:12:57	13.6	74
174813	2026-06-10T03:22:57	13.7	73.5
174814	2026-06-10T03:32:57	13.6	75
174815	2026-06-10T03:42:57	13.4	75.5
174816	2026-06-10T03:52:57	13.5	75.5
174817	2026-06-10T04:02:57	13.5	75.5
174818	2026-06-10T04:12:57	13.6	75.5
174819	2026-06-10T04:22:57	13.6	75.5
174820	2026-06-10T04:32:57	13.6	75.5
174821	2026-06-10T04:42:57	13.8	74.5
174822	2026-06-10T04:52:57	14.1	74.5
174823	2026-06-10T05:02:57	14.1	75
174824	2026-06-10T05:12:57	14.2	75
174825	2026-06-10T05:22:57	14.4	75
174826	2026-06-10T05:32:57	14.7	74
174827	2026-06-10T05:42:57	15	74.5
174828	2026-06-10T05:52:57	15.2	74.5
174829	2026-06-10T06:02:57	15.4	75
174830	2026-06-10T06:12:57	15.6	71
174831	2026-06-10T06:22:57	15.9	71.5
174832	2026-06-10T06:32:57	15.9	67.5
174833	2026-06-10T06:42:57	16.1	67.5
174834	2026-06-10T06:52:57	16.3	65.5
174835	2026-06-10T07:02:57	16.4	63.5
174836	2026-06-10T07:12:57	16.5	64
174837	2026-06-10T07:22:57	16.8	65
174838	2026-06-10T07:32:57	16.8	63.5
174839	2026-06-10T07:42:57	17	64
174840	2026-06-10T07:52:57	17	64.5
174841	2026-06-10T08:02:57	17	63.5
174842	2026-06-10T08:12:57	17	62
174843	2026-06-10T08:22:57	17.3	61.5
174844	2026-06-10T08:32:56	17.8	59
174845	2026-06-10T08:42:56	18.6	55
174846	2026-06-10T08:52:56	18.6	57
174847	2026-06-10T09:02:56	18.6	55
174848	2026-06-10T09:12:56	19.4	56.5
174849	2026-06-10T09:22:56	19.7	55.5
174850	2026-06-10T09:32:56	20	52.5
174851	2026-06-10T09:42:56	19.8	51
174852	2026-06-10T09:52:56	19.6	52
174853	2026-06-10T10:02:56	20	52.5
174854	2026-06-10T10:12:56	20.6	49.5
174855	2026-06-10T10:22:56	20.6	49.5
174856	2026-06-10T10:32:56	20.7	50
174857	2026-06-10T10:42:56	20.7	51
174858	2026-06-10T10:52:56	20.8	50.5
174859	2026-06-10T11:02:56	20.9	46.5
174860	2026-06-10T11:12:56	21.1	45
174861	2026-06-10T11:22:56	21.8	42.5
174862	2026-06-10T11:32:56	21.9	45
174863	2026-06-10T11:42:56	21.8	43
174864	2026-06-10T11:52:56	21.6	42
174865	2026-06-10T12:02:56	21.2	45
174866	2026-06-10T12:12:56	21.3	46
174867	2026-06-10T12:22:56	21.6	46.5
174868	2026-06-10T12:32:56	19.4	54
174869	2026-06-10T12:42:56	18.3	57
174870	2026-06-10T12:52:56	17.3	59.5
174871	2026-06-10T13:02:56	16.8	62.5
174872	2026-06-10T13:12:56	16.5	65.5
174873	2026-06-10T13:22:56	16.4	66.5
174874	2026-06-10T13:32:56	16.2	67
174875	2026-06-10T13:42:56	16.7	65
174876	2026-06-10T13:52:56	16.8	62
174877	2026-06-10T14:02:56	17	63
174878	2026-06-10T14:12:56	17	65
174879	2026-06-10T14:22:56	16.9	67.5
174880	2026-06-10T14:32:56	17.6	66
174881	2026-06-10T14:42:56	17.6	66
174882	2026-06-10T14:52:56	18.2	64.5
174883	2026-06-10T15:02:56	20	60
174884	2026-06-10T15:12:56	19.9	58.5
174885	2026-06-10T15:22:56	20.4	56.5
174886	2026-06-10T15:32:56	20.8	55
174887	2026-06-10T15:42:56	21.7	53.5
174888	2026-06-10T15:52:56	22.1	52
174889	2026-06-10T16:02:56	21	53.5
174890	2026-06-10T16:12:56	22.3	51.5
174891	2026-06-10T16:22:56	22.7	49.5
174892	2026-06-10T16:32:56	20.9	54
174893	2026-06-10T16:42:56	20.9	54.5
174894	2026-06-10T16:52:56	19.8	56.5
174895	2026-06-10T17:02:56	19.4	57
174896	2026-06-10T17:12:56	19.1	59
174897	2026-06-10T17:22:56	18.8	59.5
174898	2026-06-10T17:32:56	19.7	58
174899	2026-06-10T17:42:56	22.3	50.5
174900	2026-06-10T17:52:56	23	48.5
174901	2026-06-10T18:02:56	21.3	53
174902	2026-06-10T18:12:56	18.9	59.5
174903	2026-06-10T18:22:56	17.7	62
174904	2026-06-10T18:32:56	17.7	62.5
174905	2026-06-10T18:42:56	17	65.5
174906	2026-06-10T18:52:56	16.8	66
174907	2026-06-10T19:02:55	16.4	67
174908	2026-06-10T19:12:55	14.8	75
174909	2026-06-10T19:22:55	14.1	79.5
174910	2026-06-10T19:32:55	13.2	89
174911	2026-06-10T19:42:55	13	86.5
174912	2026-06-10T19:52:55	12.7	88
174913	2026-06-10T20:02:55	12.8	92.5
174914	2026-06-10T20:12:55	12.5	92
174915	2026-06-10T20:22:55	12.6	92
174916	2026-06-10T20:32:55	12.7	91.5
174917	2026-06-10T20:42:55	12.3	92
174918	2026-06-10T20:52:55	12.2	92.5
174919	2026-06-10T21:02:55	12	93.5
174920	2026-06-10T21:12:55	11.8	93.5
174921	2026-06-10T21:22:55	11.7	93
174922	2026-06-10T21:32:55	11.7	92.5
174923	2026-06-10T21:42:55	11.6	90.5
174924	2026-06-10T21:52:55	11.8	90
174925	2026-06-10T22:02:55	11.8	90
174926	2026-06-10T22:12:55	11.9	89
174927	2026-06-10T22:22:55	11.8	89.5
174928	2026-06-10T22:32:55	11.8	89
174929	2026-06-10T22:42:55	12	89
174930	2026-06-10T22:52:55	11.9	88
174931	2026-06-10T23:02:55	11.9	88
174932	2026-06-10T23:12:55	11.9	90
174933	2026-06-10T23:22:55	11.7	92
174934	2026-06-10T23:32:55	11.6	92.5
174935	2026-06-10T23:42:55	11.7	93
174936	2026-06-10T23:52:55	11.9	91.5
174937	2026-06-11T00:02:55	12	91.5
174938	2026-06-11T00:12:55	12	96.5
174939	2026-06-11T00:22:55	11.9	98
174940	2026-06-11T00:32:55	12	99
174941	2026-06-11T00:42:55	12.1	99
174942	2026-06-11T00:52:55	12	98
174943	2026-06-11T01:02:55	11.9	96.5
174944	2026-06-11T01:12:55	11.8	95.5
174945	2026-06-11T01:22:55	11.7	94
174946	2026-06-11T01:32:55	11.7	93.5
174947	2026-06-11T01:42:55	11.8	94
174948	2026-06-11T01:52:55	11.8	93.5
174949	2026-06-11T02:02:55	11.9	94
174950	2026-06-11T02:12:55	11.9	94
174951	2026-06-11T02:22:55	11.8	93.5
174952	2026-06-11T02:32:55	11.9	94
174953	2026-06-11T02:42:55	12.1	94
174954	2026-06-11T02:52:55	11.9	94
174955	2026-06-11T03:02:55	12	94
174956	2026-06-11T03:12:55	12	94.5
174957	2026-06-11T03:22:55	12	94.5
174958	2026-06-11T03:32:55	12	94
174959	2026-06-11T03:42:55	11.8	94
174960	2026-06-11T03:52:55	11.8	94
174961	2026-06-11T04:02:55	11.9	94
174962	2026-06-11T04:12:55	11.9	93.5
174963	2026-06-11T04:22:55	11.9	93
174964	2026-06-11T04:32:55	12.1	93
174965	2026-06-11T04:42:55	12.1	93
174966	2026-06-11T04:52:55	12.3	92.5
174967	2026-06-11T05:02:55	12.4	91.5
174968	2026-06-11T05:12:55	12.6	90.5
174969	2026-06-11T05:22:55	12.6	90
174970	2026-06-11T05:32:55	12.7	89
174971	2026-06-11T05:42:55	13.1	88.5
174972	2026-06-11T06:02:55	13.3	87
174973	2026-06-11T06:12:55	13.7	85
174974	2026-06-11T06:22:55	13.6	84.5
174975	2026-06-11T06:32:55	13.6	84.5
174976	2026-06-11T06:42:55	13.5	85
174977	2026-06-11T06:52:55	13.5	85
174978	2026-06-11T07:02:55	13.4	85.5
174979	2026-06-11T07:12:55	13.8	84.5
174980	2026-06-11T07:22:55	13.9	83.5
174981	2026-06-11T07:32:55	14.3	81
174982	2026-06-11T07:42:55	14.3	80.5
174983	2026-06-11T07:52:55	14.2	80.5
174984	2026-06-11T08:02:55	14.8	79.5
174985	2026-06-11T08:12:55	14.7	78.5
174986	2026-06-11T08:22:55	15.4	78
174987	2026-06-11T08:32:54	15.4	75.5
174988	2026-06-11T08:42:54	15.6	74
174989	2026-06-11T08:52:54	15.2	75.5
174990	2026-06-11T09:02:54	15.6	70.5
174991	2026-06-11T09:12:54	15.9	70
174992	2026-06-11T09:22:54	16.4	67
174993	2026-06-11T09:32:54	16.7	65.5
174994	2026-06-11T09:42:54	17.2	65.5
174995	2026-06-11T09:52:54	17.3	62.5
174996	2026-06-11T10:02:54	16.8	64
174997	2026-06-11T10:12:54	16.9	60.5
174998	2026-06-11T10:22:54	17.2	65
174999	2026-06-11T10:32:54	17.3	62.5
175000	2026-06-11T10:42:54	17.2	63
175001	2026-06-11T10:52:54	17	65
175002	2026-06-11T11:02:54	17	63
175003	2026-06-11T11:12:54	17.7	59.5
175004	2026-06-11T11:22:54	17.5	58
175005	2026-06-11T11:32:54	17.9	57
175006	2026-06-11T11:42:54	18.2	56
175007	2026-06-11T11:52:54	18.7	56
175008	2026-06-11T12:02:54	19	55
175009	2026-06-11T12:12:54	18.6	56.5
175010	2026-06-11T12:22:54	17.9	57
175011	2026-06-11T12:32:54	18.7	57.5
175012	2026-06-11T12:42:54	21.6	51.5
175013	2026-06-11T12:52:54	22.1	49.5
175014	2026-06-11T13:02:54	22.1	50.5
175015	2026-06-11T13:12:54	22	49
175016	2026-06-11T13:22:54	20.3	52.5
175017	2026-06-11T13:32:54	19.4	55
175018	2026-06-11T13:42:54	20.3	52
175019	2026-06-11T13:52:54	21.7	49
175020	2026-06-11T14:02:54	23.1	48.5
175021	2026-06-11T14:12:54	22.7	47
175022	2026-06-11T14:22:54	22.1	47.5
175023	2026-06-11T14:32:54	21.7	48
175024	2026-06-11T14:42:54	20.9	49
175025	2026-06-11T14:52:54	21.8	47
175026	2026-06-11T15:02:54	22.6	46.5
175027	2026-06-11T15:12:54	22.4	46
175028	2026-06-11T15:22:54	21.3	49.5
175029	2026-06-11T15:32:55	20.8	51.5
175030	2026-06-11T15:42:54	20.6	53
175031	2026-06-11T15:52:54	20.1	54.5
175032	2026-06-11T16:02:54	20.2	54.5
175033	2026-06-11T16:12:54	19.9	54
175034	2026-06-11T16:22:54	20.1	52.5
175035	2026-06-11T16:32:54	20.3	52.5
175036	2026-06-11T16:42:54	19.9	53.5
175037	2026-06-11T16:52:54	19.5	53.5
175038	2026-06-11T17:02:54	19.4	54.5
175039	2026-06-11T17:12:54	19.2	55
175040	2026-06-11T17:22:54	18.9	55.5
175041	2026-06-11T17:32:54	18.7	56.5
175042	2026-06-11T17:42:54	18.7	57
175043	2026-06-11T17:52:54	18.4	57
175044	2026-06-11T18:02:54	18.7	57
175045	2026-06-11T18:12:54	18.7	57
175046	2026-06-11T18:22:54	18.4	57.5
175047	2026-06-11T18:32:54	18.3	58.5
175048	2026-06-11T18:42:54	17.9	58.5
175049	2026-06-11T18:52:54	17.7	61
175050	2026-06-11T19:02:54	17.6	62.5
175051	2026-06-11T19:12:54	17.4	64
175052	2026-06-11T19:22:53	17.2	63.5
175053	2026-06-11T19:32:53	17	64
175054	2026-06-11T19:42:54	17	65
175055	2026-06-11T19:52:53	16.8	64.5
175056	2026-06-11T20:02:54	16.8	64
175057	2026-06-11T20:12:54	16.7	63.5
175058	2026-06-11T20:22:53	16.5	64.5
175059	2026-06-11T20:32:54	16.5	65.5
175060	2026-06-11T20:42:53	16.4	66.5
175061	2026-06-11T20:52:53	15.8	74
175062	2026-06-11T21:02:53	15.1	79
175063	2026-06-11T21:12:53	14.9	82
175064	2026-06-11T21:22:53	15	84
175065	2026-06-11T21:32:53	14.9	86
175066	2026-06-11T21:42:53	14.8	83.5
175067	2026-06-11T22:02:53	14.6	83.5
175068	2026-06-11T22:12:53	14.6	82.5
175069	2026-06-11T22:22:53	14.6	83.5
175070	2026-06-11T22:32:53	14.6	84
175071	2026-06-11T22:42:53	14.6	84.5
175072	2026-06-11T22:52:53	14.5	85
175073	2026-06-11T23:02:53	14.4	82.5
175074	2026-06-11T23:12:53	14.6	80
175075	2026-06-11T23:22:53	14.4	81
175076	2026-06-11T23:32:53	14.2	83
175077	2026-06-11T23:42:53	14.1	82.5
175078	2026-06-11T23:52:53	14.1	81.5
175079	2026-06-12T00:02:53	14.2	80
175080	2026-06-12T00:12:53	14.2	79.5
175081	2026-06-12T00:22:53	14.2	79.5
175082	2026-06-12T00:32:53	14.3	78.5
175083	2026-06-12T00:42:53	14.2	79
175084	2026-06-12T00:52:53	14.3	78.5
175085	2026-06-12T01:02:53	14.2	78
175086	2026-06-12T01:12:53	14.3	77.5
175087	2026-06-12T01:22:53	14.3	77.5
175088	2026-06-12T01:32:53	14.4	76.5
175089	2026-06-12T01:42:53	14.6	75.5
175090	2026-06-12T01:52:53	14.6	76
175091	2026-06-12T02:02:53	14.3	83.5
175092	2026-06-12T02:12:53	12.8	96
175093	2026-06-12T02:22:53	12.5	99
175094	2026-06-12T02:32:53	12.3	100
175095	2026-06-12T02:42:53	12.3	100
175096	2026-06-12T02:52:53	12.2	100
175097	2026-06-12T03:02:53	12.2	100
175098	2026-06-12T03:12:53	12.1	100
175099	2026-06-12T03:22:53	12	100
175100	2026-06-12T03:32:53	12.1	100
175101	2026-06-12T03:42:53	11.9	100
175102	2026-06-12T03:52:53	12	100
175103	2026-06-12T04:02:53	12	100
175104	2026-06-12T04:12:53	12.1	100
175105	2026-06-12T04:22:53	12.1	100
175106	2026-06-12T04:32:53	12.1	100
175107	2026-06-12T04:42:53	12.2	100
175108	2026-06-12T04:52:53	12.3	100
175109	2026-06-12T05:02:53	12.3	100
175110	2026-06-12T05:12:53	12.3	100
175111	2026-06-12T05:22:53	12.4	100
175112	2026-06-12T05:32:53	12.4	100
175113	2026-06-12T05:42:53	12.4	100
175114	2026-06-12T05:52:53	12.5	100
175115	2026-06-12T06:02:53	12.5	100
175116	2026-06-12T06:12:53	12.6	100
175117	2026-06-12T06:22:53	12.6	100
175118	2026-06-12T06:32:53	12.7	100
175119	2026-06-12T06:42:53	12.7	100
175120	2026-06-12T06:52:53	12.7	100
175121	2026-06-12T07:02:53	13	100
175122	2026-06-12T07:12:53	13.1	100
175123	2026-06-12T07:22:53	13.4	100
175124	2026-06-12T07:32:53	13.5	100
175125	2026-06-12T07:42:53	13.6	100
175126	2026-06-12T07:52:53	13.9	100
175127	2026-06-12T08:02:52	13.9	100
175128	2026-06-12T08:12:52	14.1	100
175129	2026-06-12T08:22:52	14.3	100
175130	2026-06-12T08:32:52	14.5	100
175131	2026-06-12T08:42:52	14.7	100
175132	2026-06-12T08:52:52	14.9	100
175133	2026-06-12T09:02:52	15.2	100
175134	2026-06-12T09:12:52	15.2	100
175135	2026-06-12T09:22:52	15.2	100
175136	2026-06-12T09:32:52	15.2	100
175137	2026-06-12T09:42:52	15.3	100
175138	2026-06-12T09:52:52	15.2	100
175139	2026-06-12T10:02:52	15.1	100
175140	2026-06-12T10:12:52	15.5	100
175141	2026-06-12T10:22:52	15.4	100
175142	2026-06-12T10:32:52	15.2	100
175143	2026-06-12T10:42:52	15.5	100
175144	2026-06-12T10:52:52	15.7	100
175145	2026-06-12T11:02:52	15.9	100
175146	2026-06-12T11:12:52	16	100
175147	2026-06-12T11:22:52	16	100
175148	2026-06-12T11:32:52	16.1	100
175149	2026-06-12T11:42:52	15.8	100
175150	2026-06-12T11:52:52	15.8	100
175151	2026-06-12T12:02:52	15.9	100
175152	2026-06-12T12:12:52	16.1	100
175153	2026-06-12T12:22:52	16.4	100
175154	2026-06-12T12:32:52	16.6	99
175155	2026-06-12T12:42:52	16.8	97
175156	2026-06-12T12:52:52	16.9	96
175157	2026-06-12T13:02:52	17	95.5
175158	2026-06-12T13:12:52	17.3	94.5
175159	2026-06-12T13:22:52	17.4	94
175160	2026-06-12T13:32:52	17.3	93
175161	2026-06-12T13:42:52	17.1	94
175162	2026-06-12T13:52:52	16.9	94.5
175163	2026-06-12T14:02:52	16.5	97
175164	2026-06-12T14:12:52	16.2	99
175165	2026-06-12T14:22:52	16.2	98
175166	2026-06-12T14:32:52	16.2	97.5
175167	2026-06-12T14:42:52	16.3	96.5
175168	2026-06-12T14:52:52	16.6	95.5
175169	2026-06-12T15:02:52	16.9	94.5
175170	2026-06-12T15:12:52	17.1	93
175171	2026-06-12T15:22:52	17.3	92
175172	2026-06-12T15:32:52	18	90
175173	2026-06-12T15:42:52	17.9	90
175174	2026-06-12T15:52:52	17.9	90
175175	2026-06-12T16:02:52	17.9	91.5
175176	2026-06-12T16:12:52	18	90.5
175177	2026-06-12T16:22:52	18.1	90
175178	2026-06-12T16:32:52	18.1	91.5
175179	2026-06-12T16:42:52	18.4	90
175180	2026-06-12T16:52:52	18.2	89
175181	2026-06-12T17:02:52	18.1	89.5
175182	2026-06-12T17:12:52	18.1	90
175183	2026-06-12T17:22:52	18	90.5
175184	2026-06-12T17:32:52	17.9	91
175185	2026-06-12T17:42:52	17.9	91.5
175186	2026-06-12T17:52:52	17.9	92
175187	2026-06-12T18:02:52	17.7	92.5
175188	2026-06-12T18:12:52	17.6	93.5
175189	2026-06-12T18:22:52	17.6	93.5
175190	2026-06-12T18:32:52	17.4	94
175191	2026-06-12T18:52:52	17.3	94
175192	2026-06-12T19:02:52	17.3	93.5
175193	2026-06-12T19:12:52	17.4	93
175194	2026-06-12T19:22:52	17.5	92.5
175195	2026-06-12T19:32:52	17.5	92.5
175196	2026-06-12T19:42:51	17.4	92.5
175197	2026-06-12T19:52:51	17.5	92.5
175198	2026-06-12T20:02:51	17.5	92
175199	2026-06-12T20:12:51	17.5	91.5
175200	2026-06-12T20:22:51	17.6	91
175201	2026-06-12T20:32:51	17.7	90
175202	2026-06-12T20:42:51	17.9	89
175203	2026-06-12T20:52:51	18	88.5
175204	2026-06-12T21:02:51	18.2	87
175205	2026-06-12T21:12:51	18.2	87
175206	2026-06-12T21:22:51	18.2	87
175207	2026-06-12T21:32:51	18.3	86.5
175208	2026-06-12T21:42:51	18.4	86.5
175209	2026-06-12T21:52:51	18.4	86.5
175210	2026-06-12T22:02:51	18.4	86
175211	2026-06-12T22:12:51	18.3	86
175212	2026-06-12T22:22:51	18.3	86
175213	2026-06-12T22:32:51	18.5	85.5
175214	2026-06-12T22:42:51	18.3	85.5
175215	2026-06-12T22:52:51	18.3	86
175216	2026-06-12T23:02:51	18.5	85
175217	2026-06-12T23:12:51	18.5	85
175218	2026-06-12T23:22:51	18.6	85
175219	2026-06-12T23:32:51	18.7	84.5
175220	2026-06-12T23:42:51	18.7	84
175221	2026-06-12T23:52:51	18.6	84.5
175222	2026-06-13T00:02:51	18.6	84.5
175223	2026-06-13T00:12:51	18.5	85.5
175224	2026-06-13T00:22:51	18.5	85
175225	2026-06-13T00:32:51	18.5	85
175226	2026-06-13T00:42:51	18.6	85
175227	2026-06-13T00:52:51	18.4	85
175228	2026-06-13T01:02:51	18.4	85
175229	2026-06-13T01:12:51	18.5	85
175230	2026-06-13T01:22:51	18.6	84.5
175231	2026-06-13T01:32:51	18.6	84.5
175232	2026-06-13T01:42:51	18.7	84
175233	2026-06-13T01:52:51	18.9	84.5
175234	2026-06-13T02:02:51	18.9	84
175235	2026-06-13T02:12:51	18.8	84
175236	2026-06-13T02:22:51	18.8	84.5
175237	2026-06-13T02:32:51	18.6	84.5
175238	2026-06-13T02:42:51	18.7	84.5
175239	2026-06-13T02:52:51	18.6	85
175240	2026-06-13T03:02:51	18.6	85
175241	2026-06-13T03:12:51	18.5	85
175242	2026-06-13T03:22:51	18.5	85
175243	2026-06-13T03:32:51	18.5	85.5
175244	2026-06-13T03:42:51	18.5	85
175245	2026-06-13T03:52:51	18.6	85
175246	2026-06-13T04:02:51	18.6	85
175247	2026-06-13T04:12:51	18.6	85
175248	2026-06-13T04:22:51	18.7	85
175249	2026-06-13T04:32:51	18.8	84.5
175250	2026-06-13T04:42:51	18.9	84
175251	2026-06-13T04:52:51	19	84
175252	2026-06-13T05:02:51	19	84
175253	2026-06-13T05:12:51	19	84
175254	2026-06-13T05:22:51	19.1	84
175255	2026-06-13T05:32:51	19.2	83
175256	2026-06-13T05:42:51	19.3	83
175257	2026-06-13T05:52:51	19.3	83
175258	2026-06-13T06:02:51	19.2	83
175259	2026-06-13T06:12:51	19.3	83.5
175260	2026-06-13T06:22:50	19.2	83
175261	2026-06-13T06:32:50	19.4	81.5
175262	2026-06-13T06:42:50	19.6	80.5
175263	2026-06-13T06:52:50	19.8	79.5
175264	2026-06-13T07:02:50	20	79
175265	2026-06-13T07:12:50	20.2	78.5
175266	2026-06-13T07:22:50	20.3	76.5
175267	2026-06-13T07:32:50	20.5	76
175268	2026-06-13T07:42:50	20.7	74
175269	2026-06-13T07:52:50	20.8	74
175270	2026-06-13T08:02:50	21	73.5
175271	2026-06-13T08:12:50	20.8	72.5
175272	2026-06-13T08:22:50	21	72
175273	2026-06-13T08:32:50	21.1	71.5
175274	2026-06-13T08:42:50	21.3	71
175275	2026-06-13T08:52:50	21.4	70
175276	2026-06-13T09:02:50	21.4	70
175277	2026-06-13T09:12:50	21.8	66
175278	2026-06-13T09:22:50	21.8	65.5
175279	2026-06-13T09:32:50	22	63.5
175280	2026-06-13T09:42:50	22.3	63
175281	2026-06-13T09:52:50	22.5	61.5
175282	2026-06-13T10:02:50	22.7	60
175283	2026-06-13T10:12:50	22.8	57
175284	2026-06-13T10:22:50	22.9	56.5
175285	2026-06-13T10:32:50	23.2	57
175286	2026-06-13T10:42:50	23.3	54.5
175287	2026-06-13T10:52:50	23.6	55
175288	2026-06-13T11:02:50	24	54
175289	2026-06-13T11:12:50	24.1	51.5
175290	2026-06-13T11:22:50	24.3	50
175291	2026-06-13T11:32:50	24.6	50
175292	2026-06-13T11:42:50	24.8	48.5
175293	2026-06-13T11:52:50	25	47.5
175294	2026-06-13T12:02:50	25.2	49
175295	2026-06-13T12:12:50	26.3	48
175296	2026-06-13T12:22:50	28.2	44
175297	2026-06-13T12:42:50	29.7	41.5
175298	2026-06-13T12:52:50	30	41
175299	2026-06-13T13:02:50	30.7	39.5
175300	2026-06-13T13:12:50	30.8	38.5
175301	2026-06-13T13:22:50	31.3	39
175302	2026-06-13T13:32:50	32.1	37
175303	2026-06-13T13:42:50	32	36
175304	2026-06-13T13:52:50	31.9	35.5
175305	2026-06-13T14:02:50	32.6	35.5
175306	2026-06-13T14:51:19	33.1	34.5
175307	2026-06-13T14:51:19	32.7	35
175308	2026-06-13T14:51:23	32.8	35
175309	2026-06-13T14:51:23	32.4	35.5
175310	2026-06-13T14:52:50	33.6	34.5
175311	2026-06-13T15:02:50	34.1	33.5
175312	2026-06-13T15:12:50	34.3	33.5
175313	2026-06-13T15:22:50	34	34
175314	2026-06-13T15:32:50	33.7	34.5
175315	2026-06-13T15:42:50	34.5	33.5
175316	2026-06-13T15:52:50	34.4	33
175317	2026-06-13T16:02:50	34.4	33.5
175318	2026-06-13T16:12:50	33.4	34.5
175319	2026-06-13T16:22:50	34.9	33.5
175320	2026-06-13T16:32:49	34.1	34
175321	2026-06-13T16:42:49	34.9	33
175322	2026-06-13T16:52:49	33.5	34.5
175323	2026-06-13T17:02:49	33.7	34.5
175324	2026-06-13T17:12:49	33.6	35
175325	2026-06-13T17:22:49	33.1	35.5
175326	2026-06-13T17:32:49	33.2	36
175327	2026-06-13T17:42:49	33.1	35.5
175328	2026-06-13T17:52:49	33.3	35.5
175329	2026-06-13T18:03:08	33.1	36
175330	2026-06-13T18:12:49	31.7	38
175331	2026-06-13T18:22:49	31.5	39
175332	2026-06-13T19:52:49	25.1	51
175333	2026-06-13T20:02:49	24.5	52
175334	2026-06-13T20:12:49	24.2	53
175335	2026-06-13T20:22:49	24.1	54
175336	2026-06-13T20:32:49	23.8	55.5
175337	2026-06-13T20:42:49	23.6	56.5
175338	2026-06-13T20:52:49	23.5	59
175339	2026-06-13T21:02:49	22.9	60.5
175340	2026-06-13T21:12:49	22.5	62
175341	2026-06-13T21:22:49	22.4	62.5
175342	2026-06-13T21:32:49	22.4	62
175343	2026-06-13T21:42:49	22.1	62.5
175344	2026-06-13T21:52:49	21.8	63.5
175345	2026-06-13T22:02:49	21.5	64.5
175346	2026-06-13T22:12:49	21.3	64.5
175347	2026-06-13T22:22:49	21.2	65.5
175348	2026-06-13T22:32:49	20.9	66.5
175349	2026-06-13T22:42:49	20.7	67
175350	2026-06-13T22:52:49	20.3	67.5
175351	2026-06-13T23:02:49	20.2	68
175352	2026-06-13T23:12:49	20.1	69
175353	2026-06-13T23:22:49	19.8	68.5
175354	2026-06-13T23:42:49	19.3	69
175355	2026-06-13T23:52:49	19	70
175356	2026-06-14T00:02:49	18.8	68
175357	2026-06-14T00:12:49	18.7	68
175358	2026-06-14T00:22:49	18.7	67
175359	2026-06-14T00:32:49	18.8	67
175360	2026-06-14T00:42:49	18.7	67
175361	2026-06-14T00:52:49	18.7	66
175362	2026-06-14T01:02:49	18.4	68
175363	2026-06-14T01:22:49	17.9	67.5
175364	2026-06-14T01:32:49	17.7	68.5
175365	2026-06-14T01:42:49	17.7	69
175366	2026-06-14T01:52:49	17.4	69
175367	2026-06-14T02:02:49	17.4	69
175368	2026-06-14T02:12:49	17.3	70
175369	2026-06-14T02:22:49	17	70.5
175370	2026-06-14T02:32:49	17	71
175371	2026-06-14T02:42:49	16.7	71.5
175372	2026-06-14T02:52:49	16.6	72.5
175373	2026-06-14T03:02:49	16.3	73
175374	2026-06-14T03:12:49	16	74
175375	2026-06-14T03:22:49	15.8	75
175376	2026-06-14T03:32:48	15.6	75
175377	2026-06-14T03:42:48	15.4	75.5
175378	2026-06-14T03:52:48	15.4	76
175379	2026-06-14T04:02:49	15.6	76
175380	2026-06-14T04:12:48	15.5	76.5
175381	2026-06-14T04:22:48	15.8	76
175382	2026-06-14T04:32:48	15.9	74
175383	2026-06-14T04:42:48	16	74
175384	2026-06-14T04:52:48	16.2	74
175385	2026-06-14T05:02:48	16.1	75
175386	2026-06-14T05:12:48	15.9	74
175387	2026-06-14T05:22:48	16.1	74
175388	2026-06-14T05:32:48	15.8	75
175389	2026-06-14T05:42:48	16	74.5
175390	2026-06-14T05:52:48	16.1	73
175391	2026-06-14T06:02:48	16.2	71
175392	2026-06-14T06:12:48	16.5	68
175393	2026-06-14T06:22:48	16.7	68.5
175394	2026-06-14T06:32:48	17	66.5
175395	2026-06-14T06:42:48	17.2	64.5
175396	2026-06-14T06:52:48	17.4	64
175397	2026-06-14T07:02:48	17.7	64.5
175398	2026-06-14T07:12:48	17.8	64.5
175399	2026-06-14T07:22:48	18	65.5
175400	2026-06-14T07:32:48	18.2	64
175401	2026-06-14T07:42:48	18.5	64
175402	2026-06-14T07:52:48	18.5	64
175403	2026-06-14T08:02:48	19	61.5
175404	2026-06-14T08:12:48	19.3	57.5
175405	2026-06-14T08:22:48	19.6	58.5
175406	2026-06-14T08:32:48	19.9	58.5
175407	2026-06-14T08:42:48	20.3	58
175408	2026-06-14T08:52:48	20.2	60.5
175409	2026-06-14T09:02:48	20.4	59
175410	2026-06-14T09:12:48	20.4	59
175411	2026-06-14T09:22:48	20.4	59.5
175412	2026-06-14T09:32:48	21	57
175413	2026-06-14T09:42:48	20.9	58.5
175414	2026-06-14T09:52:48	20.9	57
175415	2026-06-14T10:02:48	20.9	56
175416	2026-06-14T10:12:48	21.5	54.5
175417	2026-06-14T10:22:48	21.5	55
175418	2026-06-14T10:32:48	21.7	54
175419	2026-06-14T10:42:48	22.1	51.5
175420	2026-06-14T10:52:48	22.3	51
175421	2026-06-14T11:02:48	21.8	53.5
175422	2026-06-14T11:12:48	22	52.5
175423	2026-06-14T11:22:48	22.6	51.5
175424	2026-06-14T11:32:48	22.8	52.5
175425	2026-06-14T11:42:48	22.5	50.5
175426	2026-06-14T11:52:48	23	50.5
175427	2026-06-14T12:02:48	23.5	47
175428	2026-06-14T12:12:48	23.5	49.5
175429	2026-06-14T12:22:48	25.1	44
175430	2026-06-14T12:32:48	25.9	44.5
175431	2026-06-14T12:42:48	25.9	43.5
175432	2026-06-14T12:52:48	27.3	41.5
175433	2026-06-14T13:02:48	27.1	39.5
175434	2026-06-14T13:12:48	27.8	39
175435	2026-06-14T13:22:48	26.4	42
175436	2026-06-14T13:32:48	28.6	39
175437	2026-06-14T13:42:48	29.5	36.5
175438	2026-06-14T13:52:47	28.4	37
175439	2026-06-14T14:02:47	28.2	39.5
175440	2026-06-14T14:12:47	28.8	38.5
175441	2026-06-14T14:22:47	28.5	39
175442	2026-06-14T14:32:47	27.8	39
175443	2026-06-14T14:42:47	28	38
175444	2026-06-14T14:52:47	27.7	38.5
175445	2026-06-14T15:02:47	30.3	36.5
175446	2026-06-14T15:12:47	30.9	35
175447	2026-06-14T15:22:47	29.3	35.5
175448	2026-06-14T15:32:47	30.1	33.5
175449	2026-06-14T15:42:47	31	33.5
175450	2026-06-14T15:52:47	31.4	32
175451	2026-06-14T16:02:47	28.7	36
175452	2026-06-14T16:12:47	29.6	35
175453	2026-06-14T16:22:47	29.8	35
175454	2026-06-14T16:32:47	30.9	33
175455	2026-06-14T16:42:47	27.6	37.5
175456	2026-06-14T16:52:47	27.4	38.5
175457	2026-06-14T17:02:47	26.9	37.5
175458	2026-06-14T17:12:47	26.7	38.5
175459	2026-06-14T17:22:47	28.7	36
175460	2026-06-14T17:32:47	29.3	35.5
175461	2026-06-14T17:42:47	29.6	34.5
175462	2026-06-14T17:52:47	28.3	36.5
175463	2026-06-14T18:02:47	26.9	38
175464	2026-06-14T18:12:47	27	39
175465	2026-06-14T18:22:47	27.1	38.5
175466	2026-06-14T18:32:47	27.6	38.5
175467	2026-06-14T18:42:47	27.9	37
175468	2026-06-14T18:52:47	27.1	39
175469	2026-06-14T19:02:47	24.9	42
175470	2026-06-14T19:12:47	24	44
175471	2026-06-14T19:22:47	23.4	45
175472	2026-06-14T19:32:47	22.9	46.5
175473	2026-06-14T19:42:47	22.8	46.5
175474	2026-06-14T19:52:47	22.1	48.5
175475	2026-06-14T20:02:47	22	49.5
175476	2026-06-14T20:12:47	21.5	54
175477	2026-06-14T20:22:47	20.9	56.5
175478	2026-06-14T20:32:47	20.4	58
175479	2026-06-14T20:42:47	20	57.5
175480	2026-06-14T20:52:47	19.9	58
175481	2026-06-14T21:02:47	19.5	60.5
175482	2026-06-14T21:12:47	19.1	60
175483	2026-06-14T21:22:47	18.8	61
175484	2026-06-14T21:32:47	18.7	61
175485	2026-06-14T21:42:47	18.8	61
175486	2026-06-14T21:52:47	18.4	62
175487	2026-06-14T22:02:47	18.3	63
175488	2026-06-14T22:12:47	18.2	64
175489	2026-06-14T22:23:07	17.8	66.5
175490	2026-06-14T22:32:47	17.5	67
175491	2026-06-14T22:42:47	17.4	67.5
175492	2026-06-14T22:52:47	17.5	67
175493	2026-06-14T23:02:47	17.4	68.5
175494	2026-06-14T23:12:47	17	69
175495	2026-06-14T23:22:47	16.7	70.5
175496	2026-06-14T23:32:47	16.4	72
175497	2026-06-14T23:42:47	16.3	71.5
175498	2026-06-14T23:52:46	16.4	71.5
175499	2026-06-15T00:02:46	16.3	71.5
175500	2026-06-15T00:12:46	16.2	72.5
175501	2026-06-15T00:22:46	15.9	74
175502	2026-06-15T00:32:46	15.6	73.5
175503	2026-06-15T00:42:46	15.7	73
175504	2026-06-15T00:52:46	15.6	73.5
175505	2026-06-15T01:02:46	15.4	74
175506	2026-06-15T01:12:46	15.3	74
175507	2026-06-15T01:23:05	15.4	74
175508	2026-06-15T01:32:46	15.5	74
175509	2026-06-15T01:42:46	15.5	74.5
175510	2026-06-15T01:52:46	15.4	74.5
175511	2026-06-15T02:02:46	15.3	75
175512	2026-06-15T02:12:46	15.1	75.5
175513	2026-06-15T02:22:46	14.9	75.5
175514	2026-06-15T02:32:46	14.8	76.5
175515	2026-06-15T02:42:46	14.8	76
175516	2026-06-15T02:52:46	14.2	77.5
175517	2026-06-15T03:02:46	14.2	78
175518	2026-06-15T03:12:46	14.3	78
175519	2026-06-15T03:22:46	14	78
175520	2026-06-15T03:32:46	14	79
175521	2026-06-15T03:42:46	14.1	80
175522	2026-06-15T03:52:46	13.9	80.5
175523	2026-06-15T04:02:46	13.7	81
175524	2026-06-15T04:12:46	13.6	82
175525	2026-06-15T04:22:46	13.3	83
175526	2026-06-15T04:32:46	13.4	82
175527	2026-06-15T04:42:46	13.3	82
175528	2026-06-15T04:52:46	13.3	81
175529	2026-06-15T05:02:46	13.3	81
175530	2026-06-15T05:12:46	13.6	80
175531	2026-06-15T05:22:46	13.9	79.5
175532	2026-06-15T05:32:46	14.2	80.5
175533	2026-06-15T05:42:46	14.3	81
175534	2026-06-15T05:52:46	14.5	80
175535	2026-06-15T06:02:46	14.6	80.5
175536	2026-06-15T06:12:46	14.7	80
175537	2026-06-15T06:22:46	14.7	78
175538	2026-06-15T06:32:46	14.8	77.5
175539	2026-06-15T06:42:46	14.9	76
175540	2026-06-15T06:52:46	15.1	73.5
175541	2026-06-15T07:02:46	15.3	73.5
175542	2026-06-15T07:12:46	15.7	71
175543	2026-06-15T07:22:46	15.8	71.5
175544	2026-06-15T07:32:46	16.1	70.5
175545	2026-06-15T07:42:46	16.4	69.5
175546	2026-06-15T07:52:46	16.8	70
175547	2026-06-15T08:02:46	16.9	67.5
175548	2026-06-15T08:12:46	17.5	66
175549	2026-06-15T08:22:46	18.3	63.5
175550	2026-06-15T08:32:46	18.1	62.5
175551	2026-06-15T08:42:46	18.5	62.5
175552	2026-06-15T08:52:46	18.4	61.5
175553	2026-06-15T09:02:46	19	59.5
175554	2026-06-15T09:12:46	19	61
175555	2026-06-15T09:22:46	19.2	59.5
175556	2026-06-15T09:32:46	19.3	57
175557	2026-06-15T09:42:46	19.4	58
175558	2026-06-15T09:52:46	19.4	57
175559	2026-06-15T10:02:46	19.3	58
175560	2026-06-15T10:12:46	19.8	57.5
175561	2026-06-15T10:22:46	19.4	57.5
175562	2026-06-15T10:32:46	19.7	56.5
175563	2026-06-15T10:42:46	19.4	56.5
175564	2026-06-15T10:52:46	19.7	56
175565	2026-06-15T11:02:46	19.8	56
175566	2026-06-15T11:12:46	19.8	54.5
175567	2026-06-15T11:22:46	20	53
175568	2026-06-15T11:32:46	20.2	54.5
175569	2026-06-15T11:42:45	20.6	54
175570	2026-06-15T11:52:45	20.9	53.5
175571	2026-06-15T12:02:45	21.2	50.5
175572	2026-06-15T12:12:45	22.4	49
175573	2026-06-15T12:22:45	25.2	46
175574	2026-06-15T12:32:45	26.4	42
175575	2026-06-15T12:42:45	27.6	39.5
175576	2026-06-15T12:52:45	28	39.5
175577	2026-06-15T13:02:45	29	38.5
175578	2026-06-15T13:12:45	29.4	36.5
175579	2026-06-15T13:22:45	31.3	33
175580	2026-06-15T13:32:45	31.2	32.5
175581	2026-06-15T13:42:45	31.1	33
175582	2026-06-15T13:52:45	32.8	31
175583	2026-06-15T14:02:45	33.1	28.5
175584	2026-06-15T14:12:45	34.1	28.5
175585	2026-06-15T14:22:45	33.8	28.5
175586	2026-06-15T14:32:45	33.2	28
175587	2026-06-15T14:42:45	33.8	27
175588	2026-06-15T14:52:45	34.6	27
175589	2026-06-15T15:02:45	33.1	28
175590	2026-06-15T15:12:45	35.9	26
175591	2026-06-15T15:22:45	34	27
175592	2026-06-15T15:32:45	34.1	27.5
175593	2026-06-15T15:42:45	35.4	26
175594	2026-06-15T15:52:45	35.1	25.5
175595	2026-06-15T16:02:45	36.9	23.5
175596	2026-06-15T16:12:45	35.5	25
175597	2026-06-15T16:22:45	35.7	25
175598	2026-06-15T16:32:45	34	25.5
175599	2026-06-15T16:42:45	32.6	27
175600	2026-06-15T16:52:45	34.4	26.5
175601	2026-06-15T17:02:45	33.8	26.5
175602	2026-06-15T17:12:45	32.8	28
175603	2026-06-15T17:22:45	32.3	28.5
175604	2026-06-15T17:32:45	33.7	27
175605	2026-06-15T17:42:45	33.9	27
175606	2026-06-15T17:52:45	33.6	27.5
175607	2026-06-15T18:02:45	31.7	29.5
175608	2026-06-15T18:12:45	29.9	31
175609	2026-06-15T18:22:45	29.1	33.5
175610	2026-06-15T18:32:45	27.3	36
175611	2026-06-15T18:42:45	26.5	38
175612	2026-06-15T18:52:45	26.8	41.5
175613	2026-06-15T19:02:45	26	45
175614	2026-06-15T19:12:45	25.3	46
175615	2026-06-15T19:22:45	24.6	46.5
175616	2026-06-15T19:32:45	24.2	48.5
175617	2026-06-15T19:42:45	23.6	48.5
175618	2026-06-15T19:52:45	23.1	49.5
175619	2026-06-15T20:02:45	22.7	51
175620	2026-06-15T20:12:45	22.1	52.5
175621	2026-06-15T20:22:45	21.7	53
175622	2026-06-15T20:32:45	21.5	54.5
175623	2026-06-15T20:42:45	21.5	54.5
175624	2026-06-15T20:52:45	21.3	54.5
175625	2026-06-15T21:02:45	21.2	55.5
175626	2026-06-15T21:12:45	20.9	57
175627	2026-06-15T21:22:45	20.5	59
175628	2026-06-15T21:32:45	20.4	58.5
175629	2026-06-15T21:42:45	20.2	59.5
175630	2026-06-15T21:52:45	19.9	61
175631	2026-06-15T22:02:44	19.8	61.5
175632	2026-06-15T22:12:44	19.9	61.5
175633	2026-06-15T22:22:44	19.8	62
175634	2026-06-15T22:32:44	19.6	63
175635	2026-06-15T22:42:44	19.5	62.5
175636	2026-06-15T22:52:44	19.3	64.5
175637	2026-06-15T23:02:44	19	64.5
175638	2026-06-15T23:12:44	18.6	66.5
175639	2026-06-15T23:22:44	18.3	67
175640	2026-06-15T23:32:44	18.1	68
175641	2026-06-15T23:42:44	18	69
175642	2026-06-15T23:52:44	17.9	69
175643	2026-06-16T00:02:44	17.7	69.5
175644	2026-06-16T00:12:44	17.3	70.5
175645	2026-06-16T00:22:44	17.3	71
175646	2026-06-16T00:32:44	16.9	72
175647	2026-06-16T00:42:44	16.7	72.5
175648	2026-06-16T00:52:44	16.6	72
175649	2026-06-16T01:02:44	16.3	73
175650	2026-06-16T01:12:44	16.2	72.5
175651	2026-06-16T01:22:44	16.1	73
175652	2026-06-16T01:32:44	16	73
175653	2026-06-16T01:42:44	15.8	73
175654	2026-06-16T01:52:44	15.6	73
175655	2026-06-16T02:02:44	15.6	73
175656	2026-06-16T02:12:44	15.4	73.5
175657	2026-06-16T02:22:44	15.3	74
175658	2026-06-16T02:32:44	15	75.5
175659	2026-06-16T02:42:44	15	75.5
175660	2026-06-16T02:52:44	15.1	75.5
175661	2026-06-16T03:02:44	15.1	75.5
175662	2026-06-16T03:12:44	14.9	76.5
175663	2026-06-16T03:22:44	14.9	76
175664	2026-06-16T03:32:44	14.8	75.5
175665	2026-06-16T03:42:44	14.9	75.5
175666	2026-06-16T03:52:44	15.1	74.5
175667	2026-06-16T04:02:44	15.1	76.5
175668	2026-06-16T04:12:44	15.2	77
175669	2026-06-16T04:22:44	15.4	77
175670	2026-06-16T04:32:44	15.4	76
175671	2026-06-16T04:42:44	15.7	77
175672	2026-06-16T04:52:44	15.6	77.5
175673	2026-06-16T05:02:44	15.8	78
175674	2026-06-16T05:12:44	16	75
175675	2026-06-16T05:22:44	16.1	74.5
175676	2026-06-16T05:32:44	16.1	75.5
175677	2026-06-16T05:42:44	16.2	77
175678	2026-06-16T05:52:44	16.6	76
175679	2026-06-16T06:02:44	16.7	74.5
175680	2026-06-16T06:12:44	17	73
175681	2026-06-16T06:22:44	17	73.5
175682	2026-06-16T06:32:44	17.4	72.5
175683	2026-06-16T06:42:44	17.7	73
175684	2026-06-16T06:52:44	17.7	75
175685	2026-06-16T07:02:44	17.7	74
175686	2026-06-16T07:12:44	18.2	72
175687	2026-06-16T07:22:44	18.1	72.5
175688	2026-06-16T07:32:44	18.2	72.5
175689	2026-06-16T07:42:44	18.3	73.5
175690	2026-06-16T07:52:44	18.6	74
175691	2026-06-16T08:02:44	18.9	74.5
175692	2026-06-16T08:12:44	19.6	72.5
175693	2026-06-16T08:22:44	20.4	73
175694	2026-06-16T08:32:44	21.1	70
175695	2026-06-16T08:42:44	21.6	71
175696	2026-06-16T08:52:44	22.4	65
175697	2026-06-16T09:02:44	23.1	60.5
175698	2026-06-16T09:12:43	23.5	59.5
175699	2026-06-16T09:22:43	23.8	55.5
175700	2026-06-16T09:32:43	24	56
175701	2026-06-16T09:42:43	24.1	56.5
175702	2026-06-16T09:52:43	24.3	56.5
175703	2026-06-16T10:02:43	24.2	57
175704	2026-06-16T10:12:43	24.2	57.5
175705	2026-06-16T10:22:43	24.2	57
175706	2026-06-16T10:32:43	24.1	58
175707	2026-06-16T10:42:43	24.4	57.5
175708	2026-06-16T10:52:43	24.4	56
175709	2026-06-16T11:02:43	24.5	56
175710	2026-06-16T11:12:43	24.9	55.5
175711	2026-06-16T11:22:43	25.3	54.5
175712	2026-06-16T11:32:43	25.3	56
175713	2026-06-16T11:42:43	25.2	56.5
175714	2026-06-16T11:52:43	25.7	54.5
175715	2026-06-16T12:02:43	25.7	54.5
175716	2026-06-16T12:12:43	25.5	54.5
175717	2026-06-16T12:22:43	26.2	54.5
175718	2026-06-16T12:32:43	26.3	52
175719	2026-06-16T12:42:43	26.5	53
175720	2026-06-16T13:02:43	26.1	54
175721	2026-06-16T13:12:43	26.2	57
175722	2026-06-16T13:22:43	26.1	56
175723	2026-06-16T13:32:43	25.9	57
175724	2026-06-16T13:42:43	26	56
175725	2026-06-16T13:52:43	27.8	53.5
175726	2026-06-16T14:02:43	28.9	50.5
175727	2026-06-16T14:12:43	30.1	46.5
175728	2026-06-16T14:22:43	29.8	49
175729	2026-06-16T14:32:43	29.9	47
175730	2026-06-16T14:42:43	29.6	45
175731	2026-06-16T14:52:43	31.6	43.5
175732	2026-06-16T15:02:43	31.6	43
175733	2026-06-16T15:12:43	33.8	39.5
175734	2026-06-16T15:22:43	35.1	37.5
175735	2026-06-16T15:32:43	34	39
175736	2026-06-16T15:42:43	33.4	40
175737	2026-06-16T15:52:43	31.7	43.5
175738	2026-06-16T16:02:43	30.7	44
175739	2026-06-16T16:12:43	30.6	45
175740	2026-06-16T16:22:43	32	43.5
175741	2026-06-16T16:32:43	34.7	39.5
175742	2026-06-16T16:42:43	34.1	39.5
175743	2026-06-16T16:52:43	32.1	41.5
175744	2026-06-16T17:02:43	32.3	41.5
175745	2026-06-16T17:22:43	34.7	37
175746	2026-06-16T17:32:43	34.9	36.5
175747	2026-06-16T17:42:43	34.5	37
175748	2026-06-16T17:52:43	32.5	39
175749	2026-06-16T18:02:43	30.5	42
175750	2026-06-16T18:12:43	29.7	43.5
175751	2026-06-16T18:22:43	29.3	44
175752	2026-06-16T18:32:43	28.8	46
175753	2026-06-16T18:42:43	28.4	46.5
175754	2026-06-16T18:52:43	28	47
175755	2026-06-16T19:02:42	27.8	47
175756	2026-06-16T19:12:42	27.5	46
175757	2026-06-16T19:22:42	27.3	46
175758	2026-06-16T19:32:42	27	46.5
175759	2026-06-16T19:42:42	26.5	53
175760	2026-06-16T19:52:43	25.9	54.5
175761	2026-06-16T20:02:43	25.6	54.5
175762	2026-06-16T20:12:42	25.3	54.5
175763	2026-06-16T20:22:43	25.2	55
175764	2026-06-16T20:32:42	24.8	54.5
175765	2026-06-16T20:42:43	24.6	53.5
175766	2026-06-16T20:52:42	24.4	53.5
175767	2026-06-16T21:02:42	24.3	54
175768	2026-06-16T21:12:42	24.3	55
175769	2026-06-16T21:22:42	24.2	55.5
175770	2026-06-16T21:32:42	24.1	56.5
175771	2026-06-16T21:42:42	23.6	57
175772	2026-06-16T21:52:42	23.5	58.5
175773	2026-06-16T22:02:42	23.3	60
175774	2026-06-16T22:12:42	23	61
175775	2026-06-16T22:22:42	22.8	61
175776	2026-06-16T22:32:42	22.7	62
175777	2026-06-16T22:42:42	22.5	63
175778	2026-06-16T22:52:42	22.6	63
175779	2026-06-16T23:02:42	22.5	63.5
175780	2026-06-16T23:12:42	22.4	64.5
175781	2026-06-16T23:22:42	22.3	64.5
175782	2026-06-16T23:32:42	22.2	66
175783	2026-06-16T23:42:42	22	67.5
175784	2026-06-16T23:52:42	21.8	68.5
175785	2026-06-17T00:02:42	21.8	68.5
175786	2026-06-17T00:12:42	21.5	69.5
175787	2026-06-17T00:22:42	21.4	71
175788	2026-06-17T00:32:42	21.2	71
175789	2026-06-17T00:42:42	20.8	72
175790	2026-06-17T00:52:42	20.7	72.5
175791	2026-06-17T01:02:42	20.2	73
175792	2026-06-17T01:12:42	20.1	74
175793	2026-06-17T01:22:42	19.9	74
175794	2026-06-17T01:32:42	19.7	75
175795	2026-06-17T01:42:42	19.5	76
175796	2026-06-17T01:52:42	19.4	76.5
175797	2026-06-17T02:02:42	19	77.5
175798	2026-06-17T02:12:42	18.9	77.5
175799	2026-06-17T02:22:42	18.8	77.5
175800	2026-06-17T02:32:42	18.5	78
175801	2026-06-17T02:42:42	18.5	78.5
175802	2026-06-17T02:52:42	18.3	78.5
175803	2026-06-17T03:02:42	18	79.5
175804	2026-06-17T03:12:42	17.9	80.5
175805	2026-06-17T03:22:42	17.8	80.5
175806	2026-06-17T03:32:42	17.7	80.5
175807	2026-06-17T03:42:42	17.7	80.5
175808	2026-06-17T03:52:42	17.7	81
175809	2026-06-17T04:02:42	17.7	81
175810	2026-06-17T04:12:42	17.8	80.5
175811	2026-06-17T04:22:42	18	80.5
175812	2026-06-17T04:32:42	18.1	81
175813	2026-06-17T04:42:42	18.1	81.5
175814	2026-06-17T04:52:42	18.2	82
175815	2026-06-17T05:02:42	18.2	81.5
175816	2026-06-17T05:12:42	18.4	81.5
175817	2026-06-17T05:22:42	18.9	80.5
175818	2026-06-17T05:32:41	18.8	81.5
175819	2026-06-17T05:42:41	19	82
175820	2026-06-17T05:52:41	19.3	81.5
175821	2026-06-17T06:02:41	19.5	80.5
175822	2026-06-17T06:12:41	20.1	75
175823	2026-06-17T06:22:41	20.5	74
175824	2026-06-17T06:32:41	20.8	72.5
175825	2026-06-17T06:42:41	21	71
175826	2026-06-17T06:52:41	21.3	71
175827	2026-06-17T07:02:41	21.7	69
175828	2026-06-17T07:12:41	22.1	69
175829	2026-06-17T07:22:41	22.2	68.5
175830	2026-06-17T07:32:41	22.5	68.5
175831	2026-06-17T07:42:41	22.8	68
175832	2026-06-17T07:52:41	22.8	67.5
175833	2026-06-17T08:02:41	22.7	67.5
175834	2026-06-17T08:12:41	22.9	67.5
175835	2026-06-17T08:22:41	23.4	67
175836	2026-06-17T08:32:41	23.3	66.5
175837	2026-06-17T08:42:41	23.3	66
175838	2026-06-17T08:52:41	23.5	64.5
175839	2026-06-17T09:02:41	23.6	65
175840	2026-06-17T09:32:41	24.1	58
175841	2026-06-17T09:42:41	24.3	56.5
175842	2026-06-17T09:52:41	24.6	53.5
175843	2026-06-17T10:02:41	24.7	52.5
175844	2026-06-17T10:12:41	24.9	53
175845	2026-06-17T10:22:41	25.2	54
175846	2026-06-17T10:32:41	25.1	56
175847	2026-06-17T10:42:41	25.3	54
175848	2026-06-17T10:52:41	25.7	51.5
175849	2026-06-17T11:02:41	26.1	52
175850	2026-06-17T11:12:41	26.2	51.5
175851	2026-06-17T11:22:41	26.3	51.5
175852	2026-06-17T11:32:41	27	51.5
175853	2026-06-17T11:42:41	27.5	49
175854	2026-06-17T11:52:41	27.7	46
175855	2026-06-17T12:02:41	28.4	45
175856	2026-06-17T12:12:41	29.3	43
175857	2026-06-17T12:22:41	31.5	39.5
175858	2026-06-17T12:32:41	33.3	37.5
175859	2026-06-17T12:42:41	35	34.5
175860	2026-06-17T12:52:41	35.3	33
175861	2026-06-17T13:02:41	35.5	32
175862	2026-06-17T13:12:41	36.9	30.5
175863	2026-06-17T13:22:41	37.1	30
175864	2026-06-17T13:32:41	36.8	30
175865	2026-06-17T13:42:41	38.2	29.5
175866	2026-06-17T13:52:41	37.5	32
175867	2026-06-17T14:02:41	39.2	29
175868	2026-06-17T14:12:41	39.6	27
175869	2026-06-17T14:22:41	36.5	29.5
175870	2026-06-17T14:32:41	36	30
175871	2026-06-17T14:42:41	37.5	28
175872	2026-06-17T14:52:41	38.6	27
175873	2026-06-17T15:02:41	40.3	26
175874	2026-06-17T15:12:41	40.1	26.5
175875	2026-06-17T15:22:41	42.2	25.5
175876	2026-06-17T15:32:41	40.8	27.5
175877	2026-06-17T15:42:41	43.7	25
175878	2026-06-17T15:52:41	43	26
175879	2026-06-17T16:02:40	42.8	25.5
175880	2026-06-17T16:12:40	41.3	27
175881	2026-06-17T16:22:40	40.8	27.5
175882	2026-06-17T16:32:40	41.6	27.5
175883	2026-06-17T16:42:40	41.5	27.5
175884	2026-06-17T16:52:40	41.1	26.5
175885	2026-06-17T17:02:40	43	26
175886	2026-06-17T17:12:40	41.8	25.5
175887	2026-06-17T17:22:40	41.9	26.5
175888	2026-06-17T17:32:40	41.2	27.5
175889	2026-06-17T17:42:40	41.9	26.5
175890	2026-06-17T17:52:40	38.4	29.5
175891	2026-06-17T18:02:40	35.3	33
175892	2026-06-17T18:12:40	34.4	35
175893	2026-06-17T18:22:40	33.5	36
175894	2026-06-17T18:32:40	33.7	38.5
175895	2026-06-17T18:42:40	33.5	42
175896	2026-06-17T18:52:40	33	42.5
175897	2026-06-17T19:02:40	32.6	43.5
175898	2026-06-17T19:12:40	32.1	45
175899	2026-06-17T19:22:40	31.5	46
175900	2026-06-17T19:32:40	31.1	46.5
175901	2026-06-17T19:42:40	30.5	48
175902	2026-06-17T19:52:40	30.1	49.5
175903	2026-06-17T20:02:40	29.6	51.5
175904	2026-06-17T20:12:40	29	51
175905	2026-06-17T20:22:40	28.6	53
175906	2026-06-17T20:32:40	28	53.5
175907	2026-06-17T20:42:40	27.6	51.5
175908	2026-06-17T20:52:40	27.3	53.5
175909	2026-06-17T21:02:40	27	54.5
175910	2026-06-17T21:12:40	26.5	54
175911	2026-06-17T21:22:40	26.2	57
175912	2026-06-17T21:32:40	25.9	56
175913	2026-06-17T21:42:40	25.5	57.5
175914	2026-06-17T21:52:40	25.4	57
175915	2026-06-17T22:02:40	25	58.5
175916	2026-06-17T22:12:40	24.7	59.5
175917	2026-06-17T22:22:40	24.6	60
175918	2026-06-17T22:32:40	24.3	59.5
175919	2026-06-17T22:42:40	23.9	60
175920	2026-06-17T22:52:40	23.7	62.5
175921	2026-06-17T23:02:40	23.5	63
175922	2026-06-17T23:12:40	23.3	63
175923	2026-06-17T23:22:40	23.2	62.5
175924	2026-06-17T23:32:40	23	65
175925	2026-06-17T23:42:40	22.6	64.5
175926	2026-06-17T23:52:40	22.4	65
175927	2026-06-18T00:02:40	22.3	66
175928	2026-06-18T00:12:40	22.1	66.5
175929	2026-06-18T00:22:40	21.9	67.5
175930	2026-06-18T00:32:40	21.5	67.5
175931	2026-06-18T00:42:40	21.3	69
175932	2026-06-18T00:52:40	21.3	69.5
175933	2026-06-18T01:02:40	21.1	70
175934	2026-06-18T01:12:40	20.9	70.5
175935	2026-06-18T01:22:40	20.8	71.5
175936	2026-06-18T01:32:40	20.6	71.5
175937	2026-06-18T01:42:40	20.4	71.5
175938	2026-06-18T01:52:40	20.3	72
175939	2026-06-18T02:02:40	20	73
175940	2026-06-18T02:12:40	20	74
175941	2026-06-18T02:22:39	19.7	74.5
175942	2026-06-18T02:32:39	19.7	73.5
175943	2026-06-18T02:42:39	19.4	75
175944	2026-06-18T02:52:39	19.3	75.5
175945	2026-06-18T03:02:39	19.1	76
175946	2026-06-18T03:12:39	19.1	75.5
175947	2026-06-18T03:22:39	19	76
175948	2026-06-18T03:32:39	18.8	76.5
175949	2026-06-18T03:42:39	18.8	77
175950	2026-06-18T03:52:39	18.8	77
175951	2026-06-18T04:02:39	18.8	77.5
175952	2026-06-18T04:12:39	18.9	77.5
175953	2026-06-18T04:22:39	18.9	77
175954	2026-06-18T04:32:39	19.1	76.5
175955	2026-06-18T04:42:39	19.2	76.5
175956	2026-06-18T04:52:39	19.3	76.5
175957	2026-06-18T05:02:39	19.5	76.5
175958	2026-06-18T05:12:39	19.7	76.5
175959	2026-06-18T05:22:39	19.9	74.5
175960	2026-06-18T05:32:39	20.1	75
175961	2026-06-18T05:42:39	20.3	74.5
175962	2026-06-18T05:52:39	20.5	74
175963	2026-06-18T06:02:39	20.8	72.5
175964	2026-06-18T06:12:39	20.9	71.5
175965	2026-06-18T06:22:39	21.1	70.5
175966	2026-06-18T06:32:39	21.2	71
175967	2026-06-18T06:42:39	21.4	72
175968	2026-06-18T06:52:39	21.7	70.5
175969	2026-06-18T07:02:39	22	68.5
175970	2026-06-18T07:12:39	22	69.5
175971	2026-06-18T07:22:39	22.3	70
175972	2026-06-18T07:32:39	22.5	69.5
175973	2026-06-18T07:42:39	22.8	69
175974	2026-06-18T07:52:39	23	68
175975	2026-06-18T08:02:39	23.4	68.5
175976	2026-06-18T08:12:39	23.6	68
175977	2026-06-18T08:22:39	24.1	67.5
175978	2026-06-18T08:32:39	24.3	68.5
175979	2026-06-18T08:42:39	24.4	68.5
175980	2026-06-18T08:52:39	24.7	67.5
175981	2026-06-18T09:02:39	25.2	64
175982	2026-06-18T09:12:39	25.6	64
175983	2026-06-18T09:22:39	25.9	62.5
175984	2026-06-18T09:32:39	26.3	62.5
175985	2026-06-18T09:42:39	26.8	59.5
175986	2026-06-18T09:52:39	26.9	60.5
175987	2026-06-18T10:02:39	27.2	58
175988	2026-06-18T10:12:39	27.4	58.5
175989	2026-06-18T10:22:39	28	56
175990	2026-06-18T10:32:39	28.2	55
175991	2026-06-18T10:42:39	28.2	54.5
175992	2026-06-18T10:52:39	28.8	52
175993	2026-06-18T11:02:39	29.1	52.5
175994	2026-06-18T11:12:39	29.3	51.5
175995	2026-06-18T11:22:39	29.8	50.5
175996	2026-06-18T11:32:39	30.1	49.5
175997	2026-06-18T11:42:39	30.3	49
175998	2026-06-18T11:52:39	30.9	47
175999	2026-06-18T12:02:39	31.4	46.5
176000	2026-06-18T12:12:39	32.6	44.5
176001	2026-06-18T12:22:39	35.2	40.5
176002	2026-06-18T12:32:39	35.9	39
176003	2026-06-18T12:42:38	37.2	36.5
176004	2026-06-18T12:52:38	39.2	34.5
176005	2026-06-18T13:02:38	40.6	34
176006	2026-06-18T13:12:38	41.7	30.5
176007	2026-06-18T13:22:38	42	31.5
176008	2026-06-18T13:32:38	43.6	31.5
176009	2026-06-18T13:42:38	43.4	28.5
176010	2026-06-18T13:52:38	42.7	30
176011	2026-06-18T14:02:38	45.9	28.5
176012	2026-06-18T14:12:38	45	27
176013	2026-06-18T14:22:38	45.6	27
176014	2026-06-18T14:32:38	47.4	26.5
176015	2026-06-18T14:42:38	48.8	25.5
176016	2026-06-18T14:52:38	49.6	25
176017	2026-06-18T15:02:38	50.3	22.5
176018	2026-06-18T15:12:38	48.7	23.5
176019	2026-06-18T15:22:38	46.9	25
176020	2026-06-18T15:32:38	48.5	23.5
176021	2026-06-18T15:42:38	49.1	23
176022	2026-06-18T15:52:38	50.3	23.5
176023	2026-06-18T16:02:38	51.2	23
176024	2026-06-18T16:12:38	51.4	22.5
176025	2026-06-18T16:22:38	52.1	22.5
176026	2026-06-18T16:32:38	52	22.5
176027	2026-06-18T16:42:38	52	22.5
176028	2026-06-18T16:52:38	52.1	23
176029	2026-06-18T17:02:38	51.8	23
176030	2026-06-18T17:12:38	51.5	23
176031	2026-06-18T17:22:38	51.4	23.5
176032	2026-06-18T17:32:38	50.9	23
176033	2026-06-18T17:42:38	50.5	23.5
176034	2026-06-18T17:52:38	50	24
176035	2026-06-18T18:02:38	49.1	25.5
176036	2026-06-18T18:12:38	48.4	26.5
176037	2026-06-18T18:22:38	47.5	28
176038	2026-06-18T18:32:38	44.8	30.5
176039	2026-06-18T18:42:38	42.7	34
176040	2026-06-18T18:52:38	41.2	36
176041	2026-06-18T19:02:38	41.3	37.5
176042	2026-06-18T19:12:38	39.5	40.5
176043	2026-06-18T19:22:38	38.1	43
176044	2026-06-18T19:32:38	37.1	44
176045	2026-06-18T19:42:38	36.3	45
176046	2026-06-18T19:52:38	35.3	45.5
176047	2026-06-18T20:02:38	34.6	46.5
176048	2026-06-18T20:12:38	33.7	48
176049	2026-06-18T20:22:38	32.9	49.5
176050	2026-06-18T20:32:38	31.5	52.5
176051	2026-06-18T20:42:38	32	51.5
176052	2026-06-18T20:52:38	31.4	53
176053	2026-06-18T21:02:38	30.6	55
176054	2026-06-18T21:12:38	28.9	58.5
176055	2026-06-18T21:22:38	29.4	57
176056	2026-06-18T21:32:38	29.3	57.5
176057	2026-06-18T21:42:38	29.3	58
176058	2026-06-18T21:52:38	28.9	58.5
176059	2026-06-18T22:02:38	28.6	59
176060	2026-06-18T22:12:38	28.7	59
176061	2026-06-18T22:22:38	28.6	59
176062	2026-06-18T22:32:38	28.3	60.5
176063	2026-06-18T22:42:38	28	61
176064	2026-06-18T22:52:38	27.6	61.5
176065	2026-06-18T23:02:38	27.4	62.5
176066	2026-06-18T23:12:38	27.3	63
176067	2026-06-18T23:22:38	26.4	65
176068	2026-06-18T23:32:38	26.6	64
176069	2026-06-18T23:42:38	26.4	64.5
176070	2026-06-18T23:52:38	26.3	64.5
176071	2026-06-19T00:02:38	26	65
176072	2026-06-19T00:12:38	25.9	65.5
176073	2026-06-19T00:22:38	25.6	66
176074	2026-06-19T00:32:38	25.5	67
176075	2026-06-19T00:42:38	24.8	69
176076	2026-06-19T00:52:38	24.7	69.5
176077	2026-06-19T01:02:38	24.4	70.5
176078	2026-06-19T01:12:38	24.4	70.5
176079	2026-06-19T01:22:38	24.2	71.5
176080	2026-06-19T01:32:38	24.2	71
176081	2026-06-19T01:42:38	23.9	71
176082	2026-06-19T01:52:38	23.7	71.5
176083	2026-06-19T02:02:37	23.5	73
176084	2026-06-19T02:12:37	23.2	73.5
176085	2026-06-19T02:22:37	23.1	73.5
176086	2026-06-19T02:32:37	22.8	74
176087	2026-06-19T02:42:37	22.6	75
176088	2026-06-19T02:52:37	22.6	75
176089	2026-06-19T03:12:37	22.1	76.5
176090	2026-06-19T03:22:37	21.8	77
176091	2026-06-19T03:32:37	21.9	77
176092	2026-06-19T03:42:37	22	76.5
176093	2026-06-19T03:52:37	21.9	77
176094	2026-06-19T04:02:37	22	77
176095	2026-06-19T04:12:37	22	77.5
176096	2026-06-19T04:22:37	22.1	77
176097	2026-06-19T04:32:37	22.1	77
176098	2026-06-19T04:42:37	22.2	78.5
176099	2026-06-19T04:52:37	22.3	78.5
176100	2026-06-19T05:02:37	22.3	79
176101	2026-06-19T05:12:37	22.6	78
176102	2026-06-19T05:22:37	22.7	77.5
176103	2026-06-19T05:32:37	22.9	77.5
176104	2026-06-19T05:42:37	23	76.5
176105	2026-06-19T05:52:37	23.1	76
176106	2026-06-19T06:02:37	23.2	76.5
176107	2026-06-19T06:12:37	23.5	76.5
176108	2026-06-19T06:22:37	23.7	75.5
176109	2026-06-19T06:32:37	23.9	75
176110	2026-06-19T06:42:37	24.3	73
176111	2026-06-19T06:52:37	24.4	74
176112	2026-06-19T07:02:37	24.7	72.5
176113	2026-06-19T07:12:37	25.1	72.5
176114	2026-06-19T07:22:37	25.3	69
176115	2026-06-19T07:32:37	25.6	68
176116	2026-06-19T07:42:37	25.9	68
176117	2026-06-19T07:52:37	26	68.5
176118	2026-06-19T08:02:37	26.1	69.5
176119	2026-06-19T08:12:37	26.1	68.5
176120	2026-06-19T08:22:37	26.6	66
176121	2026-06-19T08:32:37	26.7	66.5
176122	2026-06-19T08:42:37	27.2	65.5
176123	2026-06-19T08:52:37	27.7	64.5
176124	2026-06-19T09:02:37	27.7	65
176125	2026-06-19T09:12:37	27.7	64.5
176126	2026-06-19T09:22:37	28	63
176127	2026-06-19T09:32:37	28.4	62.5
176128	2026-06-19T09:42:37	28.8	62
176129	2026-06-19T09:52:37	29.2	61
176130	2026-06-19T10:02:37	29.6	59.5
176131	2026-06-19T10:12:37	29.8	57.5
176132	2026-06-19T10:22:37	29.9	56
176133	2026-06-19T10:32:37	30.3	55
176134	2026-06-19T10:42:37	30.6	53.5
176135	2026-06-19T10:52:37	31.1	53
176136	2026-06-19T11:02:37	31.5	53.5
176137	2026-06-19T11:12:37	31.8	50
176138	2026-06-19T11:22:37	32.3	47
176139	2026-06-19T11:32:37	32.6	48
176140	2026-06-19T11:42:37	32.9	46.5
176141	2026-06-19T11:52:37	33.4	44.5
176142	2026-06-19T12:02:36	33.9	44.5
176143	2026-06-19T12:12:36	35	40.5
176144	2026-06-19T12:22:36	37.3	37
176145	2026-06-19T12:32:36	38.5	35
176146	2026-06-19T12:42:36	38.9	33.5
176147	2026-06-19T12:52:36	40.9	32
176148	2026-06-19T13:02:36	42.1	30
176149	2026-06-19T13:12:36	42.2	29.5
176150	2026-06-19T13:22:36	43.3	28.5
176151	2026-06-19T13:32:36	44	28
176152	2026-06-19T13:42:36	43.9	27.5
176153	2026-06-19T13:52:36	45.2	26
176154	2026-06-19T14:02:36	46.2	25
176155	2026-06-19T14:12:36	45.2	25.5
176156	2026-06-19T14:22:36	44.6	25.5
176157	2026-06-19T14:32:36	45.5	25.5
176158	2026-06-19T14:42:36	47	24.5
176159	2026-06-19T14:52:36	49.3	23.5
176160	2026-06-19T15:02:36	50.6	23
176161	2026-06-19T15:12:36	51.2	22
176162	2026-06-19T15:22:36	50.5	21.5
176163	2026-06-19T15:32:36	51	21.5
176164	2026-06-19T15:42:36	51.6	22
176165	2026-06-19T15:52:36	51.6	21.5
176166	2026-06-19T16:02:36	52.1	21.5
176167	2026-06-19T16:12:36	51.4	22
176168	2026-06-19T16:22:36	50.9	22
176169	2026-06-19T16:32:36	50.6	22.5
176170	2026-06-19T16:42:36	51.1	23
176171	2026-06-19T16:52:36	51.4	23
176172	2026-06-19T17:02:36	49.6	24.5
176173	2026-06-19T17:12:36	47.6	26
176174	2026-06-19T17:22:36	46.7	30.5
176175	2026-06-19T17:32:36	46.8	32.5
176176	2026-06-19T17:42:36	45.8	33
176177	2026-06-19T17:52:36	43	35.5
176178	2026-06-19T18:02:36	41.3	39
176179	2026-06-19T18:12:36	40.7	39.5
176180	2026-06-19T18:22:36	39.7	40
176181	2026-06-19T18:32:36	39	41.5
176182	2026-06-19T18:42:36	38.3	43.5
176183	2026-06-19T18:52:36	37.4	45
176184	2026-06-19T19:02:36	36.7	46
176185	2026-06-19T19:22:36	35.7	48.5
176186	2026-06-19T19:32:36	35.4	50
176187	2026-06-19T19:42:36	34.5	42
176188	2026-06-19T19:52:36	34.2	42
176189	2026-06-19T20:02:36	33.8	41.5
176190	2026-06-19T20:12:36	33.1	48.5
176191	2026-06-19T20:22:36	29.4	66
176192	2026-06-19T20:32:36	25.9	73.5
176193	2026-06-19T20:42:36	23.3	95
176194	2026-06-19T20:52:36	21.7	99.5
176195	2026-06-19T21:02:36	21.9	100
176196	2026-06-19T21:12:36	22.8	100
176197	2026-06-19T21:22:36	23	100
176198	2026-06-19T21:32:36	23.1	100
176199	2026-06-19T21:42:36	23.2	100
176200	2026-06-19T21:52:36	22.1	100
176201	2026-06-19T22:02:36	21	100
176202	2026-06-19T22:12:36	21.3	100
176203	2026-06-19T22:22:36	21.6	100
176204	2026-06-19T22:32:36	21.7	100
176205	2026-06-19T22:42:36	21.8	100
176206	2026-06-19T22:52:36	21.8	100
176207	2026-06-19T23:02:36	21.9	100
176208	2026-06-19T23:12:36	21.9	100
176209	2026-06-19T23:22:36	21.8	100
176210	2026-06-19T23:32:36	21.7	100
176211	2026-06-19T23:42:36	21.7	100
176212	2026-06-19T23:52:36	21.4	100
176213	2026-06-20T00:02:36	21.4	100
176214	2026-06-20T00:12:36	21.3	100
176215	2026-06-20T00:22:36	21.3	100
176216	2026-06-20T00:32:36	21.2	100
176217	2026-06-20T00:42:36	21.1	100
176218	2026-06-20T00:52:35	21.3	100
176219	2026-06-20T01:02:35	21.1	100
176220	2026-06-20T01:12:35	20.8	100
176221	2026-06-20T01:22:35	20.7	100
176222	2026-06-20T01:32:35	20.6	100
176223	2026-06-20T01:42:35	20.6	100
176224	2026-06-20T01:52:35	20.8	100
176225	2026-06-20T02:02:35	20.8	100
176226	2026-06-20T02:12:35	20.8	100
176227	2026-06-20T02:22:35	20.8	100
176228	2026-06-20T02:32:35	20.5	100
176229	2026-06-20T02:42:35	20.5	100
176230	2026-06-20T02:52:35	20.3	100
176231	2026-06-20T03:02:35	20.1	100
176232	2026-06-20T03:12:35	19.9	100
176233	2026-06-20T03:22:35	19.7	100
176234	2026-06-20T03:32:35	19.6	100
176235	2026-06-20T03:42:35	19.5	100
176236	2026-06-20T04:02:35	19.3	100
176237	2026-06-20T04:12:35	19.3	100
176238	2026-06-20T04:22:35	19.3	100
176239	2026-06-20T04:32:35	19.3	100
176240	2026-06-20T04:42:35	19.5	100
176241	2026-06-20T04:52:35	19.6	100
176242	2026-06-20T05:02:35	19.7	100
176243	2026-06-20T05:12:35	19.8	100
176244	2026-06-20T05:22:35	20	100
176245	2026-06-20T05:32:35	20	100
176246	2026-06-20T05:42:35	20.3	100
176247	2026-06-20T05:52:35	20.6	100
176248	2026-06-20T06:02:35	20.7	100
176249	2026-06-20T06:12:35	20.8	100
176250	2026-06-20T06:22:35	21	100
176251	2026-06-20T06:32:35	21.2	100
176252	2026-06-20T06:42:35	21.6	100
176253	2026-06-20T06:52:35	21.8	100
176254	2026-06-20T07:02:35	22	100
176255	2026-06-20T07:12:35	22.4	100
176256	2026-06-20T07:22:35	22.5	100
176257	2026-06-20T07:32:35	22.8	100
176258	2026-06-20T07:42:35	22.9	100
176259	2026-06-20T07:52:35	23	100
176260	2026-06-20T08:02:35	23.4	91.5
176261	2026-06-20T08:12:35	23.6	89
176262	2026-06-20T08:22:35	24.1	79
176263	2026-06-20T08:32:35	24.3	79.5
176264	2026-06-20T08:42:35	24.4	79
176265	2026-06-20T08:52:35	24.8	79
176266	2026-06-20T09:02:35	25	76
176267	2026-06-20T09:12:35	25.1	77
176268	2026-06-20T09:22:35	25.3	76.5
176269	2026-06-20T09:32:35	25.8	74
176270	2026-06-20T09:42:35	25.8	71
176271	2026-06-20T09:52:35	26	72
176272	2026-06-20T10:02:35	26.4	70.5
176273	2026-06-20T10:12:35	26.9	68
176274	2026-06-20T10:22:35	27.4	63.5
176275	2026-06-20T10:32:35	27.9	61.5
176276	2026-06-20T10:42:35	28.2	60.5
176277	2026-06-20T10:52:35	28.7	57
176278	2026-06-20T11:02:35	29.1	56
176279	2026-06-20T11:12:34	29.6	50.5
176280	2026-06-20T11:22:34	29.8	47.5
176281	2026-06-20T11:32:34	30.2	48.5
176282	2026-06-20T11:42:34	30.5	47.5
176283	2026-06-20T11:52:34	31.2	45
176284	2026-06-20T12:02:34	31.7	42.5
176285	2026-06-20T12:12:34	33	39
176286	2026-06-20T12:22:34	35.2	37
176287	2026-06-20T12:32:34	36.6	37.5
176288	2026-06-20T12:42:34	37.7	34.5
176289	2026-06-20T12:52:34	38.5	34
176290	2026-06-20T13:02:34	39.3	32.5
176291	2026-06-20T13:12:34	40.2	31
176292	2026-06-20T13:22:34	40.7	28.5
176293	2026-06-20T13:32:34	40.5	30
176294	2026-06-20T13:42:34	41.5	28
176295	2026-06-20T13:52:34	41.9	27
176296	2026-06-20T14:02:34	42.2	26
176297	2026-06-20T14:12:34	43.5	26.5
176298	2026-06-20T14:22:34	42.8	27.5
176299	2026-06-20T14:32:34	43.2	27
176300	2026-06-20T14:42:34	43.6	26
176301	2026-06-20T14:52:34	44.1	25.5
176302	2026-06-20T15:02:34	43.7	26
176303	2026-06-20T15:12:34	44.4	22.5
176304	2026-06-20T15:22:34	45.2	24
176305	2026-06-20T15:32:34	45.3	23
176306	2026-06-20T15:42:34	46	23
176307	2026-06-20T15:52:34	46.5	24
176308	2026-06-20T16:02:34	47.2	23
176309	2026-06-20T16:12:34	47.8	23.5
176310	2026-06-20T16:22:34	47	24
176311	2026-06-20T16:32:34	47.7	24
176312	2026-06-20T16:42:34	47.6	24
176313	2026-06-20T16:52:34	48.6	23.5
176314	2026-06-20T17:02:34	47	23.5
176315	2026-06-20T17:12:34	47.8	23
176316	2026-06-20T17:22:34	47.7	24
176317	2026-06-20T17:32:34	47.2	24
176318	2026-06-20T17:42:34	46.8	26.5
176319	2026-06-20T17:52:34	46.9	31.5
176320	2026-06-20T18:02:34	45.7	33
176321	2026-06-20T18:12:34	45.8	31
176322	2026-06-20T18:22:34	43.8	34
176323	2026-06-20T18:32:34	41.1	38
176324	2026-06-20T18:42:34	39.1	40.5
176325	2026-06-20T18:52:34	37.7	41
176326	2026-06-20T19:02:34	36.8	42
176327	2026-06-20T19:12:34	35.7	43
176328	2026-06-20T19:22:34	35.1	45
176329	2026-06-20T19:32:34	34.2	46.5
176330	2026-06-20T19:42:34	33.8	47.5
176331	2026-06-20T19:52:34	33.3	49.5
176332	2026-06-20T20:02:34	32.9	50
176333	2026-06-20T20:12:34	32.5	50.5
176334	2026-06-20T20:22:34	31.9	50
176335	2026-06-20T20:32:34	31.5	51.5
176336	2026-06-20T20:42:34	31.2	51.5
176337	2026-06-20T20:52:34	30.8	53
176338	2026-06-20T21:02:34	30.5	54
176339	2026-06-20T21:12:34	30.2	54.5
176340	2026-06-20T21:22:34	29.8	55.5
176341	2026-06-20T21:32:34	29.1	57.5
176342	2026-06-20T21:42:34	29.1	60
176343	2026-06-20T21:52:34	28.9	59.5
176344	2026-06-20T22:02:34	28.4	58
176345	2026-06-20T22:12:34	28.1	60
176346	2026-06-20T22:22:34	27.8	61
176347	2026-06-20T22:32:34	27.6	61
176348	2026-06-20T22:42:34	27.5	62
176349	2026-06-20T22:52:34	27.2	59.5
176350	2026-06-20T23:02:33	26.5	60
176351	2026-06-20T23:12:34	26.6	60
176352	2026-06-20T23:22:33	26.4	62.5
176353	2026-06-20T23:32:33	26.1	64.5
176354	2026-06-20T23:42:33	25.7	65
176355	2026-06-20T23:52:33	25.5	65.5
176356	2026-06-21T00:02:33	25.3	65
176357	2026-06-21T00:12:33	25.3	66
176358	2026-06-21T00:22:33	24.9	67
176359	2026-06-21T00:32:33	24.8	68
176360	2026-06-21T00:52:33	24.6	69
176361	2026-06-21T01:02:33	24.3	70
176362	2026-06-21T01:12:33	24.1	71
176363	2026-06-21T01:22:33	23.9	71.5
176364	2026-06-21T01:32:33	23.7	72.5
176365	2026-06-21T01:42:33	23.4	73.5
176366	2026-06-21T01:52:33	23.4	73
176367	2026-06-21T02:02:33	23.2	74
176368	2026-06-21T02:12:33	23.1	74
176369	2026-06-21T02:22:33	23	75
176370	2026-06-21T02:32:33	22.8	75.5
176371	2026-06-21T02:42:33	22.7	74
176372	2026-06-21T02:52:33	22.7	74.5
176373	2026-06-21T03:02:33	22.5	75.5
176374	2026-06-21T03:12:33	22.5	76
176375	2026-06-21T03:22:33	22.5	76.5
176376	2026-06-21T03:32:33	22.5	76.5
176377	2026-06-21T03:42:33	22.7	75.5
176378	2026-06-21T03:52:33	22.6	76
176379	2026-06-21T04:02:33	22.4	77
176380	2026-06-21T04:12:33	22.7	76.5
176381	2026-06-21T04:22:33	22.2	77.5
176382	2026-06-21T04:32:33	22.4	77
176383	2026-06-21T04:42:33	22.8	75.5
176384	2026-06-21T04:52:33	23	76
176385	2026-06-21T05:02:33	22.9	76
176386	2026-06-21T05:12:33	22.8	76.5
176387	2026-06-21T05:22:33	23.1	76
176388	2026-06-21T05:32:33	23.2	75.5
176389	2026-06-21T05:42:33	23.3	75.5
176390	2026-06-21T05:52:33	23.5	75.5
176391	2026-06-21T06:02:33	23.6	75.5
176392	2026-06-21T06:12:33	23.7	74.5
176393	2026-06-21T06:22:33	23.9	75
176394	2026-06-21T06:32:33	24.1	75
176395	2026-06-21T06:42:33	24.5	74
176396	2026-06-21T06:52:33	24.6	74
176397	2026-06-21T07:02:33	24.7	75.5
176398	2026-06-21T07:12:33	25	76
176399	2026-06-21T07:22:33	25.3	75.5
176400	2026-06-21T07:32:33	25.2	76.5
176401	2026-06-21T07:42:33	25	77.5
176402	2026-06-21T07:52:33	25.3	77.5
176403	2026-06-21T08:02:33	25.9	75.5
176404	2026-06-21T08:12:33	26.1	75.5
176405	2026-06-21T08:22:33	26.5	72.5
176406	2026-06-21T08:32:33	26.6	72.5
176407	2026-06-21T08:42:33	26.9	71
176408	2026-06-21T08:52:33	27.1	70
176409	2026-06-21T09:02:32	27.5	68
176410	2026-06-21T09:12:32	27.7	67
176411	2026-06-21T09:22:32	28.1	63.5
176412	2026-06-21T09:32:32	28.4	63.5
176413	2026-06-21T09:42:32	28.7	61.5
176414	2026-06-21T09:52:32	28.9	60
176415	2026-06-21T10:02:32	29.3	58.5
176416	2026-06-21T10:12:32	29.6	57.5
176417	2026-06-21T10:22:32	29.9	56
176418	2026-06-21T10:32:32	30.1	55
176419	2026-06-21T10:42:32	30.6	54.5
176420	2026-06-21T10:52:32	30.7	53.5
176421	2026-06-21T11:02:32	31	53
176422	2026-06-21T11:12:32	31.4	53.5
176423	2026-06-21T11:22:32	31.7	52
176424	2026-06-21T11:32:32	32	52
176425	2026-06-21T11:42:32	32.5	49.5
176426	2026-06-21T11:52:32	33.2	49.5
176427	2026-06-21T12:02:32	34.3	44.5
176428	2026-06-21T12:12:32	34.9	42.5
176429	2026-06-21T12:22:32	37.2	39.5
176430	2026-06-21T12:32:32	38.5	35.5
176431	2026-06-21T12:42:32	39.3	33
176432	2026-06-21T12:52:32	41.3	31
176433	2026-06-21T13:02:32	43	30
176434	2026-06-21T13:12:32	44.5	29.5
176435	2026-06-21T13:22:32	46	28.5
176436	2026-06-21T13:32:32	46.3	27
176437	2026-06-21T13:42:32	46.5	26
176438	2026-06-21T13:52:32	46.8	26.5
176439	2026-06-21T14:02:32	46.8	26.5
176440	2026-06-21T14:12:32	48.3	26.5
176441	2026-06-21T14:22:32	47.3	26.5
176442	2026-06-21T14:32:32	48.4	26
176443	2026-06-21T14:42:32	48.7	25
176444	2026-06-21T14:52:32	47.8	26
176445	2026-06-21T15:02:32	48	26
176446	2026-06-21T15:12:32	47.7	26
176447	2026-06-21T15:22:32	47.1	26.5
176448	2026-06-21T15:32:32	47.3	26.5
176449	2026-06-21T15:42:32	46.5	27
176450	2026-06-21T15:52:32	47.3	26
176451	2026-06-21T16:02:32	48	25.5
176452	2026-06-21T16:12:32	48	23.5
176453	2026-06-21T16:22:32	47.6	25
176454	2026-06-21T16:32:32	48	24
176455	2026-06-21T16:42:32	46.7	25.5
176456	2026-06-21T16:52:32	42.7	30
176457	2026-06-21T17:02:32	41.3	32
176458	2026-06-21T17:12:32	41.1	34.5
176459	2026-06-21T17:22:32	40	38.5
176460	2026-06-21T17:32:32	39.3	40.5
176461	2026-06-21T17:42:32	38.7	42
176462	2026-06-21T17:52:32	38.1	40.5
176463	2026-06-21T18:02:32	36.9	39
176464	2026-06-21T18:12:32	36.1	40
176465	2026-06-21T18:22:32	35.7	40
176466	2026-06-21T18:32:32	35.7	39.5
176467	2026-06-21T18:42:32	35.1	40.5
176468	2026-06-21T18:52:32	34.5	42.5
176469	2026-06-21T19:02:32	34.4	42
176470	2026-06-21T19:12:32	33.8	42
176471	2026-06-21T19:22:32	33.8	43.5
176472	2026-06-21T19:32:32	33.6	45
176473	2026-06-21T19:42:32	33	45.5
176474	2026-06-21T19:52:32	32.6	46.5
176475	2026-06-21T20:02:32	32.3	48
176476	2026-06-21T20:12:32	31.7	48.5
176477	2026-06-21T20:22:32	31.4	49.5
176478	2026-06-21T20:32:32	31.1	51.5
176479	2026-06-21T20:42:32	30.7	52.5
176480	2026-06-21T20:52:32	30.4	51
176481	2026-06-21T21:02:32	30.2	51.5
176482	2026-06-21T21:12:32	30	53.5
176483	2026-06-21T21:22:32	29.4	54
176484	2026-06-21T21:32:32	29	56.5
176485	2026-06-21T21:42:31	29	57
176486	2026-06-21T21:52:31	28.6	56
176487	2026-06-21T22:02:31	28.5	57
176488	2026-06-21T22:12:31	27.5	59
176489	2026-06-21T22:22:32	27.8	58.5
176490	2026-06-21T22:32:31	27.8	60.5
176491	2026-06-21T22:42:31	27.6	61.5
176492	2026-06-21T22:52:31	27.2	62.5
176493	2026-06-21T23:02:31	27.1	62.5
176494	2026-06-21T23:12:31	26.9	63.5
176495	2026-06-21T23:22:31	26.7	64
176496	2026-06-21T23:32:31	26.5	64.5
176497	2026-06-21T23:42:31	26.2	66
176498	2026-06-21T23:52:31	25.9	66.5
176499	2026-06-22T00:02:31	25.9	67
176500	2026-06-22T00:12:31	25.5	68
176501	2026-06-22T00:22:31	25.4	67.5
176502	2026-06-22T00:32:31	24.9	68
176503	2026-06-22T00:42:31	25	68
176504	2026-06-22T00:52:31	25	68
176505	2026-06-22T01:02:31	24.8	68.5
176506	2026-06-22T01:12:31	24.5	69
176507	2026-06-22T01:22:31	24.5	71
176508	2026-06-22T01:32:49	24.4	71.5
176509	2026-06-22T01:42:31	24.1	71.5
176510	2026-06-22T01:52:31	24	72.5
176511	2026-06-22T02:02:31	24	73.5
176512	2026-06-22T02:22:31	23.6	73
176513	2026-06-22T02:32:31	23.7	74
176514	2026-06-22T02:42:31	23.5	74.5
176515	2026-06-22T02:52:31	23.3	75
176516	2026-06-22T03:02:31	23.3	75
176517	2026-06-22T03:12:31	23.1	75.5
176518	2026-06-22T03:22:31	23	76
176519	2026-06-22T03:32:31	23	77
176520	2026-06-22T03:42:31	23.1	78
176521	2026-06-22T03:52:31	22.9	78.5
176522	2026-06-22T04:02:31	22.8	78.5
176523	2026-06-22T04:12:31	22.7	78.5
176524	2026-06-22T04:22:31	22.4	78
176525	2026-06-22T04:32:31	22.8	79
176526	2026-06-22T04:42:31	22.8	78.5
176527	2026-06-22T04:52:31	23	79.5
176528	2026-06-22T05:02:31	22.9	80
176529	2026-06-22T05:12:31	23.2	80
176530	2026-06-22T05:22:31	23.3	79
176531	2026-06-22T05:32:31	23.4	77.5
176532	2026-06-22T05:42:31	23.5	77.5
176533	2026-06-22T05:52:31	23.6	77
176534	2026-06-22T06:02:31	23.9	76
176535	2026-06-22T06:12:31	23.9	77.5
176536	2026-06-22T06:22:31	24.2	76.5
176537	2026-06-22T06:32:31	24.2	76
176538	2026-06-22T06:42:31	24.4	73.5
176539	2026-06-22T06:52:31	24.6	74
176540	2026-06-22T07:02:31	24.8	73.5
176541	2026-06-22T07:12:30	25.1	73.5
176542	2026-06-22T07:22:30	25.3	72
176543	2026-06-22T07:32:30	25.5	71
176544	2026-06-22T07:42:30	25.7	72
176545	2026-06-22T07:52:30	25.9	71.5
176546	2026-06-22T08:02:30	26.1	72
176547	2026-06-22T08:12:30	26.3	70.5
176548	2026-06-22T08:22:30	26.6	70
176549	2026-06-22T08:32:30	26.8	69.5
176550	2026-06-22T08:42:30	27.1	69
176551	2026-06-22T08:52:30	27.3	69.5
176552	2026-06-22T09:02:30	27.6	69
176553	2026-06-22T09:12:30	27.9	68
176554	2026-06-22T09:22:30	28.2	68.5
176555	2026-06-22T09:32:30	28.6	67.5
176556	2026-06-22T09:42:30	28.9	66.5
176557	2026-06-22T09:52:30	29.3	65.5
176558	2026-06-22T10:02:30	29.4	64.5
176559	2026-06-22T10:12:30	29.9	62.5
176560	2026-06-22T10:22:30	30.1	62
176561	2026-06-22T10:32:30	30.3	59.5
176562	2026-06-22T10:42:30	30.7	56.5
176563	2026-06-22T10:52:30	31.2	55.5
176564	2026-06-22T11:02:30	31.2	53.5
176565	2026-06-22T11:12:30	31.6	52
176566	2026-06-22T11:22:30	32	53.5
176567	2026-06-22T11:32:30	32.3	50.5
176568	2026-06-22T11:42:30	32.7	50.5
176569	2026-06-22T11:52:30	33.3	49
176570	2026-06-22T12:02:30	33.8	49
176571	2026-06-22T12:12:30	34.5	46.5
176572	2026-06-22T12:22:30	36.9	41.5
176573	2026-06-22T12:32:30	37.8	39.5
176574	2026-06-22T12:42:30	39.6	36.5
176575	2026-06-22T12:52:30	40.7	34.5
176576	2026-06-22T13:02:30	40.2	34.5
176577	2026-06-22T13:12:30	42.5	31.5
176578	2026-06-22T13:22:30	43.8	30.5
176579	2026-06-22T13:32:30	43.6	30
176580	2026-06-22T13:42:30	39.6	34.5
176581	2026-06-22T13:52:30	38.7	36.5
176582	2026-06-22T14:02:30	38.3	37
176583	2026-06-22T14:12:30	42.5	33
176584	2026-06-22T14:22:30	44.3	30.5
176585	2026-06-22T14:32:30	45.7	29.5
176586	2026-06-22T14:42:30	45.9	28
176587	2026-06-22T14:52:30	45.8	29.5
176588	2026-06-22T15:02:30	45.6	29
176589	2026-06-22T15:12:30	46.5	27.5
176590	2026-06-22T15:22:30	46.5	28.5
176591	2026-06-22T15:32:30	45.7	29
176592	2026-06-22T15:42:30	46.5	29
176593	2026-06-22T15:52:30	48.4	26
176594	2026-06-22T16:02:30	48	28.5
176595	2026-06-22T16:12:30	48.4	28
176596	2026-06-22T16:22:30	49.1	27
176597	2026-06-22T16:32:30	49.2	26.5
176598	2026-06-22T16:42:30	48.7	27.5
176599	2026-06-22T16:52:30	47.7	27
176600	2026-06-22T17:02:30	48.4	26.5
176601	2026-06-22T17:12:30	48.9	26.5
176602	2026-06-22T17:22:30	48	26.5
176603	2026-06-22T17:32:30	46.9	27.5
176604	2026-06-22T17:42:30	45.9	27.5
176605	2026-06-22T17:52:30	44.9	29
176606	2026-06-22T18:02:30	44.4	29.5
176607	2026-06-22T18:12:30	43.4	31
176608	2026-06-22T18:22:30	44.2	31
176609	2026-06-22T18:32:30	43.1	34
176610	2026-06-22T18:42:30	41.4	40.5
176611	2026-06-22T18:52:30	40.1	42.5
176612	2026-06-22T19:02:30	39.1	44.5
176613	2026-06-22T19:12:30	38	45
176614	2026-06-22T19:22:30	37.2	47.5
176615	2026-06-22T19:32:30	36.4	47.5
176616	2026-06-22T19:42:29	35.7	49
176617	2026-06-22T19:52:29	35.2	48.5
176618	2026-06-22T20:02:29	34.7	49.5
176619	2026-06-22T20:12:29	34.2	50
176620	2026-06-22T20:22:29	33.8	51
176621	2026-06-22T20:32:29	33.4	52
176622	2026-06-22T20:42:29	33.1	52.5
176623	2026-06-22T20:52:29	32.5	53.5
176624	2026-06-22T21:02:29	32.1	54
176625	2026-06-22T21:12:29	31.7	55.5
176626	2026-06-22T21:22:29	31	56.5
176627	2026-06-22T21:32:29	31	57
176628	2026-06-22T21:42:29	30.6	57.5
176629	2026-06-22T21:52:29	30.4	57.5
176630	2026-06-22T22:02:29	29.8	59
176631	2026-06-22T22:12:29	29.6	60
176632	2026-06-22T22:22:29	29.6	60.5
176633	2026-06-22T22:32:29	29.1	62
176634	2026-06-22T22:42:29	28.8	62
176635	2026-06-22T22:52:29	28.6	62.5
176636	2026-06-22T23:02:29	28.4	63.5
176637	2026-06-22T23:12:29	28.2	63.5
176638	2026-06-22T23:22:29	27.9	64.5
176639	2026-06-22T23:32:29	27.6	64.5
176640	2026-06-22T23:42:29	27.2	66.5
176641	2026-06-22T23:52:29	27.2	66.5
176642	2026-06-23T00:02:29	27.2	66
176643	2026-06-23T00:12:29	27	67
176644	2026-06-23T00:22:29	26.8	67
176645	2026-06-23T00:32:29	26.5	68
176646	2026-06-23T00:42:29	26.3	68
176647	2026-06-23T00:52:29	26.1	69
176648	2026-06-23T01:02:29	25.8	69
176649	2026-06-23T01:12:29	25.7	70
176650	2026-06-23T01:22:29	25.6	69.5
176651	2026-06-23T01:32:29	25.4	70
176652	2026-06-23T01:42:29	25.3	71.5
176653	2026-06-23T01:52:29	25.1	71
176654	2026-06-23T02:02:29	24.7	72
176655	2026-06-23T02:12:29	24.7	72.5
176656	2026-06-23T02:22:29	24.6	72.5
176657	2026-06-23T02:32:29	24.5	73
176658	2026-06-23T02:42:29	24.1	73.5
176659	2026-06-23T02:52:29	24	74
176660	2026-06-23T03:02:29	24	74.5
176661	2026-06-23T03:12:29	23.7	74.5
176662	2026-06-23T03:22:29	23.5	75
176663	2026-06-23T03:32:46	23.5	76
176664	2026-06-23T03:42:29	23.5	76
176665	2026-06-23T03:52:29	23.4	76.5
176666	2026-06-23T04:02:29	23.4	76.5
176667	2026-06-23T04:12:29	23.3	77
176668	2026-06-23T04:22:29	23.3	77
176669	2026-06-23T04:32:29	23.2	77.5
176670	2026-06-23T04:42:29	23.3	77.5
176671	2026-06-23T04:52:29	23.5	77
176672	2026-06-23T05:02:29	23.5	77.5
176673	2026-06-23T05:12:29	23.5	77.5
176674	2026-06-23T05:22:29	23.8	76.5
176675	2026-06-23T05:32:28	24	76.5
176676	2026-06-23T05:42:28	24.3	77
176677	2026-06-23T05:52:28	24.4	78
176678	2026-06-23T06:02:28	24.7	77.5
176679	2026-06-23T06:12:28	24.8	77
176680	2026-06-23T06:22:28	25	75.5
176681	2026-06-23T06:32:28	25.1	75.5
176682	2026-06-23T06:42:28	25.2	76
176683	2026-06-23T06:52:28	25.5	76
176684	2026-06-23T07:02:28	25.6	75
176685	2026-06-23T07:12:28	25.9	74.5
176686	2026-06-23T07:22:28	26.3	74.5
176687	2026-06-23T07:32:28	26.5	73.5
176688	2026-06-23T07:42:28	26.7	73.5
176689	2026-06-23T07:52:28	27	72
176690	2026-06-23T08:02:28	27.1	72.5
176691	2026-06-23T08:12:28	27.4	70.5
176692	2026-06-23T08:22:28	27.9	70
176693	2026-06-23T08:32:28	27.9	69
176694	2026-06-23T08:42:28	28.1	69
176695	2026-06-23T08:52:28	28.4	67.5
176696	2026-06-23T09:02:28	28.7	67
176697	2026-06-23T09:12:28	28.7	67
176698	2026-06-23T09:22:28	29.1	66.5
176699	2026-06-23T09:32:28	29.2	65
176700	2026-06-23T09:42:28	29.6	65
176701	2026-06-23T09:52:28	30	64
176702	2026-06-23T10:02:28	30.2	60
176703	2026-06-23T10:12:28	30.3	61
176704	2026-06-23T10:22:28	30.7	62
176705	2026-06-23T10:32:28	31.1	59.5
176706	2026-06-23T10:42:28	31.5	59.5
176707	2026-06-23T10:52:28	31.8	59
176708	2026-06-23T11:02:28	32.1	58
176709	2026-06-23T11:12:28	32.4	52
176710	2026-06-23T11:22:28	32.8	55.5
176711	2026-06-23T11:32:28	32.9	50.5
176712	2026-06-23T11:42:28	33.4	47.5
176713	2026-06-23T11:52:28	33.7	46.5
176714	2026-06-23T12:02:28	34	44.5
176715	2026-06-23T12:12:28	35	42
176716	2026-06-23T12:22:28	36.3	37.5
176717	2026-06-23T12:32:50	37.7	38
176718	2026-06-23T12:42:28	37.9	37
176719	2026-06-23T12:52:28	37.6	36.5
176720	2026-06-23T13:02:28	38.3	35.5
176721	2026-06-23T13:12:28	40.1	34.5
176722	2026-06-23T13:22:28	41	33.5
176723	2026-06-23T13:32:28	40.2	31.5
176724	2026-06-23T13:42:28	42.2	29.5
176725	2026-06-23T13:52:28	43.2	29.5
176726	2026-06-23T14:02:28	43.4	26
176727	2026-06-23T14:12:28	42.7	29
176728	2026-06-23T14:22:28	42.6	28.5
176729	2026-06-23T14:32:28	42.6	29.5
176730	2026-06-23T14:42:28	42.7	27
176731	2026-06-23T14:52:28	45.5	26.5
176732	2026-06-23T15:02:28	46.6	25
176733	2026-06-23T15:12:28	47.4	23
176734	2026-06-23T15:22:28	45.4	24
176735	2026-06-23T15:32:28	46.4	24.5
176736	2026-06-23T15:42:28	44.1	26.5
176737	2026-06-23T15:52:28	45.6	26
176738	2026-06-23T16:02:28	46.5	25.5
176739	2026-06-23T16:12:28	45.3	25.5
176740	2026-06-23T16:22:28	45.4	25
176741	2026-06-23T16:32:28	45.1	25.5
176742	2026-06-23T16:42:28	44.9	27
176743	2026-06-23T16:52:27	41.7	29
176744	2026-06-23T17:02:27	40.6	30
176745	2026-06-23T17:12:27	40.2	32.5
176746	2026-06-23T17:22:27	40.1	31.5
176747	2026-06-23T17:32:27	40	33.5
176748	2026-06-23T17:42:27	40.5	34
176749	2026-06-23T17:52:27	41.4	34
176750	2026-06-23T18:02:27	40.6	35.5
176751	2026-06-23T18:12:27	39.5	36.5
176752	2026-06-23T18:22:27	39.3	39.5
176753	2026-06-23T18:32:27	39.6	39.5
176754	2026-06-23T18:42:27	39	40.5
176755	2026-06-23T18:52:27	38	40.5
176756	2026-06-23T19:02:27	37.8	42
176757	2026-06-23T19:12:27	36.7	46.5
176758	2026-06-23T19:22:27	35.8	46
176759	2026-06-23T19:32:27	34.6	47
176760	2026-06-23T19:42:27	34.1	48.5
176761	2026-06-23T19:52:27	33.3	48.5
176762	2026-06-23T20:02:27	32.8	50
176763	2026-06-23T20:12:27	32.6	51
176764	2026-06-23T20:22:27	32.1	54
176765	2026-06-23T20:32:27	31.7	55
176766	2026-06-23T20:42:27	31.4	56
176767	2026-06-23T20:52:27	31.1	57
176768	2026-06-23T21:02:27	30.7	58
176769	2026-06-23T21:12:27	30.4	59
176770	2026-06-23T21:22:27	30.1	59.5
176771	2026-06-23T21:32:27	29.7	60
176772	2026-06-23T21:42:27	29.6	59.5
176773	2026-06-23T21:52:27	29.2	61
176774	2026-06-23T22:02:27	28.9	61
176775	2026-06-23T22:12:27	28.3	62
176776	2026-06-23T22:22:27	28.3	63
176777	2026-06-23T22:32:27	28.2	63.5
176778	2026-06-23T22:42:27	27.7	64
176779	2026-06-23T22:52:27	27.1	65.5
176780	2026-06-23T23:02:27	27.4	66
176781	2026-06-23T23:12:27	27.2	65
176782	2026-06-23T23:22:27	26.7	66
176783	2026-06-23T23:32:27	26.8	66.5
176784	2026-06-23T23:42:27	26.6	66
176785	2026-06-23T23:52:27	26.3	67.5
176786	2026-06-24T00:02:27	26.3	67.5
176787	2026-06-24T00:12:27	26	68
176788	2026-06-24T00:22:27	25.8	68.5
176789	2026-06-24T00:32:27	25.7	69
176790	2026-06-24T00:42:27	25.6	69.5
176791	2026-06-24T00:52:27	24.9	71.5
176792	2026-06-24T01:02:27	25	71
176793	2026-06-24T01:12:27	24.6	72
176794	2026-06-24T01:22:27	24.6	72.5
176795	2026-06-24T01:32:27	24.6	73
176796	2026-06-24T01:42:27	24.4	73
176797	2026-06-24T01:52:27	24.2	73.5
176798	2026-06-24T02:02:27	24.1	74
176799	2026-06-24T02:12:27	23.8	75.5
176800	2026-06-24T02:22:27	23.8	75
176801	2026-06-24T02:32:27	23.6	75.5
176802	2026-06-24T02:42:27	23.5	76
176803	2026-06-24T02:52:26	23.6	76
176804	2026-06-24T03:02:26	23.4	76.5
176805	2026-06-24T03:12:26	23	77.5
176806	2026-06-24T03:22:26	22.8	78
176807	2026-06-24T03:32:26	22.9	78
176808	2026-06-24T03:42:26	22.8	78
176809	2026-06-24T03:52:26	22.8	78.5
176810	2026-06-24T04:02:26	22.9	78
176811	2026-06-24T04:12:26	22.9	78.5
176812	2026-06-24T04:22:26	22.9	78
176813	2026-06-24T04:32:26	22.8	78
176814	2026-06-24T04:42:26	23	78.5
176815	2026-06-24T04:52:26	23	78
176816	2026-06-24T05:02:26	23.2	78.5
176817	2026-06-24T05:12:26	23.2	78.5
176818	2026-06-24T05:22:26	23.4	78
176819	2026-06-24T05:32:26	23.4	78.5
176820	2026-06-24T05:42:26	23.7	78.5
176821	2026-06-24T05:52:26	23.8	78.5
176822	2026-06-24T06:02:26	24.1	78
176823	2026-06-24T06:12:26	24.3	78
176824	2026-06-24T06:22:26	24.5	77.5
176825	2026-06-24T06:32:26	24.8	76.5
176826	2026-06-24T06:42:26	25.1	76.5
176827	2026-06-24T06:52:26	25.2	76
176828	2026-06-24T07:02:26	25.6	74
176829	2026-06-24T07:12:26	25.9	73.5
176830	2026-06-24T07:22:26	26.2	72.5
176831	2026-06-24T07:32:26	26.5	73.5
176832	2026-06-24T07:42:26	26.6	72
176833	2026-06-24T07:52:26	26.9	71.5
176834	2026-06-24T08:02:26	27.2	70.5
176835	2026-06-24T08:12:26	27.5	70.5
176836	2026-06-24T08:22:26	27.7	69
176837	2026-06-24T08:32:26	28.1	67.5
176838	2026-06-24T08:42:26	28.4	66
176839	2026-06-24T08:52:26	28.6	64
176840	2026-06-24T09:02:26	29	63.5
176841	2026-06-24T09:12:26	29.1	62.5
176842	2026-06-24T09:22:26	29.2	61.5
176843	2026-06-24T09:32:26	29.5	59
176844	2026-06-24T09:42:26	29.8	59
176845	2026-06-24T09:52:26	30.1	58
176846	2026-06-24T10:02:26	30.4	55
176847	2026-06-24T10:12:26	30.5	56
176848	2026-06-24T10:22:26	30.8	54.5
176849	2026-06-24T10:32:26	31	54
176850	2026-06-24T10:42:26	31.3	50
176851	2026-06-24T10:52:26	31.7	52
176852	2026-06-24T11:02:26	31.9	48
176853	2026-06-24T11:12:26	32.4	49
176854	2026-06-24T11:22:26	32.6	47
176855	2026-06-24T11:32:26	32.7	43
176856	2026-06-24T11:42:26	33.2	46.5
176857	2026-06-24T11:52:26	33.7	43
176858	2026-06-24T12:02:26	34.4	42.5
176859	2026-06-24T12:12:26	35.4	39.5
176860	2026-06-24T12:22:26	37.9	35.5
176861	2026-06-24T12:32:46	39.6	32.5
176862	2026-06-24T12:42:26	40.6	29
176863	2026-06-24T12:52:25	41.6	31
176864	2026-06-24T13:02:25	43.8	29.5
176865	2026-06-24T13:12:25	45	28
176866	2026-06-24T13:22:25	46.2	26.5
176867	2026-06-24T13:32:25	46.9	26.5
176868	2026-06-24T13:42:25	47.8	25
176869	2026-06-24T13:52:25	48.4	25
176870	2026-06-24T14:02:25	48.9	23.5
176871	2026-06-24T14:12:25	49.6	24.5
176872	2026-06-24T14:22:25	50.2	23
176873	2026-06-24T14:32:25	50.1	22
176874	2026-06-24T14:42:25	51	22
176875	2026-06-24T14:52:25	51.4	22
176876	2026-06-24T15:02:25	51.2	22
176877	2026-06-24T15:12:25	51.9	21
176878	2026-06-24T15:22:25	52.1	22
176879	2026-06-24T15:32:25	52.7	21.5
176880	2026-06-24T15:42:25	52.9	21.5
176881	2026-06-24T15:52:25	53.4	21
176882	2026-06-24T16:02:25	53.2	21.5
176883	2026-06-24T16:12:25	52.7	21
176884	2026-06-24T16:22:25	53	21.5
176885	2026-06-24T16:32:25	53	23
176886	2026-06-24T16:42:25	52.3	22
176887	2026-06-24T16:52:25	52.4	22
176888	2026-06-24T17:02:25	52.1	22
176889	2026-06-24T17:12:25	52	23
176890	2026-06-24T17:22:25	51.9	23.5
176891	2026-06-24T17:32:25	51.2	24
176892	2026-06-24T17:42:25	50.5	24.5
176893	2026-06-24T17:52:25	50.1	25.5
176894	2026-06-24T18:02:25	49.5	26
176895	2026-06-24T18:12:25	48.7	26.5
176896	2026-06-24T18:22:25	47.9	28
176897	2026-06-24T18:32:25	46	30.5
176898	2026-06-24T18:42:25	44	33
176899	2026-06-24T18:52:25	43.7	34
176900	2026-06-24T19:02:25	42.4	36.5
176901	2026-06-24T19:12:25	40.8	38.5
176902	2026-06-24T19:22:25	39.4	40
176903	2026-06-24T19:32:25	37.5	43
176904	2026-06-24T19:42:25	36.3	45
176905	2026-06-24T19:52:25	36.5	45
176906	2026-06-24T20:02:25	35.9	45
176907	2026-06-24T20:12:25	35.5	46
176908	2026-06-24T20:22:25	34.9	47
176909	2026-06-24T20:32:25	34.3	48
176910	2026-06-24T20:42:25	33.9	48.5
176911	2026-06-24T20:52:25	33.5	50.5
176912	2026-06-24T21:02:25	33.1	50
176913	2026-06-24T21:12:25	32.6	51
176914	2026-06-24T21:22:25	32.1	52
176915	2026-06-24T21:32:25	31.7	52.5
176916	2026-06-24T21:42:25	31.4	53
176917	2026-06-24T21:52:25	30.9	54
176918	2026-06-24T22:02:25	30.7	54.5
176919	2026-06-24T22:12:25	30.3	55
176920	2026-06-24T22:22:25	29.9	56
176921	2026-06-24T22:32:25	29.2	57
176922	2026-06-24T22:42:25	29.2	57
176923	2026-06-24T22:52:25	29	57
176924	2026-06-24T23:12:25	28.5	59
176925	2026-06-24T23:22:25	28.4	59
176926	2026-06-24T23:32:25	28.1	58.5
176927	2026-06-24T23:42:25	27.7	59.5
176928	2026-06-24T23:52:25	27.4	59.5
176929	2026-06-25T00:02:25	27.2	60.5
176930	2026-06-25T00:12:25	27	61
176931	2026-06-25T00:22:25	26.8	61
176932	2026-06-25T00:32:25	26.7	61
176933	2026-06-25T00:42:25	26.4	61.5
176934	2026-06-25T00:52:25	26.4	61
176935	2026-06-25T01:02:25	26.2	61
176936	2026-06-25T01:12:25	26	61
176937	2026-06-25T01:22:25	25.9	61.5
176938	2026-06-25T01:32:25	25.7	63
176939	2026-06-25T01:42:25	25.5	67.5
176940	2026-06-25T01:52:25	25.3	68
176941	2026-06-25T02:02:25	25	64.5
176942	2026-06-25T02:12:25	24.8	65
176943	2026-06-25T02:22:25	24.7	65.5
176944	2026-06-25T02:32:25	24.5	66.5
176945	2026-06-25T02:42:25	24.4	67
176946	2026-06-25T02:52:24	24.3	67.5
176947	2026-06-25T03:02:24	23.9	68
176948	2026-06-25T03:12:24	23.9	67
176949	2026-06-25T03:22:24	23.8	68.5
176950	2026-06-25T03:32:24	23.8	67.5
176951	2026-06-25T03:42:24	23.6	68.5
176952	2026-06-25T03:52:24	23.7	68
176953	2026-06-25T04:02:24	23.7	69
176954	2026-06-25T04:12:24	23.6	69
176955	2026-06-25T04:22:24	23.6	68.5
176956	2026-06-25T04:32:24	23.7	69
176957	2026-06-25T04:42:24	23.7	68.5
176958	2026-06-25T04:52:24	23.8	69
176959	2026-06-25T05:02:24	23.7	68.5
176960	2026-06-25T05:12:24	23.9	69.5
176961	2026-06-25T05:22:24	24	69.5
176962	2026-06-25T05:32:24	24.1	68
176963	2026-06-25T05:42:24	24.4	68
176964	2026-06-25T05:52:24	24.6	68
176965	2026-06-25T06:02:24	24.8	67.5
176966	2026-06-25T06:12:24	25.1	67.5
176967	2026-06-25T06:22:24	25.4	67
176968	2026-06-25T06:32:24	25.7	66.5
176969	2026-06-25T06:42:24	26	66
176970	2026-06-25T06:52:24	26.3	65.5
176971	2026-06-25T07:02:24	26.7	63.5
176972	2026-06-25T07:12:24	27.1	63
176973	2026-06-25T07:22:24	27.3	63
176974	2026-06-25T07:32:24	27.5	62.5
176975	2026-06-25T07:42:24	28	61
176976	2026-06-25T07:52:24	28.6	61
176977	2026-06-25T08:02:24	28.7	60.5
176978	2026-06-25T08:12:24	29.2	59.5
176979	2026-06-25T08:22:24	29.4	59
176980	2026-06-25T08:32:24	29.6	59.5
176981	2026-06-25T08:42:24	29.9	58.5
176982	2026-06-25T08:52:24	29.9	57.5
176983	2026-06-25T09:02:24	30.4	54.5
176984	2026-06-25T09:12:24	30.7	52.5
176985	2026-06-25T09:22:24	31	52.5
176986	2026-06-25T09:32:24	31.4	53
176987	2026-06-25T09:42:24	31.6	51
176988	2026-06-25T09:52:24	32.1	51
176989	2026-06-25T10:02:24	32.4	49
176990	2026-06-25T10:12:24	32.7	49.5
176991	2026-06-25T10:22:24	32.9	48
176992	2026-06-25T10:32:24	33.1	45
176993	2026-06-25T10:42:24	33.3	47.5
176994	2026-06-25T10:52:24	33.6	48
176995	2026-06-25T11:02:24	34	46
176996	2026-06-25T11:12:24	34.4	44
176997	2026-06-25T11:22:24	34.6	43.5
176998	2026-06-25T11:32:24	34.8	44
176999	2026-06-25T11:42:24	35.3	44
177000	2026-06-25T11:52:24	35.6	42.5
177001	2026-06-25T12:02:24	36.2	40
177002	2026-06-25T12:12:24	36.9	39.5
177003	2026-06-25T12:22:24	39.4	36.5
177004	2026-06-25T12:32:24	41.2	34
177005	2026-06-25T12:42:24	42.8	32
177006	2026-06-25T12:52:23	43.7	30.5
177007	2026-06-25T13:02:23	44.8	29.5
177008	2026-06-25T13:12:23	45.7	28.5
177009	2026-06-25T13:22:23	46.4	26.5
177010	2026-06-25T13:32:23	45.7	27.5
177011	2026-06-25T13:42:23	47	26.5
177012	2026-06-25T13:52:23	47.9	26
177013	2026-06-25T14:02:23	48.1	25
177014	2026-06-25T14:12:23	48.1	25
177015	2026-06-25T14:22:23	49.4	24.5
177016	2026-06-25T14:32:23	49.7	24
177017	2026-06-25T14:42:23	49.6	23
177018	2026-06-25T14:52:23	49.8	23
177019	2026-06-25T15:02:23	49.1	23.5
177020	2026-06-25T15:12:23	50.1	22.5
177021	2026-06-25T15:22:23	50.4	22.5
177022	2026-06-25T15:32:23	50.5	21.5
177023	2026-06-25T15:42:23	50.4	22
177024	2026-06-25T15:52:23	51.5	21.5
177025	2026-06-25T16:02:23	51.9	21.5
177026	2026-06-25T16:12:23	51.7	21
177027	2026-06-25T16:22:23	52	21.5
177028	2026-06-25T16:32:23	50.6	22.5
177029	2026-06-25T16:42:23	51.2	21.5
177030	2026-06-25T16:52:23	50.2	22.5
177031	2026-06-25T17:02:23	51	22
177032	2026-06-25T17:12:23	50.4	22
177033	2026-06-25T17:22:23	50.6	22.5
177034	2026-06-25T17:32:23	50.1	22.5
177035	2026-06-25T17:42:23	49.5	23
177036	2026-06-25T17:52:23	49	23
177037	2026-06-25T18:02:23	48.6	24
177038	2026-06-25T18:12:23	48.3	25.5
177039	2026-06-25T18:22:23	47.5	25.5
177040	2026-06-25T18:32:23	46.6	27
177041	2026-06-25T18:42:23	45.6	28
177042	2026-06-25T18:52:23	44.2	30.5
177043	2026-06-25T19:02:23	42.6	34
177044	2026-06-25T19:12:23	41.1	35.5
177045	2026-06-25T19:22:23	39.9	37
177046	2026-06-25T19:32:23	39	39.5
177047	2026-06-25T19:42:23	37.8	40
177048	2026-06-25T19:52:23	37.3	42
177049	2026-06-25T20:02:23	36.7	43
177050	2026-06-25T20:12:23	36.2	44.5
177051	2026-06-25T20:22:23	35.3	45
177052	2026-06-25T20:32:23	34.8	45
177053	2026-06-25T20:42:23	34.5	45
177054	2026-06-25T20:52:23	34.2	46.5
177055	2026-06-25T21:02:23	33.7	47
177056	2026-06-25T21:12:23	33.3	47.5
177057	2026-06-25T21:22:23	32.9	49
177058	2026-06-25T21:32:23	32.6	48.5
177059	2026-06-25T21:42:23	32.3	49.5
177060	2026-06-25T21:52:23	32.1	50.5
177061	2026-06-25T22:02:23	31.8	51.5
177062	2026-06-25T22:12:23	31.2	51.5
177063	2026-06-25T22:22:23	31	52.5
177064	2026-06-25T22:32:23	31	53.5
177065	2026-06-25T22:42:23	30.4	53.5
177066	2026-06-25T22:52:23	30.3	54
177067	2026-06-25T23:02:23	30.3	53
177068	2026-06-25T23:12:23	29.4	54.5
177069	2026-06-25T23:22:23	29.4	54.5
177070	2026-06-25T23:32:23	29.2	54
177071	2026-06-25T23:42:23	29.1	54.5
177072	2026-06-25T23:52:23	28.7	55
177073	2026-06-26T00:02:23	28.5	55
177074	2026-06-26T00:12:23	28.5	56.5
177075	2026-06-26T00:22:23	28.4	57.5
177076	2026-06-26T00:32:23	28.4	57.5
177077	2026-06-26T00:42:23	27.7	57.5
177078	2026-06-26T00:52:23	27.6	58.5
177079	2026-06-26T01:02:23	27.5	59.5
177080	2026-06-26T01:12:23	27.3	60
177081	2026-06-26T01:22:23	27	60.5
177082	2026-06-26T01:32:23	27	61
177083	2026-06-26T01:42:23	26.6	61
177084	2026-06-26T01:52:23	26.3	62.5
177085	2026-06-26T02:02:23	26.4	63
177086	2026-06-26T02:12:23	26.3	63.5
177087	2026-06-26T02:22:23	26.1	65
177088	2026-06-26T02:32:22	25.9	64.5
177089	2026-06-26T02:42:22	25.8	64.5
177090	2026-06-26T02:52:22	25.7	64
177091	2026-06-26T03:02:22	25.5	65
177092	2026-06-26T03:12:22	25.4	64.5
177093	2026-06-26T03:22:22	25.3	64.5
177094	2026-06-26T03:32:22	25.4	67.5
177095	2026-06-26T03:42:22	25.1	68.5
177096	2026-06-26T03:52:22	25	69.5
177097	2026-06-26T04:02:22	25.1	68.5
177098	2026-06-26T04:12:22	25.2	68.5
177099	2026-06-26T04:22:22	25.3	69
177100	2026-06-26T04:32:22	25.4	70
177101	2026-06-26T04:42:22	25.4	69
177102	2026-06-26T04:52:22	25.6	68
177103	2026-06-26T05:02:22	25.7	66.5
177104	2026-06-26T05:12:22	25.7	67
177105	2026-06-26T05:22:22	26	66.5
177106	2026-06-26T05:32:22	26.2	66
177107	2026-06-26T05:42:22	26.2	67
177108	2026-06-26T05:52:22	26.3	66.5
177109	2026-06-26T06:02:39	26.4	66.5
177110	2026-06-26T06:12:22	26.4	65.5
177111	2026-06-26T06:22:22	26.3	66
177112	2026-06-26T06:32:22	26.7	65
177113	2026-06-26T06:42:22	26.7	66
177114	2026-06-26T06:52:22	26.9	65
177115	2026-06-26T07:02:22	27.1	65
177116	2026-06-26T07:12:22	27.3	64.5
177117	2026-06-26T07:22:22	27.7	62.5
177118	2026-06-26T07:32:22	28	57
177119	2026-06-26T07:42:22	28.3	59.5
177120	2026-06-26T07:52:22	28.5	60.5
177121	2026-06-26T08:02:22	28.8	59.5
177122	2026-06-26T08:12:22	29.1	60.5
177123	2026-06-26T08:22:22	29.2	61.5
177124	2026-06-26T08:32:22	29.4	61
177125	2026-06-26T08:42:22	29.6	60.5
177126	2026-06-26T08:52:22	30	58.5
177127	2026-06-26T09:02:22	30.2	59
177128	2026-06-26T09:12:22	30.6	58
177129	2026-06-26T09:22:22	31.1	57
177130	2026-06-26T09:32:22	31.2	56
177131	2026-06-26T09:42:22	31.5	55.5
177132	2026-06-26T09:52:22	32.1	54
177133	2026-06-26T10:02:22	32.2	53.5
177134	2026-06-26T10:12:22	32.4	52.5
177135	2026-06-26T10:22:22	32.8	50.5
177136	2026-06-26T10:32:22	33.4	48
177137	2026-06-26T10:42:22	33.6	48.5
177138	2026-06-26T10:52:22	34	47.5
177139	2026-06-26T11:02:22	34.3	46
177140	2026-06-26T11:12:22	34.7	45
177141	2026-06-26T11:22:22	35.3	41.5
177142	2026-06-26T11:32:22	35.4	39.5
177143	2026-06-26T11:42:22	35.8	39
177144	2026-06-26T11:52:22	36.4	37.5
177145	2026-06-26T12:02:21	37.2	37
177146	2026-06-26T12:12:21	37.6	36.5
177147	2026-06-26T12:22:21	39.8	33.5
177148	2026-06-26T12:32:21	42.5	31
177149	2026-06-26T12:42:21	43.7	29.5
177150	2026-06-26T12:52:21	44.5	27.5
177151	2026-06-26T13:02:21	46.2	28
177152	2026-06-26T13:12:21	47.3	26.5
177153	2026-06-26T13:22:21	48.9	25
177154	2026-06-26T13:32:21	49.6	24.5
177155	2026-06-26T13:42:21	48.9	24
177156	2026-06-26T13:52:21	48.5	24.5
177157	2026-06-26T14:02:21	49.4	24
177158	2026-06-26T14:12:21	49.6	24
177159	2026-06-26T14:22:21	50.5	24
177160	2026-06-26T14:32:21	51.9	22
177161	2026-06-26T14:42:21	53.1	22.5
177162	2026-06-26T14:52:21	53.3	21
177163	2026-06-26T15:02:21	54.4	21
177164	2026-06-26T15:12:21	54.1	21.5
177165	2026-06-26T15:22:21	52.8	21
177166	2026-06-26T15:32:21	53.2	21
177167	2026-06-26T15:42:21	54	21.5
177168	2026-06-26T15:52:21	53.8	21
177169	2026-06-26T16:02:21	52	22
177170	2026-06-26T16:12:21	51.2	22.5
177171	2026-06-26T16:22:21	49.4	23.5
177172	2026-06-26T16:32:21	48.7	24
177173	2026-06-26T16:42:21	51.5	23.5
177174	2026-06-26T16:52:21	51.8	23
177175	2026-06-26T17:02:21	52.9	22.5
177176	2026-06-26T17:12:21	52.5	22.5
177177	2026-06-26T17:22:21	48.7	25
177178	2026-06-26T17:32:21	47.4	27
177179	2026-06-26T17:42:21	46.7	28
177180	2026-06-26T17:52:21	46.1	28.5
177181	2026-06-26T18:02:21	45.1	31.5
177182	2026-06-26T18:12:21	44.2	31
177183	2026-06-26T18:22:21	43.2	33.5
177184	2026-06-26T18:32:21	42.2	35.5
177185	2026-06-26T18:42:21	41.3	37.5
177186	2026-06-26T18:52:21	40.5	39.5
177187	2026-06-26T19:02:21	39.7	40.5
177188	2026-06-26T19:12:21	38.7	41
177189	2026-06-26T19:22:21	38.2	43
177190	2026-06-26T19:32:21	37.7	42.5
177191	2026-06-26T19:42:21	36.9	42.5
177192	2026-06-26T19:52:21	36	43
177193	2026-06-26T20:02:21	35.8	44.5
177194	2026-06-26T20:12:21	34.9	46.5
177195	2026-06-26T20:22:21	34.8	46.5
177196	2026-06-26T20:32:21	34.8	45.5
177197	2026-06-26T20:52:21	34.1	44
177198	2026-06-26T21:02:21	34	44
177199	2026-06-26T21:12:21	33.8	43.5
177200	2026-06-26T21:22:21	33.5	44
177201	2026-06-26T21:32:21	33.3	44
177202	2026-06-26T21:42:21	32.8	48
177203	2026-06-26T21:52:21	32.8	47.5
177204	2026-06-26T22:02:21	32.5	46
177205	2026-06-26T22:12:21	32.4	47.5
177206	2026-06-26T22:22:21	32.2	45
177207	2026-06-26T22:32:21	32	45.5
177208	2026-06-26T22:42:21	31.6	47
177209	2026-06-26T22:52:21	31.6	44.5
177210	2026-06-26T23:02:21	31.4	44.5
177211	2026-06-26T23:12:21	31.3	43
177212	2026-06-26T23:22:21	31.4	43.5
177213	2026-06-26T23:32:21	31.3	44.5
177214	2026-06-26T23:42:21	31.1	43.5
177215	2026-06-26T23:52:21	31.2	43.5
177216	2026-06-27T00:02:21	31.1	42
177217	2026-06-27T00:12:21	31	42.5
177218	2026-06-27T00:22:21	30.5	46.5
177219	2026-06-27T00:32:21	30.4	48.5
177220	2026-06-27T00:42:21	30	52
177221	2026-06-27T00:52:21	29.7	52.5
177222	2026-06-27T01:02:21	29.6	53.5
177223	2026-06-27T01:12:21	29.2	55
177224	2026-06-27T01:22:21	29	55.5
177225	2026-06-27T01:32:21	28.8	56.5
177226	2026-06-27T01:42:21	28.4	57
177227	2026-06-27T01:52:21	28.2	57
177228	2026-06-27T02:02:20	27.9	57
177229	2026-06-27T02:12:21	27.7	57.5
177230	2026-06-27T02:22:20	27.1	57
177231	2026-06-27T02:32:20	27.3	59.5
177232	2026-06-27T02:42:20	27.1	59.5
177233	2026-06-27T02:52:20	27.1	60.5
177234	2026-06-27T03:02:20	26.7	61
177235	2026-06-27T03:12:20	26.6	62.5
177236	2026-06-27T03:22:20	26.4	62.5
177237	2026-06-27T03:32:20	26.2	63
177238	2026-06-27T03:42:20	26.3	63.5
177239	2026-06-27T03:52:20	26.1	62.5
177240	2026-06-27T04:02:20	26	63
177241	2026-06-27T04:12:20	25.9	63
177242	2026-06-27T04:22:20	25.8	62.5
177243	2026-06-27T04:32:20	25.9	64.5
177244	2026-06-27T04:42:20	26	63.5
177245	2026-06-27T04:52:20	26.1	64
177246	2026-06-27T05:02:20	26.2	65
177247	2026-06-27T05:12:20	26.3	64.5
177248	2026-06-27T05:22:20	26.6	63
177249	2026-06-27T05:32:20	27	62
177250	2026-06-27T05:42:20	27.3	59.5
177251	2026-06-27T05:52:20	27.7	60
177252	2026-06-27T06:02:20	27.9	59
177253	2026-06-27T06:12:20	27.8	59.5
177254	2026-06-27T06:22:20	27.9	62
177255	2026-06-27T06:32:20	28	62.5
177256	2026-06-27T06:42:20	28.2	59.5
177257	2026-06-27T06:52:20	28.5	58.5
177258	2026-06-27T07:02:20	28.6	60
177259	2026-06-27T07:12:20	28.8	59
177260	2026-06-27T07:22:20	29	57.5
177261	2026-06-27T07:32:20	29.1	57
177262	2026-06-27T07:42:20	29.5	57
177263	2026-06-27T07:52:20	29.6	56.5
177264	2026-06-27T08:02:20	29.9	55.5
177265	2026-06-27T08:12:20	30.1	56.5
177266	2026-06-27T08:22:20	30.3	55
177267	2026-06-27T08:32:20	30.5	54.5
177268	2026-06-27T08:42:20	31	53.5
177269	2026-06-27T08:52:20	31.2	53
177270	2026-06-27T09:02:20	31.9	52.5
177271	2026-06-27T09:12:20	32.1	50.5
177272	2026-06-27T09:22:20	32.3	50.5
177273	2026-06-27T09:32:20	32.7	48
177274	2026-06-27T09:42:20	33.2	47.5
177275	2026-06-27T09:52:20	33	47
177276	2026-06-27T10:02:20	33.4	42
177277	2026-06-27T10:12:20	33.8	43
177278	2026-06-27T10:22:20	34.2	41
177279	2026-06-27T10:32:20	34.5	39.5
177280	2026-06-27T10:42:20	34.9	40
177281	2026-06-27T10:52:20	35.2	38
177282	2026-06-27T11:02:20	35.6	36
177283	2026-06-27T11:12:20	35.7	35.5
177284	2026-06-27T11:22:20	36.2	34.5
177285	2026-06-27T11:32:20	36.3	33.5
177286	2026-06-27T11:42:20	37.1	34
177287	2026-06-27T11:52:19	37.8	32.5
177288	2026-06-27T12:02:19	38.1	31
177289	2026-06-27T12:12:19	38.8	31
177290	2026-06-27T12:22:19	41.5	29.5
177291	2026-06-27T12:32:19	43.4	26.5
177292	2026-06-27T12:42:19	44	27.5
177293	2026-06-27T12:52:19	45.5	26.5
177294	2026-06-27T13:02:19	47.4	25
177295	2026-06-27T13:12:19	47.9	24
177296	2026-06-27T13:22:19	48.7	23.5
177297	2026-06-27T13:32:19	48.7	23
177298	2026-06-27T13:42:19	48.8	22.5
177299	2026-06-27T13:52:19	49.4	22
177300	2026-06-27T14:02:19	49.2	22.5
177301	2026-06-27T14:12:19	50.7	21.5
177302	2026-06-27T14:22:19	51.8	21.5
177303	2026-06-27T14:32:19	52.1	20.5
177304	2026-06-27T14:42:19	53.1	19.5
177305	2026-06-27T14:52:19	54.2	19.5
177306	2026-06-27T15:02:19	52.5	20.5
177307	2026-06-27T15:12:19	52.5	21
177308	2026-06-27T15:22:19	54.1	20
177309	2026-06-27T15:32:19	53.9	19.5
177310	2026-06-27T15:42:19	53	20
177311	2026-06-27T15:52:19	52.6	20
177312	2026-06-27T16:02:19	53.9	20
177313	2026-06-27T16:12:19	53.3	20
177314	2026-06-27T16:22:19	53.2	19.5
177315	2026-06-27T16:32:19	51.7	20.5
177316	2026-06-27T16:42:19	51.4	20.5
177317	2026-06-27T16:52:19	51.8	20.5
177318	2026-06-27T17:02:19	52.7	21
177319	2026-06-27T17:12:19	53.2	20
177320	2026-06-27T17:22:19	53.6	21
177321	2026-06-27T17:32:19	53.1	22
177322	2026-06-27T17:42:19	51.6	23
177323	2026-06-27T17:52:19	48.7	27
177324	2026-06-27T18:02:19	47.4	29.5
177325	2026-06-27T18:12:19	47	29.5
177326	2026-06-27T18:22:19	47.6	30
177327	2026-06-27T18:32:19	46.6	31
177328	2026-06-27T18:42:19	45.6	34
177329	2026-06-27T18:52:19	43.6	35
177330	2026-06-27T19:02:19	42.8	34
177331	2026-06-27T19:12:19	41.4	37
177332	2026-06-27T19:22:19	40.4	39
177333	2026-06-27T19:32:19	39.6	39.5
177334	2026-06-27T19:42:19	38.8	39.5
177335	2026-06-27T19:52:19	37.9	40.5
177336	2026-06-27T20:02:19	37.3	41
177337	2026-06-27T20:12:19	36.7	40
177338	2026-06-27T20:22:19	35.9	41.5
177339	2026-06-27T20:32:19	35.3	41
177340	2026-06-27T20:42:19	35.1	40.5
177341	2026-06-27T20:52:19	34.4	42.5
177342	2026-06-27T21:02:19	33.9	43.5
177343	2026-06-27T21:12:19	33.7	44
177344	2026-06-27T21:22:19	33.6	44
177345	2026-06-27T21:32:19	33.1	44.5
177346	2026-06-27T21:42:19	33	44
177347	2026-06-27T21:52:19	32.9	45.5
177348	2026-06-27T22:02:19	32.5	48
177349	2026-06-27T22:12:19	32.2	51.5
177350	2026-06-27T22:22:19	31.7	52
177351	2026-06-27T22:32:19	31.6	53
177352	2026-06-27T22:42:19	30.8	52.5
177353	2026-06-27T22:52:19	30.8	52
177354	2026-06-27T23:02:19	30.5	53
177355	2026-06-27T23:12:19	30.4	53.5
177356	2026-06-27T23:22:19	29.8	55
177357	2026-06-27T23:32:19	29.6	55.5
177358	2026-06-27T23:42:19	29.6	55
177359	2026-06-27T23:52:19	29.7	54.5
177360	2026-06-28T00:02:19	29.4	53
177361	2026-06-28T00:12:19	29.6	54
177362	2026-06-28T00:22:19	29.6	54
177363	2026-06-28T00:32:19	29.3	54
177364	2026-06-28T00:42:19	29.2	54.5
177365	2026-06-28T00:52:19	29	55
177366	2026-06-28T01:02:19	28.9	56.5
177367	2026-06-28T01:12:19	28.7	59
177368	2026-06-28T01:22:19	28.5	60.5
177369	2026-06-28T01:32:19	28.3	59.5
177370	2026-06-28T01:42:19	28.1	59.5
177371	2026-06-28T01:52:19	27.9	60
177372	2026-06-28T02:02:19	27.7	59.5
177373	2026-06-28T02:12:19	27.7	60.5
177374	2026-06-28T02:22:19	27.3	62
177375	2026-06-28T02:32:18	27	61.5
177376	2026-06-28T02:42:18	26.9	61.5
177377	2026-06-28T02:52:18	26.8	62
177378	2026-06-28T03:02:18	26.6	62
177379	2026-06-28T03:12:18	26.4	62.5
177380	2026-06-28T03:22:18	26.5	63
177381	2026-06-28T03:32:18	26.2	63
177382	2026-06-28T03:42:18	26	64.5
177383	2026-06-28T03:52:18	25.8	64
177384	2026-06-28T04:02:18	26	64.5
177385	2026-06-28T04:12:18	26	63
177386	2026-06-28T04:22:18	26	63.5
177387	2026-06-28T04:32:18	26.2	64
177388	2026-06-28T04:42:18	26.1	64
177389	2026-06-28T04:52:18	26.1	63
177390	2026-06-28T05:02:18	26.3	65
177391	2026-06-28T05:12:18	26.5	65
177392	2026-06-28T05:22:18	26.6	64.5
177393	2026-06-28T05:32:18	26.6	64.5
177394	2026-06-28T05:42:18	26.9	64.5
177395	2026-06-28T05:52:18	26.9	65.5
177396	2026-06-28T06:02:18	27.1	64
177397	2026-06-28T06:12:18	27.2	63.5
177398	2026-06-28T06:22:18	27.4	63.5
177399	2026-06-28T06:42:18	27.7	59.5
177400	2026-06-28T06:52:18	28	59.5
177401	2026-06-28T07:02:18	28.3	59
177402	2026-06-28T07:12:18	28.5	57.5
177403	2026-06-28T07:22:18	28.9	56.5
177404	2026-06-28T07:32:18	29	57
177405	2026-06-28T07:42:18	29.1	54
177406	2026-06-28T07:52:18	29.1	54.5
177407	2026-06-28T08:02:18	29.6	54.5
177408	2026-06-28T08:12:18	30.1	50
177409	2026-06-28T08:22:18	30.5	48.5
177410	2026-06-28T08:32:18	31	48
177411	2026-06-28T08:42:18	31	48
177412	2026-06-28T08:52:18	31.1	48
177413	2026-06-28T09:02:18	31	47.5
177414	2026-06-28T09:12:18	31.4	46.5
177415	2026-06-28T09:22:18	31.6	45
177416	2026-06-28T09:32:18	31.9	46.5
177417	2026-06-28T09:42:18	32.1	49.5
177418	2026-06-28T09:52:18	32.3	47
177419	2026-06-28T10:02:18	32.6	47
177420	2026-06-28T10:12:18	32.8	47
177421	2026-06-28T10:22:18	33.1	47.5
177422	2026-06-28T10:32:18	33.4	44.5
177423	2026-06-28T10:42:18	33.7	44.5
177424	2026-06-28T10:52:18	33.7	43.5
177425	2026-06-28T11:02:18	33.9	44
177426	2026-06-28T11:12:18	34.3	43.5
177427	2026-06-28T11:22:18	34.4	41.5
177428	2026-06-28T11:32:18	34.7	42
177429	2026-06-28T11:42:18	35.1	41
177430	2026-06-28T11:52:18	35.3	40
177431	2026-06-28T12:02:17	35.9	38
177432	2026-06-28T12:12:17	36.4	36.5
177433	2026-06-28T12:22:17	38.7	35.5
177434	2026-06-28T12:32:17	39.6	33
177435	2026-06-28T12:42:17	41.5	30.5
177436	2026-06-28T12:52:17	41.7	30
177437	2026-06-28T13:02:17	42.8	28.5
177438	2026-06-28T13:12:17	43	28
177439	2026-06-28T13:22:17	44.8	26.5
177440	2026-06-28T13:32:17	44.7	25.5
177441	2026-06-28T13:42:17	45.4	26
177442	2026-06-28T13:52:17	45.8	25
177443	2026-06-28T14:02:17	46.2	25
177444	2026-06-28T14:12:17	47.5	24
177445	2026-06-28T14:22:17	44.9	26
177446	2026-06-28T14:32:17	44.9	26
177447	2026-06-28T14:42:17	44.6	26
177448	2026-06-28T14:52:17	46.1	25
177449	2026-06-28T15:02:17	45.5	26
177450	2026-06-28T15:12:17	45.1	26.5
177451	2026-06-28T15:22:17	44.3	28
177452	2026-06-28T15:32:17	44.2	27
177453	2026-06-28T15:42:17	45.2	26.5
177454	2026-06-28T15:52:17	46.5	25.5
177455	2026-06-28T16:02:17	46.8	24.5
177456	2026-06-28T16:12:17	47.7	24
177457	2026-06-28T16:22:17	48.2	24.5
177458	2026-06-28T16:32:17	49.3	23
177459	2026-06-28T16:42:17	49.6	23
177460	2026-06-28T16:52:17	49.1	23
177461	2026-06-28T17:02:17	49	23
177462	2026-06-28T17:12:17	47.9	24.5
177463	2026-06-28T17:22:17	48.8	23.5
177464	2026-06-28T17:32:17	47.3	24.5
177465	2026-06-28T17:42:17	47.2	24.5
177466	2026-06-28T17:52:17	45.8	25.5
177467	2026-06-28T18:02:17	42.7	28.5
177468	2026-06-28T18:12:17	41.5	30
177469	2026-06-28T18:22:17	39.8	32
177470	2026-06-28T18:32:17	39.9	35
177471	2026-06-28T18:42:17	39.7	37
177472	2026-06-28T18:52:17	39.1	38.5
177473	2026-06-28T19:02:17	38.4	39.5
177474	2026-06-28T19:12:17	37.9	40
177475	2026-06-28T19:22:17	37.4	40.5
177476	2026-06-28T19:32:17	36.7	40.5
177477	2026-06-28T19:42:17	36.2	42
177478	2026-06-28T19:52:17	35.6	43.5
177479	2026-06-28T20:02:17	35	44
177480	2026-06-28T20:12:17	34.6	45.5
177481	2026-06-28T20:22:17	34.3	46
177482	2026-06-28T20:32:17	33.8	46
177483	2026-06-28T20:42:17	33.5	47
177484	2026-06-28T20:52:17	33.2	47.5
177485	2026-06-28T21:02:17	32.8	48
177486	2026-06-28T21:12:17	32.5	49
177487	2026-06-28T21:22:17	32.3	50
177488	2026-06-28T21:32:17	32.1	50.5
177489	2026-06-28T21:42:17	31.6	51.5
177490	2026-06-28T21:52:17	31.3	51.5
177491	2026-06-28T22:02:17	31.2	53.5
177492	2026-06-28T22:12:17	31	53
177493	2026-06-28T22:22:17	30.7	53.5
177494	2026-06-28T22:32:17	30.6	53.5
177495	2026-06-28T22:42:17	30.4	54.5
177496	2026-06-28T22:52:17	30.4	55.5
177497	2026-06-28T23:02:17	30	56.5
177498	2026-06-28T23:12:17	29.8	57
177499	2026-06-28T23:22:17	29.7	56
177500	2026-06-28T23:32:17	29.3	57.5
177501	2026-06-28T23:42:17	28.7	58.5
177502	2026-06-28T23:52:17	28.8	58.5
177503	2026-06-29T00:02:17	28.4	59.5
177504	2026-06-29T00:12:17	28.4	59.5
177505	2026-06-29T00:22:17	28.1	59.5
177506	2026-06-29T00:32:17	28.1	59.5
177507	2026-06-29T00:42:16	28.2	59
177508	2026-06-29T00:52:16	27.7	60.5
177509	2026-06-29T01:02:16	27.7	61.5
177510	2026-06-29T01:12:16	27.4	62.5
177511	2026-06-29T01:22:16	27.5	63
177512	2026-06-29T01:32:16	27.4	63.5
177513	2026-06-29T01:42:16	27.1	64
177514	2026-06-29T01:52:16	27	62.5
177515	2026-06-29T02:02:16	27.1	63
177516	2026-06-29T02:12:16	26.6	65
177517	2026-06-29T02:22:16	26.6	67
177518	2026-06-29T02:32:16	26.5	68.5
177519	2026-06-29T02:42:16	26.3	69.5
177520	2026-06-29T02:52:16	26	73
177521	2026-06-29T03:02:16	23.9	87.5
177522	2026-06-29T03:12:16	22.4	100
177523	2026-06-29T03:22:16	23	100
177524	2026-06-29T03:32:16	22.9	100
177525	2026-06-29T03:42:16	22.5	100
177526	2026-06-29T03:52:16	21.9	100
177527	2026-06-29T04:02:16	21.7	100
177528	2026-06-29T04:12:16	21.8	100
177529	2026-06-29T04:22:16	21.6	100
177530	2026-06-29T04:32:16	20.8	100
177531	2026-06-29T04:42:16	21	100
177532	2026-06-29T04:52:16	20.8	100
177533	2026-06-29T05:02:16	21.2	100
177534	2026-06-29T05:12:16	21.3	99.5
177535	2026-06-29T05:22:16	21.3	98.5
177536	2026-06-29T05:32:16	21.4	97
177537	2026-06-29T05:42:16	21.3	96
177538	2026-06-29T05:52:16	21	96
177539	2026-06-29T06:02:16	21.4	96.5
177540	2026-06-29T06:12:16	21.6	96.5
177541	2026-06-29T06:22:16	22	96.5
177542	2026-06-29T06:32:16	22.2	96.5
177543	2026-06-29T06:42:16	22.3	96.5
177544	2026-06-29T06:52:16	22.5	96.5
177545	2026-06-29T07:02:16	22.9	96.5
177546	2026-06-29T07:12:16	22.6	96.5
177547	2026-06-29T07:22:16	22.7	96.5
177548	2026-06-29T07:32:16	22.8	97
177549	2026-06-29T07:42:16	22.9	97
177550	2026-06-29T07:52:16	22.6	97
177551	2026-06-29T08:02:16	22.7	97
177552	2026-06-29T08:12:16	23.1	97
177553	2026-06-29T08:22:16	23.2	97
177554	2026-06-29T08:32:16	23.2	97
177555	2026-06-29T08:42:16	23.4	97
177556	2026-06-29T08:52:16	23.3	97
177557	2026-06-29T09:02:16	23.6	97
177558	2026-06-29T09:12:16	23.8	97
177559	2026-06-29T09:22:16	23.9	97
177560	2026-06-29T09:32:16	24.1	97
177561	2026-06-29T09:42:16	24.3	97.5
177562	2026-06-29T09:52:16	24.3	97.5
177563	2026-06-29T10:02:16	24.5	97.5
177564	2026-06-29T10:12:16	24.9	97.5
177565	2026-06-29T10:22:16	25.2	97.5
177566	2026-06-29T10:32:16	25.5	97.5
177567	2026-06-29T10:42:15	26	97.5
177568	2026-06-29T10:52:15	27.3	97.5
177569	2026-06-29T11:02:15	27.4	97.5
177570	2026-06-29T11:12:15	27.9	98
177571	2026-06-29T11:22:15	28.4	98
177572	2026-06-29T11:32:15	28.3	98
177573	2026-06-29T11:42:15	28.5	98
177574	2026-06-29T11:52:15	28.1	98
177575	2026-06-29T12:02:15	27.8	98
177576	2026-06-29T12:12:15	28.1	98
177577	2026-06-29T12:22:15	29.3	98
177578	2026-06-29T12:32:15	30.7	98
177579	2026-06-29T12:42:15	32.2	100
177580	2026-06-29T12:52:15	31.9	100
177581	2026-06-29T13:02:15	34.4	100
177582	2026-06-29T13:12:15	34.6	99.5
177583	2026-06-29T13:22:15	35.7	53
177584	2026-06-29T13:32:15	37.2	48
177585	2026-06-29T13:42:15	35	51
177586	2026-06-29T13:52:15	34.6	52
177587	2026-06-29T14:02:15	32.7	54.5
177588	2026-06-29T14:12:15	32.4	56
177589	2026-06-29T14:22:15	32.4	54
177590	2026-06-29T14:32:15	31.6	56
177591	2026-06-29T14:42:15	31	57.5
177592	2026-06-29T14:52:15	31.1	57
177593	2026-06-29T15:02:15	30.8	59
177594	2026-06-29T15:12:15	32.2	55.5
177595	2026-06-29T15:22:15	35.7	45
177596	2026-06-29T15:32:15	37	42
177597	2026-06-29T15:42:15	37.9	41.5
177598	2026-06-29T15:52:15	39.8	41
177599	2026-06-29T16:02:15	38.4	41.5
177600	2026-06-29T16:12:15	38.1	43.5
177601	2026-06-29T16:22:15	36.9	44
177602	2026-06-29T16:32:15	36.9	45.5
177603	2026-06-29T16:42:15	36.7	47
177604	2026-06-29T16:52:15	36.6	46.5
177605	2026-06-29T17:02:15	35.2	50.5
177606	2026-06-29T17:12:15	34.5	52.5
177607	2026-06-29T17:22:15	32.9	54.5
177608	2026-06-29T17:32:15	31.9	54.5
177609	2026-06-29T17:42:15	31.7	56
177610	2026-06-29T17:52:15	31.4	57
177611	2026-06-29T18:02:15	30.8	60.5
177612	2026-06-29T18:12:15	30.7	58
177613	2026-06-29T18:22:15	30.1	59.5
177614	2026-06-29T18:32:15	30	60
177615	2026-06-29T18:42:15	29.9	61
177616	2026-06-29T18:52:15	31.1	61.5
177617	2026-06-29T19:02:15	31.3	62.5
177618	2026-06-29T19:12:15	30.1	65.5
177619	2026-06-29T19:22:15	29.4	67.5
177620	2026-06-29T19:32:15	28.9	70
177621	2026-06-29T19:42:15	28.5	71
177622	2026-06-29T19:52:15	28.1	70.5
177623	2026-06-29T20:02:15	27.9	71
177624	2026-06-29T20:12:15	27.6	71.5
177625	2026-06-29T20:22:15	27.2	73.5
177626	2026-06-29T20:32:14	27	73
177627	2026-06-29T20:42:14	26.6	76
177628	2026-06-29T20:52:14	26.5	76.5
177629	2026-06-29T21:02:14	26.2	76.5
177630	2026-06-29T21:12:14	26	78
177631	2026-06-29T21:22:14	25.7	77.5
177632	2026-06-29T21:32:14	25.5	78.5
177633	2026-06-29T21:42:14	25.3	79.5
177634	2026-06-29T21:52:14	25.3	79.5
177635	2026-06-29T22:02:14	25.1	80
177636	2026-06-29T22:12:14	24.9	81
177637	2026-06-29T22:22:14	24.6	81.5
177638	2026-06-29T22:32:14	24.5	81.5
177639	2026-06-29T22:42:14	24.2	81.5
177640	2026-06-29T22:52:14	24.1	82.5
177641	2026-06-29T23:02:14	23.8	83
177642	2026-06-29T23:12:14	23.7	83
177643	2026-06-29T23:22:14	23.4	83.5
177644	2026-06-29T23:32:14	23.4	83.5
177645	2026-06-29T23:42:14	23.2	83
177646	2026-06-29T23:52:14	23	84
177647	2026-06-30T00:02:14	22.8	84.5
177648	2026-06-30T00:12:14	22.8	84.5
177649	2026-06-30T00:22:14	22.5	84
177650	2026-06-30T00:32:14	22.5	85
177651	2026-06-30T00:42:14	22.2	84.5
177652	2026-06-30T00:52:14	22.1	85.5
177653	2026-06-30T01:02:14	22.1	85.5
177654	2026-06-30T01:12:14	22	85.5
177655	2026-06-30T01:22:14	22	85.5
177656	2026-06-30T01:32:14	22	85.5
177657	2026-06-30T01:42:14	21.7	86.5
177658	2026-06-30T01:52:14	21.6	86
177659	2026-06-30T02:02:14	21.6	86.5
177660	2026-06-30T02:12:14	21.5	87
177661	2026-06-30T02:22:14	21.4	87
177662	2026-06-30T02:32:32	21.2	87.5
177663	2026-06-30T02:42:14	21.3	86.5
177664	2026-06-30T02:52:14	21	87
177665	2026-06-30T03:02:14	21	87.5
177666	2026-06-30T03:12:14	20.7	88
177667	2026-06-30T03:22:14	20.8	87.5
177668	2026-06-30T03:32:14	20.8	89
177669	2026-06-30T03:42:14	20.7	88
177670	2026-06-30T03:52:14	20.8	88.5
177671	2026-06-30T04:02:14	20.7	88
177672	2026-06-30T04:12:14	20.6	88.5
177673	2026-06-30T04:22:14	20.8	88.5
177674	2026-06-30T04:32:14	20.6	88.5
177675	2026-06-30T04:42:14	20.9	88
177676	2026-06-30T04:52:14	20.9	88
177677	2026-06-30T05:02:14	20.9	88
177678	2026-06-30T05:12:14	21.3	88
177679	2026-06-30T05:22:14	21.4	87.5
177680	2026-06-30T05:32:14	21.5	87.5
177681	2026-06-30T05:42:14	21.7	87
177682	2026-06-30T05:52:14	22.1	85
177683	2026-06-30T06:02:14	22.4	84
177684	2026-06-30T06:12:14	22.6	84
177685	2026-06-30T06:22:14	23	84
177686	2026-06-30T06:32:13	23.1	83
177687	2026-06-30T06:42:13	23.2	83.5
177688	2026-06-30T06:52:13	23.3	82.5
177689	2026-06-30T07:02:13	23.4	83
177690	2026-06-30T07:12:13	23.3	83.5
177691	2026-06-30T07:22:13	23.5	83
177692	2026-06-30T07:32:13	24.1	81.5
177693	2026-06-30T07:42:14	24.5	80.5
177694	2026-06-30T07:52:13	24.6	80.5
177695	2026-06-30T08:02:13	24.5	80.5
177696	2026-06-30T08:12:13	24.6	80.5
177697	2026-06-30T08:22:13	24.9	80.5
177698	2026-06-30T08:32:13	24.9	80
177699	2026-06-30T08:42:13	25.2	79
177700	2026-06-30T08:52:13	25.4	79.5
177701	2026-06-30T09:02:13	25.7	79
177702	2026-06-30T09:12:13	26.1	77
177703	2026-06-30T09:22:13	26.2	76.5
177704	2026-06-30T09:32:13	26.6	75
177705	2026-06-30T09:42:13	26.6	75
177706	2026-06-30T09:52:13	26.7	73.5
177707	2026-06-30T10:02:13	27.1	73.5
177708	2026-06-30T10:12:13	27.4	69.5
177709	2026-06-30T10:22:13	27.9	71
177710	2026-06-30T10:32:13	28.4	68.5
177711	2026-06-30T10:42:13	28.6	68
177712	2026-06-30T10:52:13	28.9	67.5
177713	2026-06-30T11:02:13	29.5	65.5
177714	2026-06-30T11:12:13	30.1	62.5
177715	2026-06-30T11:22:13	30.3	62
177716	2026-06-30T11:32:13	30.1	62.5
177717	2026-06-30T11:42:13	30.5	59
177718	2026-06-30T11:52:13	31	59.5
177719	2026-06-30T12:02:13	31.7	56
177720	2026-06-30T12:12:13	32.9	54
177721	2026-06-30T12:22:13	35.1	47
177722	2026-06-30T12:32:13	37.1	45.5
177723	2026-06-30T12:42:13	38.8	41
177724	2026-06-30T12:52:13	40.8	38.5
177725	2026-06-30T13:02:13	41.5	37
177726	2026-06-30T13:12:13	38.5	41.5
177727	2026-06-30T13:22:13	37.4	42
177728	2026-06-30T13:32:13	40.2	39.5
177729	2026-06-30T13:42:13	41.8	36
177730	2026-06-30T13:52:13	42.8	35
177731	2026-06-30T14:02:13	40.6	37
177732	2026-06-30T14:12:13	38.6	39
177733	2026-06-30T14:22:13	39.3	39
177734	2026-06-30T14:32:13	36.8	42
177735	2026-06-30T14:42:13	37.1	44
177736	2026-06-30T14:52:13	35.9	45.5
177737	2026-06-30T15:02:13	34.9	47.5
177738	2026-06-30T15:12:13	34.8	47.5
177739	2026-06-30T15:22:13	35.5	46
177740	2026-06-30T15:32:13	37.9	41.5
177741	2026-06-30T15:42:13	38.3	40.5
177742	2026-06-30T15:52:13	39.7	40
177743	2026-06-30T16:02:13	39.3	39.5
177744	2026-06-30T16:12:13	39.8	38.5
177745	2026-06-30T16:22:13	40.3	38
177746	2026-06-30T16:32:13	41.1	36
177747	2026-06-30T16:42:13	37.9	40.5
177748	2026-06-30T16:52:13	38.8	39.5
177749	2026-06-30T17:02:12	40	37.5
177750	2026-06-30T17:12:12	37.7	40
177751	2026-06-30T17:22:12	36.2	42.5
177752	2026-06-30T17:32:12	35.4	45.5
177753	2026-06-30T17:42:12	36.4	43
177754	2026-06-30T17:52:12	37.2	41.5
177755	2026-06-30T18:02:12	36.6	43.5
177756	2026-06-30T18:12:12	34.8	45.5
177757	2026-06-30T18:22:12	33	48.5
177758	2026-06-30T18:32:12	32.9	48.5
177759	2026-06-30T18:42:12	32.9	50
177760	2026-06-30T18:52:12	32.3	51.5
177761	2026-06-30T19:02:12	32.2	53
177762	2026-06-30T19:12:12	31.7	53.5
177763	2026-06-30T19:22:12	30.9	54.5
177764	2026-06-30T19:32:12	30.3	55
177765	2026-06-30T19:42:12	29.7	55.5
177766	2026-06-30T19:52:12	29.3	55
177767	2026-06-30T20:02:12	29.1	56
177768	2026-06-30T20:12:12	28.6	56.5
177769	2026-06-30T20:22:12	28.4	58.5
177770	2026-06-30T20:32:12	28.2	59.5
177771	2026-06-30T20:42:12	27.9	60
177772	2026-06-30T20:52:12	28	60.5
177773	2026-06-30T21:02:12	27.6	62.5
177774	2026-06-30T21:12:12	27.2	62.5
177775	2026-06-30T21:22:12	27.1	64
177776	2026-06-30T21:32:12	27.1	65.5
177777	2026-06-30T21:42:12	26.9	66
177778	2026-06-30T21:52:12	26.8	65.5
177779	2026-06-30T22:02:12	26.6	67
177780	2026-06-30T22:12:12	26.4	68.5
177781	2026-06-30T22:22:12	26.1	69
177782	2026-06-30T22:32:12	26.3	69.5
177783	2026-06-30T22:42:12	26.2	70
177784	2026-06-30T22:52:12	25.9	70
177785	2026-06-30T23:02:12	25.7	71.5
177786	2026-06-30T23:12:12	25.6	72
177787	2026-06-30T23:22:12	25.3	72.5
177788	2026-06-30T23:32:12	25.3	73.5
177789	2026-06-30T23:42:12	25.2	75
177790	2026-06-30T23:52:12	24.9	75
177791	2026-07-01T00:02:12	24.7	76
177792	2026-07-01T00:12:12	24.5	77
177793	2026-07-01T00:22:12	24.5	77.5
177794	2026-07-01T00:32:12	24.3	77.5
177795	2026-07-01T00:42:12	24.2	78.5
177796	2026-07-01T00:52:12	24.2	78.5
177797	2026-07-01T01:02:12	23.9	78.5
177798	2026-07-01T01:12:12	23.6	77.5
177799	2026-07-01T01:22:12	23.5	77
177800	2026-07-01T01:32:12	23.4	76.5
177801	2026-07-01T01:42:12	23.6	75
177802	2026-07-01T01:52:12	23.7	74.5
177803	2026-07-01T02:02:12	23.5	74.5
177804	2026-07-01T02:12:12	23.4	75
177805	2026-07-01T02:22:12	23.2	75
177806	2026-07-01T02:32:12	23	75.5
177807	2026-07-01T02:42:12	22.8	76.5
177808	2026-07-01T02:52:11	22.7	76.5
177809	2026-07-01T03:02:11	22.5	76.5
177810	2026-07-01T03:12:11	22.4	77
177811	2026-07-01T03:22:11	22.2	78
177812	2026-07-01T03:32:11	21.8	80
177813	2026-07-01T03:42:11	21.9	80
177814	2026-07-01T03:52:11	22	80.5
177815	2026-07-01T04:02:11	22	80.5
177816	2026-07-01T04:12:11	21.9	81
177817	2026-07-01T04:22:11	21.8	81
177818	2026-07-01T04:32:11	21.9	81.5
177819	2026-07-01T04:42:11	21.9	81
177820	2026-07-01T04:52:11	21.8	81.5
177821	2026-07-01T05:02:11	21.6	81
177822	2026-07-01T05:12:11	21.7	81.5
177823	2026-07-01T05:22:11	21.7	81.5
177824	2026-07-01T05:32:11	22.1	81
177825	2026-07-01T05:42:11	22.1	81
177826	2026-07-01T05:52:11	22.2	80
177827	2026-07-01T06:02:11	22.1	79.5
177828	2026-07-01T06:12:11	22.2	80
177829	2026-07-01T06:22:11	22.4	79.5
177830	2026-07-01T06:32:11	22.3	79
177831	2026-07-01T06:42:11	22.6	78.5
177832	2026-07-01T06:52:11	22.7	77
177833	2026-07-01T07:02:11	22.6	76.5
177834	2026-07-01T07:12:11	22.7	76
177835	2026-07-01T07:22:11	23.1	75.5
177836	2026-07-01T07:32:11	23.2	75
177837	2026-07-01T07:42:11	23.1	74
177838	2026-07-01T07:52:11	23.4	74.5
177839	2026-07-01T08:02:11	23.7	72.5
177840	2026-07-01T08:12:11	23.5	71.5
177841	2026-07-01T08:22:11	24.1	71.5
177842	2026-07-01T08:32:11	24.1	70.5
177843	2026-07-01T08:42:11	24.5	69
177844	2026-07-01T08:52:11	24.4	67.5
177845	2026-07-01T09:02:11	24.4	66
177846	2026-07-01T09:12:11	24.5	64
177847	2026-07-01T09:22:11	24.7	61.5
177848	2026-07-01T09:32:11	25	58.5
177849	2026-07-01T09:42:11	25.6	59.5
177850	2026-07-01T09:52:11	25.2	58
177851	2026-07-01T10:02:11	25.5	60.5
177852	2026-07-01T10:12:11	25.6	59
177853	2026-07-01T10:22:11	25.5	57.5
177854	2026-07-01T10:32:11	25.9	57
177855	2026-07-01T10:42:11	26.1	54.5
177856	2026-07-01T10:52:11	26.2	56
177857	2026-07-01T11:02:11	26.9	53
177858	2026-07-01T11:12:11	26.9	52
177859	2026-07-01T11:22:11	26.6	51.5
177860	2026-07-01T11:32:11	26.4	51.5
177861	2026-07-01T11:42:11	26.7	48.5
177862	2026-07-01T11:52:11	26.8	48.5
177863	2026-07-01T12:02:11	27.1	45
177864	2026-07-01T12:12:11	27.8	40.5
177865	2026-07-01T12:22:11	30.1	38.5
177866	2026-07-01T12:32:11	31.6	37
177867	2026-07-01T12:42:10	32.3	38
177868	2026-07-01T12:52:10	31.4	39
177869	2026-07-01T13:02:10	33.7	36
177870	2026-07-01T13:12:10	33.2	35.5
177871	2026-07-01T13:22:10	35.3	34.5
177872	2026-07-01T13:32:10	35.7	33
177873	2026-07-01T13:42:10	35.8	34
177874	2026-07-01T13:52:10	37	31.5
177875	2026-07-01T14:02:10	37	31
177876	2026-07-01T14:12:10	37	32
177877	2026-07-01T14:22:10	33.4	37
177878	2026-07-01T14:32:10	34.2	35
177879	2026-07-01T14:42:10	32.7	37.5
177880	2026-07-01T14:52:10	31.3	41
177881	2026-07-01T15:02:10	34.4	36.5
177882	2026-07-01T15:12:10	33.4	38
177883	2026-07-01T15:22:10	35.1	36.5
177884	2026-07-01T15:32:10	36.4	33
177885	2026-07-01T15:42:10	36.2	33
177886	2026-07-01T15:52:10	36	32.5
177887	2026-07-01T16:02:10	36.9	30.5
177888	2026-07-01T16:12:10	39.2	29
177889	2026-07-01T16:22:10	40.1	27
177890	2026-07-01T16:32:10	38.5	28
177891	2026-07-01T16:42:10	38.9	26.5
177892	2026-07-01T16:52:10	38.3	27
177893	2026-07-01T17:02:10	38.7	27
177894	2026-07-01T17:12:10	38.3	27
177895	2026-07-01T17:22:10	38.6	27
177896	2026-07-01T17:32:10	39	26.5
177897	2026-07-01T17:42:10	39.3	26.5
177898	2026-07-01T17:52:10	38.6	27.5
177899	2026-07-01T18:02:10	37	28
177900	2026-07-01T18:12:10	36.2	29.5
177901	2026-07-01T18:22:10	34.9	32
177902	2026-07-01T18:32:10	33	35
177903	2026-07-01T18:42:10	32.8	35.5
177904	2026-07-01T18:52:10	32.7	36.5
177905	2026-07-01T19:02:10	31.9	37.5
177906	2026-07-01T19:12:10	30.9	41.5
177907	2026-07-01T19:22:10	30	46
177908	2026-07-01T19:32:10	29.3	46.5
177909	2026-07-01T19:42:10	28.8	47.5
177910	2026-07-01T19:52:10	28.3	48
177911	2026-07-01T20:02:10	28	49
177912	2026-07-01T20:12:10	27.6	50.5
177913	2026-07-01T20:22:10	27.3	51.5
177914	2026-07-01T20:32:10	26.9	52
177915	2026-07-01T20:42:10	26.7	52
177916	2026-07-01T20:52:10	26.5	53
177917	2026-07-01T21:02:10	26	56
177918	2026-07-01T21:12:10	25.8	54.5
177919	2026-07-01T21:22:10	25.7	54.5
177920	2026-07-01T21:32:10	25.3	56
177921	2026-07-01T21:42:10	24.9	58
177922	2026-07-01T21:52:10	24.6	57.5
177923	2026-07-01T22:02:10	24.5	59.5
177924	2026-07-01T22:12:10	24.2	60
177925	2026-07-01T22:22:10	24.2	60.5
177926	2026-07-01T22:32:10	24	60.5
177927	2026-07-01T22:42:10	23.8	59
177928	2026-07-01T22:52:10	23.7	60
177929	2026-07-01T23:02:09	23.5	60
177930	2026-07-01T23:12:09	23.4	59.5
177931	2026-07-01T23:22:09	23.1	59.5
177932	2026-07-01T23:32:09	22.9	61.5
177933	2026-07-01T23:42:09	22.7	61.5
177934	2026-07-01T23:52:09	22.4	61.5
177935	2026-07-02T00:02:09	22.1	61.5
177936	2026-07-02T00:12:09	21.7	63
177937	2026-07-02T00:22:09	21.6	64.5
177938	2026-07-02T00:32:09	21.3	65.5
177939	2026-07-02T00:42:09	21.2	64.5
177940	2026-07-02T00:52:09	20.8	66.5
177941	2026-07-02T01:02:09	20.5	65.5
177942	2026-07-02T01:12:09	20.2	68.5
177943	2026-07-02T01:22:09	20.1	69
177944	2026-07-02T01:32:09	19.9	69
177945	2026-07-02T01:42:09	19.7	70
177946	2026-07-02T01:52:09	19.7	69
177947	2026-07-02T02:02:09	19.5	70
177948	2026-07-02T02:12:09	19.2	71
177949	2026-07-02T02:22:09	19.2	72
177950	2026-07-02T02:32:09	19	72
177951	2026-07-02T02:42:09	18.7	71.5
177952	2026-07-02T02:52:09	18.6	73
177953	2026-07-02T03:02:09	18.5	74
177954	2026-07-02T03:12:09	18.1	73
177955	2026-07-02T03:22:09	18.2	73
177956	2026-07-02T03:32:09	18.1	73
177957	2026-07-02T03:42:09	17.9	75
177958	2026-07-02T03:52:09	17.8	75
177959	2026-07-02T04:02:09	17.6	75
177960	2026-07-02T04:12:09	17.7	75
177961	2026-07-02T04:22:09	17.8	75
177962	2026-07-02T04:32:09	17.9	75.5
177963	2026-07-02T04:42:09	17.9	76
177964	2026-07-02T04:52:09	18.1	76
177965	2026-07-02T05:02:09	18.4	74.5
177966	2026-07-02T05:12:09	18.4	75
177967	2026-07-02T05:22:09	18.6	74
177968	2026-07-02T05:32:09	18.7	74.5
177969	2026-07-02T05:42:09	18.9	75.5
177970	2026-07-02T05:52:09	19	73
177971	2026-07-02T06:02:09	19.1	72.5
177972	2026-07-02T06:12:09	19.2	73.5
177973	2026-07-02T06:22:09	19.3	73
177974	2026-07-02T06:32:09	19.6	69.5
177975	2026-07-02T06:42:09	19.8	67.5
177976	2026-07-02T06:52:09	19.9	66.5
177977	2026-07-02T07:02:09	20.4	67.5
177978	2026-07-02T07:12:09	20.5	66.5
177979	2026-07-02T07:22:09	20.7	65
177980	2026-07-02T07:32:09	20.9	64
177981	2026-07-02T07:42:09	21.1	62
177982	2026-07-02T07:52:09	21.4	62
177983	2026-07-02T08:02:09	21.6	60.5
177984	2026-07-02T08:12:09	22	57.5
177985	2026-07-02T08:22:09	22.2	59
177986	2026-07-02T08:32:09	22.4	58
177987	2026-07-02T08:42:09	22.7	56
177988	2026-07-02T08:52:09	22.8	54
177989	2026-07-02T09:02:09	23.1	53.5
177990	2026-07-02T09:12:09	23.4	53
177991	2026-07-02T09:22:08	23.6	52.5
177992	2026-07-02T09:32:08	23.9	51
177993	2026-07-02T09:42:08	24	49.5
177994	2026-07-02T09:52:08	24.6	47.5
177995	2026-07-02T10:02:08	24.6	48.5
177996	2026-07-02T10:12:08	24.7	47.5
177997	2026-07-02T10:22:08	25	48
177998	2026-07-02T10:32:08	25.2	48
177999	2026-07-02T10:42:08	25.3	48.5
178000	2026-07-02T10:52:08	25.6	46
178001	2026-07-02T11:02:08	25.9	47
178002	2026-07-02T11:12:08	25.9	46.5
178003	2026-07-02T11:22:08	26.2	46
178004	2026-07-02T11:32:08	26.5	43.5
178005	2026-07-02T11:42:08	26.7	44.5
178006	2026-07-02T11:52:08	26.9	44
178007	2026-07-02T12:02:08	27.3	41
178008	2026-07-02T12:12:08	27.6	41
178009	2026-07-02T12:22:08	29.8	38
178010	2026-07-02T12:32:08	31.2	35.5
178011	2026-07-02T12:42:08	32.8	33
178012	2026-07-02T12:52:08	33.2	33.5
178013	2026-07-02T13:02:08	33.4	33
178014	2026-07-02T13:12:08	34.2	32
178015	2026-07-02T13:22:08	33.8	33.5
178016	2026-07-02T13:32:08	34.8	31.5
178017	2026-07-02T13:42:08	34.3	32
178018	2026-07-02T13:52:08	35	32
178019	2026-07-02T14:02:08	35.1	32
178020	2026-07-02T14:12:08	35.2	32.5
178021	2026-07-02T14:22:08	35.3	32.5
178022	2026-07-02T14:32:08	35.7	32
178023	2026-07-02T14:42:08	34.8	33.5
178024	2026-07-02T14:52:08	35.8	32.5
178025	2026-07-02T15:02:08	35.3	32.5
178026	2026-07-02T15:12:08	35	32.5
178027	2026-07-02T15:22:08	36.5	31
178028	2026-07-02T15:32:08	36.1	31.5
178029	2026-07-02T15:42:08	36.6	31.5
178030	2026-07-02T15:52:08	37.2	30
178031	2026-07-02T16:02:08	35.9	32
178032	2026-07-02T16:12:08	35.5	32.5
178033	2026-07-02T16:22:08	36.6	31.5
178034	2026-07-02T16:32:08	36.6	32
178035	2026-07-02T16:42:08	36	31.5
178036	2026-07-02T16:52:08	36.6	30.5
178037	2026-07-02T17:02:08	35.4	32
178038	2026-07-02T17:12:08	35.1	32.5
178039	2026-07-02T17:22:08	32.9	34.5
178040	2026-07-02T17:32:08	31.4	37.5
178041	2026-07-02T17:42:08	30.7	39
178042	2026-07-02T17:52:08	30.3	39.5
178043	2026-07-02T18:02:08	29.9	41.5
178044	2026-07-02T18:12:08	29.6	41.5
178045	2026-07-02T18:22:08	29.3	42.5
178046	2026-07-02T18:32:08	29.2	43
178047	2026-07-02T18:42:08	29	43.5
178048	2026-07-02T18:52:08	28.7	44
178049	2026-07-02T19:02:08	28.5	45
178050	2026-07-02T19:12:08	28.2	46.5
178051	2026-07-02T19:22:08	27.8	48
178052	2026-07-02T19:32:07	27.7	49
178053	2026-07-02T19:42:07	27.3	50
178054	2026-07-02T19:52:07	27.1	50.5
178055	2026-07-02T20:02:07	27.1	50.5
178056	2026-07-02T20:12:07	26.9	51
178057	2026-07-02T20:22:07	26.7	52
178058	2026-07-02T20:32:07	26.7	52.5
178059	2026-07-02T20:42:07	26.6	52.5
178060	2026-07-02T20:52:07	26.4	53.5
178061	2026-07-02T21:02:07	26	54.5
178062	2026-07-02T21:12:07	25.9	56.5
178063	2026-07-02T21:22:07	25.6	57
178064	2026-07-02T21:32:07	25.5	57
178065	2026-07-02T21:42:07	25.3	57.5
178066	2026-07-02T21:52:07	25.1	57.5
178067	2026-07-02T22:02:07	25.1	57.5
178068	2026-07-02T22:12:07	24.8	58.5
178069	2026-07-02T22:22:07	24.5	59.5
178070	2026-07-02T22:32:07	24.5	58
178071	2026-07-02T22:42:07	24.2	58.5
178072	2026-07-02T22:52:07	24.1	58.5
178073	2026-07-02T23:02:07	24	58.5
178074	2026-07-02T23:12:07	24	59
178075	2026-07-02T23:22:07	23.7	59.5
178076	2026-07-02T23:42:07	23.5	61
178077	2026-07-02T23:52:07	23.4	62
178078	2026-07-03T00:02:07	23.2	62.5
178079	2026-07-03T00:12:07	23.1	63
178080	2026-07-03T00:22:07	23.2	63
178081	2026-07-03T00:32:07	22.8	63
178082	2026-07-03T00:42:07	22.6	64
178083	2026-07-03T00:52:07	22.4	65
178084	2026-07-03T01:02:07	22.2	66
178085	2026-07-03T01:12:07	22.1	67
178086	2026-07-03T01:22:07	22.1	67
178087	2026-07-03T01:32:07	21.8	67.5
178088	2026-07-03T01:42:07	21.8	67
178089	2026-07-03T01:52:07	21.6	67.5
178090	2026-07-03T02:02:07	21.4	68
178091	2026-07-03T02:12:07	21	69
178092	2026-07-03T02:22:07	20.8	69.5
178093	2026-07-03T02:32:07	20.6	69.5
178094	2026-07-03T02:42:07	20.5	68.5
178095	2026-07-03T02:52:07	20.5	64
178096	2026-07-03T03:02:07	20.1	62.5
178097	2026-07-03T03:12:07	19.9	63.5
178098	2026-07-03T03:22:07	19.6	65
178099	2026-07-03T03:32:07	19.5	66
178100	2026-07-03T03:42:07	19.3	67.5
178101	2026-07-03T03:52:07	19.1	68
178102	2026-07-03T04:02:07	19	68.5
178103	2026-07-03T04:12:07	19	69
178104	2026-07-03T04:22:07	18.9	70.5
178105	2026-07-03T04:32:07	19.1	69
178106	2026-07-03T04:42:07	19.1	67.5
178107	2026-07-03T04:52:07	19.1	66.5
178108	2026-07-03T05:02:07	19.2	66
178109	2026-07-03T05:12:07	19.1	66
178110	2026-07-03T05:22:07	19.2	65
178111	2026-07-03T05:32:06	19.4	65.5
178112	2026-07-03T05:42:06	19.2	65.5
178113	2026-07-03T05:52:06	19.3	66.5
178114	2026-07-03T06:02:06	19.3	66.5
178115	2026-07-03T06:12:06	19.4	65
178116	2026-07-03T06:22:06	19.5	66
178117	2026-07-03T06:32:06	19.6	65
178118	2026-07-03T06:42:06	19.8	64.5
178119	2026-07-03T06:52:06	19.7	64.5
178120	2026-07-03T07:02:06	19.8	64
178121	2026-07-03T07:12:06	19.9	64.5
178122	2026-07-03T07:22:06	19.9	64
178123	2026-07-03T07:32:06	20.2	63.5
178124	2026-07-03T07:42:06	20.3	62
178125	2026-07-03T07:52:06	20.2	62.5
178126	2026-07-03T08:02:06	20.5	61
178127	2026-07-03T08:12:06	20.6	60
178128	2026-07-03T08:22:06	20.6	59
178129	2026-07-03T08:32:06	20.6	58.5
178130	2026-07-03T08:42:06	20.9	56.5
178131	2026-07-03T08:52:06	21.1	57
178132	2026-07-03T09:02:06	21.3	57
178133	2026-07-03T09:12:06	21.5	55.5
178134	2026-07-03T09:22:06	21.8	55
178135	2026-07-03T09:32:06	22	52.5
178136	2026-07-03T09:42:06	22.4	49
178137	2026-07-03T09:52:06	22.3	48
178138	2026-07-03T10:02:06	22.6	49.5
178139	2026-07-03T10:12:06	23	50
178140	2026-07-03T10:22:06	23.2	49
178141	2026-07-03T10:32:06	23.2	49.5
178142	2026-07-03T10:42:06	23.1	47.5
178143	2026-07-03T10:52:06	23.5	45
178144	2026-07-03T11:02:06	23.6	47.5
178145	2026-07-03T11:12:06	23.9	48.5
178146	2026-07-03T11:22:06	24.3	46
178147	2026-07-03T11:32:06	24.5	43.5
178148	2026-07-03T11:42:06	24.3	41.5
178149	2026-07-03T11:52:06	24.9	42.5
178150	2026-07-03T12:02:06	25.9	40.5
178151	2026-07-03T12:12:06	26.7	39.5
178152	2026-07-03T12:22:06	28.1	37
178153	2026-07-03T12:32:06	30.7	35
178154	2026-07-03T12:42:06	32	32.5
178155	2026-07-03T12:52:06	33.4	32.5
178156	2026-07-03T13:02:06	35.3	29.5
178157	2026-07-03T13:12:06	34.8	28
178158	2026-07-03T13:22:06	36.1	27.5
178159	2026-07-03T13:32:06	37	26
178160	2026-07-03T13:42:06	37	25.5
178161	2026-07-03T13:52:06	36.6	25.5
178162	2026-07-03T14:02:06	37.6	24
178163	2026-07-03T14:12:06	37.6	24
178164	2026-07-03T14:22:06	39.7	23.5
178165	2026-07-03T14:32:06	38.3	24
178166	2026-07-03T14:42:06	39.4	23
178167	2026-07-03T14:52:06	39.2	22.5
178168	2026-07-03T15:02:06	39.4	23
178169	2026-07-03T15:12:06	40.5	22
178170	2026-07-03T15:22:06	40.1	23
178171	2026-07-03T15:32:06	41.1	22
178172	2026-07-03T15:42:06	41.3	22.5
178173	2026-07-03T15:52:06	39.6	23
178174	2026-07-03T16:02:06	39.1	24
178175	2026-07-03T16:12:05	41.1	24
178176	2026-07-03T16:22:05	42.6	23
178177	2026-07-03T16:32:05	44	21.5
178178	2026-07-03T16:42:05	41.2	22
178179	2026-07-03T16:52:05	43.2	21
178180	2026-07-03T17:02:05	43.9	21
178181	2026-07-03T17:12:05	42.9	21.5
178182	2026-07-03T17:22:05	41.2	22
178183	2026-07-03T17:32:05	43.1	21.5
178184	2026-07-03T17:42:05	43	21.5
178185	2026-07-03T17:52:05	41.1	21.5
178186	2026-07-03T18:02:05	39.5	23.5
178187	2026-07-03T18:12:05	38.5	23.5
178188	2026-07-03T18:22:05	39.1	23.5
178189	2026-07-03T18:32:05	38.2	24.5
178190	2026-07-03T18:42:05	36.1	27
178191	2026-07-03T18:52:05	34.7	28
178192	2026-07-03T19:02:05	35	31.5
178193	2026-07-03T19:12:05	33.3	35
178194	2026-07-03T19:22:05	31.2	37
178195	2026-07-03T19:32:05	30	38.5
178196	2026-07-03T19:42:05	29.3	39.5
178197	2026-07-03T19:52:05	28.4	40.5
178198	2026-07-03T20:02:05	27.9	41.5
178199	2026-07-03T20:12:05	27.3	41.5
178200	2026-07-03T20:22:05	26.9	43
178201	2026-07-03T20:32:05	26.4	44
178202	2026-07-03T20:42:05	26.1	44.5
178203	2026-07-03T20:52:05	25.4	45.5
178204	2026-07-03T21:02:05	25.1	47
178205	2026-07-03T21:12:05	24.6	46.5
178206	2026-07-03T21:22:05	24	48
178207	2026-07-03T21:32:05	23.8	50
178208	2026-07-03T21:42:05	22.7	52
178209	2026-07-03T21:52:05	22.8	52
178210	2026-07-03T22:02:05	22.5	52.5
178211	2026-07-03T22:12:05	22.3	52.5
178212	2026-07-03T22:22:05	22	53
178213	2026-07-03T22:32:05	21.6	53
178214	2026-07-03T22:42:05	21.4	53.5
178215	2026-07-03T22:52:05	21.1	55
178216	2026-07-03T23:02:05	20.6	55.5
178217	2026-07-03T23:12:05	20.5	58
178218	2026-07-03T23:22:05	20	59.5
178219	2026-07-03T23:32:05	19.9	59
178220	2026-07-03T23:42:05	19.8	60
178221	2026-07-03T23:52:05	19.5	59.5
178222	2026-07-04T00:02:05	19.2	60.5
178223	2026-07-04T00:12:05	18.9	62.5
178224	2026-07-04T00:22:05	18.7	63
178225	2026-07-04T00:32:05	18.5	64.5
178226	2026-07-04T00:42:05	18.3	64
178227	2026-07-04T00:52:05	18.1	64.5
178228	2026-07-04T01:02:05	17.9	66.5
178229	2026-07-04T01:12:05	17.5	66.5
178230	2026-07-04T01:22:05	17.4	67
178231	2026-07-04T01:32:05	17.3	67
178232	2026-07-04T01:42:05	17.2	67
178233	2026-07-04T01:52:05	17.1	67.5
178234	2026-07-04T02:02:05	16.9	69
178235	2026-07-04T02:12:05	16.6	70
178236	2026-07-04T02:22:05	16.5	71
178237	2026-07-04T02:32:05	16.3	72
178238	2026-07-04T02:42:05	16.2	72
178239	2026-07-04T02:52:04	16	72
178240	2026-07-04T03:02:04	16	73
178241	2026-07-04T03:12:04	15.8	74
178242	2026-07-04T03:22:04	15.7	74
178243	2026-07-04T03:32:04	15.4	74.5
178244	2026-07-04T03:42:04	15.2	74.5
178245	2026-07-04T03:52:04	15.3	73.5
178246	2026-07-04T04:02:04	15.3	74
178247	2026-07-04T04:12:04	15.3	74
178248	2026-07-04T04:22:04	15.5	73.5
178249	2026-07-04T04:32:04	15.6	74
178250	2026-07-04T04:42:04	15.5	74.5
178251	2026-07-04T04:52:04	15.7	74
178252	2026-07-04T05:02:04	15.9	74
178253	2026-07-04T05:12:04	16.2	76
178254	2026-07-04T05:22:04	16.1	75.5
178255	2026-07-04T05:32:04	16.2	75
178256	2026-07-04T05:42:04	16.3	75.5
178257	2026-07-04T05:52:04	16.5	75
178258	2026-07-04T06:02:04	16.8	73
178259	2026-07-04T06:12:04	17	73
178260	2026-07-04T06:22:04	17.2	69
178261	2026-07-04T06:32:04	17.4	69
178262	2026-07-04T06:42:04	17.8	68.5
178263	2026-07-04T06:52:04	18.1	66.5
178264	2026-07-04T07:02:04	18.6	65
178265	2026-07-04T07:12:04	18.7	65
178266	2026-07-04T07:22:04	18.8	65.5
178267	2026-07-04T07:32:04	19.2	64
178268	2026-07-04T07:42:04	19.3	64.5
178269	2026-07-04T07:52:04	19.6	63
178270	2026-07-04T08:02:04	19.6	62
178271	2026-07-04T08:12:04	19.7	62.5
178272	2026-07-04T08:22:04	20	62
178273	2026-07-04T08:32:04	20.4	59.5
178274	2026-07-04T08:42:04	20.6	58.5
178275	2026-07-04T08:52:04	21	59.5
178276	2026-07-04T09:02:04	21.3	54.5
178277	2026-07-04T09:12:04	21.7	53
178278	2026-07-04T09:22:04	21.6	52.5
178279	2026-07-04T09:32:04	21.9	49.5
178280	2026-07-04T09:42:04	22.2	50.5
178281	2026-07-04T09:52:04	22.3	49
178282	2026-07-04T10:02:04	22.5	47.5
178283	2026-07-04T10:12:04	22.6	46.5
178284	2026-07-04T10:22:04	22.8	45
178285	2026-07-04T10:32:04	23.1	41
178286	2026-07-04T10:42:04	23.5	43.5
178287	2026-07-04T10:52:04	23.6	45
178288	2026-07-04T11:02:04	24	43
178289	2026-07-04T11:12:04	24	43.5
178290	2026-07-04T11:22:04	24.2	41.5
178291	2026-07-04T11:32:04	24.6	40.5
178292	2026-07-04T11:42:04	25.1	42.5
178293	2026-07-04T11:52:04	25.4	43.5
178294	2026-07-04T12:02:04	26	43
178295	2026-07-04T12:12:04	26.3	40
178296	2026-07-04T12:22:04	28.6	37
178297	2026-07-04T12:32:04	30	33
178298	2026-07-04T12:42:04	30.7	33
178299	2026-07-04T12:52:04	32.4	30.5
178300	2026-07-04T13:02:04	33.2	30
178301	2026-07-04T13:12:04	33.8	28.5
178302	2026-07-04T13:22:04	34.7	27
178303	2026-07-04T13:32:03	35	26.5
178304	2026-07-04T13:42:03	34.6	26
178305	2026-07-04T13:52:03	35.2	25.5
178306	2026-07-04T14:02:03	35.1	25
178307	2026-07-04T14:12:03	35.5	23
178308	2026-07-04T14:22:03	35.7	23.5
178309	2026-07-04T14:32:03	37.5	22
178310	2026-07-04T14:42:03	38.1	22
178311	2026-07-04T14:52:03	37.4	22.5
178312	2026-07-04T15:02:03	36.7	23
178313	2026-07-04T15:12:03	36.7	22.5
178314	2026-07-04T15:22:22	37.6	22
178315	2026-07-04T15:32:03	37.1	22.5
178316	2026-07-04T15:42:03	37.2	22
178317	2026-07-04T15:52:03	37.3	21.5
178318	2026-07-04T16:02:03	36.8	23
178319	2026-07-04T16:12:03	37.4	21.5
178320	2026-07-04T16:22:03	38.5	21.5
178321	2026-07-04T16:32:03	38.2	21
178322	2026-07-04T16:42:03	37.5	21.5
178323	2026-07-04T16:52:03	37.3	21.5
178324	2026-07-04T17:02:03	37.6	22
178325	2026-07-04T17:12:03	37.6	22
178326	2026-07-04T17:22:03	37.4	22
178327	2026-07-04T17:32:03	37	23
178328	2026-07-04T17:42:03	37.8	22
178329	2026-07-04T17:52:03	36.6	23
178330	2026-07-04T18:02:03	36.9	23.5
178331	2026-07-04T18:12:03	36.4	23.5
178332	2026-07-04T18:22:03	36	24.5
178333	2026-07-04T18:32:03	34.9	25.5
178334	2026-07-04T18:42:03	32.8	28.5
178335	2026-07-04T18:52:03	31.4	29.5
178336	2026-07-04T19:02:03	31	31
178337	2026-07-04T19:12:03	30.6	33
178338	2026-07-04T19:22:03	29.8	36
178339	2026-07-04T19:32:03	29.2	38
178340	2026-07-04T19:42:03	28.6	38.5
178341	2026-07-04T19:52:03	27.9	39.5
178342	2026-07-04T20:02:03	27.5	40
178343	2026-07-04T20:12:03	27.1	41.5
178344	2026-07-04T20:22:03	26.6	43
178345	2026-07-04T20:32:03	26.1	44
178346	2026-07-04T20:42:03	25.8	44.5
178347	2026-07-04T20:52:03	25.5	45
178348	2026-07-04T21:02:03	25.2	45
178349	2026-07-04T21:12:03	24.8	46.5
178350	2026-07-04T21:22:03	24.4	46
178351	2026-07-04T21:32:03	24.1	47
178352	2026-07-04T21:42:03	23.9	47
178353	2026-07-04T21:52:03	23.6	48
178354	2026-07-04T22:02:03	23.4	48.5
178355	2026-07-04T22:12:03	23.1	50
178356	2026-07-04T22:22:03	23	49
178357	2026-07-04T22:32:03	22.7	49.5
178358	2026-07-04T22:42:03	22.5	50.5
178359	2026-07-04T22:52:03	22.4	51.5
178360	2026-07-04T23:02:03	22.2	51
178361	2026-07-04T23:12:03	22	51.5
178362	2026-07-04T23:22:03	21.9	51
178363	2026-07-04T23:32:03	21.6	50.5
178364	2026-07-04T23:42:03	21.4	51
178365	2026-07-04T23:52:02	21.3	52.5
178366	2026-07-05T00:02:02	21.4	52
178367	2026-07-05T00:12:02	21.2	53
178368	2026-07-05T00:22:02	21.5	52
178369	2026-07-05T00:32:02	21.4	51.5
178370	2026-07-05T00:42:02	21.1	50.5
178371	2026-07-05T00:52:02	21	50.5
178372	2026-07-05T01:02:02	20.9	52
178373	2026-07-05T01:12:02	20.7	52
178374	2026-07-05T01:22:02	20.6	52.5
178375	2026-07-05T01:32:02	20.5	53.5
178376	2026-07-05T01:42:02	20.5	55.5
178377	2026-07-05T01:52:02	20.3	56.5
178378	2026-07-05T02:02:02	20.1	56.5
178379	2026-07-05T02:12:02	20	57.5
178380	2026-07-05T02:22:02	19.6	58.5
178381	2026-07-05T02:32:02	19.6	57.5
178382	2026-07-05T02:42:02	19.6	58
178383	2026-07-05T02:52:02	19.5	57.5
178384	2026-07-05T03:02:02	19.5	57.5
178385	2026-07-05T03:12:02	19.3	58.5
178386	2026-07-05T03:22:02	19.4	59
178387	2026-07-05T03:32:02	19.6	59.5
178388	2026-07-05T03:42:02	19.7	59
178389	2026-07-05T03:52:02	19.6	58.5
178390	2026-07-05T04:02:02	19.7	58.5
178391	2026-07-05T04:12:02	20	57.5
178392	2026-07-05T04:22:02	20.2	58
178393	2026-07-05T04:32:02	20.3	58.5
178394	2026-07-05T04:42:02	20.4	59
178395	2026-07-05T04:52:02	20.6	59.5
178396	2026-07-05T05:02:02	20.6	60
178397	2026-07-05T05:12:02	20.6	61
178398	2026-07-05T05:22:02	20.8	60.5
178399	2026-07-05T05:32:02	21.2	60.5
178400	2026-07-05T05:42:02	21.2	60.5
178401	2026-07-05T05:52:02	21.4	60.5
178402	2026-07-05T06:02:02	21.6	60
178403	2026-07-05T06:12:02	21.9	60
178404	2026-07-05T06:22:02	22	59.5
178405	2026-07-05T06:32:02	22.2	59.5
178406	2026-07-05T06:42:02	22.5	59
178407	2026-07-05T06:52:02	22.6	58.5
178408	2026-07-05T07:02:02	22.8	58.5
178409	2026-07-05T07:12:02	22.9	58.5
178410	2026-07-05T07:22:02	23.1	59
178411	2026-07-05T07:32:02	23.3	58.5
178412	2026-07-05T07:42:02	23.7	58.5
178413	2026-07-05T07:52:02	23.9	59
178414	2026-07-05T08:02:02	23.7	59
178415	2026-07-05T08:12:02	24.1	58
178416	2026-07-05T08:22:02	24.3	58
178417	2026-07-05T08:32:02	24	59.5
178418	2026-07-05T08:42:02	24.6	58.5
178419	2026-07-05T08:52:02	24.8	58
178420	2026-07-05T09:02:02	24.8	58.5
178421	2026-07-05T09:12:02	25.1	58
178422	2026-07-05T09:22:02	25.1	58.5
178423	2026-07-05T09:32:02	25.4	57.5
178424	2026-07-05T09:42:02	25.8	56.5
178425	2026-07-05T09:52:02	26.2	55.5
178426	2026-07-05T10:02:01	26.4	54.5
178427	2026-07-05T10:12:01	26.5	55.5
178428	2026-07-05T10:22:01	26.5	56
178429	2026-07-05T10:32:01	26.7	55
178430	2026-07-05T10:42:01	27.1	54.5
178431	2026-07-05T10:52:01	27	54.5
178432	2026-07-05T11:02:01	27	54.5
178433	2026-07-05T11:12:01	27	53.5
178434	2026-07-05T11:22:01	27.3	53.5
178435	2026-07-05T11:32:01	27.2	54
178436	2026-07-05T11:42:01	26.9	55
178437	2026-07-05T11:52:01	27.7	52.5
178438	2026-07-05T12:02:01	28.7	49
178439	2026-07-05T12:12:01	28.6	50
178440	2026-07-05T12:22:01	28.7	50
178441	2026-07-05T12:32:01	28.8	49
178442	2026-07-05T12:42:01	28.4	52.5
178443	2026-07-05T12:52:01	28.6	53.5
178444	2026-07-05T13:02:01	28.9	54
178445	2026-07-05T13:12:01	28.5	54
178446	2026-07-05T13:22:01	27.4	52.5
178447	2026-07-05T13:32:01	27.6	58.5
178448	2026-07-05T13:42:01	27.9	57.5
178449	2026-07-05T13:52:19	27.6	60.5
178450	2026-07-05T14:02:01	27.6	62.5
178451	2026-07-05T14:12:01	28.5	56
178452	2026-07-05T14:22:01	29.5	53.5
178453	2026-07-05T14:32:01	28.2	56
178454	2026-07-05T14:42:01	30.4	52.5
178455	2026-07-05T14:52:01	33.6	46
178456	2026-07-05T15:02:01	33.8	45
178457	2026-07-05T15:12:01	34.9	43.5
178458	2026-07-05T15:22:01	32	48
178459	2026-07-05T15:32:01	30.8	51
178460	2026-07-05T15:42:01	32.7	46
178461	2026-07-05T15:52:01	35.4	41.5
178462	2026-07-05T16:02:01	35	41.5
178463	2026-07-05T16:12:01	33.8	43
178464	2026-07-05T16:22:01	35.6	39
178465	2026-07-05T16:32:01	32.7	45
178466	2026-07-05T16:42:01	34.8	42.5
178467	2026-07-05T16:52:01	37.4	37.5
178468	2026-07-05T17:02:01	38.8	35.5
178469	2026-07-05T17:12:01	36.4	38
178470	2026-07-05T17:22:01	32.8	43.5
178471	2026-07-05T17:32:01	32	45
178472	2026-07-05T17:42:01	30.8	47.5
178473	2026-07-05T17:52:01	32	44.5
178474	2026-07-05T18:02:01	33	42
178475	2026-07-05T18:12:01	33.2	38
178476	2026-07-05T18:22:20	32.9	38
178477	2026-07-05T18:32:01	31.5	39.5
178478	2026-07-05T18:42:01	29.7	42
178479	2026-07-05T18:52:01	28.9	44
178480	2026-07-05T19:02:01	29.5	43.5
178481	2026-07-05T19:12:01	28.2	45.5
178482	2026-07-05T19:22:01	27.3	47.5
178483	2026-07-05T19:32:01	27	48.5
178484	2026-07-05T19:42:00	26.5	49
178485	2026-07-05T19:52:00	26.3	50
178486	2026-07-05T20:02:00	26.1	51
178487	2026-07-05T20:12:00	26.1	53
178488	2026-07-05T20:22:00	25.8	54
178489	2026-07-05T20:32:00	25.6	56
178490	2026-07-05T20:42:00	25.3	57
178491	2026-07-05T20:52:00	25	58
178492	2026-07-05T21:02:00	24.7	58.5
178493	2026-07-05T21:12:00	24.4	59.5
178494	2026-07-05T21:22:00	24.1	60.5
178495	2026-07-05T21:32:00	23.5	62
178496	2026-07-05T21:42:00	23.4	62.5
178497	2026-07-05T21:52:00	23.2	63
178498	2026-07-05T22:02:00	22.9	64.5
178499	2026-07-05T22:12:00	22.5	65
178500	2026-07-05T22:22:00	22.3	66
178501	2026-07-05T22:32:00	22.2	66
178502	2026-07-05T22:42:00	21.9	66
178503	2026-07-05T22:52:00	21.7	67
178504	2026-07-05T23:02:00	21.6	67
178505	2026-07-05T23:12:00	21.5	67.5
178506	2026-07-05T23:22:00	21.4	68
178507	2026-07-05T23:32:00	21.2	69
178508	2026-07-05T23:42:00	20.9	69
178509	2026-07-05T23:52:00	20.8	69.5
178510	2026-07-06T00:02:00	20.8	70
178511	2026-07-06T00:12:00	20.6	71
178512	2026-07-06T00:22:00	20.6	71
178513	2026-07-06T00:32:00	20.4	72
178514	2026-07-06T00:42:00	20.3	72
178515	2026-07-06T00:52:00	20.1	72.5
178516	2026-07-06T01:02:00	19.8	73
178517	2026-07-06T01:12:00	19.7	73
178518	2026-07-06T01:22:00	19.5	74
178519	2026-07-06T01:32:00	19.5	74.5
178520	2026-07-06T01:42:00	19.3	75.5
178521	2026-07-06T01:52:00	19.3	75
178522	2026-07-06T02:02:00	19.3	75.5
178523	2026-07-06T02:12:00	19.2	75
178524	2026-07-06T02:22:00	19.3	75
178525	2026-07-06T02:32:00	19.1	75
178526	2026-07-06T02:42:00	18.9	76.5
178527	2026-07-06T02:52:00	18.6	77
178528	2026-07-06T03:02:00	18.3	78
178529	2026-07-06T03:12:00	18.6	77.5
178530	2026-07-06T03:22:00	18.6	77.5
178531	2026-07-06T03:32:00	18.5	78
178532	2026-07-06T03:42:00	18.6	78
178533	2026-07-06T03:52:00	18.7	77.5
178534	2026-07-06T04:02:00	18.7	78
178535	2026-07-06T04:12:00	18.7	78
178536	2026-07-06T04:22:00	18.9	77.5
178537	2026-07-06T04:32:00	19	77.5
178538	2026-07-06T04:42:00	19.1	77.5
178539	2026-07-06T04:52:00	19.2	77.5
178540	2026-07-06T05:02:00	19.4	76.5
178541	2026-07-06T05:12:00	19.6	76
178542	2026-07-06T05:22:00	19.7	76.5
178543	2026-07-06T05:32:00	20	75
178544	2026-07-06T05:42:00	20.1	73.5
178545	2026-07-06T05:52:00	20.2	74
178546	2026-07-06T06:01:59	20.3	73
178547	2026-07-06T06:11:59	20.5	72.5
178548	2026-07-06T06:21:59	20.8	71.5
178549	2026-07-06T06:31:59	20.8	70.5
178550	2026-07-06T06:41:59	21	70
178551	2026-07-06T06:51:59	21.2	70
178552	2026-07-06T07:01:59	21.5	69
178553	2026-07-06T07:11:59	21.8	68.5
178554	2026-07-06T07:21:59	22	67
178555	2026-07-06T07:31:59	22.1	68
178556	2026-07-06T07:41:59	22.1	68
178557	2026-07-06T07:51:59	22.2	67.5
178558	2026-07-06T08:01:59	22.5	67
178559	2026-07-06T08:11:59	23	66.5
178560	2026-07-06T08:21:59	23.2	64.5
178561	2026-07-06T08:31:59	23.6	63
178562	2026-07-06T08:41:59	23.9	63
178563	2026-07-06T08:51:59	24.2	62.5
178564	2026-07-06T09:01:59	24.8	61.5
178565	2026-07-06T09:11:59	24.8	60.5
178566	2026-07-06T09:21:59	25.4	60.5
178567	2026-07-06T09:31:59	25.3	59.5
178568	2026-07-06T09:41:59	25.6	59.5
178569	2026-07-06T09:51:59	25.7	59
178570	2026-07-06T10:01:59	25.7	59
178571	2026-07-06T10:11:59	25.7	58.5
178572	2026-07-06T10:21:59	25.5	59
178573	2026-07-06T10:31:59	25.5	58
178574	2026-07-06T10:41:59	26	56.5
178575	2026-07-06T10:51:59	26.5	55
178576	2026-07-06T11:01:59	26.9	53.5
178577	2026-07-06T11:11:59	26.5	53.5
178578	2026-07-06T11:21:59	26.6	52.5
178579	2026-07-06T11:31:59	27.3	51
178580	2026-07-06T11:41:59	27.6	52
178581	2026-07-06T11:51:59	27.6	51
178582	2026-07-06T12:01:59	27.9	47
178583	2026-07-06T12:11:59	28	47
178584	2026-07-06T12:21:59	30.1	44
178585	2026-07-06T12:31:59	31.4	42
178586	2026-07-06T12:41:59	32.2	40.5
178587	2026-07-06T12:51:59	33.1	39
178588	2026-07-06T13:01:59	34.1	36.5
178589	2026-07-06T13:11:59	34.4	36
178590	2026-07-06T13:21:59	34.4	36.5
178591	2026-07-06T13:31:59	34.9	35.5
178592	2026-07-06T13:51:59	36.2	34.5
178593	2026-07-06T14:01:59	34	37.5
178594	2026-07-06T14:11:59	33	39
178595	2026-07-06T14:21:59	33.8	38.5
178596	2026-07-06T14:31:59	34.3	38
178597	2026-07-06T14:41:59	33.8	37.5
178598	2026-07-06T14:51:59	34.9	36.5
178599	2026-07-06T15:01:59	33.6	38.5
178600	2026-07-06T15:11:59	35.2	36
178601	2026-07-06T15:21:59	35.7	35.5
178602	2026-07-06T15:31:59	36.9	34
178603	2026-07-06T15:41:59	35.1	36
178604	2026-07-06T15:51:59	35.6	34
178605	2026-07-06T16:01:58	37	31.5
178606	2026-07-06T16:11:58	33.5	35
178607	2026-07-06T16:21:58	32.3	38
178608	2026-07-06T16:31:58	31.6	39.5
178609	2026-07-06T16:41:58	30.9	40
178610	2026-07-06T16:51:58	30.5	40
178611	2026-07-06T17:01:58	30.5	40
178612	2026-07-06T17:11:58	31.3	38.5
178613	2026-07-06T17:21:58	34.3	35
178614	2026-07-06T17:31:58	32.8	36.5
178615	2026-07-06T17:41:58	33.7	36.5
178616	2026-07-06T17:51:58	35.1	34.5
178617	2026-07-06T18:01:58	34.6	36
178618	2026-07-06T18:11:58	33.9	37
178619	2026-07-06T18:21:58	33.8	37
178620	2026-07-06T18:31:58	32.3	39
178621	2026-07-06T18:41:58	30.8	42
178622	2026-07-06T18:51:58	29.8	43.5
178623	2026-07-06T19:01:58	29.6	43
178624	2026-07-06T19:11:58	29.2	44
178625	2026-07-06T19:21:58	28.4	45.5
178626	2026-07-06T19:31:58	27.9	46.5
178627	2026-07-06T19:41:58	27.5	47.5
178628	2026-07-06T19:51:58	27.1	48
178629	2026-07-06T20:01:58	26.7	48
178630	2026-07-06T20:11:58	26.6	48
178631	2026-07-06T20:21:58	26.3	49
178632	2026-07-06T20:31:58	25.9	49.5
178633	2026-07-06T20:41:58	25.8	50
178634	2026-07-06T20:51:58	25.5	49.5
178635	2026-07-06T21:01:58	25.2	50
178636	2026-07-06T21:11:58	25	50.5
178637	2026-07-06T21:21:58	24.7	51
178638	2026-07-06T21:31:58	24.5	52
178639	2026-07-06T21:41:58	24.3	53
178640	2026-07-06T21:51:58	24.1	54
178641	2026-07-06T22:01:58	23.9	57
178642	2026-07-06T22:11:58	23.6	57
178643	2026-07-06T22:21:58	23.3	57.5
178644	2026-07-06T22:31:58	22.9	58
178645	2026-07-06T22:41:58	22.6	59
178646	2026-07-06T22:51:58	22.5	59
178647	2026-07-06T23:01:58	22.3	59.5
178648	2026-07-06T23:11:58	22.1	60
178649	2026-07-06T23:21:58	21.9	60.5
178650	2026-07-06T23:31:58	21.7	61.5
178651	2026-07-06T23:41:58	21.4	62
178652	2026-07-06T23:51:58	21.4	62.5
178653	2026-07-07T00:01:58	21.2	62.5
178654	2026-07-07T00:11:58	21.2	62.5
178655	2026-07-07T00:21:58	21.1	62.5
178656	2026-07-07T00:31:58	20.8	63.5
178657	2026-07-07T00:41:58	20.7	63.5
178658	2026-07-07T00:51:58	20.5	64
178659	2026-07-07T01:01:58	20.3	64.5
178660	2026-07-07T01:11:58	20.2	64.5
178661	2026-07-07T01:21:58	20.1	65
178662	2026-07-07T01:31:58	20	65
178663	2026-07-07T01:41:58	19.7	65.5
178664	2026-07-07T01:51:57	19.7	66
178665	2026-07-07T02:01:57	19.6	66.5
178666	2026-07-07T02:11:57	19.5	66.5
178667	2026-07-07T02:31:57	19.2	66.5
178668	2026-07-07T02:41:57	19.2	67
178669	2026-07-07T02:51:57	19	67.5
178670	2026-07-07T03:01:57	18.9	68
178671	2026-07-07T03:21:57	18.8	68.5
178672	2026-07-07T03:31:57	18.6	69.5
178673	2026-07-07T03:41:57	18.6	69.5
178674	2026-07-07T03:51:57	18.6	69.5
178675	2026-07-07T04:01:57	18.7	68.5
178676	2026-07-07T04:11:57	19	67
178677	2026-07-07T04:21:57	19.2	67
178678	2026-07-07T04:31:57	19.2	67.5
178679	2026-07-07T04:41:57	19.3	67.5
178680	2026-07-07T04:51:57	19.4	67
178681	2026-07-07T05:01:57	19.6	67.5
178682	2026-07-07T05:11:57	19.9	67.5
178683	2026-07-07T05:21:57	20.2	66.5
178684	2026-07-07T05:31:57	20.4	65
178685	2026-07-07T05:41:57	20.8	64.5
178686	2026-07-07T05:51:57	20.8	64.5
178687	2026-07-07T06:01:57	21	64
178688	2026-07-07T06:11:57	21.4	64
178689	2026-07-07T06:21:57	21.8	63
178690	2026-07-07T06:31:57	22.4	62
178691	2026-07-07T06:41:57	22.8	61
178692	2026-07-07T06:51:57	23.4	59.5
178693	2026-07-07T07:01:57	23.7	57
178694	2026-07-07T07:11:57	24.1	55
178695	2026-07-07T07:21:57	24.5	54.5
178696	2026-07-07T07:31:57	24.9	52
178697	2026-07-07T07:41:57	25.2	51.5
178698	2026-07-07T07:51:57	25.7	50.5
178699	2026-07-07T08:01:57	26.3	50
178700	2026-07-07T08:11:57	26.7	47.5
178701	2026-07-07T08:21:57	27.1	48
178702	2026-07-07T08:31:57	27.3	47
178703	2026-07-07T08:41:57	27.5	48
178704	2026-07-07T08:51:57	27.2	48
178705	2026-07-07T09:01:57	27	50
178706	2026-07-07T09:11:57	27.1	48.5
178707	2026-07-07T09:21:57	27.6	46
178708	2026-07-07T09:31:57	28.1	44
178709	2026-07-07T09:41:57	28.4	43.5
178710	2026-07-07T09:51:57	28.7	42
178711	2026-07-07T10:01:57	28.9	42
178712	2026-07-07T10:11:57	29.5	41
178713	2026-07-07T10:21:57	29.6	39
178714	2026-07-07T10:31:57	30.1	36.5
178715	2026-07-07T10:41:57	30.5	36.5
178716	2026-07-07T10:51:57	31	36.5
178717	2026-07-07T11:01:57	31.2	37
178718	2026-07-07T11:11:57	30.9	36.5
178719	2026-07-07T11:21:57	30.6	38
178720	2026-07-07T11:31:57	30.7	38
178721	2026-07-07T11:41:57	31.4	37.5
178722	2026-07-07T11:51:57	31.6	36.5
178723	2026-07-07T12:01:56	32.4	36.5
178724	2026-07-07T12:11:56	32.9	35.5
178725	2026-07-07T12:21:56	33.2	35
178726	2026-07-07T12:31:56	33.3	35
178727	2026-07-07T12:41:56	34.4	34
178728	2026-07-07T12:51:56	34.3	33.5
178729	2026-07-07T13:01:56	34.5	30
178730	2026-07-07T13:11:56	34.3	29
178731	2026-07-07T13:21:56	34.2	29.5
178732	2026-07-07T13:31:56	34.5	30
178733	2026-07-07T13:41:56	34.8	29
178734	2026-07-07T13:51:56	33.9	29.5
178735	2026-07-07T14:01:56	33.2	30.5
178736	2026-07-07T14:11:56	32.7	30.5
178737	2026-07-07T14:21:56	32.4	30.5
178738	2026-07-07T14:31:56	32.1	30
178739	2026-07-07T14:41:56	32	30
178740	2026-07-07T14:51:56	32.1	29.5
178741	2026-07-07T15:01:56	31.8	30.5
178742	2026-07-07T15:11:56	31.6	31
178743	2026-07-07T15:21:56	31.3	32
178744	2026-07-07T15:31:56	31.1	32.5
178745	2026-07-07T15:41:56	30.9	33
178746	2026-07-07T15:51:56	30.7	33.5
178747	2026-07-07T16:01:56	30.6	34
178748	2026-07-07T16:11:56	30.3	34.5
178749	2026-07-07T16:21:56	30.2	34.5
178750	2026-07-07T16:31:56	30.2	34.5
178751	2026-07-07T16:41:56	29.9	35
178752	2026-07-07T16:51:56	29.9	35
178753	2026-07-07T17:01:56	29.7	35.5
178754	2026-07-07T17:11:56	29.6	36
178755	2026-07-07T17:21:56	29.3	37.5
178756	2026-07-07T17:31:56	29.1	38
178757	2026-07-07T17:41:56	28.9	38.5
178758	2026-07-07T17:51:56	28.8	38.5
178759	2026-07-07T18:01:56	28.7	39.5
178760	2026-07-07T18:11:56	28.6	40
178761	2026-07-07T18:21:56	29.2	40
178762	2026-07-07T18:31:56	31.3	37
178763	2026-07-07T18:41:56	31	38
178764	2026-07-07T18:51:56	31.8	37
178765	2026-07-07T19:01:56	30.8	38.5
178766	2026-07-07T19:11:56	29.4	40.5
178767	2026-07-07T19:21:56	28.2	43
178768	2026-07-07T19:31:56	27.7	44.5
178769	2026-07-07T19:41:56	27	45.5
178770	2026-07-07T19:51:56	26.7	47
178771	2026-07-07T20:01:56	26.3	47.5
178772	2026-07-07T20:11:56	26	47.5
178773	2026-07-07T20:21:56	25.7	48
178774	2026-07-07T20:31:56	25.5	49.5
178775	2026-07-07T20:41:56	25.4	49
178776	2026-07-07T20:51:56	25.3	50
178777	2026-07-07T21:01:56	24.9	50
178778	2026-07-07T21:11:56	24.6	52
178779	2026-07-07T21:21:56	24.5	52
178780	2026-07-07T21:31:56	24.1	52.5
178781	2026-07-07T21:41:56	24	52.5
178782	2026-07-07T22:01:56	23.7	50.5
178783	2026-07-07T22:11:55	23.7	50.5
178784	2026-07-07T22:21:55	23.5	51
178785	2026-07-07T22:31:55	23.4	51
178786	2026-07-07T22:41:55	23.2	51.5
178787	2026-07-07T22:51:55	23.1	50.5
178788	2026-07-07T23:01:55	23	51
178789	2026-07-07T23:11:55	22.8	52
178790	2026-07-07T23:21:55	22.7	52
178791	2026-07-07T23:31:55	22.6	52.5
178792	2026-07-07T23:41:55	22.4	53.5
178793	2026-07-07T23:51:55	22.3	53.5
178794	2026-07-08T00:01:55	22.2	53.5
178795	2026-07-08T00:11:55	22	54
178796	2026-07-08T00:21:55	22	54.5
178797	2026-07-08T00:31:55	21.6	55.5
178798	2026-07-08T00:41:55	21.6	56
178799	2026-07-08T00:51:55	21.3	58
178800	2026-07-08T01:01:55	21.1	58.5
178801	2026-07-08T01:11:55	20.9	59
178802	2026-07-08T01:21:55	20.8	59.5
178803	2026-07-08T01:31:55	20.8	59
178804	2026-07-08T01:41:55	20.9	57.5
178805	2026-07-08T01:51:55	20.7	59
178806	2026-07-08T02:01:55	20.6	59.5
178807	2026-07-08T02:11:55	20.7	59
178808	2026-07-08T02:21:55	20.6	61
178809	2026-07-08T02:31:55	20.6	61
178810	2026-07-08T02:41:55	20.7	60.5
178811	2026-07-08T02:51:55	20.6	61
178812	2026-07-08T03:01:55	20.6	61
178813	2026-07-08T03:11:55	20.6	62.5
178814	2026-07-08T03:21:55	20.3	62
178815	2026-07-08T03:31:55	20.4	61
178816	2026-07-08T03:41:55	20.3	61.5
178817	2026-07-08T03:51:55	20.4	62.5
178818	2026-07-08T04:01:55	20.3	62
178819	2026-07-08T04:11:55	20.3	62.5
178820	2026-07-08T04:21:55	20.3	63.5
178821	2026-07-08T04:31:55	20.2	64
178822	2026-07-08T04:41:55	20.2	63.5
178823	2026-07-08T04:51:55	20.2	61.5
178824	2026-07-08T05:01:55	20.3	62.5
178825	2026-07-08T05:11:55	20.4	60.5
178826	2026-07-08T05:21:55	20.5	61
178827	2026-07-08T05:31:55	20.7	62.5
178828	2026-07-08T05:41:55	20.8	63.5
178829	2026-07-08T05:51:55	20.8	62.5
178830	2026-07-08T06:01:55	21.1	60.5
178831	2026-07-08T06:11:55	21.2	60
178832	2026-07-08T06:21:55	21.4	58.5
178833	2026-07-08T06:31:55	21.7	58
178834	2026-07-08T06:41:55	22	56.5
178835	2026-07-08T06:51:55	22.2	56.5
178836	2026-07-08T07:01:55	22.5	56
178837	2026-07-08T07:11:55	22.9	56
178838	2026-07-08T07:21:55	22.9	56
178839	2026-07-08T07:31:55	22.9	56.5
178840	2026-07-08T07:41:54	23	56.5
178841	2026-07-08T07:51:55	23.3	56.5
178842	2026-07-08T08:01:54	23.2	57
178843	2026-07-08T08:11:54	23.1	58.5
178844	2026-07-08T08:21:54	23.1	58.5
178845	2026-07-08T08:31:54	23.1	59
178846	2026-07-08T08:41:54	23.1	60
178847	2026-07-08T08:51:54	23.2	60.5
178848	2026-07-08T09:01:54	23.2	60.5
178849	2026-07-08T09:11:54	23.2	61
178850	2026-07-08T09:21:54	23.2	60.5
178851	2026-07-08T09:31:54	23.3	60.5
178852	2026-07-08T09:41:54	23.4	60
178853	2026-07-08T09:51:54	23.8	59
178854	2026-07-08T10:01:54	24.8	57.5
178855	2026-07-08T10:11:54	25	56.5
178856	2026-07-08T10:21:54	25.4	56
178857	2026-07-08T10:31:54	25.7	54.5
178858	2026-07-08T10:41:54	25.9	54
178859	2026-07-08T10:51:54	26.6	54
178860	2026-07-08T11:01:54	27	52.5
178861	2026-07-08T11:11:54	27.6	51.5
178862	2026-07-08T11:21:54	27.7	51
178863	2026-07-08T11:31:54	28.7	50
178864	2026-07-08T11:41:54	28.4	51
178865	2026-07-08T11:51:54	28.1	51
178866	2026-07-08T12:01:54	28.2	51.5
178867	2026-07-08T12:11:54	28.9	50.5
178868	2026-07-08T12:21:54	28.3	52
178869	2026-07-08T12:31:54	28.7	50.5
178870	2026-07-08T12:41:54	30.5	47.5
178871	2026-07-08T12:51:54	32.1	45
178872	2026-07-08T13:01:54	33.7	42
178873	2026-07-08T13:11:54	34.5	40.5
178874	2026-07-08T13:21:54	33	42.5
178875	2026-07-08T13:31:54	35.5	40
178876	2026-07-08T13:41:54	36.2	38.5
178877	2026-07-08T14:01:54	35	39.5
178878	2026-07-08T14:11:54	36	38
178879	2026-07-08T14:21:54	37.1	37
178880	2026-07-08T14:31:54	35.8	38.5
178881	2026-07-08T14:41:54	36.3	38
178882	2026-07-08T14:51:54	35.9	38.5
178883	2026-07-08T15:02:13	33.5	41
178884	2026-07-08T15:11:54	35.6	39.5
178885	2026-07-08T15:21:54	36.6	36.5
178886	2026-07-08T15:31:54	36.2	37
178887	2026-07-08T15:41:54	35.4	39
178888	2026-07-08T15:51:54	33.8	40
178889	2026-07-08T16:01:54	33.4	41
178890	2026-07-08T16:11:54	34.3	40
178891	2026-07-08T16:21:54	37.9	35
178892	2026-07-08T16:31:54	37.8	34.5
178893	2026-07-08T16:41:54	40	32.5
178894	2026-07-08T16:51:54	40.2	32
178895	2026-07-08T17:01:54	39.9	32.5
178896	2026-07-08T17:11:54	39.8	32.5
178897	2026-07-08T17:21:54	39.1	33
178898	2026-07-08T17:31:54	39.2	33.5
178899	2026-07-08T17:41:54	38.7	34.5
178900	2026-07-08T17:51:54	38.3	34.5
178901	2026-07-08T18:01:53	38.2	35
178902	2026-07-08T18:11:53	37.5	35
178903	2026-07-08T18:21:53	36.3	36.5
178904	2026-07-08T18:31:53	35.9	37.5
178905	2026-07-08T18:41:53	34.2	40
178906	2026-07-08T18:51:53	34.3	40
178907	2026-07-08T19:01:53	33.3	41
178908	2026-07-08T19:11:53	31.5	44.5
178909	2026-07-08T19:21:53	30.3	46
178910	2026-07-08T19:31:53	29.7	47.5
178911	2026-07-08T19:41:53	29.2	49
178912	2026-07-08T19:51:53	28.6	50.5
178913	2026-07-08T20:01:53	28.1	51.5
178914	2026-07-08T20:11:53	27.7	52
178915	2026-07-08T20:21:53	27.5	53.5
178916	2026-07-08T20:31:53	27	54
178917	2026-07-08T20:41:53	26.7	55
178918	2026-07-08T20:51:53	26.4	55.5
178919	2026-07-08T21:01:53	25.4	56.5
178920	2026-07-08T21:11:53	25.2	57.5
178921	2026-07-08T21:21:53	25	57
178922	2026-07-08T21:31:53	24.6	58
178923	2026-07-08T21:41:53	24.5	59
178924	2026-07-08T21:51:53	24.3	59.5
178925	2026-07-08T22:01:53	24.1	60
178926	2026-07-08T22:11:53	23.8	61
178927	2026-07-08T22:21:53	23.5	62
178928	2026-07-08T22:31:53	23.3	62
178929	2026-07-08T22:41:53	23.1	63
178930	2026-07-08T22:51:53	22.9	64
178931	2026-07-08T23:01:53	22.6	64.5
178932	2026-07-08T23:11:53	22.4	65.5
178933	2026-07-08T23:21:53	22.3	66.5
178934	2026-07-08T23:31:53	21.8	67.5
178935	2026-07-08T23:41:53	21.6	67.5
178936	2026-07-08T23:51:53	21.5	68
178937	2026-07-09T00:01:53	21.3	68.5
178938	2026-07-09T00:11:53	21	69
178939	2026-07-09T00:21:53	20.9	69.5
178940	2026-07-09T00:31:53	20.5	70.5
178941	2026-07-09T00:41:53	20.5	70.5
178942	2026-07-09T00:51:53	20.2	71
178943	2026-07-09T01:01:53	20.1	71.5
178944	2026-07-09T01:11:53	19.9	72
178945	2026-07-09T01:21:53	19.7	72.5
178946	2026-07-09T01:31:53	19.6	73
178947	2026-07-09T01:41:53	19.4	73.5
178948	2026-07-09T01:51:53	19.2	74.5
178949	2026-07-09T02:01:53	18.8	75.5
178950	2026-07-09T02:11:53	18.7	75.5
178951	2026-07-09T02:21:53	18.7	75.5
178952	2026-07-09T02:31:53	18.5	76.5
178953	2026-07-09T02:41:53	18.5	76.5
178954	2026-07-09T02:51:53	18.2	77
178955	2026-07-09T03:01:53	18.2	77
178956	2026-07-09T03:11:53	17.9	78
178957	2026-07-09T03:21:53	17.8	78
178958	2026-07-09T03:31:53	17.7	78.5
178959	2026-07-09T03:41:53	17.6	78.5
178960	2026-07-09T03:51:53	17.7	78.5
178961	2026-07-09T04:01:53	17.5	79
178962	2026-07-09T04:11:52	17.6	79.5
178963	2026-07-09T04:21:52	17.5	80
178964	2026-07-09T04:31:52	17.6	80
178965	2026-07-09T04:41:52	17.7	80
178966	2026-07-09T04:51:52	17.9	79.5
178967	2026-07-09T05:01:52	17.9	79.5
178968	2026-07-09T05:11:52	18	79.5
178969	2026-07-09T05:21:52	18.2	79.5
178970	2026-07-09T05:31:52	18.4	79
178971	2026-07-09T05:41:52	18.6	79.5
178972	2026-07-09T05:51:52	18.9	79.5
178973	2026-07-09T06:01:52	19.1	78.5
178974	2026-07-09T06:11:52	19.4	78
178975	2026-07-09T06:21:52	19.6	77.5
178976	2026-07-09T06:31:52	19.8	77.5
178977	2026-07-09T06:41:52	20.1	76.5
178978	2026-07-09T06:51:52	20.2	76
178979	2026-07-09T07:01:52	20.4	75
178980	2026-07-09T07:11:52	20.6	75
178981	2026-07-09T07:21:52	20.8	74
178982	2026-07-09T07:31:52	21.1	74
178983	2026-07-09T07:41:52	21.2	73
178984	2026-07-09T07:51:52	21.4	72.5
178985	2026-07-09T08:01:52	21.5	72
178986	2026-07-09T08:11:52	21.9	72
178987	2026-07-09T08:21:52	22.1	71
178988	2026-07-09T08:31:52	22.3	68.5
178989	2026-07-09T08:41:52	22.5	69
178990	2026-07-09T08:51:52	22.5	67
178991	2026-07-09T09:01:52	22.8	67.5
178992	2026-07-09T09:11:52	22.9	66
178993	2026-07-09T09:21:52	23.4	66
178994	2026-07-09T09:31:52	23.3	64.5
178995	2026-07-09T09:41:52	23.5	63.5
178996	2026-07-09T09:51:52	23.7	62.5
178997	2026-07-09T10:01:52	23.9	61
178998	2026-07-09T10:11:52	24.1	61.5
178999	2026-07-09T10:21:52	24.5	60
179000	2026-07-09T10:31:52	24.7	58
179001	2026-07-09T10:41:52	24.9	58.5
179002	2026-07-09T10:51:52	25.4	58
179003	2026-07-09T11:01:52	25.6	57
179004	2026-07-09T11:11:52	25.7	56.5
179005	2026-07-09T11:21:52	26.3	57
179006	2026-07-09T11:31:52	26.5	55
179007	2026-07-09T11:41:52	26.8	54
179008	2026-07-09T11:51:52	27.4	52.5
179009	2026-07-09T12:01:52	27.9	52
179010	2026-07-09T12:11:52	28.4	50.5
179011	2026-07-09T12:21:52	30.4	47.5
179012	2026-07-09T12:31:52	33.2	42.5
179013	2026-07-09T12:41:52	35	39.5
179014	2026-07-09T12:51:52	36.2	37
179015	2026-07-09T13:01:52	37.7	35.5
179016	2026-07-09T13:11:52	38.4	35
179017	2026-07-09T13:21:52	38.5	34
179018	2026-07-09T13:31:52	38.5	33.5
179019	2026-07-09T13:41:52	39	33.5
179020	2026-07-09T13:51:52	39.2	32.5
179021	2026-07-09T14:01:52	40.2	31
179022	2026-07-09T14:11:52	39.5	31.5
179023	2026-07-09T14:21:52	40.1	31.5
179024	2026-07-09T14:31:52	40.6	31
179025	2026-07-09T14:41:51	41.7	29
179026	2026-07-09T14:51:51	41.4	29
179027	2026-07-09T15:01:51	40.8	30
179028	2026-07-09T15:11:51	41.9	28.5
179029	2026-07-09T15:21:51	43.4	27.5
179030	2026-07-09T15:31:51	44.3	26
179031	2026-07-09T15:41:51	44.2	26.5
179032	2026-07-09T15:51:51	44.7	25.5
179033	2026-07-09T16:01:51	43.9	26.5
179034	2026-07-09T16:11:51	42.8	27
179035	2026-07-09T16:21:51	45.3	25
179036	2026-07-09T16:31:51	46.1	24.5
179037	2026-07-09T16:41:51	45.7	25.5
179038	2026-07-09T16:51:51	45.9	24.5
179039	2026-07-09T17:01:51	45.7	25
179040	2026-07-09T17:11:51	45.6	24.5
179041	2026-07-09T17:21:51	45.2	25
179042	2026-07-09T17:31:51	44.8	25
179043	2026-07-09T17:41:51	44.4	25.5
179044	2026-07-09T17:51:51	43.7	25.5
179045	2026-07-09T18:01:51	43	26.5
179046	2026-07-09T18:11:51	41.5	28
179047	2026-07-09T18:21:51	41.5	27.5
179048	2026-07-09T18:31:51	39.2	30
179049	2026-07-09T18:41:51	38	31.5
179050	2026-07-09T18:51:51	36	34
179051	2026-07-09T19:01:51	35.3	35
179052	2026-07-09T19:11:51	34.4	36.5
179053	2026-07-09T19:21:51	33	38.5
179054	2026-07-09T19:31:51	32.7	40
179055	2026-07-09T19:41:51	32.2	41.5
179056	2026-07-09T19:51:51	31.7	43.5
179057	2026-07-09T20:01:51	31	45
179058	2026-07-09T20:11:51	30.5	46.5
179059	2026-07-09T20:21:51	29.9	48
179060	2026-07-09T20:31:51	29.5	48
179061	2026-07-09T20:41:51	29.1	48.5
179062	2026-07-09T20:51:51	28.5	49
179063	2026-07-09T21:01:51	28	50
179064	2026-07-09T21:11:51	27.8	51
179065	2026-07-09T21:21:51	27.1	52.5
179066	2026-07-09T21:31:51	26.7	53
179067	2026-07-09T21:41:51	26.5	54
179068	2026-07-09T21:51:51	26.2	54
179069	2026-07-09T22:01:51	25.3	55.5
179070	2026-07-09T22:11:51	25.5	55.5
179071	2026-07-09T22:21:51	25.2	56
179072	2026-07-09T22:31:51	24.8	56.5
179073	2026-07-09T22:41:51	24.5	57.5
179074	2026-07-09T22:51:51	24.3	57.5
179075	2026-07-09T23:01:51	24.2	57.5
179076	2026-07-09T23:11:51	24.1	57.5
179077	2026-07-09T23:21:51	24	57.5
179078	2026-07-09T23:31:51	23.6	59.5
179079	2026-07-09T23:41:51	23.1	61
179080	2026-07-09T23:51:51	23.1	61
179081	2026-07-10T00:01:51	22.5	63
179082	2026-07-10T00:11:51	22.4	63
179083	2026-07-10T00:21:51	21.9	64.5
179084	2026-07-10T00:31:51	21.7	65
179085	2026-07-10T00:41:51	22	64
179086	2026-07-10T00:51:51	21.8	65.5
179087	2026-07-10T01:01:51	21.7	66
179088	2026-07-10T01:11:51	21.6	66.5
179089	2026-07-10T01:21:51	21.1	67.5
179090	2026-07-10T01:31:51	20.8	68
179091	2026-07-10T01:41:50	20.8	68.5
179092	2026-07-10T01:51:50	20.4	69
179093	2026-07-10T02:01:50	20.4	69
179094	2026-07-10T02:11:50	20.3	69.5
179095	2026-07-10T02:21:50	20	70
179096	2026-07-10T02:31:50	19.7	71
179097	2026-07-10T02:41:50	19.7	71
179098	2026-07-10T02:51:50	19.6	71
179099	2026-07-10T03:01:50	19.6	71.5
179100	2026-07-10T03:11:50	19.5	71.5
179101	2026-07-10T03:21:50	19.3	72
179102	2026-07-10T03:31:50	19.2	72.5
179103	2026-07-10T03:41:50	19.1	73
179104	2026-07-10T03:51:50	19.1	73
179105	2026-07-10T04:01:50	18.9	73.5
179106	2026-07-10T04:11:50	19	73.5
179107	2026-07-10T04:21:50	18.9	73.5
179108	2026-07-10T04:31:50	19.1	74
179109	2026-07-10T04:41:50	19.1	74
179110	2026-07-10T04:51:50	19.2	74
179111	2026-07-10T05:01:50	19.1	74
179112	2026-07-10T05:11:50	19.2	74
179113	2026-07-10T05:21:50	19.3	73.5
179114	2026-07-10T05:31:50	19.4	73.5
179115	2026-07-10T05:41:50	19.6	73
179116	2026-07-10T05:51:50	19.8	72.5
179117	2026-07-10T06:01:50	19.9	72.5
179118	2026-07-10T06:11:50	20.1	72.5
179119	2026-07-10T06:21:50	20.2	72
179120	2026-07-10T06:31:50	20.4	72
179121	2026-07-10T06:41:50	20.6	71.5
179122	2026-07-10T06:51:50	20.7	71
179123	2026-07-10T07:01:50	20.9	70
179124	2026-07-10T07:11:50	21.2	70
179125	2026-07-10T07:21:50	21.4	70
179126	2026-07-10T07:31:50	21.6	69.5
179127	2026-07-10T07:41:50	21.8	69
179128	2026-07-10T07:51:50	22.1	69
179129	2026-07-10T08:01:50	22.3	68
179130	2026-07-10T08:11:50	22.5	68
179131	2026-07-10T08:21:50	22.8	66.5
179132	2026-07-10T08:31:50	23.1	66
179133	2026-07-10T08:41:50	23.2	65.5
179134	2026-07-10T08:51:50	23.6	63.5
179135	2026-07-10T09:01:50	23.8	64.5
179136	2026-07-10T09:11:50	24	62
179137	2026-07-10T09:21:50	24.3	60.5
179138	2026-07-10T09:31:50	24.5	61
179139	2026-07-10T09:41:50	25	58
179140	2026-07-10T09:51:50	25	58.5
179141	2026-07-10T10:01:50	25.4	55
179142	2026-07-10T10:11:50	25.6	55.5
179143	2026-07-10T10:21:50	25.9	53
179144	2026-07-10T10:31:50	26.2	52
179145	2026-07-10T10:41:50	26.5	52.5
179146	2026-07-10T10:51:50	26.5	50.5
179147	2026-07-10T11:01:50	26.8	50.5
179148	2026-07-10T11:11:50	27.1	50
179149	2026-07-10T11:21:50	27.6	46
179150	2026-07-10T11:31:50	27.8	48
179151	2026-07-10T11:41:50	28.6	45.5
179152	2026-07-10T11:51:49	29.2	42
179153	2026-07-10T12:01:49	29.6	41.5
179154	2026-07-10T12:11:49	30.1	37.5
179155	2026-07-10T12:21:49	32.6	38.5
179156	2026-07-10T12:31:49	35.1	33
179157	2026-07-10T12:41:49	36.6	30.5
179158	2026-07-10T12:51:49	37.4	30.5
179159	2026-07-10T13:01:49	38.9	28.5
179160	2026-07-10T13:11:49	40.2	28.5
179161	2026-07-10T13:21:49	41.2	26
179162	2026-07-10T13:31:49	42	26
179163	2026-07-10T13:41:49	42.5	25
179164	2026-07-10T13:51:49	42.7	24.5
179165	2026-07-10T14:01:49	42.7	24.5
179166	2026-07-10T14:11:49	44.1	25
179167	2026-07-10T14:21:49	44.7	23.5
179168	2026-07-10T14:31:49	45.8	23.5
179169	2026-07-10T14:41:49	45.3	21.5
179170	2026-07-10T14:51:49	46.3	21.5
179171	2026-07-10T15:01:49	46.7	22.5
179172	2026-07-10T15:11:49	46.7	21
179173	2026-07-10T15:21:49	46.4	21
179174	2026-07-10T15:31:49	47.2	20.5
179175	2026-07-10T15:41:49	47.9	21
179176	2026-07-10T15:51:49	47.3	20.5
179177	2026-07-10T16:01:49	46.9	20
179178	2026-07-10T16:11:49	47.4	20
179179	2026-07-10T16:21:49	47.2	19
179180	2026-07-10T16:31:49	47.6	19.5
179181	2026-07-10T16:41:49	47.5	20
179182	2026-07-10T16:51:49	48	20.5
179183	2026-07-10T17:01:49	47.9	21.5
179184	2026-07-10T17:11:49	47.9	20.5
179185	2026-07-10T17:21:49	47.9	21
179186	2026-07-10T17:31:49	48.1	21
179187	2026-07-10T17:41:49	47.3	21
179188	2026-07-10T19:41:49	33.8	38.5
179189	2026-07-10T19:51:49	33	39.5
179190	2026-07-10T20:01:49	32.2	40.5
179191	2026-07-10T20:11:49	31.6	41
179192	2026-07-10T20:21:49	30.8	41.5
179193	2026-07-10T20:31:49	30.4	42
179194	2026-07-10T20:41:49	29.9	42
179195	2026-07-10T20:51:49	29.2	43.5
179196	2026-07-10T21:01:49	28.7	44
179197	2026-07-10T21:11:49	28.4	45
179198	2026-07-10T21:21:49	28.1	45.5
179199	2026-07-10T21:31:49	27.7	45.5
179200	2026-07-10T21:41:49	27	46.5
179201	2026-07-10T21:51:49	27.1	46.5
179202	2026-07-10T22:01:49	26.8	47.5
179203	2026-07-10T22:11:49	26.4	48.5
179204	2026-07-10T22:21:49	26.2	49
179205	2026-07-10T22:31:49	25.7	49.5
179206	2026-07-10T22:41:49	25	51
179207	2026-07-10T22:51:49	24.8	51.5
179208	2026-07-10T23:01:49	24.5	52
179209	2026-07-10T23:11:49	24.2	52.5
179210	2026-07-10T23:21:49	24.3	52
179211	2026-07-10T23:31:49	24.1	52.5
179212	2026-07-10T23:41:49	23.7	53.5
179213	2026-07-10T23:51:49	23.5	54
179214	2026-07-11T00:01:49	23.5	54
179215	2026-07-11T00:11:48	23.5	54.5
179216	2026-07-11T00:21:48	23.5	55
179217	2026-07-11T00:31:48	23.1	56
179218	2026-07-11T00:41:48	22.7	57.5
179219	2026-07-11T00:51:48	22.3	58.5
179220	2026-07-11T01:01:48	22.1	59.5
179221	2026-07-11T01:11:48	22	60
179222	2026-07-11T01:21:48	21.7	60.5
179223	2026-07-11T01:31:48	21.4	61
179224	2026-07-11T01:41:48	21	62
179225	2026-07-11T01:51:48	20.9	62.5
179226	2026-07-11T02:01:48	20.8	63
179227	2026-07-11T02:11:48	20.3	65
179228	2026-07-11T02:21:48	20.2	65.5
179229	2026-07-11T02:31:48	20.4	64.5
179230	2026-07-11T02:41:48	20.5	65
179231	2026-07-11T02:51:48	20.3	66
179232	2026-07-11T03:01:48	20.2	67.5
179233	2026-07-11T03:11:48	20	68.5
179234	2026-07-11T03:21:48	20	67.5
179235	2026-07-11T03:31:48	20	66.5
179236	2026-07-11T03:41:48	20.1	67
179237	2026-07-11T03:51:48	20.3	65.5
179238	2026-07-11T04:01:48	20.2	65.5
179239	2026-07-11T04:11:48	20.2	66
179240	2026-07-11T04:21:48	20.3	65.5
179241	2026-07-11T04:31:48	20.3	65.5
179242	2026-07-11T04:41:48	20.3	66
179243	2026-07-11T04:51:48	20.2	66.5
179244	2026-07-11T05:01:48	20.2	67.5
179245	2026-07-11T05:11:48	20.3	68.5
179246	2026-07-11T05:21:48	20.3	69
179247	2026-07-11T05:31:48	20.3	68
179248	2026-07-11T05:41:48	20.6	68
179249	2026-07-11T05:51:48	20.8	67.5
179250	2026-07-11T06:01:48	21.2	66.5
179251	2026-07-11T06:11:48	21.5	65.5
179252	2026-07-11T06:21:48	21.7	65
179253	2026-07-11T06:31:48	22	64.5
179254	2026-07-11T06:41:48	22.1	64
179255	2026-07-11T06:51:48	22.2	64.5
179256	2026-07-11T07:01:48	22.5	64
179257	2026-07-11T07:11:48	22.7	64
179258	2026-07-11T07:21:48	22.9	63.5
179259	2026-07-11T07:31:48	23.1	62.5
179260	2026-07-11T07:41:48	23.6	62
179261	2026-07-11T07:51:48	23.7	61.5
179262	2026-07-11T08:01:48	23.9	60.5
179263	2026-07-11T08:11:48	24.2	59.5
179264	2026-07-11T08:21:48	24.5	58.5
179265	2026-07-11T08:31:48	24.7	57.5
179266	2026-07-11T08:42:10	25	56.5
179267	2026-07-11T08:51:48	25.2	57
179268	2026-07-11T09:01:48	25.4	55.5
179269	2026-07-11T09:11:48	25.8	54
179270	2026-07-11T09:21:48	26.1	54
179271	2026-07-11T09:31:48	26.3	54
179272	2026-07-11T09:41:48	26.6	52.5
179273	2026-07-11T09:51:48	26.9	51.5
179274	2026-07-11T10:01:48	27.2	51.5
179275	2026-07-11T10:11:48	27.4	49.5
179276	2026-07-11T10:21:48	27.4	50.5
179277	2026-07-11T10:31:48	27.9	48
179278	2026-07-11T10:41:47	28	49
179279	2026-07-11T10:51:47	28.3	47.5
179280	2026-07-11T11:01:47	28.4	47.5
179281	2026-07-11T11:11:47	28.9	47
179282	2026-07-11T11:21:47	29	46
179283	2026-07-11T11:31:47	29.3	44
179284	2026-07-11T11:41:47	29.6	43.5
179285	2026-07-11T11:51:47	29.9	43
179286	2026-07-11T12:01:47	30.7	40
179287	2026-07-11T12:11:47	31.3	39.5
179288	2026-07-11T12:21:47	33.6	36
179289	2026-07-11T12:31:47	35.9	32.5
179290	2026-07-11T12:41:47	37.5	29.5
179291	2026-07-11T12:51:47	38	27.5
179292	2026-07-11T13:01:47	39.4	27
179293	2026-07-11T13:11:47	40.3	27
179294	2026-07-11T13:21:47	41.4	24.5
179295	2026-07-11T13:31:47	42.4	23.5
179296	2026-07-11T13:41:47	42.8	22.5
179297	2026-07-11T13:51:47	43.3	22.5
179298	2026-07-11T14:01:47	44	21
179299	2026-07-11T14:11:47	44.8	20.5
179300	2026-07-11T14:21:47	45.3	19.5
179301	2026-07-11T14:31:47	46.3	22
179302	2026-07-11T14:41:47	45.8	19
179303	2026-07-11T14:51:47	46.9	20
179304	2026-07-11T15:01:47	46.4	19.5
179305	2026-07-11T15:11:47	46.9	18.5
179306	2026-07-11T15:21:47	47.8	18.5
179307	2026-07-11T15:31:47	48.1	19.5
179308	2026-07-11T15:41:47	47.7	18.5
179309	2026-07-11T15:51:47	48	19
179310	2026-07-11T16:01:47	48.1	19
179311	2026-07-11T16:21:47	48.4	18.5
179312	2026-07-11T16:31:47	48.7	18
179313	2026-07-11T16:41:47	47.5	19.5
179314	2026-07-11T16:51:47	48.5	18.5
179315	2026-07-11T17:01:47	47	18.5
179316	2026-07-11T17:11:47	47.4	19
179317	2026-07-11T17:21:47	47.5	19
179318	2026-07-11T17:31:47	46.6	20
179319	2026-07-11T17:41:47	46.8	19.5
179320	2026-07-11T17:51:47	45.5	20
179321	2026-07-11T18:01:47	45.5	21
179322	2026-07-11T18:11:47	44.7	22
179323	2026-07-11T18:21:47	43.9	22.5
179324	2026-07-11T18:31:47	42.5	23.5
179325	2026-07-11T18:41:47	41	25
179326	2026-07-11T18:51:47	38.7	27
179327	2026-07-11T19:01:47	37.9	28
179328	2026-07-11T19:11:47	36.6	30
179329	2026-07-11T19:21:47	35.4	31.5
179330	2026-07-11T19:31:47	34.4	32.5
179331	2026-07-11T19:41:47	33.8	36
179332	2026-07-11T19:51:47	33.2	36.5
179333	2026-07-11T20:01:47	32.4	38
179334	2026-07-11T20:11:47	31.7	38.5
179335	2026-07-11T20:21:47	31.3	39.5
179336	2026-07-11T20:31:47	30.7	40
179337	2026-07-11T20:41:47	30.4	41
179338	2026-07-11T20:51:47	30	41.5
179339	2026-07-11T21:01:47	29.5	42.5
179340	2026-07-11T21:11:47	29.2	42.5
179341	2026-07-11T21:21:47	28.7	43.5
179342	2026-07-11T21:31:47	28.6	43.5
179343	2026-07-11T21:41:47	28.1	43.5
179344	2026-07-11T21:51:47	27.9	43.5
179345	2026-07-11T22:01:47	27.7	44
179346	2026-07-11T22:11:47	27.4	44.5
179347	2026-07-11T22:21:47	27.3	44.5
179348	2026-07-11T22:31:47	26.8	45.5
179349	2026-07-11T22:41:47	26.5	46
179350	2026-07-11T22:51:46	26.4	46.5
179351	2026-07-11T23:01:46	26.1	46
179352	2026-07-11T23:11:46	26	45.5
179353	2026-07-11T23:21:46	25.7	45.5
179354	2026-07-11T23:31:46	25.6	45.5
179355	2026-07-11T23:41:46	25.4	45
179356	2026-07-11T23:51:46	25.2	45.5
179357	2026-07-12T00:01:47	25.1	45.5
179358	2026-07-12T00:11:46	24.9	45.5
179359	2026-07-12T00:21:46	24.6	46
179360	2026-07-12T00:31:46	24.5	46.5
179361	2026-07-12T00:41:46	24.3	46.5
179362	2026-07-12T00:51:46	24.2	46.5
179363	2026-07-12T01:11:46	23.8	47.5
179364	2026-07-12T01:21:46	23.7	47.5
179365	2026-07-12T01:31:46	23.5	48
179366	2026-07-12T01:41:46	23.4	47.5
179367	2026-07-12T01:51:46	23.3	48
179368	2026-07-12T02:01:46	23.2	48.5
179369	2026-07-12T02:11:46	23	48.5
179370	2026-07-12T02:21:46	22.9	49
179371	2026-07-12T02:31:46	22.6	50.5
179372	2026-07-12T02:41:46	22.2	52
179373	2026-07-12T02:51:46	22	52.5
179374	2026-07-12T03:01:46	21.5	55
179375	2026-07-12T03:11:46	21.3	54.5
179376	2026-07-12T03:21:46	21.2	55.5
179377	2026-07-12T03:31:46	20.8	56.5
179378	2026-07-12T03:41:46	20.8	57
179379	2026-07-12T03:51:46	20.7	57
179380	2026-07-12T04:01:46	20.5	57.5
179381	2026-07-12T04:11:46	20.4	58
179382	2026-07-12T04:21:46	20.3	57.5
179383	2026-07-12T04:31:46	20.4	58
179384	2026-07-12T04:41:46	20.5	58.5
179385	2026-07-12T04:51:46	20.5	58.5
179386	2026-07-12T05:01:46	20.7	58.5
179387	2026-07-12T05:11:46	20.7	58.5
179388	2026-07-12T05:21:46	20.8	58
179389	2026-07-12T05:31:46	20.9	58.5
179390	2026-07-12T05:41:46	21	58.5
179391	2026-07-12T05:51:46	21.3	58.5
179392	2026-07-12T06:01:46	21.5	58
179393	2026-07-12T06:11:46	21.6	57.5
179394	2026-07-12T06:21:46	21.9	57
179395	2026-07-12T06:31:46	22	57
179396	2026-07-12T06:41:46	22.3	57
179397	2026-07-12T06:51:46	22.6	56
179398	2026-07-12T07:01:46	22.8	56
179399	2026-07-12T07:11:46	23	55.5
179400	2026-07-12T07:21:46	23.2	54
179401	2026-07-12T07:31:46	23.6	53
179402	2026-07-12T07:41:46	23.8	52.5
179403	2026-07-12T07:51:46	24.2	50.5
179404	2026-07-12T08:01:46	24.5	51
179405	2026-07-12T08:11:46	24.8	50
179406	2026-07-12T08:21:46	25	49
179407	2026-07-12T08:31:46	25.2	48.5
179408	2026-07-12T08:41:45	25.5	48
179409	2026-07-12T08:51:45	25.6	47.5
179410	2026-07-12T09:01:45	25.9	45
179411	2026-07-12T09:11:45	26.1	45
179412	2026-07-12T09:21:45	26.2	44.5
179413	2026-07-12T09:31:45	26.3	45
179414	2026-07-12T09:41:45	26.7	44.5
179415	2026-07-12T09:51:45	26.8	44.5
179416	2026-07-12T10:01:45	27	45.5
179417	2026-07-12T10:11:45	27.1	44.5
179418	2026-07-12T10:21:45	27.4	43.5
179419	2026-07-12T10:31:45	27.6	42.5
179420	2026-07-12T10:41:45	27.9	42.5
179421	2026-07-12T10:51:45	28	42.5
179422	2026-07-12T11:01:45	28.4	41.5
179423	2026-07-12T11:11:45	28.6	40.5
179424	2026-07-12T11:21:45	28.9	40.5
179425	2026-07-12T11:31:45	29.5	40.5
179426	2026-07-12T11:41:45	29.9	39.5
179427	2026-07-12T11:51:45	30.3	37
179428	2026-07-12T12:01:45	30.4	38
179429	2026-07-12T12:11:45	31.1	37
179430	2026-07-12T12:21:45	33.3	33.5
179431	2026-07-12T12:31:45	35.4	30.5
179432	2026-07-12T12:51:45	38.4	27
179433	2026-07-12T13:01:45	39.6	26.5
179434	2026-07-12T13:11:45	40.9	25
179435	2026-07-12T13:21:45	41.8	24
179436	2026-07-12T13:31:45	42.2	22
179437	2026-07-12T13:41:45	42.4	22
179438	2026-07-12T13:51:45	43.3	22
179439	2026-07-12T14:01:45	43.1	22.5
179440	2026-07-12T14:11:45	44.7	21
179441	2026-07-12T14:21:45	44.2	20.5
179442	2026-07-12T14:31:45	45.7	19
179443	2026-07-12T14:41:45	46	20
179444	2026-07-12T14:51:45	47.5	19
179445	2026-07-12T15:01:45	46.3	19
179446	2026-07-12T15:11:45	46.5	19
179447	2026-07-12T15:21:45	45.8	20
179448	2026-07-12T15:31:45	46.7	20
179449	2026-07-12T15:41:45	46.9	19.5
179450	2026-07-12T15:51:45	47.5	19
179451	2026-07-12T16:01:45	46.8	19.5
179452	2026-07-12T16:11:45	45.5	19
179453	2026-07-12T16:21:45	45.2	20
179454	2026-07-12T16:31:45	46.8	19.5
179455	2026-07-12T16:41:45	46.1	19.5
179456	2026-07-12T16:51:45	46.2	20
179457	2026-07-12T17:01:45	45.5	19.5
179458	2026-07-12T17:11:45	44.9	19.5
179459	2026-07-12T17:21:45	44.8	19
179460	2026-07-12T17:31:45	45.1	20.5
179461	2026-07-12T17:41:45	44.9	21
179462	2026-07-12T17:51:45	44.2	21
179463	2026-07-12T18:01:45	44	21.5
179464	2026-07-12T18:11:45	43.5	21.5
179465	2026-07-12T18:21:45	41.9	22
179466	2026-07-12T18:31:45	40.9	23
179467	2026-07-12T18:41:45	39.9	27
179468	2026-07-12T18:51:45	37.9	27.5
179469	2026-07-12T19:01:45	36.8	28.5
179470	2026-07-12T19:11:45	35.8	29
179471	2026-07-12T19:21:45	34.5	31.5
179472	2026-07-12T19:31:45	33.6	32
179473	2026-07-12T19:41:45	32.7	33
179474	2026-07-12T19:51:45	32.2	34
179475	2026-07-12T20:01:45	31.5	35
179476	2026-07-12T20:11:45	31.1	35
179477	2026-07-12T20:21:45	30.7	36.5
179478	2026-07-12T20:31:45	30.3	37.5
179479	2026-07-12T20:41:45	29.9	38
179480	2026-07-12T20:51:45	29.6	38
179481	2026-07-12T21:01:44	29.2	39
179482	2026-07-12T21:11:44	28.9	40
179483	2026-07-12T21:21:45	28.5	41
179484	2026-07-12T21:31:45	28	42
179485	2026-07-12T21:41:44	27.7	43
179486	2026-07-12T21:51:44	27.4	44
179487	2026-07-12T22:01:44	27	44
179488	2026-07-12T22:11:44	26.8	45.5
179489	2026-07-12T22:21:44	26.6	45.5
179490	2026-07-12T22:31:44	26.4	46
179491	2026-07-12T22:41:44	26.2	46
179492	2026-07-12T22:51:44	25.8	46.5
179493	2026-07-12T23:01:44	25.4	47.5
179494	2026-07-12T23:11:44	24.6	48
179495	2026-07-12T23:21:44	24.3	49.5
179496	2026-07-12T23:31:44	24.2	49.5
179497	2026-07-12T23:41:44	24.1	50
179498	2026-07-12T23:51:44	23.8	51
179499	2026-07-13T00:01:44	23.5	51
179500	2026-07-13T00:11:44	23.3	51.5
179501	2026-07-13T00:21:44	23	52
179502	2026-07-13T00:31:44	23.1	52.5
179503	2026-07-13T00:41:44	22.9	52.5
179504	2026-07-13T00:51:44	22.9	54
179505	2026-07-13T01:01:44	22.6	53.5
179506	2026-07-13T01:11:44	22.5	53.5
179507	2026-07-13T01:21:44	22.2	53.5
179508	2026-07-13T01:31:44	21.8	54.5
179509	2026-07-13T01:41:44	21.6	55
179510	2026-07-13T01:51:44	21.5	55
179511	2026-07-13T02:01:44	21.2	55
179512	2026-07-13T02:11:44	21.2	54.5
179513	2026-07-13T02:21:44	21.1	55.5
179514	2026-07-13T02:31:44	21.1	55.5
179515	2026-07-13T02:41:44	20.8	56
179516	2026-07-13T02:51:44	20.8	56
179517	2026-07-13T03:01:44	20.7	57
179518	2026-07-13T03:11:44	20.6	57
179519	2026-07-13T03:21:44	20.5	57
179520	2026-07-13T03:31:44	20.5	57.5
179521	2026-07-13T03:41:44	20.3	58
179522	2026-07-13T03:51:44	20.1	58.5
179523	2026-07-13T04:01:44	20.1	59
179524	2026-07-13T04:11:44	20.1	59
179525	2026-07-13T04:21:44	19.9	59.5
179526	2026-07-13T04:31:44	19.8	60
179527	2026-07-13T04:41:44	19.8	61
179528	2026-07-13T04:51:44	19.7	61
179529	2026-07-13T05:01:44	19.9	60.5
179530	2026-07-13T05:11:44	20	60.5
179531	2026-07-13T05:21:44	20.3	60.5
179532	2026-07-13T05:31:44	20.6	60
179533	2026-07-13T05:41:44	21	59.5
179534	2026-07-13T05:51:44	21.2	60
179535	2026-07-13T06:01:44	21.4	59
179536	2026-07-13T06:11:44	21.9	57
179537	2026-07-13T06:21:44	22.1	57.5
179538	2026-07-13T06:31:44	22.4	58.5
179539	2026-07-13T06:41:43	22.5	59
179540	2026-07-13T06:51:43	22.7	57.5
179541	2026-07-13T07:01:43	23	57.5
179542	2026-07-13T07:11:43	23.5	57
179543	2026-07-13T07:21:43	23.8	55.5
179544	2026-07-13T07:31:43	24.2	55
179545	2026-07-13T07:41:43	24.6	54.5
179546	2026-07-13T07:51:43	25.1	53.5
179547	2026-07-13T08:01:43	25.5	53.5
179548	2026-07-13T08:11:43	25.7	52
179549	2026-07-13T08:21:43	25.9	52
179550	2026-07-13T08:31:43	26.4	50
179551	2026-07-13T08:41:43	26.5	49
179552	2026-07-13T08:51:43	26.7	48.5
179553	2026-07-13T09:01:43	27.1	47.5
179554	2026-07-13T09:11:43	27.4	46
179555	2026-07-13T09:21:43	27.6	45.5
179556	2026-07-13T09:31:43	27.8	45
179557	2026-07-13T09:41:43	28.1	44
179558	2026-07-13T09:51:43	28.4	43.5
179559	2026-07-13T10:01:43	28.8	43
179560	2026-07-13T10:11:43	28.9	43
179561	2026-07-13T10:21:43	29.2	43
179562	2026-07-13T10:31:43	29.8	40
179563	2026-07-13T10:41:43	30.1	41.5
179564	2026-07-13T10:51:43	30.7	40
179565	2026-07-13T11:01:43	31.1	39
179566	2026-07-13T11:11:43	31	39
179567	2026-07-13T11:21:43	31.4	38
179568	2026-07-13T11:41:43	31.5	37
179569	2026-07-13T11:51:43	32	38.5
179570	2026-07-13T12:01:43	33.1	34
179571	2026-07-13T12:11:43	33.9	34.5
179572	2026-07-13T12:21:43	35.5	32
179573	2026-07-13T12:31:43	37.1	29.5
179574	2026-07-13T12:41:43	37.9	28.5
179575	2026-07-13T12:51:43	38.2	28.5
179576	2026-07-13T13:01:43	37.1	29.5
179577	2026-07-13T13:11:43	36.4	30
179578	2026-07-13T13:21:43	36.2	30.5
179579	2026-07-13T13:31:43	36.4	30
179580	2026-07-13T13:41:43	37.2	30.5
179581	2026-07-13T13:51:43	37.7	29.5
179582	2026-07-13T14:01:43	38.8	28.5
179583	2026-07-13T14:11:43	38.8	28.5
179584	2026-07-13T14:21:43	38.9	28.5
179585	2026-07-13T14:31:43	41	27.5
179586	2026-07-13T14:41:43	42.5	25.5
179587	2026-07-13T14:51:43	41.9	24.5
179588	2026-07-13T15:01:43	43.4	23.5
179589	2026-07-13T15:11:43	42.2	25
179590	2026-07-13T15:21:43	41	26.5
179591	2026-07-13T15:31:43	40.3	26
179592	2026-07-13T15:41:43	39.6	28.5
179593	2026-07-13T15:51:43	38.1	29
179594	2026-07-13T16:01:43	37.9	29.5
179595	2026-07-13T16:11:43	39.6	28
179596	2026-07-13T16:21:43	42.4	25.5
179597	2026-07-13T16:31:43	44.5	24
179598	2026-07-13T16:41:43	43.7	24.5
179599	2026-07-13T16:51:43	44.1	24
179600	2026-07-13T17:01:43	41.8	25
179601	2026-07-13T17:11:43	43.3	24.5
179602	2026-07-13T17:21:42	43.9	24
179603	2026-07-13T17:31:42	43.9	23.5
179604	2026-07-13T17:41:42	42.9	24.5
179605	2026-07-13T17:51:42	42.5	26
179606	2026-07-13T18:01:42	41.6	27
179607	2026-07-13T18:11:42	40.5	27.5
179608	2026-07-13T18:21:42	40.3	27.5
179609	2026-07-13T18:31:42	39.8	28.5
179610	2026-07-13T18:41:42	39.3	29.5
179611	2026-07-13T18:51:42	38.3	30.5
179612	2026-07-13T19:01:42	37.2	32
179613	2026-07-13T19:11:42	35.6	33.5
179614	2026-07-13T19:21:42	34.6	35
179615	2026-07-13T19:31:42	34	36.5
179616	2026-07-13T19:41:42	33.3	37.5
179617	2026-07-13T19:51:42	32.4	38.5
179618	2026-07-13T20:01:42	32	40
179619	2026-07-13T20:11:42	31.6	40.5
179620	2026-07-13T20:21:42	30.8	41.5
179621	2026-07-13T20:31:42	30.4	42
179622	2026-07-13T20:41:42	30.1	41.5
179623	2026-07-13T20:51:42	29.7	42.5
179624	2026-07-13T21:01:42	29.1	42.5
179625	2026-07-13T21:11:42	28.9	43.5
179626	2026-07-13T21:21:42	28.6	43.5
179627	2026-07-13T21:31:42	28.2	45
179628	2026-07-13T21:41:42	27.9	46
179629	2026-07-13T21:51:42	27.7	45.5
179630	2026-07-13T22:01:42	27.3	46.5
179631	2026-07-13T22:11:42	26.9	48.5
179632	2026-07-13T22:21:42	26.9	48
179633	2026-07-13T22:31:42	26.7	48
179634	2026-07-13T22:41:42	26.6	48.5
179635	2026-07-13T22:51:42	26.3	48.5
179636	2026-07-13T23:01:42	26.1	49.5
179637	2026-07-13T23:11:42	26	49.5
179638	2026-07-13T23:21:42	25.7	50.5
179639	2026-07-13T23:31:42	25.6	51
179640	2026-07-13T23:41:42	25.3	51
179641	2026-07-13T23:51:42	25.2	51
179642	2026-07-14T00:01:42	25.1	51
179643	2026-07-14T00:11:42	25.3	51.5
179644	2026-07-14T00:21:42	25.2	51.5
179645	2026-07-14T00:31:42	25.3	50
179646	2026-07-14T00:41:42	25.2	50.5
179647	2026-07-14T00:51:42	25	51
179648	2026-07-14T01:01:42	25	51
179649	2026-07-14T01:11:42	24.9	51
179650	2026-07-14T01:21:42	24.8	52
179651	2026-07-14T01:31:42	24.8	52.5
179652	2026-07-14T01:41:42	24.8	51
179653	2026-07-14T01:51:42	24.7	53
179654	2026-07-14T02:01:42	24.6	53.5
179655	2026-07-14T02:11:42	24.6	56
179656	2026-07-14T02:21:42	24.2	56
179657	2026-07-14T02:31:42	24	57
179658	2026-07-14T02:41:42	24	57.5
179659	2026-07-14T02:51:42	23.9	57.5
179660	2026-07-14T03:01:42	23.9	57.5
179661	2026-07-14T03:11:41	23.7	59
179662	2026-07-14T03:21:41	23.6	60.5
179663	2026-07-14T03:31:41	23.5	60.5
179664	2026-07-14T03:41:41	23.1	59.5
179665	2026-07-14T03:51:41	23	60.5
179666	2026-07-14T04:01:41	23.1	61
179667	2026-07-14T04:11:41	23.1	61
179668	2026-07-14T04:21:41	23.1	61
179669	2026-07-14T04:31:41	23	59.5
179670	2026-07-14T04:41:41	23.3	58
179671	2026-07-14T04:51:41	23.4	59
179672	2026-07-14T05:01:41	23.3	59.5
179673	2026-07-14T05:11:41	22.6	78.5
179674	2026-07-14T05:21:41	21	76.5
179675	2026-07-14T05:31:41	21	74
179676	2026-07-14T05:41:41	21.6	73.5
179677	2026-07-14T05:51:41	21.6	72.5
179678	2026-07-14T06:01:41	21.7	72.5
179679	2026-07-14T06:11:41	22.1	72
179680	2026-07-14T06:21:41	22.2	73
179681	2026-07-14T06:31:41	22.5	73
179682	2026-07-14T06:41:41	22.9	73.5
179683	2026-07-14T06:51:41	22.9	70.5
179684	2026-07-14T07:01:41	22.8	70.5
179685	2026-07-14T07:11:41	22.8	72.5
179686	2026-07-14T07:21:41	23	73.5
179687	2026-07-14T07:31:41	23.2	70
179688	2026-07-14T07:41:41	23.4	69.5
179689	2026-07-14T07:51:41	23.8	68.5
179690	2026-07-14T08:01:41	24.1	65
179691	2026-07-14T08:11:41	24.3	65.5
179692	2026-07-14T08:21:41	24.5	65.5
179693	2026-07-14T08:31:41	24.8	64
179694	2026-07-14T08:41:41	25	63
179695	2026-07-14T08:51:41	25.3	61.5
179696	2026-07-14T09:01:41	25.5	60.5
179697	2026-07-14T09:11:41	25.8	58.5
179698	2026-07-14T09:21:41	26.1	57.5
179699	2026-07-14T09:31:41	26.3	56.5
179700	2026-07-14T09:41:41	26.7	56
179701	2026-07-14T09:51:41	26.7	55
179702	2026-07-14T10:01:41	27.1	54.5
179703	2026-07-14T10:11:41	27.6	53
179704	2026-07-14T10:21:41	27.9	53.5
179705	2026-07-14T10:31:41	28	53.5
179706	2026-07-14T10:41:41	28.3	53
179707	2026-07-14T10:51:41	29	52.5
179708	2026-07-14T11:01:41	29.4	51
179709	2026-07-14T11:11:41	30.1	49.5
179710	2026-07-14T11:21:41	31.1	47.5
179711	2026-07-14T11:31:41	31.1	47.5
179712	2026-07-14T11:41:41	31.6	45.5
179713	2026-07-14T11:51:41	31.2	45.5
179714	2026-07-14T12:01:41	31.3	46
179715	2026-07-14T12:11:41	31.9	44.5
179716	2026-07-14T12:21:41	32.6	44
179717	2026-07-14T12:31:41	33.7	42
179718	2026-07-14T12:41:41	35.7	38.5
179719	2026-07-14T12:51:41	37.4	36
179720	2026-07-14T13:01:41	38.5	35
179721	2026-07-14T13:11:40	38.9	34
179722	2026-07-14T13:21:40	40.5	31.5
179723	2026-07-14T13:31:40	42.5	30
179724	2026-07-14T13:41:40	43.2	29.5
179725	2026-07-14T13:51:40	44.9	27
179726	2026-07-14T14:01:40	44	26.5
179727	2026-07-14T14:11:40	45.4	25.5
179728	2026-07-14T14:21:40	46.7	25
179729	2026-07-14T14:31:40	44.9	24.5
179730	2026-07-14T14:41:40	45.2	25
179731	2026-07-14T14:51:40	46.3	24
179732	2026-07-14T15:01:40	45.1	24.5
179733	2026-07-14T15:11:40	45.2	24.5
179734	2026-07-14T15:21:40	47.9	23
179735	2026-07-14T15:31:40	47.8	21.5
179736	2026-07-14T15:41:40	46.4	23
179737	2026-07-14T15:51:40	43.6	24.5
179738	2026-07-14T16:01:40	41.5	28.5
179739	2026-07-14T16:11:40	41.1	30
179740	2026-07-14T16:21:40	43.6	28.5
179741	2026-07-14T16:31:40	43.7	29
179742	2026-07-14T16:41:40	45.7	27
179743	2026-07-14T16:51:40	44	28
179744	2026-07-14T17:01:40	44.7	27
179745	2026-07-14T17:11:40	43.5	28
179746	2026-07-14T17:21:40	44	28
179747	2026-07-14T17:31:40	44.4	27
179748	2026-07-14T17:41:40	43.6	27.5
179749	2026-07-14T17:51:40	43.5	27.5
179750	2026-07-14T18:01:40	43.2	27.5
179751	2026-07-14T18:11:40	40.3	30.5
179752	2026-07-14T18:21:40	38.1	33
179753	2026-07-14T18:31:40	36.8	35
179754	2026-07-14T18:41:40	35.9	36.5
179755	2026-07-14T18:51:40	34.8	37
179756	2026-07-14T18:56:47	34.5	37.5
179757	2026-07-14T19:06:47	34.3	37.5
179758	2026-07-14T19:16:47	33.8	38
179759	2026-07-14T19:26:47	33.1	38.5
179760	2026-07-14T19:36:47	33	38
179761	2026-07-14T19:46:47	32.2	39.5
179762	2026-07-14T19:56:47	32	40.5
179763	2026-07-14T20:06:47	31.9	41
179764	2026-07-14T20:16:47	31.4	42.5
179765	2026-07-14T20:26:47	31.1	43.5
179766	2026-07-14T20:36:47	30.8	46
179767	2026-07-14T20:46:47	30.4	48.5
179768	2026-07-14T20:56:47	30	50
179769	2026-07-14T21:06:47	29.6	51
179770	2026-07-14T21:16:47	29.1	52
179771	2026-07-14T21:26:47	28.8	54
179772	2026-07-14T21:36:47	28.4	55.5
179773	2026-07-14T21:46:47	28.4	56
179774	2026-07-14T21:56:47	27.8	57.5
179775	2026-07-14T22:06:47	27.4	58
179776	2026-07-14T22:16:47	27.2	59
179777	2026-07-14T22:26:47	27.4	59
179778	2026-07-14T22:36:47	27.1	59
179779	2026-07-14T22:46:47	26.7	60
179780	2026-07-14T22:56:47	26.6	60.5
179781	2026-07-14T23:06:47	26.5	61
179782	2026-07-14T23:16:47	26.2	66.5
179783	2026-07-14T23:26:47	25.8	78
179784	2026-07-14T23:36:47	25.6	72
179785	2026-07-14T23:46:47	25.4	72.5
179786	2026-07-14T23:56:47	25.1	76
179787	2026-07-15T00:06:47	25.2	77
179788	2026-07-15T00:16:47	23.7	94.5
179789	2026-07-15T00:26:47	22.8	90
179790	2026-07-15T00:36:47	23.1	88
179791	2026-07-15T00:46:46	23.1	83.5
179792	2026-07-15T00:56:46	22.8	85
179793	2026-07-15T01:06:46	22.8	84.5
179794	2026-07-15T01:16:46	22.7	82.5
179795	2026-07-15T01:26:46	22.5	84.5
179796	2026-07-15T01:36:46	22.9	84
179797	2026-07-15T01:46:46	22.5	85.5
179798	2026-07-15T01:56:46	22.4	87
179799	2026-07-15T02:06:46	22.6	87
179800	2026-07-15T02:16:46	22.4	85.5
179801	2026-07-15T02:26:46	22.5	85.5
179802	2026-07-15T02:36:46	22.3	86
179803	2026-07-15T02:46:46	22.1	86
179804	2026-07-15T02:56:46	22	86
179805	2026-07-15T03:06:46	21.9	85.5
179806	2026-07-15T03:16:46	22	86
179807	2026-07-15T03:26:46	21.6	86.5
179808	2026-07-15T03:36:46	21.6	86.5
179809	2026-07-15T03:46:46	21.7	87
179810	2026-07-15T03:56:46	21.3	88
179811	2026-07-15T04:06:46	21.5	88
179812	2026-07-15T04:16:46	21.3	87.5
179813	2026-07-15T04:26:46	21.2	88
179814	2026-07-15T04:36:46	21.2	87.5
179815	2026-07-15T04:46:46	21.1	87
179816	2026-07-15T04:56:46	21	86.5
179817	2026-07-15T05:06:46	21.3	86.5
179818	2026-07-15T05:16:46	21.5	85.5
179819	2026-07-15T05:26:46	21.7	85
179820	2026-07-15T05:36:46	21.7	84
179821	2026-07-15T05:46:46	21.7	84.5
179822	2026-07-15T05:56:46	21.6	85
179823	2026-07-15T06:06:46	21.6	85
179824	2026-07-15T06:16:46	21.7	84.5
179825	2026-07-15T06:26:46	22	84.5
179826	2026-07-15T06:36:46	22.2	83.5
179827	2026-07-15T06:46:46	22.5	83.5
179828	2026-07-15T06:56:46	22.9	82.5
179829	2026-07-15T07:06:46	23.3	81
179830	2026-07-15T07:16:46	23.5	79.5
179831	2026-07-15T07:26:46	24	78.5
179832	2026-07-15T07:36:46	24.1	77.5
179833	2026-07-15T07:46:46	24.1	77.5
179834	2026-07-15T07:56:46	24.6	77
179835	2026-07-15T08:06:46	24.9	75.5
179836	2026-07-15T08:16:46	25.3	73.5
179837	2026-07-15T08:26:46	25.5	72.5
179838	2026-07-15T08:36:46	25.6	72
179839	2026-07-15T08:46:46	25.9	71
179840	2026-07-15T08:56:46	26.2	71
179841	2026-07-15T09:06:46	26.4	70.5
179842	2026-07-15T09:16:46	26.4	70
179843	2026-07-15T09:26:46	26.7	69
179844	2026-07-15T09:36:46	27	68.5
179845	2026-07-15T09:46:46	27.2	66.5
179846	2026-07-15T09:56:46	27.5	66
179847	2026-07-15T10:06:46	27.9	65.5
179848	2026-07-15T10:16:46	28.2	64.5
179849	2026-07-15T10:26:46	28.4	63
179850	2026-07-15T10:36:46	28.9	63.5
179851	2026-07-15T10:46:45	29.2	62.5
179852	2026-07-15T10:56:45	29.6	60
179853	2026-07-15T11:06:45	29.9	59
179854	2026-07-15T11:16:45	30.4	56
179855	2026-07-15T11:26:45	30.8	54
179856	2026-07-15T11:36:45	31.2	54.5
179857	2026-07-15T11:46:45	31.4	54
179858	2026-07-15T11:56:45	31.4	52
179859	2026-07-15T12:06:45	31.6	53
179860	2026-07-15T12:16:45	32.4	50.5
179861	2026-07-15T12:26:45	33.5	47.5
179862	2026-07-15T12:36:45	35.2	45.5
179863	2026-07-15T12:46:45	36.3	43.5
179864	2026-07-15T12:56:45	36	43
179865	2026-07-15T13:06:45	37.3	41.5
179866	2026-07-15T13:16:45	37.7	39.5
179867	2026-07-15T13:26:45	37.2	40
179868	2026-07-15T13:36:45	38.6	39
179869	2026-07-15T13:46:45	38.2	38
179870	2026-07-15T13:56:45	38	37.5
179871	2026-07-15T14:06:45	37.4	39
179872	2026-07-15T14:16:45	36.4	39
179873	2026-07-15T14:26:45	35.8	40
179874	2026-07-15T14:36:45	35.6	39
179875	2026-07-15T14:46:45	35.2	41
179876	2026-07-15T14:56:45	34.4	40.5
179877	2026-07-15T15:06:45	33.7	42.5
179878	2026-07-15T15:16:45	33.6	42
179879	2026-07-15T15:26:45	34.2	41
179880	2026-07-15T15:36:45	34.8	41
179881	2026-07-15T15:46:45	34.6	41.5
179882	2026-07-15T15:56:45	36.5	38.5
179883	2026-07-15T16:06:45	38.2	35.5
179884	2026-07-15T16:16:45	37.9	36
179885	2026-07-15T16:26:45	37.8	35.5
179886	2026-07-15T16:36:45	36.9	36.5
179887	2026-07-15T16:46:45	39.2	35
179888	2026-07-15T16:56:45	37.7	36.5
179889	2026-07-15T17:06:45	39.2	34.5
179890	2026-07-15T17:16:45	37.9	36
179891	2026-07-15T17:26:45	36.6	37.5
179892	2026-07-15T17:36:45	38.7	34.5
179893	2026-07-15T17:46:45	38.9	34
179894	2026-07-15T17:56:45	39.3	33.5
179895	2026-07-15T18:06:45	38.5	33.5
179896	2026-07-15T18:16:45	38	33.5
179897	2026-07-15T18:26:45	37.6	36
179898	2026-07-15T18:36:45	36.6	39
179899	2026-07-15T18:46:45	35.4	40
179900	2026-07-15T18:56:45	34.5	41.5
179901	2026-07-15T19:06:45	33.4	43.5
179902	2026-07-15T19:16:45	31.9	46
179903	2026-07-15T19:26:45	30.9	48.5
179904	2026-07-15T19:36:45	30.6	49
179905	2026-07-15T19:46:45	29.9	51
179906	2026-07-15T19:56:45	29.2	53.5
179907	2026-07-15T20:06:45	29	54.5
179908	2026-07-15T20:16:45	28.6	55
179909	2026-07-15T20:26:45	28.2	56
179910	2026-07-15T20:36:45	27.7	57.5
179911	2026-07-15T20:46:45	27.6	57.5
179912	2026-07-15T20:56:44	27.2	59
179913	2026-07-15T21:06:44	26.9	60
179914	2026-07-15T21:16:44	26.7	60.5
179915	2026-07-15T21:26:44	26.5	61.5
179916	2026-07-15T21:36:44	26.2	63
179917	2026-07-15T21:46:44	26	64
179918	2026-07-15T21:56:44	25.6	64.5
179919	2026-07-15T22:06:44	25.3	65
179920	2026-07-15T22:16:44	25.1	66
179921	2026-07-15T22:26:44	24.8	67
179922	2026-07-15T22:36:44	24.7	67
179923	2026-07-15T22:46:44	24.1	68.5
179924	2026-07-15T22:56:44	24.1	68.5
179925	2026-07-15T23:06:44	23.8	70
179926	2026-07-15T23:16:44	23.6	71
179927	2026-07-15T23:26:44	23.3	71.5
179928	2026-07-15T23:36:44	23	72
179929	2026-07-15T23:46:44	22.8	72
179930	2026-07-15T23:56:44	22.6	72.5
179931	2026-07-16T00:06:44	22.4	73.5
179932	2026-07-16T00:16:44	22.4	74.5
179933	2026-07-16T00:26:44	22.3	74
179934	2026-07-16T00:36:44	22.2	74
179935	2026-07-16T00:46:44	22.1	75
179936	2026-07-16T00:56:44	21.8	75.5
179937	2026-07-16T01:06:44	21.6	76
179938	2026-07-16T01:16:44	21.5	76.5
179939	2026-07-16T01:26:44	21.3	77
179940	2026-07-16T01:36:44	20.9	78.5
179941	2026-07-16T01:46:44	20.9	78.5
179942	2026-07-16T01:56:44	20.9	78
179943	2026-07-16T02:06:44	20.9	78.5
179944	2026-07-16T02:16:44	20.6	79
179945	2026-07-16T02:26:44	20.6	79.5
179946	2026-07-16T02:36:44	20.4	80
179947	2026-07-16T02:46:44	20.4	80.5
179948	2026-07-16T02:56:44	20.2	81
179949	2026-07-16T03:06:44	20.2	81.5
179950	2026-07-16T03:16:44	20.1	82
179951	2026-07-16T03:26:44	19.7	83.5
179952	2026-07-16T03:36:44	19.7	83
179953	2026-07-16T03:46:44	19.7	83.5
179954	2026-07-16T03:56:44	19.7	83.5
179955	2026-07-16T04:06:44	19.7	83
179956	2026-07-16T04:16:44	19.8	83.5
179957	2026-07-16T04:26:44	19.7	83.5
179958	2026-07-16T04:36:44	19.8	83.5
179959	2026-07-16T04:46:44	19.8	84
179960	2026-07-16T04:56:44	19.9	84
179961	2026-07-16T05:06:44	20.1	84
179962	2026-07-16T05:16:44	20.2	85
179963	2026-07-16T05:26:44	20.4	85
179964	2026-07-16T05:36:44	20.5	84.5
179965	2026-07-16T05:46:44	20.7	85
179966	2026-07-16T05:56:44	20.9	85.5
179967	2026-07-16T06:06:44	21	85
179968	2026-07-16T06:16:44	21.1	85
179969	2026-07-16T06:26:44	21.3	84.5
179970	2026-07-16T06:36:44	21.4	84
179971	2026-07-16T06:46:43	21.7	82.5
179972	2026-07-16T06:56:43	21.9	82
179973	2026-07-16T07:06:43	22.2	81
179974	2026-07-16T07:16:43	22.4	80.5
179975	2026-07-16T07:26:43	22.6	80.5
179976	2026-07-16T07:36:43	22.9	78.5
179977	2026-07-16T07:46:43	23	78
179978	2026-07-16T07:56:43	23.2	76.5
179979	2026-07-16T08:06:43	23.5	76
179980	2026-07-16T08:16:43	23.8	75
179981	2026-07-16T08:26:43	24.1	74.5
179982	2026-07-16T08:36:43	24.2	73
179983	2026-07-16T08:46:43	24.6	73
179984	2026-07-16T08:56:43	24.7	70.5
179985	2026-07-16T09:06:43	24.9	71.5
179986	2026-07-16T09:16:43	25.2	69.5
179987	2026-07-16T09:26:43	25.5	68.5
179988	2026-07-16T09:36:43	25.9	68
179989	2026-07-16T09:46:43	26.2	66
179990	2026-07-16T09:56:43	26.5	64
179991	2026-07-16T10:06:43	26.8	63.5
179992	2026-07-16T10:16:43	27.1	63.5
179993	2026-07-16T10:26:43	27.5	61
179994	2026-07-16T10:36:43	28	60
179995	2026-07-16T10:46:43	28.6	57
179996	2026-07-16T10:56:43	28.9	56.5
179997	2026-07-16T11:06:43	29	54.5
179998	2026-07-16T11:16:43	29.8	53.5
179999	2026-07-16T11:26:43	30.2	51.5
180000	2026-07-16T11:36:43	31.1	49
180001	2026-07-16T11:46:43	31.4	47.5
180002	2026-07-16T11:56:43	31.6	47.5
180003	2026-07-16T12:06:43	32.1	47
180004	2026-07-16T12:16:43	33.6	44.5
180005	2026-07-16T12:26:43	34.3	41.5
180006	2026-07-16T12:36:43	36.6	39
180007	2026-07-16T12:46:43	37	37.5
180008	2026-07-16T12:56:43	35.4	39.5
180009	2026-07-16T13:06:43	37	39.5
180010	2026-07-16T13:26:43	37.1	38
180011	2026-07-16T13:36:43	36.2	39
180012	2026-07-16T13:46:43	39.4	36
180013	2026-07-16T13:56:43	39.2	36
180014	2026-07-16T14:06:43	41.4	33.5
180015	2026-07-16T14:16:43	40.8	34
180016	2026-07-16T14:26:43	41.8	33
180017	2026-07-16T14:36:43	43.3	31
180018	2026-07-16T14:46:43	43.6	30.5
180019	2026-07-16T14:56:43	43.5	31
180020	2026-07-16T15:06:43	45.2	29
180021	2026-07-16T15:16:43	46.3	28
180022	2026-07-16T15:26:43	45.5	28
180023	2026-07-16T15:36:43	44.8	28
180024	2026-07-16T15:46:43	44.3	28.5
180025	2026-07-16T15:56:43	42.8	30.5
180026	2026-07-16T16:06:43	41.7	32
180027	2026-07-16T16:16:43	41.9	32
180028	2026-07-16T16:26:43	39.5	34.5
180029	2026-07-16T16:36:43	38.2	37
180030	2026-07-16T16:46:43	37.3	38
180031	2026-07-16T16:56:43	36.8	39.5
180032	2026-07-16T17:06:43	32.3	44.5
180033	2026-07-16T17:16:43	30.8	50
180034	2026-07-16T17:26:43	30.8	48.5
180035	2026-07-16T17:36:42	30.8	53
180036	2026-07-16T17:46:43	31.1	62.5
180037	2026-07-16T17:56:42	30.1	63
180038	2026-07-16T18:06:42	29.5	62.5
180039	2026-07-16T18:16:42	28.6	64
180040	2026-07-16T18:26:42	28.2	65
180041	2026-07-16T18:36:42	27.9	67.5
180042	2026-07-16T18:46:42	26.6	68
180043	2026-07-16T18:56:42	26	70
180044	2026-07-16T19:06:42	25.5	71.5
180045	2026-07-16T19:16:42	24.9	73.5
180046	2026-07-16T19:26:42	24.2	84
180047	2026-07-16T19:36:42	21.1	100
180048	2026-07-16T19:46:42	20.9	100
180049	2026-07-16T19:56:42	22	100
180050	2026-07-16T20:06:42	21.7	100
180051	2026-07-16T20:16:42	21	100
180052	2026-07-16T20:26:42	20.5	100
180053	2026-07-16T20:36:42	20.3	100
180054	2026-07-16T20:46:42	20.2	100
180055	2026-07-16T20:56:42	19.9	100
180056	2026-07-16T21:06:42	19.6	100
180057	2026-07-16T21:16:42	19.5	100
180058	2026-07-16T21:26:42	19.7	100
180059	2026-07-16T21:36:42	19.6	100
180060	2026-07-16T21:46:42	19.4	100
180061	2026-07-16T21:56:42	19.4	100
180062	2026-07-16T22:06:42	19.4	100
180063	2026-07-16T22:16:42	19.3	100
180064	2026-07-16T22:26:42	19.2	100
180065	2026-07-16T22:36:42	19.1	100
180066	2026-07-16T22:46:42	19.3	100
180067	2026-07-16T22:56:42	19.1	100
180068	2026-07-16T23:06:42	19.3	100
180069	2026-07-16T23:16:42	19.4	100
180070	2026-07-16T23:26:42	19.6	100
180071	2026-07-16T23:36:42	19.4	100
180072	2026-07-16T23:46:42	19.4	100
180073	2026-07-16T23:56:42	19.4	100
180074	2026-07-17T00:06:42	19.4	100
180075	2026-07-17T00:16:42	19.3	100
180076	2026-07-17T00:26:42	19.2	100
180077	2026-07-17T00:36:42	19.2	100
180078	2026-07-17T00:46:42	19.2	100
180079	2026-07-17T00:56:42	19.1	100
180080	2026-07-17T01:06:42	19	100
180081	2026-07-17T01:16:42	19	100
180082	2026-07-17T01:26:42	19.1	100
180083	2026-07-17T01:36:42	19	100
180084	2026-07-17T01:46:42	18.9	100
180085	2026-07-17T01:56:42	18.9	100
180086	2026-07-17T02:06:42	18.8	100
180087	2026-07-17T02:16:42	18.8	100
180088	2026-07-17T02:26:42	18.7	100
180089	2026-07-17T02:36:42	18.7	100
180090	2026-07-17T02:46:42	18.6	100
180091	2026-07-17T02:56:42	18.6	100
180092	2026-07-17T03:06:42	18.6	100
180093	2026-07-17T03:16:42	18.5	100
180094	2026-07-17T03:26:42	18.4	100
180095	2026-07-17T03:36:42	18.6	100
180096	2026-07-17T03:46:42	18.5	100
180097	2026-07-17T03:56:42	18.6	100
180098	2026-07-17T04:06:41	18.6	100
180099	2026-07-17T04:16:41	18.6	100
180100	2026-07-17T04:26:41	18.6	100
180101	2026-07-17T04:36:41	18.6	100
180102	2026-07-17T04:46:41	18.7	100
180103	2026-07-17T04:56:41	18.9	100
180104	2026-07-17T05:06:41	19	100
180105	2026-07-17T05:16:41	19.1	100
180106	2026-07-17T05:26:41	19.3	100
180107	2026-07-17T05:36:41	19.4	100
180108	2026-07-17T05:46:41	19.6	100
180109	2026-07-17T05:56:41	20	100
180110	2026-07-17T06:06:41	20.1	100
180111	2026-07-17T06:16:41	20.4	100
180112	2026-07-17T06:26:41	20.5	100
180113	2026-07-17T06:36:41	20.7	100
180114	2026-07-17T06:46:41	20.9	100
180115	2026-07-17T06:56:41	21.2	100
180116	2026-07-17T07:06:41	21.5	100
180117	2026-07-17T07:16:41	21.8	100
180118	2026-07-17T07:26:41	22.1	100
180119	2026-07-17T07:36:41	22.2	100
180120	2026-07-17T07:46:41	22.2	100
180121	2026-07-17T07:56:41	22.3	100
180122	2026-07-17T08:06:41	22.4	100
180123	2026-07-17T08:16:41	22.4	100
180124	2026-07-17T08:26:41	22.6	100
180125	2026-07-17T08:36:41	22.7	100
180126	2026-07-17T08:46:41	23.3	100
180127	2026-07-17T08:56:41	23.5	100
180128	2026-07-17T09:06:41	24.1	100
180129	2026-07-17T09:16:41	24.7	100
180130	2026-07-17T09:26:41	24.7	100
180131	2026-07-17T09:36:41	24.7	100
180132	2026-07-17T09:46:41	25.6	100
180133	2026-07-17T09:56:41	26.3	84
180134	2026-07-17T10:06:41	26.2	68.5
180135	2026-07-17T10:16:41	26.3	66.5
180136	2026-07-17T10:26:41	26.1	67
180137	2026-07-17T10:36:41	26	66
180138	2026-07-17T10:46:41	26.2	66
180139	2026-07-17T10:56:41	26.4	67
180140	2026-07-17T11:06:41	26.5	66.5
180141	2026-07-17T11:16:41	26.6	64
180142	2026-07-17T11:26:41	26.7	64.5
180143	2026-07-17T11:36:41	27	63
180144	2026-07-17T11:46:41	27.1	62.5
180145	2026-07-17T11:56:41	27.8	60
180146	2026-07-17T12:06:41	28.3	60
180147	2026-07-17T12:16:41	29.1	56
180148	2026-07-17T12:26:41	31.7	52
180149	2026-07-17T12:36:41	33.2	46.5
180150	2026-07-17T12:46:41	33.9	43
180151	2026-07-17T12:56:41	35.3	41
180152	2026-07-17T13:06:41	35.9	41.5
180153	2026-07-17T13:16:41	33.5	43.5
180154	2026-07-17T13:26:41	31.4	47
180155	2026-07-17T13:36:41	27.4	65
180156	2026-07-17T13:46:41	22.5	100
180157	2026-07-17T13:56:41	22.4	100
180158	2026-07-17T14:06:40	20.6	100
180159	2026-07-17T14:16:40	20.6	100
180160	2026-07-17T14:26:40	20.4	99.5
180161	2026-07-17T14:36:40	20.7	98.5
180162	2026-07-17T14:46:40	20.7	97
180163	2026-07-17T14:56:40	20.4	96.5
180164	2026-07-17T15:06:40	20.2	96.5
180165	2026-07-17T15:16:40	20.1	96.5
180166	2026-07-17T15:26:40	20.2	96.5
180167	2026-07-17T15:36:40	20.6	96.5
180168	2026-07-17T15:46:40	20.8	96.5
180169	2026-07-17T15:56:40	20.1	96.5
180170	2026-07-17T16:06:40	20.1	96.5
180171	2026-07-17T16:16:40	19.4	97
180172	2026-07-17T16:26:40	20.2	97
180173	2026-07-17T16:36:40	20.6	96.5
180174	2026-07-17T16:46:40	20.9	97
180175	2026-07-17T16:56:40	21.2	97
180176	2026-07-17T17:06:40	21.2	97
180177	2026-07-17T17:16:40	20.8	97
180178	2026-07-17T17:26:40	20.7	97
180179	2026-07-17T17:36:40	20.4	97
180180	2026-07-17T17:46:40	19.8	97
180181	2026-07-17T17:56:40	19.5	97
180182	2026-07-17T18:06:40	19.5	97
180183	2026-07-17T18:16:40	19.4	97
180184	2026-07-17T18:26:40	19.2	97
180185	2026-07-17T18:36:40	19.4	97
180186	2026-07-17T18:46:40	19.2	97
180187	2026-07-17T18:56:40	19.3	97
180188	2026-07-17T19:06:40	19	97.5
180189	2026-07-17T19:16:40	18.8	97
180190	2026-07-17T19:26:40	18.8	97
180191	2026-07-17T19:36:40	17.9	97.5
180192	2026-07-17T19:46:40	18.4	97.5
180193	2026-07-17T19:56:40	18.2	97.5
180194	2026-07-17T20:06:40	17.9	97.5
180195	2026-07-17T20:16:40	18	97.5
180196	2026-07-17T20:26:40	18	97.5
180197	2026-07-17T20:36:40	18	97.5
180198	2026-07-17T20:46:40	17.9	97.5
180199	2026-07-17T20:56:40	18	97.5
180200	2026-07-17T21:06:40	18.1	97.5
180201	2026-07-17T21:16:40	18	97.5
180202	2026-07-17T21:26:40	18	97.5
180203	2026-07-17T21:36:40	18.1	97.5
180204	2026-07-17T21:46:40	18	97.5
180205	2026-07-17T21:56:40	18	97.5
180206	2026-07-17T22:06:40	17.9	97.5
180207	2026-07-17T22:16:40	17.9	97.5
180208	2026-07-17T22:26:40	17.9	97.5
180209	2026-07-17T22:36:40	17.7	97.5
180210	2026-07-17T22:46:40	17.8	97.5
180211	2026-07-17T22:56:40	17.7	97.5
180212	2026-07-17T23:06:40	17.6	97.5
180213	2026-07-17T23:16:40	17.5	97.5
180214	2026-07-17T23:26:40	17.4	97.5
180215	2026-07-17T23:46:40	17.2	97.5
180216	2026-07-18T00:06:40	16.9	97.5
180217	2026-07-18T00:16:40	16.8	97.5
180218	2026-07-18T00:26:40	16.7	97.5
180219	2026-07-18T00:36:40	16.8	97.5
180220	2026-07-18T00:46:39	16.8	97.5
180221	2026-07-18T00:56:39	16.6	97.5
180222	2026-07-18T01:06:39	16.5	97.5
180223	2026-07-18T01:16:39	16.5	97.5
180224	2026-07-18T01:26:39	16.4	97.5
180225	2026-07-18T01:36:39	16.3	97.5
180226	2026-07-18T01:46:39	16.2	97.5
180227	2026-07-18T01:56:39	16.3	97.5
180228	2026-07-18T02:06:39	16.4	97.5
180229	2026-07-18T02:16:39	16.2	97.5
180230	2026-07-18T02:26:39	16.1	97.5
180231	2026-07-18T02:36:39	16	97.5
180232	2026-07-18T02:46:39	16	97.5
180233	2026-07-18T02:56:39	16	97.5
180234	2026-07-18T03:06:39	15.8	97.5
180235	2026-07-18T03:16:39	15.9	97.5
180236	2026-07-18T03:26:39	15.7	97.5
180237	2026-07-18T03:36:39	15.7	97.5
180238	2026-07-18T03:46:39	15.7	97.5
180239	2026-07-18T03:56:39	15.9	97.5
180240	2026-07-18T04:06:39	15.9	97.5
180241	2026-07-18T04:16:39	16	97.5
180242	2026-07-18T04:26:39	16.1	98
180243	2026-07-18T04:36:39	16.3	98
180244	2026-07-18T04:46:39	16.4	98
180245	2026-07-18T04:56:39	16.4	97.5
180246	2026-07-18T05:06:39	16.5	98
180247	2026-07-18T05:16:39	16.6	98
180248	2026-07-18T05:26:39	16.7	98
180249	2026-07-18T05:36:39	16.8	98
180250	2026-07-18T05:46:39	16.9	98
180251	2026-07-18T05:56:39	17.2	98
180252	2026-07-18T06:06:39	17.6	98
180253	2026-07-18T06:16:39	17.8	98
180254	2026-07-18T06:26:39	18	98
180255	2026-07-18T06:36:39	18.3	98
180256	2026-07-18T06:46:39	18.7	98
180257	2026-07-18T06:56:39	19	98
180258	2026-07-18T07:06:39	19.1	98
180259	2026-07-18T07:16:39	19.2	98
180260	2026-07-18T07:26:39	19.6	98
180261	2026-07-18T07:36:39	20	98
180262	2026-07-18T07:46:39	20.2	98
180263	2026-07-18T07:56:39	20.1	98
180264	2026-07-18T08:06:39	20.2	98
180265	2026-07-18T08:16:39	20.1	98
180266	2026-07-18T08:26:39	20.2	98
180267	2026-07-18T08:36:39	20.6	98
180268	2026-07-18T08:46:39	20.7	98
180269	2026-07-18T08:56:39	21	98
180270	2026-07-18T09:06:39	21.1	98
180271	2026-07-18T09:16:39	21.2	98
180272	2026-07-18T09:26:39	21.5	98
180273	2026-07-18T09:36:39	21.8	98
180274	2026-07-18T09:46:39	21.8	98
180275	2026-07-18T09:56:39	22.2	98
180276	2026-07-18T10:06:39	22.3	98
180277	2026-07-18T10:16:39	22.8	98
180278	2026-07-18T10:26:39	23.3	98
180279	2026-07-18T10:36:39	23.4	98
180280	2026-07-18T10:46:39	23.5	98
180281	2026-07-18T10:56:39	23.7	98
180282	2026-07-18T11:06:39	24.3	98.5
180283	2026-07-18T11:16:39	24.4	98.5
180284	2026-07-18T11:26:39	24.2	98.5
180285	2026-07-18T11:36:39	24.7	98.5
180286	2026-07-18T11:46:38	24.9	98.5
180287	2026-07-18T11:56:38	25.8	99
180288	2026-07-18T12:06:38	26.3	100
180289	2026-07-18T12:16:38	27.1	100
180290	2026-07-18T12:26:38	27.1	95
180291	2026-07-18T12:36:38	27.5	100
180292	2026-07-18T12:46:38	27	100
180293	2026-07-18T12:56:38	29.4	80
180294	2026-07-18T13:06:38	30.5	51.5
180295	2026-07-18T13:16:38	28.9	52.5
180296	2026-07-18T13:26:38	30.7	47
180297	2026-07-18T13:36:38	31.7	47.5
180298	2026-07-18T13:46:38	31.9	46
180299	2026-07-18T13:56:38	32.4	46
180300	2026-07-18T14:06:38	34.5	44
180301	2026-07-18T14:16:38	33.7	43
180302	2026-07-18T14:26:38	32.6	45.5
180303	2026-07-18T14:36:38	32.9	45
180304	2026-07-18T14:46:38	34.7	43
180305	2026-07-18T14:56:38	35.4	40.5
180306	2026-07-18T15:06:38	35.2	40
180307	2026-07-18T15:16:38	36	40
180308	2026-07-18T15:26:38	36.1	40
180309	2026-07-18T15:36:38	35.9	40.5
180310	2026-07-18T15:46:38	37	38.5
180311	2026-07-18T15:56:38	36.4	37.5
180312	2026-07-18T16:06:38	37	37
180313	2026-07-18T16:16:38	36.5	37
180314	2026-07-18T16:26:38	36.3	37
180315	2026-07-18T16:36:38	36.8	37.5
180316	2026-07-18T16:46:38	36.8	37
180317	2026-07-18T16:56:38	36.9	36.5
180318	2026-07-18T17:06:38	36.7	37.5
180319	2026-07-18T17:16:38	36.2	37
180320	2026-07-18T17:26:38	35.7	37.5
180321	2026-07-18T17:36:38	35	38.5
180322	2026-07-18T17:46:38	34.4	39
180323	2026-07-18T17:56:38	34.2	39.5
180324	2026-07-18T18:06:38	33.6	40.5
180325	2026-07-18T18:16:38	33	42
180326	2026-07-18T18:26:38	32.4	44
180327	2026-07-18T18:36:38	31.7	46
180328	2026-07-18T18:46:38	31.4	46.5
180329	2026-07-18T18:56:38	30.2	50
180330	2026-07-18T19:06:38	28.7	54
180331	2026-07-18T19:16:38	28.1	57
180332	2026-07-18T19:26:38	27.4	60
180333	2026-07-18T19:36:38	26.8	62.5
180334	2026-07-18T19:46:38	26.4	63
180335	2026-07-18T19:56:38	25.9	64
180336	2026-07-18T20:06:38	25.4	65.5
180337	2026-07-18T20:16:38	25	66
180338	2026-07-18T20:26:38	24.9	67
180339	2026-07-18T20:36:38	25.1	65
180340	2026-07-18T20:46:38	24.9	65.5
180341	2026-07-18T20:56:38	24.6	63
180342	2026-07-18T21:06:38	24.5	60.5
180343	2026-07-18T21:16:38	24.5	62
180344	2026-07-18T21:26:38	24.2	62
180345	2026-07-18T21:36:38	23.9	63.5
180346	2026-07-18T21:46:38	23.6	66
180347	2026-07-18T21:56:38	23.4	68.5
180348	2026-07-18T22:06:37	22.9	70.5
180349	2026-07-18T22:16:37	22.8	69
180350	2026-07-18T22:26:37	22.4	72
180351	2026-07-18T22:36:37	22.3	73
180352	2026-07-18T22:46:37	21.9	70
180353	2026-07-18T22:56:37	21.7	73.5
180354	2026-07-18T23:06:37	21.6	74.5
180355	2026-07-18T23:16:37	21.6	75.5
180356	2026-07-18T23:26:37	21.2	76.5
180357	2026-07-18T23:36:37	21.1	77.5
180358	2026-07-18T23:46:37	20.9	79
180359	2026-07-18T23:56:37	20.6	77
180360	2026-07-19T00:06:37	20.5	79
180361	2026-07-19T00:16:37	20.3	80.5
180362	2026-07-19T00:26:37	20.1	80.5
180363	2026-07-19T00:36:37	20	80.5
180364	2026-07-19T00:46:37	19.9	81.5
180365	2026-07-19T00:56:37	19.8	81.5
180366	2026-07-19T01:06:37	19.6	83
180367	2026-07-19T01:16:37	19.4	83
180368	2026-07-19T01:26:37	19.3	83.5
180369	2026-07-19T01:36:37	19.1	84
180370	2026-07-19T01:46:37	18.9	84
180371	2026-07-19T01:56:37	18.9	85
180372	2026-07-19T02:06:37	19.1	84
180373	2026-07-19T02:16:37	19.3	84
180374	2026-07-19T02:26:37	19.2	83.5
180375	2026-07-19T02:36:37	19.3	84
180376	2026-07-19T02:46:37	19.3	84
180377	2026-07-19T02:56:37	19.3	85.5
180378	2026-07-19T03:06:37	19.3	86
180379	2026-07-19T03:16:37	19.1	85.5
180380	2026-07-19T03:26:37	19.3	84.5
180381	2026-07-19T03:36:37	19.3	84
180382	2026-07-19T03:46:37	19.2	85.5
180383	2026-07-19T03:56:37	19	76.5
180384	2026-07-19T04:06:37	18.8	75.5
180385	2026-07-19T04:16:37	18.8	74.5
180386	2026-07-19T04:26:37	18.8	74
180387	2026-07-19T04:36:37	18.8	75.5
180388	2026-07-19T04:46:37	18.7	74
180389	2026-07-19T04:56:37	18.8	75
180390	2026-07-19T05:06:37	18.7	73.5
180391	2026-07-19T05:16:37	18.5	74
180392	2026-07-19T05:26:37	18.5	75
180393	2026-07-19T05:36:37	18.3	76
180394	2026-07-19T05:46:37	18.5	76
180395	2026-07-19T05:56:37	18.7	77
180396	2026-07-19T06:06:37	19.1	73.5
180397	2026-07-19T06:16:37	19.1	72
180398	2026-07-19T06:26:37	19.4	72
180399	2026-07-19T06:36:37	19.3	72
180400	2026-07-19T06:46:37	19.1	71.5
180401	2026-07-19T06:56:37	19.3	72.5
180402	2026-07-19T07:06:37	19.8	70
180403	2026-07-19T07:16:37	20	69.5
180404	2026-07-19T07:26:37	20.1	69.5
180405	2026-07-19T07:36:37	20.5	69
180406	2026-07-19T07:46:37	20.4	68
180407	2026-07-19T07:56:37	20.5	66.5
180408	2026-07-19T08:06:36	21.2	65.5
180409	2026-07-19T08:16:36	20.8	63.5
180410	2026-07-19T08:26:36	21.3	63.5
180411	2026-07-19T08:36:36	22	61.5
180412	2026-07-19T08:46:36	21.8	62
180413	2026-07-19T08:56:36	22.3	60
180414	2026-07-19T09:06:36	22	60
180415	2026-07-19T09:16:36	21.9	58
180416	2026-07-19T09:26:36	22.1	56
180417	2026-07-19T09:36:36	22.7	55
180418	2026-07-19T09:46:36	22.7	55
180419	2026-07-19T09:56:36	22.7	56
180420	2026-07-19T10:06:36	21.8	56
180421	2026-07-19T10:16:36	22.1	56.5
180422	2026-07-19T10:26:36	22.4	54.5
180423	2026-07-19T10:36:36	22.9	54
180424	2026-07-19T10:46:36	22.3	53
180425	2026-07-19T10:56:36	23.2	52.5
180426	2026-07-19T11:06:36	23.1	52.5
180427	2026-07-19T11:16:36	23.4	54
180428	2026-07-19T11:26:36	23.6	53.5
180429	2026-07-19T11:36:36	24.3	52
180430	2026-07-19T11:46:36	23.8	50.5
180431	2026-07-19T11:56:36	24.3	48
180432	2026-07-19T12:06:36	24.5	49
180433	2026-07-19T12:16:36	25.8	46
180434	2026-07-19T12:26:36	25.7	46.5
180435	2026-07-19T12:36:36	26.9	43
180436	2026-07-19T12:46:36	27	41
180437	2026-07-19T12:56:36	28.8	39.5
180438	2026-07-19T13:06:36	29.8	39
180439	2026-07-19T13:16:36	31.1	40
180440	2026-07-19T13:26:36	29.2	41.5
180441	2026-07-19T13:36:36	33	36.5
180442	2026-07-19T13:46:36	33.1	33.5
180443	2026-07-19T13:56:36	35.8	31
180444	2026-07-19T14:06:36	34.5	32
180445	2026-07-19T14:16:36	35.9	30
180446	2026-07-19T14:26:36	38.2	29
180447	2026-07-19T14:36:36	39.5	25.5
180448	2026-07-19T14:46:36	38.4	27
180449	2026-07-19T15:06:36	36.8	28
180450	2026-07-19T15:16:36	37.2	27.5
180451	2026-07-19T15:26:36	38.7	25.5
180452	2026-07-19T15:36:36	40.2	25
180453	2026-07-19T15:46:36	40.7	24
180454	2026-07-19T15:56:36	38.7	24.5
180455	2026-07-19T16:06:36	38.8	25
180456	2026-07-19T16:16:36	38.5	24.5
180457	2026-07-19T16:26:36	38.1	24.5
180458	2026-07-19T16:36:36	37.5	26
180459	2026-07-19T16:46:36	36.7	26.5
180460	2026-07-19T16:56:36	38.1	26
180461	2026-07-19T17:16:36	41	25
180462	2026-07-19T17:26:36	39.9	24
180463	2026-07-19T17:36:36	39.6	24.5
180464	2026-07-19T17:46:36	38.8	26
180465	2026-07-19T17:56:36	37.1	26
180466	2026-07-19T18:06:36	36.6	27
180467	2026-07-19T18:16:36	35.4	28.5
180468	2026-07-19T18:26:36	34.8	30
180469	2026-07-19T18:36:36	33.2	31.5
180470	2026-07-19T18:46:36	31.7	33
180471	2026-07-19T18:56:35	30.9	34
180472	2026-07-19T19:06:35	29.5	37
180473	2026-07-19T19:16:35	28.6	39
180474	2026-07-19T19:26:35	27.6	41.5
180475	2026-07-19T19:36:35	26.9	45.5
180476	2026-07-19T19:46:35	26.3	47.5
180477	2026-07-19T19:56:35	25.5	48.5
180478	2026-07-19T20:06:35	25.2	50.5
180479	2026-07-19T20:16:35	24.6	49.5
180480	2026-07-19T20:26:35	24.1	51
180481	2026-07-19T20:36:35	23.7	51.5
180482	2026-07-19T20:56:36	22.9	52.5
180483	2026-07-19T21:06:35	22.5	53
180484	2026-07-19T21:16:35	22.2	54
180485	2026-07-19T21:26:35	22	55.5
180486	2026-07-19T21:36:35	21.6	56
180487	2026-07-19T21:46:35	21.2	56.5
180488	2026-07-19T21:56:35	20.8	58.5
180489	2026-07-19T22:06:35	20.4	59
180490	2026-07-19T22:16:35	20.1	59.5
180491	2026-07-19T22:26:35	19.7	60.5
180492	2026-07-19T22:36:35	19.6	62
180493	2026-07-19T22:46:35	19.4	62
180494	2026-07-19T22:56:35	19.1	63.5
180495	2026-07-19T23:06:35	18.9	64.5
180496	2026-07-19T23:16:35	18.8	65.5
180497	2026-07-19T23:26:35	18.2	65.5
180498	2026-07-19T23:36:35	18.1	65.5
180499	2026-07-19T23:46:35	17.9	66
180500	2026-07-19T23:56:35	17.7	66.5
180501	2026-07-20T00:06:35	17.1	68.5
180502	2026-07-20T00:16:35	17	68.5
180503	2026-07-20T00:26:35	16.8	69
180504	2026-07-20T00:36:35	16.8	70
180505	2026-07-20T00:46:35	16.7	70.5
180506	2026-07-20T00:56:35	16.3	70.5
180507	2026-07-20T01:06:35	16.2	71.5
180508	2026-07-20T01:16:35	16.1	72
180509	2026-07-20T01:26:35	15.9	71.5
180510	2026-07-20T01:36:35	15.6	73
180511	2026-07-20T01:46:35	15.5	73.5
180512	2026-07-20T01:56:35	15.3	74.5
180513	2026-07-20T02:06:35	15.2	75
180514	2026-07-20T02:16:35	15.1	76
180515	2026-07-20T02:26:35	14.8	75
180516	2026-07-20T02:36:35	14.7	76
180517	2026-07-20T02:46:35	14.7	76.5
180518	2026-07-20T02:56:35	14.6	76
180519	2026-07-20T03:06:35	14.4	76
180520	2026-07-20T03:16:35	14.2	76
180521	2026-07-20T03:26:35	14.2	75.5
180522	2026-07-20T03:36:35	14	76
180523	2026-07-20T03:46:35	14	76.5
180524	2026-07-20T03:56:35	13.8	76
180525	2026-07-20T04:06:35	13.7	77
180526	2026-07-20T04:16:35	13.6	77.5
180527	2026-07-20T04:26:35	13.6	77.5
180528	2026-07-20T04:36:35	13.6	79
180529	2026-07-20T04:46:35	13.7	78.5
180530	2026-07-20T04:56:35	13.8	78.5
180531	2026-07-20T05:06:35	13.9	78.5
180532	2026-07-20T05:16:35	14	78
180533	2026-07-20T05:26:35	14.2	78
180534	2026-07-20T05:36:35	14.4	77
180535	2026-07-20T05:46:35	14.5	76
180536	2026-07-20T05:56:34	14.7	74.5
180537	2026-07-20T06:06:34	15	74
180538	2026-07-20T06:16:34	15.2	73
180539	2026-07-20T06:26:34	15.4	71
180540	2026-07-20T06:36:34	15.6	68.5
180541	2026-07-20T06:46:34	15.7	69
180542	2026-07-20T06:56:34	15.9	68.5
180543	2026-07-20T07:06:34	16	68.5
180544	2026-07-20T07:16:34	16.2	68
180545	2026-07-20T07:26:34	16.3	68
180546	2026-07-20T07:36:34	16.4	66.5
180547	2026-07-20T07:46:34	16.6	66.5
180548	2026-07-20T07:56:34	16.8	65.5
180549	2026-07-20T08:06:34	16.8	64.5
180550	2026-07-20T08:16:34	17.2	65.5
180551	2026-07-20T08:26:34	17.3	65
180552	2026-07-20T08:36:34	17.5	63.5
180553	2026-07-20T08:46:52	17.6	62
180554	2026-07-20T08:56:34	17.8	60
180555	2026-07-20T09:06:34	18.2	61.5
180556	2026-07-20T09:16:34	18.3	58.5
180557	2026-07-20T09:26:34	18.5	58
180558	2026-07-20T09:36:34	18.5	56.5
180559	2026-07-20T09:46:34	18.8	58
180560	2026-07-20T09:56:34	19.2	57
180561	2026-07-20T10:06:34	19.3	56
180562	2026-07-20T10:16:34	19.6	54
180563	2026-07-20T10:26:34	19.7	55
180564	2026-07-20T10:36:34	20.1	55.5
180565	2026-07-20T10:46:34	20.5	53.5
180566	2026-07-20T10:56:34	20.8	51.5
180567	2026-07-20T11:06:34	20.9	53
180568	2026-07-20T11:16:34	21.1	52
180569	2026-07-20T11:26:34	20.9	50.5
180570	2026-07-20T11:36:34	21.3	50.5
180571	2026-07-20T11:46:34	21.5	52
180572	2026-07-20T11:56:34	22	48.5
180573	2026-07-20T12:06:34	22.1	47
180574	2026-07-20T12:16:34	22.8	45.5
180575	2026-07-20T12:26:34	25.8	42
180576	2026-07-20T12:36:34	26.9	37.5
180577	2026-07-20T12:46:34	27.8	38.5
180578	2026-07-20T12:56:34	28.7	35.5
180579	2026-07-20T13:06:34	30.5	33.5
180580	2026-07-20T13:16:34	30.9	34
180581	2026-07-20T13:26:34	33	31
180582	2026-07-20T13:36:34	31	32.5
180583	2026-07-20T13:46:34	32.7	30.5
180584	2026-07-20T13:56:34	34.9	30
180585	2026-07-20T14:06:34	35.2	29.5
180586	2026-07-20T14:16:34	35.1	29
180587	2026-07-20T14:26:34	36.2	26.5
180588	2026-07-20T14:36:34	36.9	26.5
180589	2026-07-20T14:46:34	36.2	26.5
180590	2026-07-20T14:56:34	36.8	26
180591	2026-07-20T15:06:34	37.4	26.5
180592	2026-07-20T15:16:34	37	25
180593	2026-07-20T15:26:34	38.2	24.5
180594	2026-07-20T15:36:34	37.1	24
180595	2026-07-20T15:46:34	37.5	24
180596	2026-07-20T15:56:34	38.9	23
180597	2026-07-20T16:06:34	37.3	24
180598	2026-07-20T16:16:34	38.5	24
180599	2026-07-20T16:26:34	37.9	24.5
180600	2026-07-20T16:36:34	37.9	23.5
180601	2026-07-20T16:46:34	38.3	24
180602	2026-07-20T16:56:34	37.7	24
180603	2026-07-20T17:06:33	36.9	24
180604	2026-07-20T17:16:33	36.5	26
180605	2026-07-20T17:26:33	34.7	25.5
180606	2026-07-20T17:36:33	35.4	25
180607	2026-07-20T17:46:33	35.1	25
180608	2026-07-20T17:56:33	33.1	28.5
180609	2026-07-20T18:06:33	32.7	27
180610	2026-07-20T18:16:33	31.7	29.5
180611	2026-07-20T18:26:33	31.1	29.5
180612	2026-07-20T18:36:33	30	31
180613	2026-07-20T18:46:33	29.4	32.5
180614	2026-07-20T18:56:33	28.7	35
180615	2026-07-20T19:06:33	27.4	36
180616	2026-07-20T19:16:33	26.5	38.5
180617	2026-07-20T19:26:33	25.7	40.5
180618	2026-07-20T19:36:33	24.8	41
180619	2026-07-20T19:46:33	24.3	43.5
180620	2026-07-20T19:56:33	23.8	45
180621	2026-07-20T20:06:33	23.3	48
180622	2026-07-20T20:16:33	22.9	48
180623	2026-07-20T20:26:33	22.4	48.5
180624	2026-07-20T20:36:33	22.1	50
180625	2026-07-20T20:46:33	21.6	51
180626	2026-07-20T20:56:33	21.3	52
180627	2026-07-20T21:06:33	21	54.5
180628	2026-07-20T21:16:33	20.6	56
180629	2026-07-20T21:26:33	20.5	56
180630	2026-07-20T21:36:33	20	56.5
180631	2026-07-20T21:46:33	19.9	57
180632	2026-07-20T21:56:33	19.5	59
180633	2026-07-20T22:06:33	19.2	60.5
180634	2026-07-20T22:16:33	18.9	60.5
180635	2026-07-20T22:26:33	18.6	61
180636	2026-07-20T22:36:33	18.1	62
180637	2026-07-20T22:46:33	17.7	63
180638	2026-07-20T22:56:33	17.7	63
180639	2026-07-20T23:06:33	17.6	63
180640	2026-07-20T23:16:33	17.4	63.5
180641	2026-07-20T23:26:33	17.2	65
180642	2026-07-20T23:36:33	16.9	65
180643	2026-07-20T23:46:33	16.6	66
180644	2026-07-20T23:56:33	16.3	67.5
180645	2026-07-21T00:06:33	16.4	67
180646	2026-07-21T00:16:33	16.2	68
180647	2026-07-21T00:26:33	15.8	69
180648	2026-07-21T00:36:33	15.7	69
180649	2026-07-21T00:46:33	15.6	69.5
180650	2026-07-21T00:56:33	15.4	70
180651	2026-07-21T01:06:33	15	70.5
180652	2026-07-21T01:16:33	15	71
180653	2026-07-21T01:26:33	14.9	71
180654	2026-07-21T01:36:33	14.8	71.5
180655	2026-07-21T01:46:33	14.6	72
180656	2026-07-21T01:56:33	14.2	73
180657	2026-07-21T02:06:33	14.2	73
180658	2026-07-21T02:16:33	13.7	74.5
180659	2026-07-21T02:26:33	13.7	75
180660	2026-07-21T02:36:33	13.7	75
180661	2026-07-21T02:46:33	13.4	76
180662	2026-07-21T02:56:33	13.3	76.5
180663	2026-07-21T03:06:33	13.2	76.5
180664	2026-07-21T03:16:33	13	77
180665	2026-07-21T03:26:33	12.8	77.5
180666	2026-07-21T03:36:33	12.7	78.5
180667	2026-07-21T03:46:33	12.7	79
180668	2026-07-21T03:56:32	12.7	79
180669	2026-07-21T04:06:32	12.2	80
180670	2026-07-21T04:16:32	12.5	80
180671	2026-07-21T04:26:32	12.4	80
180672	2026-07-21T04:36:32	12.4	80
180673	2026-07-21T04:46:32	12.6	80.5
180674	2026-07-21T04:56:32	12.7	80
180675	2026-07-21T05:06:32	12.8	80
180676	2026-07-21T05:16:32	12.9	80.5
180677	2026-07-21T05:26:32	13.1	80
180678	2026-07-21T05:36:32	13.4	80
180679	2026-07-21T05:46:32	13.6	79.5
180680	2026-07-21T05:56:32	13.8	79.5
180681	2026-07-21T06:06:32	13.9	79
180682	2026-07-21T06:16:32	14.3	78.5
180683	2026-07-21T06:26:32	14.4	78.5
180684	2026-07-21T06:36:32	14.6	78
180685	2026-07-21T06:46:32	14.7	77.5
180686	2026-07-21T06:56:32	15.1	76.5
180687	2026-07-21T07:06:32	15.5	75.5
180688	2026-07-21T07:16:32	15.9	75
180689	2026-07-21T07:26:32	16	74
180690	2026-07-21T07:36:32	16.3	73
180691	2026-07-21T07:46:32	16.5	73.5
180692	2026-07-21T07:56:32	16.6	72.5
180693	2026-07-21T08:06:32	16.9	71.5
180694	2026-07-21T08:16:32	17.2	71
180695	2026-07-21T08:26:32	17.4	70
180696	2026-07-21T08:36:32	17.6	69
180697	2026-07-21T08:46:32	17.9	66
180698	2026-07-21T08:56:32	18.1	66
180699	2026-07-21T09:06:32	18.5	66
180700	2026-07-21T09:16:32	18.6	63.5
180701	2026-07-21T09:26:32	18.8	65
180702	2026-07-21T09:36:32	19.1	63.5
180703	2026-07-21T09:46:32	19.3	62
180704	2026-07-21T09:56:32	19.8	61.5
180705	2026-07-21T10:06:32	20	59.5
180706	2026-07-21T10:16:32	20.3	58.5
180707	2026-07-21T10:36:32	21.6	56
180708	2026-07-21T10:46:32	21.6	55.5
180709	2026-07-21T10:56:32	22	54.5
180710	2026-07-21T11:06:32	21.7	54
180711	2026-07-21T11:16:32	22.2	51.5
180712	2026-07-21T11:26:32	22.9	50.5
180713	2026-07-21T11:36:32	23.2	50
180714	2026-07-21T11:46:32	23.3	47
180715	2026-07-21T11:56:32	23.9	48.5
180716	2026-07-21T12:06:32	23.5	48.5
180717	2026-07-21T12:16:32	23.5	48
180718	2026-07-21T12:26:32	26.3	43.5
180719	2026-07-21T12:36:32	28.4	38.5
180720	2026-07-21T12:46:32	27.3	41
180721	2026-07-21T12:56:32	26.9	41.5
180722	2026-07-21T13:06:32	26.1	41.5
180723	2026-07-21T13:16:32	26.3	42
180724	2026-07-21T13:26:32	30.7	37.5
180725	2026-07-21T13:36:32	31.6	34.5
180726	2026-07-21T13:46:32	30.2	36
180727	2026-07-21T13:56:32	30.2	34.5
180728	2026-07-21T14:06:32	32	33
180729	2026-07-21T14:16:32	34.1	30
180730	2026-07-21T14:26:32	34.2	28.5
180731	2026-07-21T14:36:32	31.8	31.5
180732	2026-07-21T14:46:32	30.1	32
180733	2026-07-21T14:56:31	34.2	26.5
180734	2026-07-21T15:06:31	31	28.5
180735	2026-07-21T15:26:31	35.4	24
180736	2026-07-21T15:36:31	34.1	26.5
180737	2026-07-21T15:46:31	35.7	26
180738	2026-07-21T15:56:31	34.3	27.5
180739	2026-07-21T16:06:31	36.7	24.5
180740	2026-07-21T16:16:31	36.4	25
180741	2026-07-21T16:26:31	37.2	23.5
180742	2026-07-21T16:36:31	34.9	25.5
180743	2026-07-21T16:46:31	37.1	24
180744	2026-07-21T16:56:31	36.6	23.5
180745	2026-07-21T17:06:31	35.1	25
180746	2026-07-21T17:16:31	35.7	24.5
180747	2026-07-21T17:26:31	36.3	25
180748	2026-07-21T17:36:31	37.2	24
180749	2026-07-21T17:46:31	36.4	23.5
180750	2026-07-21T17:56:31	36.1	25
180751	2026-07-21T18:06:31	35.2	25
180752	2026-07-21T18:16:31	34.8	26
180753	2026-07-21T18:26:31	33.4	26.5
180754	2026-07-21T18:36:31	32.8	27.5
180755	2026-07-21T18:46:31	31.9	30
180756	2026-07-21T18:56:31	31.4	31.5
180757	2026-07-21T19:06:31	29.6	37
180758	2026-07-21T19:16:31	27.8	40
180759	2026-07-21T19:26:31	26.9	43
180760	2026-07-21T19:36:31	26	43
180761	2026-07-21T19:46:31	25.2	43.5
180762	2026-07-21T19:56:31	24.3	44
180763	2026-07-21T20:06:31	23.8	46.5
180764	2026-07-21T20:16:31	23.3	49
180765	2026-07-21T20:26:31	23	50
180766	2026-07-21T20:36:31	22.4	50.5
180767	2026-07-21T20:46:31	21.9	51
180768	2026-07-21T20:56:31	21.6	53.5
180769	2026-07-21T21:06:31	21.2	54.5
180770	2026-07-21T21:16:31	20.9	56
180771	2026-07-21T21:26:31	20.4	57
180772	2026-07-21T21:36:31	20.1	56.5
180773	2026-07-21T21:46:31	19.9	57
180774	2026-07-21T21:56:31	19.6	58
180775	2026-07-21T22:06:31	19.1	59
180776	2026-07-21T22:16:31	18.9	60.5
180777	2026-07-21T22:26:31	18.7	61
180778	2026-07-21T22:36:31	18.2	62
180779	2026-07-21T22:46:31	18	62.5
180780	2026-07-21T22:56:31	17.9	63
180781	2026-07-21T23:06:31	17.7	64
180782	2026-07-21T23:16:31	17.5	65
180783	2026-07-21T23:26:31	17.3	67
180784	2026-07-21T23:36:31	17	66.5
180785	2026-07-21T23:46:31	16.8	67
180786	2026-07-21T23:56:31	16.6	66.5
180787	2026-07-22T00:06:31	16.4	68
180788	2026-07-22T00:16:31	16.2	68
180789	2026-07-22T00:26:31	16	68
180790	2026-07-22T00:36:31	15.8	69
180791	2026-07-22T00:46:31	15.7	70.5
180792	2026-07-22T00:56:31	15.5	70.5
180793	2026-07-22T01:16:31	15.1	71.5
180794	2026-07-22T01:26:31	15	72.5
180795	2026-07-22T01:36:30	14.8	73
180796	2026-07-22T01:46:30	14.8	73
180797	2026-07-22T01:56:30	14.6	73.5
180798	2026-07-22T02:06:30	14.4	74
180799	2026-07-22T02:16:30	14	74.5
180800	2026-07-22T02:26:30	14.1	75
180801	2026-07-22T02:36:30	14	76
180802	2026-07-22T02:46:30	13.8	76
180803	2026-07-22T02:56:30	13.6	76.5
180804	2026-07-22T03:06:30	13.5	77
180805	2026-07-22T03:16:30	13.6	76
180806	2026-07-22T03:26:30	13.3	77
180807	2026-07-22T03:36:30	13.2	77.5
180808	2026-07-22T03:46:30	13.2	78
180809	2026-07-22T03:56:30	13	79
180810	2026-07-22T04:06:30	12.8	80
180811	2026-07-22T04:16:30	12.8	80.5
180812	2026-07-22T04:26:30	12.8	80
180813	2026-07-22T04:36:30	12.9	79.5
180814	2026-07-22T04:46:30	13	79.5
180815	2026-07-22T04:56:30	13	79.5
180816	2026-07-22T05:06:30	13.1	79
180817	2026-07-22T05:16:30	13.1	79.5
180818	2026-07-22T05:26:30	13.4	80
180819	2026-07-22T05:36:30	13.5	79.5
180820	2026-07-22T05:46:30	13.7	80
180821	2026-07-22T05:56:30	14	79
180822	2026-07-22T06:06:30	14.2	78.5
180823	2026-07-22T06:16:30	14.6	76
180824	2026-07-22T06:26:30	15	73.5
180825	2026-07-22T06:36:30	15	76.5
180826	2026-07-22T06:46:30	15.4	73
180827	2026-07-22T06:56:30	15.6	71.5
180828	2026-07-22T07:06:30	15.9	71.5
180829	2026-07-22T07:16:30	16.3	69
180830	2026-07-22T07:26:30	16.5	69.5
180831	2026-07-22T07:36:30	16.7	68.5
180832	2026-07-22T07:46:30	17	67
180833	2026-07-22T07:56:30	17.1	67
180834	2026-07-22T08:06:30	17.4	66
180835	2026-07-22T08:16:30	17.9	64.5
180836	2026-07-22T08:26:30	18	63.5
180837	2026-07-22T08:36:30	18.1	63.5
180838	2026-07-22T08:46:30	18.9	59.5
180839	2026-07-22T08:56:30	19	59.5
180840	2026-07-22T09:06:30	19.1	59
180841	2026-07-22T09:16:30	19.4	59.5
180842	2026-07-22T09:26:30	19.9	59
180843	2026-07-22T09:36:30	20.2	55.5
180844	2026-07-22T09:46:30	20.5	55
180845	2026-07-22T09:56:30	20.8	56.5
180846	2026-07-22T10:06:30	21.2	52
180847	2026-07-22T10:16:30	21.3	49
180848	2026-07-22T10:26:30	21.6	48.5
180849	2026-07-22T10:36:30	21.5	47.5
180850	2026-07-22T10:46:30	22	46
180851	2026-07-22T10:56:30	22.2	45.5
180852	2026-07-22T11:06:30	22.6	44
180853	2026-07-22T11:16:30	22.9	44
180854	2026-07-22T11:26:30	23.2	44.5
180855	2026-07-22T11:36:30	23.4	44
180856	2026-07-22T11:46:30	23.8	43.5
180857	2026-07-22T11:56:30	24.4	42.5
180858	2026-07-22T12:06:30	25.1	39.5
180859	2026-07-22T12:16:30	26	41
180860	2026-07-22T12:26:30	27.6	38.5
180861	2026-07-22T12:36:30	29.3	37
180862	2026-07-22T12:46:30	30.4	35.5
180863	2026-07-22T12:56:30	31.2	34.5
180864	2026-07-22T13:06:29	31.1	34
180865	2026-07-22T13:16:29	32.4	32.5
180866	2026-07-22T13:26:29	32.9	33
180867	2026-07-22T13:36:29	34.2	31.5
180868	2026-07-22T13:46:29	36	29.5
180869	2026-07-22T13:56:29	34.9	29
180870	2026-07-22T14:06:29	32.8	31.5
180871	2026-07-22T14:16:29	33.9	32
180872	2026-07-22T14:26:29	34.7	30
180873	2026-07-22T14:36:29	34.8	30
180874	2026-07-22T14:46:29	36	28.5
180875	2026-07-22T14:56:29	38.7	27
180876	2026-07-22T15:06:29	34.3	30
180877	2026-07-22T15:16:29	35	30
180878	2026-07-22T15:26:29	34.5	30.5
180879	2026-07-22T15:36:29	37.2	29
180880	2026-07-22T15:46:29	34.9	31
180881	2026-07-22T15:56:29	34	32
180882	2026-07-22T16:06:29	33.1	33.5
180883	2026-07-22T16:16:29	32.7	34.5
180884	2026-07-22T16:26:29	30.7	37
180885	2026-07-22T16:36:29	30.3	38
180886	2026-07-22T16:46:29	29.9	39.5
180887	2026-07-22T16:56:29	30.3	39.5
180888	2026-07-22T17:06:29	29.5	41
180889	2026-07-22T17:16:29	30	39.5
180890	2026-07-22T17:26:29	29.7	39.5
180891	2026-07-22T17:36:29	28.7	41
180892	2026-07-22T17:46:29	27.4	42.5
180893	2026-07-22T17:56:29	26.9	43.5
180894	2026-07-22T18:06:29	26.8	44.5
180895	2026-07-22T18:16:29	26.5	45
180896	2026-07-22T18:26:29	26	45
180897	2026-07-22T18:36:29	25.2	46.5
180898	2026-07-22T18:46:29	24.8	48
180899	2026-07-22T18:56:29	24.5	48
180900	2026-07-22T19:06:29	23.9	49.5
180901	2026-07-22T19:16:29	23.7	50
180902	2026-07-22T19:26:29	23.5	50
180903	2026-07-22T19:36:29	23.3	52
180904	2026-07-22T19:46:29	23.3	52
180905	2026-07-22T19:56:29	23	53
180906	2026-07-22T20:06:29	22.8	53
180907	2026-07-22T20:16:29	22.4	53.5
180908	2026-07-22T20:26:29	22.2	54.5
180909	2026-07-22T20:36:29	22.1	55.5
180910	2026-07-22T20:46:29	21.8	56.5
180911	2026-07-22T20:56:29	21.7	57
180912	2026-07-22T21:06:29	21.5	58.5
180913	2026-07-22T21:16:29	21.1	59
180914	2026-07-22T21:26:29	21.1	60
180915	2026-07-22T21:36:29	20.9	60.5
180916	2026-07-22T21:46:29	20.6	61.5
180917	2026-07-22T21:56:29	20.6	62
180918	2026-07-22T22:06:29	20.2	62.5
180919	2026-07-22T22:16:29	20.1	63.5
180920	2026-07-22T22:26:29	19.7	64
180921	2026-07-22T22:36:29	19.5	64.5
180922	2026-07-22T22:46:29	19.4	65.5
180923	2026-07-22T22:56:29	19.2	65.5
180924	2026-07-22T23:06:28	19.1	66
180925	2026-07-22T23:16:28	18.9	67.5
180926	2026-07-22T23:26:28	18.8	68
180927	2026-07-22T23:36:28	18.6	67.5
180928	2026-07-22T23:46:28	18.8	66.5
180929	2026-07-22T23:56:28	18.8	67
180930	2026-07-23T00:06:28	18.9	67
180931	2026-07-23T00:16:28	18.7	67.5
180932	2026-07-23T00:26:28	18.6	67.5
180933	2026-07-23T00:36:28	18.4	68
180934	2026-07-23T00:46:28	18.5	68.5
180935	2026-07-23T00:56:28	18.5	68.5
180936	2026-07-23T01:06:28	18.5	68.5
180937	2026-07-23T01:16:28	18.4	69.5
180938	2026-07-23T01:26:28	18.4	69.5
180939	2026-07-23T01:36:28	18.4	69.5
180940	2026-07-23T01:46:28	18.2	70
180941	2026-07-23T01:56:28	18.1	70.5
180942	2026-07-23T02:06:28	18.1	70.5
180943	2026-07-23T02:16:28	17.8	71
180944	2026-07-23T02:26:28	17.5	72
180945	2026-07-23T02:36:28	17.3	73
180946	2026-07-23T02:46:28	17.2	74
180947	2026-07-23T02:56:28	16.9	74.5
180948	2026-07-23T03:06:28	16.8	75.5
180949	2026-07-23T03:16:28	16.8	76
180950	2026-07-23T03:26:28	16.9	75.5
180951	2026-07-23T03:36:28	16.9	75.5
180952	2026-07-23T03:46:28	16.9	76
180953	2026-07-23T03:56:28	16.6	77
180954	2026-07-23T04:06:28	16.4	77
180955	2026-07-23T04:16:28	16.4	77
180956	2026-07-23T04:26:28	16.4	77.5
180957	2026-07-23T04:36:28	16.3	78
180958	2026-07-23T04:46:28	16.2	78
180959	2026-07-23T04:56:28	16.2	78.5
180960	2026-07-23T05:06:28	16.4	78.5
180961	2026-07-23T05:16:28	16.7	78
180962	2026-07-23T05:26:28	16.8	78
180963	2026-07-23T05:36:28	17.2	76.5
180964	2026-07-23T05:46:28	17.3	74.5
180965	2026-07-23T05:56:28	17.3	74.5
180966	2026-07-23T06:06:28	17.4	74.5
180967	2026-07-23T06:16:28	17.6	72.5
180968	2026-07-23T06:26:28	18.1	71
180969	2026-07-23T06:36:28	18.7	69.5
180970	2026-07-23T06:46:28	18.7	69
180971	2026-07-23T06:56:28	18.5	68.5
180972	2026-07-23T07:06:28	18.3	69.5
180973	2026-07-23T07:16:28	18.7	68.5
180974	2026-07-23T07:26:28	18.9	68.5
180975	2026-07-23T07:36:28	18.9	67.5
180976	2026-07-23T07:46:28	18.8	67.5
180977	2026-07-23T07:56:28	18.7	68
180978	2026-07-23T08:06:28	19.8	65
180979	2026-07-23T08:16:28	19.6	64
180980	2026-07-23T08:26:28	19.6	63.5
180981	2026-07-23T08:36:28	19.9	63.5
180982	2026-07-23T08:46:28	20.6	60
180983	2026-07-23T08:56:28	20.6	59
180984	2026-07-23T09:06:28	20.4	58
180985	2026-07-23T09:16:28	20.7	58
180986	2026-07-23T09:26:28	20.9	57
180987	2026-07-23T09:36:28	21	57
180988	2026-07-23T09:46:28	20.9	56
180989	2026-07-23T09:56:28	21.4	56
180990	2026-07-23T10:06:28	21.1	54
180991	2026-07-23T10:16:27	21.8	53
180992	2026-07-23T10:26:27	21.4	53.5
180993	2026-07-23T10:36:27	21.6	52.5
180994	2026-07-23T10:46:27	21.6	53.5
180995	2026-07-23T10:56:27	21.6	53.5
180996	2026-07-23T11:06:27	22.2	52.5
180997	2026-07-23T11:16:27	21.7	52
180998	2026-07-23T11:26:27	21.9	52
180999	2026-07-23T11:36:27	22.3	52
181000	2026-07-23T11:46:27	22.2	50.5
181001	2026-07-23T11:56:27	22.9	51.5
181002	2026-07-23T12:06:27	23.4	49
181003	2026-07-23T12:16:27	23.7	47.5
181004	2026-07-23T12:26:27	25.5	43.5
181005	2026-07-23T12:36:27	26.4	42
181006	2026-07-23T12:46:27	28.7	38.5
181007	2026-07-23T12:56:27	28.4	39
181008	2026-07-23T13:06:27	31.1	36
181009	2026-07-23T13:16:27	32.7	33.5
181010	2026-07-23T13:26:27	31.9	34
181011	2026-07-23T13:36:27	33.3	31.5
181012	2026-07-23T13:46:27	34	32.5
181013	2026-07-23T13:56:27	35.4	30.5
181014	2026-07-23T14:06:27	35.4	29
181015	2026-07-23T14:16:27	35.2	30
181016	2026-07-23T14:26:27	38.3	27.5
181017	2026-07-23T14:36:27	37.2	27.5
181018	2026-07-23T14:46:27	37.8	26
181019	2026-07-23T14:56:27	36.5	27.5
181020	2026-07-23T15:06:27	38.1	26.5
181021	2026-07-23T15:16:27	38.9	25.5
181022	2026-07-23T15:26:27	39.6	26
181023	2026-07-23T15:36:27	38.9	25.5
181024	2026-07-23T15:46:27	39.2	25
181025	2026-07-23T15:56:27	37.7	27
181026	2026-07-23T16:06:27	39.2	25.5
181027	2026-07-23T16:16:27	40.9	24
181028	2026-07-23T16:26:27	38.8	25
181029	2026-07-23T16:36:27	38.8	25
181030	2026-07-23T16:46:27	40.1	24.5
181031	2026-07-23T16:56:27	39.3	24.5
181032	2026-07-23T17:06:27	39.2	24.5
181033	2026-07-23T17:16:27	37.4	26
181034	2026-07-23T17:26:27	37.2	26.5
181035	2026-07-23T17:36:27	38.9	25.5
181036	2026-07-23T17:56:27	37.1	27.5
181037	2026-07-23T18:06:27	35.6	28
181038	2026-07-23T18:16:27	33.8	30
181039	2026-07-23T18:26:27	33.5	31
181040	2026-07-23T18:36:27	31.6	33
181041	2026-07-23T18:46:27	30	35.5
181042	2026-07-23T18:56:27	29.1	37.5
181043	2026-07-23T19:06:27	28.5	38.5
181044	2026-07-23T19:16:27	27.8	40
181045	2026-07-23T19:26:27	26.9	41.5
181046	2026-07-23T19:36:27	26.4	42.5
181047	2026-07-23T19:46:27	25.7	44
181048	2026-07-23T19:56:27	25.2	44.5
181049	2026-07-23T20:06:27	24.8	45.5
181050	2026-07-23T20:16:27	24.3	46
181051	2026-07-23T20:26:27	23.9	47
181052	2026-07-23T20:36:27	23.6	47.5
181053	2026-07-23T20:46:27	23.1	49.5
181054	2026-07-23T20:56:26	22.7	50
181055	2026-07-23T21:06:26	22	51.5
181056	2026-07-23T21:16:26	21.7	53
181057	2026-07-23T21:26:26	21.3	53.5
181058	2026-07-23T21:36:26	20.8	55
181059	2026-07-23T21:46:26	20.4	56.5
181060	2026-07-23T21:56:26	19.9	57.5
181061	2026-07-23T22:06:26	19.6	57.5
181062	2026-07-23T22:16:27	19.4	58.5
181063	2026-07-23T22:26:27	19	60
181064	2026-07-23T22:36:26	18.5	61
181065	2026-07-23T22:46:26	18.5	61
181066	2026-07-23T22:56:26	18.5	61
181067	2026-07-23T23:06:26	18.1	62
181068	2026-07-23T23:16:26	18.1	62.5
181069	2026-07-23T23:26:26	17.6	64
181070	2026-07-23T23:36:26	17.5	64
181071	2026-07-23T23:46:26	17.3	64.5
181072	2026-07-23T23:56:26	17.1	65.5
181073	2026-07-24T00:06:26	17	65
181074	2026-07-24T00:16:26	16.8	66.5
181075	2026-07-24T00:26:26	16.5	68
181076	2026-07-24T00:36:26	16.4	68
181077	2026-07-24T00:46:26	16.2	69.5
181078	2026-07-24T00:56:26	15.9	70
181079	2026-07-24T01:06:26	15.7	70.5
181080	2026-07-24T01:16:26	15.4	71
181081	2026-07-24T01:26:26	15.4	71.5
181082	2026-07-24T01:36:26	15.1	72
181083	2026-07-24T01:46:26	15	73
181084	2026-07-24T01:56:26	14.8	73.5
181085	2026-07-24T02:06:26	14.6	74
181086	2026-07-24T02:16:26	14.6	74
181087	2026-07-24T02:26:26	14.3	75
181088	2026-07-24T02:36:26	14.2	75
181089	2026-07-24T02:46:26	14	75
181090	2026-07-24T02:56:26	13.8	75.5
181091	2026-07-24T03:06:26	13.6	76.5
181092	2026-07-24T03:16:26	13.5	77
181093	2026-07-24T03:26:26	13.4	77.5
181094	2026-07-24T03:36:26	13.3	78
181095	2026-07-24T03:46:26	13.1	78.5
181096	2026-07-24T03:56:26	13.1	78.5
181097	2026-07-24T04:06:26	13.2	79
181098	2026-07-24T04:16:26	13.1	79
181099	2026-07-24T04:26:26	13	79.5
181100	2026-07-24T04:36:26	13.1	80
181101	2026-07-24T04:46:26	13.2	79.5
181102	2026-07-24T04:56:26	13.2	80
181103	2026-07-24T05:06:26	13.4	79.5
181104	2026-07-24T05:16:26	13.5	79.5
181105	2026-07-24T05:26:26	13.5	79.5
181106	2026-07-24T05:36:26	14	79.5
181107	2026-07-24T05:46:26	14	78.5
181108	2026-07-24T05:56:26	14.3	79
181109	2026-07-24T06:06:26	14.5	77
181110	2026-07-24T06:16:26	14.9	75.5
181111	2026-07-24T06:26:26	15	76
181112	2026-07-24T06:36:26	15.3	74.5
181113	2026-07-24T06:46:26	15.5	74
181114	2026-07-24T06:56:26	15.7	72
181115	2026-07-24T07:06:26	15.9	73
181116	2026-07-24T07:16:26	16.2	73
181117	2026-07-24T07:26:26	16.4	72
181118	2026-07-24T07:36:26	16.7	71.5
181119	2026-07-24T07:46:26	16.9	70
181120	2026-07-24T07:56:26	17.1	70
181121	2026-07-24T08:06:26	17.4	68.5
181122	2026-07-24T08:16:25	17.6	67
181123	2026-07-24T08:26:25	17.9	66.5
181124	2026-07-24T08:36:25	18.3	66
181125	2026-07-24T08:46:25	18.6	66.5
181126	2026-07-24T08:56:25	18.8	63.5
181127	2026-07-24T09:06:25	19.1	64.5
181128	2026-07-24T09:16:25	19.2	62.5
181129	2026-07-24T09:26:25	19.7	61
181130	2026-07-24T09:36:25	19.9	61
181131	2026-07-24T09:46:25	20.1	61.5
181132	2026-07-24T09:56:25	20.5	59
181133	2026-07-24T10:06:25	20.6	58.5
181134	2026-07-24T10:16:25	20.7	55.5
181135	2026-07-24T10:26:25	21.3	53.5
181136	2026-07-24T10:36:25	21.5	51.5
181137	2026-07-24T10:46:25	21.8	51
181138	2026-07-24T10:56:25	22	49.5
181139	2026-07-24T11:06:25	22.4	49.5
181140	2026-07-24T11:16:25	22.6	49
181141	2026-07-24T11:26:25	22.9	46.5
181142	2026-07-24T11:36:25	23.6	45
181143	2026-07-24T11:46:25	23.6	43
181144	2026-07-24T11:56:25	24	42
181145	2026-07-24T12:06:25	24.8	43
181146	2026-07-24T12:16:25	26	41.5
181147	2026-07-24T12:26:25	27.6	38
181148	2026-07-24T12:36:25	30.3	35.5
181149	2026-07-24T12:46:25	32.2	31
181150	2026-07-24T12:56:25	33.7	29.5
181151	2026-07-24T13:06:25	35	28
181152	2026-07-24T13:16:25	36.3	28
181153	2026-07-24T13:26:25	37.3	26.5
181154	2026-07-24T13:36:25	38.8	24.5
181155	2026-07-24T13:46:25	39.4	24.5
181156	2026-07-24T13:56:25	39.7	24
181157	2026-07-24T14:06:25	41	23.5
181158	2026-07-24T14:16:25	40.3	22.5
181159	2026-07-24T14:26:25	41.2	23.5
181160	2026-07-24T14:46:25	42.7	22.5
181161	2026-07-24T14:56:25	43.2	22
181162	2026-07-24T15:06:25	42.5	21
181163	2026-07-24T15:16:25	43.2	21
181164	2026-07-24T15:26:25	42.2	20.5
181165	2026-07-24T15:36:25	42.3	21
181166	2026-07-24T15:46:25	43.1	20.5
181167	2026-07-24T15:56:25	43.6	20
181168	2026-07-24T16:06:25	43.3	20
181169	2026-07-24T16:16:25	43	20.5
181170	2026-07-24T16:26:25	43.4	20.5
181171	2026-07-24T16:36:25	41.8	20
181172	2026-07-24T16:46:45	41.4	22
181173	2026-07-24T16:56:25	40.2	23
181174	2026-07-24T17:06:25	40.4	23.5
181175	2026-07-24T17:16:25	40.3	22
181176	2026-07-24T17:26:25	39.2	23
181177	2026-07-24T17:36:25	38.3	24
181178	2026-07-24T17:46:25	37.3	25
181179	2026-07-24T17:56:25	35.8	26.5
181180	2026-07-24T18:06:25	34.6	28.5
181181	2026-07-24T18:16:25	34	31
181182	2026-07-24T18:26:25	33	32.5
181183	2026-07-24T18:36:25	32.2	35.5
181184	2026-07-24T18:46:25	31.3	36.5
181185	2026-07-24T18:56:25	30.4	39.5
181186	2026-07-24T19:06:25	29.5	41
181187	2026-07-24T19:16:25	28.9	42
181188	2026-07-24T19:26:25	28.2	43
181189	2026-07-24T19:36:24	27.6	44
181190	2026-07-24T19:46:24	26.9	42.5
181191	2026-07-24T19:56:24	26.4	45
181192	2026-07-24T20:06:24	26.1	45.5
181193	2026-07-24T20:16:24	25.6	46
181194	2026-07-24T20:26:24	25.1	46.5
181195	2026-07-24T20:36:24	24.3	48
181196	2026-07-24T20:46:24	24.3	47.5
181197	2026-07-24T20:56:24	23.9	48
181198	2026-07-24T21:06:24	23.7	48.5
181199	2026-07-24T21:16:24	23.2	48.5
181200	2026-07-24T21:26:24	23.2	49.5
181201	2026-07-24T21:36:24	22.7	49.5
181202	2026-07-24T21:46:24	22.2	50.5
181203	2026-07-24T21:56:24	21.9	50.5
181204	2026-07-24T22:06:24	21.9	50
181205	2026-07-24T22:16:24	21.6	51
181206	2026-07-24T22:26:24	21.3	51
181207	2026-07-24T22:36:24	20.9	51.5
181208	2026-07-24T22:46:24	20.8	51
181209	2026-07-24T22:56:24	20.6	51
181210	2026-07-24T23:06:24	20.6	52
181211	2026-07-24T23:16:24	20.2	53.5
181212	2026-07-24T23:26:24	20	54.5
181213	2026-07-24T23:36:24	19.8	55
181214	2026-07-24T23:46:24	19.6	55
181215	2026-07-24T23:56:24	19.3	56.5
181216	2026-07-25T00:06:24	19.2	57.5
181217	2026-07-25T00:16:24	19	58
181218	2026-07-25T00:26:24	18.8	60.5
181219	2026-07-25T00:36:24	18.5	61
181220	2026-07-25T00:46:24	18.4	61
181221	2026-07-25T00:56:24	18.1	60.5
181222	2026-07-25T01:06:24	17.8	61.5
181223	2026-07-25T01:16:24	17.7	62
181224	2026-07-25T01:26:24	17.5	62.5
181225	2026-07-25T01:36:24	17.4	64
181226	2026-07-25T01:46:24	17.2	64.5
181227	2026-07-25T01:56:24	17	65.5
181228	2026-07-25T02:06:24	16.7	66.5
181229	2026-07-25T02:16:24	16.6	67
181230	2026-07-25T02:26:24	16.2	68
181231	2026-07-25T02:36:24	16.1	68.5
181232	2026-07-25T02:46:24	15.9	68.5
181233	2026-07-25T02:56:24	15.7	68.5
181234	2026-07-25T03:06:24	15.4	69.5
181235	2026-07-25T03:16:24	15.3	70
181236	2026-07-25T03:26:24	15	71.5
181237	2026-07-25T03:36:24	14.9	72
181238	2026-07-25T03:46:24	14.6	73
181239	2026-07-25T03:56:24	14.6	72.5
181240	2026-07-25T04:06:24	14.5	71.5
181241	2026-07-25T04:16:24	14.4	72
181242	2026-07-25T04:26:24	14.2	72.5
181243	2026-07-25T04:36:24	14.2	73.5
181244	2026-07-25T04:46:24	14.4	71.5
181245	2026-07-25T04:56:24	14.4	72
181246	2026-07-25T05:06:24	14.5	72.5
181247	2026-07-25T05:16:24	14.4	72
181248	2026-07-25T05:26:24	14.5	71
181249	2026-07-25T05:36:24	14.7	71
181250	2026-07-25T05:46:24	15	72.5
181251	2026-07-25T05:56:24	15.1	72
181252	2026-07-25T06:06:24	15.3	72
181253	2026-07-25T06:16:24	15.6	72.5
181254	2026-07-25T06:36:23	16.4	70.5
181255	2026-07-25T06:46:23	16.8	70
181256	2026-07-25T06:56:23	17.1	70.5
181257	2026-07-25T07:06:23	17.4	70
181258	2026-07-25T07:16:23	17.8	64.5
181259	2026-07-25T07:26:23	18.5	62
181260	2026-07-25T07:36:23	18.7	61.5
181261	2026-07-25T07:46:23	19.1	60
181262	2026-07-25T07:56:23	19.6	57.5
181263	2026-07-25T08:06:23	19.8	58.5
181264	2026-07-25T08:16:23	20.3	57.5
181265	2026-07-25T08:26:23	20.6	55.5
181266	2026-07-25T08:36:23	20.8	54.5
181267	2026-07-25T08:46:23	21.2	53
181268	2026-07-25T08:56:23	21.6	51.5
181269	2026-07-25T09:06:23	21.9	50
181270	2026-07-25T09:16:23	22	51.5
181271	2026-07-25T09:26:23	22.2	50.5
181272	2026-07-25T09:36:23	22.7	50
181273	2026-07-25T09:46:23	23	49.5
181274	2026-07-25T09:56:23	23.4	49
181275	2026-07-25T10:06:23	23.8	47
181276	2026-07-25T10:16:23	24.1	46
181277	2026-07-25T10:26:23	24.6	44
181278	2026-07-25T10:36:23	24.7	43.5
181279	2026-07-25T10:46:23	24.9	44.5
181280	2026-07-25T10:56:23	25.3	42
181281	2026-07-25T11:06:23	25.7	40.5
181282	2026-07-25T11:16:23	26	41
181283	2026-07-25T11:26:23	26.5	37.5
181284	2026-07-25T11:36:23	26.8	36
181285	2026-07-25T11:46:23	27.2	36
181286	2026-07-25T11:56:23	27.7	34
181287	2026-07-25T12:06:23	28.4	33.5
181288	2026-07-25T12:16:23	29.1	32.5
181289	2026-07-25T12:26:23	31.3	30
181290	2026-07-25T12:36:23	32.8	28.5
181291	2026-07-25T12:46:23	34.2	27
181292	2026-07-25T12:56:23	34.4	26
181293	2026-07-25T13:06:23	35.7	25.5
181294	2026-07-25T13:16:23	35.7	25.5
181295	2026-07-25T13:26:23	36.1	26
181296	2026-07-25T13:36:23	36.9	26
181297	2026-07-25T13:46:23	37.3	25
181298	2026-07-25T13:56:23	36.5	26
181299	2026-07-25T14:06:23	35.4	26.5
181300	2026-07-25T14:16:23	36.9	25
181301	2026-07-25T14:26:23	36.8	25
181302	2026-07-25T14:36:23	36.5	25.5
181303	2026-07-25T14:46:23	35.9	25.5
181304	2026-07-25T14:56:23	37.4	25
181305	2026-07-25T15:06:23	38.4	24
181306	2026-07-25T15:16:23	38.8	24.5
181307	2026-07-25T15:26:23	39.1	24
181308	2026-07-25T15:36:23	39.6	23
181309	2026-07-25T15:46:23	39.4	23.5
181310	2026-07-25T15:56:23	39.2	24
181311	2026-07-25T16:06:23	39.2	23.5
181312	2026-07-25T16:16:23	39.1	24
181313	2026-07-25T16:26:23	39.5	23
181314	2026-07-25T16:36:23	38.9	24
181315	2026-07-25T16:46:23	37.6	24
181316	2026-07-25T16:56:22	37.2	25
181317	2026-07-25T17:06:22	37.5	25
181318	2026-07-25T17:16:22	36.1	27
181319	2026-07-25T17:26:22	36.2	29
181320	2026-07-25T17:36:22	36.3	30
181321	2026-07-25T17:46:22	36.5	30
181322	2026-07-25T17:56:22	36.2	33
181323	2026-07-25T18:06:44	36	33.5
181324	2026-07-25T18:16:22	35.4	34
181325	2026-07-25T18:26:22	35	36
181326	2026-07-25T18:36:22	34.1	37
181327	2026-07-25T18:46:22	32.9	39
181328	2026-07-25T18:56:22	32	39.5
181329	2026-07-25T19:06:22	31.2	42
181330	2026-07-25T19:16:22	30.4	44.5
181331	2026-07-25T19:26:22	29.9	45
181332	2026-07-25T19:36:22	29.3	44.5
181333	2026-07-25T19:46:22	28.7	45.5
181334	2026-07-25T19:56:22	28.4	47
181335	2026-07-25T20:06:22	27.8	46.5
181336	2026-07-25T20:16:22	27.4	45.5
181337	2026-07-25T20:26:22	27.3	47.5
181338	2026-07-25T20:36:22	27.1	47
181339	2026-07-25T20:46:22	26.8	48
181340	2026-07-25T20:56:22	26.5	49
181341	2026-07-25T21:06:22	26.2	50
181342	2026-07-25T21:16:22	25.8	51.5
181343	2026-07-25T21:26:22	25.4	51
181344	2026-07-25T21:36:22	25.2	54
181345	2026-07-25T21:46:22	24.5	52
181346	2026-07-25T21:56:22	24.3	52.5
181347	2026-07-25T22:06:22	23.9	54
181348	2026-07-25T22:16:22	23.8	53.5
181349	2026-07-25T22:26:22	23.5	54
181350	2026-07-25T22:36:22	23.1	54.5
181351	2026-07-25T22:46:22	23	55
181352	2026-07-25T22:56:41	22.8	56
181353	2026-07-25T23:06:22	22.5	57
181354	2026-07-25T23:16:22	22.2	59.5
181355	2026-07-25T23:26:22	22	59.5
181356	2026-07-25T23:36:22	21.7	60.5
181357	2026-07-25T23:46:22	21.5	60
181358	2026-07-25T23:56:22	21.3	60.5
181359	2026-07-26T00:06:22	21.2	60.5
181360	2026-07-26T00:16:22	20.9	61
181361	2026-07-26T00:26:22	20.9	61.5
181362	2026-07-26T00:36:22	20.7	62
181363	2026-07-26T00:46:22	20.7	62
181364	2026-07-26T00:56:22	20.3	62.5
181365	2026-07-26T01:06:22	20.1	63
181366	2026-07-26T01:16:22	19.9	64
181367	2026-07-26T01:26:22	19.9	66
181368	2026-07-26T01:36:22	19.6	66.5
181369	2026-07-26T01:46:22	19.6	67
181370	2026-07-26T01:56:22	19.4	66.5
181371	2026-07-26T02:06:22	19.4	66.5
181372	2026-07-26T02:16:22	19.3	67.5
181373	2026-07-26T02:26:22	19.1	68
181374	2026-07-26T02:36:22	18.8	68
181375	2026-07-26T02:46:22	18.7	69
181376	2026-07-26T02:56:22	18.6	69.5
181377	2026-07-26T03:06:21	18.5	70
181378	2026-07-26T03:16:22	18.4	69.5
181379	2026-07-26T03:26:21	18.4	69.5
181380	2026-07-26T03:36:21	18.4	70
181381	2026-07-26T03:46:21	18.4	69
181382	2026-07-26T03:56:21	18.3	69.5
181383	2026-07-26T04:06:21	18.3	69
181384	2026-07-26T04:16:21	18.8	67.5
181385	2026-07-26T04:26:21	19.2	66
181386	2026-07-26T04:36:21	19.4	66
181387	2026-07-26T04:46:21	19.4	66
181388	2026-07-26T04:56:21	19.5	66
181389	2026-07-26T05:06:21	19.7	65.5
181390	2026-07-26T05:16:21	20	65
181391	2026-07-26T05:26:21	20.2	65
181392	2026-07-26T05:36:21	20.3	64
181393	2026-07-26T05:46:21	20.5	63.5
181394	2026-07-26T05:56:21	20.7	63.5
181395	2026-07-26T06:06:21	20.8	63
181396	2026-07-26T06:16:21	21	63
181397	2026-07-26T06:26:21	21.1	62.5
181398	2026-07-26T06:36:21	21.2	62.5
181399	2026-07-26T06:46:21	21.4	62
181400	2026-07-26T06:56:21	21.6	62
181401	2026-07-26T07:06:21	21.8	61.5
181402	2026-07-26T07:16:21	22	61
181403	2026-07-26T07:26:21	22.2	61
181404	2026-07-26T07:36:21	22.4	60
181405	2026-07-26T07:46:21	22.7	60.5
181406	2026-07-26T07:56:21	22.9	60
181407	2026-07-26T08:06:21	23.2	59.5
181408	2026-07-26T08:16:21	23.4	59
181409	2026-07-26T08:26:21	23.6	58.5
181410	2026-07-26T08:36:21	23.8	56.5
181411	2026-07-26T08:46:21	24	56
181412	2026-07-26T08:56:21	24.2	56
181413	2026-07-26T09:06:21	24.6	56
181414	2026-07-26T09:16:21	24.9	53
181415	2026-07-26T09:26:21	25	52.5
181416	2026-07-26T09:36:21	25.3	51
181417	2026-07-26T09:46:21	25.5	51.5
181418	2026-07-26T09:56:21	25.8	50
181419	2026-07-26T10:06:21	26	50
181420	2026-07-26T10:26:21	26.4	49.5
181421	2026-07-26T10:36:21	26.8	48
181422	2026-07-26T10:46:21	27.2	48
181423	2026-07-26T10:56:21	27.4	47
181424	2026-07-26T11:06:21	27.6	45
181425	2026-07-26T11:16:21	27.7	45
181426	2026-07-26T11:26:21	27.8	44.5
181427	2026-07-26T11:36:21	28	43.5
181428	2026-07-26T11:46:21	28.1	44
181429	2026-07-26T11:56:21	28.4	42.5
181430	2026-07-26T12:06:21	28.6	41.5
181431	2026-07-26T12:16:21	29.2	40
181432	2026-07-26T12:26:21	30.9	35.5
181433	2026-07-26T12:36:21	31.9	35
181434	2026-07-26T12:46:21	32.2	33.5
181435	2026-07-26T12:56:21	33	31.5
181436	2026-07-26T13:06:20	33	31
181437	2026-07-26T13:16:20	34	30.5
181438	2026-07-26T13:26:20	34.7	29.5
181439	2026-07-26T13:36:20	34.6	29.5
181440	2026-07-26T13:46:20	35.1	29
181441	2026-07-26T13:56:20	34.9	27
181442	2026-07-26T14:06:20	35.8	27.5
181443	2026-07-26T14:16:20	36	27
181444	2026-07-26T14:26:20	35.6	28
181445	2026-07-26T14:36:20	35.9	27.5
181446	2026-07-26T14:46:20	35.7	28
181447	2026-07-26T14:56:20	36.4	27.5
181448	2026-07-26T15:06:20	35.8	27.5
181449	2026-07-26T15:16:20	34.5	29
181450	2026-07-26T15:26:20	33	31
181451	2026-07-26T15:36:20	31.9	32.5
181452	2026-07-26T15:46:20	31.1	33
181453	2026-07-26T15:56:20	30.1	37.5
181454	2026-07-26T16:06:20	29.6	38.5
181455	2026-07-26T16:16:20	29.2	40
181456	2026-07-26T16:26:20	28.9	41
181457	2026-07-26T16:36:20	28.6	42.5
181458	2026-07-26T16:46:20	28.1	44
181459	2026-07-26T16:56:20	28	46
181460	2026-07-26T17:06:20	27.9	47
181461	2026-07-26T17:16:20	27.6	47.5
181462	2026-07-26T17:26:20	27.5	47.5
181463	2026-07-26T17:36:20	27.3	47.5
181464	2026-07-26T17:46:20	27.2	48
181465	2026-07-26T17:56:20	28.8	45
181466	2026-07-26T18:06:20	29.3	44
181467	2026-07-26T18:16:20	28.1	46
181468	2026-07-26T18:26:20	27.4	47.5
181469	2026-07-26T18:36:20	27.7	48
181470	2026-07-26T18:46:20	27	49.5
181471	2026-07-26T18:56:20	26.7	51
181472	2026-07-26T19:06:20	25.8	80.5
181473	2026-07-26T19:16:20	22.1	97.5
181474	2026-07-26T19:26:20	22.5	97
181475	2026-07-26T19:36:20	22.6	95
181476	2026-07-26T19:46:20	22.9	93
181477	2026-07-26T19:56:20	23.3	72
181478	2026-07-26T20:06:20	23.9	64.5
181479	2026-07-26T20:16:20	24.2	63
181480	2026-07-26T20:26:20	24.1	62.5
181481	2026-07-26T20:36:20	23.9	62.5
181482	2026-07-26T20:46:20	23.9	63
181483	2026-07-26T20:56:20	23.9	62.5
181484	2026-07-26T21:06:20	23.9	63
181485	2026-07-26T21:16:20	23.7	63
181486	2026-07-26T21:26:20	23.5	64
181487	2026-07-26T21:36:20	23.5	63.5
181488	2026-07-26T21:46:20	23.5	64
181489	2026-07-26T21:56:20	23.4	64
181490	2026-07-26T22:06:20	23.4	63.5
181491	2026-07-26T22:16:20	23.4	63
181492	2026-07-26T22:26:20	23.4	62.5
181493	2026-07-26T22:36:20	23.4	62
181494	2026-07-26T22:46:20	23.3	62
181495	2026-07-26T22:56:20	23.2	62
181496	2026-07-26T23:06:20	23.2	62.5
181497	2026-07-26T23:16:19	23.3	62.5
181498	2026-07-26T23:26:19	23.2	63.5
181499	2026-07-26T23:36:19	23	64.5
181500	2026-07-26T23:46:19	23	64.5
181501	2026-07-26T23:56:19	23	65
181502	2026-07-27T00:06:19	23	65
181503	2026-07-27T00:16:19	22.9	65.5
181504	2026-07-27T00:26:19	22.7	66
181505	2026-07-27T00:36:19	22.6	66.5
181506	2026-07-27T00:46:19	22.8	67
181507	2026-07-27T00:56:19	22.8	67
181508	2026-07-27T01:06:19	22.7	67.5
181509	2026-07-27T01:16:19	22.7	67.5
181510	2026-07-27T01:26:19	22.7	68
181511	2026-07-27T01:36:19	22.7	68
181512	2026-07-27T01:46:19	22.8	67.5
181513	2026-07-27T01:56:19	22.3	72.5
181514	2026-07-27T02:06:19	20.4	97.5
181515	2026-07-27T02:16:19	19.7	100
181516	2026-07-27T02:26:19	19.8	100
181517	2026-07-27T02:36:19	18.8	100
181518	2026-07-27T02:46:19	18.5	100
181519	2026-07-27T02:56:19	18.4	100
181520	2026-07-27T03:06:19	18.3	100
181521	2026-07-27T03:16:19	18	100
181522	2026-07-27T03:36:19	17.8	100
181523	2026-07-27T03:46:19	17.7	100
181524	2026-07-27T03:56:19	17.7	100
181525	2026-07-27T04:06:19	17.6	100
181526	2026-07-27T04:16:19	17.6	100
181527	2026-07-27T04:26:19	17.4	100
181528	2026-07-27T04:36:19	17.4	100
181529	2026-07-27T04:46:19	17.5	100
181530	2026-07-27T04:56:19	17.5	100
181531	2026-07-27T05:06:19	17.6	100
181532	2026-07-27T05:16:19	17.7	100
181533	2026-07-27T05:26:19	17.7	100
181534	2026-07-27T05:36:19	17.5	100
181535	2026-07-27T05:46:19	17.8	100
181536	2026-07-27T05:56:19	18	100
181537	2026-07-27T06:06:19	18.2	100
181538	2026-07-27T06:16:19	18.6	100
181539	2026-07-27T06:26:19	18.4	100
181540	2026-07-27T06:36:19	18.5	100
181541	2026-07-27T06:46:19	18.7	100
181542	2026-07-27T06:56:19	18.6	100
181543	2026-07-27T07:06:19	18.8	100
181544	2026-07-27T07:16:19	19.2	100
181545	2026-07-27T07:26:19	19.4	100
181546	2026-07-27T07:36:19	19.6	100
181547	2026-07-27T07:46:19	19.6	100
181548	2026-07-27T07:56:19	19.7	100
181549	2026-07-27T08:06:19	20.2	88
181550	2026-07-27T08:16:19	20.6	81.5
181551	2026-07-27T08:26:19	20.9	78.5
181552	2026-07-27T08:36:19	21.3	76
181553	2026-07-27T08:46:19	21.7	74.5
181554	2026-07-27T08:56:19	21.7	73
181555	2026-07-27T09:06:19	21.7	73
181556	2026-07-27T09:16:19	22	71.5
181557	2026-07-27T09:26:19	22.2	71
181558	2026-07-27T09:36:19	22.6	70.5
181559	2026-07-27T09:46:19	22.6	69
181560	2026-07-27T09:56:18	22.8	67.5
181561	2026-07-27T10:06:19	23.3	67
181562	2026-07-27T10:16:18	23.4	66.5
181563	2026-07-27T10:26:18	23.9	65.5
181564	2026-07-27T10:36:18	24.2	64.5
181565	2026-07-27T10:46:18	24.3	64
181566	2026-07-27T10:56:18	24.5	61.5
181567	2026-07-27T11:06:18	24.2	61.5
181568	2026-07-27T11:16:18	23.9	62
181569	2026-07-27T11:26:18	24.5	61
181570	2026-07-27T11:36:18	25.4	59
181571	2026-07-27T11:46:18	24.8	60
181572	2026-07-27T11:56:18	24.6	60
181573	2026-07-27T12:06:18	24.8	59
181574	2026-07-27T12:16:18	24.6	59.5
181575	2026-07-27T12:26:18	24.4	60.5
181576	2026-07-27T12:36:18	24.5	59
181577	2026-07-27T12:46:18	26.3	55.5
181578	2026-07-27T12:56:18	25.6	55.5
181579	2026-07-27T13:06:18	27.4	51.5
181580	2026-07-27T13:16:18	28.4	47.5
181581	2026-07-27T13:26:18	28.2	47
181582	2026-07-27T13:36:18	27.4	45.5
181583	2026-07-27T13:46:18	28.9	43.5
181584	2026-07-27T13:56:18	30.5	42.5
181585	2026-07-27T14:06:18	30.6	41
181586	2026-07-27T14:16:18	29.3	43
181587	2026-07-27T14:26:18	29.2	43
181588	2026-07-27T14:36:18	29.7	41.5
181589	2026-07-27T14:46:18	29.9	41
181590	2026-07-27T14:56:18	30.4	39.5
181591	2026-07-27T15:06:18	30.8	39
181592	2026-07-27T15:16:18	29.8	41
181593	2026-07-27T15:26:18	31.5	38.5
181594	2026-07-27T15:36:18	31	39
181595	2026-07-27T15:46:18	30.7	40
181596	2026-07-27T15:56:18	32	39
181597	2026-07-27T16:06:18	32.7	37.5
181598	2026-07-27T16:16:18	33.2	37
181599	2026-07-27T16:26:18	34.9	35
181600	2026-07-27T16:36:18	34.3	36
181601	2026-07-27T16:46:18	34	35.5
181602	2026-07-27T16:56:18	33.4	36
181603	2026-07-27T17:06:18	34	35.5
181604	2026-07-27T17:16:18	32.8	36
181605	2026-07-27T17:26:18	31	39
181606	2026-07-27T17:36:18	31.1	40
181607	2026-07-27T17:46:18	32.5	38
181608	2026-07-27T17:56:18	31.1	39.5
181609	2026-07-27T18:06:18	30.3	41.5
181610	2026-07-27T18:16:18	31	40.5
181611	2026-07-27T18:26:18	30.5	41.5
181612	2026-07-27T18:36:18	29.4	43.5
181613	2026-07-27T18:46:18	28.4	45.5
181614	2026-07-27T18:56:17	27.5	48
181615	2026-07-27T19:06:17	27.3	50
181616	2026-07-27T19:16:17	26.7	52.5
181617	2026-07-27T19:26:17	26.1	54.5
181618	2026-07-27T19:36:17	25.6	55.5
181619	2026-07-27T19:46:17	25.1	56
181620	2026-07-27T19:56:17	24.7	56.5
181621	2026-07-27T20:06:17	24.4	57.5
181622	2026-07-27T20:16:17	24	58.5
181623	2026-07-27T20:26:17	23.6	59.5
181624	2026-07-27T20:36:17	23.3	60.5
181625	2026-07-27T20:46:17	22.7	61.5
181626	2026-07-27T20:56:17	22.5	62
181627	2026-07-27T21:06:17	22.3	63
181628	2026-07-27T21:16:17	22.1	65
181629	2026-07-27T21:26:17	21.7	65
181630	2026-07-27T21:36:17	21.4	66
181631	2026-07-27T21:46:17	21.3	67
181632	2026-07-27T21:56:17	21.1	67
181633	2026-07-27T22:06:17	20.8	67
181634	2026-07-27T22:16:17	20.6	69
181635	2026-07-27T22:26:17	20.4	69.5
181636	2026-07-27T22:36:17	20.2	70
181637	2026-07-27T22:46:17	19.9	69.5
181638	2026-07-27T22:56:17	19.8	70.5
181639	2026-07-27T23:06:17	19.6	71
181640	2026-07-27T23:16:17	19.4	71
181641	2026-07-27T23:26:17	19.1	72.5
181642	2026-07-27T23:36:17	18.9	72.5
181643	2026-07-27T23:46:17	18.7	73
181644	2026-07-27T23:56:17	18.7	73.5
181645	2026-07-28T00:06:17	18.5	74
181646	2026-07-28T00:16:17	18.4	74
181647	2026-07-28T00:26:17	18.3	74
181648	2026-07-28T00:36:17	17.9	75
181649	2026-07-28T00:46:17	17.7	75.5
181650	2026-07-28T00:56:17	17.6	76
181651	2026-07-28T01:06:17	17.5	77
181652	2026-07-28T01:16:17	17.4	77.5
181653	2026-07-28T01:26:17	17.2	77.5
181654	2026-07-28T01:36:17	17	78
181655	2026-07-28T01:46:17	17	78.5
181656	2026-07-28T01:56:17	16.7	78.5
181657	2026-07-28T02:06:17	16.5	79.5
181658	2026-07-28T02:16:17	16.5	79.5
181659	2026-07-28T02:26:17	16.3	80
181660	2026-07-28T02:36:17	16.2	81
181661	2026-07-28T02:46:17	16.1	80.5
181662	2026-07-28T02:56:17	16	81.5
181663	2026-07-28T03:06:17	15.8	81.5
181664	2026-07-28T03:16:17	15.8	81.5
181665	2026-07-28T03:26:17	15.5	82.5
181666	2026-07-28T03:36:17	15.5	83
181667	2026-07-28T03:46:17	15.3	83
181668	2026-07-28T03:56:17	15.3	83
181669	2026-07-28T04:06:17	15.3	83
181670	2026-07-28T04:16:17	15.2	83.5
181671	2026-07-28T04:26:17	15.2	83.5
181672	2026-07-28T04:36:17	15.3	83
181673	2026-07-28T04:46:17	15.2	83
181674	2026-07-28T04:56:17	15.3	83
181675	2026-07-28T05:06:17	15.3	83
181676	2026-07-28T05:16:17	15.5	83
181677	2026-07-28T05:26:17	15.7	83.5
181678	2026-07-28T05:36:17	15.8	83.5
181679	2026-07-28T05:46:17	15.9	83.5
181680	2026-07-28T05:56:17	16.2	84
181681	2026-07-28T06:06:16	16.3	83
181682	2026-07-28T06:16:16	16.6	83
181683	2026-07-28T06:26:16	16.9	81
181684	2026-07-28T06:36:16	17	81
181685	2026-07-28T06:56:16	17.6	79
181686	2026-07-28T07:16:16	18.2	77
181687	2026-07-28T07:26:16	18.6	76
181688	2026-07-28T07:36:16	19	74
181689	2026-07-28T07:46:16	19.4	71
181690	2026-07-28T07:56:16	19.6	70.5
181691	2026-07-28T08:06:16	20.1	69
181692	2026-07-28T08:16:16	20.2	67
181693	2026-07-28T08:26:16	20.6	66.5
181694	2026-07-28T08:36:16	21	64.5
181695	2026-07-28T08:46:16	21.1	65
181696	2026-07-28T08:56:16	21.5	62
181697	2026-07-28T09:06:16	21.7	60
181698	2026-07-28T09:16:16	22	61
181699	2026-07-28T09:26:16	22.1	59.5
181700	2026-07-28T09:36:16	22.6	57.5
181701	2026-07-28T09:46:16	22.7	57
181702	2026-07-28T09:56:16	23.1	56.5
181703	2026-07-28T10:06:16	23.4	56.5
181704	2026-07-28T10:16:16	23.4	56
181705	2026-07-28T10:26:16	23.7	56
181706	2026-07-28T10:36:16	24.1	52.5
181707	2026-07-28T10:46:16	24.5	49.5
181708	2026-07-28T10:56:16	24.5	51.5
181709	2026-07-28T11:06:16	25	48
181710	2026-07-28T11:16:16	25.3	47.5
181711	2026-07-28T11:26:16	25.5	49
181712	2026-07-28T11:36:16	26	47.5
181713	2026-07-28T11:46:16	26.5	46.5
181714	2026-07-28T11:56:16	26.9	45
181715	2026-07-28T12:06:16	27.8	42.5
181716	2026-07-28T12:16:16	28.7	39
181717	2026-07-28T12:26:16	31.7	37.5
181718	2026-07-28T12:36:16	33.6	35
181719	2026-07-28T12:46:16	34.9	32.5
181720	2026-07-28T12:56:16	35.9	31.5
181721	2026-07-28T13:06:16	37.5	30.5
181722	2026-07-28T13:16:16	38.1	29.5
181723	2026-07-28T13:26:16	39.4	28.5
181724	2026-07-28T13:36:16	40.3	27.5
181725	2026-07-28T13:46:16	40.9	26
181726	2026-07-28T13:56:16	40.9	26.5
181727	2026-07-28T14:06:16	41.7	25.5
181728	2026-07-28T14:16:16	41.6	25
181729	2026-07-28T14:26:16	43.1	24.5
181730	2026-07-28T14:36:16	42.8	24.5
181731	2026-07-28T14:46:16	43.1	24.5
181732	2026-07-28T14:56:16	44.2	24
181733	2026-07-28T15:06:16	45.5	23.5
181734	2026-07-28T15:16:16	45.8	23
181735	2026-07-28T15:26:16	45.2	22.5
181736	2026-07-28T15:36:16	44.4	23
181737	2026-07-28T15:46:16	45	23
181738	2026-07-28T15:56:16	45.5	22.5
181739	2026-07-28T16:06:16	45.3	23
181740	2026-07-28T16:16:16	46.2	22
181741	2026-07-28T16:26:16	45.9	22.5
181742	2026-07-28T16:36:16	46.1	23
181743	2026-07-28T16:46:16	46.4	22
181744	2026-07-28T16:56:16	46.4	22.5
181745	2026-07-28T17:06:16	45.3	23
181746	2026-07-28T17:16:16	45.9	23.5
181747	2026-07-28T17:26:16	45.1	23
181748	2026-07-28T17:36:15	45.3	23.5
181749	2026-07-28T17:46:15	43.8	24
181750	2026-07-28T17:56:16	41.2	25.5
181751	2026-07-28T18:06:15	39.3	27.5
181752	2026-07-28T18:16:15	39.7	27.5
181753	2026-07-28T18:26:15	39.7	27
181754	2026-07-28T18:36:15	39.2	28
181755	2026-07-28T18:46:15	36.9	31
181756	2026-07-28T18:56:15	35	33.5
181757	2026-07-28T19:06:15	33.7	35
181758	2026-07-28T19:16:15	32.7	36
181759	2026-07-28T19:26:15	32.3	37.5
181760	2026-07-28T19:36:15	31.6	39
181761	2026-07-28T19:46:15	31	40.5
181762	2026-07-28T19:56:15	30.5	41.5
181763	2026-07-28T20:06:15	30	42
181764	2026-07-28T20:16:15	29.6	43
181765	2026-07-28T20:26:15	29.2	43
181766	2026-07-28T20:36:15	28.7	43.5
181767	2026-07-28T20:46:15	27.9	46
181768	2026-07-28T20:56:15	27.5	46.5
181769	2026-07-28T21:06:15	26.9	47.5
181770	2026-07-28T21:16:15	26.6	48
181771	2026-07-28T21:26:15	26.1	48.5
181772	2026-07-28T21:36:15	25.9	49
181773	2026-07-28T21:46:15	25.6	50
181774	2026-07-28T21:56:15	25.2	50.5
181775	2026-07-28T22:06:15	25	50.5
181776	2026-07-28T22:16:15	24.9	51
181777	2026-07-28T22:26:15	24.7	51.5
181778	2026-07-28T22:36:15	24.5	51.5
181779	2026-07-28T22:46:15	24.4	51.5
181780	2026-07-28T22:56:15	24.3	52
181781	2026-07-28T23:06:15	24.1	52
181782	2026-07-28T23:16:15	23.7	52
181783	2026-07-28T23:26:15	23.4	53
181784	2026-07-28T23:36:15	23.4	54
181785	2026-07-28T23:46:15	23.1	55
181786	2026-07-28T23:56:15	22.9	56
181787	2026-07-29T00:06:15	22.7	57
181788	2026-07-29T00:16:15	22.5	57.5
181789	2026-07-29T00:26:15	22.5	58.5
181790	2026-07-29T00:36:15	22.1	58.5
181791	2026-07-29T00:46:15	21.9	59.5
181792	2026-07-29T00:56:15	21.8	59.5
181793	2026-07-29T01:06:15	21.5	61
181794	2026-07-29T01:16:15	21.4	61.5
181795	2026-07-29T01:26:15	21.4	62
181796	2026-07-29T01:36:15	21.1	62.5
181797	2026-07-29T01:46:15	21	63
181798	2026-07-29T01:56:15	20.7	64
181799	2026-07-29T02:06:15	20.6	65
181800	2026-07-29T02:16:15	20.3	65
181801	2026-07-29T02:26:15	20.1	66
181802	2026-07-29T02:36:15	19.9	65.5
181803	2026-07-29T02:46:15	19.8	66
181804	2026-07-29T02:56:15	19.9	67
181805	2026-07-29T03:06:15	19.8	67
181806	2026-07-29T03:16:15	19.5	67.5
181807	2026-07-29T03:26:15	19.3	69
181808	2026-07-29T03:36:15	19.2	70
181809	2026-07-29T03:46:14	18.8	71.5
181810	2026-07-29T03:56:14	18.7	73.5
181811	2026-07-29T04:06:15	18.8	72
181812	2026-07-29T04:16:14	18.7	72
181813	2026-07-29T04:26:14	18.7	72.5
181814	2026-07-29T04:36:14	18.5	73
181815	2026-07-29T04:46:14	18.7	72.5
181816	2026-07-29T04:56:14	18.7	72.5
181817	2026-07-29T05:06:14	18.8	72.5
181818	2026-07-29T05:16:14	18.9	73
181819	2026-07-29T05:26:14	19	74
181820	2026-07-29T05:36:14	19.3	72.5
181821	2026-07-29T05:46:14	19.3	73
181822	2026-07-29T05:56:14	19.5	73
181823	2026-07-29T06:06:14	19.6	72.5
181824	2026-07-29T06:16:14	19.9	71.5
181825	2026-07-29T06:26:14	20	70
181826	2026-07-29T06:36:14	20.3	69
181827	2026-07-29T06:46:14	20.7	69.5
181828	2026-07-29T06:56:14	20.8	69.5
181829	2026-07-29T07:06:14	21.1	67.5
181830	2026-07-29T07:16:14	21.5	67.5
181831	2026-07-29T07:26:14	21.9	66
181832	2026-07-29T07:36:14	22.2	65
181833	2026-07-29T07:46:14	22.5	63.5
181834	2026-07-29T07:56:14	22.9	63.5
181835	2026-07-29T08:06:14	22.9	62
181836	2026-07-29T08:16:14	23.4	63.5
181837	2026-07-29T08:26:14	23.5	62.5
181838	2026-07-29T08:36:14	23.9	61
181839	2026-07-29T08:46:14	24.4	59
181840	2026-07-29T08:56:14	24.8	58.5
181841	2026-07-29T09:06:14	25	59
181842	2026-07-29T09:16:14	25.2	58
181843	2026-07-29T09:26:14	25.6	58
181844	2026-07-29T09:36:14	25.9	56.5
181845	2026-07-29T09:46:14	26.5	55.5
181846	2026-07-29T09:56:14	26.7	55.5
181847	2026-07-29T10:06:14	27.4	53
181848	2026-07-29T10:16:14	27.4	52.5
181849	2026-07-29T10:26:14	28.4	51
181850	2026-07-29T10:36:14	28.9	49
181851	2026-07-29T10:46:14	29.3	48.5
181852	2026-07-29T10:56:14	29.4	49
181853	2026-07-29T11:06:14	29.8	48
181854	2026-07-29T11:16:14	30.1	47.5
181855	2026-07-29T11:26:14	30.4	47
181856	2026-07-29T11:36:14	30.8	46.5
181857	2026-07-29T11:46:14	31.1	46.5
181858	2026-07-29T11:56:14	31.6	44.5
181859	2026-07-29T12:06:14	32.5	43.5
181860	2026-07-29T12:16:14	33.4	42
181861	2026-07-29T12:26:14	35.8	37.5
181862	2026-07-29T12:36:14	37.9	34.5
181863	2026-07-29T12:46:14	38.6	33.5
181864	2026-07-29T12:56:14	39.5	30.5
181865	2026-07-29T13:06:14	40.6	30
181866	2026-07-29T13:16:14	40.9	30
181867	2026-07-29T13:26:14	42.1	29
181868	2026-07-29T13:36:14	41.8	29
181869	2026-07-29T13:46:14	43.1	28
181870	2026-07-29T13:56:14	43.6	27.5
181871	2026-07-29T14:06:14	43.3	27.5
181872	2026-07-29T14:16:13	43.8	28
181873	2026-07-29T14:26:13	44.3	26.5
181874	2026-07-29T14:36:13	44.3	26.5
181875	2026-07-29T14:46:13	44.6	26
181876	2026-07-29T14:56:14	43.8	26.5
181877	2026-07-29T15:06:13	44.4	26.5
181878	2026-07-29T15:16:13	43.3	26.5
181879	2026-07-29T15:36:13	43.7	26
181880	2026-07-29T15:46:13	44.5	26.5
181881	2026-07-29T15:56:13	45.3	25
181882	2026-07-29T16:06:13	44.6	25.5
181883	2026-07-29T16:16:13	44	25.5
181884	2026-07-29T16:26:13	43.9	26
181885	2026-07-29T16:36:13	44	26
181886	2026-07-29T16:46:13	44.7	26
181887	2026-07-29T16:56:13	45	25.5
181888	2026-07-29T17:06:13	44.1	26
181889	2026-07-29T17:16:13	44.4	25.5
181890	2026-07-29T17:26:13	43.4	26.5
181891	2026-07-29T17:36:13	44.5	25.5
181892	2026-07-29T17:46:13	44.1	26.5
181893	2026-07-29T17:56:13	43	28
181894	2026-07-29T18:06:13	41.9	29.5
181895	2026-07-29T18:16:13	41.4	31
181896	2026-07-29T18:26:13	42	33
181897	2026-07-29T18:36:13	41.1	34
181898	2026-07-29T18:46:13	39.2	36
181899	2026-07-29T18:56:13	37.7	37.5
181900	2026-07-29T19:06:13	36.6	39
181901	2026-07-29T19:16:13	35.9	41.5
181902	2026-07-29T19:26:13	35.2	45
181903	2026-07-29T19:36:13	34.7	44.5
181904	2026-07-29T19:46:13	34.1	44.5
181905	2026-07-29T19:56:13	33.8	46
181906	2026-07-29T20:06:13	33	46.5
181907	2026-07-29T20:16:13	32.8	46.5
181908	2026-07-29T20:26:13	32.2	48
181909	2026-07-29T20:36:13	32	48
181910	2026-07-29T20:46:13	31.6	49.5
181911	2026-07-29T20:56:13	31.3	51
181912	2026-07-29T21:06:13	31	50.5
181913	2026-07-29T21:16:13	30.6	51
181914	2026-07-29T21:26:13	30.3	52.5
181915	2026-07-29T21:46:13	29.6	53.5
181916	2026-07-29T22:06:13	28.3	57
181917	2026-07-29T22:16:13	28.6	56
181918	2026-07-29T22:26:13	28.2	56.5
181919	2026-07-29T22:36:13	28.1	57
181920	2026-07-29T22:46:13	27.8	58
181921	2026-07-29T22:56:13	27.5	58.5
181922	2026-07-29T23:06:13	27.3	58
181923	2026-07-29T23:16:13	27.1	58.5
181924	2026-07-29T23:26:13	26.7	60
181925	2026-07-29T23:36:13	26.4	60.5
181926	2026-07-29T23:46:13	26.1	61
181927	2026-07-29T23:56:13	25.8	61
181928	2026-07-30T00:06:13	25.6	62
181929	2026-07-30T00:16:13	25.4	63.5
181930	2026-07-30T00:26:13	25.2	63.5
181931	2026-07-30T00:36:13	25	64
181932	2026-07-30T00:46:13	24.8	63.5
181933	2026-07-30T00:56:13	24.5	64
181934	2026-07-30T01:06:13	24.3	65
181935	2026-07-30T01:16:13	24	65.5
181936	2026-07-30T01:26:12	24	66
181937	2026-07-30T01:36:12	23.6	66
181938	2026-07-30T01:46:12	23.5	67
181939	2026-07-30T01:56:12	23.2	68
181940	2026-07-30T02:06:12	23	68.5
181941	2026-07-30T02:16:12	22.9	68.5
181942	2026-07-30T02:26:12	22.6	69.5
181943	2026-07-30T02:36:12	22.4	70.5
181944	2026-07-30T02:46:12	22.2	69.5
181945	2026-07-30T02:56:12	22	70
181946	2026-07-30T03:06:12	21.9	70.5
181947	2026-07-30T03:16:12	21.7	71
181948	2026-07-30T03:26:12	21.5	71.5
181949	2026-07-30T03:36:12	21.4	72
181950	2026-07-30T03:46:12	21.3	72
181951	2026-07-30T03:56:12	21.1	72.5
181952	2026-07-30T04:06:12	21	72.5
181953	2026-07-30T04:16:12	21.1	73
181954	2026-07-30T04:26:12	20.9	71.5
181955	2026-07-30T04:36:12	20.9	70.5
181956	2026-07-30T04:46:12	21	71
181957	2026-07-30T04:56:12	20.9	72
181958	2026-07-30T05:06:12	21	72.5
181959	2026-07-30T05:16:12	21	72.5
181960	2026-07-30T05:26:12	21.2	72.5
181961	2026-07-30T05:36:12	21.3	72.5
181962	2026-07-30T05:46:12	21.4	73
181963	2026-07-30T05:56:12	21.6	71
181964	2026-07-30T06:06:12	21.9	69.5
181965	2026-07-30T06:16:12	22.1	68
181966	2026-07-30T06:26:12	22.3	67.5
181967	2026-07-30T06:36:12	22.5	67.5
181968	2026-07-30T06:46:12	22.8	67.5
181969	2026-07-30T06:56:12	23	67
181970	2026-07-30T07:06:12	23.4	66
181971	2026-07-30T07:16:12	23.6	64.5
181972	2026-07-30T07:26:12	23.9	65
181973	2026-07-30T07:36:12	24.2	64
181974	2026-07-30T07:46:12	24.6	62.5
181975	2026-07-30T07:56:12	24.9	60
181976	2026-07-30T08:06:12	25.4	59
181977	2026-07-30T08:16:12	25.8	58.5
181978	2026-07-30T08:26:12	25.8	58.5
181979	2026-07-30T08:36:12	26.3	58
181980	2026-07-30T08:46:12	26.7	57
181981	2026-07-30T08:56:12	27.3	54
181982	2026-07-30T09:06:12	27.5	56
181983	2026-07-30T09:16:12	27.9	55.5
181984	2026-07-30T09:26:12	28.1	55.5
181985	2026-07-30T09:36:12	28.5	55
181986	2026-07-30T09:46:12	29.1	53.5
181987	2026-07-30T09:56:12	29.5	53
181988	2026-07-30T10:06:12	30	52
181989	2026-07-30T10:16:12	30.1	51.5
181990	2026-07-30T10:26:12	30.5	51
181991	2026-07-30T10:36:12	31.2	48.5
181992	2026-07-30T10:46:12	31.4	48
181993	2026-07-30T10:56:12	32	47
181994	2026-07-30T11:06:11	32.3	45
181995	2026-07-30T11:16:12	32.8	43
181996	2026-07-30T11:26:11	33.4	39.5
181997	2026-07-30T11:36:11	33.9	37.5
181998	2026-07-30T11:46:11	34.2	36.5
181999	2026-07-30T11:56:11	34.7	37
182000	2026-07-30T12:06:11	35.5	34
182001	2026-07-30T12:16:11	36.5	32.5
182002	2026-07-30T12:26:11	39.1	29
182003	2026-07-30T12:36:11	40.4	27.5
182004	2026-07-30T12:46:11	41.4	26
182005	2026-07-30T12:56:11	42	24
182006	2026-07-30T13:06:11	41.8	24
182007	2026-07-30T13:16:11	39.7	25.5
182008	2026-07-30T13:26:11	38.3	30
182009	2026-07-30T13:36:11	38.8	30
182010	2026-07-30T13:46:11	37.9	30.5
182011	2026-07-30T13:56:11	39	30
182012	2026-07-30T14:06:11	38.8	30.5
182013	2026-07-30T14:16:11	39.6	30.5
182014	2026-07-30T14:26:11	39.4	30
182015	2026-07-30T14:36:11	38.7	31.5
182016	2026-07-30T14:46:11	37.2	32.5
182017	2026-07-30T14:56:11	36.3	34
182018	2026-07-30T15:06:11	34.6	34.5
182019	2026-07-30T15:16:11	33.7	35.5
182020	2026-07-30T15:26:11	33.4	36.5
182021	2026-07-30T15:36:11	32.9	37
182022	2026-07-30T15:46:11	32.7	37.5
182023	2026-07-30T15:56:11	32.5	38.5
182024	2026-07-30T16:06:11	32.2	39.5
182025	2026-07-30T16:16:11	31.7	40.5
182026	2026-07-30T16:26:11	29.7	53.5
182027	2026-07-30T16:36:11	30	53.5
182028	2026-07-30T16:46:11	30.2	53
182029	2026-07-30T16:56:11	32.2	45.5
182030	2026-07-30T17:06:11	35.1	39
182031	2026-07-30T17:16:11	35.5	38
182032	2026-07-30T17:26:11	36.6	36.5
182033	2026-07-30T17:36:11	37.3	37
182034	2026-07-30T17:46:11	37	36.5
182035	2026-07-30T17:56:11	35.5	38
182036	2026-07-30T18:06:11	34.1	40.5
182037	2026-07-30T18:16:11	33.3	42
182038	2026-07-30T18:26:11	33.5	41.5
182039	2026-07-30T18:36:11	32.8	42.5
182040	2026-07-30T18:46:11	32	45.5
182041	2026-07-30T18:56:11	30.8	47.5
182042	2026-07-30T19:06:11	30.3	48
182043	2026-07-30T19:16:11	29.8	49.5
182044	2026-07-30T19:26:11	29.4	51
182045	2026-07-30T19:36:11	28.9	51.5
182046	2026-07-30T19:46:11	28.6	52.5
182047	2026-07-30T19:56:11	28.3	53.5
182048	2026-07-30T20:06:11	28	53.5
182049	2026-07-30T20:16:11	27.8	54.5
182050	2026-07-30T20:26:11	27.4	55.5
182051	2026-07-30T20:36:11	27.1	56
182052	2026-07-30T20:46:11	26.6	58
182053	2026-07-30T20:56:11	26.4	59.5
182054	2026-07-30T21:06:11	26.5	59
182055	2026-07-30T21:16:11	26	60.5
182056	2026-07-30T21:26:11	25.9	61
182057	2026-07-30T21:36:11	25.6	61.5
182058	2026-07-30T21:46:10	25.2	63
182059	2026-07-30T21:56:10	25.3	63
182060	2026-07-30T22:06:10	24.7	64
182061	2026-07-30T22:16:10	24.7	63.5
182062	2026-07-30T22:26:10	24.8	63.5
182063	2026-07-30T22:36:10	24.7	63.5
182064	2026-07-30T22:46:10	24.3	65
182065	2026-07-30T22:56:10	24.2	65.5
182066	2026-07-30T23:06:10	23.9	66
182067	2026-07-30T23:16:10	23.8	66.5
182068	2026-07-30T23:26:10	23.7	65.5
182069	2026-07-30T23:36:10	23.6	66.5
182070	2026-07-30T23:46:10	23.4	67.5
182071	2026-07-30T23:56:10	23.2	68
182072	2026-07-31T00:06:10	23	69
182073	2026-07-31T00:16:10	23	69.5
182074	2026-07-31T00:26:10	22.8	69.5
182075	2026-07-31T00:36:10	22.7	69.5
182076	2026-07-31T00:46:10	22.6	71
182077	2026-07-31T00:56:10	22.5	70
182078	2026-07-31T01:16:10	22.2	72
182079	2026-07-31T01:26:10	22	72.5
182080	2026-07-31T01:36:10	21.7	72.5
182081	2026-07-31T01:46:10	21.6	72.5
182082	2026-07-31T01:56:10	21.4	73
182083	2026-07-31T02:06:10	21.4	73.5
182084	2026-07-31T02:16:10	21.2	74
182085	2026-07-31T02:26:10	21.2	74.5
182086	2026-07-31T02:36:10	21.4	74.5
182087	2026-07-31T02:46:10	21.2	74.5
182088	2026-07-31T02:56:10	21.2	75
182089	2026-07-31T03:06:10	21	75.5
182090	2026-07-31T03:16:10	20.9	76.5
182091	2026-07-31T03:26:10	20.8	76
182092	2026-07-31T03:36:10	20.8	75.5
182093	2026-07-31T03:46:10	20.7	75.5
182094	2026-07-31T03:56:10	20.6	75.5
182095	2026-07-31T04:06:10	20.7	75
182096	2026-07-31T04:16:10	20.6	75.5
182097	2026-07-31T04:26:10	20.5	75.5
182098	2026-07-31T04:36:10	20.6	76
182099	2026-07-31T04:46:10	20.6	77
182100	2026-07-31T04:56:10	20.7	77
182101	2026-07-31T05:06:10	20.6	77.5
182102	2026-07-31T05:16:10	20.7	77.5
182103	2026-07-31T05:26:10	20.7	77
182104	2026-07-31T05:36:10	21	77
182105	2026-07-31T05:46:10	21.2	78
182106	2026-07-31T05:56:10	21.7	77.5
182107	2026-07-31T06:06:10	21.6	76.5
182108	2026-07-31T06:16:10	21.6	77.5
182109	2026-07-31T06:26:10	21.6	78
182110	2026-07-31T06:36:10	22.1	77
182111	2026-07-31T06:46:10	22.1	76.5
182112	2026-07-31T06:56:10	22.3	75.5
182113	2026-07-31T07:06:10	22.6	74
182114	2026-07-31T07:16:10	22.9	72.5
182115	2026-07-31T07:26:10	23.1	72
182116	2026-07-31T07:36:09	23.2	72
182117	2026-07-31T07:46:09	23.5	70.5
182118	2026-07-31T07:56:09	23.9	70.5
182119	2026-07-31T08:06:09	24.2	69.5
182120	2026-07-31T08:16:09	24.5	68.5
182121	2026-07-31T08:36:09	25.3	67.5
182122	2026-07-31T08:46:09	25.6	66.5
182123	2026-07-31T08:56:09	26	65
182124	2026-07-31T09:06:09	26.3	64
182125	2026-07-31T09:16:09	26.5	64
182126	2026-07-31T09:26:09	26.8	63.5
182127	2026-07-31T09:36:09	27.3	62.5
182128	2026-07-31T09:46:09	27.7	61
182129	2026-07-31T09:56:09	28.1	58
182130	2026-07-31T10:06:09	28.6	56.5
182131	2026-07-31T10:16:09	29.2	55
182132	2026-07-31T10:26:09	29.9	50.5
182133	2026-07-31T10:36:09	30.4	48.5
182134	2026-07-31T10:46:09	30.7	47
182135	2026-07-31T10:56:09	30.8	47.5
182136	2026-07-31T11:06:09	30.9	47
182137	2026-07-31T11:16:09	31.4	46
182138	2026-07-31T11:26:09	32	44
182139	2026-07-31T11:36:09	32.1	43
182140	2026-07-31T11:46:09	32.2	44.5
182141	2026-07-31T11:56:09	32.8	42.5
182142	2026-07-31T12:06:09	33	41.5
182143	2026-07-31T12:16:09	34	41.5
182144	2026-07-31T12:26:09	35	40
182145	2026-07-31T12:36:09	36.8	36.5
182146	2026-07-31T12:46:09	36.9	37
182147	2026-07-31T12:56:09	38	36.5
182148	2026-07-31T13:06:09	36.6	37.5
182149	2026-07-31T13:16:09	35.7	38.5
182150	2026-07-31T13:26:09	35.4	39.5
182151	2026-07-31T13:36:09	34.8	40.5
182152	2026-07-31T13:46:09	35.2	40
182153	2026-07-31T13:56:09	34.9	40
182154	2026-07-31T14:06:09	34.9	40
182155	2026-07-31T14:16:09	35.2	39.5
182156	2026-07-31T14:26:09	35	40
182157	2026-07-31T14:36:09	35.1	40.5
182158	2026-07-31T14:46:09	34.8	41
182159	2026-07-31T14:56:09	34.2	42
182160	2026-07-31T15:06:09	34.1	42
182161	2026-07-31T15:16:09	33.7	42.5
182162	2026-07-31T15:26:09	34.1	42.5
182163	2026-07-31T15:36:09	33.9	42
182164	2026-07-31T15:46:09	34.1	42
182165	2026-07-31T15:56:09	35.1	40.5
182166	2026-07-31T16:06:09	38.2	39
182167	2026-07-31T16:16:09	36.8	40
182168	2026-07-31T17:16:09	34.5	46
182169	2026-07-31T17:26:09	33.1	54
182170	2026-07-31T17:36:08	32.1	55.5
182171	2026-07-31T17:46:08	33.6	53.5
182172	2026-07-31T17:56:08	33.1	53
182173	2026-07-31T18:06:08	32.6	53.5
182174	2026-07-31T18:16:08	31.7	54
182175	2026-07-31T18:26:08	31.4	54.5
182176	2026-07-31T18:36:08	30.9	54.5
182177	2026-07-31T18:46:08	30.6	59
182178	2026-07-31T18:56:08	29.9	65.5
182179	2026-07-31T19:06:08	27.6	71.5
182180	2026-07-31T19:16:08	25.1	84
182181	2026-07-31T19:26:08	25.1	84
182182	2026-07-31T19:36:08	25	86
182183	2026-07-31T19:46:08	24.6	87.5
182184	2026-07-31T19:56:08	24.4	84.5
182185	2026-07-31T20:06:08	23.4	89
182186	2026-07-31T20:16:08	23.2	90.5
182187	2026-07-31T20:26:08	23.7	93
182188	2026-07-31T20:36:08	23.7	85.5
182189	2026-07-31T20:46:08	23.7	82.5
182190	2026-07-31T20:56:08	23.6	88
182191	2026-07-31T21:06:08	23.7	87.5
182192	2026-07-31T21:16:08	23.4	86
182193	2026-07-31T21:26:08	23.6	88
182194	2026-07-31T21:36:08	23.8	85.5
182195	2026-07-31T21:46:08	23.7	84.5
182196	2026-07-31T21:56:08	23.5	88
182197	2026-07-31T22:06:08	23.7	87.5
182198	2026-07-31T22:16:08	23.5	86.5
182199	2026-07-31T22:26:08	23.2	87.5
182200	2026-07-31T22:36:08	23.2	88.5
182201	2026-07-31T22:46:08	23.1	87.5
182202	2026-07-31T22:56:08	23.1	88.5
182203	2026-07-31T23:06:08	23.1	89
182204	2026-07-31T23:16:08	23	87.5
182205	2026-07-31T23:26:08	22.8	89
182206	2026-07-31T23:36:08	22.9	88.5
182207	2026-07-31T23:46:08	23	88
182208	2026-07-31T23:56:08	23	87.5
182209	2026-08-01T00:06:08	22.7	88
182210	2026-08-01T00:16:08	22.6	87.5
182211	2026-08-01T00:26:08	22.3	88.5
182212	2026-08-01T00:36:08	21.2	100
182213	2026-08-01T00:46:08	20.8	100
182214	2026-08-01T00:56:08	20.8	100
182215	2026-08-01T01:06:08	20.3	100
182216	2026-08-01T01:16:08	20.4	100
182217	2026-08-01T01:26:08	20.4	100
182218	2026-08-01T01:36:08	20.4	100
182219	2026-08-01T01:46:08	20.2	100
182220	2026-08-01T01:56:08	20.5	100
182221	2026-08-01T02:06:08	20.3	99
182222	2026-08-01T02:16:08	20.3	98
182223	2026-08-01T02:26:08	20.3	96.5
182224	2026-08-01T02:36:08	20.5	95.5
182225	2026-08-01T02:46:08	20.6	95.5
182226	2026-08-01T02:56:08	20.2	95.5
182227	2026-08-01T03:16:08	20.1	95.5
182228	2026-08-01T03:26:07	20.4	95.5
182229	2026-08-01T03:36:07	20.4	96
182230	2026-08-01T03:46:07	20.3	96
182231	2026-08-01T03:56:07	20.3	96
182232	2026-08-01T04:06:07	20.2	96
182233	2026-08-01T04:16:07	20.3	96
182234	2026-08-01T04:26:07	20.3	96
182235	2026-08-01T04:36:07	20.2	96
182236	2026-08-01T04:46:07	20.2	96
182237	2026-08-01T04:56:07	20.2	96
182238	2026-08-01T05:06:07	20.3	96
182239	2026-08-01T05:16:07	20.5	96.5
182240	2026-08-01T05:26:07	20.3	96
182241	2026-08-01T05:36:07	20.3	96.5
182242	2026-08-01T05:46:07	20.5	96.5
182243	2026-08-01T06:06:07	20.7	96.5
182244	2026-08-01T06:16:24	20.8	96.5
182245	2026-08-01T06:26:07	20.7	96.5
182246	2026-08-01T06:36:07	20.9	96.5
182247	2026-08-01T06:46:07	20.8	96.5
182248	2026-08-01T06:56:07	21.2	96.5
182249	2026-08-01T07:06:07	21.6	96.5
182250	2026-08-01T07:16:07	21.6	96.5
182251	2026-08-01T07:26:07	21.6	96.5
182252	2026-08-01T07:36:07	21.8	96.5
182253	2026-08-01T07:46:07	22.1	96.5
182254	2026-08-01T07:56:07	22.5	97
182255	2026-08-01T08:06:07	22.9	97
182256	2026-08-01T08:16:07	23.3	97
182257	2026-08-01T08:26:07	23.7	97
182258	2026-08-01T08:36:07	23.9	97
182259	2026-08-01T08:46:07	24.3	97
182260	2026-08-01T08:56:07	24.7	97
182261	2026-08-01T09:06:07	24.6	97
182262	2026-08-01T09:16:07	24.9	97
182263	2026-08-01T09:26:07	25.1	97.5
182264	2026-08-01T09:36:07	25.2	97.5
182265	2026-08-01T09:46:07	25.4	97.5
182266	2026-08-01T09:56:07	25.8	97.5
182267	2026-08-01T10:06:07	25.8	97.5
182268	2026-08-01T10:16:07	25.4	97.5
182269	2026-08-01T10:26:07	25.8	100
182270	2026-08-01T10:36:07	26.1	100
182271	2026-08-01T10:46:07	26.2	100
182272	2026-08-01T10:56:07	26.5	100
182273	2026-08-01T11:06:07	26.2	99.5
182274	2026-08-01T11:16:07	26.5	99.5
182275	2026-08-01T11:26:07	27.5	95
182276	2026-08-01T11:36:07	28.8	67.5
182277	2026-08-01T11:46:07	29.5	63
182278	2026-08-01T11:56:07	29.2	63.5
182279	2026-08-01T12:06:07	28.3	64
182280	2026-08-01T12:16:07	28.6	61.5
182281	2026-08-01T12:26:07	31.4	58
182282	2026-08-01T12:36:07	29.5	58.5
182283	2026-08-01T12:46:07	31.1	56
182284	2026-08-01T12:56:07	31.2	51.5
182285	2026-08-01T13:06:07	32.7	49.5
182286	2026-08-01T13:16:06	33.6	49
182287	2026-08-01T13:26:06	35.2	44.5
182288	2026-08-01T13:36:06	35.3	44.5
182289	2026-08-01T13:46:06	37.4	41
182290	2026-08-01T13:56:06	38.5	38.5
182291	2026-08-01T14:06:06	38.8	36.5
182292	2026-08-01T14:16:06	40.3	35.5
182293	2026-08-01T14:26:06	41.1	34
182294	2026-08-01T14:36:06	40.9	33.5
182295	2026-08-01T14:46:06	40.9	33.5
182296	2026-08-01T14:56:06	41.9	33.5
182297	2026-08-01T15:06:06	42.2	32.5
182298	2026-08-01T15:16:06	42.8	30.5
182299	2026-08-01T15:26:06	43.2	32
182300	2026-08-01T15:36:06	43.1	30.5
182301	2026-08-01T15:46:06	43.1	29.5
182302	2026-08-01T15:56:06	43.5	29
182303	2026-08-01T16:06:06	42.7	29
182304	2026-08-01T16:16:06	42.7	30
182305	2026-08-01T16:26:06	41.9	30
182306	2026-08-01T16:36:06	42.2	30
182307	2026-08-01T16:46:06	42.1	31
182308	2026-08-01T16:56:06	41.3	30
182309	2026-08-01T17:06:06	41.4	31.5
182310	2026-08-01T17:16:06	41.5	32
182311	2026-08-01T17:26:06	38.9	33.5
182312	2026-08-01T17:36:06	36.5	35.5
182313	2026-08-01T17:46:06	34.7	39.5
182314	2026-08-01T17:56:06	34.1	40.5
182315	2026-08-01T18:06:06	34.1	42
182316	2026-08-01T18:16:06	33.3	43.5
182317	2026-08-01T18:36:06	32	45.5
182318	2026-08-01T18:46:06	31.3	48
182319	2026-08-01T18:56:06	30.7	49.5
182320	2026-08-01T19:06:06	30.2	51
182321	2026-08-01T19:16:06	29.7	50.5
182322	2026-08-01T19:26:06	29.2	53
182323	2026-08-01T19:36:06	28.8	54
182324	2026-08-01T19:46:06	28.3	55.5
182325	2026-08-01T19:56:06	28	56.5
182326	2026-08-01T20:06:06	27.6	57.5
182327	2026-08-01T20:16:06	27.3	57.5
182328	2026-08-01T20:26:06	26.9	58
182329	2026-08-01T20:36:06	26.5	60
182330	2026-08-01T20:46:06	26.2	60
182331	2026-08-01T20:56:06	25.8	62
182332	2026-08-01T21:06:06	25.4	61.5
182333	2026-08-01T21:16:06	24.9	63.5
182334	2026-08-01T21:36:06	24.6	64.5
182335	2026-08-01T21:46:06	24.1	65
182336	2026-08-01T21:56:06	24	66
182337	2026-08-01T22:06:06	23.6	66.5
182338	2026-08-01T22:16:06	23.6	67
182339	2026-08-01T22:26:06	23.6	66.5
182340	2026-08-01T22:36:06	23.1	68
182341	2026-08-01T22:46:06	22.8	68.5
182342	2026-08-01T22:56:06	22.8	69
182343	2026-08-01T23:06:06	22.6	69
182344	2026-08-01T23:26:06	22.1	69.5
182345	2026-08-01T23:36:06	22	71.5
182346	2026-08-01T23:46:06	22	71
182347	2026-08-01T23:56:06	21.8	71
182348	2026-08-02T00:06:06	21.8	71
182349	2026-08-02T00:16:05	21.6	71.5
182350	2026-08-02T00:26:05	21.5	71.5
182351	2026-08-02T00:36:05	21.4	71.5
182352	2026-08-02T00:46:05	21.3	72
182353	2026-08-02T00:56:05	21.2	71.5
182354	2026-08-02T01:06:05	21.2	72
182355	2026-08-02T01:16:05	21	73
182356	2026-08-02T01:26:05	20.9	74
182357	2026-08-02T01:36:05	20.8	74
182358	2026-08-02T01:46:05	20.7	74
182359	2026-08-02T01:56:05	20.7	74.5
182360	2026-08-02T02:06:05	20.9	74
182361	2026-08-02T02:16:05	20.9	74
182362	2026-08-02T02:26:05	20.9	74
182363	2026-08-02T02:36:05	21	75
182364	2026-08-02T02:46:05	21	75.5
182365	2026-08-02T02:56:05	21	75.5
182366	2026-08-02T03:06:05	20.9	75.5
182367	2026-08-02T03:16:05	20.4	77.5
182368	2026-08-02T03:26:05	20.1	77.5
182369	2026-08-02T03:36:05	19.9	79
182370	2026-08-02T03:46:05	19.7	79.5
182371	2026-08-02T03:56:05	19.6	80
182372	2026-08-02T04:06:05	19.6	80.5
182373	2026-08-02T04:16:05	19.5	81
182374	2026-08-02T04:26:05	19.6	81.5
182375	2026-08-02T04:36:05	19.4	81.5
182376	2026-08-02T04:46:05	19.5	82
182377	2026-08-02T04:56:05	19.5	82
182378	2026-08-02T05:06:05	19.5	82.5
182379	2026-08-02T05:16:05	19.6	82.5
182380	2026-08-02T05:26:05	19.6	82.5
182381	2026-08-02T05:36:05	19.6	82.5
182382	2026-08-02T05:46:05	19.9	82
182383	2026-08-02T05:56:05	20	81.5
182384	2026-08-02T06:06:05	20.3	81.5
182385	2026-08-02T06:16:05	20.4	81
182386	2026-08-02T06:26:05	20.7	80.5
182387	2026-08-02T06:36:05	21	79.5
182388	2026-08-02T06:46:05	21.3	79
182389	2026-08-02T06:56:05	21.4	79
182390	2026-08-02T07:06:05	21.5	78.5
182391	2026-08-02T07:16:05	21.8	77.5
182392	2026-08-02T07:26:05	22	77
182393	2026-08-02T07:36:05	22.2	75.5
182394	2026-08-02T07:46:05	22.4	75
182395	2026-08-02T07:56:05	22.6	75
182396	2026-08-02T08:06:05	22.9	71
182397	2026-08-02T08:16:05	23.3	69
182398	2026-08-02T08:26:05	23.6	66.5
182399	2026-08-02T08:36:05	23.9	61
182400	2026-08-02T08:56:05	24.4	65
182401	2026-08-02T09:06:05	24.8	61.5
182402	2026-08-02T09:16:05	25.1	57
182403	2026-08-02T09:26:05	25.3	53.5
182404	2026-08-02T09:36:05	25.5	55.5
182405	2026-08-02T09:46:05	25.8	53
182406	2026-08-02T09:56:05	26	54
182407	2026-08-02T10:06:05	26.3	52
182408	2026-08-02T10:16:05	26.4	52.5
182409	2026-08-02T10:26:04	26.6	54
182410	2026-08-02T10:36:04	26.8	54
182411	2026-08-02T10:46:04	27.1	52.5
182412	2026-08-02T10:56:04	27.3	50.5
182413	2026-08-02T11:06:04	27.6	47.5
182414	2026-08-02T11:16:04	28	46
182415	2026-08-02T11:26:04	28.2	46.5
182416	2026-08-02T11:36:04	28.5	46.5
182417	2026-08-02T11:46:04	28.7	45
182418	2026-08-02T11:56:04	29.3	44
182419	2026-08-02T12:06:04	30.1	42.5
182420	2026-08-02T12:16:04	31	39.5
182421	2026-08-02T12:26:04	34	37
182422	2026-08-02T12:36:04	35.8	33.5
182423	2026-08-02T12:46:04	37.1	31.5
182424	2026-08-02T12:56:04	38.6	31
182425	2026-08-02T13:06:04	39.7	29.5
182426	2026-08-02T13:16:04	40.5	28.5
182427	2026-08-02T13:26:04	41.3	27.5
182428	2026-08-02T13:36:04	42.3	26.5
182429	2026-08-02T13:46:04	43.7	26
182430	2026-08-02T13:56:04	43.8	25.5
182431	2026-08-02T14:06:04	44.7	25
182432	2026-08-02T14:16:04	45.7	23.5
182433	2026-08-02T14:26:04	46.1	24
182434	2026-08-02T14:36:04	46.2	23
182435	2026-08-02T14:46:04	45.6	23
182436	2026-08-02T14:56:04	46.3	22.5
182437	2026-08-02T15:06:04	47.2	22.5
182438	2026-08-02T15:16:04	47.8	22.5
182439	2026-08-02T15:26:04	47.4	22.5
182440	2026-08-02T15:36:04	46.9	23
182441	2026-08-02T15:46:04	47.2	22.5
182442	2026-08-02T15:56:04	48.1	22
182443	2026-08-02T16:06:04	47.6	22
182444	2026-08-02T16:16:04	47.7	22
182445	2026-08-02T16:26:04	47.7	22.5
182446	2026-08-02T16:36:04	47.4	22
182447	2026-08-02T16:46:04	46.6	23
182448	2026-08-02T16:56:04	47	22.5
182449	2026-08-02T17:06:04	47.1	23
182450	2026-08-02T17:16:04	46.7	22
182451	2026-08-02T17:26:04	45.8	24
182452	2026-08-02T17:36:04	45.1	23.5
182453	2026-08-02T17:46:04	43.8	23.5
182454	2026-08-02T17:56:04	41.4	25
182455	2026-08-02T18:06:04	39.4	27.5
182456	2026-08-02T18:16:04	38.3	29.5
182457	2026-08-02T18:26:04	37.3	29.5
182458	2026-08-02T18:36:04	36.8	30
182459	2026-08-02T18:46:04	35.5	30.5
182460	2026-08-02T18:56:04	34.3	32.5
182461	2026-08-02T19:06:04	33.8	33.5
182462	2026-08-02T19:16:04	33.1	34
182463	2026-08-02T19:26:04	32.8	35.5
182464	2026-08-02T19:36:04	32.4	35
182465	2026-08-02T19:46:04	32.2	36.5
182466	2026-08-02T19:56:04	31.6	38
182467	2026-08-02T20:06:04	31.3	39.5
182468	2026-08-02T20:16:04	30.7	41.5
182469	2026-08-02T20:26:04	30.5	42
182470	2026-08-02T20:36:04	29.9	43.5
182471	2026-08-02T20:46:04	29.3	44.5
182472	2026-08-02T20:56:04	28.9	39.5
182473	2026-08-02T21:06:04	28.9	39
182474	2026-08-02T21:16:04	28.8	39.5
182475	2026-08-02T21:26:04	28.6	40
182476	2026-08-02T21:36:04	28.4	40.5
182477	2026-08-02T21:46:04	28.2	40.5
182478	2026-08-02T21:56:04	28	41
182479	2026-08-02T22:06:04	27.9	41.5
182480	2026-08-02T22:16:04	27.8	42
182481	2026-08-02T22:26:03	27.6	43
182482	2026-08-02T22:36:03	27.4	44
182483	2026-08-02T22:46:03	27.3	45
182484	2026-08-02T22:56:03	27.2	46
182485	2026-08-02T23:06:03	26.9	48
182486	2026-08-02T23:16:03	26.8	49
182487	2026-08-02T23:26:03	26.8	50
182488	2026-08-02T23:36:03	26.4	51
182489	2026-08-02T23:46:03	26.2	50.5
182490	2026-08-02T23:56:03	25.8	50
182491	2026-08-03T00:06:03	25.7	50.5
182492	2026-08-03T00:16:03	25.6	50.5
182493	2026-08-03T00:26:03	25.4	52.5
182494	2026-08-03T00:36:03	25.2	52.5
182495	2026-08-03T00:46:03	25.1	54.5
182496	2026-08-03T00:56:03	25	53.5
182497	2026-08-03T01:16:03	24.5	53
182498	2026-08-03T01:26:03	24	53.5
182499	2026-08-03T01:36:03	23.8	52.5
182500	2026-08-03T01:46:03	23.6	54
182501	2026-08-03T01:56:03	23.5	53.5
182502	2026-08-03T02:06:03	23.4	56.5
182503	2026-08-03T02:16:03	23.3	59
182504	2026-08-03T02:26:03	23.4	60.5
182505	2026-08-03T02:36:03	23.2	61
182506	2026-08-03T02:46:03	23	61.5
182507	2026-08-03T02:56:03	23.2	62.5
182508	2026-08-03T03:06:03	23.2	62.5
182509	2026-08-03T03:16:03	23	63.5
182510	2026-08-03T03:26:03	23	64.5
182511	2026-08-03T03:36:03	22.9	65.5
182512	2026-08-03T03:46:03	22.8	66.5
182513	2026-08-03T03:56:03	22.8	66.5
182514	2026-08-03T04:06:03	22.7	67.5
182515	2026-08-03T04:16:03	22.5	68.5
182516	2026-08-03T04:26:03	22.5	69.5
182517	2026-08-03T04:36:03	22.4	70.5
182518	2026-08-03T04:46:03	22.4	71
182519	2026-08-03T04:56:03	22.7	71
182520	2026-08-03T05:06:03	22.5	71.5
182521	2026-08-03T05:16:03	22.6	71.5
182522	2026-08-03T05:26:03	22.8	71.5
182523	2026-08-03T05:36:22	23.1	71
182524	2026-08-03T05:46:03	23.2	69.5
182525	2026-08-03T05:56:03	23.4	67.5
182526	2026-08-03T06:06:03	23.6	67
182527	2026-08-03T06:16:03	23.7	67.5
182528	2026-08-03T06:26:03	23.6	65
182529	2026-08-03T06:36:03	23.3	63.5
182530	2026-08-03T06:46:03	23.3	64
182531	2026-08-03T06:56:03	23.2	63
182532	2026-08-03T07:06:03	23.3	63
182533	2026-08-03T07:16:03	23.2	62
182534	2026-08-03T07:26:03	23.7	61.5
182535	2026-08-03T07:36:03	24.1	61
182536	2026-08-03T07:46:03	24.3	59
182537	2026-08-03T07:56:03	24.5	60.5
182538	2026-08-03T08:06:03	24.6	60.5
182539	2026-08-03T08:16:02	24.6	63
182540	2026-08-03T08:26:02	25	60.5
182541	2026-08-03T08:36:02	25.1	60
182542	2026-08-03T08:46:02	25.1	61.5
182543	2026-08-03T08:56:02	24.9	65
182544	2026-08-03T09:06:02	25.3	64
182545	2026-08-03T09:16:02	25.7	61.5
182546	2026-08-03T09:26:02	25.8	63
182547	2026-08-03T09:36:02	25.6	63
182548	2026-08-03T09:46:02	25.7	62.5
182549	2026-08-03T09:56:02	26.2	62
182550	2026-08-03T10:06:02	27	60
182551	2026-08-03T10:16:02	27.3	59.5
182552	2026-08-03T10:26:02	27.5	58.5
182553	2026-08-03T10:36:02	28.1	58.5
182554	2026-08-03T10:46:02	28.6	58
182555	2026-08-03T10:56:02	28.9	58.5
182556	2026-08-03T11:06:02	29.1	56
182557	2026-08-03T11:16:02	29.3	54.5
182558	2026-08-03T11:26:02	29.5	54.5
182559	2026-08-03T11:36:02	30.1	49.5
182560	2026-08-03T11:46:02	30.4	49
182561	2026-08-03T11:56:02	31.4	48
182562	2026-08-03T12:06:02	32.4	47
182563	2026-08-03T12:16:02	33.8	45
182564	2026-08-03T12:26:02	36	41
182565	2026-08-03T12:36:02	38.6	37.5
182566	2026-08-03T12:46:02	39.4	35.5
182567	2026-08-03T13:06:02	41.6	32
182568	2026-08-03T13:16:02	42.6	31
182569	2026-08-03T13:26:02	44.3	30
182570	2026-08-03T13:36:02	44.1	29
182571	2026-08-03T13:46:02	44.3	29
182572	2026-08-03T13:56:02	45.9	27.5
182573	2026-08-03T14:06:02	45	27.5
182574	2026-08-03T14:16:02	46.5	26.5
182575	2026-08-03T14:26:02	47.3	25
182576	2026-08-03T14:36:02	47	25
182577	2026-08-03T14:46:02	46.6	25.5
182578	2026-08-03T14:56:02	45.4	27
182579	2026-08-03T15:06:02	47	26.5
182580	2026-08-03T15:16:02	45.6	27
182581	2026-08-03T15:26:02	43.3	29
182582	2026-08-03T15:36:02	41.7	31
182583	2026-08-03T15:46:02	41.9	32
182584	2026-08-03T15:56:02	40.9	35.5
182585	2026-08-03T16:06:02	40.2	37.5
182586	2026-08-03T16:16:02	39.7	39.5
182587	2026-08-03T16:26:02	39.2	41
182588	2026-08-03T16:36:02	38.7	42.5
182589	2026-08-03T16:46:02	38.2	43.5
182590	2026-08-03T16:56:02	37.8	43.5
182591	2026-08-03T17:06:02	37.8	41
182592	2026-08-03T17:16:02	37.4	41.5
182593	2026-08-03T17:26:02	36.6	42
182594	2026-08-03T17:36:02	36	42
182595	2026-08-03T17:46:02	35.5	43.5
182596	2026-08-03T17:56:02	35.1	44.5
182597	2026-08-03T18:06:02	34.8	45.5
182598	2026-08-03T18:16:02	34.7	46
182599	2026-08-03T18:26:02	34.2	47
182600	2026-08-03T18:36:02	34.1	46.5
182601	2026-08-03T18:56:02	33.2	49
182602	2026-08-03T19:06:02	32.8	50
182603	2026-08-03T19:26:02	32.4	50.5
182604	2026-08-03T19:36:02	32.1	52
182605	2026-08-03T19:46:01	31.8	50.5
182606	2026-08-03T19:56:01	31.6	50
182607	2026-08-03T20:06:02	31.5	51
182608	2026-08-03T20:16:01	31.5	52
182609	2026-08-03T20:26:01	31.2	53.5
182610	2026-08-03T20:36:01	31.1	56
182611	2026-08-03T20:46:01	30.8	57.5
182612	2026-08-03T20:56:01	30.5	58
182613	2026-08-03T21:06:01	30.1	58.5
182614	2026-08-03T21:16:01	30.1	56
182615	2026-08-03T21:26:01	29.9	52.5
182616	2026-08-03T21:36:01	29.9	54
182617	2026-08-03T21:46:01	29.8	56.5
182618	2026-08-03T21:56:01	29.6	59
182619	2026-08-03T22:06:01	29	61.5
182620	2026-08-03T22:16:01	28.8	62.5
182621	2026-08-03T22:26:01	28.5	62.5
182622	2026-08-03T22:36:01	28.5	62.5
182623	2026-08-03T22:46:01	27.9	63
182624	2026-08-03T22:56:01	27.9	64
182625	2026-08-03T23:06:01	27.7	64.5
182626	2026-08-03T23:16:01	27.5	65
182627	2026-08-03T23:26:01	27.4	65.5
182628	2026-08-03T23:36:01	27.4	65
182629	2026-08-03T23:46:01	27	65
182630	2026-08-03T23:56:01	26.7	65
182631	2026-08-04T00:06:01	26.7	67
182632	2026-08-04T00:16:01	26.4	66.5
182633	2026-08-04T00:26:01	26.2	67.5
182634	2026-08-04T00:36:01	26	67.5
182635	2026-08-04T00:46:01	26.1	68
182636	2026-08-04T00:56:01	25.9	67.5
182637	2026-08-04T01:06:01	25.9	66.5
182638	2026-08-04T01:16:01	26.1	66
182639	2026-08-04T01:26:01	26.1	65.5
182640	2026-08-04T01:36:01	25.8	66
182641	2026-08-04T01:46:01	25.8	66
182642	2026-08-04T01:56:01	25.7	66.5
182643	2026-08-04T02:06:01	25.6	67
182644	2026-08-04T02:16:01	25.5	66.5
182645	2026-08-04T02:26:01	25.4	66.5
182646	2026-08-04T02:36:01	25.3	66.5
182647	2026-08-04T02:46:01	25.4	68
182648	2026-08-04T02:56:01	25.3	68.5
182649	2026-08-04T03:06:01	25.2	68.5
182650	2026-08-04T03:16:01	25.2	69
182651	2026-08-04T03:26:01	24.9	69.5
182652	2026-08-04T03:36:01	24.7	70.5
182653	2026-08-04T03:46:01	24.6	72
182654	2026-08-04T03:56:01	24.4	72.5
182655	2026-08-04T04:06:01	24.2	73
182656	2026-08-04T04:16:01	24.1	73.5
182657	2026-08-04T04:26:01	24	73
182658	2026-08-04T04:36:01	24	73.5
182659	2026-08-04T04:46:01	23.9	74
182660	2026-08-04T04:56:01	23.8	74
182661	2026-08-04T05:06:00	23.9	74
182662	2026-08-04T05:16:00	24	74.5
182663	2026-08-04T05:26:00	24.1	74.5
182664	2026-08-04T05:36:00	24	73.5
182665	2026-08-04T05:46:00	24.2	74
182666	2026-08-04T05:56:00	24.4	75
182667	2026-08-04T06:06:00	24.5	73.5
182668	2026-08-04T06:16:00	24.8	72.5
182669	2026-08-04T06:26:00	25	72.5
182670	2026-08-04T06:36:00	25.3	71
182671	2026-08-04T06:46:00	25.6	68.5
182672	2026-08-04T06:56:00	25.8	68
182673	2026-08-04T07:06:00	25.9	67
182674	2026-08-04T07:16:00	26	67.5
182675	2026-08-04T07:26:00	26.1	67
182676	2026-08-04T07:36:00	26.4	67
182677	2026-08-04T07:46:00	26.5	65
182678	2026-08-04T07:56:00	26.8	65
182679	2026-08-04T08:06:00	27	65
182680	2026-08-04T08:16:00	27	63.5
182681	2026-08-04T08:26:00	27.3	62.5
182682	2026-08-04T08:36:00	27.5	62
182683	2026-08-04T08:46:00	27.8	61
182684	2026-08-04T08:56:00	28.1	60
182685	2026-08-04T09:06:00	28.1	57.5
182686	2026-08-04T09:16:00	28.6	55
182687	2026-08-04T09:26:00	29.1	54.5
182688	2026-08-04T09:36:00	29.3	52
182689	2026-08-04T09:46:00	29.6	52
182690	2026-08-04T09:56:00	29.9	52.5
182691	2026-08-04T10:06:00	30.1	48
182692	2026-08-04T10:16:00	30.5	48
182693	2026-08-04T10:26:00	30.7	47.5
182694	2026-08-04T10:36:00	30.6	47.5
182695	2026-08-04T10:46:00	31	46.5
182696	2026-08-04T10:56:00	31.4	46
182697	2026-08-04T11:06:00	31.7	47
182698	2026-08-04T11:16:00	31.7	45.5
182699	2026-08-04T11:26:00	32.2	45
182700	2026-08-04T11:36:00	32.6	44
182701	2026-08-04T11:46:00	33.1	43
182702	2026-08-04T11:56:00	33.7	42.5
182703	2026-08-04T12:06:00	34.5	41.5
182704	2026-08-04T12:16:00	35	40.5
182705	2026-08-04T12:26:00	37.2	37.5
182706	2026-08-04T12:36:00	40.1	34.5
182707	2026-08-04T12:46:00	40.1	33
182708	2026-08-04T12:56:00	42.2	30.5
182709	2026-08-04T13:06:00	43.4	29
182710	2026-08-04T13:16:00	44.8	28
182711	2026-08-04T13:26:00	46.2	27
182712	2026-08-04T13:36:00	46	26
182713	2026-08-04T13:46:00	45.9	26.5
182714	2026-08-04T13:56:00	47.7	25.5
182715	2026-08-04T14:06:00	47.5	24.5
182716	2026-08-04T14:16:00	46.9	24.5
182717	2026-08-04T14:26:00	43.9	26.5
182718	2026-08-04T14:36:00	44.5	27
182719	2026-08-04T14:46:00	46.7	25.5
182720	2026-08-04T14:56:00	47.4	25
182721	2026-08-04T15:06:00	49.1	23.5
182722	2026-08-04T15:16:00	48.9	24
182723	2026-08-04T15:26:00	49.7	23
182724	2026-08-04T15:36:00	46.2	25.5
182725	2026-08-04T15:46:00	45.4	26
182726	2026-08-04T15:56:00	42.6	29
182727	2026-08-04T16:06:00	42.1	30
182728	2026-08-04T16:16:00	41	31.5
182729	2026-08-04T16:26:00	42.5	31
182730	2026-08-04T16:35:59	44	29.5
182731	2026-08-04T16:45:59	42.2	30
182732	2026-08-04T16:55:59	41.2	32
182733	2026-08-04T17:05:59	41.1	32
182734	2026-08-04T17:15:59	40	36
182735	2026-08-04T17:25:59	38.9	38.5
182736	2026-08-04T17:35:59	37.7	38
182737	2026-08-04T17:45:59	37.1	39
182738	2026-08-04T17:55:59	36.6	39
182739	2026-08-04T18:05:59	36.5	37
182740	2026-08-04T18:15:59	36.3	36.5
182741	2026-08-04T18:25:59	36.3	38.5
182742	2026-08-04T18:35:59	36.3	39
182743	2026-08-04T18:45:59	34.8	42
182744	2026-08-04T18:55:59	33.8	44
182745	2026-08-04T19:05:59	33.8	45.5
182746	2026-08-04T19:15:59	33.3	46
182747	2026-08-04T19:25:59	32.8	47
182748	2026-08-04T19:35:59	32.6	48
182749	2026-08-04T19:45:59	31.8	48.5
182750	2026-08-04T19:55:59	31.8	50
182751	2026-08-04T20:05:59	31.6	50.5
182752	2026-08-04T20:15:59	31	51
182753	2026-08-04T20:25:59	30.2	55
182754	2026-08-04T20:35:59	30.3	55.5
182755	2026-08-04T20:45:59	29.8	56
182756	2026-08-04T20:55:59	29.9	56
182757	2026-08-04T21:05:59	29.2	57
182758	2026-08-04T21:15:59	28.8	56.5
182759	2026-08-04T21:25:59	28.7	57.5
182760	2026-08-04T21:35:59	28.7	57.5
182761	2026-08-04T21:45:59	28.7	58
182762	2026-08-04T21:55:59	28.6	57.5
182763	2026-08-04T22:05:59	28.5	57
182764	2026-08-04T22:15:59	28.2	58.5
182765	2026-08-04T22:25:59	28	58
182766	2026-08-04T22:35:59	27.9	58.5
182767	2026-08-04T22:45:59	27.7	58.5
182768	2026-08-04T22:55:59	27.7	59.5
182769	2026-08-04T23:05:59	27.5	60.5
182770	2026-08-04T23:15:59	27.2	61.5
182771	2026-08-04T23:25:59	27.1	62
182772	2026-08-04T23:35:59	27.1	62
182773	2026-08-04T23:45:59	26.9	62.5
182774	2026-08-04T23:55:59	27	62.5
182775	2026-08-05T00:05:59	26.8	62.5
182776	2026-08-05T00:15:59	26.9	63.5
182777	2026-08-05T00:25:59	26.7	64
182778	2026-08-05T00:35:59	26.6	64.5
182779	2026-08-05T00:45:59	26.6	65
182780	2026-08-05T00:55:59	26.7	65.5
182781	2026-08-05T01:05:59	26.3	66
182782	2026-08-05T01:15:59	26.1	65.5
182783	2026-08-05T01:25:59	26.2	66
182784	2026-08-05T01:35:59	26.1	66
182785	2026-08-05T01:45:59	26	66.5
182786	2026-08-05T01:55:59	25.9	66.5
182787	2026-08-05T02:05:59	25.9	66.5
182788	2026-08-05T02:15:59	25.8	67
182789	2026-08-05T02:25:59	25.9	67.5
182790	2026-08-05T02:35:59	25.7	67.5
182791	2026-08-05T02:45:59	25.7	68.5
182792	2026-08-05T02:55:59	25.7	68.5
182793	2026-08-05T03:05:58	25.5	69
182794	2026-08-05T03:15:58	25.5	69
182795	2026-08-05T03:25:58	25.5	69
182796	2026-08-05T03:35:58	25.5	69
182797	2026-08-05T03:45:58	25.3	69.5
182798	2026-08-05T03:55:58	25.3	70
182799	2026-08-05T04:05:58	25.2	70.5
182800	2026-08-05T04:15:58	25	71
182801	2026-08-05T04:25:58	25	71
182802	2026-08-05T04:35:58	24.9	71.5
182803	2026-08-05T04:45:58	25	71.5
182804	2026-08-05T04:55:58	24.9	71.5
182805	2026-08-05T05:05:58	25	71.5
182806	2026-08-05T05:15:58	25.2	71.5
182807	2026-08-05T05:25:58	25.1	71
182808	2026-08-05T05:35:58	25	78.5
182809	2026-08-05T05:45:58	24.7	73.5
182810	2026-08-05T05:55:58	24.6	75
182811	2026-08-05T06:05:58	24.8	73
182812	2026-08-05T06:15:58	25.2	72
182813	2026-08-05T06:25:58	25.4	71
182814	2026-08-05T06:35:58	25.5	70.5
182815	2026-08-05T06:45:58	25.8	70
182816	2026-08-05T06:55:58	26.2	69
182817	2026-08-05T07:05:58	26.4	67.5
182818	2026-08-05T07:15:58	26.6	67.5
182819	2026-08-05T07:25:58	26.8	67.5
182820	2026-08-05T07:35:58	26.9	68
182821	2026-08-05T07:45:58	27.2	67
182822	2026-08-05T07:55:58	27.1	67
182823	2026-08-05T08:05:58	27.2	67
182824	2026-08-05T08:15:58	26.9	67.5
182825	2026-08-05T08:25:58	26.9	68
182826	2026-08-05T08:35:58	26.9	65
182827	2026-08-05T08:45:58	27.1	64.5
182828	2026-08-05T08:55:58	27.4	62.5
182829	2026-08-05T09:05:58	27.4	62
182830	2026-08-05T09:15:58	27.5	62.5
182831	2026-08-05T09:25:58	27.9	61.5
182832	2026-08-05T09:35:58	28	61.5
182833	2026-08-05T09:45:58	28.2	60.5
182834	2026-08-05T09:55:58	28.4	58.5
182835	2026-08-05T10:05:58	28.7	57.5
182836	2026-08-05T10:15:58	28.8	56
182837	2026-08-05T10:25:58	29	57
182838	2026-08-05T10:35:58	29.2	55
182839	2026-08-05T10:45:58	29.4	54.5
182840	2026-08-05T10:55:58	29.5	54
182841	2026-08-05T11:05:58	30	53.5
182842	2026-08-05T11:15:58	30.1	54.5
182843	2026-08-05T11:25:58	30.3	53.5
182844	2026-08-05T11:35:58	30.7	50.5
182845	2026-08-05T11:45:58	31.1	49
182846	2026-08-05T11:55:58	31.6	48.5
182847	2026-08-05T12:05:58	32.2	46
182848	2026-08-05T12:15:57	33.1	46
182849	2026-08-05T12:25:57	34.7	42.5
182850	2026-08-05T12:35:57	37.1	39.5
182851	2026-08-05T12:55:57	38.5	37.5
182852	2026-08-05T13:05:57	36.9	40
182853	2026-08-05T13:15:57	38.4	37.5
182854	2026-08-05T13:25:57	36.2	39.5
182855	2026-08-05T13:35:57	38.5	37.5
182856	2026-08-05T13:45:57	37.5	38.5
182857	2026-08-05T13:55:57	38.2	37.5
182858	2026-08-05T14:05:57	36.5	39
182859	2026-08-05T14:15:57	38.5	36.5
182860	2026-08-05T14:25:57	37	38.5
182861	2026-08-05T14:35:57	35.9	40.5
182862	2026-08-05T14:45:57	37.6	38.5
182863	2026-08-05T14:55:57	38.4	36.5
182864	2026-08-05T15:05:57	40	35.5
182865	2026-08-05T15:15:57	39.5	35.5
182866	2026-08-05T15:25:57	39.7	34.5
182867	2026-08-05T15:35:57	38.2	37
182868	2026-08-05T15:45:57	38.3	36
182869	2026-08-05T15:55:57	39.4	35
182870	2026-08-05T16:05:57	39.6	35
182871	2026-08-05T16:15:57	38.4	36
182872	2026-08-05T16:25:57	38.3	36
182873	2026-08-05T16:36:14	38.7	35.5
182874	2026-08-05T16:45:57	38.3	36
182875	2026-08-05T16:55:57	38.9	35.5
182876	2026-08-05T17:05:57	38.7	35.5
182877	2026-08-05T17:15:57	37.5	36.5
182878	2026-08-05T17:25:57	37.1	37.5
182879	2026-08-05T17:35:57	38.6	35.5
182880	2026-08-05T17:45:57	36.3	38.5
182881	2026-08-05T17:55:57	35.5	40
182882	2026-08-05T18:05:57	34.1	41.5
182883	2026-08-05T18:15:57	33.5	41.5
182884	2026-08-05T18:25:57	33.5	41
182885	2026-08-05T18:35:57	33.2	41.5
182886	2026-08-05T18:45:57	33	42.5
182887	2026-08-05T18:55:57	32.3	43.5
182888	2026-08-05T19:05:57	31.7	44
182889	2026-08-05T19:15:57	31.6	46
182890	2026-08-05T19:25:57	31.4	48
182891	2026-08-05T19:35:57	30.9	49
182892	2026-08-05T19:45:57	30.3	50.5
182893	2026-08-05T19:55:57	29.9	51.5
182894	2026-08-05T20:05:57	29.5	52.5
182895	2026-08-05T20:15:57	29.2	53
182896	2026-08-05T20:25:57	29.2	52.5
182897	2026-08-05T20:35:57	28.8	52
182898	2026-08-05T20:45:57	28.8	53.5
182899	2026-08-05T20:55:57	28.4	53
182900	2026-08-05T21:05:57	28.2	54
182901	2026-08-05T21:15:57	28.1	54
182902	2026-08-05T21:25:57	28	55
182903	2026-08-05T21:35:57	27.7	55.5
182904	2026-08-05T21:45:57	27.4	56
182905	2026-08-05T21:55:57	27.2	57
182906	2026-08-05T22:05:57	27.1	57.5
182907	2026-08-05T22:15:57	27.1	57
182908	2026-08-05T22:25:57	26.8	58.5
182909	2026-08-05T22:35:57	26.8	58.5
182910	2026-08-05T22:45:56	26.7	58
182911	2026-08-05T22:55:56	26.7	58.5
182912	2026-08-05T23:05:56	26.4	59.5
182913	2026-08-05T23:15:56	26.3	60.5
182914	2026-08-05T23:25:56	26.2	60.5
182915	2026-08-05T23:35:56	26	60.5
182916	2026-08-05T23:45:56	25.8	62
182917	2026-08-05T23:55:56	25.6	63
182918	2026-08-06T00:05:56	25.3	65
182919	2026-08-06T00:15:56	25.1	63.5
182920	2026-08-06T00:25:56	24.8	64.5
182921	2026-08-06T00:35:56	24.7	65.5
182922	2026-08-06T00:45:56	24.4	66
182923	2026-08-06T00:55:56	24.4	65
182924	2026-08-06T01:15:56	24	65.5
182925	2026-08-06T01:25:56	23.9	66.5
182926	2026-08-06T01:35:56	23.6	67.5
182927	2026-08-06T01:45:56	23.4	68
182928	2026-08-06T01:55:56	23.2	68.5
182929	2026-08-06T02:05:56	23	68.5
182930	2026-08-06T02:15:56	23	68.5
182931	2026-08-06T02:25:56	23	68.5
182932	2026-08-06T02:35:56	22.8	69.5
182933	2026-08-06T02:45:56	22.6	69.5
182934	2026-08-06T02:55:56	22.7	70
182935	2026-08-06T03:05:56	22.4	70
182936	2026-08-06T03:15:56	22.1	70.5
182937	2026-08-06T03:25:56	21.8	71
182938	2026-08-06T03:35:56	21.8	70.5
182939	2026-08-06T03:45:56	21.7	71
182940	2026-08-06T04:05:56	21.8	71
182941	2026-08-06T04:15:56	21.6	70.5
182942	2026-08-06T04:25:56	21.6	70
182943	2026-08-06T04:35:56	21.7	70
182944	2026-08-06T04:45:56	21.9	69.5
182945	2026-08-06T04:55:56	21.8	70
182946	2026-08-06T05:05:56	21.8	70.5
182947	2026-08-06T05:15:56	21.7	70
182948	2026-08-06T05:25:56	21.8	69.5
182949	2026-08-06T05:35:56	22	68
182950	2026-08-06T05:45:56	22.3	67.5
182951	2026-08-06T05:55:56	22.2	67.5
182952	2026-08-06T06:05:56	22.2	67.5
182953	2026-08-06T06:15:56	22.4	67
182954	2026-08-06T06:25:56	22.6	67
182955	2026-08-06T06:35:56	22.6	66
182956	2026-08-06T06:45:56	22.4	65
182957	2026-08-06T06:55:56	22.6	66
182958	2026-08-06T07:05:56	23	64.5
182959	2026-08-06T07:25:56	23.1	63.5
182960	2026-08-06T07:35:56	23.2	63
182961	2026-08-06T07:45:56	23.4	62.5
182962	2026-08-06T07:55:56	23.6	62
182963	2026-08-06T08:05:56	23.7	61.5
182964	2026-08-06T08:15:56	23.8	61.5
182965	2026-08-06T08:25:55	23.9	61.5
182966	2026-08-06T08:35:55	24.1	61
182967	2026-08-06T08:45:55	24.1	60.5
182968	2026-08-06T08:55:55	24.5	58
182969	2026-08-06T09:05:55	24.7	54.5
182970	2026-08-06T09:25:55	25.1	55.5
182971	2026-08-06T09:35:55	25.2	56.5
182972	2026-08-06T09:45:55	25.7	55.5
182973	2026-08-06T09:55:55	25.8	54.5
182974	2026-08-06T10:05:55	25.9	52.5
182975	2026-08-06T10:15:55	26.5	50
182976	2026-08-06T10:25:55	26.5	49.5
182977	2026-08-06T10:35:55	26.8	47.5
182978	2026-08-06T10:45:55	27.4	46
182979	2026-08-06T10:55:55	27.5	46
182980	2026-08-06T11:05:55	27.9	45
182981	2026-08-06T11:15:55	28	44
182982	2026-08-06T11:25:55	27.7	44
182983	2026-08-06T11:35:55	28	44
182984	2026-08-06T11:45:55	28.2	43
182985	2026-08-06T11:55:55	27.8	43.5
182986	2026-08-06T12:05:55	27.7	44
182987	2026-08-06T12:15:55	28.5	41.5
182988	2026-08-06T12:25:55	31.1	38.5
182989	2026-08-06T12:35:55	32.4	35.5
182990	2026-08-06T12:45:55	33.3	34.5
182991	2026-08-06T12:55:55	33	34
182992	2026-08-06T13:05:55	33.6	33
182993	2026-08-06T13:15:55	35	31.5
182994	2026-08-06T13:25:55	34.3	32
182995	2026-08-06T13:35:55	35.7	30.5
182996	2026-08-06T13:45:55	36.1	31
182997	2026-08-06T13:55:55	36	30.5
182998	2026-08-06T14:05:55	35.7	30
182999	2026-08-06T14:15:55	36.6	29
183000	2026-08-06T14:25:55	38.7	27.5
183001	2026-08-06T14:35:55	38.4	27
183002	2026-08-06T14:45:55	39.4	26.5
183003	2026-08-06T14:55:55	38.1	27.5
183004	2026-08-06T15:05:55	39.9	25.5
183005	2026-08-06T15:15:55	37.5	27.5
183006	2026-08-06T15:25:55	38.1	26.5
183007	2026-08-06T15:35:55	36.7	28
183008	2026-08-06T15:45:55	36.1	29
183009	2026-08-06T15:55:55	37.1	28
183010	2026-08-06T16:05:55	38.1	26.5
183011	2026-08-06T16:15:55	36.5	28
183012	2026-08-06T16:25:55	37.2	27
183013	2026-08-06T16:35:55	37.7	26.5
183014	2026-08-06T16:45:55	37.3	27
183015	2026-08-06T16:55:55	37.7	27.5
183016	2026-08-06T17:05:55	38.4	26
183017	2026-08-06T17:15:55	38.4	26
183018	2026-08-06T17:25:55	36.8	27.5
183019	2026-08-06T17:35:55	36	27.5
183020	2026-08-06T17:45:55	36	28
183021	2026-08-06T17:55:55	33.6	30.5
183022	2026-08-06T18:05:55	32.4	32
183023	2026-08-06T18:15:55	31.6	32.5
183024	2026-08-06T18:25:55	30.9	33.5
183025	2026-08-06T18:35:55	30.2	34.5
183026	2026-08-06T18:45:55	29.5	36
183027	2026-08-06T18:55:54	29.4	36
183028	2026-08-06T19:05:54	29.1	37
183029	2026-08-06T19:15:54	28.7	38
183030	2026-08-06T19:25:54	28.3	39.5
183031	2026-08-06T19:35:54	28	40.5
183032	2026-08-06T19:45:54	27.5	41.5
183033	2026-08-06T19:55:54	27	42.5
183034	2026-08-06T20:05:55	26.6	43
183035	2026-08-06T20:15:54	26.2	43.5
183036	2026-08-06T20:25:54	25.8	44
183037	2026-08-06T20:35:54	25.4	46.5
183038	2026-08-06T20:45:54	25	47
183039	2026-08-06T20:55:54	24.8	47
183040	2026-08-06T21:05:54	24.6	47
183041	2026-08-06T21:15:54	24.1	47.5
183042	2026-08-06T21:25:54	23.8	49
183043	2026-08-06T21:35:54	23.5	49.5
183044	2026-08-06T21:45:54	23.1	50.5
183045	2026-08-06T21:55:54	22.7	52
183046	2026-08-06T22:05:54	22.4	53
183047	2026-08-06T22:15:54	22.4	53.5
183048	2026-08-06T22:25:54	21.8	54.5
183049	2026-08-06T22:35:54	21.6	55.5
183050	2026-08-06T22:45:54	21.5	56
183051	2026-08-06T22:55:54	21.3	56
183052	2026-08-06T23:05:54	21.2	56
183053	2026-08-06T23:15:54	20.9	55
183054	2026-08-06T23:25:54	20.6	57.5
183055	2026-08-06T23:35:54	20.4	59.5
183056	2026-08-06T23:45:54	20.3	57
183057	2026-08-06T23:55:54	20	57.5
183058	2026-08-07T00:05:54	19.7	60.5
183059	2026-08-07T00:15:54	19.4	59.5
183060	2026-08-07T00:35:54	19	61.5
183061	2026-08-07T00:45:54	18.8	62
183062	2026-08-07T00:55:54	18.7	62.5
183063	2026-08-07T01:05:54	18.4	63.5
183064	2026-08-07T01:15:54	18.1	62.5
183065	2026-08-07T01:25:54	18	63
183066	2026-08-07T01:35:54	17.8	63.5
183067	2026-08-07T01:45:54	17.6	64.5
183068	2026-08-07T01:55:54	17.4	64
183069	2026-08-07T02:05:54	17.3	64
183070	2026-08-07T02:15:54	17.3	64.5
183071	2026-08-07T02:25:54	17.1	65
183072	2026-08-07T02:35:54	17	65
183073	2026-08-07T02:45:54	16.9	65
183074	2026-08-07T02:55:54	16.7	66
183075	2026-08-07T03:05:54	16.4	67
183076	2026-08-07T03:15:54	16.5	67
183077	2026-08-07T03:25:54	16.4	67.5
183078	2026-08-07T03:35:54	16.2	67
183079	2026-08-07T03:45:54	16	68
183080	2026-08-07T03:55:54	16	68.5
183081	2026-08-07T04:05:54	15.8	69
183082	2026-08-07T04:15:54	15.8	69.5
183083	2026-08-07T04:25:54	15.5	70
183084	2026-08-07T04:35:54	15.5	70
183085	2026-08-07T04:45:54	15.5	70.5
183086	2026-08-07T04:55:54	15.6	70.5
183087	2026-08-07T05:05:54	15.7	70
183088	2026-08-07T05:15:54	15.8	70
183089	2026-08-07T05:25:54	15.8	70
183090	2026-08-07T05:35:54	16.1	70
183091	2026-08-07T05:45:54	16.3	69.5
183092	2026-08-07T05:55:53	16.4	69.5
183093	2026-08-07T06:05:53	16.7	68
183094	2026-08-07T06:15:53	16.9	67
183095	2026-08-07T06:25:53	17.1	67
183096	2026-08-07T06:35:53	17.3	66
183097	2026-08-07T06:45:53	17.5	65.5
183098	2026-08-07T06:55:53	17.6	64
183099	2026-08-07T07:05:53	17.8	64.5
183100	2026-08-07T07:15:54	18	63
183101	2026-08-07T07:25:53	18.2	63
183102	2026-08-07T07:35:53	18.5	62.5
183103	2026-08-07T07:45:53	18.5	62.5
183104	2026-08-07T07:55:53	18.8	61.5
183105	2026-08-07T08:05:53	19.1	61
183106	2026-08-07T08:15:53	19.4	60.5
183107	2026-08-07T08:25:53	19.8	60.5
183108	2026-08-07T08:35:53	19.9	59.5
183109	2026-08-07T08:45:53	20.2	59.5
183110	2026-08-07T08:55:53	20.7	58.5
183111	2026-08-07T09:05:53	20.9	57.5
183112	2026-08-07T09:15:53	21	57
183113	2026-08-07T09:25:53	21.5	56
183114	2026-08-07T09:35:53	21.7	55.5
183115	2026-08-07T09:45:53	22.1	53.5
183116	2026-08-07T09:55:53	22.4	52
183117	2026-08-07T10:05:53	22.4	51.5
183118	2026-08-07T10:15:53	22.7	51.5
183119	2026-08-07T10:25:53	22.9	49.5
183120	2026-08-07T10:35:53	23.2	47.5
183121	2026-08-07T10:45:53	23.4	47
183122	2026-08-07T10:55:53	23.9	46.5
183123	2026-08-07T11:05:53	24.1	46.5
183124	2026-08-07T11:15:53	24.5	45.5
183125	2026-08-07T11:25:53	24.5	44.5
183126	2026-08-07T11:35:53	24.9	43.5
183127	2026-08-07T11:45:53	25.5	43
183128	2026-08-07T11:55:53	26.1	42
183129	2026-08-07T12:05:53	26.6	41
183130	2026-08-07T12:15:53	27.2	40.5
183131	2026-08-07T12:25:53	30.8	36.5
183132	2026-08-07T12:35:53	33.1	32.5
183133	2026-08-07T12:45:53	34	32
183134	2026-08-07T12:55:53	35.7	29.5
183135	2026-08-07T13:05:53	34.7	30
183136	2026-08-07T13:15:53	37.3	28.5
183137	2026-08-07T13:25:53	38.7	28
183138	2026-08-07T13:35:53	38.2	27
183139	2026-08-07T13:45:53	39.5	25.5
183140	2026-08-07T13:55:53	38.3	26
183141	2026-08-07T14:05:53	39.2	26
183142	2026-08-07T14:15:53	40.5	25
183143	2026-08-07T14:25:53	40.1	24.5
183144	2026-08-07T14:35:53	40.7	24.5
183145	2026-08-07T14:45:53	40.5	24.5
183146	2026-08-07T14:55:53	41.8	24
183147	2026-08-07T15:05:53	43	23.5
183148	2026-08-07T15:15:53	41.2	24
183149	2026-08-07T15:25:53	40.5	24.5
183150	2026-08-07T15:35:53	41.6	23.5
183151	2026-08-07T15:45:53	40.4	23.5
183152	2026-08-07T15:55:53	39.9	24
183153	2026-08-07T16:05:53	40.4	23.5
183154	2026-08-07T16:15:52	39.1	24
183155	2026-08-07T16:25:52	38.5	24.5
183156	2026-08-07T16:35:52	37.9	25
183157	2026-08-07T16:45:52	37.4	25
183158	2026-08-07T16:55:52	34.6	28
183159	2026-08-07T17:05:52	33.2	29.5
183160	2026-08-07T17:15:52	33.3	29.5
183161	2026-08-07T17:25:52	32.5	30
183162	2026-08-07T17:35:52	32.6	29.5
183163	2026-08-07T17:45:52	32.9	29
183164	2026-08-07T17:55:52	31.6	29.5
183165	2026-08-07T18:05:52	30.8	30
183166	2026-08-07T18:25:52	29.6	31.5
183167	2026-08-07T18:35:52	29.3	32.5
183168	2026-08-07T18:45:52	28.6	33
183169	2026-08-07T18:55:52	28.1	35
183170	2026-08-07T19:05:52	27.7	35.5
183171	2026-08-07T19:15:52	27.3	35.5
183172	2026-08-07T19:25:52	27	37.5
183173	2026-08-07T19:35:52	26.5	38
183174	2026-08-07T19:45:52	26.2	39.5
183175	2026-08-07T19:55:52	25.7	40
183176	2026-08-07T20:05:52	25.3	40.5
183177	2026-08-07T20:15:52	25	42.5
183178	2026-08-07T20:25:52	24.5	44
183179	2026-08-07T20:35:52	24.2	43.5
183180	2026-08-07T20:45:52	23.8	44.5
183181	2026-08-07T20:55:52	23.5	45.5
183182	2026-08-07T21:05:52	23.2	45.5
183183	2026-08-07T21:15:52	23	46.5
183184	2026-08-07T21:25:52	22.8	47
183185	2026-08-07T21:35:52	22.6	47
183186	2026-08-07T21:45:52	22.2	48
183187	2026-08-07T21:55:52	21.7	48.5
183188	2026-08-07T22:05:52	21.6	50
183189	2026-08-07T22:15:52	21.4	49.5
183190	2026-08-07T22:25:52	21.3	50.5
183191	2026-08-07T22:35:52	20.9	51
183192	2026-08-07T22:45:52	20.8	52
183193	2026-08-07T22:55:52	20.8	52.5
183194	2026-08-07T23:05:52	20.4	53
183195	2026-08-07T23:15:52	20.1	54
183196	2026-08-07T23:25:52	20.1	54
183197	2026-08-07T23:35:52	19.8	54.5
183198	2026-08-07T23:45:52	19.5	55.5
183199	2026-08-07T23:55:52	19.4	56
183200	2026-08-08T00:05:52	19.2	57
183201	2026-08-08T00:15:52	19	57
183202	2026-08-08T00:25:52	18.7	58
183203	2026-08-08T00:35:52	18.4	58.5
183204	2026-08-08T00:45:52	18.3	59
183205	2026-08-08T00:55:52	18.2	59
183206	2026-08-08T01:15:52	17.8	60
183207	2026-08-08T01:25:52	17.5	60.5
183208	2026-08-08T01:35:52	17.5	61
183209	2026-08-08T01:45:52	17.4	62
183210	2026-08-08T01:55:52	17.2	62
183211	2026-08-08T02:05:52	17	62.5
183212	2026-08-08T02:15:52	16.7	63.5
183213	2026-08-08T02:25:52	16.5	64
183214	2026-08-08T02:35:51	16.3	64.5
183215	2026-08-08T02:45:51	16.3	64.5
183216	2026-08-08T02:55:51	16.1	65
183217	2026-08-08T03:05:51	15.9	66
183218	2026-08-08T03:15:51	15.6	66.5
183219	2026-08-08T03:25:51	15.6	67
183220	2026-08-08T03:35:51	15.4	67.5
183221	2026-08-08T03:45:51	15.5	68
183222	2026-08-08T03:55:51	15.3	68
183223	2026-08-08T04:05:51	15.2	68.5
183224	2026-08-08T04:15:51	15	69
183225	2026-08-08T04:25:51	14.8	69.5
183226	2026-08-08T04:35:51	14.8	69.5
183227	2026-08-08T04:45:51	14.9	69.5
183228	2026-08-08T04:55:51	14.9	69.5
183229	2026-08-08T05:05:51	14.9	69.5
183230	2026-08-08T05:15:51	15	69.5
183231	2026-08-08T05:25:51	15.2	69.5
183232	2026-08-08T05:35:51	15.4	69
183233	2026-08-08T05:45:51	15.6	69
183234	2026-08-08T05:55:51	15.8	68.5
183235	2026-08-08T06:05:51	16.1	67.5
183236	2026-08-08T06:15:51	16.2	68
183237	2026-08-08T06:25:51	16.3	67.5
183238	2026-08-08T06:35:51	16.7	66.5
183239	2026-08-08T06:45:51	17	65
183240	2026-08-08T06:55:51	17.4	64.5
183241	2026-08-08T07:05:51	17.6	63
183242	2026-08-08T07:15:51	18	63
183243	2026-08-08T07:25:51	18.3	61
183244	2026-08-08T07:35:51	18.5	61
183245	2026-08-08T07:45:51	18.9	60
183246	2026-08-08T07:55:51	19.1	60
183247	2026-08-08T08:05:51	19.4	59.5
183248	2026-08-08T08:15:51	19.8	59
183249	2026-08-08T08:25:51	20.1	58
183250	2026-08-08T08:35:51	20.4	58
183251	2026-08-08T08:45:51	20.7	57
183252	2026-08-08T08:55:51	21.2	55.5
183253	2026-08-08T09:05:51	21.5	55
183254	2026-08-08T09:15:51	21.7	54.5
183255	2026-08-08T09:25:51	22.2	54
183256	2026-08-08T09:35:51	22.5	52.5
183257	2026-08-08T09:45:51	22.8	53
183258	2026-08-08T09:55:51	23.4	52
183259	2026-08-08T10:05:51	23.6	51.5
183260	2026-08-08T10:15:51	24	50.5
183261	2026-08-08T10:25:51	24.5	48.5
183262	2026-08-08T10:35:51	24.9	48
183263	2026-08-08T10:45:51	25.1	48.5
183264	2026-08-08T10:55:51	25.6	47
183265	2026-08-08T11:05:51	26.2	45.5
183266	2026-08-08T11:15:51	26.7	43.5
183267	2026-08-08T11:25:51	27.1	43
183268	2026-08-08T11:35:51	27.7	40
183269	2026-08-08T11:45:51	28	40.5
183270	2026-08-08T11:55:51	28.6	39
183271	2026-08-08T12:05:51	29.2	38.5
183272	2026-08-08T12:15:51	30.3	38.5
183273	2026-08-08T12:25:51	33.1	34
183274	2026-08-08T12:35:51	35	31.5
183275	2026-08-08T12:45:51	36.8	30
183276	2026-08-08T12:55:51	38	29
183277	2026-08-08T13:05:51	38.6	28.5
183278	2026-08-08T13:15:50	40.5	26
183279	2026-08-08T13:25:50	40.8	26.5
183280	2026-08-08T13:35:50	41.1	25.5
183281	2026-08-08T13:45:50	41.5	25
183282	2026-08-08T13:55:50	42	24
183283	2026-08-08T14:05:50	43.5	23.5
183284	2026-08-08T14:15:50	43.2	22.5
183285	2026-08-08T14:25:50	44.5	23.5
183286	2026-08-08T14:35:50	44.5	22
183287	2026-08-08T14:45:50	45.1	22
183288	2026-08-08T14:55:50	44.9	21.5
183289	2026-08-08T15:05:50	44.6	22
183290	2026-08-08T15:15:50	46.1	20.5
183291	2026-08-08T15:25:50	45.5	21
183292	2026-08-08T15:35:50	46.4	20.5
183293	2026-08-08T15:45:50	46.2	20
183294	2026-08-08T15:55:50	46.4	20
183295	2026-08-08T16:05:50	46.2	21
183296	2026-08-08T16:15:50	46.2	20
183297	2026-08-08T16:25:50	46.8	19
183298	2026-08-08T16:35:50	46.5	19
183299	2026-08-08T16:45:50	45.7	19.5
183300	2026-08-08T16:55:50	45.8	19.5
183301	2026-08-08T17:05:50	45.3	19.5
183302	2026-08-08T17:15:50	44	20.5
183303	2026-08-08T17:25:50	43.9	21
183304	2026-08-08T17:35:50	43.6	21
183305	2026-08-08T17:45:50	41.2	22.5
183306	2026-08-08T17:55:50	38.9	24
183307	2026-08-08T18:05:50	37.8	26
183308	2026-08-08T18:15:50	37.2	28
183309	2026-08-08T18:25:50	36.2	28.5
183310	2026-08-08T18:35:50	35.4	30
183311	2026-08-08T18:45:50	34.5	31.5
183312	2026-08-08T18:55:50	33.8	33
183313	2026-08-08T19:05:50	33	34.5
183314	2026-08-08T19:15:50	32.4	35.5
183315	2026-08-08T19:25:50	31.9	36.5
183316	2026-08-08T19:35:50	31.4	37
183317	2026-08-08T19:45:50	30.7	38
183318	2026-08-08T19:55:50	30.4	37.5
183319	2026-08-08T20:05:50	29.9	39
183320	2026-08-08T20:15:50	29.5	39.5
183321	2026-08-08T20:25:50	29	39.5
183322	2026-08-08T20:35:50	28.6	40.5
183323	2026-08-08T20:45:50	28	41.5
183324	2026-08-08T20:55:50	27.9	42
183325	2026-08-08T21:05:50	27.2	43
183326	2026-08-08T21:15:50	26.9	43
183327	2026-08-08T21:25:50	26.3	44.5
183328	2026-08-08T21:36:07	26.3	44
183329	2026-08-08T21:45:50	26	44.5
183330	2026-08-08T21:55:50	25.8	44.5
183331	2026-08-08T22:05:50	25.8	46
183332	2026-08-08T22:15:50	25.5	47
183333	2026-08-08T22:25:50	25.1	47.5
183334	2026-08-08T22:35:50	24.9	47.5
183335	2026-08-08T22:45:50	24.7	48
183336	2026-08-08T22:55:50	24.5	48.5
183337	2026-08-08T23:05:50	24.2	49.5
183338	2026-08-08T23:15:50	23.8	50
183339	2026-08-08T23:25:50	23.8	51
183340	2026-08-08T23:35:50	23.5	52
183341	2026-08-08T23:45:50	23.3	52.5
183342	2026-08-08T23:55:50	23.1	53.5
183343	2026-08-09T00:05:50	22.8	54.5
183344	2026-08-09T00:15:50	22.5	55.5
183345	2026-08-09T00:25:50	22.3	56.5
183346	2026-08-09T00:35:50	22.2	57
183347	2026-08-09T00:45:50	22	57
183348	2026-08-09T00:55:50	21.9	57
183349	2026-08-09T01:05:49	21.6	59
183350	2026-08-09T01:15:50	21.4	59
183351	2026-08-09T01:25:49	21.2	60
183352	2026-08-09T01:45:49	20.8	60.5
183353	2026-08-09T01:55:49	20.6	62.5
183354	2026-08-09T02:05:50	20.5	63
183355	2026-08-09T02:15:49	20.3	63
183356	2026-08-09T02:25:50	20.1	64
183357	2026-08-09T02:35:49	19.8	65
183358	2026-08-09T02:45:49	19.7	65.5
183359	2026-08-09T02:55:49	19.6	66
183360	2026-08-09T03:05:49	19.6	66
183361	2026-08-09T03:15:49	19.4	66
183362	2026-08-09T03:25:49	19.3	67
183363	2026-08-09T03:35:49	19.1	68
183364	2026-08-09T03:45:49	19	68
183365	2026-08-09T03:55:49	18.9	69
183366	2026-08-09T04:05:49	18.7	69.5
183367	2026-08-09T04:15:49	18.7	69
183368	2026-08-09T04:25:49	18.6	69.5
183369	2026-08-09T04:35:49	18.8	69
183370	2026-08-09T04:45:49	18.6	69
183371	2026-08-09T04:55:49	18.8	69
183372	2026-08-09T05:05:49	18.9	69
183373	2026-08-09T05:15:49	19.1	69.5
183374	2026-08-09T05:25:49	19.2	68
183375	2026-08-09T05:35:49	19.3	68.5
183376	2026-08-09T05:45:49	19.5	69
183377	2026-08-09T05:55:49	19.8	69.5
183378	2026-08-09T06:05:49	20	69
183379	2026-08-09T06:15:49	20.2	69
183380	2026-08-09T06:25:49	20.5	66
183381	2026-08-09T06:35:49	20.8	64.5
183382	2026-08-09T06:45:49	21	65
183383	2026-08-09T06:55:49	21.2	64.5
183384	2026-08-09T07:05:49	21.4	64
183385	2026-08-09T07:15:49	21.7	64.5
183386	2026-08-09T07:25:49	21.9	64
183387	2026-08-09T07:35:49	22.1	64.5
183388	2026-08-09T07:45:49	22.5	63
183389	2026-08-09T07:55:49	22.7	63
183390	2026-08-09T08:05:49	23	62
183391	2026-08-09T08:15:49	23.2	61
183392	2026-08-09T08:25:49	23.7	60.5
183393	2026-08-09T08:35:49	24	59.5
183394	2026-08-09T08:45:49	24.2	57.5
183395	2026-08-09T08:55:49	24.7	57
183396	2026-08-09T09:05:49	24.9	56.5
183397	2026-08-09T09:15:49	25.4	55
183398	2026-08-09T09:25:49	25.7	54.5
183399	2026-08-09T09:35:49	26.3	52.5
183400	2026-08-09T09:45:49	26.6	53
183401	2026-08-09T09:55:49	27.1	50.5
183402	2026-08-09T10:05:49	27.5	46.5
183403	2026-08-09T10:15:49	28.2	45
183404	2026-08-09T10:25:49	28.7	44.5
183405	2026-08-09T10:35:49	28.9	43.5
183406	2026-08-09T10:45:49	29.3	42
183407	2026-08-09T10:55:48	29.8	40
183408	2026-08-09T11:05:48	30.4	39
183409	2026-08-09T11:15:48	30.4	37.5
183410	2026-08-09T11:25:48	30.9	39
183411	2026-08-09T11:35:48	31.5	36
183412	2026-08-09T11:45:48	31.8	35
183413	2026-08-09T11:55:48	32.3	34
183414	2026-08-09T12:05:48	32.8	36
183415	2026-08-09T12:15:48	33.6	33.5
183416	2026-08-09T12:25:48	34.7	30.5
183417	2026-08-09T12:35:48	36.3	28.5
183418	2026-08-09T12:45:48	35.4	29
183419	2026-08-09T12:55:48	34.7	30.5
183420	2026-08-09T13:05:48	34.3	32
183421	2026-08-09T13:15:48	34	32.5
183422	2026-08-09T13:25:48	33.6	32
183423	2026-08-09T13:35:48	33	30.5
183424	2026-08-09T13:45:48	32.6	31.5
183425	2026-08-09T13:55:48	32.1	32.5
183426	2026-08-09T14:05:48	32	33.5
183427	2026-08-09T14:15:48	31.6	35.5
183428	2026-08-09T14:25:48	31.2	36.5
183429	2026-08-09T14:35:48	30.8	36.5
183430	2026-08-09T14:45:48	30.9	37.5
183431	2026-08-09T14:55:48	31.3	38
183432	2026-08-09T15:05:48	33.2	34.5
183433	2026-08-09T15:15:48	34.2	33
183434	2026-08-09T15:25:48	35.1	32
183435	2026-08-09T15:35:48	38.2	29.5
183436	2026-08-09T15:45:48	37.7	27
183437	2026-08-09T15:55:48	38.4	27.5
183438	2026-08-09T16:05:48	38.5	28.5
183439	2026-08-09T16:15:48	38.9	28
183440	2026-08-09T16:25:48	38.7	28.5
183441	2026-08-09T16:35:48	38.5	28.5
183442	2026-08-09T16:45:48	38.6	29
183443	2026-08-09T16:55:48	38.2	29
183444	2026-08-09T17:05:48	38.1	29
183445	2026-08-09T17:15:48	38.1	29.5
183446	2026-08-09T17:25:48	38.3	28.5
183447	2026-08-09T17:35:48	37.5	30
183448	2026-08-09T17:45:48	35.4	32.5
183449	2026-08-09T17:55:48	34.4	34
183450	2026-08-09T18:05:48	33.6	35.5
183451	2026-08-09T18:15:48	32.9	37
183452	2026-08-09T18:25:48	32.7	39
183453	2026-08-09T18:35:48	32.2	40.5
183454	2026-08-09T18:45:48	31.7	41.5
183455	2026-08-09T18:55:48	31.1	42
183456	2026-08-09T19:05:48	30.4	43
183457	2026-08-09T19:15:48	30	44.5
183458	2026-08-09T19:25:48	29.6	45
183459	2026-08-09T19:35:48	29.1	45
183460	2026-08-09T19:45:48	28.7	45.5
183461	2026-08-09T19:55:48	28.5	48.5
183462	2026-08-09T20:05:48	28.1	49.5
183463	2026-08-09T20:15:48	27.9	49
183464	2026-08-09T20:25:48	27.6	50.5
183465	2026-08-09T20:35:48	27.6	51.5
183466	2026-08-09T20:45:48	27.4	51.5
183467	2026-08-09T20:55:48	27.2	51
183468	2026-08-09T21:06:06	26.6	52.5
183469	2026-08-09T21:15:48	26.6	52.5
183470	2026-08-09T21:25:48	26.4	53.5
183471	2026-08-09T21:35:47	26.3	54
183472	2026-08-09T21:45:48	26.1	54.5
183473	2026-08-09T21:55:47	25.7	56
183474	2026-08-09T22:05:47	25.3	56.5
183475	2026-08-09T22:15:47	25.1	57
183476	2026-08-09T22:25:48	24.8	58
183477	2026-08-09T22:35:47	24.6	58.5
183478	2026-08-09T22:45:48	24.3	59
183479	2026-08-09T22:55:48	24	59.5
183480	2026-08-09T23:05:47	23.8	59
183481	2026-08-09T23:15:47	23.5	60
183482	2026-08-09T23:25:47	23.3	60.5
183483	2026-08-09T23:35:47	23.3	61
183484	2026-08-09T23:45:47	23	61.5
183485	2026-08-09T23:55:47	22.9	62.5
183486	2026-08-10T00:05:47	22.7	62
183487	2026-08-10T00:15:47	22.6	63
183488	2026-08-10T00:25:47	22.5	62.5
183489	2026-08-10T00:35:47	22.4	63.5
183490	2026-08-10T00:45:47	22.1	64.5
183491	2026-08-10T00:55:47	21.8	65.5
183492	2026-08-10T01:05:47	21.5	67.5
183493	2026-08-10T01:15:47	21.5	67.5
183494	2026-08-10T01:25:47	21.3	68
183495	2026-08-10T01:35:47	21.3	68
183496	2026-08-10T01:45:47	21.1	68.5
183497	2026-08-10T01:55:47	20.9	68.5
183498	2026-08-10T02:05:47	20.9	69
183499	2026-08-10T02:25:47	20.6	68.5
183500	2026-08-10T02:35:47	20.6	68.5
183501	2026-08-10T02:45:47	20.4	69
183502	2026-08-10T02:55:47	20.4	69
183503	2026-08-10T03:05:47	20.1	70
183504	2026-08-10T03:15:47	20	69.5
183505	2026-08-10T03:25:47	19.9	70.5
183506	2026-08-10T03:35:47	19.8	70
183507	2026-08-10T03:45:47	19.7	70.5
183508	2026-08-10T03:55:47	19.8	70.5
183509	2026-08-10T04:05:47	19.5	71.5
183510	2026-08-10T04:15:47	19.4	72.5
183511	2026-08-10T04:25:47	19.4	72
183512	2026-08-10T04:35:47	19.3	73
183513	2026-08-10T04:45:47	19.2	72.5
183514	2026-08-10T04:55:47	19.5	72.5
183515	2026-08-10T05:05:47	19.4	72.5
183516	2026-08-10T05:15:47	19.6	72.5
183517	2026-08-10T05:25:47	19.8	71.5
183518	2026-08-10T05:35:47	19.9	71
183519	2026-08-10T05:45:47	20.1	71
183520	2026-08-10T05:55:47	20.3	70.5
183521	2026-08-10T06:05:47	20.4	71.5
183522	2026-08-10T06:15:47	20.6	71.5
183523	2026-08-10T06:25:47	20.7	69.5
183524	2026-08-10T06:35:47	21.2	68
183525	2026-08-10T06:45:47	21.6	68.5
183526	2026-08-10T06:55:47	21.9	68.5
183527	2026-08-10T07:05:46	22.4	68.5
183528	2026-08-10T07:15:46	22.8	66
183529	2026-08-10T07:25:46	23.4	63
183530	2026-08-10T07:35:46	23.7	62
183531	2026-08-10T07:45:46	24	61
183532	2026-08-10T07:55:46	24.1	62
183533	2026-08-10T08:05:46	24.5	61
183534	2026-08-10T08:15:46	24.8	59
183535	2026-08-10T08:25:46	25.4	57.5
183536	2026-08-10T08:35:46	25.6	57
183537	2026-08-10T08:45:46	26	56.5
183538	2026-08-10T08:55:46	26.4	55.5
183539	2026-08-10T09:05:46	26.8	54
183540	2026-08-10T09:15:46	27.6	51
183541	2026-08-10T09:25:46	28.3	49
183542	2026-08-10T09:35:46	28.7	47.5
183543	2026-08-10T09:45:46	29.3	46
183544	2026-08-10T09:55:46	29.6	45
183545	2026-08-10T10:05:46	30.1	44
183546	2026-08-10T10:15:46	30.3	43.5
183547	2026-08-10T10:25:46	30.4	44
183548	2026-08-10T10:35:46	30.3	44.5
183549	2026-08-10T10:45:46	30.4	44.5
183550	2026-08-10T10:55:46	30.7	43
183551	2026-08-10T11:05:46	31.1	43
183552	2026-08-10T11:15:46	31.2	43
183553	2026-08-10T11:25:46	31.4	43.5
183554	2026-08-10T11:35:46	31.6	43.5
183555	2026-08-10T11:45:46	31.8	42
183556	2026-08-10T11:55:46	32.2	41.5
183557	2026-08-10T12:05:46	32.8	39.5
183558	2026-08-10T12:15:46	33.6	38.5
183559	2026-08-10T12:25:46	34.6	37
183560	2026-08-10T12:35:46	36.5	35
183561	2026-08-10T12:45:46	36.7	35
183562	2026-08-10T12:55:46	37.3	34
183563	2026-08-10T13:05:46	38.9	32
183564	2026-08-10T13:15:46	39.2	30.5
183565	2026-08-10T13:25:46	39.5	30.5
183566	2026-08-10T13:35:46	39.2	28.5
183567	2026-08-10T13:45:46	39.3	29
183568	2026-08-10T14:05:46	38.8	28.5
183569	2026-08-10T14:15:46	40.7	27.5
183570	2026-08-10T14:25:46	40.3	28
183571	2026-08-10T14:35:46	41.3	27
183572	2026-08-10T14:45:46	41.2	27
183573	2026-08-10T14:55:46	40.8	27.5
183574	2026-08-10T15:05:46	41.4	27
183575	2026-08-10T15:15:46	42.2	26.5
183576	2026-08-10T15:25:46	39.5	28
183577	2026-08-10T15:35:46	41.7	26.5
183578	2026-08-10T15:45:46	41.1	27
183579	2026-08-10T15:55:46	40.1	27.5
183580	2026-08-10T16:05:46	40.9	26.5
183581	2026-08-10T16:15:46	41.3	26
183582	2026-08-10T16:25:46	40.9	26.5
183583	2026-08-10T16:35:46	41.2	26
183584	2026-08-10T16:45:46	40.7	26.5
183585	2026-08-10T16:55:46	39.2	27.5
183586	2026-08-10T17:05:46	38.9	28
183587	2026-08-10T17:15:46	39.9	27
183588	2026-08-10T17:25:46	38.5	28
183589	2026-08-10T17:35:46	38.7	27.5
183590	2026-08-10T17:45:45	36.6	35.5
183591	2026-08-10T17:55:45	35.7	38
183592	2026-08-10T18:05:45	34.9	39.5
183593	2026-08-10T18:15:45	34.2	41
183594	2026-08-10T18:25:45	33.7	42
183595	2026-08-10T18:35:45	32.9	43.5
183596	2026-08-10T18:45:45	32.2	45
183597	2026-08-10T18:55:45	32	45.5
183598	2026-08-10T19:05:45	31.4	46.5
183599	2026-08-10T19:15:45	31	47.5
183600	2026-08-10T19:25:45	30.6	48.5
183601	2026-08-10T19:35:45	30.3	49.5
183602	2026-08-10T19:45:45	29.9	50
183603	2026-08-10T19:55:45	29.8	50.5
183604	2026-08-10T20:05:45	29.6	51
183605	2026-08-10T20:15:45	29.5	51
183606	2026-08-10T20:25:45	29.1	50.5
183607	2026-08-10T20:35:45	29	53
183608	2026-08-10T20:45:45	28.6	54
183609	2026-08-10T21:05:45	27.8	54
183610	2026-08-10T21:15:45	27.7	54.5
183611	2026-08-10T21:25:45	27.3	55.5
183612	2026-08-10T21:35:45	27.1	53.5
183613	2026-08-10T21:45:45	27	53.5
183614	2026-08-10T21:55:45	26.6	54
183615	2026-08-10T22:05:45	26.5	54
183616	2026-08-10T22:15:45	26.2	54.5
183617	2026-08-10T22:25:45	26	53.5
183618	2026-08-10T22:35:45	25.7	53.5
183619	2026-08-10T22:45:45	25.5	54
183620	2026-08-10T22:55:45	25.4	55
183621	2026-08-10T23:05:45	25.1	56
183622	2026-08-10T23:15:45	24.9	57
183623	2026-08-10T23:25:45	24.7	57
183624	2026-08-10T23:35:45	24.7	57.5
183625	2026-08-10T23:45:45	24.2	57.5
183626	2026-08-10T23:55:45	24.3	57.5
183627	2026-08-11T00:05:45	24.1	58.5
183628	2026-08-11T00:15:45	24	58.5
183629	2026-08-11T00:25:45	23.8	59
183630	2026-08-11T00:35:45	23.7	59
183631	2026-08-11T00:45:45	23.6	60
183632	2026-08-11T00:55:45	23.4	60.5
183633	2026-08-11T01:15:45	23	62
183634	2026-08-11T01:25:45	22.9	62.5
183635	2026-08-11T01:35:45	22.5	62.5
183636	2026-08-11T01:45:45	22.4	63.5
183637	2026-08-11T01:55:45	22.3	64
183638	2026-08-11T02:05:45	21.9	64.5
183639	2026-08-11T02:15:45	21.9	65
183640	2026-08-11T02:25:45	21.5	65
183641	2026-08-11T02:35:45	21.5	65.5
183642	2026-08-11T02:45:45	21.3	66
183643	2026-08-11T02:55:45	21.1	66.5
183644	2026-08-11T03:05:45	21	67
183645	2026-08-11T03:15:45	21	67.5
183646	2026-08-11T03:25:44	20.6	68
183647	2026-08-11T03:45:44	20.3	69
183648	2026-08-11T03:55:44	20.2	69.5
183649	2026-08-11T04:15:44	19.9	70
183650	2026-08-11T04:35:44	19.6	71
183651	2026-08-11T04:45:44	19.6	71.5
183652	2026-08-11T04:55:44	19.5	71.5
183653	2026-08-11T05:05:44	19.6	71.5
183654	2026-08-11T05:15:44	19.7	71.5
183655	2026-08-11T05:25:44	19.7	71.5
183656	2026-08-11T05:35:44	19.9	71.5
183657	2026-08-11T05:45:44	20	71.5
183658	2026-08-11T05:55:44	20.3	71
183659	2026-08-11T06:05:44	20.5	70.5
183660	2026-08-11T06:15:44	20.8	69.5
183661	2026-08-11T06:25:44	21	69
183662	2026-08-11T06:35:44	21.1	68.5
183663	2026-08-11T06:45:44	21.4	68.5
183664	2026-08-11T06:55:44	21.6	67.5
183665	2026-08-11T07:05:44	21.8	67
183666	2026-08-11T07:15:44	22	66.5
183667	2026-08-11T07:25:44	22.3	65
183668	2026-08-11T07:35:44	22.4	64.5
183669	2026-08-11T07:45:44	22.7	64
183670	2026-08-11T07:55:44	22.8	63.5
183671	2026-08-11T08:05:44	22.9	63.5
183672	2026-08-11T08:15:44	23.2	63.5
183673	2026-08-11T08:25:44	23.4	62
183674	2026-08-11T08:35:44	23.6	61.5
183675	2026-08-11T08:45:44	23.8	61
183676	2026-08-11T08:55:44	24.3	61
183677	2026-08-11T09:15:44	24.8	58.5
183678	2026-08-11T09:25:44	25.1	56.5
183679	2026-08-11T09:35:44	25.2	57.5
183680	2026-08-11T09:45:44	25.5	55.5
183681	2026-08-11T09:55:44	25.7	55.5
183682	2026-08-11T10:05:44	25.9	54.5
183683	2026-08-11T10:15:44	26.2	53.5
183684	2026-08-11T10:25:44	26.4	53
183685	2026-08-11T10:35:44	26.7	51.5
183686	2026-08-11T10:45:44	26.9	51.5
183687	2026-08-11T10:55:44	27.1	50
183688	2026-08-11T11:05:44	27.4	50.5
183689	2026-08-11T11:15:44	27.7	49.5
183690	2026-08-11T11:25:44	27.8	49
183691	2026-08-11T11:35:44	28.1	48
183692	2026-08-11T11:45:44	28.5	47.5
183693	2026-08-11T11:55:44	28.9	46.5
183694	2026-08-11T12:05:44	29.8	44
183695	2026-08-11T12:15:44	30.7	43
183696	2026-08-11T12:25:44	33.2	39.5
183697	2026-08-11T12:35:44	34.9	36
183698	2026-08-11T12:45:44	36.2	34.5
183699	2026-08-11T12:55:44	36.8	33.5
183700	2026-08-11T13:05:44	38.5	33
183701	2026-08-11T13:15:44	38.2	32
183702	2026-08-11T13:25:44	40	30.5
183703	2026-08-11T13:35:44	41.2	30
183704	2026-08-11T13:45:43	41.2	28.5
183705	2026-08-11T13:55:43	42.5	27.5
183706	2026-08-11T14:05:43	42.7	27
183707	2026-08-11T14:15:43	42.5	27
183708	2026-08-11T14:25:43	43.3	26.5
183709	2026-08-11T14:35:43	44.4	25.5
183710	2026-08-11T14:45:43	43.9	25
183711	2026-08-11T14:55:43	44.1	26
183712	2026-08-11T15:05:43	44.8	24.5
183713	2026-08-11T15:15:43	45.6	24
183714	2026-08-11T15:25:43	44.9	24.5
183715	2026-08-11T15:35:43	46.4	23.5
183716	2026-08-11T15:45:43	46	24
183717	2026-08-11T15:55:43	45.7	24
183718	2026-08-11T16:05:43	44.3	25
183719	2026-08-11T16:15:43	44	25
183720	2026-08-11T16:25:43	42.8	25.5
183721	2026-08-11T16:35:43	43	25.5
183722	2026-08-11T16:45:43	42.5	25.5
183723	2026-08-11T16:55:43	42.1	26.5
183724	2026-08-11T17:05:43	41.8	26
183725	2026-08-11T17:15:43	41.4	25.5
183726	2026-08-11T17:25:43	41.3	25.5
183727	2026-08-11T17:35:43	40.4	26
183728	2026-08-11T17:45:43	37.8	28
183729	2026-08-11T17:56:03	35.9	29.5
183730	2026-08-11T18:05:43	35.1	29.5
183731	2026-08-11T18:15:43	34	30.5
183732	2026-08-11T18:25:43	33.4	31
183733	2026-08-11T18:35:43	32.5	32
183734	2026-08-11T18:45:43	31.8	32
183735	2026-08-11T18:56:04	31.4	34
183736	2026-08-11T19:05:43	30.8	33.5
183737	2026-08-11T19:15:43	30.3	34.5
183738	2026-08-11T19:25:43	30.2	35.5
183739	2026-08-11T19:35:43	29.8	37.5
183740	2026-08-11T19:45:43	29.5	38.5
183741	2026-08-11T19:55:43	28.8	39
183742	2026-08-11T20:05:43	28.3	39.5
183743	2026-08-11T20:15:43	27.7	40
183744	2026-08-11T20:25:43	27.7	41
183745	2026-08-11T20:35:43	27.4	41.5
183746	2026-08-11T20:45:43	27.2	42.5
183747	2026-08-11T20:55:43	26.8	44
183748	2026-08-11T21:05:43	26.4	46
183749	2026-08-11T21:15:43	25.9	47
183750	2026-08-11T21:25:43	25.7	48
183751	2026-08-11T21:35:43	25.5	48
183752	2026-08-11T21:45:43	25.1	48.5
183753	2026-08-11T21:55:43	24.6	49.5
183754	2026-08-11T22:05:43	24.4	50.5
183755	2026-08-11T22:15:43	24	50.5
183756	2026-08-11T22:25:43	23.6	51
183757	2026-08-11T22:35:43	23.2	51.5
183758	2026-08-11T22:45:43	22.9	52.5
183759	2026-08-11T22:55:43	22.6	52
183760	2026-08-11T23:05:43	22.3	52
183761	2026-08-11T23:15:43	22	50.5
183762	2026-08-11T23:25:43	22.1	50
183763	2026-08-11T23:35:43	21.9	48
183764	2026-08-11T23:45:43	21.8	45.5
183765	2026-08-11T23:55:43	21.8	45.5
183766	2026-08-12T00:05:43	21.6	46
183767	2026-08-12T00:15:43	21.4	45.5
183768	2026-08-12T00:25:43	21.3	44.5
183769	2026-08-12T00:35:43	21	45.5
183770	2026-08-12T00:45:43	20.9	45.5
183771	2026-08-12T00:55:43	20.9	45
183772	2026-08-12T01:05:42	20.6	44.5
183773	2026-08-12T01:15:43	20.6	44.5
183774	2026-08-12T01:25:42	20.3	44
183775	2026-08-12T01:35:42	20.1	44.5
183776	2026-08-12T01:45:42	20	45
183777	2026-08-12T01:55:42	19.8	45
183778	2026-08-12T02:05:42	19.8	45.5
183779	2026-08-12T02:15:42	19.6	46.5
183780	2026-08-12T02:25:42	19.5	46
183781	2026-08-12T02:35:42	19.4	45.5
183782	2026-08-12T02:45:43	19.5	46
183783	2026-08-12T02:55:42	19.2	46
183784	2026-08-12T03:05:42	19.2	46.5
183785	2026-08-12T03:15:42	19	47
183786	2026-08-12T03:25:42	18.8	47
183787	2026-08-12T03:35:42	18.8	47
183788	2026-08-12T03:45:42	18.6	48.5
183789	2026-08-12T03:55:42	18.4	49
183790	2026-08-12T04:05:42	18.1	50
183791	2026-08-12T04:15:42	18.2	49
183792	2026-08-12T04:25:42	18.2	49
183793	2026-08-12T04:35:42	18.1	49
183794	2026-08-12T04:45:42	18.1	49
183795	2026-08-12T04:55:42	18	49.5
183796	2026-08-12T05:05:42	18.1	49.5
183797	2026-08-12T05:15:42	18.1	50
183798	2026-08-12T05:25:42	18.2	50.5
183799	2026-08-12T05:35:42	18.1	50.5
183800	2026-08-12T05:45:42	18.3	49.5
183801	2026-08-12T05:55:42	18.6	49.5
183802	2026-08-12T06:05:42	18.7	49.5
183803	2026-08-12T06:15:42	18.9	49
183804	2026-08-12T06:25:42	19	49
183805	2026-08-12T06:35:42	19.2	49.5
183806	2026-08-12T06:55:42	19.8	48.5
183807	2026-08-12T07:05:42	20.1	48.5
183808	2026-08-12T07:15:42	20.4	47.5
183809	2026-08-12T07:25:42	20.7	48
183810	2026-08-12T07:35:42	20.8	48.5
183811	2026-08-12T07:45:42	21.2	48.5
183812	2026-08-12T07:55:42	21.5	47
183813	2026-08-12T08:05:42	21.6	47
183814	2026-08-12T08:15:42	21.9	46.5
183815	2026-08-12T08:25:42	22.2	46.5
183816	2026-08-12T08:35:42	22.4	46
183817	2026-08-12T08:45:42	22.8	45.5
183818	2026-08-12T08:55:42	23.2	45
183819	2026-08-12T09:05:42	23.5	44
183820	2026-08-12T09:15:42	23.8	45
183821	2026-08-12T09:25:42	24.1	44
183822	2026-08-12T09:35:42	24.3	43.5
183823	2026-08-12T09:45:42	24.7	43.5
183824	2026-08-12T09:55:42	24.9	44
183825	2026-08-12T10:05:42	25.3	43
183826	2026-08-12T10:15:42	25.8	40.5
183827	2026-08-12T10:25:42	26.2	41
183828	2026-08-12T10:35:42	26.4	39.5
183829	2026-08-12T10:45:42	26.8	37.5
183830	2026-08-12T10:55:42	27	37
183831	2026-08-12T11:05:42	27.4	37
183832	2026-08-12T11:15:41	27.7	35
183833	2026-08-12T11:25:41	28.1	32.5
183834	2026-08-12T11:35:41	28.5	31
183835	2026-08-12T11:45:41	29	31
183836	2026-08-12T11:55:41	29.9	29.5
183837	2026-08-12T12:05:41	30.3	33
183838	2026-08-12T12:15:41	31.3	32
183839	2026-08-12T12:25:41	33.7	28.5
183840	2026-08-12T12:35:41	35.7	26.5
183841	2026-08-12T12:45:41	36.8	25.5
183842	2026-08-12T12:55:41	38.1	25
183843	2026-08-12T13:05:41	39.3	23.5
183844	2026-08-12T13:15:41	39.8	23
183845	2026-08-12T13:25:41	40.5	21.5
183846	2026-08-12T13:35:41	41	21
183847	2026-08-12T13:55:41	42.5	20
183848	2026-08-12T14:05:41	42.9	20
183849	2026-08-12T14:15:41	43.5	19
183850	2026-08-12T14:25:41	43.3	19.5
183851	2026-08-12T14:35:41	43.6	19
183852	2026-08-12T14:45:41	44.3	18.5
183853	2026-08-12T14:55:41	44.4	17.5
183854	2026-08-12T15:05:41	44.2	17.5
183855	2026-08-12T15:15:41	45.4	17.5
183856	2026-08-12T15:25:41	44.4	17
183857	2026-08-12T15:35:41	44.8	16.5
183858	2026-08-12T15:45:41	45.2	16
183859	2026-08-12T15:55:41	46.5	16
183860	2026-08-12T16:05:41	46.4	15.5
183861	2026-08-12T16:15:41	45.4	15.5
183862	2026-08-12T16:25:41	45.9	15.5
183863	2026-08-12T16:35:41	45.1	16
183864	2026-08-12T16:45:41	45.2	15.5
183865	2026-08-12T16:55:41	45.3	16.5
183866	2026-08-12T17:05:41	45.2	16.5
183867	2026-08-12T17:15:41	44.2	16
183868	2026-08-12T17:25:41	43.6	17
183869	2026-08-12T17:35:41	43.1	16.5
183870	2026-08-12T17:45:41	40	18.5
183871	2026-08-12T17:55:41	38	20.5
183872	2026-08-12T18:05:41	36.9	22
183873	2026-08-12T18:15:41	35.6	23
183874	2026-08-12T18:25:41	34.7	24
183875	2026-08-12T18:35:41	33.6	25
183876	2026-08-12T18:45:41	32.9	25
183877	2026-08-12T18:55:41	32.3	24.5
183878	2026-08-12T19:05:41	31.9	26.5
183879	2026-08-12T19:15:41	31.4	26.5
183880	2026-08-12T19:25:41	30.8	27
183881	2026-08-12T19:35:41	30.4	27
183882	2026-08-12T19:45:41	30	28
183883	2026-08-12T19:55:41	29.6	28.5
183884	2026-08-12T20:05:41	29.3	30.5
183885	2026-08-12T20:15:41	28.7	31
183886	2026-08-12T20:25:41	28.1	32.5
183887	2026-08-12T20:35:41	27.7	33
183888	2026-08-12T20:45:41	27	33.5
183889	2026-08-12T20:55:41	26.8	34
183890	2026-08-12T21:05:41	26.4	35
183891	2026-08-12T21:15:41	26.1	35
183892	2026-08-12T21:25:41	25.7	35.5
183893	2026-08-12T21:35:41	25.5	35.5
183894	2026-08-12T21:45:41	25.1	36.5
183895	2026-08-12T21:55:41	24.8	38
183896	2026-08-12T22:05:41	24.5	37.5
183897	2026-08-12T22:15:41	24.1	38
183898	2026-08-12T22:25:41	23.9	38.5
183899	2026-08-12T22:35:40	23.8	38.5
183900	2026-08-12T22:45:40	23.5	39
183901	2026-08-12T22:55:40	23.2	38
183902	2026-08-12T23:05:40	23.2	38
183903	2026-08-12T23:15:40	22.8	38.5
183904	2026-08-12T23:25:40	22.7	38.5
183905	2026-08-12T23:35:40	22.5	39
183906	2026-08-12T23:45:40	22.3	40
183907	2026-08-12T23:55:40	22.2	40
183908	2026-08-13T00:05:40	22	40.5
183909	2026-08-13T00:15:40	21.9	40.5
183910	2026-08-13T00:25:40	21.7	41
183911	2026-08-13T00:35:40	21.5	41
183912	2026-08-13T00:45:40	21.4	41
183913	2026-08-13T00:55:40	21.3	41
183914	2026-08-13T01:05:40	21.2	41
183915	2026-08-13T01:15:40	20.9	41.5
183916	2026-08-13T01:25:40	20.8	42
183917	2026-08-13T01:35:40	20.7	41.5
183918	2026-08-13T01:45:40	20.8	41.5
183919	2026-08-13T01:55:40	20.7	42.5
183920	2026-08-13T02:05:40	20.4	43.5
183921	2026-08-13T02:15:40	20.3	43
183922	2026-08-13T02:25:40	20.1	44.5
183923	2026-08-13T02:35:40	20	43.5
183924	2026-08-13T02:45:40	19.8	45
183925	2026-08-13T02:55:40	19.7	44.5
183926	2026-08-13T03:05:40	19.6	45
183927	2026-08-13T03:15:40	19.3	46
183928	2026-08-13T03:25:40	19.2	46
183929	2026-08-13T03:35:40	18.9	47
183930	2026-08-13T03:45:40	18.9	47.5
183931	2026-08-13T03:55:40	18.6	48.5
183932	2026-08-13T04:05:40	18.4	49.5
183933	2026-08-13T04:15:40	18.2	50.5
183934	2026-08-13T04:25:40	18.3	50.5
183935	2026-08-13T04:35:40	18	51
183936	2026-08-13T04:45:40	17.9	51.5
183937	2026-08-13T04:55:40	18.1	50.5
183938	2026-08-13T05:05:40	18.1	51.5
183939	2026-08-13T05:15:40	18.2	51
183940	2026-08-13T05:25:40	18.4	51
183941	2026-08-13T05:35:40	18.5	50.5
183942	2026-08-13T05:45:40	18.5	51.5
183943	2026-08-13T05:55:40	18.6	51
183944	2026-08-13T06:05:40	18.8	51.5
183945	2026-08-13T06:15:40	19.1	51
183946	2026-08-13T06:25:40	19.1	51
183947	2026-08-13T06:35:40	19.5	50
183948	2026-08-13T06:45:40	19.9	49
183949	2026-08-13T06:55:40	20.2	47.5
183950	2026-08-13T07:05:40	20.8	47.5
183951	2026-08-13T07:15:40	21.1	47.5
183952	2026-08-13T07:25:40	21.4	47
183953	2026-08-13T07:35:40	21.7	46.5
183954	2026-08-13T07:45:40	22.1	45.5
183955	2026-08-13T07:55:40	22.4	45
183956	2026-08-13T08:05:40	23	44.5
183957	2026-08-13T08:15:40	23.2	43.5
183958	2026-08-13T08:25:40	23.8	43.5
183959	2026-08-13T08:35:40	24	43
183960	2026-08-13T08:45:39	24.1	43.5
183961	2026-08-13T08:55:39	24.6	41.5
183962	2026-08-13T09:05:39	25.1	42
183963	2026-08-13T09:15:39	25.3	41.5
183964	2026-08-13T09:25:39	25.8	40
183965	2026-08-13T09:35:39	25.9	40.5
183966	2026-08-13T09:45:39	26.6	38
183967	2026-08-13T09:55:39	26.7	39
183968	2026-08-13T10:05:39	27	38
183969	2026-08-13T10:15:39	27.6	36.5
183970	2026-08-13T10:25:39	27.8	35
183971	2026-08-13T10:35:39	28.2	35.5
183972	2026-08-13T10:45:39	28.5	35
183973	2026-08-13T10:55:39	28.9	35
183974	2026-08-13T11:05:39	29.4	33.5
183975	2026-08-13T11:15:39	29.4	33
183976	2026-08-13T11:25:39	29.7	32
183977	2026-08-13T11:35:39	30	32
183978	2026-08-13T11:45:39	30.4	31
183979	2026-08-13T11:55:39	31.2	30
183980	2026-08-13T12:05:39	32	29.5
183981	2026-08-13T12:15:39	33.1	29
183982	2026-08-13T12:25:39	35.9	26
183983	2026-08-13T12:35:39	37.8	24
183984	2026-08-13T12:45:39	39.8	22
183985	2026-08-13T12:55:39	40.9	20.5
183986	2026-08-13T13:05:39	41.6	19
183987	2026-08-13T13:15:39	41.9	18.5
183988	2026-08-13T13:25:39	42.2	18
183989	2026-08-13T13:35:39	43.6	18
183990	2026-08-13T13:45:39	45	17
183991	2026-08-13T13:55:39	45.7	16
183992	2026-08-13T14:05:39	46.3	15.5
183993	2026-08-13T14:15:39	46.9	15.5
183994	2026-08-13T14:25:39	47.8	14.5
183995	2026-08-13T14:35:39	48	15.5
183996	2026-08-13T14:45:39	47.8	15.5
183997	2026-08-13T14:55:39	47.8	15
183998	2026-08-13T15:05:39	48.5	14.5
183999	2026-08-13T15:15:39	48	15
184000	2026-08-13T15:25:39	48.2	15
184001	2026-08-13T15:35:39	49.4	13.5
184002	2026-08-13T15:45:39	48.9	14
184003	2026-08-13T15:55:39	49.6	14.5
184004	2026-08-13T16:05:39	50	14
184005	2026-08-13T16:15:39	49.2	14.5
184006	2026-08-13T16:25:39	49.9	14.5
184007	2026-08-13T16:35:39	50.1	15
184008	2026-08-13T16:45:39	49.5	15
184009	2026-08-13T16:55:39	49.9	14.5
184010	2026-08-13T17:05:39	48.8	14.5
184011	2026-08-13T17:15:39	48.4	15
184012	2026-08-13T17:25:39	48	15.5
184013	2026-08-13T17:35:39	47.7	16
184014	2026-08-13T17:45:39	44.9	17.5
184015	2026-08-13T17:55:39	42.3	19
184016	2026-08-13T18:05:39	40.8	20.5
184017	2026-08-13T18:15:39	39.6	22
184018	2026-08-13T18:25:39	38.4	23.5
184019	2026-08-13T18:35:39	37.2	24.5
184020	2026-08-13T18:45:39	36.1	27.5
184021	2026-08-13T18:55:39	35.5	27.5
184022	2026-08-13T19:05:39	34.9	28.5
184023	2026-08-13T19:15:39	34.2	29.5
184024	2026-08-13T19:25:39	33.6	29.5
184025	2026-08-13T19:35:39	32.9	29.5
184026	2026-08-13T19:45:39	32.4	31
184027	2026-08-13T19:55:39	31.2	32
184028	2026-08-13T20:05:39	30.6	32.5
184029	2026-08-13T20:15:39	30.2	33
184030	2026-08-13T20:25:39	29.6	33.5
184031	2026-08-13T20:35:39	29.2	34
184032	2026-08-13T20:45:39	28.7	35.5
184033	2026-08-13T20:55:39	28.4	35.5
184034	2026-08-13T21:05:39	28.1	36
184035	2026-08-13T21:15:39	28.3	35.5
184036	2026-08-13T21:25:39	27.7	36
184037	2026-08-13T21:35:38	27.6	36.5
184038	2026-08-13T21:45:38	27.2	35
184039	2026-08-13T21:55:38	27.2	34.5
184040	2026-08-13T22:05:38	26.7	36.5
184041	2026-08-13T22:15:38	26.4	37.5
184042	2026-08-13T22:25:38	25.9	38.5
184043	2026-08-13T22:35:38	25.7	39.5
184044	2026-08-13T22:45:38	25.5	40
184045	2026-08-13T22:55:38	25.2	41
184046	2026-08-13T23:05:38	25.1	41.5
184047	2026-08-13T23:15:38	24.6	42
184048	2026-08-13T23:25:39	24.5	42.5
184049	2026-08-13T23:35:38	24.2	43
184050	2026-08-13T23:45:38	24.1	43.5
184051	2026-08-13T23:55:38	23.7	44
184052	2026-08-14T00:05:38	23.6	44.5
184053	2026-08-14T00:15:38	23.2	46
184054	2026-08-14T00:25:38	23.1	45.5
184055	2026-08-14T00:35:38	22.8	47
184056	2026-08-14T00:45:38	22.7	47
184057	2026-08-14T00:55:38	22.5	48.5
184058	2026-08-14T01:05:38	22.2	49
184059	2026-08-14T01:15:38	22	49.5
184060	2026-08-14T01:25:38	21.8	50.5
184061	2026-08-14T01:35:38	21.4	51.5
184062	2026-08-14T01:45:38	21.2	53.5
184063	2026-08-14T01:55:38	21.1	53.5
184064	2026-08-14T02:05:38	20.7	54
184065	2026-08-14T02:15:38	20.6	54.5
184066	2026-08-14T02:25:38	20.4	55
184067	2026-08-14T02:35:38	20.1	55.5
184068	2026-08-14T02:45:38	20.1	56
184069	2026-08-14T02:55:38	19.9	58
184070	2026-08-14T03:05:38	19.9	56.5
184071	2026-08-14T03:15:38	19.6	57.5
184072	2026-08-14T03:25:38	19.2	59.5
184073	2026-08-14T03:35:38	19.1	60.5
184074	2026-08-14T03:45:38	18.9	61.5
184075	2026-08-14T03:55:38	18.8	60
184076	2026-08-14T04:05:38	18.7	60.5
184077	2026-08-14T04:15:38	18.5	62.5
184078	2026-08-14T04:25:38	18.4	63.5
184079	2026-08-14T04:35:38	18.3	63.5
184080	2026-08-14T04:55:38	18.3	63.5
184081	2026-08-14T05:05:38	18.1	65.5
184082	2026-08-14T05:15:38	18.1	65
184083	2026-08-14T05:25:38	18.2	65
184084	2026-08-14T05:35:38	18.4	65.5
184085	2026-08-14T05:45:38	18.6	65
184086	2026-08-14T05:55:38	18.9	64
184087	2026-08-14T06:05:38	18.8	64.5
184088	2026-08-14T06:15:38	19	65
184089	2026-08-14T06:25:38	19.2	64
184090	2026-08-14T06:35:38	19.3	63.5
184091	2026-08-14T06:45:38	19.5	63
184092	2026-08-14T06:55:38	19.8	62.5
184093	2026-08-14T07:05:38	20	60
184094	2026-08-14T07:15:38	20.4	57.5
184095	2026-08-14T07:25:38	20.7	55
184096	2026-08-14T07:35:38	21	54
184097	2026-08-14T07:45:37	21.3	52.5
184098	2026-08-14T08:15:37	22.7	50
184099	2026-08-14T08:25:37	22.8	48.5
184100	2026-08-14T08:35:37	23.2	48
184101	2026-08-14T08:45:37	23.6	48.5
184102	2026-08-14T08:55:37	23.9	48.5
184103	2026-08-14T09:05:37	24.1	49
184104	2026-08-14T09:15:37	24.6	48.5
184105	2026-08-14T09:25:37	25.1	47.5
184106	2026-08-14T09:35:37	25.6	47
184107	2026-08-14T09:45:37	26.3	44.5
184108	2026-08-14T09:55:37	26.8	43.5
184109	2026-08-14T10:05:37	27.2	43.5
184110	2026-08-14T10:15:37	27.4	43
184111	2026-08-14T10:25:37	27.9	42
184112	2026-08-14T10:35:37	27.8	42
184113	2026-08-14T10:45:37	28.8	40.5
184114	2026-08-14T10:55:37	29.1	39
184115	2026-08-14T11:05:37	29.4	38
184116	2026-08-14T11:15:37	29.8	38
184117	2026-08-14T11:25:37	30	36
184118	2026-08-14T11:35:37	30.4	34
184119	2026-08-14T11:45:37	31.3	32
184120	2026-08-14T11:55:37	32.2	30
184121	2026-08-14T12:05:37	32.6	28.5
184122	2026-08-14T12:15:37	33.7	25
184123	2026-08-14T12:25:37	36.8	25.5
184124	2026-08-14T12:35:37	39.4	24.5
184125	2026-08-14T12:45:37	39.2	22.5
184126	2026-08-14T12:55:37	40.2	21.5
184127	2026-08-14T13:05:37	41.1	20
184128	2026-08-14T13:15:37	43.6	19
184129	2026-08-14T13:25:37	43.9	19
184130	2026-08-14T13:35:37	43.3	18.5
184131	2026-08-14T13:45:37	44.7	19
184132	2026-08-14T13:55:37	46.7	18.5
184133	2026-08-14T14:05:37	47.6	17.5
184134	2026-08-14T14:15:37	48.1	16.5
184135	2026-08-14T14:25:37	48.7	16.5
184136	2026-08-14T14:35:37	49	16.5
184137	2026-08-14T14:45:37	47.4	17
184138	2026-08-14T14:55:37	49.4	16.5
184139	2026-08-14T15:05:37	48.6	16.5
184140	2026-08-14T15:15:37	49.7	16
184141	2026-08-14T15:25:37	50.5	15
184142	2026-08-14T15:35:37	50.3	15
184143	2026-08-14T15:45:37	51.2	14.5
184144	2026-08-14T15:55:37	51.5	14.5
184145	2026-08-14T16:05:37	50.4	15
184146	2026-08-14T16:15:37	49.5	14.5
184147	2026-08-14T16:25:37	50.4	14.5
184148	2026-08-14T16:35:37	50.7	14.5
184149	2026-08-14T16:45:37	50.5	15
184150	2026-08-14T16:55:37	50.6	15
184151	2026-08-14T17:05:37	50.1	15
184152	2026-08-14T17:15:37	49.4	15.5
184153	2026-08-14T17:25:37	48.7	16
184154	2026-08-14T17:35:37	47.7	16.5
184155	2026-08-14T17:45:37	45	18.5
184156	2026-08-14T17:55:37	43.1	19.5
184157	2026-08-14T18:05:37	41.8	22.5
184158	2026-08-14T18:15:37	40.6	24
184159	2026-08-14T18:25:37	39.5	27
184160	2026-08-14T18:35:37	38.2	28.5
184161	2026-08-14T18:45:37	37.4	31
184162	2026-08-14T18:55:37	36.6	28.5
184163	2026-08-14T19:05:37	35.7	30
184164	2026-08-14T19:15:37	35.1	29
184165	2026-08-14T19:25:37	34.6	32.5
184166	2026-08-14T19:35:37	33.7	33
184167	2026-08-14T19:45:37	33.2	34.5
184168	2026-08-14T19:55:37	32.8	33
184169	2026-08-14T20:05:37	32.4	34.5
184170	2026-08-14T20:15:37	31.9	33
184171	2026-08-14T20:25:36	31.4	33.5
184172	2026-08-14T20:35:36	31	33
184173	2026-08-14T20:45:36	30.5	33.5
184174	2026-08-14T20:55:36	30.1	33.5
184175	2026-08-14T21:05:36	30	34.5
184176	2026-08-14T21:15:36	29.6	35
184177	2026-08-14T21:25:36	28.9	36
184178	2026-08-14T21:35:36	28.5	36.5
184179	2026-08-14T21:45:36	28.3	41
184180	2026-08-14T21:55:36	28	42
184181	2026-08-14T22:05:36	27.6	43.5
184182	2026-08-14T22:15:36	27.4	42.5
184183	2026-08-14T22:25:36	27.1	43.5
184184	2026-08-14T22:35:36	26.9	42.5
184185	2026-08-14T22:45:36	26.6	44
184186	2026-08-14T22:55:36	26.2	44.5
184187	2026-08-14T23:05:36	25.8	44.5
184188	2026-08-14T23:15:36	25.7	46
184189	2026-08-14T23:25:36	25.2	48
184190	2026-08-14T23:35:36	25.1	47
184191	2026-08-14T23:45:36	24.9	47.5
184192	2026-08-14T23:55:36	24.6	48.5
184193	2026-08-15T00:05:36	24.5	49.5
184194	2026-08-15T00:15:36	24.2	49.5
184195	2026-08-15T00:25:36	23.9	50
184196	2026-08-15T00:35:36	23.7	50.5
184197	2026-08-15T00:45:36	23.5	52
184198	2026-08-15T00:55:36	23.4	52
184199	2026-08-15T01:05:36	23.2	52
184200	2026-08-15T01:15:36	22.9	52.5
184201	2026-08-15T01:25:36	22.8	51.5
184202	2026-08-15T01:35:36	22.5	52.5
184203	2026-08-15T01:45:36	22.3	54
184204	2026-08-15T01:55:36	22	55
184205	2026-08-15T02:05:36	22	53.5
184206	2026-08-15T02:15:36	21.9	53
184207	2026-08-15T02:25:36	21.7	53.5
184208	2026-08-15T02:35:36	21.5	54.5
184209	2026-08-15T02:45:36	21.2	55.5
184210	2026-08-15T02:55:36	21	56.5
184211	2026-08-15T03:05:36	20.9	58
184212	2026-08-15T03:15:36	20.8	58
184213	2026-08-15T03:25:36	20.6	58.5
184214	2026-08-15T03:35:36	20.5	58.5
184215	2026-08-15T03:45:36	20.3	58
184216	2026-08-15T03:55:36	20.2	58.5
184217	2026-08-15T04:05:36	20	60
184218	2026-08-15T04:15:36	19.8	61
184219	2026-08-15T04:25:36	19.6	62
184220	2026-08-15T04:35:36	19.5	62
184221	2026-08-15T04:45:36	19.7	61.5
184222	2026-08-15T04:55:36	19.6	61
184223	2026-08-15T05:05:36	19.8	61
184224	2026-08-15T05:15:36	19.8	61
184225	2026-08-15T05:25:36	19.8	61.5
184226	2026-08-15T05:35:36	20	62
184227	2026-08-15T05:45:36	20.1	61.5
184228	2026-08-15T05:55:36	20.3	59.5
184229	2026-08-15T06:05:36	20.6	59.5
184230	2026-08-15T06:15:35	20.7	60
184231	2026-08-15T06:25:35	20.9	60
184232	2026-08-15T06:35:35	21	60
184233	2026-08-15T06:45:35	21.4	56
184234	2026-08-15T06:55:35	21.7	54.5
184235	2026-08-15T07:05:35	22	53
184236	2026-08-15T07:15:35	22.3	52.5
184237	2026-08-15T07:25:35	22.9	51
184238	2026-08-15T07:35:35	23.2	51
184239	2026-08-15T07:45:35	23.6	51.5
184240	2026-08-15T07:55:35	24	50.5
184241	2026-08-15T08:05:35	24.4	50
184242	2026-08-15T08:15:35	24.7	48.5
184243	2026-08-15T08:25:35	24.9	49
184244	2026-08-15T08:35:35	25.5	47.5
184245	2026-08-15T08:45:35	26	46.5
184246	2026-08-15T08:55:35	26.8	43
184247	2026-08-15T09:05:35	27.4	42.5
184248	2026-08-15T09:15:35	27.8	42.5
184249	2026-08-15T09:25:35	28	42
184250	2026-08-15T09:35:35	28	42.5
184251	2026-08-15T09:45:35	28.2	43
184252	2026-08-15T09:55:35	28.9	42.5
184253	2026-08-15T10:05:35	29.6	41.5
184254	2026-08-15T10:15:35	29.8	41
184255	2026-08-15T10:25:35	29.9	41.5
184256	2026-08-15T10:35:35	29.7	40.5
184257	2026-08-15T10:45:35	30.3	40
184258	2026-08-15T10:55:35	30.3	39
184259	2026-08-15T11:05:35	30.1	40.5
184260	2026-08-15T11:15:35	30.1	39.5
184261	2026-08-15T11:25:35	30.4	38.5
184262	2026-08-15T11:35:53	31.3	38
184263	2026-08-15T11:45:35	32.3	35
184264	2026-08-15T11:55:35	32.3	35.5
184265	2026-08-15T12:05:35	33.1	35
184266	2026-08-15T12:15:35	33.8	34.5
184267	2026-08-15T12:25:35	35.3	33
184268	2026-08-15T12:35:35	36.8	31.5
184269	2026-08-15T12:45:35	37.7	30
184270	2026-08-15T12:55:35	36.3	32
184271	2026-08-15T13:05:35	36.8	32
184272	2026-08-15T13:15:35	37.2	30.5
184273	2026-08-15T13:25:35	37.5	30
184274	2026-08-15T13:35:35	37.6	29.5
184275	2026-08-15T13:45:35	39.5	28
184276	2026-08-15T13:55:35	40.9	25.5
184277	2026-08-15T14:05:35	41.2	25.5
184278	2026-08-15T14:15:35	41.4	26
184279	2026-08-15T14:25:35	39.7	27.5
184280	2026-08-15T14:35:35	38.2	28.5
184281	2026-08-15T14:45:35	37.2	30
184282	2026-08-15T14:55:35	36.5	30.5
184283	2026-08-15T15:05:35	36.2	32
184284	2026-08-15T15:15:35	35.7	33.5
184285	2026-08-15T15:25:35	35.3	34.5
184286	2026-08-15T15:35:35	35.2	34.5
184287	2026-08-15T15:45:35	34.8	35
184288	2026-08-15T15:55:35	34.5	35
184289	2026-08-15T16:05:35	34.2	36
184290	2026-08-15T16:15:34	34.2	36.5
184291	2026-08-15T16:25:34	34.2	38.5
184292	2026-08-15T16:35:34	34.2	39
184293	2026-08-15T16:45:34	34.2	37.5
184294	2026-08-15T16:55:34	34.5	37
184295	2026-08-15T17:05:34	35	37.5
184296	2026-08-15T17:15:34	34.7	38.5
184297	2026-08-15T17:25:34	34.1	40
184298	2026-08-15T17:35:34	33.6	42.5
184299	2026-08-15T17:45:34	33.3	44
184300	2026-08-15T17:55:34	32.6	45
184301	2026-08-15T18:05:34	32.2	46.5
184302	2026-08-15T18:15:34	31.8	45.5
184303	2026-08-15T18:25:34	31.5	47
184304	2026-08-15T18:35:34	31.2	46
184305	2026-08-15T18:45:34	31	45
184306	2026-08-15T18:55:34	30.7	46
184307	2026-08-15T19:05:34	30.6	46.5
184308	2026-08-15T19:15:34	30	46
184309	2026-08-15T19:25:34	29.9	46.5
184310	2026-08-15T19:35:34	30	46.5
184311	2026-08-15T19:45:34	29.9	46.5
184312	2026-08-15T19:55:34	29.7	47.5
184313	2026-08-15T20:05:34	29.5	48
184314	2026-08-15T20:15:34	29.1	49
184315	2026-08-15T20:25:34	28.7	50.5
184316	2026-08-15T20:35:34	28.5	51
184317	2026-08-15T20:45:34	28.1	52.5
184318	2026-08-15T20:55:34	28	53
184319	2026-08-15T21:05:34	27.8	53
184320	2026-08-15T21:15:34	27.8	52.5
184321	2026-08-15T21:25:34	27.7	51
184322	2026-08-15T21:35:34	27.5	51
184323	2026-08-15T21:45:34	27.5	51.5
184324	2026-08-15T21:55:34	27.3	52.5
184325	2026-08-15T22:05:34	26.9	52
184326	2026-08-15T22:15:34	27	50.5
184327	2026-08-15T22:25:34	26.9	51.5
184328	2026-08-15T22:35:34	26.5	52.5
184329	2026-08-15T22:45:34	26.3	54
184330	2026-08-15T22:55:34	26.1	54
184331	2026-08-15T23:05:34	25.9	55.5
184332	2026-08-15T23:15:34	25.8	55
184333	2026-08-15T23:25:34	25.6	56
184334	2026-08-15T23:35:34	25.5	58
184335	2026-08-15T23:45:34	25.2	57
184336	2026-08-15T23:55:34	25	57
184337	2026-08-16T00:05:34	24.7	57.5
184338	2026-08-16T00:15:34	24.7	58.5
184339	2026-08-16T00:25:34	24.5	59
184340	2026-08-16T00:35:34	24.5	59
184341	2026-08-16T00:45:34	24.5	60
184342	2026-08-16T00:55:34	24.3	60
184343	2026-08-16T01:05:34	24	60
184344	2026-08-16T01:15:34	24.2	61
184345	2026-08-16T01:25:34	23.9	59
184346	2026-08-16T01:35:34	24	59.5
184347	2026-08-16T01:45:33	24.1	59
184348	2026-08-16T01:55:34	24	59
184349	2026-08-16T02:05:33	24	59
184350	2026-08-16T02:15:33	23.9	59
184351	2026-08-16T02:25:33	23.9	59
184352	2026-08-16T02:35:33	23.8	60.5
184353	2026-08-16T02:45:33	23.7	61
184354	2026-08-16T02:55:33	23.7	60.5
184355	2026-08-16T03:05:33	23.5	61.5
184356	2026-08-16T03:15:33	23.6	61.5
184357	2026-08-16T03:25:33	23.5	62
184358	2026-08-16T03:35:33	23.5	61.5
184359	2026-08-16T03:45:33	23.4	61
184360	2026-08-16T03:55:33	23.8	58.5
184361	2026-08-16T04:05:33	23.4	61
184362	2026-08-16T04:15:33	23.3	61
184363	2026-08-16T04:25:33	23.1	61.5
184364	2026-08-16T04:35:33	22.9	62.5
184365	2026-08-16T04:45:33	22.9	63
184366	2026-08-16T04:55:33	23.1	62.5
184367	2026-08-16T05:05:33	23.2	62
184368	2026-08-16T05:15:33	23.3	63
184369	2026-08-16T05:25:33	23.4	63.5
184370	2026-08-16T05:35:33	23.5	62.5
184371	2026-08-16T05:45:33	23.7	62
184372	2026-08-16T05:55:33	23.9	62
184373	2026-08-16T06:05:33	24	61.5
184374	2026-08-16T06:15:33	24.3	60
184375	2026-08-16T06:25:33	24.4	59
184376	2026-08-16T06:35:33	24.4	59
184377	2026-08-16T06:45:33	24.6	59
184378	2026-08-16T06:55:33	24.8	59
184379	2026-08-16T07:05:33	25	58.5
184380	2026-08-16T07:15:33	25.3	57.5
184381	2026-08-16T07:25:33	25.5	58
184382	2026-08-16T07:35:33	25.7	56
184383	2026-08-16T07:45:33	25.9	55
184384	2026-08-16T07:55:33	26.3	55
184385	2026-08-16T08:05:33	26.5	54.5
184386	2026-08-16T08:15:33	26.8	53.5
184387	2026-08-16T08:25:33	27	53
184388	2026-08-16T08:35:33	27.3	52.5
184389	2026-08-16T08:45:33	27.8	52.5
184390	2026-08-16T08:55:33	28	51.5
184391	2026-08-16T09:05:33	28	51
184392	2026-08-16T09:15:33	28.3	51
184393	2026-08-16T09:25:33	28.3	50
184394	2026-08-16T09:35:33	28.7	49.5
184395	2026-08-16T09:45:33	28.9	49
184396	2026-08-16T09:55:33	29.4	48.5
184397	2026-08-16T10:05:33	29.8	46.5
184398	2026-08-16T10:15:33	29.9	47
184399	2026-08-16T10:25:33	30.2	46
184400	2026-08-16T10:35:33	30.3	46
184401	2026-08-16T10:45:33	30.3	45.5
184402	2026-08-16T10:55:33	30.5	45.5
184403	2026-08-16T11:05:33	30.7	44.5
184404	2026-08-16T11:15:33	30.8	43.5
184405	2026-08-16T11:25:32	31.2	43
184406	2026-08-16T11:35:32	31.1	42.5
184407	2026-08-16T11:45:32	31.4	42.5
184408	2026-08-16T11:55:32	32.2	40.5
184409	2026-08-16T12:05:32	32.5	40
184410	2026-08-16T12:15:32	33.3	39
184411	2026-08-16T12:25:32	35.2	36
184412	2026-08-16T12:35:32	35.8	35
184413	2026-08-16T12:45:32	36.1	34.5
184414	2026-08-16T12:55:32	37.4	32.5
184415	2026-08-16T13:05:32	37.7	32
184416	2026-08-16T13:15:32	38.2	31.5
184417	2026-08-16T13:25:32	38.4	30.5
184418	2026-08-16T13:35:32	39.4	29
184419	2026-08-16T13:45:32	40.1	28.5
184420	2026-08-16T14:15:32	38.3	31
184421	2026-08-16T14:25:32	38	32
184422	2026-08-16T14:35:32	39.4	30.5
184423	2026-08-16T14:45:32	40.1	29.5
184424	2026-08-16T14:55:32	38.9	31
184425	2026-08-16T15:05:32	39.5	30.5
184426	2026-08-16T15:15:32	38.1	32
184427	2026-08-16T15:25:32	39.9	30
184428	2026-08-16T15:35:32	37.1	33
184429	2026-08-16T15:45:32	35.6	35.5
184430	2026-08-16T15:55:32	34.6	38
184431	2026-08-16T16:05:32	33.5	40.5
184432	2026-08-16T16:15:32	33.1	41.5
184433	2026-08-16T16:25:32	32.7	42.5
184434	2026-08-16T16:35:32	32.1	43
184435	2026-08-16T16:45:32	31.7	45
184436	2026-08-16T16:55:32	31.3	47
184437	2026-08-16T17:05:32	31	55
184438	2026-08-16T17:15:32	30.8	53
184439	2026-08-16T17:25:32	30.9	53
184440	2026-08-16T17:35:32	31.2	53
184441	2026-08-16T17:45:32	30.2	53.5
184442	2026-08-16T17:55:32	29.7	53.5
184443	2026-08-16T18:05:32	29.4	53.5
184444	2026-08-16T18:15:32	29.4	55
184445	2026-08-16T18:25:32	29.2	58.5
184446	2026-08-16T18:35:32	28.7	60.5
184447	2026-08-16T18:45:32	28.3	60.5
184448	2026-08-16T18:55:32	28.2	61
184449	2026-08-16T19:05:32	28	61.5
184450	2026-08-16T19:15:32	27.8	62
184451	2026-08-16T19:25:32	27.7	62
184452	2026-08-16T19:35:32	27.3	63.5
184453	2026-08-16T19:45:32	27.1	64
184454	2026-08-16T19:55:32	26.8	63.5
184455	2026-08-16T20:05:32	26.6	63
184456	2026-08-16T20:15:32	26.5	63
184457	2026-08-16T20:25:32	26.2	63.5
184458	2026-08-16T20:35:32	26.2	63
184459	2026-08-16T20:45:32	25.9	63.5
184460	2026-08-16T20:55:32	25.6	63.5
184461	2026-08-16T21:05:32	25.3	64.5
184462	2026-08-16T21:15:32	25.2	66
184463	2026-08-16T21:25:32	25.2	67
184464	2026-08-16T21:35:31	24.8	67
184465	2026-08-16T21:45:31	24.8	67.5
184466	2026-08-16T21:55:31	24.6	67.5
184467	2026-08-16T22:05:31	24.7	67
184468	2026-08-16T22:15:31	24.3	69
184469	2026-08-16T22:25:31	24.3	69.5
184470	2026-08-16T22:35:31	24.2	69.5
184471	2026-08-16T22:45:31	24	69.5
184472	2026-08-16T22:55:31	23.9	70
184473	2026-08-16T23:05:31	23.8	70.5
184474	2026-08-16T23:15:31	23.6	71
184475	2026-08-16T23:25:31	23.5	72
184476	2026-08-16T23:35:31	23.4	72
184477	2026-08-16T23:45:31	23.2	72
184478	2026-08-16T23:55:31	23.1	72.5
184479	2026-08-17T00:05:31	23.1	72.5
184480	2026-08-17T00:15:31	22.7	72.5
184481	2026-08-17T00:25:31	22.6	72.5
184482	2026-08-17T00:35:31	22.5	73.5
184483	2026-08-17T00:45:31	22.4	74
184484	2026-08-17T00:55:31	22.3	74.5
184485	2026-08-17T01:05:31	22.2	73
184486	2026-08-17T01:15:31	22.2	73.5
184487	2026-08-17T01:25:31	22	74
184488	2026-08-17T01:35:31	21.9	74
184489	2026-08-17T01:45:31	21.6	74
184490	2026-08-17T01:55:31	21.4	75
184491	2026-08-17T02:05:31	21.3	75
184492	2026-08-17T02:15:31	21.3	75
184493	2026-08-17T02:25:31	21.1	75.5
184494	2026-08-17T02:35:31	21.1	75.5
184495	2026-08-17T02:45:31	20.9	76.5
184496	2026-08-17T02:55:31	20.7	77
184497	2026-08-17T03:05:31	20.6	77.5
184498	2026-08-17T03:15:31	20.4	77.5
184499	2026-08-17T03:25:31	20.5	76.5
184500	2026-08-17T03:35:31	20.3	77
184501	2026-08-17T03:45:31	20.2	77.5
184502	2026-08-17T03:55:31	20.1	77.5
184503	2026-08-17T04:05:31	20	78
184504	2026-08-17T04:15:31	19.9	78.5
184505	2026-08-17T04:25:31	20	78
184506	2026-08-17T04:35:31	20.2	78
184507	2026-08-17T04:45:31	20.3	77
184508	2026-08-17T04:55:31	20.3	77.5
184509	2026-08-17T05:05:31	20.2	77.5
184510	2026-08-17T05:15:31	20.3	77.5
184511	2026-08-17T05:25:31	20.3	78
184512	2026-08-17T05:35:31	20.3	77
184513	2026-08-17T05:45:31	20.5	77
184514	2026-08-17T05:55:31	20.8	76.5
184515	2026-08-17T06:05:31	20.8	76.5
184516	2026-08-17T06:15:31	20.9	75.5
184517	2026-08-17T06:25:31	21	75.5
184518	2026-08-17T06:35:31	21	78
184519	2026-08-17T06:45:31	21.2	77
184520	2026-08-17T06:55:31	21.3	75.5
184521	2026-08-17T07:05:31	21.4	76
184522	2026-08-17T07:15:31	21.6	75
184523	2026-08-17T07:25:31	22.2	72
184524	2026-08-17T07:35:30	22.7	71
184525	2026-08-17T07:45:30	22.4	71.5
184526	2026-08-17T07:55:30	22.5	71.5
184527	2026-08-17T08:05:30	22.9	69.5
184528	2026-08-17T08:15:30	23.4	67.5
184529	2026-08-17T08:25:30	23.4	66.5
184530	2026-08-17T08:35:30	23.6	64.5
184531	2026-08-17T08:45:30	23.7	62.5
184532	2026-08-17T08:55:30	23.5	61.5
184533	2026-08-17T09:05:30	23.5	60.5
184534	2026-08-17T09:15:30	23.7	60
184535	2026-08-17T09:25:30	23.8	59.5
184536	2026-08-17T09:35:30	23.4	61.5
184537	2026-08-17T09:45:30	23.4	64
184538	2026-08-17T09:55:30	23.4	66.5
184539	2026-08-17T10:05:30	24.1	63.5
184540	2026-08-17T10:15:30	23.8	62.5
184541	2026-08-17T10:25:30	23.8	61
184542	2026-08-17T10:35:30	25	59
184543	2026-08-17T10:45:30	25.3	58
184544	2026-08-17T10:55:30	24.4	59
184545	2026-08-17T11:05:30	24.4	60
184546	2026-08-17T11:15:30	24.6	60
184547	2026-08-17T11:25:30	24.6	60.5
184548	2026-08-17T11:35:30	25.2	59.5
184549	2026-08-17T11:45:30	25.4	62
184550	2026-08-17T12:05:30	25.7	63.5
184551	2026-08-17T12:15:30	26	60.5
184552	2026-08-17T12:25:30	26.7	56
184553	2026-08-17T12:35:30	26.8	56
184554	2026-08-17T12:45:30	27.1	54
184555	2026-08-17T12:55:30	26.9	54.5
184556	2026-08-17T13:05:30	26.5	55
184557	2026-08-17T13:15:30	26.4	56
184558	2026-08-17T13:25:30	26.9	54.5
184559	2026-08-17T13:35:30	28.6	50.5
184560	2026-08-17T13:45:30	27.7	52
184561	2026-08-17T13:55:30	27.5	51.5
184562	2026-08-17T14:05:30	28.1	49
184563	2026-08-17T14:15:30	27.8	50
184564	2026-08-17T14:25:30	28.3	49
184565	2026-08-17T14:35:30	28.1	49
184566	2026-08-17T14:45:30	30	45.5
184567	2026-08-17T14:55:30	31.8	42
184568	2026-08-17T15:05:30	31.3	41.5
184569	2026-08-17T15:15:30	31.7	40.5
184570	2026-08-17T15:25:30	30.5	42
184571	2026-08-17T15:35:30	30.7	41
184572	2026-08-17T15:45:30	30.6	41
184573	2026-08-17T15:55:30	31.5	39.5
184574	2026-08-17T16:05:30	30.9	40
184575	2026-08-17T16:15:30	30.3	40.5
184576	2026-08-17T16:25:30	29	43.5
184577	2026-08-17T16:35:30	29.7	42.5
184578	2026-08-17T16:45:30	29.2	44.5
184579	2026-08-17T16:55:30	28.1	46
184580	2026-08-17T17:05:29	27.8	47
184581	2026-08-17T17:15:29	27.9	48.5
184582	2026-08-17T17:25:29	27.6	49
184583	2026-08-17T17:35:29	27.5	49.5
184584	2026-08-17T17:45:29	27.3	50
184585	2026-08-17T17:55:29	27	50.5
184586	2026-08-17T18:05:29	26.9	51
184587	2026-08-17T18:15:29	26.4	52
184588	2026-08-17T18:25:29	26	52.5
184589	2026-08-17T18:35:29	25.9	52.5
184590	2026-08-17T18:45:29	25.5	53
184591	2026-08-17T18:55:29	25.3	53.5
184592	2026-08-17T19:05:29	25	54.5
184593	2026-08-17T19:15:29	25.1	55.5
184594	2026-08-17T19:25:29	24.6	56.5
184595	2026-08-17T19:35:29	24.5	57
184596	2026-08-17T19:45:29	24.3	58
184597	2026-08-17T19:55:29	24.3	58.5
184598	2026-08-17T20:05:29	24.3	58.5
184599	2026-08-17T20:15:29	24.2	59
184600	2026-08-17T20:25:29	23.9	59.5
184601	2026-08-17T20:35:29	23.9	60
184602	2026-08-17T20:45:29	23.8	60
184603	2026-08-17T20:55:29	23.7	60
184604	2026-08-17T21:05:29	23.5	60.5
184605	2026-08-17T21:15:29	23.4	60.5
184606	2026-08-17T21:25:29	23.3	61
184607	2026-08-17T21:35:29	23.2	61.5
184608	2026-08-17T21:45:29	22.9	62
184609	2026-08-17T21:55:29	22.8	62.5
184610	2026-08-17T22:05:29	22.7	63
184611	2026-08-17T22:15:29	22.8	63.5
184612	2026-08-17T22:25:29	22.7	63.5
184613	2026-08-17T22:35:29	22.6	63.5
184614	2026-08-17T22:45:29	22.6	64
184615	2026-08-17T22:55:29	22.5	64.5
184616	2026-08-17T23:05:29	22.4	65
184617	2026-08-17T23:15:29	22.3	65.5
184618	2026-08-17T23:25:29	22.2	65.5
184619	2026-08-17T23:35:29	22.2	66
184620	2026-08-17T23:45:29	22.1	66
184621	2026-08-17T23:55:29	22.1	66.5
184622	2026-08-18T00:05:29	22	66.5
184623	2026-08-18T00:15:29	21.9	67
184624	2026-08-18T00:25:29	21.8	67
184625	2026-08-18T00:35:29	21.7	67.5
184626	2026-08-18T00:45:29	21.6	67.5
184627	2026-08-18T00:55:29	21.4	68
184628	2026-08-18T01:05:29	21.4	68.5
184629	2026-08-18T01:15:29	21.4	69
184630	2026-08-18T01:25:29	21.3	70
184631	2026-08-18T01:35:29	21.3	70
184632	2026-08-18T01:45:29	21.2	69
184633	2026-08-18T01:55:29	21.1	69.5
184634	2026-08-18T02:05:29	21	69.5
184635	2026-08-18T02:15:29	20.8	70.5
184636	2026-08-18T02:25:29	20.7	71
184637	2026-08-18T02:35:29	20.7	71.5
184638	2026-08-18T02:45:28	20.6	71.5
184639	2026-08-18T02:55:28	20.5	72
184640	2026-08-18T03:05:28	20.5	72
184641	2026-08-18T03:15:28	20.4	72.5
184642	2026-08-18T03:25:28	20.5	72
184643	2026-08-18T03:35:28	20.5	72.5
184644	2026-08-18T03:45:28	20.3	74
184645	2026-08-18T03:55:28	20.2	73
184646	2026-08-18T04:05:28	20.4	73
184647	2026-08-18T04:15:28	20.4	73
184648	2026-08-18T04:25:28	20.4	73
184649	2026-08-18T04:35:28	20.3	73.5
184650	2026-08-18T04:45:28	20.1	74.5
184651	2026-08-18T04:55:28	19.9	75
184652	2026-08-18T05:05:28	19.9	76
184653	2026-08-18T05:15:28	20.2	75.5
184654	2026-08-18T05:25:28	20.1	75.5
184655	2026-08-18T05:35:28	20.2	75
184656	2026-08-18T05:45:28	20.2	75.5
184657	2026-08-18T05:55:28	20.2	77.5
184658	2026-08-18T06:05:28	20.2	79
184659	2026-08-18T06:15:28	20.6	79
184660	2026-08-18T06:25:28	20.9	79
184661	2026-08-18T06:35:28	21.1	78.5
184662	2026-08-18T06:45:28	21.5	77.5
184663	2026-08-18T06:55:28	21.7	76.5
184664	2026-08-18T07:05:28	22	76
184665	2026-08-18T07:15:28	22.1	74.5
184666	2026-08-18T07:25:28	22.2	73
184667	2026-08-18T07:35:28	22.2	72.5
184668	2026-08-18T07:45:28	22.5	72
184669	2026-08-18T07:55:28	22.7	70
184670	2026-08-18T08:05:28	23	69.5
184671	2026-08-18T08:15:28	23.3	68.5
184672	2026-08-18T08:25:28	23.5	68
184673	2026-08-18T08:35:28	23.5	67.5
184674	2026-08-18T08:45:28	23.7	66
184675	2026-08-18T08:55:28	23.6	66
184676	2026-08-18T09:05:28	23.8	65.5
184677	2026-08-18T09:15:28	24.2	64.5
184678	2026-08-18T09:25:28	24.1	64.5
184679	2026-08-18T09:35:28	24.2	63.5
184680	2026-08-18T09:45:28	24.5	61.5
184681	2026-08-18T09:55:28	24.5	61.5
184682	2026-08-18T10:05:28	24.6	61.5
184683	2026-08-18T10:15:28	24.5	61
184684	2026-08-18T10:25:28	24.7	60
184685	2026-08-18T10:35:28	24.8	60
184686	2026-08-18T10:45:28	24.6	60.5
184687	2026-08-18T10:55:28	24.8	59.5
184688	2026-08-18T11:15:28	24.9	59
184689	2026-08-18T11:25:28	24.5	59
184690	2026-08-18T11:35:28	24.5	59
184691	2026-08-18T11:45:28	24.6	58.5
184692	2026-08-18T11:55:28	24.6	58.5
184693	2026-08-18T12:05:28	24.9	58
184694	2026-08-18T12:15:28	25.3	57
184695	2026-08-18T12:25:28	25.7	55.5
184696	2026-08-18T12:35:27	26	55.5
184697	2026-08-18T12:45:27	26.3	54
184698	2026-08-18T12:55:27	26.6	53.5
184699	2026-08-18T13:05:27	26.5	53.5
184700	2026-08-18T13:15:27	26.6	52.5
184701	2026-08-18T13:25:27	26.6	52
184702	2026-08-18T13:35:27	26.6	52
184703	2026-08-18T13:45:27	26.7	51
184704	2026-08-18T13:55:27	27	49.5
184705	2026-08-18T14:05:27	27.3	49
184706	2026-08-18T14:15:27	27.9	48
184707	2026-08-18T14:25:27	28.1	46
184708	2026-08-18T14:35:27	28.5	45.5
184709	2026-08-18T14:45:27	28.2	46.5
184710	2026-08-18T14:55:27	28.6	46.5
184711	2026-08-18T15:05:27	28.2	48
184712	2026-08-18T15:15:27	27.8	48.5
184713	2026-08-18T15:25:27	27.4	49.5
184714	2026-08-18T15:35:27	20.9	100
184715	2026-08-18T15:45:27	20.5	100
184716	2026-08-18T15:55:27	21.3	100
184717	2026-08-18T16:05:27	22	100
184718	2026-08-18T16:15:27	21.5	100
184719	2026-08-18T16:25:27	21	100
184720	2026-08-18T16:35:27	21.4	100
184721	2026-08-18T16:45:27	21.1	100
184722	2026-08-18T16:55:27	20.7	100
184723	2026-08-18T17:05:27	20.8	100
184724	2026-08-18T17:15:27	21	100
184725	2026-08-18T17:25:45	20.9	100
184726	2026-08-18T17:35:27	20.6	100
184727	2026-08-18T17:45:27	20.7	100
184728	2026-08-18T17:55:27	20.7	100
184729	2026-08-18T18:05:27	20.5	100
184730	2026-08-18T18:15:27	20.7	100
184731	2026-08-18T18:25:27	20.6	100
184732	2026-08-18T18:35:27	20.3	100
184733	2026-08-18T18:45:27	20.2	100
184734	2026-08-18T18:55:27	20.1	100
184735	2026-08-18T19:05:27	20.1	100
184736	2026-08-18T19:15:27	20	100
184737	2026-08-18T19:25:27	19.9	100
184738	2026-08-18T19:35:27	20	100
184739	2026-08-18T19:45:27	19.8	100
184740	2026-08-18T19:55:27	19.9	100
184741	2026-08-18T20:05:27	19.8	100
184742	2026-08-18T20:15:27	19.8	100
184743	2026-08-18T20:25:27	19.6	100
184744	2026-08-18T20:35:27	19.8	100
184745	2026-08-18T20:45:27	19.6	100
184746	2026-08-18T20:55:27	19.6	100
184747	2026-08-18T21:05:27	19.5	100
184748	2026-08-18T21:15:27	19.5	100
184749	2026-08-18T21:25:27	19.4	100
184750	2026-08-18T21:35:27	19.4	100
184751	2026-08-18T21:45:27	19.4	100
184752	2026-08-18T21:55:27	19.4	100
184753	2026-08-18T22:05:27	19.3	100
184754	2026-08-18T22:15:27	19.4	98.5
184755	2026-08-18T22:25:27	19.3	98.5
184756	2026-08-18T22:35:27	19.4	98.5
184757	2026-08-18T22:45:26	19.4	98.5
184758	2026-08-18T22:55:26	19.5	98.5
184759	2026-08-18T23:05:26	19.2	98.5
184760	2026-08-18T23:15:26	19	98.5
184761	2026-08-18T23:25:26	19	98.5
184762	2026-08-18T23:35:26	19	98
184763	2026-08-18T23:45:26	19	98
184764	2026-08-18T23:55:26	18.9	97
184765	2026-08-19T00:05:26	18.9	97
184766	2026-08-19T00:15:26	18.9	97
184767	2026-08-19T00:25:26	18.8	97
184768	2026-08-19T00:35:26	18.9	97
184769	2026-08-19T00:45:26	18.9	97
184770	2026-08-19T00:55:26	18.9	97
184771	2026-08-19T01:05:26	18.9	97
184772	2026-08-19T01:15:26	18.9	97
184773	2026-08-19T01:25:26	19	97
184774	2026-08-19T01:55:26	19	97
184775	2026-08-19T02:05:26	19.2	97
184776	2026-08-19T02:15:26	19.1	97
184777	2026-08-19T02:25:26	19.2	97
184778	2026-08-19T02:35:26	19.2	97
184779	2026-08-19T02:45:26	19.2	97
184780	2026-08-19T02:55:26	19.2	97
184781	2026-08-19T03:05:26	19.3	97
184782	2026-08-19T03:15:26	19.1	97
184783	2026-08-19T03:25:26	19.2	97
184784	2026-08-19T03:35:26	19.3	97
184785	2026-08-19T03:45:26	19.2	97.5
184786	2026-08-19T03:55:26	19.1	97
184787	2026-08-19T04:05:26	19.1	97.5
184788	2026-08-19T04:15:26	19	97.5
184789	2026-08-19T04:25:26	19	97
184790	2026-08-19T04:35:26	19.1	97.5
184791	2026-08-19T04:45:26	19.1	97.5
184792	2026-08-19T04:55:26	19	97.5
184793	2026-08-19T05:05:26	19.1	97.5
184794	2026-08-19T05:15:26	19.1	97.5
184795	2026-08-19T05:25:26	19.4	97.5
184796	2026-08-19T05:35:26	19.5	97.5
184797	2026-08-19T05:45:26	19.5	97.5
184798	2026-08-19T05:55:26	19.5	97.5
184799	2026-08-19T06:05:26	19.6	97.5
184800	2026-08-19T06:15:26	20	97.5
184801	2026-08-19T06:25:26	20.4	97.5
184802	2026-08-19T06:35:26	20.7	97.5
184803	2026-08-19T06:45:26	21	97.5
184804	2026-08-19T06:55:26	20.9	97.5
184805	2026-08-19T07:05:26	21.1	98
184806	2026-08-19T07:15:26	21.2	98
184807	2026-08-19T07:25:26	21.3	98
184808	2026-08-19T07:35:26	21.7	98
184809	2026-08-19T07:45:26	22	98
184810	2026-08-19T07:55:26	22.3	98
184811	2026-08-19T08:05:26	22.8	98
184812	2026-08-19T08:15:26	23.4	98
184813	2026-08-19T08:25:26	23.6	98
184814	2026-08-19T08:35:26	23.9	98
184815	2026-08-19T08:45:26	24.1	98
184816	2026-08-19T08:55:26	24.1	98
184817	2026-08-19T09:05:25	24	98
184818	2026-08-19T09:15:25	23.8	100
184819	2026-08-19T09:25:25	24.1	100
184820	2026-08-19T09:35:25	24.1	100
184821	2026-08-19T09:45:25	24.4	100
184822	2026-08-19T09:55:25	24.6	100
184823	2026-08-19T10:05:25	24.7	100
184824	2026-08-19T10:15:25	24.5	100
184825	2026-08-19T10:25:25	24.7	100
184826	2026-08-19T10:35:25	25.6	76
184827	2026-08-19T10:45:25	26.6	66.5
184828	2026-08-19T10:55:25	27.2	62
184829	2026-08-19T11:05:25	27.7	61.5
184830	2026-08-19T11:15:25	28.2	60.5
184831	2026-08-19T11:25:25	28.6	58
184832	2026-08-19T11:35:25	29.1	55.5
184833	2026-08-19T11:45:25	29.2	56
184834	2026-08-19T11:55:25	29.4	54.5
184835	2026-08-19T12:05:25	29.4	54.5
184836	2026-08-19T12:15:25	30.2	53
184837	2026-08-19T12:25:25	31.9	49
184838	2026-08-19T12:35:25	33	46
184839	2026-08-19T12:45:25	33.9	43.5
184840	2026-08-19T12:55:25	34	43
184841	2026-08-19T13:05:25	33.9	42.5
184842	2026-08-19T13:15:25	34.5	41.5
184843	2026-08-19T13:25:25	35.2	40.5
184844	2026-08-19T13:35:25	35.8	39
184845	2026-08-19T13:45:25	36.4	38.5
184846	2026-08-19T13:55:25	36.4	38
184847	2026-08-19T14:05:25	37.7	36.5
184848	2026-08-19T14:15:25	37.4	37
184849	2026-08-19T14:25:25	38.1	35.5
184850	2026-08-19T14:35:25	38	35
184851	2026-08-19T14:45:25	38.6	34
184852	2026-08-19T14:55:25	38.7	34
184853	2026-08-19T15:05:25	39.5	33
184854	2026-08-19T15:15:25	38.8	33.5
184855	2026-08-19T15:25:25	39.2	33.5
184856	2026-08-19T15:35:25	39.3	32
184857	2026-08-19T15:45:25	39.4	32
184858	2026-08-19T15:55:25	39.3	32.5
184859	2026-08-19T16:05:25	37.1	34
184860	2026-08-19T16:15:25	37.1	34
184861	2026-08-19T16:25:25	37.2	34
184862	2026-08-19T16:35:25	37.9	33
184863	2026-08-19T16:45:25	38	32
184864	2026-08-19T16:55:25	37.3	33
184865	2026-08-19T17:05:25	35.9	34
184866	2026-08-19T17:15:25	35.4	35
184867	2026-08-19T17:25:25	35.6	35
184868	2026-08-19T17:35:25	34.2	36.5
184869	2026-08-19T17:45:25	33.3	38
184870	2026-08-19T17:55:25	32.7	38.5
184871	2026-08-19T18:05:25	32.2	39.5
184872	2026-08-19T18:15:25	31.9	40.5
184873	2026-08-19T18:25:25	31.5	41
184874	2026-08-19T18:35:25	31.3	42.5
184875	2026-08-19T18:45:25	30.8	43.5
184876	2026-08-19T18:55:25	30.5	44
184877	2026-08-19T19:05:25	30.2	44
184878	2026-08-19T19:15:24	29.9	45.5
184879	2026-08-19T19:25:24	29.5	46.5
184880	2026-08-19T19:35:24	29.3	46
184881	2026-08-19T19:45:24	29.3	46.5
184882	2026-08-19T19:55:24	29.2	46.5
184883	2026-08-19T20:05:24	29.1	47
184884	2026-08-19T20:15:24	29	47.5
184885	2026-08-19T20:25:24	29	47.5
184886	2026-08-19T20:35:24	29	48
184887	2026-08-19T20:45:24	28.7	49
184888	2026-08-19T20:55:24	28.7	50.5
184889	2026-08-19T21:05:24	28.4	50.5
184890	2026-08-19T21:15:24	28.3	52.5
184891	2026-08-19T21:25:24	28.2	54.5
184892	2026-08-19T21:35:24	27.5	55
184893	2026-08-19T21:45:24	26.6	56.5
184894	2026-08-19T21:55:24	26.1	58
184895	2026-08-19T22:05:24	25.8	59
184896	2026-08-19T22:15:24	25.7	60
184897	2026-08-19T22:25:24	25.5	59.5
184898	2026-08-19T22:35:24	25.3	61
184899	2026-08-19T22:45:24	25.1	61.5
184900	2026-08-19T22:55:24	25	62
184901	2026-08-19T23:05:24	24.7	61.5
184902	2026-08-19T23:15:24	24.7	62
184903	2026-08-19T23:25:24	24.6	62.5
184904	2026-08-19T23:35:24	24.5	63
184905	2026-08-19T23:45:24	24.4	64
184906	2026-08-19T23:55:24	24.2	64.5
184907	2026-08-20T00:05:24	24	65
184908	2026-08-20T00:15:24	23.9	65.5
184909	2026-08-20T00:25:24	23.7	67.5
184910	2026-08-20T00:35:24	23.3	68
184911	2026-08-20T00:45:24	23.2	68.5
184912	2026-08-20T00:55:24	23.3	68.5
184913	2026-08-20T01:15:24	22.9	69.5
184914	2026-08-20T01:25:24	22.8	70.5
184915	2026-08-20T01:35:24	22.7	71
184916	2026-08-20T01:45:24	22.7	71
184917	2026-08-20T01:55:24	22.6	71.5
184918	2026-08-20T02:05:24	22.4	71.5
184919	2026-08-20T02:15:24	22.4	72
184920	2026-08-20T02:25:24	22.3	72.5
184921	2026-08-20T02:35:24	22.2	73
184922	2026-08-20T02:45:24	22.2	73.5
184923	2026-08-20T02:55:24	22.1	73.5
184924	2026-08-20T03:05:24	22	74.5
184925	2026-08-20T03:15:24	21.9	75
184926	2026-08-20T03:25:24	21.9	75
184927	2026-08-20T03:35:24	22	75
184928	2026-08-20T03:45:24	21.8	75
184929	2026-08-20T03:55:24	21.9	75.5
184930	2026-08-20T04:05:24	21.9	75.5
184931	2026-08-20T04:15:24	21.8	76
184932	2026-08-20T04:25:24	22	76
184933	2026-08-20T04:35:24	21.8	76
184934	2026-08-20T04:45:24	21.8	76.5
184935	2026-08-20T04:55:24	21.7	77
184936	2026-08-20T05:05:23	21.5	76.5
184937	2026-08-20T05:15:23	21.6	76.5
184938	2026-08-20T05:25:23	21.6	76.5
184939	2026-08-20T05:35:23	21.2	76.5
184940	2026-08-20T05:45:23	21.4	76.5
184941	2026-08-20T05:55:23	21.3	76
184942	2026-08-20T06:05:23	21.5	76
184943	2026-08-20T06:15:23	21.3	77
184944	2026-08-20T06:25:23	20.9	82
184945	2026-08-20T06:35:23	20.4	81
184946	2026-08-20T06:45:23	20.7	80.5
184947	2026-08-20T06:55:23	20.8	80
184948	2026-08-20T07:05:23	21.1	78.5
184949	2026-08-20T07:15:23	21	79.5
184950	2026-08-20T07:25:23	21	82
184951	2026-08-20T07:35:23	21.3	81
184952	2026-08-20T07:45:23	21.1	79.5
184953	2026-08-20T07:55:23	19.9	87.5
184954	2026-08-20T08:05:23	19.6	86
184955	2026-08-20T08:15:23	20.2	83.5
184956	2026-08-20T08:25:23	20.5	82.5
184957	2026-08-20T08:35:23	21.1	78
184958	2026-08-20T08:45:23	21.6	77.5
184959	2026-08-20T08:55:23	21.7	76
184960	2026-08-20T09:05:23	22	76
184961	2026-08-20T09:15:23	21.7	75.5
184962	2026-08-20T09:25:23	21.3	78.5
184963	2026-08-20T09:35:23	20.5	88
184964	2026-08-20T09:45:23	19.7	92.5
184965	2026-08-20T09:55:23	19.8	91
184966	2026-08-20T10:05:23	20.3	92.5
184967	2026-08-20T10:15:23	20.4	89.5
184968	2026-08-20T10:25:23	20.8	88.5
184969	2026-08-20T10:35:23	21.3	84.5
184970	2026-08-20T10:45:23	21.8	83.5
184971	2026-08-20T10:55:23	22.2	80.5
184972	2026-08-20T11:05:23	22.6	77
184973	2026-08-20T11:15:23	22.7	78
184974	2026-08-20T11:25:23	22.7	76
184975	2026-08-20T11:35:23	23.1	74.5
184976	2026-08-20T11:45:23	23	73.5
184977	2026-08-20T11:55:23	22.8	74
184978	2026-08-20T12:05:23	22.7	73.5
184979	2026-08-20T12:15:23	22.3	74.5
184980	2026-08-20T12:25:23	22.4	74.5
184981	2026-08-20T12:35:23	22.9	72.5
184982	2026-08-20T12:45:23	22.9	70.5
184983	2026-08-20T12:55:23	22.7	70.5
184984	2026-08-20T13:05:23	23.3	67.5
184985	2026-08-20T13:15:23	24.2	64.5
184986	2026-08-20T13:25:23	26.2	57.5
184987	2026-08-20T13:35:23	26.9	53.5
184988	2026-08-20T13:45:23	25.8	56
184989	2026-08-20T13:55:23	26.6	54
184990	2026-08-20T14:05:23	26.2	55.5
184991	2026-08-20T14:15:23	27.1	52.5
184992	2026-08-20T14:25:23	27.8	50.5
184993	2026-08-20T14:35:23	28.7	47.5
184994	2026-08-20T14:45:23	28.2	48
184995	2026-08-20T14:55:23	29.3	47
184996	2026-08-20T15:05:22	28.9	47
184997	2026-08-20T15:15:22	30.8	44.5
184998	2026-08-20T15:25:22	31.9	43.5
184999	2026-08-20T15:35:22	32.6	42
185000	2026-08-20T15:45:22	32.5	41
185001	2026-08-20T15:55:22	32.3	42.5
185002	2026-08-20T16:05:22	33.4	40.5
185003	2026-08-20T16:15:22	33.6	40
185004	2026-08-20T16:25:22	32.2	42
185005	2026-08-20T16:35:22	32.8	41
185006	2026-08-20T16:45:22	32.8	41.5
185007	2026-08-20T16:55:22	32.7	42
185008	2026-08-20T17:05:22	30.8	45
185009	2026-08-20T17:15:22	30.4	46.5
185010	2026-08-20T17:25:22	30.3	45.5
185011	2026-08-20T17:35:22	29	49
185012	2026-08-20T17:45:22	27.9	52
185013	2026-08-20T17:55:22	26.9	54.5
185014	2026-08-20T18:05:22	26.4	55.5
185015	2026-08-20T18:15:22	26.4	57.5
185016	2026-08-20T18:25:22	25.9	57.5
185017	2026-08-20T18:35:22	25.5	59.5
185018	2026-08-20T18:45:22	25.1	61.5
185019	2026-08-20T18:55:22	24.7	63
185020	2026-08-20T19:05:22	24.3	64.5
185021	2026-08-20T19:15:22	23.9	65.5
185022	2026-08-20T19:25:22	23.8	65.5
185023	2026-08-20T19:35:22	23.6	65.5
185024	2026-08-20T19:45:22	23.3	67.5
185025	2026-08-20T19:55:22	23	68
185026	2026-08-20T20:05:22	22.8	69
185027	2026-08-20T20:15:22	22.6	69.5
185028	2026-08-20T20:25:22	22.3	71
185029	2026-08-20T20:35:22	22.1	71.5
185030	2026-08-20T20:45:22	21.9	72.5
185031	2026-08-20T20:55:22	21.6	72
185032	2026-08-20T21:05:22	21.3	73
185033	2026-08-20T21:15:22	21.2	73.5
185034	2026-08-20T21:25:22	20.9	74.5
185035	2026-08-20T21:35:22	20.4	75.5
185036	2026-08-20T21:45:22	20.2	76.5
185037	2026-08-20T21:55:22	20	77
185038	2026-08-20T22:05:22	19.9	77.5
185039	2026-08-20T22:15:22	19.7	78
185040	2026-08-20T22:25:22	19.5	78.5
185041	2026-08-20T22:35:22	19.2	79
185042	2026-08-20T22:45:22	19.1	79.5
185043	2026-08-20T22:55:22	18.9	79.5
185044	2026-08-20T23:05:22	18.8	80
185045	2026-08-20T23:15:22	18.6	81
185046	2026-08-20T23:25:22	18.5	81.5
185047	2026-08-20T23:35:43	18.4	82
185048	2026-08-20T23:45:22	18.1	82
185049	2026-08-20T23:55:22	17.9	82.5
185050	2026-08-21T00:05:22	17.8	83
185051	2026-08-21T00:25:22	17.5	82.5
185052	2026-08-21T00:35:41	17.5	83
185053	2026-08-21T00:45:22	17.3	83.5
185054	2026-08-21T00:55:22	17.3	84
185055	2026-08-21T01:05:22	17.2	84
185056	2026-08-21T01:15:21	17.1	84
185057	2026-08-21T01:25:21	17.3	83
185058	2026-08-21T01:35:21	17.1	83
185059	2026-08-21T01:45:21	17	83
185060	2026-08-21T01:55:21	16.9	84
185061	2026-08-21T02:05:21	16.9	84
185062	2026-08-21T02:15:21	16.8	84
185063	2026-08-21T02:25:21	16.9	84.5
185064	2026-08-21T02:35:21	16.9	84.5
185065	2026-08-21T02:45:21	16.8	83.5
185066	2026-08-21T02:55:21	16.8	83.5
185067	2026-08-21T03:05:21	16.8	85
185068	2026-08-21T03:15:21	16.7	85.5
185069	2026-08-21T03:25:21	16.6	85.5
185070	2026-08-21T03:35:21	16.5	86.5
185071	2026-08-21T03:45:21	16.5	86
185072	2026-08-21T03:55:21	16.4	86
185073	2026-08-21T04:05:21	16.1	87
185074	2026-08-21T04:15:21	16.1	85.5
185075	2026-08-21T04:25:21	16	86.5
185076	2026-08-21T04:35:21	16.1	85.5
185077	2026-08-21T04:45:21	16.1	86
185078	2026-08-21T04:55:21	16.1	86.5
185079	2026-08-21T05:05:21	16.3	86
185080	2026-08-21T05:15:21	16.5	85
185081	2026-08-21T05:25:21	16.8	85.5
185082	2026-08-21T05:35:21	17	84.5
185083	2026-08-21T05:45:21	17	85
185084	2026-08-21T05:55:21	17.1	84.5
185085	2026-08-21T06:05:21	17.2	84
185086	2026-08-21T06:15:21	17.3	82.5
185087	2026-08-21T06:25:21	17.4	83
185088	2026-08-21T06:35:21	17.2	83
185089	2026-08-21T06:45:21	17.4	84
185090	2026-08-21T06:55:21	17.7	83.5
185091	2026-08-21T07:05:21	18.1	81
185092	2026-08-21T07:15:21	18.4	80
185093	2026-08-21T07:25:21	18.8	78.5
185094	2026-08-21T07:35:21	19	77.5
185095	2026-08-21T07:45:21	19.3	77
185096	2026-08-21T07:55:21	19.4	75.5
185097	2026-08-21T08:05:21	19.7	74.5
185098	2026-08-21T08:15:21	19.9	74
185099	2026-08-21T08:25:21	20	72.5
185100	2026-08-21T08:35:21	20	74.5
185101	2026-08-21T08:45:21	20.1	71.5
185102	2026-08-21T08:55:21	20.2	69.5
185103	2026-08-21T09:05:21	20.6	70.5
185104	2026-08-21T09:15:21	20.8	70.5
185105	2026-08-21T09:25:21	20.8	71.5
185106	2026-08-21T09:35:21	20.9	71.5
185107	2026-08-21T09:45:21	20.9	71
185108	2026-08-21T09:55:21	20.9	72.5
185109	2026-08-21T10:05:21	20.8	71
185110	2026-08-21T10:15:21	20.9	72.5
185111	2026-08-21T10:25:21	20.9	71
185112	2026-08-21T10:35:21	20.7	73
185113	2026-08-21T10:45:21	20.4	75
185114	2026-08-21T10:55:21	19.1	85.5
185115	2026-08-21T11:05:21	18.1	87
185116	2026-08-21T11:15:21	17.4	95
185117	2026-08-21T11:25:21	17.4	100
185118	2026-08-21T11:35:21	17.4	100
185119	2026-08-21T11:45:21	17.4	100
185120	2026-08-21T11:55:20	17.2	100
185121	2026-08-21T12:05:20	17.1	100
185122	2026-08-21T12:15:20	17.2	100
185123	2026-08-21T12:25:20	17.2	100
185124	2026-08-21T12:35:20	17.2	100
185125	2026-08-21T12:45:20	17.4	100
185126	2026-08-21T12:55:20	17.7	100
185127	2026-08-21T13:05:20	17.8	100
185128	2026-08-21T13:15:20	17.8	100
185129	2026-08-21T13:25:20	17.7	100
185130	2026-08-21T13:35:20	17.8	100
185131	2026-08-21T13:45:20	17.6	100
185132	2026-08-21T13:55:20	17.5	100
185133	2026-08-21T14:05:20	17.4	99
185134	2026-08-21T14:15:20	18	98.5
185135	2026-08-21T14:25:20	18.1	99
185136	2026-08-21T14:35:20	18.5	100
185137	2026-08-21T14:45:20	18.5	97.5
185138	2026-08-21T14:55:20	18.3	98.5
185139	2026-08-21T15:05:20	18.8	99
185140	2026-08-21T15:15:20	19.9	95.5
185141	2026-08-21T15:25:20	22	87.5
185142	2026-08-21T15:35:20	21.4	80
185143	2026-08-21T15:45:20	22.2	74
185144	2026-08-21T15:55:20	23.9	76.5
185145	2026-08-21T16:05:20	21.8	73
185146	2026-08-21T16:15:20	21	76.5
185147	2026-08-21T16:25:20	20.4	75
185148	2026-08-21T16:35:20	19.9	77.5
185149	2026-08-21T16:45:20	19.5	80.5
185150	2026-08-21T16:55:20	19.1	84
185151	2026-08-21T17:05:20	18.6	85.5
185152	2026-08-21T17:15:20	18.3	88.5
185153	2026-08-21T17:25:20	18	93
185154	2026-08-21T17:35:20	16.9	99
185155	2026-08-21T17:45:20	16.6	100
185156	2026-08-21T17:55:20	16.6	100
185157	2026-08-21T18:05:20	16.3	100
185158	2026-08-21T18:15:20	16.2	100
185159	2026-08-21T18:25:20	15.9	100
185160	2026-08-21T18:35:20	15.9	100
185161	2026-08-21T18:45:20	15.6	100
185162	2026-08-21T18:55:20	15.5	100
185163	2026-08-21T19:05:20	15.6	100
185164	2026-08-21T19:15:20	15.8	100
185165	2026-08-21T19:25:20	15.8	100
185166	2026-08-21T19:35:20	15.4	100
185167	2026-08-21T19:45:20	15.4	100
185168	2026-08-21T19:55:20	15.5	100
185169	2026-08-21T20:05:20	15.4	100
185170	2026-08-21T20:15:20	15.4	100
185171	2026-08-21T20:25:20	15	100
185172	2026-08-21T20:35:20	15	100
185173	2026-08-21T20:45:20	14.9	100
185174	2026-08-21T20:55:20	14.9	100
185175	2026-08-21T21:05:20	14.7	100
185176	2026-08-21T21:15:20	14.5	100
185177	2026-08-21T21:25:20	14.3	100
185178	2026-08-21T21:35:20	14.3	100
185179	2026-08-21T21:45:20	14.2	100
185180	2026-08-21T21:55:20	14.2	100
185181	2026-08-21T22:05:20	14	100
185182	2026-08-21T22:15:20	14	100
185183	2026-08-21T22:25:20	13.8	100
185184	2026-08-21T22:35:20	13.9	100
185185	2026-08-21T22:45:20	13.9	100
185186	2026-08-21T22:55:20	13.9	100
185187	2026-08-21T23:05:20	14	100
185188	2026-08-21T23:15:19	13.9	100
185189	2026-08-21T23:25:19	13.8	100
185190	2026-08-21T23:35:19	13.6	100
185191	2026-08-21T23:45:19	13.5	100
185192	2026-08-21T23:55:19	13.5	100
185193	2026-08-22T00:05:19	13.8	100
185194	2026-08-22T00:15:19	13.7	100
185195	2026-08-22T00:25:19	13.6	100
185196	2026-08-22T00:35:19	13.7	100
185197	2026-08-22T00:45:19	13.8	100
185198	2026-08-22T00:55:19	13.9	100
185199	2026-08-22T01:05:19	13.9	100
185200	2026-08-22T01:15:19	13.9	100
185201	2026-08-22T01:25:19	14	100
185202	2026-08-22T01:35:19	13.8	100
185203	2026-08-22T01:45:19	13.8	100
185204	2026-08-22T01:55:19	13.7	100
185205	2026-08-22T02:05:19	13.6	100
185206	2026-08-22T02:15:19	13.6	100
185207	2026-08-22T02:25:19	13.7	100
185208	2026-08-22T02:35:19	13.8	100
185209	2026-08-22T02:45:19	13.7	100
185210	2026-08-22T02:55:19	13.7	100
185211	2026-08-22T03:05:19	13.7	100
185212	2026-08-22T03:15:19	13.8	100
185213	2026-08-22T03:25:19	13.9	100
185214	2026-08-22T03:35:19	14	100
185215	2026-08-22T03:45:19	14	100
185216	2026-08-22T03:55:19	14	100
185217	2026-08-22T04:05:19	14	100
185218	2026-08-22T04:15:19	14	100
185219	2026-08-22T04:25:19	14.1	100
185220	2026-08-22T04:35:19	14.2	100
185221	2026-08-22T04:45:19	14.3	100
185222	2026-08-22T04:55:19	14.3	99
185223	2026-08-22T05:05:19	14.4	99
185224	2026-08-22T05:15:19	14.4	98.5
185225	2026-08-22T05:25:19	14.4	98
185226	2026-08-22T05:35:19	14.5	97
185227	2026-08-22T05:45:19	14.6	98
185228	2026-08-22T05:55:19	14.6	97.5
185229	2026-08-22T06:05:19	14.8	97
185230	2026-08-22T06:15:19	14.9	97
185231	2026-08-22T06:25:19	15	97
185232	2026-08-22T06:35:19	15	96
185233	2026-08-22T06:45:19	15	95
185234	2026-08-22T06:55:19	15.3	94
185235	2026-08-22T07:05:19	15.3	94
185236	2026-08-22T07:15:19	15.1	93
185237	2026-08-22T07:25:19	15.1	93
185238	2026-08-22T07:35:19	15.1	93.5
185239	2026-08-22T07:45:19	15.1	93.5
185240	2026-08-22T07:55:19	15	94.5
185241	2026-08-22T08:05:19	15.1	94.5
185242	2026-08-22T08:15:19	15.3	94
185243	2026-08-22T08:25:19	15.7	93
185244	2026-08-22T08:35:19	16.1	93
185245	2026-08-22T08:45:19	15.7	93
185246	2026-08-22T08:55:19	15.8	93.5
185247	2026-08-22T09:05:19	16.4	91
185248	2026-08-22T09:15:19	17	88.5
185249	2026-08-22T09:25:19	17.4	87.5
185250	2026-08-22T09:35:19	17.7	85
185251	2026-08-22T09:45:19	17.7	84
185252	2026-08-22T09:55:19	17.7	84.5
185253	2026-08-22T10:05:19	18.3	82
185254	2026-08-22T10:15:19	18.7	80
185255	2026-08-22T10:25:19	19.4	77.5
185256	2026-08-22T10:35:19	19.1	77
185257	2026-08-22T10:45:19	19.1	79.5
185258	2026-08-22T10:55:19	19.3	79
185259	2026-08-22T11:05:19	19.5	77.5
185260	2026-08-22T11:15:18	19.9	71.5
185261	2026-08-22T11:25:18	20	72.5
185262	2026-08-22T11:35:18	19.9	72
185263	2026-08-22T11:45:18	20.5	71
185264	2026-08-22T11:55:18	21	69.5
185265	2026-08-22T12:05:18	21.5	68.5
185266	2026-08-22T12:15:18	23.5	62.5
185267	2026-08-22T12:25:18	23.4	61
185268	2026-08-22T12:35:18	25.8	53
185269	2026-08-22T12:45:18	27.7	49
185270	2026-08-22T12:55:18	27.9	48.5
185271	2026-08-22T13:05:18	28.3	46.5
185272	2026-08-22T13:15:18	29.3	44
185273	2026-08-22T13:25:18	29.2	43.5
185274	2026-08-22T13:35:18	27.9	44.5
185275	2026-08-22T13:45:18	25.9	49.5
185276	2026-08-22T13:55:18	25.5	58.5
185277	2026-08-22T14:05:18	24.6	68
185278	2026-08-22T14:15:18	23.6	67
185279	2026-08-22T14:25:18	24.1	70.5
185280	2026-08-22T14:35:18	24.3	69
185281	2026-08-22T14:45:18	26.6	62.5
185282	2026-08-22T14:55:18	27	58.5
185283	2026-08-22T15:05:18	25.6	60
185284	2026-08-22T15:15:18	24.9	62.5
185285	2026-08-22T15:25:18	24	64.5
185286	2026-08-22T15:35:18	23.2	61.5
185287	2026-08-22T15:45:18	23.4	63.5
185288	2026-08-22T15:55:18	23.9	61.5
185289	2026-08-22T16:05:18	25.4	57.5
185290	2026-08-22T16:15:18	26.6	54
185291	2026-08-22T16:25:18	27.9	49
185292	2026-08-22T16:35:18	27.1	50
185293	2026-08-22T16:45:18	27.1	47
185294	2026-08-22T16:55:18	28.3	46.5
185295	2026-08-22T17:05:18	27.1	52
185296	2026-08-22T17:15:18	28.1	47.5
185297	2026-08-22T17:25:18	27.6	48
185298	2026-08-22T17:35:18	26.2	56.5
185299	2026-08-22T17:45:18	24.6	60.5
185300	2026-08-22T17:55:18	23.6	62.5
185301	2026-08-22T18:05:18	23.2	66.5
185302	2026-08-22T18:15:18	22.6	68.5
185303	2026-08-22T18:25:18	22	69.5
185304	2026-08-22T18:35:18	21.3	70
185305	2026-08-22T18:45:18	20.8	73.5
185306	2026-08-22T18:55:18	20.3	72
185307	2026-08-22T19:05:18	20.3	74
185308	2026-08-22T19:15:18	19.8	75
185309	2026-08-22T19:25:18	19.5	75
185310	2026-08-22T19:35:18	19.3	76.5
185311	2026-08-22T19:45:18	18.9	77
185312	2026-08-22T19:55:18	18.7	77
185313	2026-08-22T20:05:18	18.3	78
185314	2026-08-22T20:15:18	18.1	79
185315	2026-08-22T20:25:18	17.7	78.5
185316	2026-08-22T20:35:18	17.6	79
185317	2026-08-22T20:45:18	17.4	81
185318	2026-08-22T20:55:18	17	81
185319	2026-08-22T21:05:18	16.9	81.5
185320	2026-08-22T21:15:17	16.3	83
185321	2026-08-22T21:35:17	16.1	84.5
185322	2026-08-22T21:45:17	16.1	84
185323	2026-08-22T21:55:17	15.8	85
185324	2026-08-22T22:05:17	15.8	85.5
185325	2026-08-22T22:15:17	15.6	85
185326	2026-08-22T22:25:17	15	86
185327	2026-08-22T22:35:17	14.9	86
185328	2026-08-22T22:45:17	14.9	87
185329	2026-08-22T23:05:17	14.5	87
185330	2026-08-22T23:15:17	14.3	88
185331	2026-08-22T23:25:17	14.3	87.5
185332	2026-08-22T23:35:17	14.4	88
185333	2026-08-22T23:45:17	14.2	87
185334	2026-08-22T23:55:17	14.1	88.5
185335	2026-08-23T00:05:17	13.9	88.5
185336	2026-08-23T00:15:17	13.8	89
185337	2026-08-23T00:25:17	13.6	89
185338	2026-08-23T00:35:17	13.4	89.5
185339	2026-08-23T00:45:17	13.3	89.5
185340	2026-08-23T00:55:17	13.2	89
185341	2026-08-23T01:05:17	13.1	90
185342	2026-08-23T01:15:17	12.9	89.5
185343	2026-08-23T01:25:17	12.7	89.5
185344	2026-08-23T01:35:17	12.7	90.5
185345	2026-08-23T01:45:17	12.6	90
185346	2026-08-23T01:55:17	12.5	90
185347	2026-08-23T02:05:17	12.3	90.5
185348	2026-08-23T02:15:17	12.2	90.5
185349	2026-08-23T02:25:17	12.2	91
185350	2026-08-23T02:35:17	12	91
185351	2026-08-23T02:45:17	12.1	91.5
185352	2026-08-23T02:55:17	12	91
185353	2026-08-23T03:05:17	11.8	91.5
185354	2026-08-23T03:15:17	11.7	91
185355	2026-08-23T03:25:17	11.5	91.5
185356	2026-08-23T03:35:17	11.5	91.5
185357	2026-08-23T03:45:17	11.5	92
185358	2026-08-23T03:55:17	11.4	92.5
185359	2026-08-23T04:05:17	11.4	92.5
185360	2026-08-23T04:15:17	11.2	92.5
185361	2026-08-23T04:25:17	11.3	92.5
185362	2026-08-23T04:35:17	11.1	92.5
185363	2026-08-23T04:45:17	11.1	92.5
185364	2026-08-23T04:55:17	11.1	93
185365	2026-08-23T05:05:17	11.2	93
185366	2026-08-23T05:15:17	11.4	92.5
185367	2026-08-23T05:25:17	11.4	92
185368	2026-08-23T05:35:17	11.7	92
185369	2026-08-23T05:45:17	11.6	91.5
185370	2026-08-23T05:55:17	11.8	92
185371	2026-08-23T06:05:17	12	92
185372	2026-08-23T06:15:17	12.2	91.5
185373	2026-08-23T06:25:17	12.4	91.5
185374	2026-08-23T06:35:17	12.7	90.5
185375	2026-08-23T06:45:17	12.9	91.5
185376	2026-08-23T06:55:17	13.2	92.5
185377	2026-08-23T07:05:17	13.4	92
185378	2026-08-23T07:15:17	13.8	89.5
185379	2026-08-23T07:25:17	14.1	89
185380	2026-08-23T07:35:17	14.5	88
185381	2026-08-23T07:45:17	14.7	88
185382	2026-08-23T07:55:17	14.9	87.5
185383	2026-08-23T08:05:17	15.2	87.5
185384	2026-08-23T08:15:17	15.5	87.5
185385	2026-08-23T08:25:17	15.7	86
185386	2026-08-23T08:35:17	16	84.5
185387	2026-08-23T08:45:17	16.3	84
185388	2026-08-23T08:55:17	16.5	83
185389	2026-08-23T09:05:17	17	81
185390	2026-08-23T09:15:17	17	80.5
185391	2026-08-23T09:25:17	17.3	78.5
185392	2026-08-23T09:35:17	17.5	79.5
185393	2026-08-23T09:45:17	17.7	76.5
185394	2026-08-23T09:55:16	17.9	75.5
185395	2026-08-23T10:05:16	18.2	73
185396	2026-08-23T10:15:16	18.7	73
185397	2026-08-23T10:25:16	18.9	70.5
185398	2026-08-23T10:35:16	19.2	70
185399	2026-08-23T10:45:16	19.3	68
185400	2026-08-23T10:55:16	19.5	68
185401	2026-08-23T11:05:16	19.7	66
185402	2026-08-23T11:15:16	20.2	66
185403	2026-08-23T11:25:16	20.6	64.5
185404	2026-08-23T11:35:16	20.8	61
185405	2026-08-23T11:45:16	20.9	60.5
185406	2026-08-23T11:55:16	21.7	58
185407	2026-08-23T12:05:16	22.4	56
185408	2026-08-23T12:15:16	23.5	54
185409	2026-08-23T12:25:16	26.3	47.5
185410	2026-08-23T12:35:16	28.3	43.5
185411	2026-08-23T12:45:16	29.8	40
185412	2026-08-23T12:55:16	30.6	38.5
185413	2026-08-23T13:05:16	28	42.5
185414	2026-08-23T13:15:16	29.7	41
185415	2026-08-23T13:25:16	30.8	40.5
185416	2026-08-23T13:35:16	31	38
185417	2026-08-23T13:45:16	31.2	39
185418	2026-08-23T13:55:16	30.3	38.5
185419	2026-08-23T14:05:16	30.9	37.5
185420	2026-08-23T14:15:16	31.3	36.5
185421	2026-08-23T14:25:16	34.7	33.5
185422	2026-08-23T14:35:16	35.8	31.5
185423	2026-08-23T14:45:16	35.1	31
185424	2026-08-23T14:55:16	34.6	32
185425	2026-08-23T15:05:16	34.1	32
185426	2026-08-23T15:15:16	32.6	33.5
185427	2026-08-23T15:25:16	33.3	32.5
185428	2026-08-23T15:35:16	32.7	33.5
185429	2026-08-23T15:45:16	32.7	33
185430	2026-08-23T15:55:16	34.3	31.5
185431	2026-08-23T16:05:16	35.1	29.5
185432	2026-08-23T16:15:16	35.2	29
185433	2026-08-23T16:25:16	36	30
185434	2026-08-23T16:35:16	35.4	30
185435	2026-08-23T16:45:16	34.9	30.5
185436	2026-08-23T16:55:16	34.9	31
185437	2026-08-23T17:05:16	32.7	32.5
185438	2026-08-23T17:15:16	32.7	32
185439	2026-08-23T17:25:16	31.4	33.5
185440	2026-08-23T17:35:16	29.5	35.5
185441	2026-08-23T17:45:16	28	38
185442	2026-08-23T17:55:16	27.1	39.5
185443	2026-08-23T18:05:16	26.4	40
185444	2026-08-23T18:15:16	25.6	41
185445	2026-08-23T18:25:16	24.9	44
185446	2026-08-23T18:35:16	24.4	45
185447	2026-08-23T18:45:16	24.1	46.5
185448	2026-08-23T18:55:16	23.6	48.5
185449	2026-08-23T19:05:16	23	50.5
185450	2026-08-23T19:15:16	22.7	52.5
185451	2026-08-23T19:25:16	22.3	53
185452	2026-08-23T19:35:16	21.9	55.5
185453	2026-08-23T19:45:16	21.6	57
185454	2026-08-23T19:55:16	21.2	55.5
185455	2026-08-23T20:05:16	20.9	56
185456	2026-08-23T20:15:16	20.5	56
185457	2026-08-23T20:25:15	20	57.5
185458	2026-08-23T20:35:15	19.7	59
185459	2026-08-23T20:45:15	19.5	59
185460	2026-08-23T20:55:15	19.3	57.5
185461	2026-08-23T21:05:15	19.1	58.5
185462	2026-08-23T21:15:15	18.9	59.5
185463	2026-08-23T21:25:15	18.5	60
185464	2026-08-23T21:35:15	18.3	62
185465	2026-08-23T21:45:15	17.8	64
185466	2026-08-23T21:55:15	17.6	64.5
185467	2026-08-23T22:05:15	17.3	66
185468	2026-08-23T22:15:15	17.3	66.5
185469	2026-08-23T22:25:15	16.9	67
185470	2026-08-23T22:35:15	16.6	68.5
185471	2026-08-23T22:45:15	16.4	68.5
185472	2026-08-23T22:55:15	16.2	69
185473	2026-08-23T23:05:15	16.1	70
185474	2026-08-23T23:15:15	15.7	71
185475	2026-08-23T23:25:15	15.4	72.5
185476	2026-08-23T23:35:15	15.1	73
185477	2026-08-23T23:45:15	14.9	73.5
185478	2026-08-23T23:55:15	14.6	74.5
185479	2026-08-24T00:05:15	14.6	75
185480	2026-08-24T00:15:15	14.4	75
185481	2026-08-24T00:25:15	14.2	76
185482	2026-08-24T00:35:15	14	76
185483	2026-08-24T00:45:15	13.9	76.5
185484	2026-08-24T00:55:15	13.8	76.5
185485	2026-08-24T01:15:15	13.7	76.5
185486	2026-08-24T01:25:15	13.7	77
185487	2026-08-24T01:35:15	13.5	77
185488	2026-08-24T01:45:15	13.4	77
185489	2026-08-24T01:55:15	13.6	76.5
185490	2026-08-24T02:05:15	13.7	76.5
185491	2026-08-24T02:15:15	13.5	76.5
185492	2026-08-24T02:25:15	13.5	77
185493	2026-08-24T02:35:15	13.3	77.5
185494	2026-08-24T02:45:15	13.2	78
185495	2026-08-24T02:55:15	13.1	77.5
185496	2026-08-24T03:05:15	13.2	77.5
185497	2026-08-24T03:15:15	13.1	77
185498	2026-08-24T03:25:15	13.1	77
185499	2026-08-24T03:35:15	13.1	77.5
185500	2026-08-24T03:45:15	12.9	77.5
185501	2026-08-24T03:55:15	12.8	78
185502	2026-08-24T04:05:15	12.7	78
185503	2026-08-24T04:15:15	12.6	78
185504	2026-08-24T04:25:15	12.6	78.5
185505	2026-08-24T04:35:15	12.5	79
185506	2026-08-24T04:45:15	12.5	79.5
185507	2026-08-24T04:55:15	12.5	79
185508	2026-08-24T05:05:15	12.5	79.5
185509	2026-08-24T05:15:15	12.5	79
185510	2026-08-24T05:25:15	12.7	78.5
185511	2026-08-24T05:35:15	12.7	78
185512	2026-08-24T05:45:15	12.9	78
185513	2026-08-24T05:55:15	12.9	77.5
185514	2026-08-24T06:05:15	13.3	77
185515	2026-08-24T06:15:15	13.5	76
185516	2026-08-24T06:25:15	13.9	75
185517	2026-08-24T06:45:15	14.7	73.5
185518	2026-08-24T06:55:15	15.6	71
185519	2026-08-24T07:05:15	15.8	69.5
185520	2026-08-24T07:15:15	16	69
185521	2026-08-24T07:25:15	15.8	69
185522	2026-08-24T07:35:15	16.1	69
185523	2026-08-24T07:45:15	16.5	68
185524	2026-08-24T07:55:15	16.8	67.5
185525	2026-08-24T08:05:14	17	67
185526	2026-08-24T08:15:14	17.3	67.5
185527	2026-08-24T08:25:14	17.9	65.5
185528	2026-08-24T08:35:14	18.6	63
185529	2026-08-24T08:45:14	18.8	62.5
185530	2026-08-24T08:55:14	19	61.5
185531	2026-08-24T09:05:14	19.2	60.5
185532	2026-08-24T09:15:14	19.4	60.5
185533	2026-08-24T09:25:14	19.6	60.5
185534	2026-08-24T09:35:14	20.5	59.5
185535	2026-08-24T09:45:14	20.8	58
185536	2026-08-24T09:55:14	21.4	56.5
185537	2026-08-24T10:05:14	22	56
185538	2026-08-24T10:15:14	22.4	55
185539	2026-08-24T10:25:14	23.1	54
185540	2026-08-24T10:35:14	23.6	53
185541	2026-08-24T10:45:14	23.8	52
185542	2026-08-24T10:55:14	24	52.5
185543	2026-08-24T11:05:14	24.7	50.5
185544	2026-08-24T11:15:14	25	50
185545	2026-08-24T11:25:14	25.2	50.5
185546	2026-08-24T11:35:14	24.9	50
185547	2026-08-24T11:45:14	25.6	48.5
185548	2026-08-24T11:55:14	26.7	47.5
185549	2026-08-24T12:05:14	27.5	45.5
185550	2026-08-24T12:15:14	26.9	44.5
185551	2026-08-24T12:25:14	26.9	45
185552	2026-08-24T12:35:14	27	45
185553	2026-08-24T12:55:14	28.7	43
185554	2026-08-24T13:05:14	29.4	40.5
185555	2026-08-24T13:15:14	29	41.5
185556	2026-08-24T13:25:14	29.7	40.5
185557	2026-08-24T13:35:14	30.1	40
185558	2026-08-24T13:45:14	29.7	39
185559	2026-08-24T13:55:14	30.1	38.5
185560	2026-08-24T14:05:14	29.6	39.5
185561	2026-08-24T14:15:14	29.4	39.5
185562	2026-08-24T14:25:14	28.5	40.5
185563	2026-08-24T14:35:14	27.8	42.5
185564	2026-08-24T14:45:14	27.3	42.5
185565	2026-08-24T14:55:14	26.6	44.5
185566	2026-08-24T15:05:14	26.4	45.5
185567	2026-08-24T15:15:14	25.8	46.5
185568	2026-08-24T15:25:14	25.3	49.5
185569	2026-08-24T15:35:14	25.1	49.5
185570	2026-08-24T15:45:14	24.8	50.5
185571	2026-08-24T15:55:14	24.8	50.5
185572	2026-08-24T16:05:14	24.5	50.5
185573	2026-08-24T16:15:14	24.3	51
185574	2026-08-24T16:25:14	24.2	51
185575	2026-08-24T16:35:14	24.1	51
185576	2026-08-24T16:45:14	23.9	50.5
185577	2026-08-24T16:55:14	23.7	52
185578	2026-08-24T17:05:14	23.7	53.5
185579	2026-08-24T17:15:14	23.5	54
185580	2026-08-24T17:25:14	23.5	54
185581	2026-08-24T17:35:14	23.1	54.5
185582	2026-08-24T17:45:14	22.9	55
185583	2026-08-24T17:55:13	22.6	55
185584	2026-08-24T18:05:13	22.4	54
185585	2026-08-24T18:15:13	22.4	54.5
185586	2026-08-24T18:25:13	22.2	54
185587	2026-08-24T18:35:14	22.1	54.5
185588	2026-08-24T18:45:13	21.9	56
185589	2026-08-24T18:55:13	21.8	56
185590	2026-08-24T19:05:13	21.7	55.5
185591	2026-08-24T19:15:13	21.3	56.5
185592	2026-08-24T19:25:13	21.2	57
185593	2026-08-24T19:35:13	21.2	56
185594	2026-08-24T19:45:13	20.8	56.5
185595	2026-08-24T19:55:13	20.6	57
185596	2026-08-24T20:05:13	20.4	58
185597	2026-08-24T20:15:13	20.2	58
185598	2026-08-24T20:25:13	20.1	58
185599	2026-08-24T20:35:13	19.8	58
185600	2026-08-24T20:45:13	19.7	58.5
185601	2026-08-24T20:55:13	19.7	58.5
185602	2026-08-24T21:05:13	19.7	58
185603	2026-08-24T21:15:13	19.6	58
185604	2026-08-24T21:25:13	19.7	56
185605	2026-08-24T21:35:13	19.7	56
185606	2026-08-24T21:45:13	19.8	56
185607	2026-08-24T21:55:13	19.7	58
185608	2026-08-24T22:05:13	19.5	60.5
185609	2026-08-24T22:15:13	19	65
185610	2026-08-24T22:25:13	18.6	65.5
185611	2026-08-24T22:35:13	18.6	66.5
185612	2026-08-24T22:45:13	18.4	67.5
185613	2026-08-24T22:55:13	18.3	69
185614	2026-08-24T23:05:13	17.8	69.5
185615	2026-08-24T23:15:13	17.8	70.5
185616	2026-08-24T23:25:13	17.9	71
185617	2026-08-24T23:35:13	17.4	72.5
185618	2026-08-24T23:45:13	17.2	73.5
185619	2026-08-24T23:55:13	17	73.5
185620	2026-08-25T00:05:13	17	74
185621	2026-08-25T00:15:13	17.4	73.5
185622	2026-08-25T00:25:13	17.4	73
185623	2026-08-25T00:35:13	17.4	73.5
185624	2026-08-25T00:45:13	17.4	73.5
185625	2026-08-25T00:55:13	17.2	76.5
185626	2026-08-25T01:05:13	17.1	78
185627	2026-08-25T01:15:13	17.2	80.5
185628	2026-08-25T01:25:13	17	81
185629	2026-08-25T01:35:13	17	78
185630	2026-08-25T01:45:13	16.9	78
185631	2026-08-25T01:55:13	16.8	78
185632	2026-08-25T02:05:13	16.7	76.5
185633	2026-08-25T02:15:13	16.5	78.5
185634	2026-08-25T02:25:13	16.5	78.5
185635	2026-08-25T02:35:13	16.4	78
185636	2026-08-25T02:45:13	16.5	78
185637	2026-08-25T02:55:13	16.4	78.5
185638	2026-08-25T03:05:13	16.3	81.5
185639	2026-08-25T03:15:13	16.2	81.5
185640	2026-08-25T03:25:13	16.2	81.5
185641	2026-08-25T03:35:13	16.2	82
185642	2026-08-25T03:45:13	16.2	83.5
185643	2026-08-25T03:55:13	16.3	85
185644	2026-08-25T04:05:13	16.2	85.5
185645	2026-08-25T04:15:13	16.1	87.5
185646	2026-08-25T04:25:13	15.9	85.5
185647	2026-08-25T04:35:13	15.9	86
185648	2026-08-25T04:45:12	15.9	87
185649	2026-08-25T04:55:12	15.9	87.5
185650	2026-08-25T05:05:12	15.8	87.5
185651	2026-08-25T05:15:12	15.9	86.5
185652	2026-08-25T05:25:12	16	85.5
185653	2026-08-25T05:35:12	16.1	87
185654	2026-08-25T05:45:12	16	86.5
185655	2026-08-25T05:55:12	16.1	87
185656	2026-08-25T06:05:12	16.1	86.5
185657	2026-08-25T06:15:12	16.1	87
185658	2026-08-25T06:25:12	16.2	86.5
185659	2026-08-25T06:35:12	16.2	86
185660	2026-08-25T06:45:12	16.2	86
185661	2026-08-25T06:55:12	16.5	85.5
185662	2026-08-25T07:05:12	16.5	85.5
185663	2026-08-25T07:15:12	16.5	84.5
185664	2026-08-25T07:25:12	16.6	83.5
185665	2026-08-25T07:35:12	16.8	83
185666	2026-08-25T07:45:12	16.7	83.5
185667	2026-08-25T07:55:12	16.9	84
185668	2026-08-25T08:05:12	16.8	85.5
185669	2026-08-25T08:15:12	16.9	87.5
185670	2026-08-25T08:25:12	17.2	87.5
185671	2026-08-25T08:35:12	17.4	87
185672	2026-08-25T08:45:12	17.9	84.5
185673	2026-08-25T08:55:12	18.1	83.5
185674	2026-08-25T09:05:12	18.2	83.5
185675	2026-08-25T09:15:12	18.5	83.5
185676	2026-08-25T09:25:12	18.6	82.5
185677	2026-08-25T09:35:12	18.6	82
185678	2026-08-25T09:45:12	18.6	82.5
185679	2026-08-25T09:55:12	18.6	82.5
185680	2026-08-25T10:05:12	18.8	80
185681	2026-08-25T10:15:12	19.1	80.5
185682	2026-08-25T10:25:12	19.5	82
185683	2026-08-25T10:35:12	19.4	80
185684	2026-08-25T10:45:12	19.4	80
185685	2026-08-25T10:55:12	19.4	78.5
185686	2026-08-25T11:05:12	19.6	79
185687	2026-08-25T11:15:12	19.8	78.5
185688	2026-08-25T11:25:12	20.6	76.5
185689	2026-08-25T11:35:12	21.3	73
185690	2026-08-25T11:45:12	21.5	73.5
185691	2026-08-25T11:55:12	21.7	71
185692	2026-08-25T12:05:12	21.4	70
185693	2026-08-25T12:15:12	22.6	68
185694	2026-08-25T12:25:12	23.6	66
185695	2026-08-25T12:35:12	24.3	64
185696	2026-08-25T12:45:12	26.3	58
185697	2026-08-25T12:55:12	26	59
185698	2026-08-25T13:15:12	24.1	64.5
185699	2026-08-25T13:25:12	22.8	67
185700	2026-08-25T13:35:12	22.1	68
185701	2026-08-25T13:45:12	21.8	69
185702	2026-08-25T13:55:12	21.8	72.5
185703	2026-08-25T14:05:12	21.7	74.5
185704	2026-08-25T14:15:12	21.2	74.5
185705	2026-08-25T14:25:12	21.3	75
185706	2026-08-25T14:35:12	21	75
185707	2026-08-25T14:45:12	21.1	75
185708	2026-08-25T14:55:12	21.1	75
185709	2026-08-25T15:05:12	20.9	75.5
185710	2026-08-25T15:15:12	20.8	76
185711	2026-08-25T15:25:11	20.7	76.5
185712	2026-08-25T15:35:11	20.5	77.5
185713	2026-08-25T15:45:11	20.2	81
185714	2026-08-25T15:55:11	19.9	82
185715	2026-08-25T16:05:11	19.9	84.5
185716	2026-08-25T16:15:11	20	84
185717	2026-08-25T16:25:11	19.8	84
185718	2026-08-25T16:35:11	19.7	85.5
185719	2026-08-25T16:45:11	19.4	86
185720	2026-08-25T16:55:11	19.4	86
185721	2026-08-25T17:05:11	19.2	86.5
185722	2026-08-25T17:15:11	19	87
185723	2026-08-25T17:25:11	18.9	86.5
185724	2026-08-25T17:35:11	18.9	86.5
185725	2026-08-25T17:45:11	18.9	86.5
185726	2026-08-25T17:55:11	18.7	87
185727	2026-08-25T18:05:11	18.5	87.5
185728	2026-08-25T18:15:11	18.5	88.5
185729	2026-08-25T18:25:11	18.2	88.5
185730	2026-08-25T18:35:11	18.1	88.5
185731	2026-08-25T18:45:11	18	88.5
185732	2026-08-25T18:55:11	17.8	89
185733	2026-08-25T19:05:11	17.7	89
185734	2026-08-25T19:15:11	17.5	89.5
185735	2026-08-25T19:25:11	17.4	90
185736	2026-08-25T19:35:11	17.4	90
185737	2026-08-25T19:45:11	17.5	90
185738	2026-08-25T19:55:11	17.5	89.5
185739	2026-08-25T20:05:11	17.6	90
185740	2026-08-25T20:15:11	17.5	90.5
185741	2026-08-25T20:25:11	17.4	91.5
185742	2026-08-25T20:35:11	17.3	92
185743	2026-08-25T20:45:11	17.1	92
185744	2026-08-25T20:55:11	17.1	92.5
185745	2026-08-25T21:05:11	16.9	92.5
185746	2026-08-25T21:15:11	16.9	92.5
185747	2026-08-25T21:25:11	16.6	92.5
185748	2026-08-25T21:35:11	16.6	92.5
185749	2026-08-25T21:45:11	16.3	93
185750	2026-08-25T21:55:11	16.2	93.5
185751	2026-08-25T22:05:11	16.1	93.5
185752	2026-08-25T22:15:11	15.9	94
185753	2026-08-25T22:25:11	15.7	93.5
185754	2026-08-25T22:35:11	15.6	93.5
185755	2026-08-25T22:45:11	15.5	94
185756	2026-08-25T22:55:11	15.4	94
185757	2026-08-25T23:05:11	15.4	93.5
185758	2026-08-25T23:15:11	15.3	93
185759	2026-08-25T23:25:11	15.2	94
185760	2026-08-25T23:35:11	15.1	93
185761	2026-08-25T23:45:11	15	93.5
185762	2026-08-25T23:55:11	14.9	93.5
185763	2026-08-26T00:05:11	14.8	94
185764	2026-08-26T00:15:11	14.7	93.5
185765	2026-08-26T00:25:11	14.6	93.5
185766	2026-08-26T00:35:11	14.5	93.5
185767	2026-08-26T00:45:11	14.4	93.5
185768	2026-08-26T00:55:11	14.4	93.5
185769	2026-08-26T01:05:11	14.3	93.5
185770	2026-08-26T01:15:11	14.2	94
185771	2026-08-26T01:25:11	14.3	93.5
185772	2026-08-26T01:35:11	14.2	93.5
185773	2026-08-26T01:45:11	14.1	93.5
185774	2026-08-26T01:55:11	14.4	93
185775	2026-08-26T02:05:11	14.7	92.5
185776	2026-08-26T02:15:11	14.7	92.5
185777	2026-08-26T02:25:11	14.8	92
185778	2026-08-26T02:35:10	14.7	92.5
185779	2026-08-26T02:45:10	14.8	92.5
185780	2026-08-26T02:55:10	14.6	93
185781	2026-08-26T03:05:10	14.8	93
185782	2026-08-26T03:15:10	14.8	93.5
185783	2026-08-26T03:25:28	14.8	93.5
185784	2026-08-26T03:35:10	14.9	94
185785	2026-08-26T03:45:10	14.8	95
185786	2026-08-26T03:55:10	14.9	95.5
185787	2026-08-26T04:05:10	14.9	95.5
185788	2026-08-26T04:15:10	15.1	95
185789	2026-08-26T04:25:10	15.1	95
185790	2026-08-26T04:35:10	15	96
185791	2026-08-26T04:45:10	15.1	96
185792	2026-08-26T04:55:10	15.1	96.5
185793	2026-08-26T05:05:10	15.3	96.5
185794	2026-08-26T05:15:10	15.5	97
185795	2026-08-26T05:25:10	15.5	97.5
185796	2026-08-26T05:35:10	15.5	97.5
185797	2026-08-26T05:45:10	15.7	97.5
185798	2026-08-26T05:55:10	15.8	97
185799	2026-08-26T06:05:10	15.8	97.5
185800	2026-08-26T06:15:10	15.9	97
185801	2026-08-26T06:25:10	15.8	97
185802	2026-08-26T06:35:10	16.2	96
185803	2026-08-26T06:45:10	16.6	95.5
185804	2026-08-26T06:55:10	16.7	94
185805	2026-08-26T07:05:10	16.6	94.5
185806	2026-08-26T07:15:10	17.2	93
185807	2026-08-26T07:25:10	17.5	92
185808	2026-08-26T07:35:10	17.7	92
185809	2026-08-26T07:45:10	17.9	90.5
185810	2026-08-26T07:55:10	18.3	89
185811	2026-08-26T08:05:10	18.6	89
185812	2026-08-26T08:15:10	18.7	89
185813	2026-08-26T08:25:10	18.6	88.5
185814	2026-08-26T08:35:10	19.2	86.5
185815	2026-08-26T08:45:10	19.6	86
185816	2026-08-26T08:55:28	20	85
185817	2026-08-26T09:05:10	19.7	86
185818	2026-08-26T09:15:10	19.4	87
185819	2026-08-26T09:25:10	19.4	88
185820	2026-08-26T09:35:10	19.5	88.5
185821	2026-08-26T09:45:10	19.6	88.5
185822	2026-08-26T09:55:10	19.7	88.5
185823	2026-08-26T10:05:10	19.8	88
185824	2026-08-26T10:15:10	20.1	87.5
185825	2026-08-26T10:25:10	20.4	87
185826	2026-08-26T10:35:10	20.7	86
185827	2026-08-26T10:45:10	21	85
185828	2026-08-26T10:55:10	21.3	83.5
185829	2026-08-26T11:05:10	21.6	82
185830	2026-08-26T11:15:10	21.9	81.5
185831	2026-08-26T11:25:10	22.3	80
185832	2026-08-26T11:35:10	22.7	78
185833	2026-08-26T11:45:10	23.2	77
185834	2026-08-26T11:55:10	24	75
185835	2026-08-26T12:05:10	24.8	70.5
185836	2026-08-26T12:15:10	26.6	66
185837	2026-08-26T12:25:10	29	59.5
185838	2026-08-26T12:35:10	30.4	54.5
185839	2026-08-26T12:45:10	32.4	50
185840	2026-08-26T12:55:10	34.1	45.5
185841	2026-08-26T13:05:10	34.9	44.5
185842	2026-08-26T13:15:10	36.1	41.5
185843	2026-08-26T13:25:10	36.3	40.5
185844	2026-08-26T13:35:09	36.7	41.5
185845	2026-08-26T13:45:09	38.8	37
185846	2026-08-26T13:55:09	38.4	37
185847	2026-08-26T14:05:09	39.1	37
185848	2026-08-26T14:15:09	39.9	35.5
185849	2026-08-26T14:25:09	40.5	35
185850	2026-08-26T14:35:09	41.7	33.5
185851	2026-08-26T14:45:09	41	34
185852	2026-08-26T14:55:09	41.6	33.5
185853	2026-08-26T15:05:09	40.9	35
185854	2026-08-26T15:15:09	40.2	35
185855	2026-08-26T15:25:09	41.8	35.5
185856	2026-08-26T15:35:09	42.1	35
185857	2026-08-26T15:45:09	42.3	34.5
185858	2026-08-26T15:55:09	40.7	35
185859	2026-08-26T16:05:09	40	35.5
185860	2026-08-26T16:15:09	37.8	39
185861	2026-08-26T16:25:09	37.3	40
185862	2026-08-26T16:35:09	36.5	42
185863	2026-08-26T16:45:09	35.5	42.5
185864	2026-08-26T16:55:09	35	44
185865	2026-08-26T17:05:09	34.2	45
185866	2026-08-26T17:15:09	33.7	45
185867	2026-08-26T17:25:09	33.1	47
185868	2026-08-26T17:35:09	32.4	49
185869	2026-08-26T17:45:09	32.1	50.5
185870	2026-08-26T17:55:09	31.4	52
185871	2026-08-26T18:05:09	30.6	54
185872	2026-08-26T18:15:09	30.3	55.5
185873	2026-08-26T18:25:09	29.7	56.5
185874	2026-08-26T18:35:09	29.2	57
185875	2026-08-26T18:45:09	28.9	58.5
185876	2026-08-26T18:55:09	28.6	59.5
185877	2026-08-26T19:15:09	27.8	60.5
185878	2026-08-26T19:25:09	27.5	61.5
185879	2026-08-26T19:35:09	26.7	63.5
185880	2026-08-26T19:45:09	26.3	64.5
185881	2026-08-26T19:55:09	25.9	65.5
185882	2026-08-26T20:05:09	25.9	65
185883	2026-08-26T20:15:27	25.8	66
185884	2026-08-26T20:35:09	25.4	68
185885	2026-08-26T20:45:09	25.1	68.5
185886	2026-08-26T20:55:09	24.6	69.5
185887	2026-08-26T21:05:09	24.3	70.5
185888	2026-08-26T21:15:09	24.2	71
185889	2026-08-26T21:25:09	23.9	72
185890	2026-08-26T21:35:09	23.9	72
185891	2026-08-26T21:45:09	23.7	72.5
185892	2026-08-26T21:55:09	23.5	73
185893	2026-08-26T22:05:09	23.2	74
185894	2026-08-26T22:15:09	23	73.5
185895	2026-08-26T22:25:09	22.7	73.5
185896	2026-08-26T22:35:09	22.8	73.5
185897	2026-08-26T22:45:09	22.6	74
185898	2026-08-26T22:55:09	22.4	74
185899	2026-08-26T23:05:09	22.4	74.5
185900	2026-08-26T23:15:09	22.2	74.5
185901	2026-08-26T23:25:09	22	75.5
185902	2026-08-26T23:35:09	21.6	76.5
185903	2026-08-26T23:45:09	21.6	77
185904	2026-08-26T23:55:09	21.3	78
185905	2026-08-27T00:05:08	21	79
185906	2026-08-27T00:15:08	20.9	78.5
185907	2026-08-27T00:25:08	21.1	78
185908	2026-08-27T00:35:08	21.1	78
185909	2026-08-27T00:45:08	21.1	78
185910	2026-08-27T00:55:08	20.8	79
185911	2026-08-27T01:05:08	20.7	79.5
185912	2026-08-27T01:15:08	20.6	80
185913	2026-08-27T01:25:08	20.4	80.5
185914	2026-08-27T01:35:08	20.2	81
185915	2026-08-27T01:45:08	20	81
185916	2026-08-27T01:55:08	19.9	81.5
185917	2026-08-27T02:05:08	19.7	82.5
185918	2026-08-27T02:15:08	19.7	82.5
185919	2026-08-27T02:25:08	19.6	83
185920	2026-08-27T02:35:08	19.5	83
185921	2026-08-27T02:45:08	19.6	83.5
185922	2026-08-27T02:55:08	19.4	84
185923	2026-08-27T03:05:08	19.5	83.5
185924	2026-08-27T03:15:08	19.3	84
185925	2026-08-27T03:25:08	19.1	84.5
185926	2026-08-27T03:35:08	19.1	85
185927	2026-08-27T03:45:08	19.1	85.5
185928	2026-08-27T03:55:08	19.1	85.5
185929	2026-08-27T04:05:08	19.1	85.5
185930	2026-08-27T04:15:08	19	86
185931	2026-08-27T04:25:08	18.7	86.5
185932	2026-08-27T04:35:08	18.4	87
185933	2026-08-27T04:45:08	18.5	87
185934	2026-08-27T04:55:08	18.4	87.5
185935	2026-08-27T05:05:08	18.3	87.5
185936	2026-08-27T05:15:08	18.4	88.5
185937	2026-08-27T05:25:08	18.5	88.5
185938	2026-08-27T05:35:08	18.7	88.5
185939	2026-08-27T05:45:08	18.7	88.5
185940	2026-08-27T05:55:08	18.6	89
185941	2026-08-27T06:05:08	18.9	88.5
185942	2026-08-27T06:15:08	19.2	88
185943	2026-08-27T06:25:08	19.4	87
185944	2026-08-27T06:35:08	19.8	86
185945	2026-08-27T06:45:08	20	84.5
185946	2026-08-27T06:55:08	20.2	84.5
185947	2026-08-27T07:05:08	20.4	84
185948	2026-08-27T07:15:08	20.7	84.5
185949	2026-08-27T07:25:08	20.8	84.5
185950	2026-08-27T07:35:08	20.9	83
185951	2026-08-27T07:45:08	21.1	83
185952	2026-08-27T07:55:08	21.5	81.5
185953	2026-08-27T08:05:08	21.8	81
185954	2026-08-27T08:15:08	22	81
185955	2026-08-27T08:25:08	22.3	80.5
185956	2026-08-27T08:35:08	22.4	80
185957	2026-08-27T08:45:08	22.6	80
185958	2026-08-27T08:55:08	22.7	79
185959	2026-08-27T09:05:08	22.9	77.5
185960	2026-08-27T09:15:08	23.2	77.5
185961	2026-08-27T09:25:08	23.7	77
185962	2026-08-27T09:35:08	24.1	75.5
185963	2026-08-27T09:45:08	24.6	75
185964	2026-08-27T09:55:08	24.9	74
185965	2026-08-27T10:05:08	25.3	71
185966	2026-08-27T10:15:08	25.5	70
185967	2026-08-27T10:25:08	26.1	69
185968	2026-08-27T10:35:07	26.7	68.5
185969	2026-08-27T10:45:07	27.1	66.5
185970	2026-08-27T10:55:07	27.4	64
185971	2026-08-27T11:05:07	27.8	61.5
185972	2026-08-27T11:15:07	28.4	62
185973	2026-08-27T11:25:07	28.9	59
185974	2026-08-27T11:35:07	29.1	56.5
185975	2026-08-27T11:45:07	29.2	55.5
185976	2026-08-27T11:55:07	30.1	51
185977	2026-08-27T12:05:07	30.7	48.5
185978	2026-08-27T12:15:07	32.1	46.5
185979	2026-08-27T12:25:07	33.3	42
185980	2026-08-27T12:35:07	34.5	40
185981	2026-08-27T12:45:07	34.4	40
185982	2026-08-27T12:55:07	34.3	40.5
185983	2026-08-27T13:05:07	35.3	37.5
185984	2026-08-27T13:15:07	37	35.5
185985	2026-08-27T13:25:07	37.7	35
185986	2026-08-27T13:35:07	37.7	35
185987	2026-08-27T13:45:07	37	36.5
185988	2026-08-27T13:55:07	36.7	37
185989	2026-08-27T14:05:07	35.3	38.5
185990	2026-08-27T14:15:07	35.3	39.5
185991	2026-08-27T14:25:07	35.4	38
185992	2026-08-27T14:35:07	34.4	40.5
185993	2026-08-27T14:45:07	34.1	41
185994	2026-08-27T14:55:07	34.2	40.5
185995	2026-08-27T15:05:07	34	40.5
185996	2026-08-27T15:15:07	34.2	41
185997	2026-08-27T15:25:07	33.7	41.5
185998	2026-08-27T15:35:07	33.4	41.5
185999	2026-08-27T15:45:07	33.6	42
186000	2026-08-27T15:55:07	34.7	39.5
186001	2026-08-27T16:05:07	35	39.5
186002	2026-08-27T16:15:07	34.3	40
186003	2026-08-27T16:25:07	33.8	43
186004	2026-08-27T16:35:07	34.3	47
186005	2026-08-27T16:45:07	33.6	49
186006	2026-08-27T16:55:07	33	49.5
186007	2026-08-27T17:05:07	32.3	50.5
186008	2026-08-27T17:15:07	32.1	52.5
186009	2026-08-27T17:25:07	31.5	53
186010	2026-08-27T17:35:07	31.1	53
186011	2026-08-27T17:45:07	30.9	53
186012	2026-08-27T17:55:07	30.4	54.5
186013	2026-08-27T18:15:07	29.9	56
186014	2026-08-27T18:25:07	29.5	58
186015	2026-08-27T18:35:07	29.2	57
186016	2026-08-27T18:45:07	28.9	59.5
186017	2026-08-27T18:55:07	28.3	59.5
186018	2026-08-27T19:05:07	27.9	60.5
186019	2026-08-27T19:15:07	28	60.5
186020	2026-08-27T19:25:07	27.8	62.5
186021	2026-08-27T19:35:07	27.6	62.5
186022	2026-08-27T19:45:07	27.3	63.5
186023	2026-08-27T19:55:07	27.1	63.5
186024	2026-08-27T20:05:07	26.8	64.5
186025	2026-08-27T20:15:07	26.6	65.5
186026	2026-08-27T20:25:06	26.6	65
186027	2026-08-27T20:35:06	26.4	66
186028	2026-08-27T20:45:06	26.3	66.5
186029	2026-08-27T20:55:06	26.2	67
186030	2026-08-27T21:05:06	25.8	67.5
186031	2026-08-27T21:15:06	25.6	67
186032	2026-08-27T21:25:06	25.5	68
186033	2026-08-27T21:35:06	25.2	69
186034	2026-08-27T21:45:06	25.1	69.5
186035	2026-08-27T21:55:06	25.2	70
186036	2026-08-27T22:05:06	25.1	70.5
186037	2026-08-27T22:15:06	25	71
186038	2026-08-27T22:25:06	24.7	71
186039	2026-08-27T22:35:06	24.7	71.5
186040	2026-08-27T22:45:06	24.5	72
186041	2026-08-27T22:55:06	24.1	77
186042	2026-08-27T23:05:06	24.4	72
186043	2026-08-27T23:15:06	21.9	97.5
186044	2026-08-27T23:25:06	21.8	100
186045	2026-08-27T23:35:06	22	100
186046	2026-08-27T23:45:06	22	96
186047	2026-08-27T23:55:06	22.2	86.5
186048	2026-08-28T00:05:06	22.1	88.5
186049	2026-08-28T00:15:06	22.1	86.5
186050	2026-08-28T00:25:06	22.1	91
186051	2026-08-28T00:35:06	22.1	90
186052	2026-08-28T00:45:06	22	94
186053	2026-08-28T00:55:06	21.9	92.5
186054	2026-08-28T01:05:06	21.9	92
186055	2026-08-28T01:15:06	21.8	92.5
186056	2026-08-28T01:25:06	21.8	91
186057	2026-08-28T01:35:06	21.6	93.5
186058	2026-08-28T01:45:06	21.6	94
186059	2026-08-28T01:55:06	21.6	94
186060	2026-08-28T02:05:06	21.6	92.5
186061	2026-08-28T02:15:06	21.5	91
186062	2026-08-28T02:25:06	21.4	89.5
186063	2026-08-28T02:35:06	21.4	89.5
186064	2026-08-28T02:45:06	21.5	89.5
186065	2026-08-28T02:55:23	21.3	94.5
186066	2026-08-28T03:05:06	20.9	96.5
186067	2026-08-28T03:15:06	21	96.5
186068	2026-08-28T03:25:06	20.9	96
186069	2026-08-28T03:35:06	21	97
186070	2026-08-28T03:45:06	20.5	100
186071	2026-08-28T03:55:06	20.6	100
186072	2026-08-28T04:05:06	20.5	100
186073	2026-08-28T04:15:06	20.4	100
186074	2026-08-28T04:25:06	20.5	100
186075	2026-08-28T04:35:06	20.4	100
186076	2026-08-28T04:45:06	20.4	100
186077	2026-08-28T04:55:06	20.2	100
186078	2026-08-28T05:05:06	20.3	100
186079	2026-08-28T05:15:06	20.4	100
186080	2026-08-28T05:25:06	20.3	100
186081	2026-08-28T05:35:06	20.4	100
186082	2026-08-28T05:45:06	20.5	100
186083	2026-08-28T05:55:06	20.6	100
186084	2026-08-28T06:05:06	20.8	100
186085	2026-08-28T06:15:06	20.9	100
186086	2026-08-28T06:25:05	21	100
186087	2026-08-28T06:35:05	21.1	100
186088	2026-08-28T06:45:05	21.2	100
186089	2026-08-28T06:55:05	21.6	100
186090	2026-08-28T07:05:05	21.7	100
186091	2026-08-28T07:15:05	21.8	100
186092	2026-08-28T07:25:05	22.1	100
186093	2026-08-28T07:35:05	22.1	100
186094	2026-08-28T07:45:05	22	100
186095	2026-08-28T07:55:05	21.7	100
186096	2026-08-28T08:05:05	21.7	100
186097	2026-08-28T08:15:05	21.4	100
186098	2026-08-28T08:25:05	21.3	100
186099	2026-08-28T08:35:05	21.2	100
186100	2026-08-28T08:45:05	21.1	100
186101	2026-08-28T08:55:05	21.3	100
186102	2026-08-28T09:05:05	21.5	100
186103	2026-08-28T09:15:05	21.6	100
186104	2026-08-28T09:25:05	21.9	100
186105	2026-08-28T09:35:05	22.5	100
186106	2026-08-28T09:45:05	22.8	98.5
186107	2026-08-28T09:55:05	23.1	98
186108	2026-08-28T10:05:05	23.3	95
186109	2026-08-28T10:15:05	23.2	94
186110	2026-08-28T10:25:05	23.4	94.5
186111	2026-08-28T10:35:05	23.5	93
186112	2026-08-28T10:45:05	23.9	91
186113	2026-08-28T10:55:05	24	89.5
186114	2026-08-28T11:05:05	24.3	85.5
186115	2026-08-28T11:15:05	24.6	86
186116	2026-08-28T11:25:05	24.6	85
186117	2026-08-28T11:35:05	24.7	84.5
186118	2026-08-28T11:45:05	24.7	82.5
186119	2026-08-28T11:55:05	24.4	85
186120	2026-08-28T12:05:05	23.8	83
186121	2026-08-28T12:15:05	24	80.5
186122	2026-08-28T12:25:05	24.5	79.5
186123	2026-08-28T12:35:05	25.5	77.5
186124	2026-08-28T12:45:05	26.8	73
186125	2026-08-28T12:55:05	27.8	71.5
186126	2026-08-28T13:05:05	27.9	69.5
186127	2026-08-28T13:15:05	28.1	68.5
186128	2026-08-28T13:25:05	27.3	70
186129	2026-08-28T13:35:05	28.6	67
186130	2026-08-28T13:45:05	27.6	68.5
186131	2026-08-28T13:55:05	27.6	68.5
186132	2026-08-28T14:05:05	27.2	68.5
186133	2026-08-28T14:15:05	26.6	69
186134	2026-08-28T14:25:05	26.8	68.5
186135	2026-08-28T14:35:05	28.3	60.5
186136	2026-08-28T14:45:05	28.6	57.5
186137	2026-08-28T14:55:05	27.6	59
186138	2026-08-28T15:05:05	27.9	58
186139	2026-08-28T15:15:05	27.2	61.5
186140	2026-08-28T15:25:05	27	61.5
186141	2026-08-28T15:35:05	27.7	59
186142	2026-08-28T15:45:05	27.7	55.5
186143	2026-08-28T15:55:05	27.9	47
186144	2026-08-28T16:05:04	28.4	46
186145	2026-08-28T16:15:04	28.3	47
186146	2026-08-28T16:25:04	28.9	47.5
186147	2026-08-28T16:35:04	27.5	54
186148	2026-08-28T16:45:04	27.5	52.5
186149	2026-08-28T16:55:04	26.9	53
186150	2026-08-28T17:05:04	26.6	53.5
186151	2026-08-28T17:15:04	26.1	55
186152	2026-08-28T17:25:04	25.8	56
186153	2026-08-28T17:35:04	24.8	58
186154	2026-08-28T17:45:04	24.4	60.5
186155	2026-08-28T17:55:04	24	61.5
186156	2026-08-28T18:05:04	23.7	62.5
186157	2026-08-28T18:15:04	23.6	63
186158	2026-08-28T18:25:04	23.5	63.5
186159	2026-08-28T18:35:04	23.3	66.5
186160	2026-08-28T18:45:04	23.1	66.5
186161	2026-08-28T18:55:04	22.7	69
186162	2026-08-28T19:05:04	22.4	72
186163	2026-08-28T19:15:04	22.2	75
186164	2026-08-28T19:25:04	21.7	77
186165	2026-08-28T19:35:04	21.6	76.5
186166	2026-08-28T19:45:04	21.4	76
186167	2026-08-28T19:55:04	21.2	77
186168	2026-08-28T20:05:04	20.9	77
186169	2026-08-28T20:15:04	21	78.5
186170	2026-08-28T20:25:04	21	78.5
186171	2026-08-28T20:35:04	21.1	79
186172	2026-08-28T20:45:04	21.1	79.5
186173	2026-08-28T20:55:04	21	79
186174	2026-08-28T21:05:04	20.8	78.5
186175	2026-08-28T21:15:04	20.6	77.5
186176	2026-08-28T21:25:04	20.5	75
186177	2026-08-28T21:35:04	20.5	73.5
186178	2026-08-28T21:45:04	20.5	74.5
186179	2026-08-28T21:55:04	20.4	76.5
186180	2026-08-28T22:05:04	20.2	77.5
186181	2026-08-28T22:15:04	20.1	78.5
186182	2026-08-28T22:25:04	20.1	79
186183	2026-08-28T22:35:04	19.9	78.5
186184	2026-08-28T22:45:04	19.8	78.5
186185	2026-08-28T22:55:04	19.7	79.5
186186	2026-08-28T23:05:04	19.6	79
186187	2026-08-28T23:15:04	19.6	79.5
186188	2026-08-28T23:25:04	19.6	80.5
186189	2026-08-28T23:35:23	19.4	81.5
186190	2026-08-28T23:45:04	19	83
186191	2026-08-28T23:55:04	19	82
186192	2026-08-29T00:05:04	18.8	83
186193	2026-08-29T00:15:04	18.3	84
186194	2026-08-29T00:25:04	18.2	85
186195	2026-08-29T00:35:04	18	85.5
186196	2026-08-29T00:45:04	18	85.5
186197	2026-08-29T00:55:04	17.7	85.5
186198	2026-08-29T01:05:04	17.6	85.5
186199	2026-08-29T01:15:04	17.8	84.5
186200	2026-08-29T01:25:04	17.7	84.5
186201	2026-08-29T01:35:04	17.8	84.5
186202	2026-08-29T01:45:04	17.5	85
186203	2026-08-29T01:55:04	17.2	85.5
186204	2026-08-29T02:05:04	17.1	85.5
186205	2026-08-29T02:15:04	16.9	86
186206	2026-08-29T02:25:03	16.9	86.5
186207	2026-08-29T02:35:03	16.8	86.5
186208	2026-08-29T02:45:03	16.5	86
186209	2026-08-29T02:55:03	16.6	86
186210	2026-08-29T03:05:03	16.4	86
186211	2026-08-29T03:25:03	15.9	87.5
186212	2026-08-29T03:35:03	15.9	88
186213	2026-08-29T03:45:03	15.8	88
186214	2026-08-29T03:55:03	15.9	87.5
186215	2026-08-29T04:05:03	15.8	87
186216	2026-08-29T04:15:03	15.7	88.5
186217	2026-08-29T04:25:03	15.5	88.5
186218	2026-08-29T04:35:03	15.3	89
186219	2026-08-29T04:45:03	15.2	90
186220	2026-08-29T04:55:03	15.4	90
186221	2026-08-29T05:05:03	15.6	89.5
186222	2026-08-29T05:15:03	15.4	89.5
186223	2026-08-29T05:25:03	15.4	90
186224	2026-08-29T05:35:03	15.5	90
186225	2026-08-29T05:45:03	15.6	90.5
186226	2026-08-29T05:55:03	15.7	90.5
186227	2026-08-29T06:05:03	15.9	90.5
186228	2026-08-29T06:15:03	16.2	89
186229	2026-08-29T06:25:03	16.4	88
186230	2026-08-29T06:35:03	16.7	87.5
186231	2026-08-29T06:45:03	17	86.5
186232	2026-08-29T06:55:03	17.3	86
186233	2026-08-29T07:05:03	17.7	83.5
186234	2026-08-29T07:15:03	18.2	83.5
186235	2026-08-29T07:25:03	18	84
186236	2026-08-29T07:35:03	18	82.5
186237	2026-08-29T07:45:03	18.4	81
186238	2026-08-29T07:55:03	18.9	78.5
186239	2026-08-29T08:05:03	19.2	78
186240	2026-08-29T08:15:03	19.4	77.5
186241	2026-08-29T08:25:03	19.8	76
186242	2026-08-29T08:35:03	20.2	74.5
186243	2026-08-29T08:45:03	20.6	73.5
186244	2026-08-29T08:55:03	21.1	71
186245	2026-08-29T09:05:03	21.2	70
186246	2026-08-29T09:15:03	21.5	68.5
186247	2026-08-29T09:25:03	21.8	67
186248	2026-08-29T09:35:03	22	66.5
186249	2026-08-29T09:45:03	22.4	66
186250	2026-08-29T09:55:03	22.8	63.5
186251	2026-08-29T10:05:03	23.1	61.5
186252	2026-08-29T10:15:03	23	61.5
186253	2026-08-29T10:25:03	23.2	60.5
186254	2026-08-29T10:35:03	23.4	60.5
186255	2026-08-29T10:45:03	24	58
186256	2026-08-29T10:55:03	23.9	57.5
186257	2026-08-29T11:05:03	24.4	56
186258	2026-08-29T11:15:03	24.6	56
186259	2026-08-29T11:25:03	25	54.5
186260	2026-08-29T11:35:03	25.3	54.5
186261	2026-08-29T11:45:03	25.6	53.5
186262	2026-08-29T11:55:03	25.8	52.5
186263	2026-08-29T12:05:03	26.1	51
186264	2026-08-29T12:15:03	27.1	47.5
186265	2026-08-29T12:25:03	28.9	44.5
186266	2026-08-29T12:35:03	27.3	47.5
186267	2026-08-29T12:45:03	26.5	49
186268	2026-08-29T12:55:03	26.3	50
186269	2026-08-29T13:05:02	26.2	50.5
186270	2026-08-29T13:15:02	26.7	50
186271	2026-08-29T13:25:22	27.5	48
186272	2026-08-29T13:35:02	27.7	48
186273	2026-08-29T13:45:02	29.1	46
186274	2026-08-29T13:55:02	28.2	47
186275	2026-08-29T14:05:02	27.3	49.5
186276	2026-08-29T14:15:02	26.6	49.5
186277	2026-08-29T14:25:02	26.4	50
186278	2026-08-29T14:35:02	26.3	50.5
186279	2026-08-29T14:45:02	26.6	50
186280	2026-08-29T14:55:02	26.7	49
186281	2026-08-29T15:05:02	26.8	49
186282	2026-08-29T15:15:02	27.2	48.5
186283	2026-08-29T15:25:02	28.3	47
186284	2026-08-29T15:35:02	27.4	47
186285	2026-08-29T15:45:02	26.8	47.5
186286	2026-08-29T15:55:02	26.9	47
186287	2026-08-29T16:05:02	26.8	46.5
186288	2026-08-29T16:15:02	26.7	47.5
186289	2026-08-29T16:25:02	26.2	49
186290	2026-08-29T16:35:02	26	48.5
186291	2026-08-29T16:45:02	26	49
186292	2026-08-29T16:55:02	26.2	49
186293	2026-08-29T17:05:02	26.1	48.5
186294	2026-08-29T17:15:02	25.8	49
186295	2026-08-29T17:25:02	25.7	49.5
186296	2026-08-29T17:35:02	25.5	50.5
186297	2026-08-29T17:45:02	25	52
186298	2026-08-29T17:55:02	24.6	52.5
186299	2026-08-29T18:15:02	24	55
186300	2026-08-29T18:25:02	23.8	57
186301	2026-08-29T18:35:02	23.5	58.5
186302	2026-08-29T18:45:02	23.1	60
186303	2026-08-29T18:55:02	22.8	61.5
186304	2026-08-29T19:05:02	22.7	61
186305	2026-08-29T19:15:02	22.8	60.5
186306	2026-08-29T19:25:02	22.9	60.5
186307	2026-08-29T19:35:02	22.7	60
186308	2026-08-29T19:45:02	22.6	62
186309	2026-08-29T19:55:02	22.5	64
186310	2026-08-29T20:05:02	22.5	65
186311	2026-08-29T20:15:02	22.4	61.5
186312	2026-08-29T20:25:02	22.6	66.5
186313	2026-08-29T20:35:02	22	69
186314	2026-08-29T20:45:02	22	72
186315	2026-08-29T20:55:02	21.9	73
186316	2026-08-29T21:05:02	21.7	69.5
186317	2026-08-29T21:15:02	21.8	68.5
186318	2026-08-29T21:25:02	21.9	67.5
186319	2026-08-29T21:35:02	21.7	67.5
186320	2026-08-29T21:45:02	21.6	65
186321	2026-08-29T21:55:02	21.7	64
186322	2026-08-29T22:05:02	21.8	66
186323	2026-08-29T22:15:02	21.6	66.5
186324	2026-08-29T22:25:02	21.3	67.5
186325	2026-08-29T22:35:02	21.2	68
186326	2026-08-29T22:45:02	21.2	68
186327	2026-08-29T22:55:02	21.2	68.5
186328	2026-08-29T23:05:01	21.4	68.5
186329	2026-08-29T23:15:01	21.3	68.5
186330	2026-08-29T23:25:01	21.3	68.5
186331	2026-08-29T23:35:01	21.3	68.5
186332	2026-08-29T23:45:01	21.4	69.5
186333	2026-08-29T23:55:01	21.2	70
186334	2026-08-30T00:05:01	21.2	70
186335	2026-08-30T00:15:01	21.2	72
186336	2026-08-30T00:25:01	21	74.5
186337	2026-08-30T00:35:01	21	76.5
186338	2026-08-30T00:45:01	20.9	76
186339	2026-08-30T00:55:01	20.8	74
186340	2026-08-30T01:05:01	20.8	73.5
186341	2026-08-30T01:15:01	20.8	73.5
186342	2026-08-30T01:25:01	20.9	74
186343	2026-08-30T01:35:01	20.8	74
186344	2026-08-30T01:45:01	21	73.5
186345	2026-08-30T01:55:01	20.8	74
186346	2026-08-30T02:05:01	20.8	74.5
186347	2026-08-30T02:15:01	21	74.5
186348	2026-08-30T02:25:01	21	74
186349	2026-08-30T02:35:01	20.8	74.5
186350	2026-08-30T02:45:01	20.6	75.5
186351	2026-08-30T02:55:01	20.3	76
186352	2026-08-30T03:05:01	20.1	76.5
186353	2026-08-30T03:15:01	20	77
186354	2026-08-30T03:25:01	19.7	78
186355	2026-08-30T03:35:01	19.5	78
186356	2026-08-30T03:45:01	19.5	78.5
186357	2026-08-30T03:55:01	19.2	79
186358	2026-08-30T04:05:01	19.2	79
186359	2026-08-30T04:15:01	18.9	80
186360	2026-08-30T04:25:01	18.9	80
186361	2026-08-30T04:35:01	19	79.5
186362	2026-08-30T04:45:01	19.3	79
186363	2026-08-30T04:55:01	19.5	78.5
186364	2026-08-30T05:05:01	19.7	77.5
186365	2026-08-30T05:15:01	19.7	78
186366	2026-08-30T05:25:01	19.8	78
186367	2026-08-30T05:35:01	20.2	77.5
186368	2026-08-30T05:45:01	20.3	77
186369	2026-08-30T05:55:01	20.3	77
186370	2026-08-30T06:05:01	20.5	77
186371	2026-08-30T06:15:01	20.9	75.5
186372	2026-08-30T06:25:01	21.1	75.5
186373	2026-08-30T06:35:01	21.2	79
186374	2026-08-30T06:45:01	21.3	75.5
186375	2026-08-30T06:55:01	21.1	76.5
186376	2026-08-30T07:05:01	21.2	76.5
186377	2026-08-30T07:15:01	21.3	76.5
186378	2026-08-30T07:25:01	21.4	76
186379	2026-08-30T07:35:01	21.7	75.5
186380	2026-08-30T07:45:01	21.7	75.5
186381	2026-08-30T07:55:01	21.7	76
186382	2026-08-30T08:05:01	21.7	76
186383	2026-08-30T08:15:01	22	75
186384	2026-08-30T08:25:01	22.1	75.5
186385	2026-08-30T08:35:01	22.2	75.5
186386	2026-08-30T08:45:01	22.4	74.5
186387	2026-08-30T08:55:01	22.5	74.5
186388	2026-08-30T09:05:01	22.7	73.5
186389	2026-08-30T09:15:00	23	73
186390	2026-08-30T09:25:00	23.2	73
186391	2026-08-30T09:35:00	23.7	71
186392	2026-08-30T09:45:00	23.9	69
186393	2026-08-30T09:55:00	23.8	68
186394	2026-08-30T10:05:00	24.1	68
186395	2026-08-30T10:25:00	24.7	67
186396	2026-08-30T10:35:00	24.9	66
186397	2026-08-30T10:45:00	25.4	64.5
186398	2026-08-30T10:55:00	24.9	65.5
186399	2026-08-30T11:05:00	25.3	65
186400	2026-08-30T11:15:00	25.3	64.5
186401	2026-08-30T11:25:00	25.6	63
186402	2026-08-30T11:35:00	25.7	63.5
186403	2026-08-30T11:45:00	25.3	64
186404	2026-08-30T11:55:00	25.8	63.5
186405	2026-08-30T12:05:00	25.9	63
186406	2026-08-30T12:15:00	26.8	61.5
186407	2026-08-30T12:25:00	27	60.5
186408	2026-08-30T12:35:00	26.9	60
186409	2026-08-30T12:45:00	27.1	59
186410	2026-08-30T12:55:00	27.9	58
186411	2026-08-30T13:05:00	28.1	56
186412	2026-08-30T13:15:00	29	54.5
186413	2026-08-30T13:25:00	30.4	52
186414	2026-08-30T13:35:00	30.4	51.5
186415	2026-08-30T13:45:00	29.2	54
186416	2026-08-30T13:55:00	29.6	53.5
186417	2026-08-30T14:05:00	29.8	53
186418	2026-08-30T14:15:00	29.7	52.5
186419	2026-08-30T14:25:00	30.3	51.5
186420	2026-08-30T14:35:00	30.1	51.5
186421	2026-08-30T14:45:00	31.5	48.5
186422	2026-08-30T14:55:00	30.9	49.5
186423	2026-08-30T15:05:00	30.5	51
186424	2026-08-30T15:15:00	30.7	50
186425	2026-08-30T15:25:00	31.4	50
186426	2026-08-30T15:35:00	32.2	48
186427	2026-08-30T15:45:00	32.1	47.5
186428	2026-08-30T15:55:00	31.3	48.5
186429	2026-08-30T16:05:00	30	47
186430	2026-08-30T16:15:00	31.1	44
186431	2026-08-30T16:25:00	29.5	47
186432	2026-08-30T16:35:00	29.1	48
186433	2026-08-30T16:45:00	28.9	48
186434	2026-08-30T16:55:00	29	48
186435	2026-08-30T17:05:00	29.8	47.5
186436	2026-08-30T17:15:00	29	48
186437	2026-08-30T17:25:00	28.3	50.5
186438	2026-08-30T17:35:00	27.8	52.5
186439	2026-08-30T17:45:00	27.7	54
186440	2026-08-30T17:55:00	27.3	56
186441	2026-08-30T18:05:00	26.8	58
186442	2026-08-30T18:15:00	26.5	59.5
186443	2026-08-30T18:25:00	26.1	60
186444	2026-08-30T18:35:00	25.7	60.5
186445	2026-08-30T18:44:59	25.4	61
186446	2026-08-30T18:54:59	25.2	62.5
186447	2026-08-30T19:04:59	24.7	63
186448	2026-08-30T19:14:59	24.4	64.5
186449	2026-08-30T19:24:59	24.1	65
186450	2026-08-30T19:34:59	23.9	64.5
186451	2026-08-30T19:44:59	23.7	66
186452	2026-08-30T19:54:59	23.4	65.5
186453	2026-08-30T20:04:59	23.3	66.5
186454	2026-08-30T20:14:59	23.2	66
186455	2026-08-30T20:24:59	22.8	67.5
186456	2026-08-30T20:34:59	22.8	68
186457	2026-08-30T20:44:59	22.4	69
186458	2026-08-30T20:54:59	22.2	69.5
186459	2026-08-30T21:04:59	22	70
186460	2026-08-30T21:14:59	21.9	71
186461	2026-08-30T21:24:59	21.7	72
186462	2026-08-30T21:34:59	21.8	71.5
186463	2026-08-30T21:44:59	21.8	71.5
186464	2026-08-30T21:54:59	21.6	71.5
186465	2026-08-30T22:04:59	21.8	71.5
186466	2026-08-30T22:14:59	21.6	71.5
186467	2026-08-30T22:24:59	21.7	73
186468	2026-08-30T22:34:59	21.5	72.5
186469	2026-08-30T22:44:59	21.5	72.5
186470	2026-08-30T22:54:59	21.3	73
186471	2026-08-30T23:04:59	21.2	73.5
186472	2026-08-30T23:14:59	21	77
186473	2026-08-30T23:24:59	19.9	86
186474	2026-08-30T23:34:59	19.4	87
186475	2026-08-30T23:44:59	19.5	87.5
186476	2026-08-30T23:54:59	19.3	91
186477	2026-08-31T00:04:59	18.9	92
186478	2026-08-31T00:14:59	18.9	92
186479	2026-08-31T00:24:59	19.1	92
186480	2026-08-31T00:34:59	19	92
186481	2026-08-31T00:44:59	18.9	92.5
186482	2026-08-31T00:54:59	18.8	93
186483	2026-08-31T01:04:59	18.9	92.5
186484	2026-08-31T01:14:59	18.5	99
186485	2026-08-31T01:24:59	18.3	100
186486	2026-08-31T01:34:59	18.1	100
186487	2026-08-31T01:44:59	18.1	100
186488	2026-08-31T01:54:59	18.1	100
186489	2026-08-31T02:04:59	18.1	100
186490	2026-08-31T02:14:59	18.2	100
186491	2026-08-31T02:24:59	18.1	100
186492	2026-08-31T02:34:59	18.1	100
186493	2026-08-31T02:44:59	18.1	100
186494	2026-08-31T02:54:59	18.2	100
186495	2026-08-31T03:04:59	18.1	100
186496	2026-08-31T03:14:59	18.1	100
186497	2026-08-31T03:24:59	18	100
186498	2026-08-31T03:34:59	18.2	100
186499	2026-08-31T03:44:59	18.1	99.5
186500	2026-08-31T03:54:59	18.1	99
186501	2026-08-31T04:04:59	18.1	99
186502	2026-08-31T04:14:59	17.9	99
186503	2026-08-31T04:24:59	18.1	98.5
186504	2026-08-31T04:34:59	18	98.5
186505	2026-08-31T04:44:59	17.7	98.5
186506	2026-08-31T04:54:59	17.6	98
186507	2026-08-31T05:04:59	17.6	97.5
186508	2026-08-31T05:14:59	17.7	97
186509	2026-08-31T05:24:58	17.8	96.5
186510	2026-08-31T05:34:58	17.9	96.5
186511	2026-08-31T05:44:58	17.9	96.5
186512	2026-08-31T05:54:58	17.8	96.5
186513	2026-08-31T06:04:58	17.7	96.5
186514	2026-08-31T06:14:58	17.8	96.5
186515	2026-08-31T06:24:58	17.9	96
186516	2026-08-31T06:34:58	18.3	94.5
186517	2026-08-31T06:44:58	18.4	93.5
186518	2026-08-31T06:54:58	18.5	93.5
186519	2026-08-31T07:04:58	18.8	92
186520	2026-08-31T07:14:58	19.1	91
186521	2026-08-31T07:24:58	19.4	89.5
186522	2026-08-31T07:34:58	19.5	88
186523	2026-08-31T07:44:58	19.7	85.5
186524	2026-08-31T07:54:58	20	82.5
186525	2026-08-31T08:04:58	20.4	79.5
186526	2026-08-31T08:14:58	20.5	76
186527	2026-08-31T08:24:58	20.8	74.5
186528	2026-08-31T08:34:58	20.8	72.5
186529	2026-08-31T08:44:58	21	70
186530	2026-08-31T08:54:58	21.3	69.5
186531	2026-08-31T09:04:58	21.5	70.5
186532	2026-08-31T09:14:58	21.9	68.5
186533	2026-08-31T09:24:58	21.8	67.5
186534	2026-08-31T09:34:58	22	68
186535	2026-08-31T09:44:58	21.5	71.5
186536	2026-08-31T09:54:58	20	75.5
186537	2026-08-31T10:04:58	20.6	73
186538	2026-08-31T10:14:58	21	71.5
186539	2026-08-31T10:24:58	21.6	69
186540	2026-08-31T10:34:58	22.1	65.5
186541	2026-08-31T10:44:58	22.5	65.5
186542	2026-08-31T10:54:58	22.4	63
186543	2026-08-31T11:04:58	22.1	63
186544	2026-08-31T11:14:58	22.4	62.5
186545	2026-08-31T11:24:58	22.6	63
186546	2026-08-31T11:34:58	22.9	61
186547	2026-08-31T11:44:58	23.2	58.5
186548	2026-08-31T11:54:58	23.6	53.5
186549	2026-08-31T12:04:58	24	53
186550	2026-08-31T12:14:58	24.5	53
186551	2026-08-31T12:24:58	24.9	53
186552	2026-08-31T12:34:58	25	53.5
186553	2026-08-31T12:44:58	25.6	52.5
186554	2026-08-31T12:54:58	25.4	52.5
186555	2026-08-31T13:04:58	25	54
186556	2026-08-31T13:14:58	24.8	55.5
186557	2026-08-31T13:24:58	25.4	54.5
186558	2026-08-31T13:34:58	26.7	53.5
186559	2026-08-31T13:44:58	27.6	52.5
186560	2026-08-31T13:54:58	28.5	50.5
186561	2026-08-31T14:04:58	29	49.5
186562	2026-08-31T14:14:58	28.2	50
186563	2026-08-31T14:24:58	26.6	52.5
186564	2026-08-31T14:34:58	24.9	57
186565	2026-08-31T14:44:58	24.5	58.5
186566	2026-08-31T14:54:58	23.9	62
186567	2026-08-31T15:04:58	19.3	100
186568	2026-08-31T15:14:58	19.7	100
186569	2026-08-31T15:24:58	21.7	100
186570	2026-08-31T15:34:58	22.2	100
186571	2026-08-31T15:44:58	20.8	100
186572	2026-08-31T15:54:57	20.3	100
186573	2026-08-31T16:04:57	18.8	100
186574	2026-08-31T16:14:57	17.9	100
186575	2026-08-31T16:24:57	17.9	100
186576	2026-08-31T16:34:57	18.5	100
186577	2026-08-31T16:44:57	18.6	100
186578	2026-08-31T16:54:57	18.8	100
186579	2026-08-31T17:04:57	18.8	100
186580	2026-08-31T17:14:57	19	100
186581	2026-08-31T17:24:57	18.4	100
186582	2026-08-31T17:34:57	18.1	100
186583	2026-08-31T17:44:57	17.9	100
186584	2026-08-31T17:54:57	17.7	100
186585	2026-08-31T18:04:57	17.6	100
186586	2026-08-31T18:14:57	17.5	100
186587	2026-08-31T18:24:57	17.5	100
186588	2026-08-31T18:34:57	17.4	100
186589	2026-08-31T18:44:57	17.3	100
186590	2026-08-31T18:54:57	17.3	100
186591	2026-08-31T19:04:57	17.4	100
186592	2026-08-31T19:14:57	17.2	100
186593	2026-08-31T19:24:57	17.3	100
186594	2026-08-31T19:34:57	17.3	100
186595	2026-08-31T19:44:57	17.4	100
186596	2026-08-31T19:54:57	17.3	100
186597	2026-08-31T20:04:57	17.4	100
186598	2026-08-31T20:14:57	17.5	100
186599	2026-08-31T20:24:57	17.4	100
186600	2026-08-31T20:34:57	17.7	100
186601	2026-08-31T20:44:57	17.8	100
186602	2026-08-31T20:54:57	17.8	100
186603	2026-08-31T21:04:57	17.6	100
186604	2026-08-31T21:14:57	17.5	100
186605	2026-08-31T21:24:57	17.5	100
186606	2026-08-31T21:34:57	17.3	100
186607	2026-08-31T21:44:57	17.1	100
186608	2026-08-31T21:54:57	17.1	100
186609	2026-08-31T22:04:57	17.2	100
186610	2026-08-31T22:14:57	17.2	100
186611	2026-08-31T22:24:57	17.3	100
186612	2026-08-31T22:34:57	17.2	100
186613	2026-08-31T22:44:57	17	100
186614	2026-08-31T22:54:57	16.9	100
186615	2026-08-31T23:04:57	16.8	100
186616	2026-08-31T23:14:57	17	100
186617	2026-08-31T23:24:57	17	100
186618	2026-08-31T23:34:57	17.2	100
186619	2026-08-31T23:44:57	17.2	100
186620	2026-08-31T23:54:57	17.1	100
186621	2026-09-01T00:04:57	17	100
186622	2026-09-01T00:14:57	17	100
186623	2026-09-01T00:24:57	16.9	100
186624	2026-09-01T00:34:57	16.6	100
186625	2026-09-01T00:44:57	16.4	100
186626	2026-09-01T00:54:57	16.2	100
186627	2026-09-01T01:04:57	16.2	100
186628	2026-09-01T01:14:57	16.1	100
186629	2026-09-01T01:24:57	15.8	100
186630	2026-09-01T01:34:57	15.8	100
186631	2026-09-01T01:44:57	15.7	100
186632	2026-09-01T01:54:57	15.5	100
186633	2026-09-01T02:04:57	15.6	100
186634	2026-09-01T02:14:57	15.2	100
186635	2026-09-01T02:24:56	15.3	100
186636	2026-09-01T02:34:56	15.2	100
186637	2026-09-01T02:44:56	14.9	100
186638	2026-09-01T02:54:56	15	100
186639	2026-09-01T03:04:56	14.7	100
186640	2026-09-01T03:14:56	14.5	100
186641	2026-09-01T03:24:56	14.5	100
186642	2026-09-01T03:34:56	14.4	100
186643	2026-09-01T03:44:56	14.2	100
186644	2026-09-01T03:54:56	14.1	100
186645	2026-09-01T04:04:56	13.9	100
186646	2026-09-01T04:14:56	14	100
186647	2026-09-01T04:24:56	13.8	100
186648	2026-09-01T04:34:56	13.8	100
186649	2026-09-01T04:44:56	13.7	100
186650	2026-09-01T04:54:56	13.7	100
186651	2026-09-01T05:04:56	13.7	100
186652	2026-09-01T05:14:56	13.8	100
186653	2026-09-01T05:24:56	13.8	100
186654	2026-09-01T05:34:56	14.1	100
186655	2026-09-01T05:44:56	14.2	100
186656	2026-09-01T05:54:56	14.4	100
186657	2026-09-01T06:04:56	14.6	100
186658	2026-09-01T06:14:56	14.7	100
186659	2026-09-01T06:24:56	14.9	100
186660	2026-09-01T06:34:56	15.1	100
186661	2026-09-01T06:44:56	15.4	100
186662	2026-09-01T06:54:56	16	100
186663	2026-09-01T07:04:56	16.5	100
186664	2026-09-01T07:14:56	16.9	100
186665	2026-09-01T07:24:56	17.3	100
186666	2026-09-01T07:34:56	17.8	100
186667	2026-09-01T07:44:56	18	100
186668	2026-09-01T07:54:56	18.3	100
186669	2026-09-01T07:59:50	18.4	100
186670	2026-09-01T08:09:50	18.4	100
186671	2026-09-01T08:19:50	18.7	100
186672	2026-09-01T08:29:50	19	100
186673	2026-09-01T08:39:50	19.4	100
186674	2026-09-01T08:49:50	19.5	100
186675	2026-09-01T08:59:50	19.9	100
186676	2026-09-01T09:09:50	20.2	100
186677	2026-09-01T09:19:50	20.2	100
186678	2026-09-01T09:39:50	20.6	85.5
186679	2026-09-01T09:49:50	20.8	71.5
186680	2026-09-01T09:59:50	21	70
186681	2026-09-01T10:09:50	21.4	67.5
186682	2026-09-01T10:19:50	21.5	66.5
186683	2026-09-01T10:29:50	21.6	66.5
186684	2026-09-01T10:39:50	22.1	65.5
186685	2026-09-01T10:49:50	22.4	65
186686	2026-09-01T10:59:50	22.8	63.5
186687	2026-09-01T11:09:50	23	63
186688	2026-09-01T11:19:50	22.9	62.5
186689	2026-09-01T11:29:50	22.8	61.5
186690	2026-09-01T11:39:50	23.5	57.5
186691	2026-09-01T11:49:50	23.3	58.5
186692	2026-09-01T11:59:50	24.1	58
186693	2026-09-01T12:09:50	24.7	54
186694	2026-09-01T12:19:50	26.5	52.5
186695	2026-09-01T12:29:50	28.5	47.5
186696	2026-09-01T12:39:50	28.6	46.5
186697	2026-09-01T12:49:50	26.8	50
186698	2026-09-01T12:59:50	26.2	52
186699	2026-09-01T13:09:50	29.4	47
186700	2026-09-01T13:19:50	28	47
186701	2026-09-01T13:29:50	27.1	48
186702	2026-09-01T13:39:50	26.9	49
186703	2026-09-01T13:49:50	27.7	47.5
186704	2026-09-01T13:59:50	29.7	44
186705	2026-09-01T14:09:49	30.4	43
186706	2026-09-01T14:19:49	30.5	42
186707	2026-09-01T14:29:49	31.7	39.5
186708	2026-09-01T14:39:49	31.9	39.5
186709	2026-09-01T14:49:49	32.5	38
186710	2026-09-01T14:59:49	32.7	37.5
186711	2026-09-01T15:09:49	33	37
186712	2026-09-01T15:19:49	31.1	38.5
186713	2026-09-01T15:29:49	31.2	40
186714	2026-09-01T15:39:49	30.3	40
186715	2026-09-01T15:49:49	30.6	39
186716	2026-09-01T15:59:49	31.5	39
186717	2026-09-01T16:09:49	31	39
186718	2026-09-01T16:19:49	30.8	38.5
186719	2026-09-01T16:29:49	30.1	39.5
186720	2026-09-01T16:39:49	28.9	42
186721	2026-09-01T16:49:49	28.2	43
186722	2026-09-01T16:59:49	28	44
186723	2026-09-01T17:09:49	27.7	45.5
186724	2026-09-01T17:19:49	27.2	46.5
186725	2026-09-01T17:29:49	26.9	48
186726	2026-09-01T17:39:49	26.8	48.5
186727	2026-09-01T17:49:49	26	48.5
186728	2026-09-01T17:59:49	25.8	54.5
186729	2026-09-01T18:09:49	25.4	56.5
186730	2026-09-01T18:19:49	24.6	57.5
186731	2026-09-01T18:29:49	24	58
186732	2026-09-01T18:39:49	23.8	60
186733	2026-09-01T18:49:49	23.4	60.5
186734	2026-09-01T18:59:49	23.2	61
186735	2026-09-01T19:09:49	22.9	63.5
186736	2026-09-01T19:19:49	22.5	63
186737	2026-09-01T19:29:49	22.3	65.5
186738	2026-09-01T19:39:49	22	65
186739	2026-09-01T19:49:49	21.7	66.5
186740	2026-09-01T19:59:49	21.5	68
186741	2026-09-01T20:09:49	21.1	68.5
186742	2026-09-01T20:19:49	20.9	69
186743	2026-09-01T20:29:49	20.7	69.5
186744	2026-09-01T20:39:49	20.5	70.5
186745	2026-09-01T20:49:49	20.2	71
186746	2026-09-01T20:59:49	20.1	72
186747	2026-09-01T21:09:49	19.8	72.5
186748	2026-09-01T21:19:49	19.6	72.5
186749	2026-09-01T21:29:49	19.6	72.5
186750	2026-09-01T21:39:49	19.2	73.5
186751	2026-09-01T21:49:49	19	74.5
186752	2026-09-01T21:59:49	18.8	75.5
186753	2026-09-01T22:09:49	18.5	75.5
186754	2026-09-01T22:19:49	18.4	76.5
186755	2026-09-01T22:29:49	18	77.5
186756	2026-09-01T22:39:49	17.9	78
186757	2026-09-01T22:49:49	17.7	78.5
186758	2026-09-01T22:59:49	17.6	78.5
186759	2026-09-01T23:09:49	17.4	79.5
186760	2026-09-01T23:19:49	17.4	79.5
186761	2026-09-01T23:29:49	17.1	80
186762	2026-09-01T23:39:49	17	80.5
186763	2026-09-01T23:49:48	16.9	80.5
186764	2026-09-01T23:59:48	16.8	81
186765	2026-09-02T00:09:48	16.8	81
186766	2026-09-02T00:19:48	16.7	81
186767	2026-09-02T00:29:48	16.5	81.5
186768	2026-09-02T00:39:48	16.2	82
186769	2026-09-02T00:49:48	16	82.5
186770	2026-09-02T00:59:48	15.9	83.5
186771	2026-09-02T01:09:48	15.6	83.5
186772	2026-09-02T01:19:48	15.6	84
186773	2026-09-02T01:29:48	15.6	84
186774	2026-09-02T01:39:48	15.4	84
186775	2026-09-02T01:49:48	15.3	85
186776	2026-09-02T01:59:48	15.2	85
186777	2026-09-02T02:09:48	15.1	85.5
186778	2026-09-02T02:19:48	15	85.5
186779	2026-09-02T02:29:48	14.9	85
186780	2026-09-02T02:39:48	14.8	85.5
186781	2026-09-02T02:49:48	14.7	86
186782	2026-09-02T02:59:48	14.5	87
186783	2026-09-02T03:09:48	14.4	87
186784	2026-09-02T03:19:48	14.6	86.5
186785	2026-09-02T03:29:48	14.3	88
186786	2026-09-02T03:39:48	14.3	87.5
186787	2026-09-02T03:49:48	14.3	87
186788	2026-09-02T03:59:48	14.3	87.5
186789	2026-09-02T04:09:48	14.4	87
186790	2026-09-02T04:19:48	14.3	87.5
186791	2026-09-02T04:29:48	14.3	87.5
186792	2026-09-02T04:39:48	14.1	88.5
186793	2026-09-02T04:49:48	14.1	89
186794	2026-09-02T04:59:48	14.1	89.5
186795	2026-09-02T05:09:48	14.2	89
186796	2026-09-02T05:19:48	14.3	88.5
186797	2026-09-02T05:29:48	14.2	89
186798	2026-09-02T05:39:48	14.2	89.5
186799	2026-09-02T05:49:48	14.4	90
186800	2026-09-02T05:59:48	14.5	90
186801	2026-09-02T06:09:48	14.7	89.5
186802	2026-09-02T06:19:48	14.8	89
186803	2026-09-02T06:29:48	14.8	89.5
186804	2026-09-02T06:39:48	15	89.5
186805	2026-09-02T06:49:48	15	89.5
186806	2026-09-02T06:59:48	15.6	88.5
186807	2026-09-02T07:09:48	16	87
186808	2026-09-02T07:19:48	16.3	86
186809	2026-09-02T07:29:48	16.4	85.5
186810	2026-09-02T07:39:48	16.2	86
186811	2026-09-02T07:49:48	16.4	85
186812	2026-09-02T07:59:48	16.9	82.5
186813	2026-09-02T08:09:48	17	82
186814	2026-09-02T08:19:48	17.3	81.5
186815	2026-09-02T08:29:48	17.8	80.5
186816	2026-09-02T08:39:48	18.6	79
186817	2026-09-02T08:49:48	18.4	79.5
186818	2026-09-02T08:59:48	18.5	79
186819	2026-09-02T09:09:48	19.2	77
186820	2026-09-02T09:19:48	19.3	76
186821	2026-09-02T09:29:48	20	75
186822	2026-09-02T09:39:48	20.2	72
186823	2026-09-02T09:49:48	20.4	72.5
186824	2026-09-02T09:59:48	20.6	70
186825	2026-09-02T10:09:48	21.1	68.5
186826	2026-09-02T10:19:48	21.4	66.5
186827	2026-09-02T10:29:48	21.7	65
186828	2026-09-02T10:39:48	22.2	63
186829	2026-09-02T10:49:48	22.5	61
186830	2026-09-02T10:59:48	22.6	62.5
186831	2026-09-02T11:09:48	22.6	61
186832	2026-09-02T11:19:48	22.8	61
186833	2026-09-02T11:30:05	23.1	60.5
186834	2026-09-02T11:39:47	23.6	60
186835	2026-09-02T11:49:47	24.2	58.5
186836	2026-09-02T11:59:47	24.9	56.5
186837	2026-09-02T12:09:47	25.8	54.5
186838	2026-09-02T12:19:47	27.9	49.5
186839	2026-09-02T12:29:47	28.5	49
186840	2026-09-02T12:39:47	28.2	47.5
186841	2026-09-02T12:49:47	29.4	46.5
186842	2026-09-02T12:59:47	29.5	45.5
186843	2026-09-02T13:09:47	30.4	44
186844	2026-09-02T13:19:47	31.4	42.5
186845	2026-09-02T13:29:47	32.7	40.5
186846	2026-09-02T13:39:47	31.5	40.5
186847	2026-09-02T13:49:47	31.4	41
186848	2026-09-02T13:59:47	32.4	39.5
186849	2026-09-02T14:09:47	31.1	41
186850	2026-09-02T14:29:47	31.6	39
186851	2026-09-02T14:39:47	31.6	39
186852	2026-09-02T14:49:47	30.4	40.5
186853	2026-09-02T14:59:47	30.8	40
186854	2026-09-02T15:09:47	29.9	41
186855	2026-09-02T15:19:47	30.2	41.5
186856	2026-09-02T15:29:47	29.6	40.5
186857	2026-09-02T15:39:47	29.3	41.5
186858	2026-09-02T15:49:47	29.3	41
186859	2026-09-02T15:59:47	28.8	42.5
186860	2026-09-02T16:09:47	29.1	41.5
186861	2026-09-02T16:19:47	28.2	42.5
186862	2026-09-02T16:29:47	27.8	44
186863	2026-09-02T16:39:47	27.4	44.5
186864	2026-09-02T16:49:47	27.6	44.5
186865	2026-09-02T16:59:47	27.1	46
186866	2026-09-02T17:09:47	27	45.5
186867	2026-09-02T17:19:47	26.8	46.5
186868	2026-09-02T17:29:47	26.6	48.5
186869	2026-09-02T17:39:47	25.8	49
186870	2026-09-02T17:49:47	25.6	51
186871	2026-09-02T17:59:47	25.2	54.5
186872	2026-09-02T18:10:06	24.7	56.5
186873	2026-09-02T18:19:47	24.2	57.5
186874	2026-09-02T18:29:47	23.8	59.5
186875	2026-09-02T18:39:47	23.4	59.5
186876	2026-09-02T18:49:47	23	60
186877	2026-09-02T18:59:47	22.9	61
186878	2026-09-02T19:09:47	22.7	61.5
186879	2026-09-02T19:19:47	22.5	62.5
186880	2026-09-02T19:29:47	22.2	63
186881	2026-09-02T19:39:47	21.9	64
186882	2026-09-02T19:49:47	21.6	65
186883	2026-09-02T19:59:47	21.6	65.5
186884	2026-09-02T20:09:47	21.1	67
186885	2026-09-02T20:19:47	21	68
186886	2026-09-02T20:29:47	20.7	69.5
186887	2026-09-02T20:39:47	20.6	69.5
186888	2026-09-02T20:49:47	20.3	69.5
186889	2026-09-02T20:59:47	20.3	70
186890	2026-09-02T21:09:47	20.1	71
186891	2026-09-02T21:19:46	19.9	71
186892	2026-09-02T21:29:46	19.6	72.5
186893	2026-09-02T21:39:46	19.4	73
186894	2026-09-02T21:49:46	19.3	73
186895	2026-09-02T21:59:46	19	74
186896	2026-09-02T22:09:46	18.8	74.5
186897	2026-09-02T22:19:46	18.6	75.5
186898	2026-09-02T22:29:46	18.4	75.5
186899	2026-09-02T22:39:46	18.3	76
186900	2026-09-02T22:49:46	17.9	76
186901	2026-09-02T22:59:46	17.8	77
186902	2026-09-02T23:09:46	17.5	77
186903	2026-09-02T23:19:46	17.4	78
186904	2026-09-02T23:29:46	17.4	78
186905	2026-09-02T23:39:46	17.2	78
186906	2026-09-02T23:49:46	17.2	78
186907	2026-09-02T23:59:46	17	77.5
186908	2026-09-03T00:09:46	17	78.5
186909	2026-09-03T00:19:46	17	79
186910	2026-09-03T00:29:46	16.8	79
186911	2026-09-03T00:39:46	16.4	80
186912	2026-09-03T00:49:46	16.2	80.5
186913	2026-09-03T00:59:46	16.1	81
186914	2026-09-03T01:09:46	16	81
186915	2026-09-03T01:19:46	15.9	81.5
186916	2026-09-03T01:29:46	15.6	82.5
186917	2026-09-03T01:39:46	15.5	83
186918	2026-09-03T01:49:46	15.5	83
186919	2026-09-03T01:59:46	15.5	83
186920	2026-09-03T02:09:46	15.1	83.5
186921	2026-09-03T02:19:46	15.1	83.5
186922	2026-09-03T02:29:46	14.9	84
186923	2026-09-03T02:39:46	14.9	84.5
186924	2026-09-03T02:49:46	14.8	84.5
186925	2026-09-03T02:59:46	14.5	85
186926	2026-09-03T03:09:46	14.5	85
186927	2026-09-03T03:19:46	14.4	85.5
186928	2026-09-03T03:29:46	14.4	86
186929	2026-09-03T03:39:46	14.3	86
186930	2026-09-03T03:49:46	14.1	85.5
186931	2026-09-03T03:59:46	14.2	86
186932	2026-09-03T04:09:46	14	86.5
186933	2026-09-03T04:19:46	13.8	87
186934	2026-09-03T04:29:46	13.8	87
186935	2026-09-03T04:39:46	13.7	86.5
186936	2026-09-03T04:49:46	13.8	87
186937	2026-09-03T04:59:46	13.8	87
186938	2026-09-03T05:09:46	13.8	86.5
186939	2026-09-03T05:19:46	13.8	86.5
186940	2026-09-03T05:29:46	13.8	87
186941	2026-09-03T05:39:46	14.1	87
186942	2026-09-03T05:49:46	14.2	87
186943	2026-09-03T05:59:46	14.3	87.5
186944	2026-09-03T06:09:46	14.5	87.5
186945	2026-09-03T06:19:46	14.9	86.5
186946	2026-09-03T06:29:46	15.3	85.5
186947	2026-09-03T06:39:46	15.3	86
186948	2026-09-03T06:49:46	15.5	86
186949	2026-09-03T06:59:46	15.9	83.5
186950	2026-09-03T07:09:46	16.4	82.5
186951	2026-09-03T07:19:46	16.8	82.5
186952	2026-09-03T07:29:46	17.2	81.5
186953	2026-09-03T07:39:46	17.8	80
186954	2026-09-03T07:49:46	18.1	76
186955	2026-09-03T07:59:46	18.7	73
186956	2026-09-03T08:09:46	19.4	70
186957	2026-09-03T08:19:46	19.9	67.5
186958	2026-09-03T08:29:46	20.5	67.5
186959	2026-09-03T08:39:46	21	66
186960	2026-09-03T08:49:46	21.2	63.5
186961	2026-09-03T08:59:45	21.5	62
186962	2026-09-03T09:09:45	21.8	61.5
186963	2026-09-03T09:19:45	22.3	59.5
186964	2026-09-03T09:29:45	22.9	56.5
186965	2026-09-03T09:39:45	23.4	55.5
186966	2026-09-03T09:49:45	23.4	55
186967	2026-09-03T09:59:45	23.7	54
186968	2026-09-03T10:09:45	24.3	52.5
186969	2026-09-03T10:19:45	24.3	53
186970	2026-09-03T10:29:45	24.5	53
186971	2026-09-03T10:39:45	24.9	52.5
186972	2026-09-03T10:49:45	25.3	52
186973	2026-09-03T10:59:45	25.5	51
186974	2026-09-03T11:09:45	25.9	50
186975	2026-09-03T11:19:45	26.1	49.5
186976	2026-09-03T11:29:45	26.2	48.5
186977	2026-09-03T11:39:45	26.2	49
186978	2026-09-03T11:49:45	27	47.5
186979	2026-09-03T11:59:45	27.2	46.5
186980	2026-09-03T12:09:45	27.4	46.5
186981	2026-09-03T12:19:45	27.6	46
186982	2026-09-03T12:29:45	27	47
186983	2026-09-03T12:39:45	27.5	46.5
186984	2026-09-03T12:49:45	27.6	46
186985	2026-09-03T12:59:45	28.2	44.5
186986	2026-09-03T13:09:45	28.9	43.5
186987	2026-09-03T13:19:45	28.4	44
186988	2026-09-03T13:29:45	28.8	44
186989	2026-09-03T13:39:45	29.4	42.5
186990	2026-09-03T13:49:45	29.2	42.5
186991	2026-09-03T13:59:45	28.3	44.5
186992	2026-09-03T14:09:45	28.3	44.5
186993	2026-09-03T14:19:45	28.4	45
186994	2026-09-03T14:29:45	28	45.5
186995	2026-09-03T14:39:45	28.2	45.5
186996	2026-09-03T14:49:45	28.4	45.5
186997	2026-09-03T14:59:45	28.6	45
186998	2026-09-03T15:09:45	28.7	45.5
186999	2026-09-03T15:19:45	28.5	45.5
187000	2026-09-03T15:29:45	28.5	46.5
187001	2026-09-03T15:39:45	28.5	46
187002	2026-09-03T15:49:45	28.5	46
187003	2026-09-03T15:59:45	28.2	47
187004	2026-09-03T16:09:45	27.9	47.5
187005	2026-09-03T16:19:45	27.7	48
187006	2026-09-03T16:29:45	27.6	48.5
187007	2026-09-03T16:39:45	27.3	49
187008	2026-09-03T16:49:45	27.2	50
187009	2026-09-03T16:59:45	27.1	50
187010	2026-09-03T17:09:45	27	50.5
187011	2026-09-03T17:19:45	27.1	53.5
187012	2026-09-03T17:29:45	26.8	53.5
187013	2026-09-03T17:39:45	26.6	54.5
187014	2026-09-03T17:49:45	26	54.5
187015	2026-09-03T17:59:45	25.6	55
187016	2026-09-03T18:09:45	25.4	56.5
187017	2026-09-03T18:19:45	25	59.5
187018	2026-09-03T18:29:45	24.9	59
187019	2026-09-03T18:39:44	24.8	59
187020	2026-09-03T18:49:44	24.7	60
187021	2026-09-03T18:59:44	24.6	60.5
187022	2026-09-03T19:09:45	24.5	60
187023	2026-09-03T19:19:44	24.4	59.5
187024	2026-09-03T19:29:44	24.4	59.5
187025	2026-09-03T19:39:44	24.4	58
187026	2026-09-03T19:49:44	24.4	57.5
187027	2026-09-03T19:59:44	24.4	58
187028	2026-09-03T20:09:44	24.2	58
187029	2026-09-03T20:19:44	24.1	58
187030	2026-09-03T20:29:44	24.1	58.5
187031	2026-09-03T20:39:44	23.9	58.5
187032	2026-09-03T20:49:44	24.1	59
187033	2026-09-03T20:59:44	23.9	58.5
187034	2026-09-03T21:09:44	23.9	58.5
187035	2026-09-03T21:19:44	23.8	59.5
187036	2026-09-03T21:29:44	23.8	58.5
187037	2026-09-03T21:39:44	24	59
187038	2026-09-03T21:49:44	23.9	59
187039	2026-09-03T21:59:44	23.9	59.5
187040	2026-09-03T22:09:44	23.8	59
187041	2026-09-03T22:19:44	23.7	59.5
187042	2026-09-03T22:29:44	23.7	59.5
187043	2026-09-03T22:39:44	23.7	59.5
187044	2026-09-03T22:49:44	23.6	60
187045	2026-09-03T22:59:44	23.4	61
187046	2026-09-03T23:09:44	23.2	61.5
187047	2026-09-03T23:19:44	23	63
187048	2026-09-03T23:29:44	22.7	64.5
187049	2026-09-03T23:39:44	22.4	65.5
187050	2026-09-03T23:49:44	22.1	66.5
187051	2026-09-03T23:59:44	21.9	67.5
187052	2026-09-04T00:09:44	21.6	68.5
187053	2026-09-04T00:19:44	21.3	69
187054	2026-09-04T00:29:44	21.2	70
187055	2026-09-04T00:39:44	21	70.5
187056	2026-09-04T00:49:44	20.8	71
187057	2026-09-04T00:59:44	20.6	72
187058	2026-09-04T01:09:44	20.4	73.5
187059	2026-09-04T01:19:44	20.2	74
187060	2026-09-04T01:29:44	20.1	74.5
187061	2026-09-04T01:39:44	20.1	75
187062	2026-09-04T01:49:44	20.2	75
187063	2026-09-04T01:59:44	20.2	75
187064	2026-09-04T02:09:44	20.2	74.5
187065	2026-09-04T02:19:44	20.1	75.5
187066	2026-09-04T02:29:44	19.9	75.5
187067	2026-09-04T02:39:44	19.6	76.5
187068	2026-09-04T02:49:44	19.6	77.5
187069	2026-09-04T02:59:44	19.2	78.5
187070	2026-09-04T03:09:44	19	79
187071	2026-09-04T03:19:44	19	79
187072	2026-09-04T03:29:44	18.9	79.5
187073	2026-09-04T03:39:44	18.6	80
187074	2026-09-04T03:49:44	18.6	80
187075	2026-09-04T03:59:44	18.5	80.5
187076	2026-09-04T04:09:44	18.4	81
187077	2026-09-04T04:19:44	18.3	81
187078	2026-09-04T04:29:44	18.3	81
187079	2026-09-04T04:39:44	18.2	81
187080	2026-09-04T04:49:44	18.1	81
187081	2026-09-04T04:59:43	18	81.5
187082	2026-09-04T05:09:43	17.8	82
187083	2026-09-04T05:19:43	17.9	82.5
187084	2026-09-04T05:29:43	18	82
187085	2026-09-04T05:39:43	18	82
187086	2026-09-04T05:49:43	18.1	82.5
187087	2026-09-04T05:59:43	18.3	82
187088	2026-09-04T06:09:43	18.5	82.5
187089	2026-09-04T06:19:43	18.7	82.5
187090	2026-09-04T06:29:43	19.1	82
187091	2026-09-04T06:39:43	19.4	80.5
187092	2026-09-04T06:49:43	19.7	79.5
187093	2026-09-04T06:59:43	20.1	78.5
187094	2026-09-04T07:09:43	20.5	76.5
187095	2026-09-04T07:19:43	21.2	73.5
187096	2026-09-04T07:29:43	21.8	70.5
187097	2026-09-04T07:39:43	22.4	68
187098	2026-09-04T07:49:43	22.9	66.5
187099	2026-09-04T07:59:43	23.1	65.5
187100	2026-09-04T08:09:43	23.7	64.5
187101	2026-09-04T08:19:43	24.1	64.5
187102	2026-09-04T08:29:43	24.4	63.5
187103	2026-09-04T08:39:43	24.8	63.5
187104	2026-09-04T08:49:43	25.1	63
187105	2026-09-04T08:59:43	25.1	62.5
187106	2026-09-04T09:09:43	25.4	61.5
187107	2026-09-04T09:19:43	25.7	61
187108	2026-09-04T09:29:43	25.7	60.5
187109	2026-09-04T09:39:43	26	60.5
187110	2026-09-04T09:49:43	26.3	60.5
187111	2026-09-04T09:59:43	26.6	59.5
187112	2026-09-04T10:09:43	26.7	59
187113	2026-09-04T10:19:43	26.8	59
187114	2026-09-04T10:29:43	27.1	58
187115	2026-09-04T10:39:43	27.3	57.5
187116	2026-09-04T10:49:43	27.5	57
187117	2026-09-04T10:59:43	27.9	56.5
187118	2026-09-04T11:09:43	28	55.5
187119	2026-09-04T11:19:43	28.1	55
187120	2026-09-04T11:29:43	28.3	55
187121	2026-09-04T11:39:43	28.6	54
187122	2026-09-04T11:49:43	29	53.5
187123	2026-09-04T11:59:43	29.4	52.5
187124	2026-09-04T12:09:43	30.1	51
187125	2026-09-04T12:19:43	31.6	48
187126	2026-09-04T12:29:43	32.8	46
187127	2026-09-04T12:39:43	33.5	44.5
187128	2026-09-04T12:49:43	33.8	44
187129	2026-09-04T12:59:43	34.4	43
187130	2026-09-04T13:09:43	34.9	41.5
187131	2026-09-04T13:19:43	35	40.5
187132	2026-09-04T13:29:43	35.8	40
187133	2026-09-04T13:39:43	36.3	38.5
187134	2026-09-04T13:49:43	36.7	37.5
187135	2026-09-04T13:59:43	37	37
187136	2026-09-04T14:09:43	37	37
187137	2026-09-04T14:19:43	37	36.5
187138	2026-09-04T14:29:43	37.2	35.5
187139	2026-09-04T14:39:43	37.5	35.5
187140	2026-09-04T14:49:43	36.7	36
187141	2026-09-04T14:59:43	37.8	35
187142	2026-09-04T15:09:43	37.2	36
187143	2026-09-04T15:19:42	37	36.5
187144	2026-09-04T15:29:43	36.9	37
187145	2026-09-04T15:39:42	37.2	36.5
187146	2026-09-04T15:49:42	36.3	37.5
187147	2026-09-04T15:59:42	36.2	38
187148	2026-09-04T16:09:42	37	37
187149	2026-09-04T16:19:43	36.4	36
187150	2026-09-04T16:29:42	35.5	37
187151	2026-09-04T16:39:42	35.1	38
187152	2026-09-04T16:49:42	33.7	40
187153	2026-09-04T16:59:42	33.3	41
187154	2026-09-04T17:09:42	33.2	41.5
187155	2026-09-04T17:19:42	32.7	42.5
187156	2026-09-04T17:29:42	32.1	43
187157	2026-09-04T17:39:42	31.4	43.5
187158	2026-09-04T17:49:42	31	44.5
187159	2026-09-04T17:59:42	30.7	45
187160	2026-09-04T18:09:42	30.3	45.5
187161	2026-09-04T18:19:42	30	46
187162	2026-09-04T18:29:42	29.8	47
187163	2026-09-04T18:39:42	29.4	48
187164	2026-09-04T18:49:42	29.2	48.5
187165	2026-09-04T18:59:42	28.8	50.5
187166	2026-09-04T19:09:42	28.4	52
187167	2026-09-04T19:19:42	28	53
187168	2026-09-04T19:29:42	27.6	53.5
187169	2026-09-04T19:39:42	27.4	54.5
187170	2026-09-04T19:49:42	27.2	55
187171	2026-09-04T19:59:42	26.9	56
187172	2026-09-04T20:09:42	26.6	57
187173	2026-09-04T20:19:42	26.4	57
187174	2026-09-04T20:29:42	26.1	57.5
187175	2026-09-04T20:39:42	26.1	57.5
187176	2026-09-04T20:49:42	25.9	57.5
187177	2026-09-04T20:59:42	25.9	57.5
187178	2026-09-04T21:09:42	25.9	57.5
187179	2026-09-04T21:19:42	25.7	58
187180	2026-09-04T21:29:42	25.9	58
187181	2026-09-04T21:39:42	26	58
187182	2026-09-04T21:49:42	26.1	59
187183	2026-09-04T21:59:42	26	61
187184	2026-09-04T22:09:42	25.8	61.5
187185	2026-09-04T22:19:42	25.8	61
187186	2026-09-04T22:29:42	25.8	61.5
187187	2026-09-04T22:39:42	25.7	62
187188	2026-09-04T22:49:42	25.5	61.5
187189	2026-09-04T22:59:42	25.5	62
187190	2026-09-04T23:09:42	25.4	62
187191	2026-09-04T23:19:42	25.3	62.5
187192	2026-09-04T23:29:42	25.1	63
187193	2026-09-04T23:39:42	25.1	64
187194	2026-09-04T23:49:42	24.8	65.5
187195	2026-09-04T23:59:42	24.5	66
187196	2026-09-05T00:09:42	24.2	67
187197	2026-09-05T00:19:42	24.1	67.5
187198	2026-09-05T00:29:42	24.1	68.5
187199	2026-09-05T00:39:42	23.9	72.5
187200	2026-09-05T00:49:42	23.5	72
187201	2026-09-05T00:59:42	23	74.5
187202	2026-09-05T01:09:42	23	77.5
187203	2026-09-05T01:19:41	23	80.5
187204	2026-09-05T01:29:42	22.6	86.5
187205	2026-09-05T01:39:41	21.1	100
187206	2026-09-05T01:49:41	20.6	100
187207	2026-09-05T01:59:42	21.1	100
187208	2026-09-05T02:09:41	20.9	100
187209	2026-09-05T02:19:41	20.2	100
187210	2026-09-05T02:29:41	19.7	100
187211	2026-09-05T02:39:41	19.3	100
187212	2026-09-05T02:49:41	18.9	100
187213	2026-09-05T02:59:41	18.5	100
187214	2026-09-05T03:09:41	18.2	100
187215	2026-09-05T03:19:41	18.1	100
187216	2026-09-05T03:29:41	18	100
187217	2026-09-05T03:39:41	17.8	100
187218	2026-09-05T03:49:41	17.7	100
187219	2026-09-05T03:59:41	17.4	100
187220	2026-09-05T04:09:41	17.3	100
187221	2026-09-05T04:19:41	17.3	100
187222	2026-09-05T04:29:41	17.4	100
187223	2026-09-05T04:39:41	17.5	95.5
187224	2026-09-05T04:49:41	17.5	89
187225	2026-09-05T04:59:41	17.4	88.5
187226	2026-09-05T05:09:41	17.5	86
187227	2026-09-05T05:19:41	17.5	86
187228	2026-09-05T05:29:41	17.7	86.5
187229	2026-09-05T05:39:41	17.9	87
187230	2026-09-05T05:49:41	18	86.5
187231	2026-09-05T05:59:41	18	87.5
187232	2026-09-05T06:09:41	18.2	87.5
187233	2026-09-05T06:19:41	18.6	87
187234	2026-09-05T06:29:41	18.6	86.5
187235	2026-09-05T06:39:41	18.7	86.5
187236	2026-09-05T06:49:41	18.7	86.5
187237	2026-09-05T06:59:41	19	86
187238	2026-09-05T07:09:41	18.9	86.5
187239	2026-09-05T07:19:41	19.3	85.5
187240	2026-09-05T07:29:41	19.5	84.5
187241	2026-09-05T07:39:41	19.6	85
187242	2026-09-05T07:49:41	19.6	84.5
187243	2026-09-05T07:59:41	19.6	85
187244	2026-09-05T08:09:41	20	84
187245	2026-09-05T08:19:41	20	84
187246	2026-09-05T08:29:41	20.3	83.5
187247	2026-09-05T08:39:57	20.4	82.5
187248	2026-09-05T08:49:41	20.4	81
187249	2026-09-05T08:59:41	20.7	80
187250	2026-09-05T09:09:41	21.3	77
187251	2026-09-05T09:19:41	21.7	75
187252	2026-09-05T09:29:41	21.6	73.5
187253	2026-09-05T09:39:41	21.7	72
187254	2026-09-05T09:49:41	21.5	72.5
187255	2026-09-05T09:59:41	21.7	71
187256	2026-09-05T10:09:41	22.2	68.5
187257	2026-09-05T10:19:41	22.5	64
187258	2026-09-05T10:29:41	22.9	62
187259	2026-09-05T10:39:41	22.9	63.5
187260	2026-09-05T10:49:41	23.3	60.5
187261	2026-09-05T10:59:41	22.9	59.5
187262	2026-09-05T11:09:41	22.8	58
187263	2026-09-05T11:19:41	23.2	59
187264	2026-09-05T11:29:40	23.1	57.5
187265	2026-09-05T11:39:40	23.6	59
187266	2026-09-05T11:49:40	23.7	57
187267	2026-09-05T11:59:40	24.1	55
187268	2026-09-05T12:09:40	24.7	55
187269	2026-09-05T12:19:40	26.3	50
187270	2026-09-05T12:29:40	27.7	47.5
187271	2026-09-05T12:39:40	28.8	44.5
187272	2026-09-05T12:49:40	28.8	43
187273	2026-09-05T12:59:40	29.9	42.5
187274	2026-09-05T13:09:40	30.1	40.5
187275	2026-09-05T13:19:40	30.8	40
187276	2026-09-05T13:29:40	31.4	38.5
187277	2026-09-05T13:39:40	31.4	36
187278	2026-09-05T13:49:40	31.6	37
187279	2026-09-05T13:59:40	32.1	36
187280	2026-09-05T14:09:40	32.2	34
187281	2026-09-05T14:19:40	31.9	34.5
187282	2026-09-05T14:29:40	31.9	36
187283	2026-09-05T14:39:40	33.3	32
187284	2026-09-05T14:49:40	33.3	33.5
187285	2026-09-05T14:59:40	33.8	31.5
187286	2026-09-05T15:09:40	33.5	30.5
187287	2026-09-05T15:19:40	33.2	31
187288	2026-09-05T15:39:40	33.6	29
187289	2026-09-05T15:49:40	33.8	28.5
187290	2026-09-05T15:59:40	33.7	29.5
187291	2026-09-05T16:09:40	34.5	29.5
187292	2026-09-05T16:19:40	34	30
187293	2026-09-05T16:29:40	32.6	29.5
187294	2026-09-05T16:39:40	30.5	31
187295	2026-09-05T16:49:40	29.7	32
187296	2026-09-05T16:59:40	29.4	31.5
187297	2026-09-05T17:09:40	29.1	32.5
187298	2026-09-05T17:19:40	28.2	33
187299	2026-09-05T17:29:40	27.4	33.5
187300	2026-09-05T17:39:40	27	35
187301	2026-09-05T17:49:40	26.7	35.5
187302	2026-09-05T17:59:40	26	36.5
187303	2026-09-05T18:09:40	25.7	39
187304	2026-09-05T18:19:40	25.3	42.5
187305	2026-09-05T18:29:40	24.9	44.5
187306	2026-09-05T18:39:40	24.5	46
187307	2026-09-05T18:49:40	23.9	47.5
187308	2026-09-05T18:59:40	23.4	50
187309	2026-09-05T19:09:40	22.9	51
187310	2026-09-05T19:19:40	22.5	52.5
187311	2026-09-05T19:29:40	22.1	53.5
187312	2026-09-05T19:39:40	21.7	53
187313	2026-09-05T19:49:40	21.4	54
187314	2026-09-05T19:59:40	21.1	55.5
187315	2026-09-05T20:09:40	20.8	58
187316	2026-09-05T20:19:40	20.4	60
187317	2026-09-05T20:29:40	20.2	60.5
187318	2026-09-05T20:39:40	19.9	59
